<?xml version="1.0" encoding="UTF-8"?>
<TrainingCenterDatabase xmlns="http://www.garmin.com/xmlschemas/TrainingCenterDatabase/v2" xmlns:xsi="http://www.w3.org/2001/XMLSchema-instance" xsi:schemaLocation="http://www.garmin.com/xmlschemas/TrainingCenterDatabase/v2 http://www.garmin.com/xmlschemas/TrainingCenterDatabasev2.xsd">
  <Activities>
    <Activity Sport="Other">
      <Id>2019-01-04T09:20:20.000Z</Id>
      <Lap StartTime="2019-01-04T09:20:20.000Z">
        <TotalTimeSeconds>9924</TotalTimeSeconds>
        <DistanceMeters>12180</DistanceMeters>
        <Track>
          <Trackpoint>
            <Time>2019-01-04T09:20:20.000Z</Time>
            <Position>
              <LatitudeDegrees>36.53650495223701000213623046875</LatitudeDegrees>
              <LongitudeDegrees>-5.3854158706963062286376953125</LongitudeDegrees>
            </Position>
            <AltitudeMeters>197.399993896484375</AltitudeMeters>
            <DistanceMeters>0</DistanceMeters>
          </Trackpoint>
          <Trackpoint>
            <Time>2019-01-04T09:20:21.000Z</Time>
            <Position>
              <LatitudeDegrees>36.5365149267017841339111328125</LatitudeDegrees>
              <LongitudeDegrees>-5.38542098365724086761474609375</LongitudeDegrees>
            </Position>
            <AltitudeMeters>194</AltitudeMeters>
            <DistanceMeters>1.1982412756155</DistanceMeters>
          </Trackpoint>
          <Trackpoint>
            <Time>2019-01-04T09:20:22.000Z</Time>
            <Position>
              <LatitudeDegrees>36.5365290082991123199462890625</LatitudeDegrees>
              <LongitudeDegrees>-5.38543204776942729949951171875</LongitudeDegrees>
            </Position>
            <AltitudeMeters>192.1999969482421875</AltitudeMeters>
            <DistanceMeters>3.0506529600698</DistanceMeters>
          </Trackpoint>
          <Trackpoint>
            <Time>2019-01-04T09:20:23.000Z</Time>
            <Position>
              <LatitudeDegrees>36.53654032386839389801025390625</LatitudeDegrees>
              <LongitudeDegrees>-5.38544378243386745452880859375</LongitudeDegrees>
            </Position>
            <AltitudeMeters>191.600006103515625</AltitudeMeters>
            <DistanceMeters>4.6910683892518</DistanceMeters>
          </Trackpoint>
          <Trackpoint>
            <Time>2019-01-04T09:20:24.000Z</Time>
            <Position>
              <LatitudeDegrees>36.53655122034251689910888671875</LatitudeDegrees>
              <LongitudeDegrees>-5.38545149378478527069091796875</LongitudeDegrees>
            </Position>
            <AltitudeMeters>191</AltitudeMeters>
            <DistanceMeters>6.0876701620898</DistanceMeters>
          </Trackpoint>
          <Trackpoint>
            <Time>2019-01-04T09:20:25.000Z</Time>
            <Position>
              <LatitudeDegrees>36.536560021340847015380859375</LatitudeDegrees>
              <LongitudeDegrees>-5.3854571096599102020263671875</LongitudeDegrees>
            </Position>
            <AltitudeMeters>190.8000030517578125</AltitudeMeters>
            <DistanceMeters>7.1876839090447</DistanceMeters>
          </Trackpoint>
          <Trackpoint>
            <Time>2019-01-04T09:20:26.000Z</Time>
            <Position>
              <LatitudeDegrees>36.5365866757929325103759765625</LatitudeDegrees>
              <LongitudeDegrees>-5.38545769639313220977783203125</LongitudeDegrees>
            </Position>
            <AltitudeMeters>190.600006103515625</AltitudeMeters>
            <DistanceMeters>10.154892114219</DistanceMeters>
          </Trackpoint>
          <Trackpoint>
            <Time>2019-01-04T09:20:27.000Z</Time>
            <Position>
              <LatitudeDegrees>36.53659991919994354248046875</LatitudeDegrees>
              <LongitudeDegrees>-5.3854614682495594024658203125</LongitudeDegrees>
            </Position>
            <AltitudeMeters>190.600006103515625</AltitudeMeters>
            <DistanceMeters>11.666384535742</DistanceMeters>
          </Trackpoint>
          <Trackpoint>
            <Time>2019-01-04T09:20:28.000Z</Time>
            <Position>
              <LatitudeDegrees>36.53662062250077724456787109375</LatitudeDegrees>
              <LongitudeDegrees>-5.3854721970856189727783203125</LongitudeDegrees>
            </Position>
            <AltitudeMeters>190.600006103515625</AltitudeMeters>
            <DistanceMeters>14.162532116781</DistanceMeters>
          </Trackpoint>
          <Trackpoint>
            <Time>2019-01-04T09:20:29.000Z</Time>
            <Position>
              <LatitudeDegrees>36.5366327762603759765625</LatitudeDegrees>
              <LongitudeDegrees>-5.3854913078248500823974609375</LongitudeDegrees>
            </Position>
            <AltitudeMeters>190.399993896484375</AltitudeMeters>
            <DistanceMeters>16.341940341396</DistanceMeters>
          </Trackpoint>
          <Trackpoint>
            <Time>2019-01-04T09:20:30.000Z</Time>
            <Position>
              <LatitudeDegrees>36.53663990087807178497314453125</LatitudeDegrees>
              <LongitudeDegrees>-5.3855157829821109771728515625</LongitudeDegrees>
            </Position>
            <AltitudeMeters>190.399993896484375</AltitudeMeters>
            <DistanceMeters>18.671548879932</DistanceMeters>
          </Trackpoint>
          <Trackpoint>
            <Time>2019-01-04T09:20:31.000Z</Time>
            <Position>
              <LatitudeDegrees>36.5366460196673870086669921875</LatitudeDegrees>
              <LongitudeDegrees>-5.38554855622351169586181640625</LongitudeDegrees>
            </Position>
            <AltitudeMeters>190.399993896484375</AltitudeMeters>
            <DistanceMeters>21.682561458738</DistanceMeters>
          </Trackpoint>
          <Trackpoint>
            <Time>2019-01-04T09:20:32.000Z</Time>
            <Position>
              <LatitudeDegrees>36.5366386435925960540771484375</LatitudeDegrees>
              <LongitudeDegrees>-5.38557655178010463714599609375</LongitudeDegrees>
            </Position>
            <AltitudeMeters>190.1999969482421875</AltitudeMeters>
            <DistanceMeters>24.319445768268</DistanceMeters>
          </Trackpoint>
          <Trackpoint>
            <Time>2019-01-04T09:20:33.000Z</Time>
            <Position>
              <LatitudeDegrees>36.53664140962064266204833984375</LatitudeDegrees>
              <LongitudeDegrees>-5.38561980240046977996826171875</LongitudeDegrees>
            </Position>
            <AltitudeMeters>190</AltitudeMeters>
            <DistanceMeters>28.200446606778</DistanceMeters>
          </Trackpoint>
          <Trackpoint>
            <Time>2019-01-04T09:20:34.000Z</Time>
            <Position>
              <LatitudeDegrees>36.53664509765803813934326171875</LatitudeDegrees>
              <LongitudeDegrees>-5.385656766593456268310546875</LongitudeDegrees>
            </Position>
            <AltitudeMeters>189.8000030517578125</AltitudeMeters>
            <DistanceMeters>31.530451692837</DistanceMeters>
          </Trackpoint>
          <Trackpoint>
            <Time>2019-01-04T09:20:35.000Z</Time>
            <Position>
              <LatitudeDegrees>36.53664777986705303192138671875</LatitudeDegrees>
              <LongitudeDegrees>-5.38569406606256961822509765625</LongitudeDegrees>
            </Position>
            <AltitudeMeters>189.8000030517578125</AltitudeMeters>
            <DistanceMeters>34.879385096682</DistanceMeters>
          </Trackpoint>
          <Trackpoint>
            <Time>2019-01-04T09:20:36.000Z</Time>
            <Position>
              <LatitudeDegrees>36.53665314428508281707763671875</LatitudeDegrees>
              <LongitudeDegrees>-5.3857303597033023834228515625</LongitudeDegrees>
            </Position>
            <AltitudeMeters>189.600006103515625</AltitudeMeters>
            <DistanceMeters>38.179426337547</DistanceMeters>
          </Trackpoint>
          <Trackpoint>
            <Time>2019-01-04T09:20:37.000Z</Time>
            <Position>
              <LatitudeDegrees>36.5366601012647151947021484375</LatitudeDegrees>
              <LongitudeDegrees>-5.38576346822082996368408203125</LongitudeDegrees>
            </Position>
            <AltitudeMeters>189.399993896484375</AltitudeMeters>
            <DistanceMeters>41.238046810233</DistanceMeters>
          </Trackpoint>
          <Trackpoint>
            <Time>2019-01-04T09:20:38.000Z</Time>
            <Position>
              <LatitudeDegrees>36.5366681478917598724365234375</LatitudeDegrees>
              <LongitudeDegrees>-5.38579766638576984405517578125</LongitudeDegrees>
            </Position>
            <AltitudeMeters>189.399993896484375</AltitudeMeters>
            <DistanceMeters>44.423922815825</DistanceMeters>
          </Trackpoint>
          <Trackpoint>
            <Time>2019-01-04T09:20:39.000Z</Time>
            <Position>
              <LatitudeDegrees>36.5366775356233119964599609375</LatitudeDegrees>
              <LongitudeDegrees>-5.38583203218877315521240234375</LongitudeDegrees>
            </Position>
            <AltitudeMeters>189.399993896484375</AltitudeMeters>
            <DistanceMeters>47.668775529532</DistanceMeters>
          </Trackpoint>
          <Trackpoint>
            <Time>2019-01-04T09:20:40.000Z</Time>
            <Position>
              <LatitudeDegrees>36.53668650425970554351806640625</LatitudeDegrees>
              <LongitudeDegrees>-5.3858637996017932891845703125</LongitudeDegrees>
            </Position>
            <AltitudeMeters>189.1999969482421875</AltitudeMeters>
            <DistanceMeters>50.679788108338</DistanceMeters>
          </Trackpoint>
          <Trackpoint>
            <Time>2019-01-04T09:20:41.000Z</Time>
            <Position>
              <LatitudeDegrees>36.5366958081722259521484375</LatitudeDegrees>
              <LongitudeDegrees>-5.38589606992900371551513671875</LongitudeDegrees>
            </Position>
            <AltitudeMeters>189.1999969482421875</AltitudeMeters>
            <DistanceMeters>53.747252803262</DistanceMeters>
          </Trackpoint>
          <Trackpoint>
            <Time>2019-01-04T09:20:42.000Z</Time>
            <Position>
              <LatitudeDegrees>36.5367063693702220916748046875</LatitudeDegrees>
              <LongitudeDegrees>-5.385925658047199249267578125</LongitudeDegrees>
            </Position>
            <AltitudeMeters>189.1999969482421875</AltitudeMeters>
            <DistanceMeters>56.642060385812</DistanceMeters>
          </Trackpoint>
          <Trackpoint>
            <Time>2019-01-04T09:20:43.000Z</Time>
            <Position>
              <LatitudeDegrees>36.5367194451391696929931640625</LatitudeDegrees>
              <LongitudeDegrees>-5.38595709018409252166748046875</LongitudeDegrees>
            </Position>
            <AltitudeMeters>189</AltitudeMeters>
            <DistanceMeters>59.808033356762</DistanceMeters>
          </Trackpoint>
          <Trackpoint>
            <Time>2019-01-04T09:20:44.000Z</Time>
            <Position>
              <LatitudeDegrees>36.5367338620126247406005859375</LatitudeDegrees>
              <LongitudeDegrees>-5.38598642684519290924072265625</LongitudeDegrees>
            </Position>
            <AltitudeMeters>189</AltitudeMeters>
            <DistanceMeters>62.882848804366</DistanceMeters>
          </Trackpoint>
          <Trackpoint>
            <Time>2019-01-04T09:20:45.000Z</Time>
            <Position>
              <LatitudeDegrees>36.53674785979092121124267578125</LatitudeDegrees>
              <LongitudeDegrees>-5.3860170207917690277099609375</LongitudeDegrees>
            </Position>
            <AltitudeMeters>188.8000030517578125</AltitudeMeters>
            <DistanceMeters>66.031661903847</DistanceMeters>
          </Trackpoint>
          <Trackpoint>
            <Time>2019-01-04T09:20:46.000Z</Time>
            <Position>
              <LatitudeDegrees>36.536761187016963958740234375</LatitudeDegrees>
              <LongitudeDegrees>-5.38604795001447200775146484375</LongitudeDegrees>
            </Position>
            <AltitudeMeters>188.8000030517578125</AltitudeMeters>
            <DistanceMeters>69.171859903464</DistanceMeters>
          </Trackpoint>
          <Trackpoint>
            <Time>2019-01-04T09:20:47.000Z</Time>
            <Position>
              <LatitudeDegrees>36.5367754362523555755615234375</LatitudeDegrees>
              <LongitudeDegrees>-5.3860797174274921417236328125</LongitudeDegrees>
            </Position>
            <AltitudeMeters>188.600006103515625</AltitudeMeters>
            <DistanceMeters>72.425050582215</DistanceMeters>
          </Trackpoint>
          <Trackpoint>
            <Time>2019-01-04T09:20:48.000Z</Time>
            <Position>
              <LatitudeDegrees>36.53678976930677890777587890625</LatitudeDegrees>
              <LongitudeDegrees>-5.3861130774021148681640625</LongitudeDegrees>
            </Position>
            <AltitudeMeters>188.600006103515625</AltitudeMeters>
            <DistanceMeters>75.80885567869</DistanceMeters>
          </Trackpoint>
          <Trackpoint>
            <Time>2019-01-04T09:20:49.000Z</Time>
            <Position>
              <LatitudeDegrees>36.536801420152187347412109375</LatitudeDegrees>
              <LongitudeDegrees>-5.38614752702414989471435546875</LongitudeDegrees>
            </Position>
            <AltitudeMeters>188.600006103515625</AltitudeMeters>
            <DistanceMeters>79.152391926081</DistanceMeters>
          </Trackpoint>
          <Trackpoint>
            <Time>2019-01-04T09:20:50.000Z</Time>
            <Position>
              <LatitudeDegrees>36.536812148988246917724609375</LatitudeDegrees>
              <LongitudeDegrees>-5.3861826471984386444091796875</LongitudeDegrees>
            </Position>
            <AltitudeMeters>188.399993896484375</AltitudeMeters>
            <DistanceMeters>82.512093632326</DistanceMeters>
          </Trackpoint>
          <Trackpoint>
            <Time>2019-01-04T09:20:51.000Z</Time>
            <Position>
              <LatitudeDegrees>36.5368227101862430572509765625</LatitudeDegrees>
              <LongitudeDegrees>-5.38621843792498111724853515625</LongitudeDegrees>
            </Position>
            <AltitudeMeters>188.399993896484375</AltitudeMeters>
            <DistanceMeters>85.921156316315</DistanceMeters>
          </Trackpoint>
          <Trackpoint>
            <Time>2019-01-04T09:20:52.000Z</Time>
            <Position>
              <LatitudeDegrees>36.53683117590844631195068359375</LatitudeDegrees>
              <LongitudeDegrees>-5.38625397719442844390869140625</LongitudeDegrees>
            </Position>
            <AltitudeMeters>188.399993896484375</AltitudeMeters>
            <DistanceMeters>89.237575033657</DistanceMeters>
          </Trackpoint>
          <Trackpoint>
            <Time>2019-01-04T09:20:53.000Z</Time>
            <Position>
              <LatitudeDegrees>36.53683922253549098968505859375</LatitudeDegrees>
              <LongitudeDegrees>-5.3862882591784000396728515625</LongitudeDegrees>
            </Position>
            <AltitudeMeters>188.399993896484375</AltitudeMeters>
            <DistanceMeters>92.431942949485</DistanceMeters>
          </Trackpoint>
          <Trackpoint>
            <Time>2019-01-04T09:20:54.000Z</Time>
            <Position>
              <LatitudeDegrees>36.53684726916253566741943359375</LatitudeDegrees>
              <LongitudeDegrees>-5.3863207809627056121826171875</LongitudeDegrees>
            </Position>
            <AltitudeMeters>188.399993896484375</AltitudeMeters>
            <DistanceMeters>95.47576594557</DistanceMeters>
          </Trackpoint>
          <Trackpoint>
            <Time>2019-01-04T09:20:55.000Z</Time>
            <Position>
              <LatitudeDegrees>36.53685430996119976043701171875</LatitudeDegrees>
              <LongitudeDegrees>-5.38635221309959888458251953125</LongitudeDegrees>
            </Position>
            <AltitudeMeters>188.1999969482421875</AltitudeMeters>
            <DistanceMeters>98.395422117638</DistanceMeters>
          </Trackpoint>
          <Trackpoint>
            <Time>2019-01-04T09:20:56.000Z</Time>
            <Position>
              <LatitudeDegrees>36.5368605963885784149169921875</LatitudeDegrees>
              <LongitudeDegrees>-5.3863834775984287261962890625</LongitudeDegrees>
            </Position>
            <AltitudeMeters>188</AltitudeMeters>
            <DistanceMeters>101.27772507334</DistanceMeters>
          </Trackpoint>
          <Trackpoint>
            <Time>2019-01-04T09:20:57.000Z</Time>
            <Position>
              <LatitudeDegrees>36.53686637990176677703857421875</LatitudeDegrees>
              <LongitudeDegrees>-5.38641625083982944488525390625</LongitudeDegrees>
            </Position>
            <AltitudeMeters>188</AltitudeMeters>
            <DistanceMeters>104.27972712048</DistanceMeters>
          </Trackpoint>
          <Trackpoint>
            <Time>2019-01-04T09:20:58.000Z</Time>
            <Position>
              <LatitudeDegrees>36.5368719957768917083740234375</LatitudeDegrees>
              <LongitudeDegrees>-5.38644927553832530975341796875</LongitudeDegrees>
            </Position>
            <AltitudeMeters>187.8000030517578125</AltitudeMeters>
            <DistanceMeters>107.29972334704</DistanceMeters>
          </Trackpoint>
          <Trackpoint>
            <Time>2019-01-04T09:20:59.000Z</Time>
            <Position>
              <LatitudeDegrees>36.53687828220427036285400390625</LatitudeDegrees>
              <LongitudeDegrees>-5.38648146204650402069091796875</LongitudeDegrees>
            </Position>
            <AltitudeMeters>187.8000030517578125</AltitudeMeters>
            <DistanceMeters>110.26236309961</DistanceMeters>
          </Trackpoint>
          <Trackpoint>
            <Time>2019-01-04T09:21:00.000Z</Time>
            <Position>
              <LatitudeDegrees>36.53688649646937847137451171875</LatitudeDegrees>
              <LongitudeDegrees>-5.38651197217404842376708984375</LongitudeDegrees>
            </Position>
            <AltitudeMeters>187.8000030517578125</AltitudeMeters>
            <DistanceMeters>113.13839335374</DistanceMeters>
          </Trackpoint>
          <Trackpoint>
            <Time>2019-01-04T09:21:01.000Z</Time>
            <Position>
              <LatitudeDegrees>36.53689521364867687225341796875</LatitudeDegrees>
              <LongitudeDegrees>-5.3865430690348148345947265625</LongitudeDegrees>
            </Position>
            <AltitudeMeters>187.8000030517578125</AltitudeMeters>
            <DistanceMeters>116.08575378963</DistanceMeters>
          </Trackpoint>
          <Trackpoint>
            <Time>2019-01-04T09:21:02.000Z</Time>
            <Position>
              <LatitudeDegrees>36.53689789585769176483154296875</LatitudeDegrees>
              <LongitudeDegrees>-5.38657718338072299957275390625</LongitudeDegrees>
            </Position>
            <AltitudeMeters>188</AltitudeMeters>
            <DistanceMeters>119.15321848456</DistanceMeters>
          </Trackpoint>
          <Trackpoint>
            <Time>2019-01-04T09:21:03.000Z</Time>
            <Position>
              <LatitudeDegrees>36.53689806349575519561767578125</LatitudeDegrees>
              <LongitudeDegrees>-5.3866144828498363494873046875</LongitudeDegrees>
            </Position>
            <AltitudeMeters>188</AltitudeMeters>
            <DistanceMeters>122.48864262235</DistanceMeters>
          </Trackpoint>
          <Trackpoint>
            <Time>2019-01-04T09:21:04.000Z</Time>
            <Position>
              <LatitudeDegrees>36.5368978120386600494384765625</LatitudeDegrees>
              <LongitudeDegrees>-5.38664977066218852996826171875</LongitudeDegrees>
            </Position>
            <AltitudeMeters>187.8000030517578125</AltitudeMeters>
            <DistanceMeters>125.64318605068</DistanceMeters>
          </Trackpoint>
          <Trackpoint>
            <Time>2019-01-04T09:21:05.000Z</Time>
            <Position>
              <LatitudeDegrees>36.53689655475318431854248046875</LatitudeDegrees>
              <LongitudeDegrees>-5.386685393750667572021484375</LongitudeDegrees>
            </Position>
            <AltitudeMeters>187.8000030517578125</AltitudeMeters>
            <DistanceMeters>128.83189520579</DistanceMeters>
          </Trackpoint>
          <Trackpoint>
            <Time>2019-01-04T09:21:06.000Z</Time>
            <Position>
              <LatitudeDegrees>36.536893285810947418212890625</LatitudeDegrees>
              <LongitudeDegrees>-5.38671992719173431396484375</LongitudeDegrees>
            </Position>
            <AltitudeMeters>187.8000030517578125</AltitudeMeters>
            <DistanceMeters>131.94030023008</DistanceMeters>
          </Trackpoint>
          <Trackpoint>
            <Time>2019-01-04T09:21:07.000Z</Time>
            <Position>
              <LatitudeDegrees>36.5368874184787273406982421875</LatitudeDegrees>
              <LongitudeDegrees>-5.3867522813379764556884765625</LongitudeDegrees>
            </Position>
            <AltitudeMeters>187.8000030517578125</AltitudeMeters>
            <DistanceMeters>134.90598639966</DistanceMeters>
          </Trackpoint>
          <Trackpoint>
            <Time>2019-01-04T09:21:08.000Z</Time>
            <Position>
              <LatitudeDegrees>36.53688155114650726318359375</LatitudeDegrees>
              <LongitudeDegrees>-5.38678153418004512786865234375</LongitudeDegrees>
            </Position>
            <AltitudeMeters>187.8000030517578125</AltitudeMeters>
            <DistanceMeters>137.60213393594</DistanceMeters>
          </Trackpoint>
          <Trackpoint>
            <Time>2019-01-04T09:21:09.000Z</Time>
            <Position>
              <LatitudeDegrees>36.5368763543665409088134765625</LatitudeDegrees>
              <LongitudeDegrees>-5.3868126310408115386962890625</LongitudeDegrees>
            </Position>
            <AltitudeMeters>187.600006103515625</AltitudeMeters>
            <DistanceMeters>140.4434168048</DistanceMeters>
          </Trackpoint>
          <Trackpoint>
            <Time>2019-01-04T09:21:10.000Z</Time>
            <Position>
              <LatitudeDegrees>36.53688448481261730194091796875</LatitudeDegrees>
              <LongitudeDegrees>-5.3868495114147663116455078125</LongitudeDegrees>
            </Position>
            <AltitudeMeters>187.600006103515625</AltitudeMeters>
            <DistanceMeters>143.86437852212</DistanceMeters>
          </Trackpoint>
          <Trackpoint>
            <Time>2019-01-04T09:21:11.000Z</Time>
            <Position>
              <LatitudeDegrees>36.53687761165201663970947265625</LatitudeDegrees>
              <LongitudeDegrees>-5.38688085973262786865234375</LongitudeDegrees>
            </Position>
            <AltitudeMeters>187.8000030517578125</AltitudeMeters>
            <DistanceMeters>146.76852924112</DistanceMeters>
          </Trackpoint>
          <Trackpoint>
            <Time>2019-01-04T09:21:12.000Z</Time>
            <Position>
              <LatitudeDegrees>36.5368746779859066009521484375</LatitudeDegrees>
              <LongitudeDegrees>-5.386911369860172271728515625</LongitudeDegrees>
            </Position>
            <AltitudeMeters>187.8000030517578125</AltitudeMeters>
            <DistanceMeters>149.51609978746</DistanceMeters>
          </Trackpoint>
          <Trackpoint>
            <Time>2019-01-04T09:21:13.000Z</Time>
            <Position>
              <LatitudeDegrees>36.53687224723398685455322265625</LatitudeDegrees>
              <LongitudeDegrees>-5.386941544711589813232421875</LongitudeDegrees>
            </Position>
            <AltitudeMeters>188</AltitudeMeters>
            <DistanceMeters>152.2272770641</DistanceMeters>
          </Trackpoint>
          <Trackpoint>
            <Time>2019-01-04T09:21:14.000Z</Time>
            <Position>
              <LatitudeDegrees>36.536868475377559661865234375</LatitudeDegrees>
              <LongitudeDegrees>-5.3869718872010707855224609375</LongitudeDegrees>
            </Position>
            <AltitudeMeters>188</AltitudeMeters>
            <DistanceMeters>154.9715590748</DistanceMeters>
          </Trackpoint>
          <Trackpoint>
            <Time>2019-01-04T09:21:15.000Z</Time>
            <Position>
              <LatitudeDegrees>36.53686403296887874603271484375</LatitudeDegrees>
              <LongitudeDegrees>-5.38700834847986698150634765625</LongitudeDegrees>
            </Position>
            <AltitudeMeters>188</AltitudeMeters>
            <DistanceMeters>158.27160031567</DistanceMeters>
          </Trackpoint>
          <Trackpoint>
            <Time>2019-01-04T09:21:16.000Z</Time>
            <Position>
              <LatitudeDegrees>36.5368572436273097991943359375</LatitudeDegrees>
              <LongitudeDegrees>-5.38704589940607547760009765625</LongitudeDegrees>
            </Position>
            <AltitudeMeters>187.8000030517578125</AltitudeMeters>
            <DistanceMeters>161.7136143038</DistanceMeters>
          </Trackpoint>
          <Trackpoint>
            <Time>2019-01-04T09:21:17.000Z</Time>
            <Position>
              <LatitudeDegrees>36.53685070574283599853515625</LatitudeDegrees>
              <LongitudeDegrees>-5.38708160631358623504638671875</LongitudeDegrees>
            </Position>
            <AltitudeMeters>187.8000030517578125</AltitudeMeters>
            <DistanceMeters>164.98893578656</DistanceMeters>
          </Trackpoint>
          <Trackpoint>
            <Time>2019-01-04T09:21:18.000Z</Time>
            <Position>
              <LatitudeDegrees>36.5368445031344890594482421875</LatitudeDegrees>
              <LongitudeDegrees>-5.38711831904947757720947265625</LongitudeDegrees>
            </Position>
            <AltitudeMeters>187.8000030517578125</AltitudeMeters>
            <DistanceMeters>168.34460342886</DistanceMeters>
          </Trackpoint>
          <Trackpoint>
            <Time>2019-01-04T09:21:19.000Z</Time>
            <Position>
              <LatitudeDegrees>36.53683637268841266632080078125</LatitudeDegrees>
              <LongitudeDegrees>-5.38715385831892490386962890625</LongitudeDegrees>
            </Position>
            <AltitudeMeters>187.600006103515625</AltitudeMeters>
            <DistanceMeters>171.65011284455</DistanceMeters>
          </Trackpoint>
          <Trackpoint>
            <Time>2019-01-04T09:21:20.000Z</Time>
            <Position>
              <LatitudeDegrees>36.53682866133749485015869140625</LatitudeDegrees>
              <LongitudeDegrees>-5.38718788884580135345458984375</LongitudeDegrees>
            </Position>
            <AltitudeMeters>187.600006103515625</AltitudeMeters>
            <DistanceMeters>174.81180457896</DistanceMeters>
          </Trackpoint>
          <Trackpoint>
            <Time>2019-01-04T09:21:21.000Z</Time>
            <Position>
              <LatitudeDegrees>36.536820866167545318603515625</LatitudeDegrees>
              <LongitudeDegrees>-5.3872213326394557952880859375</LongitudeDegrees>
            </Position>
            <AltitudeMeters>187.600006103515625</AltitudeMeters>
            <DistanceMeters>177.92311329844</DistanceMeters>
          </Trackpoint>
          <Trackpoint>
            <Time>2019-01-04T09:21:22.000Z</Time>
            <Position>
              <LatitudeDegrees>36.53681424446403980255126953125</LatitudeDegrees>
              <LongitudeDegrees>-5.3872541896998882293701171875</LongitudeDegrees>
            </Position>
            <AltitudeMeters>187.600006103515625</AltitudeMeters>
            <DistanceMeters>180.95206652803</DistanceMeters>
          </Trackpoint>
          <Trackpoint>
            <Time>2019-01-04T09:21:23.000Z</Time>
            <Position>
              <LatitudeDegrees>36.53680753894150257110595703125</LatitudeDegrees>
              <LongitudeDegrees>-5.38728729821741580963134765625</LongitudeDegrees>
            </Position>
            <AltitudeMeters>187.600006103515625</AltitudeMeters>
            <DistanceMeters>184.00477661747</DistanceMeters>
          </Trackpoint>
          <Trackpoint>
            <Time>2019-01-04T09:21:24.000Z</Time>
            <Position>
              <LatitudeDegrees>36.53680217452347278594970703125</LatitudeDegrees>
              <LongitudeDegrees>-5.3873182274401187896728515625</LongitudeDegrees>
            </Position>
            <AltitudeMeters>187.600006103515625</AltitudeMeters>
            <DistanceMeters>186.83331824335</DistanceMeters>
          </Trackpoint>
          <Trackpoint>
            <Time>2019-01-04T09:21:25.000Z</Time>
            <Position>
              <LatitudeDegrees>36.53679613955318927764892578125</LatitudeDegrees>
              <LongitudeDegrees>-5.3873500786721706390380859375</LongitudeDegrees>
            </Position>
            <AltitudeMeters>187.600006103515625</AltitudeMeters>
            <DistanceMeters>189.75915358883</DistanceMeters>
          </Trackpoint>
          <Trackpoint>
            <Time>2019-01-04T09:21:26.000Z</Time>
            <Position>
              <LatitudeDegrees>36.5367918647825717926025390625</LatitudeDegrees>
              <LongitudeDegrees>-5.3873795829713344573974609375</LongitudeDegrees>
            </Position>
            <AltitudeMeters>187.600006103515625</AltitudeMeters>
            <DistanceMeters>192.4401871301</DistanceMeters>
          </Trackpoint>
          <Trackpoint>
            <Time>2019-01-04T09:21:27.000Z</Time>
            <Position>
              <LatitudeDegrees>36.53678524307906627655029296875</LatitudeDegrees>
              <LongitudeDegrees>-5.38740782998502254486083984375</LongitudeDegrees>
            </Position>
            <AltitudeMeters>187.600006103515625</AltitudeMeters>
            <DistanceMeters>195.07364468794</DistanceMeters>
          </Trackpoint>
          <Trackpoint>
            <Time>2019-01-04T09:21:28.000Z</Time>
            <Position>
              <LatitudeDegrees>36.5367784537374973297119140625</LatitudeDegrees>
              <LongitudeDegrees>-5.3874379210174083709716796875</LongitudeDegrees>
            </Position>
            <AltitudeMeters>187.399993896484375</AltitudeMeters>
            <DistanceMeters>197.87007923938</DistanceMeters>
          </Trackpoint>
          <Trackpoint>
            <Time>2019-01-04T09:21:29.000Z</Time>
            <Position>
              <LatitudeDegrees>36.536772251129150390625</LatitudeDegrees>
              <LongitudeDegrees>-5.38746734149754047393798828125</LongitudeDegrees>
            </Position>
            <AltitudeMeters>187.399993896484375</AltitudeMeters>
            <DistanceMeters>200.58957047996</DistanceMeters>
          </Trackpoint>
          <Trackpoint>
            <Time>2019-01-04T09:21:30.000Z</Time>
            <Position>
              <LatitudeDegrees>36.53676227666437625885009765625</LatitudeDegrees>
              <LongitudeDegrees>-5.38749885745346546173095703125</LongitudeDegrees>
            </Position>
            <AltitudeMeters>187.399993896484375</AltitudeMeters>
            <DistanceMeters>203.61852370955</DistanceMeters>
          </Trackpoint>
          <Trackpoint>
            <Time>2019-01-04T09:21:31.000Z</Time>
            <Position>
              <LatitudeDegrees>36.536751128733158111572265625</LatitudeDegrees>
              <LongitudeDegrees>-5.38753129541873931884765625</LongitudeDegrees>
            </Position>
            <AltitudeMeters>187.1999969482421875</AltitudeMeters>
            <DistanceMeters>206.77306713788</DistanceMeters>
          </Trackpoint>
          <Trackpoint>
            <Time>2019-01-04T09:21:32.000Z</Time>
            <Position>
              <LatitudeDegrees>36.536737382411956787109375</LatitudeDegrees>
              <LongitudeDegrees>-5.3875626437366008758544921875</LongitudeDegrees>
            </Position>
            <AltitudeMeters>187.1999969482421875</AltitudeMeters>
            <DistanceMeters>209.96602130373</DistanceMeters>
          </Trackpoint>
          <Trackpoint>
            <Time>2019-01-04T09:21:33.000Z</Time>
            <Position>
              <LatitudeDegrees>36.53672455810010433197021484375</LatitudeDegrees>
              <LongitudeDegrees>-5.38759374059736728668212890625</LongitudeDegrees>
            </Position>
            <AltitudeMeters>187.1999969482421875</AltitudeMeters>
            <DistanceMeters>213.09180803868</DistanceMeters>
          </Trackpoint>
          <Trackpoint>
            <Time>2019-01-04T09:21:34.000Z</Time>
            <Position>
              <LatitudeDegrees>36.53670947067439556121826171875</LatitudeDegrees>
              <LongitudeDegrees>-5.38762517273426055908203125</LongitudeDegrees>
            </Position>
            <AltitudeMeters>187.1999969482421875</AltitudeMeters>
            <DistanceMeters>216.36437135549</DistanceMeters>
          </Trackpoint>
          <Trackpoint>
            <Time>2019-01-04T09:21:35.000Z</Time>
            <Position>
              <LatitudeDegrees>36.5366963110864162445068359375</LatitudeDegrees>
              <LongitudeDegrees>-5.38765610195696353912353515625</LongitudeDegrees>
            </Position>
            <AltitudeMeters>187.1999969482421875</AltitudeMeters>
            <DistanceMeters>219.49304565385</DistanceMeters>
          </Trackpoint>
          <Trackpoint>
            <Time>2019-01-04T09:21:36.000Z</Time>
            <Position>
              <LatitudeDegrees>36.536680050194263458251953125</LatitudeDegrees>
              <LongitudeDegrees>-5.387687198817729949951171875</LongitudeDegrees>
            </Position>
            <AltitudeMeters>187.1999969482421875</AltitudeMeters>
            <DistanceMeters>222.81218609403</DistanceMeters>
          </Trackpoint>
          <Trackpoint>
            <Time>2019-01-04T09:21:37.000Z</Time>
            <Position>
              <LatitudeDegrees>36.5366658009588718414306640625</LatitudeDegrees>
              <LongitudeDegrees>-5.38771745748817920684814453125</LongitudeDegrees>
            </Position>
            <AltitudeMeters>187.1999969482421875</AltitudeMeters>
            <DistanceMeters>225.94950713656</DistanceMeters>
          </Trackpoint>
          <Trackpoint>
            <Time>2019-01-04T09:21:38.000Z</Time>
            <Position>
              <LatitudeDegrees>36.53664962388575077056884765625</LatitudeDegrees>
              <LongitudeDegrees>-5.3877470456063747406005859375</LongitudeDegrees>
            </Position>
            <AltitudeMeters>187.1999969482421875</AltitudeMeters>
            <DistanceMeters>229.14952380643</DistanceMeters>
          </Trackpoint>
          <Trackpoint>
            <Time>2019-01-04T09:21:39.000Z</Time>
            <Position>
              <LatitudeDegrees>36.5366309322416782379150390625</LatitudeDegrees>
              <LongitudeDegrees>-5.387778393924236297607421875</LongitudeDegrees>
            </Position>
            <AltitudeMeters>187</AltitudeMeters>
            <DistanceMeters>232.63844098035</DistanceMeters>
          </Trackpoint>
          <Trackpoint>
            <Time>2019-01-04T09:21:40.000Z</Time>
            <Position>
              <LatitudeDegrees>36.53661542572081089019775390625</LatitudeDegrees>
              <LongitudeDegrees>-5.38780932314693927764892578125</LongitudeDegrees>
            </Position>
            <AltitudeMeters>187</AltitudeMeters>
            <DistanceMeters>235.89717845031</DistanceMeters>
          </Trackpoint>
          <Trackpoint>
            <Time>2019-01-04T09:21:41.000Z</Time>
            <Position>
              <LatitudeDegrees>36.536596901714801788330078125</LatitudeDegrees>
              <LongitudeDegrees>-5.38783882744610309600830078125</LongitudeDegrees>
            </Position>
            <AltitudeMeters>187.1999969482421875</AltitudeMeters>
            <DistanceMeters>239.24611185415</DistanceMeters>
          </Trackpoint>
          <Trackpoint>
            <Time>2019-01-04T09:21:42.000Z</Time>
            <Position>
              <LatitudeDegrees>36.536580137908458709716796875</LatitudeDegrees>
              <LongitudeDegrees>-5.3878677450120449066162109375</LongitudeDegrees>
            </Position>
            <AltitudeMeters>187.1999969482421875</AltitudeMeters>
            <DistanceMeters>242.43482100926</DistanceMeters>
          </Trackpoint>
          <Trackpoint>
            <Time>2019-01-04T09:21:43.000Z</Time>
            <Position>
              <LatitudeDegrees>36.53656446374952793121337890625</LatitudeDegrees>
              <LongitudeDegrees>-5.3878972493112087249755859375</LongitudeDegrees>
            </Position>
            <AltitudeMeters>187.1999969482421875</AltitudeMeters>
            <DistanceMeters>245.59794046636</DistanceMeters>
          </Trackpoint>
          <Trackpoint>
            <Time>2019-01-04T09:21:44.000Z</Time>
            <Position>
              <LatitudeDegrees>36.5365474484860897064208984375</LatitudeDegrees>
              <LongitudeDegrees>-5.3879264183342456817626953125</LongitudeDegrees>
            </Position>
            <AltitudeMeters>187.1999969482421875</AltitudeMeters>
            <DistanceMeters>248.82045313671</DistanceMeters>
          </Trackpoint>
          <Trackpoint>
            <Time>2019-01-04T09:21:45.000Z</Time>
            <Position>
              <LatitudeDegrees>36.53653043322265148162841796875</LatitudeDegrees>
              <LongitudeDegrees>-5.38795583881437778472900390625</LongitudeDegrees>
            </Position>
            <AltitudeMeters>187.1999969482421875</AltitudeMeters>
            <DistanceMeters>252.0611288231</DistanceMeters>
          </Trackpoint>
          <Trackpoint>
            <Time>2019-01-04T09:21:46.000Z</Time>
            <Position>
              <LatitudeDegrees>36.53651333414018154144287109375</LatitudeDegrees>
              <LongitudeDegrees>-5.3879854269325733184814453125</LongitudeDegrees>
            </Position>
            <AltitudeMeters>187.1999969482421875</AltitudeMeters>
            <DistanceMeters>255.31986629305</DistanceMeters>
          </Trackpoint>
          <Trackpoint>
            <Time>2019-01-04T09:21:47.000Z</Time>
            <Position>
              <LatitudeDegrees>36.53649740852415561676025390625</LatitudeDegrees>
              <LongitudeDegrees>-5.38801535032689571380615234375</LongitudeDegrees>
            </Position>
            <AltitudeMeters>187.1999969482421875</AltitudeMeters>
            <DistanceMeters>258.52833744706</DistanceMeters>
          </Trackpoint>
          <Trackpoint>
            <Time>2019-01-04T09:21:48.000Z</Time>
            <Position>
              <LatitudeDegrees>36.536481566727161407470703125</LatitudeDegrees>
              <LongitudeDegrees>-5.38804619573056697845458984375</LongitudeDegrees>
            </Position>
            <AltitudeMeters>187.1999969482421875</AltitudeMeters>
            <DistanceMeters>261.80090076387</DistanceMeters>
          </Trackpoint>
          <Trackpoint>
            <Time>2019-01-04T09:21:49.000Z</Time>
            <Position>
              <LatitudeDegrees>36.5364656411111354827880859375</LatitudeDegrees>
              <LongitudeDegrees>-5.38807720877230167388916015625</LongitudeDegrees>
            </Position>
            <AltitudeMeters>187.1999969482421875</AltitudeMeters>
            <DistanceMeters>265.09135083283</DistanceMeters>
          </Trackpoint>
          <Trackpoint>
            <Time>2019-01-04T09:21:50.000Z</Time>
            <Position>
              <LatitudeDegrees>36.53645197860896587371826171875</LatitudeDegrees>
              <LongitudeDegrees>-5.3881071321666240692138671875</LongitudeDegrees>
            </Position>
            <AltitudeMeters>187.1999969482421875</AltitudeMeters>
            <DistanceMeters>268.16763432322</DistanceMeters>
          </Trackpoint>
          <Trackpoint>
            <Time>2019-01-04T09:21:51.000Z</Time>
            <Position>
              <LatitudeDegrees>36.536437310278415679931640625</LatitudeDegrees>
              <LongitudeDegrees>-5.38813747465610504150390625</LongitudeDegrees>
            </Position>
            <AltitudeMeters>187.1999969482421875</AltitudeMeters>
            <DistanceMeters>271.33360729417</DistanceMeters>
          </Trackpoint>
          <Trackpoint>
            <Time>2019-01-04T09:21:52.000Z</Time>
            <Position>
              <LatitudeDegrees>36.53642289340496063232421875</LatitudeDegrees>
              <LongitudeDegrees>-5.38816940970718860626220703125</LongitudeDegrees>
            </Position>
            <AltitudeMeters>187</AltitudeMeters>
            <DistanceMeters>274.61168462216</DistanceMeters>
          </Trackpoint>
          <Trackpoint>
            <Time>2019-01-04T09:21:53.000Z</Time>
            <Position>
              <LatitudeDegrees>36.5364069677889347076416015625</LatitudeDegrees>
              <LongitudeDegrees>-5.388200841844081878662109375</LongitudeDegrees>
            </Position>
            <AltitudeMeters>187</AltitudeMeters>
            <DistanceMeters>277.93626182346</DistanceMeters>
          </Trackpoint>
          <Trackpoint>
            <Time>2019-01-04T09:21:54.000Z</Time>
            <Position>
              <LatitudeDegrees>36.53639028780162334442138671875</LatitudeDegrees>
              <LongitudeDegrees>-5.38823093287646770477294921875</LongitudeDegrees>
            </Position>
            <AltitudeMeters>187</AltitudeMeters>
            <DistanceMeters>281.20606464774</DistanceMeters>
          </Trackpoint>
          <Trackpoint>
            <Time>2019-01-04T09:21:55.000Z</Time>
            <Position>
              <LatitudeDegrees>36.53637536801397800445556640625</LatitudeDegrees>
              <LongitudeDegrees>-5.38826060481369495391845703125</LongitudeDegrees>
            </Position>
            <AltitudeMeters>186.8000030517578125</AltitudeMeters>
            <DistanceMeters>284.33762384695</DistanceMeters>
          </Trackpoint>
          <Trackpoint>
            <Time>2019-01-04T09:21:56.000Z</Time>
            <Position>
              <LatitudeDegrees>36.53636313043534755706787109375</LatitudeDegrees>
              <LongitudeDegrees>-5.38829111494123935699462890625</LongitudeDegrees>
            </Position>
            <AltitudeMeters>186.8000030517578125</AltitudeMeters>
            <DistanceMeters>287.38737444942</DistanceMeters>
          </Trackpoint>
          <Trackpoint>
            <Time>2019-01-04T09:21:57.000Z</Time>
            <Position>
              <LatitudeDegrees>36.536347456276416778564453125</LatitudeDegrees>
              <LongitudeDegrees>-5.38832330144941806793212890625</LongitudeDegrees>
            </Position>
            <AltitudeMeters>186.8000030517578125</AltitudeMeters>
            <DistanceMeters>290.75244738484</DistanceMeters>
          </Trackpoint>
          <Trackpoint>
            <Time>2019-01-04T09:21:58.000Z</Time>
            <Position>
              <LatitudeDegrees>36.5363332070410251617431640625</LatitudeDegrees>
              <LongitudeDegrees>-5.38835599087178707122802734375</LongitudeDegrees>
            </Position>
            <AltitudeMeters>186.8000030517578125</AltitudeMeters>
            <DistanceMeters>294.07702458614</DistanceMeters>
          </Trackpoint>
          <Trackpoint>
            <Time>2019-01-04T09:21:59.000Z</Time>
            <Position>
              <LatitudeDegrees>36.536315269768238067626953125</LatitudeDegrees>
              <LongitudeDegrees>-5.3883890993893146514892578125</LongitudeDegrees>
            </Position>
            <AltitudeMeters>186.8000030517578125</AltitudeMeters>
            <DistanceMeters>297.64653965999</DistanceMeters>
          </Trackpoint>
          <Trackpoint>
            <Time>2019-01-04T09:22:00.000Z</Time>
            <Position>
              <LatitudeDegrees>36.536299847066402435302734375</LatitudeDegrees>
              <LongitudeDegrees>-5.38842086680233478546142578125</LongitudeDegrees>
            </Position>
            <AltitudeMeters>187</AltitudeMeters>
            <DistanceMeters>300.96295837733</DistanceMeters>
          </Trackpoint>
          <Trackpoint>
            <Time>2019-01-04T09:22:01.000Z</Time>
            <Position>
              <LatitudeDegrees>36.53628610074520111083984375</LatitudeDegrees>
              <LongitudeDegrees>-5.38845137692987918853759765625</LongitudeDegrees>
            </Position>
            <AltitudeMeters>187</AltitudeMeters>
            <DistanceMeters>304.09018922727</DistanceMeters>
          </Trackpoint>
          <Trackpoint>
            <Time>2019-01-04T09:22:02.000Z</Time>
            <Position>
              <LatitudeDegrees>36.5362715162336826324462890625</LatitudeDegrees>
              <LongitudeDegrees>-5.3884816356003284454345703125</LongitudeDegrees>
            </Position>
            <AltitudeMeters>187</AltitudeMeters>
            <DistanceMeters>307.24759392007</DistanceMeters>
          </Trackpoint>
          <Trackpoint>
            <Time>2019-01-04T09:22:03.000Z</Time>
            <Position>
              <LatitudeDegrees>36.53625701554119586944580078125</LatitudeDegrees>
              <LongitudeDegrees>-5.38851340301334857940673828125</LongitudeDegrees>
            </Position>
            <AltitudeMeters>187.1999969482421875</AltitudeMeters>
            <DistanceMeters>310.51463391933</DistanceMeters>
          </Trackpoint>
          <Trackpoint>
            <Time>2019-01-04T09:22:04.000Z</Time>
            <Position>
              <LatitudeDegrees>36.53624393977224826812744140625</LatitudeDegrees>
              <LongitudeDegrees>-5.3885463438928127288818359375</LongitudeDegrees>
            </Position>
            <AltitudeMeters>187.1999969482421875</AltitudeMeters>
            <DistanceMeters>313.80096491711</DistanceMeters>
          </Trackpoint>
          <Trackpoint>
            <Time>2019-01-04T09:22:05.000Z</Time>
            <Position>
              <LatitudeDegrees>36.53623103164136409759521484375</LatitudeDegrees>
              <LongitudeDegrees>-5.388576686382293701171875</LongitudeDegrees>
            </Position>
            <AltitudeMeters>187.1999969482421875</AltitudeMeters>
            <DistanceMeters>316.8699011711</DistanceMeters>
          </Trackpoint>
          <Trackpoint>
            <Time>2019-01-04T09:22:06.000Z</Time>
            <Position>
              <LatitudeDegrees>36.5362175367772579193115234375</LatitudeDegrees>
              <LongitudeDegrees>-5.38860677741467952728271484375</LongitudeDegrees>
            </Position>
            <AltitudeMeters>187.1999969482421875</AltitudeMeters>
            <DistanceMeters>319.95204984029</DistanceMeters>
          </Trackpoint>
          <Trackpoint>
            <Time>2019-01-04T09:22:07.000Z</Time>
            <Position>
              <LatitudeDegrees>36.53620370663702487945556640625</LatitudeDegrees>
              <LongitudeDegrees>-5.3886368684470653533935546875</LongitudeDegrees>
            </Position>
            <AltitudeMeters>187</AltitudeMeters>
            <DistanceMeters>323.05172745843</DistanceMeters>
          </Trackpoint>
          <Trackpoint>
            <Time>2019-01-04T09:22:08.000Z</Time>
            <Position>
              <LatitudeDegrees>36.5361903794109821319580078125</LatitudeDegrees>
              <LongitudeDegrees>-5.3886667080223560333251953125</LongitudeDegrees>
            </Position>
            <AltitudeMeters>187</AltitudeMeters>
            <DistanceMeters>326.10443754787</DistanceMeters>
          </Trackpoint>
          <Trackpoint>
            <Time>2019-01-04T09:22:09.000Z</Time>
            <Position>
              <LatitudeDegrees>36.5361773036420345306396484375</LatitudeDegrees>
              <LongitudeDegrees>-5.3886978887021541595458984375</LongitudeDegrees>
            </Position>
            <AltitudeMeters>186.8000030517578125</AltitudeMeters>
            <DistanceMeters>329.2489460478</DistanceMeters>
          </Trackpoint>
          <Trackpoint>
            <Time>2019-01-04T09:22:10.000Z</Time>
            <Position>
              <LatitudeDegrees>36.53616481460630893707275390625</LatitudeDegrees>
              <LongitudeDegrees>-5.3887309134006500244140625</LongitudeDegrees>
            </Position>
            <AltitudeMeters>186.600006103515625</AltitudeMeters>
            <DistanceMeters>332.51460375802</DistanceMeters>
          </Trackpoint>
          <Trackpoint>
            <Time>2019-01-04T09:22:11.000Z</Time>
            <Position>
              <LatitudeDegrees>36.53615291230380535125732421875</LatitudeDegrees>
              <LongitudeDegrees>-5.3887592442333698272705078125</LongitudeDegrees>
            </Position>
            <AltitudeMeters>186.600006103515625</AltitudeMeters>
            <DistanceMeters>335.37331311396</DistanceMeters>
          </Trackpoint>
          <Trackpoint>
            <Time>2019-01-04T09:22:12.000Z</Time>
            <Position>
              <LatitudeDegrees>36.53613857924938201904296875</LatitudeDegrees>
              <LongitudeDegrees>-5.3887870721518993377685546875</LongitudeDegrees>
            </Position>
            <AltitudeMeters>186.600006103515625</AltitudeMeters>
            <DistanceMeters>338.32985061546</DistanceMeters>
          </Trackpoint>
          <Trackpoint>
            <Time>2019-01-04T09:22:13.000Z</Time>
            <Position>
              <LatitudeDegrees>36.53612248599529266357421875</LatitudeDegrees>
              <LongitudeDegrees>-5.3888108767569065093994140625</LongitudeDegrees>
            </Position>
            <AltitudeMeters>186.600006103515625</AltitudeMeters>
            <DistanceMeters>341.1133386411</DistanceMeters>
          </Trackpoint>
          <Trackpoint>
            <Time>2019-01-04T09:22:14.000Z</Time>
            <Position>
              <LatitudeDegrees>36.53610714711248874664306640625</LatitudeDegrees>
              <LongitudeDegrees>-5.38883275352418422698974609375</LongitudeDegrees>
            </Position>
            <AltitudeMeters>186.399993896484375</AltitudeMeters>
            <DistanceMeters>343.71054234964</DistanceMeters>
          </Trackpoint>
          <Trackpoint>
            <Time>2019-01-04T09:22:15.000Z</Time>
            <Position>
              <LatitudeDegrees>36.536089964210987091064453125</LatitudeDegrees>
              <LongitudeDegrees>-5.38885588757693767547607421875</LongitudeDegrees>
            </Position>
            <AltitudeMeters>186.399993896484375</AltitudeMeters>
            <DistanceMeters>346.52949025102</DistanceMeters>
          </Trackpoint>
          <Trackpoint>
            <Time>2019-01-04T09:22:16.000Z</Time>
            <Position>
              <LatitudeDegrees>36.53607294894754886627197265625</LatitudeDegrees>
              <LongitudeDegrees>-5.38888002745807170867919921875</LongitudeDegrees>
            </Position>
            <AltitudeMeters>186.399993896484375</AltitudeMeters>
            <DistanceMeters>349.4023790184</DistanceMeters>
          </Trackpoint>
          <Trackpoint>
            <Time>2019-01-04T09:22:17.000Z</Time>
            <Position>
              <LatitudeDegrees>36.5360562689602375030517578125</LatitudeDegrees>
              <LongitudeDegrees>-5.38890550844371318817138671875</LongitudeDegrees>
            </Position>
            <AltitudeMeters>186.399993896484375</AltitudeMeters>
            <DistanceMeters>352.34360550293</DistanceMeters>
          </Trackpoint>
          <Trackpoint>
            <Time>2019-01-04T09:22:18.000Z</Time>
            <Position>
              <LatitudeDegrees>36.53604260645806789398193359375</LatitudeDegrees>
              <LongitudeDegrees>-5.38893216289579868316650390625</LongitudeDegrees>
            </Position>
            <AltitudeMeters>186.399993896484375</AltitudeMeters>
            <DistanceMeters>355.17214712882</DistanceMeters>
          </Trackpoint>
          <Trackpoint>
            <Time>2019-01-04T09:22:19.000Z</Time>
            <Position>
              <LatitudeDegrees>36.536028273403644561767578125</LatitudeDegrees>
              <LongitudeDegrees>-5.38895948790013790130615234375</LongitudeDegrees>
            </Position>
            <AltitudeMeters>186.399993896484375</AltitudeMeters>
            <DistanceMeters>358.09025646307</DistanceMeters>
          </Trackpoint>
          <Trackpoint>
            <Time>2019-01-04T09:22:20.000Z</Time>
            <Position>
              <LatitudeDegrees>36.53601251542568206787109375</LatitudeDegrees>
              <LongitudeDegrees>-5.38898815400898456573486328125</LongitudeDegrees>
            </Position>
            <AltitudeMeters>186.1999969482421875</AltitudeMeters>
            <DistanceMeters>361.19866148736</DistanceMeters>
          </Trackpoint>
          <Trackpoint>
            <Time>2019-01-04T09:22:21.000Z</Time>
            <Position>
              <LatitudeDegrees>36.53599868528544902801513671875</LatitudeDegrees>
              <LongitudeDegrees>-5.38902034051716327667236328125</LongitudeDegrees>
            </Position>
            <AltitudeMeters>186.399993896484375</AltitudeMeters>
            <DistanceMeters>364.46293632319</DistanceMeters>
          </Trackpoint>
          <Trackpoint>
            <Time>2019-01-04T09:22:22.000Z</Time>
            <Position>
              <LatitudeDegrees>36.53598703444004058837890625</LatitudeDegrees>
              <LongitudeDegrees>-5.389054454863071441650390625</LongitudeDegrees>
            </Position>
            <AltitudeMeters>186.399993896484375</AltitudeMeters>
            <DistanceMeters>367.77935504054</DistanceMeters>
          </Trackpoint>
          <Trackpoint>
            <Time>2019-01-04T09:22:23.000Z</Time>
            <Position>
              <LatitudeDegrees>36.53597856871783733367919921875</LatitudeDegrees>
              <LongitudeDegrees>-5.38909041322767734527587890625</LongitudeDegrees>
            </Position>
            <AltitudeMeters>186.399993896484375</AltitudeMeters>
            <DistanceMeters>371.13098376345</DistanceMeters>
          </Trackpoint>
          <Trackpoint>
            <Time>2019-01-04T09:22:24.000Z</Time>
            <Position>
              <LatitudeDegrees>36.535970270633697509765625</LatitudeDegrees>
              <LongitudeDegrees>-5.3891253657639026641845703125</LongitudeDegrees>
            </Position>
            <AltitudeMeters>186.399993896484375</AltitudeMeters>
            <DistanceMeters>374.39110645662</DistanceMeters>
          </Trackpoint>
          <Trackpoint>
            <Time>2019-01-04T09:22:25.000Z</Time>
            <Position>
              <LatitudeDegrees>36.53596616350114345550537109375</LatitudeDegrees>
              <LongitudeDegrees>-5.389159731566905975341796875</LongitudeDegrees>
            </Position>
            <AltitudeMeters>186.399993896484375</AltitudeMeters>
            <DistanceMeters>377.49951148091</DistanceMeters>
          </Trackpoint>
          <Trackpoint>
            <Time>2019-01-04T09:22:26.000Z</Time>
            <Position>
              <LatitudeDegrees>36.5359613858163356781005859375</LatitudeDegrees>
              <LongitudeDegrees>-5.38919384591281414031982421875</LongitudeDegrees>
            </Position>
            <AltitudeMeters>186.399993896484375</AltitudeMeters>
            <DistanceMeters>380.59627449792</DistanceMeters>
          </Trackpoint>
          <Trackpoint>
            <Time>2019-01-04T09:22:27.000Z</Time>
            <Position>
              <LatitudeDegrees>36.53595828451216220855712890625</LatitudeDegrees>
              <LongitudeDegrees>-5.3892386890947818756103515625</LongitudeDegrees>
            </Position>
            <AltitudeMeters>186.600006103515625</AltitudeMeters>
            <DistanceMeters>384.62119153314</DistanceMeters>
          </Trackpoint>
          <Trackpoint>
            <Time>2019-01-04T09:22:28.000Z</Time>
            <Position>
              <LatitudeDegrees>36.5359556861221790313720703125</LatitudeDegrees>
              <LongitudeDegrees>-5.389287136495113372802734375</LongitudeDegrees>
            </Position>
            <AltitudeMeters>186.399993896484375</AltitudeMeters>
            <DistanceMeters>388.96340290697</DistanceMeters>
          </Trackpoint>
          <Trackpoint>
            <Time>2019-01-04T09:22:29.000Z</Time>
            <Position>
              <LatitudeDegrees>36.5359533391892910003662109375</LatitudeDegrees>
              <LongitudeDegrees>-5.3893272019922733306884765625</LongitudeDegrees>
            </Position>
            <AltitudeMeters>186.399993896484375</AltitudeMeters>
            <DistanceMeters>392.5568704962</DistanceMeters>
          </Trackpoint>
          <Trackpoint>
            <Time>2019-01-04T09:22:30.000Z</Time>
            <Position>
              <LatitudeDegrees>36.53594973497092723846435546875</LatitudeDegrees>
              <LongitudeDegrees>-5.38936860859394073486328125</LongitudeDegrees>
            </Position>
            <AltitudeMeters>186.399993896484375</AltitudeMeters>
            <DistanceMeters>396.28114189043</DistanceMeters>
          </Trackpoint>
          <Trackpoint>
            <Time>2019-01-04T09:22:31.000Z</Time>
            <Position>
              <LatitudeDegrees>36.5359474718570709228515625</LatitudeDegrees>
              <LongitudeDegrees>-5.38940775208175182342529296875</LongitudeDegrees>
            </Position>
            <AltitudeMeters>186.399993896484375</AltitudeMeters>
            <DistanceMeters>399.79070372485</DistanceMeters>
          </Trackpoint>
          <Trackpoint>
            <Time>2019-01-04T09:22:32.000Z</Time>
            <Position>
              <LatitudeDegrees>36.5359456278383731842041015625</LatitudeDegrees>
              <LongitudeDegrees>-5.38944832049310207366943359375</LongitudeDegrees>
            </Position>
            <AltitudeMeters>186.1999969482421875</AltitudeMeters>
            <DistanceMeters>403.42539791246</DistanceMeters>
          </Trackpoint>
          <Trackpoint>
            <Time>2019-01-04T09:22:33.000Z</Time>
            <Position>
              <LatitudeDegrees>36.53594470582902431488037109375</LatitudeDegrees>
              <LongitudeDegrees>-5.38948972709476947784423828125</LongitudeDegrees>
            </Position>
            <AltitudeMeters>186.1999969482421875</AltitudeMeters>
            <DistanceMeters>407.12900238897</DistanceMeters>
          </Trackpoint>
          <Trackpoint>
            <Time>2019-01-04T09:22:34.000Z</Time>
            <Position>
              <LatitudeDegrees>36.53594386763870716094970703125</LatitudeDegrees>
              <LongitudeDegrees>-5.38953130133450031280517578125</LongitudeDegrees>
            </Position>
            <AltitudeMeters>186</AltitudeMeters>
            <DistanceMeters>410.84842131027</DistanceMeters>
          </Trackpoint>
          <Trackpoint>
            <Time>2019-01-04T09:22:35.000Z</Time>
            <Position>
              <LatitudeDegrees>36.53594386763870716094970703125</LatitudeDegrees>
              <LongitudeDegrees>-5.3895766474306583404541015625</LongitudeDegrees>
            </Position>
            <AltitudeMeters>186</AltitudeMeters>
            <DistanceMeters>414.9023994957</DistanceMeters>
          </Trackpoint>
          <Trackpoint>
            <Time>2019-01-04T09:22:36.000Z</Time>
            <Position>
              <LatitudeDegrees>36.5359459631145000457763671875</LatitudeDegrees>
              <LongitudeDegrees>-5.38962216116487979888916015625</LongitudeDegrees>
            </Position>
            <AltitudeMeters>186</AltitudeMeters>
            <DistanceMeters>418.97969893692</DistanceMeters>
          </Trackpoint>
          <Trackpoint>
            <Time>2019-01-04T09:22:37.000Z</Time>
            <Position>
              <LatitudeDegrees>36.53594856150448322296142578125</LatitudeDegrees>
              <LongitudeDegrees>-5.38966725580394268035888671875</LongitudeDegrees>
            </Position>
            <AltitudeMeters>186</AltitudeMeters>
            <DistanceMeters>423.02252447898</DistanceMeters>
          </Trackpoint>
          <Trackpoint>
            <Time>2019-01-04T09:22:38.000Z</Time>
            <Position>
              <LatitudeDegrees>36.53595157898962497711181640625</LatitudeDegrees>
              <LongitudeDegrees>-5.38971151225268840789794921875</LongitudeDegrees>
            </Position>
            <AltitudeMeters>186</AltitudeMeters>
            <DistanceMeters>426.99550492495</DistanceMeters>
          </Trackpoint>
          <Trackpoint>
            <Time>2019-01-04T09:22:39.000Z</Time>
            <Position>
              <LatitudeDegrees>36.53595442883670330047607421875</LatitudeDegrees>
              <LongitudeDegrees>-5.38975442759692668914794921875</LongitudeDegrees>
            </Position>
            <AltitudeMeters>185.8000030517578125</AltitudeMeters>
            <DistanceMeters>430.84613935592</DistanceMeters>
          </Trackpoint>
          <Trackpoint>
            <Time>2019-01-04T09:22:40.000Z</Time>
            <Position>
              <LatitudeDegrees>36.53595794923603534698486328125</LatitudeDegrees>
              <LongitudeDegrees>-5.3897945769131183624267578125</LongitudeDegrees>
            </Position>
            <AltitudeMeters>186</AltitudeMeters>
            <DistanceMeters>434.45715450198</DistanceMeters>
          </Trackpoint>
          <Trackpoint>
            <Time>2019-01-04T09:22:41.000Z</Time>
            <Position>
              <LatitudeDegrees>36.535963229835033416748046875</LatitudeDegrees>
              <LongitudeDegrees>-5.38983204402029514312744140625</LongitudeDegrees>
            </Position>
            <AltitudeMeters>185.8000030517578125</AltitudeMeters>
            <DistanceMeters>437.85826136956</DistanceMeters>
          </Trackpoint>
          <Trackpoint>
            <Time>2019-01-04T09:22:42.000Z</Time>
            <Position>
              <LatitudeDegrees>36.5359697677195072174072265625</LatitudeDegrees>
              <LongitudeDegrees>-5.3898683376610279083251953125</LongitudeDegrees>
            </Position>
            <AltitudeMeters>185.8000030517578125</AltitudeMeters>
            <DistanceMeters>441.18419637251</DistanceMeters>
          </Trackpoint>
          <Trackpoint>
            <Time>2019-01-04T09:22:43.000Z</Time>
            <Position>
              <LatitudeDegrees>36.53597764670848846435546875</LatitudeDegrees>
              <LongitudeDegrees>-5.3899011947214603424072265625</LongitudeDegrees>
            </Position>
            <AltitudeMeters>186</AltitudeMeters>
            <DistanceMeters>444.25018880207</DistanceMeters>
          </Trackpoint>
          <Trackpoint>
            <Time>2019-01-04T09:22:44.000Z</Time>
            <Position>
              <LatitudeDegrees>36.53598728589713573455810546875</LatitudeDegrees>
              <LongitudeDegrees>-5.38993648253381252288818359375</LongitudeDegrees>
            </Position>
            <AltitudeMeters>186.1999969482421875</AltitudeMeters>
            <DistanceMeters>447.58561293986</DistanceMeters>
          </Trackpoint>
          <Trackpoint>
            <Time>2019-01-04T09:22:45.000Z</Time>
            <Position>
              <LatitudeDegrees>36.5359957516193389892578125</LatitudeDegrees>
              <LongitudeDegrees>-5.38997336290776729583740234375</LongitudeDegrees>
            </Position>
            <AltitudeMeters>186.1999969482421875</AltitudeMeters>
            <DistanceMeters>451.01711693708</DistanceMeters>
          </Trackpoint>
          <Trackpoint>
            <Time>2019-01-04T09:22:46.000Z</Time>
            <Position>
              <LatitudeDegrees>36.5360036306083202362060546875</LatitudeDegrees>
              <LongitudeDegrees>-5.3900098241865634918212890625</LongitudeDegrees>
            </Position>
            <AltitudeMeters>186.1999969482421875</AltitudeMeters>
            <DistanceMeters>454.39290669242</DistanceMeters>
          </Trackpoint>
          <Trackpoint>
            <Time>2019-01-04T09:22:47.000Z</Time>
            <Position>
              <LatitudeDegrees>36.53601008467376232147216796875</LatitudeDegrees>
              <LongitudeDegrees>-5.39004695601761341094970703125</LongitudeDegrees>
            </Position>
            <AltitudeMeters>186.1999969482421875</AltitudeMeters>
            <DistanceMeters>457.79002866482</DistanceMeters>
          </Trackpoint>
          <Trackpoint>
            <Time>2019-01-04T09:22:48.000Z</Time>
            <Position>
              <LatitudeDegrees>36.53601729311048984527587890625</LatitudeDegrees>
              <LongitudeDegrees>-5.390084087848663330078125</LongitudeDegrees>
            </Position>
            <AltitudeMeters>186.1999969482421875</AltitudeMeters>
            <DistanceMeters>461.20570704043</DistanceMeters>
          </Trackpoint>
          <Trackpoint>
            <Time>2019-01-04T09:22:49.000Z</Time>
            <Position>
              <LatitudeDegrees>36.53602416627109050750732421875</LatitudeDegrees>
              <LongitudeDegrees>-5.3901204653084278106689453125</LongitudeDegrees>
            </Position>
            <AltitudeMeters>186.1999969482421875</AltitudeMeters>
            <DistanceMeters>464.54654143991</DistanceMeters>
          </Trackpoint>
          <Trackpoint>
            <Time>2019-01-04T09:22:50.000Z</Time>
            <Position>
              <LatitudeDegrees>36.5360314585268497467041015625</LatitudeDegrees>
              <LongitudeDegrees>-5.390156842768192291259765625</LongitudeDegrees>
            </Position>
            <AltitudeMeters>186.1999969482421875</AltitudeMeters>
            <DistanceMeters>467.89951700986</DistanceMeters>
          </Trackpoint>
          <Trackpoint>
            <Time>2019-01-04T09:22:51.000Z</Time>
            <Position>
              <LatitudeDegrees>36.53604109771549701690673828125</LatitudeDegrees>
              <LongitudeDegrees>-5.39019246585667133331298828125</LongitudeDegrees>
            </Position>
            <AltitudeMeters>186.1999969482421875</AltitudeMeters>
            <DistanceMeters>471.26190540323</DistanceMeters>
          </Trackpoint>
          <Trackpoint>
            <Time>2019-01-04T09:22:52.000Z</Time>
            <Position>
              <LatitudeDegrees>36.53605132363736629486083984375</LatitudeDegrees>
              <LongitudeDegrees>-5.39022800512611865997314453125</LongitudeDegrees>
            </Position>
            <AltitudeMeters>186.1999969482421875</AltitudeMeters>
            <DistanceMeters>474.63769515857</DistanceMeters>
          </Trackpoint>
          <Trackpoint>
            <Time>2019-01-04T09:22:53.000Z</Time>
            <Position>
              <LatitudeDegrees>36.5360633097589015960693359375</LatitudeDegrees>
              <LongitudeDegrees>-5.39026102982461452484130859375</LongitudeDegrees>
            </Position>
            <AltitudeMeters>186.399993896484375</AltitudeMeters>
            <DistanceMeters>477.87697730557</DistanceMeters>
          </Trackpoint>
          <Trackpoint>
            <Time>2019-01-04T09:22:54.000Z</Time>
            <Position>
              <LatitudeDegrees>36.53607680462300777435302734375</LatitudeDegrees>
              <LongitudeDegrees>-5.39029355160892009735107421875</LongitudeDegrees>
            </Position>
            <AltitudeMeters>186.1999969482421875</AltitudeMeters>
            <DistanceMeters>481.14954062238</DistanceMeters>
          </Trackpoint>
          <Trackpoint>
            <Time>2019-01-04T09:22:55.000Z</Time>
            <Position>
              <LatitudeDegrees>36.5360904671251773834228515625</LatitudeDegrees>
              <LongitudeDegrees>-5.39032540284097194671630859375</LongitudeDegrees>
            </Position>
            <AltitudeMeters>186.399993896484375</AltitudeMeters>
            <DistanceMeters>484.37905115693</DistanceMeters>
          </Trackpoint>
          <Trackpoint>
            <Time>2019-01-04T09:22:56.000Z</Time>
            <Position>
              <LatitudeDegrees>36.53610262088477611541748046875</LatitudeDegrees>
              <LongitudeDegrees>-5.3903571702539920806884765625</LongitudeDegrees>
            </Position>
            <AltitudeMeters>186.399993896484375</AltitudeMeters>
            <DistanceMeters>487.52499517782</DistanceMeters>
          </Trackpoint>
          <Trackpoint>
            <Time>2019-01-04T09:22:57.000Z</Time>
            <Position>
              <LatitudeDegrees>36.53611469082534313201904296875</LatitudeDegrees>
              <LongitudeDegrees>-5.3903900273144245147705078125</LongitudeDegrees>
            </Position>
            <AltitudeMeters>186.399993896484375</AltitudeMeters>
            <DistanceMeters>490.7559034664</DistanceMeters>
          </Trackpoint>
          <Trackpoint>
            <Time>2019-01-04T09:22:58.000Z</Time>
            <Position>
              <LatitudeDegrees>36.536128856241703033447265625</LatitudeDegrees>
              <LongitudeDegrees>-5.39042062126100063323974609375</LongitudeDegrees>
            </Position>
            <AltitudeMeters>186.399993896484375</AltitudeMeters>
            <DistanceMeters>493.9133081592</DistanceMeters>
          </Trackpoint>
          <Trackpoint>
            <Time>2019-01-04T09:22:59.000Z</Time>
            <Position>
              <LatitudeDegrees>36.5361420996487140655517578125</LatitudeDegrees>
              <LongitudeDegrees>-5.39044660516083240509033203125</LongitudeDegrees>
            </Position>
            <AltitudeMeters>186.399993896484375</AltitudeMeters>
            <DistanceMeters>496.66580414221</DistanceMeters>
          </Trackpoint>
          <Trackpoint>
            <Time>2019-01-04T09:23:00.000Z</Time>
            <Position>
              <LatitudeDegrees>36.53615509159862995147705078125</LatitudeDegrees>
              <LongitudeDegrees>-5.39047108031809329986572265625</LongitudeDegrees>
            </Position>
            <AltitudeMeters>186.1999969482421875</AltitudeMeters>
            <DistanceMeters>499.29239478469</DistanceMeters>
          </Trackpoint>
          <Trackpoint>
            <Time>2019-01-04T09:23:01.000Z</Time>
            <Position>
              <LatitudeDegrees>36.5361675806343555450439453125</LatitudeDegrees>
              <LongitudeDegrees>-5.39049672894179821014404296875</LongitudeDegrees>
            </Position>
            <AltitudeMeters>186.1999969482421875</AltitudeMeters>
            <DistanceMeters>501.97342832596</DistanceMeters>
          </Trackpoint>
          <Trackpoint>
            <Time>2019-01-04T09:23:02.000Z</Time>
            <Position>
              <LatitudeDegrees>36.53617789037525653839111328125</LatitudeDegrees>
              <LongitudeDegrees>-5.39052388630807399749755859375</LongitudeDegrees>
            </Position>
            <AltitudeMeters>186.1999969482421875</AltitudeMeters>
            <DistanceMeters>504.65950931482</DistanceMeters>
          </Trackpoint>
          <Trackpoint>
            <Time>2019-01-04T09:23:03.000Z</Time>
            <Position>
              <LatitudeDegrees>36.5361887030303478240966796875</LatitudeDegrees>
              <LongitudeDegrees>-5.39055121131241321563720703125</LongitudeDegrees>
            </Position>
            <AltitudeMeters>186.399993896484375</AltitudeMeters>
            <DistanceMeters>507.38397675579</DistanceMeters>
          </Trackpoint>
          <Trackpoint>
            <Time>2019-01-04T09:23:04.000Z</Time>
            <Position>
              <LatitudeDegrees>36.53620169498026371002197265625</LatitudeDegrees>
              <LongitudeDegrees>-5.39057618938386440277099609375</LongitudeDegrees>
            </Position>
            <AltitudeMeters>186.399993896484375</AltitudeMeters>
            <DistanceMeters>510.04472475815</DistanceMeters>
          </Trackpoint>
          <Trackpoint>
            <Time>2019-01-04T09:23:05.000Z</Time>
            <Position>
              <LatitudeDegrees>36.53621627949178218841552734375</LatitudeDegrees>
              <LongitudeDegrees>-5.390599407255649566650390625</LongitudeDegrees>
            </Position>
            <AltitudeMeters>186.399993896484375</AltitudeMeters>
            <DistanceMeters>512.68160906768</DistanceMeters>
          </Trackpoint>
          <Trackpoint>
            <Time>2019-01-04T09:23:06.000Z</Time>
            <Position>
              <LatitudeDegrees>36.53623287566006183624267578125</LatitudeDegrees>
              <LongitudeDegrees>-5.39062044583261013031005859375</LongitudeDegrees>
            </Position>
            <AltitudeMeters>186.399993896484375</AltitudeMeters>
            <DistanceMeters>515.31849337721</DistanceMeters>
          </Trackpoint>
          <Trackpoint>
            <Time>2019-01-04T09:23:07.000Z</Time>
            <Position>
              <LatitudeDegrees>36.53625114820897579193115234375</LatitudeDegrees>
              <LongitudeDegrees>-5.39063997566699981689453125</LongitudeDegrees>
            </Position>
            <AltitudeMeters>186.399993896484375</AltitudeMeters>
            <DistanceMeters>517.99952691848</DistanceMeters>
          </Trackpoint>
          <Trackpoint>
            <Time>2019-01-04T09:23:08.000Z</Time>
            <Position>
              <LatitudeDegrees>36.53626774437725543975830078125</LatitudeDegrees>
              <LongitudeDegrees>-5.3906582482159137725830078125</LongitudeDegrees>
            </Position>
            <AltitudeMeters>186.399993896484375</AltitudeMeters>
            <DistanceMeters>520.46473308567</DistanceMeters>
          </Trackpoint>
          <Trackpoint>
            <Time>2019-01-04T09:23:09.000Z</Time>
            <Position>
              <LatitudeDegrees>36.53628450818359851837158203125</LatitudeDegrees>
              <LongitudeDegrees>-5.3906780295073986053466796875</LongitudeDegrees>
            </Position>
            <AltitudeMeters>186.399993896484375</AltitudeMeters>
            <DistanceMeters>523.03572821538</DistanceMeters>
          </Trackpoint>
          <Trackpoint>
            <Time>2019-01-04T09:23:10.000Z</Time>
            <Position>
              <LatitudeDegrees>36.536301188170909881591796875</LatitudeDegrees>
              <LongitudeDegrees>-5.39070040918886661529541015625</LongitudeDegrees>
            </Position>
            <AltitudeMeters>186.1999969482421875</AltitudeMeters>
            <DistanceMeters>525.76681648614</DistanceMeters>
          </Trackpoint>
          <Trackpoint>
            <Time>2019-01-04T09:23:11.000Z</Time>
            <Position>
              <LatitudeDegrees>36.53631937690079212188720703125</LatitudeDegrees>
              <LongitudeDegrees>-5.39072270505130290985107421875</LongitudeDegrees>
            </Position>
            <AltitudeMeters>186.1999969482421875</AltitudeMeters>
            <DistanceMeters>528.60809935501</DistanceMeters>
          </Trackpoint>
          <Trackpoint>
            <Time>2019-01-04T09:23:12.000Z</Time>
            <Position>
              <LatitudeDegrees>36.5363379009068012237548828125</LatitudeDegrees>
              <LongitudeDegrees>-5.39074416272342205047607421875</LongitudeDegrees>
            </Position>
            <AltitudeMeters>186.1999969482421875</AltitudeMeters>
            <DistanceMeters>531.42384208434</DistanceMeters>
          </Trackpoint>
          <Trackpoint>
            <Time>2019-01-04T09:23:13.000Z</Time>
            <Position>
              <LatitudeDegrees>36.53635726310312747955322265625</LatitudeDegrees>
              <LongitudeDegrees>-5.390765368938446044921875</LongitudeDegrees>
            </Position>
            <AltitudeMeters>186.1999969482421875</AltitudeMeters>
            <DistanceMeters>534.29358592603</DistanceMeters>
          </Trackpoint>
          <Trackpoint>
            <Time>2019-01-04T09:23:14.000Z</Time>
            <Position>
              <LatitudeDegrees>36.53637704439461231231689453125</LatitudeDegrees>
              <LongitudeDegrees>-5.3907890059053897857666015625</LongitudeDegrees>
            </Position>
            <AltitudeMeters>186.399993896484375</AltitudeMeters>
            <DistanceMeters>537.34629601546</DistanceMeters>
          </Trackpoint>
          <Trackpoint>
            <Time>2019-01-04T09:23:15.000Z</Time>
            <Position>
              <LatitudeDegrees>36.53639699332416057586669921875</LatitudeDegrees>
              <LongitudeDegrees>-5.39081641472876071929931640625</LongitudeDegrees>
            </Position>
            <AltitudeMeters>186.399993896484375</AltitudeMeters>
            <DistanceMeters>540.65453612919</DistanceMeters>
          </Trackpoint>
          <Trackpoint>
            <Time>2019-01-04T09:23:16.000Z</Time>
            <Position>
              <LatitudeDegrees>36.53641509823501110076904296875</LatitudeDegrees>
              <LongitudeDegrees>-5.3908418118953704833984375</LongitudeDegrees>
            </Position>
            <AltitudeMeters>186.600006103515625</AltitudeMeters>
            <DistanceMeters>543.69093334452</DistanceMeters>
          </Trackpoint>
          <Trackpoint>
            <Time>2019-01-04T09:23:17.000Z</Time>
            <Position>
              <LatitudeDegrees>36.5364329516887664794921875</LatitudeDegrees>
              <LongitudeDegrees>-5.39086662232875823974609375</LongitudeDegrees>
            </Position>
            <AltitudeMeters>186.600006103515625</AltitudeMeters>
            <DistanceMeters>546.66877401655</DistanceMeters>
          </Trackpoint>
          <Trackpoint>
            <Time>2019-01-04T09:23:18.000Z</Time>
            <Position>
              <LatitudeDegrees>36.5364498831331729888916015625</LatitudeDegrees>
              <LongitudeDegrees>-5.39089185185730457305908203125</LongitudeDegrees>
            </Position>
            <AltitudeMeters>186.600006103515625</AltitudeMeters>
            <DistanceMeters>549.60846501338</DistanceMeters>
          </Trackpoint>
          <Trackpoint>
            <Time>2019-01-04T09:23:19.000Z</Time>
            <Position>
              <LatitudeDegrees>36.53646714985370635986328125</LatitudeDegrees>
              <LongitudeDegrees>-5.3909177519381046295166015625</LongitudeDegrees>
            </Position>
            <AltitudeMeters>186.8000030517578125</AltitudeMeters>
            <DistanceMeters>552.61797771036</DistanceMeters>
          </Trackpoint>
          <Trackpoint>
            <Time>2019-01-04T09:23:20.000Z</Time>
            <Position>
              <LatitudeDegrees>36.5364864282310009002685546875</LatitudeDegrees>
              <LongitudeDegrees>-5.39094306528568267822265625</LongitudeDegrees>
            </Position>
            <AltitudeMeters>186.8000030517578125</AltitudeMeters>
            <DistanceMeters>555.73508570555</DistanceMeters>
          </Trackpoint>
          <Trackpoint>
            <Time>2019-01-04T09:23:21.000Z</Time>
            <Position>
              <LatitudeDegrees>36.53650604188442230224609375</LatitudeDegrees>
              <LongitudeDegrees>-5.39096812717616558074951171875</LongitudeDegrees>
            </Position>
            <AltitudeMeters>186.8000030517578125</AltitudeMeters>
            <DistanceMeters>558.86376000392</DistanceMeters>
          </Trackpoint>
          <Trackpoint>
            <Time>2019-01-04T09:23:22.000Z</Time>
            <Position>
              <LatitudeDegrees>36.53652288950979709625244140625</LatitudeDegrees>
              <LongitudeDegrees>-5.39099561981856822967529296875</LongitudeDegrees>
            </Position>
            <AltitudeMeters>187</AltitudeMeters>
            <DistanceMeters>561.95468557366</DistanceMeters>
          </Trackpoint>
          <Trackpoint>
            <Time>2019-01-04T09:23:23.000Z</Time>
            <Position>
              <LatitudeDegrees>36.5365397371351718902587890625</LatitudeDegrees>
              <LongitudeDegrees>-5.39102395065128803253173828125</LongitudeDegrees>
            </Position>
            <AltitudeMeters>186.8000030517578125</AltitudeMeters>
            <DistanceMeters>565.10636513992</DistanceMeters>
          </Trackpoint>
          <Trackpoint>
            <Time>2019-01-04T09:23:24.000Z</Time>
            <Position>
              <LatitudeDegrees>36.536556668579578399658203125</LatitudeDegrees>
              <LongitudeDegrees>-5.39105395786464214324951171875</LongitudeDegrees>
            </Position>
            <AltitudeMeters>186.8000030517578125</AltitudeMeters>
            <DistanceMeters>568.38444246791</DistanceMeters>
          </Trackpoint>
          <Trackpoint>
            <Time>2019-01-04T09:23:25.000Z</Time>
            <Position>
              <LatitudeDegrees>36.53657251037657260894775390625</LatitudeDegrees>
              <LongitudeDegrees>-5.3910843841731548309326171875</LongitudeDegrees>
            </Position>
            <AltitudeMeters>186.8000030517578125</AltitudeMeters>
            <DistanceMeters>571.62790343688</DistanceMeters>
          </Trackpoint>
          <Trackpoint>
            <Time>2019-01-04T09:23:26.000Z</Time>
            <Position>
              <LatitudeDegrees>36.536590866744518280029296875</LatitudeDegrees>
              <LongitudeDegrees>-5.391114056110382080078125</LongitudeDegrees>
            </Position>
            <AltitudeMeters>186.8000030517578125</AltitudeMeters>
            <DistanceMeters>574.97683684072</DistanceMeters>
          </Trackpoint>
          <Trackpoint>
            <Time>2019-01-04T09:23:27.000Z</Time>
            <Position>
              <LatitudeDegrees>36.53660888783633708953857421875</LatitudeDegrees>
              <LongitudeDegrees>-5.3911470808088779449462890625</LongitudeDegrees>
            </Position>
            <AltitudeMeters>186.8000030517578125</AltitudeMeters>
            <DistanceMeters>578.54761657894</DistanceMeters>
          </Trackpoint>
          <Trackpoint>
            <Time>2019-01-04T09:23:28.000Z</Time>
            <Position>
              <LatitudeDegrees>36.53662816621363162994384765625</LatitudeDegrees>
              <LongitudeDegrees>-5.39118102751672267913818359375</LongitudeDegrees>
            </Position>
            <AltitudeMeters>186.8000030517578125</AltitudeMeters>
            <DistanceMeters>582.26460688822</DistanceMeters>
          </Trackpoint>
          <Trackpoint>
            <Time>2019-01-04T09:23:29.000Z</Time>
            <Position>
              <LatitudeDegrees>36.53664845041930675506591796875</LatitudeDegrees>
              <LongitudeDegrees>-5.3912151418626308441162109375</LongitudeDegrees>
            </Position>
            <AltitudeMeters>186.600006103515625</AltitudeMeters>
            <DistanceMeters>586.05973164613</DistanceMeters>
          </Trackpoint>
          <Trackpoint>
            <Time>2019-01-04T09:23:30.000Z</Time>
            <Position>
              <LatitudeDegrees>36.53666957281529903411865234375</LatitudeDegrees>
              <LongitudeDegrees>-5.391248501837253570556640625</LongitudeDegrees>
            </Position>
            <AltitudeMeters>186.8000030517578125</AltitudeMeters>
            <DistanceMeters>589.85842381021</DistanceMeters>
          </Trackpoint>
          <Trackpoint>
            <Time>2019-01-04T09:23:31.000Z</Time>
            <Position>
              <LatitudeDegrees>36.53669170103967189788818359375</LatitudeDegrees>
              <LongitudeDegrees>-5.3912795148789882659912109375</LongitudeDegrees>
            </Position>
            <AltitudeMeters>186.8000030517578125</AltitudeMeters>
            <DistanceMeters>593.56811874384</DistanceMeters>
          </Trackpoint>
          <Trackpoint>
            <Time>2019-01-04T09:23:32.000Z</Time>
            <Position>
              <LatitudeDegrees>36.53671265579760074615478515625</LatitudeDegrees>
              <LongitudeDegrees>-5.391308180987834930419921875</LongitudeDegrees>
            </Position>
            <AltitudeMeters>186.8000030517578125</AltitudeMeters>
            <DistanceMeters>597.03496626672</DistanceMeters>
          </Trackpoint>
          <Trackpoint>
            <Time>2019-01-04T09:23:33.000Z</Time>
            <Position>
              <LatitudeDegrees>36.53673578985035419464111328125</LatitudeDegrees>
              <LongitudeDegrees>-5.39133877493441104888916015625</LongitudeDegrees>
            </Position>
            <AltitudeMeters>186.8000030517578125</AltitudeMeters>
            <DistanceMeters>600.79062591656</DistanceMeters>
          </Trackpoint>
          <Trackpoint>
            <Time>2019-01-04T09:23:34.000Z</Time>
            <Position>
              <LatitudeDegrees>36.5367616899311542510986328125</LatitudeDegrees>
              <LongitudeDegrees>-5.39136811159551143646240234375</LongitudeDegrees>
            </Position>
            <AltitudeMeters>186.8000030517578125</AltitudeMeters>
            <DistanceMeters>604.6878798958</DistanceMeters>
          </Trackpoint>
          <Trackpoint>
            <Time>2019-01-04T09:23:35.000Z</Time>
            <Position>
              <LatitudeDegrees>36.5367888472974300384521484375</LatitudeDegrees>
              <LongitudeDegrees>-5.3913948498666286468505859375</LongitudeDegrees>
            </Position>
            <AltitudeMeters>186.600006103515625</AltitudeMeters>
            <DistanceMeters>608.54085870107</DistanceMeters>
          </Trackpoint>
          <Trackpoint>
            <Time>2019-01-04T09:23:36.000Z</Time>
            <Position>
              <LatitudeDegrees>36.53681625612080097198486328125</LatitudeDegrees>
              <LongitudeDegrees>-5.39142049849033355712890625</LongitudeDegrees>
            </Position>
            <AltitudeMeters>186.600006103515625</AltitudeMeters>
            <DistanceMeters>612.35615465652</DistanceMeters>
          </Trackpoint>
          <Trackpoint>
            <Time>2019-01-04T09:23:37.000Z</Time>
            <Position>
              <LatitudeDegrees>36.53683905489742755889892578125</LatitudeDegrees>
              <LongitudeDegrees>-5.39144472219049930572509765625</LongitudeDegrees>
            </Position>
            <AltitudeMeters>186.399993896484375</AltitudeMeters>
            <DistanceMeters>615.69157879431</DistanceMeters>
          </Trackpoint>
          <Trackpoint>
            <Time>2019-01-04T09:23:38.000Z</Time>
            <Position>
              <LatitudeDegrees>36.5368636138737201690673828125</LatitudeDegrees>
              <LongitudeDegrees>-5.39146902970969676971435546875</LongitudeDegrees>
            </Position>
            <AltitudeMeters>186.399993896484375</AltitudeMeters>
            <DistanceMeters>619.18566856881</DistanceMeters>
          </Trackpoint>
          <Trackpoint>
            <Time>2019-01-04T09:23:39.000Z</Time>
            <Position>
              <LatitudeDegrees>36.5368901006877422332763671875</LatitudeDegrees>
              <LongitudeDegrees>-5.39149283431470394134521484375</LongitudeDegrees>
            </Position>
            <AltitudeMeters>186.399993896484375</AltitudeMeters>
            <DistanceMeters>622.82160475003</DistanceMeters>
          </Trackpoint>
          <Trackpoint>
            <Time>2019-01-04T09:23:40.000Z</Time>
            <Position>
              <LatitudeDegrees>36.53691968880593776702880859375</LatitudeDegrees>
              <LongitudeDegrees>-5.3915118612349033355712890625</LongitudeDegrees>
            </Position>
            <AltitudeMeters>186.399993896484375</AltitudeMeters>
            <DistanceMeters>626.52886470149</DistanceMeters>
          </Trackpoint>
          <Trackpoint>
            <Time>2019-01-04T09:23:41.000Z</Time>
            <Position>
              <LatitudeDegrees>36.5369470976293087005615234375</LatitudeDegrees>
              <LongitudeDegrees>-5.39152870886027812957763671875</LongitudeDegrees>
            </Position>
            <AltitudeMeters>186.399993896484375</AltitudeMeters>
            <DistanceMeters>629.93129883034</DistanceMeters>
          </Trackpoint>
          <Trackpoint>
            <Time>2019-01-04T09:23:42.000Z</Time>
            <Position>
              <LatitudeDegrees>36.53697735629975795745849609375</LatitudeDegrees>
              <LongitudeDegrees>-5.39154128171503543853759765625</LongitudeDegrees>
            </Position>
            <AltitudeMeters>186.1999969482421875</AltitudeMeters>
            <DistanceMeters>633.4817898831</DistanceMeters>
          </Trackpoint>
          <Trackpoint>
            <Time>2019-01-04T09:23:43.000Z</Time>
            <Position>
              <LatitudeDegrees>36.537010632455348968505859375</LatitudeDegrees>
              <LongitudeDegrees>-5.3915537707507610321044921875</LongitudeDegrees>
            </Position>
            <AltitudeMeters>186.1999969482421875</AltitudeMeters>
            <DistanceMeters>637.34997248836</DistanceMeters>
          </Trackpoint>
          <Trackpoint>
            <Time>2019-01-04T09:23:44.000Z</Time>
            <Position>
              <LatitudeDegrees>36.53704357333481311798095703125</LatitudeDegrees>
              <LongitudeDegrees>-5.3915648348629474639892578125</LongitudeDegrees>
            </Position>
            <AltitudeMeters>186</AltitudeMeters>
            <DistanceMeters>641.14747588941</DistanceMeters>
          </Trackpoint>
          <Trackpoint>
            <Time>2019-01-04T09:23:45.000Z</Time>
            <Position>
              <LatitudeDegrees>36.537086069583892822265625</LatitudeDegrees>
              <LongitudeDegrees>-5.39157732389867305755615234375</LongitudeDegrees>
            </Position>
            <AltitudeMeters>186</AltitudeMeters>
            <DistanceMeters>646.00779274919</DistanceMeters>
          </Trackpoint>
          <Trackpoint>
            <Time>2019-01-04T09:23:46.000Z</Time>
            <Position>
              <LatitudeDegrees>36.5371314994990825653076171875</LatitudeDegrees>
              <LongitudeDegrees>-5.391591824591159820556640625</LongitudeDegrees>
            </Position>
            <AltitudeMeters>185.8000030517578125</AltitudeMeters>
            <DistanceMeters>651.22821138258</DistanceMeters>
          </Trackpoint>
          <Trackpoint>
            <Time>2019-01-04T09:23:47.000Z</Time>
            <Position>
              <LatitudeDegrees>36.53716762550175189971923828125</LatitudeDegrees>
              <LongitudeDegrees>-5.39160062558948993682861328125</LongitudeDegrees>
            </Position>
            <AltitudeMeters>185.600006103515625</AltitudeMeters>
            <DistanceMeters>655.32429268461</DistanceMeters>
          </Trackpoint>
          <Trackpoint>
            <Time>2019-01-04T09:23:48.000Z</Time>
            <Position>
              <LatitudeDegrees>36.5372002311050891876220703125</LatitudeDegrees>
              <LongitudeDegrees>-5.39160557091236114501953125</LongitudeDegrees>
            </Position>
            <AltitudeMeters>185.399993896484375</AltitudeMeters>
            <DistanceMeters>658.98004337866</DistanceMeters>
          </Trackpoint>
          <Trackpoint>
            <Time>2019-01-04T09:23:49.000Z</Time>
            <Position>
              <LatitudeDegrees>36.53723300434648990631103515625</LatitudeDegrees>
              <LongitudeDegrees>-5.3916077502071857452392578125</LongitudeDegrees>
            </Position>
            <AltitudeMeters>185.1999969482421875</AltitudeMeters>
            <DistanceMeters>662.63332313583</DistanceMeters>
          </Trackpoint>
          <Trackpoint>
            <Time>2019-01-04T09:23:50.000Z</Time>
            <Position>
              <LatitudeDegrees>36.5372676216065883636474609375</LatitudeDegrees>
              <LongitudeDegrees>-5.391606576740741729736328125</LongitudeDegrees>
            </Position>
            <AltitudeMeters>185.1999969482421875</AltitudeMeters>
            <DistanceMeters>666.48864488982</DistanceMeters>
          </Trackpoint>
          <Trackpoint>
            <Time>2019-01-04T09:23:51.000Z</Time>
            <Position>
              <LatitudeDegrees>36.53730131685733795166015625</LatitudeDegrees>
              <LongitudeDegrees>-5.39160548709332942962646484375</LongitudeDegrees>
            </Position>
            <AltitudeMeters>185</AltitudeMeters>
            <DistanceMeters>670.24069621891</DistanceMeters>
          </Trackpoint>
          <Trackpoint>
            <Time>2019-01-04T09:23:52.000Z</Time>
            <Position>
              <LatitudeDegrees>36.5373326651751995086669921875</LatitudeDegrees>
              <LongitudeDegrees>-5.391605235636234283447265625</LongitudeDegrees>
            </Position>
            <AltitudeMeters>185</AltitudeMeters>
            <DistanceMeters>673.72961339283</DistanceMeters>
          </Trackpoint>
          <Trackpoint>
            <Time>2019-01-04T09:23:53.000Z</Time>
            <Position>
              <LatitudeDegrees>36.53736091218888759613037109375</LatitudeDegrees>
              <LongitudeDegrees>-5.39160833694040775299072265625</LongitudeDegrees>
            </Position>
            <AltitudeMeters>184.8000030517578125</AltitudeMeters>
            <DistanceMeters>676.88701808563</DistanceMeters>
          </Trackpoint>
          <Trackpoint>
            <Time>2019-01-04T09:23:54.000Z</Time>
            <Position>
              <LatitudeDegrees>36.5373958647251129150390625</LatitudeDegrees>
              <LongitudeDegrees>-5.391615293920040130615234375</LongitudeDegrees>
            </Position>
            <AltitudeMeters>184.8000030517578125</AltitudeMeters>
            <DistanceMeters>680.82804986469</DistanceMeters>
          </Trackpoint>
          <Trackpoint>
            <Time>2019-01-04T09:23:55.000Z</Time>
            <Position>
              <LatitudeDegrees>36.53742528520524501800537109375</LatitudeDegrees>
              <LongitudeDegrees>-5.39162677712738513946533203125</LongitudeDegrees>
            </Position>
            <AltitudeMeters>184.600006103515625</AltitudeMeters>
            <DistanceMeters>684.25955386191</DistanceMeters>
          </Trackpoint>
          <Trackpoint>
            <Time>2019-01-04T09:23:56.000Z</Time>
            <Position>
              <LatitudeDegrees>36.5374495089054107666015625</LatitudeDegrees>
              <LongitudeDegrees>-5.3916384279727935791015625</LongitudeDegrees>
            </Position>
            <AltitudeMeters>184.600006103515625</AltitudeMeters>
            <DistanceMeters>687.15124035721</DistanceMeters>
          </Trackpoint>
          <Trackpoint>
            <Time>2019-01-04T09:23:57.000Z</Time>
            <Position>
              <LatitudeDegrees>36.53747742064297199249267578125</LatitudeDegrees>
              <LongitudeDegrees>-5.39165309630334377288818359375</LongitudeDegrees>
            </Position>
            <AltitudeMeters>184.399993896484375</AltitudeMeters>
            <DistanceMeters>690.52435409964</DistanceMeters>
          </Trackpoint>
          <Trackpoint>
            <Time>2019-01-04T09:23:58.000Z</Time>
            <Position>
              <LatitudeDegrees>36.537504158914089202880859375</LatitudeDegrees>
              <LongitudeDegrees>-5.39167438633739948272705078125</LongitudeDegrees>
            </Position>
            <AltitudeMeters>184.399993896484375</AltitudeMeters>
            <DistanceMeters>694.05955222682</DistanceMeters>
          </Trackpoint>
          <Trackpoint>
            <Time>2019-01-04T09:23:59.000Z</Time>
            <Position>
              <LatitudeDegrees>36.53752938844263553619384765625</LatitudeDegrees>
              <LongitudeDegrees>-5.39169810712337493896484375</LongitudeDegrees>
            </Position>
            <AltitudeMeters>184.399993896484375</AltitudeMeters>
            <DistanceMeters>697.57939098465</DistanceMeters>
          </Trackpoint>
          <Trackpoint>
            <Time>2019-01-04T09:24:00.000Z</Time>
            <Position>
              <LatitudeDegrees>36.53755336068570613861083984375</LatitudeDegrees>
              <LongitudeDegrees>-5.39172383956611156463623046875</LongitudeDegrees>
            </Position>
            <AltitudeMeters>184.399993896484375</AltitudeMeters>
            <DistanceMeters>701.10179428836</DistanceMeters>
          </Trackpoint>
          <Trackpoint>
            <Time>2019-01-04T09:24:01.000Z</Time>
            <Position>
              <LatitudeDegrees>36.5375702083110809326171875</LatitudeDegrees>
              <LongitudeDegrees>-5.391752086579799652099609375</LongitudeDegrees>
            </Position>
            <AltitudeMeters>184.600006103515625</AltitudeMeters>
            <DistanceMeters>704.24773830925</DistanceMeters>
          </Trackpoint>
          <Trackpoint>
            <Time>2019-01-04T09:24:02.000Z</Time>
            <Position>
              <LatitudeDegrees>36.5375854633748531341552734375</LatitudeDegrees>
              <LongitudeDegrees>-5.39178200997412204742431640625</LongitudeDegrees>
            </Position>
            <AltitudeMeters>184.600006103515625</AltitudeMeters>
            <DistanceMeters>707.41656222447</DistanceMeters>
          </Trackpoint>
          <Trackpoint>
            <Time>2019-01-04T09:24:03.000Z</Time>
            <Position>
              <LatitudeDegrees>36.53759845532476902008056640625</LatitudeDegrees>
              <LongitudeDegrees>-5.39181553758680820465087890625</LongitudeDegrees>
            </Position>
            <AltitudeMeters>184.8000030517578125</AltitudeMeters>
            <DistanceMeters>710.74385447498</DistanceMeters>
          </Trackpoint>
          <Trackpoint>
            <Time>2019-01-04T09:24:04.000Z</Time>
            <Position>
              <LatitudeDegrees>36.537612788379192352294921875</LatitudeDegrees>
              <LongitudeDegrees>-5.3918498195707798004150390625</LongitudeDegrees>
            </Position>
            <AltitudeMeters>184.8000030517578125</AltitudeMeters>
            <DistanceMeters>714.20026751965</DistanceMeters>
          </Trackpoint>
          <Trackpoint>
            <Time>2019-01-04T09:24:05.000Z</Time>
            <Position>
              <LatitudeDegrees>36.53762829490005970001220703125</LatitudeDegrees>
              <LongitudeDegrees>-5.39188460446894168853759765625</LongitudeDegrees>
            </Position>
            <AltitudeMeters>184.8000030517578125</AltitudeMeters>
            <DistanceMeters>717.75838038667</DistanceMeters>
          </Trackpoint>
          <Trackpoint>
            <Time>2019-01-04T09:24:06.000Z</Time>
            <Position>
              <LatitudeDegrees>36.53764790855348110198974609375</LatitudeDegrees>
              <LongitudeDegrees>-5.39191804826259613037109375</LongitudeDegrees>
            </Position>
            <AltitudeMeters>184.8000030517578125</AltitudeMeters>
            <DistanceMeters>721.46076556948</DistanceMeters>
          </Trackpoint>
          <Trackpoint>
            <Time>2019-01-04T09:24:07.000Z</Time>
            <Position>
              <LatitudeDegrees>36.53766601346433162689208984375</LatitudeDegrees>
              <LongitudeDegrees>-5.3919524140655994415283203125</LongitudeDegrees>
            </Position>
            <AltitudeMeters>184.8000030517578125</AltitudeMeters>
            <DistanceMeters>725.13622395724</DistanceMeters>
          </Trackpoint>
          <Trackpoint>
            <Time>2019-01-04T09:24:08.000Z</Time>
            <Position>
              <LatitudeDegrees>36.53768462128937244415283203125</LatitudeDegrees>
              <LongitudeDegrees>-5.39198485203087329864501953125</LongitudeDegrees>
            </Position>
            <AltitudeMeters>184.600006103515625</AltitudeMeters>
            <DistanceMeters>728.70067588659</DistanceMeters>
          </Trackpoint>
          <Trackpoint>
            <Time>2019-01-04T09:24:09.000Z</Time>
            <Position>
              <LatitudeDegrees>36.53770457021892070770263671875</LatitudeDegrees>
              <LongitudeDegrees>-5.3920141048729419708251953125</LongitudeDegrees>
            </Position>
            <AltitudeMeters>184.600006103515625</AltitudeMeters>
            <DistanceMeters>732.13217988381</DistanceMeters>
          </Trackpoint>
          <Trackpoint>
            <Time>2019-01-04T09:24:10.000Z</Time>
            <Position>
              <LatitudeDegrees>36.53772569261491298675537109375</LatitudeDegrees>
              <LongitudeDegrees>-5.39204000495374202728271484375</LongitudeDegrees>
            </Position>
            <AltitudeMeters>184.600006103515625</AltitudeMeters>
            <DistanceMeters>735.43222112467</DistanceMeters>
          </Trackpoint>
          <Trackpoint>
            <Time>2019-01-04T09:24:11.000Z</Time>
            <Position>
              <LatitudeDegrees>36.53774815611541271209716796875</LatitudeDegrees>
              <LongitudeDegrees>-5.3920650668442249298095703125</LongitudeDegrees>
            </Position>
            <AltitudeMeters>184.600006103515625</AltitudeMeters>
            <DistanceMeters>738.79057868135</DistanceMeters>
          </Trackpoint>
          <Trackpoint>
            <Time>2019-01-04T09:24:12.000Z</Time>
            <Position>
              <LatitudeDegrees>36.53777338564395904541015625</LatitudeDegrees>
              <LongitudeDegrees>-5.39208526723086833953857421875</LongitudeDegrees>
            </Position>
            <AltitudeMeters>184.600006103515625</AltitudeMeters>
            <DistanceMeters>742.13006133713</DistanceMeters>
          </Trackpoint>
          <Trackpoint>
            <Time>2019-01-04T09:24:13.000Z</Time>
            <Position>
              <LatitudeDegrees>36.53780129738152027130126953125</LatitudeDegrees>
              <LongitudeDegrees>-5.3921073116362094879150390625</LongitudeDegrees>
            </Position>
            <AltitudeMeters>184.600006103515625</AltitudeMeters>
            <DistanceMeters>745.81043015913</DistanceMeters>
          </Trackpoint>
          <Trackpoint>
            <Time>2019-01-04T09:24:14.000Z</Time>
            <Position>
              <LatitudeDegrees>36.537828035652637481689453125</LatitudeDegrees>
              <LongitudeDegrees>-5.3921301104128360748291015625</LongitudeDegrees>
            </Position>
            <AltitudeMeters>184.600006103515625</AltitudeMeters>
            <DistanceMeters>749.41644043079</DistanceMeters>
          </Trackpoint>
          <Trackpoint>
            <Time>2019-01-04T09:24:15.000Z</Time>
            <Position>
              <LatitudeDegrees>36.53785142116248607635498046875</LatitudeDegrees>
              <LongitudeDegrees>-5.39215718396008014678955078125</LongitudeDegrees>
            </Position>
            <AltitudeMeters>184.600006103515625</AltitudeMeters>
            <DistanceMeters>752.9707444337</DistanceMeters>
          </Trackpoint>
          <Trackpoint>
            <Time>2019-01-04T09:24:16.000Z</Time>
            <Position>
              <LatitudeDegrees>36.53787338174879550933837890625</LatitudeDegrees>
              <LongitudeDegrees>-5.39218668825924396514892578125</LongitudeDegrees>
            </Position>
            <AltitudeMeters>184.600006103515625</AltitudeMeters>
            <DistanceMeters>756.5667240593</DistanceMeters>
          </Trackpoint>
          <Trackpoint>
            <Time>2019-01-04T09:24:17.000Z</Time>
            <Position>
              <LatitudeDegrees>36.5378925763070583343505859375</LatitudeDegrees>
              <LongitudeDegrees>-5.3922216407954692840576171875</LongitudeDegrees>
            </Position>
            <AltitudeMeters>184.600006103515625</AltitudeMeters>
            <DistanceMeters>760.35351179998</DistanceMeters>
          </Trackpoint>
          <Trackpoint>
            <Time>2019-01-04T09:24:18.000Z</Time>
            <Position>
              <LatitudeDegrees>36.53790883719921112060546875</LatitudeDegrees>
              <LongitudeDegrees>-5.392256341874599456787109375</LongitudeDegrees>
            </Position>
            <AltitudeMeters>184.600006103515625</AltitudeMeters>
            <DistanceMeters>763.94572271228</DistanceMeters>
          </Trackpoint>
          <Trackpoint>
            <Time>2019-01-04T09:24:19.000Z</Time>
            <Position>
              <LatitudeDegrees>36.5379242599010467529296875</LatitudeDegrees>
              <LongitudeDegrees>-5.392289198935031890869140625</LongitudeDegrees>
            </Position>
            <AltitudeMeters>184.8000030517578125</AltitudeMeters>
            <DistanceMeters>767.34815684113</DistanceMeters>
          </Trackpoint>
          <Trackpoint>
            <Time>2019-01-04T09:24:20.000Z</Time>
            <Position>
              <LatitudeDegrees>36.5379375033080577850341796875</LatitudeDegrees>
              <LongitudeDegrees>-5.392321385443210601806640625</LongitudeDegrees>
            </Position>
            <AltitudeMeters>184.8000030517578125</AltitudeMeters>
            <DistanceMeters>770.58185882525</DistanceMeters>
          </Trackpoint>
          <Trackpoint>
            <Time>2019-01-04T09:24:21.000Z</Time>
            <Position>
              <LatitudeDegrees>36.53794638812541961669921875</LatitudeDegrees>
              <LongitudeDegrees>-5.39235533215105533599853515625</LongitudeDegrees>
            </Position>
            <AltitudeMeters>185</AltitudeMeters>
            <DistanceMeters>773.7748129911</DistanceMeters>
          </Trackpoint>
          <Trackpoint>
            <Time>2019-01-04T09:24:22.000Z</Time>
            <Position>
              <LatitudeDegrees>36.5379532612860202789306640625</LatitudeDegrees>
              <LongitudeDegrees>-5.392392463982105255126953125</LongitudeDegrees>
            </Position>
            <AltitudeMeters>185</AltitudeMeters>
            <DistanceMeters>777.18255099554</DistanceMeters>
          </Trackpoint>
          <Trackpoint>
            <Time>2019-01-04T09:24:23.000Z</Time>
            <Position>
              <LatitudeDegrees>36.53795753605663776397705078125</LatitudeDegrees>
              <LongitudeDegrees>-5.3924271650612354278564453125</LongitudeDegrees>
            </Position>
            <AltitudeMeters>185</AltitudeMeters>
            <DistanceMeters>780.32131084624</DistanceMeters>
          </Trackpoint>
          <Trackpoint>
            <Time>2019-01-04T09:24:24.000Z</Time>
            <Position>
              <LatitudeDegrees>36.53796005062758922576904296875</LatitudeDegrees>
              <LongitudeDegrees>-5.39245960302650928497314453125</LongitudeDegrees>
            </Position>
            <AltitudeMeters>185.1999969482421875</AltitudeMeters>
            <DistanceMeters>783.2347747395</DistanceMeters>
          </Trackpoint>
          <Trackpoint>
            <Time>2019-01-04T09:24:25.000Z</Time>
            <Position>
              <LatitudeDegrees>36.53796072117984294891357421875</LatitudeDegrees>
              <LongitudeDegrees>-5.39249606430530548095703125</LongitudeDegrees>
            </Position>
            <AltitudeMeters>185.1999969482421875</AltitudeMeters>
            <DistanceMeters>786.49628206756</DistanceMeters>
          </Trackpoint>
          <Trackpoint>
            <Time>2019-01-04T09:24:26.000Z</Time>
            <Position>
              <LatitudeDegrees>36.53796088881790637969970703125</LatitudeDegrees>
              <LongitudeDegrees>-5.39253554306924343109130859375</LongitudeDegrees>
            </Position>
            <AltitudeMeters>185.1999969482421875</AltitudeMeters>
            <DistanceMeters>790.02636783035</DistanceMeters>
          </Trackpoint>
          <Trackpoint>
            <Time>2019-01-04T09:24:27.000Z</Time>
            <Position>
              <LatitudeDegrees>36.53796105645596981048583984375</LatitudeDegrees>
              <LongitudeDegrees>-5.39257611148059368133544921875</LongitudeDegrees>
            </Position>
            <AltitudeMeters>185.1999969482421875</AltitudeMeters>
            <DistanceMeters>793.65484567309</DistanceMeters>
          </Trackpoint>
          <Trackpoint>
            <Time>2019-01-04T09:24:28.000Z</Time>
            <Position>
              <LatitudeDegrees>36.5379616431891918182373046875</LatitudeDegrees>
              <LongitudeDegrees>-5.39261701516807079315185546875</LongitudeDegrees>
            </Position>
            <AltitudeMeters>185.1999969482421875</AltitudeMeters>
            <DistanceMeters>797.31306563503</DistanceMeters>
          </Trackpoint>
          <Trackpoint>
            <Time>2019-01-04T09:24:29.000Z</Time>
            <Position>
              <LatitudeDegrees>36.537962146103382110595703125</LatitudeDegrees>
              <LongitudeDegrees>-5.392659343779087066650390625</LongitudeDegrees>
            </Position>
            <AltitudeMeters>185.1999969482421875</AltitudeMeters>
            <DistanceMeters>801.09985337572</DistanceMeters>
          </Trackpoint>
          <Trackpoint>
            <Time>2019-01-04T09:24:30.000Z</Time>
            <Position>
              <LatitudeDegrees>36.53796390630304813385009765625</LatitudeDegrees>
              <LongitudeDegrees>-5.39270351640880107879638671875</LongitudeDegrees>
            </Position>
            <AltitudeMeters>185</AltitudeMeters>
            <DistanceMeters>805.05460904464</DistanceMeters>
          </Trackpoint>
          <Trackpoint>
            <Time>2019-01-04T09:24:31.000Z</Time>
            <Position>
              <LatitudeDegrees>36.53796457685530185699462890625</LatitudeDegrees>
              <LongitudeDegrees>-5.3927473537623882293701171875</LongitudeDegrees>
            </Position>
            <AltitudeMeters>184.8000030517578125</AltitudeMeters>
            <DistanceMeters>808.97611643136</DistanceMeters>
          </Trackpoint>
          <Trackpoint>
            <Time>2019-01-04T09:24:32.000Z</Time>
            <Position>
              <LatitudeDegrees>36.53796642087399959564208984375</LatitudeDegrees>
              <LongitudeDegrees>-5.3927890956401824951171875</LongitudeDegrees>
            </Position>
            <AltitudeMeters>184.8000030517578125</AltitudeMeters>
            <DistanceMeters>812.71490745724</DistanceMeters>
          </Trackpoint>
          <Trackpoint>
            <Time>2019-01-04T09:24:33.000Z</Time>
            <Position>
              <LatitudeDegrees>36.53796591795980930328369140625</LatitudeDegrees>
              <LongitudeDegrees>-5.39283226244151592254638671875</LongitudeDegrees>
            </Position>
            <AltitudeMeters>184.8000030517578125</AltitudeMeters>
            <DistanceMeters>816.57608036311</DistanceMeters>
          </Trackpoint>
          <Trackpoint>
            <Time>2019-01-04T09:24:34.000Z</Time>
            <Position>
              <LatitudeDegrees>36.53796759434044361114501953125</LatitudeDegrees>
              <LongitudeDegrees>-5.3928811289370059967041015625</LongitudeDegrees>
            </Position>
            <AltitudeMeters>184.600006103515625</AltitudeMeters>
            <DistanceMeters>820.94937453436</DistanceMeters>
          </Trackpoint>
          <Trackpoint>
            <Time>2019-01-04T09:24:35.000Z</Time>
            <Position>
              <LatitudeDegrees>36.53796826489269733428955078125</LatitudeDegrees>
              <LongitudeDegrees>-5.39293368346989154815673828125</LongitudeDegrees>
            </Position>
            <AltitudeMeters>184.600006103515625</AltitudeMeters>
            <DistanceMeters>825.64911569552</DistanceMeters>
          </Trackpoint>
          <Trackpoint>
            <Time>2019-01-04T09:24:36.000Z</Time>
            <Position>
              <LatitudeDegrees>36.53796792961657047271728515625</LatitudeDegrees>
              <LongitudeDegrees>-5.392982549965381622314453125</LongitudeDegrees>
            </Position>
            <AltitudeMeters>184.600006103515625</AltitudeMeters>
            <DistanceMeters>830.01827827003</DistanceMeters>
          </Trackpoint>
          <Trackpoint>
            <Time>2019-01-04T09:24:37.000Z</Time>
            <Position>
              <LatitudeDegrees>36.53796608559787273406982421875</LatitudeDegrees>
              <LongitudeDegrees>-5.39302990771830081939697265625</LongitudeDegrees>
            </Position>
            <AltitudeMeters>184.399993896484375</AltitudeMeters>
            <DistanceMeters>834.25736450688</DistanceMeters>
          </Trackpoint>
          <Trackpoint>
            <Time>2019-01-04T09:24:38.000Z</Time>
            <Position>
              <LatitudeDegrees>36.5379618108272552490234375</LatitudeDegrees>
              <LongitudeDegrees>-5.3930734097957611083984375</LongitudeDegrees>
            </Position>
            <AltitudeMeters>184.399993896484375</AltitudeMeters>
            <DistanceMeters>838.1777203718</DistanceMeters>
          </Trackpoint>
          <Trackpoint>
            <Time>2019-01-04T09:24:39.000Z</Time>
            <Position>
              <LatitudeDegrees>36.537956781685352325439453125</LatitudeDegrees>
              <LongitudeDegrees>-5.39311758242547512054443359375</LongitudeDegrees>
            </Position>
            <AltitudeMeters>184.399993896484375</AltitudeMeters>
            <DistanceMeters>842.16771094456</DistanceMeters>
          </Trackpoint>
          <Trackpoint>
            <Time>2019-01-04T09:24:40.000Z</Time>
            <Position>
              <LatitudeDegrees>36.53795133344829082489013671875</LatitudeDegrees>
              <LongitudeDegrees>-5.39316200651228427886962890625</LongitudeDegrees>
            </Position>
            <AltitudeMeters>184.399993896484375</AltitudeMeters>
            <DistanceMeters>846.18813838884</DistanceMeters>
          </Trackpoint>
          <Trackpoint>
            <Time>2019-01-04T09:24:41.000Z</Time>
            <Position>
              <LatitudeDegrees>36.53794479556381702423095703125</LatitudeDegrees>
              <LongitudeDegrees>-5.39320441894233226776123046875</LongitudeDegrees>
            </Position>
            <AltitudeMeters>184.399993896484375</AltitudeMeters>
            <DistanceMeters>850.05048046139</DistanceMeters>
          </Trackpoint>
          <Trackpoint>
            <Time>2019-01-04T09:24:42.000Z</Time>
            <Position>
              <LatitudeDegrees>36.53793674893677234649658203125</LatitudeDegrees>
              <LongitudeDegrees>-5.3932475857436656951904296875</LongitudeDegrees>
            </Position>
            <AltitudeMeters>184.399993896484375</AltitudeMeters>
            <DistanceMeters>854.01321978363</DistanceMeters>
          </Trackpoint>
          <Trackpoint>
            <Time>2019-01-04T09:24:43.000Z</Time>
            <Position>
              <LatitudeDegrees>36.53792702592909336090087890625</LatitudeDegrees>
              <LongitudeDegrees>-5.39329024963080883026123046875</LongitudeDegrees>
            </Position>
            <AltitudeMeters>184.1999969482421875</AltitudeMeters>
            <DistanceMeters>857.97937575199</DistanceMeters>
          </Trackpoint>
          <Trackpoint>
            <Time>2019-01-04T09:24:44.000Z</Time>
            <Position>
              <LatitudeDegrees>36.5379147045314311981201171875</LatitudeDegrees>
              <LongitudeDegrees>-5.39332880638539791107177734375</LongitudeDegrees>
            </Position>
            <AltitudeMeters>184.1999969482421875</AltitudeMeters>
            <DistanceMeters>861.68907068562</DistanceMeters>
          </Trackpoint>
          <Trackpoint>
            <Time>2019-01-04T09:24:45.000Z</Time>
            <Position>
              <LatitudeDegrees>36.53790037147700786590576171875</LatitudeDegrees>
              <LongitudeDegrees>-5.39336233399808406829833984375</LongitudeDegrees>
            </Position>
            <AltitudeMeters>184.1999969482421875</AltitudeMeters>
            <DistanceMeters>865.08353346233</DistanceMeters>
          </Trackpoint>
          <Trackpoint>
            <Time>2019-01-04T09:24:46.000Z</Time>
            <Position>
              <LatitudeDegrees>36.53788578696548938751220703125</LatitudeDegrees>
              <LongitudeDegrees>-5.393394939601421356201171875</LongitudeDegrees>
            </Position>
            <AltitudeMeters>184</AltitudeMeters>
            <DistanceMeters>868.41895760012</DistanceMeters>
          </Trackpoint>
          <Trackpoint>
            <Time>2019-01-04T09:24:47.000Z</Time>
            <Position>
              <LatitudeDegrees>36.5378694422543048858642578125</LatitudeDegrees>
              <LongitudeDegrees>-5.3934252820909023284912109375</LongitudeDegrees>
            </Position>
            <AltitudeMeters>184</AltitudeMeters>
            <DistanceMeters>871.68599759938</DistanceMeters>
          </Trackpoint>
          <Trackpoint>
            <Time>2019-01-04T09:24:48.000Z</Time>
            <Position>
              <LatitudeDegrees>36.53785460628569126129150390625</LatitudeDegrees>
              <LongitudeDegrees>-5.393455959856510162353515625</LongitudeDegrees>
            </Position>
            <AltitudeMeters>184</AltitudeMeters>
            <DistanceMeters>874.88601426925</DistanceMeters>
          </Trackpoint>
          <Trackpoint>
            <Time>2019-01-04T09:24:49.000Z</Time>
            <Position>
              <LatitudeDegrees>36.53784102760255336761474609375</LatitudeDegrees>
              <LongitudeDegrees>-5.39348856545984745025634765625</LongitudeDegrees>
            </Position>
            <AltitudeMeters>184</AltitudeMeters>
            <DistanceMeters>878.16822102655</DistanceMeters>
          </Trackpoint>
          <Trackpoint>
            <Time>2019-01-04T09:24:50.000Z</Time>
            <Position>
              <LatitudeDegrees>36.53782661072909832000732421875</LatitudeDegrees>
              <LongitudeDegrees>-5.3935211710631847381591796875</LongitudeDegrees>
            </Position>
            <AltitudeMeters>184</AltitudeMeters>
            <DistanceMeters>881.49551327705</DistanceMeters>
          </Trackpoint>
          <Trackpoint>
            <Time>2019-01-04T09:24:51.000Z</Time>
            <Position>
              <LatitudeDegrees>36.5378161333501338958740234375</LatitudeDegrees>
              <LongitudeDegrees>-5.39355176500976085662841796875</LongitudeDegrees>
            </Position>
            <AltitudeMeters>184.1999969482421875</AltitudeMeters>
            <DistanceMeters>884.47031997919</DistanceMeters>
          </Trackpoint>
          <Trackpoint>
            <Time>2019-01-04T09:24:52.000Z</Time>
            <Position>
              <LatitudeDegrees>36.53780431486666202545166015625</LatitudeDegrees>
              <LongitudeDegrees>-5.3935808502137660980224609375</LongitudeDegrees>
            </Position>
            <AltitudeMeters>184.1999969482421875</AltitudeMeters>
            <DistanceMeters>887.38533317535</DistanceMeters>
          </Trackpoint>
          <Trackpoint>
            <Time>2019-01-04T09:24:53.000Z</Time>
            <Position>
              <LatitudeDegrees>36.5377869643270969390869140625</LatitudeDegrees>
              <LongitudeDegrees>-5.39360524155199527740478515625</LongitudeDegrees>
            </Position>
            <AltitudeMeters>184.1999969482421875</AltitudeMeters>
            <DistanceMeters>890.2987970686</DistanceMeters>
          </Trackpoint>
          <Trackpoint>
            <Time>2019-01-04T09:24:54.000Z</Time>
            <Position>
              <LatitudeDegrees>36.537772715091705322265625</LatitudeDegrees>
              <LongitudeDegrees>-5.39363726042211055755615234375</LongitudeDegrees>
            </Position>
            <AltitudeMeters>184.1999969482421875</AltitudeMeters>
            <DistanceMeters>893.57136038541</DistanceMeters>
          </Trackpoint>
          <Trackpoint>
            <Time>2019-01-04T09:24:55.000Z</Time>
            <Position>
              <LatitudeDegrees>36.5377537719905376434326171875</LatitudeDegrees>
              <LongitudeDegrees>-5.3936757333576679229736328125</LongitudeDegrees>
            </Position>
            <AltitudeMeters>184</AltitudeMeters>
            <DistanceMeters>897.6063607359</DistanceMeters>
          </Trackpoint>
          <Trackpoint>
            <Time>2019-01-04T09:24:56.000Z</Time>
            <Position>
              <LatitudeDegrees>36.53773943893611431121826171875</LatitudeDegrees>
              <LongitudeDegrees>-5.3937052376568317413330078125</LongitudeDegrees>
            </Position>
            <AltitudeMeters>184</AltitudeMeters>
            <DistanceMeters>900.6899739567</DistanceMeters>
          </Trackpoint>
          <Trackpoint>
            <Time>2019-01-04T09:24:57.000Z</Time>
            <Position>
              <LatitudeDegrees>36.5377262793481349945068359375</LatitudeDegrees>
              <LongitudeDegrees>-5.39373884908854961395263671875</LongitudeDegrees>
            </Position>
            <AltitudeMeters>184</AltitudeMeters>
            <DistanceMeters>904.03486030964</DistanceMeters>
          </Trackpoint>
          <Trackpoint>
            <Time>2019-01-04T09:24:58.000Z</Time>
            <Position>
              <LatitudeDegrees>36.53770842589437961578369140625</LatitudeDegrees>
              <LongitudeDegrees>-5.3937749750912189483642578125</LongitudeDegrees>
            </Position>
            <AltitudeMeters>183.8000030517578125</AltitudeMeters>
            <DistanceMeters>907.82879518674</DistanceMeters>
          </Trackpoint>
          <Trackpoint>
            <Time>2019-01-04T09:24:59.000Z</Time>
            <Position>
              <LatitudeDegrees>36.53768948279321193695068359375</LatitudeDegrees>
              <LongitudeDegrees>-5.393812023103237152099609375</LongitudeDegrees>
            </Position>
            <AltitudeMeters>183.600006103515625</AltitudeMeters>
            <DistanceMeters>911.75720461585</DistanceMeters>
          </Trackpoint>
          <Trackpoint>
            <Time>2019-01-04T09:25:00.000Z</Time>
            <Position>
              <LatitudeDegrees>36.5376672707498073577880859375</LatitudeDegrees>
              <LongitudeDegrees>-5.3938477300107479095458984375</LongitudeDegrees>
            </Position>
            <AltitudeMeters>183.600006103515625</AltitudeMeters>
            <DistanceMeters>915.79556047656</DistanceMeters>
          </Trackpoint>
          <Trackpoint>
            <Time>2019-01-04T09:25:01.000Z</Time>
            <Position>
              <LatitudeDegrees>36.53764002956449985504150390625</LatitudeDegrees>
              <LongitudeDegrees>-5.39388410747051239013671875</LongitudeDegrees>
            </Position>
            <AltitudeMeters>183.600006103515625</AltitudeMeters>
            <DistanceMeters>920.24256704416</DistanceMeters>
          </Trackpoint>
          <Trackpoint>
            <Time>2019-01-04T09:25:02.000Z</Time>
            <Position>
              <LatitudeDegrees>36.53761656023561954498291015625</LatitudeDegrees>
              <LongitudeDegrees>-5.39391855709254741668701171875</LongitudeDegrees>
            </Position>
            <AltitudeMeters>183.600006103515625</AltitudeMeters>
            <DistanceMeters>924.28092290488</DistanceMeters>
          </Trackpoint>
          <Trackpoint>
            <Time>2019-01-04T09:25:03.000Z</Time>
            <Position>
              <LatitudeDegrees>36.53759493492543697357177734375</LatitudeDegrees>
              <LongitudeDegrees>-5.39395392872393131256103515625</LongitudeDegrees>
            </Position>
            <AltitudeMeters>183.600006103515625</AltitudeMeters>
            <DistanceMeters>928.25390335084</DistanceMeters>
          </Trackpoint>
          <Trackpoint>
            <Time>2019-01-04T09:25:04.000Z</Time>
            <Position>
              <LatitudeDegrees>36.53757045976817607879638671875</LatitudeDegrees>
              <LongitudeDegrees>-5.39399164728820323944091796875</LongitudeDegrees>
            </Position>
            <AltitudeMeters>183.600006103515625</AltitudeMeters>
            <DistanceMeters>932.58883000303</DistanceMeters>
          </Trackpoint>
          <Trackpoint>
            <Time>2019-01-04T09:25:05.000Z</Time>
            <Position>
              <LatitudeDegrees>36.53754330240190029144287109375</LatitudeDegrees>
              <LongitudeDegrees>-5.3940282762050628662109375</LongitudeDegrees>
            </Position>
            <AltitudeMeters>183.600006103515625</AltitudeMeters>
            <DistanceMeters>937.04597798989</DistanceMeters>
          </Trackpoint>
          <Trackpoint>
            <Time>2019-01-04T09:25:06.000Z</Time>
            <Position>
              <LatitudeDegrees>36.53751564212143421173095703125</LatitudeDegrees>
              <LongitudeDegrees>-5.39406792260706424713134765625</LongitudeDegrees>
            </Position>
            <AltitudeMeters>183.8000030517578125</AltitudeMeters>
            <DistanceMeters>941.74091319707</DistanceMeters>
          </Trackpoint>
          <Trackpoint>
            <Time>2019-01-04T09:25:07.000Z</Time>
            <Position>
              <LatitudeDegrees>36.53748504817485809326171875</LatitudeDegrees>
              <LongitudeDegrees>-5.39410849101841449737548828125</LongitudeDegrees>
            </Position>
            <AltitudeMeters>183.8000030517578125</AltitudeMeters>
            <DistanceMeters>946.71690250668</DistanceMeters>
          </Trackpoint>
          <Trackpoint>
            <Time>2019-01-04T09:25:08.000Z</Time>
            <Position>
              <LatitudeDegrees>36.53745152056217193603515625</LatitudeDegrees>
              <LongitudeDegrees>-5.39414620958268642425537109375</LongitudeDegrees>
            </Position>
            <AltitudeMeters>184</AltitudeMeters>
            <DistanceMeters>951.74703910482</DistanceMeters>
          </Trackpoint>
          <Trackpoint>
            <Time>2019-01-04T09:25:09.000Z</Time>
            <Position>
              <LatitudeDegrees>36.537418663501739501953125</LatitudeDegrees>
              <LongitudeDegrees>-5.394180156290531158447265625</LongitudeDegrees>
            </Position>
            <AltitudeMeters>184</AltitudeMeters>
            <DistanceMeters>956.50027497765</DistanceMeters>
          </Trackpoint>
          <Trackpoint>
            <Time>2019-01-04T09:25:10.000Z</Time>
            <Position>
              <LatitudeDegrees>36.53738605789840221405029296875</LatitudeDegrees>
              <LongitudeDegrees>-5.3942161984741687774658203125</LongitudeDegrees>
            </Position>
            <AltitudeMeters>184.1999969482421875</AltitudeMeters>
            <DistanceMeters>961.35315446986</DistanceMeters>
          </Trackpoint>
          <Trackpoint>
            <Time>2019-01-04T09:25:11.000Z</Time>
            <Position>
              <LatitudeDegrees>36.53735320083796977996826171875</LatitudeDegrees>
              <LongitudeDegrees>-5.39425651542842388153076171875</LongitudeDegrees>
            </Position>
            <AltitudeMeters>184.399993896484375</AltitudeMeters>
            <DistanceMeters>966.48899454649</DistanceMeters>
          </Trackpoint>
          <Trackpoint>
            <Time>2019-01-04T09:25:12.000Z</Time>
            <Position>
              <LatitudeDegrees>36.5373216010630130767822265625</LatitudeDegrees>
              <LongitudeDegrees>-5.39429574273526668548583984375</LongitudeDegrees>
            </Position>
            <AltitudeMeters>184.600006103515625</AltitudeMeters>
            <DistanceMeters>971.45681085966</DistanceMeters>
          </Trackpoint>
          <Trackpoint>
            <Time>2019-01-04T09:25:13.000Z</Time>
            <Position>
              <LatitudeDegrees>36.5372887440025806427001953125</LatitudeDegrees>
              <LongitudeDegrees>-5.394337736070156097412109375</LongitudeDegrees>
            </Position>
            <AltitudeMeters>184.8000030517578125</AltitudeMeters>
            <DistanceMeters>976.6979455214</DistanceMeters>
          </Trackpoint>
          <Trackpoint>
            <Time>2019-01-04T09:25:14.000Z</Time>
            <Position>
              <LatitudeDegrees>36.5372562222182750701904296875</LatitudeDegrees>
              <LongitudeDegrees>-5.3943798132240772247314453125</LongitudeDegrees>
            </Position>
            <AltitudeMeters>185</AltitudeMeters>
            <DistanceMeters>981.91836415479</DistanceMeters>
          </Trackpoint>
          <Trackpoint>
            <Time>2019-01-04T09:25:15.000Z</Time>
            <Position>
              <LatitudeDegrees>36.537231244146823883056640625</LatitudeDegrees>
              <LongitudeDegrees>-5.394427590072154998779296875</LongitudeDegrees>
            </Position>
            <AltitudeMeters>185.1999969482421875</AltitudeMeters>
            <DistanceMeters>987.01449011995</DistanceMeters>
          </Trackpoint>
          <Trackpoint>
            <Time>2019-01-04T09:25:16.000Z</Time>
            <Position>
              <LatitudeDegrees>36.5372022427618503570556640625</LatitudeDegrees>
              <LongitudeDegrees>-5.39447679184377193450927734375</LongitudeDegrees>
            </Position>
            <AltitudeMeters>185.399993896484375</AltitudeMeters>
            <DistanceMeters>992.47087738954</DistanceMeters>
          </Trackpoint>
          <Trackpoint>
            <Time>2019-01-04T09:25:17.000Z</Time>
            <Position>
              <LatitudeDegrees>36.53717533685266971588134765625</LatitudeDegrees>
              <LongitudeDegrees>-5.39452590979635715484619140625</LongitudeDegrees>
            </Position>
            <AltitudeMeters>185.600006103515625</AltitudeMeters>
            <DistanceMeters>997.78728024011</DistanceMeters>
          </Trackpoint>
          <Trackpoint>
            <Time>2019-01-04T09:25:18.000Z</Time>
            <Position>
              <LatitudeDegrees>36.53714885003864765167236328125</LatitudeDegrees>
              <LongitudeDegrees>-5.394573099911212921142578125</LongitudeDegrees>
            </Position>
            <AltitudeMeters>185.600006103515625</AltitudeMeters>
            <DistanceMeters>1002.9362902847</DistanceMeters>
          </Trackpoint>
          <Trackpoint>
            <Time>2019-01-04T09:25:19.000Z</Time>
            <Position>
              <LatitudeDegrees>36.53712169267237186431884765625</LatitudeDegrees>
              <LongitudeDegrees>-5.3946215473115444183349609375</LongitudeDegrees>
            </Position>
            <AltitudeMeters>185.8000030517578125</AltitudeMeters>
            <DistanceMeters>1008.2203224917</DistanceMeters>
          </Trackpoint>
          <Trackpoint>
            <Time>2019-01-04T09:25:20.000Z</Time>
            <Position>
              <LatitudeDegrees>36.53709881007671356201171875</LatitudeDegrees>
              <LongitudeDegrees>-5.394666977226734161376953125</LongitudeDegrees>
            </Position>
            <AltitudeMeters>186</AltitudeMeters>
            <DistanceMeters>1013.0151712512</DistanceMeters>
          </Trackpoint>
          <Trackpoint>
            <Time>2019-01-04T09:25:21.000Z</Time>
            <Position>
              <LatitudeDegrees>36.53707777149975299835205078125</LatitudeDegrees>
              <LongitudeDegrees>-5.394708551466464996337890625</LongitudeDegrees>
            </Position>
            <AltitudeMeters>186.399993896484375</AltitudeMeters>
            <DistanceMeters>1017.4090651322</DistanceMeters>
          </Trackpoint>
          <Trackpoint>
            <Time>2019-01-04T09:25:22.000Z</Time>
            <Position>
              <LatitudeDegrees>36.53705229051411151885986328125</LatitudeDegrees>
              <LongitudeDegrees>-5.39474953897297382354736328125</LongitudeDegrees>
            </Position>
            <AltitudeMeters>186.8000030517578125</AltitudeMeters>
            <DistanceMeters>1022.0439925167</DistanceMeters>
          </Trackpoint>
          <Trackpoint>
            <Time>2019-01-04T09:25:23.000Z</Time>
            <Position>
              <LatitudeDegrees>36.53702697716653347015380859375</LatitudeDegrees>
              <LongitudeDegrees>-5.3947744332253932952880859375</LongitudeDegrees>
            </Position>
            <AltitudeMeters>187</AltitudeMeters>
            <DistanceMeters>1025.6349463123</DistanceMeters>
          </Trackpoint>
          <Trackpoint>
            <Time>2019-01-04T09:25:24.000Z</Time>
            <Position>
              <LatitudeDegrees>36.53700920753180980682373046875</LatitudeDegrees>
              <LongitudeDegrees>-5.39478206075727939605712890625</LongitudeDegrees>
            </Position>
            <AltitudeMeters>187.1999969482421875</AltitudeMeters>
            <DistanceMeters>1027.7298489716</DistanceMeters>
          </Trackpoint>
          <Trackpoint>
            <Time>2019-01-04T09:25:25.000Z</Time>
            <Position>
              <LatitudeDegrees>36.5370010770857334136962890625</LatitudeDegrees>
              <LongitudeDegrees>-5.39478591643273830413818359375</LongitudeDegrees>
            </Position>
            <AltitudeMeters>187.399993896484375</AltitudeMeters>
            <DistanceMeters>1028.6989351133</DistanceMeters>
          </Trackpoint>
          <Trackpoint>
            <Time>2019-01-04T09:25:26.000Z</Time>
            <Position>
              <LatitudeDegrees>36.53700183145701885223388671875</LatitudeDegrees>
              <LongitudeDegrees>-5.39478407241404056549072265625</LongitudeDegrees>
            </Position>
            <AltitudeMeters>187.399993896484375</AltitudeMeters>
            <DistanceMeters>1028.8635262107</DistanceMeters>
          </Trackpoint>
          <Trackpoint>
            <Time>2019-01-04T09:25:27.000Z</Time>
            <Position>
              <LatitudeDegrees>36.5370037592947483062744140625</LatitudeDegrees>
              <LongitudeDegrees>-5.39478373713791370391845703125</LongitudeDegrees>
            </Position>
            <AltitudeMeters>187.399993896484375</AltitudeMeters>
            <DistanceMeters>1029.0535796394</DistanceMeters>
          </Trackpoint>
          <Trackpoint>
            <Time>2019-01-04T09:25:28.000Z</Time>
            <Position>
              <LatitudeDegrees>36.5370047651231288909912109375</LatitudeDegrees>
              <LongitudeDegrees>-5.3947848267853260040283203125</LongitudeDegrees>
            </Position>
            <AltitudeMeters>187.600006103515625</AltitudeMeters>
            <DistanceMeters>1029.1879677077</DistanceMeters>
          </Trackpoint>
          <Trackpoint>
            <Time>2019-01-04T09:25:29.000Z</Time>
            <Position>
              <LatitudeDegrees>36.53700702823698520660400390625</LatitudeDegrees>
              <LongitudeDegrees>-5.39478356949985027313232421875</LongitudeDegrees>
            </Position>
            <AltitudeMeters>187.600006103515625</AltitudeMeters>
            <DistanceMeters>1029.4567438442</DistanceMeters>
          </Trackpoint>
          <Trackpoint>
            <Time>2019-01-04T09:25:30.000Z</Time>
            <Position>
              <LatitudeDegrees>36.537005268037319183349609375</LatitudeDegrees>
              <LongitudeDegrees>-5.39478390477597713470458984375</LongitudeDegrees>
            </Position>
            <AltitudeMeters>187.600006103515625</AltitudeMeters>
            <DistanceMeters>1029.6467972729</DistanceMeters>
          </Trackpoint>
          <Trackpoint>
            <Time>2019-01-04T09:25:31.000Z</Time>
            <Position>
              <LatitudeDegrees>36.53700585477054119110107421875</LatitudeDegrees>
              <LongitudeDegrees>-5.39478356949985027313232421875</LongitudeDegrees>
            </Position>
            <AltitudeMeters>187.399993896484375</AltitudeMeters>
            <DistanceMeters>1029.6467972729</DistanceMeters>
          </Trackpoint>
          <Trackpoint>
            <Time>2019-01-04T09:25:32.000Z</Time>
            <Position>
              <LatitudeDegrees>36.537005938589572906494140625</LatitudeDegrees>
              <LongitudeDegrees>-5.3947841562330722808837890625</LongitudeDegrees>
            </Position>
            <AltitudeMeters>187.399993896484375</AltitudeMeters>
            <DistanceMeters>1029.6467972729</DistanceMeters>
          </Trackpoint>
          <Trackpoint>
            <Time>2019-01-04T09:25:33.000Z</Time>
            <Position>
              <LatitudeDegrees>36.5370061062276363372802734375</LatitudeDegrees>
              <LongitudeDegrees>-5.39478440769016742706298828125</LongitudeDegrees>
            </Position>
            <AltitudeMeters>187.399993896484375</AltitudeMeters>
            <DistanceMeters>1029.6467972729</DistanceMeters>
          </Trackpoint>
          <Trackpoint>
            <Time>2019-01-04T09:25:34.000Z</Time>
            <Position>
              <LatitudeDegrees>36.537005268037319183349609375</LatitudeDegrees>
              <LongitudeDegrees>-5.3947854973375797271728515625</LongitudeDegrees>
            </Position>
            <AltitudeMeters>187.399993896484375</AltitudeMeters>
            <DistanceMeters>1029.7811853412</DistanceMeters>
          </Trackpoint>
          <Trackpoint>
            <Time>2019-01-04T09:25:35.000Z</Time>
            <Position>
              <LatitudeDegrees>36.53700484894216060638427734375</LatitudeDegrees>
              <LongitudeDegrees>-5.39478708989918231964111328125</LongitudeDegrees>
            </Position>
            <AltitudeMeters>187.399993896484375</AltitudeMeters>
            <DistanceMeters>1029.9155734094</DistanceMeters>
          </Trackpoint>
          <Trackpoint>
            <Time>2019-01-04T09:25:36.000Z</Time>
            <Position>
              <LatitudeDegrees>36.5370054356753826141357421875</LatitudeDegrees>
              <LongitudeDegrees>-5.39479027502238750457763671875</LongitudeDegrees>
            </Position>
            <AltitudeMeters>187.600006103515625</AltitudeMeters>
            <DistanceMeters>1030.2160742654</DistanceMeters>
          </Trackpoint>
          <Trackpoint>
            <Time>2019-01-04T09:25:37.000Z</Time>
            <Position>
              <LatitudeDegrees>36.537005603313446044921875</LatitudeDegrees>
              <LongitudeDegrees>-5.39479262195527553558349609375</LongitudeDegrees>
            </Position>
            <AltitudeMeters>187.600006103515625</AltitudeMeters>
            <DistanceMeters>1030.4488412275</DistanceMeters>
          </Trackpoint>
          <Trackpoint>
            <Time>2019-01-04T09:25:38.000Z</Time>
            <Position>
              <LatitudeDegrees>36.53700551949441432952880859375</LatitudeDegrees>
              <LongitudeDegrees>-5.39479362778365612030029296875</LongitudeDegrees>
            </Position>
            <AltitudeMeters>187.600006103515625</AltitudeMeters>
            <DistanceMeters>1030.4488412275</DistanceMeters>
          </Trackpoint>
          <Trackpoint>
            <Time>2019-01-04T09:25:39.000Z</Time>
            <Position>
              <LatitudeDegrees>36.5370054356753826141357421875</LatitudeDegrees>
              <LongitudeDegrees>-5.3947938792407512664794921875</LongitudeDegrees>
            </Position>
            <AltitudeMeters>187.600006103515625</AltitudeMeters>
            <DistanceMeters>1030.4488412275</DistanceMeters>
          </Trackpoint>
          <Trackpoint>
            <Time>2019-01-04T09:25:40.000Z</Time>
            <Position>
              <LatitudeDegrees>36.5370094589889049530029296875</LatitudeDegrees>
              <LongitudeDegrees>-5.39479379542171955108642578125</LongitudeDegrees>
            </Position>
            <AltitudeMeters>187.8000030517578125</AltitudeMeters>
            <DistanceMeters>1030.8945560262</DistanceMeters>
          </Trackpoint>
          <Trackpoint>
            <Time>2019-01-04T09:25:41.000Z</Time>
            <Position>
              <LatitudeDegrees>36.53701725415885448455810546875</LatitudeDegrees>
              <LongitudeDegrees>-5.3947875089943408966064453125</LongitudeDegrees>
            </Position>
            <AltitudeMeters>187.8000030517578125</AltitudeMeters>
            <DistanceMeters>1031.9268103652</DistanceMeters>
          </Trackpoint>
          <Trackpoint>
            <Time>2019-01-04T09:25:42.000Z</Time>
            <Position>
              <LatitudeDegrees>36.537023372948169708251953125</LatitudeDegrees>
              <LongitudeDegrees>-5.39477971382439136505126953125</LongitudeDegrees>
            </Position>
            <AltitudeMeters>187.8000030517578125</AltitudeMeters>
            <DistanceMeters>1032.9051702699</DistanceMeters>
          </Trackpoint>
          <Trackpoint>
            <Time>2019-01-04T09:25:43.000Z</Time>
            <Position>
              <LatitudeDegrees>36.53703041374683380126953125</LatitudeDegrees>
              <LongitudeDegrees>-5.39477501995861530303955078125</LongitudeDegrees>
            </Position>
            <AltitudeMeters>188</AltitudeMeters>
            <DistanceMeters>1033.7965998673</DistanceMeters>
          </Trackpoint>
          <Trackpoint>
            <Time>2019-01-04T09:25:44.000Z</Time>
            <Position>
              <LatitudeDegrees>36.5370369516313076019287109375</LatitudeDegrees>
              <LongitudeDegrees>-5.39476923644542694091796875</LongitudeDegrees>
            </Position>
            <AltitudeMeters>188</AltitudeMeters>
            <DistanceMeters>1034.6880294646</DistanceMeters>
          </Trackpoint>
          <Trackpoint>
            <Time>2019-01-04T09:25:45.000Z</Time>
            <Position>
              <LatitudeDegrees>36.537041477859020233154296875</LatitudeDegrees>
              <LongitudeDegrees>-5.3947647102177143096923828125</LongitudeDegrees>
            </Position>
            <AltitudeMeters>188.1999969482421875</AltitudeMeters>
            <DistanceMeters>1035.3325319987</DistanceMeters>
          </Trackpoint>
          <Trackpoint>
            <Time>2019-01-04T09:25:46.000Z</Time>
            <Position>
              <LatitudeDegrees>36.53704256750643253326416015625</LatitudeDegrees>
              <LongitudeDegrees>-5.3947623632848262786865234375</LongitudeDegrees>
            </Position>
            <AltitudeMeters>188.1999969482421875</AltitudeMeters>
            <DistanceMeters>1035.5652989608</DistanceMeters>
          </Trackpoint>
          <Trackpoint>
            <Time>2019-01-04T09:25:47.000Z</Time>
            <Position>
              <LatitudeDegrees>36.53704089112579822540283203125</LatitudeDegrees>
              <LongitudeDegrees>-5.3947543166577816009521484375</LongitudeDegrees>
            </Position>
            <AltitudeMeters>188.1999969482421875</AltitudeMeters>
            <DistanceMeters>1036.307481326</DistanceMeters>
          </Trackpoint>
          <Trackpoint>
            <Time>2019-01-04T09:25:48.000Z</Time>
            <Position>
              <LatitudeDegrees>36.53704122640192508697509765625</LatitudeDegrees>
              <LongitudeDegrees>-5.394750125706195831298828125</LongitudeDegrees>
            </Position>
            <AltitudeMeters>188.1999969482421875</AltitudeMeters>
            <DistanceMeters>1036.6755182082</DistanceMeters>
          </Trackpoint>
          <Trackpoint>
            <Time>2019-01-04T09:25:49.000Z</Time>
            <Position>
              <LatitudeDegrees>36.5370325930416584014892578125</LatitudeDegrees>
              <LongitudeDegrees>-5.39475205354392528533935546875</LongitudeDegrees>
            </Position>
            <AltitudeMeters>188</AltitudeMeters>
            <DistanceMeters>1037.6538781128</DistanceMeters>
          </Trackpoint>
          <Trackpoint>
            <Time>2019-01-04T09:25:50.000Z</Time>
            <Position>
              <LatitudeDegrees>36.53702831827104091644287109375</LatitudeDegrees>
              <LongitudeDegrees>-5.3947489522397518157958984375</LongitudeDegrees>
            </Position>
            <AltitudeMeters>188</AltitudeMeters>
            <DistanceMeters>1038.207974313</DistanceMeters>
          </Trackpoint>
          <Trackpoint>
            <Time>2019-01-04T09:25:51.000Z</Time>
            <Position>
              <LatitudeDegrees>36.53702504932880401611328125</LatitudeDegrees>
              <LongitudeDegrees>-5.39474668912589550018310546875</LongitudeDegrees>
            </Position>
            <AltitudeMeters>188</AltitudeMeters>
            <DistanceMeters>1038.6329466991</DistanceMeters>
          </Trackpoint>
          <Trackpoint>
            <Time>2019-01-04T09:25:52.000Z</Time>
            <Position>
              <LatitudeDegrees>36.53701993636786937713623046875</LatitudeDegrees>
              <LongitudeDegrees>-5.39474853314459323883056640625</LongitudeDegrees>
            </Position>
            <AltitudeMeters>188</AltitudeMeters>
            <DistanceMeters>1039.2263883401</DistanceMeters>
          </Trackpoint>
          <Trackpoint>
            <Time>2019-01-04T09:25:53.000Z</Time>
            <Position>
              <LatitudeDegrees>36.53701524250209331512451171875</LatitudeDegrees>
              <LongitudeDegrees>-5.39475020952522754669189453125</LongitudeDegrees>
            </Position>
            <AltitudeMeters>188</AltitudeMeters>
            <DistanceMeters>1039.7722752539</DistanceMeters>
          </Trackpoint>
          <Trackpoint>
            <Time>2019-01-04T09:25:54.000Z</Time>
            <Position>
              <LatitudeDegrees>36.537013314664363861083984375</LatitudeDegrees>
              <LongitudeDegrees>-5.394751466810703277587890625</LongitudeDegrees>
            </Position>
            <AltitudeMeters>188</AltitudeMeters>
            <DistanceMeters>1040.005042216</DistanceMeters>
          </Trackpoint>
          <Trackpoint>
            <Time>2019-01-04T09:25:55.000Z</Time>
            <Position>
              <LatitudeDegrees>36.5370118059217929840087890625</LatitudeDegrees>
              <LongitudeDegrees>-5.39474853314459323883056640625</LongitudeDegrees>
            </Position>
            <AltitudeMeters>188</AltitudeMeters>
            <DistanceMeters>1040.305543072</DistanceMeters>
          </Trackpoint>
          <Trackpoint>
            <Time>2019-01-04T09:25:56.000Z</Time>
            <Position>
              <LatitudeDegrees>36.5370091237127780914306640625</LatitudeDegrees>
              <LongitudeDegrees>-5.3947445936501026153564453125</LongitudeDegrees>
            </Position>
            <AltitudeMeters>188.1999969482421875</AltitudeMeters>
            <DistanceMeters>1040.7710769963</DistanceMeters>
          </Trackpoint>
          <Trackpoint>
            <Time>2019-01-04T09:25:57.000Z</Time>
            <Position>
              <LatitudeDegrees>36.5370057709515094757080078125</LatitudeDegrees>
              <LongitudeDegrees>-5.39474132470786571502685546875</LongitudeDegrees>
            </Position>
            <AltitudeMeters>188.1999969482421875</AltitudeMeters>
            <DistanceMeters>1041.2556200672</DistanceMeters>
          </Trackpoint>
          <Trackpoint>
            <Time>2019-01-04T09:25:58.000Z</Time>
            <Position>
              <LatitudeDegrees>36.5370034240186214447021484375</LatitudeDegrees>
              <LongitudeDegrees>-5.39474266581237316131591796875</LongitudeDegrees>
            </Position>
            <AltitudeMeters>188.1999969482421875</AltitudeMeters>
            <DistanceMeters>1041.5243962037</DistanceMeters>
          </Trackpoint>
          <Trackpoint>
            <Time>2019-01-04T09:25:59.000Z</Time>
            <Position>
              <LatitudeDegrees>36.537000574171543121337890625</LatitudeDegrees>
              <LongitudeDegrees>-5.39474450983107089996337890625</LongitudeDegrees>
            </Position>
            <AltitudeMeters>188.1999969482421875</AltitudeMeters>
            <DistanceMeters>1041.8799536114</DistanceMeters>
          </Trackpoint>
          <Trackpoint>
            <Time>2019-01-04T09:26:00.000Z</Time>
            <Position>
              <LatitudeDegrees>36.536994539201259613037109375</LatitudeDegrees>
              <LongitudeDegrees>-5.3947471082210540771484375</LongitudeDegrees>
            </Position>
            <AltitudeMeters>188.399993896484375</AltitudeMeters>
            <DistanceMeters>1042.591068427</DistanceMeters>
          </Trackpoint>
          <Trackpoint>
            <Time>2019-01-04T09:26:01.000Z</Time>
            <Position>
              <LatitudeDegrees>36.53698615729808807373046875</LatitudeDegrees>
              <LongitudeDegrees>-5.394750125706195831298828125</LongitudeDegrees>
            </Position>
            <AltitudeMeters>188.399993896484375</AltitudeMeters>
            <DistanceMeters>1043.5601545687</DistanceMeters>
          </Trackpoint>
          <Trackpoint>
            <Time>2019-01-04T09:26:02.000Z</Time>
            <Position>
              <LatitudeDegrees>36.53697886504232883453369140625</LatitudeDegrees>
              <LongitudeDegrees>-5.39475356228649616241455078125</LongitudeDegrees>
            </Position>
            <AltitudeMeters>188.399993896484375</AltitudeMeters>
            <DistanceMeters>1044.4206580658</DistanceMeters>
          </Trackpoint>
          <Trackpoint>
            <Time>2019-01-04T09:26:03.000Z</Time>
            <Position>
              <LatitudeDegrees>36.53697199188172817230224609375</LatitudeDegrees>
              <LongitudeDegrees>-5.3947551548480987548828125</LongitudeDegrees>
            </Position>
            <AltitudeMeters>188.399993896484375</AltitudeMeters>
            <DistanceMeters>1045.1926587428</DistanceMeters>
          </Trackpoint>
          <Trackpoint>
            <Time>2019-01-04T09:26:04.000Z</Time>
            <Position>
              <LatitudeDegrees>36.5369640290737152099609375</LatitudeDegrees>
              <LongitudeDegrees>-5.394756831228733062744140625</LongitudeDegrees>
            </Position>
            <AltitudeMeters>188.399993896484375</AltitudeMeters>
            <DistanceMeters>1046.0941613107</DistanceMeters>
          </Trackpoint>
          <Trackpoint>
            <Time>2019-01-04T09:26:05.000Z</Time>
            <Position>
              <LatitudeDegrees>36.53695405460894107818603515625</LatitudeDegrees>
              <LongitudeDegrees>-5.39475909434258937835693359375</LongitudeDegrees>
            </Position>
            <AltitudeMeters>188.1999969482421875</AltitudeMeters>
            <DistanceMeters>1047.2265353015</DistanceMeters>
          </Trackpoint>
          <Trackpoint>
            <Time>2019-01-04T09:26:06.000Z</Time>
            <Position>
              <LatitudeDegrees>36.5369434095919132232666015625</LatitudeDegrees>
              <LongitudeDegrees>-5.39476211182773113250732421875</LongitudeDegrees>
            </Position>
            <AltitudeMeters>188.1999969482421875</AltitudeMeters>
            <DistanceMeters>1048.4434710175</DistanceMeters>
          </Trackpoint>
          <Trackpoint>
            <Time>2019-01-04T09:26:07.000Z</Time>
            <Position>
              <LatitudeDegrees>36.53693343512713909149169921875</LatitudeDegrees>
              <LongitudeDegrees>-5.39476194418966770172119140625</LongitudeDegrees>
            </Position>
            <AltitudeMeters>188.399993896484375</AltitudeMeters>
            <DistanceMeters>1049.5597821521</DistanceMeters>
          </Trackpoint>
          <Trackpoint>
            <Time>2019-01-04T09:26:08.000Z</Time>
            <Position>
              <LatitudeDegrees>36.53692446649074554443359375</LatitudeDegrees>
              <LongitudeDegrees>-5.39476429112255573272705078125</LongitudeDegrees>
            </Position>
            <AltitudeMeters>188.399993896484375</AltitudeMeters>
            <DistanceMeters>1050.583251188</DistanceMeters>
          </Trackpoint>
          <Trackpoint>
            <Time>2019-01-04T09:26:09.000Z</Time>
            <Position>
              <LatitudeDegrees>36.536913402378559112548828125</LatitudeDegrees>
              <LongitudeDegrees>-5.39476462639868259429931640625</LongitudeDegrees>
            </Position>
            <AltitudeMeters>188.399993896484375</AltitudeMeters>
            <DistanceMeters>1051.8149381785</DistanceMeters>
          </Trackpoint>
          <Trackpoint>
            <Time>2019-01-04T09:26:10.000Z</Time>
            <Position>
              <LatitudeDegrees>36.5369038470089435577392578125</LatitudeDegrees>
              <LongitudeDegrees>-5.3947663865983486175537109375</LongitudeDegrees>
            </Position>
            <AltitudeMeters>188.399993896484375</AltitudeMeters>
            <DistanceMeters>1052.8900427245</DistanceMeters>
          </Trackpoint>
          <Trackpoint>
            <Time>2019-01-04T09:26:11.000Z</Time>
            <Position>
              <LatitudeDegrees>36.536893285810947418212890625</LatitudeDegrees>
              <LongitudeDegrees>-5.3947680629789829254150390625</LongitudeDegrees>
            </Position>
            <AltitudeMeters>188.600006103515625</AltitudeMeters>
            <DistanceMeters>1054.0769260066</DistanceMeters>
          </Trackpoint>
          <Trackpoint>
            <Time>2019-01-04T09:26:12.000Z</Time>
            <Position>
              <LatitudeDegrees>36.5368837304413318634033203125</LatitudeDegrees>
              <LongitudeDegrees>-5.394768230617046356201171875</LongitudeDegrees>
            </Position>
            <AltitudeMeters>188.8000030517578125</AltitudeMeters>
            <DistanceMeters>1055.1435982299</DistanceMeters>
          </Trackpoint>
          <Trackpoint>
            <Time>2019-01-04T09:26:13.000Z</Time>
            <Position>
              <LatitudeDegrees>36.5368780307471752166748046875</LatitudeDegrees>
              <LongitudeDegrees>-5.39476923644542694091796875</LongitudeDegrees>
            </Position>
            <AltitudeMeters>188.8000030517578125</AltitudeMeters>
            <DistanceMeters>1055.7881007639</DistanceMeters>
          </Trackpoint>
          <Trackpoint>
            <Time>2019-01-04T09:26:14.000Z</Time>
            <Position>
              <LatitudeDegrees>36.5368730016052722930908203125</LatitudeDegrees>
              <LongitudeDegrees>-5.39477200247347354888916015625</LongitudeDegrees>
            </Position>
            <AltitudeMeters>189</AltitudeMeters>
            <DistanceMeters>1056.3891024759</DistanceMeters>
          </Trackpoint>
          <Trackpoint>
            <Time>2019-01-04T09:26:15.000Z</Time>
            <Position>
              <LatitudeDegrees>36.53686805628240108489990234375</LatitudeDegrees>
              <LongitudeDegrees>-5.39477284066379070281982421875</LongitudeDegrees>
            </Position>
            <AltitudeMeters>189</AltitudeMeters>
            <DistanceMeters>1056.9512880996</DistanceMeters>
          </Trackpoint>
          <Trackpoint>
            <Time>2019-01-04T09:26:16.000Z</Time>
            <Position>
              <LatitudeDegrees>36.536861769855022430419921875</LatitudeDegrees>
              <LongitudeDegrees>-5.39477401413023471832275390625</LongitudeDegrees>
            </Position>
            <AltitudeMeters>188.8000030517578125</AltitudeMeters>
            <DistanceMeters>1057.6624029151</DistanceMeters>
          </Trackpoint>
          <Trackpoint>
            <Time>2019-01-04T09:26:17.000Z</Time>
            <Position>
              <LatitudeDegrees>36.5368599258363246917724609375</LatitudeDegrees>
              <LongitudeDegrees>-5.39477686397731304168701171875</LongitudeDegrees>
            </Position>
            <AltitudeMeters>188.8000030517578125</AltitudeMeters>
            <DistanceMeters>1057.9915851099</DistanceMeters>
          </Trackpoint>
          <Trackpoint>
            <Time>2019-01-04T09:26:18.000Z</Time>
            <Position>
              <LatitudeDegrees>36.53686017729341983795166015625</LatitudeDegrees>
              <LongitudeDegrees>-5.39477904327213764190673828125</LongitudeDegrees>
            </Position>
            <AltitudeMeters>188.8000030517578125</AltitudeMeters>
            <DistanceMeters>1058.2040713029</DistanceMeters>
          </Trackpoint>
          <Trackpoint>
            <Time>2019-01-04T09:26:19.000Z</Time>
            <Position>
              <LatitudeDegrees>36.53685950674116611480712890625</LatitudeDegrees>
              <LongitudeDegrees>-5.39478055201470851898193359375</LongitudeDegrees>
            </Position>
            <AltitudeMeters>188.8000030517578125</AltitudeMeters>
            <DistanceMeters>1058.3686624002</DistanceMeters>
          </Trackpoint>
          <Trackpoint>
            <Time>2019-01-04T09:26:20.000Z</Time>
            <Position>
              <LatitudeDegrees>36.53685883618891239166259765625</LatitudeDegrees>
              <LongitudeDegrees>-5.3947819769382476806640625</LongitudeDegrees>
            </Position>
            <AltitudeMeters>188.8000030517578125</AltitudeMeters>
            <DistanceMeters>1058.5030504685</DistanceMeters>
          </Trackpoint>
          <Trackpoint>
            <Time>2019-01-04T09:26:21.000Z</Time>
            <Position>
              <LatitudeDegrees>36.5368565730750560760498046875</LatitudeDegrees>
              <LongitudeDegrees>-5.3947888500988483428955078125</LongitudeDegrees>
            </Position>
            <AltitudeMeters>188.8000030517578125</AltitudeMeters>
            <DistanceMeters>1059.1749908097</DistanceMeters>
          </Trackpoint>
          <Trackpoint>
            <Time>2019-01-04T09:26:22.000Z</Time>
            <Position>
              <LatitudeDegrees>36.5368518792092800140380859375</LatitudeDegrees>
              <LongitudeDegrees>-5.39480251260101795196533203125</LongitudeDegrees>
            </Position>
            <AltitudeMeters>188.8000030517578125</AltitudeMeters>
            <DistanceMeters>1060.5053648109</DistanceMeters>
          </Trackpoint>
          <Trackpoint>
            <Time>2019-01-04T09:26:23.000Z</Time>
            <Position>
              <LatitudeDegrees>36.53685397468507289886474609375</LatitudeDegrees>
              <LongitudeDegrees>-5.39481307379901409149169921875</LongitudeDegrees>
            </Position>
            <AltitudeMeters>188.8000030517578125</AltitudeMeters>
            <DistanceMeters>1061.4744509527</DistanceMeters>
          </Trackpoint>
          <Trackpoint>
            <Time>2019-01-04T09:26:24.000Z</Time>
            <Position>
              <LatitudeDegrees>36.53685397468507289886474609375</LatitudeDegrees>
              <LongitudeDegrees>-5.394809804856777191162109375</LongitudeDegrees>
            </Position>
            <AltitudeMeters>188.8000030517578125</AltitudeMeters>
            <DistanceMeters>1061.7595310958</DistanceMeters>
          </Trackpoint>
          <Trackpoint>
            <Time>2019-01-04T09:26:25.000Z</Time>
            <Position>
              <LatitudeDegrees>36.536852382123470306396484375</LatitudeDegrees>
              <LongitudeDegrees>-5.39481005631387233734130859375</LongitudeDegrees>
            </Position>
            <AltitudeMeters>188.8000030517578125</AltitudeMeters>
            <DistanceMeters>1061.893919164</DistanceMeters>
          </Trackpoint>
          <Trackpoint>
            <Time>2019-01-04T09:26:26.000Z</Time>
            <Position>
              <LatitudeDegrees>36.5368525497615337371826171875</LatitudeDegrees>
              <LongitudeDegrees>-5.394810140132904052734375</LongitudeDegrees>
            </Position>
            <AltitudeMeters>188.8000030517578125</AltitudeMeters>
            <DistanceMeters>1061.893919164</DistanceMeters>
          </Trackpoint>
          <Trackpoint>
            <Time>2019-01-04T09:26:27.000Z</Time>
            <Position>
              <LatitudeDegrees>36.5368522144854068756103515625</LatitudeDegrees>
              <LongitudeDegrees>-5.39481055922806262969970703125</LongitudeDegrees>
            </Position>
            <AltitudeMeters>189</AltitudeMeters>
            <DistanceMeters>1061.9889458784</DistanceMeters>
          </Trackpoint>
          <Trackpoint>
            <Time>2019-01-04T09:26:28.000Z</Time>
            <Position>
              <LatitudeDegrees>36.53685196302831172943115234375</LatitudeDegrees>
              <LongitudeDegrees>-5.394810475409030914306640625</LongitudeDegrees>
            </Position>
            <AltitudeMeters>188.8000030517578125</AltitudeMeters>
            <DistanceMeters>1061.9889458784</DistanceMeters>
          </Trackpoint>
          <Trackpoint>
            <Time>2019-01-04T09:26:29.000Z</Time>
            <Position>
              <LatitudeDegrees>36.53685146011412143707275390625</LatitudeDegrees>
              <LongitudeDegrees>-5.39480812847614288330078125</LongitudeDegrees>
            </Position>
            <AltitudeMeters>188.8000030517578125</AltitudeMeters>
            <DistanceMeters>1062.2217128406</DistanceMeters>
          </Trackpoint>
          <Trackpoint>
            <Time>2019-01-04T09:26:30.000Z</Time>
            <Position>
              <LatitudeDegrees>36.53685280121862888336181640625</LatitudeDegrees>
              <LongitudeDegrees>-5.3948059491813182830810546875</LongitudeDegrees>
            </Position>
            <AltitudeMeters>188.8000030517578125</AltitudeMeters>
            <DistanceMeters>1062.4904889771</DistanceMeters>
          </Trackpoint>
          <Trackpoint>
            <Time>2019-01-04T09:26:31.000Z</Time>
            <Position>
              <LatitudeDegrees>36.53685363940894603729248046875</LatitudeDegrees>
              <LongitudeDegrees>-5.3948042728006839752197265625</LongitudeDegrees>
            </Position>
            <AltitudeMeters>188.8000030517578125</AltitudeMeters>
            <DistanceMeters>1062.6805424058</DistanceMeters>
          </Trackpoint>
          <Trackpoint>
            <Time>2019-01-04T09:26:32.000Z</Time>
            <Position>
              <LatitudeDegrees>36.5368545614182949066162109375</LatitudeDegrees>
              <LongitudeDegrees>-5.39480351842939853668212890625</LongitudeDegrees>
            </Position>
            <AltitudeMeters>188.8000030517578125</AltitudeMeters>
            <DistanceMeters>1062.814930474</DistanceMeters>
          </Trackpoint>
          <Trackpoint>
            <Time>2019-01-04T09:26:33.000Z</Time>
            <Position>
              <LatitudeDegrees>36.5368559025228023529052734375</LatitudeDegrees>
              <LongitudeDegrees>-5.394803099334239959716796875</LongitudeDegrees>
            </Position>
            <AltitudeMeters>188.8000030517578125</AltitudeMeters>
            <DistanceMeters>1062.9493185423</DistanceMeters>
          </Trackpoint>
          <Trackpoint>
            <Time>2019-01-04T09:26:34.000Z</Time>
            <Position>
              <LatitudeDegrees>36.53685665689408779144287109375</LatitudeDegrees>
              <LongitudeDegrees>-5.39480301551520824432373046875</LongitudeDegrees>
            </Position>
            <AltitudeMeters>188.8000030517578125</AltitudeMeters>
            <DistanceMeters>1062.9493185423</DistanceMeters>
          </Trackpoint>
          <Trackpoint>
            <Time>2019-01-04T09:26:35.000Z</Time>
            <Position>
              <LatitudeDegrees>36.5368579141795635223388671875</LatitudeDegrees>
              <LongitudeDegrees>-5.39480133913457393646240234375</LongitudeDegrees>
            </Position>
            <AltitudeMeters>188.8000030517578125</AltitudeMeters>
            <DistanceMeters>1063.1820855044</DistanceMeters>
          </Trackpoint>
          <Trackpoint>
            <Time>2019-01-04T09:26:36.000Z</Time>
            <Position>
              <LatitudeDegrees>36.53686135075986385345458984375</LatitudeDegrees>
              <LongitudeDegrees>-5.39479983039200305938720703125</LongitudeDegrees>
            </Position>
            <AltitudeMeters>188.8000030517578125</AltitudeMeters>
            <DistanceMeters>1063.5852497092</DistanceMeters>
          </Trackpoint>
          <Trackpoint>
            <Time>2019-01-04T09:26:37.000Z</Time>
            <Position>
              <LatitudeDegrees>36.536864452064037322998046875</LatitudeDegrees>
              <LongitudeDegrees>-5.39479815401136875152587890625</LongitudeDegrees>
            </Position>
            <AltitudeMeters>188.8000030517578125</AltitudeMeters>
            <DistanceMeters>1063.9653565667</DistanceMeters>
          </Trackpoint>
          <Trackpoint>
            <Time>2019-01-04T09:26:38.000Z</Time>
            <Position>
              <LatitudeDegrees>36.53686554171144962310791015625</LatitudeDegrees>
              <LongitudeDegrees>-5.394794382154941558837890625</LongitudeDegrees>
            </Position>
            <AltitudeMeters>188.8000030517578125</AltitudeMeters>
            <DistanceMeters>1064.3209139744</DistanceMeters>
          </Trackpoint>
          <Trackpoint>
            <Time>2019-01-04T09:26:39.000Z</Time>
            <Position>
              <LatitudeDegrees>36.53686453588306903839111328125</LatitudeDegrees>
              <LongitudeDegrees>-5.3947911970317363739013671875</LongitudeDegrees>
            </Position>
            <AltitudeMeters>188.8000030517578125</AltitudeMeters>
            <DistanceMeters>1064.6500961692</DistanceMeters>
          </Trackpoint>
          <Trackpoint>
            <Time>2019-01-04T09:26:40.000Z</Time>
            <Position>
              <LatitudeDegrees>36.5368629433214664459228515625</LatitudeDegrees>
              <LongitudeDegrees>-5.39478708989918231964111328125</LongitudeDegrees>
            </Position>
            <AltitudeMeters>188.8000030517578125</AltitudeMeters>
            <DistanceMeters>1065.064308014</DistanceMeters>
          </Trackpoint>
          <Trackpoint>
            <Time>2019-01-04T09:26:41.000Z</Time>
            <Position>
              <LatitudeDegrees>36.53686034493148326873779296875</LatitudeDegrees>
              <LongitudeDegrees>-5.3947841562330722808837890625</LongitudeDegrees>
            </Position>
            <AltitudeMeters>189</AltitudeMeters>
            <DistanceMeters>1065.4674722188</DistanceMeters>
          </Trackpoint>
          <Trackpoint>
            <Time>2019-01-04T09:26:42.000Z</Time>
            <Position>
              <LatitudeDegrees>36.536855399608612060546875</LatitudeDegrees>
              <LongitudeDegrees>-5.394782312214374542236328125</LongitudeDegrees>
            </Position>
            <AltitudeMeters>189.399993896484375</AltitudeMeters>
            <DistanceMeters>1066.037632505</DistanceMeters>
          </Trackpoint>
          <Trackpoint>
            <Time>2019-01-04T09:26:43.000Z</Time>
            <Position>
              <LatitudeDegrees>36.536845676600933074951171875</LatitudeDegrees>
              <LongitudeDegrees>-5.3947801329195499420166015625</LongitudeDegrees>
            </Position>
            <AltitudeMeters>188.8000030517578125</AltitudeMeters>
            <DistanceMeters>1067.137646252</DistanceMeters>
          </Trackpoint>
          <Trackpoint>
            <Time>2019-01-04T09:26:44.000Z</Time>
            <Position>
              <LatitudeDegrees>36.53683268465101718902587890625</LatitudeDegrees>
              <LongitudeDegrees>-5.39477820508182048797607421875</LongitudeDegrees>
            </Position>
            <AltitudeMeters>189</AltitudeMeters>
            <DistanceMeters>1068.5912754646</DistanceMeters>
          </Trackpoint>
          <Trackpoint>
            <Time>2019-01-04T09:26:45.000Z</Time>
            <Position>
              <LatitudeDegrees>36.53682162053883075714111328125</LatitudeDegrees>
              <LongitudeDegrees>-5.39477770216763019561767578125</LongitudeDegrees>
            </Position>
            <AltitudeMeters>188.8000030517578125</AltitudeMeters>
            <DistanceMeters>1069.8229624551</DistanceMeters>
          </Trackpoint>
          <Trackpoint>
            <Time>2019-01-04T09:26:46.000Z</Time>
            <Position>
              <LatitudeDegrees>36.53681122697889804840087890625</LatitudeDegrees>
              <LongitudeDegrees>-5.39477669633924961090087890625</LongitudeDegrees>
            </Position>
            <AltitudeMeters>189</AltitudeMeters>
            <DistanceMeters>1070.9829113291</DistanceMeters>
          </Trackpoint>
          <Trackpoint>
            <Time>2019-01-04T09:26:47.000Z</Time>
            <Position>
              <LatitudeDegrees>36.53680100105702877044677734375</LatitudeDegrees>
              <LongitudeDegrees>-5.394776277244091033935546875</LongitudeDegrees>
            </Position>
            <AltitudeMeters>189</AltitudeMeters>
            <DistanceMeters>1072.1192655571</DistanceMeters>
          </Trackpoint>
          <Trackpoint>
            <Time>2019-01-04T09:26:48.000Z</Time>
            <Position>
              <LatitudeDegrees>36.53679094277322292327880859375</LatitudeDegrees>
              <LongitudeDegrees>-5.39477418176829814910888671875</LongitudeDegrees>
            </Position>
            <AltitudeMeters>189.1999969482421875</AltitudeMeters>
            <DistanceMeters>1073.2516395479</DistanceMeters>
          </Trackpoint>
          <Trackpoint>
            <Time>2019-01-04T09:26:49.000Z</Time>
            <Position>
              <LatitudeDegrees>36.53678121976554393768310546875</LatitudeDegrees>
              <LongitudeDegrees>-5.394771583378314971923828125</LongitudeDegrees>
            </Position>
            <AltitudeMeters>189.1999969482421875</AltitudeMeters>
            <DistanceMeters>1074.3598319483</DistanceMeters>
          </Trackpoint>
          <Trackpoint>
            <Time>2019-01-04T09:26:50.000Z</Time>
            <Position>
              <LatitudeDegrees>36.53677283786237239837646484375</LatitudeDegrees>
              <LongitudeDegrees>-5.39477032609283924102783203125</LongitudeDegrees>
            </Position>
            <AltitudeMeters>189.399993896484375</AltitudeMeters>
            <DistanceMeters>1075.300548426</DistanceMeters>
          </Trackpoint>
          <Trackpoint>
            <Time>2019-01-04T09:26:51.000Z</Time>
            <Position>
              <LatitudeDegrees>36.536765210330486297607421875</LatitudeDegrees>
              <LongitudeDegrees>-5.39477133192121982574462890625</LongitudeDegrees>
            </Position>
            <AltitudeMeters>189.600006103515625</AltitudeMeters>
            <DistanceMeters>1076.1557888554</DistanceMeters>
          </Trackpoint>
          <Trackpoint>
            <Time>2019-01-04T09:26:52.000Z</Time>
            <Position>
              <LatitudeDegrees>36.53675557114183902740478515625</LatitudeDegrees>
              <LongitudeDegrees>-5.39476915262639522552490234375</LongitudeDegrees>
            </Position>
            <AltitudeMeters>189.8000030517578125</AltitudeMeters>
            <DistanceMeters>1077.251690387</DistanceMeters>
          </Trackpoint>
          <Trackpoint>
            <Time>2019-01-04T09:26:53.000Z</Time>
            <Position>
              <LatitudeDegrees>36.536745093762874603271484375</LatitudeDegrees>
              <LongitudeDegrees>-5.39476655423641204833984375</LongitudeDegrees>
            </Position>
            <AltitudeMeters>190</AltitudeMeters>
            <DistanceMeters>1078.4423717053</DistanceMeters>
          </Trackpoint>
          <Trackpoint>
            <Time>2019-01-04T09:26:54.000Z</Time>
            <Position>
              <LatitudeDegrees>36.53673394583165645599365234375</LatitudeDegrees>
              <LongitudeDegrees>-5.39476714096963405609130859375</LongitudeDegrees>
            </Position>
            <AltitudeMeters>190</AltitudeMeters>
            <DistanceMeters>1079.681368475</DistanceMeters>
          </Trackpoint>
          <Trackpoint>
            <Time>2019-01-04T09:26:55.000Z</Time>
            <Position>
              <LatitudeDegrees>36.53672271408140659332275390625</LatitudeDegrees>
              <LongitudeDegrees>-5.39476429112255573272705078125</LongitudeDegrees>
            </Position>
            <AltitudeMeters>190.1999969482421875</AltitudeMeters>
            <DistanceMeters>1080.9562856331</DistanceMeters>
          </Trackpoint>
          <Trackpoint>
            <Time>2019-01-04T09:26:56.000Z</Time>
            <Position>
              <LatitudeDegrees>36.5367107279598712921142578125</LatitudeDegrees>
              <LongitudeDegrees>-5.3947633691132068634033203125</LongitudeDegrees>
            </Position>
            <AltitudeMeters>190.1999969482421875</AltitudeMeters>
            <DistanceMeters>1082.2968024037</DistanceMeters>
          </Trackpoint>
          <Trackpoint>
            <Time>2019-01-04T09:26:57.000Z</Time>
            <Position>
              <LatitudeDegrees>36.53669589199125766754150390625</LatitudeDegrees>
              <LongitudeDegrees>-5.39476160891354084014892578125</LongitudeDegrees>
            </Position>
            <AltitudeMeters>190.399993896484375</AltitudeMeters>
            <DistanceMeters>1083.9590910044</DistanceMeters>
          </Trackpoint>
          <Trackpoint>
            <Time>2019-01-04T09:26:58.000Z</Time>
            <Position>
              <LatitudeDegrees>36.53668331913650035858154296875</LatitudeDegrees>
              <LongitudeDegrees>-5.394761860370635986328125</LongitudeDegrees>
            </Position>
            <AltitudeMeters>190.399993896484375</AltitudeMeters>
            <DistanceMeters>1085.3589219186</DistanceMeters>
          </Trackpoint>
          <Trackpoint>
            <Time>2019-01-04T09:26:59.000Z</Time>
            <Position>
              <LatitudeDegrees>36.5366698242723941802978515625</LatitudeDegrees>
              <LongitudeDegrees>-5.3947663865983486175537109375</LongitudeDegrees>
            </Position>
            <AltitudeMeters>190.600006103515625</AltitudeMeters>
            <DistanceMeters>1086.9145762783</DistanceMeters>
          </Trackpoint>
          <Trackpoint>
            <Time>2019-01-04T09:27:00.000Z</Time>
            <Position>
              <LatitudeDegrees>36.5366580896079540252685546875</LatitudeDegrees>
              <LongitudeDegrees>-5.39476454257965087890625</LongitudeDegrees>
            </Position>
            <AltitudeMeters>190.600006103515625</AltitudeMeters>
            <DistanceMeters>1088.2313050572</DistanceMeters>
          </Trackpoint>
          <Trackpoint>
            <Time>2019-01-04T09:27:01.000Z</Time>
            <Position>
              <LatitudeDegrees>36.5366473607718944549560546875</LatitudeDegrees>
              <LongitudeDegrees>-5.39476244710385799407958984375</LongitudeDegrees>
            </Position>
            <AltitudeMeters>190.8000030517578125</AltitudeMeters>
            <DistanceMeters>1089.4407976715</DistanceMeters>
          </Trackpoint>
          <Trackpoint>
            <Time>2019-01-04T09:27:02.000Z</Time>
            <Position>
              <LatitudeDegrees>36.53663688339293003082275390625</LatitudeDegrees>
              <LongitudeDegrees>-5.39476010017096996307373046875</LongitudeDegrees>
            </Position>
            <AltitudeMeters>190.8000030517578125</AltitudeMeters>
            <DistanceMeters>1090.6276809536</DistanceMeters>
          </Trackpoint>
          <Trackpoint>
            <Time>2019-01-04T09:27:03.000Z</Time>
            <Position>
              <LatitudeDegrees>36.5366255678236484527587890625</LatitudeDegrees>
              <LongitudeDegrees>-5.39475305937230587005615234375</LongitudeDegrees>
            </Position>
            <AltitudeMeters>190.8000030517578125</AltitudeMeters>
            <DistanceMeters>1092.0371549042</DistanceMeters>
          </Trackpoint>
          <Trackpoint>
            <Time>2019-01-04T09:27:04.000Z</Time>
            <Position>
              <LatitudeDegrees>36.53661341406404972076416015625</LatitudeDegrees>
              <LongitudeDegrees>-5.394753478467464447021484375</LongitudeDegrees>
            </Position>
            <AltitudeMeters>190.8000030517578125</AltitudeMeters>
            <DistanceMeters>1093.3877382751</DistanceMeters>
          </Trackpoint>
          <Trackpoint>
            <Time>2019-01-04T09:27:05.000Z</Time>
            <Position>
              <LatitudeDegrees>36.53660318814218044281005859375</LatitudeDegrees>
              <LongitudeDegrees>-5.394754149019718170166015625</LongitudeDegrees>
            </Position>
            <AltitudeMeters>191</AltitudeMeters>
            <DistanceMeters>1094.5280588476</DistanceMeters>
          </Trackpoint>
          <Trackpoint>
            <Time>2019-01-04T09:27:06.000Z</Time>
            <Position>
              <LatitudeDegrees>36.536594890058040618896484375</LatitudeDegrees>
              <LongitudeDegrees>-5.3947516344487667083740234375</LongitudeDegrees>
            </Position>
            <AltitudeMeters>191</AltitudeMeters>
            <DistanceMeters>1095.4830655077</DistanceMeters>
          </Trackpoint>
          <Trackpoint>
            <Time>2019-01-04T09:27:07.000Z</Time>
            <Position>
              <LatitudeDegrees>36.5365839935839176177978515625</LatitudeDegrees>
              <LongitudeDegrees>-5.39474886842072010040283203125</LongitudeDegrees>
            </Position>
            <AltitudeMeters>191.1999969482421875</AltitudeMeters>
            <DistanceMeters>1096.7184127945</DistanceMeters>
          </Trackpoint>
          <Trackpoint>
            <Time>2019-01-04T09:27:08.000Z</Time>
            <Position>
              <LatitudeDegrees>36.536572091281414031982421875</LatitudeDegrees>
              <LongitudeDegrees>-5.39474685676395893096923828125</LongitudeDegrees>
            </Position>
            <AltitudeMeters>191.399993896484375</AltitudeMeters>
            <DistanceMeters>1098.0555571905</DistanceMeters>
          </Trackpoint>
          <Trackpoint>
            <Time>2019-01-04T09:27:09.000Z</Time>
            <Position>
              <LatitudeDegrees>36.53655859641730785369873046875</LatitudeDegrees>
              <LongitudeDegrees>-5.39474702440202236175537109375</LongitudeDegrees>
            </Position>
            <AltitudeMeters>191.600006103515625</AltitudeMeters>
            <DistanceMeters>1099.5580614704</DistanceMeters>
          </Trackpoint>
          <Trackpoint>
            <Time>2019-01-04T09:27:10.000Z</Time>
            <Position>
              <LatitudeDegrees>36.53654317371547222137451171875</LatitudeDegrees>
              <LongitudeDegrees>-5.39475004188716411590576171875</LongitudeDegrees>
            </Position>
            <AltitudeMeters>191.8000030517578125</AltitudeMeters>
            <DistanceMeters>1101.2947380472</DistanceMeters>
          </Trackpoint>
          <Trackpoint>
            <Time>2019-01-04T09:27:11.000Z</Time>
            <Position>
              <LatitudeDegrees>36.536529846489429473876953125</LatitudeDegrees>
              <LongitudeDegrees>-5.394751131534576416015625</LongitudeDegrees>
            </Position>
            <AltitudeMeters>191.8000030517578125</AltitudeMeters>
            <DistanceMeters>1102.7791027774</DistanceMeters>
          </Trackpoint>
          <Trackpoint>
            <Time>2019-01-04T09:27:12.000Z</Time>
            <Position>
              <LatitudeDegrees>36.53651987202465534210205078125</LatitudeDegrees>
              <LongitudeDegrees>-5.39475406520068645477294921875</LongitudeDegrees>
            </Position>
            <AltitudeMeters>192</AltitudeMeters>
            <DistanceMeters>1103.9194233498</DistanceMeters>
          </Trackpoint>
          <Trackpoint>
            <Time>2019-01-04T09:27:13.000Z</Time>
            <Position>
              <LatitudeDegrees>36.53651115484535694122314453125</LatitudeDegrees>
              <LongitudeDegrees>-5.39475691504776477813720703125</LongitudeDegrees>
            </Position>
            <AltitudeMeters>192</AltitudeMeters>
            <DistanceMeters>1104.9250915663</DistanceMeters>
          </Trackpoint>
          <Trackpoint>
            <Time>2019-01-04T09:27:14.000Z</Time>
            <Position>
              <LatitudeDegrees>36.5365000069141387939453125</LatitudeDegrees>
              <LongitudeDegrees>-5.3947590105235576629638671875</LongitudeDegrees>
            </Position>
            <AltitudeMeters>192</AltitudeMeters>
            <DistanceMeters>1106.1785800191</DistanceMeters>
          </Trackpoint>
          <Trackpoint>
            <Time>2019-01-04T09:27:15.000Z</Time>
            <Position>
              <LatitudeDegrees>36.5364874340593814849853515625</LatitudeDegrees>
              <LongitudeDegrees>-5.39475959725677967071533203125</LongitudeDegrees>
            </Position>
            <AltitudeMeters>192.1999969482421875</AltitudeMeters>
            <DistanceMeters>1107.5751817919</DistanceMeters>
          </Trackpoint>
          <Trackpoint>
            <Time>2019-01-04T09:27:16.000Z</Time>
            <Position>
              <LatitudeDegrees>36.5364746935665607452392578125</LatitudeDegrees>
              <LongitudeDegrees>-5.39475892670452594757080078125</LongitudeDegrees>
            </Position>
            <AltitudeMeters>192.1999969482421875</AltitudeMeters>
            <DistanceMeters>1108.997411423</DistanceMeters>
          </Trackpoint>
          <Trackpoint>
            <Time>2019-01-04T09:27:17.000Z</Time>
            <Position>
              <LatitudeDegrees>36.5364619530737400054931640625</LatitudeDegrees>
              <LongitudeDegrees>-5.39475725032389163970947265625</LongitudeDegrees>
            </Position>
            <AltitudeMeters>192.399993896484375</AltitudeMeters>
            <DistanceMeters>1110.425976184</DistanceMeters>
          </Trackpoint>
          <Trackpoint>
            <Time>2019-01-04T09:27:18.000Z</Time>
            <Position>
              <LatitudeDegrees>36.53645063750445842742919921875</LatitudeDegrees>
              <LongitudeDegrees>-5.394760183990001678466796875</LongitudeDegrees>
            </Position>
            <AltitudeMeters>192.399993896484375</AltitudeMeters>
            <DistanceMeters>1111.7149812521</DistanceMeters>
          </Trackpoint>
          <Trackpoint>
            <Time>2019-01-04T09:27:19.000Z</Time>
            <Position>
              <LatitudeDegrees>36.53643756173551082611083984375</LatitudeDegrees>
              <LongitudeDegrees>-5.39476328529417514801025390625</LongitudeDegrees>
            </Position>
            <AltitudeMeters>192.399993896484375</AltitudeMeters>
            <DistanceMeters>1113.1932500029</DistanceMeters>
          </Trackpoint>
          <Trackpoint>
            <Time>2019-01-04T09:27:20.000Z</Time>
            <Position>
              <LatitudeDegrees>36.53642381541430950164794921875</LatitudeDegrees>
              <LongitudeDegrees>-5.3947680629789829254150390625</LongitudeDegrees>
            </Position>
            <AltitudeMeters>192.600006103515625</AltitudeMeters>
            <DistanceMeters>1114.7776619605</DistanceMeters>
          </Trackpoint>
          <Trackpoint>
            <Time>2019-01-04T09:27:21.000Z</Time>
            <Position>
              <LatitudeDegrees>36.53640990145504474639892578125</LatitudeDegrees>
              <LongitudeDegrees>-5.39477116428315639495849609375</LongitudeDegrees>
            </Position>
            <AltitudeMeters>192.600006103515625</AltitudeMeters>
            <DistanceMeters>1116.3506339709</DistanceMeters>
          </Trackpoint>
          <Trackpoint>
            <Time>2019-01-04T09:27:22.000Z</Time>
            <Position>
              <LatitudeDegrees>36.53639514930546283721923828125</LatitudeDegrees>
              <LongitudeDegrees>-5.39477066136896610260009765625</LongitudeDegrees>
            </Position>
            <AltitudeMeters>192.8000030517578125</AltitudeMeters>
            <DistanceMeters>1117.9910494001</DistanceMeters>
          </Trackpoint>
          <Trackpoint>
            <Time>2019-01-04T09:27:23.000Z</Time>
            <Position>
              <LatitudeDegrees>36.53638006187975406646728515625</LatitudeDegrees>
              <LongitudeDegrees>-5.394772924482822418212890625</LongitudeDegrees>
            </Position>
            <AltitudeMeters>193</AltitudeMeters>
            <DistanceMeters>1119.6856184631</DistanceMeters>
          </Trackpoint>
          <Trackpoint>
            <Time>2019-01-04T09:27:24.000Z</Time>
            <Position>
              <LatitudeDegrees>36.53636715374886989593505859375</LatitudeDegrees>
              <LongitudeDegrees>-5.394774265587329864501953125</LongitudeDegrees>
            </Position>
            <AltitudeMeters>193</AltitudeMeters>
            <DistanceMeters>1121.1236335901</DistanceMeters>
          </Trackpoint>
          <Trackpoint>
            <Time>2019-01-04T09:27:25.000Z</Time>
            <Position>
              <LatitudeDegrees>36.5363551676273345947265625</LatitudeDegrees>
              <LongitudeDegrees>-5.39477367885410785675048828125</LongitudeDegrees>
            </Position>
            <AltitudeMeters>193</AltitudeMeters>
            <DistanceMeters>1122.4573970847</DistanceMeters>
          </Trackpoint>
          <Trackpoint>
            <Time>2019-01-04T09:27:26.000Z</Time>
            <Position>
              <LatitudeDegrees>36.5363442711532115936279296875</LatitudeDegrees>
              <LongitudeDegrees>-5.394773595035076141357421875</LongitudeDegrees>
            </Position>
            <AltitudeMeters>193.1999969482421875</AltitudeMeters>
            <DistanceMeters>1123.6706169578</DistanceMeters>
          </Trackpoint>
          <Trackpoint>
            <Time>2019-01-04T09:27:27.000Z</Time>
            <Position>
              <LatitudeDegrees>36.536328010261058807373046875</LatitudeDegrees>
              <LongitudeDegrees>-5.3947791270911693572998046875</LongitudeDegrees>
            </Position>
            <AltitudeMeters>193.1999969482421875</AltitudeMeters>
            <DistanceMeters>1125.5472442018</DistanceMeters>
          </Trackpoint>
          <Trackpoint>
            <Time>2019-01-04T09:27:28.000Z</Time>
            <Position>
              <LatitudeDegrees>36.53631468303501605987548828125</LatitudeDegrees>
              <LongitudeDegrees>-5.394783653318881988525390625</LongitudeDegrees>
            </Position>
            <AltitudeMeters>193.399993896484375</AltitudeMeters>
            <DistanceMeters>1127.0883185364</DistanceMeters>
          </Trackpoint>
          <Trackpoint>
            <Time>2019-01-04T09:27:29.000Z</Time>
            <Position>
              <LatitudeDegrees>36.53630345128476619720458984375</LatitudeDegrees>
              <LongitudeDegrees>-5.394787006080150604248046875</LongitudeDegrees>
            </Position>
            <AltitudeMeters>193.399993896484375</AltitudeMeters>
            <DistanceMeters>1128.3738161013</DistanceMeters>
          </Trackpoint>
          <Trackpoint>
            <Time>2019-01-04T09:27:30.000Z</Time>
            <Position>
              <LatitudeDegrees>36.53629071079194545745849609375</LatitudeDegrees>
              <LongitudeDegrees>-5.39479178376495838165283203125</LongitudeDegrees>
            </Position>
            <AltitudeMeters>193.399993896484375</AltitudeMeters>
            <DistanceMeters>1129.8551359776</DistanceMeters>
          </Trackpoint>
          <Trackpoint>
            <Time>2019-01-04T09:27:31.000Z</Time>
            <Position>
              <LatitudeDegrees>36.53627797029912471771240234375</LatitudeDegrees>
              <LongitudeDegrees>-5.394797064363956451416015625</LongitudeDegrees>
            </Position>
            <AltitudeMeters>193.600006103515625</AltitudeMeters>
            <DistanceMeters>1131.351618172</DistanceMeters>
          </Trackpoint>
          <Trackpoint>
            <Time>2019-01-04T09:27:32.000Z</Time>
            <Position>
              <LatitudeDegrees>36.536266990005970001220703125</LatitudeDegrees>
              <LongitudeDegrees>-5.39480083622038364410400390625</LongitudeDegrees>
            </Position>
            <AltitudeMeters>193.600006103515625</AltitudeMeters>
            <DistanceMeters>1132.6194326722</DistanceMeters>
          </Trackpoint>
          <Trackpoint>
            <Time>2019-01-04T09:27:33.000Z</Time>
            <Position>
              <LatitudeDegrees>36.536256931722164154052734375</LatitudeDegrees>
              <LongitudeDegrees>-5.39480603300034999847412109375</LongitudeDegrees>
            </Position>
            <AltitudeMeters>193.8000030517578125</AltitudeMeters>
            <DistanceMeters>1133.8326525452</DistanceMeters>
          </Trackpoint>
          <Trackpoint>
            <Time>2019-01-04T09:27:34.000Z</Time>
            <Position>
              <LatitudeDegrees>36.5362480469048023223876953125</LatitudeDegrees>
              <LongitudeDegrees>-5.39480871520936489105224609375</LongitudeDegrees>
            </Position>
            <AltitudeMeters>194</AltitudeMeters>
            <DistanceMeters>1134.8472602106</DistanceMeters>
          </Trackpoint>
          <Trackpoint>
            <Time>2019-01-04T09:27:35.000Z</Time>
            <Position>
              <LatitudeDegrees>36.53623740188777446746826171875</LatitudeDegrees>
              <LongitudeDegrees>-5.39481089450418949127197265625</LongitudeDegrees>
            </Position>
            <AltitudeMeters>194</AltitudeMeters>
            <DistanceMeters>1136.0492636345</DistanceMeters>
          </Trackpoint>
          <Trackpoint>
            <Time>2019-01-04T09:27:36.000Z</Time>
            <Position>
              <LatitudeDegrees>36.536228097975254058837890625</LatitudeDegrees>
              <LongitudeDegrees>-5.394811816513538360595703125</LongitudeDegrees>
            </Position>
            <AltitudeMeters>194.1999969482421875</AltitudeMeters>
            <DistanceMeters>1137.090229135</DistanceMeters>
          </Trackpoint>
          <Trackpoint>
            <Time>2019-01-04T09:27:37.000Z</Time>
            <Position>
              <LatitudeDegrees>36.536214351654052734375</LatitudeDegrees>
              <LongitudeDegrees>-5.3948163427412509918212890625</LongitudeDegrees>
            </Position>
            <AltitudeMeters>194.1999969482421875</AltitudeMeters>
            <DistanceMeters>1138.6746410926</DistanceMeters>
          </Trackpoint>
          <Trackpoint>
            <Time>2019-01-04T09:27:38.000Z</Time>
            <Position>
              <LatitudeDegrees>36.5362027846276760101318359375</LatitudeDegrees>
              <LongitudeDegrees>-5.39481827057898044586181640625</LongitudeDegrees>
            </Position>
            <AltitudeMeters>194.399993896484375</AltitudeMeters>
            <DistanceMeters>1139.9706326893</DistanceMeters>
          </Trackpoint>
          <Trackpoint>
            <Time>2019-01-04T09:27:39.000Z</Time>
            <Position>
              <LatitudeDegrees>36.5361920557916164398193359375</LatitudeDegrees>
              <LongitudeDegrees>-5.3948210366070270538330078125</LongitudeDegrees>
            </Position>
            <AltitudeMeters>194.600006103515625</AltitudeMeters>
            <DistanceMeters>1141.1875684052</DistanceMeters>
          </Trackpoint>
          <Trackpoint>
            <Time>2019-01-04T09:27:40.000Z</Time>
            <Position>
              <LatitudeDegrees>36.53618157841265201568603515625</LatitudeDegrees>
              <LongitudeDegrees>-5.394825898110866546630859375</LongitudeDegrees>
            </Position>
            <AltitudeMeters>194.600006103515625</AltitudeMeters>
            <DistanceMeters>1142.4338320805</DistanceMeters>
          </Trackpoint>
          <Trackpoint>
            <Time>2019-01-04T09:27:41.000Z</Time>
            <Position>
              <LatitudeDegrees>36.53616900555789470672607421875</LatitudeDegrees>
              <LongitudeDegrees>-5.39483453147113323211669921875</LongitudeDegrees>
            </Position>
            <AltitudeMeters>194.8000030517578125</AltitudeMeters>
            <DistanceMeters>1144.0324288507</DistanceMeters>
          </Trackpoint>
          <Trackpoint>
            <Time>2019-01-04T09:27:42.000Z</Time>
            <Position>
              <LatitudeDegrees>36.5361575223505496978759765625</LatitudeDegrees>
              <LongitudeDegrees>-5.3948421590030193328857421875</LongitudeDegrees>
            </Position>
            <AltitudeMeters>195</AltitudeMeters>
            <DistanceMeters>1145.4860580634</DistanceMeters>
          </Trackpoint>
          <Trackpoint>
            <Time>2019-01-04T09:27:43.000Z</Time>
            <Position>
              <LatitudeDegrees>36.5361414290964603424072265625</LatitudeDegrees>
              <LongitudeDegrees>-5.39484660141170024871826171875</LongitudeDegrees>
            </Position>
            <AltitudeMeters>195</AltitudeMeters>
            <DistanceMeters>1147.3188669561</DistanceMeters>
          </Trackpoint>
          <Trackpoint>
            <Time>2019-01-04T09:27:44.000Z</Time>
            <Position>
              <LatitudeDegrees>36.53612491674721240997314453125</LatitudeDegrees>
              <LongitudeDegrees>-5.39484911598265171051025390625</LongitudeDegrees>
            </Position>
            <AltitudeMeters>195</AltitudeMeters>
            <DistanceMeters>1149.1712786405</DistanceMeters>
          </Trackpoint>
          <Trackpoint>
            <Time>2019-01-04T09:27:45.000Z</Time>
            <Position>
              <LatitudeDegrees>36.53611309826374053955078125</LatitudeDegrees>
              <LongitudeDegrees>-5.394853055477142333984375</LongitudeDegrees>
            </Position>
            <AltitudeMeters>195</AltitudeMeters>
            <DistanceMeters>1150.5351685728</DistanceMeters>
          </Trackpoint>
          <Trackpoint>
            <Time>2019-01-04T09:27:46.000Z</Time>
            <Position>
              <LatitudeDegrees>36.536104381084442138671875</LatitudeDegrees>
              <LongitudeDegrees>-5.39485716260969638824462890625</LongitudeDegrees>
            </Position>
            <AltitudeMeters>195.1999969482421875</AltitudeMeters>
            <DistanceMeters>1151.5761340734</DistanceMeters>
          </Trackpoint>
          <Trackpoint>
            <Time>2019-01-04T09:27:47.000Z</Time>
            <Position>
              <LatitudeDegrees>36.5360958315432071685791015625</LatitudeDegrees>
              <LongitudeDegrees>-5.39485917426645755767822265625</LongitudeDegrees>
            </Position>
            <AltitudeMeters>195.1999969482421875</AltitudeMeters>
            <DistanceMeters>1152.5452202151</DistanceMeters>
          </Trackpoint>
          <Trackpoint>
            <Time>2019-01-04T09:27:48.000Z</Time>
            <Position>
              <LatitudeDegrees>36.5360887907445430755615234375</LatitudeDegrees>
              <LongitudeDegrees>-5.39485850371420383453369140625</LongitudeDegrees>
            </Position>
            <AltitudeMeters>195.399993896484375</AltitudeMeters>
            <DistanceMeters>1153.3402707488</DistanceMeters>
          </Trackpoint>
          <Trackpoint>
            <Time>2019-01-04T09:27:49.000Z</Time>
            <Position>
              <LatitudeDegrees>36.53608024120330810546875</LatitudeDegrees>
              <LongitudeDegrees>-5.394860766828060150146484375</LongitudeDegrees>
            </Position>
            <AltitudeMeters>195.399993896484375</AltitudeMeters>
            <DistanceMeters>1154.3140048124</DistanceMeters>
          </Trackpoint>
          <Trackpoint>
            <Time>2019-01-04T09:27:50.000Z</Time>
            <Position>
              <LatitudeDegrees>36.53607043437659740447998046875</LatitudeDegrees>
              <LongitudeDegrees>-5.3948619402945041656494140625</LongitudeDegrees>
            </Position>
            <AltitudeMeters>195.399993896484375</AltitudeMeters>
            <DistanceMeters>1155.40577864</DistanceMeters>
          </Trackpoint>
          <Trackpoint>
            <Time>2019-01-04T09:27:51.000Z</Time>
            <Position>
              <LatitudeDegrees>36.53606104664504528045654296875</LatitudeDegrees>
              <LongitudeDegrees>-5.39486579596996307373046875</LongitudeDegrees>
            </Position>
            <AltitudeMeters>195.600006103515625</AltitudeMeters>
            <DistanceMeters>1156.5016801716</DistanceMeters>
          </Trackpoint>
          <Trackpoint>
            <Time>2019-01-04T09:27:52.000Z</Time>
            <Position>
              <LatitudeDegrees>36.5360509045422077178955078125</LatitudeDegrees>
              <LongitudeDegrees>-5.3948743455111980438232421875</LongitudeDegrees>
            </Position>
            <AltitudeMeters>195.600006103515625</AltitudeMeters>
            <DistanceMeters>1157.8655701039</DistanceMeters>
          </Trackpoint>
          <Trackpoint>
            <Time>2019-01-04T09:27:53.000Z</Time>
            <Position>
              <LatitudeDegrees>36.536036990582942962646484375</LatitudeDegrees>
              <LongitudeDegrees>-5.394885577261447906494140625</LongitudeDegrees>
            </Position>
            <AltitudeMeters>195.8000030517578125</AltitudeMeters>
            <DistanceMeters>1159.7131005897</DistanceMeters>
          </Trackpoint>
          <Trackpoint>
            <Time>2019-01-04T09:27:54.000Z</Time>
            <Position>
              <LatitudeDegrees>36.5360230766236782073974609375</LatitudeDegrees>
              <LongitudeDegrees>-5.3948986530303955078125</LongitudeDegrees>
            </Position>
            <AltitudeMeters>196</AltitudeMeters>
            <DistanceMeters>1161.6536010089</DistanceMeters>
          </Trackpoint>
          <Trackpoint>
            <Time>2019-01-04T09:27:55.000Z</Time>
            <Position>
              <LatitudeDegrees>36.536011509597301483154296875</LatitudeDegrees>
              <LongitudeDegrees>-5.394913740456104278564453125</LongitudeDegrees>
            </Position>
            <AltitudeMeters>196.1999969482421875</AltitudeMeters>
            <DistanceMeters>1163.5157367061</DistanceMeters>
          </Trackpoint>
          <Trackpoint>
            <Time>2019-01-04T09:27:56.000Z</Time>
            <Position>
              <LatitudeDegrees>36.53600086458027362823486328125</LatitudeDegrees>
              <LongitudeDegrees>-5.3949300013482570648193359375</LongitudeDegrees>
            </Position>
            <AltitudeMeters>196.1999969482421875</AltitudeMeters>
            <DistanceMeters>1165.3899564735</DistanceMeters>
          </Trackpoint>
          <Trackpoint>
            <Time>2019-01-04T09:27:57.000Z</Time>
            <Position>
              <LatitudeDegrees>36.535990722477436065673828125</LatitudeDegrees>
              <LongitudeDegrees>-5.394941233098506927490234375</LongitudeDegrees>
            </Position>
            <AltitudeMeters>196.399993896484375</AltitudeMeters>
            <DistanceMeters>1166.901448895</DistanceMeters>
          </Trackpoint>
          <Trackpoint>
            <Time>2019-01-04T09:27:58.000Z</Time>
            <Position>
              <LatitudeDegrees>36.535977311432361602783203125</LatitudeDegrees>
              <LongitudeDegrees>-5.39495103992521762847900390625</LongitudeDegrees>
            </Position>
            <AltitudeMeters>196.600006103515625</AltitudeMeters>
            <DistanceMeters>1168.6329180341</DistanceMeters>
          </Trackpoint>
          <Trackpoint>
            <Time>2019-01-04T09:27:59.000Z</Time>
            <Position>
              <LatitudeDegrees>36.53596691787242889404296875</LatitudeDegrees>
              <LongitudeDegrees>-5.3949601761996746063232421875</LongitudeDegrees>
            </Position>
            <AltitudeMeters>196.600006103515625</AltitudeMeters>
            <DistanceMeters>1170.0487841896</DistanceMeters>
          </Trackpoint>
          <Trackpoint>
            <Time>2019-01-04T09:28:00.000Z</Time>
            <Position>
              <LatitudeDegrees>36.535959877073764801025390625</LatitudeDegrees>
              <LongitudeDegrees>-5.39497367106378078460693359375</LongitudeDegrees>
            </Position>
            <AltitudeMeters>196.600006103515625</AltitudeMeters>
            <DistanceMeters>1171.4899356675</DistanceMeters>
          </Trackpoint>
          <Trackpoint>
            <Time>2019-01-04T09:28:01.000Z</Time>
            <Position>
              <LatitudeDegrees>36.53595258481800556182861328125</LatitudeDegrees>
              <LongitudeDegrees>-5.3949869982898235321044921875</LongitudeDegrees>
            </Position>
            <AltitudeMeters>196.8000030517578125</AltitudeMeters>
            <DistanceMeters>1172.9373394588</DistanceMeters>
          </Trackpoint>
          <Trackpoint>
            <Time>2019-01-04T09:28:02.000Z</Time>
            <Position>
              <LatitudeDegrees>36.53594269417226314544677734375</LatitudeDegrees>
              <LongitudeDegrees>-5.39499797858297824859619140625</LongitudeDegrees>
            </Position>
            <AltitudeMeters>196.8000030517578125</AltitudeMeters>
            <DistanceMeters>1174.4125507735</DistanceMeters>
          </Trackpoint>
          <Trackpoint>
            <Time>2019-01-04T09:28:03.000Z</Time>
            <Position>
              <LatitudeDegrees>36.53593347407877445220947265625</LatitudeDegrees>
              <LongitudeDegrees>-5.39500870741903781890869140625</LongitudeDegrees>
            </Position>
            <AltitudeMeters>197</AltitudeMeters>
            <DistanceMeters>1175.8156033971</DistanceMeters>
          </Trackpoint>
          <Trackpoint>
            <Time>2019-01-04T09:28:04.000Z</Time>
            <Position>
              <LatitudeDegrees>36.5359241701662540435791015625</LatitudeDegrees>
              <LongitudeDegrees>-5.39502245374023914337158203125</LongitudeDegrees>
            </Position>
            <AltitudeMeters>197</AltitudeMeters>
            <DistanceMeters>1177.422650958</DistanceMeters>
          </Trackpoint>
          <Trackpoint>
            <Time>2019-01-04T09:28:05.000Z</Time>
            <Position>
              <LatitudeDegrees>36.53591587208211421966552734375</LatitudeDegrees>
              <LongitudeDegrees>-5.3950349427759647369384765625</LongitudeDegrees>
            </Position>
            <AltitudeMeters>197</AltitudeMeters>
            <DistanceMeters>1178.8700547493</DistanceMeters>
          </Trackpoint>
          <Trackpoint>
            <Time>2019-01-04T09:28:06.000Z</Time>
            <Position>
              <LatitudeDegrees>36.53590648435056209564208984375</LatitudeDegrees>
              <LongitudeDegrees>-5.3950446657836437225341796875</LongitudeDegrees>
            </Position>
            <AltitudeMeters>197.1999969482421875</AltitudeMeters>
            <DistanceMeters>1180.2273077082</DistanceMeters>
          </Trackpoint>
          <Trackpoint>
            <Time>2019-01-04T09:28:07.000Z</Time>
            <Position>
              <LatitudeDegrees>36.5358986891806125640869140625</LatitudeDegrees>
              <LongitudeDegrees>-5.39505195803940296173095703125</LongitudeDegrees>
            </Position>
            <AltitudeMeters>197.1999969482421875</AltitudeMeters>
            <DistanceMeters>1181.3107789528</DistanceMeters>
          </Trackpoint>
          <Trackpoint>
            <Time>2019-01-04T09:28:08.000Z</Time>
            <Position>
              <LatitudeDegrees>36.53589374385774135589599609375</LatitudeDegrees>
              <LongitudeDegrees>-5.39505782537162303924560546875</LongitudeDegrees>
            </Position>
            <AltitudeMeters>197.399993896484375</AltitudeMeters>
            <DistanceMeters>1182.0709926677</DistanceMeters>
          </Trackpoint>
          <Trackpoint>
            <Time>2019-01-04T09:28:09.000Z</Time>
            <Position>
              <LatitudeDegrees>36.535889469087123870849609375</LatitudeDegrees>
              <LongitudeDegrees>-5.39506427943706512451171875</LongitudeDegrees>
            </Position>
            <AltitudeMeters>197.399993896484375</AltitudeMeters>
            <DistanceMeters>1182.8192337649</DistanceMeters>
          </Trackpoint>
          <Trackpoint>
            <Time>2019-01-04T09:28:10.000Z</Time>
            <Position>
              <LatitudeDegrees>36.535884439945220947265625</LatitudeDegrees>
              <LongitudeDegrees>-5.39507257752120494842529296875</LongitudeDegrees>
            </Position>
            <AltitudeMeters>197.600006103515625</AltitudeMeters>
            <DistanceMeters>1183.7503016135</DistanceMeters>
          </Trackpoint>
          <Trackpoint>
            <Time>2019-01-04T09:28:11.000Z</Time>
            <Position>
              <LatitudeDegrees>36.53588569723069667816162109375</LatitudeDegrees>
              <LongitudeDegrees>-5.39507894776761531829833984375</LongitudeDegrees>
            </Position>
            <AltitudeMeters>197.600006103515625</AltitudeMeters>
            <DistanceMeters>1184.3513033254</DistanceMeters>
          </Trackpoint>
          <Trackpoint>
            <Time>2019-01-04T09:28:12.000Z</Time>
            <Position>
              <LatitudeDegrees>36.5358869545161724090576171875</LatitudeDegrees>
              <LongitudeDegrees>-5.395083725452423095703125</LongitudeDegrees>
            </Position>
            <AltitudeMeters>197.600006103515625</AltitudeMeters>
            <DistanceMeters>1184.8070354378</DistanceMeters>
          </Trackpoint>
          <Trackpoint>
            <Time>2019-01-04T09:28:13.000Z</Time>
            <Position>
              <LatitudeDegrees>36.53588653542101383209228515625</LatitudeDegrees>
              <LongitudeDegrees>-5.39509244263172149658203125</LongitudeDegrees>
            </Position>
            <AltitudeMeters>197.8000030517578125</AltitudeMeters>
            <DistanceMeters>1185.590645799</DistanceMeters>
          </Trackpoint>
          <Trackpoint>
            <Time>2019-01-04T09:28:14.000Z</Time>
            <Position>
              <LatitudeDegrees>36.53588921763002872467041015625</LatitudeDegrees>
              <LongitudeDegrees>-5.39510426111519336700439453125</LongitudeDegrees>
            </Position>
            <AltitudeMeters>197.8000030517578125</AltitudeMeters>
            <DistanceMeters>1186.6906595459</DistanceMeters>
          </Trackpoint>
          <Trackpoint>
            <Time>2019-01-04T09:28:15.000Z</Time>
            <Position>
              <LatitudeDegrees>36.5358906425535678863525390625</LatitudeDegrees>
              <LongitudeDegrees>-5.39511448703706264495849609375</LongitudeDegrees>
            </Position>
            <AltitudeMeters>197.8000030517578125</AltitudeMeters>
            <DistanceMeters>1187.6217273945</DistanceMeters>
          </Trackpoint>
          <Trackpoint>
            <Time>2019-01-04T09:28:16.000Z</Time>
            <Position>
              <LatitudeDegrees>36.535891480743885040283203125</LatitudeDegrees>
              <LongitudeDegrees>-5.39512353949248790740966796875</LongitudeDegrees>
            </Position>
            <AltitudeMeters>197.8000030517578125</AltitudeMeters>
            <DistanceMeters>1188.4391781005</DistanceMeters>
          </Trackpoint>
          <Trackpoint>
            <Time>2019-01-04T09:28:17.000Z</Time>
            <Position>
              <LatitudeDegrees>36.53589324094355106353759765625</LatitudeDegrees>
              <LongitudeDegrees>-5.39512865245342254638671875</LongitudeDegrees>
            </Position>
            <AltitudeMeters>197.600006103515625</AltitudeMeters>
            <DistanceMeters>1188.9329513926</DistanceMeters>
          </Trackpoint>
          <Trackpoint>
            <Time>2019-01-04T09:28:18.000Z</Time>
            <Position>
              <LatitudeDegrees>36.53589676134288311004638671875</LatitudeDegrees>
              <LongitudeDegrees>-5.39513259194791316986083984375</LongitudeDegrees>
            </Position>
            <AltitudeMeters>197.399993896484375</AltitudeMeters>
            <DistanceMeters>1189.4620377464</DistanceMeters>
          </Trackpoint>
          <Trackpoint>
            <Time>2019-01-04T09:28:19.000Z</Time>
            <Position>
              <LatitudeDegrees>36.535896845161914825439453125</LatitudeDegrees>
              <LongitudeDegrees>-5.39513845928013324737548828125</LongitudeDegrees>
            </Position>
            <AltitudeMeters>197.1999969482421875</AltitudeMeters>
            <DistanceMeters>1189.9825204967</DistanceMeters>
          </Trackpoint>
          <Trackpoint>
            <Time>2019-01-04T09:28:20.000Z</Time>
            <Position>
              <LatitudeDegrees>36.5358966775238513946533203125</LatitudeDegrees>
              <LongitudeDegrees>-5.3951439075171947479248046875</LongitudeDegrees>
            </Position>
            <AltitudeMeters>197.1999969482421875</AltitudeMeters>
            <DistanceMeters>1190.4670635676</DistanceMeters>
          </Trackpoint>
          <Trackpoint>
            <Time>2019-01-04T09:28:21.000Z</Time>
            <Position>
              <LatitudeDegrees>36.53589642606675624847412109375</LatitudeDegrees>
              <LongitudeDegrees>-5.39514742791652679443359375</LongitudeDegrees>
            </Position>
            <AltitudeMeters>197.1999969482421875</AltitudeMeters>
            <DistanceMeters>1190.7822315242</DistanceMeters>
          </Trackpoint>
          <Trackpoint>
            <Time>2019-01-04T09:28:22.000Z</Time>
            <Position>
              <LatitudeDegrees>36.5358956716954708099365234375</LatitudeDegrees>
              <LongitudeDegrees>-5.39515002630650997161865234375</LongitudeDegrees>
            </Position>
            <AltitudeMeters>197.1999969482421875</AltitudeMeters>
            <DistanceMeters>1191.0149984863</DistanceMeters>
          </Trackpoint>
          <Trackpoint>
            <Time>2019-01-04T09:28:23.000Z</Time>
            <Position>
              <LatitudeDegrees>36.535894833505153656005859375</LatitudeDegrees>
              <LongitudeDegrees>-5.39515279233455657958984375</LongitudeDegrees>
            </Position>
            <AltitudeMeters>197.1999969482421875</AltitudeMeters>
            <DistanceMeters>1191.2664155405</DistanceMeters>
          </Trackpoint>
          <Trackpoint>
            <Time>2019-01-04T09:28:24.000Z</Time>
            <Position>
              <LatitudeDegrees>36.5358939953148365020751953125</LatitudeDegrees>
              <LongitudeDegrees>-5.3951553069055080413818359375</LongitudeDegrees>
            </Position>
            <AltitudeMeters>197.1999969482421875</AltitudeMeters>
            <DistanceMeters>1191.535191677</DistanceMeters>
          </Trackpoint>
          <Trackpoint>
            <Time>2019-01-04T09:28:25.000Z</Time>
            <Position>
              <LatitudeDegrees>36.53589181602001190185546875</LatitudeDegrees>
              <LongitudeDegrees>-5.3951574862003326416015625</LongitudeDegrees>
            </Position>
            <AltitudeMeters>197.1999969482421875</AltitudeMeters>
            <DistanceMeters>1191.8503596336</DistanceMeters>
          </Trackpoint>
          <Trackpoint>
            <Time>2019-01-04T09:28:26.000Z</Time>
            <Position>
              <LatitudeDegrees>36.53589072637259960174560546875</LatitudeDegrees>
              <LongitudeDegrees>-5.395157821476459503173828125</LongitudeDegrees>
            </Position>
            <AltitudeMeters>197.1999969482421875</AltitudeMeters>
            <DistanceMeters>1191.945386348</DistanceMeters>
          </Trackpoint>
          <Trackpoint>
            <Time>2019-01-04T09:28:27.000Z</Time>
            <Position>
              <LatitudeDegrees>36.53589005582034587860107421875</LatitudeDegrees>
              <LongitudeDegrees>-5.39515824057161808013916015625</LongitudeDegrees>
            </Position>
            <AltitudeMeters>197.1999969482421875</AltitudeMeters>
            <DistanceMeters>1191.945386348</DistanceMeters>
          </Trackpoint>
          <Trackpoint>
            <Time>2019-01-04T09:28:28.000Z</Time>
            <Position>
              <LatitudeDegrees>36.53588988818228244781494140625</LatitudeDegrees>
              <LongitudeDegrees>-5.395158827304840087890625</LongitudeDegrees>
            </Position>
            <AltitudeMeters>197</AltitudeMeters>
            <DistanceMeters>1191.945386348</DistanceMeters>
          </Trackpoint>
          <Trackpoint>
            <Time>2019-01-04T09:28:29.000Z</Time>
            <Position>
              <LatitudeDegrees>36.53588972054421901702880859375</LatitudeDegrees>
              <LongitudeDegrees>-5.3951596654951572418212890625</LongitudeDegrees>
            </Position>
            <AltitudeMeters>197</AltitudeMeters>
            <DistanceMeters>1191.945386348</DistanceMeters>
          </Trackpoint>
          <Trackpoint>
            <Time>2019-01-04T09:28:30.000Z</Time>
            <Position>
              <LatitudeDegrees>36.53588921763002872467041015625</LatitudeDegrees>
              <LongitudeDegrees>-5.3951600007712841033935546875</LongitudeDegrees>
            </Position>
            <AltitudeMeters>197</AltitudeMeters>
            <DistanceMeters>1191.945386348</DistanceMeters>
          </Trackpoint>
          <Trackpoint>
            <Time>2019-01-04T09:28:31.000Z</Time>
            <Position>
              <LatitudeDegrees>36.5358876250684261322021484375</LatitudeDegrees>
              <LongitudeDegrees>-5.3951610065996646881103515625</LongitudeDegrees>
            </Position>
            <AltitudeMeters>197</AltitudeMeters>
            <DistanceMeters>1192.1354397767</DistanceMeters>
          </Trackpoint>
          <Trackpoint>
            <Time>2019-01-04T09:28:32.000Z</Time>
            <Position>
              <LatitudeDegrees>36.53588569723069667816162109375</LatitudeDegrees>
              <LongitudeDegrees>-5.39516058750450611114501953125</LongitudeDegrees>
            </Position>
            <AltitudeMeters>197.1999969482421875</AltitudeMeters>
            <DistanceMeters>1192.3682067388</DistanceMeters>
          </Trackpoint>
          <Trackpoint>
            <Time>2019-01-04T09:28:33.000Z</Time>
            <Position>
              <LatitudeDegrees>36.53588402085006237030029296875</LatitudeDegrees>
              <LongitudeDegrees>-5.39515991695225238800048828125</LongitudeDegrees>
            </Position>
            <AltitudeMeters>197.1999969482421875</AltitudeMeters>
            <DistanceMeters>1192.5806929318</DistanceMeters>
          </Trackpoint>
          <Trackpoint>
            <Time>2019-01-04T09:28:34.000Z</Time>
            <Position>
              <LatitudeDegrees>36.535882093012332916259765625</LatitudeDegrees>
              <LongitudeDegrees>-5.3951596654951572418212890625</LongitudeDegrees>
            </Position>
            <AltitudeMeters>197.1999969482421875</AltitudeMeters>
            <DistanceMeters>1192.813459894</DistanceMeters>
          </Trackpoint>
          <Trackpoint>
            <Time>2019-01-04T09:28:35.000Z</Time>
            <Position>
              <LatitudeDegrees>36.5358795784413814544677734375</LatitudeDegrees>
              <LongitudeDegrees>-5.395159833133220672607421875</LongitudeDegrees>
            </Position>
            <AltitudeMeters>197.1999969482421875</AltitudeMeters>
            <DistanceMeters>1193.11396075</DistanceMeters>
          </Trackpoint>
          <Trackpoint>
            <Time>2019-01-04T09:28:36.000Z</Time>
            <Position>
              <LatitudeDegrees>36.53587572276592254638671875</LatitudeDegrees>
              <LongitudeDegrees>-5.39516150951385498046875</LongitudeDegrees>
            </Position>
            <AltitudeMeters>197.1999969482421875</AltitudeMeters>
            <DistanceMeters>1193.5794946742</DistanceMeters>
          </Trackpoint>
          <Trackpoint>
            <Time>2019-01-04T09:28:37.000Z</Time>
            <Position>
              <LatitudeDegrees>36.5358732081949710845947265625</LatitudeDegrees>
              <LongitudeDegrees>-5.39516218006610870361328125</LongitudeDegrees>
            </Position>
            <AltitudeMeters>197.1999969482421875</AltitudeMeters>
            <DistanceMeters>1193.8799955302</DistanceMeters>
          </Trackpoint>
          <Trackpoint>
            <Time>2019-01-04T09:28:38.000Z</Time>
            <Position>
              <LatitudeDegrees>36.535870023071765899658203125</LatitudeDegrees>
              <LongitudeDegrees>-5.39516326971352100372314453125</LongitudeDegrees>
            </Position>
            <AltitudeMeters>197.1999969482421875</AltitudeMeters>
            <DistanceMeters>1194.2480324124</DistanceMeters>
          </Trackpoint>
          <Trackpoint>
            <Time>2019-01-04T09:28:39.000Z</Time>
            <Position>
              <LatitudeDegrees>36.5358665026724338531494140625</LatitudeDegrees>
              <LongitudeDegrees>-5.395163185894489288330078125</LongitudeDegrees>
            </Position>
            <AltitudeMeters>197.1999969482421875</AltitudeMeters>
            <DistanceMeters>1194.6281392699</DistanceMeters>
          </Trackpoint>
          <Trackpoint>
            <Time>2019-01-04T09:28:40.000Z</Time>
            <Position>
              <LatitudeDegrees>36.53586306609213352203369140625</LatitudeDegrees>
              <LongitudeDegrees>-5.39516326971352100372314453125</LongitudeDegrees>
            </Position>
            <AltitudeMeters>197.1999969482421875</AltitudeMeters>
            <DistanceMeters>1195.0082461274</DistanceMeters>
          </Trackpoint>
          <Trackpoint>
            <Time>2019-01-04T09:28:41.000Z</Time>
            <Position>
              <LatitudeDegrees>36.53586138971149921417236328125</LatitudeDegrees>
              <LongitudeDegrees>-5.3951623477041721343994140625</LongitudeDegrees>
            </Position>
            <AltitudeMeters>197.399993896484375</AltitudeMeters>
            <DistanceMeters>1195.2410130895</DistanceMeters>
          </Trackpoint>
          <Trackpoint>
            <Time>2019-01-04T09:28:42.000Z</Time>
            <Position>
              <LatitudeDegrees>36.53586558066308498382568359375</LatitudeDegrees>
              <LongitudeDegrees>-5.39515958167612552642822265625</LongitudeDegrees>
            </Position>
            <AltitudeMeters>197.399993896484375</AltitudeMeters>
            <DistanceMeters>1195.7700994433</DistanceMeters>
          </Trackpoint>
          <Trackpoint>
            <Time>2019-01-04T09:28:43.000Z</Time>
            <Position>
              <LatitudeDegrees>36.53586256317794322967529296875</LatitudeDegrees>
              <LongitudeDegrees>-5.39516008459031581878662109375</LongitudeDegrees>
            </Position>
            <AltitudeMeters>197.399993896484375</AltitudeMeters>
            <DistanceMeters>1196.099281638</DistanceMeters>
          </Trackpoint>
          <Trackpoint>
            <Time>2019-01-04T09:28:44.000Z</Time>
            <Position>
              <LatitudeDegrees>36.5358634851872920989990234375</LatitudeDegrees>
              <LongitudeDegrees>-5.395159162580966949462890625</LongitudeDegrees>
            </Position>
            <AltitudeMeters>197.399993896484375</AltitudeMeters>
            <DistanceMeters>1196.2336697063</DistanceMeters>
          </Trackpoint>
          <Trackpoint>
            <Time>2019-01-04T09:28:45.000Z</Time>
            <Position>
              <LatitudeDegrees>36.53586289845407009124755859375</LatitudeDegrees>
              <LongitudeDegrees>-5.3951596654951572418212890625</LongitudeDegrees>
            </Position>
            <AltitudeMeters>197.399993896484375</AltitudeMeters>
            <DistanceMeters>1196.2336697063</DistanceMeters>
          </Trackpoint>
          <Trackpoint>
            <Time>2019-01-04T09:28:46.000Z</Time>
            <Position>
              <LatitudeDegrees>36.535866670310497283935546875</LatitudeDegrees>
              <LongitudeDegrees>-5.39515757001936435699462890625</LongitudeDegrees>
            </Position>
            <AltitudeMeters>197.399993896484375</AltitudeMeters>
            <DistanceMeters>1196.679384505</DistanceMeters>
          </Trackpoint>
          <Trackpoint>
            <Time>2019-01-04T09:28:47.000Z</Time>
            <Position>
              <LatitudeDegrees>36.5358624793589115142822265625</LatitudeDegrees>
              <LongitudeDegrees>-5.39515840820968151092529296875</LongitudeDegrees>
            </Position>
            <AltitudeMeters>197.399993896484375</AltitudeMeters>
            <DistanceMeters>1197.1449184292</DistanceMeters>
          </Trackpoint>
          <Trackpoint>
            <Time>2019-01-04T09:28:48.000Z</Time>
            <Position>
              <LatitudeDegrees>36.5358509123325347900390625</LatitudeDegrees>
              <LongitudeDegrees>-5.3951640240848064422607421875</LongitudeDegrees>
            </Position>
            <AltitudeMeters>197.399993896484375</AltitudeMeters>
            <DistanceMeters>1198.5285282753</DistanceMeters>
          </Trackpoint>
          <Trackpoint>
            <Time>2019-01-04T09:28:49.000Z</Time>
            <Position>
              <LatitudeDegrees>36.5358349867165088653564453125</LatitudeDegrees>
              <LongitudeDegrees>-5.395178608596324920654296875</LongitudeDegrees>
            </Position>
            <AltitudeMeters>197.600006103515625</AltitudeMeters>
            <DistanceMeters>1200.7326564764</DistanceMeters>
          </Trackpoint>
          <Trackpoint>
            <Time>2019-01-04T09:28:50.000Z</Time>
            <Position>
              <LatitudeDegrees>36.5358232520520687103271484375</LatitudeDegrees>
              <LongitudeDegrees>-5.39518975652754306793212890625</LongitudeDegrees>
            </Position>
            <AltitudeMeters>197.8000030517578125</AltitudeMeters>
            <DistanceMeters>1202.37856745</DistanceMeters>
          </Trackpoint>
          <Trackpoint>
            <Time>2019-01-04T09:28:51.000Z</Time>
            <Position>
              <LatitudeDegrees>36.53580472804605960845947265625</LatitudeDegrees>
              <LongitudeDegrees>-5.3952138125896453857421875</LongitudeDegrees>
            </Position>
            <AltitudeMeters>198</AltitudeMeters>
            <DistanceMeters>1205.3594390039</DistanceMeters>
          </Trackpoint>
          <Trackpoint>
            <Time>2019-01-04T09:28:52.000Z</Time>
            <Position>
              <LatitudeDegrees>36.53578595258295536041259765625</LatitudeDegrees>
              <LongitudeDegrees>-5.39523870684206485748291015625</LongitudeDegrees>
            </Position>
            <AltitudeMeters>198.399993896484375</AltitudeMeters>
            <DistanceMeters>1208.4121490934</DistanceMeters>
          </Trackpoint>
          <Trackpoint>
            <Time>2019-01-04T09:28:53.000Z</Time>
            <Position>
              <LatitudeDegrees>36.5357675962150096893310546875</LatitudeDegrees>
              <LongitudeDegrees>-5.3952620923519134521484375</LongitudeDegrees>
            </Position>
            <AltitudeMeters>198.8000030517578125</AltitudeMeters>
            <DistanceMeters>1211.3348964851</DistanceMeters>
          </Trackpoint>
          <Trackpoint>
            <Time>2019-01-04T09:28:54.000Z</Time>
            <Position>
              <LatitudeDegrees>36.53574974276125431060791015625</LatitudeDegrees>
              <LongitudeDegrees>-5.39528447203338146209716796875</LongitudeDegrees>
            </Position>
            <AltitudeMeters>199</AltitudeMeters>
            <DistanceMeters>1214.1554456067</DistanceMeters>
          </Trackpoint>
          <Trackpoint>
            <Time>2019-01-04T09:28:55.000Z</Time>
            <Position>
              <LatitudeDegrees>36.53573884628713130950927734375</LatitudeDegrees>
              <LongitudeDegrees>-5.39530257694423198699951171875</LongitudeDegrees>
            </Position>
            <AltitudeMeters>199.1999969482421875</AltitudeMeters>
            <DistanceMeters>1216.1802060136</DistanceMeters>
          </Trackpoint>
          <Trackpoint>
            <Time>2019-01-04T09:28:56.000Z</Time>
            <Position>
              <LatitudeDegrees>36.5357213281095027923583984375</LatitudeDegrees>
              <LongitudeDegrees>-5.3953293152153491973876953125</LongitudeDegrees>
            </Position>
            <AltitudeMeters>199.399993896484375</AltitudeMeters>
            <DistanceMeters>1219.2652830908</DistanceMeters>
          </Trackpoint>
          <Trackpoint>
            <Time>2019-01-04T09:28:57.000Z</Time>
            <Position>
              <LatitudeDegrees>36.535705067217350006103515625</LatitudeDegrees>
              <LongitudeDegrees>-5.3953527845442295074462890625</LongitudeDegrees>
            </Position>
            <AltitudeMeters>199.8000030517578125</AltitudeMeters>
            <DistanceMeters>1222.0357640919</DistanceMeters>
          </Trackpoint>
          <Trackpoint>
            <Time>2019-01-04T09:28:58.000Z</Time>
            <Position>
              <LatitudeDegrees>36.5356928296387195587158203125</LatitudeDegrees>
              <LongitudeDegrees>-5.3953732363879680633544921875</LongitudeDegrees>
            </Position>
            <AltitudeMeters>200</AltitudeMeters>
            <DistanceMeters>1224.3183841015</DistanceMeters>
          </Trackpoint>
          <Trackpoint>
            <Time>2019-01-04T09:28:59.000Z</Time>
            <Position>
              <LatitudeDegrees>36.53567732311785221099853515625</LatitudeDegrees>
              <LongitudeDegrees>-5.39539360441267490386962890625</LongitudeDegrees>
            </Position>
            <AltitudeMeters>200.399993896484375</AltitudeMeters>
            <DistanceMeters>1226.8289604014</DistanceMeters>
          </Trackpoint>
          <Trackpoint>
            <Time>2019-01-04T09:29:00.000Z</Time>
            <Position>
              <LatitudeDegrees>36.5356670133769512176513671875</LatitudeDegrees>
              <LongitudeDegrees>-5.3954107873141765594482421875</LongitudeDegrees>
            </Position>
            <AltitudeMeters>200.8000030517578125</AltitudeMeters>
            <DistanceMeters>1228.7436956406</DistanceMeters>
          </Trackpoint>
          <Trackpoint>
            <Time>2019-01-04T09:29:01.000Z</Time>
            <Position>
              <LatitudeDegrees>36.53565569780766963958740234375</LatitudeDegrees>
              <LongitudeDegrees>-5.3954275511205196380615234375</LongitudeDegrees>
            </Position>
            <AltitudeMeters>201.1999969482421875</AltitudeMeters>
            <DistanceMeters>1230.7004154499</DistanceMeters>
          </Trackpoint>
          <Trackpoint>
            <Time>2019-01-04T09:29:02.000Z</Time>
            <Position>
              <LatitudeDegrees>36.53564505279064178466796875</LatitudeDegrees>
              <LongitudeDegrees>-5.39544289000332355499267578125</LongitudeDegrees>
            </Position>
            <AltitudeMeters>201.1999969482421875</AltitudeMeters>
            <DistanceMeters>1232.5158982788</DistanceMeters>
          </Trackpoint>
          <Trackpoint>
            <Time>2019-01-04T09:29:03.000Z</Time>
            <Position>
              <LatitudeDegrees>36.5356368385255336761474609375</LatitudeDegrees>
              <LongitudeDegrees>-5.3954570554196834564208984375</LongitudeDegrees>
            </Position>
            <AltitudeMeters>201.1999969482421875</AltitudeMeters>
            <DistanceMeters>1234.080235428</DistanceMeters>
          </Trackpoint>
          <Trackpoint>
            <Time>2019-01-04T09:29:04.000Z</Time>
            <Position>
              <LatitudeDegrees>36.53563055209815502166748046875</LatitudeDegrees>
              <LongitudeDegrees>-5.39546920917928218841552734375</LongitudeDegrees>
            </Position>
            <AltitudeMeters>201.399993896484375</AltitudeMeters>
            <DistanceMeters>1235.3727384811</DistanceMeters>
          </Trackpoint>
          <Trackpoint>
            <Time>2019-01-04T09:29:05.000Z</Time>
            <Position>
              <LatitudeDegrees>36.53562937863171100616455078125</LatitudeDegrees>
              <LongitudeDegrees>-5.395480692386627197265625</LongitudeDegrees>
            </Position>
            <AltitudeMeters>201.600006103515625</AltitudeMeters>
            <DistanceMeters>1236.4049928201</DistanceMeters>
          </Trackpoint>
          <Trackpoint>
            <Time>2019-01-04T09:29:06.000Z</Time>
            <Position>
              <LatitudeDegrees>36.53562493622303009033203125</LatitudeDegrees>
              <LongitudeDegrees>-5.39549343287944793701171875</LongitudeDegrees>
            </Position>
            <AltitudeMeters>201.600006103515625</AltitudeMeters>
            <DistanceMeters>1237.6476283547</DistanceMeters>
          </Trackpoint>
          <Trackpoint>
            <Time>2019-01-04T09:29:07.000Z</Time>
            <Position>
              <LatitudeDegrees>36.53562099672853946685791015625</LatitudeDegrees>
              <LongitudeDegrees>-5.39550726301968097686767578125</LongitudeDegrees>
            </Position>
            <AltitudeMeters>201.600006103515625</AltitudeMeters>
            <DistanceMeters>1238.9574812183</DistanceMeters>
          </Trackpoint>
          <Trackpoint>
            <Time>2019-01-04T09:29:08.000Z</Time>
            <Position>
              <LatitudeDegrees>36.535619236528873443603515625</LatitudeDegrees>
              <LongitudeDegrees>-5.39552486501634120941162109375</LongitudeDegrees>
            </Position>
            <AltitudeMeters>201.8000030517578125</AltitudeMeters>
            <DistanceMeters>1240.5418931759</DistanceMeters>
          </Trackpoint>
          <Trackpoint>
            <Time>2019-01-04T09:29:09.000Z</Time>
            <Position>
              <LatitudeDegrees>36.53561630286276340484619140625</LatitudeDegrees>
              <LongitudeDegrees>-5.39554246701300144195556640625</LongitudeDegrees>
            </Position>
            <AltitudeMeters>201.8000030517578125</AltitudeMeters>
            <DistanceMeters>1242.1489407368</DistanceMeters>
          </Trackpoint>
          <Trackpoint>
            <Time>2019-01-04T09:29:10.000Z</Time>
            <Position>
              <LatitudeDegrees>36.53561278246343135833740234375</LatitudeDegrees>
              <LongitudeDegrees>-5.39555939845740795135498046875</LongitudeDegrees>
            </Position>
            <AltitudeMeters>202</AltitudeMeters>
            <DistanceMeters>1243.7103889876</DistanceMeters>
          </Trackpoint>
          <Trackpoint>
            <Time>2019-01-04T09:29:11.000Z</Time>
            <Position>
              <LatitudeDegrees>36.53561328537762165069580078125</LatitudeDegrees>
              <LongitudeDegrees>-5.39557364769279956817626953125</LongitudeDegrees>
            </Position>
            <AltitudeMeters>202</AltitudeMeters>
            <DistanceMeters>1244.9853061457</DistanceMeters>
          </Trackpoint>
          <Trackpoint>
            <Time>2019-01-04T09:29:12.000Z</Time>
            <Position>
              <LatitudeDegrees>36.53561630286276340484619140625</LatitudeDegrees>
              <LongitudeDegrees>-5.39558571763336658477783203125</LongitudeDegrees>
            </Position>
            <AltitudeMeters>202</AltitudeMeters>
            <DistanceMeters>1246.1176801365</DistanceMeters>
          </Trackpoint>
          <Trackpoint>
            <Time>2019-01-04T09:29:13.000Z</Time>
            <Position>
              <LatitudeDegrees>36.535618565976619720458984375</LatitudeDegrees>
              <LongitudeDegrees>-5.39560097269713878631591796875</LongitudeDegrees>
            </Position>
            <AltitudeMeters>202</AltitudeMeters>
            <DistanceMeters>1247.5012899825</DistanceMeters>
          </Trackpoint>
          <Trackpoint>
            <Time>2019-01-04T09:29:14.000Z</Time>
            <Position>
              <LatitudeDegrees>36.53562250547111034393310546875</LatitudeDegrees>
              <LongitudeDegrees>-5.3956163115799427032470703125</LongitudeDegrees>
            </Position>
            <AltitudeMeters>202</AltitudeMeters>
            <DistanceMeters>1248.9424414604</DistanceMeters>
          </Trackpoint>
          <Trackpoint>
            <Time>2019-01-04T09:29:15.000Z</Time>
            <Position>
              <LatitudeDegrees>36.535627283155918121337890625</LatitudeDegrees>
              <LongitudeDegrees>-5.3956334106624126434326171875</LongitudeDegrees>
            </Position>
            <AltitudeMeters>202.1999969482421875</AltitudeMeters>
            <DistanceMeters>1250.5606880945</DistanceMeters>
          </Trackpoint>
          <Trackpoint>
            <Time>2019-01-04T09:29:16.000Z</Time>
            <Position>
              <LatitudeDegrees>36.53562904335558414459228515625</LatitudeDegrees>
              <LongitudeDegrees>-5.39564824663102626800537109375</LongitudeDegrees>
            </Position>
            <AltitudeMeters>202.1999969482421875</AltitudeMeters>
            <DistanceMeters>1251.904568777</DistanceMeters>
          </Trackpoint>
          <Trackpoint>
            <Time>2019-01-04T09:29:17.000Z</Time>
            <Position>
              <LatitudeDegrees>36.53562719933688640594482421875</LatitudeDegrees>
              <LongitudeDegrees>-5.39566216059029102325439453125</LongitudeDegrees>
            </Position>
            <AltitudeMeters>202.600006103515625</AltitudeMeters>
            <DistanceMeters>1253.1723832772</DistanceMeters>
          </Trackpoint>
          <Trackpoint>
            <Time>2019-01-04T09:29:18.000Z</Time>
            <Position>
              <LatitudeDegrees>36.53562703169882297515869140625</LatitudeDegrees>
              <LongitudeDegrees>-5.39568110369145870208740234375</LongitudeDegrees>
            </Position>
            <AltitudeMeters>202.8000030517578125</AltitudeMeters>
            <DistanceMeters>1254.8669523402</DistanceMeters>
          </Trackpoint>
          <Trackpoint>
            <Time>2019-01-04T09:29:19.000Z</Time>
            <Position>
              <LatitudeDegrees>36.53562803752720355987548828125</LatitudeDegrees>
              <LongitudeDegrees>-5.3956977836787700653076171875</LongitudeDegrees>
            </Position>
            <AltitudeMeters>203.399993896484375</AltitudeMeters>
            <DistanceMeters>1256.3664486005</DistanceMeters>
          </Trackpoint>
          <Trackpoint>
            <Time>2019-01-04T09:29:20.000Z</Time>
            <Position>
              <LatitudeDegrees>36.5356328152120113372802734375</LatitudeDegrees>
              <LongitudeDegrees>-5.39571597240865230560302734375</LongitudeDegrees>
            </Position>
            <AltitudeMeters>203.600006103515625</AltitudeMeters>
            <DistanceMeters>1258.0769294591</DistanceMeters>
          </Trackpoint>
          <Trackpoint>
            <Time>2019-01-04T09:29:21.000Z</Time>
            <Position>
              <LatitudeDegrees>36.535639353096485137939453125</LatitudeDegrees>
              <LongitudeDegrees>-5.39573214948177337646484375</LongitudeDegrees>
            </Position>
            <AltitudeMeters>203.8000030517578125</AltitudeMeters>
            <DistanceMeters>1259.6979637725</DistanceMeters>
          </Trackpoint>
          <Trackpoint>
            <Time>2019-01-04T09:29:22.000Z</Time>
            <Position>
              <LatitudeDegrees>36.53564379550516605377197265625</LatitudeDegrees>
              <LongitudeDegrees>-5.395746566355228424072265625</LongitudeDegrees>
            </Position>
            <AltitudeMeters>204</AltitudeMeters>
            <DistanceMeters>1261.0815736186</DistanceMeters>
          </Trackpoint>
          <Trackpoint>
            <Time>2019-01-04T09:29:23.000Z</Time>
            <Position>
              <LatitudeDegrees>36.5356479026377201080322265625</LatitudeDegrees>
              <LongitudeDegrees>-5.3957601450383663177490234375</LongitudeDegrees>
            </Position>
            <AltitudeMeters>204</AltitudeMeters>
            <DistanceMeters>1262.3775652152</DistanceMeters>
          </Trackpoint>
          <Trackpoint>
            <Time>2019-01-04T09:29:24.000Z</Time>
            <Position>
              <LatitudeDegrees>36.5356522612273693084716796875</LatitudeDegrees>
              <LongitudeDegrees>-5.3957755677402019500732421875</LongitudeDegrees>
            </Position>
            <AltitudeMeters>204.1999969482421875</AltitudeMeters>
            <DistanceMeters>1263.8373933012</DistanceMeters>
          </Trackpoint>
          <Trackpoint>
            <Time>2019-01-04T09:29:25.000Z</Time>
            <Position>
              <LatitudeDegrees>36.53565687127411365509033203125</LatitudeDegrees>
              <LongitudeDegrees>-5.3958003781735897064208984375</LongitudeDegrees>
            </Position>
            <AltitudeMeters>204.600006103515625</AltitudeMeters>
            <DistanceMeters>1266.1160538629</DistanceMeters>
          </Trackpoint>
          <Trackpoint>
            <Time>2019-01-04T09:29:26.000Z</Time>
            <Position>
              <LatitudeDegrees>36.5356629900634288787841796875</LatitudeDegrees>
              <LongitudeDegrees>-5.39581722579896450042724609375</LongitudeDegrees>
            </Position>
            <AltitudeMeters>204.8000030517578125</AltitudeMeters>
            <DistanceMeters>1267.7674420929</DistanceMeters>
          </Trackpoint>
          <Trackpoint>
            <Time>2019-01-04T09:29:27.000Z</Time>
            <Position>
              <LatitudeDegrees>36.53566810302436351776123046875</LatitudeDegrees>
              <LongitudeDegrees>-5.395833738148212432861328125</LongitudeDegrees>
            </Position>
            <AltitudeMeters>205</AltitudeMeters>
            <DistanceMeters>1269.3461444393</DistanceMeters>
          </Trackpoint>
          <Trackpoint>
            <Time>2019-01-04T09:29:28.000Z</Time>
            <Position>
              <LatitudeDegrees>36.53567514382302761077880859375</LatitudeDegrees>
              <LongitudeDegrees>-5.39585142396390438079833984375</LongitudeDegrees>
            </Position>
            <AltitudeMeters>205.1999969482421875</AltitudeMeters>
            <DistanceMeters>1271.1137435029</DistanceMeters>
          </Trackpoint>
          <Trackpoint>
            <Time>2019-01-04T09:29:29.000Z</Time>
            <Position>
              <LatitudeDegrees>36.5356794185936450958251953125</LatitudeDegrees>
              <LongitudeDegrees>-5.3958654217422008514404296875</LongitudeDegrees>
            </Position>
            <AltitudeMeters>205.1999969482421875</AltitudeMeters>
            <DistanceMeters>1272.4542602735</DistanceMeters>
          </Trackpoint>
          <Trackpoint>
            <Time>2019-01-04T09:29:30.000Z</Time>
            <Position>
              <LatitudeDegrees>36.53568386100232601165771484375</LatitudeDegrees>
              <LongitudeDegrees>-5.39588310755789279937744140625</LongitudeDegrees>
            </Position>
            <AltitudeMeters>205.1999969482421875</AltitudeMeters>
            <DistanceMeters>1274.111107653</DistanceMeters>
          </Trackpoint>
          <Trackpoint>
            <Time>2019-01-04T09:29:31.000Z</Time>
            <Position>
              <LatitudeDegrees>36.5356884710490703582763671875</LatitudeDegrees>
              <LongitudeDegrees>-5.3959006257355213165283203125</LongitudeDegrees>
            </Position>
            <AltitudeMeters>205.399993896484375</AltitudeMeters>
            <DistanceMeters>1275.7570186266</DistanceMeters>
          </Trackpoint>
          <Trackpoint>
            <Time>2019-01-04T09:29:32.000Z</Time>
            <Position>
              <LatitudeDegrees>36.535691320896148681640625</LatitudeDegrees>
              <LongitudeDegrees>-5.39591395296156406402587890625</LongitudeDegrees>
            </Position>
            <AltitudeMeters>205.399993896484375</AltitudeMeters>
            <DistanceMeters>1276.9887056172</DistanceMeters>
          </Trackpoint>
          <Trackpoint>
            <Time>2019-01-04T09:29:33.000Z</Time>
            <Position>
              <LatitudeDegrees>36.53569475747644901275634765625</LatitudeDegrees>
              <LongitudeDegrees>-5.39593063294887542724609375</LongitudeDegrees>
            </Position>
            <AltitudeMeters>205.399993896484375</AltitudeMeters>
            <DistanceMeters>1278.5297799518</DistanceMeters>
          </Trackpoint>
          <Trackpoint>
            <Time>2019-01-04T09:29:34.000Z</Time>
            <Position>
              <LatitudeDegrees>36.5356978587806224822998046875</LatitudeDegrees>
              <LongitudeDegrees>-5.395941697061061859130859375</LongitudeDegrees>
            </Position>
            <AltitudeMeters>205.399993896484375</AltitudeMeters>
            <DistanceMeters>1279.5793843182</DistanceMeters>
          </Trackpoint>
          <Trackpoint>
            <Time>2019-01-04T09:29:35.000Z</Time>
            <Position>
              <LatitudeDegrees>36.5356955118477344512939453125</LatitudeDegrees>
              <LongitudeDegrees>-5.39595301263034343719482421875</LongitudeDegrees>
            </Position>
            <AltitudeMeters>205.600006103515625</AltitudeMeters>
            <DistanceMeters>1280.6289886847</DistanceMeters>
          </Trackpoint>
          <Trackpoint>
            <Time>2019-01-04T09:29:36.000Z</Time>
            <Position>
              <LatitudeDegrees>36.53569274581968784332275390625</LatitudeDegrees>
              <LongitudeDegrees>-5.39596793241798877716064453125</LongitudeDegrees>
            </Position>
            <AltitudeMeters>205.8000030517578125</AltitudeMeters>
            <DistanceMeters>1281.9994834495</DistanceMeters>
          </Trackpoint>
          <Trackpoint>
            <Time>2019-01-04T09:29:37.000Z</Time>
            <Position>
              <LatitudeDegrees>36.53569425456225872039794921875</LatitudeDegrees>
              <LongitudeDegrees>-5.39598402567207813262939453125</LongitudeDegrees>
            </Position>
            <AltitudeMeters>206.1999969482421875</AltitudeMeters>
            <DistanceMeters>1283.4468872408</DistanceMeters>
          </Trackpoint>
          <Trackpoint>
            <Time>2019-01-04T09:29:38.000Z</Time>
            <Position>
              <LatitudeDegrees>36.535695679485797882080078125</LatitudeDegrees>
              <LongitudeDegrees>-5.39599894545972347259521484375</LongitudeDegrees>
            </Position>
            <AltitudeMeters>206.1999969482421875</AltitudeMeters>
            <DistanceMeters>1284.7907679233</DistanceMeters>
          </Trackpoint>
          <Trackpoint>
            <Time>2019-01-04T09:29:39.000Z</Time>
            <Position>
              <LatitudeDegrees>36.5356971882283687591552734375</LatitudeDegrees>
              <LongitudeDegrees>-5.3960162959992885589599609375</LongitudeDegrees>
            </Position>
            <AltitudeMeters>206.399993896484375</AltitudeMeters>
            <DistanceMeters>1286.3522161741</DistanceMeters>
          </Trackpoint>
          <Trackpoint>
            <Time>2019-01-04T09:29:40.000Z</Time>
            <Position>
              <LatitudeDegrees>36.53569928370416164398193359375</LatitudeDegrees>
              <LongitudeDegrees>-5.39603146724402904510498046875</LongitudeDegrees>
            </Position>
            <AltitudeMeters>206.600006103515625</AltitudeMeters>
            <DistanceMeters>1287.7325589321</DistanceMeters>
          </Trackpoint>
          <Trackpoint>
            <Time>2019-01-04T09:29:41.000Z</Time>
            <Position>
              <LatitudeDegrees>36.53569978661835193634033203125</LatitudeDegrees>
              <LongitudeDegrees>-5.39604571647942066192626953125</LongitudeDegrees>
            </Position>
            <AltitudeMeters>206.600006103515625</AltitudeMeters>
            <DistanceMeters>1289.0110126217</DistanceMeters>
          </Trackpoint>
          <Trackpoint>
            <Time>2019-01-04T09:29:42.000Z</Time>
            <Position>
              <LatitudeDegrees>36.53570045717060565948486328125</LatitudeDegrees>
              <LongitudeDegrees>-5.39606248028576374053955078125</LongitudeDegrees>
            </Position>
            <AltitudeMeters>206.8000030517578125</AltitudeMeters>
            <DistanceMeters>1290.5135169016</DistanceMeters>
          </Trackpoint>
          <Trackpoint>
            <Time>2019-01-04T09:29:43.000Z</Time>
            <Position>
              <LatitudeDegrees>36.53569945134222507476806640625</LatitudeDegrees>
              <LongitudeDegrees>-5.3960763104259967803955078125</LongitudeDegrees>
            </Position>
            <AltitudeMeters>206.8000030517578125</AltitudeMeters>
            <DistanceMeters>1291.7525136713</DistanceMeters>
          </Trackpoint>
          <Trackpoint>
            <Time>2019-01-04T09:29:44.000Z</Time>
            <Position>
              <LatitudeDegrees>36.53569844551384449005126953125</LatitudeDegrees>
              <LongitudeDegrees>-5.3960920684039592742919921875</LongitudeDegrees>
            </Position>
            <AltitudeMeters>207</AltitudeMeters>
            <DistanceMeters>1293.16518734</DistanceMeters>
          </Trackpoint>
          <Trackpoint>
            <Time>2019-01-04T09:29:45.000Z</Time>
            <Position>
              <LatitudeDegrees>36.53570062480866909027099609375</LatitudeDegrees>
              <LongitudeDegrees>-5.396110005676746368408203125</LongitudeDegrees>
            </Position>
            <AltitudeMeters>207.1999969482421875</AltitudeMeters>
            <DistanceMeters>1294.7890045469</DistanceMeters>
          </Trackpoint>
          <Trackpoint>
            <Time>2019-01-04T09:29:46.000Z</Time>
            <Position>
              <LatitudeDegrees>36.5357008762657642364501953125</LatitudeDegrees>
              <LongitudeDegrees>-5.3961276076734066009521484375</LongitudeDegrees>
            </Position>
            <AltitudeMeters>207.399993896484375</AltitudeMeters>
            <DistanceMeters>1296.3591035467</DistanceMeters>
          </Trackpoint>
          <Trackpoint>
            <Time>2019-01-04T09:29:47.000Z</Time>
            <Position>
              <LatitudeDegrees>36.5356998704373836517333984375</LatitudeDegrees>
              <LongitudeDegrees>-5.39614923298358917236328125</LongitudeDegrees>
            </Position>
            <AltitudeMeters>207.399993896484375</AltitudeMeters>
            <DistanceMeters>1298.2949448946</DistanceMeters>
          </Trackpoint>
          <Trackpoint>
            <Time>2019-01-04T09:29:48.000Z</Time>
            <Position>
              <LatitudeDegrees>36.53570665977895259857177734375</LatitudeDegrees>
              <LongitudeDegrees>-5.3961698524653911590576171875</LongitudeDegrees>
            </Position>
            <AltitudeMeters>207.600006103515625</AltitudeMeters>
            <DistanceMeters>1300.2882420715</DistanceMeters>
          </Trackpoint>
          <Trackpoint>
            <Time>2019-01-04T09:29:49.000Z</Time>
            <Position>
              <LatitudeDegrees>36.535709090530872344970703125</LatitudeDegrees>
              <LongitudeDegrees>-5.39618670009076595306396484375</LongitudeDegrees>
            </Position>
            <AltitudeMeters>207.600006103515625</AltitudeMeters>
            <DistanceMeters>1301.8205018</DistanceMeters>
          </Trackpoint>
          <Trackpoint>
            <Time>2019-01-04T09:29:50.000Z</Time>
            <Position>
              <LatitudeDegrees>36.535716466605663299560546875</LatitudeDegrees>
              <LongitudeDegrees>-5.3962050564587116241455078125</LongitudeDegrees>
            </Position>
            <AltitudeMeters>207.8000030517578125</AltitudeMeters>
            <DistanceMeters>1303.6557724922</DistanceMeters>
          </Trackpoint>
          <Trackpoint>
            <Time>2019-01-04T09:29:51.000Z</Time>
            <Position>
              <LatitudeDegrees>36.53571906499564647674560546875</LatitudeDegrees>
              <LongitudeDegrees>-5.3962234966456890106201171875</LongitudeDegrees>
            </Position>
            <AltitudeMeters>208</AltitudeMeters>
            <DistanceMeters>1305.328890449</DistanceMeters>
          </Trackpoint>
          <Trackpoint>
            <Time>2019-01-04T09:29:52.000Z</Time>
            <Position>
              <LatitudeDegrees>36.535719819366931915283203125</LatitudeDegrees>
              <LongitudeDegrees>-5.396239422261714935302734375</LongitudeDegrees>
            </Position>
            <AltitudeMeters>208</AltitudeMeters>
            <DistanceMeters>1306.75745521</DistanceMeters>
          </Trackpoint>
          <Trackpoint>
            <Time>2019-01-04T09:29:53.000Z</Time>
            <Position>
              <LatitudeDegrees>36.5357209928333759307861328125</LatitudeDegrees>
              <LongitudeDegrees>-5.39625375531613826751708984375</LongitudeDegrees>
            </Position>
            <AltitudeMeters>208</AltitudeMeters>
            <DistanceMeters>1308.0464602782</DistanceMeters>
          </Trackpoint>
          <Trackpoint>
            <Time>2019-01-04T09:29:54.000Z</Time>
            <Position>
              <LatitudeDegrees>36.53571872971951961517333984375</LatitudeDegrees>
              <LongitudeDegrees>-5.3962667472660541534423828125</LongitudeDegrees>
            </Position>
            <AltitudeMeters>208</AltitudeMeters>
            <DistanceMeters>1309.2409275561</DistanceMeters>
          </Trackpoint>
          <Trackpoint>
            <Time>2019-01-04T09:29:55.000Z</Time>
            <Position>
              <LatitudeDegrees>36.535713113844394683837890625</LatitudeDegrees>
              <LongitudeDegrees>-5.3962840139865875244140625</LongitudeDegrees>
            </Position>
            <AltitudeMeters>208.1999969482421875</AltitudeMeters>
            <DistanceMeters>1310.908639625</DistanceMeters>
          </Trackpoint>
          <Trackpoint>
            <Time>2019-01-04T09:29:56.000Z</Time>
            <Position>
              <LatitudeDegrees>36.535705737769603729248046875</LatitudeDegrees>
              <LongitudeDegrees>-5.39630002342164516448974609375</LongitudeDegrees>
            </Position>
            <AltitudeMeters>208.1999969482421875</AltitudeMeters>
            <DistanceMeters>1312.5572915014</DistanceMeters>
          </Trackpoint>
          <Trackpoint>
            <Time>2019-01-04T09:29:57.000Z</Time>
            <Position>
              <LatitudeDegrees>36.53570146299898624420166015625</LatitudeDegrees>
              <LongitudeDegrees>-5.39631527848541736602783203125</LongitudeDegrees>
            </Position>
            <AltitudeMeters>208.1999969482421875</AltitudeMeters>
            <DistanceMeters>1314.0046952927</DistanceMeters>
          </Trackpoint>
          <Trackpoint>
            <Time>2019-01-04T09:29:58.000Z</Time>
            <Position>
              <LatitudeDegrees>36.5356948412954807281494140625</LatitudeDegrees>
              <LongitudeDegrees>-5.39633086882531642913818359375</LongitudeDegrees>
            </Position>
            <AltitudeMeters>208.1999969482421875</AltitudeMeters>
            <DistanceMeters>1315.5805350758</DistanceMeters>
          </Trackpoint>
          <Trackpoint>
            <Time>2019-01-04T09:29:59.000Z</Time>
            <Position>
              <LatitudeDegrees>36.535685621201992034912109375</LatitudeDegrees>
              <LongitudeDegrees>-5.3963455371558666229248046875</LongitudeDegrees>
            </Position>
            <AltitudeMeters>208.399993896484375</AltitudeMeters>
            <DistanceMeters>1317.2428236765</DistanceMeters>
          </Trackpoint>
          <Trackpoint>
            <Time>2019-01-04T09:30:00.000Z</Time>
            <Position>
              <LatitudeDegrees>36.53567665256559848785400390625</LatitudeDegrees>
              <LongitudeDegrees>-5.3963599540293216705322265625</LongitudeDegrees>
            </Position>
            <AltitudeMeters>208.399993896484375</AltitudeMeters>
            <DistanceMeters>1318.8721924115</DistanceMeters>
          </Trackpoint>
          <Trackpoint>
            <Time>2019-01-04T09:30:01.000Z</Time>
            <Position>
              <LatitudeDegrees>36.5356646664440631866455078125</LatitudeDegrees>
              <LongitudeDegrees>-5.3963716886937618255615234375</LongitudeDegrees>
            </Position>
            <AltitudeMeters>208.399993896484375</AltitudeMeters>
            <DistanceMeters>1320.5667614744</DistanceMeters>
          </Trackpoint>
          <Trackpoint>
            <Time>2019-01-04T09:30:02.000Z</Time>
            <Position>
              <LatitudeDegrees>36.53565217740833759307861328125</LatitudeDegrees>
              <LongitudeDegrees>-5.3963820822536945343017578125</LongitudeDegrees>
            </Position>
            <AltitudeMeters>208.399993896484375</AltitudeMeters>
            <DistanceMeters>1322.2371786742</DistanceMeters>
          </Trackpoint>
          <Trackpoint>
            <Time>2019-01-04T09:30:03.000Z</Time>
            <Position>
              <LatitudeDegrees>36.535639353096485137939453125</LatitudeDegrees>
              <LongitudeDegrees>-5.396390296518802642822265625</LongitudeDegrees>
            </Position>
            <AltitudeMeters>208.399993896484375</AltitudeMeters>
            <DistanceMeters>1323.8442262351</DistanceMeters>
          </Trackpoint>
          <Trackpoint>
            <Time>2019-01-04T09:30:04.000Z</Time>
            <Position>
              <LatitudeDegrees>36.53562719933688640594482421875</LatitudeDegrees>
              <LongitudeDegrees>-5.3963988460600376129150390625</LongitudeDegrees>
            </Position>
            <AltitudeMeters>208.399993896484375</AltitudeMeters>
            <DistanceMeters>1325.3998805948</DistanceMeters>
          </Trackpoint>
          <Trackpoint>
            <Time>2019-01-04T09:30:05.000Z</Time>
            <Position>
              <LatitudeDegrees>36.53561429120600223541259765625</LatitudeDegrees>
              <LongitudeDegrees>-5.3964062221348285675048828125</LongitudeDegrees>
            </Position>
            <AltitudeMeters>208.600006103515625</AltitudeMeters>
            <DistanceMeters>1326.9842925524</DistanceMeters>
          </Trackpoint>
          <Trackpoint>
            <Time>2019-01-04T09:30:06.000Z</Time>
            <Position>
              <LatitudeDegrees>36.53560289181768894195556640625</LatitudeDegrees>
              <LongitudeDegrees>-5.39640999399125576019287109375</LongitudeDegrees>
            </Position>
            <AltitudeMeters>208.8000030517578125</AltitudeMeters>
            <DistanceMeters>1328.3010213314</DistanceMeters>
          </Trackpoint>
          <Trackpoint>
            <Time>2019-01-04T09:30:07.000Z</Time>
            <Position>
              <LatitudeDegrees>36.53559031896293163299560546875</LatitudeDegrees>
              <LongitudeDegrees>-5.39641200564801692962646484375</LongitudeDegrees>
            </Position>
            <AltitudeMeters>209</AltitudeMeters>
            <DistanceMeters>1329.710495282</DistanceMeters>
          </Trackpoint>
          <Trackpoint>
            <Time>2019-01-04T09:30:08.000Z</Time>
            <Position>
              <LatitudeDegrees>36.53557799756526947021484375</LatitudeDegrees>
              <LongitudeDegrees>-5.39641519077122211456298828125</LongitudeDegrees>
            </Position>
            <AltitudeMeters>209.1999969482421875</AltitudeMeters>
            <DistanceMeters>1331.1070970549</DistanceMeters>
          </Trackpoint>
          <Trackpoint>
            <Time>2019-01-04T09:30:09.000Z</Time>
            <Position>
              <LatitudeDegrees>36.535567939281463623046875</LatitudeDegrees>
              <LongitudeDegrees>-5.39641519077122211456298828125</LongitudeDegrees>
            </Position>
            <AltitudeMeters>209.399993896484375</AltitudeMeters>
            <DistanceMeters>1332.2234081895</DistanceMeters>
          </Trackpoint>
          <Trackpoint>
            <Time>2019-01-04T09:30:10.000Z</Time>
            <Position>
              <LatitudeDegrees>36.53555545024573802947998046875</LatitudeDegrees>
              <LongitudeDegrees>-5.39641535840928554534912109375</LongitudeDegrees>
            </Position>
            <AltitudeMeters>209.399993896484375</AltitudeMeters>
            <DistanceMeters>1333.6135291767</DistanceMeters>
          </Trackpoint>
          <Trackpoint>
            <Time>2019-01-04T09:30:11.000Z</Time>
            <Position>
              <LatitudeDegrees>36.5355432964861392974853515625</LatitudeDegrees>
              <LongitudeDegrees>-5.3964169509708881378173828125</LongitudeDegrees>
            </Position>
            <AltitudeMeters>209.399993896484375</AltitudeMeters>
            <DistanceMeters>1334.9707821356</DistanceMeters>
          </Trackpoint>
          <Trackpoint>
            <Time>2019-01-04T09:30:12.000Z</Time>
            <Position>
              <LatitudeDegrees>36.53553131036460399627685546875</LatitudeDegrees>
              <LongitudeDegrees>-5.39641418494284152984619140625</LongitudeDegrees>
            </Position>
            <AltitudeMeters>209.399993896484375</AltitudeMeters>
            <DistanceMeters>1336.3247044074</DistanceMeters>
          </Trackpoint>
          <Trackpoint>
            <Time>2019-01-04T09:30:13.000Z</Time>
            <Position>
              <LatitudeDegrees>36.53551890514791011810302734375</LatitudeDegrees>
              <LongitudeDegrees>-5.39640630595386028289794921875</LongitudeDegrees>
            </Position>
            <AltitudeMeters>209.399993896484375</AltitudeMeters>
            <DistanceMeters>1337.8774537145</DistanceMeters>
          </Trackpoint>
          <Trackpoint>
            <Time>2019-01-04T09:30:14.000Z</Time>
            <Position>
              <LatitudeDegrees>36.535503230988979339599609375</LatitudeDegrees>
              <LongitudeDegrees>-5.3964032046496868133544921875</LongitudeDegrees>
            </Position>
            <AltitudeMeters>209.399993896484375</AltitudeMeters>
            <DistanceMeters>1339.6424965959</DistanceMeters>
          </Trackpoint>
          <Trackpoint>
            <Time>2019-01-04T09:30:15.000Z</Time>
            <Position>
              <LatitudeDegrees>36.53548738919198513031005859375</LatitudeDegrees>
              <LongitudeDegrees>-5.39640278555452823638916015625</LongitudeDegrees>
            </Position>
            <AltitudeMeters>209.600006103515625</AltitudeMeters>
            <DistanceMeters>1341.4049795878</DistanceMeters>
          </Trackpoint>
          <Trackpoint>
            <Time>2019-01-04T09:30:16.000Z</Time>
            <Position>
              <LatitudeDegrees>36.535471715033054351806640625</LatitudeDegrees>
              <LongitudeDegrees>-5.3963995166122913360595703125</LongitudeDegrees>
            </Position>
            <AltitudeMeters>209.600006103515625</AltitudeMeters>
            <DistanceMeters>1343.1725786514</DistanceMeters>
          </Trackpoint>
          <Trackpoint>
            <Time>2019-01-04T09:30:17.000Z</Time>
            <Position>
              <LatitudeDegrees>36.53545654378831386566162109375</LatitudeDegrees>
              <LongitudeDegrees>-5.39639658294618129730224609375</LongitudeDegrees>
            </Position>
            <AltitudeMeters>209.8000030517578125</AltitudeMeters>
            <DistanceMeters>1344.88305951</DistanceMeters>
          </Trackpoint>
          <Trackpoint>
            <Time>2019-01-04T09:30:18.000Z</Time>
            <Position>
              <LatitudeDegrees>36.53544212691485881805419921875</LatitudeDegrees>
              <LongitudeDegrees>-5.3963934816420078277587890625</LongitudeDegrees>
            </Position>
            <AltitudeMeters>210</AltitudeMeters>
            <DistanceMeters>1346.512428245</DistanceMeters>
          </Trackpoint>
          <Trackpoint>
            <Time>2019-01-04T09:30:19.000Z</Time>
            <Position>
              <LatitudeDegrees>36.5354271233081817626953125</LatitudeDegrees>
              <LongitudeDegrees>-5.3963911347091197967529296875</LongitudeDegrees>
            </Position>
            <AltitudeMeters>210</AltitudeMeters>
            <DistanceMeters>1348.1963059138</DistanceMeters>
          </Trackpoint>
          <Trackpoint>
            <Time>2019-01-04T09:30:20.000Z</Time>
            <Position>
              <LatitudeDegrees>36.53541429899632930755615234375</LatitudeDegrees>
              <LongitudeDegrees>-5.39638870395720005035400390625</LongitudeDegrees>
            </Position>
            <AltitudeMeters>210.1999969482421875</AltitudeMeters>
            <DistanceMeters>1349.6374573916</DistanceMeters>
          </Trackpoint>
          <Trackpoint>
            <Time>2019-01-04T09:30:21.000Z</Time>
            <Position>
              <LatitudeDegrees>36.53540038503706455230712890625</LatitudeDegrees>
              <LongitudeDegrees>-5.3963850997388362884521484375</LongitudeDegrees>
            </Position>
            <AltitudeMeters>210.1999969482421875</AltitudeMeters>
            <DistanceMeters>1351.2218693492</DistanceMeters>
          </Trackpoint>
          <Trackpoint>
            <Time>2019-01-04T09:30:22.000Z</Time>
            <Position>
              <LatitudeDegrees>36.53538445942103862762451171875</LatitudeDegrees>
              <LongitudeDegrees>-5.39638526737689971923828125</LongitudeDegrees>
            </Position>
            <AltitudeMeters>210.399993896484375</AltitudeMeters>
            <DistanceMeters>1352.9945697194</DistanceMeters>
          </Trackpoint>
          <Trackpoint>
            <Time>2019-01-04T09:30:23.000Z</Time>
            <Position>
              <LatitudeDegrees>36.53536920435726642608642578125</LatitudeDegrees>
              <LongitudeDegrees>-5.396385602653026580810546875</LongitudeDegrees>
            </Position>
            <AltitudeMeters>210.399993896484375</AltitudeMeters>
            <DistanceMeters>1354.6891387824</DistanceMeters>
          </Trackpoint>
          <Trackpoint>
            <Time>2019-01-04T09:30:24.000Z</Time>
            <Position>
              <LatitudeDegrees>36.5353555418550968170166015625</LatitudeDegrees>
              <LongitudeDegrees>-5.39638484828174114227294921875</LongitudeDegrees>
            </Position>
            <AltitudeMeters>210.399993896484375</AltitudeMeters>
            <DistanceMeters>1356.2154938271</DistanceMeters>
          </Trackpoint>
          <Trackpoint>
            <Time>2019-01-04T09:30:25.000Z</Time>
            <Position>
              <LatitudeDegrees>36.53534087352454662322998046875</LatitudeDegrees>
              <LongitudeDegrees>-5.39638551883399486541748046875</LongitudeDegrees>
            </Position>
            <AltitudeMeters>210.399993896484375</AltitudeMeters>
            <DistanceMeters>1357.8503952393</DistanceMeters>
          </Trackpoint>
          <Trackpoint>
            <Time>2019-01-04T09:30:26.000Z</Time>
            <Position>
              <LatitudeDegrees>36.535328216850757598876953125</LatitudeDegrees>
              <LongitudeDegrees>-5.39638853631913661956787109375</LongitudeDegrees>
            </Position>
            <AltitudeMeters>210.399993896484375</AltitudeMeters>
            <DistanceMeters>1359.2852671601</DistanceMeters>
          </Trackpoint>
          <Trackpoint>
            <Time>2019-01-04T09:30:27.000Z</Time>
            <Position>
              <LatitudeDegrees>36.53531539253890514373779296875</LatitudeDegrees>
              <LongitudeDegrees>-5.39639054797589778900146484375</LongitudeDegrees>
            </Position>
            <AltitudeMeters>210.399993896484375</AltitudeMeters>
            <DistanceMeters>1360.726418638</DistanceMeters>
          </Trackpoint>
          <Trackpoint>
            <Time>2019-01-04T09:30:28.000Z</Time>
            <Position>
              <LatitudeDegrees>36.53530315496027469635009765625</LatitudeDegrees>
              <LongitudeDegrees>-5.39639054797589778900146484375</LongitudeDegrees>
            </Position>
            <AltitudeMeters>210.399993896484375</AltitudeMeters>
            <DistanceMeters>1362.0869941305</DistanceMeters>
          </Trackpoint>
          <Trackpoint>
            <Time>2019-01-04T09:30:29.000Z</Time>
            <Position>
              <LatitudeDegrees>36.53528957627713680267333984375</LatitudeDegrees>
              <LongitudeDegrees>-5.3963867761194705963134765625</LongitudeDegrees>
            </Position>
            <AltitudeMeters>210.399993896484375</AltitudeMeters>
            <DistanceMeters>1363.6339169656</DistanceMeters>
          </Trackpoint>
          <Trackpoint>
            <Time>2019-01-04T09:30:30.000Z</Time>
            <Position>
              <LatitudeDegrees>36.53527566231787204742431640625</LatitudeDegrees>
              <LongitudeDegrees>-5.39638216607272624969482421875</LongitudeDegrees>
            </Position>
            <AltitudeMeters>210.399993896484375</AltitudeMeters>
            <DistanceMeters>1365.2353356211</DistanceMeters>
          </Trackpoint>
          <Trackpoint>
            <Time>2019-01-04T09:30:31.000Z</Time>
            <Position>
              <LatitudeDegrees>36.5352626703679561614990234375</LatitudeDegrees>
              <LongitudeDegrees>-5.396380908787250518798828125</LongitudeDegrees>
            </Position>
            <AltitudeMeters>210.399993896484375</AltitudeMeters>
            <DistanceMeters>1366.6827394123</DistanceMeters>
          </Trackpoint>
          <Trackpoint>
            <Time>2019-01-04T09:30:32.000Z</Time>
            <Position>
              <LatitudeDegrees>36.53524884022772312164306640625</LatitudeDegrees>
              <LongitudeDegrees>-5.39638149552047252655029296875</LongitudeDegrees>
            </Position>
            <AltitudeMeters>210.600006103515625</AltitudeMeters>
            <DistanceMeters>1368.2208811575</DistanceMeters>
          </Trackpoint>
          <Trackpoint>
            <Time>2019-01-04T09:30:33.000Z</Time>
            <Position>
              <LatitudeDegrees>36.53523609973490238189697265625</LatitudeDegrees>
              <LongitudeDegrees>-5.39637948386371135711669921875</LongitudeDegrees>
            </Position>
            <AltitudeMeters>210.8000030517578125</AltitudeMeters>
            <DistanceMeters>1369.6526029716</DistanceMeters>
          </Trackpoint>
          <Trackpoint>
            <Time>2019-01-04T09:30:34.000Z</Time>
            <Position>
              <LatitudeDegrees>36.53522201813757419586181640625</LatitudeDegrees>
              <LongitudeDegrees>-5.3963770531117916107177734375</LongitudeDegrees>
            </Position>
            <AltitudeMeters>211</AltitudeMeters>
            <DistanceMeters>1371.2370149292</DistanceMeters>
          </Trackpoint>
          <Trackpoint>
            <Time>2019-01-04T09:30:35.000Z</Time>
            <Position>
              <LatitudeDegrees>36.535208187997341156005859375</LatitudeDegrees>
              <LongitudeDegrees>-5.39637445472180843353271484375</LongitudeDegrees>
            </Position>
            <AltitudeMeters>211</AltitudeMeters>
            <DistanceMeters>1372.7926692889</DistanceMeters>
          </Trackpoint>
          <Trackpoint>
            <Time>2019-01-04T09:30:36.000Z</Time>
            <Position>
              <LatitudeDegrees>36.53519318439066410064697265625</LatitudeDegrees>
              <LongitudeDegrees>-5.39637076668441295623779296875</LongitudeDegrees>
            </Position>
            <AltitudeMeters>211</AltitudeMeters>
            <DistanceMeters>1374.4978627134</DistanceMeters>
          </Trackpoint>
          <Trackpoint>
            <Time>2019-01-04T09:30:37.000Z</Time>
            <Position>
              <LatitudeDegrees>36.53517826460301876068115234375</LatitudeDegrees>
              <LongitudeDegrees>-5.39636707864701747894287109375</LongitudeDegrees>
            </Position>
            <AltitudeMeters>211</AltitudeMeters>
            <DistanceMeters>1376.1924317764</DistanceMeters>
          </Trackpoint>
          <Trackpoint>
            <Time>2019-01-04T09:30:38.000Z</Time>
            <Position>
              <LatitudeDegrees>36.53516359627246856689453125</LatitudeDegrees>
              <LongitudeDegrees>-5.39636489935219287872314453125</LongitudeDegrees>
            </Position>
            <AltitudeMeters>211</AltitudeMeters>
            <DistanceMeters>1377.8383427501</DistanceMeters>
          </Trackpoint>
          <Trackpoint>
            <Time>2019-01-04T09:30:39.000Z</Time>
            <Position>
              <LatitudeDegrees>36.53514708392322063446044921875</LatitudeDegrees>
              <LongitudeDegrees>-5.3963629715144634246826171875</LongitudeDegrees>
            </Position>
            <AltitudeMeters>211</AltitudeMeters>
            <DistanceMeters>1379.6809791067</DistanceMeters>
          </Trackpoint>
          <Trackpoint>
            <Time>2019-01-04T09:30:40.000Z</Time>
            <Position>
              <LatitudeDegrees>36.53513015247881412506103515625</LatitudeDegrees>
              <LongitudeDegrees>-5.39636372588574886322021484375</LongitudeDegrees>
            </Position>
            <AltitudeMeters>211.1999969482421875</AltitudeMeters>
            <DistanceMeters>1381.5672055297</DistanceMeters>
          </Trackpoint>
          <Trackpoint>
            <Time>2019-01-04T09:30:41.000Z</Time>
            <Position>
              <LatitudeDegrees>36.5351154841482639312744140625</LatitudeDegrees>
              <LongitudeDegrees>-5.396362803876399993896484375</LongitudeDegrees>
            </Position>
            <AltitudeMeters>211.1999969482421875</AltitudeMeters>
            <DistanceMeters>1383.2021069419</DistanceMeters>
          </Trackpoint>
          <Trackpoint>
            <Time>2019-01-04T09:30:42.000Z</Time>
            <Position>
              <LatitudeDegrees>36.535101234912872314453125</LatitudeDegrees>
              <LongitudeDegrees>-5.39636221714317798614501953125</LongitudeDegrees>
            </Position>
            <AltitudeMeters>211.399993896484375</AltitudeMeters>
            <DistanceMeters>1384.7893660032</DistanceMeters>
          </Trackpoint>
          <Trackpoint>
            <Time>2019-01-04T09:30:43.000Z</Time>
            <Position>
              <LatitudeDegrees>36.53508656658232212066650390625</LatitudeDegrees>
              <LongitudeDegrees>-5.39636070840060710906982421875</LongitudeDegrees>
            </Position>
            <AltitudeMeters>211.600006103515625</AltitudeMeters>
            <DistanceMeters>1386.4297814324</DistanceMeters>
          </Trackpoint>
          <Trackpoint>
            <Time>2019-01-04T09:30:44.000Z</Time>
            <Position>
              <LatitudeDegrees>36.53507198207080364227294921875</LatitudeDegrees>
              <LongitudeDegrees>-5.39636137895286083221435546875</LongitudeDegrees>
            </Position>
            <AltitudeMeters>211.8000030517578125</AltitudeMeters>
            <DistanceMeters>1388.0563767718</DistanceMeters>
          </Trackpoint>
          <Trackpoint>
            <Time>2019-01-04T09:30:45.000Z</Time>
            <Position>
              <LatitudeDegrees>36.53505924157798290252685546875</LatitudeDegrees>
              <LongitudeDegrees>-5.39635819382965564727783203125</LongitudeDegrees>
            </Position>
            <AltitudeMeters>212</AltitudeMeters>
            <DistanceMeters>1389.5037805631</DistanceMeters>
          </Trackpoint>
          <Trackpoint>
            <Time>2019-01-04T09:30:46.000Z</Time>
            <Position>
              <LatitudeDegrees>36.5350467525422573089599609375</LatitudeDegrees>
              <LongitudeDegrees>-5.396355427801609039306640625</LongitudeDegrees>
            </Position>
            <AltitudeMeters>212</AltitudeMeters>
            <DistanceMeters>1390.9164542317</DistanceMeters>
          </Trackpoint>
          <Trackpoint>
            <Time>2019-01-04T09:30:47.000Z</Time>
            <Position>
              <LatitudeDegrees>36.53503309004008769989013671875</LatitudeDegrees>
              <LongitudeDegrees>-5.39635601453483104705810546875</LongitudeDegrees>
            </Position>
            <AltitudeMeters>212.1999969482421875</AltitudeMeters>
            <DistanceMeters>1392.4368816617</DistanceMeters>
          </Trackpoint>
          <Trackpoint>
            <Time>2019-01-04T09:30:48.000Z</Time>
            <Position>
              <LatitudeDegrees>36.53502143919467926025390625</LatitudeDegrees>
              <LongitudeDegrees>-5.39635584689676761627197265625</LongitudeDegrees>
            </Position>
            <AltitudeMeters>212.399993896484375</AltitudeMeters>
            <DistanceMeters>1393.7328732583</DistanceMeters>
          </Trackpoint>
          <Trackpoint>
            <Time>2019-01-04T09:30:49.000Z</Time>
            <Position>
              <LatitudeDegrees>36.535010375082492828369140625</LatitudeDegrees>
              <LongitudeDegrees>-5.39635634981095790863037109375</LongitudeDegrees>
            </Position>
            <AltitudeMeters>212.399993896484375</AltitudeMeters>
            <DistanceMeters>1394.9645602488</DistanceMeters>
          </Trackpoint>
          <Trackpoint>
            <Time>2019-01-04T09:30:50.000Z</Time>
            <Position>
              <LatitudeDegrees>36.53499822132289409637451171875</LatitudeDegrees>
              <LongitudeDegrees>-5.3963545896112918853759765625</LongitudeDegrees>
            </Position>
            <AltitudeMeters>212.399993896484375</AltitudeMeters>
            <DistanceMeters>1396.3251357414</DistanceMeters>
          </Trackpoint>
          <Trackpoint>
            <Time>2019-01-04T09:30:51.000Z</Time>
            <Position>
              <LatitudeDegrees>36.5349890850484371185302734375</LatitudeDegrees>
              <LongitudeDegrees>-5.39635567925870418548583984375</LongitudeDegrees>
            </Position>
            <AltitudeMeters>212.600006103515625</AltitudeMeters>
            <DistanceMeters>1397.3397434067</DistanceMeters>
          </Trackpoint>
          <Trackpoint>
            <Time>2019-01-04T09:30:52.000Z</Time>
            <Position>
              <LatitudeDegrees>36.53497793711721897125244140625</LatitudeDegrees>
              <LongitudeDegrees>-5.3963564336299896240234375</LongitudeDegrees>
            </Position>
            <AltitudeMeters>212.8000030517578125</AltitudeMeters>
            <DistanceMeters>1398.5823789414</DistanceMeters>
          </Trackpoint>
          <Trackpoint>
            <Time>2019-01-04T09:30:53.000Z</Time>
            <Position>
              <LatitudeDegrees>36.53496569953858852386474609375</LatitudeDegrees>
              <LongitudeDegrees>-5.39635802619159221649169921875</LongitudeDegrees>
            </Position>
            <AltitudeMeters>212.8000030517578125</AltitudeMeters>
            <DistanceMeters>1399.9495752784</DistanceMeters>
          </Trackpoint>
          <Trackpoint>
            <Time>2019-01-04T09:30:54.000Z</Time>
            <Position>
              <LatitudeDegrees>36.53495446778833866119384765625</LatitudeDegrees>
              <LongitudeDegrees>-5.3963564336299896240234375</LongitudeDegrees>
            </Position>
            <AltitudeMeters>213</AltitudeMeters>
            <DistanceMeters>1401.206660549</DistanceMeters>
          </Trackpoint>
          <Trackpoint>
            <Time>2019-01-04T09:30:55.000Z</Time>
            <Position>
              <LatitudeDegrees>36.5349443256855010986328125</LatitudeDegrees>
              <LongitudeDegrees>-5.39635433815419673919677734375</LongitudeDegrees>
            </Position>
            <AltitudeMeters>213</AltitudeMeters>
            <DistanceMeters>1402.3548727075</DistanceMeters>
          </Trackpoint>
          <Trackpoint>
            <Time>2019-01-04T09:30:56.000Z</Time>
            <Position>
              <LatitudeDegrees>36.5349327586591243743896484375</LatitudeDegrees>
              <LongitudeDegrees>-5.3963545896112918853759765625</LongitudeDegrees>
            </Position>
            <AltitudeMeters>213.1999969482421875</AltitudeMeters>
            <DistanceMeters>1403.6438777756</DistanceMeters>
          </Trackpoint>
          <Trackpoint>
            <Time>2019-01-04T09:30:57.000Z</Time>
            <Position>
              <LatitudeDegrees>36.5349200181663036346435546875</LatitudeDegrees>
              <LongitudeDegrees>-5.39635685272514820098876953125</LongitudeDegrees>
            </Position>
            <AltitudeMeters>213.1999969482421875</AltitudeMeters>
            <DistanceMeters>1405.0755995896</DistanceMeters>
          </Trackpoint>
          <Trackpoint>
            <Time>2019-01-04T09:30:58.000Z</Time>
            <Position>
              <LatitudeDegrees>36.53490736149251461029052734375</LatitudeDegrees>
              <LongitudeDegrees>-5.39635903201997280120849609375</LongitudeDegrees>
            </Position>
            <AltitudeMeters>213.1999969482421875</AltitudeMeters>
            <DistanceMeters>1406.4978292207</DistanceMeters>
          </Trackpoint>
          <Trackpoint>
            <Time>2019-01-04T09:30:59.000Z</Time>
            <Position>
              <LatitudeDegrees>36.5348952077329158782958984375</LatitudeDegrees>
              <LongitudeDegrees>-5.39635953493416309356689453125</LongitudeDegrees>
            </Position>
            <AltitudeMeters>213.399993896484375</AltitudeMeters>
            <DistanceMeters>1407.8484125916</DistanceMeters>
          </Trackpoint>
          <Trackpoint>
            <Time>2019-01-04T09:31:00.000Z</Time>
            <Position>
              <LatitudeDegrees>36.53488188050687313079833984375</LatitudeDegrees>
              <LongitudeDegrees>-5.39635987021028995513916015625</LongitudeDegrees>
            </Position>
            <AltitudeMeters>213.600006103515625</AltitudeMeters>
            <DistanceMeters>1409.3327773218</DistanceMeters>
          </Trackpoint>
          <Trackpoint>
            <Time>2019-01-04T09:31:01.000Z</Time>
            <Position>
              <LatitudeDegrees>36.5348680503666400909423828125</LatitudeDegrees>
              <LongitudeDegrees>-5.3963629715144634246826171875</LongitudeDegrees>
            </Position>
            <AltitudeMeters>213.600006103515625</AltitudeMeters>
            <DistanceMeters>1410.8942255726</DistanceMeters>
          </Trackpoint>
          <Trackpoint>
            <Time>2019-01-04T09:31:02.000Z</Time>
            <Position>
              <LatitudeDegrees>36.53485514223575592041015625</LatitudeDegrees>
              <LongitudeDegrees>-5.3963683359324932098388671875</LongitudeDegrees>
            </Position>
            <AltitudeMeters>213.600006103515625</AltitudeMeters>
            <DistanceMeters>1412.4057179941</DistanceMeters>
          </Trackpoint>
          <Trackpoint>
            <Time>2019-01-04T09:31:03.000Z</Time>
            <Position>
              <LatitudeDegrees>36.53484198264777660369873046875</LatitudeDegrees>
              <LongitudeDegrees>-5.3963710181415081024169921875</LongitudeDegrees>
            </Position>
            <AltitudeMeters>213.8000030517578125</AltitudeMeters>
            <DistanceMeters>1413.8900827243</DistanceMeters>
          </Trackpoint>
          <Trackpoint>
            <Time>2019-01-04T09:31:04.000Z</Time>
            <Position>
              <LatitudeDegrees>36.53482840396463871002197265625</LatitudeDegrees>
              <LongitudeDegrees>-5.39637386798858642578125</LongitudeDegrees>
            </Position>
            <AltitudeMeters>213.8000030517578125</AltitudeMeters>
            <DistanceMeters>1415.4223424528</DistanceMeters>
          </Trackpoint>
          <Trackpoint>
            <Time>2019-01-04T09:31:05.000Z</Time>
            <Position>
              <LatitudeDegrees>36.5348154120147228240966796875</LatitudeDegrees>
              <LongitudeDegrees>-5.396374873816967010498046875</LongitudeDegrees>
            </Position>
            <AltitudeMeters>213.8000030517578125</AltitudeMeters>
            <DistanceMeters>1416.8728622946</DistanceMeters>
          </Trackpoint>
          <Trackpoint>
            <Time>2019-01-04T09:31:06.000Z</Time>
            <Position>
              <LatitudeDegrees>36.5348016656935214996337890625</LatitudeDegrees>
              <LongitudeDegrees>-5.396376550197601318359375</LongitudeDegrees>
            </Position>
            <AltitudeMeters>213.8000030517578125</AltitudeMeters>
            <DistanceMeters>1418.4110040398</DistanceMeters>
          </Trackpoint>
          <Trackpoint>
            <Time>2019-01-04T09:31:07.000Z</Time>
            <Position>
              <LatitudeDegrees>36.53478900901973247528076171875</LatitudeDegrees>
              <LongitudeDegrees>-5.3963777236640453338623046875</LongitudeDegrees>
            </Position>
            <AltitudeMeters>214</AltitudeMeters>
            <DistanceMeters>1419.8204779904</DistanceMeters>
          </Trackpoint>
          <Trackpoint>
            <Time>2019-01-04T09:31:08.000Z</Time>
            <Position>
              <LatitudeDegrees>36.53477878309786319732666015625</LatitudeDegrees>
              <LongitudeDegrees>-5.39638015441596508026123046875</LongitudeDegrees>
            </Position>
            <AltitudeMeters>214.1999969482421875</AltitudeMeters>
            <DistanceMeters>1420.972615672</DistanceMeters>
          </Trackpoint>
          <Trackpoint>
            <Time>2019-01-04T09:31:09.000Z</Time>
            <Position>
              <LatitudeDegrees>36.5347657911479473114013671875</LatitudeDegrees>
              <LongitudeDegrees>-5.39638166315853595733642578125</LongitudeDegrees>
            </Position>
            <AltitudeMeters>214.399993896484375</AltitudeMeters>
            <DistanceMeters>1422.4262448847</DistanceMeters>
          </Trackpoint>
          <Trackpoint>
            <Time>2019-01-04T09:31:10.000Z</Time>
            <Position>
              <LatitudeDegrees>36.5347520448267459869384765625</LatitudeDegrees>
              <LongitudeDegrees>-5.39638116024434566497802734375</LongitudeDegrees>
            </Position>
            <AltitudeMeters>214.399993896484375</AltitudeMeters>
            <DistanceMeters>1423.9585046131</DistanceMeters>
          </Trackpoint>
          <Trackpoint>
            <Time>2019-01-04T09:31:11.000Z</Time>
            <Position>
              <LatitudeDegrees>36.534738130867481231689453125</LatitudeDegrees>
              <LongitudeDegrees>-5.39638367481529712677001953125</LongitudeDegrees>
            </Position>
            <AltitudeMeters>214.600006103515625</AltitudeMeters>
            <DistanceMeters>1425.5257253355</DistanceMeters>
          </Trackpoint>
          <Trackpoint>
            <Time>2019-01-04T09:31:12.000Z</Time>
            <Position>
              <LatitudeDegrees>36.53472580946981906890869140625</LatitudeDegrees>
              <LongitudeDegrees>-5.39638317190110683441162109375</LongitudeDegrees>
            </Position>
            <AltitudeMeters>214.8000030517578125</AltitudeMeters>
            <DistanceMeters>1426.8995106087</DistanceMeters>
          </Trackpoint>
          <Trackpoint>
            <Time>2019-01-04T09:31:13.000Z</Time>
            <Position>
              <LatitudeDegrees>36.53471290133893489837646484375</LatitudeDegrees>
              <LongitudeDegrees>-5.39638183079659938812255859375</LongitudeDegrees>
            </Position>
            <AltitudeMeters>214.8000030517578125</AltitudeMeters>
            <DistanceMeters>1428.3406620865</DistanceMeters>
          </Trackpoint>
          <Trackpoint>
            <Time>2019-01-04T09:31:14.000Z</Time>
            <Position>
              <LatitudeDegrees>36.53469865210354328155517578125</LatitudeDegrees>
              <LongitudeDegrees>-5.396381914615631103515625</LongitudeDegrees>
            </Position>
            <AltitudeMeters>214.8000030517578125</AltitudeMeters>
            <DistanceMeters>1429.9279211479</DistanceMeters>
          </Trackpoint>
          <Trackpoint>
            <Time>2019-01-04T09:31:15.000Z</Time>
            <Position>
              <LatitudeDegrees>36.53468540869653224945068359375</LatitudeDegrees>
              <LongitudeDegrees>-5.396381579339504241943359375</LongitudeDegrees>
            </Position>
            <AltitudeMeters>214.8000030517578125</AltitudeMeters>
            <DistanceMeters>1431.4031324626</DistanceMeters>
          </Trackpoint>
          <Trackpoint>
            <Time>2019-01-04T09:31:16.000Z</Time>
            <Position>
              <LatitudeDegrees>36.53467216528952121734619140625</LatitudeDegrees>
              <LongitudeDegrees>-5.3963820822536945343017578125</LongitudeDegrees>
            </Position>
            <AltitudeMeters>214.8000030517578125</AltitudeMeters>
            <DistanceMeters>1432.8783437773</DistanceMeters>
          </Trackpoint>
          <Trackpoint>
            <Time>2019-01-04T09:31:17.000Z</Time>
            <Position>
              <LatitudeDegrees>36.5346608497202396392822265625</LatitudeDegrees>
              <LongitudeDegrees>-5.3963832557201385498046875</LongitudeDegrees>
            </Position>
            <AltitudeMeters>215</AltitudeMeters>
            <DistanceMeters>1434.1425919849</DistanceMeters>
          </Trackpoint>
          <Trackpoint>
            <Time>2019-01-04T09:31:18.000Z</Time>
            <Position>
              <LatitudeDegrees>36.5346464328467845916748046875</LatitudeDegrees>
              <LongitudeDegrees>-5.3963817469775676727294921875</LongitudeDegrees>
            </Position>
            <AltitudeMeters>215.1999969482421875</AltitudeMeters>
            <DistanceMeters>1435.7552488039</DistanceMeters>
          </Trackpoint>
          <Trackpoint>
            <Time>2019-01-04T09:31:19.000Z</Time>
            <Position>
              <LatitudeDegrees>36.5346313454210758209228515625</LatitudeDegrees>
              <LongitudeDegrees>-5.396381579339504241943359375</LongitudeDegrees>
            </Position>
            <AltitudeMeters>215.399993896484375</AltitudeMeters>
            <DistanceMeters>1437.4337552384</DistanceMeters>
          </Trackpoint>
          <Trackpoint>
            <Time>2019-01-04T09:31:20.000Z</Time>
            <Position>
              <LatitudeDegrees>36.53461718000471591949462890625</LatitudeDegrees>
              <LongitudeDegrees>-5.3963797353208065032958984375</LongitudeDegrees>
            </Position>
            <AltitudeMeters>215.600006103515625</AltitudeMeters>
            <DistanceMeters>1439.018167196</DistanceMeters>
          </Trackpoint>
          <Trackpoint>
            <Time>2019-01-04T09:31:21.000Z</Time>
            <Position>
              <LatitudeDegrees>36.53460175730288028717041015625</LatitudeDegrees>
              <LongitudeDegrees>-5.396377556025981903076171875</LongitudeDegrees>
            </Position>
            <AltitudeMeters>215.600006103515625</AltitudeMeters>
            <DistanceMeters>1440.7470267342</DistanceMeters>
          </Trackpoint>
          <Trackpoint>
            <Time>2019-01-04T09:31:22.000Z</Time>
            <Position>
              <LatitudeDegrees>36.5345887653529644012451171875</LatitudeDegrees>
              <LongitudeDegrees>-5.3963753767311573028564453125</LongitudeDegrees>
            </Position>
            <AltitudeMeters>215.600006103515625</AltitudeMeters>
            <DistanceMeters>1442.209944407</DistanceMeters>
          </Trackpoint>
          <Trackpoint>
            <Time>2019-01-04T09:31:23.000Z</Time>
            <Position>
              <LatitudeDegrees>36.5345770306885242462158203125</LatitudeDegrees>
              <LongitudeDegrees>-5.3963713534176349639892578125</LongitudeDegrees>
            </Position>
            <AltitudeMeters>215.600006103515625</AltitudeMeters>
            <DistanceMeters>1443.5671973659</DistanceMeters>
          </Trackpoint>
          <Trackpoint>
            <Time>2019-01-04T09:31:24.000Z</Time>
            <Position>
              <LatitudeDegrees>36.53456546366214752197265625</LatitudeDegrees>
              <LongitudeDegrees>-5.39636858738958835601806640625</LongitudeDegrees>
            </Position>
            <AltitudeMeters>215.600006103515625</AltitudeMeters>
            <DistanceMeters>1444.8770502296</DistanceMeters>
          </Trackpoint>
          <Trackpoint>
            <Time>2019-01-04T09:31:25.000Z</Time>
            <Position>
              <LatitudeDegrees>36.5345555730164051055908203125</LatitudeDegrees>
              <LongitudeDegrees>-5.396360456943511962890625</LongitudeDegrees>
            </Position>
            <AltitudeMeters>215.8000030517578125</AltitudeMeters>
            <DistanceMeters>1446.1972035364</DistanceMeters>
          </Trackpoint>
          <Trackpoint>
            <Time>2019-01-04T09:31:26.000Z</Time>
            <Position>
              <LatitudeDegrees>36.5345471911132335662841796875</LatitudeDegrees>
              <LongitudeDegrees>-5.39635014720261096954345703125</LongitudeDegrees>
            </Position>
            <AltitudeMeters>215.8000030517578125</AltitudeMeters>
            <DistanceMeters>1447.5070564001</DistanceMeters>
          </Trackpoint>
          <Trackpoint>
            <Time>2019-01-04T09:31:27.000Z</Time>
            <Position>
              <LatitudeDegrees>36.53453755192458629608154296875</LatitudeDegrees>
              <LongitudeDegrees>-5.3963378258049488067626953125</LongitudeDegrees>
            </Position>
            <AltitudeMeters>215.8000030517578125</AltitudeMeters>
            <DistanceMeters>1449.042259954</DistanceMeters>
          </Trackpoint>
          <Trackpoint>
            <Time>2019-01-04T09:31:28.000Z</Time>
            <Position>
              <LatitudeDegrees>36.53452581726014614105224609375</LatitudeDegrees>
              <LongitudeDegrees>-5.39632491767406463623046875</LongitudeDegrees>
            </Position>
            <AltitudeMeters>215.8000030517578125</AltitudeMeters>
            <DistanceMeters>1450.7867185409</DistanceMeters>
          </Trackpoint>
          <Trackpoint>
            <Time>2019-01-04T09:31:29.000Z</Time>
            <Position>
              <LatitudeDegrees>36.534516848623752593994140625</LatitudeDegrees>
              <LongitudeDegrees>-5.39631226100027561187744140625</LongitudeDegrees>
            </Position>
            <AltitudeMeters>215.8000030517578125</AltitudeMeters>
            <DistanceMeters>1452.2952208657</DistanceMeters>
          </Trackpoint>
          <Trackpoint>
            <Time>2019-01-04T09:31:30.000Z</Time>
            <Position>
              <LatitudeDegrees>36.53450913727283477783203125</LatitudeDegrees>
              <LongitudeDegrees>-5.39630211889743804931640625</LongitudeDegrees>
            </Position>
            <AltitudeMeters>216</AltitudeMeters>
            <DistanceMeters>1453.54510215</DistanceMeters>
          </Trackpoint>
          <Trackpoint>
            <Time>2019-01-04T09:31:31.000Z</Time>
            <Position>
              <LatitudeDegrees>36.53450033627450466156005859375</LatitudeDegrees>
              <LongitudeDegrees>-5.39629147388041019439697265625</LongitudeDegrees>
            </Position>
            <AltitudeMeters>216</AltitudeMeters>
            <DistanceMeters>1454.9089920823</DistanceMeters>
          </Trackpoint>
          <Trackpoint>
            <Time>2019-01-04T09:31:32.000Z</Time>
            <Position>
              <LatitudeDegrees>36.53449296019971370697021484375</LatitudeDegrees>
              <LongitudeDegrees>-5.39627957157790660858154296875</LongitudeDegrees>
            </Position>
            <AltitudeMeters>216</AltitudeMeters>
            <DistanceMeters>1456.2528727648</DistanceMeters>
          </Trackpoint>
          <Trackpoint>
            <Time>2019-01-04T09:31:33.000Z</Time>
            <Position>
              <LatitudeDegrees>36.53448860161006450653076171875</LatitudeDegrees>
              <LongitudeDegrees>-5.3962664119899272918701171875</LongitudeDegrees>
            </Position>
            <AltitudeMeters>216</AltitudeMeters>
            <DistanceMeters>1457.5313264544</DistanceMeters>
          </Trackpoint>
          <Trackpoint>
            <Time>2019-01-04T09:31:34.000Z</Time>
            <Position>
              <LatitudeDegrees>36.5344883501529693603515625</LatitudeDegrees>
              <LongitudeDegrees>-5.39625258184969425201416015625</LongitudeDegrees>
            </Position>
            <AltitudeMeters>216</AltitudeMeters>
            <DistanceMeters>1458.7703232241</DistanceMeters>
          </Trackpoint>
          <Trackpoint>
            <Time>2019-01-04T09:31:35.000Z</Time>
            <Position>
              <LatitudeDegrees>36.53448767960071563720703125</LatitudeDegrees>
              <LongitudeDegrees>-5.39623665623366832733154296875</LongitudeDegrees>
            </Position>
            <AltitudeMeters>216.1999969482421875</AltitudeMeters>
            <DistanceMeters>1460.1925528552</DistanceMeters>
          </Trackpoint>
          <Trackpoint>
            <Time>2019-01-04T09:31:36.000Z</Time>
            <Position>
              <LatitudeDegrees>36.5344888530671596527099609375</LatitudeDegrees>
              <LongitudeDegrees>-5.3962223231792449951171875</LongitudeDegrees>
            </Position>
            <AltitudeMeters>216</AltitudeMeters>
            <DistanceMeters>1461.4745333202</DistanceMeters>
          </Trackpoint>
          <Trackpoint>
            <Time>2019-01-04T09:31:37.000Z</Time>
            <Position>
              <LatitudeDegrees>36.534493379294872283935546875</LatitudeDegrees>
              <LongitudeDegrees>-5.39620958268642425537109375</LongitudeDegrees>
            </Position>
            <AltitudeMeters>216</AltitudeMeters>
            <DistanceMeters>1462.7207969955</DistanceMeters>
          </Trackpoint>
          <Trackpoint>
            <Time>2019-01-04T09:31:38.000Z</Time>
            <Position>
              <LatitudeDegrees>36.53449681587517261505126953125</LatitudeDegrees>
              <LongitudeDegrees>-5.39619457907974720001220703125</LongitudeDegrees>
            </Position>
            <AltitudeMeters>216</AltitudeMeters>
            <DistanceMeters>1464.1173987684</DistanceMeters>
          </Trackpoint>
          <Trackpoint>
            <Time>2019-01-04T09:31:39.000Z</Time>
            <Position>
              <LatitudeDegrees>36.53449798934161663055419921875</LatitudeDegrees>
              <LongitudeDegrees>-5.3961782343685626983642578125</LongitudeDegrees>
            </Position>
            <AltitudeMeters>215.8000030517578125</AltitudeMeters>
            <DistanceMeters>1465.5803164411</DistanceMeters>
          </Trackpoint>
          <Trackpoint>
            <Time>2019-01-04T09:31:40.000Z</Time>
            <Position>
              <LatitudeDegrees>36.5344999171793460845947265625</LatitudeDegrees>
              <LongitudeDegrees>-5.396161973476409912109375</LongitudeDegrees>
            </Position>
            <AltitudeMeters>215.8000030517578125</AltitudeMeters>
            <DistanceMeters>1467.0493937944</DistanceMeters>
          </Trackpoint>
          <Trackpoint>
            <Time>2019-01-04T09:31:41.000Z</Time>
            <Position>
              <LatitudeDegrees>36.53450016863644123077392578125</LatitudeDegrees>
              <LongitudeDegrees>-5.39614646695554256439208984375</LongitudeDegrees>
            </Position>
            <AltitudeMeters>215.8000030517578125</AltitudeMeters>
            <DistanceMeters>1468.4330036405</DistanceMeters>
          </Trackpoint>
          <Trackpoint>
            <Time>2019-01-04T09:31:42.000Z</Time>
            <Position>
              <LatitudeDegrees>36.5345017611980438232421875</LatitudeDegrees>
              <LongitudeDegrees>-5.3961292840540409088134765625</LongitudeDegrees>
            </Position>
            <AltitudeMeters>216</AltitudeMeters>
            <DistanceMeters>1469.9770049945</DistanceMeters>
          </Trackpoint>
          <Trackpoint>
            <Time>2019-01-04T09:31:43.000Z</Time>
            <Position>
              <LatitudeDegrees>36.53450402431190013885498046875</LatitudeDegrees>
              <LongitudeDegrees>-5.39611310698091983795166015625</LongitudeDegrees>
            </Position>
            <AltitudeMeters>216</AltitudeMeters>
            <DistanceMeters>1471.4430057427</DistanceMeters>
          </Trackpoint>
          <Trackpoint>
            <Time>2019-01-04T09:31:44.000Z</Time>
            <Position>
              <LatitudeDegrees>36.5345066227018833160400390625</LatitudeDegrees>
              <LongitudeDegrees>-5.39609634317457675933837890625</LongitudeDegrees>
            </Position>
            <AltitudeMeters>216</AltitudeMeters>
            <DistanceMeters>1472.9693607874</DistanceMeters>
          </Trackpoint>
          <Trackpoint>
            <Time>2019-01-04T09:31:45.000Z</Time>
            <Position>
              <LatitudeDegrees>36.53450938872992992401123046875</LatitudeDegrees>
              <LongitudeDegrees>-5.39608108811080455780029296875</LongitudeDegrees>
            </Position>
            <AltitudeMeters>216</AltitudeMeters>
            <DistanceMeters>1474.3659625603</DistanceMeters>
          </Trackpoint>
          <Trackpoint>
            <Time>2019-01-04T09:31:46.000Z</Time>
            <Position>
              <LatitudeDegrees>36.53451844118535518646240234375</LatitudeDegrees>
              <LongitudeDegrees>-5.39607287384569644927978515625</LongitudeDegrees>
            </Position>
            <AltitudeMeters>216</AltitudeMeters>
            <DistanceMeters>1475.6158438445</DistanceMeters>
          </Trackpoint>
          <Trackpoint>
            <Time>2019-01-04T09:31:47.000Z</Time>
            <Position>
              <LatitudeDegrees>36.534522213041782379150390625</LatitudeDegrees>
              <LongitudeDegrees>-5.3960598818957805633544921875</LongitudeDegrees>
            </Position>
            <AltitudeMeters>215.8000030517578125</AltitudeMeters>
            <DistanceMeters>1476.8548406143</DistanceMeters>
          </Trackpoint>
          <Trackpoint>
            <Time>2019-01-04T09:31:48.000Z</Time>
            <Position>
              <LatitudeDegrees>36.53452657163143157958984375</LatitudeDegrees>
              <LongitudeDegrees>-5.39604655466973781585693359375</LongitudeDegrees>
            </Position>
            <AltitudeMeters>215.8000030517578125</AltitudeMeters>
            <DistanceMeters>1478.1438456824</DistanceMeters>
          </Trackpoint>
          <Trackpoint>
            <Time>2019-01-04T09:31:49.000Z</Time>
            <Position>
              <LatitudeDegrees>36.53452967293560504913330078125</LatitudeDegrees>
              <LongitudeDegrees>-5.3960303775966167449951171875</LongitudeDegrees>
            </Position>
            <AltitudeMeters>215.8000030517578125</AltitudeMeters>
            <DistanceMeters>1479.6282104127</DistanceMeters>
          </Trackpoint>
          <Trackpoint>
            <Time>2019-01-04T09:31:50.000Z</Time>
            <Position>
              <LatitudeDegrees>36.534532941877841949462890625</LatitudeDegrees>
              <LongitudeDegrees>-5.39601369760930538177490234375</LongitudeDegrees>
            </Position>
            <AltitudeMeters>215.600006103515625</AltitudeMeters>
            <DistanceMeters>1481.1634139666</DistanceMeters>
          </Trackpoint>
          <Trackpoint>
            <Time>2019-01-04T09:31:51.000Z</Time>
            <Position>
              <LatitudeDegrees>36.534534953534603118896484375</LatitudeDegrees>
              <LongitudeDegrees>-5.39599458687007427215576171875</LongitudeDegrees>
            </Position>
            <AltitudeMeters>215.600006103515625</AltitudeMeters>
            <DistanceMeters>1482.8870424503</DistanceMeters>
          </Trackpoint>
          <Trackpoint>
            <Time>2019-01-04T09:31:52.000Z</Time>
            <Position>
              <LatitudeDegrees>36.53453528881072998046875</LatitudeDegrees>
              <LongitudeDegrees>-5.39597430266439914703369140625</LongitudeDegrees>
            </Position>
            <AltitudeMeters>215.600006103515625</AltitudeMeters>
            <DistanceMeters>1484.7000366107</DistanceMeters>
          </Trackpoint>
          <Trackpoint>
            <Time>2019-01-04T09:31:53.000Z</Time>
            <Position>
              <LatitudeDegrees>36.53453855775296688079833984375</LatitudeDegrees>
              <LongitudeDegrees>-5.39595569483935832977294921875</LongitudeDegrees>
            </Position>
            <AltitudeMeters>215.600006103515625</AltitudeMeters>
            <DistanceMeters>1486.4025801604</DistanceMeters>
          </Trackpoint>
          <Trackpoint>
            <Time>2019-01-04T09:31:54.000Z</Time>
            <Position>
              <LatitudeDegrees>36.534537635743618011474609375</LatitudeDegrees>
              <LongitudeDegrees>-5.39593507535755634307861328125</LongitudeDegrees>
            </Position>
            <AltitudeMeters>215.600006103515625</AltitudeMeters>
            <DistanceMeters>1488.245216517</DistanceMeters>
          </Trackpoint>
          <Trackpoint>
            <Time>2019-01-04T09:31:55.000Z</Time>
            <Position>
              <LatitudeDegrees>36.53453319333493709564208984375</LatitudeDegrees>
              <LongitudeDegrees>-5.395913533866405487060546875</LongitudeDegrees>
            </Position>
            <AltitudeMeters>215.600006103515625</AltitudeMeters>
            <DistanceMeters>1490.2339783134</DistanceMeters>
          </Trackpoint>
          <Trackpoint>
            <Time>2019-01-04T09:31:56.000Z</Time>
            <Position>
              <LatitudeDegrees>36.5345270745456218719482421875</LatitudeDegrees>
              <LongitudeDegrees>-5.395888052880764007568359375</LongitudeDegrees>
            </Position>
            <AltitudeMeters>215.399993896484375</AltitudeMeters>
            <DistanceMeters>1492.6115459473</DistanceMeters>
          </Trackpoint>
          <Trackpoint>
            <Time>2019-01-04T09:31:57.000Z</Time>
            <Position>
              <LatitudeDegrees>36.53452497906982898712158203125</LatitudeDegrees>
              <LongitudeDegrees>-5.3958681039512157440185546875</LongitudeDegrees>
            </Position>
            <AltitudeMeters>215.399993896484375</AltitudeMeters>
            <DistanceMeters>1494.4095357601</DistanceMeters>
          </Trackpoint>
          <Trackpoint>
            <Time>2019-01-04T09:31:58.000Z</Time>
            <Position>
              <LatitudeDegrees>36.53452447615563869476318359375</LatitudeDegrees>
              <LongitudeDegrees>-5.39584723301231861114501953125</LongitudeDegrees>
            </Position>
            <AltitudeMeters>215.1999969482421875</AltitudeMeters>
            <DistanceMeters>1496.2765144711</DistanceMeters>
          </Trackpoint>
          <Trackpoint>
            <Time>2019-01-04T09:31:59.000Z</Time>
            <Position>
              <LatitudeDegrees>36.5345200337469577789306640625</LatitudeDegrees>
              <LongitudeDegrees>-5.39582510478794574737548828125</LongitudeDegrees>
            </Position>
            <AltitudeMeters>215.1999969482421875</AltitudeMeters>
            <DistanceMeters>1498.3168245555</DistanceMeters>
          </Trackpoint>
          <Trackpoint>
            <Time>2019-01-04T09:32:00.000Z</Time>
            <Position>
              <LatitudeDegrees>36.53451542370021343231201171875</LatitudeDegrees>
              <LongitudeDegrees>-5.3958067484200000762939453125</LongitudeDegrees>
            </Position>
            <AltitudeMeters>215.1999969482421875</AltitudeMeters>
            <DistanceMeters>1500.0378315496</DistanceMeters>
          </Trackpoint>
          <Trackpoint>
            <Time>2019-01-04T09:32:01.000Z</Time>
            <Position>
              <LatitudeDegrees>36.53451047837734222412109375</LatitudeDegrees>
              <LongitudeDegrees>-5.39579057134687900543212890625</LongitudeDegrees>
            </Position>
            <AltitudeMeters>215.1999969482421875</AltitudeMeters>
            <DistanceMeters>1501.5876703587</DistanceMeters>
          </Trackpoint>
          <Trackpoint>
            <Time>2019-01-04T09:32:02.000Z</Time>
            <Position>
              <LatitudeDegrees>36.534505784511566162109375</LatitudeDegrees>
              <LongitudeDegrees>-5.395774729549884796142578125</LongitudeDegrees>
            </Position>
            <AltitudeMeters>215.1999969482421875</AltitudeMeters>
            <DistanceMeters>1503.0961726835</DistanceMeters>
          </Trackpoint>
          <Trackpoint>
            <Time>2019-01-04T09:32:03.000Z</Time>
            <Position>
              <LatitudeDegrees>36.5345032699406147003173828125</LatitudeDegrees>
              <LongitudeDegrees>-5.39575955830514430999755859375</LongitudeDegrees>
            </Position>
            <AltitudeMeters>215.1999969482421875</AltitudeMeters>
            <DistanceMeters>1504.4797825295</DistanceMeters>
          </Trackpoint>
          <Trackpoint>
            <Time>2019-01-04T09:32:04.000Z</Time>
            <Position>
              <LatitudeDegrees>36.53450251556932926177978515625</LatitudeDegrees>
              <LongitudeDegrees>-5.3957450576126575469970703125</LongitudeDegrees>
            </Position>
            <AltitudeMeters>215.1999969482421875</AltitudeMeters>
            <DistanceMeters>1505.7757741262</DistanceMeters>
          </Trackpoint>
          <Trackpoint>
            <Time>2019-01-04T09:32:05.000Z</Time>
            <Position>
              <LatitudeDegrees>36.5345012582838535308837890625</LatitudeDegrees>
              <LongitudeDegrees>-5.39572988636791706085205078125</LongitudeDegrees>
            </Position>
            <AltitudeMeters>215.1999969482421875</AltitudeMeters>
            <DistanceMeters>1507.1396640585</DistanceMeters>
          </Trackpoint>
          <Trackpoint>
            <Time>2019-01-04T09:32:06.000Z</Time>
            <Position>
              <LatitudeDegrees>36.53450016863644123077392578125</LatitudeDegrees>
              <LongitudeDegrees>-5.39571161381900310516357421875</LongitudeDegrees>
            </Position>
            <AltitudeMeters>215.1999969482421875</AltitudeMeters>
            <DistanceMeters>1508.7773247998</DistanceMeters>
          </Trackpoint>
          <Trackpoint>
            <Time>2019-01-04T09:32:07.000Z</Time>
            <Position>
              <LatitudeDegrees>36.53449974954128265380859375</LatitudeDegrees>
              <LongitudeDegrees>-5.3956934250891208648681640625</LongitudeDegrees>
            </Position>
            <AltitudeMeters>215.1999969482421875</AltitudeMeters>
            <DistanceMeters>1510.4011420068</DistanceMeters>
          </Trackpoint>
          <Trackpoint>
            <Time>2019-01-04T09:32:08.000Z</Time>
            <Position>
              <LatitudeDegrees>36.53449949808418750762939453125</LatitudeDegrees>
              <LongitudeDegrees>-5.3956773318350315093994140625</LongitudeDegrees>
            </Position>
            <AltitudeMeters>215.1999969482421875</AltitudeMeters>
            <DistanceMeters>1511.8391571339</DistanceMeters>
          </Trackpoint>
          <Trackpoint>
            <Time>2019-01-04T09:32:09.000Z</Time>
            <Position>
              <LatitudeDegrees>36.53449949808418750762939453125</LatitudeDegrees>
              <LongitudeDegrees>-5.39566333405673503875732421875</LongitudeDegrees>
            </Position>
            <AltitudeMeters>215.1999969482421875</AltitudeMeters>
            <DistanceMeters>1513.0926455867</DistanceMeters>
          </Trackpoint>
          <Trackpoint>
            <Time>2019-01-04T09:32:10.000Z</Time>
            <Position>
              <LatitudeDegrees>36.5344979055225849151611328125</LatitudeDegrees>
              <LongitudeDegrees>-5.39564690552651882171630859375</LongitudeDegrees>
            </Position>
            <AltitudeMeters>215.1999969482421875</AltitudeMeters>
            <DistanceMeters>1514.5739654629</DistanceMeters>
          </Trackpoint>
          <Trackpoint>
            <Time>2019-01-04T09:32:11.000Z</Time>
            <Position>
              <LatitudeDegrees>36.53449581004679203033447265625</LatitudeDegrees>
              <LongitudeDegrees>-5.395628549158573150634765625</LongitudeDegrees>
            </Position>
            <AltitudeMeters>215.1999969482421875</AltitudeMeters>
            <DistanceMeters>1516.2308128424</DistanceMeters>
          </Trackpoint>
          <Trackpoint>
            <Time>2019-01-04T09:32:12.000Z</Time>
            <Position>
              <LatitudeDegrees>36.53449379839003086090087890625</LatitudeDegrees>
              <LongitudeDegrees>-5.39561052806675434112548828125</LongitudeDegrees>
            </Position>
            <AltitudeMeters>215</AltitudeMeters>
            <DistanceMeters>1517.8601815774</DistanceMeters>
          </Trackpoint>
          <Trackpoint>
            <Time>2019-01-04T09:32:13.000Z</Time>
            <Position>
              <LatitudeDegrees>36.5344908647239208221435546875</LatitudeDegrees>
              <LongitudeDegrees>-5.395590327680110931396484375</LongitudeDegrees>
            </Position>
            <AltitudeMeters>215</AltitudeMeters>
            <DistanceMeters>1519.6954522696</DistanceMeters>
          </Trackpoint>
          <Trackpoint>
            <Time>2019-01-04T09:32:14.000Z</Time>
            <Position>
              <LatitudeDegrees>36.534482650458812713623046875</LatitudeDegrees>
              <LongitudeDegrees>-5.39556928910315036773681640625</LongitudeDegrees>
            </Position>
            <AltitudeMeters>214.8000030517578125</AltitudeMeters>
            <DistanceMeters>1521.7860399857</DistanceMeters>
          </Trackpoint>
          <Trackpoint>
            <Time>2019-01-04T09:32:15.000Z</Time>
            <Position>
              <LatitudeDegrees>36.53447485528886318206787109375</LatitudeDegrees>
              <LongitudeDegrees>-5.395550094544887542724609375</LongitudeDegrees>
            </Position>
            <AltitudeMeters>214.8000030517578125</AltitudeMeters>
            <DistanceMeters>1523.70783635</DistanceMeters>
          </Trackpoint>
          <Trackpoint>
            <Time>2019-01-04T09:32:16.000Z</Time>
            <Position>
              <LatitudeDegrees>36.5344673953950405120849609375</LatitudeDegrees>
              <LongitudeDegrees>-5.39553089998662471771240234375</LongitudeDegrees>
            </Position>
            <AltitudeMeters>214.600006103515625</AltitudeMeters>
            <DistanceMeters>1525.6131160487</DistanceMeters>
          </Trackpoint>
          <Trackpoint>
            <Time>2019-01-04T09:32:17.000Z</Time>
            <Position>
              <LatitudeDegrees>36.53446228243410587310791015625</LatitudeDegrees>
              <LongitudeDegrees>-5.39551095105707645416259765625</LongitudeDegrees>
            </Position>
            <AltitudeMeters>214.600006103515625</AltitudeMeters>
            <DistanceMeters>1527.4849252431</DistanceMeters>
          </Trackpoint>
          <Trackpoint>
            <Time>2019-01-04T09:32:18.000Z</Time>
            <Position>
              <LatitudeDegrees>36.53445490635931491851806640625</LatitudeDegrees>
              <LongitudeDegrees>-5.395487733185291290283203125</LongitudeDegrees>
            </Position>
            <AltitudeMeters>214.600006103515625</AltitudeMeters>
            <DistanceMeters>1529.7175475124</DistanceMeters>
          </Trackpoint>
          <Trackpoint>
            <Time>2019-01-04T09:32:19.000Z</Time>
            <Position>
              <LatitudeDegrees>36.534446775913238525390625</LatitudeDegrees>
              <LongitudeDegrees>-5.3954694606363773345947265625</LongitudeDegrees>
            </Position>
            <AltitudeMeters>214.600006103515625</AltitudeMeters>
            <DistanceMeters>1531.5869430253</DistanceMeters>
          </Trackpoint>
          <Trackpoint>
            <Time>2019-01-04T09:32:20.000Z</Time>
            <Position>
              <LatitudeDegrees>36.534439064562320709228515625</LatitudeDegrees>
              <LongitudeDegrees>-5.39545378647744655609130859375</LongitudeDegrees>
            </Position>
            <AltitudeMeters>214.399993896484375</AltitudeMeters>
            <DistanceMeters>1533.232853999</DistanceMeters>
          </Trackpoint>
          <Trackpoint>
            <Time>2019-01-04T09:32:21.000Z</Time>
            <Position>
              <LatitudeDegrees>36.53443328104913234710693359375</LatitudeDegrees>
              <LongitudeDegrees>-5.3954355977475643157958984375</LongitudeDegrees>
            </Position>
            <AltitudeMeters>214.600006103515625</AltitudeMeters>
            <DistanceMeters>1534.9824813634</DistanceMeters>
          </Trackpoint>
          <Trackpoint>
            <Time>2019-01-04T09:32:22.000Z</Time>
            <Position>
              <LatitudeDegrees>36.5344248153269290924072265625</LatitudeDegrees>
              <LongitudeDegrees>-5.3954241983592510223388671875</LongitudeDegrees>
            </Position>
            <AltitudeMeters>214.600006103515625</AltitudeMeters>
            <DistanceMeters>1536.3726023506</DistanceMeters>
          </Trackpoint>
          <Trackpoint>
            <Time>2019-01-04T09:32:23.000Z</Time>
            <Position>
              <LatitudeDegrees>36.534416265785694122314453125</LatitudeDegrees>
              <LongitudeDegrees>-5.39541841484606266021728515625</LongitudeDegrees>
            </Position>
            <AltitudeMeters>214.8000030517578125</AltitudeMeters>
            <DistanceMeters>1537.4560735951</DistanceMeters>
          </Trackpoint>
          <Trackpoint>
            <Time>2019-01-04T09:32:24.000Z</Time>
            <Position>
              <LatitudeDegrees>36.5344063751399517059326171875</LatitudeDegrees>
              <LongitudeDegrees>-5.3954111225903034210205078125</LongitudeDegrees>
            </Position>
            <AltitudeMeters>215</AltitudeMeters>
            <DistanceMeters>1538.7309907532</DistanceMeters>
          </Trackpoint>
          <Trackpoint>
            <Time>2019-01-04T09:32:25.000Z</Time>
            <Position>
              <LatitudeDegrees>36.53439405374228954315185546875</LatitudeDegrees>
              <LongitudeDegrees>-5.3954013995826244354248046875</LongitudeDegrees>
            </Position>
            <AltitudeMeters>215</AltitudeMeters>
            <DistanceMeters>1540.3548079602</DistanceMeters>
          </Trackpoint>
          <Trackpoint>
            <Time>2019-01-04T09:32:26.000Z</Time>
            <Position>
              <LatitudeDegrees>36.53438047505915164947509765625</LatitudeDegrees>
              <LongitudeDegrees>-5.3953916765749454498291015625</LongitudeDegrees>
            </Position>
            <AltitudeMeters>215.1999969482421875</AltitudeMeters>
            <DistanceMeters>1542.0992665471</DistanceMeters>
          </Trackpoint>
          <Trackpoint>
            <Time>2019-01-04T09:32:27.000Z</Time>
            <Position>
              <LatitudeDegrees>36.53436589054763317108154296875</LatitudeDegrees>
              <LongitudeDegrees>-5.3953863121569156646728515625</LongitudeDegrees>
            </Position>
            <AltitudeMeters>215.1999969482421875</AltitudeMeters>
            <DistanceMeters>1543.7884983714</DistanceMeters>
          </Trackpoint>
          <Trackpoint>
            <Time>2019-01-04T09:32:28.000Z</Time>
            <Position>
              <LatitudeDegrees>36.5343515574932098388671875</LatitudeDegrees>
              <LongitudeDegrees>-5.3953827917575836181640625</LongitudeDegrees>
            </Position>
            <AltitudeMeters>215.1999969482421875</AltitudeMeters>
            <DistanceMeters>1545.4150937108</DistanceMeters>
          </Trackpoint>
          <Trackpoint>
            <Time>2019-01-04T09:32:29.000Z</Time>
            <Position>
              <LatitudeDegrees>36.5343368053436279296875</LatitudeDegrees>
              <LongitudeDegrees>-5.3953802771866321563720703125</LongitudeDegrees>
            </Position>
            <AltitudeMeters>215.1999969482421875</AltitudeMeters>
            <DistanceMeters>1547.0719410903</DistanceMeters>
          </Trackpoint>
          <Trackpoint>
            <Time>2019-01-04T09:32:30.000Z</Time>
            <Position>
              <LatitudeDegrees>36.53432297520339488983154296875</LatitudeDegrees>
              <LongitudeDegrees>-5.39538002572953701019287109375</LongitudeDegrees>
            </Position>
            <AltitudeMeters>215.1999969482421875</AltitudeMeters>
            <DistanceMeters>1548.6130154249</DistanceMeters>
          </Trackpoint>
          <Trackpoint>
            <Time>2019-01-04T09:32:31.000Z</Time>
            <Position>
              <LatitudeDegrees>36.5343078039586544036865234375</LatitudeDegrees>
              <LongitudeDegrees>-5.39537851698696613311767578125</LongitudeDegrees>
            </Position>
            <AltitudeMeters>215.1999969482421875</AltitudeMeters>
            <DistanceMeters>1550.3075844879</DistanceMeters>
          </Trackpoint>
          <Trackpoint>
            <Time>2019-01-04T09:32:32.000Z</Time>
            <Position>
              <LatitudeDegrees>36.5342952311038970947265625</LatitudeDegrees>
              <LongitudeDegrees>-5.39537516422569751739501953125</LongitudeDegrees>
            </Position>
            <AltitudeMeters>215.1999969482421875</AltitudeMeters>
            <DistanceMeters>1551.7361492489</DistanceMeters>
          </Trackpoint>
          <Trackpoint>
            <Time>2019-01-04T09:32:33.000Z</Time>
            <Position>
              <LatitudeDegrees>36.5342809818685054779052734375</LatitudeDegrees>
              <LongitudeDegrees>-5.39537164382636547088623046875</LongitudeDegrees>
            </Position>
            <AltitudeMeters>215.399993896484375</AltitudeMeters>
            <DistanceMeters>1553.3488060679</DistanceMeters>
          </Trackpoint>
          <Trackpoint>
            <Time>2019-01-04T09:32:34.000Z</Time>
            <Position>
              <LatitudeDegrees>36.5342648886144161224365234375</LatitudeDegrees>
              <LongitudeDegrees>-5.395371727645397186279296875</LongitudeDegrees>
            </Position>
            <AltitudeMeters>215.399993896484375</AltitudeMeters>
            <DistanceMeters>1555.1392465549</DistanceMeters>
          </Trackpoint>
          <Trackpoint>
            <Time>2019-01-04T09:32:35.000Z</Time>
            <Position>
              <LatitudeDegrees>36.53425038792192935943603515625</LatitudeDegrees>
              <LongitudeDegrees>-5.395371057093143463134765625</LongitudeDegrees>
            </Position>
            <AltitudeMeters>215.399993896484375</AltitudeMeters>
            <DistanceMeters>1556.757493189</DistanceMeters>
          </Trackpoint>
          <Trackpoint>
            <Time>2019-01-04T09:32:36.000Z</Time>
            <Position>
              <LatitudeDegrees>36.5342353843152523040771484375</LatitudeDegrees>
              <LongitudeDegrees>-5.39537097327411174774169921875</LongitudeDegrees>
            </Position>
            <AltitudeMeters>215.399993896484375</AltitudeMeters>
            <DistanceMeters>1558.4279103887</DistanceMeters>
          </Trackpoint>
          <Trackpoint>
            <Time>2019-01-04T09:32:37.000Z</Time>
            <Position>
              <LatitudeDegrees>36.534219793975353240966796875</LatitudeDegrees>
              <LongitudeDegrees>-5.39537315256893634796142578125</LongitudeDegrees>
            </Position>
            <AltitudeMeters>215.1999969482421875</AltitudeMeters>
            <DistanceMeters>1560.174955276</DistanceMeters>
          </Trackpoint>
          <Trackpoint>
            <Time>2019-01-04T09:32:38.000Z</Time>
            <Position>
              <LatitudeDegrees>36.53420445509254932403564453125</LatitudeDegrees>
              <LongitudeDegrees>-5.3953739069402217864990234375</LongitudeDegrees>
            </Position>
            <AltitudeMeters>215.1999969482421875</AltitudeMeters>
            <DistanceMeters>1561.8854361346</DistanceMeters>
          </Trackpoint>
          <Trackpoint>
            <Time>2019-01-04T09:32:39.000Z</Time>
            <Position>
              <LatitudeDegrees>36.53419020585715770721435546875</LatitudeDegrees>
              <LongitudeDegrees>-5.39537047035992145538330078125</LongitudeDegrees>
            </Position>
            <AltitudeMeters>215</AltitudeMeters>
            <DistanceMeters>1563.4980929536</DistanceMeters>
          </Trackpoint>
          <Trackpoint>
            <Time>2019-01-04T09:32:40.000Z</Time>
            <Position>
              <LatitudeDegrees>36.53417964465916156768798828125</LatitudeDegrees>
              <LongitudeDegrees>-5.39536544121801853179931640625</LongitudeDegrees>
            </Position>
            <AltitudeMeters>215</AltitudeMeters>
            <DistanceMeters>1564.7587647801</DistanceMeters>
          </Trackpoint>
          <Trackpoint>
            <Time>2019-01-04T09:32:41.000Z</Time>
            <Position>
              <LatitudeDegrees>36.5341664850711822509765625</LatitudeDegrees>
              <LongitudeDegrees>-5.3953621722757816314697265625</LongitudeDegrees>
            </Position>
            <AltitudeMeters>215</AltitudeMeters>
            <DistanceMeters>1566.2552469745</DistanceMeters>
          </Trackpoint>
          <Trackpoint>
            <Time>2019-01-04T09:32:42.000Z</Time>
            <Position>
              <LatitudeDegrees>36.5341515652835369110107421875</LatitudeDegrees>
              <LongitudeDegrees>-5.39536024443805217742919921875</LongitudeDegrees>
            </Position>
            <AltitudeMeters>215</AltitudeMeters>
            <DistanceMeters>1567.9229590434</DistanceMeters>
          </Trackpoint>
          <Trackpoint>
            <Time>2019-01-04T09:32:43.000Z</Time>
            <Position>
              <LatitudeDegrees>36.53413639403879642486572265625</LatitudeDegrees>
              <LongitudeDegrees>-5.395351946353912353515625</LongitudeDegrees>
            </Position>
            <AltitudeMeters>215.1999969482421875</AltitudeMeters>
            <DistanceMeters>1569.7655954001</DistanceMeters>
          </Trackpoint>
          <Trackpoint>
            <Time>2019-01-04T09:32:44.000Z</Time>
            <Position>
              <LatitudeDegrees>36.53412331826984882354736328125</LatitudeDegrees>
              <LongitudeDegrees>-5.3953440673649311065673828125</LongitudeDegrees>
            </Position>
            <AltitudeMeters>215.1999969482421875</AltitudeMeters>
            <DistanceMeters>1571.3838420342</DistanceMeters>
          </Trackpoint>
          <Trackpoint>
            <Time>2019-01-04T09:32:45.000Z</Time>
            <Position>
              <LatitudeDegrees>36.53411057777702808380126953125</LatitudeDegrees>
              <LongitudeDegrees>-5.39533576928079128265380859375</LongitudeDegrees>
            </Position>
            <AltitudeMeters>215.1999969482421875</AltitudeMeters>
            <DistanceMeters>1572.9852606896</DistanceMeters>
          </Trackpoint>
          <Trackpoint>
            <Time>2019-01-04T09:32:46.000Z</Time>
            <Position>
              <LatitudeDegrees>36.534098424017429351806640625</LatitudeDegrees>
              <LongitudeDegrees>-5.3953269682824611663818359375</LongitudeDegrees>
            </Position>
            <AltitudeMeters>215.399993896484375</AltitudeMeters>
            <DistanceMeters>1574.5467089404</DistanceMeters>
          </Trackpoint>
          <Trackpoint>
            <Time>2019-01-04T09:32:47.000Z</Time>
            <Position>
              <LatitudeDegrees>36.53408576734364032745361328125</LatitudeDegrees>
              <LongitudeDegrees>-5.3953172452747821807861328125</LongitudeDegrees>
            </Position>
            <AltitudeMeters>215.399993896484375</AltitudeMeters>
            <DistanceMeters>1576.2035563199</DistanceMeters>
          </Trackpoint>
          <Trackpoint>
            <Time>2019-01-04T09:32:48.000Z</Time>
            <Position>
              <LatitudeDegrees>36.5340727753937244415283203125</LatitudeDegrees>
              <LongitudeDegrees>-5.3953041695058345794677734375</LongitudeDegrees>
            </Position>
            <AltitudeMeters>215.399993896484375</AltitudeMeters>
            <DistanceMeters>1578.0632657806</DistanceMeters>
          </Trackpoint>
          <Trackpoint>
            <Time>2019-01-04T09:32:49.000Z</Time>
            <Position>
              <LatitudeDegrees>36.534060873091220855712890625</LatitudeDegrees>
              <LongitudeDegrees>-5.3952914290130138397216796875</LongitudeDegrees>
            </Position>
            <AltitudeMeters>215.399993896484375</AltitudeMeters>
            <DistanceMeters>1579.8103106678</DistanceMeters>
          </Trackpoint>
          <Trackpoint>
            <Time>2019-01-04T09:32:50.000Z</Time>
            <Position>
              <LatitudeDegrees>36.5340459533035755157470703125</LatitudeDegrees>
              <LongitudeDegrees>-5.3952877409756183624267578125</LongitudeDegrees>
            </Position>
            <AltitudeMeters>215.399993896484375</AltitudeMeters>
            <DistanceMeters>1581.5048797308</DistanceMeters>
          </Trackpoint>
          <Trackpoint>
            <Time>2019-01-04T09:32:51.000Z</Time>
            <Position>
              <LatitudeDegrees>36.534030698239803314208984375</LatitudeDegrees>
              <LongitudeDegrees>-5.39528178982436656951904296875</LongitudeDegrees>
            </Position>
            <AltitudeMeters>215.399993896484375</AltitudeMeters>
            <DistanceMeters>1583.2852046539</DistanceMeters>
          </Trackpoint>
          <Trackpoint>
            <Time>2019-01-04T09:32:52.000Z</Time>
            <Position>
              <LatitudeDegrees>36.53401695191860198974609375</LatitudeDegrees>
              <LongitudeDegrees>-5.39527215063571929931640625</LongitudeDegrees>
            </Position>
            <AltitudeMeters>215.399993896484375</AltitudeMeters>
            <DistanceMeters>1585.0374106894</DistanceMeters>
          </Trackpoint>
          <Trackpoint>
            <Time>2019-01-04T09:32:53.000Z</Time>
            <Position>
              <LatitudeDegrees>36.53400245122611522674560546875</LatitudeDegrees>
              <LongitudeDegrees>-5.39526066742837429046630859375</LongitudeDegrees>
            </Position>
            <AltitudeMeters>215.399993896484375</AltitudeMeters>
            <DistanceMeters>1586.9521459286</DistanceMeters>
          </Trackpoint>
          <Trackpoint>
            <Time>2019-01-04T09:32:54.000Z</Time>
            <Position>
              <LatitudeDegrees>36.53399155475199222564697265625</LatitudeDegrees>
              <LongitudeDegrees>-5.3952518664300441741943359375</LongitudeDegrees>
            </Position>
            <AltitudeMeters>215.399993896484375</AltitudeMeters>
            <DistanceMeters>1588.3964269465</DistanceMeters>
          </Trackpoint>
          <Trackpoint>
            <Time>2019-01-04T09:32:55.000Z</Time>
            <Position>
              <LatitudeDegrees>36.53398082591593265533447265625</LatitudeDegrees>
              <LongitudeDegrees>-5.39524222724139690399169921875</LongitudeDegrees>
            </Position>
            <AltitudeMeters>215.399993896484375</AltitudeMeters>
            <DistanceMeters>1589.8685744753</DistanceMeters>
          </Trackpoint>
          <Trackpoint>
            <Time>2019-01-04T09:32:56.000Z</Time>
            <Position>
              <LatitudeDegrees>36.53396867215633392333984375</LatitudeDegrees>
              <LongitudeDegrees>-5.39523250423371791839599609375</LongitudeDegrees>
            </Position>
            <AltitudeMeters>215.399993896484375</AltitudeMeters>
            <DistanceMeters>1591.4784291083</DistanceMeters>
          </Trackpoint>
          <Trackpoint>
            <Time>2019-01-04T09:32:57.000Z</Time>
            <Position>
              <LatitudeDegrees>36.53395366854965686798095703125</LatitudeDegrees>
              <LongitudeDegrees>-5.3952218592166900634765625</LongitudeDegrees>
            </Position>
            <AltitudeMeters>215.1999969482421875</AltitudeMeters>
            <DistanceMeters>1593.4002254725</DistanceMeters>
          </Trackpoint>
          <Trackpoint>
            <Time>2019-01-04T09:32:58.000Z</Time>
            <Position>
              <LatitudeDegrees>36.5339411795139312744140625</LatitudeDegrees>
              <LongitudeDegrees>-5.39521691389381885528564453125</LongitudeDegrees>
            </Position>
            <AltitudeMeters>215.1999969482421875</AltitudeMeters>
            <DistanceMeters>1594.8600535586</DistanceMeters>
          </Trackpoint>
          <Trackpoint>
            <Time>2019-01-04T09:32:59.000Z</Time>
            <Position>
              <LatitudeDegrees>36.53393112123012542724609375</LatitudeDegrees>
              <LongitudeDegrees>-5.3952129743993282318115234375</LongitudeDegrees>
            </Position>
            <AltitudeMeters>215</AltitudeMeters>
            <DistanceMeters>1596.0393040715</DistanceMeters>
          </Trackpoint>
          <Trackpoint>
            <Time>2019-01-04T09:33:00.000Z</Time>
            <Position>
              <LatitudeDegrees>36.53391645289957523345947265625</LatitudeDegrees>
              <LongitudeDegrees>-5.39520501159131526947021484375</LongitudeDegrees>
            </Position>
            <AltitudeMeters>215</AltitudeMeters>
            <DistanceMeters>1597.8196289947</DistanceMeters>
          </Trackpoint>
          <Trackpoint>
            <Time>2019-01-04T09:33:01.000Z</Time>
            <Position>
              <LatitudeDegrees>36.5339011140167713165283203125</LatitudeDegrees>
              <LongitudeDegrees>-5.39519746787846088409423828125</LongitudeDegrees>
            </Position>
            <AltitudeMeters>214.8000030517578125</AltitudeMeters>
            <DistanceMeters>1599.6548996868</DistanceMeters>
          </Trackpoint>
          <Trackpoint>
            <Time>2019-01-04T09:33:02.000Z</Time>
            <Position>
              <LatitudeDegrees>36.53388644568622112274169921875</LatitudeDegrees>
              <LongitudeDegrees>-5.39518975652754306793212890625</LongitudeDegrees>
            </Position>
            <AltitudeMeters>214.8000030517578125</AltitudeMeters>
            <DistanceMeters>1601.427600057</DistanceMeters>
          </Trackpoint>
          <Trackpoint>
            <Time>2019-01-04T09:33:03.000Z</Time>
            <Position>
              <LatitudeDegrees>36.53387186117470264434814453125</LatitudeDegrees>
              <LongitudeDegrees>-5.395183302462100982666015625</LongitudeDegrees>
            </Position>
            <AltitudeMeters>214.8000030517578125</AltitudeMeters>
            <DistanceMeters>1603.1486070511</DistanceMeters>
          </Trackpoint>
          <Trackpoint>
            <Time>2019-01-04T09:33:04.000Z</Time>
            <Position>
              <LatitudeDegrees>36.53385861776769161224365234375</LatitudeDegrees>
              <LongitudeDegrees>-5.3951797820627689361572265625</LongitudeDegrees>
            </Position>
            <AltitudeMeters>215</AltitudeMeters>
            <DistanceMeters>1604.6541133405</DistanceMeters>
          </Trackpoint>
          <Trackpoint>
            <Time>2019-01-04T09:33:05.000Z</Time>
            <Position>
              <LatitudeDegrees>36.5338461287319660186767578125</LatitudeDegrees>
              <LongitudeDegrees>-5.395179949700832366943359375</LongitudeDegrees>
            </Position>
            <AltitudeMeters>215</AltitudeMeters>
            <DistanceMeters>1606.0409825782</DistanceMeters>
          </Trackpoint>
          <Trackpoint>
            <Time>2019-01-04T09:33:06.000Z</Time>
            <Position>
              <LatitudeDegrees>36.53383187949657440185546875</LatitudeDegrees>
              <LongitudeDegrees>-5.395177267491817474365234375</LongitudeDegrees>
            </Position>
            <AltitudeMeters>215</AltitudeMeters>
            <DistanceMeters>1607.6452181552</DistanceMeters>
          </Trackpoint>
          <Trackpoint>
            <Time>2019-01-04T09:33:07.000Z</Time>
            <Position>
              <LatitudeDegrees>36.533816792070865631103515625</LatitudeDegrees>
              <LongitudeDegrees>-5.3951770998537540435791015625</LongitudeDegrees>
            </Position>
            <AltitudeMeters>215.1999969482421875</AltitudeMeters>
            <DistanceMeters>1609.3237245897</DistanceMeters>
          </Trackpoint>
          <Trackpoint>
            <Time>2019-01-04T09:33:08.000Z</Time>
            <Position>
              <LatitudeDegrees>36.53380111791193485260009765625</LatitudeDegrees>
              <LongitudeDegrees>-5.395175926387310028076171875</LongitudeDegrees>
            </Position>
            <AltitudeMeters>215.1999969482421875</AltitudeMeters>
            <DistanceMeters>1611.0707694769</DistanceMeters>
          </Trackpoint>
          <Trackpoint>
            <Time>2019-01-04T09:33:09.000Z</Time>
            <Position>
              <LatitudeDegrees>36.53378502465784549713134765625</LatitudeDegrees>
              <LongitudeDegrees>-5.39517248980700969696044921875</LongitudeDegrees>
            </Position>
            <AltitudeMeters>215.399993896484375</AltitudeMeters>
            <DistanceMeters>1612.8887375676</DistanceMeters>
          </Trackpoint>
          <Trackpoint>
            <Time>2019-01-04T09:33:10.000Z</Time>
            <Position>
              <LatitudeDegrees>36.5337680093944072723388671875</LatitudeDegrees>
              <LongitudeDegrees>-5.39516980759799480438232421875</LongitudeDegrees>
            </Position>
            <AltitudeMeters>215.399993896484375</AltitudeMeters>
            <DistanceMeters>1614.7987508878</DistanceMeters>
          </Trackpoint>
          <Trackpoint>
            <Time>2019-01-04T09:33:11.000Z</Time>
            <Position>
              <LatitudeDegrees>36.53375283814966678619384765625</LatitudeDegrees>
              <LongitudeDegrees>-5.3951697237789630889892578125</LongitudeDegrees>
            </Position>
            <AltitudeMeters>215.399993896484375</AltitudeMeters>
            <DistanceMeters>1616.4879827121</DistanceMeters>
          </Trackpoint>
          <Trackpoint>
            <Time>2019-01-04T09:33:12.000Z</Time>
            <Position>
              <LatitudeDegrees>36.5337378345429897308349609375</LatitudeDegrees>
              <LongitudeDegrees>-5.39517098106443881988525390625</LongitudeDegrees>
            </Position>
            <AltitudeMeters>215.399993896484375</AltitudeMeters>
            <DistanceMeters>1618.1583999118</DistanceMeters>
          </Trackpoint>
          <Trackpoint>
            <Time>2019-01-04T09:33:13.000Z</Time>
            <Position>
              <LatitudeDegrees>36.53372299857437610626220703125</LatitudeDegrees>
              <LongitudeDegrees>-5.395171232521533966064453125</LongitudeDegrees>
            </Position>
            <AltitudeMeters>215.1999969482421875</AltitudeMeters>
            <DistanceMeters>1619.8070517882</DistanceMeters>
          </Trackpoint>
          <Trackpoint>
            <Time>2019-01-04T09:33:14.000Z</Time>
            <Position>
              <LatitudeDegrees>36.53370740823447704315185546875</LatitudeDegrees>
              <LongitudeDegrees>-5.39517064578831195831298828125</LongitudeDegrees>
            </Position>
            <AltitudeMeters>215.1999969482421875</AltitudeMeters>
            <DistanceMeters>1621.5411266009</DistanceMeters>
          </Trackpoint>
          <Trackpoint>
            <Time>2019-01-04T09:33:15.000Z</Time>
            <Position>
              <LatitudeDegrees>36.5336939133703708648681640625</LatitudeDegrees>
              <LongitudeDegrees>-5.39517081342637538909912109375</LongitudeDegrees>
            </Position>
            <AltitudeMeters>215.1999969482421875</AltitudeMeters>
            <DistanceMeters>1623.0436308807</DistanceMeters>
          </Trackpoint>
          <Trackpoint>
            <Time>2019-01-04T09:33:16.000Z</Time>
            <Position>
              <LatitudeDegrees>36.53367974795401096343994140625</LatitudeDegrees>
              <LongitudeDegrees>-5.39517148397862911224365234375</LongitudeDegrees>
            </Position>
            <AltitudeMeters>215</AltitudeMeters>
            <DistanceMeters>1624.6251906093</DistanceMeters>
          </Trackpoint>
          <Trackpoint>
            <Time>2019-01-04T09:33:17.000Z</Time>
            <Position>
              <LatitudeDegrees>36.53366826474666595458984375</LatitudeDegrees>
              <LongitudeDegrees>-5.3951727412641048431396484375</LongitudeDegrees>
            </Position>
            <AltitudeMeters>215</AltitudeMeters>
            <DistanceMeters>1625.9071710743</DistanceMeters>
          </Trackpoint>
          <Trackpoint>
            <Time>2019-01-04T09:33:18.000Z</Time>
            <Position>
              <LatitudeDegrees>36.53365619480609893798828125</LatitudeDegrees>
              <LongitudeDegrees>-5.39517299272119998931884765625</LongitudeDegrees>
            </Position>
            <AltitudeMeters>215</AltitudeMeters>
            <DistanceMeters>1627.2510517568</DistanceMeters>
          </Trackpoint>
          <Trackpoint>
            <Time>2019-01-04T09:33:19.000Z</Time>
            <Position>
              <LatitudeDegrees>36.53364085592329502105712890625</LatitudeDegrees>
              <LongitudeDegrees>-5.395171903073787689208984375</LongitudeDegrees>
            </Position>
            <AltitudeMeters>215</AltitudeMeters>
            <DistanceMeters>1628.9615326155</DistanceMeters>
          </Trackpoint>
          <Trackpoint>
            <Time>2019-01-04T09:33:20.000Z</Time>
            <Position>
              <LatitudeDegrees>36.5336273610591888427734375</LatitudeDegrees>
              <LongitudeDegrees>-5.39517223834991455078125</LongitudeDegrees>
            </Position>
            <AltitudeMeters>215.1999969482421875</AltitudeMeters>
            <DistanceMeters>1630.4640368954</DistanceMeters>
          </Trackpoint>
          <Trackpoint>
            <Time>2019-01-04T09:33:21.000Z</Time>
            <Position>
              <LatitudeDegrees>36.5336151234805583953857421875</LatitudeDegrees>
              <LongitudeDegrees>-5.395172573626041412353515625</LongitudeDegrees>
            </Position>
            <AltitudeMeters>215.1999969482421875</AltitudeMeters>
            <DistanceMeters>1631.8279268277</DistanceMeters>
          </Trackpoint>
          <Trackpoint>
            <Time>2019-01-04T09:33:22.000Z</Time>
            <Position>
              <LatitudeDegrees>36.533600203692913055419921875</LatitudeDegrees>
              <LongitudeDegrees>-5.39517282508313655853271484375</LongitudeDegrees>
            </Position>
            <AltitudeMeters>215.399993896484375</AltitudeMeters>
            <DistanceMeters>1633.4874970478</DistanceMeters>
          </Trackpoint>
          <Trackpoint>
            <Time>2019-01-04T09:33:23.000Z</Time>
            <Position>
              <LatitudeDegrees>36.53358570300042629241943359375</LatitudeDegrees>
              <LongitudeDegrees>-5.39517483673989772796630859375</LongitudeDegrees>
            </Position>
            <AltitudeMeters>215.399993896484375</AltitudeMeters>
            <DistanceMeters>1635.1113142547</DistanceMeters>
          </Trackpoint>
          <Trackpoint>
            <Time>2019-01-04T09:33:24.000Z</Time>
            <Position>
              <LatitudeDegrees>36.53357078321278095245361328125</LatitudeDegrees>
              <LongitudeDegrees>-5.39517584256827831268310546875</LongitudeDegrees>
            </Position>
            <AltitudeMeters>215.399993896484375</AltitudeMeters>
            <DistanceMeters>1636.7736028554</DistanceMeters>
          </Trackpoint>
          <Trackpoint>
            <Time>2019-01-04T09:33:25.000Z</Time>
            <Position>
              <LatitudeDegrees>36.5335561148822307586669921875</LatitudeDegrees>
              <LongitudeDegrees>-5.3951762616634368896484375</LongitudeDegrees>
            </Position>
            <AltitudeMeters>215.600006103515625</AltitudeMeters>
            <DistanceMeters>1638.4029715904</DistanceMeters>
          </Trackpoint>
          <Trackpoint>
            <Time>2019-01-04T09:33:26.000Z</Time>
            <Position>
              <LatitudeDegrees>36.53354220092296600341796875</LatitudeDegrees>
              <LongitudeDegrees>-5.39517466910183429718017578125</LongitudeDegrees>
            </Position>
            <AltitudeMeters>215.600006103515625</AltitudeMeters>
            <DistanceMeters>1639.9528103994</DistanceMeters>
          </Trackpoint>
          <Trackpoint>
            <Time>2019-01-04T09:33:27.000Z</Time>
            <Position>
              <LatitudeDegrees>36.53352853842079639434814453125</LatitudeDegrees>
              <LongitudeDegrees>-5.39517148397862911224365234375</LongitudeDegrees>
            </Position>
            <AltitudeMeters>215.600006103515625</AltitudeMeters>
            <DistanceMeters>1641.4997332345</DistanceMeters>
          </Trackpoint>
          <Trackpoint>
            <Time>2019-01-04T09:33:28.000Z</Time>
            <Position>
              <LatitudeDegrees>36.53351764194667339324951171875</LatitudeDegrees>
              <LongitudeDegrees>-5.3951653651893138885498046875</LongitudeDegrees>
            </Position>
            <AltitudeMeters>215.600006103515625</AltitudeMeters>
            <DistanceMeters>1642.8267090845</DistanceMeters>
          </Trackpoint>
          <Trackpoint>
            <Time>2019-01-04T09:33:29.000Z</Time>
            <Position>
              <LatitudeDegrees>36.5335039794445037841796875</LatitudeDegrees>
              <LongitudeDegrees>-5.39515958167612552642822265625</LongitudeDegrees>
            </Position>
            <AltitudeMeters>215.600006103515625</AltitudeMeters>
            <DistanceMeters>1644.4337566454</DistanceMeters>
          </Trackpoint>
          <Trackpoint>
            <Time>2019-01-04T09:33:30.000Z</Time>
            <Position>
              <LatitudeDegrees>36.53348864056169986724853515625</LatitudeDegrees>
              <LongitudeDegrees>-5.39515706710517406463623046875</LongitudeDegrees>
            </Position>
            <AltitudeMeters>215.600006103515625</AltitudeMeters>
            <DistanceMeters>1646.1573851292</DistanceMeters>
          </Trackpoint>
          <Trackpoint>
            <Time>2019-01-04T09:33:31.000Z</Time>
            <Position>
              <LatitudeDegrees>36.5334784984588623046875</LatitudeDegrees>
              <LongitudeDegrees>-5.39515254087746143341064453125</LongitudeDegrees>
            </Position>
            <AltitudeMeters>215.600006103515625</AltitudeMeters>
            <DistanceMeters>1647.3556264048</DistanceMeters>
          </Trackpoint>
          <Trackpoint>
            <Time>2019-01-04T09:33:32.000Z</Time>
            <Position>
              <LatitudeDegrees>36.53346986509859561920166015625</LatitudeDegrees>
              <LongitudeDegrees>-5.39514533244073390960693359375</LongitudeDegrees>
            </Position>
            <AltitudeMeters>215.600006103515625</AltitudeMeters>
            <DistanceMeters>1648.5116762799</DistanceMeters>
          </Trackpoint>
          <Trackpoint>
            <Time>2019-01-04T09:33:33.000Z</Time>
            <Position>
              <LatitudeDegrees>36.53345863334834575653076171875</LatitudeDegrees>
              <LongitudeDegrees>-5.39514030329883098602294921875</LongitudeDegrees>
            </Position>
            <AltitudeMeters>215.399993896484375</AltitudeMeters>
            <DistanceMeters>1649.8420502811</DistanceMeters>
          </Trackpoint>
          <Trackpoint>
            <Time>2019-01-04T09:33:34.000Z</Time>
            <Position>
              <LatitudeDegrees>36.53344639576971530914306640625</LatitudeDegrees>
              <LongitudeDegrees>-5.39513242430984973907470703125</LongitudeDegrees>
            </Position>
            <AltitudeMeters>215.399993896484375</AltitudeMeters>
            <DistanceMeters>1651.3743100095</DistanceMeters>
          </Trackpoint>
          <Trackpoint>
            <Time>2019-01-04T09:33:35.000Z</Time>
            <Position>
              <LatitudeDegrees>36.53343684040009975433349609375</LatitudeDegrees>
              <LongitudeDegrees>-5.395129658281803131103515625</LongitudeDegrees>
            </Position>
            <AltitudeMeters>215.399993896484375</AltitudeMeters>
            <DistanceMeters>1652.461940468</DistanceMeters>
          </Trackpoint>
          <Trackpoint>
            <Time>2019-01-04T09:33:36.000Z</Time>
            <Position>
              <LatitudeDegrees>36.533425189554691314697265625</LatitudeDegrees>
              <LongitudeDegrees>-5.3951264731585979461669921875</LongitudeDegrees>
            </Position>
            <AltitudeMeters>215.1999969482421875</AltitudeMeters>
            <DistanceMeters>1653.788916318</DistanceMeters>
          </Trackpoint>
          <Trackpoint>
            <Time>2019-01-04T09:33:37.000Z</Time>
            <Position>
              <LatitudeDegrees>36.53341219760477542877197265625</LatitudeDegrees>
              <LongitudeDegrees>-5.39512253366410732269287109375</LongitudeDegrees>
            </Position>
            <AltitudeMeters>215.1999969482421875</AltitudeMeters>
            <DistanceMeters>1655.279352095</DistanceMeters>
          </Trackpoint>
          <Trackpoint>
            <Time>2019-01-04T09:33:38.000Z</Time>
            <Position>
              <LatitudeDegrees>36.53340012766420841217041015625</LatitudeDegrees>
              <LongitudeDegrees>-5.39512060582637786865234375</LongitudeDegrees>
            </Position>
            <AltitudeMeters>215.1999969482421875</AltitudeMeters>
            <DistanceMeters>1656.6332743668</DistanceMeters>
          </Trackpoint>
          <Trackpoint>
            <Time>2019-01-04T09:33:39.000Z</Time>
            <Position>
              <LatitudeDegrees>36.533388979732990264892578125</LatitudeDegrees>
              <LongitudeDegrees>-5.39511926472187042236328125</LongitudeDegrees>
            </Position>
            <AltitudeMeters>215.1999969482421875</AltitudeMeters>
            <DistanceMeters>1657.8795380421</DistanceMeters>
          </Trackpoint>
          <Trackpoint>
            <Time>2019-01-04T09:33:40.000Z</Time>
            <Position>
              <LatitudeDegrees>36.533377580344676971435546875</LatitudeDegrees>
              <LongitudeDegrees>-5.39511666633188724517822265625</LongitudeDegrees>
            </Position>
            <AltitudeMeters>215.1999969482421875</AltitudeMeters>
            <DistanceMeters>1659.1685431102</DistanceMeters>
          </Trackpoint>
          <Trackpoint>
            <Time>2019-01-04T09:33:41.000Z</Time>
            <Position>
              <LatitudeDegrees>36.53336517512798309326171875</LatitudeDegrees>
              <LongitudeDegrees>-5.3951065242290496826171875</LongitudeDegrees>
            </Position>
            <AltitudeMeters>215.1999969482421875</AltitudeMeters>
            <DistanceMeters>1660.8199313402</DistanceMeters>
          </Trackpoint>
          <Trackpoint>
            <Time>2019-01-04T09:33:42.000Z</Time>
            <Position>
              <LatitudeDegrees>36.5333539433777332305908203125</LatitudeDegrees>
              <LongitudeDegrees>-5.39509587921202182769775390625</LongitudeDegrees>
            </Position>
            <AltitudeMeters>215.1999969482421875</AltitudeMeters>
            <DistanceMeters>1662.3929033506</DistanceMeters>
          </Trackpoint>
          <Trackpoint>
            <Time>2019-01-04T09:33:43.000Z</Time>
            <Position>
              <LatitudeDegrees>36.5333432145416736602783203125</LatitudeDegrees>
              <LongitudeDegrees>-5.39508850313723087310791015625</LongitudeDegrees>
            </Position>
            <AltitudeMeters>215.1999969482421875</AltitudeMeters>
            <DistanceMeters>1663.7567932829</DistanceMeters>
          </Trackpoint>
          <Trackpoint>
            <Time>2019-01-04T09:33:44.000Z</Time>
            <Position>
              <LatitudeDegrees>36.533330976963043212890625</LatitudeDegrees>
              <LongitudeDegrees>-5.39508037269115447998046875</LongitudeDegrees>
            </Position>
            <AltitudeMeters>215</AltitudeMeters>
            <DistanceMeters>1665.3007946369</DistanceMeters>
          </Trackpoint>
          <Trackpoint>
            <Time>2019-01-04T09:33:45.000Z</Time>
            <Position>
              <LatitudeDegrees>36.53331882320344448089599609375</LatitudeDegrees>
              <LongitudeDegrees>-5.3950703144073486328125</LongitudeDegrees>
            </Position>
            <AltitudeMeters>215</AltitudeMeters>
            <DistanceMeters>1666.9246118439</DistanceMeters>
          </Trackpoint>
          <Trackpoint>
            <Time>2019-01-04T09:33:46.000Z</Time>
            <Position>
              <LatitudeDegrees>36.53330574743449687957763671875</LatitudeDegrees>
              <LongitudeDegrees>-5.3950609266757965087890625</LongitudeDegrees>
            </Position>
            <AltitudeMeters>214.8000030517578125</AltitudeMeters>
            <DistanceMeters>1668.6031182784</DistanceMeters>
          </Trackpoint>
          <Trackpoint>
            <Time>2019-01-04T09:33:47.000Z</Time>
            <Position>
              <LatitudeDegrees>36.53329166583716869354248046875</LatitudeDegrees>
              <LongitudeDegrees>-5.39505111984908580780029296875</LongitudeDegrees>
            </Position>
            <AltitudeMeters>214.600006103515625</AltitudeMeters>
            <DistanceMeters>1670.3985951762</DistanceMeters>
          </Trackpoint>
          <Trackpoint>
            <Time>2019-01-04T09:33:48.000Z</Time>
            <Position>
              <LatitudeDegrees>36.53327607549726963043212890625</LatitudeDegrees>
              <LongitudeDegrees>-5.39504022337496280670166015625</LongitudeDegrees>
            </Position>
            <AltitudeMeters>214.399993896484375</AltitudeMeters>
            <DistanceMeters>1672.3896259541</DistanceMeters>
          </Trackpoint>
          <Trackpoint>
            <Time>2019-01-04T09:33:49.000Z</Time>
            <Position>
              <LatitudeDegrees>36.5332617424428462982177734375</LatitudeDegrees>
              <LongitudeDegrees>-5.39503804408013820648193359375</LongitudeDegrees>
            </Position>
            <AltitudeMeters>214.1999969482421875</AltitudeMeters>
            <DistanceMeters>1673.996673515</DistanceMeters>
          </Trackpoint>
          <Trackpoint>
            <Time>2019-01-04T09:33:50.000Z</Time>
            <Position>
              <LatitudeDegrees>36.53324623592197895050048828125</LatitudeDegrees>
              <LongitudeDegrees>-5.3950416482985019683837890625</LongitudeDegrees>
            </Position>
            <AltitudeMeters>214</AltitudeMeters>
            <DistanceMeters>1675.7540255412</DistanceMeters>
          </Trackpoint>
          <Trackpoint>
            <Time>2019-01-04T09:33:51.000Z</Time>
            <Position>
              <LatitudeDegrees>36.533232741057872772216796875</LatitudeDegrees>
              <LongitudeDegrees>-5.39504944346845149993896484375</LongitudeDegrees>
            </Position>
            <AltitudeMeters>214</AltitudeMeters>
            <DistanceMeters>1677.4135957613</DistanceMeters>
          </Trackpoint>
          <Trackpoint>
            <Time>2019-01-04T09:33:52.000Z</Time>
            <Position>
              <LatitudeDegrees>36.533219330012798309326171875</LatitudeDegrees>
              <LongitudeDegrees>-5.39505749009549617767333984375</LongitudeDegrees>
            </Position>
            <AltitudeMeters>213.8000030517578125</AltitudeMeters>
            <DistanceMeters>1679.0704431408</DistanceMeters>
          </Trackpoint>
          <Trackpoint>
            <Time>2019-01-04T09:33:53.000Z</Time>
            <Position>
              <LatitudeDegrees>36.533208601176738739013671875</LatitudeDegrees>
              <LongitudeDegrees>-5.39506872184574604034423828125</LongitudeDegrees>
            </Position>
            <AltitudeMeters>213.8000030517578125</AltitudeMeters>
            <DistanceMeters>1680.6289971384</DistanceMeters>
          </Trackpoint>
          <Trackpoint>
            <Time>2019-01-04T09:33:54.000Z</Time>
            <Position>
              <LatitudeDegrees>36.533198542892932891845703125</LatitudeDegrees>
              <LongitudeDegrees>-5.3950805403292179107666015625</LongitudeDegrees>
            </Position>
            <AltitudeMeters>213.8000030517578125</AltitudeMeters>
            <DistanceMeters>1682.1671388836</DistanceMeters>
          </Trackpoint>
          <Trackpoint>
            <Time>2019-01-04T09:33:55.000Z</Time>
            <Position>
              <LatitudeDegrees>36.533189825713634490966796875</LatitudeDegrees>
              <LongitudeDegrees>-5.39509068243205547332763671875</LongitudeDegrees>
            </Position>
            <AltitudeMeters>213.8000030517578125</AltitudeMeters>
            <DistanceMeters>1683.4975128848</DistanceMeters>
          </Trackpoint>
          <Trackpoint>
            <Time>2019-01-04T09:33:56.000Z</Time>
            <Position>
              <LatitudeDegrees>36.5331821143627166748046875</LatitudeDegrees>
              <LongitudeDegrees>-5.39510141126811504364013671875</LongitudeDegrees>
            </Position>
            <AltitudeMeters>213.8000030517578125</AltitudeMeters>
            <DistanceMeters>1684.7865179529</DistanceMeters>
          </Trackpoint>
          <Trackpoint>
            <Time>2019-01-04T09:33:57.000Z</Time>
            <Position>
              <LatitudeDegrees>36.53317272663116455078125</LatitudeDegrees>
              <LongitudeDegrees>-5.39511364884674549102783203125</LongitudeDegrees>
            </Position>
            <AltitudeMeters>214.1999969482421875</AltitudeMeters>
            <DistanceMeters>1686.2950202777</DistanceMeters>
          </Trackpoint>
          <Trackpoint>
            <Time>2019-01-04T09:33:58.000Z</Time>
            <Position>
              <LatitudeDegrees>36.53316560201346874237060546875</LatitudeDegrees>
              <LongitudeDegrees>-5.39512521587312221527099609375</LongitudeDegrees>
            </Position>
            <AltitudeMeters>214.399993896484375</AltitudeMeters>
            <DistanceMeters>1687.6014216126</DistanceMeters>
          </Trackpoint>
          <Trackpoint>
            <Time>2019-01-04T09:33:59.000Z</Time>
            <Position>
              <LatitudeDegrees>36.5331566333770751953125</LatitudeDegrees>
              <LongitudeDegrees>-5.39513627998530864715576171875</LongitudeDegrees>
            </Position>
            <AltitudeMeters>214.600006103515625</AltitudeMeters>
            <DistanceMeters>1689.0044742363</DistanceMeters>
          </Trackpoint>
          <Trackpoint>
            <Time>2019-01-04T09:34:00.000Z</Time>
            <Position>
              <LatitudeDegrees>36.533150263130664825439453125</LatitudeDegrees>
              <LongitudeDegrees>-5.39514935575425624847412109375</LongitudeDegrees>
            </Position>
            <AltitudeMeters>214.600006103515625</AltitudeMeters>
            <DistanceMeters>1690.3749690011</DistanceMeters>
          </Trackpoint>
          <Trackpoint>
            <Time>2019-01-04T09:34:01.000Z</Time>
            <Position>
              <LatitudeDegrees>36.53314297087490558624267578125</LatitudeDegrees>
              <LongitudeDegrees>-5.3951640240848064422607421875</LongitudeDegrees>
            </Position>
            <AltitudeMeters>214.8000030517578125</AltitudeMeters>
            <DistanceMeters>1691.9131107463</DistanceMeters>
          </Trackpoint>
          <Trackpoint>
            <Time>2019-01-04T09:34:02.000Z</Time>
            <Position>
              <LatitudeDegrees>36.5331366844475269317626953125</LatitudeDegrees>
              <LongitudeDegrees>-5.39518154226243495941162109375</LongitudeDegrees>
            </Position>
            <AltitudeMeters>214.8000030517578125</AltitudeMeters>
            <DistanceMeters>1693.6288627449</DistanceMeters>
          </Trackpoint>
          <Trackpoint>
            <Time>2019-01-04T09:34:03.000Z</Time>
            <Position>
              <LatitudeDegrees>36.53312972746789455413818359375</LatitudeDegrees>
              <LongitudeDegrees>-5.3951978869736194610595703125</LongitudeDegrees>
            </Position>
            <AltitudeMeters>214.8000030517578125</AltitudeMeters>
            <DistanceMeters>1695.2857101244</DistanceMeters>
          </Trackpoint>
          <Trackpoint>
            <Time>2019-01-04T09:34:04.000Z</Time>
            <Position>
              <LatitudeDegrees>36.53312218375504016876220703125</LatitudeDegrees>
              <LongitudeDegrees>-5.3952143155038356781005859375</LongitudeDegrees>
            </Position>
            <AltitudeMeters>214.8000030517578125</AltitudeMeters>
            <DistanceMeters>1696.9776126726</DistanceMeters>
          </Trackpoint>
          <Trackpoint>
            <Time>2019-01-04T09:34:05.000Z</Time>
            <Position>
              <LatitudeDegrees>36.53311572968959808349609375</LatitudeDegrees>
              <LongitudeDegrees>-5.3952307440340518951416015625</LongitudeDegrees>
            </Position>
            <AltitudeMeters>214.8000030517578125</AltitudeMeters>
            <DistanceMeters>1698.6125140848</DistanceMeters>
          </Trackpoint>
          <Trackpoint>
            <Time>2019-01-04T09:34:06.000Z</Time>
            <Position>
              <LatitudeDegrees>36.53310843743383884429931640625</LatitudeDegrees>
              <LongitudeDegrees>-5.3952465020120143890380859375</LongitudeDegrees>
            </Position>
            <AltitudeMeters>214.8000030517578125</AltitudeMeters>
            <DistanceMeters>1700.2418828197</DistanceMeters>
          </Trackpoint>
          <Trackpoint>
            <Time>2019-01-04T09:34:07.000Z</Time>
            <Position>
              <LatitudeDegrees>36.5331018157303333282470703125</LatitudeDegrees>
              <LongitudeDegrees>-5.3952634334564208984375</LongitudeDegrees>
            </Position>
            <AltitudeMeters>214.8000030517578125</AltitudeMeters>
            <DistanceMeters>1701.9257604885</DistanceMeters>
          </Trackpoint>
          <Trackpoint>
            <Time>2019-01-04T09:34:08.000Z</Time>
            <Position>
              <LatitudeDegrees>36.53309536166489124298095703125</LatitudeDegrees>
              <LongitudeDegrees>-5.39527617394924163818359375</LongitudeDegrees>
            </Position>
            <AltitudeMeters>214.8000030517578125</AltitudeMeters>
            <DistanceMeters>1703.2763438594</DistanceMeters>
          </Trackpoint>
          <Trackpoint>
            <Time>2019-01-04T09:34:09.000Z</Time>
            <Position>
              <LatitudeDegrees>36.5330877341330051422119140625</LatitudeDegrees>
              <LongitudeDegrees>-5.3952890820801258087158203125</LongitudeDegrees>
            </Position>
            <AltitudeMeters>214.8000030517578125</AltitudeMeters>
            <DistanceMeters>1704.7112157802</DistanceMeters>
          </Trackpoint>
          <Trackpoint>
            <Time>2019-01-04T09:34:10.000Z</Time>
            <Position>
              <LatitudeDegrees>36.53307759203016757965087890625</LatitudeDegrees>
              <LongitudeDegrees>-5.3953021578490734100341796875</LongitudeDegrees>
            </Position>
            <AltitudeMeters>215</AltitudeMeters>
            <DistanceMeters>1706.3378111196</DistanceMeters>
          </Trackpoint>
          <Trackpoint>
            <Time>2019-01-04T09:34:11.000Z</Time>
            <Position>
              <LatitudeDegrees>36.53306602500379085540771484375</LatitudeDegrees>
              <LongitudeDegrees>-5.39531297050416469573974609375</LongitudeDegrees>
            </Position>
            <AltitudeMeters>215</AltitudeMeters>
            <DistanceMeters>1707.9448586805</DistanceMeters>
          </Trackpoint>
          <Trackpoint>
            <Time>2019-01-04T09:34:12.000Z</Time>
            <Position>
              <LatitudeDegrees>36.53305730782449245452880859375</LatitudeDegrees>
              <LongitudeDegrees>-5.39532604627311229705810546875</LongitudeDegrees>
            </Position>
            <AltitudeMeters>215</AltitudeMeters>
            <DistanceMeters>1709.4652861104</DistanceMeters>
          </Trackpoint>
          <Trackpoint>
            <Time>2019-01-04T09:34:13.000Z</Time>
            <Position>
              <LatitudeDegrees>36.533049680292606353759765625</LatitudeDegrees>
              <LongitudeDegrees>-5.395338870584964752197265625</LongitudeDegrees>
            </Position>
            <AltitudeMeters>215</AltitudeMeters>
            <DistanceMeters>1710.8875157415</DistanceMeters>
          </Trackpoint>
          <Trackpoint>
            <Time>2019-01-04T09:34:14.000Z</Time>
            <Position>
              <LatitudeDegrees>36.53304188512265682220458984375</LatitudeDegrees>
              <LongitudeDegrees>-5.39535286836326122283935546875</LongitudeDegrees>
            </Position>
            <AltitudeMeters>215</AltitudeMeters>
            <DistanceMeters>1712.4109098619</DistanceMeters>
          </Trackpoint>
          <Trackpoint>
            <Time>2019-01-04T09:34:15.000Z</Time>
            <Position>
              <LatitudeDegrees>36.53303400613367557525634765625</LatitudeDegrees>
              <LongitudeDegrees>-5.395367033779621124267578125</LongitudeDegrees>
            </Position>
            <AltitudeMeters>215</AltitudeMeters>
            <DistanceMeters>1713.9519841965</DistanceMeters>
          </Trackpoint>
          <Trackpoint>
            <Time>2019-01-04T09:34:16.000Z</Time>
            <Position>
              <LatitudeDegrees>36.5330267138779163360595703125</LatitudeDegrees>
              <LongitudeDegrees>-5.39538354612886905670166015625</LongitudeDegrees>
            </Position>
            <AltitudeMeters>215</AltitudeMeters>
            <DistanceMeters>1715.6358618653</DistanceMeters>
          </Trackpoint>
          <Trackpoint>
            <Time>2019-01-04T09:34:17.000Z</Time>
            <Position>
              <LatitudeDegrees>36.533022187650203704833984375</LatitudeDegrees>
              <LongitudeDegrees>-5.3954003937542438507080078125</LongitudeDegrees>
            </Position>
            <AltitudeMeters>214.8000030517578125</AltitudeMeters>
            <DistanceMeters>1717.2231209266</DistanceMeters>
          </Trackpoint>
          <Trackpoint>
            <Time>2019-01-04T09:34:18.000Z</Time>
            <Position>
              <LatitudeDegrees>36.53301774524152278900146484375</LatitudeDegrees>
              <LongitudeDegrees>-5.39541606791317462921142578125</LongitudeDegrees>
            </Position>
            <AltitudeMeters>214.8000030517578125</AltitudeMeters>
            <DistanceMeters>1718.7135567036</DistanceMeters>
          </Trackpoint>
          <Trackpoint>
            <Time>2019-01-04T09:34:19.000Z</Time>
            <Position>
              <LatitudeDegrees>36.5330119617283344268798828125</LatitudeDegrees>
              <LongitudeDegrees>-5.39543174207210540771484375</LongitudeDegrees>
            </Position>
            <AltitudeMeters>214.8000030517578125</AltitudeMeters>
            <DistanceMeters>1720.2633955126</DistanceMeters>
          </Trackpoint>
          <Trackpoint>
            <Time>2019-01-04T09:34:20.000Z</Time>
            <Position>
              <LatitudeDegrees>36.53300349600613117218017578125</LatitudeDegrees>
              <LongitudeDegrees>-5.39544758386909961700439453125</LongitudeDegrees>
            </Position>
            <AltitudeMeters>214.8000030517578125</AltitudeMeters>
            <DistanceMeters>1721.9632850567</DistanceMeters>
          </Trackpoint>
          <Trackpoint>
            <Time>2019-01-04T09:34:21.000Z</Time>
            <Position>
              <LatitudeDegrees>36.53299645520746707916259765625</LatitudeDegrees>
              <LongitudeDegrees>-5.3954624198377132415771484375</LongitudeDegrees>
            </Position>
            <AltitudeMeters>215</AltitudeMeters>
            <DistanceMeters>1723.5072864107</DistanceMeters>
          </Trackpoint>
          <Trackpoint>
            <Time>2019-01-04T09:34:22.000Z</Time>
            <Position>
              <LatitudeDegrees>36.53298689983785152435302734375</LatitudeDegrees>
              <LongitudeDegrees>-5.39547608233988285064697265625</LongitudeDegrees>
            </Position>
            <AltitudeMeters>215</AltitudeMeters>
            <DistanceMeters>1725.1255330448</DistanceMeters>
          </Trackpoint>
          <Trackpoint>
            <Time>2019-01-04T09:34:23.000Z</Time>
            <Position>
              <LatitudeDegrees>36.53297885321080684661865234375</LatitudeDegrees>
              <LongitudeDegrees>-5.39549033157527446746826171875</LongitudeDegrees>
            </Position>
            <AltitudeMeters>215</AltitudeMeters>
            <DistanceMeters>1726.6811874046</DistanceMeters>
          </Trackpoint>
          <Trackpoint>
            <Time>2019-01-04T09:34:24.000Z</Time>
            <Position>
              <LatitudeDegrees>36.53297231532633304595947265625</LatitudeDegrees>
              <LongitudeDegrees>-5.39550441317260265350341796875</LongitudeDegrees>
            </Position>
            <AltitudeMeters>215</AltitudeMeters>
            <DistanceMeters>1728.1348166172</DistanceMeters>
          </Trackpoint>
          <Trackpoint>
            <Time>2019-01-04T09:34:25.000Z</Time>
            <Position>
              <LatitudeDegrees>36.53296343050897121429443359375</LatitudeDegrees>
              <LongitudeDegrees>-5.39551698602735996246337890625</LongitudeDegrees>
            </Position>
            <AltitudeMeters>215.1999969482421875</AltitudeMeters>
            <DistanceMeters>1729.6312988116</DistanceMeters>
          </Trackpoint>
          <Trackpoint>
            <Time>2019-01-04T09:34:26.000Z</Time>
            <Position>
              <LatitudeDegrees>36.53295253403484821319580078125</LatitudeDegrees>
              <LongitudeDegrees>-5.39552385918796062469482421875</LongitudeDegrees>
            </Position>
            <AltitudeMeters>215.1999969482421875</AltitudeMeters>
            <DistanceMeters>1730.9918743042</DistanceMeters>
          </Trackpoint>
          <Trackpoint>
            <Time>2019-01-04T09:34:27.000Z</Time>
            <Position>
              <LatitudeDegrees>36.5329425595700740814208984375</LatitudeDegrees>
              <LongitudeDegrees>-5.3955291397869586944580078125</LongitudeDegrees>
            </Position>
            <AltitudeMeters>215.1999969482421875</AltitudeMeters>
            <DistanceMeters>1732.2013669184</DistanceMeters>
          </Trackpoint>
          <Trackpoint>
            <Time>2019-01-04T09:34:28.000Z</Time>
            <Position>
              <LatitudeDegrees>36.5329353511333465576171875</LatitudeDegrees>
              <LongitudeDegrees>-5.3955391980707645416259765625</LongitudeDegrees>
            </Position>
            <AltitudeMeters>215.1999969482421875</AltitudeMeters>
            <DistanceMeters>1733.4033703423</DistanceMeters>
          </Trackpoint>
          <Trackpoint>
            <Time>2019-01-04T09:34:29.000Z</Time>
            <Position>
              <LatitudeDegrees>36.5329281426966190338134765625</LatitudeDegrees>
              <LongitudeDegrees>-5.39555101655423641204833984375</LongitudeDegrees>
            </Position>
            <AltitudeMeters>215.1999969482421875</AltitudeMeters>
            <DistanceMeters>1734.7269393168</DistanceMeters>
          </Trackpoint>
          <Trackpoint>
            <Time>2019-01-04T09:34:30.000Z</Time>
            <Position>
              <LatitudeDegrees>36.53291992843151092529296875</LatitudeDegrees>
              <LongitudeDegrees>-5.39556308649480342864990234375</LongitudeDegrees>
            </Position>
            <AltitudeMeters>215.1999969482421875</AltitudeMeters>
            <DistanceMeters>1736.1428054723</DistanceMeters>
          </Trackpoint>
          <Trackpoint>
            <Time>2019-01-04T09:34:31.000Z</Time>
            <Position>
              <LatitudeDegrees>36.53291188180446624755859375</LatitudeDegrees>
              <LongitudeDegrees>-5.395574904978275299072265625</LongitudeDegrees>
            </Position>
            <AltitudeMeters>215.1999969482421875</AltitudeMeters>
            <DistanceMeters>1737.5329264595</DistanceMeters>
          </Trackpoint>
          <Trackpoint>
            <Time>2019-01-04T09:34:32.000Z</Time>
            <Position>
              <LatitudeDegrees>36.53290207497775554656982421875</LatitudeDegrees>
              <LongitudeDegrees>-5.3955866396427154541015625</LongitudeDegrees>
            </Position>
            <AltitudeMeters>215</AltitudeMeters>
            <DistanceMeters>1739.0474030743</DistanceMeters>
          </Trackpoint>
          <Trackpoint>
            <Time>2019-01-04T09:34:33.000Z</Time>
            <Position>
              <LatitudeDegrees>36.53289469890296459197998046875</LatitudeDegrees>
              <LongitudeDegrees>-5.39559929631650447845458984375</LongitudeDegrees>
            </Position>
            <AltitudeMeters>215</AltitudeMeters>
            <DistanceMeters>1740.450455698</DistanceMeters>
          </Trackpoint>
          <Trackpoint>
            <Time>2019-01-04T09:34:34.000Z</Time>
            <Position>
              <LatitudeDegrees>36.5328870713710784912109375</LatitudeDegrees>
              <LongitudeDegrees>-5.3956122882664203643798828125</LongitudeDegrees>
            </Position>
            <AltitudeMeters>214.8000030517578125</AltitudeMeters>
            <DistanceMeters>1741.8916071758</DistanceMeters>
          </Trackpoint>
          <Trackpoint>
            <Time>2019-01-04T09:34:35.000Z</Time>
            <Position>
              <LatitudeDegrees>36.53287877328693866729736328125</LatitudeDegrees>
              <LongitudeDegrees>-5.3956267051398754119873046875</LongitudeDegrees>
            </Position>
            <AltitudeMeters>214.8000030517578125</AltitudeMeters>
            <DistanceMeters>1743.4760191335</DistanceMeters>
          </Trackpoint>
          <Trackpoint>
            <Time>2019-01-04T09:34:36.000Z</Time>
            <Position>
              <LatitudeDegrees>36.53287156485021114349365234375</LatitudeDegrees>
              <LongitudeDegrees>-5.39564020000398159027099609375</LongitudeDegrees>
            </Position>
            <AltitudeMeters>214.8000030517578125</AltitudeMeters>
            <DistanceMeters>1744.9203001513</DistanceMeters>
          </Trackpoint>
          <Trackpoint>
            <Time>2019-01-04T09:34:37.000Z</Time>
            <Position>
              <LatitudeDegrees>36.5328614227473735809326171875</LatitudeDegrees>
              <LongitudeDegrees>-5.3956535272300243377685546875</LongitudeDegrees>
            </Position>
            <AltitudeMeters>214.8000030517578125</AltitudeMeters>
            <DistanceMeters>1746.566211125</DistanceMeters>
          </Trackpoint>
          <Trackpoint>
            <Time>2019-01-04T09:34:38.000Z</Time>
            <Position>
              <LatitudeDegrees>36.53285128064453601837158203125</LatitudeDegrees>
              <LongitudeDegrees>-5.3956639207899570465087890625</LongitudeDegrees>
            </Position>
            <AltitudeMeters>214.600006103515625</AltitudeMeters>
            <DistanceMeters>1748.026039211</DistanceMeters>
          </Trackpoint>
          <Trackpoint>
            <Time>2019-01-04T09:34:39.000Z</Time>
            <Position>
              <LatitudeDegrees>36.532841809093952178955078125</LatitudeDegrees>
              <LongitudeDegrees>-5.3956733085215091705322265625</LongitudeDegrees>
            </Position>
            <AltitudeMeters>214.600006103515625</AltitudeMeters>
            <DistanceMeters>1749.3699198935</DistanceMeters>
          </Trackpoint>
          <Trackpoint>
            <Time>2019-01-04T09:34:40.000Z</Time>
            <Position>
              <LatitudeDegrees>36.53283149935305118560791015625</LatitudeDegrees>
              <LongitudeDegrees>-5.3956840373575687408447265625</LongitudeDegrees>
            </Position>
            <AltitudeMeters>214.600006103515625</AltitudeMeters>
            <DistanceMeters>1750.8664020879</DistanceMeters>
          </Trackpoint>
          <Trackpoint>
            <Time>2019-01-04T09:34:41.000Z</Time>
            <Position>
              <LatitudeDegrees>36.53282043524086475372314453125</LatitudeDegrees>
              <LongitudeDegrees>-5.3956934250891208648681640625</LongitudeDegrees>
            </Position>
            <AltitudeMeters>214.600006103515625</AltitudeMeters>
            <DistanceMeters>1752.3568378648</DistanceMeters>
          </Trackpoint>
          <Trackpoint>
            <Time>2019-01-04T09:34:42.000Z</Time>
            <Position>
              <LatitudeDegrees>36.53281037695705890655517578125</LatitudeDegrees>
              <LongitudeDegrees>-5.39570423774421215057373046875</LongitudeDegrees>
            </Position>
            <AltitudeMeters>214.600006103515625</AltitudeMeters>
            <DistanceMeters>1753.8351066156</DistanceMeters>
          </Trackpoint>
          <Trackpoint>
            <Time>2019-01-04T09:34:43.000Z</Time>
            <Position>
              <LatitudeDegrees>36.53280082158744335174560546875</LatitudeDegrees>
              <LongitudeDegrees>-5.39571479894220829010009765625</LongitudeDegrees>
            </Position>
            <AltitudeMeters>214.600006103515625</AltitudeMeters>
            <DistanceMeters>1755.2573362466</DistanceMeters>
          </Trackpoint>
          <Trackpoint>
            <Time>2019-01-04T09:34:44.000Z</Time>
            <Position>
              <LatitudeDegrees>36.53279143385589122772216796875</LatitudeDegrees>
              <LongitudeDegrees>-5.3957292996346950531005859375</LongitudeDegrees>
            </Position>
            <AltitudeMeters>214.399993896484375</AltitudeMeters>
            <DistanceMeters>1756.9223387897</DistanceMeters>
          </Trackpoint>
          <Trackpoint>
            <Time>2019-01-04T09:34:45.000Z</Time>
            <Position>
              <LatitudeDegrees>36.5327822975814342498779296875</LatitudeDegrees>
              <LongitudeDegrees>-5.39574463851749897003173828125</LongitudeDegrees>
            </Position>
            <AltitudeMeters>214.399993896484375</AltitudeMeters>
            <DistanceMeters>1758.6301779775</DistanceMeters>
          </Trackpoint>
          <Trackpoint>
            <Time>2019-01-04T09:34:46.000Z</Time>
            <Position>
              <LatitudeDegrees>36.532773077487945556640625</LatitudeDegrees>
              <LongitudeDegrees>-5.39575989358127117156982421875</LongitudeDegrees>
            </Position>
            <AltitudeMeters>214.399993896484375</AltitudeMeters>
            <DistanceMeters>1760.3406588361</DistanceMeters>
          </Trackpoint>
          <Trackpoint>
            <Time>2019-01-04T09:34:47.000Z</Time>
            <Position>
              <LatitudeDegrees>36.53276142664253711700439453125</LatitudeDegrees>
              <LongitudeDegrees>-5.39577481336891651153564453125</LongitudeDegrees>
            </Position>
            <AltitudeMeters>214.399993896484375</AltitudeMeters>
            <DistanceMeters>1762.2027945332</DistanceMeters>
          </Trackpoint>
          <Trackpoint>
            <Time>2019-01-04T09:34:48.000Z</Time>
            <Position>
              <LatitudeDegrees>36.532751284539699554443359375</LatitudeDegrees>
              <LongitudeDegrees>-5.3957876376807689666748046875</LongitudeDegrees>
            </Position>
            <AltitudeMeters>214.1999969482421875</AltitudeMeters>
            <DistanceMeters>1763.8098420941</DistanceMeters>
          </Trackpoint>
          <Trackpoint>
            <Time>2019-01-04T09:34:49.000Z</Time>
            <Position>
              <LatitudeDegrees>36.5327423997223377227783203125</LatitudeDegrees>
              <LongitudeDegrees>-5.395801551640033721923828125</LongitudeDegrees>
            </Position>
            <AltitudeMeters>214.1999969482421875</AltitudeMeters>
            <DistanceMeters>1765.3999431615</DistanceMeters>
          </Trackpoint>
          <Trackpoint>
            <Time>2019-01-04T09:34:50.000Z</Time>
            <Position>
              <LatitudeDegrees>36.5327323414385318756103515625</LatitudeDegrees>
              <LongitudeDegrees>-5.39581663906574249267578125</LongitudeDegrees>
            </Position>
            <AltitudeMeters>214.1999969482421875</AltitudeMeters>
            <DistanceMeters>1767.152149197</DistanceMeters>
          </Trackpoint>
          <Trackpoint>
            <Time>2019-01-04T09:34:51.000Z</Time>
            <Position>
              <LatitudeDegrees>36.53272018767893314361572265625</LatitudeDegrees>
              <LongitudeDegrees>-5.39583264850080013275146484375</LongitudeDegrees>
            </Position>
            <AltitudeMeters>214.1999969482421875</AltitudeMeters>
            <DistanceMeters>1769.1226650865</DistanceMeters>
          </Trackpoint>
          <Trackpoint>
            <Time>2019-01-04T09:34:52.000Z</Time>
            <Position>
              <LatitudeDegrees>36.532707028090953826904296875</LatitudeDegrees>
              <LongitudeDegrees>-5.3958494961261749267578125</LongitudeDegrees>
            </Position>
            <AltitudeMeters>214.1999969482421875</AltitudeMeters>
            <DistanceMeters>1771.2218738195</DistanceMeters>
          </Trackpoint>
          <Trackpoint>
            <Time>2019-01-04T09:34:53.000Z</Time>
            <Position>
              <LatitudeDegrees>36.53269504196941852569580078125</LatitudeDegrees>
              <LongitudeDegrees>-5.39586466737091541290283203125</LongitudeDegrees>
            </Position>
            <AltitudeMeters>214.1999969482421875</AltitudeMeters>
            <DistanceMeters>1773.1224081069</DistanceMeters>
          </Trackpoint>
          <Trackpoint>
            <Time>2019-01-04T09:34:54.000Z</Time>
            <Position>
              <LatitudeDegrees>36.5326845645904541015625</LatitudeDegrees>
              <LongitudeDegrees>-5.39587967097759246826171875</LongitudeDegrees>
            </Position>
            <AltitudeMeters>214.1999969482421875</AltitudeMeters>
            <DistanceMeters>1774.9001951457</DistanceMeters>
          </Trackpoint>
          <Trackpoint>
            <Time>2019-01-04T09:34:55.000Z</Time>
            <Position>
              <LatitudeDegrees>36.5326719917356967926025390625</LatitudeDegrees>
              <LongitudeDegrees>-5.39589467458426952362060546875</LongitudeDegrees>
            </Position>
            <AltitudeMeters>214.1999969482421875</AltitudeMeters>
            <DistanceMeters>1776.8383674293</DistanceMeters>
          </Trackpoint>
          <Trackpoint>
            <Time>2019-01-04T09:34:56.000Z</Time>
            <Position>
              <LatitudeDegrees>36.53266067616641521453857421875</LatitudeDegrees>
              <LongitudeDegrees>-5.3959085047245025634765625</LongitudeDegrees>
            </Position>
            <AltitudeMeters>214.1999969482421875</AltitudeMeters>
            <DistanceMeters>1778.6008504212</DistanceMeters>
          </Trackpoint>
          <Trackpoint>
            <Time>2019-01-04T09:34:57.000Z</Time>
            <Position>
              <LatitudeDegrees>36.5326478518545627593994140625</LatitudeDegrees>
              <LongitudeDegrees>-5.395922251045703887939453125</LongitudeDegrees>
            </Position>
            <AltitudeMeters>214</AltitudeMeters>
            <DistanceMeters>1780.4846816351</DistanceMeters>
          </Trackpoint>
          <Trackpoint>
            <Time>2019-01-04T09:34:58.000Z</Time>
            <Position>
              <LatitudeDegrees>36.5326374582946300506591796875</LatitudeDegrees>
              <LongitudeDegrees>-5.39593792520463466644287109375</LongitudeDegrees>
            </Position>
            <AltitudeMeters>214.1999969482421875</AltitudeMeters>
            <DistanceMeters>1782.3026497257</DistanceMeters>
          </Trackpoint>
          <Trackpoint>
            <Time>2019-01-04T09:34:59.000Z</Time>
            <Position>
              <LatitudeDegrees>36.53262597508728504180908203125</LatitudeDegrees>
              <LongitudeDegrees>-5.39595217444002628326416015625</LongitudeDegrees>
            </Position>
            <AltitudeMeters>214.1999969482421875</AltitudeMeters>
            <DistanceMeters>1784.1081572987</DistanceMeters>
          </Trackpoint>
          <Trackpoint>
            <Time>2019-01-04T09:35:00.000Z</Time>
            <Position>
              <LatitudeDegrees>36.5326139889657497406005859375</LatitudeDegrees>
              <LongitudeDegrees>-5.3959639929234981536865234375</LongitudeDegrees>
            </Position>
            <AltitudeMeters>214.1999969482421875</AltitudeMeters>
            <DistanceMeters>1785.8133507232</DistanceMeters>
          </Trackpoint>
          <Trackpoint>
            <Time>2019-01-04T09:35:01.000Z</Time>
            <Position>
              <LatitudeDegrees>36.5326025895774364471435546875</LatitudeDegrees>
              <LongitudeDegrees>-5.39597664959728717803955078125</LongitudeDegrees>
            </Position>
            <AltitudeMeters>214.1999969482421875</AltitudeMeters>
            <DistanceMeters>1787.5158942729</DistanceMeters>
          </Trackpoint>
          <Trackpoint>
            <Time>2019-01-04T09:35:02.000Z</Time>
            <Position>
              <LatitudeDegrees>36.53259110637009143829345703125</LatitudeDegrees>
              <LongitudeDegrees>-5.3959874622523784637451171875</LongitudeDegrees>
            </Position>
            <AltitudeMeters>214.1999969482421875</AltitudeMeters>
            <DistanceMeters>1789.1201298499</DistanceMeters>
          </Trackpoint>
          <Trackpoint>
            <Time>2019-01-04T09:35:03.000Z</Time>
            <Position>
              <LatitudeDegrees>36.532579958438873291015625</LatitudeDegrees>
              <LongitudeDegrees>-5.3960008732974529266357421875</LongitudeDegrees>
            </Position>
            <AltitudeMeters>214.1999969482421875</AltitudeMeters>
            <DistanceMeters>1790.8437583336</DistanceMeters>
          </Trackpoint>
          <Trackpoint>
            <Time>2019-01-04T09:35:04.000Z</Time>
            <Position>
              <LatitudeDegrees>36.5325734205543994903564453125</LatitudeDegrees>
              <LongitudeDegrees>-5.3960156254470348358154296875</LongitudeDegrees>
            </Position>
            <AltitudeMeters>214.1999969482421875</AltitudeMeters>
            <DistanceMeters>1792.3522606584</DistanceMeters>
          </Trackpoint>
          <Trackpoint>
            <Time>2019-01-04T09:35:05.000Z</Time>
            <Position>
              <LatitudeDegrees>36.53256277553737163543701171875</LatitudeDegrees>
              <LongitudeDegrees>-5.396026857197284698486328125</LongitudeDegrees>
            </Position>
            <AltitudeMeters>214.1999969482421875</AltitudeMeters>
            <DistanceMeters>1793.9050099655</DistanceMeters>
          </Trackpoint>
          <Trackpoint>
            <Time>2019-01-04T09:35:06.000Z</Time>
            <Position>
              <LatitudeDegrees>36.53254969976842403411865234375</LatitudeDegrees>
              <LongitudeDegrees>-5.39603766985237598419189453125</LongitudeDegrees>
            </Position>
            <AltitudeMeters>214.399993896484375</AltitudeMeters>
            <DistanceMeters>1795.6520548527</DistanceMeters>
          </Trackpoint>
          <Trackpoint>
            <Time>2019-01-04T09:35:07.000Z</Time>
            <Position>
              <LatitudeDegrees>36.532538048923015594482421875</LatitudeDegrees>
              <LongitudeDegrees>-5.39605024270713329315185546875</LongitudeDegrees>
            </Position>
            <AltitudeMeters>214.399993896484375</AltitudeMeters>
            <DistanceMeters>1797.3678068513</DistanceMeters>
          </Trackpoint>
          <Trackpoint>
            <Time>2019-01-04T09:35:08.000Z</Time>
            <Position>
              <LatitudeDegrees>36.5325249731540679931640625</LatitudeDegrees>
              <LongitudeDegrees>-5.3960628993809223175048828125</LongitudeDegrees>
            </Position>
            <AltitudeMeters>214.399993896484375</AltitudeMeters>
            <DistanceMeters>1799.210443208</DistanceMeters>
          </Trackpoint>
          <Trackpoint>
            <Time>2019-01-04T09:35:09.000Z</Time>
            <Position>
              <LatitudeDegrees>36.53251131065189838409423828125</LatitudeDegrees>
              <LongitudeDegrees>-5.3960742987692356109619140625</LongitudeDegrees>
            </Position>
            <AltitudeMeters>214.1999969482421875</AltitudeMeters>
            <DistanceMeters>1801.0407869901</DistanceMeters>
          </Trackpoint>
          <Trackpoint>
            <Time>2019-01-04T09:35:10.000Z</Time>
            <Position>
              <LatitudeDegrees>36.5324976481497287750244140625</LatitudeDegrees>
              <LongitudeDegrees>-5.39608477614820003509521484375</LongitudeDegrees>
            </Position>
            <AltitudeMeters>214.1999969482421875</AltitudeMeters>
            <DistanceMeters>1802.8261768592</DistanceMeters>
          </Trackpoint>
          <Trackpoint>
            <Time>2019-01-04T09:35:11.000Z</Time>
            <Position>
              <LatitudeDegrees>36.53248608112335205078125</LatitudeDegrees>
              <LongitudeDegrees>-5.396095924079418182373046875</LongitudeDegrees>
            </Position>
            <AltitudeMeters>214.1999969482421875</AltitudeMeters>
            <DistanceMeters>1804.4555455942</DistanceMeters>
          </Trackpoint>
          <Trackpoint>
            <Time>2019-01-04T09:35:12.000Z</Time>
            <Position>
              <LatitudeDegrees>36.53247275389730930328369140625</LatitudeDegrees>
              <LongitudeDegrees>-5.39610422216355800628662109375</LongitudeDegrees>
            </Position>
            <AltitudeMeters>214.1999969482421875</AltitudeMeters>
            <DistanceMeters>1806.1151158143</DistanceMeters>
          </Trackpoint>
          <Trackpoint>
            <Time>2019-01-04T09:35:13.000Z</Time>
            <Position>
              <LatitudeDegrees>36.53245590627193450927734375</LatitudeDegrees>
              <LongitudeDegrees>-5.39611126296222209930419921875</LongitudeDegrees>
            </Position>
            <AltitudeMeters>214.1999969482421875</AltitudeMeters>
            <DistanceMeters>1808.0947756782</DistanceMeters>
          </Trackpoint>
          <Trackpoint>
            <Time>2019-01-04T09:35:14.000Z</Time>
            <Position>
              <LatitudeDegrees>36.532440148293972015380859375</LatitudeDegrees>
              <LongitudeDegrees>-5.3961202315986156463623046875</LongitudeDegrees>
            </Position>
            <AltitudeMeters>214.1999969482421875</AltitudeMeters>
            <DistanceMeters>1810.023607318</DistanceMeters>
          </Trackpoint>
          <Trackpoint>
            <Time>2019-01-04T09:35:15.000Z</Time>
            <Position>
              <LatitudeDegrees>36.5324255637824535369873046875</LatitudeDegrees>
              <LongitudeDegrees>-5.39612819440662860870361328125</LongitudeDegrees>
            </Position>
            <AltitudeMeters>214.1999969482421875</AltitudeMeters>
            <DistanceMeters>1811.7937588726</DistanceMeters>
          </Trackpoint>
          <Trackpoint>
            <Time>2019-01-04T09:35:16.000Z</Time>
            <Position>
              <LatitudeDegrees>36.5324094705283641815185546875</LatitudeDegrees>
              <LongitudeDegrees>-5.39613355882465839385986328125</LongitudeDegrees>
            </Position>
            <AltitudeMeters>214.399993896484375</AltitudeMeters>
            <DistanceMeters>1813.646170557</DistanceMeters>
          </Trackpoint>
          <Trackpoint>
            <Time>2019-01-04T09:35:17.000Z</Time>
            <Position>
              <LatitudeDegrees>36.5323950536549091339111328125</LatitudeDegrees>
              <LongitudeDegrees>-5.3961403481662273406982421875</LongitudeDegrees>
            </Position>
            <AltitudeMeters>214.399993896484375</AltitudeMeters>
            <DistanceMeters>1815.3645520622</DistanceMeters>
          </Trackpoint>
          <Trackpoint>
            <Time>2019-01-04T09:35:18.000Z</Time>
            <Position>
              <LatitudeDegrees>36.53238155879080295562744140625</LatitudeDegrees>
              <LongitudeDegrees>-5.39614713750779628753662109375</LongitudeDegrees>
            </Position>
            <AltitudeMeters>214.399993896484375</AltitudeMeters>
            <DistanceMeters>1816.9883692691</DistanceMeters>
          </Trackpoint>
          <Trackpoint>
            <Time>2019-01-04T09:35:19.000Z</Time>
            <Position>
              <LatitudeDegrees>36.53236605226993560791015625</LatitudeDegrees>
              <LongitudeDegrees>-5.396154262125492095947265625</LongitudeDegrees>
            </Position>
            <AltitudeMeters>214.399993896484375</AltitudeMeters>
            <DistanceMeters>1818.8285536801</DistanceMeters>
          </Trackpoint>
          <Trackpoint>
            <Time>2019-01-04T09:35:20.000Z</Time>
            <Position>
              <LatitudeDegrees>36.5323521383106708526611328125</LatitudeDegrees>
              <LongitudeDegrees>-5.39615954272449016571044921875</LongitudeDegrees>
            </Position>
            <AltitudeMeters>214.399993896484375</AltitudeMeters>
            <DistanceMeters>1820.4468003142</DistanceMeters>
          </Trackpoint>
          <Trackpoint>
            <Time>2019-01-04T09:35:21.000Z</Time>
            <Position>
              <LatitudeDegrees>36.53234400786459445953369140625</LatitudeDegrees>
              <LongitudeDegrees>-5.3961634822189807891845703125</LongitudeDegrees>
            </Position>
            <AltitudeMeters>214.399993896484375</AltitudeMeters>
            <DistanceMeters>1821.415886456</DistanceMeters>
          </Trackpoint>
          <Trackpoint>
            <Time>2019-01-04T09:35:22.000Z</Time>
            <Position>
              <LatitudeDegrees>36.5323330275714397430419921875</LatitudeDegrees>
              <LongitudeDegrees>-5.39616574533283710479736328125</LongitudeDegrees>
            </Position>
            <AltitudeMeters>214.399993896484375</AltitudeMeters>
            <DistanceMeters>1822.6548832257</DistanceMeters>
          </Trackpoint>
          <Trackpoint>
            <Time>2019-01-04T09:35:23.000Z</Time>
            <Position>
              <LatitudeDegrees>36.53232104144990444183349609375</LatitudeDegrees>
              <LongitudeDegrees>-5.396168343722820281982421875</LongitudeDegrees>
            </Position>
            <AltitudeMeters>214.399993896484375</AltitudeMeters>
            <DistanceMeters>1824.0088054976</DistanceMeters>
          </Trackpoint>
          <Trackpoint>
            <Time>2019-01-04T09:35:24.000Z</Time>
            <Position>
              <LatitudeDegrees>36.5323092229664325714111328125</LatitudeDegrees>
              <LongitudeDegrees>-5.396168343722820281982421875</LongitudeDegrees>
            </Position>
            <AltitudeMeters>214.600006103515625</AltitudeMeters>
            <DistanceMeters>1825.3255342765</DistanceMeters>
          </Trackpoint>
          <Trackpoint>
            <Time>2019-01-04T09:35:25.000Z</Time>
            <Position>
              <LatitudeDegrees>36.53229673393070697784423828125</LatitudeDegrees>
              <LongitudeDegrees>-5.39617060683667659759521484375</LongitudeDegrees>
            </Position>
            <AltitudeMeters>214.600006103515625</AltitudeMeters>
            <DistanceMeters>1826.7318012288</DistanceMeters>
          </Trackpoint>
          <Trackpoint>
            <Time>2019-01-04T09:35:26.000Z</Time>
            <Position>
              <LatitudeDegrees>36.53228248469531536102294921875</LatitudeDegrees>
              <LongitudeDegrees>-5.396175049245357513427734375</LongitudeDegrees>
            </Position>
            <AltitudeMeters>214.600006103515625</AltitudeMeters>
            <DistanceMeters>1828.3639386467</DistanceMeters>
          </Trackpoint>
          <Trackpoint>
            <Time>2019-01-04T09:35:27.000Z</Time>
            <Position>
              <LatitudeDegrees>36.53226739726960659027099609375</LatitudeDegrees>
              <LongitudeDegrees>-5.39618116803467273712158203125</LongitudeDegrees>
            </Position>
            <AltitudeMeters>214.600006103515625</AltitudeMeters>
            <DistanceMeters>1830.1289815281</DistanceMeters>
          </Trackpoint>
          <Trackpoint>
            <Time>2019-01-04T09:35:28.000Z</Time>
            <Position>
              <LatitudeDegrees>36.53225339949131011962890625</LatitudeDegrees>
              <LongitudeDegrees>-5.39618753828108310699462890625</LongitudeDegrees>
            </Position>
            <AltitudeMeters>214.600006103515625</AltitudeMeters>
            <DistanceMeters>1831.7858289076</DistanceMeters>
          </Trackpoint>
          <Trackpoint>
            <Time>2019-01-04T09:35:29.000Z</Time>
            <Position>
              <LatitudeDegrees>36.532242000102996826171875</LatitudeDegrees>
              <LongitudeDegrees>-5.39619424380362033843994140625</LongitudeDegrees>
            </Position>
            <AltitudeMeters>214.600006103515625</AltitudeMeters>
            <DistanceMeters>1833.1888815313</DistanceMeters>
          </Trackpoint>
          <Trackpoint>
            <Time>2019-01-04T09:35:30.000Z</Time>
            <Position>
              <LatitudeDegrees>36.53223202563822269439697265625</LatitudeDegrees>
              <LongitudeDegrees>-5.3961973451077938079833984375</LongitudeDegrees>
            </Position>
            <AltitudeMeters>214.600006103515625</AltitudeMeters>
            <DistanceMeters>1834.3292021037</DistanceMeters>
          </Trackpoint>
          <Trackpoint>
            <Time>2019-01-04T09:35:31.000Z</Time>
            <Position>
              <LatitudeDegrees>36.53222280554473400115966796875</LatitudeDegrees>
              <LongitudeDegrees>-5.39620145224034786224365234375</LongitudeDegrees>
            </Position>
            <AltitudeMeters>214.600006103515625</AltitudeMeters>
            <DistanceMeters>1835.4209759313</DistanceMeters>
          </Trackpoint>
          <Trackpoint>
            <Time>2019-01-04T09:35:32.000Z</Time>
            <Position>
              <LatitudeDegrees>36.532214842736721038818359375</LatitudeDegrees>
              <LongitudeDegrees>-5.39620731957256793975830078125</LongitudeDegrees>
            </Position>
            <AltitudeMeters>214.600006103515625</AltitudeMeters>
            <DistanceMeters>1836.4488470049</DistanceMeters>
          </Trackpoint>
          <Trackpoint>
            <Time>2019-01-04T09:35:33.000Z</Time>
            <Position>
              <LatitudeDegrees>36.53220620937645435333251953125</LatitudeDegrees>
              <LongitudeDegrees>-5.39621218107640743255615234375</LongitudeDegrees>
            </Position>
            <AltitudeMeters>214.399993896484375</AltitudeMeters>
            <DistanceMeters>1837.5070197125</DistanceMeters>
          </Trackpoint>
          <Trackpoint>
            <Time>2019-01-04T09:35:34.000Z</Time>
            <Position>
              <LatitudeDegrees>36.5321962349116802215576171875</LatitudeDegrees>
              <LongitudeDegrees>-5.39621938951313495635986328125</LongitudeDegrees>
            </Position>
            <AltitudeMeters>214.399993896484375</AltitudeMeters>
            <DistanceMeters>1838.7890001776</DistanceMeters>
          </Trackpoint>
          <Trackpoint>
            <Time>2019-01-04T09:35:35.000Z</Time>
            <Position>
              <LatitudeDegrees>36.53218558989465236663818359375</LatitudeDegrees>
              <LongitudeDegrees>-5.39622609503567218780517578125</LongitudeDegrees>
            </Position>
            <AltitudeMeters>214.1999969482421875</AltitudeMeters>
            <DistanceMeters>1840.1159760276</DistanceMeters>
          </Trackpoint>
          <Trackpoint>
            <Time>2019-01-04T09:35:36.000Z</Time>
            <Position>
              <LatitudeDegrees>36.53217486105859279632568359375</LatitudeDegrees>
              <LongitudeDegrees>-5.39623347111046314239501953125</LongitudeDegrees>
            </Position>
            <AltitudeMeters>214.1999969482421875</AltitudeMeters>
            <DistanceMeters>1841.4765515202</DistanceMeters>
          </Trackpoint>
          <Trackpoint>
            <Time>2019-01-04T09:35:37.000Z</Time>
            <Position>
              <LatitudeDegrees>36.5321660600602626800537109375</LatitudeDegrees>
              <LongitudeDegrees>-5.3962416015565395355224609375</LongitudeDegrees>
            </Position>
            <AltitudeMeters>214.1999969482421875</AltitudeMeters>
            <DistanceMeters>1842.7008850898</DistanceMeters>
          </Trackpoint>
          <Trackpoint>
            <Time>2019-01-04T09:35:38.000Z</Time>
            <Position>
              <LatitudeDegrees>36.53215709142386913299560546875</LatitudeDegrees>
              <LongitudeDegrees>-5.3962493129074573516845703125</LongitudeDegrees>
            </Position>
            <AltitudeMeters>214.399993896484375</AltitudeMeters>
            <DistanceMeters>1843.9178208058</DistanceMeters>
          </Trackpoint>
          <Trackpoint>
            <Time>2019-01-04T09:35:39.000Z</Time>
            <Position>
              <LatitudeDegrees>36.53214569203555583953857421875</LatitudeDegrees>
              <LongitudeDegrees>-5.39625543169677257537841796875</LongitudeDegrees>
            </Position>
            <AltitudeMeters>214.600006103515625</AltitudeMeters>
            <DistanceMeters>1845.2981635638</DistanceMeters>
          </Trackpoint>
          <Trackpoint>
            <Time>2019-01-04T09:35:40.000Z</Time>
            <Position>
              <LatitudeDegrees>36.5321333706378936767578125</LatitudeDegrees>
              <LongitudeDegrees>-5.39626297540962696075439453125</LongitudeDegrees>
            </Position>
            <AltitudeMeters>214.8000030517578125</AltitudeMeters>
            <DistanceMeters>1846.8274738001</DistanceMeters>
          </Trackpoint>
          <Trackpoint>
            <Time>2019-01-04T09:35:41.000Z</Time>
            <Position>
              <LatitudeDegrees>36.53212171979248523712158203125</LatitudeDegrees>
              <LongitudeDegrees>-5.39627554826438426971435546875</LongitudeDegrees>
            </Position>
            <AltitudeMeters>215</AltitudeMeters>
            <DistanceMeters>1848.5458553053</DistanceMeters>
          </Trackpoint>
          <Trackpoint>
            <Time>2019-01-04T09:35:42.000Z</Time>
            <Position>
              <LatitudeDegrees>36.5321097336709499359130859375</LatitudeDegrees>
              <LongitudeDegrees>-5.39628912694752216339111328125</LongitudeDegrees>
            </Position>
            <AltitudeMeters>215.1999969482421875</AltitudeMeters>
            <DistanceMeters>1850.3488604411</DistanceMeters>
          </Trackpoint>
          <Trackpoint>
            <Time>2019-01-04T09:35:43.000Z</Time>
            <Position>
              <LatitudeDegrees>36.53209917247295379638671875</LatitudeDegrees>
              <LongitudeDegrees>-5.39629834704101085662841796875</LongitudeDegrees>
            </Position>
            <AltitudeMeters>215.1999969482421875</AltitudeMeters>
            <DistanceMeters>1851.7868755682</DistanceMeters>
          </Trackpoint>
          <Trackpoint>
            <Time>2019-01-04T09:35:44.000Z</Time>
            <Position>
              <LatitudeDegrees>36.53208869509398937225341796875</LatitudeDegrees>
              <LongitudeDegrees>-5.3963063098490238189697265625</LongitudeDegrees>
            </Position>
            <AltitudeMeters>215.399993896484375</AltitudeMeters>
            <DistanceMeters>1853.1507655005</DistanceMeters>
          </Trackpoint>
          <Trackpoint>
            <Time>2019-01-04T09:35:45.000Z</Time>
            <Position>
              <LatitudeDegrees>36.5320788882672786712646484375</LatitudeDegrees>
              <LongitudeDegrees>-5.3963170386850833892822265625</LongitudeDegrees>
            </Position>
            <AltitudeMeters>215.399993896484375</AltitudeMeters>
            <DistanceMeters>1854.6043947131</DistanceMeters>
          </Trackpoint>
          <Trackpoint>
            <Time>2019-01-04T09:35:46.000Z</Time>
            <Position>
              <LatitudeDegrees>36.53206706978380680084228515625</LatitudeDegrees>
              <LongitudeDegrees>-5.3963244147598743438720703125</LongitudeDegrees>
            </Position>
            <AltitudeMeters>215.600006103515625</AltitudeMeters>
            <DistanceMeters>1856.0765422419</DistanceMeters>
          </Trackpoint>
          <Trackpoint>
            <Time>2019-01-04T09:35:47.000Z</Time>
            <Position>
              <LatitudeDegrees>36.532054580748081207275390625</LatitudeDegrees>
              <LongitudeDegrees>-5.39633187465369701385498046875</LongitudeDegrees>
            </Position>
            <AltitudeMeters>215.600006103515625</AltitudeMeters>
            <DistanceMeters>1857.6176165765</DistanceMeters>
          </Trackpoint>
          <Trackpoint>
            <Time>2019-01-04T09:35:48.000Z</Time>
            <Position>
              <LatitudeDegrees>36.532039158046245574951171875</LatitudeDegrees>
              <LongitudeDegrees>-5.39634059183299541473388671875</LongitudeDegrees>
            </Position>
            <AltitudeMeters>215.8000030517578125</AltitudeMeters>
            <DistanceMeters>1859.5014477904</DistanceMeters>
          </Trackpoint>
          <Trackpoint>
            <Time>2019-01-04T09:35:49.000Z</Time>
            <Position>
              <LatitudeDegrees>36.5320225618779659271240234375</LatitudeDegrees>
              <LongitudeDegrees>-5.39634771645069122314453125</LongitudeDegrees>
            </Position>
            <AltitudeMeters>215.8000030517578125</AltitudeMeters>
            <DistanceMeters>1861.455858785</DistanceMeters>
          </Trackpoint>
          <Trackpoint>
            <Time>2019-01-04T09:35:50.000Z</Time>
            <Position>
              <LatitudeDegrees>36.5320073068141937255859375</LatitudeDegrees>
              <LongitudeDegrees>-5.39635567925870418548583984375</LongitudeDegrees>
            </Position>
            <AltitudeMeters>215.8000030517578125</AltitudeMeters>
            <DistanceMeters>1863.296043196</DistanceMeters>
          </Trackpoint>
          <Trackpoint>
            <Time>2019-01-04T09:35:51.000Z</Time>
            <Position>
              <LatitudeDegrees>36.5319927223026752471923828125</LatitudeDegrees>
              <LongitudeDegrees>-5.39636439643800258636474609375</LongitudeDegrees>
            </Position>
            <AltitudeMeters>215.8000030517578125</AltitudeMeters>
            <DistanceMeters>1865.0965424166</DistanceMeters>
          </Trackpoint>
          <Trackpoint>
            <Time>2019-01-04T09:35:52.000Z</Time>
            <Position>
              <LatitudeDegrees>36.53197956271469593048095703125</LatitudeDegrees>
              <LongitudeDegrees>-5.39637319743633270263671875</LongitudeDegrees>
            </Position>
            <AltitudeMeters>215.8000030517578125</AltitudeMeters>
            <DistanceMeters>1866.7588310173</DistanceMeters>
          </Trackpoint>
          <Trackpoint>
            <Time>2019-01-04T09:35:53.000Z</Time>
            <Position>
              <LatitudeDegrees>36.53196908533573150634765625</LatitudeDegrees>
              <LongitudeDegrees>-5.396382249891757965087890625</LongitudeDegrees>
            </Position>
            <AltitudeMeters>216</AltitudeMeters>
            <DistanceMeters>1868.1810606483</DistanceMeters>
          </Trackpoint>
          <Trackpoint>
            <Time>2019-01-04T09:35:54.000Z</Time>
            <Position>
              <LatitudeDegrees>36.53196011669933795928955078125</LatitudeDegrees>
              <LongitudeDegrees>-5.39639063179492950439453125</LongitudeDegrees>
            </Position>
            <AltitudeMeters>216.1999969482421875</AltitudeMeters>
            <DistanceMeters>1869.4309419326</DistanceMeters>
          </Trackpoint>
          <Trackpoint>
            <Time>2019-01-04T09:35:55.000Z</Time>
            <Position>
              <LatitudeDegrees>36.53194896876811981201171875</LatitudeDegrees>
              <LongitudeDegrees>-5.39639733731746673583984375</LongitudeDegrees>
            </Position>
            <AltitudeMeters>216.1999969482421875</AltitudeMeters>
            <DistanceMeters>1870.8112846907</DistanceMeters>
          </Trackpoint>
          <Trackpoint>
            <Time>2019-01-04T09:35:56.000Z</Time>
            <Position>
              <LatitudeDegrees>36.5319394133985042572021484375</LatitudeDegrees>
              <LongitudeDegrees>-5.39640831761062145233154296875</LongitudeDegrees>
            </Position>
            <AltitudeMeters>216.399993896484375</AltitudeMeters>
            <DistanceMeters>1872.2586884819</DistanceMeters>
          </Trackpoint>
          <Trackpoint>
            <Time>2019-01-04T09:35:57.000Z</Time>
            <Position>
              <LatitudeDegrees>36.53192910365760326385498046875</LatitudeDegrees>
              <LongitudeDegrees>-5.3964139334857463836669921875</LongitudeDegrees>
            </Position>
            <AltitudeMeters>216.600006103515625</AltitudeMeters>
            <DistanceMeters>1873.5121769347</DistanceMeters>
          </Trackpoint>
          <Trackpoint>
            <Time>2019-01-04T09:35:58.000Z</Time>
            <Position>
              <LatitudeDegrees>36.53191602788865566253662109375</LatitudeDegrees>
              <LongitudeDegrees>-5.39642021991312503814697265625</LongitudeDegrees>
            </Position>
            <AltitudeMeters>216.600006103515625</AltitudeMeters>
            <DistanceMeters>1875.0736251855</DistanceMeters>
          </Trackpoint>
          <Trackpoint>
            <Time>2019-01-04T09:35:59.000Z</Time>
            <Position>
              <LatitudeDegrees>36.53190144337713718414306640625</LatitudeDegrees>
              <LongitudeDegrees>-5.396424829959869384765625</LongitudeDegrees>
            </Position>
            <AltitudeMeters>216.8000030517578125</AltitudeMeters>
            <DistanceMeters>1876.7494395469</DistanceMeters>
          </Trackpoint>
          <Trackpoint>
            <Time>2019-01-04T09:36:00.000Z</Time>
            <Position>
              <LatitudeDegrees>36.53188887052237987518310546875</LatitudeDegrees>
              <LongitudeDegrees>-5.3964296914637088775634765625</LongitudeDegrees>
            </Position>
            <AltitudeMeters>217</AltitudeMeters>
            <DistanceMeters>1878.2154402951</DistanceMeters>
          </Trackpoint>
          <Trackpoint>
            <Time>2019-01-04T09:36:01.000Z</Time>
            <Position>
              <LatitudeDegrees>36.531876213848590850830078125</LatitudeDegrees>
              <LongitudeDegrees>-5.39643446914851665496826171875</LongitudeDegrees>
            </Position>
            <AltitudeMeters>217</AltitudeMeters>
            <DistanceMeters>1879.6875878239</DistanceMeters>
          </Trackpoint>
          <Trackpoint>
            <Time>2019-01-04T09:36:02.000Z</Time>
            <Position>
              <LatitudeDegrees>36.5318633057177066802978515625</LatitudeDegrees>
              <LongitudeDegrees>-5.39644016884267330169677734375</LongitudeDegrees>
            </Position>
            <AltitudeMeters>217.1999969482421875</AltitudeMeters>
            <DistanceMeters>1881.2139428686</DistanceMeters>
          </Trackpoint>
          <Trackpoint>
            <Time>2019-01-04T09:36:03.000Z</Time>
            <Position>
              <LatitudeDegrees>36.5318505652248859405517578125</LatitudeDegrees>
              <LongitudeDegrees>-5.39644687436521053314208984375</LongitudeDegrees>
            </Position>
            <AltitudeMeters>217.1999969482421875</AltitudeMeters>
            <DistanceMeters>1882.7550172032</DistanceMeters>
          </Trackpoint>
          <Trackpoint>
            <Time>2019-01-04T09:36:04.000Z</Time>
            <Position>
              <LatitudeDegrees>36.5318383276462554931640625</LatitudeDegrees>
              <LongitudeDegrees>-5.39645475335419178009033203125</LongitudeDegrees>
            </Position>
            <AltitudeMeters>217.399993896484375</AltitudeMeters>
            <DistanceMeters>1884.2872769317</DistanceMeters>
          </Trackpoint>
          <Trackpoint>
            <Time>2019-01-04T09:36:05.000Z</Time>
            <Position>
              <LatitudeDegrees>36.53182717971503734588623046875</LatitudeDegrees>
              <LongitudeDegrees>-5.39646162651479244232177734375</LongitudeDegrees>
            </Position>
            <AltitudeMeters>217.399993896484375</AltitudeMeters>
            <DistanceMeters>1885.6708867778</DistanceMeters>
          </Trackpoint>
          <Trackpoint>
            <Time>2019-01-04T09:36:06.000Z</Time>
            <Position>
              <LatitudeDegrees>36.53181326575577259063720703125</LatitudeDegrees>
              <LongitudeDegrees>-5.39646833203732967376708984375</LongitudeDegrees>
            </Position>
            <AltitudeMeters>217.399993896484375</AltitudeMeters>
            <DistanceMeters>1887.3304569978</DistanceMeters>
          </Trackpoint>
          <Trackpoint>
            <Time>2019-01-04T09:36:07.000Z</Time>
            <Position>
              <LatitudeDegrees>36.531797088682651519775390625</LatitudeDegrees>
              <LongitudeDegrees>-5.396476797759532928466796875</LongitudeDegrees>
            </Position>
            <AltitudeMeters>217.399993896484375</AltitudeMeters>
            <DistanceMeters>1889.282556447</DistanceMeters>
          </Trackpoint>
          <Trackpoint>
            <Time>2019-01-04T09:36:08.000Z</Time>
            <Position>
              <LatitudeDegrees>36.5317820012569427490234375</LatitudeDegrees>
              <LongitudeDegrees>-5.39648585021495819091796875</LongitudeDegrees>
            </Position>
            <AltitudeMeters>217.399993896484375</AltitudeMeters>
            <DistanceMeters>1891.149535158</DistanceMeters>
          </Trackpoint>
          <Trackpoint>
            <Time>2019-01-04T09:36:09.000Z</Time>
            <Position>
              <LatitudeDegrees>36.53177001513540744781494140625</LatitudeDegrees>
              <LongitudeDegrees>-5.3964937292039394378662109375</LongitudeDegrees>
            </Position>
            <AltitudeMeters>217.600006103515625</AltitudeMeters>
            <DistanceMeters>1892.6580374828</DistanceMeters>
          </Trackpoint>
          <Trackpoint>
            <Time>2019-01-04T09:36:10.000Z</Time>
            <Position>
              <LatitudeDegrees>36.531758196651935577392578125</LatitudeDegrees>
              <LongitudeDegrees>-5.3964990936219692230224609375</LongitudeDegrees>
            </Position>
            <AltitudeMeters>217.8000030517578125</AltitudeMeters>
            <DistanceMeters>1894.057868397</DistanceMeters>
          </Trackpoint>
          <Trackpoint>
            <Time>2019-01-04T09:36:11.000Z</Time>
            <Position>
              <LatitudeDegrees>36.531744785606861114501953125</LatitudeDegrees>
              <LongitudeDegrees>-5.3965061344206333160400390625</LongitudeDegrees>
            </Position>
            <AltitudeMeters>218</AltitudeMeters>
            <DistanceMeters>1895.6789027104</DistanceMeters>
          </Trackpoint>
          <Trackpoint>
            <Time>2019-01-04T09:36:12.000Z</Time>
            <Position>
              <LatitudeDegrees>36.53173036873340606689453125</LatitudeDegrees>
              <LongitudeDegrees>-5.39651744998991489410400390625</LongitudeDegrees>
            </Position>
            <AltitudeMeters>218.1999969482421875</AltitudeMeters>
            <DistanceMeters>1897.5794369978</DistanceMeters>
          </Trackpoint>
          <Trackpoint>
            <Time>2019-01-04T09:36:13.000Z</Time>
            <Position>
              <LatitudeDegrees>36.53171989135444164276123046875</LatitudeDegrees>
              <LongitudeDegrees>-5.39653203450143337249755859375</LongitudeDegrees>
            </Position>
            <AltitudeMeters>218.1999969482421875</AltitudeMeters>
            <DistanceMeters>1899.3316430333</DistanceMeters>
          </Trackpoint>
          <Trackpoint>
            <Time>2019-01-04T09:36:14.000Z</Time>
            <Position>
              <LatitudeDegrees>36.531710587441921234130859375</LatitudeDegrees>
              <LongitudeDegrees>-5.396543852984905242919921875</LongitudeDegrees>
            </Position>
            <AltitudeMeters>218.399993896484375</AltitudeMeters>
            <DistanceMeters>1900.809911784</DistanceMeters>
          </Trackpoint>
          <Trackpoint>
            <Time>2019-01-04T09:36:15.000Z</Time>
            <Position>
              <LatitudeDegrees>36.53169910423457622528076171875</LatitudeDegrees>
              <LongitudeDegrees>-5.3965537436306476593017578125</LongitudeDegrees>
            </Position>
            <AltitudeMeters>218.600006103515625</AltitudeMeters>
            <DistanceMeters>1902.3655661438</DistanceMeters>
          </Trackpoint>
          <Trackpoint>
            <Time>2019-01-04T09:36:16.000Z</Time>
            <Position>
              <LatitudeDegrees>36.5316862799227237701416015625</LatitudeDegrees>
              <LongitudeDegrees>-5.396561287343502044677734375</LongitudeDegrees>
            </Position>
            <AltitudeMeters>218.8000030517578125</AltitudeMeters>
            <DistanceMeters>1903.9442684902</DistanceMeters>
          </Trackpoint>
          <Trackpoint>
            <Time>2019-01-04T09:36:17.000Z</Time>
            <Position>
              <LatitudeDegrees>36.53167513199150562286376953125</LatitudeDegrees>
              <LongitudeDegrees>-5.396569333970546722412109375</LongitudeDegrees>
            </Position>
            <AltitudeMeters>219</AltitudeMeters>
            <DistanceMeters>1905.379140411</DistanceMeters>
          </Trackpoint>
          <Trackpoint>
            <Time>2019-01-04T09:36:18.000Z</Time>
            <Position>
              <LatitudeDegrees>36.5316654928028583526611328125</LatitudeDegrees>
              <LongitudeDegrees>-5.3965809009969234466552734375</LongitudeDegrees>
            </Position>
            <AltitudeMeters>219.1999969482421875</AltitudeMeters>
            <DistanceMeters>1906.869576188</DistanceMeters>
          </Trackpoint>
          <Trackpoint>
            <Time>2019-01-04T09:36:19.000Z</Time>
            <Position>
              <LatitudeDegrees>36.53164914809167385101318359375</LatitudeDegrees>
              <LongitudeDegrees>-5.39659640751779079437255859375</LongitudeDegrees>
            </Position>
            <AltitudeMeters>219.399993896484375</AltitudeMeters>
            <DistanceMeters>1909.1561487893</DistanceMeters>
          </Trackpoint>
          <Trackpoint>
            <Time>2019-01-04T09:36:20.000Z</Time>
            <Position>
              <LatitudeDegrees>36.53163556940853595733642578125</LatitudeDegrees>
              <LongitudeDegrees>-5.3966040350496768951416015625</LongitudeDegrees>
            </Position>
            <AltitudeMeters>219.399993896484375</AltitudeMeters>
            <DistanceMeters>1910.8129961688</DistanceMeters>
          </Trackpoint>
          <Trackpoint>
            <Time>2019-01-04T09:36:21.000Z</Time>
            <Position>
              <LatitudeDegrees>36.53162584640085697174072265625</LatitudeDegrees>
              <LongitudeDegrees>-5.396612584590911865234375</LongitudeDegrees>
            </Position>
            <AltitudeMeters>219.399993896484375</AltitudeMeters>
            <DistanceMeters>1912.1399720188</DistanceMeters>
          </Trackpoint>
          <Trackpoint>
            <Time>2019-01-04T09:36:22.000Z</Time>
            <Position>
              <LatitudeDegrees>36.5316183865070343017578125</LatitudeDegrees>
              <LongitudeDegrees>-5.39662105031311511993408203125</LongitudeDegrees>
            </Position>
            <AltitudeMeters>219.600006103515625</AltitudeMeters>
            <DistanceMeters>1913.2643432663</DistanceMeters>
          </Trackpoint>
          <Trackpoint>
            <Time>2019-01-04T09:36:23.000Z</Time>
            <Position>
              <LatitudeDegrees>36.5316084958612918853759765625</LatitudeDegrees>
              <LongitudeDegrees>-5.3966315276920795440673828125</LongitudeDegrees>
            </Position>
            <AltitudeMeters>219.600006103515625</AltitudeMeters>
            <DistanceMeters>1914.7054947441</DistanceMeters>
          </Trackpoint>
          <Trackpoint>
            <Time>2019-01-04T09:36:24.000Z</Time>
            <Position>
              <LatitudeDegrees>36.5315960906445980072021484375</LatitudeDegrees>
              <LongitudeDegrees>-5.39664267562329769134521484375</LongitudeDegrees>
            </Position>
            <AltitudeMeters>219.8000030517578125</AltitudeMeters>
            <DistanceMeters>1916.4053842882</DistanceMeters>
          </Trackpoint>
          <Trackpoint>
            <Time>2019-01-04T09:36:25.000Z</Time>
            <Position>
              <LatitudeDegrees>36.53158829547464847564697265625</LatitudeDegrees>
              <LongitudeDegrees>-5.396653823554515838623046875</LongitudeDegrees>
            </Position>
            <AltitudeMeters>220.1999969482421875</AltitudeMeters>
            <DistanceMeters>1917.7255375951</DistanceMeters>
          </Trackpoint>
          <Trackpoint>
            <Time>2019-01-04T09:36:26.000Z</Time>
            <Position>
              <LatitudeDegrees>36.53157840482890605926513671875</LatitudeDegrees>
              <LongitudeDegrees>-5.39666413329541683197021484375</LongitudeDegrees>
            </Position>
            <AltitudeMeters>220.399993896484375</AltitudeMeters>
            <DistanceMeters>1919.1572594091</DistanceMeters>
          </Trackpoint>
          <Trackpoint>
            <Time>2019-01-04T09:36:27.000Z</Time>
            <Position>
              <LatitudeDegrees>36.5315699391067028045654296875</LatitudeDegrees>
              <LongitudeDegrees>-5.39667217992246150970458984375</LongitudeDegrees>
            </Position>
            <AltitudeMeters>220.399993896484375</AltitudeMeters>
            <DistanceMeters>1920.3403324622</DistanceMeters>
          </Trackpoint>
          <Trackpoint>
            <Time>2019-01-04T09:36:28.000Z</Time>
            <Position>
              <LatitudeDegrees>36.53156138956546783447265625</LatitudeDegrees>
              <LongitudeDegrees>-5.39667938835918903350830078125</LongitudeDegrees>
            </Position>
            <AltitudeMeters>220.600006103515625</AltitudeMeters>
            <DistanceMeters>1921.4885446206</DistanceMeters>
          </Trackpoint>
          <Trackpoint>
            <Time>2019-01-04T09:36:29.000Z</Time>
            <Position>
              <LatitudeDegrees>36.53155334293842315673828125</LatitudeDegrees>
              <LongitudeDegrees>-5.396687686443328857421875</LongitudeDegrees>
            </Position>
            <AltitudeMeters>220.600006103515625</AltitudeMeters>
            <DistanceMeters>1922.6523794313</DistanceMeters>
          </Trackpoint>
          <Trackpoint>
            <Time>2019-01-04T09:36:30.000Z</Time>
            <Position>
              <LatitudeDegrees>36.53154336847364902496337890625</LatitudeDegrees>
              <LongitudeDegrees>-5.3966969065368175506591796875</LongitudeDegrees>
            </Position>
            <AltitudeMeters>220.600006103515625</AltitudeMeters>
            <DistanceMeters>1924.0392486691</DistanceMeters>
          </Trackpoint>
          <Trackpoint>
            <Time>2019-01-04T09:36:31.000Z</Time>
            <Position>
              <LatitudeDegrees>36.53153188526630401611328125</LatitudeDegrees>
              <LongitudeDegrees>-5.39670671336352825164794921875</LongitudeDegrees>
            </Position>
            <AltitudeMeters>220.8000030517578125</AltitudeMeters>
            <DistanceMeters>1925.5890874781</DistanceMeters>
          </Trackpoint>
          <Trackpoint>
            <Time>2019-01-04T09:36:32.000Z</Time>
            <Position>
              <LatitudeDegrees>36.53151788748800754547119140625</LatitudeDegrees>
              <LongitudeDegrees>-5.39671517908573150634765625</LongitudeDegrees>
            </Position>
            <AltitudeMeters>221</AltitudeMeters>
            <DistanceMeters>1927.3205566171</DistanceMeters>
          </Trackpoint>
          <Trackpoint>
            <Time>2019-01-04T09:36:33.000Z</Time>
            <Position>
              <LatitudeDegrees>36.53150347061455249786376953125</LatitudeDegrees>
              <LongitudeDegrees>-5.39672263897955417633056640625</LongitudeDegrees>
            </Position>
            <AltitudeMeters>221.1999969482421875</AltitudeMeters>
            <DistanceMeters>1929.0572331939</DistanceMeters>
          </Trackpoint>
          <Trackpoint>
            <Time>2019-01-04T09:36:34.000Z</Time>
            <Position>
              <LatitudeDegrees>36.53149022720754146575927734375</LatitudeDegrees>
              <LongitudeDegrees>-5.39672532118856906890869140625</LongitudeDegrees>
            </Position>
            <AltitudeMeters>221.399993896484375</AltitudeMeters>
            <DistanceMeters>1930.5506952395</DistanceMeters>
          </Trackpoint>
          <Trackpoint>
            <Time>2019-01-04T09:36:35.000Z</Time>
            <Position>
              <LatitudeDegrees>36.5314770676195621490478515625</LatitudeDegrees>
              <LongitudeDegrees>-5.3967265784740447998046875</LongitudeDegrees>
            </Position>
            <AltitudeMeters>221.399993896484375</AltitudeMeters>
            <DistanceMeters>1932.0166959877</DistanceMeters>
          </Trackpoint>
          <Trackpoint>
            <Time>2019-01-04T09:36:36.000Z</Time>
            <Position>
              <LatitudeDegrees>36.53146675787866115570068359375</LatitudeDegrees>
              <LongitudeDegrees>-5.39673085324466228485107421875</LongitudeDegrees>
            </Position>
            <AltitudeMeters>221.600006103515625</AltitudeMeters>
            <DistanceMeters>1933.2261886019</DistanceMeters>
          </Trackpoint>
          <Trackpoint>
            <Time>2019-01-04T09:36:37.000Z</Time>
            <Position>
              <LatitudeDegrees>36.53145619668066501617431640625</LatitudeDegrees>
              <LongitudeDegrees>-5.3967391513288021087646484375</LongitudeDegrees>
            </Position>
            <AltitudeMeters>221.600006103515625</AltitudeMeters>
            <DistanceMeters>1934.6163095891</DistanceMeters>
          </Trackpoint>
          <Trackpoint>
            <Time>2019-01-04T09:36:38.000Z</Time>
            <Position>
              <LatitudeDegrees>36.53144513256847858428955078125</LatitudeDegrees>
              <LongitudeDegrees>-5.3967455215752124786376953125</LongitudeDegrees>
            </Position>
            <AltitudeMeters>221.8000030517578125</AltitudeMeters>
            <DistanceMeters>1935.9735625481</DistanceMeters>
          </Trackpoint>
          <Trackpoint>
            <Time>2019-01-04T09:36:39.000Z</Time>
            <Position>
              <LatitudeDegrees>36.53143423609435558319091796875</LatitudeDegrees>
              <LongitudeDegrees>-5.39674962870776653289794921875</LongitudeDegrees>
            </Position>
            <AltitudeMeters>222</AltitudeMeters>
            <DistanceMeters>1937.2413770483</DistanceMeters>
          </Trackpoint>
          <Trackpoint>
            <Time>2019-01-04T09:36:40.000Z</Time>
            <Position>
              <LatitudeDegrees>36.531423591077327728271484375</LatitudeDegrees>
              <LongitudeDegrees>-5.39675281383097171783447265625</LongitudeDegrees>
            </Position>
            <AltitudeMeters>222</AltitudeMeters>
            <DistanceMeters>1938.4583127643</DistanceMeters>
          </Trackpoint>
          <Trackpoint>
            <Time>2019-01-04T09:36:41.000Z</Time>
            <Position>
              <LatitudeDegrees>36.53141244314610958099365234375</LatitudeDegrees>
              <LongitudeDegrees>-5.39675449021160602569580078125</LongitudeDegrees>
            </Position>
            <AltitudeMeters>222.1999969482421875</AltitudeMeters>
            <DistanceMeters>1939.7118012171</DistanceMeters>
          </Trackpoint>
          <Trackpoint>
            <Time>2019-01-04T09:36:42.000Z</Time>
            <Position>
              <LatitudeDegrees>36.53139970265328884124755859375</LatitudeDegrees>
              <LongitudeDegrees>-5.39675599895417690277099609375</LongitudeDegrees>
            </Position>
            <AltitudeMeters>222.399993896484375</AltitudeMeters>
            <DistanceMeters>1941.1340308481</DistanceMeters>
          </Trackpoint>
          <Trackpoint>
            <Time>2019-01-04T09:36:43.000Z</Time>
            <Position>
              <LatitudeDegrees>36.531388051807880401611328125</LatitudeDegrees>
              <LongitudeDegrees>-5.3967622853815555572509765625</LongitudeDegrees>
            </Position>
            <AltitudeMeters>222.600006103515625</AltitudeMeters>
            <DistanceMeters>1942.5435047988</DistanceMeters>
          </Trackpoint>
          <Trackpoint>
            <Time>2019-01-04T09:36:44.000Z</Time>
            <Position>
              <LatitudeDegrees>36.53137874789535999298095703125</LatitudeDegrees>
              <LongitudeDegrees>-5.39676672779023647308349609375</LongitudeDegrees>
            </Position>
            <AltitudeMeters>222.600006103515625</AltitudeMeters>
            <DistanceMeters>1943.6435185458</DistanceMeters>
          </Trackpoint>
          <Trackpoint>
            <Time>2019-01-04T09:36:45.000Z</Time>
            <Position>
              <LatitudeDegrees>36.5313684381544589996337890625</LatitudeDegrees>
              <LongitudeDegrees>-5.3967770375311374664306640625</LongitudeDegrees>
            </Position>
            <AltitudeMeters>222.600006103515625</AltitudeMeters>
            <DistanceMeters>1945.1156660746</DistanceMeters>
          </Trackpoint>
          <Trackpoint>
            <Time>2019-01-04T09:36:46.000Z</Time>
            <Position>
              <LatitudeDegrees>36.531354524195194244384765625</LatitudeDegrees>
              <LongitudeDegrees>-5.3967813961207866668701171875</LongitudeDegrees>
            </Position>
            <AltitudeMeters>222.600006103515625</AltitudeMeters>
            <DistanceMeters>1946.7114359694</DistanceMeters>
          </Trackpoint>
          <Trackpoint>
            <Time>2019-01-04T09:36:47.000Z</Time>
            <Position>
              <LatitudeDegrees>36.53134287334978580474853515625</LatitudeDegrees>
              <LongitudeDegrees>-5.39678600616753101348876953125</LongitudeDegrees>
            </Position>
            <AltitudeMeters>222.600006103515625</AltitudeMeters>
            <DistanceMeters>1948.0753259017</DistanceMeters>
          </Trackpoint>
          <Trackpoint>
            <Time>2019-01-04T09:36:48.000Z</Time>
            <Position>
              <LatitudeDegrees>36.531330384314060211181640625</LatitudeDegrees>
              <LongitudeDegrees>-5.3967914544045925140380859375</LongitudeDegrees>
            </Position>
            <AltitudeMeters>222.600006103515625</AltitudeMeters>
            <DistanceMeters>1949.5474734305</DistanceMeters>
          </Trackpoint>
          <Trackpoint>
            <Time>2019-01-04T09:36:49.000Z</Time>
            <Position>
              <LatitudeDegrees>36.53131839819252490997314453125</LatitudeDegrees>
              <LongitudeDegrees>-5.396795310080051422119140625</LongitudeDegrees>
            </Position>
            <AltitudeMeters>222.8000030517578125</AltitudeMeters>
            <DistanceMeters>1950.9245413494</DistanceMeters>
          </Trackpoint>
          <Trackpoint>
            <Time>2019-01-04T09:36:50.000Z</Time>
            <Position>
              <LatitudeDegrees>36.53130515478551387786865234375</LatitudeDegrees>
              <LongitudeDegrees>-5.39680100977420806884765625</LongitudeDegrees>
            </Position>
            <AltitudeMeters>223</AltitudeMeters>
            <DistanceMeters>1952.4859896001</DistanceMeters>
          </Trackpoint>
          <Trackpoint>
            <Time>2019-01-04T09:36:51.000Z</Time>
            <Position>
              <LatitudeDegrees>36.5312926657497882843017578125</LatitudeDegrees>
              <LongitudeDegrees>-5.39680771529674530029296875</LongitudeDegrees>
            </Position>
            <AltitudeMeters>223.1999969482421875</AltitudeMeters>
            <DistanceMeters>1954.0004662149</DistanceMeters>
          </Trackpoint>
          <Trackpoint>
            <Time>2019-01-04T09:36:52.000Z</Time>
            <Position>
              <LatitudeDegrees>36.5312809310853481292724609375</LatitudeDegrees>
              <LongitudeDegrees>-5.3968162648379802703857421875</LongitudeDegrees>
            </Position>
            <AltitudeMeters>223.1999969482421875</AltitudeMeters>
            <DistanceMeters>1955.5089685397</DistanceMeters>
          </Trackpoint>
          <Trackpoint>
            <Time>2019-01-04T09:36:53.000Z</Time>
            <Position>
              <LatitudeDegrees>36.5312685258686542510986328125</LatitudeDegrees>
              <LongitudeDegrees>-5.39682489819824695587158203125</LongitudeDegrees>
            </Position>
            <AltitudeMeters>223.399993896484375</AltitudeMeters>
            <DistanceMeters>1957.0876708861</DistanceMeters>
          </Trackpoint>
          <Trackpoint>
            <Time>2019-01-04T09:36:54.000Z</Time>
            <Position>
              <LatitudeDegrees>36.5312520973384380340576171875</LatitudeDegrees>
              <LongitudeDegrees>-5.39683797396719455718994140625</LongitudeDegrees>
            </Position>
            <AltitudeMeters>223.399993896484375</AltitudeMeters>
            <DistanceMeters>1959.258776573</DistanceMeters>
          </Trackpoint>
          <Trackpoint>
            <Time>2019-01-04T09:36:55.000Z</Time>
            <Position>
              <LatitudeDegrees>36.5312401950359344482421875</LatitudeDegrees>
              <LongitudeDegrees>-5.39684836752712726593017578125</LongitudeDegrees>
            </Position>
            <AltitudeMeters>223.600006103515625</AltitudeMeters>
            <DistanceMeters>1960.8770232071</DistanceMeters>
          </Trackpoint>
          <Trackpoint>
            <Time>2019-01-04T09:36:56.000Z</Time>
            <Position>
              <LatitudeDegrees>36.53122921474277973175048828125</LatitudeDegrees>
              <LongitudeDegrees>-5.39685591123998165130615234375</LongitudeDegrees>
            </Position>
            <AltitudeMeters>223.8000030517578125</AltitudeMeters>
            <DistanceMeters>1962.27362498</DistanceMeters>
          </Trackpoint>
          <Trackpoint>
            <Time>2019-01-04T09:36:57.000Z</Time>
            <Position>
              <LatitudeDegrees>36.5312162227928638458251953125</LatitudeDegrees>
              <LongitudeDegrees>-5.39686278440058231353759765625</LongitudeDegrees>
            </Position>
            <AltitudeMeters>224</AltitudeMeters>
            <DistanceMeters>1963.8465969904</DistanceMeters>
          </Trackpoint>
          <Trackpoint>
            <Time>2019-01-04T09:36:58.000Z</Time>
            <Position>
              <LatitudeDegrees>36.53120289556682109832763671875</LatitudeDegrees>
              <LongitudeDegrees>-5.39686831645667552947998046875</LongitudeDegrees>
            </Position>
            <AltitudeMeters>224</AltitudeMeters>
            <DistanceMeters>1965.4080452412</DistanceMeters>
          </Trackpoint>
          <Trackpoint>
            <Time>2019-01-04T09:36:59.000Z</Time>
            <Position>
              <LatitudeDegrees>36.53119082562625408172607421875</LatitudeDegrees>
              <LongitudeDegrees>-5.39687535725533962249755859375</LongitudeDegrees>
            </Position>
            <AltitudeMeters>224.1999969482421875</AltitudeMeters>
            <DistanceMeters>1966.8924099714</DistanceMeters>
          </Trackpoint>
          <Trackpoint>
            <Time>2019-01-04T09:37:00.000Z</Time>
            <Position>
              <LatitudeDegrees>36.53118093498051166534423828125</LatitudeDegrees>
              <LongitudeDegrees>-5.3968836553394794464111328125</LongitudeDegrees>
            </Position>
            <AltitudeMeters>224.399993896484375</AltitudeMeters>
            <DistanceMeters>1968.2227839726</DistanceMeters>
          </Trackpoint>
          <Trackpoint>
            <Time>2019-01-04T09:37:01.000Z</Time>
            <Position>
              <LatitudeDegrees>36.5311716310679912567138671875</LatitudeDegrees>
              <LongitudeDegrees>-5.39689061231911182403564453125</LongitudeDegrees>
            </Position>
            <AltitudeMeters>224.600006103515625</AltitudeMeters>
            <DistanceMeters>1969.4322765868</DistanceMeters>
          </Trackpoint>
          <Trackpoint>
            <Time>2019-01-04T09:37:02.000Z</Time>
            <Position>
              <LatitudeDegrees>36.53116383589804172515869140625</LatitudeDegrees>
              <LongitudeDegrees>-5.396896563470363616943359375</LongitudeDegrees>
            </Position>
            <AltitudeMeters>224.600006103515625</AltitudeMeters>
            <DistanceMeters>1970.4557456228</DistanceMeters>
          </Trackpoint>
          <Trackpoint>
            <Time>2019-01-04T09:37:03.000Z</Time>
            <Position>
              <LatitudeDegrees>36.5311543643474578857421875</LatitudeDegrees>
              <LongitudeDegrees>-5.3969044424593448638916015625</LongitudeDegrees>
            </Position>
            <AltitudeMeters>224.600006103515625</AltitudeMeters>
            <DistanceMeters>1971.7271164119</DistanceMeters>
          </Trackpoint>
          <Trackpoint>
            <Time>2019-01-04T09:37:04.000Z</Time>
            <Position>
              <LatitudeDegrees>36.53114355169236660003662109375</LatitudeDegrees>
              <LongitudeDegrees>-5.39691341109573841094970703125</LongitudeDegrees>
            </Position>
            <AltitudeMeters>224.600006103515625</AltitudeMeters>
            <DistanceMeters>1973.1745202032</DistanceMeters>
          </Trackpoint>
          <Trackpoint>
            <Time>2019-01-04T09:37:05.000Z</Time>
            <Position>
              <LatitudeDegrees>36.53113198466598987579345703125</LatitudeDegrees>
              <LongitudeDegrees>-5.396922044456005096435546875</LongitudeDegrees>
            </Position>
            <AltitudeMeters>224.8000030517578125</AltitudeMeters>
            <DistanceMeters>1974.677024483</DistanceMeters>
          </Trackpoint>
          <Trackpoint>
            <Time>2019-01-04T09:37:06.000Z</Time>
            <Position>
              <LatitudeDegrees>36.531121842563152313232421875</LatitudeDegrees>
              <LongitudeDegrees>-5.3969282470643520355224609375</LongitudeDegrees>
            </Position>
            <AltitudeMeters>224.8000030517578125</AltitudeMeters>
            <DistanceMeters>1975.9376963095</DistanceMeters>
          </Trackpoint>
          <Trackpoint>
            <Time>2019-01-04T09:37:07.000Z</Time>
            <Position>
              <LatitudeDegrees>36.53111019171774387359619140625</LatitudeDegrees>
              <LongitudeDegrees>-5.39693176746368408203125</LongitudeDegrees>
            </Position>
            <AltitudeMeters>224.8000030517578125</AltitudeMeters>
            <DistanceMeters>1977.2714598041</DistanceMeters>
          </Trackpoint>
          <Trackpoint>
            <Time>2019-01-04T09:37:08.000Z</Time>
            <Position>
              <LatitudeDegrees>36.53109761886298656463623046875</LatitudeDegrees>
              <LongitudeDegrees>-5.39693805389106273651123046875</LongitudeDegrees>
            </Position>
            <AltitudeMeters>224.8000030517578125</AltitudeMeters>
            <DistanceMeters>1978.7799621289</DistanceMeters>
          </Trackpoint>
          <Trackpoint>
            <Time>2019-01-04T09:37:09.000Z</Time>
            <Position>
              <LatitudeDegrees>36.53108756057918071746826171875</LatitudeDegrees>
              <LongitudeDegrees>-5.3969349525868892669677734375</LongitudeDegrees>
            </Position>
            <AltitudeMeters>225</AltitudeMeters>
            <DistanceMeters>1979.936012004</DistanceMeters>
          </Trackpoint>
          <Trackpoint>
            <Time>2019-01-04T09:37:10.000Z</Time>
            <Position>
              <LatitudeDegrees>36.53107666410505771636962890625</LatitudeDegrees>
              <LongitudeDegrees>-5.39694006554782390594482421875</LongitudeDegrees>
            </Position>
            <AltitudeMeters>225.399993896484375</AltitudeMeters>
            <DistanceMeters>1981.2320036006</DistanceMeters>
          </Trackpoint>
          <Trackpoint>
            <Time>2019-01-04T09:37:11.000Z</Time>
            <Position>
              <LatitudeDegrees>36.531064845621585845947265625</LatitudeDegrees>
              <LongitudeDegrees>-5.396949537098407745361328125</LongitudeDegrees>
            </Position>
            <AltitudeMeters>225.600006103515625</AltitudeMeters>
            <DistanceMeters>1982.7963407498</DistanceMeters>
          </Trackpoint>
          <Trackpoint>
            <Time>2019-01-04T09:37:12.000Z</Time>
            <Position>
              <LatitudeDegrees>36.5310505963861942291259765625</LatitudeDegrees>
              <LongitudeDegrees>-5.39696068502962589263916015625</LongitudeDegrees>
            </Position>
            <AltitudeMeters>225.8000030517578125</AltitudeMeters>
            <DistanceMeters>1984.6681499442</DistanceMeters>
          </Trackpoint>
          <Trackpoint>
            <Time>2019-01-04T09:37:13.000Z</Time>
            <Position>
              <LatitudeDegrees>36.531036011874675750732421875</LatitudeDegrees>
              <LongitudeDegrees>-5.3969704918563365936279296875</LongitudeDegrees>
            </Position>
            <AltitudeMeters>225.8000030517578125</AltitudeMeters>
            <DistanceMeters>1986.5132349882</DistanceMeters>
          </Trackpoint>
          <Trackpoint>
            <Time>2019-01-04T09:37:14.000Z</Time>
            <Position>
              <LatitudeDegrees>36.53102251701056957244873046875</LatitudeDegrees>
              <LongitudeDegrees>-5.39697627536952495574951171875</LongitudeDegrees>
            </Position>
            <AltitudeMeters>225.8000030517578125</AltitudeMeters>
            <DistanceMeters>1988.1033360555</DistanceMeters>
          </Trackpoint>
          <Trackpoint>
            <Time>2019-01-04T09:37:15.000Z</Time>
            <Position>
              <LatitudeDegrees>36.5310113690793514251708984375</LatitudeDegrees>
              <LongitudeDegrees>-5.39698214270174503326416015625</LongitudeDegrees>
            </Position>
            <AltitudeMeters>225.8000030517578125</AltitudeMeters>
            <DistanceMeters>1989.447216738</DistanceMeters>
          </Trackpoint>
          <Trackpoint>
            <Time>2019-01-04T09:37:16.000Z</Time>
            <Position>
              <LatitudeDegrees>36.530999131500720977783203125</LatitudeDegrees>
              <LongitudeDegrees>-5.39698834531009197235107421875</LongitudeDegrees>
            </Position>
            <AltitudeMeters>225.8000030517578125</AltitudeMeters>
            <DistanceMeters>1990.9162940913</DistanceMeters>
          </Trackpoint>
          <Trackpoint>
            <Time>2019-01-04T09:37:17.000Z</Time>
            <Position>
              <LatitudeDegrees>36.5309853851795196533203125</LatitudeDegrees>
              <LongitudeDegrees>-5.3969969786703586578369140625</LongitudeDegrees>
            </Position>
            <AltitudeMeters>225.8000030517578125</AltitudeMeters>
            <DistanceMeters>1992.6294125473</DistanceMeters>
          </Trackpoint>
          <Trackpoint>
            <Time>2019-01-04T09:37:18.000Z</Time>
            <Position>
              <LatitudeDegrees>36.53097130358219146728515625</LatitudeDegrees>
              <LongitudeDegrees>-5.3970050252974033355712890625</LongitudeDegrees>
            </Position>
            <AltitudeMeters>225.8000030517578125</AltitudeMeters>
            <DistanceMeters>1994.3530410311</DistanceMeters>
          </Trackpoint>
          <Trackpoint>
            <Time>2019-01-04T09:37:19.000Z</Time>
            <Position>
              <LatitudeDegrees>36.5309580601751804351806640625</LatitudeDegrees>
              <LongitudeDegrees>-5.39701290428638458251953125</LongitudeDegrees>
            </Position>
            <AltitudeMeters>226</AltitudeMeters>
            <DistanceMeters>1995.9879424432</DistanceMeters>
          </Trackpoint>
          <Trackpoint>
            <Time>2019-01-04T09:37:20.000Z</Time>
            <Position>
              <LatitudeDegrees>36.530946828424930572509765625</LatitudeDegrees>
              <LongitudeDegrees>-5.3970241360366344451904296875</LongitudeDegrees>
            </Position>
            <AltitudeMeters>226.1999969482421875</AltitudeMeters>
            <DistanceMeters>1997.5949900041</DistanceMeters>
          </Trackpoint>
          <Trackpoint>
            <Time>2019-01-04T09:37:21.000Z</Time>
            <Position>
              <LatitudeDegrees>36.53093702159821987152099609375</LatitudeDegrees>
              <LongitudeDegrees>-5.397034026682376861572265625</LongitudeDegrees>
            </Position>
            <AltitudeMeters>226.1999969482421875</AltitudeMeters>
            <DistanceMeters>1999.0012569565</DistanceMeters>
          </Trackpoint>
          <Trackpoint>
            <Time>2019-01-04T09:37:22.000Z</Time>
            <Position>
              <LatitudeDegrees>36.53092704713344573974609375</LatitudeDegrees>
              <LongitudeDegrees>-5.3970452584326267242431640625</LongitudeDegrees>
            </Position>
            <AltitudeMeters>226.1999969482421875</AltitudeMeters>
            <DistanceMeters>2000.4977391508</DistanceMeters>
          </Trackpoint>
          <Trackpoint>
            <Time>2019-01-04T09:37:23.000Z</Time>
            <Position>
              <LatitudeDegrees>36.530916988849639892578125</LatitudeDegrees>
              <LongitudeDegrees>-5.39705707691609859466552734375</LongitudeDegrees>
            </Position>
            <AltitudeMeters>226.1999969482421875</AltitudeMeters>
            <DistanceMeters>2002.035880896</DistanceMeters>
          </Trackpoint>
          <Trackpoint>
            <Time>2019-01-04T09:37:24.000Z</Time>
            <Position>
              <LatitudeDegrees>36.530907936394214630126953125</LatitudeDegrees>
              <LongitudeDegrees>-5.397070236504077911376953125</LongitudeDegrees>
            </Position>
            <AltitudeMeters>226.399993896484375</AltitudeMeters>
            <DistanceMeters>2003.5886302031</DistanceMeters>
          </Trackpoint>
          <Trackpoint>
            <Time>2019-01-04T09:37:25.000Z</Time>
            <Position>
              <LatitudeDegrees>36.53089888393878936767578125</LatitudeDegrees>
              <LongitudeDegrees>-5.3970814682543277740478515625</LongitudeDegrees>
            </Position>
            <AltitudeMeters>226.399993896484375</AltitudeMeters>
            <DistanceMeters>2005.0140309186</DistanceMeters>
          </Trackpoint>
          <Trackpoint>
            <Time>2019-01-04T09:37:26.000Z</Time>
            <Position>
              <LatitudeDegrees>36.53089092113077640533447265625</LatitudeDegrees>
              <LongitudeDegrees>-5.39709337055683135986328125</LongitudeDegrees>
            </Position>
            <AltitudeMeters>226.399993896484375</AltitudeMeters>
            <DistanceMeters>2006.3976407647</DistanceMeters>
          </Trackpoint>
          <Trackpoint>
            <Time>2019-01-04T09:37:27.000Z</Time>
            <Position>
              <LatitudeDegrees>36.53088220395147800445556640625</LatitudeDegrees>
              <LongitudeDegrees>-5.39710435084998607635498046875</LongitudeDegrees>
            </Position>
            <AltitudeMeters>226.399993896484375</AltitudeMeters>
            <DistanceMeters>2007.7747086836</DistanceMeters>
          </Trackpoint>
          <Trackpoint>
            <Time>2019-01-04T09:37:28.000Z</Time>
            <Position>
              <LatitudeDegrees>36.5308754146099090576171875</LatitudeDegrees>
              <LongitudeDegrees>-5.397115163505077362060546875</LongitudeDegrees>
            </Position>
            <AltitudeMeters>226.600006103515625</AltitudeMeters>
            <DistanceMeters>2008.9990422532</DistanceMeters>
          </Trackpoint>
          <Trackpoint>
            <Time>2019-01-04T09:37:29.000Z</Time>
            <Position>
              <LatitudeDegrees>36.53086627833545207977294921875</LatitudeDegrees>
              <LongitudeDegrees>-5.39712061174213886260986328125</LongitudeDegrees>
            </Position>
            <AltitudeMeters>226.600006103515625</AltitudeMeters>
            <DistanceMeters>2010.1234135007</DistanceMeters>
          </Trackpoint>
          <Trackpoint>
            <Time>2019-01-04T09:37:30.000Z</Time>
            <Position>
              <LatitudeDegrees>36.530857980251312255859375</LatitudeDegrees>
              <LongitudeDegrees>-5.39712698198854923248291015625</LongitudeDegrees>
            </Position>
            <AltitudeMeters>226.8000030517578125</AltitudeMeters>
            <DistanceMeters>2011.2068847452</DistanceMeters>
          </Trackpoint>
          <Trackpoint>
            <Time>2019-01-04T09:37:31.000Z</Time>
            <Position>
              <LatitudeDegrees>36.530848257243633270263671875</LatitudeDegrees>
              <LongitudeDegrees>-5.39713737554848194122314453125</LongitudeDegrees>
            </Position>
            <AltitudeMeters>226.8000030517578125</AltitudeMeters>
            <DistanceMeters>2012.6354495062</DistanceMeters>
          </Trackpoint>
          <Trackpoint>
            <Time>2019-01-04T09:37:32.000Z</Time>
            <Position>
              <LatitudeDegrees>36.53083744458854198455810546875</LatitudeDegrees>
              <LongitudeDegrees>-5.3971465118229389190673828125</LongitudeDegrees>
            </Position>
            <AltitudeMeters>227</AltitudeMeters>
            <DistanceMeters>2014.0890787189</DistanceMeters>
          </Trackpoint>
          <Trackpoint>
            <Time>2019-01-04T09:37:33.000Z</Time>
            <Position>
              <LatitudeDegrees>36.53082587756216526031494140625</LatitudeDegrees>
              <LongitudeDegrees>-5.39715598337352275848388671875</LongitudeDegrees>
            </Position>
            <AltitudeMeters>227</AltitudeMeters>
            <DistanceMeters>2015.627220464</DistanceMeters>
          </Trackpoint>
          <Trackpoint>
            <Time>2019-01-04T09:37:34.000Z</Time>
            <Position>
              <LatitudeDegrees>36.53081498108804225921630859375</LatitudeDegrees>
              <LongitudeDegrees>-5.39716503582894802093505859375</LongitudeDegrees>
            </Position>
            <AltitudeMeters>227</AltitudeMeters>
            <DistanceMeters>2017.0808496767</DistanceMeters>
          </Trackpoint>
          <Trackpoint>
            <Time>2019-01-04T09:37:35.000Z</Time>
            <Position>
              <LatitudeDegrees>36.53080634772777557373046875</LatitudeDegrees>
              <LongitudeDegrees>-5.3971731662750244140625</LongitudeDegrees>
            </Position>
            <AltitudeMeters>227</AltitudeMeters>
            <DistanceMeters>2018.2828531006</DistanceMeters>
          </Trackpoint>
          <Trackpoint>
            <Time>2019-01-04T09:37:36.000Z</Time>
            <Position>
              <LatitudeDegrees>36.5307994745671749114990234375</LatitudeDegrees>
              <LongitudeDegrees>-5.39718129672110080718994140625</LongitudeDegrees>
            </Position>
            <AltitudeMeters>227</AltitudeMeters>
            <DistanceMeters>2019.3410258082</DistanceMeters>
          </Trackpoint>
          <Trackpoint>
            <Time>2019-01-04T09:37:37.000Z</Time>
            <Position>
              <LatitudeDegrees>36.53078748844563961029052734375</LatitudeDegrees>
              <LongitudeDegrees>-5.39719403721392154693603515625</LongitudeDegrees>
            </Position>
            <AltitudeMeters>227</AltitudeMeters>
            <DistanceMeters>2021.0983778343</DistanceMeters>
          </Trackpoint>
          <Trackpoint>
            <Time>2019-01-04T09:37:38.000Z</Time>
            <Position>
              <LatitudeDegrees>36.53077491559088230133056640625</LatitudeDegrees>
              <LongitudeDegrees>-5.39720728062093257904052734375</LongitudeDegrees>
            </Position>
            <AltitudeMeters>227</AltitudeMeters>
            <DistanceMeters>2022.9336485265</DistanceMeters>
          </Trackpoint>
          <Trackpoint>
            <Time>2019-01-04T09:37:39.000Z</Time>
            <Position>
              <LatitudeDegrees>36.530761756002902984619140625</LatitudeDegrees>
              <LongitudeDegrees>-5.39722144603729248046875</LongitudeDegrees>
            </Position>
            <AltitudeMeters>226.600006103515625</AltitudeMeters>
            <DistanceMeters>2024.87182081</DistanceMeters>
          </Trackpoint>
          <Trackpoint>
            <Time>2019-01-04T09:37:40.000Z</Time>
            <Position>
              <LatitudeDegrees>36.530750691890716552734375</LatitudeDegrees>
              <LongitudeDegrees>-5.39723276160657405853271484375</LongitudeDegrees>
            </Position>
            <AltitudeMeters>226.399993896484375</AltitudeMeters>
            <DistanceMeters>2026.4675907049</DistanceMeters>
          </Trackpoint>
          <Trackpoint>
            <Time>2019-01-04T09:37:41.000Z</Time>
            <Position>
              <LatitudeDegrees>36.5307384543120861053466796875</LatitudeDegrees>
              <LongitudeDegrees>-5.39724231697618961334228515625</LongitudeDegrees>
            </Position>
            <AltitudeMeters>226</AltitudeMeters>
            <DistanceMeters>2028.0774453379</DistanceMeters>
          </Trackpoint>
          <Trackpoint>
            <Time>2019-01-04T09:37:42.000Z</Time>
            <Position>
              <LatitudeDegrees>36.5307273901998996734619140625</LatitudeDegrees>
              <LongitudeDegrees>-5.39724801667034626007080078125</LongitudeDegrees>
            </Position>
            <AltitudeMeters>225.8000030517578125</AltitudeMeters>
            <DistanceMeters>2029.407819339</DistanceMeters>
          </Trackpoint>
          <Trackpoint>
            <Time>2019-01-04T09:37:43.000Z</Time>
            <Position>
              <LatitudeDegrees>36.5307156555354595184326171875</LatitudeDegrees>
              <LongitudeDegrees>-5.39725472219288349151611328125</LongitudeDegrees>
            </Position>
            <AltitudeMeters>225.8000030517578125</AltitudeMeters>
            <DistanceMeters>2030.8426912599</DistanceMeters>
          </Trackpoint>
          <Trackpoint>
            <Time>2019-01-04T09:37:44.000Z</Time>
            <Position>
              <LatitudeDegrees>36.53070601634681224822998046875</LatitudeDegrees>
              <LongitudeDegrees>-5.39726310409605503082275390625</LongitudeDegrees>
            </Position>
            <AltitudeMeters>225.8000030517578125</AltitudeMeters>
            <DistanceMeters>2032.1525441235</DistanceMeters>
          </Trackpoint>
          <Trackpoint>
            <Time>2019-01-04T09:37:45.000Z</Time>
            <Position>
              <LatitudeDegrees>36.53069377876818180084228515625</LatitudeDegrees>
              <LongitudeDegrees>-5.39727383293211460113525390625</LongitudeDegrees>
            </Position>
            <AltitudeMeters>225.8000030517578125</AltitudeMeters>
            <DistanceMeters>2033.8148327242</DistanceMeters>
          </Trackpoint>
          <Trackpoint>
            <Time>2019-01-04T09:37:46.000Z</Time>
            <Position>
              <LatitudeDegrees>36.53068405576050281524658203125</LatitudeDegrees>
              <LongitudeDegrees>-5.39728573523461818695068359375</LongitudeDegrees>
            </Position>
            <AltitudeMeters>225.8000030517578125</AltitudeMeters>
            <DistanceMeters>2035.329309339</DistanceMeters>
          </Trackpoint>
          <Trackpoint>
            <Time>2019-01-04T09:37:47.000Z</Time>
            <Position>
              <LatitudeDegrees>36.5306769311428070068359375</LatitudeDegrees>
              <LongitudeDegrees>-5.39729462005198001861572265625</LongitudeDegrees>
            </Position>
            <AltitudeMeters>225.8000030517578125</AltitudeMeters>
            <DistanceMeters>2036.4536805864</DistanceMeters>
          </Trackpoint>
          <Trackpoint>
            <Time>2019-01-04T09:37:48.000Z</Time>
            <Position>
              <LatitudeDegrees>36.5306653641164302825927734375</LatitudeDegrees>
              <LongitudeDegrees>-5.39730786345899105072021484375</LongitudeDegrees>
            </Position>
            <AltitudeMeters>225.8000030517578125</AltitudeMeters>
            <DistanceMeters>2038.205886622</DistanceMeters>
          </Trackpoint>
          <Trackpoint>
            <Time>2019-01-04T09:37:49.000Z</Time>
            <Position>
              <LatitudeDegrees>36.53065421618521213531494140625</LatitudeDegrees>
              <LongitudeDegrees>-5.39732043631374835968017578125</LongitudeDegrees>
            </Position>
            <AltitudeMeters>225.8000030517578125</AltitudeMeters>
            <DistanceMeters>2039.8817009834</DistanceMeters>
          </Trackpoint>
          <Trackpoint>
            <Time>2019-01-04T09:37:50.000Z</Time>
            <Position>
              <LatitudeDegrees>36.5306405536830425262451171875</LatitudeDegrees>
              <LongitudeDegrees>-5.3973335959017276763916015625</LongitudeDegrees>
            </Position>
            <AltitudeMeters>225.8000030517578125</AltitudeMeters>
            <DistanceMeters>2041.8058452977</DistanceMeters>
          </Trackpoint>
          <Trackpoint>
            <Time>2019-01-04T09:37:51.000Z</Time>
            <Position>
              <LatitudeDegrees>36.5306291542947292327880859375</LatitudeDegrees>
              <LongitudeDegrees>-5.3973480127751827239990234375</LongitudeDegrees>
            </Position>
            <AltitudeMeters>225.8000030517578125</AltitudeMeters>
            <DistanceMeters>2043.6188394581</DistanceMeters>
          </Trackpoint>
          <Trackpoint>
            <Time>2019-01-04T09:37:52.000Z</Time>
            <Position>
              <LatitudeDegrees>36.530618928372859954833984375</LatitudeDegrees>
              <LongitudeDegrees>-5.39736502803862094879150390625</LongitudeDegrees>
            </Position>
            <AltitudeMeters>225.8000030517578125</AltitudeMeters>
            <DistanceMeters>2045.5169965909</DistanceMeters>
          </Trackpoint>
          <Trackpoint>
            <Time>2019-01-04T09:37:53.000Z</Time>
            <Position>
              <LatitudeDegrees>36.53061322867870330810546875</LatitudeDegrees>
              <LongitudeDegrees>-5.39737961255013942718505859375</LongitudeDegrees>
            </Position>
            <AltitudeMeters>225.8000030517578125</AltitudeMeters>
            <DistanceMeters>2046.9706258036</DistanceMeters>
          </Trackpoint>
          <Trackpoint>
            <Time>2019-01-04T09:37:54.000Z</Time>
            <Position>
              <LatitudeDegrees>36.53060744516551494598388671875</LatitudeDegrees>
              <LongitudeDegrees>-5.39739310741424560546875</LongitudeDegrees>
            </Position>
            <AltitudeMeters>226</AltitudeMeters>
            <DistanceMeters>2048.3378221406</DistanceMeters>
          </Trackpoint>
          <Trackpoint>
            <Time>2019-01-04T09:37:55.000Z</Time>
            <Position>
              <LatitudeDegrees>36.530596800148487091064453125</LatitudeDegrees>
              <LongitudeDegrees>-5.397406183183193206787109375</LongitudeDegrees>
            </Position>
            <AltitudeMeters>226.1999969482421875</AltitudeMeters>
            <DistanceMeters>2050.0055342095</DistanceMeters>
          </Trackpoint>
          <Trackpoint>
            <Time>2019-01-04T09:37:56.000Z</Time>
            <Position>
              <LatitudeDegrees>36.53058213181793689727783203125</LatitudeDegrees>
              <LongitudeDegrees>-5.39742060005664825439453125</LongitudeDegrees>
            </Position>
            <AltitudeMeters>226.1999969482421875</AltitudeMeters>
            <DistanceMeters>2052.0874652105</DistanceMeters>
          </Trackpoint>
          <Trackpoint>
            <Time>2019-01-04T09:37:57.000Z</Time>
            <Position>
              <LatitudeDegrees>36.530571319162845611572265625</LatitudeDegrees>
              <LongitudeDegrees>-5.397433005273342132568359375</LongitudeDegrees>
            </Position>
            <AltitudeMeters>226.1999969482421875</AltitudeMeters>
            <DistanceMeters>2053.7251259519</DistanceMeters>
          </Trackpoint>
          <Trackpoint>
            <Time>2019-01-04T09:37:58.000Z</Time>
            <Position>
              <LatitudeDegrees>36.53056302107870578765869140625</LatitudeDegrees>
              <LongitudeDegrees>-5.3974454104900360107421875</LongitudeDegrees>
            </Position>
            <AltitudeMeters>226.1999969482421875</AltitudeMeters>
            <DistanceMeters>2055.1725297432</DistanceMeters>
          </Trackpoint>
          <Trackpoint>
            <Time>2019-01-04T09:37:59.000Z</Time>
            <Position>
              <LatitudeDegrees>36.53055287897586822509765625</LatitudeDegrees>
              <LongitudeDegrees>-5.39745706133544445037841796875</LongitudeDegrees>
            </Position>
            <AltitudeMeters>226.1999969482421875</AltitudeMeters>
            <DistanceMeters>2056.7106714884</DistanceMeters>
          </Trackpoint>
          <Trackpoint>
            <Time>2019-01-04T09:38:00.000Z</Time>
            <Position>
              <LatitudeDegrees>36.5305429883301258087158203125</LatitudeDegrees>
              <LongitudeDegrees>-5.3974668681621551513671875</LongitudeDegrees>
            </Position>
            <AltitudeMeters>226.1999969482421875</AltitudeMeters>
            <DistanceMeters>2058.1201454391</DistanceMeters>
          </Trackpoint>
          <Trackpoint>
            <Time>2019-01-04T09:38:01.000Z</Time>
            <Position>
              <LatitudeDegrees>36.5305312536656856536865234375</LatitudeDegrees>
              <LongitudeDegrees>-5.3974770940840244293212890625</LongitudeDegrees>
            </Position>
            <AltitudeMeters>226.1999969482421875</AltitudeMeters>
            <DistanceMeters>2059.7130834419</DistanceMeters>
          </Trackpoint>
          <Trackpoint>
            <Time>2019-01-04T09:38:02.000Z</Time>
            <Position>
              <LatitudeDegrees>36.5305213630199432373046875</LatitudeDegrees>
              <LongitudeDegrees>-5.397489331662654876708984375</LongitudeDegrees>
            </Position>
            <AltitudeMeters>226.1999969482421875</AltitudeMeters>
            <DistanceMeters>2061.2629222509</DistanceMeters>
          </Trackpoint>
          <Trackpoint>
            <Time>2019-01-04T09:38:03.000Z</Time>
            <Position>
              <LatitudeDegrees>36.53051457367837429046630859375</LatitudeDegrees>
              <LongitudeDegrees>-5.3975044190883636474609375</LongitudeDegrees>
            </Position>
            <AltitudeMeters>226.1999969482421875</AltitudeMeters>
            <DistanceMeters>2062.8069236049</DistanceMeters>
          </Trackpoint>
          <Trackpoint>
            <Time>2019-01-04T09:38:04.000Z</Time>
            <Position>
              <LatitudeDegrees>36.53050602413713932037353515625</LatitudeDegrees>
              <LongitudeDegrees>-5.39752118289470672607421875</LongitudeDegrees>
            </Position>
            <AltitudeMeters>226.1999969482421875</AltitudeMeters>
            <DistanceMeters>2064.5821691313</DistanceMeters>
          </Trackpoint>
          <Trackpoint>
            <Time>2019-01-04T09:38:05.000Z</Time>
            <Position>
              <LatitudeDegrees>36.530498228967189788818359375</LatitudeDegrees>
              <LongitudeDegrees>-5.3975337557494640350341796875</LongitudeDegrees>
            </Position>
            <AltitudeMeters>226.1999969482421875</AltitudeMeters>
            <DistanceMeters>2065.9980352869</DistanceMeters>
          </Trackpoint>
          <Trackpoint>
            <Time>2019-01-04T09:38:06.000Z</Time>
            <Position>
              <LatitudeDegrees>36.53048993088304996490478515625</LatitudeDegrees>
              <LongitudeDegrees>-5.39754423312842845916748046875</LongitudeDegrees>
            </Position>
            <AltitudeMeters>226.1999969482421875</AltitudeMeters>
            <DistanceMeters>2067.3113306082</DistanceMeters>
          </Trackpoint>
          <Trackpoint>
            <Time>2019-01-04T09:38:07.000Z</Time>
            <Position>
              <LatitudeDegrees>36.53047978878021240234375</LatitudeDegrees>
              <LongitudeDegrees>-5.39756141602993011474609375</LongitudeDegrees>
            </Position>
            <AltitudeMeters>226.1999969482421875</AltitudeMeters>
            <DistanceMeters>2069.2166103069</DistanceMeters>
          </Trackpoint>
          <Trackpoint>
            <Time>2019-01-04T09:38:08.000Z</Time>
            <Position>
              <LatitudeDegrees>36.53046880848705768585205078125</LatitudeDegrees>
              <LongitudeDegrees>-5.39757885038852691650390625</LongitudeDegrees>
            </Position>
            <AltitudeMeters>226.1999969482421875</AltitudeMeters>
            <DistanceMeters>2071.1962701708</DistanceMeters>
          </Trackpoint>
          <Trackpoint>
            <Time>2019-01-04T09:38:09.000Z</Time>
            <Position>
              <LatitudeDegrees>36.53045690618455410003662109375</LatitudeDegrees>
              <LongitudeDegrees>-5.3975944407284259796142578125</LongitudeDegrees>
            </Position>
            <AltitudeMeters>226.1999969482421875</AltitudeMeters>
            <DistanceMeters>2073.118066535</DistanceMeters>
          </Trackpoint>
          <Trackpoint>
            <Time>2019-01-04T09:38:10.000Z</Time>
            <Position>
              <LatitudeDegrees>36.530444584786891937255859375</LatitudeDegrees>
              <LongitudeDegrees>-5.39761078543961048126220703125</LongitudeDegrees>
            </Position>
            <AltitudeMeters>226.1999969482421875</AltitudeMeters>
            <DistanceMeters>2075.1204036548</DistanceMeters>
          </Trackpoint>
          <Trackpoint>
            <Time>2019-01-04T09:38:11.000Z</Time>
            <Position>
              <LatitudeDegrees>36.53043243102729320526123046875</LatitudeDegrees>
              <LongitudeDegrees>-5.39762687869369983673095703125</LongitudeDegrees>
            </Position>
            <AltitudeMeters>226.1999969482421875</AltitudeMeters>
            <DistanceMeters>2077.0954968232</DistanceMeters>
          </Trackpoint>
          <Trackpoint>
            <Time>2019-01-04T09:38:12.000Z</Time>
            <Position>
              <LatitudeDegrees>36.5304209478199481964111328125</LatitudeDegrees>
              <LongitudeDegrees>-5.3976427204906940460205078125</LongitudeDegrees>
            </Position>
            <AltitudeMeters>226.1999969482421875</AltitudeMeters>
            <DistanceMeters>2079.0031448009</DistanceMeters>
          </Trackpoint>
          <Trackpoint>
            <Time>2019-01-04T09:38:13.000Z</Time>
            <Position>
              <LatitudeDegrees>36.53040862642228603363037109375</LatitudeDegrees>
              <LongitudeDegrees>-5.39765529334545135498046875</LongitudeDegrees>
            </Position>
            <AltitudeMeters>226</AltitudeMeters>
            <DistanceMeters>2080.7758451711</DistanceMeters>
          </Trackpoint>
          <Trackpoint>
            <Time>2019-01-04T09:38:14.000Z</Time>
            <Position>
              <LatitudeDegrees>36.53039488010108470916748046875</LatitudeDegrees>
              <LongitudeDegrees>-5.39766627363860607147216796875</LongitudeDegrees>
            </Position>
            <AltitudeMeters>225.8000030517578125</AltitudeMeters>
            <DistanceMeters>2082.5938132617</DistanceMeters>
          </Trackpoint>
          <Trackpoint>
            <Time>2019-01-04T09:38:15.000Z</Time>
            <Position>
              <LatitudeDegrees>36.530383564531803131103515625</LatitudeDegrees>
              <LongitudeDegrees>-5.3976782597601413726806640625</LongitudeDegrees>
            </Position>
            <AltitudeMeters>225.8000030517578125</AltitudeMeters>
            <DistanceMeters>2084.2452014917</DistanceMeters>
          </Trackpoint>
          <Trackpoint>
            <Time>2019-01-04T09:38:16.000Z</Time>
            <Position>
              <LatitudeDegrees>36.53037291951477527618408203125</LatitudeDegrees>
              <LongitudeDegrees>-5.3976953588426113128662109375</LongitudeDegrees>
            </Position>
            <AltitudeMeters>225.600006103515625</AltitudeMeters>
            <DistanceMeters>2086.1787090939</DistanceMeters>
          </Trackpoint>
          <Trackpoint>
            <Time>2019-01-04T09:38:17.000Z</Time>
            <Position>
              <LatitudeDegrees>36.53036403469741344451904296875</LatitudeDegrees>
              <LongitudeDegrees>-5.39770935662090778350830078125</LongitudeDegrees>
            </Position>
            <AltitudeMeters>225.600006103515625</AltitudeMeters>
            <DistanceMeters>2087.7744789887</DistanceMeters>
          </Trackpoint>
          <Trackpoint>
            <Time>2019-01-04T09:38:18.000Z</Time>
            <Position>
              <LatitudeDegrees>36.53035598807036876678466796875</LatitudeDegrees>
              <LongitudeDegrees>-5.3977216780185699462890625</LongitudeDegrees>
            </Position>
            <AltitudeMeters>225.600006103515625</AltitudeMeters>
            <DistanceMeters>2089.1903451443</DistanceMeters>
          </Trackpoint>
          <Trackpoint>
            <Time>2019-01-04T09:38:19.000Z</Time>
            <Position>
              <LatitudeDegrees>36.53035028837621212005615234375</LatitudeDegrees>
              <LongitudeDegrees>-5.3977325744926929473876953125</LongitudeDegrees>
            </Position>
            <AltitudeMeters>225.399993896484375</AltitudeMeters>
            <DistanceMeters>2090.354179955</DistanceMeters>
          </Trackpoint>
          <Trackpoint>
            <Time>2019-01-04T09:38:20.000Z</Time>
            <Position>
              <LatitudeDegrees>36.5303458459675312042236328125</LatitudeDegrees>
              <LongitudeDegrees>-5.397746153175830841064453125</LongitudeDegrees>
            </Position>
            <AltitudeMeters>225.399993896484375</AltitudeMeters>
            <DistanceMeters>2091.6640328186</DistanceMeters>
          </Trackpoint>
          <Trackpoint>
            <Time>2019-01-04T09:38:21.000Z</Time>
            <Position>
              <LatitudeDegrees>36.530339978635311126708984375</LatitudeDegrees>
              <LongitudeDegrees>-5.39775880984961986541748046875</LongitudeDegrees>
            </Position>
            <AltitudeMeters>225.399993896484375</AltitudeMeters>
            <DistanceMeters>2092.9669734817</DistanceMeters>
          </Trackpoint>
          <Trackpoint>
            <Time>2019-01-04T09:38:22.000Z</Time>
            <Position>
              <LatitudeDegrees>36.53033302165567874908447265625</LatitudeDegrees>
              <LongitudeDegrees>-5.3977714665234088897705078125</LongitudeDegrees>
            </Position>
            <AltitudeMeters>225.600006103515625</AltitudeMeters>
            <DistanceMeters>2094.3374682465</DistanceMeters>
          </Trackpoint>
          <Trackpoint>
            <Time>2019-01-04T09:38:23.000Z</Time>
            <Position>
              <LatitudeDegrees>36.53032447211444377899169921875</LatitudeDegrees>
              <LongitudeDegrees>-5.39778596721589565277099609375</LongitudeDegrees>
            </Position>
            <AltitudeMeters>225.600006103515625</AltitudeMeters>
            <DistanceMeters>2095.9445158074</DistanceMeters>
          </Trackpoint>
          <Trackpoint>
            <Time>2019-01-04T09:38:24.000Z</Time>
            <Position>
              <LatitudeDegrees>36.53031776659190654754638671875</LatitudeDegrees>
              <LongitudeDegrees>-5.3977996297180652618408203125</LongitudeDegrees>
            </Position>
            <AltitudeMeters>225.600006103515625</AltitudeMeters>
            <DistanceMeters>2097.3730805683</DistanceMeters>
          </Trackpoint>
          <Trackpoint>
            <Time>2019-01-04T09:38:25.000Z</Time>
            <Position>
              <LatitudeDegrees>36.53030871413648128509521484375</LatitudeDegrees>
              <LongitudeDegrees>-5.39781597442924976348876953125</LongitudeDegrees>
            </Position>
            <AltitudeMeters>225.8000030517578125</AltitudeMeters>
            <DistanceMeters>2099.1457809385</DistanceMeters>
          </Trackpoint>
          <Trackpoint>
            <Time>2019-01-04T09:38:26.000Z</Time>
            <Position>
              <LatitudeDegrees>36.5303032658994197845458984375</LatitudeDegrees>
              <LongitudeDegrees>-5.39782695472240447998046875</LongitudeDegrees>
            </Position>
            <AltitudeMeters>226</AltitudeMeters>
            <DistanceMeters>2100.3018308136</DistanceMeters>
          </Trackpoint>
          <Trackpoint>
            <Time>2019-01-04T09:38:27.000Z</Time>
            <Position>
              <LatitudeDegrees>36.5302960574626922607421875</LatitudeDegrees>
              <LongitudeDegrees>-5.39784363470971584320068359375</LongitudeDegrees>
            </Position>
            <AltitudeMeters>226</AltitudeMeters>
            <DistanceMeters>2101.9963998766</DistanceMeters>
          </Trackpoint>
          <Trackpoint>
            <Time>2019-01-04T09:38:28.000Z</Time>
            <Position>
              <LatitudeDegrees>36.53029144741594791412353515625</LatitudeDegrees>
              <LongitudeDegrees>-5.397861488163471221923828125</LongitudeDegrees>
            </Position>
            <AltitudeMeters>226.1999969482421875</AltitudeMeters>
            <DistanceMeters>2103.6749063111</DistanceMeters>
          </Trackpoint>
          <Trackpoint>
            <Time>2019-01-04T09:38:29.000Z</Time>
            <Position>
              <LatitudeDegrees>36.53029002249240875244140625</LatitudeDegrees>
              <LongitudeDegrees>-5.39787649177014827728271484375</LongitudeDegrees>
            </Position>
            <AltitudeMeters>226.399993896484375</AltitudeMeters>
            <DistanceMeters>2105.0288285829</DistanceMeters>
          </Trackpoint>
          <Trackpoint>
            <Time>2019-01-04T09:38:30.000Z</Time>
            <Position>
              <LatitudeDegrees>36.530283652245998382568359375</LatitudeDegrees>
              <LongitudeDegrees>-5.3978871367871761322021484375</LongitudeDegrees>
            </Position>
            <AltitudeMeters>226.399993896484375</AltitudeMeters>
            <DistanceMeters>2106.215711865</DistanceMeters>
          </Trackpoint>
          <Trackpoint>
            <Time>2019-01-04T09:38:31.000Z</Time>
            <Position>
              <LatitudeDegrees>36.5302814729511737823486328125</LatitudeDegrees>
              <LongitudeDegrees>-5.397898368537425994873046875</LongitudeDegrees>
            </Position>
            <AltitudeMeters>226.600006103515625</AltitudeMeters>
            <DistanceMeters>2107.2566773655</DistanceMeters>
          </Trackpoint>
          <Trackpoint>
            <Time>2019-01-04T09:38:32.000Z</Time>
            <Position>
              <LatitudeDegrees>36.530278287827968597412109375</LatitudeDegrees>
              <LongitudeDegrees>-5.39791353978216648101806640625</LongitudeDegrees>
            </Position>
            <AltitudeMeters>226.600006103515625</AltitudeMeters>
            <DistanceMeters>2108.6597299891</DistanceMeters>
          </Trackpoint>
          <Trackpoint>
            <Time>2019-01-04T09:38:33.000Z</Time>
            <Position>
              <LatitudeDegrees>36.53028541244566440582275390625</LatitudeDegrees>
              <LongitudeDegrees>-5.39792896248400211334228515625</LongitudeDegrees>
            </Position>
            <AltitudeMeters>226.600006103515625</AltitudeMeters>
            <DistanceMeters>2110.2469890505</DistanceMeters>
          </Trackpoint>
          <Trackpoint>
            <Time>2019-01-04T09:38:34.000Z</Time>
            <Position>
              <LatitudeDegrees>36.53028943575918674468994140625</LatitudeDegrees>
              <LongitudeDegrees>-5.39794497191905975341796875</LongitudeDegrees>
            </Position>
            <AltitudeMeters>226.8000030517578125</AltitudeMeters>
            <DistanceMeters>2111.7464853108</DistanceMeters>
          </Trackpoint>
          <Trackpoint>
            <Time>2019-01-04T09:38:35.000Z</Time>
            <Position>
              <LatitudeDegrees>36.53029513545334339141845703125</LatitudeDegrees>
              <LongitudeDegrees>-5.39796215482056140899658203125</LongitudeDegrees>
            </Position>
            <AltitudeMeters>226.8000030517578125</AltitudeMeters>
            <DistanceMeters>2113.4087739114</DistanceMeters>
          </Trackpoint>
          <Trackpoint>
            <Time>2019-01-04T09:38:36.000Z</Time>
            <Position>
              <LatitudeDegrees>36.530301086604595184326171875</LatitudeDegrees>
              <LongitudeDegrees>-5.397978834807872772216796875</LongitudeDegrees>
            </Position>
            <AltitudeMeters>226.8000030517578125</AltitudeMeters>
            <DistanceMeters>2115.0436753236</DistanceMeters>
          </Trackpoint>
          <Trackpoint>
            <Time>2019-01-04T09:38:37.000Z</Time>
            <Position>
              <LatitudeDegrees>36.53030217625200748443603515625</LatitudeDegrees>
              <LongitudeDegrees>-5.39800129830837249755859375</LongitudeDegrees>
            </Position>
            <AltitudeMeters>226.8000030517578125</AltitudeMeters>
            <DistanceMeters>2117.0572553004</DistanceMeters>
          </Trackpoint>
          <Trackpoint>
            <Time>2019-01-04T09:38:38.000Z</Time>
            <Position>
              <LatitudeDegrees>36.53030611574649810791015625</LatitudeDegrees>
              <LongitudeDegrees>-5.39802149869501590728759765625</LongitudeDegrees>
            </Position>
            <AltitudeMeters>227</AltitudeMeters>
            <DistanceMeters>2118.9193909976</DistanceMeters>
          </Trackpoint>
          <Trackpoint>
            <Time>2019-01-04T09:38:39.000Z</Time>
            <Position>
              <LatitudeDegrees>36.53030703775584697723388671875</LatitudeDegrees>
              <LongitudeDegrees>-5.3980410285294055938720703125</LongitudeDegrees>
            </Position>
            <AltitudeMeters>227</AltitudeMeters>
            <DistanceMeters>2120.6715970331</DistanceMeters>
          </Trackpoint>
          <Trackpoint>
            <Time>2019-01-04T09:38:40.000Z</Time>
            <Position>
              <LatitudeDegrees>36.5303052775561809539794921875</LatitudeDegrees>
              <LongitudeDegrees>-5.39806164801120758056640625</LongitudeDegrees>
            </Position>
            <AltitudeMeters>227</AltitudeMeters>
            <DistanceMeters>2122.5240087175</DistanceMeters>
          </Trackpoint>
          <Trackpoint>
            <Time>2019-01-04T09:38:41.000Z</Time>
            <Position>
              <LatitudeDegrees>36.5303022600710391998291015625</LatitudeDegrees>
              <LongitudeDegrees>-5.39808033965528011322021484375</LongitudeDegrees>
            </Position>
            <AltitudeMeters>226.8000030517578125</AltitudeMeters>
            <DistanceMeters>2124.229202142</DistanceMeters>
          </Trackpoint>
          <Trackpoint>
            <Time>2019-01-04T09:38:42.000Z</Time>
            <Position>
              <LatitudeDegrees>36.53029949404299259185791015625</LatitudeDegrees>
              <LongitudeDegrees>-5.39810062386095523834228515625</LongitudeDegrees>
            </Position>
            <AltitudeMeters>226.8000030517578125</AltitudeMeters>
            <DistanceMeters>2126.069386553</DistanceMeters>
          </Trackpoint>
          <Trackpoint>
            <Time>2019-01-04T09:38:43.000Z</Time>
            <Position>
              <LatitudeDegrees>36.53030209243297576904296875</LatitudeDegrees>
              <LongitudeDegrees>-5.398117639124393463134765625</LongitudeDegrees>
            </Position>
            <AltitudeMeters>226.8000030517578125</AltitudeMeters>
            <DistanceMeters>2127.6133879071</DistanceMeters>
          </Trackpoint>
          <Trackpoint>
            <Time>2019-01-04T09:38:44.000Z</Time>
            <Position>
              <LatitudeDegrees>36.53030251152813434600830078125</LatitudeDegrees>
              <LongitudeDegrees>-5.3981382586061954498291015625</LongitudeDegrees>
            </Position>
            <AltitudeMeters>226.8000030517578125</AltitudeMeters>
            <DistanceMeters>2129.4560242637</DistanceMeters>
          </Trackpoint>
          <Trackpoint>
            <Time>2019-01-04T09:38:45.000Z</Time>
            <Position>
              <LatitudeDegrees>36.53030435554683208465576171875</LatitudeDegrees>
              <LongitudeDegrees>-5.39815074764192104339599609375</LongitudeDegrees>
            </Position>
            <AltitudeMeters>227</AltitudeMeters>
            <DistanceMeters>2130.5883982545</DistanceMeters>
          </Trackpoint>
          <Trackpoint>
            <Time>2019-01-04T09:38:46.000Z</Time>
            <Position>
              <LatitudeDegrees>36.53029949404299259185791015625</LatitudeDegrees>
              <LongitudeDegrees>-5.398172624409198760986328125</LongitudeDegrees>
            </Position>
            <AltitudeMeters>227</AltitudeMeters>
            <DistanceMeters>2132.6198373835</DistanceMeters>
          </Trackpoint>
          <Trackpoint>
            <Time>2019-01-04T09:38:47.000Z</Time>
            <Position>
              <LatitudeDegrees>36.53029404580593109130859375</LatitudeDegrees>
              <LongitudeDegrees>-5.398192740976810455322265625</LongitudeDegrees>
            </Position>
            <AltitudeMeters>227.1999969482421875</AltitudeMeters>
            <DistanceMeters>2134.5156143812</DistanceMeters>
          </Trackpoint>
          <Trackpoint>
            <Time>2019-01-04T09:38:48.000Z</Time>
            <Position>
              <LatitudeDegrees>36.53028943575918674468994140625</LatitudeDegrees>
              <LongitudeDegrees>-5.39820757694542407989501953125</LongitudeDegrees>
            </Position>
            <AltitudeMeters>227.399993896484375</AltitudeMeters>
            <DistanceMeters>2135.9378440122</DistanceMeters>
          </Trackpoint>
          <Trackpoint>
            <Time>2019-01-04T09:38:49.000Z</Time>
            <Position>
              <LatitudeDegrees>36.530287005007266998291015625</LatitudeDegrees>
              <LongitudeDegrees>-5.3982261009514331817626953125</LongitudeDegrees>
            </Position>
            <AltitudeMeters>227.8000030517578125</AltitudeMeters>
            <DistanceMeters>2137.6136583737</DistanceMeters>
          </Trackpoint>
          <Trackpoint>
            <Time>2019-01-04T09:38:50.000Z</Time>
            <Position>
              <LatitudeDegrees>36.53029094450175762176513671875</LatitudeDegrees>
              <LongitudeDegrees>-5.39824227802455425262451171875</LongitudeDegrees>
            </Position>
            <AltitudeMeters>228</AltitudeMeters>
            <DistanceMeters>2139.1221606985</DistanceMeters>
          </Trackpoint>
          <Trackpoint>
            <Time>2019-01-04T09:38:51.000Z</Time>
            <Position>
              <LatitudeDegrees>36.53028926812112331390380859375</LatitudeDegrees>
              <LongitudeDegrees>-5.398258455097675323486328125</LongitudeDegrees>
            </Position>
            <AltitudeMeters>228.1999969482421875</AltitudeMeters>
            <DistanceMeters>2140.5819887845</DistanceMeters>
          </Trackpoint>
          <Trackpoint>
            <Time>2019-01-04T09:38:52.000Z</Time>
            <Position>
              <LatitudeDegrees>36.5302881784737110137939453125</LatitudeDegrees>
              <LongitudeDegrees>-5.398279242217540740966796875</LongitudeDegrees>
            </Position>
            <AltitudeMeters>228.399993896484375</AltitudeMeters>
            <DistanceMeters>2142.4441244816</DistanceMeters>
          </Trackpoint>
          <Trackpoint>
            <Time>2019-01-04T09:38:53.000Z</Time>
            <Position>
              <LatitudeDegrees>36.53028742410242557525634765625</LatitudeDegrees>
              <LongitudeDegrees>-5.39829156361520290374755859375</LongitudeDegrees>
            </Position>
            <AltitudeMeters>228.600006103515625</AltitudeMeters>
            <DistanceMeters>2143.5441382286</DistanceMeters>
          </Trackpoint>
          <Trackpoint>
            <Time>2019-01-04T09:38:54.000Z</Time>
            <Position>
              <LatitudeDegrees>36.5302891843020915985107421875</LatitudeDegrees>
              <LongitudeDegrees>-5.39830572903156280517578125</LongitudeDegrees>
            </Position>
            <AltitudeMeters>228.600006103515625</AltitudeMeters>
            <DistanceMeters>2144.8261186936</DistanceMeters>
          </Trackpoint>
          <Trackpoint>
            <Time>2019-01-04T09:38:55.000Z</Time>
            <Position>
              <LatitudeDegrees>36.5302908606827259063720703125</LatitudeDegrees>
              <LongitudeDegrees>-5.39832182228565216064453125</LongitudeDegrees>
            </Position>
            <AltitudeMeters>228.600006103515625</AltitudeMeters>
            <DistanceMeters>2146.2735224849</DistanceMeters>
          </Trackpoint>
          <Trackpoint>
            <Time>2019-01-04T09:38:56.000Z</Time>
            <Position>
              <LatitudeDegrees>36.5302922017872333526611328125</LatitudeDegrees>
              <LongitudeDegrees>-5.398338921368122100830078125</LongitudeDegrees>
            </Position>
            <AltitudeMeters>228.600006103515625</AltitudeMeters>
            <DistanceMeters>2147.8116642301</DistanceMeters>
          </Trackpoint>
          <Trackpoint>
            <Time>2019-01-04T09:38:57.000Z</Time>
            <Position>
              <LatitudeDegrees>36.530293039977550506591796875</LatitudeDegrees>
              <LongitudeDegrees>-5.39835534989833831787109375</LongitudeDegrees>
            </Position>
            <AltitudeMeters>228.600006103515625</AltitudeMeters>
            <DistanceMeters>2149.2838117589</DistanceMeters>
          </Trackpoint>
          <Trackpoint>
            <Time>2019-01-04T09:38:58.000Z</Time>
            <Position>
              <LatitudeDegrees>36.5302952192723751068115234375</LatitudeDegrees>
              <LongitudeDegrees>-5.39836800657212734222412109375</LongitudeDegrees>
            </Position>
            <AltitudeMeters>228.8000030517578125</AltitudeMeters>
            <DistanceMeters>2150.4437606328</DistanceMeters>
          </Trackpoint>
          <Trackpoint>
            <Time>2019-01-04T09:38:59.000Z</Time>
            <Position>
              <LatitudeDegrees>36.53029832057654857635498046875</LatitudeDegrees>
              <LongitudeDegrees>-5.39838393218815326690673828125</LongitudeDegrees>
            </Position>
            <AltitudeMeters>228.8000030517578125</AltitudeMeters>
            <DistanceMeters>2151.909761381</DistanceMeters>
          </Trackpoint>
          <Trackpoint>
            <Time>2019-01-04T09:39:00.000Z</Time>
            <Position>
              <LatitudeDegrees>36.530303098261356353759765625</LatitudeDegrees>
              <LongitudeDegrees>-5.39839985780417919158935546875</LongitudeDegrees>
            </Position>
            <AltitudeMeters>228.8000030517578125</AltitudeMeters>
            <DistanceMeters>2153.4301888109</DistanceMeters>
          </Trackpoint>
          <Trackpoint>
            <Time>2019-01-04T09:39:01.000Z</Time>
            <Position>
              <LatitudeDegrees>36.53030670247972011566162109375</LatitudeDegrees>
              <LongitudeDegrees>-5.39841729216277599334716796875</LongitudeDegrees>
            </Position>
            <AltitudeMeters>228.8000030517578125</AltitudeMeters>
            <DistanceMeters>2155.0372363718</DistanceMeters>
          </Trackpoint>
          <Trackpoint>
            <Time>2019-01-04T09:39:02.000Z</Time>
            <Position>
              <LatitudeDegrees>36.5303126536309719085693359375</LatitudeDegrees>
              <LongitudeDegrees>-5.398437492549419403076171875</LongitudeDegrees>
            </Position>
            <AltitudeMeters>228.8000030517578125</AltitudeMeters>
            <DistanceMeters>2156.9613806861</DistanceMeters>
          </Trackpoint>
          <Trackpoint>
            <Time>2019-01-04T09:39:03.000Z</Time>
            <Position>
              <LatitudeDegrees>36.53031558729708194732666015625</LatitudeDegrees>
              <LongitudeDegrees>-5.398452579975128173828125</LongitudeDegrees>
            </Position>
            <AltitudeMeters>228.8000030517578125</AltitudeMeters>
            <DistanceMeters>2158.3449905321</DistanceMeters>
          </Trackpoint>
          <Trackpoint>
            <Time>2019-01-04T09:39:04.000Z</Time>
            <Position>
              <LatitudeDegrees>36.5303196944296360015869140625</LatitudeDegrees>
              <LongitudeDegrees>-5.39846473373472690582275390625</LongitudeDegrees>
            </Position>
            <AltitudeMeters>228.8000030517578125</AltitudeMeters>
            <DistanceMeters>2159.5242410451</DistanceMeters>
          </Trackpoint>
          <Trackpoint>
            <Time>2019-01-04T09:39:05.000Z</Time>
            <Position>
              <LatitudeDegrees>36.5303210355341434478759765625</LatitudeDegrees>
              <LongitudeDegrees>-5.39848267100751399993896484375</LongitudeDegrees>
            </Position>
            <AltitudeMeters>228.8000030517578125</AltitudeMeters>
            <DistanceMeters>2161.1368978641</DistanceMeters>
          </Trackpoint>
          <Trackpoint>
            <Time>2019-01-04T09:39:06.000Z</Time>
            <Position>
              <LatitudeDegrees>36.530320532619953155517578125</LatitudeDegrees>
              <LongitudeDegrees>-5.398503877222537994384765625</LongitudeDegrees>
            </Position>
            <AltitudeMeters>228.8000030517578125</AltitudeMeters>
            <DistanceMeters>2163.0326748617</DistanceMeters>
          </Trackpoint>
          <Trackpoint>
            <Time>2019-01-04T09:39:07.000Z</Time>
            <Position>
              <LatitudeDegrees>36.53032086789608001708984375</LatitudeDegrees>
              <LongitudeDegrees>-5.3985244967043399810791015625</LongitudeDegrees>
            </Position>
            <AltitudeMeters>228.8000030517578125</AltitudeMeters>
            <DistanceMeters>2164.8753112184</DistanceMeters>
          </Trackpoint>
          <Trackpoint>
            <Time>2019-01-04T09:39:08.000Z</Time>
            <Position>
              <LatitudeDegrees>36.5303217060863971710205078125</LatitudeDegrees>
              <LongitudeDegrees>-5.398545451462268829345703125</LongitudeDegrees>
            </Position>
            <AltitudeMeters>228.8000030517578125</AltitudeMeters>
            <DistanceMeters>2166.7495309858</DistanceMeters>
          </Trackpoint>
          <Trackpoint>
            <Time>2019-01-04T09:39:09.000Z</Time>
            <Position>
              <LatitudeDegrees>36.53032028116285800933837890625</LatitudeDegrees>
              <LongitudeDegrees>-5.3985679149627685546875</LongitudeDegrees>
            </Position>
            <AltitudeMeters>228.8000030517578125</AltitudeMeters>
            <DistanceMeters>2168.7653520096</DistanceMeters>
          </Trackpoint>
          <Trackpoint>
            <Time>2019-01-04T09:39:10.000Z</Time>
            <Position>
              <LatitudeDegrees>36.53031952679157257080078125</LatitudeDegrees>
              <LongitudeDegrees>-5.398587696254253387451171875</LongitudeDegrees>
            </Position>
            <AltitudeMeters>228.8000030517578125</AltitudeMeters>
            <DistanceMeters>2170.5380523798</DistanceMeters>
          </Trackpoint>
          <Trackpoint>
            <Time>2019-01-04T09:39:11.000Z</Time>
            <Position>
              <LatitudeDegrees>36.5303139947354793548583984375</LatitudeDegrees>
              <LongitudeDegrees>-5.3986120037734508514404296875</LongitudeDegrees>
            </Position>
            <AltitudeMeters>228.600006103515625</AltitudeMeters>
            <DistanceMeters>2172.7988096129</DistanceMeters>
          </Trackpoint>
          <Trackpoint>
            <Time>2019-01-04T09:39:12.000Z</Time>
            <Position>
              <LatitudeDegrees>36.5303109772503376007080078125</LatitudeDegrees>
              <LongitudeDegrees>-5.39863924495875835418701171875</LongitudeDegrees>
            </Position>
            <AltitudeMeters>228.600006103515625</AltitudeMeters>
            <DistanceMeters>2175.2585151273</DistanceMeters>
          </Trackpoint>
          <Trackpoint>
            <Time>2019-01-04T09:39:13.000Z</Time>
            <Position>
              <LatitudeDegrees>36.5303072892129421234130859375</LatitudeDegrees>
              <LongitudeDegrees>-5.398662798106670379638671875</LongitudeDegrees>
            </Position>
            <AltitudeMeters>228.399993896484375</AltitudeMeters>
            <DistanceMeters>2177.404520483</DistanceMeters>
          </Trackpoint>
          <Trackpoint>
            <Time>2019-01-04T09:39:14.000Z</Time>
            <Position>
              <LatitudeDegrees>36.53030049987137317657470703125</LatitudeDegrees>
              <LongitudeDegrees>-5.39868635125458240509033203125</LongitudeDegrees>
            </Position>
            <AltitudeMeters>228.399993896484375</AltitudeMeters>
            <DistanceMeters>2179.6411837008</DistanceMeters>
          </Trackpoint>
          <Trackpoint>
            <Time>2019-01-04T09:39:15.000Z</Time>
            <Position>
              <LatitudeDegrees>36.53029614128172397613525390625</LatitudeDegrees>
              <LongitudeDegrees>-5.3987038694322109222412109375</LongitudeDegrees>
            </Position>
            <AltitudeMeters>228.399993896484375</AltitudeMeters>
            <DistanceMeters>2181.2843491997</DistanceMeters>
          </Trackpoint>
          <Trackpoint>
            <Time>2019-01-04T09:39:16.000Z</Time>
            <Position>
              <LatitudeDegrees>36.53029446490108966827392578125</LatitudeDegrees>
              <LongitudeDegrees>-5.39871954359114170074462890625</LongitudeDegrees>
            </Position>
            <AltitudeMeters>228.399993896484375</AltitudeMeters>
            <DistanceMeters>2182.7002153553</DistanceMeters>
          </Trackpoint>
          <Trackpoint>
            <Time>2019-01-04T09:39:17.000Z</Time>
            <Position>
              <LatitudeDegrees>36.53029278852045536041259765625</LatitudeDegrees>
              <LongitudeDegrees>-5.39873681031167507171630859375</LongitudeDegrees>
            </Position>
            <AltitudeMeters>228.399993896484375</AltitudeMeters>
            <DistanceMeters>2184.255869715</DistanceMeters>
          </Trackpoint>
          <Trackpoint>
            <Time>2019-01-04T09:39:18.000Z</Time>
            <Position>
              <LatitudeDegrees>36.53029211796820163726806640625</LatitudeDegrees>
              <LongitudeDegrees>-5.39875541813671588897705078125</LongitudeDegrees>
            </Position>
            <AltitudeMeters>228.399993896484375</AltitudeMeters>
            <DistanceMeters>2185.920872258</DistanceMeters>
          </Trackpoint>
          <Trackpoint>
            <Time>2019-01-04T09:39:19.000Z</Time>
            <Position>
              <LatitudeDegrees>36.5302908606827259063720703125</LatitudeDegrees>
              <LongitudeDegrees>-5.39877519942820072174072265625</LongitudeDegrees>
            </Position>
            <AltitudeMeters>228.399993896484375</AltitudeMeters>
            <DistanceMeters>2187.6961177844</DistanceMeters>
          </Trackpoint>
          <Trackpoint>
            <Time>2019-01-04T09:39:20.000Z</Time>
            <Position>
              <LatitudeDegrees>36.53029178269207477569580078125</LatitudeDegrees>
              <LongitudeDegrees>-5.39879615418612957000732421875</LongitudeDegrees>
            </Position>
            <AltitudeMeters>228.399993896484375</AltitudeMeters>
            <DistanceMeters>2189.5727450285</DistanceMeters>
          </Trackpoint>
          <Trackpoint>
            <Time>2019-01-04T09:39:21.000Z</Time>
            <Position>
              <LatitudeDegrees>36.530294716358184814453125</LatitudeDegrees>
              <LongitudeDegrees>-5.398818366229534149169921875</LongitudeDegrees>
            </Position>
            <AltitudeMeters>228.399993896484375</AltitudeMeters>
            <DistanceMeters>2191.5863250054</DistanceMeters>
          </Trackpoint>
          <Trackpoint>
            <Time>2019-01-04T09:39:22.000Z</Time>
            <Position>
              <LatitudeDegrees>36.5302955545485019683837890625</LatitudeDegrees>
              <LongitudeDegrees>-5.398836471140384674072265625</LongitudeDegrees>
            </Position>
            <AltitudeMeters>228.600006103515625</AltitudeMeters>
            <DistanceMeters>2193.2101422123</DistanceMeters>
          </Trackpoint>
          <Trackpoint>
            <Time>2019-01-04T09:39:23.000Z</Time>
            <Position>
              <LatitudeDegrees>36.53029697947204113006591796875</LatitudeDegrees>
              <LongitudeDegrees>-5.39885633625090122222900390625</LongitudeDegrees>
            </Position>
            <AltitudeMeters>228.600006103515625</AltitudeMeters>
            <DistanceMeters>2194.9930014071</DistanceMeters>
          </Trackpoint>
          <Trackpoint>
            <Time>2019-01-04T09:39:24.000Z</Time>
            <Position>
              <LatitudeDegrees>36.53029647655785083770751953125</LatitudeDegrees>
              <LongitudeDegrees>-5.3988822363317012786865234375</LongitudeDegrees>
            </Position>
            <AltitudeMeters>228.600006103515625</AltitudeMeters>
            <DistanceMeters>2197.3109521149</DistanceMeters>
          </Trackpoint>
          <Trackpoint>
            <Time>2019-01-04T09:39:25.000Z</Time>
            <Position>
              <LatitudeDegrees>36.53029412962496280670166015625</LatitudeDegrees>
              <LongitudeDegrees>-5.39890654385089874267578125</LongitudeDegrees>
            </Position>
            <AltitudeMeters>228.600006103515625</AltitudeMeters>
            <DistanceMeters>2199.5027551782</DistanceMeters>
          </Trackpoint>
          <Trackpoint>
            <Time>2019-01-04T09:39:26.000Z</Time>
            <Position>
              <LatitudeDegrees>36.53029848821461200714111328125</LatitudeDegrees>
              <LongitudeDegrees>-5.39892263710498809814453125</LongitudeDegrees>
            </Position>
            <AltitudeMeters>228.600006103515625</AltitudeMeters>
            <DistanceMeters>2201.0202101177</DistanceMeters>
          </Trackpoint>
          <Trackpoint>
            <Time>2019-01-04T09:39:27.000Z</Time>
            <Position>
              <LatitudeDegrees>36.5303012542426586151123046875</LatitudeDegrees>
              <LongitudeDegrees>-5.39893998764455318450927734375</LongitudeDegrees>
            </Position>
            <AltitudeMeters>228.600006103515625</AltitudeMeters>
            <DistanceMeters>2202.6017698462</DistanceMeters>
          </Trackpoint>
          <Trackpoint>
            <Time>2019-01-04T09:39:28.000Z</Time>
            <Position>
              <LatitudeDegrees>36.5302985720336437225341796875</LatitudeDegrees>
              <LongitudeDegrees>-5.3989650495350360870361328125</LongitudeDegrees>
            </Position>
            <AltitudeMeters>228.600006103515625</AltitudeMeters>
            <DistanceMeters>2204.8625270794</DistanceMeters>
          </Trackpoint>
          <Trackpoint>
            <Time>2019-01-04T09:39:29.000Z</Time>
            <Position>
              <LatitudeDegrees>36.530305445194244384765625</LatitudeDegrees>
              <LongitudeDegrees>-5.39898038841784000396728515625</LongitudeDegrees>
            </Position>
            <AltitudeMeters>228.600006103515625</AltitudeMeters>
            <DistanceMeters>2206.4354990898</DistanceMeters>
          </Trackpoint>
          <Trackpoint>
            <Time>2019-01-04T09:39:30.000Z</Time>
            <Position>
              <LatitudeDegrees>36.53030955232679843902587890625</LatitudeDegrees>
              <LongitudeDegrees>-5.3989995829761028289794921875</LongitudeDegrees>
            </Position>
            <AltitudeMeters>228.600006103515625</AltitudeMeters>
            <DistanceMeters>2208.2107446162</DistanceMeters>
          </Trackpoint>
          <Trackpoint>
            <Time>2019-01-04T09:39:31.000Z</Time>
            <Position>
              <LatitudeDegrees>36.5303134918212890625</LatitudeDegrees>
              <LongitudeDegrees>-5.39901844225823879241943359375</LongitudeDegrees>
            </Position>
            <AltitudeMeters>228.600006103515625</AltitudeMeters>
            <DistanceMeters>2209.9526130628</DistanceMeters>
          </Trackpoint>
          <Trackpoint>
            <Time>2019-01-04T09:39:32.000Z</Time>
            <Position>
              <LatitudeDegrees>36.53031826950609683990478515625</LatitudeDegrees>
              <LongitudeDegrees>-5.399038307368755340576171875</LongitudeDegrees>
            </Position>
            <AltitudeMeters>228.600006103515625</AltitudeMeters>
            <DistanceMeters>2211.8050247472</DistanceMeters>
          </Trackpoint>
          <Trackpoint>
            <Time>2019-01-04T09:39:33.000Z</Time>
            <Position>
              <LatitudeDegrees>36.53032581321895122528076171875</LatitudeDegrees>
              <LongitudeDegrees>-5.39905951358377933502197265625</LongitudeDegrees>
            </Position>
            <AltitudeMeters>228.600006103515625</AltitudeMeters>
            <DistanceMeters>2213.8739027606</DistanceMeters>
          </Trackpoint>
          <Trackpoint>
            <Time>2019-01-04T09:39:34.000Z</Time>
            <Position>
              <LatitudeDegrees>36.53032866306602954864501953125</LatitudeDegrees>
              <LongitudeDegrees>-5.39908130653202533721923828125</LongitudeDegrees>
            </Position>
            <AltitudeMeters>228.600006103515625</AltitudeMeters>
            <DistanceMeters>2215.848995929</DistanceMeters>
          </Trackpoint>
          <Trackpoint>
            <Time>2019-01-04T09:39:35.000Z</Time>
            <Position>
              <LatitudeDegrees>36.5303309261798858642578125</LatitudeDegrees>
              <LongitudeDegrees>-5.39910008199512958526611328125</LongitudeDegrees>
            </Position>
            <AltitudeMeters>228.600006103515625</AltitudeMeters>
            <DistanceMeters>2217.5488854731</DistanceMeters>
          </Trackpoint>
          <Trackpoint>
            <Time>2019-01-04T09:39:36.000Z</Time>
            <Position>
              <LatitudeDegrees>36.5303347818553447723388671875</LatitudeDegrees>
              <LongitudeDegrees>-5.39911709725856781005859375</LongitudeDegrees>
            </Position>
            <AltitudeMeters>228.600006103515625</AltitudeMeters>
            <DistanceMeters>2219.1275878195</DistanceMeters>
          </Trackpoint>
          <Trackpoint>
            <Time>2019-01-04T09:39:37.000Z</Time>
            <Position>
              <LatitudeDegrees>36.53034031391143798828125</LatitudeDegrees>
              <LongitudeDegrees>-5.39913411252200603485107421875</LongitudeDegrees>
            </Position>
            <AltitudeMeters>228.600006103515625</AltitudeMeters>
            <DistanceMeters>2220.7680032487</DistanceMeters>
          </Trackpoint>
          <Trackpoint>
            <Time>2019-01-04T09:39:38.000Z</Time>
            <Position>
              <LatitudeDegrees>36.53034475632011890411376953125</LatitudeDegrees>
              <LongitudeDegrees>-5.39915322326123714447021484375</LongitudeDegrees>
            </Position>
            <AltitudeMeters>228.399993896484375</AltitudeMeters>
            <DistanceMeters>2222.5457902875</DistanceMeters>
          </Trackpoint>
          <Trackpoint>
            <Time>2019-01-04T09:39:39.000Z</Time>
            <Position>
              <LatitudeDegrees>36.53034768998622894287109375</LatitudeDegrees>
              <LongitudeDegrees>-5.39917015470564365386962890625</LongitudeDegrees>
            </Position>
            <AltitudeMeters>228.399993896484375</AltitudeMeters>
            <DistanceMeters>2224.0956290966</DistanceMeters>
          </Trackpoint>
          <Trackpoint>
            <Time>2019-01-04T09:39:40.000Z</Time>
            <Position>
              <LatitudeDegrees>36.53034894727170467376708984375</LatitudeDegrees>
              <LongitudeDegrees>-5.399187169969081878662109375</LongitudeDegrees>
            </Position>
            <AltitudeMeters>228.399993896484375</AltitudeMeters>
            <DistanceMeters>2225.619023217</DistanceMeters>
          </Trackpoint>
          <Trackpoint>
            <Time>2019-01-04T09:39:41.000Z</Time>
            <Position>
              <LatitudeDegrees>36.5303470194339752197265625</LatitudeDegrees>
              <LongitudeDegrees>-5.39920024573802947998046875</LongitudeDegrees>
            </Position>
            <AltitudeMeters>228.399993896484375</AltitudeMeters>
            <DistanceMeters>2226.8097045353</DistanceMeters>
          </Trackpoint>
          <Trackpoint>
            <Time>2019-01-04T09:39:42.000Z</Time>
            <Position>
              <LatitudeDegrees>36.5303443372249603271484375</LatitudeDegrees>
              <LongitudeDegrees>-5.3992134891450405120849609375</LongitudeDegrees>
            </Position>
            <AltitudeMeters>228.399993896484375</AltitudeMeters>
            <DistanceMeters>2228.0340381049</DistanceMeters>
          </Trackpoint>
          <Trackpoint>
            <Time>2019-01-04T09:39:43.000Z</Time>
            <Position>
              <LatitudeDegrees>36.53034039773046970367431640625</LatitudeDegrees>
              <LongitudeDegrees>-5.39922715164721012115478515625</LongitudeDegrees>
            </Position>
            <AltitudeMeters>228.399993896484375</AltitudeMeters>
            <DistanceMeters>2229.3300297015</DistanceMeters>
          </Trackpoint>
          <Trackpoint>
            <Time>2019-01-04T09:39:44.000Z</Time>
            <Position>
              <LatitudeDegrees>36.5303347818553447723388671875</LatitudeDegrees>
              <LongitudeDegrees>-5.39924089796841144561767578125</LongitudeDegrees>
            </Position>
            <AltitudeMeters>228.399993896484375</AltitudeMeters>
            <DistanceMeters>2230.7103724596</DistanceMeters>
          </Trackpoint>
          <Trackpoint>
            <Time>2019-01-04T09:39:45.000Z</Time>
            <Position>
              <LatitudeDegrees>36.53032816015183925628662109375</LatitudeDegrees>
              <LongitudeDegrees>-5.39925313554704189300537109375</LongitudeDegrees>
            </Position>
            <AltitudeMeters>228.399993896484375</AltitudeMeters>
            <DistanceMeters>2232.0271012385</DistanceMeters>
          </Trackpoint>
          <Trackpoint>
            <Time>2019-01-04T09:39:46.000Z</Time>
            <Position>
              <LatitudeDegrees>36.5303233824670314788818359375</LatitudeDegrees>
              <LongitudeDegrees>-5.39926738478243350982666015625</LongitudeDegrees>
            </Position>
            <AltitudeMeters>228.399993896484375</AltitudeMeters>
            <DistanceMeters>2233.4041691574</DistanceMeters>
          </Trackpoint>
          <Trackpoint>
            <Time>2019-01-04T09:39:47.000Z</Time>
            <Position>
              <LatitudeDegrees>36.5303166769444942474365234375</LatitudeDegrees>
              <LongitudeDegrees>-5.39928230457007884979248046875</LongitudeDegrees>
            </Position>
            <AltitudeMeters>228.399993896484375</AltitudeMeters>
            <DistanceMeters>2234.9305242021</DistanceMeters>
          </Trackpoint>
          <Trackpoint>
            <Time>2019-01-04T09:39:48.000Z</Time>
            <Position>
              <LatitudeDegrees>36.5303056128323078155517578125</LatitudeDegrees>
              <LongitudeDegrees>-5.399295128881931304931640625</LongitudeDegrees>
            </Position>
            <AltitudeMeters>228.600006103515625</AltitudeMeters>
            <DistanceMeters>2236.6144018709</DistanceMeters>
          </Trackpoint>
          <Trackpoint>
            <Time>2019-01-04T09:39:49.000Z</Time>
            <Position>
              <LatitudeDegrees>36.53029362671077251434326171875</LatitudeDegrees>
              <LongitudeDegrees>-5.39930812083184719085693359375</LongitudeDegrees>
            </Position>
            <AltitudeMeters>228.600006103515625</AltitudeMeters>
            <DistanceMeters>2238.3820009345</DistanceMeters>
          </Trackpoint>
          <Trackpoint>
            <Time>2019-01-04T09:39:50.000Z</Time>
            <Position>
              <LatitudeDegrees>36.53028172440826892852783203125</LatitudeDegrees>
              <LongitudeDegrees>-5.39931968785822391510009765625</LongitudeDegrees>
            </Position>
            <AltitudeMeters>228.399993896484375</AltitudeMeters>
            <DistanceMeters>2240.0658786032</DistanceMeters>
          </Trackpoint>
          <Trackpoint>
            <Time>2019-01-04T09:39:51.000Z</Time>
            <Position>
              <LatitudeDegrees>36.53027149848639965057373046875</LatitudeDegrees>
              <LongitudeDegrees>-5.39933276362717151641845703125</LongitudeDegrees>
            </Position>
            <AltitudeMeters>228.399993896484375</AltitudeMeters>
            <DistanceMeters>2241.7007800154</DistanceMeters>
          </Trackpoint>
          <Trackpoint>
            <Time>2019-01-04T09:39:52.000Z</Time>
            <Position>
              <LatitudeDegrees>36.5302638709545135498046875</LatitudeDegrees>
              <LongitudeDegrees>-5.3993452526628971099853515625</LongitudeDegrees>
            </Position>
            <AltitudeMeters>228.399993896484375</AltitudeMeters>
            <DistanceMeters>2243.103832639</DistanceMeters>
          </Trackpoint>
          <Trackpoint>
            <Time>2019-01-04T09:39:53.000Z</Time>
            <Position>
              <LatitudeDegrees>36.5302580036222934722900390625</LatitudeDegrees>
              <LongitudeDegrees>-5.39935757406055927276611328125</LongitudeDegrees>
            </Position>
            <AltitudeMeters>228.1999969482421875</AltitudeMeters>
            <DistanceMeters>2244.3787497971</DistanceMeters>
          </Trackpoint>
          <Trackpoint>
            <Time>2019-01-04T09:39:54.000Z</Time>
            <Position>
              <LatitudeDegrees>36.53024819679558277130126953125</LatitudeDegrees>
              <LongitudeDegrees>-5.39936863817274570465087890625</LongitudeDegrees>
            </Position>
            <AltitudeMeters>228.1999969482421875</AltitudeMeters>
            <DistanceMeters>2245.8478271504</DistanceMeters>
          </Trackpoint>
          <Trackpoint>
            <Time>2019-01-04T09:39:55.000Z</Time>
            <Position>
              <LatitudeDegrees>36.53024165891110897064208984375</LatitudeDegrees>
              <LongitudeDegrees>-5.39937986992299556732177734375</LongitudeDegrees>
            </Position>
            <AltitudeMeters>228</AltitudeMeters>
            <DistanceMeters>2247.0868239202</DistanceMeters>
          </Trackpoint>
          <Trackpoint>
            <Time>2019-01-04T09:39:56.000Z</Time>
            <Position>
              <LatitudeDegrees>36.53023143298923969268798828125</LatitudeDegrees>
              <LongitudeDegrees>-5.39939277805387973785400390625</LongitudeDegrees>
            </Position>
            <AltitudeMeters>228</AltitudeMeters>
            <DistanceMeters>2248.7106411272</DistanceMeters>
          </Trackpoint>
          <Trackpoint>
            <Time>2019-01-04T09:39:57.000Z</Time>
            <Position>
              <LatitudeDegrees>36.53022388927638530731201171875</LatitudeDegrees>
              <LongitudeDegrees>-5.39940417744219303131103515625</LongitudeDegrees>
            </Position>
            <AltitudeMeters>227.8000030517578125</AltitudeMeters>
            <DistanceMeters>2250.0307944341</DistanceMeters>
          </Trackpoint>
          <Trackpoint>
            <Time>2019-01-04T09:39:58.000Z</Time>
            <Position>
              <LatitudeDegrees>36.53021466918289661407470703125</LatitudeDegrees>
              <LongitudeDegrees>-5.39941557683050632476806640625</LongitudeDegrees>
            </Position>
            <AltitudeMeters>227.8000030517578125</AltitudeMeters>
            <DistanceMeters>2251.4750754519</DistanceMeters>
          </Trackpoint>
          <Trackpoint>
            <Time>2019-01-04T09:39:59.000Z</Time>
            <Position>
              <LatitudeDegrees>36.53020461089909076690673828125</LatitudeDegrees>
              <LongitudeDegrees>-5.39942999370396137237548828125</LongitudeDegrees>
            </Position>
            <AltitudeMeters>227.8000030517578125</AltitudeMeters>
            <DistanceMeters>2253.1802688764</DistanceMeters>
          </Trackpoint>
          <Trackpoint>
            <Time>2019-01-04T09:40:00.000Z</Time>
            <Position>
              <LatitudeDegrees>36.53019555844366550445556640625</LatitudeDegrees>
              <LongitudeDegrees>-5.399444662034511566162109375</LongitudeDegrees>
            </Position>
            <AltitudeMeters>227.8000030517578125</AltitudeMeters>
            <DistanceMeters>2254.8316571064</DistanceMeters>
          </Trackpoint>
          <Trackpoint>
            <Time>2019-01-04T09:40:01.000Z</Time>
            <Position>
              <LatitudeDegrees>36.53018675744533538818359375</LatitudeDegrees>
              <LongitudeDegrees>-5.3994579054415225982666015625</LongitudeDegrees>
            </Position>
            <AltitudeMeters>227.600006103515625</AltitudeMeters>
            <DistanceMeters>2256.3668606603</DistanceMeters>
          </Trackpoint>
          <Trackpoint>
            <Time>2019-01-04T09:40:02.000Z</Time>
            <Position>
              <LatitudeDegrees>36.5301758609712123870849609375</LatitudeDegrees>
              <LongitudeDegrees>-5.3994716517627239227294921875</LongitudeDegrees>
            </Position>
            <AltitudeMeters>227.600006103515625</AltitudeMeters>
            <DistanceMeters>2258.0931066527</DistanceMeters>
          </Trackpoint>
          <Trackpoint>
            <Time>2019-01-04T09:40:03.000Z</Time>
            <Position>
              <LatitudeDegrees>36.53016521595418453216552734375</LatitudeDegrees>
              <LongitudeDegrees>-5.39948455989360809326171875</LongitudeDegrees>
            </Position>
            <AltitudeMeters>227.600006103515625</AltitudeMeters>
            <DistanceMeters>2259.7499540322</DistanceMeters>
          </Trackpoint>
          <Trackpoint>
            <Time>2019-01-04T09:40:04.000Z</Time>
            <Position>
              <LatitudeDegrees>36.5301577560603618621826171875</LatitudeDegrees>
              <LongitudeDegrees>-5.39949721656739711761474609375</LongitudeDegrees>
            </Position>
            <AltitudeMeters>227.600006103515625</AltitudeMeters>
            <DistanceMeters>2261.1530066559</DistanceMeters>
          </Trackpoint>
          <Trackpoint>
            <Time>2019-01-04T09:40:05.000Z</Time>
            <Position>
              <LatitudeDegrees>36.530150212347507476806640625</LatitudeDegrees>
              <LongitudeDegrees>-5.39950626902282238006591796875</LongitudeDegrees>
            </Position>
            <AltitudeMeters>227.600006103515625</AltitudeMeters>
            <DistanceMeters>2262.3129555298</DistanceMeters>
          </Trackpoint>
          <Trackpoint>
            <Time>2019-01-04T09:40:06.000Z</Time>
            <Position>
              <LatitudeDegrees>36.53013906441628932952880859375</LatitudeDegrees>
              <LongitudeDegrees>-5.3995125554502010345458984375</LongitudeDegrees>
            </Position>
            <AltitudeMeters>227.600006103515625</AltitudeMeters>
            <DistanceMeters>2263.6702084888</DistanceMeters>
          </Trackpoint>
          <Trackpoint>
            <Time>2019-01-04T09:40:07.000Z</Time>
            <Position>
              <LatitudeDegrees>36.53012716211378574371337890625</LatitudeDegrees>
              <LongitudeDegrees>-5.39952018298208713531494140625</LongitudeDegrees>
            </Position>
            <AltitudeMeters>227.600006103515625</AltitudeMeters>
            <DistanceMeters>2265.1606442657</DistanceMeters>
          </Trackpoint>
          <Trackpoint>
            <Time>2019-01-04T09:40:08.000Z</Time>
            <Position>
              <LatitudeDegrees>36.53011475689709186553955078125</LatitudeDegrees>
              <LongitudeDegrees>-5.39952655322849750518798828125</LongitudeDegrees>
            </Position>
            <AltitudeMeters>227.600006103515625</AltitudeMeters>
            <DistanceMeters>2266.6510800427</DistanceMeters>
          </Trackpoint>
          <Trackpoint>
            <Time>2019-01-04T09:40:09.000Z</Time>
            <Position>
              <LatitudeDegrees>36.53010386042296886444091796875</LatitudeDegrees>
              <LongitudeDegrees>-5.39953627623617649078369140625</LongitudeDegrees>
            </Position>
            <AltitudeMeters>227.8000030517578125</AltitudeMeters>
            <DistanceMeters>2268.1415158196</DistanceMeters>
          </Trackpoint>
          <Trackpoint>
            <Time>2019-01-04T09:40:10.000Z</Time>
            <Position>
              <LatitudeDegrees>36.5300964005291461944580078125</LatitudeDegrees>
              <LongitudeDegrees>-5.3995494358241558074951171875</LongitudeDegrees>
            </Position>
            <AltitudeMeters>227.8000030517578125</AltitudeMeters>
            <DistanceMeters>2269.5826672975</DistanceMeters>
          </Trackpoint>
          <Trackpoint>
            <Time>2019-01-04T09:40:11.000Z</Time>
            <Position>
              <LatitudeDegrees>36.5300876833498477935791015625</LatitudeDegrees>
              <LongitudeDegrees>-5.3995628468692302703857421875</LongitudeDegrees>
            </Position>
            <AltitudeMeters>227.8000030517578125</AltitudeMeters>
            <DistanceMeters>2271.1266686515</DistanceMeters>
          </Trackpoint>
          <Trackpoint>
            <Time>2019-01-04T09:40:12.000Z</Time>
            <Position>
              <LatitudeDegrees>36.53007972054183483123779296875</LatitudeDegrees>
              <LongitudeDegrees>-5.39957516826689243316650390625</LongitudeDegrees>
            </Position>
            <AltitudeMeters>227.8000030517578125</AltitudeMeters>
            <DistanceMeters>2272.5361426022</DistanceMeters>
          </Trackpoint>
          <Trackpoint>
            <Time>2019-01-04T09:40:13.000Z</Time>
            <Position>
              <LatitudeDegrees>36.53007620014250278472900390625</LatitudeDegrees>
              <LongitudeDegrees>-5.3995900042355060577392578125</LongitudeDegrees>
            </Position>
            <AltitudeMeters>227.8000030517578125</AltitudeMeters>
            <DistanceMeters>2273.9197524483</DistanceMeters>
          </Trackpoint>
          <Trackpoint>
            <Time>2019-01-04T09:40:14.000Z</Time>
            <Position>
              <LatitudeDegrees>36.5300746075809001922607421875</LatitudeDegrees>
              <LongitudeDegrees>-5.39960391819477081298828125</LongitudeDegrees>
            </Position>
            <AltitudeMeters>227.8000030517578125</AltitudeMeters>
            <DistanceMeters>2275.173240901</DistanceMeters>
          </Trackpoint>
          <Trackpoint>
            <Time>2019-01-04T09:40:15.000Z</Time>
            <Position>
              <LatitudeDegrees>36.5300715900957584381103515625</LatitudeDegrees>
              <LongitudeDegrees>-5.39961640723049640655517578125</LongitudeDegrees>
            </Position>
            <AltitudeMeters>227.8000030517578125</AltitudeMeters>
            <DistanceMeters>2276.3409487168</DistanceMeters>
          </Trackpoint>
          <Trackpoint>
            <Time>2019-01-04T09:40:16.000Z</Time>
            <Position>
              <LatitudeDegrees>36.5300682373344898223876953125</LatitudeDegrees>
              <LongitudeDegrees>-5.39963048882782459259033203125</LongitudeDegrees>
            </Position>
            <AltitudeMeters>227.8000030517578125</AltitudeMeters>
            <DistanceMeters>2277.6576774957</DistanceMeters>
          </Trackpoint>
          <Trackpoint>
            <Time>2019-01-04T09:40:17.000Z</Time>
            <Position>
              <LatitudeDegrees>36.5300662256777286529541015625</LatitudeDegrees>
              <LongitudeDegrees>-5.39964406751096248626708984375</LongitudeDegrees>
            </Position>
            <AltitudeMeters>227.8000030517578125</AltitudeMeters>
            <DistanceMeters>2278.8893644862</DistanceMeters>
          </Trackpoint>
          <Trackpoint>
            <Time>2019-01-04T09:40:18.000Z</Time>
            <Position>
              <LatitudeDegrees>36.53006630949676036834716796875</LatitudeDegrees>
              <LongitudeDegrees>-5.39966250769793987274169921875</LongitudeDegrees>
            </Position>
            <AltitudeMeters>228</AltitudeMeters>
            <DistanceMeters>2280.5380163627</DistanceMeters>
          </Trackpoint>
          <Trackpoint>
            <Time>2019-01-04T09:40:19.000Z</Time>
            <Position>
              <LatitudeDegrees>36.530067063868045806884765625</LatitudeDegrees>
              <LongitudeDegrees>-5.39967943914234638214111328125</LongitudeDegrees>
            </Position>
            <AltitudeMeters>228</AltitudeMeters>
            <DistanceMeters>2282.0524929775</DistanceMeters>
          </Trackpoint>
          <Trackpoint>
            <Time>2019-01-04T09:40:20.000Z</Time>
            <Position>
              <LatitudeDegrees>36.530069746077060699462890625</LatitudeDegrees>
              <LongitudeDegrees>-5.39968782104551792144775390625</LongitudeDegrees>
            </Position>
            <AltitudeMeters>228.1999969482421875</AltitudeMeters>
            <DistanceMeters>2282.858821387</DistanceMeters>
          </Trackpoint>
          <Trackpoint>
            <Time>2019-01-04T09:40:21.000Z</Time>
            <Position>
              <LatitudeDegrees>36.5300722606480121612548828125</LatitudeDegrees>
              <LongitudeDegrees>-5.3996895812451839447021484375</LongitudeDegrees>
            </Position>
            <AltitudeMeters>228.1999969482421875</AltitudeMeters>
            <DistanceMeters>2283.1739893436</DistanceMeters>
          </Trackpoint>
          <Trackpoint>
            <Time>2019-01-04T09:40:22.000Z</Time>
            <Position>
              <LatitudeDegrees>36.53007544577121734619140625</LatitudeDegrees>
              <LongitudeDegrees>-5.39969435892999172210693359375</LongitudeDegrees>
            </Position>
            <AltitudeMeters>228.1999969482421875</AltitudeMeters>
            <DistanceMeters>2283.7280855438</DistanceMeters>
          </Trackpoint>
          <Trackpoint>
            <Time>2019-01-04T09:40:23.000Z</Time>
            <Position>
              <LatitudeDegrees>36.5300787985324859619140625</LatitudeDegrees>
              <LongitudeDegrees>-5.399698801338672637939453125</LongitudeDegrees>
            </Position>
            <AltitudeMeters>228.399993896484375</AltitudeMeters>
            <DistanceMeters>2284.2739724576</DistanceMeters>
          </Trackpoint>
          <Trackpoint>
            <Time>2019-01-04T09:40:24.000Z</Time>
            <Position>
              <LatitudeDegrees>36.53008206747472286224365234375</LatitudeDegrees>
              <LongitudeDegrees>-5.39970424957573413848876953125</LongitudeDegrees>
            </Position>
            <AltitudeMeters>228.399993896484375</AltitudeMeters>
            <DistanceMeters>2284.8898159528</DistanceMeters>
          </Trackpoint>
          <Trackpoint>
            <Time>2019-01-04T09:40:25.000Z</Time>
            <Position>
              <LatitudeDegrees>36.53008441440761089324951171875</LatitudeDegrees>
              <LongitudeDegrees>-5.3997073508799076080322265625</LongitudeDegrees>
            </Position>
            <AltitudeMeters>228.399993896484375</AltitudeMeters>
            <DistanceMeters>2285.2699228103</DistanceMeters>
          </Trackpoint>
          <Trackpoint>
            <Time>2019-01-04T09:40:26.000Z</Time>
            <Position>
              <LatitudeDegrees>36.53008609078824520111083984375</LatitudeDegrees>
              <LongitudeDegrees>-5.39971011690795421600341796875</LongitudeDegrees>
            </Position>
            <AltitudeMeters>228.399993896484375</AltitudeMeters>
            <DistanceMeters>2285.5704236663</DistanceMeters>
          </Trackpoint>
          <Trackpoint>
            <Time>2019-01-04T09:40:27.000Z</Time>
            <Position>
              <LatitudeDegrees>36.530088521540164947509765625</LatitudeDegrees>
              <LongitudeDegrees>-5.39971363730728626251220703125</LongitudeDegrees>
            </Position>
            <AltitudeMeters>228.399993896484375</AltitudeMeters>
            <DistanceMeters>2285.9846355112</DistanceMeters>
          </Trackpoint>
          <Trackpoint>
            <Time>2019-01-04T09:40:28.000Z</Time>
            <Position>
              <LatitudeDegrees>36.53009363450109958648681640625</LatitudeDegrees>
              <LongitudeDegrees>-5.39971799589693546295166015625</LongitudeDegrees>
            </Position>
            <AltitudeMeters>228.399993896484375</AltitudeMeters>
            <DistanceMeters>2286.6698828936</DistanceMeters>
          </Trackpoint>
          <Trackpoint>
            <Time>2019-01-04T09:40:29.000Z</Time>
            <Position>
              <LatitudeDegrees>36.5300974063575267791748046875</LatitudeDegrees>
              <LongitudeDegrees>-5.39972419850528240203857421875</LongitudeDegrees>
            </Position>
            <AltitudeMeters>228.399993896484375</AltitudeMeters>
            <DistanceMeters>2287.3616878166</DistanceMeters>
          </Trackpoint>
          <Trackpoint>
            <Time>2019-01-04T09:40:30.000Z</Time>
            <Position>
              <LatitudeDegrees>36.5301017649471759796142578125</LatitudeDegrees>
              <LongitudeDegrees>-5.39972654543817043304443359375</LongitudeDegrees>
            </Position>
            <AltitudeMeters>228.399993896484375</AltitudeMeters>
            <DistanceMeters>2287.8821705669</DistanceMeters>
          </Trackpoint>
          <Trackpoint>
            <Time>2019-01-04T09:40:31.000Z</Time>
            <Position>
              <LatitudeDegrees>36.53010570444166660308837890625</LatitudeDegrees>
              <LongitudeDegrees>-5.39972864091396331787109375</LongitudeDegrees>
            </Position>
            <AltitudeMeters>228.399993896484375</AltitudeMeters>
            <DistanceMeters>2288.3667136377</DistanceMeters>
          </Trackpoint>
          <Trackpoint>
            <Time>2019-01-04T09:40:32.000Z</Time>
            <Position>
              <LatitudeDegrees>36.53010972775518894195556640625</LatitudeDegrees>
              <LongitudeDegrees>-5.3997298143804073333740234375</LongitudeDegrees>
            </Position>
            <AltitudeMeters>228.399993896484375</AltitudeMeters>
            <DistanceMeters>2288.832247562</DistanceMeters>
          </Trackpoint>
          <Trackpoint>
            <Time>2019-01-04T09:40:33.000Z</Time>
            <Position>
              <LatitudeDegrees>36.53011358343064785003662109375</LatitudeDegrees>
              <LongitudeDegrees>-5.3997314907610416412353515625</LongitudeDegrees>
            </Position>
            <AltitudeMeters>228.399993896484375</AltitudeMeters>
            <DistanceMeters>2289.2977814863</DistanceMeters>
          </Trackpoint>
          <Trackpoint>
            <Time>2019-01-04T09:40:34.000Z</Time>
            <Position>
              <LatitudeDegrees>36.5301165170967578887939453125</LatitudeDegrees>
              <LongitudeDegrees>-5.39973190985620021820068359375</LongitudeDegrees>
            </Position>
            <AltitudeMeters>228.399993896484375</AltitudeMeters>
            <DistanceMeters>2289.6404051775</DistanceMeters>
          </Trackpoint>
          <Trackpoint>
            <Time>2019-01-04T09:40:35.000Z</Time>
            <Position>
              <LatitudeDegrees>36.5301163494586944580078125</LatitudeDegrees>
              <LongitudeDegrees>-5.39973727427423000335693359375</LongitudeDegrees>
            </Position>
            <AltitudeMeters>228.399993896484375</AltitudeMeters>
            <DistanceMeters>2290.1155387494</DistanceMeters>
          </Trackpoint>
          <Trackpoint>
            <Time>2019-01-04T09:40:36.000Z</Time>
            <Position>
              <LatitudeDegrees>36.5301171876490116119384765625</LatitudeDegrees>
              <LongitudeDegrees>-5.3997475840151309967041015625</LongitudeDegrees>
            </Position>
            <AltitudeMeters>228.399993896484375</AltitudeMeters>
            <DistanceMeters>2291.0417445916</DistanceMeters>
          </Trackpoint>
          <Trackpoint>
            <Time>2019-01-04T09:40:37.000Z</Time>
            <Position>
              <LatitudeDegrees>36.53011509217321872711181640625</LatitudeDegrees>
              <LongitudeDegrees>-5.39976418018341064453125</LongitudeDegrees>
            </Position>
            <AltitudeMeters>228.1999969482421875</AltitudeMeters>
            <DistanceMeters>2292.5442488714</DistanceMeters>
          </Trackpoint>
          <Trackpoint>
            <Time>2019-01-04T09:40:38.000Z</Time>
            <Position>
              <LatitudeDegrees>36.530111990869045257568359375</LatitudeDegrees>
              <LongitudeDegrees>-5.3997790999710559844970703125</LongitudeDegrees>
            </Position>
            <AltitudeMeters>228.1999969482421875</AltitudeMeters>
            <DistanceMeters>2293.9245916295</DistanceMeters>
          </Trackpoint>
          <Trackpoint>
            <Time>2019-01-04T09:40:39.000Z</Time>
            <Position>
              <LatitudeDegrees>36.53010855428874492645263671875</LatitudeDegrees>
              <LongitudeDegrees>-5.39979577995836734771728515625</LongitudeDegrees>
            </Position>
            <AltitudeMeters>228.1999969482421875</AltitudeMeters>
            <DistanceMeters>2295.4685929835</DistanceMeters>
          </Trackpoint>
          <Trackpoint>
            <Time>2019-01-04T09:40:40.000Z</Time>
            <Position>
              <LatitudeDegrees>36.53010226786136627197265625</LatitudeDegrees>
              <LongitudeDegrees>-5.3998109512031078338623046875</LongitudeDegrees>
            </Position>
            <AltitudeMeters>228.399993896484375</AltitudeMeters>
            <DistanceMeters>2296.9919871039</DistanceMeters>
          </Trackpoint>
          <Trackpoint>
            <Time>2019-01-04T09:40:41.000Z</Time>
            <Position>
              <LatitudeDegrees>36.53009631671011447906494140625</LatitudeDegrees>
              <LongitudeDegrees>-5.399824865162372589111328125</LongitudeDegrees>
            </Position>
            <AltitudeMeters>228.399993896484375</AltitudeMeters>
            <DistanceMeters>2298.4014610546</DistanceMeters>
          </Trackpoint>
          <Trackpoint>
            <Time>2019-01-04T09:40:42.000Z</Time>
            <Position>
              <LatitudeDegrees>36.530089192092418670654296875</LatitudeDegrees>
              <LongitudeDegrees>-5.3998397849500179290771484375</LongitudeDegrees>
            </Position>
            <AltitudeMeters>228.399993896484375</AltitudeMeters>
            <DistanceMeters>2299.9512998637</DistanceMeters>
          </Trackpoint>
          <Trackpoint>
            <Time>2019-01-04T09:40:43.000Z</Time>
            <Position>
              <LatitudeDegrees>36.53008441440761089324951171875</LatitudeDegrees>
              <LongitudeDegrees>-5.3998542018234729766845703125</LongitudeDegrees>
            </Position>
            <AltitudeMeters>228.600006103515625</AltitudeMeters>
            <DistanceMeters>2301.3479016365</DistanceMeters>
          </Trackpoint>
          <Trackpoint>
            <Time>2019-01-04T09:40:44.000Z</Time>
            <Position>
              <LatitudeDegrees>36.5300786308944225311279296875</LatitudeDegrees>
              <LongitudeDegrees>-5.39986803196370601654052734375</LongitudeDegrees>
            </Position>
            <AltitudeMeters>228.8000030517578125</AltitudeMeters>
            <DistanceMeters>2302.7412667844</DistanceMeters>
          </Trackpoint>
          <Trackpoint>
            <Time>2019-01-04T09:40:45.000Z</Time>
            <Position>
              <LatitudeDegrees>36.530071087181568145751953125</LatitudeDegrees>
              <LongitudeDegrees>-5.39988152682781219482421875</LongitudeDegrees>
            </Position>
            <AltitudeMeters>229</AltitudeMeters>
            <DistanceMeters>2304.2134143132</DistanceMeters>
          </Trackpoint>
          <Trackpoint>
            <Time>2019-01-04T09:40:46.000Z</Time>
            <Position>
              <LatitudeDegrees>36.5300615318119525909423828125</LatitudeDegrees>
              <LongitudeDegrees>-5.39989619515836238861083984375</LongitudeDegrees>
            </Position>
            <AltitudeMeters>229</AltitudeMeters>
            <DistanceMeters>2305.897291982</DistanceMeters>
          </Trackpoint>
          <Trackpoint>
            <Time>2019-01-04T09:40:47.000Z</Time>
            <Position>
              <LatitudeDegrees>36.53005373664200305938720703125</LatitudeDegrees>
              <LongitudeDegrees>-5.399913378059864044189453125</LongitudeDegrees>
            </Position>
            <AltitudeMeters>229</AltitudeMeters>
            <DistanceMeters>2307.6648910456</DistanceMeters>
          </Trackpoint>
          <Trackpoint>
            <Time>2019-01-04T09:40:48.000Z</Time>
            <Position>
              <LatitudeDegrees>36.5300420857965946197509765625</LatitudeDegrees>
              <LongitudeDegrees>-5.399926789104938507080078125</LongitudeDegrees>
            </Position>
            <AltitudeMeters>229</AltitudeMeters>
            <DistanceMeters>2309.4324901092</DistanceMeters>
          </Trackpoint>
          <Trackpoint>
            <Time>2019-01-04T09:40:49.000Z</Time>
            <Position>
              <LatitudeDegrees>36.5300313569605350494384765625</LatitudeDegrees>
              <LongitudeDegrees>-5.399941541254520416259765625</LongitudeDegrees>
            </Position>
            <AltitudeMeters>229</AltitudeMeters>
            <DistanceMeters>2311.210277148</DistanceMeters>
          </Trackpoint>
          <Trackpoint>
            <Time>2019-01-04T09:40:50.000Z</Time>
            <Position>
              <LatitudeDegrees>36.5300189517438411712646484375</LatitudeDegrees>
              <LongitudeDegrees>-5.39995252154767513275146484375</LongitudeDegrees>
            </Position>
            <AltitudeMeters>229</AltitudeMeters>
            <DistanceMeters>2312.904846211</DistanceMeters>
          </Trackpoint>
          <Trackpoint>
            <Time>2019-01-04T09:40:51.000Z</Time>
            <Position>
              <LatitudeDegrees>36.53000771999359130859375</LatitudeDegrees>
              <LongitudeDegrees>-5.399963669478893280029296875</LongitudeDegrees>
            </Position>
            <AltitudeMeters>229</AltitudeMeters>
            <DistanceMeters>2314.5062648664</DistanceMeters>
          </Trackpoint>
          <Trackpoint>
            <Time>2019-01-04T09:40:52.000Z</Time>
            <Position>
              <LatitudeDegrees>36.52999808080494403839111328125</LatitudeDegrees>
              <LongitudeDegrees>-5.3999772481620311737060546875</LongitudeDegrees>
            </Position>
            <AltitudeMeters>229</AltitudeMeters>
            <DistanceMeters>2316.1245115005</DistanceMeters>
          </Trackpoint>
          <Trackpoint>
            <Time>2019-01-04T09:40:53.000Z</Time>
            <Position>
              <LatitudeDegrees>36.5299877710640430450439453125</LatitudeDegrees>
              <LongitudeDegrees>-5.3999903239309787750244140625</LongitudeDegrees>
            </Position>
            <AltitudeMeters>229.1999969482421875</AltitudeMeters>
            <DistanceMeters>2317.7649269297</DistanceMeters>
          </Trackpoint>
          <Trackpoint>
            <Time>2019-01-04T09:40:54.000Z</Time>
            <Position>
              <LatitudeDegrees>36.52997863478958606719970703125</LatitudeDegrees>
              <LongitudeDegrees>-5.4000027291476726531982421875</LongitudeDegrees>
            </Position>
            <AltitudeMeters>229.1999969482421875</AltitudeMeters>
            <DistanceMeters>2319.2674312096</DistanceMeters>
          </Trackpoint>
          <Trackpoint>
            <Time>2019-01-04T09:40:55.000Z</Time>
            <Position>
              <LatitudeDegrees>36.52996991761028766632080078125</LatitudeDegrees>
              <LongitudeDegrees>-5.4000181518495082855224609375</LongitudeDegrees>
            </Position>
            <AltitudeMeters>229.1999969482421875</AltitudeMeters>
            <DistanceMeters>2320.9513088783</DistanceMeters>
          </Trackpoint>
          <Trackpoint>
            <Time>2019-01-04T09:40:56.000Z</Time>
            <Position>
              <LatitudeDegrees>36.52996145188808441162109375</LatitudeDegrees>
              <LongitudeDegrees>-5.40003231726586818695068359375</LongitudeDegrees>
            </Position>
            <AltitudeMeters>229.1999969482421875</AltitudeMeters>
            <DistanceMeters>2322.5300112247</DistanceMeters>
          </Trackpoint>
          <Trackpoint>
            <Time>2019-01-04T09:40:57.000Z</Time>
            <Position>
              <LatitudeDegrees>36.52995432727038860321044921875</LatitudeDegrees>
              <LongitudeDegrees>-5.40004321373999118804931640625</LongitudeDegrees>
            </Position>
            <AltitudeMeters>229.399993896484375</AltitudeMeters>
            <DistanceMeters>2323.7870964954</DistanceMeters>
          </Trackpoint>
          <Trackpoint>
            <Time>2019-01-04T09:40:58.000Z</Time>
            <Position>
              <LatitudeDegrees>36.5299435146152973175048828125</LatitudeDegrees>
              <LongitudeDegrees>-5.40005478076636791229248046875</LongitudeDegrees>
            </Position>
            <AltitudeMeters>229.399993896484375</AltitudeMeters>
            <DistanceMeters>2325.3771975627</DistanceMeters>
          </Trackpoint>
          <Trackpoint>
            <Time>2019-01-04T09:40:59.000Z</Time>
            <Position>
              <LatitudeDegrees>36.5299317799508571624755859375</LatitudeDegrees>
              <LongitudeDegrees>-5.40006333030760288238525390625</LongitudeDegrees>
            </Position>
            <AltitudeMeters>229.399993896484375</AltitudeMeters>
            <DistanceMeters>2326.8916741775</DistanceMeters>
          </Trackpoint>
          <Trackpoint>
            <Time>2019-01-04T09:41:00.000Z</Time>
            <Position>
              <LatitudeDegrees>36.52992230840027332305908203125</LatitudeDegrees>
              <LongitudeDegrees>-5.40007204748690128326416015625</LongitudeDegrees>
            </Position>
            <AltitudeMeters>229.399993896484375</AltitudeMeters>
            <DistanceMeters>2328.2015270411</DistanceMeters>
          </Trackpoint>
          <Trackpoint>
            <Time>2019-01-04T09:41:01.000Z</Time>
            <Position>
              <LatitudeDegrees>36.5299126692116260528564453125</LatitudeDegrees>
              <LongitudeDegrees>-5.40008294396102428436279296875</LongitudeDegrees>
            </Position>
            <AltitudeMeters>229.399993896484375</AltitudeMeters>
            <DistanceMeters>2329.6520468829</DistanceMeters>
          </Trackpoint>
          <Trackpoint>
            <Time>2019-01-04T09:41:02.000Z</Time>
            <Position>
              <LatitudeDegrees>36.5299044549465179443359375</LatitudeDegrees>
              <LongitudeDegrees>-5.40009350515902042388916015625</LongitudeDegrees>
            </Position>
            <AltitudeMeters>229.600006103515625</AltitudeMeters>
            <DistanceMeters>2330.9687756619</DistanceMeters>
          </Trackpoint>
          <Trackpoint>
            <Time>2019-01-04T09:41:03.000Z</Time>
            <Position>
              <LatitudeDegrees>36.52989364229142665863037109375</LatitudeDegrees>
              <LongitudeDegrees>-5.40010490454733371734619140625</LongitudeDegrees>
            </Position>
            <AltitudeMeters>229.600006103515625</AltitudeMeters>
            <DistanceMeters>2332.5474780083</DistanceMeters>
          </Trackpoint>
          <Trackpoint>
            <Time>2019-01-04T09:41:04.000Z</Time>
            <Position>
              <LatitudeDegrees>36.529884003102779388427734375</LatitudeDegrees>
              <LongitudeDegrees>-5.4001187346875667572021484375</LongitudeDegrees>
            </Position>
            <AltitudeMeters>229.600006103515625</AltitudeMeters>
            <DistanceMeters>2334.1796154262</DistanceMeters>
          </Trackpoint>
          <Trackpoint>
            <Time>2019-01-04T09:41:05.000Z</Time>
            <Position>
              <LatitudeDegrees>36.52987620793282985687255859375</LatitudeDegrees>
              <LongitudeDegrees>-5.40013105608522891998291015625</LongitudeDegrees>
            </Position>
            <AltitudeMeters>229.600006103515625</AltitudeMeters>
            <DistanceMeters>2335.5794463404</DistanceMeters>
          </Trackpoint>
          <Trackpoint>
            <Time>2019-01-04T09:41:06.000Z</Time>
            <Position>
              <LatitudeDegrees>36.5298667363822460174560546875</LatitudeDegrees>
              <LongitudeDegrees>-5.40014631114900112152099609375</LongitudeDegrees>
            </Position>
            <AltitudeMeters>229.399993896484375</AltitudeMeters>
            <DistanceMeters>2337.3030748241</DistanceMeters>
          </Trackpoint>
          <Trackpoint>
            <Time>2019-01-04T09:41:07.000Z</Time>
            <Position>
              <LatitudeDegrees>36.529858522117137908935546875</LatitudeDegrees>
              <LongitudeDegrees>-5.400156117975711822509765625</LongitudeDegrees>
            </Position>
            <AltitudeMeters>229.399993896484375</AltitudeMeters>
            <DistanceMeters>2338.5708893244</DistanceMeters>
          </Trackpoint>
          <Trackpoint>
            <Time>2019-01-04T09:41:08.000Z</Time>
            <Position>
              <LatitudeDegrees>36.52985609136521816253662109375</LatitudeDegrees>
              <LongitudeDegrees>-5.40016852319240570068359375</LongitudeDegrees>
            </Position>
            <AltitudeMeters>229.399993896484375</AltitudeMeters>
            <DistanceMeters>2339.7112098968</DistanceMeters>
          </Trackpoint>
          <Trackpoint>
            <Time>2019-01-04T09:41:09.000Z</Time>
            <Position>
              <LatitudeDegrees>36.5298536606132984161376953125</LatitudeDegrees>
              <LongitudeDegrees>-5.40018252097070217132568359375</LongitudeDegrees>
            </Position>
            <AltitudeMeters>229.399993896484375</AltitudeMeters>
            <DistanceMeters>2340.9931903619</DistanceMeters>
          </Trackpoint>
          <Trackpoint>
            <Time>2019-01-04T09:41:10.000Z</Time>
            <Position>
              <LatitudeDegrees>36.52984519489109516143798828125</LatitudeDegrees>
              <LongitudeDegrees>-5.4001938365399837493896484375</LongitudeDegrees>
            </Position>
            <AltitudeMeters>229.399993896484375</AltitudeMeters>
            <DistanceMeters>2342.3768002079</DistanceMeters>
          </Trackpoint>
          <Trackpoint>
            <Time>2019-01-04T09:41:11.000Z</Time>
            <Position>
              <LatitudeDegrees>36.529837064445018768310546875</LatitudeDegrees>
              <LongitudeDegrees>-5.40020699612796306610107421875</LongitudeDegrees>
            </Position>
            <AltitudeMeters>229.399993896484375</AltitudeMeters>
            <DistanceMeters>2343.864203559</DistanceMeters>
          </Trackpoint>
          <Trackpoint>
            <Time>2019-01-04T09:41:12.000Z</Time>
            <Position>
              <LatitudeDegrees>36.529831700026988983154296875</LatitudeDegrees>
              <LongitudeDegrees>-5.40022208355367183685302734375</LongitudeDegrees>
            </Position>
            <AltitudeMeters>229.399993896484375</AltitudeMeters>
            <DistanceMeters>2345.3363510878</DistanceMeters>
          </Trackpoint>
          <Trackpoint>
            <Time>2019-01-04T09:41:13.000Z</Time>
            <Position>
              <LatitudeDegrees>36.52982625178992748260498046875</LatitudeDegrees>
              <LongitudeDegrees>-5.40023163892328739166259765625</LongitudeDegrees>
            </Position>
            <AltitudeMeters>229.399993896484375</AltitudeMeters>
            <DistanceMeters>2346.3859554543</DistanceMeters>
          </Trackpoint>
          <Trackpoint>
            <Time>2019-01-04T09:41:14.000Z</Time>
            <Position>
              <LatitudeDegrees>36.529821641743183135986328125</LatitudeDegrees>
              <LongitudeDegrees>-5.4002407751977443695068359375</LongitudeDegrees>
            </Position>
            <AltitudeMeters>229.399993896484375</AltitudeMeters>
            <DistanceMeters>2347.3550415961</DistanceMeters>
          </Trackpoint>
          <Trackpoint>
            <Time>2019-01-04T09:41:15.000Z</Time>
            <Position>
              <LatitudeDegrees>36.5298174507915973663330078125</LatitudeDegrees>
              <LongitudeDegrees>-5.40025410242378711700439453125</LongitudeDegrees>
            </Position>
            <AltitudeMeters>229.399993896484375</AltitudeMeters>
            <DistanceMeters>2348.6370220611</DistanceMeters>
          </Trackpoint>
          <Trackpoint>
            <Time>2019-01-04T09:41:16.000Z</Time>
            <Position>
              <LatitudeDegrees>36.5298092365264892578125</LatitudeDegrees>
              <LongitudeDegrees>-5.400266759097576141357421875</LongitudeDegrees>
            </Position>
            <AltitudeMeters>229.399993896484375</AltitudeMeters>
            <DistanceMeters>2350.0906512738</DistanceMeters>
          </Trackpoint>
          <Trackpoint>
            <Time>2019-01-04T09:41:17.000Z</Time>
            <Position>
              <LatitudeDegrees>36.52980244718492031097412109375</LatitudeDegrees>
              <LongitudeDegrees>-5.40028117597103118896484375</LongitudeDegrees>
            </Position>
            <AltitudeMeters>229.399993896484375</AltitudeMeters>
            <DistanceMeters>2351.5810870507</DistanceMeters>
          </Trackpoint>
          <Trackpoint>
            <Time>2019-01-04T09:41:18.000Z</Time>
            <Position>
              <LatitudeDegrees>36.5297990106046199798583984375</LatitudeDegrees>
              <LongitudeDegrees>-5.40029718540608882904052734375</LongitudeDegrees>
            </Position>
            <AltitudeMeters>229.399993896484375</AltitudeMeters>
            <DistanceMeters>2353.0593558015</DistanceMeters>
          </Trackpoint>
          <Trackpoint>
            <Time>2019-01-04T09:41:19.000Z</Time>
            <Position>
              <LatitudeDegrees>36.52979322709143161773681640625</LatitudeDegrees>
              <LongitudeDegrees>-5.4003135301172733306884765625</LongitudeDegrees>
            </Position>
            <AltitudeMeters>229.399993896484375</AltitudeMeters>
            <DistanceMeters>2354.6551256963</DistanceMeters>
          </Trackpoint>
          <Trackpoint>
            <Time>2019-01-04T09:41:20.000Z</Time>
            <Position>
              <LatitudeDegrees>36.5297864377498626708984375</LatitudeDegrees>
              <LongitudeDegrees>-5.40032987482845783233642578125</LongitudeDegrees>
            </Position>
            <AltitudeMeters>229.399993896484375</AltitudeMeters>
            <DistanceMeters>2356.30103667</DistanceMeters>
          </Trackpoint>
          <Trackpoint>
            <Time>2019-01-04T09:41:21.000Z</Time>
            <Position>
              <LatitudeDegrees>36.52977797202765941619873046875</LatitudeDegrees>
              <LongitudeDegrees>-5.40034211240708827972412109375</LongitudeDegrees>
            </Position>
            <AltitudeMeters>229.399993896484375</AltitudeMeters>
            <DistanceMeters>2357.7453176878</DistanceMeters>
          </Trackpoint>
          <Trackpoint>
            <Time>2019-01-04T09:41:22.000Z</Time>
            <Position>
              <LatitudeDegrees>36.52976724319159984588623046875</LatitudeDegrees>
              <LongitudeDegrees>-5.40035200305283069610595703125</LongitudeDegrees>
            </Position>
            <AltitudeMeters>229.1999969482421875</AltitudeMeters>
            <DistanceMeters>2359.229682418</DistanceMeters>
          </Trackpoint>
          <Trackpoint>
            <Time>2019-01-04T09:41:23.000Z</Time>
            <Position>
              <LatitudeDegrees>36.5297574363648891448974609375</LatitudeDegrees>
              <LongitudeDegrees>-5.40036055259406566619873046875</LongitudeDegrees>
            </Position>
            <AltitudeMeters>229.1999969482421875</AltitudeMeters>
            <DistanceMeters>2360.5634459126</DistanceMeters>
          </Trackpoint>
          <Trackpoint>
            <Time>2019-01-04T09:41:24.000Z</Time>
            <Position>
              <LatitudeDegrees>36.52974913828074932098388671875</LatitudeDegrees>
              <LongitudeDegrees>-5.40037077851593494415283203125</LongitudeDegrees>
            </Position>
            <AltitudeMeters>229.1999969482421875</AltitudeMeters>
            <DistanceMeters>2361.8594375093</DistanceMeters>
          </Trackpoint>
          <Trackpoint>
            <Time>2019-01-04T09:41:25.000Z</Time>
            <Position>
              <LatitudeDegrees>36.5297336317598819732666015625</LatitudeDegrees>
              <LongitudeDegrees>-5.40038335137069225311279296875</LongitudeDegrees>
            </Position>
            <AltitudeMeters>229.1999969482421875</AltitudeMeters>
            <DistanceMeters>2363.9195675849</DistanceMeters>
          </Trackpoint>
          <Trackpoint>
            <Time>2019-01-04T09:41:26.000Z</Time>
            <Position>
              <LatitudeDegrees>36.5297215618193149566650390625</LatitudeDegrees>
              <LongitudeDegrees>-5.40039726532995700836181640625</LongitudeDegrees>
            </Position>
            <AltitudeMeters>229.1999969482421875</AltitudeMeters>
            <DistanceMeters>2365.7523764776</DistanceMeters>
          </Trackpoint>
          <Trackpoint>
            <Time>2019-01-04T09:41:27.000Z</Time>
            <Position>
              <LatitudeDegrees>36.5297135151922702789306640625</LatitudeDegrees>
              <LongitudeDegrees>-5.40040732361376285552978515625</LongitudeDegrees>
            </Position>
            <AltitudeMeters>229.1999969482421875</AltitudeMeters>
            <DistanceMeters>2367.0201909779</DistanceMeters>
          </Trackpoint>
          <Trackpoint>
            <Time>2019-01-04T09:41:28.000Z</Time>
            <Position>
              <LatitudeDegrees>36.52970706112682819366455078125</LatitudeDegrees>
              <LongitudeDegrees>-5.400418974459171295166015625</LongitudeDegrees>
            </Position>
            <AltitudeMeters>229.1999969482421875</AltitudeMeters>
            <DistanceMeters>2368.2880054781</DistanceMeters>
          </Trackpoint>
          <Trackpoint>
            <Time>2019-01-04T09:41:29.000Z</Time>
            <Position>
              <LatitudeDegrees>36.52970169670879840850830078125</LatitudeDegrees>
              <LongitudeDegrees>-5.40042995475232601165771484375</LongitudeDegrees>
            </Position>
            <AltitudeMeters>229.1999969482421875</AltitudeMeters>
            <DistanceMeters>2369.4401431597</DistanceMeters>
          </Trackpoint>
          <Trackpoint>
            <Time>2019-01-04T09:41:30.000Z</Time>
            <Position>
              <LatitudeDegrees>36.529694907367229461669921875</LatitudeDegrees>
              <LongitudeDegrees>-5.40044386871159076690673828125</LongitudeDegrees>
            </Position>
            <AltitudeMeters>229.1999969482421875</AltitudeMeters>
            <DistanceMeters>2370.8999712457</DistanceMeters>
          </Trackpoint>
          <Trackpoint>
            <Time>2019-01-04T09:41:31.000Z</Time>
            <Position>
              <LatitudeDegrees>36.52968786656856536865234375</LatitudeDegrees>
              <LongitudeDegrees>-5.4004575312137603759765625</LongitudeDegrees>
            </Position>
            <AltitudeMeters>229.1999969482421875</AltitudeMeters>
            <DistanceMeters>2372.3536004584</DistanceMeters>
          </Trackpoint>
          <Trackpoint>
            <Time>2019-01-04T09:41:32.000Z</Time>
            <Position>
              <LatitudeDegrees>36.52968141250312328338623046875</LatitudeDegrees>
              <LongitudeDegrees>-5.4004711098968982696533203125</LongitudeDegrees>
            </Position>
            <AltitudeMeters>229.1999969482421875</AltitudeMeters>
            <DistanceMeters>2373.766274127</DistanceMeters>
          </Trackpoint>
          <Trackpoint>
            <Time>2019-01-04T09:41:33.000Z</Time>
            <Position>
              <LatitudeDegrees>36.5296732820570468902587890625</LatitudeDegrees>
              <LongitudeDegrees>-5.40048058144748210906982421875</LongitudeDegrees>
            </Position>
            <AltitudeMeters>229.1999969482421875</AltitudeMeters>
            <DistanceMeters>2375.0052708968</DistanceMeters>
          </Trackpoint>
          <Trackpoint>
            <Time>2019-01-04T09:41:34.000Z</Time>
            <Position>
              <LatitudeDegrees>36.52966649271547794342041015625</LatitudeDegrees>
              <LongitudeDegrees>-5.4004949145019054412841796875</LongitudeDegrees>
            </Position>
            <AltitudeMeters>229.1999969482421875</AltitudeMeters>
            <DistanceMeters>2376.4926742478</DistanceMeters>
          </Trackpoint>
          <Trackpoint>
            <Time>2019-01-04T09:41:35.000Z</Time>
            <Position>
              <LatitudeDegrees>36.5296568535268306732177734375</LatitudeDegrees>
              <LongitudeDegrees>-5.40050589479506015777587890625</LongitudeDegrees>
            </Position>
            <AltitudeMeters>229</AltitudeMeters>
            <DistanceMeters>2377.9494061945</DistanceMeters>
          </Trackpoint>
          <Trackpoint>
            <Time>2019-01-04T09:41:36.000Z</Time>
            <Position>
              <LatitudeDegrees>36.5296469628810882568359375</LatitudeDegrees>
              <LongitudeDegrees>-5.40051662363111972808837890625</LongitudeDegrees>
            </Position>
            <AltitudeMeters>228.8000030517578125</AltitudeMeters>
            <DistanceMeters>2379.4092342805</DistanceMeters>
          </Trackpoint>
          <Trackpoint>
            <Time>2019-01-04T09:41:37.000Z</Time>
            <Position>
              <LatitudeDegrees>36.52964235283434391021728515625</LatitudeDegrees>
              <LongitudeDegrees>-5.4005328007042407989501953125</LongitudeDegrees>
            </Position>
            <AltitudeMeters>228.8000030517578125</AltitudeMeters>
            <DistanceMeters>2380.9414940089</DistanceMeters>
          </Trackpoint>
          <Trackpoint>
            <Time>2019-01-04T09:41:38.000Z</Time>
            <Position>
              <LatitudeDegrees>36.52964000590145587921142578125</LatitudeDegrees>
              <LongitudeDegrees>-5.40054579265415668487548828125</LongitudeDegrees>
            </Position>
            <AltitudeMeters>228.8000030517578125</AltitudeMeters>
            <DistanceMeters>2382.1359612869</DistanceMeters>
          </Trackpoint>
          <Trackpoint>
            <Time>2019-01-04T09:41:39.000Z</Time>
            <Position>
              <LatitudeDegrees>36.5296370722353458404541015625</LatitudeDegrees>
              <LongitudeDegrees>-5.4005599580705165863037109375</LongitudeDegrees>
            </Position>
            <AltitudeMeters>228.8000030517578125</AltitudeMeters>
            <DistanceMeters>2383.4458141505</DistanceMeters>
          </Trackpoint>
          <Trackpoint>
            <Time>2019-01-04T09:41:40.000Z</Time>
            <Position>
              <LatitudeDegrees>36.5296327136456966400146484375</LatitudeDegrees>
              <LongitudeDegrees>-5.40057429112493991851806640625</LongitudeDegrees>
            </Position>
            <AltitudeMeters>228.8000030517578125</AltitudeMeters>
            <DistanceMeters>2384.8163089153</DistanceMeters>
          </Trackpoint>
          <Trackpoint>
            <Time>2019-01-04T09:41:41.000Z</Time>
            <Position>
              <LatitudeDegrees>36.529629863798618316650390625</LatitudeDegrees>
              <LongitudeDegrees>-5.40059071965515613555908203125</LongitudeDegrees>
            </Position>
            <AltitudeMeters>228.8000030517578125</AltitudeMeters>
            <DistanceMeters>2386.3188131952</DistanceMeters>
          </Trackpoint>
          <Trackpoint>
            <Time>2019-01-04T09:41:42.000Z</Time>
            <Position>
              <LatitudeDegrees>36.52962357737123966217041015625</LatitudeDegrees>
              <LongitudeDegrees>-5.40060630999505519866943359375</LongitudeDegrees>
            </Position>
            <AltitudeMeters>229</AltitudeMeters>
            <DistanceMeters>2387.8773671928</DistanceMeters>
          </Trackpoint>
          <Trackpoint>
            <Time>2019-01-04T09:41:43.000Z</Time>
            <Position>
              <LatitudeDegrees>36.52961804531514644622802734375</LatitudeDegrees>
              <LongitudeDegrees>-5.40062106214463710784912109375</LongitudeDegrees>
            </Position>
            <AltitudeMeters>229</AltitudeMeters>
            <DistanceMeters>2389.3309964055</DistanceMeters>
          </Trackpoint>
          <Trackpoint>
            <Time>2019-01-04T09:41:44.000Z</Time>
            <Position>
              <LatitudeDegrees>36.52961184270679950714111328125</LatitudeDegrees>
              <LongitudeDegrees>-5.400637574493885040283203125</LongitudeDegrees>
            </Position>
            <AltitudeMeters>229</AltitudeMeters>
            <DistanceMeters>2390.9603651404</DistanceMeters>
          </Trackpoint>
          <Trackpoint>
            <Time>2019-01-04T09:41:45.000Z</Time>
            <Position>
              <LatitudeDegrees>36.529606394469738006591796875</LatitudeDegrees>
              <LongitudeDegrees>-5.40065023116767406463623046875</LongitudeDegrees>
            </Position>
            <AltitudeMeters>228.8000030517578125</AltitudeMeters>
            <DistanceMeters>2392.2423456055</DistanceMeters>
          </Trackpoint>
          <Trackpoint>
            <Time>2019-01-04T09:41:46.000Z</Time>
            <Position>
              <LatitudeDegrees>36.529597677290439605712890625</LatitudeDegrees>
              <LongitudeDegrees>-5.4006613790988922119140625</LongitudeDegrees>
            </Position>
            <AltitudeMeters>228.8000030517578125</AltitudeMeters>
            <DistanceMeters>2393.6324665927</DistanceMeters>
          </Trackpoint>
          <Trackpoint>
            <Time>2019-01-04T09:41:47.000Z</Time>
            <Position>
              <LatitudeDegrees>36.52958971448242664337158203125</LatitudeDegrees>
              <LongitudeDegrees>-5.400673449039459228515625</LongitudeDegrees>
            </Position>
            <AltitudeMeters>228.600006103515625</AltitudeMeters>
            <DistanceMeters>2395.0290683655</DistanceMeters>
          </Trackpoint>
          <Trackpoint>
            <Time>2019-01-04T09:41:48.000Z</Time>
            <Position>
              <LatitudeDegrees>36.52958334423601627349853515625</LatitudeDegrees>
              <LongitudeDegrees>-5.4006855189800262451171875</LongitudeDegrees>
            </Position>
            <AltitudeMeters>228.600006103515625</AltitudeMeters>
            <DistanceMeters>2396.3180734337</DistanceMeters>
          </Trackpoint>
          <Trackpoint>
            <Time>2019-01-04T09:41:49.000Z</Time>
            <Position>
              <LatitudeDegrees>36.5295760519802570343017578125</LatitudeDegrees>
              <LongitudeDegrees>-5.40069800801575183868408203125</LongitudeDegrees>
            </Position>
            <AltitudeMeters>228.600006103515625</AltitudeMeters>
            <DistanceMeters>2397.6984161917</DistanceMeters>
          </Trackpoint>
          <Trackpoint>
            <Time>2019-01-04T09:41:50.000Z</Time>
            <Position>
              <LatitudeDegrees>36.5295659936964511871337890625</LatitudeDegrees>
              <LongitudeDegrees>-5.40071125142276287078857421875</LongitudeDegrees>
            </Position>
            <AltitudeMeters>228.399993896484375</AltitudeMeters>
            <DistanceMeters>2399.3333176038</DistanceMeters>
          </Trackpoint>
          <Trackpoint>
            <Time>2019-01-04T09:41:51.000Z</Time>
            <Position>
              <LatitudeDegrees>36.52955970726907253265380859375</LatitudeDegrees>
              <LongitudeDegrees>-5.40072835050523281097412109375</LongitudeDegrees>
            </Position>
            <AltitudeMeters>228.399993896484375</AltitudeMeters>
            <DistanceMeters>2401.0171952726</DistanceMeters>
          </Trackpoint>
          <Trackpoint>
            <Time>2019-01-04T09:41:52.000Z</Time>
            <Position>
              <LatitudeDegrees>36.529553420841693878173828125</LatitudeDegrees>
              <LongitudeDegrees>-5.40074360556900501251220703125</LongitudeDegrees>
            </Position>
            <AltitudeMeters>228.399993896484375</AltitudeMeters>
            <DistanceMeters>2402.5494550011</DistanceMeters>
          </Trackpoint>
          <Trackpoint>
            <Time>2019-01-04T09:41:53.000Z</Time>
            <Position>
              <LatitudeDegrees>36.5295425243675708770751953125</LatitudeDegrees>
              <LongitudeDegrees>-5.40076120756566524505615234375</LongitudeDegrees>
            </Position>
            <AltitudeMeters>228.399993896484375</AltitudeMeters>
            <DistanceMeters>2404.5336710502</DistanceMeters>
          </Trackpoint>
          <Trackpoint>
            <Time>2019-01-04T09:41:54.000Z</Time>
            <Position>
              <LatitudeDegrees>36.52953254990279674530029296875</LatitudeDegrees>
              <LongitudeDegrees>-5.4007772170007228851318359375</LongitudeDegrees>
            </Position>
            <AltitudeMeters>228.399993896484375</AltitudeMeters>
            <DistanceMeters>2406.3466652106</DistanceMeters>
          </Trackpoint>
          <Trackpoint>
            <Time>2019-01-04T09:41:55.000Z</Time>
            <Position>
              <LatitudeDegrees>36.529522240161895751953125</LatitudeDegrees>
              <LongitudeDegrees>-5.40079205296933650970458984375</LongitudeDegrees>
            </Position>
            <AltitudeMeters>228.399993896484375</AltitudeMeters>
            <DistanceMeters>2408.1040172367</DistanceMeters>
          </Trackpoint>
          <Trackpoint>
            <Time>2019-01-04T09:41:56.000Z</Time>
            <Position>
              <LatitudeDegrees>36.529510505497455596923828125</LatitudeDegrees>
              <LongitudeDegrees>-5.4008090682327747344970703125</LongitudeDegrees>
            </Position>
            <AltitudeMeters>228.399993896484375</AltitudeMeters>
            <DistanceMeters>2410.1086079724</DistanceMeters>
          </Trackpoint>
          <Trackpoint>
            <Time>2019-01-04T09:41:57.000Z</Time>
            <Position>
              <LatitudeDegrees>36.529500447213649749755859375</LatitudeDegrees>
              <LongitudeDegrees>-5.40082432329654693603515625</LongitudeDegrees>
            </Position>
            <AltitudeMeters>228.399993896484375</AltitudeMeters>
            <DistanceMeters>2411.8710909643</DistanceMeters>
          </Trackpoint>
          <Trackpoint>
            <Time>2019-01-04T09:41:58.000Z</Time>
            <Position>
              <LatitudeDegrees>36.52949332259595394134521484375</LatitudeDegrees>
              <LongitudeDegrees>-5.40083798579871654510498046875</LongitudeDegrees>
            </Position>
            <AltitudeMeters>228.399993896484375</AltitudeMeters>
            <DistanceMeters>2413.3247201769</DistanceMeters>
          </Trackpoint>
          <Trackpoint>
            <Time>2019-01-04T09:41:59.000Z</Time>
            <Position>
              <LatitudeDegrees>36.52948460541665554046630859375</LatitudeDegrees>
              <LongitudeDegrees>-5.4008563421666622161865234375</LongitudeDegrees>
            </Position>
            <AltitudeMeters>228.399993896484375</AltitudeMeters>
            <DistanceMeters>2415.2299998757</DistanceMeters>
          </Trackpoint>
          <Trackpoint>
            <Time>2019-01-04T09:42:00.000Z</Time>
            <Position>
              <LatitudeDegrees>36.52947706170380115509033203125</LatitudeDegrees>
              <LongitudeDegrees>-5.4008744470775127410888671875</LongitudeDegrees>
            </Position>
            <AltitudeMeters>228.399993896484375</AltitudeMeters>
            <DistanceMeters>2417.052928325</DistanceMeters>
          </Trackpoint>
          <Trackpoint>
            <Time>2019-01-04T09:42:01.000Z</Time>
            <Position>
              <LatitudeDegrees>36.529470272362232208251953125</LatitudeDegrees>
              <LongitudeDegrees>-5.400893390178680419921875</LongitudeDegrees>
            </Position>
            <AltitudeMeters>228.399993896484375</AltitudeMeters>
            <DistanceMeters>2418.9077757918</DistanceMeters>
          </Trackpoint>
          <Trackpoint>
            <Time>2019-01-04T09:42:02.000Z</Time>
            <Position>
              <LatitudeDegrees>36.5294618904590606689453125</LatitudeDegrees>
              <LongitudeDegrees>-5.40091074071824550628662109375</LongitudeDegrees>
            </Position>
            <AltitudeMeters>228.1999969482421875</AltitudeMeters>
            <DistanceMeters>2420.7157823385</DistanceMeters>
          </Trackpoint>
          <Trackpoint>
            <Time>2019-01-04T09:42:03.000Z</Time>
            <Position>
              <LatitudeDegrees>36.52945392765104770660400390625</LatitudeDegrees>
              <LongitudeDegrees>-5.4009257443249225616455078125</LongitudeDegrees>
            </Position>
            <AltitudeMeters>228.1999969482421875</AltitudeMeters>
            <DistanceMeters>2422.3228298994</DistanceMeters>
          </Trackpoint>
          <Trackpoint>
            <Time>2019-01-04T09:42:04.000Z</Time>
            <Position>
              <LatitudeDegrees>36.5294479764997959136962890625</LatitudeDegrees>
              <LongitudeDegrees>-5.40094108320772647857666015625</LongitudeDegrees>
            </Position>
            <AltitudeMeters>228</AltitudeMeters>
            <DistanceMeters>2423.8462240198</DistanceMeters>
          </Trackpoint>
          <Trackpoint>
            <Time>2019-01-04T09:42:05.000Z</Time>
            <Position>
              <LatitudeDegrees>36.52944169007241725921630859375</LatitudeDegrees>
              <LongitudeDegrees>-5.40095843374729156494140625</LongitudeDegrees>
            </Position>
            <AltitudeMeters>228</AltitudeMeters>
            <DistanceMeters>2425.5514174443</DistanceMeters>
          </Trackpoint>
          <Trackpoint>
            <Time>2019-01-04T09:42:06.000Z</Time>
            <Position>
              <LatitudeDegrees>36.529433727264404296875</LatitudeDegrees>
              <LongitudeDegrees>-5.4009751975536346435546875</LongitudeDegrees>
            </Position>
            <AltitudeMeters>227.8000030517578125</AltitudeMeters>
            <DistanceMeters>2427.2932858909</DistanceMeters>
          </Trackpoint>
          <Trackpoint>
            <Time>2019-01-04T09:42:07.000Z</Time>
            <Position>
              <LatitudeDegrees>36.52942375279963016510009765625</LatitudeDegrees>
              <LongitudeDegrees>-5.40099305100739002227783203125</LongitudeDegrees>
            </Position>
            <AltitudeMeters>227.8000030517578125</AltitudeMeters>
            <DistanceMeters>2429.236111656</DistanceMeters>
          </Trackpoint>
          <Trackpoint>
            <Time>2019-01-04T09:42:08.000Z</Time>
            <Position>
              <LatitudeDegrees>36.52941905893385410308837890625</LatitudeDegrees>
              <LongitudeDegrees>-5.40100880898535251617431640625</LongitudeDegrees>
            </Position>
            <AltitudeMeters>227.8000030517578125</AltitudeMeters>
            <DistanceMeters>2430.7386159358</DistanceMeters>
          </Trackpoint>
          <Trackpoint>
            <Time>2019-01-04T09:42:09.000Z</Time>
            <Position>
              <LatitudeDegrees>36.52941553853452205657958984375</LatitudeDegrees>
              <LongitudeDegrees>-5.401021130383014678955078125</LongitudeDegrees>
            </Position>
            <AltitudeMeters>227.600006103515625</AltitudeMeters>
            <DistanceMeters>2431.9063237516</DistanceMeters>
          </Trackpoint>
          <Trackpoint>
            <Time>2019-01-04T09:42:10.000Z</Time>
            <Position>
              <LatitudeDegrees>36.52941486798226833343505859375</LatitudeDegrees>
              <LongitudeDegrees>-5.40103755891323089599609375</LongitudeDegrees>
            </Position>
            <AltitudeMeters>227.600006103515625</AltitudeMeters>
            <DistanceMeters>2433.3784712804</DistanceMeters>
          </Trackpoint>
          <Trackpoint>
            <Time>2019-01-04T09:42:11.000Z</Time>
            <Position>
              <LatitudeDegrees>36.5294104255735874176025390625</LatitudeDegrees>
              <LongitudeDegrees>-5.40105306543409824371337890625</LongitudeDegrees>
            </Position>
            <AltitudeMeters>227.399993896484375</AltitudeMeters>
            <DistanceMeters>2434.8506188092</DistanceMeters>
          </Trackpoint>
          <Trackpoint>
            <Time>2019-01-04T09:42:12.000Z</Time>
            <Position>
              <LatitudeDegrees>36.52940195985138416290283203125</LatitudeDegrees>
              <LongitudeDegrees>-5.40106798522174358367919921875</LongitudeDegrees>
            </Position>
            <AltitudeMeters>227.399993896484375</AltitudeMeters>
            <DistanceMeters>2436.4855202213</DistanceMeters>
          </Trackpoint>
          <Trackpoint>
            <Time>2019-01-04T09:42:13.000Z</Time>
            <Position>
              <LatitudeDegrees>36.5293960087001323699951171875</LatitudeDegrees>
              <LongitudeDegrees>-5.401082150638103485107421875</LongitudeDegrees>
            </Position>
            <AltitudeMeters>227.1999969482421875</AltitudeMeters>
            <DistanceMeters>2437.9140849823</DistanceMeters>
          </Trackpoint>
          <Trackpoint>
            <Time>2019-01-04T09:42:14.000Z</Time>
            <Position>
              <LatitudeDegrees>36.5293836034834384918212890625</LatitudeDegrees>
              <LongitudeDegrees>-5.401098914444446563720703125</LongitudeDegrees>
            </Position>
            <AltitudeMeters>227</AltitudeMeters>
            <DistanceMeters>2439.9521809477</DistanceMeters>
          </Trackpoint>
          <Trackpoint>
            <Time>2019-01-04T09:42:15.000Z</Time>
            <Position>
              <LatitudeDegrees>36.52937128208577632904052734375</LatitudeDegrees>
              <LongitudeDegrees>-5.4011138342320919036865234375</LongitudeDegrees>
            </Position>
            <AltitudeMeters>227</AltitudeMeters>
            <DistanceMeters>2441.8645566848</DistanceMeters>
          </Trackpoint>
          <Trackpoint>
            <Time>2019-01-04T09:42:16.000Z</Time>
            <Position>
              <LatitudeDegrees>36.52935803867876529693603515625</LatitudeDegrees>
              <LongitudeDegrees>-5.4011265747249126434326171875</LongitudeDegrees>
            </Position>
            <AltitudeMeters>227</AltitudeMeters>
            <DistanceMeters>2443.7266923819</DistanceMeters>
          </Trackpoint>
          <Trackpoint>
            <Time>2019-01-04T09:42:17.000Z</Time>
            <Position>
              <LatitudeDegrees>36.5293490700423717498779296875</LatitudeDegrees>
              <LongitudeDegrees>-5.40113889612257480621337890625</LongitudeDegrees>
            </Position>
            <AltitudeMeters>227</AltitudeMeters>
            <DistanceMeters>2445.2110571122</DistanceMeters>
          </Trackpoint>
          <Trackpoint>
            <Time>2019-01-04T09:42:18.000Z</Time>
            <Position>
              <LatitudeDegrees>36.52934186160564422607421875</LatitudeDegrees>
              <LongitudeDegrees>-5.40115079842507839202880859375</LongitudeDegrees>
            </Position>
            <AltitudeMeters>227</AltitudeMeters>
            <DistanceMeters>2446.5482015082</DistanceMeters>
          </Trackpoint>
          <Trackpoint>
            <Time>2019-01-04T09:42:19.000Z</Time>
            <Position>
              <LatitudeDegrees>36.52933917939662933349609375</LatitudeDegrees>
              <LongitudeDegrees>-5.4011637903749942779541015625</LongitudeDegrees>
            </Position>
            <AltitudeMeters>227</AltitudeMeters>
            <DistanceMeters>2447.7502049321</DistanceMeters>
          </Trackpoint>
          <Trackpoint>
            <Time>2019-01-04T09:42:20.000Z</Time>
            <Position>
              <LatitudeDegrees>36.5293356589972972869873046875</LatitudeDegrees>
              <LongitudeDegrees>-5.4011763632297515869140625</LongitudeDegrees>
            </Position>
            <AltitudeMeters>227</AltitudeMeters>
            <DistanceMeters>2448.9370882142</DistanceMeters>
          </Trackpoint>
          <Trackpoint>
            <Time>2019-01-04T09:42:21.000Z</Time>
            <Position>
              <LatitudeDegrees>36.52932836674153804779052734375</LatitudeDegrees>
              <LongitudeDegrees>-5.40118901990354061126708984375</LongitudeDegrees>
            </Position>
            <AltitudeMeters>227</AltitudeMeters>
            <DistanceMeters>2450.3304533621</DistanceMeters>
          </Trackpoint>
          <Trackpoint>
            <Time>2019-01-04T09:42:22.000Z</Time>
            <Position>
              <LatitudeDegrees>36.529324091970920562744140625</LatitudeDegrees>
              <LongitudeDegrees>-5.40120595134794712066650390625</LongitudeDegrees>
            </Position>
            <AltitudeMeters>227</AltitudeMeters>
            <DistanceMeters>2451.9148653197</DistanceMeters>
          </Trackpoint>
          <Trackpoint>
            <Time>2019-01-04T09:42:23.000Z</Time>
            <Position>
              <LatitudeDegrees>36.52932174503803253173828125</LatitudeDegrees>
              <LongitudeDegrees>-5.4012248106300830841064453125</LongitudeDegrees>
            </Position>
            <AltitudeMeters>227</AltitudeMeters>
            <DistanceMeters>2453.6200587442</DistanceMeters>
          </Trackpoint>
          <Trackpoint>
            <Time>2019-01-04T09:42:24.000Z</Time>
            <Position>
              <LatitudeDegrees>36.52931679971516132354736328125</LatitudeDegrees>
              <LongitudeDegrees>-5.40124232880771160125732421875</LongitudeDegrees>
            </Position>
            <AltitudeMeters>227</AltitudeMeters>
            <DistanceMeters>2455.2823473449</DistanceMeters>
          </Trackpoint>
          <Trackpoint>
            <Time>2019-01-04T09:42:25.000Z</Time>
            <Position>
              <LatitudeDegrees>36.5293135307729244232177734375</LatitudeDegrees>
              <LongitudeDegrees>-5.40125884115695953369140625</LongitudeDegrees>
            </Position>
            <AltitudeMeters>227</AltitudeMeters>
            <DistanceMeters>2456.7998022843</DistanceMeters>
          </Trackpoint>
          <Trackpoint>
            <Time>2019-01-04T09:42:26.000Z</Time>
            <Position>
              <LatitudeDegrees>36.5293051488697528839111328125</LatitudeDegrees>
              <LongitudeDegrees>-5.40127267129719257354736328125</LongitudeDegrees>
            </Position>
            <AltitudeMeters>226.8000030517578125</AltitudeMeters>
            <DistanceMeters>2458.3467251194</DistanceMeters>
          </Trackpoint>
          <Trackpoint>
            <Time>2019-01-04T09:42:27.000Z</Time>
            <Position>
              <LatitudeDegrees>36.5292994491755962371826171875</LatitudeDegrees>
              <LongitudeDegrees>-5.401288680732250213623046875</LongitudeDegrees>
            </Position>
            <AltitudeMeters>227</AltitudeMeters>
            <DistanceMeters>2459.9139458418</DistanceMeters>
          </Trackpoint>
          <Trackpoint>
            <Time>2019-01-04T09:42:28.000Z</Time>
            <Position>
              <LatitudeDegrees>36.5293054841458797454833984375</LatitudeDegrees>
              <LongitudeDegrees>-5.40131055749952793121337890625</LongitudeDegrees>
            </Position>
            <AltitudeMeters>227</AltitudeMeters>
            <DistanceMeters>2461.9828238552</DistanceMeters>
          </Trackpoint>
          <Trackpoint>
            <Time>2019-01-04T09:42:29.000Z</Time>
            <Position>
              <LatitudeDegrees>36.5292981080710887908935546875</LatitudeDegrees>
              <LongitudeDegrees>-5.401327908039093017578125</LongitudeDegrees>
            </Position>
            <AltitudeMeters>226.8000030517578125</AltitudeMeters>
            <DistanceMeters>2463.7401758813</DistanceMeters>
          </Trackpoint>
          <Trackpoint>
            <Time>2019-01-04T09:42:30.000Z</Time>
            <Position>
              <LatitudeDegrees>36.5293014608323574066162109375</LatitudeDegrees>
              <LongitudeDegrees>-5.40134592913091182708740234375</LongitudeDegrees>
            </Position>
            <AltitudeMeters>226.8000030517578125</AltitudeMeters>
            <DistanceMeters>2465.3942959382</DistanceMeters>
          </Trackpoint>
          <Trackpoint>
            <Time>2019-01-04T09:42:31.000Z</Time>
            <Position>
              <LatitudeDegrees>36.52929701842367649078369140625</LatitudeDegrees>
              <LongitudeDegrees>-5.4013652913272380828857421875</LongitudeDegrees>
            </Position>
            <AltitudeMeters>226.8000030517578125</AltitudeMeters>
            <DistanceMeters>2467.192285751</DistanceMeters>
          </Trackpoint>
          <Trackpoint>
            <Time>2019-01-04T09:42:32.000Z</Time>
            <Position>
              <LatitudeDegrees>36.5292934142053127288818359375</LatitudeDegrees>
              <LongitudeDegrees>-5.40138331241905689239501953125</LongitudeDegrees>
            </Position>
            <AltitudeMeters>226.8000030517578125</AltitudeMeters>
            <DistanceMeters>2468.8545743517</DistanceMeters>
          </Trackpoint>
          <Trackpoint>
            <Time>2019-01-04T09:42:33.000Z</Time>
            <Position>
              <LatitudeDegrees>36.5292964316904544830322265625</LatitudeDegrees>
              <LongitudeDegrees>-5.4013998247683048248291015625</LongitudeDegrees>
            </Position>
            <AltitudeMeters>226.8000030517578125</AltitudeMeters>
            <DistanceMeters>2470.3630766764</DistanceMeters>
          </Trackpoint>
          <Trackpoint>
            <Time>2019-01-04T09:42:34.000Z</Time>
            <Position>
              <LatitudeDegrees>36.52929819189012050628662109375</LatitudeDegrees>
              <LongitudeDegrees>-5.4014169238507747650146484375</LongitudeDegrees>
            </Position>
            <AltitudeMeters>226.600006103515625</AltitudeMeters>
            <DistanceMeters>2471.9012184216</DistanceMeters>
          </Trackpoint>
          <Trackpoint>
            <Time>2019-01-04T09:42:35.000Z</Time>
            <Position>
              <LatitudeDegrees>36.52929483912885189056396484375</LatitudeDegrees>
              <LongitudeDegrees>-5.4014350287616252899169921875</LongitudeDegrees>
            </Position>
            <AltitudeMeters>226.600006103515625</AltitudeMeters>
            <DistanceMeters>2473.5662209647</DistanceMeters>
          </Trackpoint>
          <Trackpoint>
            <Time>2019-01-04T09:42:36.000Z</Time>
            <Position>
              <LatitudeDegrees>36.52929031290113925933837890625</LatitudeDegrees>
              <LongitudeDegrees>-5.40145388804376125335693359375</LongitudeDegrees>
            </Position>
            <AltitudeMeters>226.600006103515625</AltitudeMeters>
            <DistanceMeters>2475.3235729908</DistanceMeters>
          </Trackpoint>
          <Trackpoint>
            <Time>2019-01-04T09:42:37.000Z</Time>
            <Position>
              <LatitudeDegrees>36.52928796596825122833251953125</LatitudeDegrees>
              <LongitudeDegrees>-5.4014698974788188934326171875</LongitudeDegrees>
            </Position>
            <AltitudeMeters>226.600006103515625</AltitudeMeters>
            <DistanceMeters>2476.7772022035</DistanceMeters>
          </Trackpoint>
          <Trackpoint>
            <Time>2019-01-04T09:42:38.000Z</Time>
            <Position>
              <LatitudeDegrees>36.5292873792350292205810546875</LatitudeDegrees>
              <LongitudeDegrees>-5.40148423053324222564697265625</LongitudeDegrees>
            </Position>
            <AltitudeMeters>226.600006103515625</AltitudeMeters>
            <DistanceMeters>2478.0626997683</DistanceMeters>
          </Trackpoint>
          <Trackpoint>
            <Time>2019-01-04T09:42:39.000Z</Time>
            <Position>
              <LatitudeDegrees>36.52928494848310947418212890625</LatitudeDegrees>
              <LongitudeDegrees>-5.40149831213057041168212890625</LongitudeDegrees>
            </Position>
            <AltitudeMeters>226.600006103515625</AltitudeMeters>
            <DistanceMeters>2479.3517048365</DistanceMeters>
          </Trackpoint>
          <Trackpoint>
            <Time>2019-01-04T09:42:40.000Z</Time>
            <Position>
              <LatitudeDegrees>36.52928461320698261260986328125</LatitudeDegrees>
              <LongitudeDegrees>-5.401512645184993743896484375</LongitudeDegrees>
            </Position>
            <AltitudeMeters>226.600006103515625</AltitudeMeters>
            <DistanceMeters>2480.630158526</DistanceMeters>
          </Trackpoint>
          <Trackpoint>
            <Time>2019-01-04T09:42:41.000Z</Time>
            <Position>
              <LatitudeDegrees>36.5292800031602382659912109375</LatitudeDegrees>
              <LongitudeDegrees>-5.40153066627681255340576171875</LongitudeDegrees>
            </Position>
            <AltitudeMeters>226.600006103515625</AltitudeMeters>
            <DistanceMeters>2482.3220610743</DistanceMeters>
          </Trackpoint>
          <Trackpoint>
            <Time>2019-01-04T09:42:42.000Z</Time>
            <Position>
              <LatitudeDegrees>36.52927815914154052734375</LatitudeDegrees>
              <LongitudeDegrees>-5.40154843591153621673583984375</LongitudeDegrees>
            </Position>
            <AltitudeMeters>226.8000030517578125</AltitudeMeters>
            <DistanceMeters>2483.9262966513</DistanceMeters>
          </Trackpoint>
          <Trackpoint>
            <Time>2019-01-04T09:42:43.000Z</Time>
            <Position>
              <LatitudeDegrees>36.52927958406507968902587890625</LatitudeDegrees>
              <LongitudeDegrees>-5.4015704803168773651123046875</LongitudeDegrees>
            </Position>
            <AltitudeMeters>226.8000030517578125</AltitudeMeters>
            <DistanceMeters>2485.9059565152</DistanceMeters>
          </Trackpoint>
          <Trackpoint>
            <Time>2019-01-04T09:42:44.000Z</Time>
            <Position>
              <LatitudeDegrees>36.5292823500931262969970703125</LatitudeDegrees>
              <LongitudeDegrees>-5.40159319527447223663330078125</LongitudeDegrees>
            </Position>
            <AltitudeMeters>226.8000030517578125</AltitudeMeters>
            <DistanceMeters>2487.9595011822</DistanceMeters>
          </Trackpoint>
          <Trackpoint>
            <Time>2019-01-04T09:42:45.000Z</Time>
            <Position>
              <LatitudeDegrees>36.529286541044712066650390625</LatitudeDegrees>
              <LongitudeDegrees>-5.401618592441082000732421875</LongitudeDegrees>
            </Position>
            <AltitudeMeters>226.8000030517578125</AltitudeMeters>
            <DistanceMeters>2490.27745189</DistanceMeters>
          </Trackpoint>
          <Trackpoint>
            <Time>2019-01-04T09:42:46.000Z</Time>
            <Position>
              <LatitudeDegrees>36.529292576014995574951171875</LatitudeDegrees>
              <LongitudeDegrees>-5.40164172649383544921875</LongitudeDegrees>
            </Position>
            <AltitudeMeters>226.600006103515625</AltitudeMeters>
            <DistanceMeters>2492.4527128069</DistanceMeters>
          </Trackpoint>
          <Trackpoint>
            <Time>2019-01-04T09:42:47.000Z</Time>
            <Position>
              <LatitudeDegrees>36.52929701842367649078369140625</LatitudeDegrees>
              <LongitudeDegrees>-5.401666201651096343994140625</LongitudeDegrees>
            </Position>
            <AltitudeMeters>226.600006103515625</AltitudeMeters>
            <DistanceMeters>2494.6974360985</DistanceMeters>
          </Trackpoint>
          <Trackpoint>
            <Time>2019-01-04T09:42:48.000Z</Time>
            <Position>
              <LatitudeDegrees>36.5292977727949619293212890625</LatitudeDegrees>
              <LongitudeDegrees>-5.40168321691453456878662109375</LongitudeDegrees>
            </Position>
            <AltitudeMeters>226.399993896484375</AltitudeMeters>
            <DistanceMeters>2496.2178635284</DistanceMeters>
          </Trackpoint>
          <Trackpoint>
            <Time>2019-01-04T09:42:49.000Z</Time>
            <Position>
              <LatitudeDegrees>36.52929467149078845977783203125</LatitudeDegrees>
              <LongitudeDegrees>-5.401699058711528778076171875</LongitudeDegrees>
            </Position>
            <AltitudeMeters>226.399993896484375</AltitudeMeters>
            <DistanceMeters>2497.6776916145</DistanceMeters>
          </Trackpoint>
          <Trackpoint>
            <Time>2019-01-04T09:42:50.000Z</Time>
            <Position>
              <LatitudeDegrees>36.52929492294788360595703125</LatitudeDegrees>
              <LongitudeDegrees>-5.40171590633690357208251953125</LongitudeDegrees>
            </Position>
            <AltitudeMeters>226.399993896484375</AltitudeMeters>
            <DistanceMeters>2499.1831979039</DistanceMeters>
          </Trackpoint>
          <Trackpoint>
            <Time>2019-01-04T09:42:51.000Z</Time>
            <Position>
              <LatitudeDegrees>36.5293001197278499603271484375</LatitudeDegrees>
              <LongitudeDegrees>-5.40173225104808807373046875</LongitudeDegrees>
            </Position>
            <AltitudeMeters>226.1999969482421875</AltitudeMeters>
            <DistanceMeters>2500.7561699143</DistanceMeters>
          </Trackpoint>
          <Trackpoint>
            <Time>2019-01-04T09:42:52.000Z</Time>
            <Position>
              <LatitudeDegrees>36.529300622642040252685546875</LatitudeDegrees>
              <LongitudeDegrees>-5.40174834430217742919921875</LongitudeDegrees>
            </Position>
            <AltitudeMeters>226.1999969482421875</AltitudeMeters>
            <DistanceMeters>2502.1973213922</DistanceMeters>
          </Trackpoint>
          <Trackpoint>
            <Time>2019-01-04T09:42:53.000Z</Time>
            <Position>
              <LatitudeDegrees>36.529302634298801422119140625</LatitudeDegrees>
              <LongitudeDegrees>-5.4017662815749645233154296875</LongitudeDegrees>
            </Position>
            <AltitudeMeters>226</AltitudeMeters>
            <DistanceMeters>2503.8155680263</DistanceMeters>
          </Trackpoint>
          <Trackpoint>
            <Time>2019-01-04T09:42:54.000Z</Time>
            <Position>
              <LatitudeDegrees>36.5293074958026409149169921875</LatitudeDegrees>
              <LongitudeDegrees>-5.40178279392421245574951171875</LongitudeDegrees>
            </Position>
            <AltitudeMeters>226</AltitudeMeters>
            <DistanceMeters>2505.3856670261</DistanceMeters>
          </Trackpoint>
          <Trackpoint>
            <Time>2019-01-04T09:42:55.000Z</Time>
            <Position>
              <LatitudeDegrees>36.52931160293519496917724609375</LatitudeDegrees>
              <LongitudeDegrees>-5.40179721079766750335693359375</LongitudeDegrees>
            </Position>
            <AltitudeMeters>226</AltitudeMeters>
            <DistanceMeters>2506.7561617909</DistanceMeters>
          </Trackpoint>
          <Trackpoint>
            <Time>2019-01-04T09:42:56.000Z</Time>
            <Position>
              <LatitudeDegrees>36.52931772172451019287109375</LatitudeDegrees>
              <LongitudeDegrees>-5.4018155671656131744384765625</LongitudeDegrees>
            </Position>
            <AltitudeMeters>226</AltitudeMeters>
            <DistanceMeters>2508.5339488297</DistanceMeters>
          </Trackpoint>
          <Trackpoint>
            <Time>2019-01-04T09:42:57.000Z</Time>
            <Position>
              <LatitudeDegrees>36.52932585217058658599853515625</LatitudeDegrees>
              <LongitudeDegrees>-5.4018336720764636993408203125</LongitudeDegrees>
            </Position>
            <AltitudeMeters>226</AltitudeMeters>
            <DistanceMeters>2510.3912288844</DistanceMeters>
          </Trackpoint>
          <Trackpoint>
            <Time>2019-01-04T09:42:58.000Z</Time>
            <Position>
              <LatitudeDegrees>36.52933322824537754058837890625</LatitudeDegrees>
              <LongitudeDegrees>-5.4018534533679485321044921875</LongitudeDegrees>
            </Position>
            <AltitudeMeters>226</AltitudeMeters>
            <DistanceMeters>2512.3433283335</DistanceMeters>
          </Trackpoint>
          <Trackpoint>
            <Time>2019-01-04T09:42:59.000Z</Time>
            <Position>
              <LatitudeDegrees>36.52933758683502674102783203125</LatitudeDegrees>
              <LongitudeDegrees>-5.4018732346594333648681640625</LongitudeDegrees>
            </Position>
            <AltitudeMeters>226</AltitudeMeters>
            <DistanceMeters>2514.1810575274</DistanceMeters>
          </Trackpoint>
          <Trackpoint>
            <Time>2019-01-04T09:43:00.000Z</Time>
            <Position>
              <LatitudeDegrees>36.52933691628277301788330078125</LatitudeDegrees>
              <LongitudeDegrees>-5.4018916748464107513427734375</LongitudeDegrees>
            </Position>
            <AltitudeMeters>226</AltitudeMeters>
            <DistanceMeters>2515.8324457574</DistanceMeters>
          </Trackpoint>
          <Trackpoint>
            <Time>2019-01-04T09:43:01.000Z</Time>
            <Position>
              <LatitudeDegrees>36.5293339826166629791259765625</LatitudeDegrees>
              <LongitudeDegrees>-5.4019070975482463836669921875</LongitudeDegrees>
            </Position>
            <AltitudeMeters>226</AltitudeMeters>
            <DistanceMeters>2517.2419197081</DistanceMeters>
          </Trackpoint>
          <Trackpoint>
            <Time>2019-01-04T09:43:02.000Z</Time>
            <Position>
              <LatitudeDegrees>36.529329456388950347900390625</LatitudeDegrees>
              <LongitudeDegrees>-5.40192478336393833160400390625</LongitudeDegrees>
            </Position>
            <AltitudeMeters>226.1999969482421875</AltitudeMeters>
            <DistanceMeters>2518.9014899281</DistanceMeters>
          </Trackpoint>
          <Trackpoint>
            <Time>2019-01-04T09:43:03.000Z</Time>
            <Position>
              <LatitudeDegrees>36.52932384051382541656494140625</LatitudeDegrees>
              <LongitudeDegrees>-5.4019449837505817413330078125</LongitudeDegrees>
            </Position>
            <AltitudeMeters>226.399993896484375</AltitudeMeters>
            <DistanceMeters>2520.8138656652</DistanceMeters>
          </Trackpoint>
          <Trackpoint>
            <Time>2019-01-04T09:43:04.000Z</Time>
            <Position>
              <LatitudeDegrees>36.52931881137192249298095703125</LatitudeDegrees>
              <LongitudeDegrees>-5.40196635760366916656494140625</LongitudeDegrees>
            </Position>
            <AltitudeMeters>226.399993896484375</AltitudeMeters>
            <DistanceMeters>2522.8071628421</DistanceMeters>
          </Trackpoint>
          <Trackpoint>
            <Time>2019-01-04T09:43:05.000Z</Time>
            <Position>
              <LatitudeDegrees>36.5293157100677490234375</LatitudeDegrees>
              <LongitudeDegrees>-5.40198915638029575347900390625</LongitudeDegrees>
            </Position>
            <AltitudeMeters>226.399993896484375</AltitudeMeters>
            <DistanceMeters>2524.8738573425</DistanceMeters>
          </Trackpoint>
          <Trackpoint>
            <Time>2019-01-04T09:43:06.000Z</Time>
            <Position>
              <LatitudeDegrees>36.52931361459195613861083984375</LatitudeDegrees>
              <LongitudeDegrees>-5.40201312862336635589599609375</LongitudeDegrees>
            </Position>
            <AltitudeMeters>226.399993896484375</AltitudeMeters>
            <DistanceMeters>2527.0282619684</DistanceMeters>
          </Trackpoint>
          <Trackpoint>
            <Time>2019-01-04T09:43:07.000Z</Time>
            <Position>
              <LatitudeDegrees>36.529312692582607269287109375</LatitudeDegrees>
              <LongitudeDegrees>-5.402032323181629180908203125</LongitudeDegrees>
            </Position>
            <AltitudeMeters>226.399993896484375</AltitudeMeters>
            <DistanceMeters>2528.7466434736</DistanceMeters>
          </Trackpoint>
          <Trackpoint>
            <Time>2019-01-04T09:43:08.000Z</Time>
            <Position>
              <LatitudeDegrees>36.52931210584938526153564453125</LatitudeDegrees>
              <LongitudeDegrees>-5.4020492546260356903076171875</LongitudeDegrees>
            </Position>
            <AltitudeMeters>226.1999969482421875</AltitudeMeters>
            <DistanceMeters>2530.2611200884</DistanceMeters>
          </Trackpoint>
          <Trackpoint>
            <Time>2019-01-04T09:43:09.000Z</Time>
            <Position>
              <LatitudeDegrees>36.5293138660490512847900390625</LatitudeDegrees>
              <LongitudeDegrees>-5.402067191898822784423828125</LongitudeDegrees>
            </Position>
            <AltitudeMeters>226.1999969482421875</AltitudeMeters>
            <DistanceMeters>2531.8793667225</DistanceMeters>
          </Trackpoint>
          <Trackpoint>
            <Time>2019-01-04T09:43:10.000Z</Time>
            <Position>
              <LatitudeDegrees>36.5293182246387004852294921875</LatitudeDegrees>
              <LongitudeDegrees>-5.40208705700933933258056640625</LongitudeDegrees>
            </Position>
            <AltitudeMeters>226.1999969482421875</AltitudeMeters>
            <DistanceMeters>2533.7195511334</DistanceMeters>
          </Trackpoint>
          <Trackpoint>
            <Time>2019-01-04T09:43:11.000Z</Time>
            <Position>
              <LatitudeDegrees>36.52932065539062023162841796875</LatitudeDegrees>
              <LongitudeDegrees>-5.40210683830082416534423828125</LongitudeDegrees>
            </Position>
            <AltitudeMeters>226</AltitudeMeters>
            <DistanceMeters>2535.5125115943</DistanceMeters>
          </Trackpoint>
          <Trackpoint>
            <Time>2019-01-04T09:43:12.000Z</Time>
            <Position>
              <LatitudeDegrees>36.52932384051382541656494140625</LatitudeDegrees>
              <LongitudeDegrees>-5.40212393738329410552978515625</LongitudeDegrees>
            </Position>
            <AltitudeMeters>226</AltitudeMeters>
            <DistanceMeters>2537.0854836047</DistanceMeters>
          </Trackpoint>
          <Trackpoint>
            <Time>2019-01-04T09:43:13.000Z</Time>
            <Position>
              <LatitudeDegrees>36.529329456388950347900390625</LatitudeDegrees>
              <LongitudeDegrees>-5.4021381027996540069580078125</LongitudeDegrees>
            </Position>
            <AltitudeMeters>226</AltitudeMeters>
            <DistanceMeters>2538.4981572734</DistanceMeters>
          </Trackpoint>
          <Trackpoint>
            <Time>2019-01-04T09:43:14.000Z</Time>
            <Position>
              <LatitudeDegrees>36.5293326415121555328369140625</LatitudeDegrees>
              <LongitudeDegrees>-5.40215595625340938568115234375</LongitudeDegrees>
            </Position>
            <AltitudeMeters>226</AltitudeMeters>
            <DistanceMeters>2540.1358180147</DistanceMeters>
          </Trackpoint>
          <Trackpoint>
            <Time>2019-01-04T09:43:15.000Z</Time>
            <Position>
              <LatitudeDegrees>36.52933473698794841766357421875</LatitudeDegrees>
              <LongitudeDegrees>-5.40217355825006961822509765625</LongitudeDegrees>
            </Position>
            <AltitudeMeters>226</AltitudeMeters>
            <DistanceMeters>2541.7259190821</DistanceMeters>
          </Trackpoint>
          <Trackpoint>
            <Time>2019-01-04T09:43:16.000Z</Time>
            <Position>
              <LatitudeDegrees>36.52933783829212188720703125</LatitudeDegrees>
              <LongitudeDegrees>-5.40219367481768131256103515625</LongitudeDegrees>
            </Position>
            <AltitudeMeters>226</AltitudeMeters>
            <DistanceMeters>2543.5587279748</DistanceMeters>
          </Trackpoint>
          <Trackpoint>
            <Time>2019-01-04T09:43:17.000Z</Time>
            <Position>
              <LatitudeDegrees>36.529345214366912841796875</LatitudeDegrees>
              <LongitudeDegrees>-5.4022116959095001220703125</LongitudeDegrees>
            </Position>
            <AltitudeMeters>226</AltitudeMeters>
            <DistanceMeters>2545.3692300458</DistanceMeters>
          </Trackpoint>
          <Trackpoint>
            <Time>2019-01-04T09:43:18.000Z</Time>
            <Position>
              <LatitudeDegrees>36.52935351245105266571044921875</LatitudeDegrees>
              <LongitudeDegrees>-5.40222569368779659271240234375</LongitudeDegrees>
            </Position>
            <AltitudeMeters>226</AltitudeMeters>
            <DistanceMeters>2546.9248844055</DistanceMeters>
          </Trackpoint>
          <Trackpoint>
            <Time>2019-01-04T09:43:19.000Z</Time>
            <Position>
              <LatitudeDegrees>36.52935854159295558929443359375</LatitudeDegrees>
              <LongitudeDegrees>-5.40224128402769565582275390625</LongitudeDegrees>
            </Position>
            <AltitudeMeters>226</AltitudeMeters>
            <DistanceMeters>2548.4243806658</DistanceMeters>
          </Trackpoint>
          <Trackpoint>
            <Time>2019-01-04T09:43:20.000Z</Time>
            <Position>
              <LatitudeDegrees>36.5293638221919536590576171875</LatitudeDegrees>
              <LongitudeDegrees>-5.40225821547210216522216796875</LongitudeDegrees>
            </Position>
            <AltitudeMeters>226</AltitudeMeters>
            <DistanceMeters>2550.0481978728</DistanceMeters>
          </Trackpoint>
          <Trackpoint>
            <Time>2019-01-04T09:43:21.000Z</Time>
            <Position>
              <LatitudeDegrees>36.5293688513338565826416015625</LatitudeDegrees>
              <LongitudeDegrees>-5.4022762365639209747314453125</LongitudeDegrees>
            </Position>
            <AltitudeMeters>226</AltitudeMeters>
            <DistanceMeters>2551.7560370606</DistanceMeters>
          </Trackpoint>
          <Trackpoint>
            <Time>2019-01-04T09:43:22.000Z</Time>
            <Position>
              <LatitudeDegrees>36.5293715335428714752197265625</LatitudeDegrees>
              <LongitudeDegrees>-5.40229325182735919952392578125</LongitudeDegrees>
            </Position>
            <AltitudeMeters>226</AltitudeMeters>
            <DistanceMeters>2553.3058758696</DistanceMeters>
          </Trackpoint>
          <Trackpoint>
            <Time>2019-01-04T09:43:23.000Z</Time>
            <Position>
              <LatitudeDegrees>36.5293742157518863677978515625</LatitudeDegrees>
              <LongitudeDegrees>-5.40231001563370227813720703125</LongitudeDegrees>
            </Position>
            <AltitudeMeters>226</AltitudeMeters>
            <DistanceMeters>2554.8381355981</DistanceMeters>
          </Trackpoint>
          <Trackpoint>
            <Time>2019-01-04T09:43:24.000Z</Time>
            <Position>
              <LatitudeDegrees>36.5293765626847743988037109375</LatitudeDegrees>
              <LongitudeDegrees>-5.402327366173267364501953125</LongitudeDegrees>
            </Position>
            <AltitudeMeters>226</AltitudeMeters>
            <DistanceMeters>2556.4111076085</DistanceMeters>
          </Trackpoint>
          <Trackpoint>
            <Time>2019-01-04T09:43:25.000Z</Time>
            <Position>
              <LatitudeDegrees>36.52937899343669414520263671875</LatitudeDegrees>
              <LongitudeDegrees>-5.402347147464752197265625</LongitudeDegrees>
            </Position>
            <AltitudeMeters>226.1999969482421875</AltitudeMeters>
            <DistanceMeters>2558.19902457</DistanceMeters>
          </Trackpoint>
          <Trackpoint>
            <Time>2019-01-04T09:43:26.000Z</Time>
            <Position>
              <LatitudeDegrees>36.52938209474086761474609375</LatitudeDegrees>
              <LongitudeDegrees>-5.40236391127109527587890625</LongitudeDegrees>
            </Position>
            <AltitudeMeters>226.1999969482421875</AltitudeMeters>
            <DistanceMeters>2559.7371663152</DistanceMeters>
          </Trackpoint>
          <Trackpoint>
            <Time>2019-01-04T09:43:27.000Z</Time>
            <Position>
              <LatitudeDegrees>36.529386453330516815185546875</LatitudeDegrees>
              <LongitudeDegrees>-5.402378998696804046630859375</LongitudeDegrees>
            </Position>
            <AltitudeMeters>226.399993896484375</AltitudeMeters>
            <DistanceMeters>2561.172038236</DistanceMeters>
          </Trackpoint>
          <Trackpoint>
            <Time>2019-01-04T09:43:28.000Z</Time>
            <Position>
              <LatitudeDegrees>36.52938871644437313079833984375</LatitudeDegrees>
              <LongitudeDegrees>-5.4023949243128299713134765625</LongitudeDegrees>
            </Position>
            <AltitudeMeters>226.399993896484375</AltitudeMeters>
            <DistanceMeters>2562.6225580778</DistanceMeters>
          </Trackpoint>
          <Trackpoint>
            <Time>2019-01-04T09:43:29.000Z</Time>
            <Position>
              <LatitudeDegrees>36.5293919853866100311279296875</LatitudeDegrees>
              <LongitudeDegrees>-5.402411855757236480712890625</LongitudeDegrees>
            </Position>
            <AltitudeMeters>226.399993896484375</AltitudeMeters>
            <DistanceMeters>2564.1840063286</DistanceMeters>
          </Trackpoint>
          <Trackpoint>
            <Time>2019-01-04T09:43:30.000Z</Time>
            <Position>
              <LatitudeDegrees>36.52939693070948123931884765625</LatitudeDegrees>
              <LongitudeDegrees>-5.4024291224777698516845703125</LongitudeDegrees>
            </Position>
            <AltitudeMeters>226.399993896484375</AltitudeMeters>
            <DistanceMeters>2565.8244217578</DistanceMeters>
          </Trackpoint>
          <Trackpoint>
            <Time>2019-01-04T09:43:31.000Z</Time>
            <Position>
              <LatitudeDegrees>36.529404222965240478515625</LatitudeDegrees>
              <LongitudeDegrees>-5.4024450480937957763671875</LongitudeDegrees>
            </Position>
            <AltitudeMeters>226.1999969482421875</AltitudeMeters>
            <DistanceMeters>2567.464837187</DistanceMeters>
          </Trackpoint>
          <Trackpoint>
            <Time>2019-01-04T09:43:32.000Z</Time>
            <Position>
              <LatitudeDegrees>36.52941352687776088714599609375</LatitudeDegrees>
              <LongitudeDegrees>-5.40245770476758480072021484375</LongitudeDegrees>
            </Position>
            <AltitudeMeters>226.1999969482421875</AltitudeMeters>
            <DistanceMeters>2569.0000407409</DistanceMeters>
          </Trackpoint>
          <Trackpoint>
            <Time>2019-01-04T09:43:33.000Z</Time>
            <Position>
              <LatitudeDegrees>36.5294204838573932647705078125</LatitudeDegrees>
              <LongitudeDegrees>-5.4024706967175006866455078125</LongitudeDegrees>
            </Position>
            <AltitudeMeters>226.1999969482421875</AltitudeMeters>
            <DistanceMeters>2570.3966425137</DistanceMeters>
          </Trackpoint>
          <Trackpoint>
            <Time>2019-01-04T09:43:34.000Z</Time>
            <Position>
              <LatitudeDegrees>36.52942576445639133453369140625</LatitudeDegrees>
              <LongitudeDegrees>-5.40248251520097255706787109375</LongitudeDegrees>
            </Position>
            <AltitudeMeters>226.399993896484375</AltitudeMeters>
            <DistanceMeters>2571.606135128</DistanceMeters>
          </Trackpoint>
          <Trackpoint>
            <Time>2019-01-04T09:43:35.000Z</Time>
            <Position>
              <LatitudeDegrees>36.52943448163568973541259765625</LatitudeDegrees>
              <LongitudeDegrees>-5.40249265730381011962890625</LongitudeDegrees>
            </Position>
            <AltitudeMeters>226.600006103515625</AltitudeMeters>
            <DistanceMeters>2572.933110978</DistanceMeters>
          </Trackpoint>
          <Trackpoint>
            <Time>2019-01-04T09:43:36.000Z</Time>
            <Position>
              <LatitudeDegrees>36.52944244444370269775390625</LatitudeDegrees>
              <LongitudeDegrees>-5.402501039206981658935546875</LongitudeDegrees>
            </Position>
            <AltitudeMeters>226.8000030517578125</AltitudeMeters>
            <DistanceMeters>2574.0969457887</DistanceMeters>
          </Trackpoint>
          <Trackpoint>
            <Time>2019-01-04T09:43:37.000Z</Time>
            <Position>
              <LatitudeDegrees>36.52945124544203281402587890625</LatitudeDegrees>
              <LongitudeDegrees>-5.40251051075756549835205078125</LongitudeDegrees>
            </Position>
            <AltitudeMeters>227</AltitudeMeters>
            <DistanceMeters>2575.3894488417</DistanceMeters>
          </Trackpoint>
          <Trackpoint>
            <Time>2019-01-04T09:43:38.000Z</Time>
            <Position>
              <LatitudeDegrees>36.52946298010647296905517578125</LatitudeDegrees>
              <LongitudeDegrees>-5.40251721628010272979736328125</LongitudeDegrees>
            </Position>
            <AltitudeMeters>227.1999969482421875</AltitudeMeters>
            <DistanceMeters>2576.8274639688</DistanceMeters>
          </Trackpoint>
          <Trackpoint>
            <Time>2019-01-04T09:43:39.000Z</Time>
            <Position>
              <LatitudeDegrees>36.5294726192951202392578125</LatitudeDegrees>
              <LongitudeDegrees>-5.402527190744876861572265625</LongitudeDegrees>
            </Position>
            <AltitudeMeters>227.1999969482421875</AltitudeMeters>
            <DistanceMeters>2578.2240657416</DistanceMeters>
          </Trackpoint>
          <Trackpoint>
            <Time>2019-01-04T09:43:40.000Z</Time>
            <Position>
              <LatitudeDegrees>36.529482342302799224853515625</LatitudeDegrees>
              <LongitudeDegrees>-5.40253699757158756256103515625</LongitudeDegrees>
            </Position>
            <AltitudeMeters>227.1999969482421875</AltitudeMeters>
            <DistanceMeters>2579.6141867288</DistanceMeters>
          </Trackpoint>
          <Trackpoint>
            <Time>2019-01-04T09:43:41.000Z</Time>
            <Position>
              <LatitudeDegrees>36.529481001198291778564453125</LatitudeDegrees>
              <LongitudeDegrees>-5.4025528393685817718505859375</LongitudeDegrees>
            </Position>
            <AltitudeMeters>227.1999969482421875</AltitudeMeters>
            <DistanceMeters>2581.0395874444</DistanceMeters>
          </Trackpoint>
          <Trackpoint>
            <Time>2019-01-04T09:43:42.000Z</Time>
            <Position>
              <LatitudeDegrees>36.52948175556957721710205078125</LatitudeDegrees>
              <LongitudeDegrees>-5.4025722853839397430419921875</LongitudeDegrees>
            </Position>
            <AltitudeMeters>227.399993896484375</AltitudeMeters>
            <DistanceMeters>2582.7814558909</DistanceMeters>
          </Trackpoint>
          <Trackpoint>
            <Time>2019-01-04T09:43:43.000Z</Time>
            <Position>
              <LatitudeDegrees>36.529491059482097625732421875</LatitudeDegrees>
              <LongitudeDegrees>-5.4025877080857753753662109375</LongitudeDegrees>
            </Position>
            <AltitudeMeters>227.399993896484375</AltitudeMeters>
            <DistanceMeters>2584.502462885</DistanceMeters>
          </Trackpoint>
          <Trackpoint>
            <Time>2019-01-04T09:43:44.000Z</Time>
            <Position>
              <LatitudeDegrees>36.52949851937592029571533203125</LatitudeDegrees>
              <LongitudeDegrees>-5.402604304254055023193359375</LongitudeDegrees>
            </Position>
            <AltitudeMeters>227.399993896484375</AltitudeMeters>
            <DistanceMeters>2586.2023524291</DistanceMeters>
          </Trackpoint>
          <Trackpoint>
            <Time>2019-01-04T09:43:45.000Z</Time>
            <Position>
              <LatitudeDegrees>36.529505811631679534912109375</LatitudeDegrees>
              <LongitudeDegrees>-5.40262165479362010955810546875</LongitudeDegrees>
            </Position>
            <AltitudeMeters>227.600006103515625</AltitudeMeters>
            <DistanceMeters>2587.9571333463</DistanceMeters>
          </Trackpoint>
          <Trackpoint>
            <Time>2019-01-04T09:43:46.000Z</Time>
            <Position>
              <LatitudeDegrees>36.5295182168483734130859375</LatitudeDegrees>
              <LongitudeDegrees>-5.40263858623802661895751953125</LongitudeDegrees>
            </Position>
            <AltitudeMeters>227.8000030517578125</AltitudeMeters>
            <DistanceMeters>2590.008478179</DistanceMeters>
          </Trackpoint>
          <Trackpoint>
            <Time>2019-01-04T09:43:47.000Z</Time>
            <Position>
              <LatitudeDegrees>36.52952752076089382171630859375</LatitudeDegrees>
              <LongitudeDegrees>-5.4026557691395282745361328125</LongitudeDegrees>
            </Position>
            <AltitudeMeters>227.8000030517578125</AltitudeMeters>
            <DistanceMeters>2591.8633256459</DistanceMeters>
          </Trackpoint>
          <Trackpoint>
            <Time>2019-01-04T09:43:48.000Z</Time>
            <Position>
              <LatitudeDegrees>36.529530622065067291259765625</LatitudeDegrees>
              <LongitudeDegrees>-5.402669347822666168212890625</LongitudeDegrees>
            </Position>
            <AltitudeMeters>228</AltitudeMeters>
            <DistanceMeters>2593.1239974724</DistanceMeters>
          </Trackpoint>
          <Trackpoint>
            <Time>2019-01-04T09:43:49.000Z</Time>
            <Position>
              <LatitudeDegrees>36.52953238226473331451416015625</LatitudeDegrees>
              <LongitudeDegrees>-5.40268451906740665435791015625</LongitudeDegrees>
            </Position>
            <AltitudeMeters>228</AltitudeMeters>
            <DistanceMeters>2594.4944922372</DistanceMeters>
          </Trackpoint>
          <Trackpoint>
            <Time>2019-01-04T09:43:50.000Z</Time>
            <Position>
              <LatitudeDegrees>36.52953355573117733001708984375</LatitudeDegrees>
              <LongitudeDegrees>-5.4026971757411956787109375</LongitudeDegrees>
            </Position>
            <AltitudeMeters>228</AltitudeMeters>
            <DistanceMeters>2595.6348128096</DistanceMeters>
          </Trackpoint>
          <Trackpoint>
            <Time>2019-01-04T09:43:51.000Z</Time>
            <Position>
              <LatitudeDegrees>36.52953288517892360687255859375</LatitudeDegrees>
              <LongitudeDegrees>-5.402709580957889556884765625</LongitudeDegrees>
            </Position>
            <AltitudeMeters>228</AltitudeMeters>
            <DistanceMeters>2596.74300521</DistanceMeters>
          </Trackpoint>
          <Trackpoint>
            <Time>2019-01-04T09:43:52.000Z</Time>
            <Position>
              <LatitudeDegrees>36.529531963169574737548828125</LatitudeDegrees>
              <LongitudeDegrees>-5.402722992002964019775390625</LongitudeDegrees>
            </Position>
            <AltitudeMeters>228.1999969482421875</AltitudeMeters>
            <DistanceMeters>2597.9450086339</DistanceMeters>
          </Trackpoint>
          <Trackpoint>
            <Time>2019-01-04T09:43:53.000Z</Time>
            <Position>
              <LatitudeDegrees>36.52952970005571842193603515625</LatitudeDegrees>
              <LongitudeDegrees>-5.40273665450513362884521484375</LongitudeDegrees>
            </Position>
            <AltitudeMeters>228.399993896484375</AltitudeMeters>
            <DistanceMeters>2599.1912723092</DistanceMeters>
          </Trackpoint>
          <Trackpoint>
            <Time>2019-01-04T09:43:54.000Z</Time>
            <Position>
              <LatitudeDegrees>36.52952634729444980621337890625</LatitudeDegrees>
              <LongitudeDegrees>-5.4027481377124786376953125</LongitudeDegrees>
            </Position>
            <AltitudeMeters>228.600006103515625</AltitudeMeters>
            <DistanceMeters>2600.2830461368</DistanceMeters>
          </Trackpoint>
          <Trackpoint>
            <Time>2019-01-04T09:43:55.000Z</Time>
            <Position>
              <LatitudeDegrees>36.5295183844864368438720703125</LatitudeDegrees>
              <LongitudeDegrees>-5.40276096202433109283447265625</LongitudeDegrees>
            </Position>
            <AltitudeMeters>228.600006103515625</AltitudeMeters>
            <DistanceMeters>2601.7335659786</DistanceMeters>
          </Trackpoint>
          <Trackpoint>
            <Time>2019-01-04T09:43:56.000Z</Time>
            <Position>
              <LatitudeDegrees>36.52951008640229701995849609375</LatitudeDegrees>
              <LongitudeDegrees>-5.40277420543134212493896484375</LongitudeDegrees>
            </Position>
            <AltitudeMeters>228.600006103515625</AltitudeMeters>
            <DistanceMeters>2603.2360702585</DistanceMeters>
          </Trackpoint>
          <Trackpoint>
            <Time>2019-01-04T09:43:57.000Z</Time>
            <Position>
              <LatitudeDegrees>36.52950572781264781951904296875</LatitudeDegrees>
              <LongitudeDegrees>-5.4027821682393550872802734375</LongitudeDegrees>
            </Position>
            <AltitudeMeters>228.600006103515625</AltitudeMeters>
            <DistanceMeters>2604.0913106878</DistanceMeters>
          </Trackpoint>
          <Trackpoint>
            <Time>2019-01-04T09:43:58.000Z</Time>
            <Position>
              <LatitudeDegrees>36.5294992737472057342529296875</LatitudeDegrees>
              <LongitudeDegrees>-5.40279700420796871185302734375</LongitudeDegrees>
            </Position>
            <AltitudeMeters>228.600006103515625</AltitudeMeters>
            <DistanceMeters>2605.5998130126</DistanceMeters>
          </Trackpoint>
          <Trackpoint>
            <Time>2019-01-04T09:43:59.000Z</Time>
            <Position>
              <LatitudeDegrees>36.52949097566306591033935546875</LatitudeDegrees>
              <LongitudeDegrees>-5.402809493243694305419921875</LongitudeDegrees>
            </Position>
            <AltitudeMeters>228.600006103515625</AltitudeMeters>
            <DistanceMeters>2607.0472168038</DistanceMeters>
          </Trackpoint>
          <Trackpoint>
            <Time>2019-01-04T09:44:00.000Z</Time>
            <Position>
              <LatitudeDegrees>36.52948309667408466339111328125</LatitudeDegrees>
              <LongitudeDegrees>-5.4028197191655635833740234375</LongitudeDegrees>
            </Position>
            <AltitudeMeters>228.600006103515625</AltitudeMeters>
            <DistanceMeters>2608.3078886303</DistanceMeters>
          </Trackpoint>
          <Trackpoint>
            <Time>2019-01-04T09:44:01.000Z</Time>
            <Position>
              <LatitudeDegrees>36.529474966228008270263671875</LatitudeDegrees>
              <LongitudeDegrees>-5.40282952599227428436279296875</LongitudeDegrees>
            </Position>
            <AltitudeMeters>228.600006103515625</AltitudeMeters>
            <DistanceMeters>2609.5685604568</DistanceMeters>
          </Trackpoint>
          <Trackpoint>
            <Time>2019-01-04T09:44:02.000Z</Time>
            <Position>
              <LatitudeDegrees>36.52946524322032928466796875</LatitudeDegrees>
              <LongitudeDegrees>-5.40284310467541217803955078125</LongitudeDegrees>
            </Position>
            <AltitudeMeters>228.399993896484375</AltitudeMeters>
            <DistanceMeters>2611.1979291918</DistanceMeters>
          </Trackpoint>
          <Trackpoint>
            <Time>2019-01-04T09:44:03.000Z</Time>
            <Position>
              <LatitudeDegrees>36.52945644222199916839599609375</LatitudeDegrees>
              <LongitudeDegrees>-5.40285718627274036407470703125</LongitudeDegrees>
            </Position>
            <AltitudeMeters>228.399993896484375</AltitudeMeters>
            <DistanceMeters>2612.7993478473</DistanceMeters>
          </Trackpoint>
          <Trackpoint>
            <Time>2019-01-04T09:44:04.000Z</Time>
            <Position>
              <LatitudeDegrees>36.52944873087108135223388671875</LatitudeDegrees>
              <LongitudeDegrees>-5.40286942385137081146240234375</LongitudeDegrees>
            </Position>
            <AltitudeMeters>228.399993896484375</AltitudeMeters>
            <DistanceMeters>2614.1894688345</DistanceMeters>
          </Trackpoint>
          <Trackpoint>
            <Time>2019-01-04T09:44:05.000Z</Time>
            <Position>
              <LatitudeDegrees>36.52944336645305156707763671875</LatitudeDegrees>
              <LongitudeDegrees>-5.40287889540195465087890625</LongitudeDegrees>
            </Position>
            <AltitudeMeters>228.1999969482421875</AltitudeMeters>
            <DistanceMeters>2615.2260879047</DistanceMeters>
          </Trackpoint>
          <Trackpoint>
            <Time>2019-01-04T09:44:06.000Z</Time>
            <Position>
              <LatitudeDegrees>36.529436744749546051025390625</LatitudeDegrees>
              <LongitudeDegrees>-5.4028854332864284515380859375</LongitudeDegrees>
            </Position>
            <AltitudeMeters>228.1999969482421875</AltitudeMeters>
            <DistanceMeters>2616.1668043825</DistanceMeters>
          </Trackpoint>
          <Trackpoint>
            <Time>2019-01-04T09:44:07.000Z</Time>
            <Position>
              <LatitudeDegrees>36.52942894957959651947021484375</LatitudeDegrees>
              <LongitudeDegrees>-5.40289591066539287567138671875</LongitudeDegrees>
            </Position>
            <AltitudeMeters>228.1999969482421875</AltitudeMeters>
            <DistanceMeters>2617.445258072</DistanceMeters>
          </Trackpoint>
          <Trackpoint>
            <Time>2019-01-04T09:44:08.000Z</Time>
            <Position>
              <LatitudeDegrees>36.5294198133051395416259765625</LatitudeDegrees>
              <LongitudeDegrees>-5.402907393872737884521484375</LongitudeDegrees>
            </Position>
            <AltitudeMeters>228</AltitudeMeters>
            <DistanceMeters>2618.8926618633</DistanceMeters>
          </Trackpoint>
          <Trackpoint>
            <Time>2019-01-04T09:44:09.000Z</Time>
            <Position>
              <LatitudeDegrees>36.52941294014453887939453125</LatitudeDegrees>
              <LongitudeDegrees>-5.4029172845184803009033203125</LongitudeDegrees>
            </Position>
            <AltitudeMeters>227.8000030517578125</AltitudeMeters>
            <DistanceMeters>2620.0642298808</DistanceMeters>
          </Trackpoint>
          <Trackpoint>
            <Time>2019-01-04T09:44:10.000Z</Time>
            <Position>
              <LatitudeDegrees>36.52940263040363788604736328125</LatitudeDegrees>
              <LongitudeDegrees>-5.402930863201618194580078125</LongitudeDegrees>
            </Position>
            <AltitudeMeters>227.600006103515625</AltitudeMeters>
            <DistanceMeters>2621.7373478376</DistanceMeters>
          </Trackpoint>
          <Trackpoint>
            <Time>2019-01-04T09:44:11.000Z</Time>
            <Position>
              <LatitudeDegrees>36.529393158853054046630859375</LatitudeDegrees>
              <LongitudeDegrees>-5.402942262589931488037109375</LongitudeDegrees>
            </Position>
            <AltitudeMeters>227.600006103515625</AltitudeMeters>
            <DistanceMeters>2623.2033485858</DistanceMeters>
          </Trackpoint>
          <Trackpoint>
            <Time>2019-01-04T09:44:12.000Z</Time>
            <Position>
              <LatitudeDegrees>36.5293842740356922149658203125</LatitudeDegrees>
              <LongitudeDegrees>-5.4029568471014499664306640625</LongitudeDegrees>
            </Position>
            <AltitudeMeters>227.600006103515625</AltitudeMeters>
            <DistanceMeters>2624.8410093272</DistanceMeters>
          </Trackpoint>
          <Trackpoint>
            <Time>2019-01-04T09:44:13.000Z</Time>
            <Position>
              <LatitudeDegrees>36.52937614358961582183837890625</LatitudeDegrees>
              <LongitudeDegrees>-5.4029726050794124603271484375</LongitudeDegrees>
            </Position>
            <AltitudeMeters>227.399993896484375</AltitudeMeters>
            <DistanceMeters>2626.5168236887</DistanceMeters>
          </Trackpoint>
          <Trackpoint>
            <Time>2019-01-04T09:44:14.000Z</Time>
            <Position>
              <LatitudeDegrees>36.52937010861933231353759765625</LatitudeDegrees>
              <LongitudeDegrees>-5.4029880277812480926513671875</LongitudeDegrees>
            </Position>
            <AltitudeMeters>227.399993896484375</AltitudeMeters>
            <DistanceMeters>2628.0490834171</DistanceMeters>
          </Trackpoint>
          <Trackpoint>
            <Time>2019-01-04T09:44:15.000Z</Time>
            <Position>
              <LatitudeDegrees>36.5293601341545581817626953125</LatitudeDegrees>
              <LongitudeDegrees>-5.40300303138792514801025390625</LongitudeDegrees>
            </Position>
            <AltitudeMeters>227.399993896484375</AltitudeMeters>
            <DistanceMeters>2629.7909518637</DistanceMeters>
          </Trackpoint>
          <Trackpoint>
            <Time>2019-01-04T09:44:16.000Z</Time>
            <Position>
              <LatitudeDegrees>36.5293507464230060577392578125</LatitudeDegrees>
              <LongitudeDegrees>-5.40301577188074588775634765625</LongitudeDegrees>
            </Position>
            <AltitudeMeters>227.399993896484375</AltitudeMeters>
            <DistanceMeters>2631.3378746987</DistanceMeters>
          </Trackpoint>
          <Trackpoint>
            <Time>2019-01-04T09:44:17.000Z</Time>
            <Position>
              <LatitudeDegrees>36.52933976612985134124755859375</LatitudeDegrees>
              <LongitudeDegrees>-5.4030249081552028656005859375</LongitudeDegrees>
            </Position>
            <AltitudeMeters>227.399993896484375</AltitudeMeters>
            <DistanceMeters>2632.8069520521</DistanceMeters>
          </Trackpoint>
          <Trackpoint>
            <Time>2019-01-04T09:44:18.000Z</Time>
            <Position>
              <LatitudeDegrees>36.52932886965572834014892578125</LatitudeDegrees>
              <LongitudeDegrees>-5.40303706191480159759521484375</LongitudeDegrees>
            </Position>
            <AltitudeMeters>227.399993896484375</AltitudeMeters>
            <DistanceMeters>2634.4363207871</DistanceMeters>
          </Trackpoint>
          <Trackpoint>
            <Time>2019-01-04T09:44:19.000Z</Time>
            <Position>
              <LatitudeDegrees>36.52931881137192249298095703125</LatitudeDegrees>
              <LongitudeDegrees>-5.4030513949692249298095703125</LongitudeDegrees>
            </Position>
            <AltitudeMeters>227.399993896484375</AltitudeMeters>
            <DistanceMeters>2636.1362103311</DistanceMeters>
          </Trackpoint>
          <Trackpoint>
            <Time>2019-01-04T09:44:20.000Z</Time>
            <Position>
              <LatitudeDegrees>36.5293081663548946380615234375</LatitudeDegrees>
              <LongitudeDegrees>-5.4030678234994411468505859375</LongitudeDegrees>
            </Position>
            <AltitudeMeters>227.399993896484375</AltitudeMeters>
            <DistanceMeters>2638.0224367542</DistanceMeters>
          </Trackpoint>
          <Trackpoint>
            <Time>2019-01-04T09:44:21.000Z</Time>
            <Position>
              <LatitudeDegrees>36.52929903008043766021728515625</LatitudeDegrees>
              <LongitudeDegrees>-5.403081066906452178955078125</LongitudeDegrees>
            </Position>
            <AltitudeMeters>227.399993896484375</AltitudeMeters>
            <DistanceMeters>2639.5838850049</DistanceMeters>
          </Trackpoint>
          <Trackpoint>
            <Time>2019-01-04T09:44:22.000Z</Time>
            <Position>
              <LatitudeDegrees>36.52928964234888553619384765625</LatitudeDegrees>
              <LongitudeDegrees>-5.403092801570892333984375</LongitudeDegrees>
            </Position>
            <AltitudeMeters>227.399993896484375</AltitudeMeters>
            <DistanceMeters>2641.0652048812</DistanceMeters>
          </Trackpoint>
          <Trackpoint>
            <Time>2019-01-04T09:44:23.000Z</Time>
            <Position>
              <LatitudeDegrees>36.52928058989346027374267578125</LatitudeDegrees>
              <LongitudeDegrees>-5.4031083919107913970947265625</LongitudeDegrees>
            </Position>
            <AltitudeMeters>227.1999969482421875</AltitudeMeters>
            <DistanceMeters>2642.7835863864</DistanceMeters>
          </Trackpoint>
          <Trackpoint>
            <Time>2019-01-04T09:44:24.000Z</Time>
            <Position>
              <LatitudeDegrees>36.529270112514495849609375</LatitudeDegrees>
              <LongitudeDegrees>-5.4031254909932613372802734375</LongitudeDegrees>
            </Position>
            <AltitudeMeters>227.1999969482421875</AltitudeMeters>
            <DistanceMeters>2644.7077307006</DistanceMeters>
          </Trackpoint>
          <Trackpoint>
            <Time>2019-01-04T09:44:25.000Z</Time>
            <Position>
              <LatitudeDegrees>36.52926231734454631805419921875</LatitudeDegrees>
              <LongitudeDegrees>-5.4031389020383358001708984375</LongitudeDegrees>
            </Position>
            <AltitudeMeters>227</AltitudeMeters>
            <DistanceMeters>2646.1859994514</DistanceMeters>
          </Trackpoint>
          <Trackpoint>
            <Time>2019-01-04T09:44:26.000Z</Time>
            <Position>
              <LatitudeDegrees>36.52925460599362850189208984375</LatitudeDegrees>
              <LongitudeDegrees>-5.40315055288374423980712890625</LongitudeDegrees>
            </Position>
            <AltitudeMeters>227</AltitudeMeters>
            <DistanceMeters>2647.5365828222</DistanceMeters>
          </Trackpoint>
          <Trackpoint>
            <Time>2019-01-04T09:44:27.000Z</Time>
            <Position>
              <LatitudeDegrees>36.5292474813759326934814453125</LatitudeDegrees>
              <LongitudeDegrees>-5.4031610302627086639404296875</LongitudeDegrees>
            </Position>
            <AltitudeMeters>227</AltitudeMeters>
            <DistanceMeters>2648.7682698127</DistanceMeters>
          </Trackpoint>
          <Trackpoint>
            <Time>2019-01-04T09:44:28.000Z</Time>
            <Position>
              <LatitudeDegrees>36.529241614043712615966796875</LatitudeDegrees>
              <LongitudeDegrees>-5.40317184291779994964599609375</LongitudeDegrees>
            </Position>
            <AltitudeMeters>227</AltitudeMeters>
            <DistanceMeters>2649.9321046234</DistanceMeters>
          </Trackpoint>
          <Trackpoint>
            <Time>2019-01-04T09:44:29.000Z</Time>
            <Position>
              <LatitudeDegrees>36.529236920177936553955078125</LatitudeDegrees>
              <LongitudeDegrees>-5.40318273939192295074462890625</LongitudeDegrees>
            </Position>
            <AltitudeMeters>227</AltitudeMeters>
            <DistanceMeters>2651.03621527</DistanceMeters>
          </Trackpoint>
          <Trackpoint>
            <Time>2019-01-04T09:44:30.000Z</Time>
            <Position>
              <LatitudeDegrees>36.52923398651182651519775390625</LatitudeDegrees>
              <LongitudeDegrees>-5.40319547988474369049072265625</LongitudeDegrees>
            </Position>
            <AltitudeMeters>227</AltitudeMeters>
            <DistanceMeters>2652.2230985521</DistanceMeters>
          </Trackpoint>
          <Trackpoint>
            <Time>2019-01-04T09:44:31.000Z</Time>
            <Position>
              <LatitudeDegrees>36.52923029847443103790283203125</LatitudeDegrees>
              <LongitudeDegrees>-5.4032094776630401611328125</LongitudeDegrees>
            </Position>
            <AltitudeMeters>227</AltitudeMeters>
            <DistanceMeters>2653.543251859</DistanceMeters>
          </Trackpoint>
          <Trackpoint>
            <Time>2019-01-04T09:44:32.000Z</Time>
            <Position>
              <LatitudeDegrees>36.52922409586608409881591796875</LatitudeDegrees>
              <LongitudeDegrees>-5.40322498418390750885009765625</LongitudeDegrees>
            </Position>
            <AltitudeMeters>227</AltitudeMeters>
            <DistanceMeters>2655.0930906681</DistanceMeters>
          </Trackpoint>
          <Trackpoint>
            <Time>2019-01-04T09:44:33.000Z</Time>
            <Position>
              <LatitudeDegrees>36.52921655215322971343994140625</LatitudeDegrees>
              <LongitudeDegrees>-5.4032381437718868255615234375</LongitudeDegrees>
            </Position>
            <AltitudeMeters>227</AltitudeMeters>
            <DistanceMeters>2656.5404944593</DistanceMeters>
          </Trackpoint>
          <Trackpoint>
            <Time>2019-01-04T09:44:34.000Z</Time>
            <Position>
              <LatitudeDegrees>36.5292092598974704742431640625</LatitudeDegrees>
              <LongitudeDegrees>-5.4032512195408344268798828125</LongitudeDegrees>
            </Position>
            <AltitudeMeters>227</AltitudeMeters>
            <DistanceMeters>2657.9627240904</DistanceMeters>
          </Trackpoint>
          <Trackpoint>
            <Time>2019-01-04T09:44:35.000Z</Time>
            <Position>
              <LatitudeDegrees>36.52920230291783809661865234375</LatitudeDegrees>
              <LongitudeDegrees>-5.40326588787138462066650390625</LongitudeDegrees>
            </Position>
            <AltitudeMeters>227</AltitudeMeters>
            <DistanceMeters>2659.4831515203</DistanceMeters>
          </Trackpoint>
          <Trackpoint>
            <Time>2019-01-04T09:44:36.000Z</Time>
            <Position>
              <LatitudeDegrees>36.529195010662078857421875</LatitudeDegrees>
              <LongitudeDegrees>-5.40327988564968109130859375</LongitudeDegrees>
            </Position>
            <AltitudeMeters>227</AltitudeMeters>
            <DistanceMeters>2660.9735872972</DistanceMeters>
          </Trackpoint>
          <Trackpoint>
            <Time>2019-01-04T09:44:37.000Z</Time>
            <Position>
              <LatitudeDegrees>36.529189981520175933837890625</LatitudeDegrees>
              <LongitudeDegrees>-5.40329639799892902374267578125</LongitudeDegrees>
            </Position>
            <AltitudeMeters>227</AltitudeMeters>
            <DistanceMeters>2662.5494270804</DistanceMeters>
          </Trackpoint>
          <Trackpoint>
            <Time>2019-01-04T09:44:38.000Z</Time>
            <Position>
              <LatitudeDegrees>36.529183275997638702392578125</LatitudeDegrees>
              <LongitudeDegrees>-5.4033149220049381256103515625</LongitudeDegrees>
            </Position>
            <AltitudeMeters>227</AltitudeMeters>
            <DistanceMeters>2664.367395171</DistanceMeters>
          </Trackpoint>
          <Trackpoint>
            <Time>2019-01-04T09:44:39.000Z</Time>
            <Position>
              <LatitudeDegrees>36.529178917407989501953125</LatitudeDegrees>
              <LongitudeDegrees>-5.403331182897090911865234375</LongitudeDegrees>
            </Position>
            <AltitudeMeters>227.1999969482421875</AltitudeMeters>
            <DistanceMeters>2665.9025987249</DistanceMeters>
          </Trackpoint>
          <Trackpoint>
            <Time>2019-01-04T09:44:40.000Z</Time>
            <Position>
              <LatitudeDegrees>36.52917531318962574005126953125</LatitudeDegrees>
              <LongitudeDegrees>-5.403349958360195159912109375</LongitudeDegrees>
            </Position>
            <AltitudeMeters>227.1999969482421875</AltitudeMeters>
            <DistanceMeters>2667.6314582631</DistanceMeters>
          </Trackpoint>
          <Trackpoint>
            <Time>2019-01-04T09:44:41.000Z</Time>
            <Position>
              <LatitudeDegrees>36.52917095459997653961181640625</LatitudeDegrees>
              <LongitudeDegrees>-5.40336580015718936920166015625</LongitudeDegrees>
            </Position>
            <AltitudeMeters>227.399993896484375</AltitudeMeters>
            <DistanceMeters>2669.1279404575</DistanceMeters>
          </Trackpoint>
          <Trackpoint>
            <Time>2019-01-04T09:44:42.000Z</Time>
            <Position>
              <LatitudeDegrees>36.5291646681725978851318359375</LatitudeDegrees>
              <LongitudeDegrees>-5.40338222868740558624267578125</LongitudeDegrees>
            </Position>
            <AltitudeMeters>227.600006103515625</AltitudeMeters>
            <DistanceMeters>2670.7573091925</DistanceMeters>
          </Trackpoint>
          <Trackpoint>
            <Time>2019-01-04T09:44:43.000Z</Time>
            <Position>
              <LatitudeDegrees>36.52916206978261470794677734375</LatitudeDegrees>
              <LongitudeDegrees>-5.403404943645000457763671875</LongitudeDegrees>
            </Position>
            <AltitudeMeters>227.600006103515625</AltitudeMeters>
            <DistanceMeters>2672.8108538595</DistanceMeters>
          </Trackpoint>
          <Trackpoint>
            <Time>2019-01-04T09:44:44.000Z</Time>
            <Position>
              <LatitudeDegrees>36.52916139923036098480224609375</LatitudeDegrees>
              <LongitudeDegrees>-5.4034269042313098907470703125</LongitudeDegrees>
            </Position>
            <AltitudeMeters>227.8000030517578125</AltitudeMeters>
            <DistanceMeters>2674.7767818129</DistanceMeters>
          </Trackpoint>
          <Trackpoint>
            <Time>2019-01-04T09:44:45.000Z</Time>
            <Position>
              <LatitudeDegrees>36.529157795011997222900390625</LatitudeDegrees>
              <LongitudeDegrees>-5.40344324894249439239501953125</LongitudeDegrees>
            </Position>
            <AltitudeMeters>227.8000030517578125</AltitudeMeters>
            <DistanceMeters>2676.2912584277</DistanceMeters>
          </Trackpoint>
          <Trackpoint>
            <Time>2019-01-04T09:44:46.000Z</Time>
            <Position>
              <LatitudeDegrees>36.52915201149880886077880859375</LatitudeDegrees>
              <LongitudeDegrees>-5.4034577496349811553955078125</LongitudeDegrees>
            </Position>
            <AltitudeMeters>227.8000030517578125</AltitudeMeters>
            <DistanceMeters>2677.7386622189</DistanceMeters>
          </Trackpoint>
          <Trackpoint>
            <Time>2019-01-04T09:44:47.000Z</Time>
            <Position>
              <LatitudeDegrees>36.52914999984204769134521484375</LatitudeDegrees>
              <LongitudeDegrees>-5.4034771956503391265869140625</LongitudeDegrees>
            </Position>
            <AltitudeMeters>227.8000030517578125</AltitudeMeters>
            <DistanceMeters>2679.4908682545</DistanceMeters>
          </Trackpoint>
          <Trackpoint>
            <Time>2019-01-04T09:44:48.000Z</Time>
            <Position>
              <LatitudeDegrees>36.529147066175937652587890625</LatitudeDegrees>
              <LongitudeDegrees>-5.40349421091377735137939453125</LongitudeDegrees>
            </Position>
            <AltitudeMeters>227.8000030517578125</AltitudeMeters>
            <DistanceMeters>2681.0465226142</DistanceMeters>
          </Trackpoint>
          <Trackpoint>
            <Time>2019-01-04T09:44:49.000Z</Time>
            <Position>
              <LatitudeDegrees>36.52914010919630527496337890625</LatitudeDegrees>
              <LongitudeDegrees>-5.40351147763431072235107421875</LongitudeDegrees>
            </Position>
            <AltitudeMeters>227.8000030517578125</AltitudeMeters>
            <DistanceMeters>2682.7727686067</DistanceMeters>
          </Trackpoint>
          <Trackpoint>
            <Time>2019-01-04T09:44:50.000Z</Time>
            <Position>
              <LatitudeDegrees>36.52913088910281658172607421875</LatitudeDegrees>
              <LongitudeDegrees>-5.4035254754126071929931640625</LongitudeDegrees>
            </Position>
            <AltitudeMeters>227.8000030517578125</AltitudeMeters>
            <DistanceMeters>2684.3910152408</DistanceMeters>
          </Trackpoint>
          <Trackpoint>
            <Time>2019-01-04T09:44:51.000Z</Time>
            <Position>
              <LatitudeDegrees>36.5291247703135013580322265625</LatitudeDegrees>
              <LongitudeDegrees>-5.40354081429541110992431640625</LongitudeDegrees>
            </Position>
            <AltitudeMeters>227.8000030517578125</AltitudeMeters>
            <DistanceMeters>2685.9232749692</DistanceMeters>
          </Trackpoint>
          <Trackpoint>
            <Time>2019-01-04T09:44:52.000Z</Time>
            <Position>
              <LatitudeDegrees>36.52912183664739131927490234375</LatitudeDegrees>
              <LongitudeDegrees>-5.4035593383014202117919921875</LongitudeDegrees>
            </Position>
            <AltitudeMeters>227.8000030517578125</AltitudeMeters>
            <DistanceMeters>2687.6125067935</DistanceMeters>
          </Trackpoint>
          <Trackpoint>
            <Time>2019-01-04T09:44:53.000Z</Time>
            <Position>
              <LatitudeDegrees>36.5291167236864566802978515625</LatitudeDegrees>
              <LongitudeDegrees>-5.403577946126461029052734375</LongitudeDegrees>
            </Position>
            <AltitudeMeters>227.8000030517578125</AltitudeMeters>
            <DistanceMeters>2689.3724261725</DistanceMeters>
          </Trackpoint>
          <Trackpoint>
            <Time>2019-01-04T09:44:54.000Z</Time>
            <Position>
              <LatitudeDegrees>36.5291127003729343414306640625</LatitudeDegrees>
              <LongitudeDegrees>-5.4035975597798824310302734375</LongitudeDegrees>
            </Position>
            <AltitudeMeters>227.8000030517578125</AltitudeMeters>
            <DistanceMeters>2691.1854203328</DistanceMeters>
          </Trackpoint>
          <Trackpoint>
            <Time>2019-01-04T09:44:55.000Z</Time>
            <Position>
              <LatitudeDegrees>36.529108174145221710205078125</LatitudeDegrees>
              <LongitudeDegrees>-5.40361574850976467132568359375</LongitudeDegrees>
            </Position>
            <AltitudeMeters>228</AltitudeMeters>
            <DistanceMeters>2692.8879638825</DistanceMeters>
          </Trackpoint>
          <Trackpoint>
            <Time>2019-01-04T09:44:56.000Z</Time>
            <Position>
              <LatitudeDegrees>36.52910574339330196380615234375</LatitudeDegrees>
              <LongitudeDegrees>-5.40363184176385402679443359375</LongitudeDegrees>
            </Position>
            <AltitudeMeters>228</AltitudeMeters>
            <DistanceMeters>2694.3477919685</DistanceMeters>
          </Trackpoint>
          <Trackpoint>
            <Time>2019-01-04T09:44:57.000Z</Time>
            <Position>
              <LatitudeDegrees>36.5291026420891284942626953125</LatitudeDegrees>
              <LongitudeDegrees>-5.4036471806466579437255859375</LongitudeDegrees>
            </Position>
            <AltitudeMeters>228</AltitudeMeters>
            <DistanceMeters>2695.7636581241</DistanceMeters>
          </Trackpoint>
          <Trackpoint>
            <Time>2019-01-04T09:44:58.000Z</Time>
            <Position>
              <LatitudeDegrees>36.52910172007977962493896484375</LatitudeDegrees>
              <LongitudeDegrees>-5.4036669619381427764892578125</LongitudeDegrees>
            </Position>
            <AltitudeMeters>228.1999969482421875</AltitudeMeters>
            <DistanceMeters>2697.5363584943</DistanceMeters>
          </Trackpoint>
          <Trackpoint>
            <Time>2019-01-04T09:44:59.000Z</Time>
            <Position>
              <LatitudeDegrees>36.52909903787076473236083984375</LatitudeDegrees>
              <LongitudeDegrees>-5.4036850668489933013916015625</LongitudeDegrees>
            </Position>
            <AltitudeMeters>228.600006103515625</AltitudeMeters>
            <DistanceMeters>2699.1850103708</DistanceMeters>
          </Trackpoint>
          <Trackpoint>
            <Time>2019-01-04T09:45:00.000Z</Time>
            <Position>
              <LatitudeDegrees>36.5290989540517330169677734375</LatitudeDegrees>
              <LongitudeDegrees>-5.4037045128643512725830078125</LongitudeDegrees>
            </Position>
            <AltitudeMeters>228.8000030517578125</AltitudeMeters>
            <DistanceMeters>2700.9216869475</DistanceMeters>
          </Trackpoint>
          <Trackpoint>
            <Time>2019-01-04T09:45:01.000Z</Time>
            <Position>
              <LatitudeDegrees>36.52909652329981327056884765625</LatitudeDegrees>
              <LongitudeDegrees>-5.4037226177752017974853515625</LongitudeDegrees>
            </Position>
            <AltitudeMeters>229</AltitudeMeters>
            <DistanceMeters>2702.5621023767</DistanceMeters>
          </Trackpoint>
          <Trackpoint>
            <Time>2019-01-04T09:45:02.000Z</Time>
            <Position>
              <LatitudeDegrees>36.52909803204238414764404296875</LatitudeDegrees>
              <LongitudeDegrees>-5.40374080650508403778076171875</LongitudeDegrees>
            </Position>
            <AltitudeMeters>229</AltitudeMeters>
            <DistanceMeters>2704.1970037888</DistanceMeters>
          </Trackpoint>
          <Trackpoint>
            <Time>2019-01-04T09:45:03.000Z</Time>
            <Position>
              <LatitudeDegrees>36.5290925838053226470947265625</LatitudeDegrees>
              <LongitudeDegrees>-5.4037544690072536468505859375</LongitudeDegrees>
            </Position>
            <AltitudeMeters>229</AltitudeMeters>
            <DistanceMeters>2705.5608937211</DistanceMeters>
          </Trackpoint>
          <Trackpoint>
            <Time>2019-01-04T09:45:04.000Z</Time>
            <Position>
              <LatitudeDegrees>36.52908562682569026947021484375</LatitudeDegrees>
              <LongitudeDegrees>-5.40376628749072551727294921875</LongitudeDegrees>
            </Position>
            <AltitudeMeters>229.1999969482421875</AltitudeMeters>
            <DistanceMeters>2706.8707465848</DistanceMeters>
          </Trackpoint>
          <Trackpoint>
            <Time>2019-01-04T09:45:05.000Z</Time>
            <Position>
              <LatitudeDegrees>36.529083363711833953857421875</LatitudeDegrees>
              <LongitudeDegrees>-5.40377936325967311859130859375</LongitudeDegrees>
            </Position>
            <AltitudeMeters>229.1999969482421875</AltitudeMeters>
            <DistanceMeters>2708.0689878604</DistanceMeters>
          </Trackpoint>
          <Trackpoint>
            <Time>2019-01-04T09:45:06.000Z</Time>
            <Position>
              <LatitudeDegrees>36.52908177115023136138916015625</LatitudeDegrees>
              <LongitudeDegrees>-5.403791181743144989013671875</LongitudeDegrees>
            </Position>
            <AltitudeMeters>229.1999969482421875</AltitudeMeters>
            <DistanceMeters>2709.1440924064</DistanceMeters>
          </Trackpoint>
          <Trackpoint>
            <Time>2019-01-04T09:45:07.000Z</Time>
            <Position>
              <LatitudeDegrees>36.52907900512218475341796875</LatitudeDegrees>
              <LongitudeDegrees>-5.4038034193217754364013671875</LongitudeDegrees>
            </Position>
            <AltitudeMeters>229.399993896484375</AltitudeMeters>
            <DistanceMeters>2710.2764663972</DistanceMeters>
          </Trackpoint>
          <Trackpoint>
            <Time>2019-01-04T09:45:08.000Z</Time>
            <Position>
              <LatitudeDegrees>36.52907322160899639129638671875</LatitudeDegrees>
              <LongitudeDegrees>-5.4038158245384693145751953125</LongitudeDegrees>
            </Position>
            <AltitudeMeters>229.600006103515625</AltitudeMeters>
            <DistanceMeters>2711.5584468623</DistanceMeters>
          </Trackpoint>
          <Trackpoint>
            <Time>2019-01-04T09:45:09.000Z</Time>
            <Position>
              <LatitudeDegrees>36.52906551025807857513427734375</LatitudeDegrees>
              <LongitudeDegrees>-5.40382571518421173095703125</LongitudeDegrees>
            </Position>
            <AltitudeMeters>229.600006103515625</AltitudeMeters>
            <DistanceMeters>2712.7901338528</DistanceMeters>
          </Trackpoint>
          <Trackpoint>
            <Time>2019-01-04T09:45:10.000Z</Time>
            <Position>
              <LatitudeDegrees>36.52905712835490703582763671875</LatitudeDegrees>
              <LongitudeDegrees>-5.4038371145725250244140625</LongitudeDegrees>
            </Position>
            <AltitudeMeters>229.8000030517578125</AltitudeMeters>
            <DistanceMeters>2714.1704766108</DistanceMeters>
          </Trackpoint>
          <Trackpoint>
            <Time>2019-01-04T09:45:11.000Z</Time>
            <Position>
              <LatitudeDegrees>36.52904841117560863494873046875</LatitudeDegrees>
              <LongitudeDegrees>-5.40384809486567974090576171875</LongitudeDegrees>
            </Position>
            <AltitudeMeters>229.8000030517578125</AltitudeMeters>
            <DistanceMeters>2715.5475445297</DistanceMeters>
          </Trackpoint>
          <Trackpoint>
            <Time>2019-01-04T09:45:12.000Z</Time>
            <Position>
              <LatitudeDegrees>36.529039442539215087890625</LatitudeDegrees>
              <LongitudeDegrees>-5.40385664440691471099853515625</LongitudeDegrees>
            </Position>
            <AltitudeMeters>229.8000030517578125</AltitudeMeters>
            <DistanceMeters>2716.8046298003</DistanceMeters>
          </Trackpoint>
          <Trackpoint>
            <Time>2019-01-04T09:45:13.000Z</Time>
            <Position>
              <LatitudeDegrees>36.52902930043637752532958984375</LatitudeDegrees>
              <LongitudeDegrees>-5.40386485867202281951904296875</LongitudeDegrees>
            </Position>
            <AltitudeMeters>229.8000030517578125</AltitudeMeters>
            <DistanceMeters>2718.1552131712</DistanceMeters>
          </Trackpoint>
          <Trackpoint>
            <Time>2019-01-04T09:45:14.000Z</Time>
            <Position>
              <LatitudeDegrees>36.52901672758162021636962890625</LatitudeDegrees>
              <LongitudeDegrees>-5.4038718156516551971435546875</LongitudeDegrees>
            </Position>
            <AltitudeMeters>229.8000030517578125</AltitudeMeters>
            <DistanceMeters>2719.6874728997</DistanceMeters>
          </Trackpoint>
          <Trackpoint>
            <Time>2019-01-04T09:45:15.000Z</Time>
            <Position>
              <LatitudeDegrees>36.52900834567844867706298828125</LatitudeDegrees>
              <LongitudeDegrees>-5.4038798622786998748779296875</LongitudeDegrees>
            </Position>
            <AltitudeMeters>230</AltitudeMeters>
            <DistanceMeters>2720.8628884415</DistanceMeters>
          </Trackpoint>
          <Trackpoint>
            <Time>2019-01-04T09:45:16.000Z</Time>
            <Position>
              <LatitudeDegrees>36.52899962849915027618408203125</LatitudeDegrees>
              <LongitudeDegrees>-5.40388874709606170654296875</LongitudeDegrees>
            </Position>
            <AltitudeMeters>230</AltitudeMeters>
            <DistanceMeters>2722.1163768942</DistanceMeters>
          </Trackpoint>
          <Trackpoint>
            <Time>2019-01-04T09:45:17.000Z</Time>
            <Position>
              <LatitudeDegrees>36.5289946831762790679931640625</LatitudeDegrees>
              <LongitudeDegrees>-5.40390006266534328460693359375</LongitudeDegrees>
            </Position>
            <AltitudeMeters>230.1999969482421875</AltitudeMeters>
            <DistanceMeters>2723.2724267693</DistanceMeters>
          </Trackpoint>
          <Trackpoint>
            <Time>2019-01-04T09:45:18.000Z</Time>
            <Position>
              <LatitudeDegrees>36.52898781001567840576171875</LatitudeDegrees>
              <LongitudeDegrees>-5.40391162969172000885009765625</LongitudeDegrees>
            </Position>
            <AltitudeMeters>230.399993896484375</AltitudeMeters>
            <DistanceMeters>2724.5579243342</DistanceMeters>
          </Trackpoint>
          <Trackpoint>
            <Time>2019-01-04T09:45:19.000Z</Time>
            <Position>
              <LatitudeDegrees>36.5289795957505702972412109375</LatitudeDegrees>
              <LongitudeDegrees>-5.4039234481751918792724609375</LongitudeDegrees>
            </Position>
            <AltitudeMeters>230.399993896484375</AltitudeMeters>
            <DistanceMeters>2725.954526107</DistanceMeters>
          </Trackpoint>
          <Trackpoint>
            <Time>2019-01-04T09:45:20.000Z</Time>
            <Position>
              <LatitudeDegrees>36.5289695374667644500732421875</LatitudeDegrees>
              <LongitudeDegrees>-5.40393761359155178070068359375</LongitudeDegrees>
            </Position>
            <AltitudeMeters>230.399993896484375</AltitudeMeters>
            <DistanceMeters>2727.6464286553</DistanceMeters>
          </Trackpoint>
          <Trackpoint>
            <Time>2019-01-04T09:45:21.000Z</Time>
            <Position>
              <LatitudeDegrees>36.5289588086307048797607421875</LatitudeDegrees>
              <LongitudeDegrees>-5.40395270101726055145263671875</LongitudeDegrees>
            </Position>
            <AltitudeMeters>230.399993896484375</AltitudeMeters>
            <DistanceMeters>2729.4469278759</DistanceMeters>
          </Trackpoint>
          <Trackpoint>
            <Time>2019-01-04T09:45:22.000Z</Time>
            <Position>
              <LatitudeDegrees>36.52895403094589710235595703125</LatitudeDegrees>
              <LongitudeDegrees>-5.4039713926613330841064453125</LongitudeDegrees>
            </Position>
            <AltitudeMeters>230.600006103515625</AltitudeMeters>
            <DistanceMeters>2731.1991339114</DistanceMeters>
          </Trackpoint>
          <Trackpoint>
            <Time>2019-01-04T09:45:23.000Z</Time>
            <Position>
              <LatitudeDegrees>36.52894757688045501708984375</LatitudeDegrees>
              <LongitudeDegrees>-5.403988659381866455078125</LongitudeDegrees>
            </Position>
            <AltitudeMeters>230.600006103515625</AltitudeMeters>
            <DistanceMeters>2732.9016774611</DistanceMeters>
          </Trackpoint>
          <Trackpoint>
            <Time>2019-01-04T09:45:24.000Z</Time>
            <Position>
              <LatitudeDegrees>36.5289402008056640625</LatitudeDegrees>
              <LongitudeDegrees>-5.40400466881692409515380859375</LongitudeDegrees>
            </Position>
            <AltitudeMeters>230.600006103515625</AltitudeMeters>
            <DistanceMeters>2734.553065691</DistanceMeters>
          </Trackpoint>
          <Trackpoint>
            <Time>2019-01-04T09:45:25.000Z</Time>
            <Position>
              <LatitudeDegrees>36.52893391437828540802001953125</LatitudeDegrees>
              <LongitudeDegrees>-5.40401942096650600433349609375</LongitudeDegrees>
            </Position>
            <AltitudeMeters>230.600006103515625</AltitudeMeters>
            <DistanceMeters>2736.0495478854</DistanceMeters>
          </Trackpoint>
          <Trackpoint>
            <Time>2019-01-04T09:45:26.000Z</Time>
            <Position>
              <LatitudeDegrees>36.5289262868463993072509765625</LatitudeDegrees>
              <LongitudeDegrees>-5.4040307365357875823974609375</LongitudeDegrees>
            </Position>
            <AltitudeMeters>230.600006103515625</AltitudeMeters>
            <DistanceMeters>2737.3731168599</DistanceMeters>
          </Trackpoint>
          <Trackpoint>
            <Time>2019-01-04T09:45:27.000Z</Time>
            <Position>
              <LatitudeDegrees>36.52891798876225948333740234375</LatitudeDegrees>
              <LongitudeDegrees>-5.4040421359241008758544921875</LongitudeDegrees>
            </Position>
            <AltitudeMeters>230.600006103515625</AltitudeMeters>
            <DistanceMeters>2738.7501847788</DistanceMeters>
          </Trackpoint>
          <Trackpoint>
            <Time>2019-01-04T09:45:28.000Z</Time>
            <Position>
              <LatitudeDegrees>36.52890868484973907470703125</LatitudeDegrees>
              <LongitudeDegrees>-5.4040562175214290618896484375</LongitudeDegrees>
            </Position>
            <AltitudeMeters>230.600006103515625</AltitudeMeters>
            <DistanceMeters>2740.3795535137</DistanceMeters>
          </Trackpoint>
          <Trackpoint>
            <Time>2019-01-04T09:45:29.000Z</Time>
            <Position>
              <LatitudeDegrees>36.528898291289806365966796875</LatitudeDegrees>
              <LongitudeDegrees>-5.40407113730907440185546875</LongitudeDegrees>
            </Position>
            <AltitudeMeters>230.600006103515625</AltitudeMeters>
            <DistanceMeters>2742.1445963951</DistanceMeters>
          </Trackpoint>
          <Trackpoint>
            <Time>2019-01-04T09:45:30.000Z</Time>
            <Position>
              <LatitudeDegrees>36.52888798154890537261962890625</LatitudeDegrees>
              <LongitudeDegrees>-5.40408454835414886474609375</LongitudeDegrees>
            </Position>
            <AltitudeMeters>230.8000030517578125</AltitudeMeters>
            <DistanceMeters>2743.8014437746</DistanceMeters>
          </Trackpoint>
          <Trackpoint>
            <Time>2019-01-04T09:45:31.000Z</Time>
            <Position>
              <LatitudeDegrees>36.52887959964573383331298828125</LatitudeDegrees>
              <LongitudeDegrees>-5.4040972888469696044921875</LongitudeDegrees>
            </Position>
            <AltitudeMeters>230.8000030517578125</AltitudeMeters>
            <DistanceMeters>2745.2766550893</DistanceMeters>
          </Trackpoint>
          <Trackpoint>
            <Time>2019-01-04T09:45:32.000Z</Time>
            <Position>
              <LatitudeDegrees>36.52887088246643543243408203125</LatitudeDegrees>
              <LongitudeDegrees>-5.40411111898720264434814453125</LongitudeDegrees>
            </Position>
            <AltitudeMeters>231</AltitudeMeters>
            <DistanceMeters>2746.8496270998</DistanceMeters>
          </Trackpoint>
          <Trackpoint>
            <Time>2019-01-04T09:45:33.000Z</Time>
            <Position>
              <LatitudeDegrees>36.5288632549345493316650390625</LatitudeDegrees>
              <LongitudeDegrees>-5.40412436239421367645263671875</LongitudeDegrees>
            </Position>
            <AltitudeMeters>231</AltitudeMeters>
            <DistanceMeters>2748.3094551858</DistanceMeters>
          </Trackpoint>
          <Trackpoint>
            <Time>2019-01-04T09:45:34.000Z</Time>
            <Position>
              <LatitudeDegrees>36.52885344810783863067626953125</LatitudeDegrees>
              <LongitudeDegrees>-5.40413626469671726226806640625</LongitudeDegrees>
            </Position>
            <AltitudeMeters>231.1999969482421875</AltitudeMeters>
            <DistanceMeters>2749.8328493062</DistanceMeters>
          </Trackpoint>
          <Trackpoint>
            <Time>2019-01-04T09:45:35.000Z</Time>
            <Position>
              <LatitudeDegrees>36.52884565293788909912109375</LatitudeDegrees>
              <LongitudeDegrees>-5.4041477479040622711181640625</LongitudeDegrees>
            </Position>
            <AltitudeMeters>231.1999969482421875</AltitudeMeters>
            <DistanceMeters>2751.1767299887</DistanceMeters>
          </Trackpoint>
          <Trackpoint>
            <Time>2019-01-04T09:45:36.000Z</Time>
            <Position>
              <LatitudeDegrees>36.5288387797772884368896484375</LatitudeDegrees>
              <LongitudeDegrees>-5.4041568003594875335693359375</LongitudeDegrees>
            </Position>
            <AltitudeMeters>231.1999969482421875</AltitudeMeters>
            <DistanceMeters>2752.2849223891</DistanceMeters>
          </Trackpoint>
          <Trackpoint>
            <Time>2019-01-04T09:45:37.000Z</Time>
            <Position>
              <LatitudeDegrees>36.5288314037024974822998046875</LatitudeDegrees>
              <LongitudeDegrees>-5.40416643954813480377197265625</LongitudeDegrees>
            </Position>
            <AltitudeMeters>231.399993896484375</AltitudeMeters>
            <DistanceMeters>2753.4718056712</DistanceMeters>
          </Trackpoint>
          <Trackpoint>
            <Time>2019-01-04T09:45:38.000Z</Time>
            <Position>
              <LatitudeDegrees>36.52882226742804050445556640625</LatitudeDegrees>
              <LongitudeDegrees>-5.404176414012908935546875</LongitudeDegrees>
            </Position>
            <AltitudeMeters>231.600006103515625</AltitudeMeters>
            <DistanceMeters>2754.8223890421</DistanceMeters>
          </Trackpoint>
          <Trackpoint>
            <Time>2019-01-04T09:45:39.000Z</Time>
            <Position>
              <LatitudeDegrees>36.52881338261067867279052734375</LatitudeDegrees>
              <LongitudeDegrees>-5.40418588556349277496337890625</LongitudeDegrees>
            </Position>
            <AltitudeMeters>231.600006103515625</AltitudeMeters>
            <DistanceMeters>2756.1218598171</DistanceMeters>
          </Trackpoint>
          <Trackpoint>
            <Time>2019-01-04T09:45:40.000Z</Time>
            <Position>
              <LatitudeDegrees>36.52880114503204822540283203125</LatitudeDegrees>
              <LongitudeDegrees>-5.40419544093310832977294921875</LongitudeDegrees>
            </Position>
            <AltitudeMeters>231.600006103515625</AltitudeMeters>
            <DistanceMeters>2757.7317144501</DistanceMeters>
          </Trackpoint>
          <Trackpoint>
            <Time>2019-01-04T09:45:41.000Z</Time>
            <Position>
              <LatitudeDegrees>36.5287911705672740936279296875</LatitudeDegrees>
              <LongitudeDegrees>-5.40420784614980220794677734375</LongitudeDegrees>
            </Position>
            <AltitudeMeters>231.8000030517578125</AltitudeMeters>
            <DistanceMeters>2759.2989351725</DistanceMeters>
          </Trackpoint>
          <Trackpoint>
            <Time>2019-01-04T09:45:42.000Z</Time>
            <Position>
              <LatitudeDegrees>36.5287804417312145233154296875</LatitudeDegrees>
              <LongitudeDegrees>-5.4042218439280986785888671875</LongitudeDegrees>
            </Position>
            <AltitudeMeters>231.8000030517578125</AltitudeMeters>
            <DistanceMeters>2761.0304043115</DistanceMeters>
          </Trackpoint>
          <Trackpoint>
            <Time>2019-01-04T09:45:43.000Z</Time>
            <Position>
              <LatitudeDegrees>36.528771221637725830078125</LatitudeDegrees>
              <LongitudeDegrees>-5.4042287170886993408203125</LongitudeDegrees>
            </Position>
            <AltitudeMeters>231.8000030517578125</AltitudeMeters>
            <DistanceMeters>2762.2286455871</DistanceMeters>
          </Trackpoint>
          <Trackpoint>
            <Time>2019-01-04T09:45:44.000Z</Time>
            <Position>
              <LatitudeDegrees>36.5287636779248714447021484375</LatitudeDegrees>
              <LongitudeDegrees>-5.404235757887363433837890625</LongitudeDegrees>
            </Position>
            <AltitudeMeters>232</AltitudeMeters>
            <DistanceMeters>2763.2782499536</DistanceMeters>
          </Trackpoint>
          <Trackpoint>
            <Time>2019-01-04T09:45:45.000Z</Time>
            <Position>
              <LatitudeDegrees>36.528758145868778228759765625</LatitudeDegrees>
              <LongitudeDegrees>-5.40424841456115245819091796875</LongitudeDegrees>
            </Position>
            <AltitudeMeters>232.1999969482421875</AltitudeMeters>
            <DistanceMeters>2764.5672550217</DistanceMeters>
          </Trackpoint>
          <Trackpoint>
            <Time>2019-01-04T09:45:46.000Z</Time>
            <Position>
              <LatitudeDegrees>36.52874733321368694305419921875</LatitudeDegrees>
              <LongitudeDegrees>-5.404261238873004913330078125</LongitudeDegrees>
            </Position>
            <AltitudeMeters>232.399993896484375</AltitudeMeters>
            <DistanceMeters>2766.2295436224</DistanceMeters>
          </Trackpoint>
          <Trackpoint>
            <Time>2019-01-04T09:45:47.000Z</Time>
            <Position>
              <LatitudeDegrees>36.528742052614688873291015625</LatitudeDegrees>
              <LongitudeDegrees>-5.40428034961223602294921875</LongitudeDegrees>
            </Position>
            <AltitudeMeters>232.399993896484375</AltitudeMeters>
            <DistanceMeters>2768.037550169</DistanceMeters>
          </Trackpoint>
          <Trackpoint>
            <Time>2019-01-04T09:45:48.000Z</Time>
            <Position>
              <LatitudeDegrees>36.52873224578797817230224609375</LatitudeDegrees>
              <LongitudeDegrees>-5.40429770015180110931396484375</LongitudeDegrees>
            </Position>
            <AltitudeMeters>232.600006103515625</AltitudeMeters>
            <DistanceMeters>2769.9380844564</DistanceMeters>
          </Trackpoint>
          <Trackpoint>
            <Time>2019-01-04T09:45:49.000Z</Time>
            <Position>
              <LatitudeDegrees>36.52872486971318721771240234375</LatitudeDegrees>
              <LongitudeDegrees>-5.404316894710063934326171875</LongitudeDegrees>
            </Position>
            <AltitudeMeters>232.600006103515625</AltitudeMeters>
            <DistanceMeters>2771.8409929288</DistanceMeters>
          </Trackpoint>
          <Trackpoint>
            <Time>2019-01-04T09:45:50.000Z</Time>
            <Position>
              <LatitudeDegrees>36.52871967293322086334228515625</LatitudeDegrees>
              <LongitudeDegrees>-5.4043368436396121978759765625</LongitudeDegrees>
            </Position>
            <AltitudeMeters>232.600006103515625</AltitudeMeters>
            <DistanceMeters>2773.7176201728</DistanceMeters>
          </Trackpoint>
          <Trackpoint>
            <Time>2019-01-04T09:45:51.000Z</Time>
            <Position>
              <LatitudeDegrees>36.52871598489582538604736328125</LatitudeDegrees>
              <LongitudeDegrees>-5.40435184724628925323486328125</LongitudeDegrees>
            </Position>
            <AltitudeMeters>232.600006103515625</AltitudeMeters>
            <DistanceMeters>2775.1206727965</DistanceMeters>
          </Trackpoint>
          <Trackpoint>
            <Time>2019-01-04T09:45:52.000Z</Time>
            <Position>
              <LatitudeDegrees>36.5287137217819690704345703125</LatitudeDegrees>
              <LongitudeDegrees>-5.40436341427266597747802734375</LongitudeDegrees>
            </Position>
            <AltitudeMeters>232.8000030517578125</AltitudeMeters>
            <DistanceMeters>2776.1915694808</DistanceMeters>
          </Trackpoint>
          <Trackpoint>
            <Time>2019-01-04T09:45:53.000Z</Time>
            <Position>
              <LatitudeDegrees>36.528711877763271331787109375</LatitudeDegrees>
              <LongitudeDegrees>-5.40437833406031131744384765625</LongitudeDegrees>
            </Position>
            <AltitudeMeters>233</AltitudeMeters>
            <DistanceMeters>2777.5421528516</DistanceMeters>
          </Trackpoint>
          <Trackpoint>
            <Time>2019-01-04T09:45:54.000Z</Time>
            <Position>
              <LatitudeDegrees>36.5287113748490810394287109375</LatitudeDegrees>
              <LongitudeDegrees>-5.40439593605697154998779296875</LongitudeDegrees>
            </Position>
            <AltitudeMeters>233.1999969482421875</AltitudeMeters>
            <DistanceMeters>2779.1151248621</DistanceMeters>
          </Trackpoint>
          <Trackpoint>
            <Time>2019-01-04T09:45:55.000Z</Time>
            <Position>
              <LatitudeDegrees>36.52870777063071727752685546875</LatitudeDegrees>
              <LongitudeDegrees>-5.40441337041556835174560546875</LongitudeDegrees>
            </Position>
            <AltitudeMeters>233.1999969482421875</AltitudeMeters>
            <DistanceMeters>2780.722172423</DistanceMeters>
          </Trackpoint>
          <Trackpoint>
            <Time>2019-01-04T09:45:56.000Z</Time>
            <Position>
              <LatitudeDegrees>36.5287016518414020538330078125</LatitudeDegrees>
              <LongitudeDegrees>-5.4044290445744991302490234375</LongitudeDegrees>
            </Position>
            <AltitudeMeters>233.399993896484375</AltitudeMeters>
            <DistanceMeters>2782.2836206738</DistanceMeters>
          </Trackpoint>
          <Trackpoint>
            <Time>2019-01-04T09:45:57.000Z</Time>
            <Position>
              <LatitudeDegrees>36.5286947786808013916015625</LatitudeDegrees>
              <LongitudeDegrees>-5.40444320999085903167724609375</LongitudeDegrees>
            </Position>
            <AltitudeMeters>233.399993896484375</AltitudeMeters>
            <DistanceMeters>2783.76494055</DistanceMeters>
          </Trackpoint>
          <Trackpoint>
            <Time>2019-01-04T09:45:58.000Z</Time>
            <Position>
              <LatitudeDegrees>36.52868513949215412139892578125</LatitudeDegrees>
              <LongitudeDegrees>-5.404450334608554840087890625</LongitudeDegrees>
            </Position>
            <AltitudeMeters>233.600006103515625</AltitudeMeters>
            <DistanceMeters>2785.0112042253</DistanceMeters>
          </Trackpoint>
          <Trackpoint>
            <Time>2019-01-04T09:45:59.000Z</Time>
            <Position>
              <LatitudeDegrees>36.528674997389316558837890625</LatitudeDegrees>
              <LongitudeDegrees>-5.40445997379720211029052734375</LongitudeDegrees>
            </Position>
            <AltitudeMeters>233.600006103515625</AltitudeMeters>
            <DistanceMeters>2786.4334338564</DistanceMeters>
          </Trackpoint>
          <Trackpoint>
            <Time>2019-01-04T09:46:00.000Z</Time>
            <Position>
              <LatitudeDegrees>36.52866728603839874267578125</LatitudeDegrees>
              <LongitudeDegrees>-5.40447489358484745025634765625</LongitudeDegrees>
            </Position>
            <AltitudeMeters>233.8000030517578125</AltitudeMeters>
            <DistanceMeters>2788.0206929177</DistanceMeters>
          </Trackpoint>
          <Trackpoint>
            <Time>2019-01-04T09:46:01.000Z</Time>
            <Position>
              <LatitudeDegrees>36.52866317890584468841552734375</LatitudeDegrees>
              <LongitudeDegrees>-5.40449283085763454437255859375</LongitudeDegrees>
            </Position>
            <AltitudeMeters>234</AltitudeMeters>
            <DistanceMeters>2789.6884049866</DistanceMeters>
          </Trackpoint>
          <Trackpoint>
            <Time>2019-01-04T09:46:02.000Z</Time>
            <Position>
              <LatitudeDegrees>36.52865965850651264190673828125</LatitudeDegrees>
              <LongitudeDegrees>-5.40450791828334331512451171875</LongitudeDegrees>
            </Position>
            <AltitudeMeters>234.1999969482421875</AltitudeMeters>
            <DistanceMeters>2791.0914576103</DistanceMeters>
          </Trackpoint>
          <Trackpoint>
            <Time>2019-01-04T09:46:03.000Z</Time>
            <Position>
              <LatitudeDegrees>36.52865764684975147247314453125</LatitudeDegrees>
              <LongitudeDegrees>-5.40452401153743267059326171875</LongitudeDegrees>
            </Position>
            <AltitudeMeters>234.399993896484375</AltitudeMeters>
            <DistanceMeters>2792.545086823</DistanceMeters>
          </Trackpoint>
          <Trackpoint>
            <Time>2019-01-04T09:46:04.000Z</Time>
            <Position>
              <LatitudeDegrees>36.5286557190120220184326171875</LatitudeDegrees>
              <LongitudeDegrees>-5.4045423679053783416748046875</LongitudeDegrees>
            </Position>
            <AltitudeMeters>234.399993896484375</AltitudeMeters>
            <DistanceMeters>2794.1992068798</DistanceMeters>
          </Trackpoint>
          <Trackpoint>
            <Time>2019-01-04T09:46:05.000Z</Time>
            <Position>
              <LatitudeDegrees>36.5286543779075145721435546875</LatitudeDegrees>
              <LongitudeDegrees>-5.404563657939434051513671875</LongitudeDegrees>
            </Position>
            <AltitudeMeters>234.600006103515625</AltitudeMeters>
            <DistanceMeters>2796.1115826169</DistanceMeters>
          </Trackpoint>
          <Trackpoint>
            <Time>2019-01-04T09:46:06.000Z</Time>
            <Position>
              <LatitudeDegrees>36.52865110896527767181396484375</LatitudeDegrees>
              <LongitudeDegrees>-5.40458201430737972259521484375</LongitudeDegrees>
            </Position>
            <AltitudeMeters>234.600006103515625</AltitudeMeters>
            <DistanceMeters>2797.7954602857</DistanceMeters>
          </Trackpoint>
          <Trackpoint>
            <Time>2019-01-04T09:46:07.000Z</Time>
            <Position>
              <LatitudeDegrees>36.5286505222320556640625</LatitudeDegrees>
              <LongitudeDegrees>-5.40460263378918170928955078125</LongitudeDegrees>
            </Position>
            <AltitudeMeters>234.8000030517578125</AltitudeMeters>
            <DistanceMeters>2799.6429907715</DistanceMeters>
          </Trackpoint>
          <Trackpoint>
            <Time>2019-01-04T09:46:08.000Z</Time>
            <Position>
              <LatitudeDegrees>36.52864515781402587890625</LatitudeDegrees>
              <LongitudeDegrees>-5.40461906231939792633056640625</LongitudeDegrees>
            </Position>
            <AltitudeMeters>234.8000030517578125</AltitudeMeters>
            <DistanceMeters>2801.2274027291</DistanceMeters>
          </Trackpoint>
          <Trackpoint>
            <Time>2019-01-04T09:46:09.000Z</Time>
            <Position>
              <LatitudeDegrees>36.52864088304340839385986328125</LatitudeDegrees>
              <LongitudeDegrees>-5.404634736478328704833984375</LongitudeDegrees>
            </Position>
            <AltitudeMeters>234.8000030517578125</AltitudeMeters>
            <DistanceMeters>2802.7087226053</DistanceMeters>
          </Trackpoint>
          <Trackpoint>
            <Time>2019-01-04T09:46:10.000Z</Time>
            <Position>
              <LatitudeDegrees>36.52863702736794948577880859375</LatitudeDegrees>
              <LongitudeDegrees>-5.40465057827532291412353515625</LongitudeDegrees>
            </Position>
            <AltitudeMeters>235</AltitudeMeters>
            <DistanceMeters>2804.1900424816</DistanceMeters>
          </Trackpoint>
          <Trackpoint>
            <Time>2019-01-04T09:46:11.000Z</Time>
            <Position>
              <LatitudeDegrees>36.52863400988280773162841796875</LatitudeDegrees>
              <LongitudeDegrees>-5.40466583333909511566162109375</LongitudeDegrees>
            </Position>
            <AltitudeMeters>235</AltitudeMeters>
            <DistanceMeters>2805.596309434</DistanceMeters>
          </Trackpoint>
          <Trackpoint>
            <Time>2019-01-04T09:46:12.000Z</Time>
            <Position>
              <LatitudeDegrees>36.52863199822604656219482421875</LatitudeDegrees>
              <LongitudeDegrees>-5.404680334031581878662109375</LongitudeDegrees>
            </Position>
            <AltitudeMeters>235</AltitudeMeters>
            <DistanceMeters>2806.9130382129</DistanceMeters>
          </Trackpoint>
          <Trackpoint>
            <Time>2019-01-04T09:46:13.000Z</Time>
            <Position>
              <LatitudeDegrees>36.52862478978931903839111328125</LatitudeDegrees>
              <LongitudeDegrees>-5.404696427285671234130859375</LongitudeDegrees>
            </Position>
            <AltitudeMeters>235.1999969482421875</AltitudeMeters>
            <DistanceMeters>2808.5589491865</DistanceMeters>
          </Trackpoint>
          <Trackpoint>
            <Time>2019-01-04T09:46:14.000Z</Time>
            <Position>
              <LatitudeDegrees>36.528615988790988922119140625</LatitudeDegrees>
              <LongitudeDegrees>-5.40471310727298259735107421875</LongitudeDegrees>
            </Position>
            <AltitudeMeters>235.1999969482421875</AltitudeMeters>
            <DistanceMeters>2810.346866148</DistanceMeters>
          </Trackpoint>
          <Trackpoint>
            <Time>2019-01-04T09:46:15.000Z</Time>
            <Position>
              <LatitudeDegrees>36.52861204929649829864501953125</LatitudeDegrees>
              <LongitudeDegrees>-5.40472869761288166046142578125</LongitudeDegrees>
            </Position>
            <AltitudeMeters>235.399993896484375</AltitudeMeters>
            <DistanceMeters>2811.8066942341</DistanceMeters>
          </Trackpoint>
          <Trackpoint>
            <Time>2019-01-04T09:46:16.000Z</Time>
            <Position>
              <LatitudeDegrees>36.52860970236361026763916015625</LatitudeDegrees>
              <LongitudeDegrees>-5.4047445394098758697509765625</LongitudeDegrees>
            </Position>
            <AltitudeMeters>235.600006103515625</AltitudeMeters>
            <DistanceMeters>2813.2478457119</DistanceMeters>
          </Trackpoint>
          <Trackpoint>
            <Time>2019-01-04T09:46:17.000Z</Time>
            <Position>
              <LatitudeDegrees>36.528610289096832275390625</LatitudeDegrees>
              <LongitudeDegrees>-5.40475769899785518646240234375</LongitudeDegrees>
            </Position>
            <AltitudeMeters>235.8000030517578125</AltitudeMeters>
            <DistanceMeters>2814.4309187649</DistanceMeters>
          </Trackpoint>
          <Trackpoint>
            <Time>2019-01-04T09:46:18.000Z</Time>
            <Position>
              <LatitudeDegrees>36.5286151506006717681884765625</LatitudeDegrees>
              <LongitudeDegrees>-5.40477328933775424957275390625</LongitudeDegrees>
            </Position>
            <AltitudeMeters>235.8000030517578125</AltitudeMeters>
            <DistanceMeters>2815.9274009593</DistanceMeters>
          </Trackpoint>
          <Trackpoint>
            <Time>2019-01-04T09:46:19.000Z</Time>
            <Position>
              <LatitudeDegrees>36.5286196768283843994140625</LatitudeDegrees>
              <LongitudeDegrees>-5.4047931544482707977294921875</LongitudeDegrees>
            </Position>
            <AltitudeMeters>236</AltitudeMeters>
            <DistanceMeters>2817.7749314451</DistanceMeters>
          </Trackpoint>
          <Trackpoint>
            <Time>2019-01-04T09:46:20.000Z</Time>
            <Position>
              <LatitudeDegrees>36.52862009592354297637939453125</LatitudeDegrees>
              <LongitudeDegrees>-5.40480849333107471466064453125</LongitudeDegrees>
            </Position>
            <AltitudeMeters>236.1999969482421875</AltitudeMeters>
            <DistanceMeters>2819.1487167183</DistanceMeters>
          </Trackpoint>
          <Trackpoint>
            <Time>2019-01-04T09:46:21.000Z</Time>
            <Position>
              <LatitudeDegrees>36.52861758135259151458740234375</LatitudeDegrees>
              <LongitudeDegrees>-5.40482492186129093170166015625</LongitudeDegrees>
            </Position>
            <AltitudeMeters>236.1999969482421875</AltitudeMeters>
            <DistanceMeters>2820.6451989126</DistanceMeters>
          </Trackpoint>
          <Trackpoint>
            <Time>2019-01-04T09:46:22.000Z</Time>
            <Position>
              <LatitudeDegrees>36.52861858718097209930419921875</LatitudeDegrees>
              <LongitudeDegrees>-5.4048442840576171875</LongitudeDegrees>
            </Position>
            <AltitudeMeters>236.399993896484375</AltitudeMeters>
            <DistanceMeters>2822.3766680517</DistanceMeters>
          </Trackpoint>
          <Trackpoint>
            <Time>2019-01-04T09:46:23.000Z</Time>
            <Position>
              <LatitudeDegrees>36.52861892245709896087646484375</LatitudeDegrees>
              <LongitudeDegrees>-5.40485828183591365814208984375</LongitudeDegrees>
            </Position>
            <AltitudeMeters>236.399993896484375</AltitudeMeters>
            <DistanceMeters>2823.6301565044</DistanceMeters>
          </Trackpoint>
          <Trackpoint>
            <Time>2019-01-04T09:46:24.000Z</Time>
            <Position>
              <LatitudeDegrees>36.52862009592354297637939453125</LatitudeDegrees>
              <LongitudeDegrees>-5.40487655438482761383056640625</LongitudeDegrees>
            </Position>
            <AltitudeMeters>236.600006103515625</AltitudeMeters>
            <DistanceMeters>2825.2705719336</DistanceMeters>
          </Trackpoint>
          <Trackpoint>
            <Time>2019-01-04T09:46:25.000Z</Time>
            <Position>
              <LatitudeDegrees>36.52862059883773326873779296875</LatitudeDegrees>
              <LongitudeDegrees>-5.40489667095243930816650390625</LongitudeDegrees>
            </Position>
            <AltitudeMeters>236.600006103515625</AltitudeMeters>
            <DistanceMeters>2827.0685617464</DistanceMeters>
          </Trackpoint>
          <Trackpoint>
            <Time>2019-01-04T09:46:26.000Z</Time>
            <Position>
              <LatitudeDegrees>36.52862227521836757659912109375</LatitudeDegrees>
              <LongitudeDegrees>-5.404917038977146148681640625</LongitudeDegrees>
            </Position>
            <AltitudeMeters>236.600006103515625</AltitudeMeters>
            <DistanceMeters>2828.9013706391</DistanceMeters>
          </Trackpoint>
          <Trackpoint>
            <Time>2019-01-04T09:46:27.000Z</Time>
            <Position>
              <LatitudeDegrees>36.52862261049449443817138671875</LatitudeDegrees>
              <LongitudeDegrees>-5.40493673644959926605224609375</LongitudeDegrees>
            </Position>
            <AltitudeMeters>236.8000030517578125</AltitudeMeters>
            <DistanceMeters>2830.6664135205</DistanceMeters>
          </Trackpoint>
          <Trackpoint>
            <Time>2019-01-04T09:46:28.000Z</Time>
            <Position>
              <LatitudeDegrees>36.5286248736083507537841796875</LatitudeDegrees>
              <LongitudeDegrees>-5.404955931007862091064453125</LongitudeDegrees>
            </Position>
            <AltitudeMeters>237</AltitudeMeters>
            <DistanceMeters>2832.4004883332</DistanceMeters>
          </Trackpoint>
          <Trackpoint>
            <Time>2019-01-04T09:46:29.000Z</Time>
            <Position>
              <LatitudeDegrees>36.52862814255058765411376953125</LatitudeDegrees>
              <LongitudeDegrees>-5.4049748741090297698974609375</LongitudeDegrees>
            </Position>
            <AltitudeMeters>237.399993896484375</AltitudeMeters>
            <DistanceMeters>2834.1319574722</DistanceMeters>
          </Trackpoint>
          <Trackpoint>
            <Time>2019-01-04T09:46:30.000Z</Time>
            <Position>
              <LatitudeDegrees>36.52862705290317535400390625</LatitudeDegrees>
              <LongitudeDegrees>-5.404994823038578033447265625</LongitudeDegrees>
            </Position>
            <AltitudeMeters>237.600006103515625</AltitudeMeters>
            <DistanceMeters>2835.9198744337</DistanceMeters>
          </Trackpoint>
          <Trackpoint>
            <Time>2019-01-04T09:46:31.000Z</Time>
            <Position>
              <LatitudeDegrees>36.528628058731555938720703125</LatitudeDegrees>
              <LongitudeDegrees>-5.40501535870134830474853515625</LongitudeDegrees>
            </Position>
            <AltitudeMeters>237.8000030517578125</AltitudeMeters>
            <DistanceMeters>2837.7625107903</DistanceMeters>
          </Trackpoint>
          <Trackpoint>
            <Time>2019-01-04T09:46:32.000Z</Time>
            <Position>
              <LatitudeDegrees>36.528626047074794769287109375</LatitudeDegrees>
              <LongitudeDegrees>-5.4050328768789768218994140625</LongitudeDegrees>
            </Position>
            <AltitudeMeters>237.8000030517578125</AltitudeMeters>
            <DistanceMeters>2839.3469227479</DistanceMeters>
          </Trackpoint>
          <Trackpoint>
            <Time>2019-01-04T09:46:33.000Z</Time>
            <Position>
              <LatitudeDegrees>36.5286238677799701690673828125</LatitudeDegrees>
              <LongitudeDegrees>-5.4050494730472564697265625</LongitudeDegrees>
            </Position>
            <AltitudeMeters>237.8000030517578125</AltitudeMeters>
            <DistanceMeters>2840.8494270278</DistanceMeters>
          </Trackpoint>
          <Trackpoint>
            <Time>2019-01-04T09:46:34.000Z</Time>
            <Position>
              <LatitudeDegrees>36.528622694313526153564453125</LatitudeDegrees>
              <LongitudeDegrees>-5.40507160127162933349609375</LongitudeDegrees>
            </Position>
            <AltitudeMeters>237.8000030517578125</AltitudeMeters>
            <DistanceMeters>2842.8336430769</DistanceMeters>
          </Trackpoint>
          <Trackpoint>
            <Time>2019-01-04T09:46:35.000Z</Time>
            <Position>
              <LatitudeDegrees>36.52862059883773326873779296875</LatitudeDegrees>
              <LongitudeDegrees>-5.4050922207534313201904296875</LongitudeDegrees>
            </Position>
            <AltitudeMeters>238</AltitudeMeters>
            <DistanceMeters>2844.6909231316</DistanceMeters>
          </Trackpoint>
          <Trackpoint>
            <Time>2019-01-04T09:46:36.000Z</Time>
            <Position>
              <LatitudeDegrees>36.52861875481903553009033203125</LatitudeDegrees>
              <LongitudeDegrees>-5.40511024184525012969970703125</LongitudeDegrees>
            </Position>
            <AltitudeMeters>238.1999969482421875</AltitudeMeters>
            <DistanceMeters>2846.3147403386</DistanceMeters>
          </Trackpoint>
          <Trackpoint>
            <Time>2019-01-04T09:46:37.000Z</Time>
            <Position>
              <LatitudeDegrees>36.5286161564290523529052734375</LatitudeDegrees>
              <LongitudeDegrees>-5.40512901730835437774658203125</LongitudeDegrees>
            </Position>
            <AltitudeMeters>238.399993896484375</AltitudeMeters>
            <DistanceMeters>2848.0199337631</DistanceMeters>
          </Trackpoint>
          <Trackpoint>
            <Time>2019-01-04T09:46:38.000Z</Time>
            <Position>
              <LatitudeDegrees>36.5286138094961643218994140625</LatitudeDegrees>
              <LongitudeDegrees>-5.40515030734241008758544921875</LongitudeDegrees>
            </Position>
            <AltitudeMeters>238.399993896484375</AltitudeMeters>
            <DistanceMeters>2849.9393793052</DistanceMeters>
          </Trackpoint>
          <Trackpoint>
            <Time>2019-01-04T09:46:39.000Z</Time>
            <Position>
              <LatitudeDegrees>36.5286060981452465057373046875</LatitudeDegrees>
              <LongitudeDegrees>-5.4051713459193706512451171875</LongitudeDegrees>
            </Position>
            <AltitudeMeters>238.600006103515625</AltitudeMeters>
            <DistanceMeters>2852.0060738056</DistanceMeters>
          </Trackpoint>
          <Trackpoint>
            <Time>2019-01-04T09:46:40.000Z</Time>
            <Position>
              <LatitudeDegrees>36.52859612368047237396240234375</LatitudeDegrees>
              <LongitudeDegrees>-5.40518785826861858367919921875</LongitudeDegrees>
            </Position>
            <AltitudeMeters>238.600006103515625</AltitudeMeters>
            <DistanceMeters>2853.8536042914</DistanceMeters>
          </Trackpoint>
          <Trackpoint>
            <Time>2019-01-04T09:46:41.000Z</Time>
            <Position>
              <LatitudeDegrees>36.528591848909854888916015625</LatitudeDegrees>
              <LongitudeDegrees>-5.405206382274627685546875</LongitudeDegrees>
            </Position>
            <AltitudeMeters>238.600006103515625</AltitudeMeters>
            <DistanceMeters>2855.5772327751</DistanceMeters>
          </Trackpoint>
          <Trackpoint>
            <Time>2019-01-04T09:46:42.000Z</Time>
            <Position>
              <LatitudeDegrees>36.5285866521298885345458984375</LatitudeDegrees>
              <LongitudeDegrees>-5.40522021241486072540283203125</LongitudeDegrees>
            </Position>
            <AltitudeMeters>238.600006103515625</AltitudeMeters>
            <DistanceMeters>2856.9411227074</DistanceMeters>
          </Trackpoint>
          <Trackpoint>
            <Time>2019-01-04T09:46:43.000Z</Time>
            <Position>
              <LatitudeDegrees>36.52858019806444644927978515625</LatitudeDegrees>
              <LongitudeDegrees>-5.405231527984142303466796875</LongitudeDegrees>
            </Position>
            <AltitudeMeters>238.8000030517578125</AltitudeMeters>
            <DistanceMeters>2858.1873863827</DistanceMeters>
          </Trackpoint>
          <Trackpoint>
            <Time>2019-01-04T09:46:44.000Z</Time>
            <Position>
              <LatitudeDegrees>36.52857433073222637176513671875</LatitudeDegrees>
              <LongitudeDegrees>-5.40524301119148731231689453125</LongitudeDegrees>
            </Position>
            <AltitudeMeters>238.8000030517578125</AltitudeMeters>
            <DistanceMeters>2859.4043220987</DistanceMeters>
          </Trackpoint>
          <Trackpoint>
            <Time>2019-01-04T09:46:45.000Z</Time>
            <Position>
              <LatitudeDegrees>36.52856846340000629425048828125</LatitudeDegrees>
              <LongitudeDegrees>-5.40525508113205432891845703125</LongitudeDegrees>
            </Position>
            <AltitudeMeters>239</AltitudeMeters>
            <DistanceMeters>2860.6649939252</DistanceMeters>
          </Trackpoint>
          <Trackpoint>
            <Time>2019-01-04T09:46:46.000Z</Time>
            <Position>
              <LatitudeDegrees>36.52855941094458103179931640625</LatitudeDegrees>
              <LongitudeDegrees>-5.4052667319774627685546875</LongitudeDegrees>
            </Position>
            <AltitudeMeters>239.399993896484375</AltitudeMeters>
            <DistanceMeters>2862.1123977165</DistanceMeters>
          </Trackpoint>
          <Trackpoint>
            <Time>2019-01-04T09:46:47.000Z</Time>
            <Position>
              <LatitudeDegrees>36.52855136431753635406494140625</LatitudeDegrees>
              <LongitudeDegrees>-5.40527821518480777740478515625</LongitudeDegrees>
            </Position>
            <AltitudeMeters>239.8000030517578125</AltitudeMeters>
            <DistanceMeters>2863.4762876488</DistanceMeters>
          </Trackpoint>
          <Trackpoint>
            <Time>2019-01-04T09:46:48.000Z</Time>
            <Position>
              <LatitudeDegrees>36.52854482643306255340576171875</LatitudeDegrees>
              <LongitudeDegrees>-5.405291207134723663330078125</LongitudeDegrees>
            </Position>
            <AltitudeMeters>240</AltitudeMeters>
            <DistanceMeters>2864.850072922</DistanceMeters>
          </Trackpoint>
          <Trackpoint>
            <Time>2019-01-04T09:46:49.000Z</Time>
            <Position>
              <LatitudeDegrees>36.52853745035827159881591796875</LatitudeDegrees>
              <LongitudeDegrees>-5.40530495345592498779296875</LongitudeDegrees>
            </Position>
            <AltitudeMeters>240</AltitudeMeters>
            <DistanceMeters>2866.3283416727</DistanceMeters>
          </Trackpoint>
          <Trackpoint>
            <Time>2019-01-04T09:46:50.000Z</Time>
            <Position>
              <LatitudeDegrees>36.5285340137779712677001953125</LatitudeDegrees>
              <LongitudeDegrees>-5.4053203761577606201171875</LongitudeDegrees>
            </Position>
            <AltitudeMeters>240.1999969482421875</AltitudeMeters>
            <DistanceMeters>2867.7600634867</DistanceMeters>
          </Trackpoint>
          <Trackpoint>
            <Time>2019-01-04T09:46:51.000Z</Time>
            <Position>
              <LatitudeDegrees>36.52852781116962432861328125</LatitudeDegrees>
              <LongitudeDegrees>-5.40533336810767650604248046875</LongitudeDegrees>
            </Position>
            <AltitudeMeters>240.399993896484375</AltitudeMeters>
            <DistanceMeters>2869.1139857586</DistanceMeters>
          </Trackpoint>
          <Trackpoint>
            <Time>2019-01-04T09:46:52.000Z</Time>
            <Position>
              <LatitudeDegrees>36.52852051891386508941650390625</LatitudeDegrees>
              <LongitudeDegrees>-5.40534443221986293792724609375</LongitudeDegrees>
            </Position>
            <AltitudeMeters>240.399993896484375</AltitudeMeters>
            <DistanceMeters>2870.3959662236</DistanceMeters>
          </Trackpoint>
          <Trackpoint>
            <Time>2019-01-04T09:46:53.000Z</Time>
            <Position>
              <LatitudeDegrees>36.5285085327923297882080078125</LatitudeDegrees>
              <LongitudeDegrees>-5.4053498804569244384765625</LongitudeDegrees>
            </Position>
            <AltitudeMeters>240.600006103515625</AltitudeMeters>
            <DistanceMeters>2871.8150176839</DistanceMeters>
          </Trackpoint>
          <Trackpoint>
            <Time>2019-01-04T09:46:54.000Z</Time>
            <Position>
              <LatitudeDegrees>36.5284971334040164947509765625</LatitudeDegrees>
              <LongitudeDegrees>-5.405358932912349700927734375</LongitudeDegrees>
            </Position>
            <AltitudeMeters>240.8000030517578125</AltitudeMeters>
            <DistanceMeters>2873.3235200087</DistanceMeters>
          </Trackpoint>
          <Trackpoint>
            <Time>2019-01-04T09:46:55.000Z</Time>
            <Position>
              <LatitudeDegrees>36.52848414145410060882568359375</LatitudeDegrees>
              <LongitudeDegrees>-5.40537008084356784820556640625</LongitudeDegrees>
            </Position>
            <AltitudeMeters>240.8000030517578125</AltitudeMeters>
            <DistanceMeters>2875.0808720349</DistanceMeters>
          </Trackpoint>
          <Trackpoint>
            <Time>2019-01-04T09:46:56.000Z</Time>
            <Position>
              <LatitudeDegrees>36.5284696407616138458251953125</LatitudeDegrees>
              <LongitudeDegrees>-5.40537494234740734100341796875</LongitudeDegrees>
            </Position>
            <AltitudeMeters>241</AltitudeMeters>
            <DistanceMeters>2876.7539899917</DistanceMeters>
          </Trackpoint>
          <Trackpoint>
            <Time>2019-01-04T09:46:57.000Z</Time>
            <Position>
              <LatitudeDegrees>36.5284548886120319366455078125</LatitudeDegrees>
              <LongitudeDegrees>-5.4053748585283756256103515625</LongitudeDegrees>
            </Position>
            <AltitudeMeters>241.1999969482421875</AltitudeMeters>
            <DistanceMeters>2878.3944054209</DistanceMeters>
          </Trackpoint>
          <Trackpoint>
            <Time>2019-01-04T09:46:58.000Z</Time>
            <Position>
              <LatitudeDegrees>36.52844072319567203521728515625</LatitudeDegrees>
              <LongitudeDegrees>-5.4053755290806293487548828125</LongitudeDegrees>
            </Position>
            <AltitudeMeters>241.399993896484375</AltitudeMeters>
            <DistanceMeters>2879.9731077673</DistanceMeters>
          </Trackpoint>
          <Trackpoint>
            <Time>2019-01-04T09:46:59.000Z</Time>
            <Position>
              <LatitudeDegrees>36.5284273959696292877197265625</LatitudeDegrees>
              <LongitudeDegrees>-5.40538114495575428009033203125</LongitudeDegrees>
            </Position>
            <AltitudeMeters>241.600006103515625</AltitudeMeters>
            <DistanceMeters>2881.5403284897</DistanceMeters>
          </Trackpoint>
          <Trackpoint>
            <Time>2019-01-04T09:47:00.000Z</Time>
            <Position>
              <LatitudeDegrees>36.52841373346745967864990234375</LatitudeDegrees>
              <LongitudeDegrees>-5.40538282133638858795166015625</LongitudeDegrees>
            </Position>
            <AltitudeMeters>241.600006103515625</AltitudeMeters>
            <DistanceMeters>2883.0666835345</DistanceMeters>
          </Trackpoint>
          <Trackpoint>
            <Time>2019-01-04T09:47:01.000Z</Time>
            <Position>
              <LatitudeDegrees>36.528400741517543792724609375</LatitudeDegrees>
              <LongitudeDegrees>-5.40538265369832515716552734375</LongitudeDegrees>
            </Position>
            <AltitudeMeters>241.8000030517578125</AltitudeMeters>
            <DistanceMeters>2884.5140873257</DistanceMeters>
          </Trackpoint>
          <Trackpoint>
            <Time>2019-01-04T09:47:02.000Z</Time>
            <Position>
              <LatitudeDegrees>36.52838573791086673736572265625</LatitudeDegrees>
              <LongitudeDegrees>-5.4053802229464054107666015625</LongitudeDegrees>
            </Position>
            <AltitudeMeters>241.8000030517578125</AltitudeMeters>
            <DistanceMeters>2886.1979649945</DistanceMeters>
          </Trackpoint>
          <Trackpoint>
            <Time>2019-01-04T09:47:03.000Z</Time>
            <Position>
              <LatitudeDegrees>36.5283702313899993896484375</LatitudeDegrees>
              <LongitudeDegrees>-5.405378043651580810546875</LongitudeDegrees>
            </Position>
            <AltitudeMeters>241.8000030517578125</AltitudeMeters>
            <DistanceMeters>2887.9372394434</DistanceMeters>
          </Trackpoint>
          <Trackpoint>
            <Time>2019-01-04T09:47:04.000Z</Time>
            <Position>
              <LatitudeDegrees>36.528355143964290618896484375</LatitudeDegrees>
              <LongitudeDegrees>-5.4053782112896442413330078125</LongitudeDegrees>
            </Position>
            <AltitudeMeters>241.8000030517578125</AltitudeMeters>
            <DistanceMeters>2889.6184336401</DistanceMeters>
          </Trackpoint>
          <Trackpoint>
            <Time>2019-01-04T09:47:05.000Z</Time>
            <Position>
              <LatitudeDegrees>36.52833913452923297882080078125</LatitudeDegrees>
              <LongitudeDegrees>-5.40537980385124683380126953125</LongitudeDegrees>
            </Position>
            <AltitudeMeters>241.8000030517578125</AltitudeMeters>
            <DistanceMeters>2891.4063506016</DistanceMeters>
          </Trackpoint>
          <Trackpoint>
            <Time>2019-01-04T09:47:06.000Z</Time>
            <Position>
              <LatitudeDegrees>36.52832354418933391571044921875</LatitudeDegrees>
              <LongitudeDegrees>-5.40538097731769084930419921875</LongitudeDegrees>
            </Position>
            <AltitudeMeters>241.8000030517578125</AltitudeMeters>
            <DistanceMeters>2893.1430271784</DistanceMeters>
          </Trackpoint>
          <Trackpoint>
            <Time>2019-01-04T09:47:07.000Z</Time>
            <Position>
              <LatitudeDegrees>36.52830862440168857574462890625</LatitudeDegrees>
              <LongitudeDegrees>-5.40538231842219829559326171875</LongitudeDegrees>
            </Position>
            <AltitudeMeters>242</AltitudeMeters>
            <DistanceMeters>2894.805315779</DistanceMeters>
          </Trackpoint>
          <Trackpoint>
            <Time>2019-01-04T09:47:08.000Z</Time>
            <Position>
              <LatitudeDegrees>36.52829638682305812835693359375</LatitudeDegrees>
              <LongitudeDegrees>-5.40538919158279895782470703125</LongitudeDegrees>
            </Position>
            <AltitudeMeters>242</AltitudeMeters>
            <DistanceMeters>2896.2987778246</DistanceMeters>
          </Trackpoint>
          <Trackpoint>
            <Time>2019-01-04T09:47:09.000Z</Time>
            <Position>
              <LatitudeDegrees>36.5282817184925079345703125</LatitudeDegrees>
              <LongitudeDegrees>-5.40539220906794071197509765625</LongitudeDegrees>
            </Position>
            <AltitudeMeters>242</AltitudeMeters>
            <DistanceMeters>2897.9501660546</DistanceMeters>
          </Trackpoint>
          <Trackpoint>
            <Time>2019-01-04T09:47:10.000Z</Time>
            <Position>
              <LatitudeDegrees>36.5282671339809894561767578125</LatitudeDegrees>
              <LongitudeDegrees>-5.40539371781051158905029296875</LongitudeDegrees>
            </Position>
            <AltitudeMeters>242.1999969482421875</AltitudeMeters>
            <DistanceMeters>2899.576761394</DistanceMeters>
          </Trackpoint>
          <Trackpoint>
            <Time>2019-01-04T09:47:11.000Z</Time>
            <Position>
              <LatitudeDegrees>36.5282522141933441162109375</LatitudeDegrees>
              <LongitudeDegrees>-5.405392460525035858154296875</LongitudeDegrees>
            </Position>
            <AltitudeMeters>242.1999969482421875</AltitudeMeters>
            <DistanceMeters>2901.2390499946</DistanceMeters>
          </Trackpoint>
          <Trackpoint>
            <Time>2019-01-04T09:47:12.000Z</Time>
            <Position>
              <LatitudeDegrees>36.528239138424396514892578125</LatitudeDegrees>
              <LongitudeDegrees>-5.40538952685892581939697265625</LongitudeDegrees>
            </Position>
            <AltitudeMeters>242.1999969482421875</AltitudeMeters>
            <DistanceMeters>2902.7173187454</DistanceMeters>
          </Trackpoint>
          <Trackpoint>
            <Time>2019-01-04T09:47:13.000Z</Time>
            <Position>
              <LatitudeDegrees>36.52822614647448062896728515625</LatitudeDegrees>
              <LongitudeDegrees>-5.4053896106779575347900390625</LongitudeDegrees>
            </Position>
            <AltitudeMeters>242.1999969482421875</AltitudeMeters>
            <DistanceMeters>2904.1615997632</DistanceMeters>
          </Trackpoint>
          <Trackpoint>
            <Time>2019-01-04T09:47:14.000Z</Time>
            <Position>
              <LatitudeDegrees>36.52821223251521587371826171875</LatitudeDegrees>
              <LongitudeDegrees>-5.4053906165063381195068359375</LongitudeDegrees>
            </Position>
            <AltitudeMeters>242.1999969482421875</AltitudeMeters>
            <DistanceMeters>2905.717254123</DistanceMeters>
          </Trackpoint>
          <Trackpoint>
            <Time>2019-01-04T09:47:15.000Z</Time>
            <Position>
              <LatitudeDegrees>36.52820049785077571868896484375</LatitudeDegrees>
              <LongitudeDegrees>-5.40539287962019443511962890625</LongitudeDegrees>
            </Position>
            <AltitudeMeters>242.1999969482421875</AltitudeMeters>
            <DistanceMeters>2907.044229973</DistanceMeters>
          </Trackpoint>
          <Trackpoint>
            <Time>2019-01-04T09:47:16.000Z</Time>
            <Position>
              <LatitudeDegrees>36.52819060720503330230712890625</LatitudeDegrees>
              <LongitudeDegrees>-5.40540209971368312835693359375</LongitudeDegrees>
            </Position>
            <AltitudeMeters>242.1999969482421875</AltitudeMeters>
            <DistanceMeters>2908.424572731</DistanceMeters>
          </Trackpoint>
          <Trackpoint>
            <Time>2019-01-04T09:47:17.000Z</Time>
            <Position>
              <LatitudeDegrees>36.528178788721561431884765625</LatitudeDegrees>
              <LongitudeDegrees>-5.40540754795074462890625</LongitudeDegrees>
            </Position>
            <AltitudeMeters>242.1999969482421875</AltitudeMeters>
            <DistanceMeters>2909.8276253547</DistanceMeters>
          </Trackpoint>
          <Trackpoint>
            <Time>2019-01-04T09:47:18.000Z</Time>
            <Position>
              <LatitudeDegrees>36.528165377676486968994140625</LatitudeDegrees>
              <LongitudeDegrees>-5.40541735477745532989501953125</LongitudeDegrees>
            </Position>
            <AltitudeMeters>242.1999969482421875</AltitudeMeters>
            <DistanceMeters>2911.5590944937</DistanceMeters>
          </Trackpoint>
          <Trackpoint>
            <Time>2019-01-04T09:47:19.000Z</Time>
            <Position>
              <LatitudeDegrees>36.52815506793558597564697265625</LatitudeDegrees>
              <LongitudeDegrees>-5.40542028844356536865234375</LongitudeDegrees>
            </Position>
            <AltitudeMeters>242.1999969482421875</AltitudeMeters>
            <DistanceMeters>2912.7383450067</DistanceMeters>
          </Trackpoint>
          <Trackpoint>
            <Time>2019-01-04T09:47:20.000Z</Time>
            <Position>
              <LatitudeDegrees>36.52814450673758983612060546875</LatitudeDegrees>
              <LongitudeDegrees>-5.40542489849030971527099609375</LongitudeDegrees>
            </Position>
            <AltitudeMeters>242.1999969482421875</AltitudeMeters>
            <DistanceMeters>2913.984608682</DistanceMeters>
          </Trackpoint>
          <Trackpoint>
            <Time>2019-01-04T09:47:21.000Z</Time>
            <Position>
              <LatitudeDegrees>36.52813126333057880401611328125</LatitudeDegrees>
              <LongitudeDegrees>-5.40542171336710453033447265625</LongitudeDegrees>
            </Position>
            <AltitudeMeters>242.399993896484375</AltitudeMeters>
            <DistanceMeters>2915.4871129619</DistanceMeters>
          </Trackpoint>
          <Trackpoint>
            <Time>2019-01-04T09:47:22.000Z</Time>
            <Position>
              <LatitudeDegrees>36.5281154215335845947265625</LatitudeDegrees>
              <LongitudeDegrees>-5.405417270958423614501953125</LongitudeDegrees>
            </Position>
            <AltitudeMeters>242.399993896484375</AltitudeMeters>
            <DistanceMeters>2917.2951195085</DistanceMeters>
          </Trackpoint>
          <Trackpoint>
            <Time>2019-01-04T09:47:23.000Z</Time>
            <Position>
              <LatitudeDegrees>36.5281011722981929779052734375</LatitudeDegrees>
              <LongitudeDegrees>-5.40542406029999256134033203125</LongitudeDegrees>
            </Position>
            <AltitudeMeters>242.399993896484375</AltitudeMeters>
            <DistanceMeters>2918.9950090526</DistanceMeters>
          </Trackpoint>
          <Trackpoint>
            <Time>2019-01-04T09:47:24.000Z</Time>
            <Position>
              <LatitudeDegrees>36.52808926999568939208984375</LatitudeDegrees>
              <LongitudeDegrees>-5.4054291732609272003173828125</LongitudeDegrees>
            </Position>
            <AltitudeMeters>242.399993896484375</AltitudeMeters>
            <DistanceMeters>2920.3980616763</DistanceMeters>
          </Trackpoint>
          <Trackpoint>
            <Time>2019-01-04T09:47:25.000Z</Time>
            <Position>
              <LatitudeDegrees>36.52807745151221752166748046875</LatitudeDegrees>
              <LongitudeDegrees>-5.405437387526035308837890625</LongitudeDegrees>
            </Position>
            <AltitudeMeters>242.399993896484375</AltitudeMeters>
            <DistanceMeters>2921.906564001</DistanceMeters>
          </Trackpoint>
          <Trackpoint>
            <Time>2019-01-04T09:47:26.000Z</Time>
            <Position>
              <LatitudeDegrees>36.52806621976196765899658203125</LatitudeDegrees>
              <LongitudeDegrees>-5.4054415784776210784912109375</LongitudeDegrees>
            </Position>
            <AltitudeMeters>242.399993896484375</AltitudeMeters>
            <DistanceMeters>2923.2095046641</DistanceMeters>
          </Trackpoint>
          <Trackpoint>
            <Time>2019-01-04T09:47:27.000Z</Time>
            <Position>
              <LatitudeDegrees>36.52805247344076633453369140625</LatitudeDegrees>
              <LongitudeDegrees>-5.40544736199080944061279296875</LongitudeDegrees>
            </Position>
            <AltitudeMeters>242.399993896484375</AltitudeMeters>
            <DistanceMeters>2924.8249588084</DistanceMeters>
          </Trackpoint>
          <Trackpoint>
            <Time>2019-01-04T09:47:28.000Z</Time>
            <Position>
              <LatitudeDegrees>36.5280384756624698638916015625</LatitudeDegrees>
              <LongitudeDegrees>-5.40545490570366382598876953125</LongitudeDegrees>
            </Position>
            <AltitudeMeters>242.399993896484375</AltitudeMeters>
            <DistanceMeters>2926.5195278714</DistanceMeters>
          </Trackpoint>
          <Trackpoint>
            <Time>2019-01-04T09:47:29.000Z</Time>
            <Position>
              <LatitudeDegrees>36.52802464552223682403564453125</LatitudeDegrees>
              <LongitudeDegrees>-5.4054647125303745269775390625</LongitudeDegrees>
            </Position>
            <AltitudeMeters>242.399993896484375</AltitudeMeters>
            <DistanceMeters>2928.2896794259</DistanceMeters>
          </Trackpoint>
          <Trackpoint>
            <Time>2019-01-04T09:47:30.000Z</Time>
            <Position>
              <LatitudeDegrees>36.52801374904811382293701171875</LatitudeDegrees>
              <LongitudeDegrees>-5.40547150187194347381591796875</LongitudeDegrees>
            </Position>
            <AltitudeMeters>242.399993896484375</AltitudeMeters>
            <DistanceMeters>2929.6469323849</DistanceMeters>
          </Trackpoint>
          <Trackpoint>
            <Time>2019-01-04T09:47:31.000Z</Time>
            <Position>
              <LatitudeDegrees>36.52800201438367366790771484375</LatitudeDegrees>
              <LongitudeDegrees>-5.4054771177470684051513671875</LongitudeDegrees>
            </Position>
            <AltitudeMeters>242.399993896484375</AltitudeMeters>
            <DistanceMeters>2931.0435341577</DistanceMeters>
          </Trackpoint>
          <Trackpoint>
            <Time>2019-01-04T09:47:32.000Z</Time>
            <Position>
              <LatitudeDegrees>36.527991704642772674560546875</LatitudeDegrees>
              <LongitudeDegrees>-5.40548608638346195220947265625</LongitudeDegrees>
            </Position>
            <AltitudeMeters>242.399993896484375</AltitudeMeters>
            <DistanceMeters>2932.4401359305</DistanceMeters>
          </Trackpoint>
          <Trackpoint>
            <Time>2019-01-04T09:47:33.000Z</Time>
            <Position>
              <LatitudeDegrees>36.5279811434447765350341796875</LatitudeDegrees>
              <LongitudeDegrees>-5.40549698285758495330810546875</LongitudeDegrees>
            </Position>
            <AltitudeMeters>242.399993896484375</AltitudeMeters>
            <DistanceMeters>2933.9694461669</DistanceMeters>
          </Trackpoint>
          <Trackpoint>
            <Time>2019-01-04T09:47:34.000Z</Time>
            <Position>
              <LatitudeDegrees>36.52796949259936809539794921875</LatitudeDegrees>
              <LongitudeDegrees>-5.40550234727561473846435546875</LongitudeDegrees>
            </Position>
            <AltitudeMeters>242.399993896484375</AltitudeMeters>
            <DistanceMeters>2935.3530560129</DistanceMeters>
          </Trackpoint>
          <Trackpoint>
            <Time>2019-01-04T09:47:35.000Z</Time>
            <Position>
              <LatitudeDegrees>36.52795792557299137115478515625</LatitudeDegrees>
              <LongitudeDegrees>-5.40550519712269306182861328125</LongitudeDegrees>
            </Position>
            <AltitudeMeters>242.399993896484375</AltitudeMeters>
            <DistanceMeters>2936.6697847919</DistanceMeters>
          </Trackpoint>
          <Trackpoint>
            <Time>2019-01-04T09:47:36.000Z</Time>
            <Position>
              <LatitudeDegrees>36.527946107089519500732421875</LatitudeDegrees>
              <LongitudeDegrees>-5.40550746023654937744140625</LongitudeDegrees>
            </Position>
            <AltitudeMeters>242.1999969482421875</AltitudeMeters>
            <DistanceMeters>2938.0035482864</DistanceMeters>
          </Trackpoint>
          <Trackpoint>
            <Time>2019-01-04T09:47:37.000Z</Time>
            <Position>
              <LatitudeDegrees>36.527934037148952484130859375</LatitudeDegrees>
              <LongitudeDegrees>-5.40551290847361087799072265625</LongitudeDegrees>
            </Position>
            <AltitudeMeters>242.1999969482421875</AltitudeMeters>
            <DistanceMeters>2939.4321130474</DistanceMeters>
          </Trackpoint>
          <Trackpoint>
            <Time>2019-01-04T09:47:38.000Z</Time>
            <Position>
              <LatitudeDegrees>36.52792121283710002899169921875</LatitudeDegrees>
              <LongitudeDegrees>-5.40551827289164066314697265625</LongitudeDegrees>
            </Position>
            <AltitudeMeters>242.1999969482421875</AltitudeMeters>
            <DistanceMeters>2940.9376193368</DistanceMeters>
          </Trackpoint>
          <Trackpoint>
            <Time>2019-01-04T09:47:39.000Z</Time>
            <Position>
              <LatitudeDegrees>36.5279043652117252349853515625</LatitudeDegrees>
              <LongitudeDegrees>-5.40552212856709957122802734375</LongitudeDegrees>
            </Position>
            <AltitudeMeters>242.1999969482421875</AltitudeMeters>
            <DistanceMeters>2942.8428990356</DistanceMeters>
          </Trackpoint>
          <Trackpoint>
            <Time>2019-01-04T09:47:40.000Z</Time>
            <Position>
              <LatitudeDegrees>36.52788936160504817962646484375</LatitudeDegrees>
              <LongitudeDegrees>-5.4055280797183513641357421875</LongitudeDegrees>
            </Position>
            <AltitudeMeters>242.1999969482421875</AltitudeMeters>
            <DistanceMeters>2944.5951050711</DistanceMeters>
          </Trackpoint>
          <Trackpoint>
            <Time>2019-01-04T09:47:41.000Z</Time>
            <Position>
              <LatitudeDegrees>36.527875699102878570556640625</LatitudeDegrees>
              <LongitudeDegrees>-5.4055384732782840728759765625</LongitudeDegrees>
            </Position>
            <AltitudeMeters>242.1999969482421875</AltitudeMeters>
            <DistanceMeters>2946.3779642658</DistanceMeters>
          </Trackpoint>
          <Trackpoint>
            <Time>2019-01-04T09:47:42.000Z</Time>
            <Position>
              <LatitudeDegrees>36.5278644673526287078857421875</LatitudeDegrees>
              <LongitudeDegrees>-5.40555112995207309722900390625</LongitudeDegrees>
            </Position>
            <AltitudeMeters>242.399993896484375</AltitudeMeters>
            <DistanceMeters>2948.0645211371</DistanceMeters>
          </Trackpoint>
          <Trackpoint>
            <Time>2019-01-04T09:47:43.000Z</Time>
            <Position>
              <LatitudeDegrees>36.527852900326251983642578125</LatitudeDegrees>
              <LongitudeDegrees>-5.4055612720549106597900390625</LongitudeDegrees>
            </Position>
            <AltitudeMeters>242.600006103515625</AltitudeMeters>
            <DistanceMeters>2949.6374931475</DistanceMeters>
          </Trackpoint>
          <Trackpoint>
            <Time>2019-01-04T09:47:44.000Z</Time>
            <Position>
              <LatitudeDegrees>36.5278393216431140899658203125</LatitudeDegrees>
              <LongitudeDegrees>-5.4055730067193508148193359375</LongitudeDegrees>
            </Position>
            <AltitudeMeters>242.600006103515625</AltitudeMeters>
            <DistanceMeters>2951.4776775585</DistanceMeters>
          </Trackpoint>
          <Trackpoint>
            <Time>2019-01-04T09:47:45.000Z</Time>
            <Position>
              <LatitudeDegrees>36.5278262458741664886474609375</LatitudeDegrees>
              <LongitudeDegrees>-5.40558566339313983917236328125</LongitudeDegrees>
            </Position>
            <AltitudeMeters>242.600006103515625</AltitudeMeters>
            <DistanceMeters>2953.3227626024</DistanceMeters>
          </Trackpoint>
          <Trackpoint>
            <Time>2019-01-04T09:47:46.000Z</Time>
            <Position>
              <LatitudeDegrees>36.52781291864812374114990234375</LatitudeDegrees>
              <LongitudeDegrees>-5.40559538640081882476806640625</LongitudeDegrees>
            </Position>
            <AltitudeMeters>242.600006103515625</AltitudeMeters>
            <DistanceMeters>2955.0437695965</DistanceMeters>
          </Trackpoint>
          <Trackpoint>
            <Time>2019-01-04T09:47:47.000Z</Time>
            <Position>
              <LatitudeDegrees>36.52780135162174701690673828125</LatitudeDegrees>
              <LongitudeDegrees>-5.40560527704656124114990234375</LongitudeDegrees>
            </Position>
            <AltitudeMeters>242.8000030517578125</AltitudeMeters>
            <DistanceMeters>2956.6052178473</DistanceMeters>
          </Trackpoint>
          <Trackpoint>
            <Time>2019-01-04T09:47:48.000Z</Time>
            <Position>
              <LatitudeDegrees>36.527791209518909454345703125</LatitudeDegrees>
              <LongitudeDegrees>-5.405619777739048004150390625</LongitudeDegrees>
            </Position>
            <AltitudeMeters>242.8000030517578125</AltitudeMeters>
            <DistanceMeters>2958.3235993524</DistanceMeters>
          </Trackpoint>
          <Trackpoint>
            <Time>2019-01-04T09:47:49.000Z</Time>
            <Position>
              <LatitudeDegrees>36.5277833305299282073974609375</LatitudeDegrees>
              <LongitudeDegrees>-5.405633188784122467041015625</LongitudeDegrees>
            </Position>
            <AltitudeMeters>242.8000030517578125</AltitudeMeters>
            <DistanceMeters>2959.8110027035</DistanceMeters>
          </Trackpoint>
          <Trackpoint>
            <Time>2019-01-04T09:47:50.000Z</Time>
            <Position>
              <LatitudeDegrees>36.52777520008385181427001953125</LatitudeDegrees>
              <LongitudeDegrees>-5.40564693510532379150390625</LongitudeDegrees>
            </Position>
            <AltitudeMeters>243</AltitudeMeters>
            <DistanceMeters>2961.3373577482</DistanceMeters>
          </Trackpoint>
          <Trackpoint>
            <Time>2019-01-04T09:47:51.000Z</Time>
            <Position>
              <LatitudeDegrees>36.5277667343616485595703125</LatitudeDegrees>
              <LongitudeDegrees>-5.40565841831266880035400390625</LongitudeDegrees>
            </Position>
            <AltitudeMeters>243.1999969482421875</AltitudeMeters>
            <DistanceMeters>2962.733959521</DistanceMeters>
          </Trackpoint>
          <Trackpoint>
            <Time>2019-01-04T09:47:52.000Z</Time>
            <Position>
              <LatitudeDegrees>36.52775441296398639678955078125</LatitudeDegrees>
              <LongitudeDegrees>-5.40566612966358661651611328125</LongitudeDegrees>
            </Position>
            <AltitudeMeters>243.600006103515625</AltitudeMeters>
            <DistanceMeters>2964.2691630749</DistanceMeters>
          </Trackpoint>
          <Trackpoint>
            <Time>2019-01-04T09:47:53.000Z</Time>
            <Position>
              <LatitudeDegrees>36.52774401940405368804931640625</LatitudeDegrees>
              <LongitudeDegrees>-5.40567736141383647918701171875</LongitudeDegrees>
            </Position>
            <AltitudeMeters>243.600006103515625</AltitudeMeters>
            <DistanceMeters>2965.8014228034</DistanceMeters>
          </Trackpoint>
          <Trackpoint>
            <Time>2019-01-04T09:47:54.000Z</Time>
            <Position>
              <LatitudeDegrees>36.527735553681850433349609375</LatitudeDegrees>
              <LongitudeDegrees>-5.40568985044956207275390625</LongitudeDegrees>
            </Position>
            <AltitudeMeters>243.8000030517578125</AltitudeMeters>
            <DistanceMeters>2967.2612508894</DistanceMeters>
          </Trackpoint>
          <Trackpoint>
            <Time>2019-01-04T09:47:55.000Z</Time>
            <Position>
              <LatitudeDegrees>36.52772759087383747100830078125</LatitudeDegrees>
              <LongitudeDegrees>-5.4057024233043193817138671875</LongitudeDegrees>
            </Position>
            <AltitudeMeters>243.8000030517578125</AltitudeMeters>
            <DistanceMeters>2968.6929727034</DistanceMeters>
          </Trackpoint>
          <Trackpoint>
            <Time>2019-01-04T09:47:56.000Z</Time>
            <Position>
              <LatitudeDegrees>36.5277159400284290313720703125</LatitudeDegrees>
              <LongitudeDegrees>-5.4057151637971401214599609375</LongitudeDegrees>
            </Position>
            <AltitudeMeters>243.8000030517578125</AltitudeMeters>
            <DistanceMeters>2970.4192186959</DistanceMeters>
          </Trackpoint>
          <Trackpoint>
            <Time>2019-01-04T09:47:57.000Z</Time>
            <Position>
              <LatitudeDegrees>36.5277072228491306304931640625</LatitudeDegrees>
              <LongitudeDegrees>-5.40572714991867542266845703125</LongitudeDegrees>
            </Position>
            <AltitudeMeters>243.8000030517578125</AltitudeMeters>
            <DistanceMeters>2971.8666224872</DistanceMeters>
          </Trackpoint>
          <Trackpoint>
            <Time>2019-01-04T09:47:58.000Z</Time>
            <Position>
              <LatitudeDegrees>36.52769691310822963714599609375</LatitudeDegrees>
              <LongitudeDegrees>-5.40573787875473499298095703125</LongitudeDegrees>
            </Position>
            <AltitudeMeters>243.8000030517578125</AltitudeMeters>
            <DistanceMeters>2973.3631046816</DistanceMeters>
          </Trackpoint>
          <Trackpoint>
            <Time>2019-01-04T09:47:59.000Z</Time>
            <Position>
              <LatitudeDegrees>36.5276864357292652130126953125</LatitudeDegrees>
              <LongitudeDegrees>-5.4057476855814456939697265625</LongitudeDegrees>
            </Position>
            <AltitudeMeters>243.8000030517578125</AltitudeMeters>
            <DistanceMeters>2974.8198366282</DistanceMeters>
          </Trackpoint>
          <Trackpoint>
            <Time>2019-01-04T09:48:00.000Z</Time>
            <Position>
              <LatitudeDegrees>36.52767512015998363494873046875</LatitudeDegrees>
              <LongitudeDegrees>-5.4057557322084903717041015625</LongitudeDegrees>
            </Position>
            <AltitudeMeters>244</AltitudeMeters>
            <DistanceMeters>2976.2672404195</DistanceMeters>
          </Trackpoint>
          <Trackpoint>
            <Time>2019-01-04T09:48:01.000Z</Time>
            <Position>
              <LatitudeDegrees>36.5276634693145751953125</LatitudeDegrees>
              <LongitudeDegrees>-5.40576822124421596527099609375</LongitudeDegrees>
            </Position>
            <AltitudeMeters>244.1999969482421875</AltitudeMeters>
            <DistanceMeters>2977.9777212781</DistanceMeters>
          </Trackpoint>
          <Trackpoint>
            <Time>2019-01-04T09:48:02.000Z</Time>
            <Position>
              <LatitudeDegrees>36.52765399776399135589599609375</LatitudeDegrees>
              <LongitudeDegrees>-5.40577509440481662750244140625</LongitudeDegrees>
            </Position>
            <AltitudeMeters>244.1999969482421875</AltitudeMeters>
            <DistanceMeters>2979.1946569941</DistanceMeters>
          </Trackpoint>
          <Trackpoint>
            <Time>2019-01-04T09:48:03.000Z</Time>
            <Position>
              <LatitudeDegrees>36.52764343656599521636962890625</LatitudeDegrees>
              <LongitudeDegrees>-5.4057835601270198822021484375</LongitudeDegrees>
            </Position>
            <AltitudeMeters>244.399993896484375</AltitudeMeters>
            <DistanceMeters>2980.5912587669</DistanceMeters>
          </Trackpoint>
          <Trackpoint>
            <Time>2019-01-04T09:48:04.000Z</Time>
            <Position>
              <LatitudeDegrees>36.527632288634777069091796875</LatitudeDegrees>
              <LongitudeDegrees>-5.405790768563747406005859375</LongitudeDegrees>
            </Position>
            <AltitudeMeters>244.399993896484375</AltitudeMeters>
            <DistanceMeters>2981.9878605398</DistanceMeters>
          </Trackpoint>
          <Trackpoint>
            <Time>2019-01-04T09:48:05.000Z</Time>
            <Position>
              <LatitudeDegrees>36.5276187099516391754150390625</LatitudeDegrees>
              <LongitudeDegrees>-5.40580208413302898406982421875</LongitudeDegrees>
            </Position>
            <AltitudeMeters>244.600006103515625</AltitudeMeters>
            <DistanceMeters>2983.8107889891</DistanceMeters>
          </Trackpoint>
          <Trackpoint>
            <Time>2019-01-04T09:48:06.000Z</Time>
            <Position>
              <LatitudeDegrees>36.52760370634496212005615234375</LatitudeDegrees>
              <LongitudeDegrees>-5.4058120585978031158447265625</LongitudeDegrees>
            </Position>
            <AltitudeMeters>244.600006103515625</AltitudeMeters>
            <DistanceMeters>2985.7065659867</DistanceMeters>
          </Trackpoint>
          <Trackpoint>
            <Time>2019-01-04T09:48:07.000Z</Time>
            <Position>
              <LatitudeDegrees>36.52758903801441192626953125</LatitudeDegrees>
              <LongitudeDegrees>-5.40581817738711833953857421875</LongitudeDegrees>
            </Position>
            <AltitudeMeters>244.600006103515625</AltitudeMeters>
            <DistanceMeters>2987.4275729808</DistanceMeters>
          </Trackpoint>
          <Trackpoint>
            <Time>2019-01-04T09:48:08.000Z</Time>
            <Position>
              <LatitudeDegrees>36.52757621370255947113037109375</LatitudeDegrees>
              <LongitudeDegrees>-5.4058264754712581634521484375</LongitudeDegrees>
            </Position>
            <AltitudeMeters>244.8000030517578125</AltitudeMeters>
            <DistanceMeters>2989.0346205417</DistanceMeters>
          </Trackpoint>
          <Trackpoint>
            <Time>2019-01-04T09:48:09.000Z</Time>
            <Position>
              <LatitudeDegrees>36.5275623835623264312744140625</LatitudeDegrees>
              <LongitudeDegrees>-5.4058311693370342254638671875</LongitudeDegrees>
            </Position>
            <AltitudeMeters>244.8000030517578125</AltitudeMeters>
            <DistanceMeters>2990.6303904365</DistanceMeters>
          </Trackpoint>
          <Trackpoint>
            <Time>2019-01-04T09:48:10.000Z</Time>
            <Position>
              <LatitudeDegrees>36.52754989452660083770751953125</LatitudeDegrees>
              <LongitudeDegrees>-5.40583360008895397186279296875</LongitudeDegrees>
            </Position>
            <AltitudeMeters>244.8000030517578125</AltitudeMeters>
            <DistanceMeters>2992.0366573888</DistanceMeters>
          </Trackpoint>
          <Trackpoint>
            <Time>2019-01-04T09:48:11.000Z</Time>
            <Position>
              <LatitudeDegrees>36.52753497473895549774169921875</LatitudeDegrees>
              <LongitudeDegrees>-5.405841059982776641845703125</LongitudeDegrees>
            </Position>
            <AltitudeMeters>244.8000030517578125</AltitudeMeters>
            <DistanceMeters>2993.8245743503</DistanceMeters>
          </Trackpoint>
          <Trackpoint>
            <Time>2019-01-04T09:48:12.000Z</Time>
            <Position>
              <LatitudeDegrees>36.5275198034942150115966796875</LatitudeDegrees>
              <LongitudeDegrees>-5.405844748020172119140625</LongitudeDegrees>
            </Position>
            <AltitudeMeters>244.8000030517578125</AltitudeMeters>
            <DistanceMeters>2995.5455813444</DistanceMeters>
          </Trackpoint>
          <Trackpoint>
            <Time>2019-01-04T09:48:13.000Z</Time>
            <Position>
              <LatitudeDegrees>36.52750681154429912567138671875</LatitudeDegrees>
              <LongitudeDegrees>-5.405845753848552703857421875</LongitudeDegrees>
            </Position>
            <AltitudeMeters>244.8000030517578125</AltitudeMeters>
            <DistanceMeters>2996.9929851357</DistanceMeters>
          </Trackpoint>
          <Trackpoint>
            <Time>2019-01-04T09:48:14.000Z</Time>
            <Position>
              <LatitudeDegrees>36.52749155648052692413330078125</LatitudeDegrees>
              <LongitudeDegrees>-5.40584349073469638824462890625</LongitudeDegrees>
            </Position>
            <AltitudeMeters>244.8000030517578125</AltitudeMeters>
            <DistanceMeters>2998.7034659943</DistanceMeters>
          </Trackpoint>
          <Trackpoint>
            <Time>2019-01-04T09:48:15.000Z</Time>
            <Position>
              <LatitudeDegrees>36.5274782292544841766357421875</LatitudeDegrees>
              <LongitudeDegrees>-5.40583846159279346466064453125</LongitudeDegrees>
            </Position>
            <AltitudeMeters>244.600006103515625</AltitudeMeters>
            <DistanceMeters>3000.2533048034</DistanceMeters>
          </Trackpoint>
          <Trackpoint>
            <Time>2019-01-04T09:48:16.000Z</Time>
            <Position>
              <LatitudeDegrees>36.52746498584747314453125</LatitudeDegrees>
              <LongitudeDegrees>-5.4058385454118251800537109375</LongitudeDegrees>
            </Position>
            <AltitudeMeters>244.600006103515625</AltitudeMeters>
            <DistanceMeters>3001.7254523322</DistanceMeters>
          </Trackpoint>
          <Trackpoint>
            <Time>2019-01-04T09:48:17.000Z</Time>
            <Position>
              <LatitudeDegrees>36.52745232917368412017822265625</LatitudeDegrees>
              <LongitudeDegrees>-5.40584047324955463409423828125</LongitudeDegrees>
            </Position>
            <AltitudeMeters>244.600006103515625</AltitudeMeters>
            <DistanceMeters>3003.1445037925</DistanceMeters>
          </Trackpoint>
          <Trackpoint>
            <Time>2019-01-04T09:48:18.000Z</Time>
            <Position>
              <LatitudeDegrees>36.52744151651859283447265625</LatitudeDegrees>
              <LongitudeDegrees>-5.405843742191791534423828125</LongitudeDegrees>
            </Position>
            <AltitudeMeters>244.399993896484375</AltitudeMeters>
            <DistanceMeters>3004.3835005622</DistanceMeters>
          </Trackpoint>
          <Trackpoint>
            <Time>2019-01-04T09:48:19.000Z</Time>
            <Position>
              <LatitudeDegrees>36.52743053622543811798095703125</LatitudeDegrees>
              <LongitudeDegrees>-5.40585304610431194305419921875</LongitudeDegrees>
            </Position>
            <AltitudeMeters>244.399993896484375</AltitudeMeters>
            <DistanceMeters>3005.861769313</DistanceMeters>
          </Trackpoint>
          <Trackpoint>
            <Time>2019-01-04T09:48:20.000Z</Time>
            <Position>
              <LatitudeDegrees>36.52742098085582256317138671875</LatitudeDegrees>
              <LongitudeDegrees>-5.4058667086064815521240234375</LongitudeDegrees>
            </Position>
            <AltitudeMeters>244.399993896484375</AltitudeMeters>
            <DistanceMeters>3007.4800159471</DistanceMeters>
          </Trackpoint>
          <Trackpoint>
            <Time>2019-01-04T09:48:21.000Z</Time>
            <Position>
              <LatitudeDegrees>36.527413018047809600830078125</LatitudeDegrees>
              <LongitudeDegrees>-5.40588271804153919219970703125</LongitudeDegrees>
            </Position>
            <AltitudeMeters>244.399993896484375</AltitudeMeters>
            <DistanceMeters>3009.1638936159</DistanceMeters>
          </Trackpoint>
          <Trackpoint>
            <Time>2019-01-04T09:48:22.000Z</Time>
            <Position>
              <LatitudeDegrees>36.52740438468754291534423828125</LatitudeDegrees>
              <LongitudeDegrees>-5.405896045267581939697265625</LongitudeDegrees>
            </Position>
            <AltitudeMeters>244.399993896484375</AltitudeMeters>
            <DistanceMeters>3010.6961533443</DistanceMeters>
          </Trackpoint>
          <Trackpoint>
            <Time>2019-01-04T09:48:23.000Z</Time>
            <Position>
              <LatitudeDegrees>36.52739281766116619110107421875</LatitudeDegrees>
              <LongitudeDegrees>-5.4059039242565631866455078125</LongitudeDegrees>
            </Position>
            <AltitudeMeters>244.399993896484375</AltitudeMeters>
            <DistanceMeters>3012.1621540925</DistanceMeters>
          </Trackpoint>
          <Trackpoint>
            <Time>2019-01-04T09:48:24.000Z</Time>
            <Position>
              <LatitudeDegrees>36.52738225646317005157470703125</LatitudeDegrees>
              <LongitudeDegrees>-5.40591574274003505706787109375</LongitudeDegrees>
            </Position>
            <AltitudeMeters>244.399993896484375</AltitudeMeters>
            <DistanceMeters>3013.7465660501</DistanceMeters>
          </Trackpoint>
          <Trackpoint>
            <Time>2019-01-04T09:48:25.000Z</Time>
            <Position>
              <LatitudeDegrees>36.52737437747418880462646484375</LatitudeDegrees>
              <LongitudeDegrees>-5.40592730976641178131103515625</LongitudeDegrees>
            </Position>
            <AltitudeMeters>244.399993896484375</AltitudeMeters>
            <DistanceMeters>3015.1071415427</DistanceMeters>
          </Trackpoint>
          <Trackpoint>
            <Time>2019-01-04T09:48:26.000Z</Time>
            <Position>
              <LatitudeDegrees>36.5273652411997318267822265625</LatitudeDegrees>
              <LongitudeDegrees>-5.405938625335693359375</LongitudeDegrees>
            </Position>
            <AltitudeMeters>244.399993896484375</AltitudeMeters>
            <DistanceMeters>3016.5420134635</DistanceMeters>
          </Trackpoint>
          <Trackpoint>
            <Time>2019-01-04T09:48:27.000Z</Time>
            <Position>
              <LatitudeDegrees>36.5273563563823699951171875</LatitudeDegrees>
              <LongitudeDegrees>-5.40595128200948238372802734375</LongitudeDegrees>
            </Position>
            <AltitudeMeters>244.600006103515625</AltitudeMeters>
            <DistanceMeters>3018.0475197529</DistanceMeters>
          </Trackpoint>
          <Trackpoint>
            <Time>2019-01-04T09:48:28.000Z</Time>
            <Position>
              <LatitudeDegrees>36.52734487317502498626708984375</LatitudeDegrees>
              <LongitudeDegrees>-5.40596234612166881561279296875</LongitudeDegrees>
            </Position>
            <AltitudeMeters>244.600006103515625</AltitudeMeters>
            <DistanceMeters>3019.665766387</DistanceMeters>
          </Trackpoint>
          <Trackpoint>
            <Time>2019-01-04T09:48:29.000Z</Time>
            <Position>
              <LatitudeDegrees>36.52733632363379001617431640625</LatitudeDegrees>
              <LongitudeDegrees>-5.40597408078610897064208984375</LongitudeDegrees>
            </Position>
            <AltitudeMeters>244.600006103515625</AltitudeMeters>
            <DistanceMeters>3021.0816325426</DistanceMeters>
          </Trackpoint>
          <Trackpoint>
            <Time>2019-01-04T09:48:30.000Z</Time>
            <Position>
              <LatitudeDegrees>36.5273243375122547149658203125</LatitudeDegrees>
              <LongitudeDegrees>-5.405983217060565948486328125</LongitudeDegrees>
            </Position>
            <AltitudeMeters>244.8000030517578125</AltitudeMeters>
            <DistanceMeters>3022.6430807934</DistanceMeters>
          </Trackpoint>
          <Trackpoint>
            <Time>2019-01-04T09:48:31.000Z</Time>
            <Position>
              <LatitudeDegrees>36.527315117418766021728515625</LatitudeDegrees>
              <LongitudeDegrees>-5.40599117986857891082763671875</LongitudeDegrees>
            </Position>
            <AltitudeMeters>244.8000030517578125</AltitudeMeters>
            <DistanceMeters>3023.8929620777</DistanceMeters>
          </Trackpoint>
          <Trackpoint>
            <Time>2019-01-04T09:48:32.000Z</Time>
            <Position>
              <LatitudeDegrees>36.527308411896228790283203125</LatitudeDegrees>
              <LongitudeDegrees>-5.40600140579044818878173828125</LongitudeDegrees>
            </Position>
            <AltitudeMeters>244.8000030517578125</AltitudeMeters>
            <DistanceMeters>3025.0722125907</DistanceMeters>
          </Trackpoint>
          <Trackpoint>
            <Time>2019-01-04T09:48:33.000Z</Time>
            <Position>
              <LatitudeDegrees>36.52730028145015239715576171875</LatitudeDegrees>
              <LongitudeDegrees>-5.40601029060781002044677734375</LongitudeDegrees>
            </Position>
            <AltitudeMeters>244.8000030517578125</AltitudeMeters>
            <DistanceMeters>3026.2817052049</DistanceMeters>
          </Trackpoint>
          <Trackpoint>
            <Time>2019-01-04T09:48:34.000Z</Time>
            <Position>
              <LatitudeDegrees>36.52728988789021968841552734375</LatitudeDegrees>
              <LongitudeDegrees>-5.40602034889161586761474609375</LongitudeDegrees>
            </Position>
            <AltitudeMeters>244.8000030517578125</AltitudeMeters>
            <DistanceMeters>3027.7477059531</DistanceMeters>
          </Trackpoint>
          <Trackpoint>
            <Time>2019-01-04T09:48:35.000Z</Time>
            <Position>
              <LatitudeDegrees>36.527280919253826141357421875</LatitudeDegrees>
              <LongitudeDegrees>-5.40603443048894405364990234375</LongitudeDegrees>
            </Position>
            <AltitudeMeters>244.8000030517578125</AltitudeMeters>
            <DistanceMeters>3029.354753514</DistanceMeters>
          </Trackpoint>
          <Trackpoint>
            <Time>2019-01-04T09:48:36.000Z</Time>
            <Position>
              <LatitudeDegrees>36.52727119624614715576171875</LatitudeDegrees>
              <LongitudeDegrees>-5.4060504399240016937255859375</LongitudeDegrees>
            </Position>
            <AltitudeMeters>245</AltitudeMeters>
            <DistanceMeters>3031.1502304118</DistanceMeters>
          </Trackpoint>
          <Trackpoint>
            <Time>2019-01-04T09:48:37.000Z</Time>
            <Position>
              <LatitudeDegrees>36.5272624790668487548828125</LatitudeDegrees>
              <LongitudeDegrees>-5.40606879629194736480712890625</LongitudeDegrees>
            </Position>
            <AltitudeMeters>245</AltitudeMeters>
            <DistanceMeters>3033.0578783895</DistanceMeters>
          </Trackpoint>
          <Trackpoint>
            <Time>2019-01-04T09:48:38.000Z</Time>
            <Position>
              <LatitudeDegrees>36.52725216932594776153564453125</LatitudeDegrees>
              <LongitudeDegrees>-5.4060848057270050048828125</LongitudeDegrees>
            </Position>
            <AltitudeMeters>245</AltitudeMeters>
            <DistanceMeters>3034.8931490817</DistanceMeters>
          </Trackpoint>
          <Trackpoint>
            <Time>2019-01-04T09:48:39.000Z</Time>
            <Position>
              <LatitudeDegrees>36.52724169194698333740234375</LatitudeDegrees>
              <LongitudeDegrees>-5.40609980933368206024169921875</LongitudeDegrees>
            </Position>
            <AltitudeMeters>245</AltitudeMeters>
            <DistanceMeters>3036.6734740048</DistanceMeters>
          </Trackpoint>
          <Trackpoint>
            <Time>2019-01-04T09:48:40.000Z</Time>
            <Position>
              <LatitudeDegrees>36.527232639491558074951171875</LatitudeDegrees>
              <LongitudeDegrees>-5.4061117954552173614501953125</LongitudeDegrees>
            </Position>
            <AltitudeMeters>245</AltitudeMeters>
            <DistanceMeters>3038.1456215336</DistanceMeters>
          </Trackpoint>
          <Trackpoint>
            <Time>2019-01-04T09:48:41.000Z</Time>
            <Position>
              <LatitudeDegrees>36.52722283266484737396240234375</LatitudeDegrees>
              <LongitudeDegrees>-5.40612428449094295501708984375</LongitudeDegrees>
            </Position>
            <AltitudeMeters>245</AltitudeMeters>
            <DistanceMeters>3039.7070697844</DistanceMeters>
          </Trackpoint>
          <Trackpoint>
            <Time>2019-01-04T09:48:42.000Z</Time>
            <Position>
              <LatitudeDegrees>36.5272136963903903961181640625</LatitudeDegrees>
              <LongitudeDegrees>-5.4061356000602245330810546875</LongitudeDegrees>
            </Position>
            <AltitudeMeters>245</AltitudeMeters>
            <DistanceMeters>3041.1419417052</DistanceMeters>
          </Trackpoint>
          <Trackpoint>
            <Time>2019-01-04T09:48:43.000Z</Time>
            <Position>
              <LatitudeDegrees>36.5271999500691890716552734375</LatitudeDegrees>
              <LongitudeDegrees>-5.40614289231598377227783203125</LongitudeDegrees>
            </Position>
            <AltitudeMeters>245</AltitudeMeters>
            <DistanceMeters>3042.8042303059</DistanceMeters>
          </Trackpoint>
          <Trackpoint>
            <Time>2019-01-04T09:48:44.000Z</Time>
            <Position>
              <LatitudeDegrees>36.5271895565092563629150390625</LatitudeDegrees>
              <LongitudeDegrees>-5.40615630336105823516845703125</LongitudeDegrees>
            </Position>
            <AltitudeMeters>245</AltitudeMeters>
            <DistanceMeters>3044.4719423747</DistanceMeters>
          </Trackpoint>
          <Trackpoint>
            <Time>2019-01-04T09:48:45.000Z</Time>
            <Position>
              <LatitudeDegrees>36.527180336415767669677734375</LatitudeDegrees>
              <LongitudeDegrees>-5.4061681218445301055908203125</LongitudeDegrees>
            </Position>
            <AltitudeMeters>245</AltitudeMeters>
            <DistanceMeters>3045.9440899035</DistanceMeters>
          </Trackpoint>
          <Trackpoint>
            <Time>2019-01-04T09:48:46.000Z</Time>
            <Position>
              <LatitudeDegrees>36.5271697752177715301513671875</LatitudeDegrees>
              <LongitudeDegrees>-5.40617935359477996826171875</LongitudeDegrees>
            </Position>
            <AltitudeMeters>245.1999969482421875</AltitudeMeters>
            <DistanceMeters>3047.4910127386</DistanceMeters>
          </Trackpoint>
          <Trackpoint>
            <Time>2019-01-04T09:48:47.000Z</Time>
            <Position>
              <LatitudeDegrees>36.52716080658137798309326171875</LatitudeDegrees>
              <LongitudeDegrees>-5.40619083680212497711181640625</LongitudeDegrees>
            </Position>
            <AltitudeMeters>245.1999969482421875</AltitudeMeters>
            <DistanceMeters>3048.9227345526</DistanceMeters>
          </Trackpoint>
          <Trackpoint>
            <Time>2019-01-04T09:48:48.000Z</Time>
            <Position>
              <LatitudeDegrees>36.5271479822695255279541015625</LatitudeDegrees>
              <LongitudeDegrees>-5.4062001407146453857421875</LongitudeDegrees>
            </Position>
            <AltitudeMeters>245.399993896484375</AltitudeMeters>
            <DistanceMeters>3050.5741227826</DistanceMeters>
          </Trackpoint>
          <Trackpoint>
            <Time>2019-01-04T09:48:49.000Z</Time>
            <Position>
              <LatitudeDegrees>36.52713448740541934967041015625</LatitudeDegrees>
              <LongitudeDegrees>-5.40620793588459491729736328125</LongitudeDegrees>
            </Position>
            <AltitudeMeters>245.399993896484375</AltitudeMeters>
            <DistanceMeters>3052.2255110126</DistanceMeters>
          </Trackpoint>
          <Trackpoint>
            <Time>2019-01-04T09:48:50.000Z</Time>
            <Position>
              <LatitudeDegrees>36.52712224982678890228271484375</LatitudeDegrees>
              <LongitudeDegrees>-5.4062140546739101409912109375</LongitudeDegrees>
            </Position>
            <AltitudeMeters>245.399993896484375</AltitudeMeters>
            <DistanceMeters>3053.6945883659</DistanceMeters>
          </Trackpoint>
          <Trackpoint>
            <Time>2019-01-04T09:48:51.000Z</Time>
            <Position>
              <LatitudeDegrees>36.527109928429126739501953125</LatitudeDegrees>
              <LongitudeDegrees>-5.4062204249203205108642578125</LongitudeDegrees>
            </Position>
            <AltitudeMeters>245.399993896484375</AltitudeMeters>
            <DistanceMeters>3055.1789530961</DistanceMeters>
          </Trackpoint>
          <Trackpoint>
            <Time>2019-01-04T09:48:52.000Z</Time>
            <Position>
              <LatitudeDegrees>36.5270976908504962921142578125</LatitudeDegrees>
              <LongitudeDegrees>-5.4062264598906040191650390625</LongitudeDegrees>
            </Position>
            <AltitudeMeters>245.399993896484375</AltitudeMeters>
            <DistanceMeters>3056.6387811822</DistanceMeters>
          </Trackpoint>
          <Trackpoint>
            <Time>2019-01-04T09:48:53.000Z</Time>
            <Position>
              <LatitudeDegrees>36.52708612382411956787109375</LatitudeDegrees>
              <LongitudeDegrees>-5.40623257867991924285888671875</LongitudeDegrees>
            </Position>
            <AltitudeMeters>245.399993896484375</AltitudeMeters>
            <DistanceMeters>3058.035382955</DistanceMeters>
          </Trackpoint>
          <Trackpoint>
            <Time>2019-01-04T09:48:54.000Z</Time>
            <Position>
              <LatitudeDegrees>36.52707397006452083587646484375</LatitudeDegrees>
              <LongitudeDegrees>-5.40623676963150501251220703125</LongitudeDegrees>
            </Position>
            <AltitudeMeters>245.399993896484375</AltitudeMeters>
            <DistanceMeters>3059.4319847279</DistanceMeters>
          </Trackpoint>
          <Trackpoint>
            <Time>2019-01-04T09:48:55.000Z</Time>
            <Position>
              <LatitudeDegrees>36.527060978114604949951171875</LatitudeDegrees>
              <LongitudeDegrees>-5.40624213404953479766845703125</LongitudeDegrees>
            </Position>
            <AltitudeMeters>245.399993896484375</AltitudeMeters>
            <DistanceMeters>3060.9524121578</DistanceMeters>
          </Trackpoint>
          <Trackpoint>
            <Time>2019-01-04T09:48:56.000Z</Time>
            <Position>
              <LatitudeDegrees>36.52704865671694278717041015625</LatitudeDegrees>
              <LongitudeDegrees>-5.40624347515404224395751953125</LongitudeDegrees>
            </Position>
            <AltitudeMeters>245.600006103515625</AltitudeMeters>
            <DistanceMeters>3062.3261974309</DistanceMeters>
          </Trackpoint>
          <Trackpoint>
            <Time>2019-01-04T09:48:57.000Z</Time>
            <Position>
              <LatitudeDegrees>36.52703491039574146270751953125</LatitudeDegrees>
              <LongitudeDegrees>-5.40624783374369144439697265625</LongitudeDegrees>
            </Position>
            <AltitudeMeters>245.600006103515625</AltitudeMeters>
            <DistanceMeters>3063.9048997773</DistanceMeters>
          </Trackpoint>
          <Trackpoint>
            <Time>2019-01-04T09:48:58.000Z</Time>
            <Position>
              <LatitudeDegrees>36.5270192362368106842041015625</LatitudeDegrees>
              <LongitudeDegrees>-5.406252443790435791015625</LongitudeDegrees>
            </Position>
            <AltitudeMeters>245.600006103515625</AltitudeMeters>
            <DistanceMeters>3065.6978602382</DistanceMeters>
          </Trackpoint>
          <Trackpoint>
            <Time>2019-01-04T09:48:59.000Z</Time>
            <Position>
              <LatitudeDegrees>36.52700356207787990570068359375</LatitudeDegrees>
              <LongitudeDegrees>-5.4062519408762454986572265625</LongitudeDegrees>
            </Position>
            <AltitudeMeters>245.8000030517578125</AltitudeMeters>
            <DistanceMeters>3067.4423188251</DistanceMeters>
          </Trackpoint>
          <Trackpoint>
            <Time>2019-01-04T09:49:00.000Z</Time>
            <Position>
              <LatitudeDegrees>36.52698646299540996551513671875</LatitudeDegrees>
              <LongitudeDegrees>-5.4062522761523723602294921875</LongitudeDegrees>
            </Position>
            <AltitudeMeters>245.8000030517578125</AltitudeMeters>
            <DistanceMeters>3069.3452272974</DistanceMeters>
          </Trackpoint>
          <Trackpoint>
            <Time>2019-01-04T09:49:01.000Z</Time>
            <Position>
              <LatitudeDegrees>36.52697078883647918701171875</LatitudeDegrees>
              <LongitudeDegrees>-5.4062536172568798065185546875</LongitudeDegrees>
            </Position>
            <AltitudeMeters>245.8000030517578125</AltitudeMeters>
            <DistanceMeters>3071.0922721847</DistanceMeters>
          </Trackpoint>
          <Trackpoint>
            <Time>2019-01-04T09:49:02.000Z</Time>
            <Position>
              <LatitudeDegrees>36.526955030858516693115234375</LatitudeDegrees>
              <LongitudeDegrees>-5.40624984540045261383056640625</LongitudeDegrees>
            </Position>
            <AltitudeMeters>246</AltitudeMeters>
            <DistanceMeters>3072.8776620538</DistanceMeters>
          </Trackpoint>
          <Trackpoint>
            <Time>2019-01-04T09:49:03.000Z</Time>
            <Position>
              <LatitudeDegrees>36.52694069780409336090087890625</LatitudeDegrees>
              <LongitudeDegrees>-5.40624615736305713653564453125</LongitudeDegrees>
            </Position>
            <AltitudeMeters>246</AltitudeMeters>
            <DistanceMeters>3074.5070307888</DistanceMeters>
          </Trackpoint>
          <Trackpoint>
            <Time>2019-01-04T09:49:04.000Z</Time>
            <Position>
              <LatitudeDegrees>36.52692846022546291351318359375</LatitudeDegrees>
              <LongitudeDegrees>-5.4062449000775814056396484375</LongitudeDegrees>
            </Position>
            <AltitudeMeters>246</AltitudeMeters>
            <DistanceMeters>3075.8709207211</DistanceMeters>
          </Trackpoint>
          <Trackpoint>
            <Time>2019-01-04T09:49:05.000Z</Time>
            <Position>
              <LatitudeDegrees>36.5269149653613567352294921875</LatitudeDegrees>
              <LongitudeDegrees>-5.40624372661113739013671875</LongitudeDegrees>
            </Position>
            <AltitudeMeters>246</AltitudeMeters>
            <DistanceMeters>3077.3764270105</DistanceMeters>
          </Trackpoint>
          <Trackpoint>
            <Time>2019-01-04T09:49:06.000Z</Time>
            <Position>
              <LatitudeDegrees>36.5268998779356479644775390625</LatitudeDegrees>
              <LongitudeDegrees>-5.40624347515404224395751953125</LongitudeDegrees>
            </Position>
            <AltitudeMeters>246</AltitudeMeters>
            <DistanceMeters>3079.0549334449</DistanceMeters>
          </Trackpoint>
          <Trackpoint>
            <Time>2019-01-04T09:49:07.000Z</Time>
            <Position>
              <LatitudeDegrees>36.52688655070960521697998046875</LatitudeDegrees>
              <LongitudeDegrees>-5.40623844601213932037353515625</LongitudeDegrees>
            </Position>
            <AltitudeMeters>246</AltitudeMeters>
            <DistanceMeters>3080.604772254</DistanceMeters>
          </Trackpoint>
          <Trackpoint>
            <Time>2019-01-04T09:49:08.000Z</Time>
            <Position>
              <LatitudeDegrees>36.52687515132129192352294921875</LatitudeDegrees>
              <LongitudeDegrees>-5.4062271304428577423095703125</LongitudeDegrees>
            </Position>
            <AltitudeMeters>246</AltitudeMeters>
            <DistanceMeters>3082.228589461</DistanceMeters>
          </Trackpoint>
          <Trackpoint>
            <Time>2019-01-04T09:49:09.000Z</Time>
            <Position>
              <LatitudeDegrees>36.526863165199756622314453125</LatitudeDegrees>
              <LongitudeDegrees>-5.4062167368829250335693359375</LongitudeDegrees>
            </Position>
            <AltitudeMeters>246</AltitudeMeters>
            <DistanceMeters>3083.8551848003</DistanceMeters>
          </Trackpoint>
          <Trackpoint>
            <Time>2019-01-04T09:49:10.000Z</Time>
            <Position>
              <LatitudeDegrees>36.52684782631695270538330078125</LatitudeDegrees>
              <LongitudeDegrees>-5.40621028281748294830322265625</LongitudeDegrees>
            </Position>
            <AltitudeMeters>246</AltitudeMeters>
            <DistanceMeters>3085.6581899362</DistanceMeters>
          </Trackpoint>
          <Trackpoint>
            <Time>2019-01-04T09:49:11.000Z</Time>
            <Position>
              <LatitudeDegrees>36.52683592401444911956787109375</LatitudeDegrees>
              <LongitudeDegrees>-5.406197793781757354736328125</LongitudeDegrees>
            </Position>
            <AltitudeMeters>246</AltitudeMeters>
            <DistanceMeters>3087.3896590752</DistanceMeters>
          </Trackpoint>
          <Trackpoint>
            <Time>2019-01-04T09:49:12.000Z</Time>
            <Position>
              <LatitudeDegrees>36.5268247760832309722900390625</LatitudeDegrees>
              <LongitudeDegrees>-5.4061889089643955230712890625</LongitudeDegrees>
            </Position>
            <AltitudeMeters>245.8000030517578125</AltitudeMeters>
            <DistanceMeters>3088.861806604</DistanceMeters>
          </Trackpoint>
          <Trackpoint>
            <Time>2019-01-04T09:49:13.000Z</Time>
            <Position>
              <LatitudeDegrees>36.52681262232363224029541015625</LatitudeDegrees>
              <LongitudeDegrees>-5.4061808623373508453369140625</LongitudeDegrees>
            </Position>
            <AltitudeMeters>245.8000030517578125</AltitudeMeters>
            <DistanceMeters>3090.3911168403</DistanceMeters>
          </Trackpoint>
          <Trackpoint>
            <Time>2019-01-04T09:49:14.000Z</Time>
            <Position>
              <LatitudeDegrees>36.52680021710693836212158203125</LatitudeDegrees>
              <LongitudeDegrees>-5.4061694629490375518798828125</LongitudeDegrees>
            </Position>
            <AltitudeMeters>245.8000030517578125</AltitudeMeters>
            <DistanceMeters>3092.106868839</DistanceMeters>
          </Trackpoint>
          <Trackpoint>
            <Time>2019-01-04T09:49:15.000Z</Time>
            <Position>
              <LatitudeDegrees>36.5267858840525150299072265625</LatitudeDegrees>
              <LongitudeDegrees>-5.4061563871800899505615234375</LongitudeDegrees>
            </Position>
            <AltitudeMeters>245.600006103515625</AltitudeMeters>
            <DistanceMeters>3094.0865287028</DistanceMeters>
          </Trackpoint>
          <Trackpoint>
            <Time>2019-01-04T09:49:16.000Z</Time>
            <Position>
              <LatitudeDegrees>36.5267704613506793975830078125</LatitudeDegrees>
              <LongitudeDegrees>-5.40614741854369640350341796875</LongitudeDegrees>
            </Position>
            <AltitudeMeters>245.600006103515625</AltitudeMeters>
            <DistanceMeters>3095.9823057005</DistanceMeters>
          </Trackpoint>
          <Trackpoint>
            <Time>2019-01-04T09:49:17.000Z</Time>
            <Position>
              <LatitudeDegrees>36.52675411663949489593505859375</LatitudeDegrees>
              <LongitudeDegrees>-5.40613937191665172576904296875</LongitudeDegrees>
            </Position>
            <AltitudeMeters>245.600006103515625</AltitudeMeters>
            <DistanceMeters>3097.9390255098</DistanceMeters>
          </Trackpoint>
          <Trackpoint>
            <Time>2019-01-04T09:49:18.000Z</Time>
            <Position>
              <LatitudeDegrees>36.526739783585071563720703125</LatitudeDegrees>
              <LongitudeDegrees>-5.4061305709183216094970703125</LongitudeDegrees>
            </Position>
            <AltitudeMeters>245.600006103515625</AltitudeMeters>
            <DistanceMeters>3099.7142710362</DistanceMeters>
          </Trackpoint>
          <Trackpoint>
            <Time>2019-01-04T09:49:19.000Z</Time>
            <Position>
              <LatitudeDegrees>36.52672578580677509307861328125</LatitudeDegrees>
              <LongitudeDegrees>-5.4061218537390232086181640625</LongitudeDegrees>
            </Position>
            <AltitudeMeters>245.600006103515625</AltitudeMeters>
            <DistanceMeters>3101.4535454851</DistanceMeters>
          </Trackpoint>
          <Trackpoint>
            <Time>2019-01-04T09:49:20.000Z</Time>
            <Position>
              <LatitudeDegrees>36.52671153657138347625732421875</LatitudeDegrees>
              <LongitudeDegrees>-5.40611640550196170806884765625</LongitudeDegrees>
            </Position>
            <AltitudeMeters>245.600006103515625</AltitudeMeters>
            <DistanceMeters>3103.1103928646</DistanceMeters>
          </Trackpoint>
          <Trackpoint>
            <Time>2019-01-04T09:49:21.000Z</Time>
            <Position>
              <LatitudeDegrees>36.52669661678373813629150390625</LatitudeDegrees>
              <LongitudeDegrees>-5.406113304197788238525390625</LongitudeDegrees>
            </Position>
            <AltitudeMeters>245.600006103515625</AltitudeMeters>
            <DistanceMeters>3104.7915870613</DistanceMeters>
          </Trackpoint>
          <Trackpoint>
            <Time>2019-01-04T09:49:22.000Z</Time>
            <Position>
              <LatitudeDegrees>36.52668245136737823486328125</LatitudeDegrees>
              <LongitudeDegrees>-5.4061111249029636383056640625</LongitudeDegrees>
            </Position>
            <AltitudeMeters>245.600006103515625</AltitudeMeters>
            <DistanceMeters>3106.3816881286</DistanceMeters>
          </Trackpoint>
          <Trackpoint>
            <Time>2019-01-04T09:49:23.000Z</Time>
            <Position>
              <LatitudeDegrees>36.526668034493923187255859375</LatitudeDegrees>
              <LongitudeDegrees>-5.40610768832266330718994140625</LongitudeDegrees>
            </Position>
            <AltitudeMeters>245.8000030517578125</AltitudeMeters>
            <DistanceMeters>3108.0110568636</DistanceMeters>
          </Trackpoint>
          <Trackpoint>
            <Time>2019-01-04T09:49:24.000Z</Time>
            <Position>
              <LatitudeDegrees>36.5266524441540241241455078125</LatitudeDegrees>
              <LongitudeDegrees>-5.406104587018489837646484375</LongitudeDegrees>
            </Position>
            <AltitudeMeters>246</AltitudeMeters>
            <DistanceMeters>3109.7684088897</DistanceMeters>
          </Trackpoint>
          <Trackpoint>
            <Time>2019-01-04T09:49:25.000Z</Time>
            <Position>
              <LatitudeDegrees>36.52663676999509334564208984375</LatitudeDegrees>
              <LongitudeDegrees>-5.40610115043818950653076171875</LongitudeDegrees>
            </Position>
            <AltitudeMeters>246</AltitudeMeters>
            <DistanceMeters>3111.5411092599</DistanceMeters>
          </Trackpoint>
          <Trackpoint>
            <Time>2019-01-04T09:49:26.000Z</Time>
            <Position>
              <LatitudeDegrees>36.52662319131195545196533203125</LatitudeDegrees>
              <LongitudeDegrees>-5.40610081516206264495849609375</LongitudeDegrees>
            </Position>
            <AltitudeMeters>246.1999969482421875</AltitudeMeters>
            <DistanceMeters>3113.0526016815</DistanceMeters>
          </Trackpoint>
          <Trackpoint>
            <Time>2019-01-04T09:49:27.000Z</Time>
            <Position>
              <LatitudeDegrees>36.52660894207656383514404296875</LatitudeDegrees>
              <LongitudeDegrees>-5.4060953669250011444091796875</LongitudeDegrees>
            </Position>
            <AltitudeMeters>246.399993896484375</AltitudeMeters>
            <DistanceMeters>3114.709449061</DistanceMeters>
          </Trackpoint>
          <Trackpoint>
            <Time>2019-01-04T09:49:28.000Z</Time>
            <Position>
              <LatitudeDegrees>36.52659402228891849517822265625</LatitudeDegrees>
              <LongitudeDegrees>-5.40609293617308139801025390625</LongitudeDegrees>
            </Position>
            <AltitudeMeters>246.399993896484375</AltitudeMeters>
            <DistanceMeters>3116.3798662607</DistanceMeters>
          </Trackpoint>
          <Trackpoint>
            <Time>2019-01-04T09:49:29.000Z</Time>
            <Position>
              <LatitudeDegrees>36.526578851044178009033203125</LatitudeDegrees>
              <LongitudeDegrees>-5.40608958341181278228759765625</LongitudeDegrees>
            </Position>
            <AltitudeMeters>246.399993896484375</AltitudeMeters>
            <DistanceMeters>3118.0956182593</DistanceMeters>
          </Trackpoint>
          <Trackpoint>
            <Time>2019-01-04T09:49:30.000Z</Time>
            <Position>
              <LatitudeDegrees>36.5265662781894207000732421875</LatitudeDegrees>
              <LongitudeDegrees>-5.40609159506857395172119140625</LongitudeDegrees>
            </Position>
            <AltitudeMeters>246.399993896484375</AltitudeMeters>
            <DistanceMeters>3119.5114844149</DistanceMeters>
          </Trackpoint>
          <Trackpoint>
            <Time>2019-01-04T09:49:31.000Z</Time>
            <Position>
              <LatitudeDegrees>36.5265521965920925140380859375</LatitudeDegrees>
              <LongitudeDegrees>-5.40608857758343219757080078125</LongitudeDegrees>
            </Position>
            <AltitudeMeters>246.399993896484375</AltitudeMeters>
            <DistanceMeters>3121.1015854822</DistanceMeters>
          </Trackpoint>
          <Trackpoint>
            <Time>2019-01-04T09:49:32.000Z</Time>
            <Position>
              <LatitudeDegrees>36.52654155157506465911865234375</LatitudeDegrees>
              <LongitudeDegrees>-5.40608556009829044342041015625</LongitudeDegrees>
            </Position>
            <AltitudeMeters>246.399993896484375</AltitudeMeters>
            <DistanceMeters>3122.3148053553</DistanceMeters>
          </Trackpoint>
          <Trackpoint>
            <Time>2019-01-04T09:49:33.000Z</Time>
            <Position>
              <LatitudeDegrees>36.52653015218675136566162109375</LatitudeDegrees>
              <LongitudeDegrees>-5.40608203969895839691162109375</LongitudeDegrees>
            </Position>
            <AltitudeMeters>246.1999969482421875</AltitudeMeters>
            <DistanceMeters>3123.6246582189</DistanceMeters>
          </Trackpoint>
          <Trackpoint>
            <Time>2019-01-04T09:49:34.000Z</Time>
            <Position>
              <LatitudeDegrees>36.52651724405586719512939453125</LatitudeDegrees>
              <LongitudeDegrees>-5.40608321316540241241455078125</LongitudeDegrees>
            </Position>
            <AltitudeMeters>246.399993896484375</AltitudeMeters>
            <DistanceMeters>3125.0658096968</DistanceMeters>
          </Trackpoint>
          <Trackpoint>
            <Time>2019-01-04T09:49:35.000Z</Time>
            <Position>
              <LatitudeDegrees>36.52650400064885616302490234375</LatitudeDegrees>
              <LongitudeDegrees>-5.40608220733702182769775390625</LongitudeDegrees>
            </Position>
            <AltitudeMeters>246.399993896484375</AltitudeMeters>
            <DistanceMeters>3126.5440784475</DistanceMeters>
          </Trackpoint>
          <Trackpoint>
            <Time>2019-01-04T09:49:36.000Z</Time>
            <Position>
              <LatitudeDegrees>36.526493020355701446533203125</LatitudeDegrees>
              <LongitudeDegrees>-5.40607885457575321197509765625</LongitudeDegrees>
            </Position>
            <AltitudeMeters>246.399993896484375</AltitudeMeters>
            <DistanceMeters>3127.804750274</DistanceMeters>
          </Trackpoint>
          <Trackpoint>
            <Time>2019-01-04T09:49:37.000Z</Time>
            <Position>
              <LatitudeDegrees>36.52648187242448329925537109375</LatitudeDegrees>
              <LongitudeDegrees>-5.40607600472867488861083984375</LongitudeDegrees>
            </Position>
            <AltitudeMeters>246.399993896484375</AltitudeMeters>
            <DistanceMeters>3129.0689984817</DistanceMeters>
          </Trackpoint>
          <Trackpoint>
            <Time>2019-01-04T09:49:38.000Z</Time>
            <Position>
              <LatitudeDegrees>36.52646896429359912872314453125</LatitudeDegrees>
              <LongitudeDegrees>-5.4060735739767551422119140625</LongitudeDegrees>
            </Position>
            <AltitudeMeters>246.399993896484375</AltitudeMeters>
            <DistanceMeters>3130.5195183235</DistanceMeters>
          </Trackpoint>
          <Trackpoint>
            <Time>2019-01-04T09:49:39.000Z</Time>
            <Position>
              <LatitudeDegrees>36.52645538561046123504638671875</LatitudeDegrees>
              <LongitudeDegrees>-5.40607231669127941131591796875</LongitudeDegrees>
            </Position>
            <AltitudeMeters>246.399993896484375</AltitudeMeters>
            <DistanceMeters>3132.0339949383</DistanceMeters>
          </Trackpoint>
          <Trackpoint>
            <Time>2019-01-04T09:49:40.000Z</Time>
            <Position>
              <LatitudeDegrees>36.52644105255603790283203125</LatitudeDegrees>
              <LongitudeDegrees>-5.406069047749042510986328125</LongitudeDegrees>
            </Position>
            <AltitudeMeters>246.399993896484375</AltitudeMeters>
            <DistanceMeters>3133.6578121452</DistanceMeters>
          </Trackpoint>
          <Trackpoint>
            <Time>2019-01-04T09:49:41.000Z</Time>
            <Position>
              <LatitudeDegrees>36.5264288149774074554443359375</LatitudeDegrees>
              <LongitudeDegrees>-5.40607013739645481109619140625</LongitudeDegrees>
            </Position>
            <AltitudeMeters>246.399993896484375</AltitudeMeters>
            <DistanceMeters>3135.0217020775</DistanceMeters>
          </Trackpoint>
          <Trackpoint>
            <Time>2019-01-04T09:49:42.000Z</Time>
            <Position>
              <LatitudeDegrees>36.52641565538942813873291015625</LatitudeDegrees>
              <LongitudeDegrees>-5.40607013739645481109619140625</LongitudeDegrees>
            </Position>
            <AltitudeMeters>246.399993896484375</AltitudeMeters>
            <DistanceMeters>3136.4877028257</DistanceMeters>
          </Trackpoint>
          <Trackpoint>
            <Time>2019-01-04T09:49:43.000Z</Time>
            <Position>
              <LatitudeDegrees>36.5264013223350048065185546875</LatitudeDegrees>
              <LongitudeDegrees>-5.4060698859393596649169921875</LongitudeDegrees>
            </Position>
            <AltitudeMeters>246.600006103515625</AltitudeMeters>
            <DistanceMeters>3138.0834727205</DistanceMeters>
          </Trackpoint>
          <Trackpoint>
            <Time>2019-01-04T09:49:44.000Z</Time>
            <Position>
              <LatitudeDegrees>36.52638849802315235137939453125</LatitudeDegrees>
              <LongitudeDegrees>-5.40606376715004444122314453125</LongitudeDegrees>
            </Position>
            <AltitudeMeters>246.600006103515625</AltitudeMeters>
            <DistanceMeters>3139.6127829569</DistanceMeters>
          </Trackpoint>
          <Trackpoint>
            <Time>2019-01-04T09:49:45.000Z</Time>
            <Position>
              <LatitudeDegrees>36.52637659572064876556396484375</LatitudeDegrees>
              <LongitudeDegrees>-5.406058318912982940673828125</LongitudeDegrees>
            </Position>
            <AltitudeMeters>246.8000030517578125</AltitudeMeters>
            <DistanceMeters>3141.0222569076</DistanceMeters>
          </Trackpoint>
          <Trackpoint>
            <Time>2019-01-04T09:49:46.000Z</Time>
            <Position>
              <LatitudeDegrees>36.52636419050395488739013671875</LatitudeDegrees>
              <LongitudeDegrees>-5.40605463087558746337890625</LongitudeDegrees>
            </Position>
            <AltitudeMeters>246.8000030517578125</AltitudeMeters>
            <DistanceMeters>3142.4413083679</DistanceMeters>
          </Trackpoint>
          <Trackpoint>
            <Time>2019-01-04T09:49:47.000Z</Time>
            <Position>
              <LatitudeDegrees>36.52635161764919757843017578125</LatitudeDegrees>
              <LongitudeDegrees>-5.4060499370098114013671875</LongitudeDegrees>
            </Position>
            <AltitudeMeters>246.8000030517578125</AltitudeMeters>
            <DistanceMeters>3143.8980403145</DistanceMeters>
          </Trackpoint>
          <Trackpoint>
            <Time>2019-01-04T09:49:48.000Z</Time>
            <Position>
              <LatitudeDegrees>36.5263386256992816925048828125</LatitudeDegrees>
              <LongitudeDegrees>-5.4060445725917816162109375</LongitudeDegrees>
            </Position>
            <AltitudeMeters>246.8000030517578125</AltitudeMeters>
            <DistanceMeters>3145.4184677444</DistanceMeters>
          </Trackpoint>
          <Trackpoint>
            <Time>2019-01-04T09:49:49.000Z</Time>
            <Position>
              <LatitudeDegrees>36.52632731013000011444091796875</LatitudeDegrees>
              <LongitudeDegrees>-5.4060392081737518310546875</LongitudeDegrees>
            </Position>
            <AltitudeMeters>246.8000030517578125</AltitudeMeters>
            <DistanceMeters>3146.7657039395</DistanceMeters>
          </Trackpoint>
          <Trackpoint>
            <Time>2019-01-04T09:49:50.000Z</Time>
            <Position>
              <LatitudeDegrees>36.5263144858181476593017578125</LatitudeDegrees>
              <LongitudeDegrees>-5.40603677742183208465576171875</LongitudeDegrees>
            </Position>
            <AltitudeMeters>246.8000030517578125</AltitudeMeters>
            <DistanceMeters>3148.2068554173</DistanceMeters>
          </Trackpoint>
          <Trackpoint>
            <Time>2019-01-04T09:49:51.000Z</Time>
            <Position>
              <LatitudeDegrees>36.526301912963390350341796875</LatitudeDegrees>
              <LongitudeDegrees>-5.4060340113937854766845703125</LongitudeDegrees>
            </Position>
            <AltitudeMeters>246.600006103515625</AltitudeMeters>
            <DistanceMeters>3149.6259068776</DistanceMeters>
          </Trackpoint>
          <Trackpoint>
            <Time>2019-01-04T09:49:52.000Z</Time>
            <Position>
              <LatitudeDegrees>36.526285819709300994873046875</LatitudeDegrees>
              <LongitudeDegrees>-5.40603141300380229949951171875</LongitudeDegrees>
            </Position>
            <AltitudeMeters>246.399993896484375</AltitudeMeters>
            <DistanceMeters>3151.4339134243</DistanceMeters>
          </Trackpoint>
          <Trackpoint>
            <Time>2019-01-04T09:49:53.000Z</Time>
            <Position>
              <LatitudeDegrees>36.52626897208392620086669921875</LatitudeDegrees>
              <LongitudeDegrees>-5.4060283116996288299560546875</LongitudeDegrees>
            </Position>
            <AltitudeMeters>246.1999969482421875</AltitudeMeters>
            <DistanceMeters>3153.3296904219</DistanceMeters>
          </Trackpoint>
          <Trackpoint>
            <Time>2019-01-04T09:49:54.000Z</Time>
            <Position>
              <LatitudeDegrees>36.52625195682048797607421875</LatitudeDegrees>
              <LongitudeDegrees>-5.40602386929094791412353515625</LongitudeDegrees>
            </Position>
            <AltitudeMeters>246.1999969482421875</AltitudeMeters>
            <DistanceMeters>3155.2631980241</DistanceMeters>
          </Trackpoint>
          <Trackpoint>
            <Time>2019-01-04T09:49:55.000Z</Time>
            <Position>
              <LatitudeDegrees>36.526232846081256866455078125</LatitudeDegrees>
              <LongitudeDegrees>-5.4060242883861064910888671875</LongitudeDegrees>
            </Position>
            <AltitudeMeters>246</AltitudeMeters>
            <DistanceMeters>3157.3923054368</DistanceMeters>
          </Trackpoint>
          <Trackpoint>
            <Time>2019-01-04T09:49:56.000Z</Time>
            <Position>
              <LatitudeDegrees>36.526217423379421234130859375</LatitudeDegrees>
              <LongitudeDegrees>-5.40602118708193302154541015625</LongitudeDegrees>
            </Position>
            <AltitudeMeters>246</AltitudeMeters>
            <DistanceMeters>3159.1315798857</DistanceMeters>
          </Trackpoint>
          <Trackpoint>
            <Time>2019-01-04T09:49:57.000Z</Time>
            <Position>
              <LatitudeDegrees>36.526201330125331878662109375</LatitudeDegrees>
              <LongitudeDegrees>-5.406018085777759552001953125</LongitudeDegrees>
            </Position>
            <AltitudeMeters>246.1999969482421875</AltitudeMeters>
            <DistanceMeters>3160.9420819568</DistanceMeters>
          </Trackpoint>
          <Trackpoint>
            <Time>2019-01-04T09:49:58.000Z</Time>
            <Position>
              <LatitudeDegrees>36.5261860750615596771240234375</LatitudeDegrees>
              <LongitudeDegrees>-5.4060150682926177978515625</LongitudeDegrees>
            </Position>
            <AltitudeMeters>246.1999969482421875</AltitudeMeters>
            <DistanceMeters>3162.6630889508</DistanceMeters>
          </Trackpoint>
          <Trackpoint>
            <Time>2019-01-04T09:49:59.000Z</Time>
            <Position>
              <LatitudeDegrees>36.52617207728326320648193359375</LatitudeDegrees>
              <LongitudeDegrees>-5.40601414628326892852783203125</LongitudeDegrees>
            </Position>
            <AltitudeMeters>246.1999969482421875</AltitudeMeters>
            <DistanceMeters>3164.2245372016</DistanceMeters>
          </Trackpoint>
          <Trackpoint>
            <Time>2019-01-04T09:50:00.000Z</Time>
            <Position>
              <LatitudeDegrees>36.52616000734269618988037109375</LatitudeDegrees>
              <LongitudeDegrees>-5.4060123860836029052734375</LongitudeDegrees>
            </Position>
            <AltitudeMeters>246.399993896484375</AltitudeMeters>
            <DistanceMeters>3165.5751205725</DistanceMeters>
          </Trackpoint>
          <Trackpoint>
            <Time>2019-01-04T09:50:01.000Z</Time>
            <Position>
              <LatitudeDegrees>36.5261458419263362884521484375</LatitudeDegrees>
              <LongitudeDegrees>-5.40600727312266826629638671875</LongitudeDegrees>
            </Position>
            <AltitudeMeters>246.399993896484375</AltitudeMeters>
            <DistanceMeters>3167.2155360017</DistanceMeters>
          </Trackpoint>
          <Trackpoint>
            <Time>2019-01-04T09:50:02.000Z</Time>
            <Position>
              <LatitudeDegrees>36.52613259851932525634765625</LatitudeDegrees>
              <LongitudeDegrees>-5.40600274689495563507080078125</LongitudeDegrees>
            </Position>
            <AltitudeMeters>246.399993896484375</AltitudeMeters>
            <DistanceMeters>3168.7477957301</DistanceMeters>
          </Trackpoint>
          <Trackpoint>
            <Time>2019-01-04T09:50:03.000Z</Time>
            <Position>
              <LatitudeDegrees>36.5261171758174896240234375</LatitudeDegrees>
              <LongitudeDegrees>-5.4059974662959575653076171875</LongitudeDegrees>
            </Position>
            <AltitudeMeters>246.1999969482421875</AltitudeMeters>
            <DistanceMeters>3170.5306549249</DistanceMeters>
          </Trackpoint>
          <Trackpoint>
            <Time>2019-01-04T09:50:04.000Z</Time>
            <Position>
              <LatitudeDegrees>36.5261039324104785919189453125</LatitudeDegrees>
              <LongitudeDegrees>-5.4059907607734203338623046875</LongitudeDegrees>
            </Position>
            <AltitudeMeters>246.1999969482421875</AltitudeMeters>
            <DistanceMeters>3172.1235929276</DistanceMeters>
          </Trackpoint>
          <Trackpoint>
            <Time>2019-01-04T09:50:05.000Z</Time>
            <Position>
              <LatitudeDegrees>36.52609211392700672149658203125</LatitudeDegrees>
              <LongitudeDegrees>-5.4059843905270099639892578125</LongitudeDegrees>
            </Position>
            <AltitudeMeters>246.1999969482421875</AltitudeMeters>
            <DistanceMeters>3173.5584648485</DistanceMeters>
          </Trackpoint>
          <Trackpoint>
            <Time>2019-01-04T09:50:06.000Z</Time>
            <Position>
              <LatitudeDegrees>36.52607920579612255096435546875</LatitudeDegrees>
              <LongitudeDegrees>-5.405979193747043609619140625</LongitudeDegrees>
            </Position>
            <AltitudeMeters>246.1999969482421875</AltitudeMeters>
            <DistanceMeters>3175.06995727</DistanceMeters>
          </Trackpoint>
          <Trackpoint>
            <Time>2019-01-04T09:50:07.000Z</Time>
            <Position>
              <LatitudeDegrees>36.52606554329395294189453125</LatitudeDegrees>
              <LongitudeDegrees>-5.40597307495772838592529296875</LongitudeDegrees>
            </Position>
            <AltitudeMeters>246.1999969482421875</AltitudeMeters>
            <DistanceMeters>3176.6882039041</DistanceMeters>
          </Trackpoint>
          <Trackpoint>
            <Time>2019-01-04T09:50:08.000Z</Time>
            <Position>
              <LatitudeDegrees>36.5260501205921173095703125</LatitudeDegrees>
              <LongitudeDegrees>-5.40596544742584228515625</LongitudeDegrees>
            </Position>
            <AltitudeMeters>246.1999969482421875</AltitudeMeters>
            <DistanceMeters>3178.5357343899</DistanceMeters>
          </Trackpoint>
          <Trackpoint>
            <Time>2019-01-04T09:50:09.000Z</Time>
            <Position>
              <LatitudeDegrees>36.52603411115705966949462890625</LatitudeDegrees>
              <LongitudeDegrees>-5.405962765216827392578125</LongitudeDegrees>
            </Position>
            <AltitudeMeters>246</AltitudeMeters>
            <DistanceMeters>3180.3337242027</DistanceMeters>
          </Trackpoint>
          <Trackpoint>
            <Time>2019-01-04T09:50:10.000Z</Time>
            <Position>
              <LatitudeDegrees>36.52601969428360462188720703125</LatitudeDegrees>
              <LongitudeDegrees>-5.4059585742652416229248046875</LongitudeDegrees>
            </Position>
            <AltitudeMeters>246</AltitudeMeters>
            <DistanceMeters>3181.9796351763</DistanceMeters>
          </Trackpoint>
          <Trackpoint>
            <Time>2019-01-04T09:50:11.000Z</Time>
            <Position>
              <LatitudeDegrees>36.5260063670575618743896484375</LatitudeDegrees>
              <LongitudeDegrees>-5.405950360000133514404296875</LongitudeDegrees>
            </Position>
            <AltitudeMeters>246</AltitudeMeters>
            <DistanceMeters>3183.6310234063</DistanceMeters>
          </Trackpoint>
          <Trackpoint>
            <Time>2019-01-04T09:50:12.000Z</Time>
            <Position>
              <LatitudeDegrees>36.5259922854602336883544921875</LatitudeDegrees>
              <LongitudeDegrees>-5.4059444926679134368896484375</LongitudeDegrees>
            </Position>
            <AltitudeMeters>245.8000030517578125</AltitudeMeters>
            <DistanceMeters>3185.2796752827</DistanceMeters>
          </Trackpoint>
          <Trackpoint>
            <Time>2019-01-04T09:50:13.000Z</Time>
            <Position>
              <LatitudeDegrees>36.52597795240581035614013671875</LatitudeDegrees>
              <LongitudeDegrees>-5.40593870915472507476806640625</LongitudeDegrees>
            </Position>
            <AltitudeMeters>245.600006103515625</AltitudeMeters>
            <DistanceMeters>3186.9581817172</DistanceMeters>
          </Trackpoint>
          <Trackpoint>
            <Time>2019-01-04T09:50:14.000Z</Time>
            <Position>
              <LatitudeDegrees>36.5259641222655773162841796875</LatitudeDegrees>
              <LongitudeDegrees>-5.40593468584120273590087890625</LongitudeDegrees>
            </Position>
            <AltitudeMeters>245.600006103515625</AltitudeMeters>
            <DistanceMeters>3188.5397414457</DistanceMeters>
          </Trackpoint>
          <Trackpoint>
            <Time>2019-01-04T09:50:15.000Z</Time>
            <Position>
              <LatitudeDegrees>36.525951214134693145751953125</LatitudeDegrees>
              <LongitudeDegrees>-5.4059346020221710205078125</LongitudeDegrees>
            </Position>
            <AltitudeMeters>245.399993896484375</AltitudeMeters>
            <DistanceMeters>3189.9746133666</DistanceMeters>
          </Trackpoint>
          <Trackpoint>
            <Time>2019-01-04T09:50:16.000Z</Time>
            <Position>
              <LatitudeDegrees>36.525938473641872406005859375</LatitudeDegrees>
              <LongitudeDegrees>-5.4059334285557270050048828125</LongitudeDegrees>
            </Position>
            <AltitudeMeters>245.399993896484375</AltitudeMeters>
            <DistanceMeters>3191.3968429976</DistanceMeters>
          </Trackpoint>
          <Trackpoint>
            <Time>2019-01-04T09:50:17.000Z</Time>
            <Position>
              <LatitudeDegrees>36.52592682279646396636962890625</LatitudeDegrees>
              <LongitudeDegrees>-5.40593032725155353546142578125</LongitudeDegrees>
            </Position>
            <AltitudeMeters>245.1999969482421875</AltitudeMeters>
            <DistanceMeters>3192.7204119721</DistanceMeters>
          </Trackpoint>
          <Trackpoint>
            <Time>2019-01-04T09:50:18.000Z</Time>
            <Position>
              <LatitudeDegrees>36.525911651551723480224609375</LatitudeDegrees>
              <LongitudeDegrees>-5.40592697449028491973876953125</LongitudeDegrees>
            </Position>
            <AltitudeMeters>245.1999969482421875</AltitudeMeters>
            <DistanceMeters>3194.4361639707</DistanceMeters>
          </Trackpoint>
          <Trackpoint>
            <Time>2019-01-04T09:50:19.000Z</Time>
            <Position>
              <LatitudeDegrees>36.52589782141149044036865234375</LatitudeDegrees>
              <LongitudeDegrees>-5.4059203527867794036865234375</LongitudeDegrees>
            </Position>
            <AltitudeMeters>245</AltitudeMeters>
            <DistanceMeters>3196.0848158471</DistanceMeters>
          </Trackpoint>
          <Trackpoint>
            <Time>2019-01-04T09:50:20.000Z</Time>
            <Position>
              <LatitudeDegrees>36.5258838236331939697265625</LatitudeDegrees>
              <LongitudeDegrees>-5.40591356344521045684814453125</LongitudeDegrees>
            </Position>
            <AltitudeMeters>245</AltitudeMeters>
            <DistanceMeters>3197.7552330468</DistanceMeters>
          </Trackpoint>
          <Trackpoint>
            <Time>2019-01-04T09:50:21.000Z</Time>
            <Position>
              <LatitudeDegrees>36.5258702449500560760498046875</LatitudeDegrees>
              <LongitudeDegrees>-5.40590576827526092529296875</LongitudeDegrees>
            </Position>
            <AltitudeMeters>245</AltitudeMeters>
            <DistanceMeters>3199.4202355899</DistanceMeters>
          </Trackpoint>
          <Trackpoint>
            <Time>2019-01-04T09:50:22.000Z</Time>
            <Position>
              <LatitudeDegrees>36.52585792355239391326904296875</LatitudeDegrees>
              <LongitudeDegrees>-5.4059022478759288787841796875</LongitudeDegrees>
            </Position>
            <AltitudeMeters>245</AltitudeMeters>
            <DistanceMeters>3200.8297095405</DistanceMeters>
          </Trackpoint>
          <Trackpoint>
            <Time>2019-01-04T09:50:23.000Z</Time>
            <Position>
              <LatitudeDegrees>36.5258434228599071502685546875</LatitudeDegrees>
              <LongitudeDegrees>-5.405894033610820770263671875</LongitudeDegrees>
            </Position>
            <AltitudeMeters>245</AltitudeMeters>
            <DistanceMeters>3202.6024099107</DistanceMeters>
          </Trackpoint>
          <Trackpoint>
            <Time>2019-01-04T09:50:24.000Z</Time>
            <Position>
              <LatitudeDegrees>36.52583093382418155670166015625</LatitudeDegrees>
              <LongitudeDegrees>-5.40588959120213985443115234375</LongitudeDegrees>
            </Position>
            <AltitudeMeters>244.8000030517578125</AltitudeMeters>
            <DistanceMeters>3204.049813702</DistanceMeters>
          </Trackpoint>
          <Trackpoint>
            <Time>2019-01-04T09:50:25.000Z</Time>
            <Position>
              <LatitudeDegrees>36.52581517584621906280517578125</LatitudeDegrees>
              <LongitudeDegrees>-5.40588690899312496185302734375</LongitudeDegrees>
            </Position>
            <AltitudeMeters>244.8000030517578125</AltitudeMeters>
            <DistanceMeters>3205.8174127656</DistanceMeters>
          </Trackpoint>
          <Trackpoint>
            <Time>2019-01-04T09:50:26.000Z</Time>
            <Position>
              <LatitudeDegrees>36.52579958550631999969482421875</LatitudeDegrees>
              <LongitudeDegrees>-5.4058824665844440460205078125</LongitudeDegrees>
            </Position>
            <AltitudeMeters>244.8000030517578125</AltitudeMeters>
            <DistanceMeters>3207.5951998044</DistanceMeters>
          </Trackpoint>
          <Trackpoint>
            <Time>2019-01-04T09:50:27.000Z</Time>
            <Position>
              <LatitudeDegrees>36.52578667737543582916259765625</LatitudeDegrees>
              <LongitudeDegrees>-5.40587802417576313018798828125</LongitudeDegrees>
            </Position>
            <AltitudeMeters>244.600006103515625</AltitudeMeters>
            <DistanceMeters>3209.0856355814</DistanceMeters>
          </Trackpoint>
          <Trackpoint>
            <Time>2019-01-04T09:50:28.000Z</Time>
            <Position>
              <LatitudeDegrees>36.52577410452067852020263671875</LatitudeDegrees>
              <LongitudeDegrees>-5.4058747552335262298583984375</LongitudeDegrees>
            </Position>
            <AltitudeMeters>244.600006103515625</AltitudeMeters>
            <DistanceMeters>3210.5142003424</DistanceMeters>
          </Trackpoint>
          <Trackpoint>
            <Time>2019-01-04T09:50:29.000Z</Time>
            <Position>
              <LatitudeDegrees>36.5257616154849529266357421875</LatitudeDegrees>
              <LongitudeDegrees>-5.40587735362350940704345703125</LongitudeDegrees>
            </Position>
            <AltitudeMeters>244.399993896484375</AltitudeMeters>
            <DistanceMeters>3211.9236742931</DistanceMeters>
          </Trackpoint>
          <Trackpoint>
            <Time>2019-01-04T09:50:30.000Z</Time>
            <Position>
              <LatitudeDegrees>36.52574778534471988677978515625</LatitudeDegrees>
              <LongitudeDegrees>-5.405876934528350830078125</LongitudeDegrees>
            </Position>
            <AltitudeMeters>244.399993896484375</AltitudeMeters>
            <DistanceMeters>3213.4618160382</DistanceMeters>
          </Trackpoint>
          <Trackpoint>
            <Time>2019-01-04T09:50:31.000Z</Time>
            <Position>
              <LatitudeDegrees>36.5257327817380428314208984375</LatitudeDegrees>
              <LongitudeDegrees>-5.40588087402284145355224609375</LongitudeDegrees>
            </Position>
            <AltitudeMeters>244.399993896484375</AltitudeMeters>
            <DistanceMeters>3215.1670094627</DistanceMeters>
          </Trackpoint>
          <Trackpoint>
            <Time>2019-01-04T09:50:32.000Z</Time>
            <Position>
              <LatitudeDegrees>36.52571819722652435302734375</LatitudeDegrees>
              <LongitudeDegrees>-5.40588405914604663848876953125</LongitudeDegrees>
            </Position>
            <AltitudeMeters>244.1999969482421875</AltitudeMeters>
            <DistanceMeters>3216.8156613392</DistanceMeters>
          </Trackpoint>
          <Trackpoint>
            <Time>2019-01-04T09:50:33.000Z</Time>
            <Position>
              <LatitudeDegrees>36.52570419944822788238525390625</LatitudeDegrees>
              <LongitudeDegrees>-5.4058861546218395233154296875</LongitudeDegrees>
            </Position>
            <AltitudeMeters>244.1999969482421875</AltitudeMeters>
            <DistanceMeters>3218.385760339</DistanceMeters>
          </Trackpoint>
          <Trackpoint>
            <Time>2019-01-04T09:50:34.000Z</Time>
            <Position>
              <LatitudeDegrees>36.52568844147026538848876953125</LatitudeDegrees>
              <LongitudeDegrees>-5.40588959120213985443115234375</LongitudeDegrees>
            </Position>
            <AltitudeMeters>244.1999969482421875</AltitudeMeters>
            <DistanceMeters>3220.1660852621</DistanceMeters>
          </Trackpoint>
          <Trackpoint>
            <Time>2019-01-04T09:50:35.000Z</Time>
            <Position>
              <LatitudeDegrees>36.5256731025874614715576171875</LatitudeDegrees>
              <LongitudeDegrees>-5.4058931954205036163330078125</LongitudeDegrees>
            </Position>
            <AltitudeMeters>244.1999969482421875</AltitudeMeters>
            <DistanceMeters>3221.905359711</DistanceMeters>
          </Trackpoint>
          <Trackpoint>
            <Time>2019-01-04T09:50:36.000Z</Time>
            <Position>
              <LatitudeDegrees>36.52565893717110157012939453125</LatitudeDegrees>
              <LongitudeDegrees>-5.40589948184788227081298828125</LongitudeDegrees>
            </Position>
            <AltitudeMeters>244.1999969482421875</AltitudeMeters>
            <DistanceMeters>3223.5784776679</DistanceMeters>
          </Trackpoint>
          <Trackpoint>
            <Time>2019-01-04T09:50:37.000Z</Time>
            <Position>
              <LatitudeDegrees>36.52564569376409053802490234375</LatitudeDegrees>
              <LongitudeDegrees>-5.4059062711894512176513671875</LongitudeDegrees>
            </Position>
            <AltitudeMeters>244</AltitudeMeters>
            <DistanceMeters>3225.1714156707</DistanceMeters>
          </Trackpoint>
          <Trackpoint>
            <Time>2019-01-04T09:50:38.000Z</Time>
            <Position>
              <LatitudeDegrees>36.525634713470935821533203125</LatitudeDegrees>
              <LongitudeDegrees>-5.4059133119881153106689453125</LongitudeDegrees>
            </Position>
            <AltitudeMeters>244</AltitudeMeters>
            <DistanceMeters>3226.5419104355</DistanceMeters>
          </Trackpoint>
          <Trackpoint>
            <Time>2019-01-04T09:50:39.000Z</Time>
            <Position>
              <LatitudeDegrees>36.525623984634876251220703125</LatitudeDegrees>
              <LongitudeDegrees>-5.40592211298644542694091796875</LongitudeDegrees>
            </Position>
            <AltitudeMeters>244</AltitudeMeters>
            <DistanceMeters>3227.9704751965</DistanceMeters>
          </Trackpoint>
          <Trackpoint>
            <Time>2019-01-04T09:50:40.000Z</Time>
            <Position>
              <LatitudeDegrees>36.525612585246562957763671875</LatitudeDegrees>
              <LongitudeDegrees>-5.40593300946056842803955078125</LongitudeDegrees>
            </Position>
            <AltitudeMeters>244.1999969482421875</AltitudeMeters>
            <DistanceMeters>3229.5718938519</DistanceMeters>
          </Trackpoint>
          <Trackpoint>
            <Time>2019-01-04T09:50:41.000Z</Time>
            <Position>
              <LatitudeDegrees>36.52559825219213962554931640625</LatitudeDegrees>
              <LongitudeDegrees>-5.40594357065856456756591796875</LongitudeDegrees>
            </Position>
            <AltitudeMeters>244.1999969482421875</AltitudeMeters>
            <DistanceMeters>3231.4291739066</DistanceMeters>
          </Trackpoint>
          <Trackpoint>
            <Time>2019-01-04T09:50:42.000Z</Time>
            <Position>
              <LatitudeDegrees>36.52558450587093830108642578125</LatitudeDegrees>
              <LongitudeDegrees>-5.40594658814370632171630859375</LongitudeDegrees>
            </Position>
            <AltitudeMeters>244.1999969482421875</AltitudeMeters>
            <DistanceMeters>3232.9848282664</DistanceMeters>
          </Trackpoint>
          <Trackpoint>
            <Time>2019-01-04T09:50:43.000Z</Time>
            <Position>
              <LatitudeDegrees>36.5255711786448955535888671875</LatitudeDegrees>
              <LongitudeDegrees>-5.4059508629143238067626953125</LongitudeDegrees>
            </Position>
            <AltitudeMeters>244.1999969482421875</AltitudeMeters>
            <DistanceMeters>3234.5170879948</DistanceMeters>
          </Trackpoint>
          <Trackpoint>
            <Time>2019-01-04T09:50:44.000Z</Time>
            <Position>
              <LatitudeDegrees>36.52555852197110652923583984375</LatitudeDegrees>
              <LongitudeDegrees>-5.40595463477075099945068359375</LongitudeDegrees>
            </Position>
            <AltitudeMeters>244.1999969482421875</AltitudeMeters>
            <DistanceMeters>3235.9644917861</DistanceMeters>
          </Trackpoint>
          <Trackpoint>
            <Time>2019-01-04T09:50:45.000Z</Time>
            <Position>
              <LatitudeDegrees>36.5255443565547466278076171875</LatitudeDegrees>
              <LongitudeDegrees>-5.40596343576908111572265625</LongitudeDegrees>
            </Position>
            <AltitudeMeters>244.1999969482421875</AltitudeMeters>
            <DistanceMeters>3237.7218438123</DistanceMeters>
          </Trackpoint>
          <Trackpoint>
            <Time>2019-01-04T09:50:46.000Z</Time>
            <Position>
              <LatitudeDegrees>36.52553178369998931884765625</LatitudeDegrees>
              <LongitudeDegrees>-5.40597441606223583221435546875</LongitudeDegrees>
            </Position>
            <AltitudeMeters>244.1999969482421875</AltitudeMeters>
            <DistanceMeters>3239.4323246709</DistanceMeters>
          </Trackpoint>
          <Trackpoint>
            <Time>2019-01-04T09:50:47.000Z</Time>
            <Position>
              <LatitudeDegrees>36.52551996521651744842529296875</LatitudeDegrees>
              <LongitudeDegrees>-5.405984558165073394775390625</LongitudeDegrees>
            </Position>
            <AltitudeMeters>244</AltitudeMeters>
            <DistanceMeters>3241.0280945657</DistanceMeters>
          </Trackpoint>
          <Trackpoint>
            <Time>2019-01-04T09:50:48.000Z</Time>
            <Position>
              <LatitudeDegrees>36.52550789527595043182373046875</LatitudeDegrees>
              <LongitudeDegrees>-5.40599696338176727294921875</LongitudeDegrees>
            </Position>
            <AltitudeMeters>244</AltitudeMeters>
            <DistanceMeters>3242.7699630123</DistanceMeters>
          </Trackpoint>
          <Trackpoint>
            <Time>2019-01-04T09:50:49.000Z</Time>
            <Position>
              <LatitudeDegrees>36.5254957415163516998291015625</LatitudeDegrees>
              <LongitudeDegrees>-5.40600911714136600494384765625</LongitudeDegrees>
            </Position>
            <AltitudeMeters>244</AltitudeMeters>
            <DistanceMeters>3244.5066395891</DistanceMeters>
          </Trackpoint>
          <Trackpoint>
            <Time>2019-01-04T09:50:50.000Z</Time>
            <Position>
              <LatitudeDegrees>36.5254853479564189910888671875</LatitudeDegrees>
              <LongitudeDegrees>-5.4060206003487110137939453125</LongitudeDegrees>
            </Position>
            <AltitudeMeters>244</AltitudeMeters>
            <DistanceMeters>3246.0506409431</DistanceMeters>
          </Trackpoint>
          <Trackpoint>
            <Time>2019-01-04T09:50:51.000Z</Time>
            <Position>
              <LatitudeDegrees>36.52547470293939113616943359375</LatitudeDegrees>
              <LongitudeDegrees>-5.4060333408415317535400390625</LongitudeDegrees>
            </Position>
            <AltitudeMeters>244</AltitudeMeters>
            <DistanceMeters>3247.693806442</DistanceMeters>
          </Trackpoint>
          <Trackpoint>
            <Time>2019-01-04T09:50:52.000Z</Time>
            <Position>
              <LatitudeDegrees>36.52546363882720470428466796875</LatitudeDegrees>
              <LongitudeDegrees>-5.4060459136962890625</LongitudeDegrees>
            </Position>
            <AltitudeMeters>244.1999969482421875</AltitudeMeters>
            <DistanceMeters>3249.3615185109</DistanceMeters>
          </Trackpoint>
          <Trackpoint>
            <Time>2019-01-04T09:50:53.000Z</Time>
            <Position>
              <LatitudeDegrees>36.52545341290533542633056640625</LatitudeDegrees>
              <LongitudeDegrees>-5.40605706162750720977783203125</LongitudeDegrees>
            </Position>
            <AltitudeMeters>244.1999969482421875</AltitudeMeters>
            <DistanceMeters>3250.8700208357</DistanceMeters>
          </Trackpoint>
          <Trackpoint>
            <Time>2019-01-04T09:50:54.000Z</Time>
            <Position>
              <LatitudeDegrees>36.5254427678883075714111328125</LatitudeDegrees>
              <LongitudeDegrees>-5.40606963448226451873779296875</LongitudeDegrees>
            </Position>
            <AltitudeMeters>244.1999969482421875</AltitudeMeters>
            <DistanceMeters>3252.4993895706</DistanceMeters>
          </Trackpoint>
          <Trackpoint>
            <Time>2019-01-04T09:50:55.000Z</Time>
            <Position>
              <LatitudeDegrees>36.525431536138057708740234375</LatitudeDegrees>
              <LongitudeDegrees>-5.40607986040413379669189453125</LongitudeDegrees>
            </Position>
            <AltitudeMeters>244.1999969482421875</AltitudeMeters>
            <DistanceMeters>3254.0492283797</DistanceMeters>
          </Trackpoint>
          <Trackpoint>
            <Time>2019-01-04T09:50:56.000Z</Time>
            <Position>
              <LatitudeDegrees>36.5254206396639347076416015625</LatitudeDegrees>
              <LongitudeDegrees>-5.40609159506857395172119140625</LongitudeDegrees>
            </Position>
            <AltitudeMeters>244.399993896484375</AltitudeMeters>
            <DistanceMeters>3255.6506470352</DistanceMeters>
          </Trackpoint>
          <Trackpoint>
            <Time>2019-01-04T09:50:57.000Z</Time>
            <Position>
              <LatitudeDegrees>36.52540999464690685272216796875</LatitudeDegrees>
              <LongitudeDegrees>-5.40610433556139469146728515625</LongitudeDegrees>
            </Position>
            <AltitudeMeters>244.399993896484375</AltitudeMeters>
            <DistanceMeters>3257.2938125341</DistanceMeters>
          </Trackpoint>
          <Trackpoint>
            <Time>2019-01-04T09:50:58.000Z</Time>
            <Position>
              <LatitudeDegrees>36.52540094219148159027099609375</LatitudeDegrees>
              <LongitudeDegrees>-5.40611690841615200042724609375</LongitudeDegrees>
            </Position>
            <AltitudeMeters>244.399993896484375</AltitudeMeters>
            <DistanceMeters>3258.8023148589</DistanceMeters>
          </Trackpoint>
          <Trackpoint>
            <Time>2019-01-04T09:50:59.000Z</Time>
            <Position>
              <LatitudeDegrees>36.52539155445992946624755859375</LatitudeDegrees>
              <LongitudeDegrees>-5.4061332531273365020751953125</LongitudeDegrees>
            </Position>
            <AltitudeMeters>244.399993896484375</AltitudeMeters>
            <DistanceMeters>3260.5977917566</DistanceMeters>
          </Trackpoint>
          <Trackpoint>
            <Time>2019-01-04T09:51:00.000Z</Time>
            <Position>
              <LatitudeDegrees>36.52538426220417022705078125</LatitudeDegrees>
              <LongitudeDegrees>-5.40614674799144268035888671875</LongitudeDegrees>
            </Position>
            <AltitudeMeters>244.399993896484375</AltitudeMeters>
            <DistanceMeters>3262.0514209693</DistanceMeters>
          </Trackpoint>
          <Trackpoint>
            <Time>2019-01-04T09:51:01.000Z</Time>
            <Position>
              <LatitudeDegrees>36.5253760479390621185302734375</LatitudeDegrees>
              <LongitudeDegrees>-5.40616183541715145111083984375</LongitudeDegrees>
            </Position>
            <AltitudeMeters>244.399993896484375</AltitudeMeters>
            <DistanceMeters>3263.6807897043</DistanceMeters>
          </Trackpoint>
          <Trackpoint>
            <Time>2019-01-04T09:51:02.000Z</Time>
            <Position>
              <LatitudeDegrees>36.52536523528397083282470703125</LatitudeDegrees>
              <LongitudeDegrees>-5.40617893449962139129638671875</LongitudeDegrees>
            </Position>
            <AltitudeMeters>244.399993896484375</AltitudeMeters>
            <DistanceMeters>3265.6236154694</DistanceMeters>
          </Trackpoint>
          <Trackpoint>
            <Time>2019-01-04T09:51:03.000Z</Time>
            <Position>
              <LatitudeDegrees>36.5253569371998310089111328125</LatitudeDegrees>
              <LongitudeDegrees>-5.4061936028301715850830078125</LongitudeDegrees>
            </Position>
            <AltitudeMeters>244.600006103515625</AltitudeMeters>
            <DistanceMeters>3267.2306630303</DistanceMeters>
          </Trackpoint>
          <Trackpoint>
            <Time>2019-01-04T09:51:04.000Z</Time>
            <Position>
              <LatitudeDegrees>36.52534930966794490814208984375</LatitudeDegrees>
              <LongitudeDegrees>-5.40620776824653148651123046875</LongitudeDegrees>
            </Position>
            <AltitudeMeters>244.8000030517578125</AltitudeMeters>
            <DistanceMeters>3268.757018075</DistanceMeters>
          </Trackpoint>
          <Trackpoint>
            <Time>2019-01-04T09:51:05.000Z</Time>
            <Position>
              <LatitudeDegrees>36.5253418497741222381591796875</LatitudeDegrees>
              <LongitudeDegrees>-5.406221933662891387939453125</LongitudeDegrees>
            </Position>
            <AltitudeMeters>244.8000030517578125</AltitudeMeters>
            <DistanceMeters>3270.2714946898</DistanceMeters>
          </Trackpoint>
          <Trackpoint>
            <Time>2019-01-04T09:51:06.000Z</Time>
            <Position>
              <LatitudeDegrees>36.52533304877579212188720703125</LatitudeDegrees>
              <LongitudeDegrees>-5.40623542852699756622314453125</LongitudeDegrees>
            </Position>
            <AltitudeMeters>245</AltitudeMeters>
            <DistanceMeters>3271.8242439968</DistanceMeters>
          </Trackpoint>
          <Trackpoint>
            <Time>2019-01-04T09:51:07.000Z</Time>
            <Position>
              <LatitudeDegrees>36.5253237448632717132568359375</LatitudeDegrees>
              <LongitudeDegrees>-5.40624448098242282867431640625</LongitudeDegrees>
            </Position>
            <AltitudeMeters>245.1999969482421875</AltitudeMeters>
            <DistanceMeters>3273.1375393181</DistanceMeters>
          </Trackpoint>
          <Trackpoint>
            <Time>2019-01-04T09:51:08.000Z</Time>
            <Position>
              <LatitudeDegrees>36.52531226165592670440673828125</LatitudeDegrees>
              <LongitudeDegrees>-5.4062511026859283447265625</LongitudeDegrees>
            </Position>
            <AltitudeMeters>245.1999969482421875</AltitudeMeters>
            <DistanceMeters>3274.5470132688</DistanceMeters>
          </Trackpoint>
          <Trackpoint>
            <Time>2019-01-04T09:51:09.000Z</Time>
            <Position>
              <LatitudeDegrees>36.5252992697060108184814453125</LatitudeDegrees>
              <LongitudeDegrees>-5.40625755675137042999267578125</LongitudeDegrees>
            </Position>
            <AltitudeMeters>245.1999969482421875</AltitudeMeters>
            <DistanceMeters>3276.1026676285</DistanceMeters>
          </Trackpoint>
          <Trackpoint>
            <Time>2019-01-04T09:51:10.000Z</Time>
            <Position>
              <LatitudeDegrees>36.5252856910228729248046875</LatitudeDegrees>
              <LongitudeDegrees>-5.406264849007129669189453125</LongitudeDegrees>
            </Position>
            <AltitudeMeters>245.1999969482421875</AltitudeMeters>
            <DistanceMeters>3277.7485786022</DistanceMeters>
          </Trackpoint>
          <Trackpoint>
            <Time>2019-01-04T09:51:11.000Z</Time>
            <Position>
              <LatitudeDegrees>36.5252741239964962005615234375</LatitudeDegrees>
              <LongitudeDegrees>-5.40627214126288890838623046875</LongitudeDegrees>
            </Position>
            <AltitudeMeters>245.1999969482421875</AltitudeMeters>
            <DistanceMeters>3279.19285962</DistanceMeters>
          </Trackpoint>
          <Trackpoint>
            <Time>2019-01-04T09:51:12.000Z</Time>
            <Position>
              <LatitudeDegrees>36.5252620540559291839599609375</LatitudeDegrees>
              <LongitudeDegrees>-5.4062780924141407012939453125</LongitudeDegrees>
            </Position>
            <AltitudeMeters>245.1999969482421875</AltitudeMeters>
            <DistanceMeters>3280.6402634113</DistanceMeters>
          </Trackpoint>
          <Trackpoint>
            <Time>2019-01-04T09:51:13.000Z</Time>
            <Position>
              <LatitudeDegrees>36.52525015175342559814453125</LatitudeDegrees>
              <LongitudeDegrees>-5.40628354065120220184326171875</LongitudeDegrees>
            </Position>
            <AltitudeMeters>245.1999969482421875</AltitudeMeters>
            <DistanceMeters>3282.049737362</DistanceMeters>
          </Trackpoint>
          <Trackpoint>
            <Time>2019-01-04T09:51:14.000Z</Time>
            <Position>
              <LatitudeDegrees>36.52523648925125598907470703125</LatitudeDegrees>
              <LongitudeDegrees>-5.4062908329069614410400390625</LongitudeDegrees>
            </Position>
            <AltitudeMeters>245</AltitudeMeters>
            <DistanceMeters>3283.701125592</DistanceMeters>
          </Trackpoint>
          <Trackpoint>
            <Time>2019-01-04T09:51:15.000Z</Time>
            <Position>
              <LatitudeDegrees>36.52522240765392780303955078125</LatitudeDegrees>
              <LongitudeDegrees>-5.40629602968692779541015625</LongitudeDegrees>
            </Position>
            <AltitudeMeters>245</AltitudeMeters>
            <DistanceMeters>3285.3332630099</DistanceMeters>
          </Trackpoint>
          <Trackpoint>
            <Time>2019-01-04T09:51:16.000Z</Time>
            <Position>
              <LatitudeDegrees>36.52520933188498020172119140625</LatitudeDegrees>
              <LongitudeDegrees>-5.406300388276576995849609375</LongitudeDegrees>
            </Position>
            <AltitudeMeters>245</AltitudeMeters>
            <DistanceMeters>3286.8387692993</DistanceMeters>
          </Trackpoint>
          <Trackpoint>
            <Time>2019-01-04T09:51:17.000Z</Time>
            <Position>
              <LatitudeDegrees>36.52519625611603260040283203125</LatitudeDegrees>
              <LongitudeDegrees>-5.4063072614371776580810546875</LongitudeDegrees>
            </Position>
            <AltitudeMeters>245</AltitudeMeters>
            <DistanceMeters>3288.4174716457</DistanceMeters>
          </Trackpoint>
          <Trackpoint>
            <Time>2019-01-04T09:51:18.000Z</Time>
            <Position>
              <LatitudeDegrees>36.5251837670803070068359375</LatitudeDegrees>
              <LongitudeDegrees>-5.406315810978412628173828125</LongitudeDegrees>
            </Position>
            <AltitudeMeters>244.8000030517578125</AltitudeMeters>
            <DistanceMeters>3290.007572713</DistanceMeters>
          </Trackpoint>
          <Trackpoint>
            <Time>2019-01-04T09:51:19.000Z</Time>
            <Position>
              <LatitudeDegrees>36.52517094276845455169677734375</LatitudeDegrees>
              <LongitudeDegrees>-5.40632159449160099029541015625</LongitudeDegrees>
            </Position>
            <AltitudeMeters>244.8000030517578125</AltitudeMeters>
            <DistanceMeters>3291.5280001429</DistanceMeters>
          </Trackpoint>
          <Trackpoint>
            <Time>2019-01-04T09:51:20.000Z</Time>
            <Position>
              <LatitudeDegrees>36.52515736408531665802001953125</LatitudeDegrees>
              <LongitudeDegrees>-5.4063235223293304443359375</LongitudeDegrees>
            </Position>
            <AltitudeMeters>244.8000030517578125</AltitudeMeters>
            <DistanceMeters>3293.0484275728</DistanceMeters>
          </Trackpoint>
          <Trackpoint>
            <Time>2019-01-04T09:51:21.000Z</Time>
            <Position>
              <LatitudeDegrees>36.525143198668956756591796875</LatitudeDegrees>
              <LongitudeDegrees>-5.40632821619510650634765625</LongitudeDegrees>
            </Position>
            <AltitudeMeters>244.8000030517578125</AltitudeMeters>
            <DistanceMeters>3294.6805649908</DistanceMeters>
          </Trackpoint>
          <Trackpoint>
            <Time>2019-01-04T09:51:22.000Z</Time>
            <Position>
              <LatitudeDegrees>36.52513020671904087066650390625</LatitudeDegrees>
              <LongitudeDegrees>-5.4063344188034534454345703125</LongitudeDegrees>
            </Position>
            <AltitudeMeters>244.8000030517578125</AltitudeMeters>
            <DistanceMeters>3296.2304037998</DistanceMeters>
          </Trackpoint>
          <Trackpoint>
            <Time>2019-01-04T09:51:23.000Z</Time>
            <Position>
              <LatitudeDegrees>36.52511931024491786956787109375</LatitudeDegrees>
              <LongitudeDegrees>-5.40634120814502239227294921875</LongitudeDegrees>
            </Position>
            <AltitudeMeters>244.8000030517578125</AltitudeMeters>
            <DistanceMeters>3297.5876567588</DistanceMeters>
          </Trackpoint>
          <Trackpoint>
            <Time>2019-01-04T09:51:24.000Z</Time>
            <Position>
              <LatitudeDegrees>36.52510975487530231475830078125</LatitudeDegrees>
              <LongitudeDegrees>-5.40634975768625736236572265625</LongitudeDegrees>
            </Position>
            <AltitudeMeters>244.8000030517578125</AltitudeMeters>
            <DistanceMeters>3298.8975096224</DistanceMeters>
          </Trackpoint>
          <Trackpoint>
            <Time>2019-01-04T09:51:25.000Z</Time>
            <Position>
              <LatitudeDegrees>36.52510154061019420623779296875</LatitudeDegrees>
              <LongitudeDegrees>-5.40635562501847743988037109375</LongitudeDegrees>
            </Position>
            <AltitudeMeters>244.8000030517578125</AltitudeMeters>
            <DistanceMeters>3299.9514068672</DistanceMeters>
          </Trackpoint>
          <Trackpoint>
            <Time>2019-01-04T09:51:26.000Z</Time>
            <Position>
              <LatitudeDegrees>36.52509349398314952850341796875</LatitudeDegrees>
              <LongitudeDegrees>-5.4063583910465240478515625</LongitudeDegrees>
            </Position>
            <AltitudeMeters>244.8000030517578125</AltitudeMeters>
            <DistanceMeters>3300.8824747158</DistanceMeters>
          </Trackpoint>
          <Trackpoint>
            <Time>2019-01-04T09:51:27.000Z</Time>
            <Position>
              <LatitudeDegrees>36.52508695609867572784423828125</LatitudeDegrees>
              <LongitudeDegrees>-5.40636165998876094818115234375</LongitudeDegrees>
            </Position>
            <AltitudeMeters>244.8000030517578125</AltitudeMeters>
            <DistanceMeters>3301.671825889</DistanceMeters>
          </Trackpoint>
          <Trackpoint>
            <Time>2019-01-04T09:51:28.000Z</Time>
            <Position>
              <LatitudeDegrees>36.52507756836712360382080078125</LatitudeDegrees>
              <LongitudeDegrees>-5.4063672758638858795166015625</LongitudeDegrees>
            </Position>
            <AltitudeMeters>244.8000030517578125</AltitudeMeters>
            <DistanceMeters>3302.8356606997</DistanceMeters>
          </Trackpoint>
          <Trackpoint>
            <Time>2019-01-04T09:51:29.000Z</Time>
            <Position>
              <LatitudeDegrees>36.52506868354976177215576171875</LatitudeDegrees>
              <LongitudeDegrees>-5.40637314319610595703125</LongitudeDegrees>
            </Position>
            <AltitudeMeters>244.600006103515625</AltitudeMeters>
            <DistanceMeters>3303.9519718343</DistanceMeters>
          </Trackpoint>
          <Trackpoint>
            <Time>2019-01-04T09:51:30.000Z</Time>
            <Position>
              <LatitudeDegrees>36.52505795471370220184326171875</LatitudeDegrees>
              <LongitudeDegrees>-5.40637842379510402679443359375</LongitudeDegrees>
            </Position>
            <AltitudeMeters>244.600006103515625</AltitudeMeters>
            <DistanceMeters>3305.2339522993</DistanceMeters>
          </Trackpoint>
          <Trackpoint>
            <Time>2019-01-04T09:51:31.000Z</Time>
            <Position>
              <LatitudeDegrees>36.5250461362302303314208984375</LatitudeDegrees>
              <LongitudeDegrees>-5.40638144128024578094482421875</LongitudeDegrees>
            </Position>
            <AltitudeMeters>244.600006103515625</AltitudeMeters>
            <DistanceMeters>3306.5778329818</DistanceMeters>
          </Trackpoint>
          <Trackpoint>
            <Time>2019-01-04T09:51:32.000Z</Time>
            <Position>
              <LatitudeDegrees>36.52503264136612415313720703125</LatitudeDegrees>
              <LongitudeDegrees>-5.40638412348926067352294921875</LongitudeDegrees>
            </Position>
            <AltitudeMeters>244.600006103515625</AltitudeMeters>
            <DistanceMeters>3308.0982604118</DistanceMeters>
          </Trackpoint>
          <Trackpoint>
            <Time>2019-01-04T09:51:33.000Z</Time>
            <Position>
              <LatitudeDegrees>36.52501906268298625946044921875</LatitudeDegrees>
              <LongitudeDegrees>-5.406388230621814727783203125</LongitudeDegrees>
            </Position>
            <AltitudeMeters>244.600006103515625</AltitudeMeters>
            <DistanceMeters>3309.6539147715</DistanceMeters>
          </Trackpoint>
          <Trackpoint>
            <Time>2019-01-04T09:51:34.000Z</Time>
            <Position>
              <LatitudeDegrees>36.52500565163791179656982421875</LatitudeDegrees>
              <LongitudeDegrees>-5.4063947685062885284423828125</LongitudeDegrees>
            </Position>
            <AltitudeMeters>244.600006103515625</AltitudeMeters>
            <DistanceMeters>3311.2581503485</DistanceMeters>
          </Trackpoint>
          <Trackpoint>
            <Time>2019-01-04T09:51:35.000Z</Time>
            <Position>
              <LatitudeDegrees>36.5249924920499324798583984375</LatitudeDegrees>
              <LongitudeDegrees>-5.40640390478074550628662109375</LongitudeDegrees>
            </Position>
            <AltitudeMeters>244.399993896484375</AltitudeMeters>
            <DistanceMeters>3312.936656783</DistanceMeters>
          </Trackpoint>
          <Trackpoint>
            <Time>2019-01-04T09:51:36.000Z</Time>
            <Position>
              <LatitudeDegrees>36.5249837748706340789794921875</LatitudeDegrees>
              <LongitudeDegrees>-5.4064088501036167144775390625</LongitudeDegrees>
            </Position>
            <AltitudeMeters>244.1999969482421875</AltitudeMeters>
            <DistanceMeters>3314.0033290062</DistanceMeters>
          </Trackpoint>
          <Trackpoint>
            <Time>2019-01-04T09:51:37.000Z</Time>
            <Position>
              <LatitudeDegrees>36.52497229166328907012939453125</LatitudeDegrees>
              <LongitudeDegrees>-5.406412370502948760986328125</LongitudeDegrees>
            </Position>
            <AltitudeMeters>244.1999969482421875</AltitudeMeters>
            <DistanceMeters>3315.3200577852</DistanceMeters>
          </Trackpoint>
          <Trackpoint>
            <Time>2019-01-04T09:51:38.000Z</Time>
            <Position>
              <LatitudeDegrees>36.5249611437320709228515625</LatitudeDegrees>
              <LongitudeDegrees>-5.406417064368724822998046875</LongitudeDegrees>
            </Position>
            <AltitudeMeters>244</AltitudeMeters>
            <DistanceMeters>3316.6299106488</DistanceMeters>
          </Trackpoint>
          <Trackpoint>
            <Time>2019-01-04T09:51:39.000Z</Time>
            <Position>
              <LatitudeDegrees>36.52494898997247219085693359375</LatitudeDegrees>
              <LongitudeDegrees>-5.40642670355737209320068359375</LongitudeDegrees>
            </Position>
            <AltitudeMeters>243.8000030517578125</AltitudeMeters>
            <DistanceMeters>3318.2313293043</DistanceMeters>
          </Trackpoint>
          <Trackpoint>
            <Time>2019-01-04T09:51:40.000Z</Time>
            <Position>
              <LatitudeDegrees>36.5249338187277317047119140625</LatitudeDegrees>
              <LongitudeDegrees>-5.40643810294568538665771484375</LongitudeDegrees>
            </Position>
            <AltitudeMeters>243.8000030517578125</AltitudeMeters>
            <DistanceMeters>3320.2018451938</DistanceMeters>
          </Trackpoint>
          <Trackpoint>
            <Time>2019-01-04T09:51:41.000Z</Time>
            <Position>
              <LatitudeDegrees>36.52492032386362552642822265625</LatitudeDegrees>
              <LongitudeDegrees>-5.4064497537910938262939453125</LongitudeDegrees>
            </Position>
            <AltitudeMeters>243.600006103515625</AltitudeMeters>
            <DistanceMeters>3322.0297205408</DistanceMeters>
          </Trackpoint>
          <Trackpoint>
            <Time>2019-01-04T09:51:42.000Z</Time>
            <Position>
              <LatitudeDegrees>36.52490791864693164825439453125</LatitudeDegrees>
              <LongitudeDegrees>-5.4064591415226459503173828125</LongitudeDegrees>
            </Position>
            <AltitudeMeters>243.600006103515625</AltitudeMeters>
            <DistanceMeters>3323.6451746851</DistanceMeters>
          </Trackpoint>
          <Trackpoint>
            <Time>2019-01-04T09:51:43.000Z</Time>
            <Position>
              <LatitudeDegrees>36.52489869855344295501708984375</LatitudeDegrees>
              <LongitudeDegrees>-5.4064691998064517974853515625</LongitudeDegrees>
            </Position>
            <AltitudeMeters>243.399993896484375</AltitudeMeters>
            <DistanceMeters>3325.0090646174</DistanceMeters>
          </Trackpoint>
          <Trackpoint>
            <Time>2019-01-04T09:51:44.000Z</Time>
            <Position>
              <LatitudeDegrees>36.52488763444125652313232421875</LatitudeDegrees>
              <LongitudeDegrees>-5.4064792580902576446533203125</LongitudeDegrees>
            </Position>
            <AltitudeMeters>243.399993896484375</AltitudeMeters>
            <DistanceMeters>3326.5324587378</DistanceMeters>
          </Trackpoint>
          <Trackpoint>
            <Time>2019-01-04T09:51:45.000Z</Time>
            <Position>
              <LatitudeDegrees>36.52487489394843578338623046875</LatitudeDegrees>
              <LongitudeDegrees>-5.406489484012126922607421875</LongitudeDegrees>
            </Position>
            <AltitudeMeters>243.399993896484375</AltitudeMeters>
            <DistanceMeters>3328.2163364066</DistanceMeters>
          </Trackpoint>
          <Trackpoint>
            <Time>2019-01-04T09:51:46.000Z</Time>
            <Position>
              <LatitudeDegrees>36.5248664282262325286865234375</LatitudeDegrees>
              <LongitudeDegrees>-5.4065020568668842315673828125</LongitudeDegrees>
            </Position>
            <AltitudeMeters>243.1999969482421875</AltitudeMeters>
            <DistanceMeters>3329.6823371548</DistanceMeters>
          </Trackpoint>
          <Trackpoint>
            <Time>2019-01-04T09:51:47.000Z</Time>
            <Position>
              <LatitudeDegrees>36.5248567052185535430908203125</LatitudeDegrees>
              <LongitudeDegrees>-5.4065161384642124176025390625</LongitudeDegrees>
            </Position>
            <AltitudeMeters>243</AltitudeMeters>
            <DistanceMeters>3331.3446257554</DistanceMeters>
          </Trackpoint>
          <Trackpoint>
            <Time>2019-01-04T09:51:48.000Z</Time>
            <Position>
              <LatitudeDegrees>36.52484606020152568817138671875</LatitudeDegrees>
              <LongitudeDegrees>-5.406526029109954833984375</LongitudeDegrees>
            </Position>
            <AltitudeMeters>243</AltitudeMeters>
            <DistanceMeters>3332.8259456317</DistanceMeters>
          </Trackpoint>
          <Trackpoint>
            <Time>2019-01-04T09:51:49.000Z</Time>
            <Position>
              <LatitudeDegrees>36.5248312242329120635986328125</LatitudeDegrees>
              <LongitudeDegrees>-5.4065406136214733123779296875</LongitudeDegrees>
            </Position>
            <AltitudeMeters>242.8000030517578125</AltitudeMeters>
            <DistanceMeters>3334.9294516235</DistanceMeters>
          </Trackpoint>
          <Trackpoint>
            <Time>2019-01-04T09:51:50.000Z</Time>
            <Position>
              <LatitudeDegrees>36.5248144604265689849853515625</LatitudeDegrees>
              <LongitudeDegrees>-5.406553186476230621337890625</LongitudeDegrees>
            </Position>
            <AltitudeMeters>242.600006103515625</AltitudeMeters>
            <DistanceMeters>3337.1067871817</DistanceMeters>
          </Trackpoint>
          <Trackpoint>
            <Time>2019-01-04T09:51:51.000Z</Time>
            <Position>
              <LatitudeDegrees>36.52479828335344791412353515625</LatitudeDegrees>
              <LongitudeDegrees>-5.40656584315001964569091796875</LongitudeDegrees>
            </Position>
            <AltitudeMeters>242.399993896484375</AltitudeMeters>
            <DistanceMeters>3339.2358945944</DistanceMeters>
          </Trackpoint>
          <Trackpoint>
            <Time>2019-01-04T09:51:52.000Z</Time>
            <Position>
              <LatitudeDegrees>36.524787135422229766845703125</LatitudeDegrees>
              <LongitudeDegrees>-5.40658176876604557037353515625</LongitudeDegrees>
            </Position>
            <AltitudeMeters>242.1999969482421875</AltitudeMeters>
            <DistanceMeters>3341.1269023342</DistanceMeters>
          </Trackpoint>
          <Trackpoint>
            <Time>2019-01-04T09:51:53.000Z</Time>
            <Position>
              <LatitudeDegrees>36.52477028779685497283935546875</LatitudeDegrees>
              <LongitudeDegrees>-5.40659534744918346405029296875</LongitudeDegrees>
            </Position>
            <AltitudeMeters>242.1999969482421875</AltitudeMeters>
            <DistanceMeters>3343.3595246034</DistanceMeters>
          </Trackpoint>
          <Trackpoint>
            <Time>2019-01-04T09:51:54.000Z</Time>
            <Position>
              <LatitudeDegrees>36.52475587092339992523193359375</LatitudeDegrees>
              <LongitudeDegrees>-5.40660842321813106536865234375</LongitudeDegrees>
            </Position>
            <AltitudeMeters>242.1999969482421875</AltitudeMeters>
            <DistanceMeters>3345.3460148264</DistanceMeters>
          </Trackpoint>
          <Trackpoint>
            <Time>2019-01-04T09:51:55.000Z</Time>
            <Position>
              <LatitudeDegrees>36.524746231734752655029296875</LatitudeDegrees>
              <LongitudeDegrees>-5.40662468411028385162353515625</LongitudeDegrees>
            </Position>
            <AltitudeMeters>242</AltitudeMeters>
            <DistanceMeters>3347.1540213731</DistanceMeters>
          </Trackpoint>
          <Trackpoint>
            <Time>2019-01-04T09:51:56.000Z</Time>
            <Position>
              <LatitudeDegrees>36.5247333236038684844970703125</LatitudeDegrees>
              <LongitudeDegrees>-5.40663742460310459136962890625</LongitudeDegrees>
            </Position>
            <AltitudeMeters>242</AltitudeMeters>
            <DistanceMeters>3348.9892920652</DistanceMeters>
          </Trackpoint>
          <Trackpoint>
            <Time>2019-01-04T09:51:57.000Z</Time>
            <Position>
              <LatitudeDegrees>36.524720750749111175537109375</LatitudeDegrees>
              <LongitudeDegrees>-5.40665251202881336212158203125</LongitudeDegrees>
            </Position>
            <AltitudeMeters>242</AltitudeMeters>
            <DistanceMeters>3350.9321178304</DistanceMeters>
          </Trackpoint>
          <Trackpoint>
            <Time>2019-01-04T09:51:58.000Z</Time>
            <Position>
              <LatitudeDegrees>36.5247088484466075897216796875</LatitudeDegrees>
              <LongitudeDegrees>-5.406671203672885894775390625</LongitudeDegrees>
            </Position>
            <AltitudeMeters>242</AltitudeMeters>
            <DistanceMeters>3353.0654622769</DistanceMeters>
          </Trackpoint>
          <Trackpoint>
            <Time>2019-01-04T09:51:59.000Z</Time>
            <Position>
              <LatitudeDegrees>36.524694599211215972900390625</LatitudeDegrees>
              <LongitudeDegrees>-5.406690649688243865966796875</LongitudeDegrees>
            </Position>
            <AltitudeMeters>241.8000030517578125</AltitudeMeters>
            <DistanceMeters>3355.4201314547</DistanceMeters>
          </Trackpoint>
          <Trackpoint>
            <Time>2019-01-04T09:52:00.000Z</Time>
            <Position>
              <LatitudeDegrees>36.52468294836580753326416015625</LatitudeDegrees>
              <LongitudeDegrees>-5.40670347400009632110595703125</LongitudeDegrees>
            </Position>
            <AltitudeMeters>241.8000030517578125</AltitudeMeters>
            <DistanceMeters>3357.1516005937</DistanceMeters>
          </Trackpoint>
          <Trackpoint>
            <Time>2019-01-04T09:52:01.000Z</Time>
            <Position>
              <LatitudeDegrees>36.52467188425362110137939453125</LatitudeDegrees>
              <LongitudeDegrees>-5.40671537630259990692138671875</LongitudeDegrees>
            </Position>
            <AltitudeMeters>241.8000030517578125</AltitudeMeters>
            <DistanceMeters>3358.7781959331</DistanceMeters>
          </Trackpoint>
          <Trackpoint>
            <Time>2019-01-04T09:52:02.000Z</Time>
            <Position>
              <LatitudeDegrees>36.52466082014143466949462890625</LatitudeDegrees>
              <LongitudeDegrees>-5.40673046372830867767333984375</LongitudeDegrees>
            </Position>
            <AltitudeMeters>241.8000030517578125</AltitudeMeters>
            <DistanceMeters>3360.603599507</DistanceMeters>
          </Trackpoint>
          <Trackpoint>
            <Time>2019-01-04T09:52:03.000Z</Time>
            <Position>
              <LatitudeDegrees>36.5246501751244068145751953125</LatitudeDegrees>
              <LongitudeDegrees>-5.406746976077556610107421875</LongitudeDegrees>
            </Position>
            <AltitudeMeters>242</AltitudeMeters>
            <DistanceMeters>3362.4946072468</DistanceMeters>
          </Trackpoint>
          <Trackpoint>
            <Time>2019-01-04T09:52:04.000Z</Time>
            <Position>
              <LatitudeDegrees>36.52464120648801326751708984375</LatitudeDegrees>
              <LongitudeDegrees>-5.40676382370293140411376953125</LongitudeDegrees>
            </Position>
            <AltitudeMeters>242</AltitudeMeters>
            <DistanceMeters>3364.3026137934</DistanceMeters>
          </Trackpoint>
          <Trackpoint>
            <Time>2019-01-04T09:52:05.000Z</Time>
            <Position>
              <LatitudeDegrees>36.5246324054896831512451171875</LatitudeDegrees>
              <LongitudeDegrees>-5.4067793302237987518310546875</LongitudeDegrees>
            </Position>
            <AltitudeMeters>242.1999969482421875</AltitudeMeters>
            <DistanceMeters>3366.0025033375</DistanceMeters>
          </Trackpoint>
          <Trackpoint>
            <Time>2019-01-04T09:52:06.000Z</Time>
            <Position>
              <LatitudeDegrees>36.52462385594844818115234375</LatitudeDegrees>
              <LongitudeDegrees>-5.4067924059927463531494140625</LongitudeDegrees>
            </Position>
            <AltitudeMeters>242.1999969482421875</AltitudeMeters>
            <DistanceMeters>3367.5110056623</DistanceMeters>
          </Trackpoint>
          <Trackpoint>
            <Time>2019-01-04T09:52:07.000Z</Time>
            <Position>
              <LatitudeDegrees>36.52461522258818149566650390625</LatitudeDegrees>
              <LongitudeDegrees>-5.4068058170378208160400390625</LongitudeDegrees>
            </Position>
            <AltitudeMeters>242.1999969482421875</AltitudeMeters>
            <DistanceMeters>3369.0491474075</DistanceMeters>
          </Trackpoint>
          <Trackpoint>
            <Time>2019-01-04T09:52:08.000Z</Time>
            <Position>
              <LatitudeDegrees>36.524606756865978240966796875</LatitudeDegrees>
              <LongitudeDegrees>-5.406820736825466156005859375</LongitudeDegrees>
            </Position>
            <AltitudeMeters>242</AltitudeMeters>
            <DistanceMeters>3370.6812848254</DistanceMeters>
          </Trackpoint>
          <Trackpoint>
            <Time>2019-01-04T09:52:09.000Z</Time>
            <Position>
              <LatitudeDegrees>36.5245982073247432708740234375</LatitudeDegrees>
              <LongitudeDegrees>-5.4068331420421600341796875</LongitudeDegrees>
            </Position>
            <AltitudeMeters>242</AltitudeMeters>
            <DistanceMeters>3372.1411129114</DistanceMeters>
          </Trackpoint>
          <Trackpoint>
            <Time>2019-01-04T09:52:10.000Z</Time>
            <Position>
              <LatitudeDegrees>36.524588651955127716064453125</LatitudeDegrees>
              <LongitudeDegrees>-5.4068450443446636199951171875</LongitudeDegrees>
            </Position>
            <AltitudeMeters>241.8000030517578125</AltitudeMeters>
            <DistanceMeters>3373.6436171913</DistanceMeters>
          </Trackpoint>
          <Trackpoint>
            <Time>2019-01-04T09:52:11.000Z</Time>
            <Position>
              <LatitudeDegrees>36.52458119206130504608154296875</LatitudeDegrees>
              <LongitudeDegrees>-5.40685954503715038299560546875</LongitudeDegrees>
            </Position>
            <AltitudeMeters>241.600006103515625</AltitudeMeters>
            <DistanceMeters>3375.1846915259</DistanceMeters>
          </Trackpoint>
          <Trackpoint>
            <Time>2019-01-04T09:52:12.000Z</Time>
            <Position>
              <LatitudeDegrees>36.52457498945295810699462890625</LatitudeDegrees>
              <LongitudeDegrees>-5.4068738780915737152099609375</LongitudeDegrees>
            </Position>
            <AltitudeMeters>241.600006103515625</AltitudeMeters>
            <DistanceMeters>3376.6383207385</DistanceMeters>
          </Trackpoint>
          <Trackpoint>
            <Time>2019-01-04T09:52:13.000Z</Time>
            <Position>
              <LatitudeDegrees>36.5245683677494525909423828125</LatitudeDegrees>
              <LongitudeDegrees>-5.40689013898372650146484375</LongitudeDegrees>
            </Position>
            <AltitudeMeters>241.600006103515625</AltitudeMeters>
            <DistanceMeters>3378.2676894735</DistanceMeters>
          </Trackpoint>
          <Trackpoint>
            <Time>2019-01-04T09:52:14.000Z</Time>
            <Position>
              <LatitudeDegrees>36.52456275187432765960693359375</LatitudeDegrees>
              <LongitudeDegrees>-5.40690732188522815704345703125</LongitudeDegrees>
            </Position>
            <AltitudeMeters>241.600006103515625</AltitudeMeters>
            <DistanceMeters>3379.924536853</DistanceMeters>
          </Trackpoint>
          <Trackpoint>
            <Time>2019-01-04T09:52:15.000Z</Time>
            <Position>
              <LatitudeDegrees>36.52455587871372699737548828125</LatitudeDegrees>
              <LongitudeDegrees>-5.40692492388188838958740234375</LongitudeDegrees>
            </Position>
            <AltitudeMeters>241.600006103515625</AltitudeMeters>
            <DistanceMeters>3381.6741642175</DistanceMeters>
          </Trackpoint>
          <Trackpoint>
            <Time>2019-01-04T09:52:16.000Z</Time>
            <Position>
              <LatitudeDegrees>36.5245482511818408966064453125</LatitudeDegrees>
              <LongitudeDegrees>-5.40693850256502628326416015625</LongitudeDegrees>
            </Position>
            <AltitudeMeters>241.8000030517578125</AltitudeMeters>
            <DistanceMeters>3383.1524329682</DistanceMeters>
          </Trackpoint>
          <Trackpoint>
            <Time>2019-01-04T09:52:17.000Z</Time>
            <Position>
              <LatitudeDegrees>36.5245391987264156341552734375</LatitudeDegrees>
              <LongitudeDegrees>-5.40695291943848133087158203125</LongitudeDegrees>
            </Position>
            <AltitudeMeters>241.8000030517578125</AltitudeMeters>
            <DistanceMeters>3384.7873343804</DistanceMeters>
          </Trackpoint>
          <Trackpoint>
            <Time>2019-01-04T09:52:18.000Z</Time>
            <Position>
              <LatitudeDegrees>36.52453056536614894866943359375</LatitudeDegrees>
              <LongitudeDegrees>-5.40696750394999980926513671875</LongitudeDegrees>
            </Position>
            <AltitudeMeters>241.8000030517578125</AltitudeMeters>
            <DistanceMeters>3386.4055810145</DistanceMeters>
          </Trackpoint>
          <Trackpoint>
            <Time>2019-01-04T09:52:19.000Z</Time>
            <Position>
              <LatitudeDegrees>36.52452134527266025543212890625</LatitudeDegrees>
              <LongitudeDegrees>-5.40698242373764514923095703125</LongitudeDegrees>
            </Position>
            <AltitudeMeters>241.8000030517578125</AltitudeMeters>
            <DistanceMeters>3388.0894586832</DistanceMeters>
          </Trackpoint>
          <Trackpoint>
            <Time>2019-01-04T09:52:20.000Z</Time>
            <Position>
              <LatitudeDegrees>36.52451296336948871612548828125</LatitudeDegrees>
              <LongitudeDegrees>-5.4069992713630199432373046875</LongitudeDegrees>
            </Position>
            <AltitudeMeters>241.600006103515625</AltitudeMeters>
            <DistanceMeters>3389.8621590534</DistanceMeters>
          </Trackpoint>
          <Trackpoint>
            <Time>2019-01-04T09:52:21.000Z</Time>
            <Position>
              <LatitudeDegrees>36.5245029889047145843505859375</LatitudeDegrees>
              <LongitudeDegrees>-5.4070163704454898834228515625</LongitudeDegrees>
            </Position>
            <AltitudeMeters>241.600006103515625</AltitudeMeters>
            <DistanceMeters>3391.7531667932</DistanceMeters>
          </Trackpoint>
          <Trackpoint>
            <Time>2019-01-04T09:52:22.000Z</Time>
            <Position>
              <LatitudeDegrees>36.52449469082057476043701171875</LatitudeDegrees>
              <LongitudeDegrees>-5.4070311225950717926025390625</LongitudeDegrees>
            </Position>
            <AltitudeMeters>241.600006103515625</AltitudeMeters>
            <DistanceMeters>3393.3630214262</DistanceMeters>
          </Trackpoint>
          <Trackpoint>
            <Time>2019-01-04T09:52:23.000Z</Time>
            <Position>
              <LatitudeDegrees>36.52448563836514949798583984375</LatitudeDegrees>
              <LongitudeDegrees>-5.40704880841076374053955078125</LongitudeDegrees>
            </Position>
            <AltitudeMeters>241.8000030517578125</AltitudeMeters>
            <DistanceMeters>3395.2396486703</DistanceMeters>
          </Trackpoint>
          <Trackpoint>
            <Time>2019-01-04T09:52:24.000Z</Time>
            <Position>
              <LatitudeDegrees>36.52447574771940708160400390625</LatitudeDegrees>
              <LongitudeDegrees>-5.40706674568355083465576171875</LongitudeDegrees>
            </Position>
            <AltitudeMeters>241.8000030517578125</AltitudeMeters>
            <DistanceMeters>3397.1847970014</DistanceMeters>
          </Trackpoint>
          <Trackpoint>
            <Time>2019-01-04T09:52:25.000Z</Time>
            <Position>
              <LatitudeDegrees>36.52446694672107696533203125</LatitudeDegrees>
              <LongitudeDegrees>-5.40708300657570362091064453125</LongitudeDegrees>
            </Position>
            <AltitudeMeters>241.8000030517578125</AltitudeMeters>
            <DistanceMeters>3398.9370030369</DistanceMeters>
          </Trackpoint>
          <Trackpoint>
            <Time>2019-01-04T09:52:26.000Z</Time>
            <Position>
              <LatitudeDegrees>36.52445546351373195648193359375</LatitudeDegrees>
              <LongitudeDegrees>-5.4070941545069217681884765625</LongitudeDegrees>
            </Position>
            <AltitudeMeters>241.8000030517578125</AltitudeMeters>
            <DistanceMeters>3400.555249671</DistanceMeters>
          </Trackpoint>
          <Trackpoint>
            <Time>2019-01-04T09:52:27.000Z</Time>
            <Position>
              <LatitudeDegrees>36.52444624342024326324462890625</LatitudeDegrees>
              <LongitudeDegrees>-5.40710471570491790771484375</LongitudeDegrees>
            </Position>
            <AltitudeMeters>241.8000030517578125</AltitudeMeters>
            <DistanceMeters>3401.9486148189</DistanceMeters>
          </Trackpoint>
          <Trackpoint>
            <Time>2019-01-04T09:52:28.000Z</Time>
            <Position>
              <LatitudeDegrees>36.52443484403192996978759765625</LatitudeDegrees>
              <LongitudeDegrees>-5.40711452253162860870361328125</LongitudeDegrees>
            </Position>
            <AltitudeMeters>241.8000030517578125</AltitudeMeters>
            <DistanceMeters>3403.4896891535</DistanceMeters>
          </Trackpoint>
          <Trackpoint>
            <Time>2019-01-04T09:52:29.000Z</Time>
            <Position>
              <LatitudeDegrees>36.5244228579103946685791015625</LatitudeDegrees>
              <LongitudeDegrees>-5.4071256704628467559814453125</LongitudeDegrees>
            </Position>
            <AltitudeMeters>241.8000030517578125</AltitudeMeters>
            <DistanceMeters>3405.1519777542</DistanceMeters>
          </Trackpoint>
          <Trackpoint>
            <Time>2019-01-04T09:52:30.000Z</Time>
            <Position>
              <LatitudeDegrees>36.52441103942692279815673828125</LatitudeDegrees>
              <LongitudeDegrees>-5.40713614784181118011474609375</LongitudeDegrees>
            </Position>
            <AltitudeMeters>241.8000030517578125</AltitudeMeters>
            <DistanceMeters>3406.7702243883</DistanceMeters>
          </Trackpoint>
          <Trackpoint>
            <Time>2019-01-04T09:52:31.000Z</Time>
            <Position>
              <LatitudeDegrees>36.52440014295279979705810546875</LatitudeDegrees>
              <LongitudeDegrees>-5.40714888833463191986083984375</LongitudeDegrees>
            </Position>
            <AltitudeMeters>241.600006103515625</AltitudeMeters>
            <DistanceMeters>3408.4325129889</DistanceMeters>
          </Trackpoint>
          <Trackpoint>
            <Time>2019-01-04T09:52:32.000Z</Time>
            <Position>
              <LatitudeDegrees>36.52438891120254993438720703125</LatitudeDegrees>
              <LongitudeDegrees>-5.40716129355132579803466796875</LongitudeDegrees>
            </Position>
            <AltitudeMeters>241.600006103515625</AltitudeMeters>
            <DistanceMeters>3410.1002250578</DistanceMeters>
          </Trackpoint>
          <Trackpoint>
            <Time>2019-01-04T09:52:33.000Z</Time>
            <Position>
              <LatitudeDegrees>36.52437751181423664093017578125</LatitudeDegrees>
              <LongitudeDegrees>-5.40717420168220996856689453125</LongitudeDegrees>
            </Position>
            <AltitudeMeters>241.600006103515625</AltitudeMeters>
            <DistanceMeters>3411.8159770564</DistanceMeters>
          </Trackpoint>
          <Trackpoint>
            <Time>2019-01-04T09:52:34.000Z</Time>
            <Position>
              <LatitudeDegrees>36.52436527423560619354248046875</LatitudeDegrees>
              <LongitudeDegrees>-5.40718358941376209259033203125</LongitudeDegrees>
            </Position>
            <AltitudeMeters>241.600006103515625</AltitudeMeters>
            <DistanceMeters>3413.4145738266</DistanceMeters>
          </Trackpoint>
          <Trackpoint>
            <Time>2019-01-04T09:52:35.000Z</Time>
            <Position>
              <LatitudeDegrees>36.52435421012341976165771484375</LatitudeDegrees>
              <LongitudeDegrees>-5.407193563878536224365234375</LongitudeDegrees>
            </Position>
            <AltitudeMeters>241.399993896484375</AltitudeMeters>
            <DistanceMeters>3414.9350012565</DistanceMeters>
          </Trackpoint>
          <Trackpoint>
            <Time>2019-01-04T09:52:36.000Z</Time>
            <Position>
              <LatitudeDegrees>36.52434297837316989898681640625</LatitudeDegrees>
              <LongitudeDegrees>-5.4072017781436443328857421875</LongitudeDegrees>
            </Position>
            <AltitudeMeters>241.399993896484375</AltitudeMeters>
            <DistanceMeters>3416.3855210983</DistanceMeters>
          </Trackpoint>
          <Trackpoint>
            <Time>2019-01-04T09:52:37.000Z</Time>
            <Position>
              <LatitudeDegrees>36.5243316628038883209228515625</LatitudeDegrees>
              <LongitudeDegrees>-5.40720772929489612579345703125</LongitudeDegrees>
            </Position>
            <AltitudeMeters>241.1999969482421875</AltitudeMeters>
            <DistanceMeters>3417.7560158631</DistanceMeters>
          </Trackpoint>
          <Trackpoint>
            <Time>2019-01-04T09:52:38.000Z</Time>
            <Position>
              <LatitudeDegrees>36.52431950904428958892822265625</LatitudeDegrees>
              <LongitudeDegrees>-5.4072151891887187957763671875</LongitudeDegrees>
            </Position>
            <AltitudeMeters>241</AltitudeMeters>
            <DistanceMeters>3419.2645181879</DistanceMeters>
          </Trackpoint>
          <Trackpoint>
            <Time>2019-01-04T09:52:39.000Z</Time>
            <Position>
              <LatitudeDegrees>36.5243085287511348724365234375</LatitudeDegrees>
              <LongitudeDegrees>-5.40722348727285861968994140625</LongitudeDegrees>
            </Position>
            <AltitudeMeters>241</AltitudeMeters>
            <DistanceMeters>3420.6930829489</DistanceMeters>
          </Trackpoint>
          <Trackpoint>
            <Time>2019-01-04T09:52:40.000Z</Time>
            <Position>
              <LatitudeDegrees>36.524296291172504425048828125</LatitudeDegrees>
              <LongitudeDegrees>-5.4072301089763641357421875</LongitudeDegrees>
            </Position>
            <AltitudeMeters>241</AltitudeMeters>
            <DistanceMeters>3422.1774476791</DistanceMeters>
          </Trackpoint>
          <Trackpoint>
            <Time>2019-01-04T09:52:41.000Z</Time>
            <Position>
              <LatitudeDegrees>36.5242847241461277008056640625</LatitudeDegrees>
              <LongitudeDegrees>-5.40723941288888454437255859375</LongitudeDegrees>
            </Position>
            <AltitudeMeters>240.8000030517578125</AltitudeMeters>
            <DistanceMeters>3423.7097074075</DistanceMeters>
          </Trackpoint>
          <Trackpoint>
            <Time>2019-01-04T09:52:42.000Z</Time>
            <Position>
              <LatitudeDegrees>36.5242713131010532379150390625</LatitudeDegrees>
              <LongitudeDegrees>-5.4072487168014049530029296875</LongitudeDegrees>
            </Position>
            <AltitudeMeters>240.8000030517578125</AltitudeMeters>
            <DistanceMeters>3425.4201882662</DistanceMeters>
          </Trackpoint>
          <Trackpoint>
            <Time>2019-01-04T09:52:43.000Z</Time>
            <Position>
              <LatitudeDegrees>36.52425698004662990570068359375</LatitudeDegrees>
              <LongitudeDegrees>-5.407255589962005615234375</LongitudeDegrees>
            </Position>
            <AltitudeMeters>240.8000030517578125</AltitudeMeters>
            <DistanceMeters>3427.1306691249</DistanceMeters>
          </Trackpoint>
          <Trackpoint>
            <Time>2019-01-04T09:52:44.000Z</Time>
            <Position>
              <LatitudeDegrees>36.52424356900155544281005859375</LatitudeDegrees>
              <LongitudeDegrees>-5.40726355277001857757568359375</LongitudeDegrees>
            </Position>
            <AltitudeMeters>240.600006103515625</AltitudeMeters>
            <DistanceMeters>3428.7847891817</DistanceMeters>
          </Trackpoint>
          <Trackpoint>
            <Time>2019-01-04T09:52:45.000Z</Time>
            <Position>
              <LatitudeDegrees>36.5242315828800201416015625</LatitudeDegrees>
              <LongitudeDegrees>-5.40727092884480953216552734375</LongitudeDegrees>
            </Position>
            <AltitudeMeters>240.399993896484375</AltitudeMeters>
            <DistanceMeters>3430.2691539119</DistanceMeters>
          </Trackpoint>
          <Trackpoint>
            <Time>2019-01-04T09:52:46.000Z</Time>
            <Position>
              <LatitudeDegrees>36.524220518767833709716796875</LatitudeDegrees>
              <LongitudeDegrees>-5.40727914310991764068603515625</LongitudeDegrees>
            </Position>
            <AltitudeMeters>240.1999969482421875</AltitudeMeters>
            <DistanceMeters>3431.7040258328</DistanceMeters>
          </Trackpoint>
          <Trackpoint>
            <Time>2019-01-04T09:52:47.000Z</Time>
            <Position>
              <LatitudeDegrees>36.52420836500823497772216796875</LatitudeDegrees>
              <LongitudeDegrees>-5.40728718973696231842041015625</LongitudeDegrees>
            </Position>
            <AltitudeMeters>240</AltitudeMeters>
            <DistanceMeters>3433.2362855612</DistanceMeters>
          </Trackpoint>
          <Trackpoint>
            <Time>2019-01-04T09:52:48.000Z</Time>
            <Position>
              <LatitudeDegrees>36.5241940319538116455078125</LatitudeDegrees>
              <LongitudeDegrees>-5.40729523636400699615478515625</LongitudeDegrees>
            </Position>
            <AltitudeMeters>240</AltitudeMeters>
            <DistanceMeters>3434.9833304485</DistanceMeters>
          </Trackpoint>
          <Trackpoint>
            <Time>2019-01-04T09:52:49.000Z</Time>
            <Position>
              <LatitudeDegrees>36.52418154291808605194091796875</LatitudeDegrees>
              <LongitudeDegrees>-5.407297499477863311767578125</LongitudeDegrees>
            </Position>
            <AltitudeMeters>240</AltitudeMeters>
            <DistanceMeters>3436.3863830722</DistanceMeters>
          </Trackpoint>
          <Trackpoint>
            <Time>2019-01-04T09:52:50.000Z</Time>
            <Position>
              <LatitudeDegrees>36.52416645549237728118896484375</LatitudeDegrees>
              <LongitudeDegrees>-5.40729573927819728851318359375</LongitudeDegrees>
            </Position>
            <AltitudeMeters>240</AltitudeMeters>
            <DistanceMeters>3438.0702607409</DistanceMeters>
          </Trackpoint>
          <Trackpoint>
            <Time>2019-01-04T09:52:51.000Z</Time>
            <Position>
              <LatitudeDegrees>36.52415203861892223358154296875</LatitudeDegrees>
              <LongitudeDegrees>-5.4072986729443073272705078125</LongitudeDegrees>
            </Position>
            <AltitudeMeters>239.8000030517578125</AltitudeMeters>
            <DistanceMeters>3439.6968560803</DistanceMeters>
          </Trackpoint>
          <Trackpoint>
            <Time>2019-01-04T09:52:52.000Z</Time>
            <Position>
              <LatitudeDegrees>36.5241375379264354705810546875</LatitudeDegrees>
              <LongitudeDegrees>-5.4073000140488147735595703125</LongitudeDegrees>
            </Position>
            <AltitudeMeters>239.8000030517578125</AltitudeMeters>
            <DistanceMeters>3441.3151027144</DistanceMeters>
          </Trackpoint>
          <Trackpoint>
            <Time>2019-01-04T09:52:53.000Z</Time>
            <Position>
              <LatitudeDegrees>36.524121277034282684326171875</LatitudeDegrees>
              <LongitudeDegrees>-5.40730060078203678131103515625</LongitudeDegrees>
            </Position>
            <AltitudeMeters>239.8000030517578125</AltitudeMeters>
            <DistanceMeters>3443.123109261</DistanceMeters>
          </Trackpoint>
          <Trackpoint>
            <Time>2019-01-04T09:52:54.000Z</Time>
            <Position>
              <LatitudeDegrees>36.52410577051341533660888671875</LatitudeDegrees>
              <LongitudeDegrees>-5.4073030315339565277099609375</LongitudeDegrees>
            </Position>
            <AltitudeMeters>239.8000030517578125</AltitudeMeters>
            <DistanceMeters>3444.86238371</DistanceMeters>
          </Trackpoint>
          <Trackpoint>
            <Time>2019-01-04T09:52:55.000Z</Time>
            <Position>
              <LatitudeDegrees>36.52409085072576999664306640625</LatitudeDegrees>
              <LongitudeDegrees>-5.40730512700974941253662109375</LongitudeDegrees>
            </Position>
            <AltitudeMeters>239.8000030517578125</AltitudeMeters>
            <DistanceMeters>3446.5355016669</DistanceMeters>
          </Trackpoint>
          <Trackpoint>
            <Time>2019-01-04T09:52:56.000Z</Time>
            <Position>
              <LatitudeDegrees>36.52407593093812465667724609375</LatitudeDegrees>
              <LongitudeDegrees>-5.4073053784668445587158203125</LongitudeDegrees>
            </Position>
            <AltitudeMeters>239.8000030517578125</AltitudeMeters>
            <DistanceMeters>3448.1950718869</DistanceMeters>
          </Trackpoint>
          <Trackpoint>
            <Time>2019-01-04T09:52:57.000Z</Time>
            <Position>
              <LatitudeDegrees>36.52405983768403530120849609375</LatitudeDegrees>
              <LongitudeDegrees>-5.40730655193328857421875</LongitudeDegrees>
            </Position>
            <AltitudeMeters>239.8000030517578125</AltitudeMeters>
            <DistanceMeters>3449.9880323478</DistanceMeters>
          </Trackpoint>
          <Trackpoint>
            <Time>2019-01-04T09:52:58.000Z</Time>
            <Position>
              <LatitudeDegrees>36.52404357679188251495361328125</LatitudeDegrees>
              <LongitudeDegrees>-5.4073077253997325897216796875</LongitudeDegrees>
            </Position>
            <AltitudeMeters>239.8000030517578125</AltitudeMeters>
            <DistanceMeters>3451.8010265082</DistanceMeters>
          </Trackpoint>
          <Trackpoint>
            <Time>2019-01-04T09:52:59.000Z</Time>
            <Position>
              <LatitudeDegrees>36.5240305848419666290283203125</LatitudeDegrees>
              <LongitudeDegrees>-5.4073078930377960205078125</LongitudeDegrees>
            </Position>
            <AltitudeMeters>239.8000030517578125</AltitudeMeters>
            <DistanceMeters>3453.2484302994</DistanceMeters>
          </Trackpoint>
          <Trackpoint>
            <Time>2019-01-04T09:53:00.000Z</Time>
            <Position>
              <LatitudeDegrees>36.5240161679685115814208984375</LatitudeDegrees>
              <LongitudeDegrees>-5.40730697102844715118408203125</LongitudeDegrees>
            </Position>
            <AltitudeMeters>239.8000030517578125</AltitudeMeters>
            <DistanceMeters>3454.8582849324</DistanceMeters>
          </Trackpoint>
          <Trackpoint>
            <Time>2019-01-04T09:53:01.000Z</Time>
            <Position>
              <LatitudeDegrees>36.5240024216473102569580078125</LatitudeDegrees>
              <LongitudeDegrees>-5.40730562992393970489501953125</LongitudeDegrees>
            </Position>
            <AltitudeMeters>239.8000030517578125</AltitudeMeters>
            <DistanceMeters>3456.3905446609</DistanceMeters>
          </Trackpoint>
          <Trackpoint>
            <Time>2019-01-04T09:53:02.000Z</Time>
            <Position>
              <LatitudeDegrees>36.52399194426834583282470703125</LatitudeDegrees>
              <LongitudeDegrees>-5.4073030315339565277099609375</LongitudeDegrees>
            </Position>
            <AltitudeMeters>239.8000030517578125</AltitudeMeters>
            <DistanceMeters>3457.577427943</DistanceMeters>
          </Trackpoint>
          <Trackpoint>
            <Time>2019-01-04T09:53:03.000Z</Time>
            <Position>
              <LatitudeDegrees>36.5239796228706836700439453125</LatitudeDegrees>
              <LongitudeDegrees>-5.40730278007686138153076171875</LongitudeDegrees>
            </Position>
            <AltitudeMeters>239.8000030517578125</AltitudeMeters>
            <DistanceMeters>3458.9512132161</DistanceMeters>
          </Trackpoint>
          <Trackpoint>
            <Time>2019-01-04T09:53:04.000Z</Time>
            <Position>
              <LatitudeDegrees>36.5239642001688480377197265625</LatitudeDegrees>
              <LongitudeDegrees>-5.40730395354330539703369140625</LongitudeDegrees>
            </Position>
            <AltitudeMeters>239.8000030517578125</AltitudeMeters>
            <DistanceMeters>3460.6722202102</DistanceMeters>
          </Trackpoint>
          <Trackpoint>
            <Time>2019-01-04T09:53:05.000Z</Time>
            <Position>
              <LatitudeDegrees>36.52394902892410755157470703125</LatitudeDegrees>
              <LongitudeDegrees>-5.40730655193328857421875</LongitudeDegrees>
            </Position>
            <AltitudeMeters>239.8000030517578125</AltitudeMeters>
            <DistanceMeters>3462.3747637599</DistanceMeters>
          </Trackpoint>
          <Trackpoint>
            <Time>2019-01-04T09:53:06.000Z</Time>
            <Position>
              <LatitudeDegrees>36.523933522403240203857421875</LatitudeDegrees>
              <LongitudeDegrees>-5.4073120839893817901611328125</LongitudeDegrees>
            </Position>
            <AltitudeMeters>239.8000030517578125</AltitudeMeters>
            <DistanceMeters>3464.1677242207</DistanceMeters>
          </Trackpoint>
          <Trackpoint>
            <Time>2019-01-04T09:53:07.000Z</Time>
            <Position>
              <LatitudeDegrees>36.523921452462673187255859375</LatitudeDegrees>
              <LongitudeDegrees>-5.4073208011686801910400390625</LongitudeDegrees>
            </Position>
            <AltitudeMeters>239.8000030517578125</AltitudeMeters>
            <DistanceMeters>3465.7175630297</DistanceMeters>
          </Trackpoint>
          <Trackpoint>
            <Time>2019-01-04T09:53:08.000Z</Time>
            <Position>
              <LatitudeDegrees>36.52390862815082073211669921875</LatitudeDegrees>
              <LongitudeDegrees>-5.40733044035732746124267578125</LongitudeDegrees>
            </Position>
            <AltitudeMeters>239.8000030517578125</AltitudeMeters>
            <DistanceMeters>3467.3825655728</DistanceMeters>
          </Trackpoint>
          <Trackpoint>
            <Time>2019-01-04T09:53:09.000Z</Time>
            <Position>
              <LatitudeDegrees>36.523899324238300323486328125</LatitudeDegrees>
              <LongitudeDegrees>-5.4073412530124187469482421875</LongitudeDegrees>
            </Position>
            <AltitudeMeters>239.8000030517578125</AltitudeMeters>
            <DistanceMeters>3468.8016170331</DistanceMeters>
          </Trackpoint>
          <Trackpoint>
            <Time>2019-01-04T09:53:10.000Z</Time>
            <Position>
              <LatitudeDegrees>36.52388817630708217620849609375</LatitudeDegrees>
              <LongitudeDegrees>-5.40734938345849514007568359375</LongitudeDegrees>
            </Position>
            <AltitudeMeters>239.600006103515625</AltitudeMeters>
            <DistanceMeters>3470.2427685109</DistanceMeters>
          </Trackpoint>
          <Trackpoint>
            <Time>2019-01-04T09:53:11.000Z</Time>
            <Position>
              <LatitudeDegrees>36.5238766930997371673583984375</LatitudeDegrees>
              <LongitudeDegrees>-5.4073583520948886871337890625</LongitudeDegrees>
            </Position>
            <AltitudeMeters>239.399993896484375</AltitudeMeters>
            <DistanceMeters>3471.7512708357</DistanceMeters>
          </Trackpoint>
          <Trackpoint>
            <Time>2019-01-04T09:53:12.000Z</Time>
            <Position>
              <LatitudeDegrees>36.52386437170207500457763671875</LatitudeDegrees>
              <LongitudeDegrees>-5.40736681781709194183349609375</LongitudeDegrees>
            </Position>
            <AltitudeMeters>239.1999969482421875</AltitudeMeters>
            <DistanceMeters>3473.3184915581</DistanceMeters>
          </Trackpoint>
          <Trackpoint>
            <Time>2019-01-04T09:53:13.000Z</Time>
            <Position>
              <LatitudeDegrees>36.52385481633245944976806640625</LatitudeDegrees>
              <LongitudeDegrees>-5.4073720984160900115966796875</LongitudeDegrees>
            </Position>
            <AltitudeMeters>238.8000030517578125</AltitudeMeters>
            <DistanceMeters>3474.4823263688</DistanceMeters>
          </Trackpoint>
          <Trackpoint>
            <Time>2019-01-04T09:53:14.000Z</Time>
            <Position>
              <LatitudeDegrees>36.52384341694414615631103515625</LatitudeDegrees>
              <LongitudeDegrees>-5.40737402625381946563720703125</LongitudeDegrees>
            </Position>
            <AltitudeMeters>238.600006103515625</AltitudeMeters>
            <DistanceMeters>3475.7607800584</DistanceMeters>
          </Trackpoint>
          <Trackpoint>
            <Time>2019-01-04T09:53:15.000Z</Time>
            <Position>
              <LatitudeDegrees>36.5238294191658496856689453125</LatitudeDegrees>
              <LongitudeDegrees>-5.40738006122410297393798828125</LongitudeDegrees>
            </Position>
            <AltitudeMeters>238.1999969482421875</AltitudeMeters>
            <DistanceMeters>3477.406691032</DistanceMeters>
          </Trackpoint>
          <Trackpoint>
            <Time>2019-01-04T09:53:16.000Z</Time>
            <Position>
              <LatitudeDegrees>36.52381785213947296142578125</LatitudeDegrees>
              <LongitudeDegrees>-5.40738961659371852874755859375</LongitudeDegrees>
            </Position>
            <AltitudeMeters>238</AltitudeMeters>
            <DistanceMeters>3478.950692386</DistanceMeters>
          </Trackpoint>
          <Trackpoint>
            <Time>2019-01-04T09:53:17.000Z</Time>
            <Position>
              <LatitudeDegrees>36.5238042734563350677490234375</LatitudeDegrees>
              <LongitudeDegrees>-5.40739581920206546783447265625</LongitudeDegrees>
            </Position>
            <AltitudeMeters>237.8000030517578125</AltitudeMeters>
            <DistanceMeters>3480.5605470191</DistanceMeters>
          </Trackpoint>
          <Trackpoint>
            <Time>2019-01-04T09:53:18.000Z</Time>
            <Position>
              <LatitudeDegrees>36.5237890183925628662109375</LatitudeDegrees>
              <LongitudeDegrees>-5.40740378201007843017578125</LongitudeDegrees>
            </Position>
            <AltitudeMeters>237.8000030517578125</AltitudeMeters>
            <DistanceMeters>3482.4031833757</DistanceMeters>
          </Trackpoint>
          <Trackpoint>
            <Time>2019-01-04T09:53:19.000Z</Time>
            <Position>
              <LatitudeDegrees>36.52377435006201267242431640625</LatitudeDegrees>
              <LongitudeDegrees>-5.40740914642810821533203125</LongitudeDegrees>
            </Position>
            <AltitudeMeters>237.600006103515625</AltitudeMeters>
            <DistanceMeters>3484.1030729198</DistanceMeters>
          </Trackpoint>
          <Trackpoint>
            <Time>2019-01-04T09:53:20.000Z</Time>
            <Position>
              <LatitudeDegrees>36.5237583406269550323486328125</LatitudeDegrees>
              <LongitudeDegrees>-5.4074207134544849395751953125</LongitudeDegrees>
            </Position>
            <AltitudeMeters>237.600006103515625</AltitudeMeters>
            <DistanceMeters>3486.1675815978</DistanceMeters>
          </Trackpoint>
          <Trackpoint>
            <Time>2019-01-04T09:53:21.000Z</Time>
            <Position>
              <LatitudeDegrees>36.5237434208393096923828125</LatitudeDegrees>
              <LongitudeDegrees>-5.4074277542531490325927734375</LongitudeDegrees>
            </Position>
            <AltitudeMeters>237.399993896484375</AltitudeMeters>
            <DistanceMeters>3487.9453686366</DistanceMeters>
          </Trackpoint>
          <Trackpoint>
            <Time>2019-01-04T09:53:22.000Z</Time>
            <Position>
              <LatitudeDegrees>36.5237288363277912139892578125</LatitudeDegrees>
              <LongitudeDegrees>-5.40743521414697170257568359375</LongitudeDegrees>
            </Position>
            <AltitudeMeters>237.399993896484375</AltitudeMeters>
            <DistanceMeters>3489.7027206628</DistanceMeters>
          </Trackpoint>
          <Trackpoint>
            <Time>2019-01-04T09:53:23.000Z</Time>
            <Position>
              <LatitudeDegrees>36.52371400035917758941650390625</LatitudeDegrees>
              <LongitudeDegrees>-5.407443344593048095703125</LongitudeDegrees>
            </Position>
            <AltitudeMeters>237.1999969482421875</AltitudeMeters>
            <DistanceMeters>3491.5057257986</DistanceMeters>
          </Trackpoint>
          <Trackpoint>
            <Time>2019-01-04T09:53:24.000Z</Time>
            <Position>
              <LatitudeDegrees>36.52369740419089794158935546875</LatitudeDegrees>
              <LongitudeDegrees>-5.4074575938284397125244140625</LongitudeDegrees>
            </Position>
            <AltitudeMeters>237.1999969482421875</AltitudeMeters>
            <DistanceMeters>3493.7484367874</DistanceMeters>
          </Trackpoint>
          <Trackpoint>
            <Time>2019-01-04T09:53:25.000Z</Time>
            <Position>
              <LatitudeDegrees>36.523685753345489501953125</LatitudeDegrees>
              <LongitudeDegrees>-5.40746815502643585205078125</LongitudeDegrees>
            </Position>
            <AltitudeMeters>237.1999969482421875</AltitudeMeters>
            <DistanceMeters>3495.3554843483</DistanceMeters>
          </Trackpoint>
          <Trackpoint>
            <Time>2019-01-04T09:53:26.000Z</Time>
            <Position>
              <LatitudeDegrees>36.5236718393862247467041015625</LatitudeDegrees>
              <LongitudeDegrees>-5.40748131461441516876220703125</LongitudeDegrees>
            </Position>
            <AltitudeMeters>237</AltitudeMeters>
            <DistanceMeters>3497.3029524755</DistanceMeters>
          </Trackpoint>
          <Trackpoint>
            <Time>2019-01-04T09:53:27.000Z</Time>
            <Position>
              <LatitudeDegrees>36.52365624904632568359375</LatitudeDegrees>
              <LongitudeDegrees>-5.4074954800307750701904296875</LongitudeDegrees>
            </Position>
            <AltitudeMeters>237</AltitudeMeters>
            <DistanceMeters>3499.4531615675</DistanceMeters>
          </Trackpoint>
          <Trackpoint>
            <Time>2019-01-04T09:53:28.000Z</Time>
            <Position>
              <LatitudeDegrees>36.52364443056285381317138671875</LatitudeDegrees>
              <LongitudeDegrees>-5.40750838816165924072265625</LongitudeDegrees>
            </Position>
            <AltitudeMeters>237</AltitudeMeters>
            <DistanceMeters>3501.205367603</DistanceMeters>
          </Trackpoint>
          <Trackpoint>
            <Time>2019-01-04T09:53:29.000Z</Time>
            <Position>
              <LatitudeDegrees>36.52363487519323825836181640625</LatitudeDegrees>
              <LongitudeDegrees>-5.40751936845481395721435546875</LongitudeDegrees>
            </Position>
            <AltitudeMeters>237</AltitudeMeters>
            <DistanceMeters>3502.6527713943</DistanceMeters>
          </Trackpoint>
          <Trackpoint>
            <Time>2019-01-04T09:53:30.000Z</Time>
            <Position>
              <LatitudeDegrees>36.52362733148038387298583984375</LatitudeDegrees>
              <LongitudeDegrees>-5.40753378532826900482177734375</LongitudeDegrees>
            </Position>
            <AltitudeMeters>237</AltitudeMeters>
            <DistanceMeters>3504.1909131395</DistanceMeters>
          </Trackpoint>
          <Trackpoint>
            <Time>2019-01-04T09:53:31.000Z</Time>
            <Position>
              <LatitudeDegrees>36.5236178599298000335693359375</LatitudeDegrees>
              <LongitudeDegrees>-5.40754887275397777557373046875</LongitudeDegrees>
            </Position>
            <AltitudeMeters>237</AltitudeMeters>
            <DistanceMeters>3505.9013939982</DistanceMeters>
          </Trackpoint>
          <Trackpoint>
            <Time>2019-01-04T09:53:32.000Z</Time>
            <Position>
              <LatitudeDegrees>36.52360822074115276336669921875</LatitudeDegrees>
              <LongitudeDegrees>-5.4075662232935428619384765625</LongitudeDegrees>
            </Position>
            <AltitudeMeters>237</AltitudeMeters>
            <DistanceMeters>3507.7876204212</DistanceMeters>
          </Trackpoint>
          <Trackpoint>
            <Time>2019-01-04T09:53:33.000Z</Time>
            <Position>
              <LatitudeDegrees>36.52360185049474239349365234375</LatitudeDegrees>
              <LongitudeDegrees>-5.40758156217634677886962890625</LongitudeDegrees>
            </Position>
            <AltitudeMeters>236.8000030517578125</AltitudeMeters>
            <DistanceMeters>3509.3316217752</DistanceMeters>
          </Trackpoint>
          <Trackpoint>
            <Time>2019-01-04T09:53:34.000Z</Time>
            <Position>
              <LatitudeDegrees>36.52359246276319026947021484375</LatitudeDegrees>
              <LongitudeDegrees>-5.40759631432592868804931640625</LongitudeDegrees>
            </Position>
            <AltitudeMeters>237</AltitudeMeters>
            <DistanceMeters>3511.0128159719</DistanceMeters>
          </Trackpoint>
          <Trackpoint>
            <Time>2019-01-04T09:53:35.000Z</Time>
            <Position>
              <LatitudeDegrees>36.52358391322195529937744140625</LatitudeDegrees>
              <LongitudeDegrees>-5.407611317932605743408203125</LongitudeDegrees>
            </Position>
            <AltitudeMeters>237</AltitudeMeters>
            <DistanceMeters>3512.6587269455</DistanceMeters>
          </Trackpoint>
          <Trackpoint>
            <Time>2019-01-04T09:53:36.000Z</Time>
            <Position>
              <LatitudeDegrees>36.5235756151378154754638671875</LatitudeDegrees>
              <LongitudeDegrees>-5.40762506425380706787109375</LongitudeDegrees>
            </Position>
            <AltitudeMeters>237</AltitudeMeters>
            <DistanceMeters>3514.1968686907</DistanceMeters>
          </Trackpoint>
          <Trackpoint>
            <Time>2019-01-04T09:53:37.000Z</Time>
            <Position>
              <LatitudeDegrees>36.5235679037868976593017578125</LatitudeDegrees>
              <LongitudeDegrees>-5.40763855911791324615478515625</LongitudeDegrees>
            </Position>
            <AltitudeMeters>236.8000030517578125</AltitudeMeters>
            <DistanceMeters>3515.6751374415</DistanceMeters>
          </Trackpoint>
          <Trackpoint>
            <Time>2019-01-04T09:53:38.000Z</Time>
            <Position>
              <LatitudeDegrees>36.52355927042663097381591796875</LatitudeDegrees>
              <LongitudeDegrees>-5.4076507128775119781494140625</LongitudeDegrees>
            </Position>
            <AltitudeMeters>236.8000030517578125</AltitudeMeters>
            <DistanceMeters>3517.1287666541</DistanceMeters>
          </Trackpoint>
          <Trackpoint>
            <Time>2019-01-04T09:53:39.000Z</Time>
            <Position>
              <LatitudeDegrees>36.52355189435184001922607421875</LatitudeDegrees>
              <LongitudeDegrees>-5.40766655467450618743896484375</LongitudeDegrees>
            </Position>
            <AltitudeMeters>236.8000030517578125</AltitudeMeters>
            <DistanceMeters>3518.7664273955</DistanceMeters>
          </Trackpoint>
          <Trackpoint>
            <Time>2019-01-04T09:53:40.000Z</Time>
            <Position>
              <LatitudeDegrees>36.52354250662028789520263671875</LatitudeDegrees>
              <LongitudeDegrees>-5.4076807200908660888671875</LongitudeDegrees>
            </Position>
            <AltitudeMeters>236.8000030517578125</AltitudeMeters>
            <DistanceMeters>3520.4068428247</DistanceMeters>
          </Trackpoint>
          <Trackpoint>
            <Time>2019-01-04T09:53:41.000Z</Time>
            <Position>
              <LatitudeDegrees>36.52353261597454547882080078125</LatitudeDegrees>
              <LongitudeDegrees>-5.4076914489269256591796875</LongitudeDegrees>
            </Position>
            <AltitudeMeters>236.600006103515625</AltitudeMeters>
            <DistanceMeters>3521.8666709107</DistanceMeters>
          </Trackpoint>
          <Trackpoint>
            <Time>2019-01-04T09:53:42.000Z</Time>
            <Position>
              <LatitudeDegrees>36.52351886965334415435791015625</LatitudeDegrees>
              <LongitudeDegrees>-5.40770276449620723724365234375</LongitudeDegrees>
            </Position>
            <AltitudeMeters>236.600006103515625</AltitudeMeters>
            <DistanceMeters>3523.7044001046</DistanceMeters>
          </Trackpoint>
          <Trackpoint>
            <Time>2019-01-04T09:53:43.000Z</Time>
            <Position>
              <LatitudeDegrees>36.52350763790309429168701171875</LatitudeDegrees>
              <LongitudeDegrees>-5.407714582979679107666015625</LongitudeDegrees>
            </Position>
            <AltitudeMeters>236.399993896484375</AltitudeMeters>
            <DistanceMeters>3525.342060846</DistanceMeters>
          </Trackpoint>
          <Trackpoint>
            <Time>2019-01-04T09:53:44.000Z</Time>
            <Position>
              <LatitudeDegrees>36.5234978310763835906982421875</LatitudeDegrees>
              <LongitudeDegrees>-5.4077321849763393402099609375</LongitudeDegrees>
            </Position>
            <AltitudeMeters>236.1999969482421875</AltitudeMeters>
            <DistanceMeters>3527.2567960852</DistanceMeters>
          </Trackpoint>
          <Trackpoint>
            <Time>2019-01-04T09:53:45.000Z</Time>
            <Position>
              <LatitudeDegrees>36.52348852716386318206787109375</LatitudeDegrees>
              <LongitudeDegrees>-5.407752804458141326904296875</LongitudeDegrees>
            </Position>
            <AltitudeMeters>236.1999969482421875</AltitudeMeters>
            <DistanceMeters>3529.3710070112</DistanceMeters>
          </Trackpoint>
          <Trackpoint>
            <Time>2019-01-04T09:53:46.000Z</Time>
            <Position>
              <LatitudeDegrees>36.5234773792326450347900390625</LatitudeDegrees>
              <LongitudeDegrees>-5.4077687300741672515869140625</LongitudeDegrees>
            </Position>
            <AltitudeMeters>236</AltitudeMeters>
            <DistanceMeters>3531.262014751</DistanceMeters>
          </Trackpoint>
          <Trackpoint>
            <Time>2019-01-04T09:53:47.000Z</Time>
            <Position>
              <LatitudeDegrees>36.52346489019691944122314453125</LatitudeDegrees>
              <LongitudeDegrees>-5.40778457187116146087646484375</LongitudeDegrees>
            </Position>
            <AltitudeMeters>236</AltitudeMeters>
            <DistanceMeters>3533.2462308001</DistanceMeters>
          </Trackpoint>
          <Trackpoint>
            <Time>2019-01-04T09:53:48.000Z</Time>
            <Position>
              <LatitudeDegrees>36.52345231734216213226318359375</LatitudeDegrees>
              <LongitudeDegrees>-5.4077999107539653778076171875</LongitudeDegrees>
            </Position>
            <AltitudeMeters>236</AltitudeMeters>
            <DistanceMeters>3535.2075600853</DistanceMeters>
          </Trackpoint>
          <Trackpoint>
            <Time>2019-01-04T09:53:49.000Z</Time>
            <Position>
              <LatitudeDegrees>36.52343806810677051544189453125</LatitudeDegrees>
              <LongitudeDegrees>-5.4078139923512935638427734375</LongitudeDegrees>
            </Position>
            <AltitudeMeters>236</AltitudeMeters>
            <DistanceMeters>3537.2323204923</DistanceMeters>
          </Trackpoint>
          <Trackpoint>
            <Time>2019-01-04T09:53:50.000Z</Time>
            <Position>
              <LatitudeDegrees>36.52342583052814006805419921875</LatitudeDegrees>
              <LongitudeDegrees>-5.40782698430120944976806640625</LongitudeDegrees>
            </Position>
            <AltitudeMeters>236</AltitudeMeters>
            <DistanceMeters>3539.0252809531</DistanceMeters>
          </Trackpoint>
          <Trackpoint>
            <Time>2019-01-04T09:53:51.000Z</Time>
            <Position>
              <LatitudeDegrees>36.5234153531491756439208984375</LatitudeDegrees>
              <LongitudeDegrees>-5.4078362882137298583984375</LongitudeDegrees>
            </Position>
            <AltitudeMeters>236</AltitudeMeters>
            <DistanceMeters>3540.4570027671</DistanceMeters>
          </Trackpoint>
          <Trackpoint>
            <Time>2019-01-04T09:53:52.000Z</Time>
            <Position>
              <LatitudeDegrees>36.52340185828506946563720703125</LatitudeDegrees>
              <LongitudeDegrees>-5.40784559212625026702880859375</LongitudeDegrees>
            </Position>
            <AltitudeMeters>236</AltitudeMeters>
            <DistanceMeters>3542.1727547657</DistanceMeters>
          </Trackpoint>
          <Trackpoint>
            <Time>2019-01-04T09:53:53.000Z</Time>
            <Position>
              <LatitudeDegrees>36.52339012362062931060791015625</LatitudeDegrees>
              <LongitudeDegrees>-5.40785280056297779083251953125</LongitudeDegrees>
            </Position>
            <AltitudeMeters>235.8000030517578125</AltitudeMeters>
            <DistanceMeters>3543.6263839784</DistanceMeters>
          </Trackpoint>
          <Trackpoint>
            <Time>2019-01-04T09:53:54.000Z</Time>
            <Position>
              <LatitudeDegrees>36.5233767963945865631103515625</LatitudeDegrees>
              <LongitudeDegrees>-5.40786084719002246856689453125</LongitudeDegrees>
            </Position>
            <AltitudeMeters>235.8000030517578125</AltitudeMeters>
            <DistanceMeters>3545.272294952</DistanceMeters>
          </Trackpoint>
          <Trackpoint>
            <Time>2019-01-04T09:53:55.000Z</Time>
            <Position>
              <LatitudeDegrees>36.5233637206256389617919921875</LatitudeDegrees>
              <LongitudeDegrees>-5.40786906145513057708740234375</LongitudeDegrees>
            </Position>
            <AltitudeMeters>235.8000030517578125</AltitudeMeters>
            <DistanceMeters>3546.90443237</DistanceMeters>
          </Trackpoint>
          <Trackpoint>
            <Time>2019-01-04T09:53:56.000Z</Time>
            <Position>
              <LatitudeDegrees>36.523351483047008514404296875</LatitudeDegrees>
              <LongitudeDegrees>-5.407877527177333831787109375</LongitudeDegrees>
            </Position>
            <AltitudeMeters>235.8000030517578125</AltitudeMeters>
            <DistanceMeters>3548.4600867297</DistanceMeters>
          </Trackpoint>
          <Trackpoint>
            <Time>2019-01-04T09:53:57.000Z</Time>
            <Position>
              <LatitudeDegrees>36.52333765290677547454833984375</LatitudeDegrees>
              <LongitudeDegrees>-5.4078872501850128173828125</LongitudeDegrees>
            </Position>
            <AltitudeMeters>235.8000030517578125</AltitudeMeters>
            <DistanceMeters>3550.2276857933</DistanceMeters>
          </Trackpoint>
          <Trackpoint>
            <Time>2019-01-04T09:53:58.000Z</Time>
            <Position>
              <LatitudeDegrees>36.5233254991471767425537109375</LatitudeDegrees>
              <LongitudeDegrees>-5.40789403952658176422119140625</LongitudeDegrees>
            </Position>
            <AltitudeMeters>235.8000030517578125</AltitudeMeters>
            <DistanceMeters>3551.7120505235</DistanceMeters>
          </Trackpoint>
          <Trackpoint>
            <Time>2019-01-04T09:53:59.000Z</Time>
            <Position>
              <LatitudeDegrees>36.52331217192113399505615234375</LatitudeDegrees>
              <LongitudeDegrees>-5.4078984819352626800537109375</LongitudeDegrees>
            </Position>
            <AltitudeMeters>236</AltitudeMeters>
            <DistanceMeters>3553.244310252</DistanceMeters>
          </Trackpoint>
          <Trackpoint>
            <Time>2019-01-04T09:54:00.000Z</Time>
            <Position>
              <LatitudeDegrees>36.5232990123331546783447265625</LatitudeDegrees>
              <LongitudeDegrees>-5.40790091268718242645263671875</LongitudeDegrees>
            </Position>
            <AltitudeMeters>236</AltitudeMeters>
            <DistanceMeters>3554.7286749822</DistanceMeters>
          </Trackpoint>
          <Trackpoint>
            <Time>2019-01-04T09:54:01.000Z</Time>
            <Position>
              <LatitudeDegrees>36.5232859365642070770263671875</LatitudeDegrees>
              <LongitudeDegrees>-5.4079008288681507110595703125</LongitudeDegrees>
            </Position>
            <AltitudeMeters>235.8000030517578125</AltitudeMeters>
            <DistanceMeters>3556.1854069288</DistanceMeters>
          </Trackpoint>
          <Trackpoint>
            <Time>2019-01-04T09:54:02.000Z</Time>
            <Position>
              <LatitudeDegrees>36.52327604591846466064453125</LatitudeDegrees>
              <LongitudeDegrees>-5.40790309198200702667236328125</LongitudeDegrees>
            </Position>
            <AltitudeMeters>235.8000030517578125</AltitudeMeters>
            <DistanceMeters>3557.3097781763</DistanceMeters>
          </Trackpoint>
          <Trackpoint>
            <Time>2019-01-04T09:54:03.000Z</Time>
            <Position>
              <LatitudeDegrees>36.52327068150043487548828125</LatitudeDegrees>
              <LongitudeDegrees>-5.4079078696668148040771484375</LongitudeDegrees>
            </Position>
            <AltitudeMeters>235.8000030517578125</AltitudeMeters>
            <DistanceMeters>3558.0458519407</DistanceMeters>
          </Trackpoint>
          <Trackpoint>
            <Time>2019-01-04T09:54:04.000Z</Time>
            <Position>
              <LatitudeDegrees>36.5232708491384983062744140625</LatitudeDegrees>
              <LongitudeDegrees>-5.40791398845613002777099609375</LongitudeDegrees>
            </Position>
            <AltitudeMeters>235.8000030517578125</AltitudeMeters>
            <DistanceMeters>3558.5917388545</DistanceMeters>
          </Trackpoint>
          <Trackpoint>
            <Time>2019-01-04T09:54:05.000Z</Time>
            <Position>
              <LatitudeDegrees>36.5232711844146251678466796875</LatitudeDegrees>
              <LongitudeDegrees>-5.407917760312557220458984375</LongitudeDegrees>
            </Position>
            <AltitudeMeters>235.8000030517578125</AltitudeMeters>
            <DistanceMeters>3558.9343625457</DistanceMeters>
          </Trackpoint>
          <Trackpoint>
            <Time>2019-01-04T09:54:06.000Z</Time>
            <Position>
              <LatitudeDegrees>36.5232698433101177215576171875</LatitudeDegrees>
              <LongitudeDegrees>-5.4079232923686504364013671875</LongitudeDegrees>
            </Position>
            <AltitudeMeters>235.8000030517578125</AltitudeMeters>
            <DistanceMeters>3559.4548452959</DistanceMeters>
          </Trackpoint>
          <Trackpoint>
            <Time>2019-01-04T09:54:07.000Z</Time>
            <Position>
              <LatitudeDegrees>36.52326942421495914459228515625</LatitudeDegrees>
              <LongitudeDegrees>-5.407927148044109344482421875</LongitudeDegrees>
            </Position>
            <AltitudeMeters>235.8000030517578125</AltitudeMeters>
            <DistanceMeters>3559.8104027037</DistanceMeters>
          </Trackpoint>
          <Trackpoint>
            <Time>2019-01-04T09:54:08.000Z</Time>
            <Position>
              <LatitudeDegrees>36.523269675672054290771484375</LatitudeDegrees>
              <LongitudeDegrees>-5.40793125517666339874267578125</LongitudeDegrees>
            </Position>
            <AltitudeMeters>235.8000030517578125</AltitudeMeters>
            <DistanceMeters>3560.1905095612</DistanceMeters>
          </Trackpoint>
          <Trackpoint>
            <Time>2019-01-04T09:54:09.000Z</Time>
            <Position>
              <LatitudeDegrees>36.5232708491384983062744140625</LatitudeDegrees>
              <LongitudeDegrees>-5.4079328477382659912109375</LongitudeDegrees>
            </Position>
            <AltitudeMeters>235.8000030517578125</AltitudeMeters>
            <DistanceMeters>3560.3805629899</DistanceMeters>
          </Trackpoint>
          <Trackpoint>
            <Time>2019-01-04T09:54:10.000Z</Time>
            <Position>
              <LatitudeDegrees>36.523271687328815460205078125</LatitudeDegrees>
              <LongitudeDegrees>-5.40793351829051971435546875</LongitudeDegrees>
            </Position>
            <AltitudeMeters>235.8000030517578125</AltitudeMeters>
            <DistanceMeters>3560.5149510582</DistanceMeters>
          </Trackpoint>
          <Trackpoint>
            <Time>2019-01-04T09:54:11.000Z</Time>
            <Position>
              <LatitudeDegrees>36.5232721902430057525634765625</LatitudeDegrees>
              <LongitudeDegrees>-5.4079341888427734375</LongitudeDegrees>
            </Position>
            <AltitudeMeters>235.8000030517578125</AltitudeMeters>
            <DistanceMeters>3560.5149510582</DistanceMeters>
          </Trackpoint>
          <Trackpoint>
            <Time>2019-01-04T09:54:12.000Z</Time>
            <Position>
              <LatitudeDegrees>36.5232721902430057525634765625</LatitudeDegrees>
              <LongitudeDegrees>-5.4079350270330905914306640625</LongitudeDegrees>
            </Position>
            <AltitudeMeters>235.8000030517578125</AltitudeMeters>
            <DistanceMeters>3560.5149510582</DistanceMeters>
          </Trackpoint>
          <Trackpoint>
            <Time>2019-01-04T09:54:13.000Z</Time>
            <Position>
              <LatitudeDegrees>36.5232728607952594757080078125</LatitudeDegrees>
              <LongitudeDegrees>-5.40793611668050289154052734375</LongitudeDegrees>
            </Position>
            <AltitudeMeters>235.8000030517578125</AltitudeMeters>
            <DistanceMeters>3560.5149510582</DistanceMeters>
          </Trackpoint>
          <Trackpoint>
            <Time>2019-01-04T09:54:14.000Z</Time>
            <Position>
              <LatitudeDegrees>36.52327294461429119110107421875</LatitudeDegrees>
              <LongitudeDegrees>-5.4079382121562957763671875</LongitudeDegrees>
            </Position>
            <AltitudeMeters>235.8000030517578125</AltitudeMeters>
            <DistanceMeters>3560.7050044869</DistanceMeters>
          </Trackpoint>
          <Trackpoint>
            <Time>2019-01-04T09:54:15.000Z</Time>
            <Position>
              <LatitudeDegrees>36.52327311225235462188720703125</LatitudeDegrees>
              <LongitudeDegrees>-5.40793930180370807647705078125</LongitudeDegrees>
            </Position>
            <AltitudeMeters>235.8000030517578125</AltitudeMeters>
            <DistanceMeters>3560.8000312013</DistanceMeters>
          </Trackpoint>
          <Trackpoint>
            <Time>2019-01-04T09:54:16.000Z</Time>
            <Position>
              <LatitudeDegrees>36.52327327989041805267333984375</LatitudeDegrees>
              <LongitudeDegrees>-5.40793955326080322265625</LongitudeDegrees>
            </Position>
            <AltitudeMeters>235.8000030517578125</AltitudeMeters>
            <DistanceMeters>3560.8000312013</DistanceMeters>
          </Trackpoint>
          <Trackpoint>
            <Time>2019-01-04T09:54:17.000Z</Time>
            <Position>
              <LatitudeDegrees>36.52327311225235462188720703125</LatitudeDegrees>
              <LongitudeDegrees>-5.40793963707983493804931640625</LongitudeDegrees>
            </Position>
            <AltitudeMeters>235.8000030517578125</AltitudeMeters>
            <DistanceMeters>3560.8000312013</DistanceMeters>
          </Trackpoint>
          <Trackpoint>
            <Time>2019-01-04T09:54:18.000Z</Time>
            <Position>
              <LatitudeDegrees>36.52327311225235462188720703125</LatitudeDegrees>
              <LongitudeDegrees>-5.40793963707983493804931640625</LongitudeDegrees>
            </Position>
            <AltitudeMeters>235.8000030517578125</AltitudeMeters>
            <DistanceMeters>3560.8000312013</DistanceMeters>
          </Trackpoint>
          <Trackpoint>
            <Time>2019-01-04T09:54:19.000Z</Time>
            <Position>
              <LatitudeDegrees>36.52327344752848148345947265625</LatitudeDegrees>
              <LongitudeDegrees>-5.40793946944177150726318359375</LongitudeDegrees>
            </Position>
            <AltitudeMeters>235.8000030517578125</AltitudeMeters>
            <DistanceMeters>3560.8000312013</DistanceMeters>
          </Trackpoint>
          <Trackpoint>
            <Time>2019-01-04T09:54:20.000Z</Time>
            <Position>
              <LatitudeDegrees>36.52327344752848148345947265625</LatitudeDegrees>
              <LongitudeDegrees>-5.40793946944177150726318359375</LongitudeDegrees>
            </Position>
            <AltitudeMeters>235.8000030517578125</AltitudeMeters>
            <DistanceMeters>3560.8000312013</DistanceMeters>
          </Trackpoint>
          <Trackpoint>
            <Time>2019-01-04T09:54:21.000Z</Time>
            <Position>
              <LatitudeDegrees>36.52327336370944976806640625</LatitudeDegrees>
              <LongitudeDegrees>-5.40793913416564464569091796875</LongitudeDegrees>
            </Position>
            <AltitudeMeters>235.8000030517578125</AltitudeMeters>
            <DistanceMeters>3560.8000312013</DistanceMeters>
          </Trackpoint>
          <Trackpoint>
            <Time>2019-01-04T09:54:22.000Z</Time>
            <Position>
              <LatitudeDegrees>36.52327344752848148345947265625</LatitudeDegrees>
              <LongitudeDegrees>-5.4079390503466129302978515625</LongitudeDegrees>
            </Position>
            <AltitudeMeters>235.8000030517578125</AltitudeMeters>
            <DistanceMeters>3560.8000312013</DistanceMeters>
          </Trackpoint>
          <Trackpoint>
            <Time>2019-01-04T09:54:23.000Z</Time>
            <Position>
              <LatitudeDegrees>36.52327344752848148345947265625</LatitudeDegrees>
              <LongitudeDegrees>-5.407939217984676361083984375</LongitudeDegrees>
            </Position>
            <AltitudeMeters>235.8000030517578125</AltitudeMeters>
            <DistanceMeters>3560.8000312013</DistanceMeters>
          </Trackpoint>
          <Trackpoint>
            <Time>2019-01-04T09:54:24.000Z</Time>
            <Position>
              <LatitudeDegrees>36.5232735313475131988525390625</LatitudeDegrees>
              <LongitudeDegrees>-5.40793930180370807647705078125</LongitudeDegrees>
            </Position>
            <AltitudeMeters>235.8000030517578125</AltitudeMeters>
            <DistanceMeters>3560.8000312013</DistanceMeters>
          </Trackpoint>
          <Trackpoint>
            <Time>2019-01-04T09:54:25.000Z</Time>
            <Position>
              <LatitudeDegrees>36.52327336370944976806640625</LatitudeDegrees>
              <LongitudeDegrees>-5.4079397208988666534423828125</LongitudeDegrees>
            </Position>
            <AltitudeMeters>235.8000030517578125</AltitudeMeters>
            <DistanceMeters>3560.8000312013</DistanceMeters>
          </Trackpoint>
          <Trackpoint>
            <Time>2019-01-04T09:54:26.000Z</Time>
            <Position>
              <LatitudeDegrees>36.5232725255191326141357421875</LatitudeDegrees>
              <LongitudeDegrees>-5.40793963707983493804931640625</LongitudeDegrees>
            </Position>
            <AltitudeMeters>235.8000030517578125</AltitudeMeters>
            <DistanceMeters>3560.8950579157</DistanceMeters>
          </Trackpoint>
          <Trackpoint>
            <Time>2019-01-04T09:54:27.000Z</Time>
            <Position>
              <LatitudeDegrees>36.5232718549668788909912109375</LatitudeDegrees>
              <LongitudeDegrees>-5.40793980471789836883544921875</LongitudeDegrees>
            </Position>
            <AltitudeMeters>235.8000030517578125</AltitudeMeters>
            <DistanceMeters>3560.8950579157</DistanceMeters>
          </Trackpoint>
          <Trackpoint>
            <Time>2019-01-04T09:54:28.000Z</Time>
            <Position>
              <LatitudeDegrees>36.523272357881069183349609375</LatitudeDegrees>
              <LongitudeDegrees>-5.4079403914511203765869140625</LongitudeDegrees>
            </Position>
            <AltitudeMeters>235.8000030517578125</AltitudeMeters>
            <DistanceMeters>3560.8950579157</DistanceMeters>
          </Trackpoint>
          <Trackpoint>
            <Time>2019-01-04T09:54:29.000Z</Time>
            <Position>
              <LatitudeDegrees>36.523272693157196044921875</LatitudeDegrees>
              <LongitudeDegrees>-5.4079408943653106689453125</LongitudeDegrees>
            </Position>
            <AltitudeMeters>235.8000030517578125</AltitudeMeters>
            <DistanceMeters>3560.8950579157</DistanceMeters>
          </Trackpoint>
          <Trackpoint>
            <Time>2019-01-04T09:54:30.000Z</Time>
            <Position>
              <LatitudeDegrees>36.52327336370944976806640625</LatitudeDegrees>
              <LongitudeDegrees>-5.40794164873659610748291015625</LongitudeDegrees>
            </Position>
            <AltitudeMeters>235.8000030517578125</AltitudeMeters>
            <DistanceMeters>3561.0294459839</DistanceMeters>
          </Trackpoint>
          <Trackpoint>
            <Time>2019-01-04T09:54:31.000Z</Time>
            <Position>
              <LatitudeDegrees>36.52327378280460834503173828125</LatitudeDegrees>
              <LongitudeDegrees>-5.40794248692691326141357421875</LongitudeDegrees>
            </Position>
            <AltitudeMeters>235.8000030517578125</AltitudeMeters>
            <DistanceMeters>3561.1244726983</DistanceMeters>
          </Trackpoint>
          <Trackpoint>
            <Time>2019-01-04T09:54:32.000Z</Time>
            <Position>
              <LatitudeDegrees>36.5232745371758937835693359375</LatitudeDegrees>
              <LongitudeDegrees>-5.40794349275529384613037109375</LongitudeDegrees>
            </Position>
            <AltitudeMeters>235.600006103515625</AltitudeMeters>
            <DistanceMeters>3561.2194994126</DistanceMeters>
          </Trackpoint>
          <Trackpoint>
            <Time>2019-01-04T09:54:33.000Z</Time>
            <Position>
              <LatitudeDegrees>36.5232753753662109375</LatitudeDegrees>
              <LongitudeDegrees>-5.40794433094561100006103515625</LongitudeDegrees>
            </Position>
            <AltitudeMeters>235.600006103515625</AltitudeMeters>
            <DistanceMeters>3561.314526127</DistanceMeters>
          </Trackpoint>
          <Trackpoint>
            <Time>2019-01-04T09:54:34.000Z</Time>
            <Position>
              <LatitudeDegrees>36.52327529154717922210693359375</LatitudeDegrees>
              <LongitudeDegrees>-5.40794483385980129241943359375</LongitudeDegrees>
            </Position>
            <AltitudeMeters>235.600006103515625</AltitudeMeters>
            <DistanceMeters>3561.314526127</DistanceMeters>
          </Trackpoint>
          <Trackpoint>
            <Time>2019-01-04T09:54:35.000Z</Time>
            <Position>
              <LatitudeDegrees>36.52327529154717922210693359375</LatitudeDegrees>
              <LongitudeDegrees>-5.407945252954959869384765625</LongitudeDegrees>
            </Position>
            <AltitudeMeters>235.600006103515625</AltitudeMeters>
            <DistanceMeters>3561.314526127</DistanceMeters>
          </Trackpoint>
          <Trackpoint>
            <Time>2019-01-04T09:54:36.000Z</Time>
            <Position>
              <LatitudeDegrees>36.523275040090084075927734375</LatitudeDegrees>
              <LongitudeDegrees>-5.40794533677399158477783203125</LongitudeDegrees>
            </Position>
            <AltitudeMeters>235.600006103515625</AltitudeMeters>
            <DistanceMeters>3561.314526127</DistanceMeters>
          </Trackpoint>
          <Trackpoint>
            <Time>2019-01-04T09:54:37.000Z</Time>
            <Position>
              <LatitudeDegrees>36.5232748724520206451416015625</LatitudeDegrees>
              <LongitudeDegrees>-5.40794600732624530792236328125</LongitudeDegrees>
            </Position>
            <AltitudeMeters>235.600006103515625</AltitudeMeters>
            <DistanceMeters>3561.4095528414</DistanceMeters>
          </Trackpoint>
          <Trackpoint>
            <Time>2019-01-04T09:54:38.000Z</Time>
            <Position>
              <LatitudeDegrees>36.5232742018997669219970703125</LatitudeDegrees>
              <LongitudeDegrees>-5.4079467616975307464599609375</LongitudeDegrees>
            </Position>
            <AltitudeMeters>235.600006103515625</AltitudeMeters>
            <DistanceMeters>3561.5439409096</DistanceMeters>
          </Trackpoint>
          <Trackpoint>
            <Time>2019-01-04T09:54:39.000Z</Time>
            <Position>
              <LatitudeDegrees>36.52327411808073520660400390625</LatitudeDegrees>
              <LongitudeDegrees>-5.40794684551656246185302734375</LongitudeDegrees>
            </Position>
            <AltitudeMeters>235.600006103515625</AltitudeMeters>
            <DistanceMeters>3561.5439409096</DistanceMeters>
          </Trackpoint>
          <Trackpoint>
            <Time>2019-01-04T09:54:40.000Z</Time>
            <Position>
              <LatitudeDegrees>36.523274369537830352783203125</LatitudeDegrees>
              <LongitudeDegrees>-5.407947599887847900390625</LongitudeDegrees>
            </Position>
            <AltitudeMeters>235.8000030517578125</AltitudeMeters>
            <DistanceMeters>3561.638967624</DistanceMeters>
          </Trackpoint>
          <Trackpoint>
            <Time>2019-01-04T09:54:41.000Z</Time>
            <Position>
              <LatitudeDegrees>36.5232742018997669219970703125</LatitudeDegrees>
              <LongitudeDegrees>-5.40794827044010162353515625</LongitudeDegrees>
            </Position>
            <AltitudeMeters>235.8000030517578125</AltitudeMeters>
            <DistanceMeters>3561.7733556922</DistanceMeters>
          </Trackpoint>
          <Trackpoint>
            <Time>2019-01-04T09:54:42.000Z</Time>
            <Position>
              <LatitudeDegrees>36.5232738666236400604248046875</LatitudeDegrees>
              <LongitudeDegrees>-5.407949276268482208251953125</LongitudeDegrees>
            </Position>
            <AltitudeMeters>235.600006103515625</AltitudeMeters>
            <DistanceMeters>3561.9077437605</DistanceMeters>
          </Trackpoint>
          <Trackpoint>
            <Time>2019-01-04T09:54:43.000Z</Time>
            <Position>
              <LatitudeDegrees>36.523273698985576629638671875</LatitudeDegrees>
              <LongitudeDegrees>-5.40795028209686279296875</LongitudeDegrees>
            </Position>
            <AltitudeMeters>235.8000030517578125</AltitudeMeters>
            <DistanceMeters>3562.0421318287</DistanceMeters>
          </Trackpoint>
          <Trackpoint>
            <Time>2019-01-04T09:54:44.000Z</Time>
            <Position>
              <LatitudeDegrees>36.5232740342617034912109375</LatitudeDegrees>
              <LongitudeDegrees>-5.40795095264911651611328125</LongitudeDegrees>
            </Position>
            <AltitudeMeters>235.600006103515625</AltitudeMeters>
            <DistanceMeters>3562.1371585431</DistanceMeters>
          </Trackpoint>
          <Trackpoint>
            <Time>2019-01-04T09:54:45.000Z</Time>
            <Position>
              <LatitudeDegrees>36.52327395044267177581787109375</LatitudeDegrees>
              <LongitudeDegrees>-5.4079516232013702392578125</LongitudeDegrees>
            </Position>
            <AltitudeMeters>235.600006103515625</AltitudeMeters>
            <DistanceMeters>3562.1371585431</DistanceMeters>
          </Trackpoint>
          <Trackpoint>
            <Time>2019-01-04T09:54:46.000Z</Time>
            <Position>
              <LatitudeDegrees>36.52327344752848148345947265625</LatitudeDegrees>
              <LongitudeDegrees>-5.4079521261155605316162109375</LongitudeDegrees>
            </Position>
            <AltitudeMeters>235.600006103515625</AltitudeMeters>
            <DistanceMeters>3562.1371585431</DistanceMeters>
          </Trackpoint>
          <Trackpoint>
            <Time>2019-01-04T09:54:47.000Z</Time>
            <Position>
              <LatitudeDegrees>36.5232728607952594757080078125</LatitudeDegrees>
              <LongitudeDegrees>-5.4079524613916873931884765625</LongitudeDegrees>
            </Position>
            <AltitudeMeters>235.600006103515625</AltitudeMeters>
            <DistanceMeters>3562.1371585431</DistanceMeters>
          </Trackpoint>
          <Trackpoint>
            <Time>2019-01-04T09:54:48.000Z</Time>
            <Position>
              <LatitudeDegrees>36.52327260933816432952880859375</LatitudeDegrees>
              <LongitudeDegrees>-5.4079521261155605316162109375</LongitudeDegrees>
            </Position>
            <AltitudeMeters>235.600006103515625</AltitudeMeters>
            <DistanceMeters>3562.1371585431</DistanceMeters>
          </Trackpoint>
          <Trackpoint>
            <Time>2019-01-04T09:54:49.000Z</Time>
            <Position>
              <LatitudeDegrees>36.52327244170010089874267578125</LatitudeDegrees>
              <LongitudeDegrees>-5.4079517908394336700439453125</LongitudeDegrees>
            </Position>
            <AltitudeMeters>235.600006103515625</AltitudeMeters>
            <DistanceMeters>3562.1371585431</DistanceMeters>
          </Trackpoint>
          <Trackpoint>
            <Time>2019-01-04T09:54:50.000Z</Time>
            <Position>
              <LatitudeDegrees>36.52327227406203746795654296875</LatitudeDegrees>
              <LongitudeDegrees>-5.40795220993459224700927734375</LongitudeDegrees>
            </Position>
            <AltitudeMeters>235.600006103515625</AltitudeMeters>
            <DistanceMeters>3562.1371585431</DistanceMeters>
          </Trackpoint>
          <Trackpoint>
            <Time>2019-01-04T09:54:51.000Z</Time>
            <Position>
              <LatitudeDegrees>36.52327110059559345245361328125</LatitudeDegrees>
              <LongitudeDegrees>-5.40795304812490940093994140625</LongitudeDegrees>
            </Position>
            <AltitudeMeters>235.600006103515625</AltitudeMeters>
            <DistanceMeters>3562.3017496405</DistanceMeters>
          </Trackpoint>
          <Trackpoint>
            <Time>2019-01-04T09:54:52.000Z</Time>
            <Position>
              <LatitudeDegrees>36.5232708491384983062744140625</LatitudeDegrees>
              <LongitudeDegrees>-5.40795338340103626251220703125</LongitudeDegrees>
            </Position>
            <AltitudeMeters>235.600006103515625</AltitudeMeters>
            <DistanceMeters>3562.3017496405</DistanceMeters>
          </Trackpoint>
          <Trackpoint>
            <Time>2019-01-04T09:54:53.000Z</Time>
            <Position>
              <LatitudeDegrees>36.52327076531946659088134765625</LatitudeDegrees>
              <LongitudeDegrees>-5.40795355103909969329833984375</LongitudeDegrees>
            </Position>
            <AltitudeMeters>235.600006103515625</AltitudeMeters>
            <DistanceMeters>3562.3017496405</DistanceMeters>
          </Trackpoint>
          <Trackpoint>
            <Time>2019-01-04T09:54:54.000Z</Time>
            <Position>
              <LatitudeDegrees>36.52327093295753002166748046875</LatitudeDegrees>
              <LongitudeDegrees>-5.40795355103909969329833984375</LongitudeDegrees>
            </Position>
            <AltitudeMeters>235.8000030517578125</AltitudeMeters>
            <DistanceMeters>3562.3017496405</DistanceMeters>
          </Trackpoint>
          <Trackpoint>
            <Time>2019-01-04T09:54:55.000Z</Time>
            <Position>
              <LatitudeDegrees>36.52327110059559345245361328125</LatitudeDegrees>
              <LongitudeDegrees>-5.407953970134258270263671875</LongitudeDegrees>
            </Position>
            <AltitudeMeters>235.8000030517578125</AltitudeMeters>
            <DistanceMeters>3562.3017496405</DistanceMeters>
          </Trackpoint>
          <Trackpoint>
            <Time>2019-01-04T09:54:56.000Z</Time>
            <Position>
              <LatitudeDegrees>36.5232715196907520294189453125</LatitudeDegrees>
              <LongitudeDegrees>-5.40795405395328998565673828125</LongitudeDegrees>
            </Position>
            <AltitudeMeters>235.8000030517578125</AltitudeMeters>
            <DistanceMeters>3562.3017496405</DistanceMeters>
          </Trackpoint>
          <Trackpoint>
            <Time>2019-01-04T09:54:57.000Z</Time>
            <Position>
              <LatitudeDegrees>36.52327202260494232177734375</LatitudeDegrees>
              <LongitudeDegrees>-5.40795472450554370880126953125</LongitudeDegrees>
            </Position>
            <AltitudeMeters>235.8000030517578125</AltitudeMeters>
            <DistanceMeters>3562.3967763549</DistanceMeters>
          </Trackpoint>
          <Trackpoint>
            <Time>2019-01-04T09:54:58.000Z</Time>
            <Position>
              <LatitudeDegrees>36.5232715196907520294189453125</LatitudeDegrees>
              <LongitudeDegrees>-5.40795170702040195465087890625</LongitudeDegrees>
            </Position>
            <AltitudeMeters>235.8000030517578125</AltitudeMeters>
            <DistanceMeters>3562.6655524914</DistanceMeters>
          </Trackpoint>
          <Trackpoint>
            <Time>2019-01-04T09:54:59.000Z</Time>
            <Position>
              <LatitudeDegrees>36.52326925657689571380615234375</LatitudeDegrees>
              <LongitudeDegrees>-5.407949276268482208251953125</LongitudeDegrees>
            </Position>
            <AltitudeMeters>235.8000030517578125</AltitudeMeters>
            <DistanceMeters>3563.0081761826</DistanceMeters>
          </Trackpoint>
          <Trackpoint>
            <Time>2019-01-04T09:55:00.000Z</Time>
            <Position>
              <LatitudeDegrees>36.52325886301696300506591796875</LatitudeDegrees>
              <LongitudeDegrees>-5.40794785134494304656982421875</LongitudeDegrees>
            </Position>
            <AltitudeMeters>235.8000030517578125</AltitudeMeters>
            <DistanceMeters>3564.1720109932</DistanceMeters>
          </Trackpoint>
          <Trackpoint>
            <Time>2019-01-04T09:55:01.000Z</Time>
            <Position>
              <LatitudeDegrees>36.52324914000928401947021484375</LatitudeDegrees>
              <LongitudeDegrees>-5.40794500149786472320556640625</LongitudeDegrees>
            </Position>
            <AltitudeMeters>235.600006103515625</AltitudeMeters>
            <DistanceMeters>3565.2883221279</DistanceMeters>
          </Trackpoint>
          <Trackpoint>
            <Time>2019-01-04T09:55:02.000Z</Time>
            <Position>
              <LatitudeDegrees>36.52323774062097072601318359375</LatitudeDegrees>
              <LongitudeDegrees>-5.40794156491756439208984375</LongitudeDegrees>
            </Position>
            <AltitudeMeters>235.600006103515625</AltitudeMeters>
            <DistanceMeters>3566.5912627909</DistanceMeters>
          </Trackpoint>
          <Trackpoint>
            <Time>2019-01-04T09:55:03.000Z</Time>
            <Position>
              <LatitudeDegrees>36.5232259221374988555908203125</LatitudeDegrees>
              <LongitudeDegrees>-5.40793796069920063018798828125</LongitudeDegrees>
            </Position>
            <AltitudeMeters>235.399993896484375</AltitudeMeters>
            <DistanceMeters>3567.9485157499</DistanceMeters>
          </Trackpoint>
          <Trackpoint>
            <Time>2019-01-04T09:55:04.000Z</Time>
            <Position>
              <LatitudeDegrees>36.523213349282741546630859375</LatitudeDegrees>
              <LongitudeDegrees>-5.4079355299472808837890625</LongitudeDegrees>
            </Position>
            <AltitudeMeters>235.399993896484375</AltitudeMeters>
            <DistanceMeters>3569.3643819055</DistanceMeters>
          </Trackpoint>
          <Trackpoint>
            <Time>2019-01-04T09:55:05.000Z</Time>
            <Position>
              <LatitudeDegrees>36.5232001058757305145263671875</LatitudeDegrees>
              <LongitudeDegrees>-5.4079346917569637298583984375</LongitudeDegrees>
            </Position>
            <AltitudeMeters>235.399993896484375</AltitudeMeters>
            <DistanceMeters>3570.8426506562</DistanceMeters>
          </Trackpoint>
          <Trackpoint>
            <Time>2019-01-04T09:55:06.000Z</Time>
            <Position>
              <LatitudeDegrees>36.5231870301067829132080078125</LatitudeDegrees>
              <LongitudeDegrees>-5.407931171357631683349609375</LongitudeDegrees>
            </Position>
            <AltitudeMeters>235.1999969482421875</AltitudeMeters>
            <DistanceMeters>3572.3330864332</DistanceMeters>
          </Trackpoint>
          <Trackpoint>
            <Time>2019-01-04T09:55:07.000Z</Time>
            <Position>
              <LatitudeDegrees>36.52317387051880359649658203125</LatitudeDegrees>
              <LongitudeDegrees>-5.40792723186314105987548828125</LongitudeDegrees>
            </Position>
            <AltitudeMeters>235.399993896484375</AltitudeMeters>
            <DistanceMeters>3573.8415887579</DistanceMeters>
          </Trackpoint>
          <Trackpoint>
            <Time>2019-01-04T09:55:08.000Z</Time>
            <Position>
              <LatitudeDegrees>36.5231595374643802642822265625</LatitudeDegrees>
              <LongitudeDegrees>-5.40792413055896759033203125</LongitudeDegrees>
            </Position>
            <AltitudeMeters>235.399993896484375</AltitudeMeters>
            <DistanceMeters>3575.4570429022</DistanceMeters>
          </Trackpoint>
          <Trackpoint>
            <Time>2019-01-04T09:55:09.000Z</Time>
            <Position>
              <LatitudeDegrees>36.523145623505115509033203125</LatitudeDegrees>
              <LongitudeDegrees>-5.40792010724544525146484375</LongitudeDegrees>
            </Position>
            <AltitudeMeters>235.399993896484375</AltitudeMeters>
            <DistanceMeters>3577.0471439696</DistanceMeters>
          </Trackpoint>
          <Trackpoint>
            <Time>2019-01-04T09:55:10.000Z</Time>
            <Position>
              <LatitudeDegrees>36.52313279919326305389404296875</LatitudeDegrees>
              <LongitudeDegrees>-5.40791231207549571990966796875</LongitudeDegrees>
            </Position>
            <AltitudeMeters>235.399993896484375</AltitudeMeters>
            <DistanceMeters>3578.6372450369</DistanceMeters>
          </Trackpoint>
          <Trackpoint>
            <Time>2019-01-04T09:55:11.000Z</Time>
            <Position>
              <LatitudeDegrees>36.52312106452882289886474609375</LatitudeDegrees>
              <LongitudeDegrees>-5.4079065285623073577880859375</LongitudeDegrees>
            </Position>
            <AltitudeMeters>235.600006103515625</AltitudeMeters>
            <DistanceMeters>3580.0467189876</DistanceMeters>
          </Trackpoint>
          <Trackpoint>
            <Time>2019-01-04T09:55:12.000Z</Time>
            <Position>
              <LatitudeDegrees>36.52310907840728759765625</LatitudeDegrees>
              <LongitudeDegrees>-5.40790191851556301116943359375</LongitudeDegrees>
            </Position>
            <AltitudeMeters>235.600006103515625</AltitudeMeters>
            <DistanceMeters>3581.4433207604</DistanceMeters>
          </Trackpoint>
          <Trackpoint>
            <Time>2019-01-04T09:55:13.000Z</Time>
            <Position>
              <LatitudeDegrees>36.52309575118124485015869140625</LatitudeDegrees>
              <LongitudeDegrees>-5.40789772756397724151611328125</LongitudeDegrees>
            </Position>
            <AltitudeMeters>235.600006103515625</AltitudeMeters>
            <DistanceMeters>3582.9696758051</DistanceMeters>
          </Trackpoint>
          <Trackpoint>
            <Time>2019-01-04T09:55:14.000Z</Time>
            <Position>
              <LatitudeDegrees>36.5230807475745677947998046875</LatitudeDegrees>
              <LongitudeDegrees>-5.40789336897432804107666015625</LongitudeDegrees>
            </Position>
            <AltitudeMeters>235.600006103515625</AltitudeMeters>
            <DistanceMeters>3584.6827942611</DistanceMeters>
          </Trackpoint>
          <Trackpoint>
            <Time>2019-01-04T09:55:15.000Z</Time>
            <Position>
              <LatitudeDegrees>36.5230646543204784393310546875</LatitudeDegrees>
              <LongitudeDegrees>-5.40788934566080570220947265625</LongitudeDegrees>
            </Position>
            <AltitudeMeters>235.399993896484375</AltitudeMeters>
            <DistanceMeters>3586.5057227105</DistanceMeters>
          </Trackpoint>
          <Trackpoint>
            <Time>2019-01-04T09:55:16.000Z</Time>
            <Position>
              <LatitudeDegrees>36.5230487287044525146484375</LatitudeDegrees>
              <LongitudeDegrees>-5.40788381360471248626708984375</LongitudeDegrees>
            </Position>
            <AltitudeMeters>235.1999969482421875</AltitudeMeters>
            <DistanceMeters>3588.3434519043</DistanceMeters>
          </Trackpoint>
          <Trackpoint>
            <Time>2019-01-04T09:55:17.000Z</Time>
            <Position>
              <LatitudeDegrees>36.52303372509777545928955078125</LatitudeDegrees>
              <LongitudeDegrees>-5.40787543170154094696044921875</LongitudeDegrees>
            </Position>
            <AltitudeMeters>235</AltitudeMeters>
            <DistanceMeters>3590.1737956865</DistanceMeters>
          </Trackpoint>
          <Trackpoint>
            <Time>2019-01-04T09:55:18.000Z</Time>
            <Position>
              <LatitudeDegrees>36.523020900785923004150390625</LatitudeDegrees>
              <LongitudeDegrees>-5.4078683070838451385498046875</LongitudeDegrees>
            </Position>
            <AltitudeMeters>234.8000030517578125</AltitudeMeters>
            <DistanceMeters>3591.7410164089</DistanceMeters>
          </Trackpoint>
          <Trackpoint>
            <Time>2019-01-04T09:55:19.000Z</Time>
            <Position>
              <LatitudeDegrees>36.52300640009343624114990234375</LatitudeDegrees>
              <LongitudeDegrees>-5.4078619368374347686767578125</LongitudeDegrees>
            </Position>
            <AltitudeMeters>234.8000030517578125</AltitudeMeters>
            <DistanceMeters>3593.4541348649</DistanceMeters>
          </Trackpoint>
          <Trackpoint>
            <Time>2019-01-04T09:55:20.000Z</Time>
            <Position>
              <LatitudeDegrees>36.522991396486759185791015625</LatitudeDegrees>
              <LongitudeDegrees>-5.40785598568618297576904296875</LongitudeDegrees>
            </Position>
            <AltitudeMeters>234.600006103515625</AltitudeMeters>
            <DistanceMeters>3595.2089157821</DistanceMeters>
          </Trackpoint>
          <Trackpoint>
            <Time>2019-01-04T09:55:21.000Z</Time>
            <Position>
              <LatitudeDegrees>36.5229763090610504150390625</LatitudeDegrees>
              <LongitudeDegrees>-5.407851375639438629150390625</LongitudeDegrees>
            </Position>
            <AltitudeMeters>234.600006103515625</AltitudeMeters>
            <DistanceMeters>3596.9403849211</DistanceMeters>
          </Trackpoint>
          <Trackpoint>
            <Time>2019-01-04T09:55:22.000Z</Time>
            <Position>
              <LatitudeDegrees>36.52295954525470733642578125</LatitudeDegrees>
              <LongitudeDegrees>-5.40784358046948909759521484375</LongitudeDegrees>
            </Position>
            <AltitudeMeters>234.600006103515625</AltitudeMeters>
            <DistanceMeters>3598.933682098</DistanceMeters>
          </Trackpoint>
          <Trackpoint>
            <Time>2019-01-04T09:55:23.000Z</Time>
            <Position>
              <LatitudeDegrees>36.5229456312954425811767578125</LatitudeDegrees>
              <LongitudeDegrees>-5.4078376293182373046875</LongitudeDegrees>
            </Position>
            <AltitudeMeters>234.600006103515625</AltitudeMeters>
            <DistanceMeters>3600.5740975272</DistanceMeters>
          </Trackpoint>
          <Trackpoint>
            <Time>2019-01-04T09:55:24.000Z</Time>
            <Position>
              <LatitudeDegrees>36.522933058440685272216796875</LatitudeDegrees>
              <LongitudeDegrees>-5.40783570148050785064697265625</LongitudeDegrees>
            </Position>
            <AltitudeMeters>234.399993896484375</AltitudeMeters>
            <DistanceMeters>3601.9835714778</DistanceMeters>
          </Trackpoint>
          <Trackpoint>
            <Time>2019-01-04T09:55:25.000Z</Time>
            <Position>
              <LatitudeDegrees>36.52292040176689624786376953125</LatitudeDegrees>
              <LongitudeDegrees>-5.4078371264040470123291015625</LongitudeDegrees>
            </Position>
            <AltitudeMeters>234.399993896484375</AltitudeMeters>
            <DistanceMeters>3603.3994376334</DistanceMeters>
          </Trackpoint>
          <Trackpoint>
            <Time>2019-01-04T09:55:26.000Z</Time>
            <Position>
              <LatitudeDegrees>36.522907577455043792724609375</LatitudeDegrees>
              <LongitudeDegrees>-5.40783754549920558929443359375</LongitudeDegrees>
            </Position>
            <AltitudeMeters>234.1999969482421875</AltitudeMeters>
            <DistanceMeters>3604.8280023944</DistanceMeters>
          </Trackpoint>
          <Trackpoint>
            <Time>2019-01-04T09:55:27.000Z</Time>
            <Position>
              <LatitudeDegrees>36.5228943340480327606201171875</LatitudeDegrees>
              <LongitudeDegrees>-5.4078362882137298583984375</LongitudeDegrees>
            </Position>
            <AltitudeMeters>234</AltitudeMeters>
            <DistanceMeters>3606.3062711452</DistanceMeters>
          </Trackpoint>
          <Trackpoint>
            <Time>2019-01-04T09:55:28.000Z</Time>
            <Position>
              <LatitudeDegrees>36.52287849225103855133056640625</LatitudeDegrees>
              <LongitudeDegrees>-5.40783821605145931243896484375</LongitudeDegrees>
            </Position>
            <AltitudeMeters>234</AltitudeMeters>
            <DistanceMeters>3608.0789715154</DistanceMeters>
          </Trackpoint>
          <Trackpoint>
            <Time>2019-01-04T09:55:29.000Z</Time>
            <Position>
              <LatitudeDegrees>36.52286231517791748046875</LatitudeDegrees>
              <LongitudeDegrees>-5.407832600176334381103515625</LongitudeDegrees>
            </Position>
            <AltitudeMeters>234</AltitudeMeters>
            <DistanceMeters>3609.9483670283</DistanceMeters>
          </Trackpoint>
          <Trackpoint>
            <Time>2019-01-04T09:55:30.000Z</Time>
            <Position>
              <LatitudeDegrees>36.5228480659425258636474609375</LatitudeDegrees>
              <LongitudeDegrees>-5.40782698430120944976806640625</LongitudeDegrees>
            </Position>
            <AltitudeMeters>233.8000030517578125</AltitudeMeters>
            <DistanceMeters>3611.6133695713</DistanceMeters>
          </Trackpoint>
          <Trackpoint>
            <Time>2019-01-04T09:55:31.000Z</Time>
            <Position>
              <LatitudeDegrees>36.5228359960019588470458984375</LatitudeDegrees>
              <LongitudeDegrees>-5.40782463736832141876220703125</LongitudeDegrees>
            </Position>
            <AltitudeMeters>233.8000030517578125</AltitudeMeters>
            <DistanceMeters>3612.9739450639</DistanceMeters>
          </Trackpoint>
          <Trackpoint>
            <Time>2019-01-04T09:55:32.000Z</Time>
            <Position>
              <LatitudeDegrees>36.52282551862299442291259765625</LatitudeDegrees>
              <LongitudeDegrees>-5.407821200788021087646484375</LongitudeDegrees>
            </Position>
            <AltitudeMeters>233.600006103515625</AltitudeMeters>
            <DistanceMeters>3614.1759484878</DistanceMeters>
          </Trackpoint>
          <Trackpoint>
            <Time>2019-01-04T09:55:33.000Z</Time>
            <Position>
              <LatitudeDegrees>36.52281411923468112945556640625</LatitudeDegrees>
              <LongitudeDegrees>-5.4078180156648159027099609375</LongitudeDegrees>
            </Position>
            <AltitudeMeters>233.399993896484375</AltitudeMeters>
            <DistanceMeters>3615.4788891509</DistanceMeters>
          </Trackpoint>
          <Trackpoint>
            <Time>2019-01-04T09:55:34.000Z</Time>
            <Position>
              <LatitudeDegrees>36.5228011272847652435302734375</LatitudeDegrees>
              <LongitudeDegrees>-5.4078133217990398406982421875</LongitudeDegrees>
            </Position>
            <AltitudeMeters>233</AltitudeMeters>
            <DistanceMeters>3616.9813934307</DistanceMeters>
          </Trackpoint>
          <Trackpoint>
            <Time>2019-01-04T09:55:35.000Z</Time>
            <Position>
              <LatitudeDegrees>36.5227870456874370574951171875</LatitudeDegrees>
              <LongitudeDegrees>-5.40781256742775440216064453125</LongitudeDegrees>
            </Position>
            <AltitudeMeters>232.600006103515625</AltitudeMeters>
            <DistanceMeters>3618.5514924305</DistanceMeters>
          </Trackpoint>
          <Trackpoint>
            <Time>2019-01-04T09:55:36.000Z</Time>
            <Position>
              <LatitudeDegrees>36.5227722935378551483154296875</LatitudeDegrees>
              <LongitudeDegrees>-5.4078119806945323944091796875</LongitudeDegrees>
            </Position>
            <AltitudeMeters>232.399993896484375</AltitudeMeters>
            <DistanceMeters>3620.1946579294</DistanceMeters>
          </Trackpoint>
          <Trackpoint>
            <Time>2019-01-04T09:55:37.000Z</Time>
            <Position>
              <LatitudeDegrees>36.5227578766644001007080078125</LatitudeDegrees>
              <LongitudeDegrees>-5.4078170098364353179931640625</LongitudeDegrees>
            </Position>
            <AltitudeMeters>232.399993896484375</AltitudeMeters>
            <DistanceMeters>3621.8650751292</DistanceMeters>
          </Trackpoint>
          <Trackpoint>
            <Time>2019-01-04T09:55:38.000Z</Time>
            <Position>
              <LatitudeDegrees>36.52274429798126220703125</LatitudeDegrees>
              <LongitudeDegrees>-5.4078156687319278717041015625</LongitudeDegrees>
            </Position>
            <AltitudeMeters>232.1999969482421875</AltitudeMeters>
            <DistanceMeters>3623.379551744</DistanceMeters>
          </Trackpoint>
          <Trackpoint>
            <Time>2019-01-04T09:55:39.000Z</Time>
            <Position>
              <LatitudeDegrees>36.52273197658360004425048828125</LatitudeDegrees>
              <LongitudeDegrees>-5.40781415998935699462890625</LongitudeDegrees>
            </Position>
            <AltitudeMeters>232.1999969482421875</AltitudeMeters>
            <DistanceMeters>3624.7566196628</DistanceMeters>
          </Trackpoint>
          <Trackpoint>
            <Time>2019-01-04T09:55:40.000Z</Time>
            <Position>
              <LatitudeDegrees>36.52271906845271587371826171875</LatitudeDegrees>
              <LongitudeDegrees>-5.407813824713230133056640625</LongitudeDegrees>
            </Position>
            <AltitudeMeters>232.1999969482421875</AltitudeMeters>
            <DistanceMeters>3626.1977711407</DistanceMeters>
          </Trackpoint>
          <Trackpoint>
            <Time>2019-01-04T09:55:41.000Z</Time>
            <Position>
              <LatitudeDegrees>36.5227067470550537109375</LatitudeDegrees>
              <LongitudeDegrees>-5.40781374089419841766357421875</LongitudeDegrees>
            </Position>
            <AltitudeMeters>232.1999969482421875</AltitudeMeters>
            <DistanceMeters>3627.5682659055</DistanceMeters>
          </Trackpoint>
          <Trackpoint>
            <Time>2019-01-04T09:55:42.000Z</Time>
            <Position>
              <LatitudeDegrees>36.52269358746707439422607421875</LatitudeDegrees>
              <LongitudeDegrees>-5.40781508199870586395263671875</LongitudeDegrees>
            </Position>
            <AltitudeMeters>232.1999969482421875</AltitudeMeters>
            <DistanceMeters>3629.0342666537</DistanceMeters>
          </Trackpoint>
          <Trackpoint>
            <Time>2019-01-04T09:55:43.000Z</Time>
            <Position>
              <LatitudeDegrees>36.5226807631552219390869140625</LatitudeDegrees>
              <LongitudeDegrees>-5.4078103043138980865478515625</LongitudeDegrees>
            </Position>
            <AltitudeMeters>232</AltitudeMeters>
            <DistanceMeters>3630.5216700047</DistanceMeters>
          </Trackpoint>
          <Trackpoint>
            <Time>2019-01-04T09:55:44.000Z</Time>
            <Position>
              <LatitudeDegrees>36.5226673521101474761962890625</LatitudeDegrees>
              <LongitudeDegrees>-5.4078049398958683013916015625</LongitudeDegrees>
            </Position>
            <AltitudeMeters>232</AltitudeMeters>
            <DistanceMeters>3632.0888907272</DistanceMeters>
          </Trackpoint>
          <Trackpoint>
            <Time>2019-01-04T09:55:45.000Z</Time>
            <Position>
              <LatitudeDegrees>36.522653102874755859375</LatitudeDegrees>
              <LongitudeDegrees>-5.40780074894428253173828125</LongitudeDegrees>
            </Position>
            <AltitudeMeters>231.8000030517578125</AltitudeMeters>
            <DistanceMeters>3633.7182594621</DistanceMeters>
          </Trackpoint>
          <Trackpoint>
            <Time>2019-01-04T09:55:46.000Z</Time>
            <Position>
              <LatitudeDegrees>36.5226412005722522735595703125</LatitudeDegrees>
              <LongitudeDegrees>-5.40779613889753818511962890625</LongitudeDegrees>
            </Position>
            <AltitudeMeters>231.600006103515625</AltitudeMeters>
            <DistanceMeters>3635.1051286999</DistanceMeters>
          </Trackpoint>
          <Trackpoint>
            <Time>2019-01-04T09:55:47.000Z</Time>
            <Position>
              <LatitudeDegrees>36.52262804098427295684814453125</LatitudeDegrees>
              <LongitudeDegrees>-5.4077960550785064697265625</LongitudeDegrees>
            </Position>
            <AltitudeMeters>231.600006103515625</AltitudeMeters>
            <DistanceMeters>3636.5680463726</DistanceMeters>
          </Trackpoint>
          <Trackpoint>
            <Time>2019-01-04T09:55:48.000Z</Time>
            <Position>
              <LatitudeDegrees>36.52261479757726192474365234375</LatitudeDegrees>
              <LongitudeDegrees>-5.4077972285449504852294921875</LongitudeDegrees>
            </Position>
            <AltitudeMeters>231.399993896484375</AltitudeMeters>
            <DistanceMeters>3638.0432576873</DistanceMeters>
          </Trackpoint>
          <Trackpoint>
            <Time>2019-01-04T09:55:49.000Z</Time>
            <Position>
              <LatitudeDegrees>36.5226007997989654541015625</LatitudeDegrees>
              <LongitudeDegrees>-5.4077975638210773468017578125</LongitudeDegrees>
            </Position>
            <AltitudeMeters>231</AltitudeMeters>
            <DistanceMeters>3639.598912047</DistanceMeters>
          </Trackpoint>
          <Trackpoint>
            <Time>2019-01-04T09:55:50.000Z</Time>
            <Position>
              <LatitudeDegrees>36.52258730493485927581787109375</LatitudeDegrees>
              <LongitudeDegrees>-5.40780007839202880859375</LongitudeDegrees>
            </Position>
            <AltitudeMeters>230.8000030517578125</AltitudeMeters>
            <DistanceMeters>3641.119339477</DistanceMeters>
          </Trackpoint>
          <Trackpoint>
            <Time>2019-01-04T09:55:51.000Z</Time>
            <Position>
              <LatitudeDegrees>36.522572301328182220458984375</LatitudeDegrees>
              <LongitudeDegrees>-5.40780435316264629364013671875</LongitudeDegrees>
            </Position>
            <AltitudeMeters>230.600006103515625</AltitudeMeters>
            <DistanceMeters>3642.8350914756</DistanceMeters>
          </Trackpoint>
          <Trackpoint>
            <Time>2019-01-04T09:55:52.000Z</Time>
            <Position>
              <LatitudeDegrees>36.52255981229245662689208984375</LatitudeDegrees>
              <LongitudeDegrees>-5.40780535899102687835693359375</LongitudeDegrees>
            </Position>
            <AltitudeMeters>230.600006103515625</AltitudeMeters>
            <DistanceMeters>3644.2284566235</DistanceMeters>
          </Trackpoint>
          <Trackpoint>
            <Time>2019-01-04T09:55:53.000Z</Time>
            <Position>
              <LatitudeDegrees>36.52254640124738216400146484375</LatitudeDegrees>
              <LongitudeDegrees>-5.40780468843877315521240234375</LongitudeDegrees>
            </Position>
            <AltitudeMeters>230.399993896484375</AltitudeMeters>
            <DistanceMeters>3645.7219186691</DistanceMeters>
          </Trackpoint>
          <Trackpoint>
            <Time>2019-01-04T09:55:54.000Z</Time>
            <Position>
              <LatitudeDegrees>36.52253282256424427032470703125</LatitudeDegrees>
              <LongitudeDegrees>-5.4078094661235809326171875</LongitudeDegrees>
            </Position>
            <AltitudeMeters>230.399993896484375</AltitudeMeters>
            <DistanceMeters>3647.2920176689</DistanceMeters>
          </Trackpoint>
          <Trackpoint>
            <Time>2019-01-04T09:55:55.000Z</Time>
            <Position>
              <LatitudeDegrees>36.52252092026174068450927734375</LatitudeDegrees>
              <LongitudeDegrees>-5.40781307034194469451904296875</LongitudeDegrees>
            </Position>
            <AltitudeMeters>230.1999969482421875</AltitudeMeters>
            <DistanceMeters>3648.6592140059</DistanceMeters>
          </Trackpoint>
          <Trackpoint>
            <Time>2019-01-04T09:55:56.000Z</Time>
            <Position>
              <LatitudeDegrees>36.52250616811215877532958984375</LatitudeDegrees>
              <LongitudeDegrees>-5.4078237153589725494384765625</LongitudeDegrees>
            </Position>
            <AltitudeMeters>230.1999969482421875</AltitudeMeters>
            <DistanceMeters>3650.5549910035</DistanceMeters>
          </Trackpoint>
          <Trackpoint>
            <Time>2019-01-04T09:55:57.000Z</Time>
            <Position>
              <LatitudeDegrees>36.5224935114383697509765625</LatitudeDegrees>
              <LongitudeDegrees>-5.40782891213893890380859375</LongitudeDegrees>
            </Position>
            <AltitudeMeters>230</AltitudeMeters>
            <DistanceMeters>3652.0393557337</DistanceMeters>
          </Trackpoint>
          <Trackpoint>
            <Time>2019-01-04T09:55:58.000Z</Time>
            <Position>
              <LatitudeDegrees>36.522478424012660980224609375</LatitudeDegrees>
              <LongitudeDegrees>-5.40783000178635120391845703125</LongitudeDegrees>
            </Position>
            <AltitudeMeters>230</AltitudeMeters>
            <DistanceMeters>3653.7232334025</DistanceMeters>
          </Trackpoint>
          <Trackpoint>
            <Time>2019-01-04T09:55:59.000Z</Time>
            <Position>
              <LatitudeDegrees>36.5224641747772693634033203125</LatitudeDegrees>
              <LongitudeDegrees>-5.4078304208815097808837890625</LongitudeDegrees>
            </Position>
            <AltitudeMeters>229.8000030517578125</AltitudeMeters>
            <DistanceMeters>3655.3133344698</DistanceMeters>
          </Trackpoint>
          <Trackpoint>
            <Time>2019-01-04T09:56:00.000Z</Time>
            <Position>
              <LatitudeDegrees>36.52244950644671916961669921875</LatitudeDegrees>
              <LongitudeDegrees>-5.40783427655696868896484375</LongitudeDegrees>
            </Position>
            <AltitudeMeters>229.8000030517578125</AltitudeMeters>
            <DistanceMeters>3656.9810465387</DistanceMeters>
          </Trackpoint>
          <Trackpoint>
            <Time>2019-01-04T09:56:01.000Z</Time>
            <Position>
              <LatitudeDegrees>36.52243274264037609100341796875</LatitudeDegrees>
              <LongitudeDegrees>-5.4078424908220767974853515625</LongitudeDegrees>
            </Position>
            <AltitudeMeters>229.8000030517578125</AltitudeMeters>
            <DistanceMeters>3658.9878883596</DistanceMeters>
          </Trackpoint>
          <Trackpoint>
            <Time>2019-01-04T09:56:02.000Z</Time>
            <Position>
              <LatitudeDegrees>36.5224199183285236358642578125</LatitudeDegrees>
              <LongitudeDegrees>-5.4078495316207408905029296875</LongitudeDegrees>
            </Position>
            <AltitudeMeters>229.8000030517578125</AltitudeMeters>
            <DistanceMeters>3660.5493366104</DistanceMeters>
          </Trackpoint>
          <Trackpoint>
            <Time>2019-01-04T09:56:03.000Z</Time>
            <Position>
              <LatitudeDegrees>36.522407345473766326904296875</LatitudeDegrees>
              <LongitudeDegrees>-5.40785615332424640655517578125</LongitudeDegrees>
            </Position>
            <AltitudeMeters>229.600006103515625</AltitudeMeters>
            <DistanceMeters>3662.0667915498</DistanceMeters>
          </Trackpoint>
          <Trackpoint>
            <Time>2019-01-04T09:56:04.000Z</Time>
            <Position>
              <LatitudeDegrees>36.52239619754254817962646484375</LatitudeDegrees>
              <LongitudeDegrees>-5.40786118246614933013916015625</LongitudeDegrees>
            </Position>
            <AltitudeMeters>229.600006103515625</AltitudeMeters>
            <DistanceMeters>3663.3903605243</DistanceMeters>
          </Trackpoint>
          <Trackpoint>
            <Time>2019-01-04T09:56:05.000Z</Time>
            <Position>
              <LatitudeDegrees>36.52238379232585430145263671875</LatitudeDegrees>
              <LongitudeDegrees>-5.40786704979836940765380859375</LongitudeDegrees>
            </Position>
            <AltitudeMeters>229.600006103515625</AltitudeMeters>
            <DistanceMeters>3664.868629275</DistanceMeters>
          </Trackpoint>
          <Trackpoint>
            <Time>2019-01-04T09:56:06.000Z</Time>
            <Position>
              <LatitudeDegrees>36.52236987836658954620361328125</LatitudeDegrees>
              <LongitudeDegrees>-5.40787107311189174652099609375</LongitudeDegrees>
            </Position>
            <AltitudeMeters>229.600006103515625</AltitudeMeters>
            <DistanceMeters>3666.4558883364</DistanceMeters>
          </Trackpoint>
          <Trackpoint>
            <Time>2019-01-04T09:56:07.000Z</Time>
            <Position>
              <LatitudeDegrees>36.52235713787376880645751953125</LatitudeDegrees>
              <LongitudeDegrees>-5.4078765213489532470703125</LongitudeDegrees>
            </Position>
            <AltitudeMeters>229.600006103515625</AltitudeMeters>
            <DistanceMeters>3667.9553845966</DistanceMeters>
          </Trackpoint>
          <Trackpoint>
            <Time>2019-01-04T09:56:08.000Z</Time>
            <Position>
              <LatitudeDegrees>36.52234506793320178985595703125</LatitudeDegrees>
              <LongitudeDegrees>-5.40788255631923675537109375</LongitudeDegrees>
            </Position>
            <AltitudeMeters>229.600006103515625</AltitudeMeters>
            <DistanceMeters>3669.4027883879</DistanceMeters>
          </Trackpoint>
          <Trackpoint>
            <Time>2019-01-04T09:56:09.000Z</Time>
            <Position>
              <LatitudeDegrees>36.52233098633587360382080078125</LatitudeDegrees>
              <LongitudeDegrees>-5.4078897647559642791748046875</LongitudeDegrees>
            </Position>
            <AltitudeMeters>229.399993896484375</AltitudeMeters>
            <DistanceMeters>3671.0973574509</DistanceMeters>
          </Trackpoint>
          <Trackpoint>
            <Time>2019-01-04T09:56:10.000Z</Time>
            <Position>
              <LatitudeDegrees>36.52231656946241855621337890625</LatitudeDegrees>
              <LongitudeDegrees>-5.407898314297199249267578125</LongitudeDegrees>
            </Position>
            <AltitudeMeters>229.399993896484375</AltitudeMeters>
            <DistanceMeters>3672.877682374</DistanceMeters>
          </Trackpoint>
          <Trackpoint>
            <Time>2019-01-04T09:56:11.000Z</Time>
            <Position>
              <LatitudeDegrees>36.52230265550315380096435546875</LatitudeDegrees>
              <LongitudeDegrees>-5.4079061932861804962158203125</LongitudeDegrees>
            </Position>
            <AltitudeMeters>229.399993896484375</AltitudeMeters>
            <DistanceMeters>3674.5802259237</DistanceMeters>
          </Trackpoint>
          <Trackpoint>
            <Time>2019-01-04T09:56:12.000Z</Time>
            <Position>
              <LatitudeDegrees>36.52228706516325473785400390625</LatitudeDegrees>
              <LongitudeDegrees>-5.40791851468384265899658203125</LongitudeDegrees>
            </Position>
            <AltitudeMeters>229.1999969482421875</AltitudeMeters>
            <DistanceMeters>3676.6359680709</DistanceMeters>
          </Trackpoint>
          <Trackpoint>
            <Time>2019-01-04T09:56:13.000Z</Time>
            <Position>
              <LatitudeDegrees>36.522271223366260528564453125</LatitudeDegrees>
              <LongitudeDegrees>-5.407933183014392852783203125</LongitudeDegrees>
            </Position>
            <AltitudeMeters>229.1999969482421875</AltitudeMeters>
            <DistanceMeters>3678.8359955648</DistanceMeters>
          </Trackpoint>
          <Trackpoint>
            <Time>2019-01-04T09:56:14.000Z</Time>
            <Position>
              <LatitudeDegrees>36.52225680649280548095703125</LatitudeDegrees>
              <LongitudeDegrees>-5.4079449176788330078125</LongitudeDegrees>
            </Position>
            <AltitudeMeters>229.1999969482421875</AltitudeMeters>
            <DistanceMeters>3680.7530874021</DistanceMeters>
          </Trackpoint>
          <Trackpoint>
            <Time>2019-01-04T09:56:15.000Z</Time>
            <Position>
              <LatitudeDegrees>36.522243060171604156494140625</LatitudeDegrees>
              <LongitudeDegrees>-5.40795137174427509307861328125</LongitudeDegrees>
            </Position>
            <AltitudeMeters>229.1999969482421875</AltitudeMeters>
            <DistanceMeters>3682.3879888142</DistanceMeters>
          </Trackpoint>
          <Trackpoint>
            <Time>2019-01-04T09:56:16.000Z</Time>
            <Position>
              <LatitudeDegrees>36.52222973294556140899658203125</LatitudeDegrees>
              <LongitudeDegrees>-5.40796210058033466339111328125</LongitudeDegrees>
            </Position>
            <AltitudeMeters>229</AltitudeMeters>
            <DistanceMeters>3684.1555878778</DistanceMeters>
          </Trackpoint>
          <Trackpoint>
            <Time>2019-01-04T09:56:17.000Z</Time>
            <Position>
              <LatitudeDegrees>36.5222160704433917999267578125</LatitudeDegrees>
              <LongitudeDegrees>-5.407972075045108795166015625</LongitudeDegrees>
            </Position>
            <AltitudeMeters>229</AltitudeMeters>
            <DistanceMeters>3685.9206307592</DistanceMeters>
          </Trackpoint>
          <Trackpoint>
            <Time>2019-01-04T09:56:18.000Z</Time>
            <Position>
              <LatitudeDegrees>36.52220240794122219085693359375</LatitudeDegrees>
              <LongitudeDegrees>-5.40797911584377288818359375</LongitudeDegrees>
            </Position>
            <AltitudeMeters>228.8000030517578125</AltitudeMeters>
            <DistanceMeters>3687.5692826356</DistanceMeters>
          </Trackpoint>
          <Trackpoint>
            <Time>2019-01-04T09:56:19.000Z</Time>
            <Position>
              <LatitudeDegrees>36.5221909247338771820068359375</LatitudeDegrees>
              <LongitudeDegrees>-5.40799026377499103546142578125</LongitudeDegrees>
            </Position>
            <AltitudeMeters>228.8000030517578125</AltitudeMeters>
            <DistanceMeters>3689.190316949</DistanceMeters>
          </Trackpoint>
          <Trackpoint>
            <Time>2019-01-04T09:56:20.000Z</Time>
            <Position>
              <LatitudeDegrees>36.52218036353588104248046875</LatitudeDegrees>
              <LongitudeDegrees>-5.4079994000494480133056640625</LongitudeDegrees>
            </Position>
            <AltitudeMeters>228.8000030517578125</AltitudeMeters>
            <DistanceMeters>3690.622038763</DistanceMeters>
          </Trackpoint>
          <Trackpoint>
            <Time>2019-01-04T09:56:21.000Z</Time>
            <Position>
              <LatitudeDegrees>36.5221691317856311798095703125</LatitudeDegrees>
              <LongitudeDegrees>-5.4080079495906829833984375</LongitudeDegrees>
            </Position>
            <AltitudeMeters>228.8000030517578125</AltitudeMeters>
            <DistanceMeters>3692.0880395112</DistanceMeters>
          </Trackpoint>
          <Trackpoint>
            <Time>2019-01-04T09:56:22.000Z</Time>
            <Position>
              <LatitudeDegrees>36.5221580676734447479248046875</LatitudeDegrees>
              <LongitudeDegrees>-5.40801624767482280731201171875</LongitudeDegrees>
            </Position>
            <AltitudeMeters>228.8000030517578125</AltitudeMeters>
            <DistanceMeters>3693.5260546383</DistanceMeters>
          </Trackpoint>
          <Trackpoint>
            <Time>2019-01-04T09:56:23.000Z</Time>
            <Position>
              <LatitudeDegrees>36.5221463330090045928955078125</LatitudeDegrees>
              <LongitudeDegrees>-5.4080262221395969390869140625</LongitudeDegrees>
            </Position>
            <AltitudeMeters>228.8000030517578125</AltitudeMeters>
            <DistanceMeters>3695.1047569847</DistanceMeters>
          </Trackpoint>
          <Trackpoint>
            <Time>2019-01-04T09:56:24.000Z</Time>
            <Position>
              <LatitudeDegrees>36.52213342487812042236328125</LatitudeDegrees>
              <LongitudeDegrees>-5.4080339334905147552490234375</LongitudeDegrees>
            </Position>
            <AltitudeMeters>229</AltitudeMeters>
            <DistanceMeters>3696.7005268795</DistanceMeters>
          </Trackpoint>
          <Trackpoint>
            <Time>2019-01-04T09:56:25.000Z</Time>
            <Position>
              <LatitudeDegrees>36.52212076820433139801025390625</LatitudeDegrees>
              <LongitudeDegrees>-5.40804089047014713287353515625</LongitudeDegrees>
            </Position>
            <AltitudeMeters>229</AltitudeMeters>
            <DistanceMeters>3698.2445282335</DistanceMeters>
          </Trackpoint>
          <Trackpoint>
            <Time>2019-01-04T09:56:26.000Z</Time>
            <Position>
              <LatitudeDegrees>36.52210702188313007354736328125</LatitudeDegrees>
              <LongitudeDegrees>-5.40804541669785976409912109375</LongitudeDegrees>
            </Position>
            <AltitudeMeters>229.1999969482421875</AltitudeMeters>
            <DistanceMeters>3699.8289401911</DistanceMeters>
          </Trackpoint>
          <Trackpoint>
            <Time>2019-01-04T09:56:27.000Z</Time>
            <Position>
              <LatitudeDegrees>36.52209629304707050323486328125</LatitudeDegrees>
              <LongitudeDegrees>-5.40805379860103130340576171875</LongitudeDegrees>
            </Position>
            <AltitudeMeters>229.1999969482421875</AltitudeMeters>
            <DistanceMeters>3701.2384141418</DistanceMeters>
          </Trackpoint>
          <Trackpoint>
            <Time>2019-01-04T09:56:28.000Z</Time>
            <Position>
              <LatitudeDegrees>36.5220879949629306793212890625</LatitudeDegrees>
              <LongitudeDegrees>-5.4080657847225666046142578125</LongitudeDegrees>
            </Position>
            <AltitudeMeters>229.1999969482421875</AltitudeMeters>
            <DistanceMeters>3702.6542802974</DistanceMeters>
          </Trackpoint>
          <Trackpoint>
            <Time>2019-01-04T09:56:29.000Z</Time>
            <Position>
              <LatitudeDegrees>36.52208120562136173248291015625</LatitudeDegrees>
              <LongitudeDegrees>-5.4080803692340850830078125</LongitudeDegrees>
            </Position>
            <AltitudeMeters>229.1999969482421875</AltitudeMeters>
            <DistanceMeters>3704.1627826222</DistanceMeters>
          </Trackpoint>
          <Trackpoint>
            <Time>2019-01-04T09:56:30.000Z</Time>
            <Position>
              <LatitudeDegrees>36.5220725722610950469970703125</LatitudeDegrees>
              <LongitudeDegrees>-5.40809285826981067657470703125</LongitudeDegrees>
            </Position>
            <AltitudeMeters>229.1999969482421875</AltitudeMeters>
            <DistanceMeters>3705.634930151</DistanceMeters>
          </Trackpoint>
          <Trackpoint>
            <Time>2019-01-04T09:56:31.000Z</Time>
            <Position>
              <LatitudeDegrees>36.5220615081489086151123046875</LatitudeDegrees>
              <LongitudeDegrees>-5.40810409002006053924560546875</LongitudeDegrees>
            </Position>
            <AltitudeMeters>229</AltitudeMeters>
            <DistanceMeters>3707.2250312183</DistanceMeters>
          </Trackpoint>
          <Trackpoint>
            <Time>2019-01-04T09:56:32.000Z</Time>
            <Position>
              <LatitudeDegrees>36.52204868383705615997314453125</LatitudeDegrees>
              <LongitudeDegrees>-5.4081165790557861328125</LongitudeDegrees>
            </Position>
            <AltitudeMeters>229</AltitudeMeters>
            <DistanceMeters>3709.0380253787</DistanceMeters>
          </Trackpoint>
          <Trackpoint>
            <Time>2019-01-04T09:56:33.000Z</Time>
            <Position>
              <LatitudeDegrees>36.5220390446484088897705078125</LatitudeDegrees>
              <LongitudeDegrees>-5.40812755934894084930419921875</LongitudeDegrees>
            </Position>
            <AltitudeMeters>229</AltitudeMeters>
            <DistanceMeters>3710.4916545914</DistanceMeters>
          </Trackpoint>
          <Trackpoint>
            <Time>2019-01-04T09:56:34.000Z</Time>
            <Position>
              <LatitudeDegrees>36.522029154002666473388671875</LatitudeDegrees>
              <LongitudeDegrees>-5.40813778527081012725830078125</LongitudeDegrees>
            </Position>
            <AltitudeMeters>229</AltitudeMeters>
            <DistanceMeters>3711.9202193523</DistanceMeters>
          </Trackpoint>
          <Trackpoint>
            <Time>2019-01-04T09:56:35.000Z</Time>
            <Position>
              <LatitudeDegrees>36.52201943099498748779296875</LatitudeDegrees>
              <LongitudeDegrees>-5.4081475920975208282470703125</LongitudeDegrees>
            </Position>
            <AltitudeMeters>228.8000030517578125</AltitudeMeters>
            <DistanceMeters>3713.3103403395</DistanceMeters>
          </Trackpoint>
          <Trackpoint>
            <Time>2019-01-04T09:56:36.000Z</Time>
            <Position>
              <LatitudeDegrees>36.52200928889214992523193359375</LatitudeDegrees>
              <LongitudeDegrees>-5.40816209279000759124755859375</LongitudeDegrees>
            </Position>
            <AltitudeMeters>228.8000030517578125</AltitudeMeters>
            <DistanceMeters>3715.0313473336</DistanceMeters>
          </Trackpoint>
          <Trackpoint>
            <Time>2019-01-04T09:56:37.000Z</Time>
            <Position>
              <LatitudeDegrees>36.52199973352253437042236328125</LatitudeDegrees>
              <LongitudeDegrees>-5.4081717319786548614501953125</LongitudeDegrees>
            </Position>
            <AltitudeMeters>228.8000030517578125</AltitudeMeters>
            <DistanceMeters>3716.4018420984</DistanceMeters>
          </Trackpoint>
          <Trackpoint>
            <Time>2019-01-04T09:56:38.000Z</Time>
            <Position>
              <LatitudeDegrees>36.5219890885055065155029296875</LatitudeDegrees>
              <LongitudeDegrees>-5.408183299005031585693359375</LongitudeDegrees>
            </Position>
            <AltitudeMeters>228.8000030517578125</AltitudeMeters>
            <DistanceMeters>3717.9776818815</DistanceMeters>
          </Trackpoint>
          <Trackpoint>
            <Time>2019-01-04T09:56:39.000Z</Time>
            <Position>
              <LatitudeDegrees>36.5219786949455738067626953125</LatitudeDegrees>
              <LongitudeDegrees>-5.40820173919200897216796875</LongitudeDegrees>
            </Position>
            <AltitudeMeters>228.8000030517578125</AltitudeMeters>
            <DistanceMeters>3719.9912618584</DistanceMeters>
          </Trackpoint>
          <Trackpoint>
            <Time>2019-01-04T09:56:40.000Z</Time>
            <Position>
              <LatitudeDegrees>36.5219679661095142364501953125</LatitudeDegrees>
              <LongitudeDegrees>-5.40821540169417858123779296875</LongitudeDegrees>
            </Position>
            <AltitudeMeters>228.600006103515625</AltitudeMeters>
            <DistanceMeters>3721.6964552829</DistanceMeters>
          </Trackpoint>
          <Trackpoint>
            <Time>2019-01-04T09:56:41.000Z</Time>
            <Position>
              <LatitudeDegrees>36.52195832692086696624755859375</LatitudeDegrees>
              <LongitudeDegrees>-5.40822680108249187469482421875</LongitudeDegrees>
            </Position>
            <AltitudeMeters>228.600006103515625</AltitudeMeters>
            <DistanceMeters>3723.1747240337</DistanceMeters>
          </Trackpoint>
          <Trackpoint>
            <Time>2019-01-04T09:56:42.000Z</Time>
            <Position>
              <LatitudeDegrees>36.52195036411285400390625</LatitudeDegrees>
              <LongitudeDegrees>-5.40823887102305889129638671875</LongitudeDegrees>
            </Position>
            <AltitudeMeters>228.600006103515625</AltitudeMeters>
            <DistanceMeters>3724.5713258065</DistanceMeters>
          </Trackpoint>
          <Trackpoint>
            <Time>2019-01-04T09:56:43.000Z</Time>
            <Position>
              <LatitudeDegrees>36.5219418145716190338134765625</LatitudeDegrees>
              <LongitudeDegrees>-5.40824775584042072296142578125</LongitudeDegrees>
            </Position>
            <AltitudeMeters>228.600006103515625</AltitudeMeters>
            <DistanceMeters>3725.8103225763</DistanceMeters>
          </Trackpoint>
          <Trackpoint>
            <Time>2019-01-04T09:56:44.000Z</Time>
            <Position>
              <LatitudeDegrees>36.5219330973923206329345703125</LatitudeDegrees>
              <LongitudeDegrees>-5.4082573950290679931640625</LongitudeDegrees>
            </Position>
            <AltitudeMeters>228.600006103515625</AltitudeMeters>
            <DistanceMeters>3727.1063141729</DistanceMeters>
          </Trackpoint>
          <Trackpoint>
            <Time>2019-01-04T09:56:45.000Z</Time>
            <Position>
              <LatitudeDegrees>36.5219233743846416473388671875</LatitudeDegrees>
              <LongitudeDegrees>-5.4082686267793178558349609375</LongitudeDegrees>
            </Position>
            <AltitudeMeters>228.600006103515625</AltitudeMeters>
            <DistanceMeters>3728.5815254876</DistanceMeters>
          </Trackpoint>
          <Trackpoint>
            <Time>2019-01-04T09:56:46.000Z</Time>
            <Position>
              <LatitudeDegrees>36.52191474102437496185302734375</LatitudeDegrees>
              <LongitudeDegrees>-5.408281199634075164794921875</LongitudeDegrees>
            </Position>
            <AltitudeMeters>228.600006103515625</AltitudeMeters>
            <DistanceMeters>3730.0597942383</DistanceMeters>
          </Trackpoint>
          <Trackpoint>
            <Time>2019-01-04T09:56:47.000Z</Time>
            <Position>
              <LatitudeDegrees>36.52190686203539371490478515625</LatitudeDegrees>
              <LongitudeDegrees>-5.4082951135933399200439453125</LongitudeDegrees>
            </Position>
            <AltitudeMeters>228.600006103515625</AltitudeMeters>
            <DistanceMeters>3731.5861492831</DistanceMeters>
          </Trackpoint>
          <Trackpoint>
            <Time>2019-01-04T09:56:48.000Z</Time>
            <Position>
              <LatitudeDegrees>36.521898396313190460205078125</LatitudeDegrees>
              <LongitudeDegrees>-5.40831481106579303741455078125</LongitudeDegrees>
            </Position>
            <AltitudeMeters>228.600006103515625</AltitudeMeters>
            <DistanceMeters>3733.5839715445</DistanceMeters>
          </Trackpoint>
          <Trackpoint>
            <Time>2019-01-04T09:56:49.000Z</Time>
            <Position>
              <LatitudeDegrees>36.52189043350517749786376953125</LatitudeDegrees>
              <LongitudeDegrees>-5.4083324968814849853515625</LongitudeDegrees>
            </Position>
            <AltitudeMeters>228.399993896484375</AltitudeMeters>
            <DistanceMeters>3735.3969657049</DistanceMeters>
          </Trackpoint>
          <Trackpoint>
            <Time>2019-01-04T09:56:50.000Z</Time>
            <Position>
              <LatitudeDegrees>36.5218851529061794281005859375</LatitudeDegrees>
              <LongitudeDegrees>-5.4083497636020183563232421875</LongitudeDegrees>
            </Position>
            <AltitudeMeters>228.1999969482421875</AltitudeMeters>
            <DistanceMeters>3737.0483539348</DistanceMeters>
          </Trackpoint>
          <Trackpoint>
            <Time>2019-01-04T09:56:51.000Z</Time>
            <Position>
              <LatitudeDegrees>36.5218807943165302276611328125</LatitudeDegrees>
              <LongitudeDegrees>-5.40836694650352001190185546875</LongitudeDegrees>
            </Position>
            <AltitudeMeters>228.1999969482421875</AltitudeMeters>
            <DistanceMeters>3738.6610107538</DistanceMeters>
          </Trackpoint>
          <Trackpoint>
            <Time>2019-01-04T09:56:52.000Z</Time>
            <Position>
              <LatitudeDegrees>36.5218797884881496429443359375</LatitudeDegrees>
              <LongitudeDegrees>-5.40838681161403656005859375</LongitudeDegrees>
            </Position>
            <AltitudeMeters>228</AltitudeMeters>
            <DistanceMeters>3740.4387977926</DistanceMeters>
          </Trackpoint>
          <Trackpoint>
            <Time>2019-01-04T09:56:53.000Z</Time>
            <Position>
              <LatitudeDegrees>36.521877609193325042724609375</LatitudeDegrees>
              <LongitudeDegrees>-5.40840290486812591552734375</LongitudeDegrees>
            </Position>
            <AltitudeMeters>228</AltitudeMeters>
            <DistanceMeters>3741.8955297393</DistanceMeters>
          </Trackpoint>
          <Trackpoint>
            <Time>2019-01-04T09:56:54.000Z</Time>
            <Position>
              <LatitudeDegrees>36.52187366969883441925048828125</LatitudeDegrees>
              <LongitudeDegrees>-5.4084151424467563629150390625</LongitudeDegrees>
            </Position>
            <AltitudeMeters>228.1999969482421875</AltitudeMeters>
            <DistanceMeters>3743.0670977567</DistanceMeters>
          </Trackpoint>
          <Trackpoint>
            <Time>2019-01-04T09:56:55.000Z</Time>
            <Position>
              <LatitudeDegrees>36.52186612598598003387451171875</LatitudeDegrees>
              <LongitudeDegrees>-5.40842679329216480255126953125</LongitudeDegrees>
            </Position>
            <AltitudeMeters>228.1999969482421875</AltitudeMeters>
            <DistanceMeters>3744.4042421528</DistanceMeters>
          </Trackpoint>
          <Trackpoint>
            <Time>2019-01-04T09:56:56.000Z</Time>
            <Position>
              <LatitudeDegrees>36.5218586660921573638916015625</LatitudeDegrees>
              <LongitudeDegrees>-5.40844154544174671173095703125</LongitudeDegrees>
            </Position>
            <AltitudeMeters>228.399993896484375</AltitudeMeters>
            <DistanceMeters>3745.9656904036</DistanceMeters>
          </Trackpoint>
          <Trackpoint>
            <Time>2019-01-04T09:56:57.000Z</Time>
            <Position>
              <LatitudeDegrees>36.52185489423573017120361328125</LatitudeDegrees>
              <LongitudeDegrees>-5.40845478884875774383544921875</LongitudeDegrees>
            </Position>
            <AltitudeMeters>228.399993896484375</AltitudeMeters>
            <DistanceMeters>3747.2227756742</DistanceMeters>
          </Trackpoint>
          <Trackpoint>
            <Time>2019-01-04T09:56:58.000Z</Time>
            <Position>
              <LatitudeDegrees>36.5218499489128589630126953125</LatitudeDegrees>
              <LongitudeDegrees>-5.40846803225576877593994140625</LongitudeDegrees>
            </Position>
            <AltitudeMeters>228.399993896484375</AltitudeMeters>
            <DistanceMeters>3748.5326285378</DistanceMeters>
          </Trackpoint>
          <Trackpoint>
            <Time>2019-01-04T09:56:59.000Z</Time>
            <Position>
              <LatitudeDegrees>36.52184383012354373931884765625</LatitudeDegrees>
              <LongitudeDegrees>-5.40848412550985813140869140625</LongitudeDegrees>
            </Position>
            <AltitudeMeters>228.399993896484375</AltitudeMeters>
            <DistanceMeters>3750.1255665406</DistanceMeters>
          </Trackpoint>
          <Trackpoint>
            <Time>2019-01-04T09:57:00.000Z</Time>
            <Position>
              <LatitudeDegrees>36.52183838188648223876953125</LatitudeDegrees>
              <LongitudeDegrees>-5.40850206278264522552490234375</LongitudeDegrees>
            </Position>
            <AltitudeMeters>228.399993896484375</AltitudeMeters>
            <DistanceMeters>3751.8413185392</DistanceMeters>
          </Trackpoint>
          <Trackpoint>
            <Time>2019-01-04T09:57:01.000Z</Time>
            <Position>
              <LatitudeDegrees>36.52183880098164081573486328125</LatitudeDegrees>
              <LongitudeDegrees>-5.40851958096027374267578125</LongitudeDegrees>
            </Position>
            <AltitudeMeters>228.399993896484375</AltitudeMeters>
            <DistanceMeters>3753.4085392616</DistanceMeters>
          </Trackpoint>
          <Trackpoint>
            <Time>2019-01-04T09:57:02.000Z</Time>
            <Position>
              <LatitudeDegrees>36.52183678932487964630126953125</LatitudeDegrees>
              <LongitudeDegrees>-5.40853575803339481353759765625</LongitudeDegrees>
            </Position>
            <AltitudeMeters>228.399993896484375</AltitudeMeters>
            <DistanceMeters>3754.8745400098</DistanceMeters>
          </Trackpoint>
          <Trackpoint>
            <Time>2019-01-04T09:57:03.000Z</Time>
            <Position>
              <LatitudeDegrees>36.52183310128748416900634765625</LatitudeDegrees>
              <LongitudeDegrees>-5.4085551202297210693359375</LongitudeDegrees>
            </Position>
            <AltitudeMeters>228.399993896484375</AltitudeMeters>
            <DistanceMeters>3756.6548649329</DistanceMeters>
          </Trackpoint>
          <Trackpoint>
            <Time>2019-01-04T09:57:04.000Z</Time>
            <Position>
              <LatitudeDegrees>36.521835029125213623046875</LatitudeDegrees>
              <LongitudeDegrees>-5.40857993066310882568359375</LongitudeDegrees>
            </Position>
            <AltitudeMeters>228.399993896484375</AltitudeMeters>
            <DistanceMeters>3758.8834389264</DistanceMeters>
          </Trackpoint>
          <Trackpoint>
            <Time>2019-01-04T09:57:05.000Z</Time>
            <Position>
              <LatitudeDegrees>36.52183310128748416900634765625</LatitudeDegrees>
              <LongitudeDegrees>-5.40859778411686420440673828125</LongitudeDegrees>
            </Position>
            <AltitudeMeters>228.1999969482421875</AltitudeMeters>
            <DistanceMeters>3760.4904864872</DistanceMeters>
          </Trackpoint>
          <Trackpoint>
            <Time>2019-01-04T09:57:06.000Z</Time>
            <Position>
              <LatitudeDegrees>36.5218341909348964691162109375</LatitudeDegrees>
              <LongitudeDegrees>-5.4086203314363956451416015625</LongitudeDegrees>
            </Position>
            <AltitudeMeters>228.1999969482421875</AltitudeMeters>
            <DistanceMeters>3762.5130157526</DistanceMeters>
          </Trackpoint>
          <Trackpoint>
            <Time>2019-01-04T09:57:07.000Z</Time>
            <Position>
              <LatitudeDegrees>36.52183326892554759979248046875</LatitudeDegrees>
              <LongitudeDegrees>-5.40864120237529277801513671875</LongitudeDegrees>
            </Position>
            <AltitudeMeters>228.1999969482421875</AltitudeMeters>
            <DistanceMeters>3764.3824112655</DistanceMeters>
          </Trackpoint>
          <Trackpoint>
            <Time>2019-01-04T09:57:08.000Z</Time>
            <Position>
              <LatitudeDegrees>36.5218301676213741302490234375</LatitudeDegrees>
              <LongitudeDegrees>-5.4086585529148578643798828125</LongitudeDegrees>
            </Position>
            <AltitudeMeters>228</AltitudeMeters>
            <DistanceMeters>3765.9725123328</DistanceMeters>
          </Trackpoint>
          <Trackpoint>
            <Time>2019-01-04T09:57:09.000Z</Time>
            <Position>
              <LatitudeDegrees>36.5218268148601055145263671875</LatitudeDegrees>
              <LongitudeDegrees>-5.40867590345442295074462890625</LongitudeDegrees>
            </Position>
            <AltitudeMeters>228.1999969482421875</AltitudeMeters>
            <DistanceMeters>3767.571109103</DistanceMeters>
          </Trackpoint>
          <Trackpoint>
            <Time>2019-01-04T09:57:10.000Z</Time>
            <Position>
              <LatitudeDegrees>36.52182161808013916015625</LatitudeDegrees>
              <LongitudeDegrees>-5.408692918717861175537109375</LongitudeDegrees>
            </Position>
            <AltitudeMeters>228.1999969482421875</AltitudeMeters>
            <DistanceMeters>3769.19492631</DistanceMeters>
          </Trackpoint>
          <Trackpoint>
            <Time>2019-01-04T09:57:11.000Z</Time>
            <Position>
              <LatitudeDegrees>36.5218147449195384979248046875</LatitudeDegrees>
              <LongitudeDegrees>-5.4087118618190288543701171875</LongitudeDegrees>
            </Position>
            <AltitudeMeters>228.1999969482421875</AltitudeMeters>
            <DistanceMeters>3771.0546357706</DistanceMeters>
          </Trackpoint>
          <Trackpoint>
            <Time>2019-01-04T09:57:12.000Z</Time>
            <Position>
              <LatitudeDegrees>36.52180644683539867401123046875</LatitudeDegrees>
              <LongitudeDegrees>-5.40872720070183277130126953125</LongitudeDegrees>
            </Position>
            <AltitudeMeters>228.1999969482421875</AltitudeMeters>
            <DistanceMeters>3772.7114831501</DistanceMeters>
          </Trackpoint>
          <Trackpoint>
            <Time>2019-01-04T09:57:13.000Z</Time>
            <Position>
              <LatitudeDegrees>36.521796472370624542236328125</LatitudeDegrees>
              <LongitudeDegrees>-5.40874346159398555755615234375</LongitudeDegrees>
            </Position>
            <AltitudeMeters>228.399993896484375</AltitudeMeters>
            <DistanceMeters>3774.5393584972</DistanceMeters>
          </Trackpoint>
          <Trackpoint>
            <Time>2019-01-04T09:57:14.000Z</Time>
            <Position>
              <LatitudeDegrees>36.52178582735359668731689453125</LatitudeDegrees>
              <LongitudeDegrees>-5.4087591357529163360595703125</LongitudeDegrees>
            </Position>
            <AltitudeMeters>228.399993896484375</AltitudeMeters>
            <DistanceMeters>3776.3770876911</DistanceMeters>
          </Trackpoint>
          <Trackpoint>
            <Time>2019-01-04T09:57:15.000Z</Time>
            <Position>
              <LatitudeDegrees>36.52177945710718631744384765625</LatitudeDegrees>
              <LongitudeDegrees>-5.40877045132219791412353515625</LongitudeDegrees>
            </Position>
            <AltitudeMeters>228.399993896484375</AltitudeMeters>
            <DistanceMeters>3777.6160844608</DistanceMeters>
          </Trackpoint>
          <Trackpoint>
            <Time>2019-01-04T09:57:16.000Z</Time>
            <Position>
              <LatitudeDegrees>36.5217728354036808013916015625</LatitudeDegrees>
              <LongitudeDegrees>-5.40878243744373321533203125</LongitudeDegrees>
            </Position>
            <AltitudeMeters>228.399993896484375</AltitudeMeters>
            <DistanceMeters>3778.9190251239</DistanceMeters>
          </Trackpoint>
          <Trackpoint>
            <Time>2019-01-04T09:57:17.000Z</Time>
            <Position>
              <LatitudeDegrees>36.5217671357095241546630859375</LatitudeDegrees>
              <LongitudeDegrees>-5.40879526175558567047119140625</LongitudeDegrees>
            </Position>
            <AltitudeMeters>228.399993896484375</AltitudeMeters>
            <DistanceMeters>3780.2357539028</DistanceMeters>
          </Trackpoint>
          <Trackpoint>
            <Time>2019-01-04T09:57:18.000Z</Time>
            <Position>
              <LatitudeDegrees>36.5217590890824794769287109375</LatitudeDegrees>
              <LongitudeDegrees>-5.4088070802390575408935546875</LongitudeDegrees>
            </Position>
            <AltitudeMeters>228.399993896484375</AltitudeMeters>
            <DistanceMeters>3781.6193637489</DistanceMeters>
          </Trackpoint>
          <Trackpoint>
            <Time>2019-01-04T09:57:19.000Z</Time>
            <Position>
              <LatitudeDegrees>36.52175012044608592987060546875</LatitudeDegrees>
              <LongitudeDegrees>-5.40881571359932422637939453125</LongitudeDegrees>
            </Position>
            <AltitudeMeters>228.399993896484375</AltitudeMeters>
            <DistanceMeters>3782.8800355754</DistanceMeters>
          </Trackpoint>
          <Trackpoint>
            <Time>2019-01-04T09:57:20.000Z</Time>
            <Position>
              <LatitudeDegrees>36.521742157638072967529296875</LatitudeDegrees>
              <LongitudeDegrees>-5.40882376022636890411376953125</LongitudeDegrees>
            </Position>
            <AltitudeMeters>228.399993896484375</AltitudeMeters>
            <DistanceMeters>3784.0203561478</DistanceMeters>
          </Trackpoint>
          <Trackpoint>
            <Time>2019-01-04T09:57:21.000Z</Time>
            <Position>
              <LatitudeDegrees>36.5217315964400768280029296875</LatitudeDegrees>
              <LongitudeDegrees>-5.408828370273113250732421875</LongitudeDegrees>
            </Position>
            <AltitudeMeters>228.399993896484375</AltitudeMeters>
            <DistanceMeters>3785.2666198231</DistanceMeters>
          </Trackpoint>
          <Trackpoint>
            <Time>2019-01-04T09:57:22.000Z</Time>
            <Position>
              <LatitudeDegrees>36.5217212028801441192626953125</LatitudeDegrees>
              <LongitudeDegrees>-5.40883432142436504364013671875</LongitudeDegrees>
            </Position>
            <AltitudeMeters>228.600006103515625</AltitudeMeters>
            <DistanceMeters>3786.5415369812</DistanceMeters>
          </Trackpoint>
          <Trackpoint>
            <Time>2019-01-04T09:57:23.000Z</Time>
            <Position>
              <LatitudeDegrees>36.52170938439667224884033203125</LatitudeDegrees>
              <LongitudeDegrees>-5.40884354151785373687744140625</LongitudeDegrees>
            </Position>
            <AltitudeMeters>228.600006103515625</AltitudeMeters>
            <DistanceMeters>3788.0942862882</DistanceMeters>
          </Trackpoint>
          <Trackpoint>
            <Time>2019-01-04T09:57:24.000Z</Time>
            <Position>
              <LatitudeDegrees>36.52169982902705669403076171875</LatitudeDegrees>
              <LongitudeDegrees>-5.40885393507778644561767578125</LongitudeDegrees>
            </Position>
            <AltitudeMeters>228.600006103515625</AltitudeMeters>
            <DistanceMeters>3789.5101524438</DistanceMeters>
          </Trackpoint>
          <Trackpoint>
            <Time>2019-01-04T09:57:25.000Z</Time>
            <Position>
              <LatitudeDegrees>36.5216896869242191314697265625</LatitudeDegrees>
              <LongitudeDegrees>-5.4088662564754486083984375</LongitudeDegrees>
            </Position>
            <AltitudeMeters>228.600006103515625</AltitudeMeters>
            <DistanceMeters>3791.0859922269</DistanceMeters>
          </Trackpoint>
          <Trackpoint>
            <Time>2019-01-04T09:57:26.000Z</Time>
            <Position>
              <LatitudeDegrees>36.52167820371687412261962890625</LatitudeDegrees>
              <LongitudeDegrees>-5.40887807495892047882080078125</LongitudeDegrees>
            </Position>
            <AltitudeMeters>228.600006103515625</AltitudeMeters>
            <DistanceMeters>3792.745562447</DistanceMeters>
          </Trackpoint>
          <Trackpoint>
            <Time>2019-01-04T09:57:27.000Z</Time>
            <Position>
              <LatitudeDegrees>36.5216673910617828369140625</LatitudeDegrees>
              <LongitudeDegrees>-5.40888913907110691070556640625</LongitudeDegrees>
            </Position>
            <AltitudeMeters>228.600006103515625</AltitudeMeters>
            <DistanceMeters>3794.3041164446</DistanceMeters>
          </Trackpoint>
          <Trackpoint>
            <Time>2019-01-04T09:57:28.000Z</Time>
            <Position>
              <LatitudeDegrees>36.52165724895894527435302734375</LatitudeDegrees>
              <LongitudeDegrees>-5.40889902971684932708740234375</LongitudeDegrees>
            </Position>
            <AltitudeMeters>228.399993896484375</AltitudeMeters>
            <DistanceMeters>3795.7389883654</DistanceMeters>
          </Trackpoint>
          <Trackpoint>
            <Time>2019-01-04T09:57:29.000Z</Time>
            <Position>
              <LatitudeDegrees>36.5216447599232196807861328125</LatitudeDegrees>
              <LongitudeDegrees>-5.40891093201935291290283203125</LongitudeDegrees>
            </Position>
            <AltitudeMeters>228.399993896484375</AltitudeMeters>
            <DistanceMeters>3797.4860332527</DistanceMeters>
          </Trackpoint>
          <Trackpoint>
            <Time>2019-01-04T09:57:30.000Z</Time>
            <Position>
              <LatitudeDegrees>36.521631516516208648681640625</LatitudeDegrees>
              <LongitudeDegrees>-5.4089247621595859527587890625</LongitudeDegrees>
            </Position>
            <AltitudeMeters>228.399993896484375</AltitudeMeters>
            <DistanceMeters>3799.4101775669</DistanceMeters>
          </Trackpoint>
          <Trackpoint>
            <Time>2019-01-04T09:57:31.000Z</Time>
            <Position>
              <LatitudeDegrees>36.5216192789375782012939453125</LatitudeDegrees>
              <LongitudeDegrees>-5.40893373079597949981689453125</LongitudeDegrees>
            </Position>
            <AltitudeMeters>228.1999969482421875</AltitudeMeters>
            <DistanceMeters>3800.9888799133</DistanceMeters>
          </Trackpoint>
          <Trackpoint>
            <Time>2019-01-04T09:57:32.000Z</Time>
            <Position>
              <LatitudeDegrees>36.52160771191120147705078125</LatitudeDegrees>
              <LongitudeDegrees>-5.4089425317943096160888671875</LongitudeDegrees>
            </Position>
            <AltitudeMeters>228.1999969482421875</AltitudeMeters>
            <DistanceMeters>3802.4943862027</DistanceMeters>
          </Trackpoint>
          <Trackpoint>
            <Time>2019-01-04T09:57:33.000Z</Time>
            <Position>
              <LatitudeDegrees>36.52159773744642734527587890625</LatitudeDegrees>
              <LongitudeDegrees>-5.40894965641200542449951171875</LongitudeDegrees>
            </Position>
            <AltitudeMeters>228.399993896484375</AltitudeMeters>
            <DistanceMeters>3803.7693033608</DistanceMeters>
          </Trackpoint>
          <Trackpoint>
            <Time>2019-01-04T09:57:34.000Z</Time>
            <Position>
              <LatitudeDegrees>36.52158566750586032867431640625</LatitudeDegrees>
              <LongitudeDegrees>-5.40895518846809864044189453125</LongitudeDegrees>
            </Position>
            <AltitudeMeters>228.399993896484375</AltitudeMeters>
            <DistanceMeters>3805.2041752816</DistanceMeters>
          </Trackpoint>
          <Trackpoint>
            <Time>2019-01-04T09:57:35.000Z</Time>
            <Position>
              <LatitudeDegrees>36.52156990952789783477783203125</LatitudeDegrees>
              <LongitudeDegrees>-5.4089619778096675872802734375</LongitudeDegrees>
            </Position>
            <AltitudeMeters>228.399993896484375</AltitudeMeters>
            <DistanceMeters>3807.0638847423</DistanceMeters>
          </Trackpoint>
          <Trackpoint>
            <Time>2019-01-04T09:57:36.000Z</Time>
            <Position>
              <LatitudeDegrees>36.521556079387664794921875</LatitudeDegrees>
              <LongitudeDegrees>-5.40896943770349025726318359375</LongitudeDegrees>
            </Position>
            <AltitudeMeters>228.399993896484375</AltitudeMeters>
            <DistanceMeters>3808.7423911767</DistanceMeters>
          </Trackpoint>
          <Trackpoint>
            <Time>2019-01-04T09:57:37.000Z</Time>
            <Position>
              <LatitudeDegrees>36.521546356379985809326171875</LatitudeDegrees>
              <LongitudeDegrees>-5.4089787416160106658935546875</LongitudeDegrees>
            </Position>
            <AltitudeMeters>228.600006103515625</AltitudeMeters>
            <DistanceMeters>3810.1095875137</DistanceMeters>
          </Trackpoint>
          <Trackpoint>
            <Time>2019-01-04T09:57:38.000Z</Time>
            <Position>
              <LatitudeDegrees>36.5215351246297359466552734375</LatitudeDegrees>
              <LongitudeDegrees>-5.40898469276726245880126953125</LongitudeDegrees>
            </Position>
            <AltitudeMeters>228.600006103515625</AltitudeMeters>
            <DistanceMeters>3811.4701630063</DistanceMeters>
          </Trackpoint>
          <Trackpoint>
            <Time>2019-01-04T09:57:39.000Z</Time>
            <Position>
              <LatitudeDegrees>36.52152447961270809173583984375</LatitudeDegrees>
              <LongitudeDegrees>-5.4089908115565776824951171875</LongitudeDegrees>
            </Position>
            <AltitudeMeters>228.8000030517578125</AltitudeMeters>
            <DistanceMeters>3812.7731036694</DistanceMeters>
          </Trackpoint>
          <Trackpoint>
            <Time>2019-01-04T09:57:40.000Z</Time>
            <Position>
              <LatitudeDegrees>36.52151593007147312164306640625</LatitudeDegrees>
              <LongitudeDegrees>-5.4089995287358760833740234375</LongitudeDegrees>
            </Position>
            <AltitudeMeters>228.8000030517578125</AltitudeMeters>
            <DistanceMeters>3814.0011194535</DistanceMeters>
          </Trackpoint>
          <Trackpoint>
            <Time>2019-01-04T09:57:41.000Z</Time>
            <Position>
              <LatitudeDegrees>36.52150235138833522796630859375</LatitudeDegrees>
              <LongitudeDegrees>-5.40900983847677707672119140625</LongitudeDegrees>
            </Position>
            <AltitudeMeters>228.8000030517578125</AltitudeMeters>
            <DistanceMeters>3815.7687185171</DistanceMeters>
          </Trackpoint>
          <Trackpoint>
            <Time>2019-01-04T09:57:42.000Z</Time>
            <Position>
              <LatitudeDegrees>36.521488688886165618896484375</LatitudeDegrees>
              <LongitudeDegrees>-5.4090193100273609161376953125</LongitudeDegrees>
            </Position>
            <AltitudeMeters>229</AltitudeMeters>
            <DistanceMeters>3817.5105869637</DistanceMeters>
          </Trackpoint>
          <Trackpoint>
            <Time>2019-01-04T09:57:43.000Z</Time>
            <Position>
              <LatitudeDegrees>36.52147653512656688690185546875</LatitudeDegrees>
              <LongitudeDegrees>-5.409028530120849609375</LongitudeDegrees>
            </Position>
            <AltitudeMeters>229</AltitudeMeters>
            <DistanceMeters>3819.0949989213</DistanceMeters>
          </Trackpoint>
          <Trackpoint>
            <Time>2019-01-04T09:57:44.000Z</Time>
            <Position>
              <LatitudeDegrees>36.521462537348270416259765625</LatitudeDegrees>
              <LongitudeDegrees>-5.40903364308178424835205078125</LongitudeDegrees>
            </Position>
            <AltitudeMeters>229</AltitudeMeters>
            <DistanceMeters>3820.7160332347</DistanceMeters>
          </Trackpoint>
          <Trackpoint>
            <Time>2019-01-04T09:57:45.000Z</Time>
            <Position>
              <LatitudeDegrees>36.52144803665578365325927734375</LatitudeDegrees>
              <LongitudeDegrees>-5.40903280489146709442138671875</LongitudeDegrees>
            </Position>
            <AltitudeMeters>228.8000030517578125</AltitudeMeters>
            <DistanceMeters>3822.3342798688</DistanceMeters>
          </Trackpoint>
          <Trackpoint>
            <Time>2019-01-04T09:57:46.000Z</Time>
            <Position>
              <LatitudeDegrees>36.52143395505845546722412109375</LatitudeDegrees>
              <LongitudeDegrees>-5.4090357385575771331787109375</LongitudeDegrees>
            </Position>
            <AltitudeMeters>228.8000030517578125</AltitudeMeters>
            <DistanceMeters>3823.9243809361</DistanceMeters>
          </Trackpoint>
          <Trackpoint>
            <Time>2019-01-04T09:57:47.000Z</Time>
            <Position>
              <LatitudeDegrees>36.521418951451778411865234375</LatitudeDegrees>
              <LongitudeDegrees>-5.40904252789914608001708984375</LongitudeDegrees>
            </Position>
            <AltitudeMeters>228.8000030517578125</AltitudeMeters>
            <DistanceMeters>3825.7021679749</DistanceMeters>
          </Trackpoint>
          <Trackpoint>
            <Time>2019-01-04T09:57:48.000Z</Time>
            <Position>
              <LatitudeDegrees>36.5214047022163867950439453125</LatitudeDegrees>
              <LongitudeDegrees>-5.4090478084981441497802734375</LongitudeDegrees>
            </Position>
            <AltitudeMeters>228.8000030517578125</AltitudeMeters>
            <DistanceMeters>3827.3590153544</DistanceMeters>
          </Trackpoint>
          <Trackpoint>
            <Time>2019-01-04T09:57:49.000Z</Time>
            <Position>
              <LatitudeDegrees>36.5213902853429317474365234375</LatitudeDegrees>
              <LongitudeDegrees>-5.40904990397393703460693359375</LongitudeDegrees>
            </Position>
            <AltitudeMeters>228.8000030517578125</AltitudeMeters>
            <DistanceMeters>3828.9772619885</DistanceMeters>
          </Trackpoint>
          <Trackpoint>
            <Time>2019-01-04T09:57:50.000Z</Time>
            <Position>
              <LatitudeDegrees>36.52137645520269870758056640625</LatitudeDegrees>
              <LongitudeDegrees>-5.40905158035457134246826171875</LongitudeDegrees>
            </Position>
            <AltitudeMeters>229</AltitudeMeters>
            <DistanceMeters>3830.5271007976</DistanceMeters>
          </Trackpoint>
          <Trackpoint>
            <Time>2019-01-04T09:57:51.000Z</Time>
            <Position>
              <LatitudeDegrees>36.5213617868721485137939453125</LatitudeDegrees>
              <LongitudeDegrees>-5.40905510075390338897705078125</LongitudeDegrees>
            </Position>
            <AltitudeMeters>229</AltitudeMeters>
            <DistanceMeters>3832.1893893983</DistanceMeters>
          </Trackpoint>
          <Trackpoint>
            <Time>2019-01-04T09:57:52.000Z</Time>
            <Position>
              <LatitudeDegrees>36.5213473699986934661865234375</LatitudeDegrees>
              <LongitudeDegrees>-5.4090571962296962738037109375</LongitudeDegrees>
            </Position>
            <AltitudeMeters>229</AltitudeMeters>
            <DistanceMeters>3833.8048435425</DistanceMeters>
          </Trackpoint>
          <Trackpoint>
            <Time>2019-01-04T09:57:53.000Z</Time>
            <Position>
              <LatitudeDegrees>36.52133622206747531890869140625</LatitudeDegrees>
              <LongitudeDegrees>-5.40905811823904514312744140625</LongitudeDegrees>
            </Position>
            <AltitudeMeters>229</AltitudeMeters>
            <DistanceMeters>3835.0511072178</DistanceMeters>
          </Trackpoint>
          <Trackpoint>
            <Time>2019-01-04T09:57:54.000Z</Time>
            <Position>
              <LatitudeDegrees>36.5213239006698131561279296875</LatitudeDegrees>
              <LongitudeDegrees>-5.409059040248394012451171875</LongitudeDegrees>
            </Position>
            <AltitudeMeters>229</AltitudeMeters>
            <DistanceMeters>3836.4281751367</DistanceMeters>
          </Trackpoint>
          <Trackpoint>
            <Time>2019-01-04T09:57:55.000Z</Time>
            <Position>
              <LatitudeDegrees>36.5213106572628021240234375</LatitudeDegrees>
              <LongitudeDegrees>-5.40905962698161602020263671875</LongitudeDegrees>
            </Position>
            <AltitudeMeters>229</AltitudeMeters>
            <DistanceMeters>3837.9003226655</DistanceMeters>
          </Trackpoint>
          <Trackpoint>
            <Time>2019-01-04T09:57:56.000Z</Time>
            <Position>
              <LatitudeDegrees>36.52129850350320339202880859375</LatitudeDegrees>
              <LongitudeDegrees>-5.40905510075390338897705078125</LongitudeDegrees>
            </Position>
            <AltitudeMeters>229</AltitudeMeters>
            <DistanceMeters>3839.3161888211</DistanceMeters>
          </Trackpoint>
          <Trackpoint>
            <Time>2019-01-04T09:57:57.000Z</Time>
            <Position>
              <LatitudeDegrees>36.52128559537231922149658203125</LatitudeDegrees>
              <LongitudeDegrees>-5.40905359201133251190185546875</LongitudeDegrees>
            </Position>
            <AltitudeMeters>229</AltitudeMeters>
            <DistanceMeters>3840.757340299</DistanceMeters>
          </Trackpoint>
          <Trackpoint>
            <Time>2019-01-04T09:57:58.000Z</Time>
            <Position>
              <LatitudeDegrees>36.52127251960337162017822265625</LatitudeDegrees>
              <LongitudeDegrees>-5.4090588726103305816650390625</LongitudeDegrees>
            </Position>
            <AltitudeMeters>229</AltitudeMeters>
            <DistanceMeters>3842.2896000274</DistanceMeters>
          </Trackpoint>
          <Trackpoint>
            <Time>2019-01-04T09:57:59.000Z</Time>
            <Position>
              <LatitudeDegrees>36.52125894092023372650146484375</LatitudeDegrees>
              <LongitudeDegrees>-5.40906398557126522064208984375</LongitudeDegrees>
            </Position>
            <AltitudeMeters>229</AltitudeMeters>
            <DistanceMeters>3843.8683023738</DistanceMeters>
          </Trackpoint>
          <Trackpoint>
            <Time>2019-01-04T09:58:00.000Z</Time>
            <Position>
              <LatitudeDegrees>36.52124586515128612518310546875</LatitudeDegrees>
              <LongitudeDegrees>-5.40906683541834354400634765625</LongitudeDegrees>
            </Position>
            <AltitudeMeters>229</AltitudeMeters>
            <DistanceMeters>3845.3435136885</DistanceMeters>
          </Trackpoint>
          <Trackpoint>
            <Time>2019-01-04T09:58:01.000Z</Time>
            <Position>
              <LatitudeDegrees>36.521233208477497100830078125</LatitudeDegrees>
              <LongitudeDegrees>-5.409069098532199859619140625</LongitudeDegrees>
            </Position>
            <AltitudeMeters>229</AltitudeMeters>
            <DistanceMeters>3846.7657433196</DistanceMeters>
          </Trackpoint>
          <Trackpoint>
            <Time>2019-01-04T09:58:02.000Z</Time>
            <Position>
              <LatitudeDegrees>36.5212192945182323455810546875</LatitudeDegrees>
              <LongitudeDegrees>-5.40906767360866069793701171875</LongitudeDegrees>
            </Position>
            <AltitudeMeters>229</AltitudeMeters>
            <DistanceMeters>3848.3213976793</DistanceMeters>
          </Trackpoint>
          <Trackpoint>
            <Time>2019-01-04T09:58:03.000Z</Time>
            <Position>
              <LatitudeDegrees>36.521205045282840728759765625</LatitudeDegrees>
              <LongitudeDegrees>-5.40905979461967945098876953125</LongitudeDegrees>
            </Position>
            <AltitudeMeters>229</AltitudeMeters>
            <DistanceMeters>3850.0554724919</DistanceMeters>
          </Trackpoint>
          <Trackpoint>
            <Time>2019-01-04T09:58:04.000Z</Time>
            <Position>
              <LatitudeDegrees>36.521192304790019989013671875</LatitudeDegrees>
              <LongitudeDegrees>-5.40905065834522247314453125</LongitudeDegrees>
            </Position>
            <AltitudeMeters>228.8000030517578125</AltitudeMeters>
            <DistanceMeters>3851.6931332333</DistanceMeters>
          </Trackpoint>
          <Trackpoint>
            <Time>2019-01-04T09:58:05.000Z</Time>
            <Position>
              <LatitudeDegrees>36.52117763645946979522705078125</LatitudeDegrees>
              <LongitudeDegrees>-5.4090444557368755340576171875</LongitudeDegrees>
            </Position>
            <AltitudeMeters>228.8000030517578125</AltitudeMeters>
            <DistanceMeters>3853.4167617171</DistanceMeters>
          </Trackpoint>
          <Trackpoint>
            <Time>2019-01-04T09:58:06.000Z</Time>
            <Position>
              <LatitudeDegrees>36.5211636386811733245849609375</LatitudeDegrees>
              <LongitudeDegrees>-5.40903666056692600250244140625</LongitudeDegrees>
            </Position>
            <AltitudeMeters>228.600006103515625</AltitudeMeters>
            <DistanceMeters>3855.1219551416</DistanceMeters>
          </Trackpoint>
          <Trackpoint>
            <Time>2019-01-04T09:58:07.000Z</Time>
            <Position>
              <LatitudeDegrees>36.521151401102542877197265625</LatitudeDegrees>
              <LongitudeDegrees>-5.40902777574956417083740234375</LongitudeDegrees>
            </Position>
            <AltitudeMeters>228.600006103515625</AltitudeMeters>
            <DistanceMeters>3856.700657488</DistanceMeters>
          </Trackpoint>
          <Trackpoint>
            <Time>2019-01-04T09:58:08.000Z</Time>
            <Position>
              <LatitudeDegrees>36.521137990057468414306640625</LatitudeDegrees>
              <LongitudeDegrees>-5.4090236686170101165771484375</LongitudeDegrees>
            </Position>
            <AltitudeMeters>228.399993896484375</AltitudeMeters>
            <DistanceMeters>3858.2387992332</DistanceMeters>
          </Trackpoint>
          <Trackpoint>
            <Time>2019-01-04T09:58:09.000Z</Time>
            <Position>
              <LatitudeDegrees>36.52112348936498165130615234375</LatitudeDegrees>
              <LongitudeDegrees>-5.4090246744453907012939453125</LongitudeDegrees>
            </Position>
            <AltitudeMeters>228.399993896484375</AltitudeMeters>
            <DistanceMeters>3859.8570458673</DistanceMeters>
          </Trackpoint>
          <Trackpoint>
            <Time>2019-01-04T09:58:10.000Z</Time>
            <Position>
              <LatitudeDegrees>36.521107815206050872802734375</LatitudeDegrees>
              <LongitudeDegrees>-5.40902509354054927825927734375</LongitudeDegrees>
            </Position>
            <AltitudeMeters>228.1999969482421875</AltitudeMeters>
            <DistanceMeters>3861.6040907545</DistanceMeters>
          </Trackpoint>
          <Trackpoint>
            <Time>2019-01-04T09:58:11.000Z</Time>
            <Position>
              <LatitudeDegrees>36.521093063056468963623046875</LatitudeDegrees>
              <LongitudeDegrees>-5.40902609936892986297607421875</LongitudeDegrees>
            </Position>
            <AltitudeMeters>228.1999969482421875</AltitudeMeters>
            <DistanceMeters>3863.2500017282</DistanceMeters>
          </Trackpoint>
          <Trackpoint>
            <Time>2019-01-04T09:58:12.000Z</Time>
            <Position>
              <LatitudeDegrees>36.5210788138210773468017578125</LatitudeDegrees>
              <LongitudeDegrees>-5.4090266861021518707275390625</LongitudeDegrees>
            </Position>
            <AltitudeMeters>228.1999969482421875</AltitudeMeters>
            <DistanceMeters>3864.8372607895</DistanceMeters>
          </Trackpoint>
          <Trackpoint>
            <Time>2019-01-04T09:58:13.000Z</Time>
            <Position>
              <LatitudeDegrees>36.52106431312859058380126953125</LatitudeDegrees>
              <LongitudeDegrees>-5.4090256802737712860107421875</LongitudeDegrees>
            </Position>
            <AltitudeMeters>228</AltitudeMeters>
            <DistanceMeters>3866.4555074236</DistanceMeters>
          </Trackpoint>
          <Trackpoint>
            <Time>2019-01-04T09:58:14.000Z</Time>
            <Position>
              <LatitudeDegrees>36.52105207554996013641357421875</LatitudeDegrees>
              <LongitudeDegrees>-5.40902727283537387847900390625</LongitudeDegrees>
            </Position>
            <AltitudeMeters>228</AltitudeMeters>
            <DistanceMeters>3867.8260021884</DistanceMeters>
          </Trackpoint>
          <Trackpoint>
            <Time>2019-01-04T09:58:15.000Z</Time>
            <Position>
              <LatitudeDegrees>36.52103899978101253509521484375</LatitudeDegrees>
              <LongitudeDegrees>-5.40903054177761077880859375</LongitudeDegrees>
            </Position>
            <AltitudeMeters>227.8000030517578125</AltitudeMeters>
            <DistanceMeters>3869.3164379654</DistanceMeters>
          </Trackpoint>
          <Trackpoint>
            <Time>2019-01-04T09:58:16.000Z</Time>
            <Position>
              <LatitudeDegrees>36.52102257125079631805419921875</LatitudeDegrees>
              <LongitudeDegrees>-5.40903632529079914093017578125</LongitudeDegrees>
            </Position>
            <AltitudeMeters>227.600006103515625</AltitudeMeters>
            <DistanceMeters>3871.2193464377</DistanceMeters>
          </Trackpoint>
          <Trackpoint>
            <Time>2019-01-04T09:58:17.000Z</Time>
            <Position>
              <LatitudeDegrees>36.52100731618702411651611328125</LatitudeDegrees>
              <LongitudeDegrees>-5.40904118679463863372802734375</LongitudeDegrees>
            </Position>
            <AltitudeMeters>227.399993896484375</AltitudeMeters>
            <DistanceMeters>3872.9715524732</DistanceMeters>
          </Trackpoint>
          <Trackpoint>
            <Time>2019-01-04T09:58:18.000Z</Time>
            <Position>
              <LatitudeDegrees>36.520992480218410491943359375</LatitudeDegrees>
              <LongitudeDegrees>-5.409046970307826995849609375</LongitudeDegrees>
            </Position>
            <AltitudeMeters>227.1999969482421875</AltitudeMeters>
            <DistanceMeters>3874.7030216123</DistanceMeters>
          </Trackpoint>
          <Trackpoint>
            <Time>2019-01-04T09:58:19.000Z</Time>
            <Position>
              <LatitudeDegrees>36.52098032645881175994873046875</LatitudeDegrees>
              <LongitudeDegrees>-5.4090538434684276580810546875</LongitudeDegrees>
            </Position>
            <AltitudeMeters>227</AltitudeMeters>
            <DistanceMeters>3876.1904249633</DistanceMeters>
          </Trackpoint>
          <Trackpoint>
            <Time>2019-01-04T09:58:20.000Z</Time>
            <Position>
              <LatitudeDegrees>36.520966999232769012451171875</LatitudeDegrees>
              <LongitudeDegrees>-5.40905962698161602020263671875</LongitudeDegrees>
            </Position>
            <AltitudeMeters>227</AltitudeMeters>
            <DistanceMeters>3877.7633969738</DistanceMeters>
          </Trackpoint>
          <Trackpoint>
            <Time>2019-01-04T09:58:21.000Z</Time>
            <Position>
              <LatitudeDegrees>36.52095434255897998809814453125</LatitudeDegrees>
              <LongitudeDegrees>-5.409065075218677520751953125</LongitudeDegrees>
            </Position>
            <AltitudeMeters>227</AltitudeMeters>
            <DistanceMeters>3879.2538327507</DistanceMeters>
          </Trackpoint>
          <Trackpoint>
            <Time>2019-01-04T09:58:22.000Z</Time>
            <Position>
              <LatitudeDegrees>36.52094059623777866363525390625</LatitudeDegrees>
              <LongitudeDegrees>-5.40906901471316814422607421875</LongitudeDegrees>
            </Position>
            <AltitudeMeters>226.8000030517578125</AltitudeMeters>
            <DistanceMeters>3880.8268047612</DistanceMeters>
          </Trackpoint>
          <Trackpoint>
            <Time>2019-01-04T09:58:23.000Z</Time>
            <Position>
              <LatitudeDegrees>36.52092668227851390838623046875</LatitudeDegrees>
              <LongitudeDegrees>-5.40907421149313449859619140625</LongitudeDegrees>
            </Position>
            <AltitudeMeters>227</AltitudeMeters>
            <DistanceMeters>3882.4450513953</DistanceMeters>
          </Trackpoint>
          <Trackpoint>
            <Time>2019-01-04T09:58:24.000Z</Time>
            <Position>
              <LatitudeDegrees>36.5209128521382808685302734375</LatitudeDegrees>
              <LongitudeDegrees>-5.40907974354922771453857421875</LongitudeDegrees>
            </Position>
            <AltitudeMeters>227</AltitudeMeters>
            <DistanceMeters>3884.0632980293</DistanceMeters>
          </Trackpoint>
          <Trackpoint>
            <Time>2019-01-04T09:58:25.000Z</Time>
            <Position>
              <LatitudeDegrees>36.52089893817901611328125</LatitudeDegrees>
              <LongitudeDegrees>-5.40908443741500377655029296875</LongitudeDegrees>
            </Position>
            <AltitudeMeters>227</AltitudeMeters>
            <DistanceMeters>3885.6647166848</DistanceMeters>
          </Trackpoint>
          <Trackpoint>
            <Time>2019-01-04T09:58:26.000Z</Time>
            <Position>
              <LatitudeDegrees>36.52088426984846591949462890625</LatitudeDegrees>
              <LongitudeDegrees>-5.40908711962401866912841796875</LongitudeDegrees>
            </Position>
            <AltitudeMeters>227</AltitudeMeters>
            <DistanceMeters>3887.3106276585</DistanceMeters>
          </Trackpoint>
          <Trackpoint>
            <Time>2019-01-04T09:58:27.000Z</Time>
            <Position>
              <LatitudeDegrees>36.52087152935564517974853515625</LatitudeDegrees>
              <LongitudeDegrees>-5.40909097529947757720947265625</LongitudeDegrees>
            </Position>
            <AltitudeMeters>226.8000030517578125</AltitudeMeters>
            <DistanceMeters>3888.7673596051</DistanceMeters>
          </Trackpoint>
          <Trackpoint>
            <Time>2019-01-04T09:58:28.000Z</Time>
            <Position>
              <LatitudeDegrees>36.52086029760539531707763671875</LatitudeDegrees>
              <LongitudeDegrees>-5.40909566916525363922119140625</LongitudeDegrees>
            </Position>
            <AltitudeMeters>226.600006103515625</AltitudeMeters>
            <DistanceMeters>3890.084088384</DistanceMeters>
          </Trackpoint>
          <Trackpoint>
            <Time>2019-01-04T09:58:29.000Z</Time>
            <Position>
              <LatitudeDegrees>36.520848311483860015869140625</LatitudeDegrees>
              <LongitudeDegrees>-5.40910170413553714752197265625</LongitudeDegrees>
            </Position>
            <AltitudeMeters>226.399993896484375</AltitudeMeters>
            <DistanceMeters>3891.5221035111</DistanceMeters>
          </Trackpoint>
          <Trackpoint>
            <Time>2019-01-04T09:58:30.000Z</Time>
            <Position>
              <LatitudeDegrees>36.52083414606750011444091796875</LatitudeDegrees>
              <LongitudeDegrees>-5.4091081582009792327880859375</LongitudeDegrees>
            </Position>
            <AltitudeMeters>226.1999969482421875</AltitudeMeters>
            <DistanceMeters>3893.2006099455</DistanceMeters>
          </Trackpoint>
          <Trackpoint>
            <Time>2019-01-04T09:58:31.000Z</Time>
            <Position>
              <LatitudeDegrees>36.52082056738436222076416015625</LatitudeDegrees>
              <LongitudeDegrees>-5.40911545045673847198486328125</LongitudeDegrees>
            </Position>
            <AltitudeMeters>226.1999969482421875</AltitudeMeters>
            <DistanceMeters>3894.8465209192</DistanceMeters>
          </Trackpoint>
          <Trackpoint>
            <Time>2019-01-04T09:58:32.000Z</Time>
            <Position>
              <LatitudeDegrees>36.520808078348636627197265625</LatitudeDegrees>
              <LongitudeDegrees>-5.4091215692460536956787109375</LongitudeDegrees>
            </Position>
            <AltitudeMeters>226.1999969482421875</AltitudeMeters>
            <DistanceMeters>3896.3369566961</DistanceMeters>
          </Trackpoint>
          <Trackpoint>
            <Time>2019-01-04T09:58:33.000Z</Time>
            <Position>
              <LatitudeDegrees>36.52079424820840358734130859375</LatitudeDegrees>
              <LongitudeDegrees>-5.4091299511492252349853515625</LongitudeDegrees>
            </Position>
            <AltitudeMeters>226.1999969482421875</AltitudeMeters>
            <DistanceMeters>3898.0474375548</DistanceMeters>
          </Trackpoint>
          <Trackpoint>
            <Time>2019-01-04T09:58:34.000Z</Time>
            <Position>
              <LatitudeDegrees>36.52077664621174335479736328125</LatitudeDegrees>
              <LongitudeDegrees>-5.409135483205318450927734375</LongitudeDegrees>
            </Position>
            <AltitudeMeters>226.1999969482421875</AltitudeMeters>
            <DistanceMeters>3900.0677332145</DistanceMeters>
          </Trackpoint>
          <Trackpoint>
            <Time>2019-01-04T09:58:35.000Z</Time>
            <Position>
              <LatitudeDegrees>36.52076206170022487640380859375</LatitudeDegrees>
              <LongitudeDegrees>-5.40914746932685375213623046875</LongitudeDegrees>
            </Position>
            <AltitudeMeters>226.1999969482421875</AltitudeMeters>
            <DistanceMeters>3902.0105589796</DistanceMeters>
          </Trackpoint>
          <Trackpoint>
            <Time>2019-01-04T09:58:36.000Z</Time>
            <Position>
              <LatitudeDegrees>36.52074948884546756744384765625</LatitudeDegrees>
              <LongitudeDegrees>-5.40915501303970813751220703125</LongitudeDegrees>
            </Position>
            <AltitudeMeters>226.1999969482421875</AltitudeMeters>
            <DistanceMeters>3903.5603977887</DistanceMeters>
          </Trackpoint>
          <Trackpoint>
            <Time>2019-01-04T09:58:37.000Z</Time>
            <Position>
              <LatitudeDegrees>36.5207378380000591278076171875</LatitudeDegrees>
              <LongitudeDegrees>-5.409163646399974822998046875</LongitudeDegrees>
            </Position>
            <AltitudeMeters>226.1999969482421875</AltitudeMeters>
            <DistanceMeters>3905.0689001135</DistanceMeters>
          </Trackpoint>
          <Trackpoint>
            <Time>2019-01-04T09:58:38.000Z</Time>
            <Position>
              <LatitudeDegrees>36.52072727680206298828125</LatitudeDegrees>
              <LongitudeDegrees>-5.40917563252151012420654296875</LongitudeDegrees>
            </Position>
            <AltitudeMeters>226.399993896484375</AltitudeMeters>
            <DistanceMeters>3906.6590011808</DistanceMeters>
          </Trackpoint>
          <Trackpoint>
            <Time>2019-01-04T09:58:39.000Z</Time>
            <Position>
              <LatitudeDegrees>36.52071311138570308685302734375</LatitudeDegrees>
              <LongitudeDegrees>-5.40918334387242794036865234375</LongitudeDegrees>
            </Position>
            <AltitudeMeters>226.600006103515625</AltitudeMeters>
            <DistanceMeters>3908.3826296646</DistanceMeters>
          </Trackpoint>
          <Trackpoint>
            <Time>2019-01-04T09:58:40.000Z</Time>
            <Position>
              <LatitudeDegrees>36.5206996165215969085693359375</LatitudeDegrees>
              <LongitudeDegrees>-5.409191809594631195068359375</LongitudeDegrees>
            </Position>
            <AltitudeMeters>226.8000030517578125</AltitudeMeters>
            <DistanceMeters>3910.0665073333</DistanceMeters>
          </Trackpoint>
          <Trackpoint>
            <Time>2019-01-04T09:58:41.000Z</Time>
            <Position>
              <LatitudeDegrees>36.5206865407526493072509765625</LatitudeDegrees>
              <LongitudeDegrees>-5.4092010296881198883056640625</LongitudeDegrees>
            </Position>
            <AltitudeMeters>226.8000030517578125</AltitudeMeters>
            <DistanceMeters>3911.7396252902</DistanceMeters>
          </Trackpoint>
          <Trackpoint>
            <Time>2019-01-04T09:58:42.000Z</Time>
            <Position>
              <LatitudeDegrees>36.5206734649837017059326171875</LatitudeDegrees>
              <LongitudeDegrees>-5.409213267266750335693359375</LongitudeDegrees>
            </Position>
            <AltitudeMeters>226.8000030517578125</AltitudeMeters>
            <DistanceMeters>3913.5575933808</DistanceMeters>
          </Trackpoint>
          <Trackpoint>
            <Time>2019-01-04T09:58:43.000Z</Time>
            <Position>
              <LatitudeDegrees>36.5206647478044033050537109375</LatitudeDegrees>
              <LongitudeDegrees>-5.40922407992184162139892578125</LongitudeDegrees>
            </Position>
            <AltitudeMeters>226.8000030517578125</AltitudeMeters>
            <DistanceMeters>3914.9247897178</DistanceMeters>
          </Trackpoint>
          <Trackpoint>
            <Time>2019-01-04T09:58:44.000Z</Time>
            <Position>
              <LatitudeDegrees>36.5206535160541534423828125</LatitudeDegrees>
              <LongitudeDegrees>-5.40923170745372772216796875</LongitudeDegrees>
            </Position>
            <AltitudeMeters>226.8000030517578125</AltitudeMeters>
            <DistanceMeters>3916.3470193489</DistanceMeters>
          </Trackpoint>
          <Trackpoint>
            <Time>2019-01-04T09:58:45.000Z</Time>
            <Position>
              <LatitudeDegrees>36.52064404450356960296630859375</LatitudeDegrees>
              <LongitudeDegrees>-5.409239418804645538330078125</LongitudeDegrees>
            </Position>
            <AltitudeMeters>226.8000030517578125</AltitudeMeters>
            <DistanceMeters>3917.6076911754</DistanceMeters>
          </Trackpoint>
          <Trackpoint>
            <Time>2019-01-04T09:58:46.000Z</Time>
            <Position>
              <LatitudeDegrees>36.520631723105907440185546875</LatitudeDegrees>
              <LongitudeDegrees>-5.40924905799329280853271484375</LongitudeDegrees>
            </Position>
            <AltitudeMeters>226.8000030517578125</AltitudeMeters>
            <DistanceMeters>3919.2259378095</DistanceMeters>
          </Trackpoint>
          <Trackpoint>
            <Time>2019-01-04T09:58:47.000Z</Time>
            <Position>
              <LatitudeDegrees>36.520620323717594146728515625</LatitudeDegrees>
              <LongitudeDegrees>-5.40926079265773296356201171875</LongitudeDegrees>
            </Position>
            <AltitudeMeters>226.8000030517578125</AltitudeMeters>
            <DistanceMeters>3920.8718487831</DistanceMeters>
          </Trackpoint>
          <Trackpoint>
            <Time>2019-01-04T09:58:48.000Z</Time>
            <Position>
              <LatitudeDegrees>36.52061018161475658416748046875</LatitudeDegrees>
              <LongitudeDegrees>-5.40926598943769931793212890625</LongitudeDegrees>
            </Position>
            <AltitudeMeters>227</AltitudeMeters>
            <DistanceMeters>3922.0887844991</DistanceMeters>
          </Trackpoint>
          <Trackpoint>
            <Time>2019-01-04T09:58:49.000Z</Time>
            <Position>
              <LatitudeDegrees>36.5205976925790309906005859375</LatitudeDegrees>
              <LongitudeDegrees>-5.40927303023636341094970703125</LongitudeDegrees>
            </Position>
            <AltitudeMeters>227</AltitudeMeters>
            <DistanceMeters>3923.6151395438</DistanceMeters>
          </Trackpoint>
          <Trackpoint>
            <Time>2019-01-04T09:58:50.000Z</Time>
            <Position>
              <LatitudeDegrees>36.52058579027652740478515625</LatitudeDegrees>
              <LongitudeDegrees>-5.40928275324404239654541015625</LongitudeDegrees>
            </Position>
            <AltitudeMeters>227</AltitudeMeters>
            <DistanceMeters>3925.1995515014</DistanceMeters>
          </Trackpoint>
          <Trackpoint>
            <Time>2019-01-04T09:58:51.000Z</Time>
            <Position>
              <LatitudeDegrees>36.52057506144046783447265625</LatitudeDegrees>
              <LongitudeDegrees>-5.40929147042334079742431640625</LongitudeDegrees>
            </Position>
            <AltitudeMeters>227.1999969482421875</AltitudeMeters>
            <DistanceMeters>3926.624952217</DistanceMeters>
          </Trackpoint>
          <Trackpoint>
            <Time>2019-01-04T09:58:52.000Z</Time>
            <Position>
              <LatitudeDegrees>36.5205621533095836639404296875</LatitudeDegrees>
              <LongitudeDegrees>-5.40930404327809810638427734375</LongitudeDegrees>
            </Position>
            <AltitudeMeters>227</AltitudeMeters>
            <DistanceMeters>3928.4478806663</DistanceMeters>
          </Trackpoint>
          <Trackpoint>
            <Time>2019-01-04T09:58:53.000Z</Time>
            <Position>
              <LatitudeDegrees>36.52054949663579463958740234375</LatitudeDegrees>
              <LongitudeDegrees>-5.409319214522838592529296875</LongitudeDegrees>
            </Position>
            <AltitudeMeters>227</AltitudeMeters>
            <DistanceMeters>3930.4046004756</DistanceMeters>
          </Trackpoint>
          <Trackpoint>
            <Time>2019-01-04T09:58:54.000Z</Time>
            <Position>
              <LatitudeDegrees>36.52053457684814929962158203125</LatitudeDegrees>
              <LongitudeDegrees>-5.40933103300631046295166015625</LongitudeDegrees>
            </Position>
            <AltitudeMeters>226.8000030517578125</AltitudeMeters>
            <DistanceMeters>3932.3751163652</DistanceMeters>
          </Trackpoint>
          <Trackpoint>
            <Time>2019-01-04T09:58:55.000Z</Time>
            <Position>
              <LatitudeDegrees>36.5205246023833751678466796875</LatitudeDegrees>
              <LongitudeDegrees>-5.40934503078460693359375</LongitudeDegrees>
            </Position>
            <AltitudeMeters>226.600006103515625</AltitudeMeters>
            <DistanceMeters>3934.0509307266</DistanceMeters>
          </Trackpoint>
          <Trackpoint>
            <Time>2019-01-04T09:58:56.000Z</Time>
            <Position>
              <LatitudeDegrees>36.52051529847085475921630859375</LatitudeDegrees>
              <LongitudeDegrees>-5.4093589447438716888427734375</LongitudeDegrees>
            </Position>
            <AltitudeMeters>226.399993896484375</AltitudeMeters>
            <DistanceMeters>3935.67196504</DistanceMeters>
          </Trackpoint>
          <Trackpoint>
            <Time>2019-01-04T09:58:57.000Z</Time>
            <Position>
              <LatitudeDegrees>36.52050809003412723541259765625</LatitudeDegrees>
              <LongitudeDegrees>-5.40936992503702640533447265625</LongitudeDegrees>
            </Position>
            <AltitudeMeters>226.1999969482421875</AltitudeMeters>
            <DistanceMeters>3936.9397795403</DistanceMeters>
          </Trackpoint>
          <Trackpoint>
            <Time>2019-01-04T09:58:58.000Z</Time>
            <Position>
              <LatitudeDegrees>36.52049618773162364959716796875</LatitudeDegrees>
              <LongitudeDegrees>-5.40938182733952999114990234375</LongitudeDegrees>
            </Position>
            <AltitudeMeters>226.1999969482421875</AltitudeMeters>
            <DistanceMeters>3938.6396690843</DistanceMeters>
          </Trackpoint>
          <Trackpoint>
            <Time>2019-01-04T09:58:59.000Z</Time>
            <Position>
              <LatitudeDegrees>36.52048612944781780242919921875</LatitudeDegrees>
              <LongitudeDegrees>-5.4093918018043041229248046875</LongitudeDegrees>
            </Position>
            <AltitudeMeters>226.1999969482421875</AltitudeMeters>
            <DistanceMeters>3940.0682338453</DistanceMeters>
          </Trackpoint>
          <Trackpoint>
            <Time>2019-01-04T09:59:00.000Z</Time>
            <Position>
              <LatitudeDegrees>36.52047523297369480133056640625</LatitudeDegrees>
              <LongitudeDegrees>-5.4094011895358562469482421875</LongitudeDegrees>
            </Position>
            <AltitudeMeters>226.399993896484375</AltitudeMeters>
            <DistanceMeters>3941.5403813741</DistanceMeters>
          </Trackpoint>
          <Trackpoint>
            <Time>2019-01-04T09:59:01.000Z</Time>
            <Position>
              <LatitudeDegrees>36.52046299539506435394287109375</LatitudeDegrees>
              <LongitudeDegrees>-5.4094112478196620941162109375</LongitudeDegrees>
            </Position>
            <AltitudeMeters>226.399993896484375</AltitudeMeters>
            <DistanceMeters>3943.172518792</DistanceMeters>
          </Trackpoint>
          <Trackpoint>
            <Time>2019-01-04T09:59:02.000Z</Time>
            <Position>
              <LatitudeDegrees>36.5204498358070850372314453125</LatitudeDegrees>
              <LongitudeDegrees>-5.40942407213151454925537109375</LongitudeDegrees>
            </Position>
            <AltitudeMeters>226.399993896484375</AltitudeMeters>
            <DistanceMeters>3945.0346544892</DistanceMeters>
          </Trackpoint>
          <Trackpoint>
            <Time>2019-01-04T09:59:03.000Z</Time>
            <Position>
              <LatitudeDegrees>36.52044229209423065185546875</LatitudeDegrees>
              <LongitudeDegrees>-5.40943798609077930450439453125</LongitudeDegrees>
            </Position>
            <AltitudeMeters>226.399993896484375</AltitudeMeters>
            <DistanceMeters>3946.537158769</DistanceMeters>
          </Trackpoint>
          <Trackpoint>
            <Time>2019-01-04T09:59:04.000Z</Time>
            <Position>
              <LatitudeDegrees>36.520432569086551666259765625</LatitudeDegrees>
              <LongitudeDegrees>-5.4094501398503780364990234375</LongitudeDegrees>
            </Position>
            <AltitudeMeters>226.399993896484375</AltitudeMeters>
            <DistanceMeters>3948.0723623229</DistanceMeters>
          </Trackpoint>
          <Trackpoint>
            <Time>2019-01-04T09:59:05.000Z</Time>
            <Position>
              <LatitudeDegrees>36.5204213373363018035888671875</LatitudeDegrees>
              <LongitudeDegrees>-5.40946162305772304534912109375</LongitudeDegrees>
            </Position>
            <AltitudeMeters>226.600006103515625</AltitudeMeters>
            <DistanceMeters>3949.690608957</DistanceMeters>
          </Trackpoint>
          <Trackpoint>
            <Time>2019-01-04T09:59:06.000Z</Time>
            <Position>
              <LatitudeDegrees>36.52040985412895679473876953125</LatitudeDegrees>
              <LongitudeDegrees>-5.4094719327986240386962890625</LongitudeDegrees>
            </Position>
            <AltitudeMeters>226.600006103515625</AltitudeMeters>
            <DistanceMeters>3951.2664487401</DistanceMeters>
          </Trackpoint>
          <Trackpoint>
            <Time>2019-01-04T09:59:07.000Z</Time>
            <Position>
              <LatitudeDegrees>36.5203971974551677703857421875</LatitudeDegrees>
              <LongitudeDegrees>-5.40948391892015933990478515625</LongitudeDegrees>
            </Position>
            <AltitudeMeters>226.600006103515625</AltitudeMeters>
            <DistanceMeters>3953.0340478037</DistanceMeters>
          </Trackpoint>
          <Trackpoint>
            <Time>2019-01-04T09:59:08.000Z</Time>
            <Position>
              <LatitudeDegrees>36.52038588188588619232177734375</LatitudeDegrees>
              <LongitudeDegrees>-5.409494228661060333251953125</LongitudeDegrees>
            </Position>
            <AltitudeMeters>226.600006103515625</AltitudeMeters>
            <DistanceMeters>3954.5954960545</DistanceMeters>
          </Trackpoint>
          <Trackpoint>
            <Time>2019-01-04T09:59:09.000Z</Time>
            <Position>
              <LatitudeDegrees>36.5203720517456531524658203125</LatitudeDegrees>
              <LongitudeDegrees>-5.40950470604002475738525390625</LongitudeDegrees>
            </Position>
            <AltitudeMeters>226.8000030517578125</AltitudeMeters>
            <DistanceMeters>3956.4035026011</DistanceMeters>
          </Trackpoint>
          <Trackpoint>
            <Time>2019-01-04T09:59:10.000Z</Time>
            <Position>
              <LatitudeDegrees>36.52035973034799098968505859375</LatitudeDegrees>
              <LongitudeDegrees>-5.409517697989940643310546875</LongitudeDegrees>
            </Position>
            <AltitudeMeters>226.8000030517578125</AltitudeMeters>
            <DistanceMeters>3958.206507737</DistanceMeters>
          </Trackpoint>
          <Trackpoint>
            <Time>2019-01-04T09:59:11.000Z</Time>
            <Position>
              <LatitudeDegrees>36.52034707367420196533203125</LatitudeDegrees>
              <LongitudeDegrees>-5.40952247567474842071533203125</LongitudeDegrees>
            </Position>
            <AltitudeMeters>226.8000030517578125</AltitudeMeters>
            <DistanceMeters>3959.6786552658</DistanceMeters>
          </Trackpoint>
          <Trackpoint>
            <Time>2019-01-04T09:59:12.000Z</Time>
            <Position>
              <LatitudeDegrees>36.5203338302671909332275390625</LatitudeDegrees>
              <LongitudeDegrees>-5.40953068993985652923583984375</LongitudeDegrees>
            </Position>
            <AltitudeMeters>226.8000030517578125</AltitudeMeters>
            <DistanceMeters>3961.3245662394</DistanceMeters>
          </Trackpoint>
          <Trackpoint>
            <Time>2019-01-04T09:59:13.000Z</Time>
            <Position>
              <LatitudeDegrees>36.52032201178371906280517578125</LatitudeDegrees>
              <LongitudeDegrees>-5.40953974239528179168701171875</LongitudeDegrees>
            </Position>
            <AltitudeMeters>226.600006103515625</AltitudeMeters>
            <DistanceMeters>3962.8685675934</DistanceMeters>
          </Trackpoint>
          <Trackpoint>
            <Time>2019-01-04T09:59:14.000Z</Time>
            <Position>
              <LatitudeDegrees>36.52031010948121547698974609375</LatitudeDegrees>
              <LongitudeDegrees>-5.40955114178359508514404296875</LongitudeDegrees>
            </Position>
            <AltitudeMeters>226.600006103515625</AltitudeMeters>
            <DistanceMeters>3964.5416855503</DistanceMeters>
          </Trackpoint>
          <Trackpoint>
            <Time>2019-01-04T09:59:15.000Z</Time>
            <Position>
              <LatitudeDegrees>36.5202989615499973297119140625</LatitudeDegrees>
              <LongitudeDegrees>-5.40956187061965465545654296875</LongitudeDegrees>
            </Position>
            <AltitudeMeters>226.600006103515625</AltitudeMeters>
            <DistanceMeters>3966.1089062727</DistanceMeters>
          </Trackpoint>
          <Trackpoint>
            <Time>2019-01-04T09:59:16.000Z</Time>
            <Position>
              <LatitudeDegrees>36.5202887356281280517578125</LatitudeDegrees>
              <LongitudeDegrees>-5.40957368910312652587890625</LongitudeDegrees>
            </Position>
            <AltitudeMeters>226.600006103515625</AltitudeMeters>
            <DistanceMeters>3967.6645606325</DistanceMeters>
          </Trackpoint>
          <Trackpoint>
            <Time>2019-01-04T09:59:17.000Z</Time>
            <Position>
              <LatitudeDegrees>36.5202780067920684814453125</LatitudeDegrees>
              <LongitudeDegrees>-5.40958768688142299652099609375</LongitudeDegrees>
            </Position>
            <AltitudeMeters>226.399993896484375</AltitudeMeters>
            <DistanceMeters>3969.3960297715</DistanceMeters>
          </Trackpoint>
          <Trackpoint>
            <Time>2019-01-04T09:59:18.000Z</Time>
            <Position>
              <LatitudeDegrees>36.52026970870792865753173828125</LatitudeDegrees>
              <LongitudeDegrees>-5.409598164260387420654296875</LongitudeDegrees>
            </Position>
            <AltitudeMeters>226.399993896484375</AltitudeMeters>
            <DistanceMeters>3970.7127585504</DistanceMeters>
          </Trackpoint>
          <Trackpoint>
            <Time>2019-01-04T09:59:19.000Z</Time>
            <Position>
              <LatitudeDegrees>36.52026384137570858001708984375</LatitudeDegrees>
              <LongitudeDegrees>-5.40960880927741527557373046875</LongitudeDegrees>
            </Position>
            <AltitudeMeters>226.399993896484375</AltitudeMeters>
            <DistanceMeters>3971.864896232</DistanceMeters>
          </Trackpoint>
          <Trackpoint>
            <Time>2019-01-04T09:59:20.000Z</Time>
            <Position>
              <LatitudeDegrees>36.52025562711060047149658203125</LatitudeDegrees>
              <LongitudeDegrees>-5.40961635299026966094970703125</LongitudeDegrees>
            </Position>
            <AltitudeMeters>226.399993896484375</AltitudeMeters>
            <DistanceMeters>3972.9972702228</DistanceMeters>
          </Trackpoint>
          <Trackpoint>
            <Time>2019-01-04T09:59:21.000Z</Time>
            <Position>
              <LatitudeDegrees>36.5202469937503337860107421875</LatitudeDegrees>
              <LongitudeDegrees>-5.4096244834363460540771484375</LongitudeDegrees>
            </Position>
            <AltitudeMeters>226.399993896484375</AltitudeMeters>
            <DistanceMeters>3974.206762837</DistanceMeters>
          </Trackpoint>
          <Trackpoint>
            <Time>2019-01-04T09:59:22.000Z</Time>
            <Position>
              <LatitudeDegrees>36.52023618109524250030517578125</LatitudeDegrees>
              <LongitudeDegrees>-5.4096352122724056243896484375</LongitudeDegrees>
            </Position>
            <AltitudeMeters>226.399993896484375</AltitudeMeters>
            <DistanceMeters>3975.7478371716</DistanceMeters>
          </Trackpoint>
          <Trackpoint>
            <Time>2019-01-04T09:59:23.000Z</Time>
            <Position>
              <LatitudeDegrees>36.52022696100175380706787109375</LatitudeDegrees>
              <LongitudeDegrees>-5.40964485146105289459228515625</LongitudeDegrees>
            </Position>
            <AltitudeMeters>226.399993896484375</AltitudeMeters>
            <DistanceMeters>3977.0849815677</DistanceMeters>
          </Trackpoint>
          <Trackpoint>
            <Time>2019-01-04T09:59:24.000Z</Time>
            <Position>
              <LatitudeDegrees>36.5202184952795505523681640625</LatitudeDegrees>
              <LongitudeDegrees>-5.4096546582877635955810546875</LongitudeDegrees>
            </Position>
            <AltitudeMeters>226.399993896484375</AltitudeMeters>
            <DistanceMeters>3978.3704791325</DistanceMeters>
          </Trackpoint>
          <Trackpoint>
            <Time>2019-01-04T09:59:25.000Z</Time>
            <Position>
              <LatitudeDegrees>36.52021170593798160552978515625</LatitudeDegrees>
              <LongitudeDegrees>-5.40966614149510860443115234375</LongitudeDegrees>
            </Position>
            <AltitudeMeters>226.399993896484375</AltitudeMeters>
            <DistanceMeters>3979.6453962906</DistanceMeters>
          </Trackpoint>
          <Trackpoint>
            <Time>2019-01-04T09:59:26.000Z</Time>
            <Position>
              <LatitudeDegrees>36.5202060900628566741943359375</LatitudeDegrees>
              <LongitudeDegrees>-5.409673936665058135986328125</LongitudeDegrees>
            </Position>
            <AltitudeMeters>226.600006103515625</AltitudeMeters>
            <DistanceMeters>3980.5861127683</DistanceMeters>
          </Trackpoint>
          <Trackpoint>
            <Time>2019-01-04T09:59:27.000Z</Time>
            <Position>
              <LatitudeDegrees>36.520201228559017181396484375</LatitudeDegrees>
              <LongitudeDegrees>-5.409682653844356536865234375</LongitudeDegrees>
            </Position>
            <AltitudeMeters>226.8000030517578125</AltitudeMeters>
            <DistanceMeters>3981.536379912</DistanceMeters>
          </Trackpoint>
          <Trackpoint>
            <Time>2019-01-04T09:59:28.000Z</Time>
            <Position>
              <LatitudeDegrees>36.52019242756068706512451171875</LatitudeDegrees>
              <LongitudeDegrees>-5.4096932150423526763916015625</LongitudeDegrees>
            </Position>
            <AltitudeMeters>226.8000030517578125</AltitudeMeters>
            <DistanceMeters>3982.9002698443</DistanceMeters>
          </Trackpoint>
          <Trackpoint>
            <Time>2019-01-04T09:59:29.000Z</Time>
            <Position>
              <LatitudeDegrees>36.52018337510526180267333984375</LatitudeDegrees>
              <LongitudeDegrees>-5.40970670990645885467529296875</LongitudeDegrees>
            </Position>
            <AltitudeMeters>227</AltitudeMeters>
            <DistanceMeters>3984.4732418548</DistanceMeters>
          </Trackpoint>
          <Trackpoint>
            <Time>2019-01-04T09:59:30.000Z</Time>
            <Position>
              <LatitudeDegrees>36.52017566375434398651123046875</LatitudeDegrees>
              <LongitudeDegrees>-5.40972129441797733306884765625</LongitudeDegrees>
            </Position>
            <AltitudeMeters>227</AltitudeMeters>
            <DistanceMeters>3986.0404625772</DistanceMeters>
          </Trackpoint>
          <Trackpoint>
            <Time>2019-01-04T09:59:31.000Z</Time>
            <Position>
              <LatitudeDegrees>36.520168371498584747314453125</LatitudeDegrees>
              <LongitudeDegrees>-5.409735627472400665283203125</LongitudeDegrees>
            </Position>
            <AltitudeMeters>227</AltitudeMeters>
            <DistanceMeters>3987.554939192</DistanceMeters>
          </Trackpoint>
          <Trackpoint>
            <Time>2019-01-04T09:59:32.000Z</Time>
            <Position>
              <LatitudeDegrees>36.52016191743314266204833984375</LatitudeDegrees>
              <LongitudeDegrees>-5.4097502119839191436767578125</LongitudeDegrees>
            </Position>
            <AltitudeMeters>227.1999969482421875</AltitudeMeters>
            <DistanceMeters>3989.0453749689</DistanceMeters>
          </Trackpoint>
          <Trackpoint>
            <Time>2019-01-04T09:59:33.000Z</Time>
            <Position>
              <LatitudeDegrees>36.52015127241611480712890625</LatitudeDegrees>
              <LongitudeDegrees>-5.4097673110663890838623046875</LongitudeDegrees>
            </Position>
            <AltitudeMeters>227.1999969482421875</AltitudeMeters>
            <DistanceMeters>3990.9788825712</DistanceMeters>
          </Trackpoint>
          <Trackpoint>
            <Time>2019-01-04T09:59:34.000Z</Time>
            <Position>
              <LatitudeDegrees>36.52014314197003841400146484375</LatitudeDegrees>
              <LongitudeDegrees>-5.4097840748727321624755859375</LongitudeDegrees>
            </Position>
            <AltitudeMeters>227.399993896484375</AltitudeMeters>
            <DistanceMeters>3992.7310886067</DistanceMeters>
          </Trackpoint>
          <Trackpoint>
            <Time>2019-01-04T09:59:35.000Z</Time>
            <Position>
              <LatitudeDegrees>36.5201323293149471282958984375</LatitudeDegrees>
              <LongitudeDegrees>-5.40979589335620403289794921875</LongitudeDegrees>
            </Position>
            <AltitudeMeters>227.399993896484375</AltitudeMeters>
            <DistanceMeters>3994.3325072622</DistanceMeters>
          </Trackpoint>
          <Trackpoint>
            <Time>2019-01-04T09:59:36.000Z</Time>
            <Position>
              <LatitudeDegrees>36.52012553997337818145751953125</LatitudeDegrees>
              <LongitudeDegrees>-5.40981198661029338836669921875</LongitudeDegrees>
            </Position>
            <AltitudeMeters>227.399993896484375</AltitudeMeters>
            <DistanceMeters>3995.9618759971</DistanceMeters>
          </Trackpoint>
          <Trackpoint>
            <Time>2019-01-04T09:59:37.000Z</Time>
            <Position>
              <LatitudeDegrees>36.520118750631809234619140625</LatitudeDegrees>
              <LongitudeDegrees>-5.4098310135304927825927734375</LongitudeDegrees>
            </Position>
            <AltitudeMeters>227.600006103515625</AltitudeMeters>
            <DistanceMeters>3997.8288547081</DistanceMeters>
          </Trackpoint>
          <Trackpoint>
            <Time>2019-01-04T09:59:38.000Z</Time>
            <Position>
              <LatitudeDegrees>36.5201103687286376953125</LatitudeDegrees>
              <LongitudeDegrees>-5.409846268594264984130859375</LongitudeDegrees>
            </Position>
            <AltitudeMeters>227.600006103515625</AltitudeMeters>
            <DistanceMeters>3999.4802429381</DistanceMeters>
          </Trackpoint>
          <Trackpoint>
            <Time>2019-01-04T09:59:39.000Z</Time>
            <Position>
              <LatitudeDegrees>36.52010274119675159454345703125</LatitudeDegrees>
              <LongitudeDegrees>-5.40986093692481517791748046875</LongitudeDegrees>
            </Position>
            <AltitudeMeters>227.8000030517578125</AltitudeMeters>
            <DistanceMeters>4001.0474636605</DistanceMeters>
          </Trackpoint>
          <Trackpoint>
            <Time>2019-01-04T09:59:40.000Z</Time>
            <Position>
              <LatitudeDegrees>36.52009670622646808624267578125</LatitudeDegrees>
              <LongitudeDegrees>-5.4098766110837459564208984375</LongitudeDegrees>
            </Position>
            <AltitudeMeters>228</AltitudeMeters>
            <DistanceMeters>4002.6060176581</DistanceMeters>
          </Trackpoint>
          <Trackpoint>
            <Time>2019-01-04T09:59:41.000Z</Time>
            <Position>
              <LatitudeDegrees>36.52009117417037487030029296875</LatitudeDegrees>
              <LongitudeDegrees>-5.4098923690617084503173828125</LongitudeDegrees>
            </Position>
            <AltitudeMeters>228.1999969482421875</AltitudeMeters>
            <DistanceMeters>4004.1441594033</DistanceMeters>
          </Trackpoint>
          <Trackpoint>
            <Time>2019-01-04T09:59:42.000Z</Time>
            <Position>
              <LatitudeDegrees>36.52008547447621822357177734375</LatitudeDegrees>
              <LongitudeDegrees>-5.40991022251546382904052734375</LongitudeDegrees>
            </Position>
            <AltitudeMeters>228.399993896484375</AltitudeMeters>
            <DistanceMeters>4005.8625409084</DistanceMeters>
          </Trackpoint>
          <Trackpoint>
            <Time>2019-01-04T09:59:43.000Z</Time>
            <Position>
              <LatitudeDegrees>36.52007885277271270751953125</LatitudeDegrees>
              <LongitudeDegrees>-5.40992447175085544586181640625</LongitudeDegrees>
            </Position>
            <AltitudeMeters>228.600006103515625</AltitudeMeters>
            <DistanceMeters>4007.3346884372</DistanceMeters>
          </Trackpoint>
          <Trackpoint>
            <Time>2019-01-04T09:59:44.000Z</Time>
            <Position>
              <LatitudeDegrees>36.5200686268508434295654296875</LatitudeDegrees>
              <LongitudeDegrees>-5.40994140319526195526123046875</LongitudeDegrees>
            </Position>
            <AltitudeMeters>228.8000030517578125</AltitudeMeters>
            <DistanceMeters>4009.2304654349</DistanceMeters>
          </Trackpoint>
          <Trackpoint>
            <Time>2019-01-04T09:59:45.000Z</Time>
            <Position>
              <LatitudeDegrees>36.52006351388990879058837890625</LatitudeDegrees>
              <LongitudeDegrees>-5.409959256649017333984375</LongitudeDegrees>
            </Position>
            <AltitudeMeters>228.8000030517578125</AltitudeMeters>
            <DistanceMeters>4010.9250344978</DistanceMeters>
          </Trackpoint>
          <Trackpoint>
            <Time>2019-01-04T09:59:46.000Z</Time>
            <Position>
              <LatitudeDegrees>36.5200532041490077972412109375</LatitudeDegrees>
              <LongitudeDegrees>-5.40997023694217205047607421875</LongitudeDegrees>
            </Position>
            <AltitudeMeters>229</AltitudeMeters>
            <DistanceMeters>4012.4365269193</DistanceMeters>
          </Trackpoint>
          <Trackpoint>
            <Time>2019-01-04T09:59:47.000Z</Time>
            <Position>
              <LatitudeDegrees>36.52004607953131198883056640625</LatitudeDegrees>
              <LongitudeDegrees>-5.409984402358531951904296875</LongitudeDegrees>
            </Position>
            <AltitudeMeters>229.1999969482421875</AltitudeMeters>
            <DistanceMeters>4013.9330091137</DistanceMeters>
          </Trackpoint>
          <Trackpoint>
            <Time>2019-01-04T09:59:48.000Z</Time>
            <Position>
              <LatitudeDegrees>36.52004054747521877288818359375</LatitudeDegrees>
              <LongitudeDegrees>-5.409999825060367584228515625</LongitudeDegrees>
            </Position>
            <AltitudeMeters>229.399993896484375</AltitudeMeters>
            <DistanceMeters>4015.4415114385</DistanceMeters>
          </Trackpoint>
          <Trackpoint>
            <Time>2019-01-04T09:59:49.000Z</Time>
            <Position>
              <LatitudeDegrees>36.5200347639620304107666015625</LatitudeDegrees>
              <LongitudeDegrees>-5.41001600213348865509033203125</LongitudeDegrees>
            </Position>
            <AltitudeMeters>229.399993896484375</AltitudeMeters>
            <DistanceMeters>4017.0259233961</DistanceMeters>
          </Trackpoint>
          <Trackpoint>
            <Time>2019-01-04T09:59:50.000Z</Time>
            <Position>
              <LatitudeDegrees>36.52002847753465175628662109375</LatitudeDegrees>
              <LongitudeDegrees>-5.41003167629241943359375</LongitudeDegrees>
            </Position>
            <AltitudeMeters>229.600006103515625</AltitudeMeters>
            <DistanceMeters>4018.5931441185</DistanceMeters>
          </Trackpoint>
          <Trackpoint>
            <Time>2019-01-04T09:59:51.000Z</Time>
            <Position>
              <LatitudeDegrees>36.5200220234692096710205078125</LatitudeDegrees>
              <LongitudeDegrees>-5.41004718281328678131103515625</LongitudeDegrees>
            </Position>
            <AltitudeMeters>229.8000030517578125</AltitudeMeters>
            <DistanceMeters>4020.1545923693</DistanceMeters>
          </Trackpoint>
          <Trackpoint>
            <Time>2019-01-04T09:59:52.000Z</Time>
            <Position>
              <LatitudeDegrees>36.520018167793750762939453125</LatitudeDegrees>
              <LongitudeDegrees>-5.410063527524471282958984375</LongitudeDegrees>
            </Position>
            <AltitudeMeters>229.8000030517578125</AltitudeMeters>
            <DistanceMeters>4021.6750197992</DistanceMeters>
          </Trackpoint>
          <Trackpoint>
            <Time>2019-01-04T09:59:53.000Z</Time>
            <Position>
              <LatitudeDegrees>36.52001372538506984710693359375</LatitudeDegrees>
              <LongitudeDegrees>-5.410079620778560638427734375</LongitudeDegrees>
            </Position>
            <AltitudeMeters>229.8000030517578125</AltitudeMeters>
            <DistanceMeters>4023.1954472292</DistanceMeters>
          </Trackpoint>
          <Trackpoint>
            <Time>2019-01-04T09:59:54.000Z</Time>
            <Position>
              <LatitudeDegrees>36.520008109509944915771484375</LatitudeDegrees>
              <LongitudeDegrees>-5.410094372928142547607421875</LongitudeDegrees>
            </Position>
            <AltitudeMeters>230</AltitudeMeters>
            <DistanceMeters>4024.6552753152</DistanceMeters>
          </Trackpoint>
          <Trackpoint>
            <Time>2019-01-04T09:59:55.000Z</Time>
            <Position>
              <LatitudeDegrees>36.52000282891094684600830078125</LatitudeDegrees>
              <LongitudeDegrees>-5.410109125077724456787109375</LongitudeDegrees>
            </Position>
            <AltitudeMeters>230.399993896484375</AltitudeMeters>
            <DistanceMeters>4026.1026791065</DistanceMeters>
          </Trackpoint>
          <Trackpoint>
            <Time>2019-01-04T09:59:56.000Z</Time>
            <Position>
              <LatitudeDegrees>36.5199963748455047607421875</LatitudeDegrees>
              <LongitudeDegrees>-5.4101230390369892120361328125</LongitudeDegrees>
            </Position>
            <AltitudeMeters>230.600006103515625</AltitudeMeters>
            <DistanceMeters>4027.5406942335</DistanceMeters>
          </Trackpoint>
          <Trackpoint>
            <Time>2019-01-04T09:59:57.000Z</Time>
            <Position>
              <LatitudeDegrees>36.5199901722371578216552734375</LatitudeDegrees>
              <LongitudeDegrees>-5.410136617720127105712890625</LongitudeDegrees>
            </Position>
            <AltitudeMeters>230.8000030517578125</AltitudeMeters>
            <DistanceMeters>4028.9372960064</DistanceMeters>
          </Trackpoint>
          <Trackpoint>
            <Time>2019-01-04T09:59:58.000Z</Time>
            <Position>
              <LatitudeDegrees>36.51998707093298435211181640625</LatitudeDegrees>
              <LongitudeDegrees>-5.41015162132680416107177734375</LongitudeDegrees>
            </Position>
            <AltitudeMeters>231</AltitudeMeters>
            <DistanceMeters>4030.3274169936</DistanceMeters>
          </Trackpoint>
          <Trackpoint>
            <Time>2019-01-04T09:59:59.000Z</Time>
            <Position>
              <LatitudeDegrees>36.51998003013432025909423828125</LatitudeDegrees>
              <LongitudeDegrees>-5.41016779839992523193359375</LongitudeDegrees>
            </Position>
            <AltitudeMeters>231.1999969482421875</AltitudeMeters>
            <DistanceMeters>4031.9733279672</DistanceMeters>
          </Trackpoint>
          <Trackpoint>
            <Time>2019-01-04T10:00:00.000Z</Time>
            <Position>
              <LatitudeDegrees>36.519971899688243865966796875</LatitudeDegrees>
              <LongitudeDegrees>-5.41018330492079257965087890625</LongitudeDegrees>
            </Position>
            <AltitudeMeters>231.1999969482421875</AltitudeMeters>
            <DistanceMeters>4033.6301753467</DistanceMeters>
          </Trackpoint>
          <Trackpoint>
            <Time>2019-01-04T10:00:01.000Z</Time>
            <Position>
              <LatitudeDegrees>36.51996511034667491912841796875</LatitudeDegrees>
              <LongitudeDegrees>-5.4101967997848987579345703125</LongitudeDegrees>
            </Position>
            <AltitudeMeters>231.399993896484375</AltitudeMeters>
            <DistanceMeters>4035.0524049778</DistanceMeters>
          </Trackpoint>
          <Trackpoint>
            <Time>2019-01-04T10:00:02.000Z</Time>
            <Position>
              <LatitudeDegrees>36.5199603326618671417236328125</LatitudeDegrees>
              <LongitudeDegrees>-5.41020979173481464385986328125</LongitudeDegrees>
            </Position>
            <AltitudeMeters>231.600006103515625</AltitudeMeters>
            <DistanceMeters>4036.3343854428</DistanceMeters>
          </Trackpoint>
          <Trackpoint>
            <Time>2019-01-04T10:00:03.000Z</Time>
            <Position>
              <LatitudeDegrees>36.51995488442480564117431640625</LatitudeDegrees>
              <LongitudeDegrees>-5.41022337041795253753662109375</LongitudeDegrees>
            </Position>
            <AltitudeMeters>231.8000030517578125</AltitudeMeters>
            <DistanceMeters>4037.6916384018</DistanceMeters>
          </Trackpoint>
          <Trackpoint>
            <Time>2019-01-04T10:00:04.000Z</Time>
            <Position>
              <LatitudeDegrees>36.51994801126420497894287109375</LatitudeDegrees>
              <LongitudeDegrees>-5.4102377034723758697509765625</LongitudeDegrees>
            </Position>
            <AltitudeMeters>232</AltitudeMeters>
            <DistanceMeters>4039.1820741787</DistanceMeters>
          </Trackpoint>
          <Trackpoint>
            <Time>2019-01-04T10:00:05.000Z</Time>
            <Position>
              <LatitudeDegrees>36.5199428983032703399658203125</LatitudeDegrees>
              <LongitudeDegrees>-5.41025270707905292510986328125</LongitudeDegrees>
            </Position>
            <AltitudeMeters>232.1999969482421875</AltitudeMeters>
            <DistanceMeters>4040.6419022648</DistanceMeters>
          </Trackpoint>
          <Trackpoint>
            <Time>2019-01-04T10:00:06.000Z</Time>
            <Position>
              <LatitudeDegrees>36.51993845589458942413330078125</LatitudeDegrees>
              <LongitudeDegrees>-5.410268716514110565185546875</LongitudeDegrees>
            </Position>
            <AltitudeMeters>232.1999969482421875</AltitudeMeters>
            <DistanceMeters>4042.1533946863</DistanceMeters>
          </Trackpoint>
          <Trackpoint>
            <Time>2019-01-04T10:00:07.000Z</Time>
            <Position>
              <LatitudeDegrees>36.51993258856236934661865234375</LatitudeDegrees>
              <LongitudeDegrees>-5.41027952916920185089111328125</LongitudeDegrees>
            </Position>
            <AltitudeMeters>232.399993896484375</AltitudeMeters>
            <DistanceMeters>4043.317229497</DistanceMeters>
          </Trackpoint>
          <Trackpoint>
            <Time>2019-01-04T10:00:08.000Z</Time>
            <Position>
              <LatitudeDegrees>36.51992521248757839202880859375</LatitudeDegrees>
              <LongitudeDegrees>-5.41029294021427631378173828125</LongitudeDegrees>
            </Position>
            <AltitudeMeters>232.600006103515625</AltitudeMeters>
            <DistanceMeters>4044.7708587096</DistanceMeters>
          </Trackpoint>
          <Trackpoint>
            <Time>2019-01-04T10:00:09.000Z</Time>
            <Position>
              <LatitudeDegrees>36.51991716586053371429443359375</LatitudeDegrees>
              <LongitudeDegrees>-5.4103060998022556304931640625</LongitudeDegrees>
            </Position>
            <AltitudeMeters>232.8000030517578125</AltitudeMeters>
            <DistanceMeters>4046.2491274604</DistanceMeters>
          </Trackpoint>
          <Trackpoint>
            <Time>2019-01-04T10:00:10.000Z</Time>
            <Position>
              <LatitudeDegrees>36.51991096325218677520751953125</LatitudeDegrees>
              <LongitudeDegrees>-5.41031892411410808563232421875</LongitudeDegrees>
            </Position>
            <AltitudeMeters>233</AltitudeMeters>
            <DistanceMeters>4047.589644231</DistanceMeters>
          </Trackpoint>
          <Trackpoint>
            <Time>2019-01-04T10:00:11.000Z</Time>
            <Position>
              <LatitudeDegrees>36.51990174315869808197021484375</LatitudeDegrees>
              <LongitudeDegrees>-5.410331748425960540771484375</LongitudeDegrees>
            </Position>
            <AltitudeMeters>233</AltitudeMeters>
            <DistanceMeters>4049.133645585</DistanceMeters>
          </Trackpoint>
          <Trackpoint>
            <Time>2019-01-04T10:00:12.000Z</Time>
            <Position>
              <LatitudeDegrees>36.5198929421603679656982421875</LatitudeDegrees>
              <LongitudeDegrees>-5.410344488918781280517578125</LongitudeDegrees>
            </Position>
            <AltitudeMeters>233.1999969482421875</AltitudeMeters>
            <DistanceMeters>4050.6361498649</DistanceMeters>
          </Trackpoint>
          <Trackpoint>
            <Time>2019-01-04T10:00:13.000Z</Time>
            <Position>
              <LatitudeDegrees>36.51988313533365726470947265625</LatitudeDegrees>
              <LongitudeDegrees>-5.41035848669707775115966796875</LongitudeDegrees>
            </Position>
            <AltitudeMeters>233.399993896484375</AltitudeMeters>
            <DistanceMeters>4052.2984384655</DistanceMeters>
          </Trackpoint>
          <Trackpoint>
            <Time>2019-01-04T10:00:14.000Z</Time>
            <Position>
              <LatitudeDegrees>36.5198724903166294097900390625</LatitudeDegrees>
              <LongitudeDegrees>-5.41037105955183506011962890625</LongitudeDegrees>
            </Position>
            <AltitudeMeters>233.600006103515625</AltitudeMeters>
            <DistanceMeters>4053.9333398777</DistanceMeters>
          </Trackpoint>
          <Trackpoint>
            <Time>2019-01-04T10:00:15.000Z</Time>
            <Position>
              <LatitudeDegrees>36.51986368931829929351806640625</LatitudeDegrees>
              <LongitudeDegrees>-5.4103822074830532073974609375</LongitudeDegrees>
            </Position>
            <AltitudeMeters>233.600006103515625</AltitudeMeters>
            <DistanceMeters>4055.3299416505</DistanceMeters>
          </Trackpoint>
          <Trackpoint>
            <Time>2019-01-04T10:00:16.000Z</Time>
            <Position>
              <LatitudeDegrees>36.5198550559580326080322265625</LatitudeDegrees>
              <LongitudeDegrees>-5.41039369069039821624755859375</LongitudeDegrees>
            </Position>
            <AltitudeMeters>233.600006103515625</AltitudeMeters>
            <DistanceMeters>4056.7394156012</DistanceMeters>
          </Trackpoint>
          <Trackpoint>
            <Time>2019-01-04T10:00:17.000Z</Time>
            <Position>
              <LatitudeDegrees>36.5198473446071147918701171875</LatitudeDegrees>
              <LongitudeDegrees>-5.410406179726123809814453125</LongitudeDegrees>
            </Position>
            <AltitudeMeters>233.600006103515625</AltitudeMeters>
            <DistanceMeters>4058.1488895519</DistanceMeters>
          </Trackpoint>
          <Trackpoint>
            <Time>2019-01-04T10:00:18.000Z</Time>
            <Position>
              <LatitudeDegrees>36.519839130342006683349609375</LatitudeDegrees>
              <LongitudeDegrees>-5.41041933931410312652587890625</LongitudeDegrees>
            </Position>
            <AltitudeMeters>233.8000030517578125</AltitudeMeters>
            <DistanceMeters>4059.6393253288</DistanceMeters>
          </Trackpoint>
          <Trackpoint>
            <Time>2019-01-04T10:00:19.000Z</Time>
            <Position>
              <LatitudeDegrees>36.51982798241078853607177734375</LatitudeDegrees>
              <LongitudeDegrees>-5.41043258272111415863037109375</LongitudeDegrees>
            </Position>
            <AltitudeMeters>233.8000030517578125</AltitudeMeters>
            <DistanceMeters>4061.3550773274</DistanceMeters>
          </Trackpoint>
          <Trackpoint>
            <Time>2019-01-04T10:00:20.000Z</Time>
            <Position>
              <LatitudeDegrees>36.51981725357472896575927734375</LatitudeDegrees>
              <LongitudeDegrees>-5.4104449041187763214111328125</LongitudeDegrees>
            </Position>
            <AltitudeMeters>233.8000030517578125</AltitudeMeters>
            <DistanceMeters>4062.9788945344</DistanceMeters>
          </Trackpoint>
          <Trackpoint>
            <Time>2019-01-04T10:00:21.000Z</Time>
            <Position>
              <LatitudeDegrees>36.51980618946254253387451171875</LatitudeDegrees>
              <LongitudeDegrees>-5.41045504622161388397216796875</LongitudeDegrees>
            </Position>
            <AltitudeMeters>233.8000030517578125</AltitudeMeters>
            <DistanceMeters>4064.5082047707</DistanceMeters>
          </Trackpoint>
          <Trackpoint>
            <Time>2019-01-04T10:00:22.000Z</Time>
            <Position>
              <LatitudeDegrees>36.51979479007422924041748046875</LatitudeDegrees>
              <LongitudeDegrees>-5.41046493686735630035400390625</LongitudeDegrees>
            </Position>
            <AltitudeMeters>233.8000030517578125</AltitudeMeters>
            <DistanceMeters>4066.0551276058</DistanceMeters>
          </Trackpoint>
          <Trackpoint>
            <Time>2019-01-04T10:00:23.000Z</Time>
            <Position>
              <LatitudeDegrees>36.519782803952693939208984375</LatitudeDegrees>
              <LongitudeDegrees>-5.410473905503749847412109375</LongitudeDegrees>
            </Position>
            <AltitudeMeters>233.8000030517578125</AltitudeMeters>
            <DistanceMeters>4067.6107819656</DistanceMeters>
          </Trackpoint>
          <Trackpoint>
            <Time>2019-01-04T10:00:24.000Z</Time>
            <Position>
              <LatitudeDegrees>36.51977081783115863800048828125</LatitudeDegrees>
              <LongitudeDegrees>-5.4104814492166042327880859375</LongitudeDegrees>
            </Position>
            <AltitudeMeters>233.8000030517578125</AltitudeMeters>
            <DistanceMeters>4069.1042440112</DistanceMeters>
          </Trackpoint>
          <Trackpoint>
            <Time>2019-01-04T10:00:25.000Z</Time>
            <Position>
              <LatitudeDegrees>36.51975673623383045196533203125</LatitudeDegrees>
              <LongitudeDegrees>-5.41048941202461719512939453125</LongitudeDegrees>
            </Position>
            <AltitudeMeters>233.8000030517578125</AltitudeMeters>
            <DistanceMeters>4070.8252510052</DistanceMeters>
          </Trackpoint>
          <Trackpoint>
            <Time>2019-01-04T10:00:26.000Z</Time>
            <Position>
              <LatitudeDegrees>36.51974248699843883514404296875</LatitudeDegrees>
              <LongitudeDegrees>-5.41049594990909099578857421875</LongitudeDegrees>
            </Position>
            <AltitudeMeters>233.8000030517578125</AltitudeMeters>
            <DistanceMeters>4072.5171535535</DistanceMeters>
          </Trackpoint>
          <Trackpoint>
            <Time>2019-01-04T10:00:27.000Z</Time>
            <Position>
              <LatitudeDegrees>36.5197303332388401031494140625</LatitudeDegrees>
              <LongitudeDegrees>-5.410504750907421112060546875</LongitudeDegrees>
            </Position>
            <AltitudeMeters>233.8000030517578125</AltitudeMeters>
            <DistanceMeters>4074.0843742759</DistanceMeters>
          </Trackpoint>
          <Trackpoint>
            <Time>2019-01-04T10:00:28.000Z</Time>
            <Position>
              <LatitudeDegrees>36.5197201073169708251953125</LatitudeDegrees>
              <LongitudeDegrees>-5.41051707230508327484130859375</LongitudeDegrees>
            </Position>
            <AltitudeMeters>234</AltitudeMeters>
            <DistanceMeters>4075.6687862335</DistanceMeters>
          </Trackpoint>
          <Trackpoint>
            <Time>2019-01-04T10:00:29.000Z</Time>
            <Position>
              <LatitudeDegrees>36.51971281506121158599853515625</LatitudeDegrees>
              <LongitudeDegrees>-5.4105300642549991607666015625</LongitudeDegrees>
            </Position>
            <AltitudeMeters>234</AltitudeMeters>
            <DistanceMeters>4077.0910158645</DistanceMeters>
          </Trackpoint>
          <Trackpoint>
            <Time>2019-01-04T10:00:30.000Z</Time>
            <Position>
              <LatitudeDegrees>36.51970468461513519287109375</LatitudeDegrees>
              <LongitudeDegrees>-5.4105372726917266845703125</LongitudeDegrees>
            </Position>
            <AltitudeMeters>234.1999969482421875</AltitudeMeters>
            <DistanceMeters>4078.2073269992</DistanceMeters>
          </Trackpoint>
          <Trackpoint>
            <Time>2019-01-04T10:00:31.000Z</Time>
            <Position>
              <LatitudeDegrees>36.51969638653099536895751953125</LatitudeDegrees>
              <LongitudeDegrees>-5.4105434753000736236572265625</LongitudeDegrees>
            </Position>
            <AltitudeMeters>234.1999969482421875</AltitudeMeters>
            <DistanceMeters>4079.2866230018</DistanceMeters>
          </Trackpoint>
          <Trackpoint>
            <Time>2019-01-04T10:00:32.000Z</Time>
            <Position>
              <LatitudeDegrees>36.51968549005687236785888671875</LatitudeDegrees>
              <LongitudeDegrees>-5.410546325147151947021484375</LongitudeDegrees>
            </Position>
            <AltitudeMeters>234.1999969482421875</AltitudeMeters>
            <DistanceMeters>4080.5256197715</DistanceMeters>
          </Trackpoint>
          <Trackpoint>
            <Time>2019-01-04T10:00:33.000Z</Time>
            <Position>
              <LatitudeDegrees>36.5196797065436840057373046875</LatitudeDegrees>
              <LongitudeDegrees>-5.41054825298488140106201171875</LongitudeDegrees>
            </Position>
            <AltitudeMeters>234.1999969482421875</AltitudeMeters>
            <DistanceMeters>4081.1908067721</DistanceMeters>
          </Trackpoint>
          <Trackpoint>
            <Time>2019-01-04T10:00:34.000Z</Time>
            <Position>
              <LatitudeDegrees>36.5196780301630496978759765625</LatitudeDegrees>
              <LongitudeDegrees>-5.410549677908420562744140625</LongitudeDegrees>
            </Position>
            <AltitudeMeters>234.1999969482421875</AltitudeMeters>
            <DistanceMeters>4081.4235737343</DistanceMeters>
          </Trackpoint>
          <Trackpoint>
            <Time>2019-01-04T10:00:35.000Z</Time>
            <Position>
              <LatitudeDegrees>36.51967643760144710540771484375</LatitudeDegrees>
              <LongitudeDegrees>-5.41054808534681797027587890625</LongitudeDegrees>
            </Position>
            <AltitudeMeters>234.1999969482421875</AltitudeMeters>
            <DistanceMeters>4081.6563406964</DistanceMeters>
          </Trackpoint>
          <Trackpoint>
            <Time>2019-01-04T10:00:36.000Z</Time>
            <Position>
              <LatitudeDegrees>36.51967224664986133575439453125</LatitudeDegrees>
              <LongitudeDegrees>-5.4105485044419765472412109375</LongitudeDegrees>
            </Position>
            <AltitudeMeters>234.1999969482421875</AltitudeMeters>
            <DistanceMeters>4082.1314742682</DistanceMeters>
          </Trackpoint>
          <Trackpoint>
            <Time>2019-01-04T10:00:37.000Z</Time>
            <Position>
              <LatitudeDegrees>36.51966989971697330474853515625</LatitudeDegrees>
              <LongitudeDegrees>-5.410553701221942901611328125</LongitudeDegrees>
            </Position>
            <AltitudeMeters>234.1999969482421875</AltitudeMeters>
            <DistanceMeters>4082.6690265412</DistanceMeters>
          </Trackpoint>
          <Trackpoint>
            <Time>2019-01-04T10:00:38.000Z</Time>
            <Position>
              <LatitudeDegrees>36.51966939680278301239013671875</LatitudeDegrees>
              <LongitudeDegrees>-5.41055747307837009429931640625</LongitudeDegrees>
            </Position>
            <AltitudeMeters>234.1999969482421875</AltitudeMeters>
            <DistanceMeters>4083.024583949</DistanceMeters>
          </Trackpoint>
          <Trackpoint>
            <Time>2019-01-04T10:00:39.000Z</Time>
            <Position>
              <LatitudeDegrees>36.51966788806021213531494140625</LatitudeDegrees>
              <LongitudeDegrees>-5.410557724535465240478515625</LongitudeDegrees>
            </Position>
            <AltitudeMeters>234.399993896484375</AltitudeMeters>
            <DistanceMeters>4083.2146373778</DistanceMeters>
          </Trackpoint>
          <Trackpoint>
            <Time>2019-01-04T10:00:40.000Z</Time>
            <Position>
              <LatitudeDegrees>36.51966772042214870452880859375</LatitudeDegrees>
              <LongitudeDegrees>-5.4105562157928943634033203125</LongitudeDegrees>
            </Position>
            <AltitudeMeters>234.399993896484375</AltitudeMeters>
            <DistanceMeters>4083.349025446</DistanceMeters>
          </Trackpoint>
          <Trackpoint>
            <Time>2019-01-04T10:00:41.000Z</Time>
            <Position>
              <LatitudeDegrees>36.51966755278408527374267578125</LatitudeDegrees>
              <LongitudeDegrees>-5.4105548746883869171142578125</LongitudeDegrees>
            </Position>
            <AltitudeMeters>234.399993896484375</AltitudeMeters>
            <DistanceMeters>4083.349025446</DistanceMeters>
          </Trackpoint>
          <Trackpoint>
            <Time>2019-01-04T10:00:42.000Z</Time>
            <Position>
              <LatitudeDegrees>36.5196676366031169891357421875</LatitudeDegrees>
              <LongitudeDegrees>-5.410554371774196624755859375</LongitudeDegrees>
            </Position>
            <AltitudeMeters>234.399993896484375</AltitudeMeters>
            <DistanceMeters>4083.349025446</DistanceMeters>
          </Trackpoint>
          <Trackpoint>
            <Time>2019-01-04T10:00:43.000Z</Time>
            <Position>
              <LatitudeDegrees>36.519667804241180419921875</LatitudeDegrees>
              <LongitudeDegrees>-5.41055462323129177093505859375</LongitudeDegrees>
            </Position>
            <AltitudeMeters>234.399993896484375</AltitudeMeters>
            <DistanceMeters>4083.349025446</DistanceMeters>
          </Trackpoint>
          <Trackpoint>
            <Time>2019-01-04T10:00:44.000Z</Time>
            <Position>
              <LatitudeDegrees>36.51966704986989498138427734375</LatitudeDegrees>
              <LongitudeDegrees>-5.41055479086935520172119140625</LongitudeDegrees>
            </Position>
            <AltitudeMeters>234.399993896484375</AltitudeMeters>
            <DistanceMeters>4083.349025446</DistanceMeters>
          </Trackpoint>
          <Trackpoint>
            <Time>2019-01-04T10:00:45.000Z</Time>
            <Position>
              <LatitudeDegrees>36.51966688223183155059814453125</LatitudeDegrees>
              <LongitudeDegrees>-5.41055495850741863250732421875</LongitudeDegrees>
            </Position>
            <AltitudeMeters>234.399993896484375</AltitudeMeters>
            <DistanceMeters>4083.349025446</DistanceMeters>
          </Trackpoint>
          <Trackpoint>
            <Time>2019-01-04T10:00:46.000Z</Time>
            <Position>
              <LatitudeDegrees>36.519666798412799835205078125</LatitudeDegrees>
              <LongitudeDegrees>-5.41055512614548206329345703125</LongitudeDegrees>
            </Position>
            <AltitudeMeters>234.399993896484375</AltitudeMeters>
            <DistanceMeters>4083.349025446</DistanceMeters>
          </Trackpoint>
          <Trackpoint>
            <Time>2019-01-04T10:00:47.000Z</Time>
            <Position>
              <LatitudeDegrees>36.5196666307747364044189453125</LatitudeDegrees>
              <LongitudeDegrees>-5.41055537760257720947265625</LongitudeDegrees>
            </Position>
            <AltitudeMeters>234.399993896484375</AltitudeMeters>
            <DistanceMeters>4083.349025446</DistanceMeters>
          </Trackpoint>
          <Trackpoint>
            <Time>2019-01-04T10:00:48.000Z</Time>
            <Position>
              <LatitudeDegrees>36.5196666307747364044189453125</LatitudeDegrees>
              <LongitudeDegrees>-5.41055579669773578643798828125</LongitudeDegrees>
            </Position>
            <AltitudeMeters>234.399993896484375</AltitudeMeters>
            <DistanceMeters>4083.349025446</DistanceMeters>
          </Trackpoint>
          <Trackpoint>
            <Time>2019-01-04T10:00:49.000Z</Time>
            <Position>
              <LatitudeDegrees>36.5196666307747364044189453125</LatitudeDegrees>
              <LongitudeDegrees>-5.4105560481548309326171875</LongitudeDegrees>
            </Position>
            <AltitudeMeters>234.399993896484375</AltitudeMeters>
            <DistanceMeters>4083.349025446</DistanceMeters>
          </Trackpoint>
          <Trackpoint>
            <Time>2019-01-04T10:00:50.000Z</Time>
            <Position>
              <LatitudeDegrees>36.5196666307747364044189453125</LatitudeDegrees>
              <LongitudeDegrees>-5.4105562157928943634033203125</LongitudeDegrees>
            </Position>
            <AltitudeMeters>234.399993896484375</AltitudeMeters>
            <DistanceMeters>4083.349025446</DistanceMeters>
          </Trackpoint>
          <Trackpoint>
            <Time>2019-01-04T10:00:51.000Z</Time>
            <Position>
              <LatitudeDegrees>36.5196666307747364044189453125</LatitudeDegrees>
              <LongitudeDegrees>-5.410556383430957794189453125</LongitudeDegrees>
            </Position>
            <AltitudeMeters>234.399993896484375</AltitudeMeters>
            <DistanceMeters>4083.349025446</DistanceMeters>
          </Trackpoint>
          <Trackpoint>
            <Time>2019-01-04T10:00:52.000Z</Time>
            <Position>
              <LatitudeDegrees>36.5196666307747364044189453125</LatitudeDegrees>
              <LongitudeDegrees>-5.41055671870708465576171875</LongitudeDegrees>
            </Position>
            <AltitudeMeters>234.399993896484375</AltitudeMeters>
            <DistanceMeters>4083.349025446</DistanceMeters>
          </Trackpoint>
          <Trackpoint>
            <Time>2019-01-04T10:00:53.000Z</Time>
            <Position>
              <LatitudeDegrees>36.5196666307747364044189453125</LatitudeDegrees>
              <LongitudeDegrees>-5.41055697016417980194091796875</LongitudeDegrees>
            </Position>
            <AltitudeMeters>234.399993896484375</AltitudeMeters>
            <DistanceMeters>4083.349025446</DistanceMeters>
          </Trackpoint>
          <Trackpoint>
            <Time>2019-01-04T10:00:54.000Z</Time>
            <Position>
              <LatitudeDegrees>36.519666798412799835205078125</LatitudeDegrees>
              <LongitudeDegrees>-5.41055738925933837890625</LongitudeDegrees>
            </Position>
            <AltitudeMeters>234.399993896484375</AltitudeMeters>
            <DistanceMeters>4083.349025446</DistanceMeters>
          </Trackpoint>
          <Trackpoint>
            <Time>2019-01-04T10:00:55.000Z</Time>
            <Position>
              <LatitudeDegrees>36.519666798412799835205078125</LatitudeDegrees>
              <LongitudeDegrees>-5.41055747307837009429931640625</LongitudeDegrees>
            </Position>
            <AltitudeMeters>234.399993896484375</AltitudeMeters>
            <DistanceMeters>4083.349025446</DistanceMeters>
          </Trackpoint>
          <Trackpoint>
            <Time>2019-01-04T10:00:56.000Z</Time>
            <Position>
              <LatitudeDegrees>36.51966688223183155059814453125</LatitudeDegrees>
              <LongitudeDegrees>-5.4105575568974018096923828125</LongitudeDegrees>
            </Position>
            <AltitudeMeters>234.399993896484375</AltitudeMeters>
            <DistanceMeters>4083.349025446</DistanceMeters>
          </Trackpoint>
          <Trackpoint>
            <Time>2019-01-04T10:00:57.000Z</Time>
            <Position>
              <LatitudeDegrees>36.5196666307747364044189453125</LatitudeDegrees>
              <LongitudeDegrees>-5.410557724535465240478515625</LongitudeDegrees>
            </Position>
            <AltitudeMeters>234.399993896484375</AltitudeMeters>
            <DistanceMeters>4083.349025446</DistanceMeters>
          </Trackpoint>
          <Trackpoint>
            <Time>2019-01-04T10:00:58.000Z</Time>
            <Position>
              <LatitudeDegrees>36.5196666307747364044189453125</LatitudeDegrees>
              <LongitudeDegrees>-5.410557724535465240478515625</LongitudeDegrees>
            </Position>
            <AltitudeMeters>234.1999969482421875</AltitudeMeters>
            <DistanceMeters>4083.349025446</DistanceMeters>
          </Trackpoint>
          <Trackpoint>
            <Time>2019-01-04T10:00:59.000Z</Time>
            <Position>
              <LatitudeDegrees>36.5196666307747364044189453125</LatitudeDegrees>
              <LongitudeDegrees>-5.41055805981159210205078125</LongitudeDegrees>
            </Position>
            <AltitudeMeters>234.1999969482421875</AltitudeMeters>
            <DistanceMeters>4083.349025446</DistanceMeters>
          </Trackpoint>
          <Trackpoint>
            <Time>2019-01-04T10:01:00.000Z</Time>
            <Position>
              <LatitudeDegrees>36.5196666307747364044189453125</LatitudeDegrees>
              <LongitudeDegrees>-5.41055805981159210205078125</LongitudeDegrees>
            </Position>
            <AltitudeMeters>234.1999969482421875</AltitudeMeters>
            <DistanceMeters>4083.349025446</DistanceMeters>
          </Trackpoint>
          <Trackpoint>
            <Time>2019-01-04T10:01:01.000Z</Time>
            <Position>
              <LatitudeDegrees>36.5196666307747364044189453125</LatitudeDegrees>
              <LongitudeDegrees>-5.41055814363062381744384765625</LongitudeDegrees>
            </Position>
            <AltitudeMeters>234.1999969482421875</AltitudeMeters>
            <DistanceMeters>4083.349025446</DistanceMeters>
          </Trackpoint>
          <Trackpoint>
            <Time>2019-01-04T10:01:02.000Z</Time>
            <Position>
              <LatitudeDegrees>36.5196666307747364044189453125</LatitudeDegrees>
              <LongitudeDegrees>-5.4105582274496555328369140625</LongitudeDegrees>
            </Position>
            <AltitudeMeters>234.1999969482421875</AltitudeMeters>
            <DistanceMeters>4083.349025446</DistanceMeters>
          </Trackpoint>
          <Trackpoint>
            <Time>2019-01-04T10:01:03.000Z</Time>
            <Position>
              <LatitudeDegrees>36.5196666307747364044189453125</LatitudeDegrees>
              <LongitudeDegrees>-5.41055814363062381744384765625</LongitudeDegrees>
            </Position>
            <AltitudeMeters>234.1999969482421875</AltitudeMeters>
            <DistanceMeters>4083.349025446</DistanceMeters>
          </Trackpoint>
          <Trackpoint>
            <Time>2019-01-04T10:01:04.000Z</Time>
            <Position>
              <LatitudeDegrees>36.519666798412799835205078125</LatitudeDegrees>
              <LongitudeDegrees>-5.41055831126868724822998046875</LongitudeDegrees>
            </Position>
            <AltitudeMeters>234.1999969482421875</AltitudeMeters>
            <DistanceMeters>4083.349025446</DistanceMeters>
          </Trackpoint>
          <Trackpoint>
            <Time>2019-01-04T10:01:05.000Z</Time>
            <Position>
              <LatitudeDegrees>36.5196666307747364044189453125</LatitudeDegrees>
              <LongitudeDegrees>-5.410558395087718963623046875</LongitudeDegrees>
            </Position>
            <AltitudeMeters>234.1999969482421875</AltitudeMeters>
            <DistanceMeters>4083.349025446</DistanceMeters>
          </Trackpoint>
          <Trackpoint>
            <Time>2019-01-04T10:01:06.000Z</Time>
            <Position>
              <LatitudeDegrees>36.5196666307747364044189453125</LatitudeDegrees>
              <LongitudeDegrees>-5.41055831126868724822998046875</LongitudeDegrees>
            </Position>
            <AltitudeMeters>234.1999969482421875</AltitudeMeters>
            <DistanceMeters>4083.349025446</DistanceMeters>
          </Trackpoint>
          <Trackpoint>
            <Time>2019-01-04T10:01:07.000Z</Time>
            <Position>
              <LatitudeDegrees>36.51966654695570468902587890625</LatitudeDegrees>
              <LongitudeDegrees>-5.4105582274496555328369140625</LongitudeDegrees>
            </Position>
            <AltitudeMeters>234.1999969482421875</AltitudeMeters>
            <DistanceMeters>4083.349025446</DistanceMeters>
          </Trackpoint>
          <Trackpoint>
            <Time>2019-01-04T10:01:08.000Z</Time>
            <Position>
              <LatitudeDegrees>36.5196664631366729736328125</LatitudeDegrees>
              <LongitudeDegrees>-5.4105588980019092559814453125</LongitudeDegrees>
            </Position>
            <AltitudeMeters>234</AltitudeMeters>
            <DistanceMeters>4083.349025446</DistanceMeters>
          </Trackpoint>
          <Trackpoint>
            <Time>2019-01-04T10:01:09.000Z</Time>
            <Position>
              <LatitudeDegrees>36.519666127860546112060546875</LatitudeDegrees>
              <LongitudeDegrees>-5.41055931709706783294677734375</LongitudeDegrees>
            </Position>
            <AltitudeMeters>234</AltitudeMeters>
            <DistanceMeters>4083.349025446</DistanceMeters>
          </Trackpoint>
          <Trackpoint>
            <Time>2019-01-04T10:01:10.000Z</Time>
            <Position>
              <LatitudeDegrees>36.5196662954986095428466796875</LatitudeDegrees>
              <LongitudeDegrees>-5.4105614125728607177734375</LongitudeDegrees>
            </Position>
            <AltitudeMeters>234</AltitudeMeters>
            <DistanceMeters>4083.5390788747</DistanceMeters>
          </Trackpoint>
          <Trackpoint>
            <Time>2019-01-04T10:01:11.000Z</Time>
            <Position>
              <LatitudeDegrees>36.519666798412799835205078125</LatitudeDegrees>
              <LongitudeDegrees>-5.410563759505748748779296875</LongitudeDegrees>
            </Position>
            <AltitudeMeters>234</AltitudeMeters>
            <DistanceMeters>4083.7718458369</DistanceMeters>
          </Trackpoint>
          <Trackpoint>
            <Time>2019-01-04T10:01:12.000Z</Time>
            <Position>
              <LatitudeDegrees>36.51966621167957782745361328125</LatitudeDegrees>
              <LongitudeDegrees>-5.41056585498154163360595703125</LongitudeDegrees>
            </Position>
            <AltitudeMeters>234</AltitudeMeters>
            <DistanceMeters>4083.9618992656</DistanceMeters>
          </Trackpoint>
          <Trackpoint>
            <Time>2019-01-04T10:01:13.000Z</Time>
            <Position>
              <LatitudeDegrees>36.5196664631366729736328125</LatitudeDegrees>
              <LongitudeDegrees>-5.4105682857334613800048828125</LongitudeDegrees>
            </Position>
            <AltitudeMeters>234</AltitudeMeters>
            <DistanceMeters>4084.1743854586</DistanceMeters>
          </Trackpoint>
          <Trackpoint>
            <Time>2019-01-04T10:01:14.000Z</Time>
            <Position>
              <LatitudeDegrees>36.519667468965053558349609375</LatitudeDegrees>
              <LongitudeDegrees>-5.4105686210095882415771484375</LongitudeDegrees>
            </Position>
            <AltitudeMeters>234.1999969482421875</AltitudeMeters>
            <DistanceMeters>4084.269412173</DistanceMeters>
          </Trackpoint>
          <Trackpoint>
            <Time>2019-01-04T10:01:15.000Z</Time>
            <Position>
              <LatitudeDegrees>36.51966721750795841217041015625</LatitudeDegrees>
              <LongitudeDegrees>-5.41056887246668338775634765625</LongitudeDegrees>
            </Position>
            <AltitudeMeters>234.1999969482421875</AltitudeMeters>
            <DistanceMeters>4084.269412173</DistanceMeters>
          </Trackpoint>
          <Trackpoint>
            <Time>2019-01-04T10:01:16.000Z</Time>
            <Position>
              <LatitudeDegrees>36.51966704986989498138427734375</LatitudeDegrees>
              <LongitudeDegrees>-5.41056904010474681854248046875</LongitudeDegrees>
            </Position>
            <AltitudeMeters>234.1999969482421875</AltitudeMeters>
            <DistanceMeters>4084.269412173</DistanceMeters>
          </Trackpoint>
          <Trackpoint>
            <Time>2019-01-04T10:01:17.000Z</Time>
            <Position>
              <LatitudeDegrees>36.5196669660508632659912109375</LatitudeDegrees>
              <LongitudeDegrees>-5.410569123923778533935546875</LongitudeDegrees>
            </Position>
            <AltitudeMeters>234.1999969482421875</AltitudeMeters>
            <DistanceMeters>4084.269412173</DistanceMeters>
          </Trackpoint>
          <Trackpoint>
            <Time>2019-01-04T10:01:18.000Z</Time>
            <Position>
              <LatitudeDegrees>36.5196669660508632659912109375</LatitudeDegrees>
              <LongitudeDegrees>-5.4105692915618419647216796875</LongitudeDegrees>
            </Position>
            <AltitudeMeters>234.1999969482421875</AltitudeMeters>
            <DistanceMeters>4084.269412173</DistanceMeters>
          </Trackpoint>
          <Trackpoint>
            <Time>2019-01-04T10:01:19.000Z</Time>
            <Position>
              <LatitudeDegrees>36.519667468965053558349609375</LatitudeDegrees>
              <LongitudeDegrees>-5.410569794476032257080078125</LongitudeDegrees>
            </Position>
            <AltitudeMeters>234.1999969482421875</AltitudeMeters>
            <DistanceMeters>4084.269412173</DistanceMeters>
          </Trackpoint>
          <Trackpoint>
            <Time>2019-01-04T10:01:20.000Z</Time>
            <Position>
              <LatitudeDegrees>36.51966755278408527374267578125</LatitudeDegrees>
              <LongitudeDegrees>-5.4105699621140956878662109375</LongitudeDegrees>
            </Position>
            <AltitudeMeters>234.1999969482421875</AltitudeMeters>
            <DistanceMeters>4084.269412173</DistanceMeters>
          </Trackpoint>
          <Trackpoint>
            <Time>2019-01-04T10:01:21.000Z</Time>
            <Position>
              <LatitudeDegrees>36.51966772042214870452880859375</LatitudeDegrees>
              <LongitudeDegrees>-5.4105699621140956878662109375</LongitudeDegrees>
            </Position>
            <AltitudeMeters>234.1999969482421875</AltitudeMeters>
            <DistanceMeters>4084.269412173</DistanceMeters>
          </Trackpoint>
          <Trackpoint>
            <Time>2019-01-04T10:01:22.000Z</Time>
            <Position>
              <LatitudeDegrees>36.51966772042214870452880859375</LatitudeDegrees>
              <LongitudeDegrees>-5.41057004593312740325927734375</LongitudeDegrees>
            </Position>
            <AltitudeMeters>234.1999969482421875</AltitudeMeters>
            <DistanceMeters>4084.269412173</DistanceMeters>
          </Trackpoint>
          <Trackpoint>
            <Time>2019-01-04T10:01:23.000Z</Time>
            <Position>
              <LatitudeDegrees>36.519667804241180419921875</LatitudeDegrees>
              <LongitudeDegrees>-5.41057004593312740325927734375</LongitudeDegrees>
            </Position>
            <AltitudeMeters>234.1999969482421875</AltitudeMeters>
            <DistanceMeters>4084.269412173</DistanceMeters>
          </Trackpoint>
          <Trackpoint>
            <Time>2019-01-04T10:01:24.000Z</Time>
            <Position>
              <LatitudeDegrees>36.51966772042214870452880859375</LatitudeDegrees>
              <LongitudeDegrees>-5.41057012975215911865234375</LongitudeDegrees>
            </Position>
            <AltitudeMeters>234.1999969482421875</AltitudeMeters>
            <DistanceMeters>4084.269412173</DistanceMeters>
          </Trackpoint>
          <Trackpoint>
            <Time>2019-01-04T10:01:25.000Z</Time>
            <Position>
              <LatitudeDegrees>36.519667804241180419921875</LatitudeDegrees>
              <LongitudeDegrees>-5.4105699621140956878662109375</LongitudeDegrees>
            </Position>
            <AltitudeMeters>234.1999969482421875</AltitudeMeters>
            <DistanceMeters>4084.269412173</DistanceMeters>
          </Trackpoint>
          <Trackpoint>
            <Time>2019-01-04T10:01:26.000Z</Time>
            <Position>
              <LatitudeDegrees>36.519667804241180419921875</LatitudeDegrees>
              <LongitudeDegrees>-5.410569794476032257080078125</LongitudeDegrees>
            </Position>
            <AltitudeMeters>234</AltitudeMeters>
            <DistanceMeters>4084.269412173</DistanceMeters>
          </Trackpoint>
          <Trackpoint>
            <Time>2019-01-04T10:01:27.000Z</Time>
            <Position>
              <LatitudeDegrees>36.519667804241180419921875</LatitudeDegrees>
              <LongitudeDegrees>-5.4105696268379688262939453125</LongitudeDegrees>
            </Position>
            <AltitudeMeters>234</AltitudeMeters>
            <DistanceMeters>4084.269412173</DistanceMeters>
          </Trackpoint>
          <Trackpoint>
            <Time>2019-01-04T10:01:28.000Z</Time>
            <Position>
              <LatitudeDegrees>36.519667804241180419921875</LatitudeDegrees>
              <LongitudeDegrees>-5.4105694591999053955078125</LongitudeDegrees>
            </Position>
            <AltitudeMeters>234</AltitudeMeters>
            <DistanceMeters>4084.269412173</DistanceMeters>
          </Trackpoint>
          <Trackpoint>
            <Time>2019-01-04T10:01:29.000Z</Time>
            <Position>
              <LatitudeDegrees>36.51966772042214870452880859375</LatitudeDegrees>
              <LongitudeDegrees>-5.4105692915618419647216796875</LongitudeDegrees>
            </Position>
            <AltitudeMeters>234</AltitudeMeters>
            <DistanceMeters>4084.269412173</DistanceMeters>
          </Trackpoint>
          <Trackpoint>
            <Time>2019-01-04T10:01:30.000Z</Time>
            <Position>
              <LatitudeDegrees>36.51966772042214870452880859375</LatitudeDegrees>
              <LongitudeDegrees>-5.4105689562857151031494140625</LongitudeDegrees>
            </Position>
            <AltitudeMeters>234</AltitudeMeters>
            <DistanceMeters>4084.269412173</DistanceMeters>
          </Trackpoint>
          <Trackpoint>
            <Time>2019-01-04T10:01:31.000Z</Time>
            <Position>
              <LatitudeDegrees>36.51966772042214870452880859375</LatitudeDegrees>
              <LongitudeDegrees>-5.41056878864765167236328125</LongitudeDegrees>
            </Position>
            <AltitudeMeters>234</AltitudeMeters>
            <DistanceMeters>4084.269412173</DistanceMeters>
          </Trackpoint>
          <Trackpoint>
            <Time>2019-01-04T10:01:32.000Z</Time>
            <Position>
              <LatitudeDegrees>36.5196676366031169891357421875</LatitudeDegrees>
              <LongitudeDegrees>-5.41056878864765167236328125</LongitudeDegrees>
            </Position>
            <AltitudeMeters>234</AltitudeMeters>
            <DistanceMeters>4084.269412173</DistanceMeters>
          </Trackpoint>
          <Trackpoint>
            <Time>2019-01-04T10:01:33.000Z</Time>
            <Position>
              <LatitudeDegrees>36.51966755278408527374267578125</LatitudeDegrees>
              <LongitudeDegrees>-5.410568453371524810791015625</LongitudeDegrees>
            </Position>
            <AltitudeMeters>234.1999969482421875</AltitudeMeters>
            <DistanceMeters>4084.269412173</DistanceMeters>
          </Trackpoint>
          <Trackpoint>
            <Time>2019-01-04T10:01:34.000Z</Time>
            <Position>
              <LatitudeDegrees>36.519667468965053558349609375</LatitudeDegrees>
              <LongitudeDegrees>-5.41056836955249309539794921875</LongitudeDegrees>
            </Position>
            <AltitudeMeters>234.1999969482421875</AltitudeMeters>
            <DistanceMeters>4084.269412173</DistanceMeters>
          </Trackpoint>
          <Trackpoint>
            <Time>2019-01-04T10:01:35.000Z</Time>
            <Position>
              <LatitudeDegrees>36.519667468965053558349609375</LatitudeDegrees>
              <LongitudeDegrees>-5.410568453371524810791015625</LongitudeDegrees>
            </Position>
            <AltitudeMeters>234.1999969482421875</AltitudeMeters>
            <DistanceMeters>4084.269412173</DistanceMeters>
          </Trackpoint>
          <Trackpoint>
            <Time>2019-01-04T10:01:36.000Z</Time>
            <Position>
              <LatitudeDegrees>36.5196679718792438507080078125</LatitudeDegrees>
              <LongitudeDegrees>-5.4105679504573345184326171875</LongitudeDegrees>
            </Position>
            <AltitudeMeters>234.399993896484375</AltitudeMeters>
            <DistanceMeters>4084.269412173</DistanceMeters>
          </Trackpoint>
          <Trackpoint>
            <Time>2019-01-04T10:01:37.000Z</Time>
            <Position>
              <LatitudeDegrees>36.51966772042214870452880859375</LatitudeDegrees>
              <LongitudeDegrees>-5.41056811809539794921875</LongitudeDegrees>
            </Position>
            <AltitudeMeters>234.399993896484375</AltitudeMeters>
            <DistanceMeters>4084.269412173</DistanceMeters>
          </Trackpoint>
          <Trackpoint>
            <Time>2019-01-04T10:01:38.000Z</Time>
            <Position>
              <LatitudeDegrees>36.51966721750795841217041015625</LatitudeDegrees>
              <LongitudeDegrees>-5.41056803427636623382568359375</LongitudeDegrees>
            </Position>
            <AltitudeMeters>234.1999969482421875</AltitudeMeters>
            <DistanceMeters>4084.269412173</DistanceMeters>
          </Trackpoint>
          <Trackpoint>
            <Time>2019-01-04T10:01:39.000Z</Time>
            <Position>
              <LatitudeDegrees>36.51966721750795841217041015625</LatitudeDegrees>
              <LongitudeDegrees>-5.4105676151812076568603515625</LongitudeDegrees>
            </Position>
            <AltitudeMeters>234.1999969482421875</AltitudeMeters>
            <DistanceMeters>4084.269412173</DistanceMeters>
          </Trackpoint>
          <Trackpoint>
            <Time>2019-01-04T10:01:40.000Z</Time>
            <Position>
              <LatitudeDegrees>36.51966704986989498138427734375</LatitudeDegrees>
              <LongitudeDegrees>-5.41056803427636623382568359375</LongitudeDegrees>
            </Position>
            <AltitudeMeters>234.1999969482421875</AltitudeMeters>
            <DistanceMeters>4084.269412173</DistanceMeters>
          </Trackpoint>
          <Trackpoint>
            <Time>2019-01-04T10:01:41.000Z</Time>
            <Position>
              <LatitudeDegrees>36.5196673013269901275634765625</LatitudeDegrees>
              <LongitudeDegrees>-5.41056811809539794921875</LongitudeDegrees>
            </Position>
            <AltitudeMeters>234</AltitudeMeters>
            <DistanceMeters>4084.269412173</DistanceMeters>
          </Trackpoint>
          <Trackpoint>
            <Time>2019-01-04T10:01:42.000Z</Time>
            <Position>
              <LatitudeDegrees>36.5196676366031169891357421875</LatitudeDegrees>
              <LongitudeDegrees>-5.4105682857334613800048828125</LongitudeDegrees>
            </Position>
            <AltitudeMeters>234</AltitudeMeters>
            <DistanceMeters>4084.269412173</DistanceMeters>
          </Trackpoint>
          <Trackpoint>
            <Time>2019-01-04T10:01:43.000Z</Time>
            <Position>
              <LatitudeDegrees>36.519667804241180419921875</LatitudeDegrees>
              <LongitudeDegrees>-5.41056836955249309539794921875</LongitudeDegrees>
            </Position>
            <AltitudeMeters>234</AltitudeMeters>
            <DistanceMeters>4084.269412173</DistanceMeters>
          </Trackpoint>
          <Trackpoint>
            <Time>2019-01-04T10:01:44.000Z</Time>
            <Position>
              <LatitudeDegrees>36.5196679718792438507080078125</LatitudeDegrees>
              <LongitudeDegrees>-5.41056820191442966461181640625</LongitudeDegrees>
            </Position>
            <AltitudeMeters>234</AltitudeMeters>
            <DistanceMeters>4084.269412173</DistanceMeters>
          </Trackpoint>
          <Trackpoint>
            <Time>2019-01-04T10:01:45.000Z</Time>
            <Position>
              <LatitudeDegrees>36.5196679718792438507080078125</LatitudeDegrees>
              <LongitudeDegrees>-5.4105679504573345184326171875</LongitudeDegrees>
            </Position>
            <AltitudeMeters>234</AltitudeMeters>
            <DistanceMeters>4084.269412173</DistanceMeters>
          </Trackpoint>
          <Trackpoint>
            <Time>2019-01-04T10:01:46.000Z</Time>
            <Position>
              <LatitudeDegrees>36.51966805569827556610107421875</LatitudeDegrees>
              <LongitudeDegrees>-5.41056786663830280303955078125</LongitudeDegrees>
            </Position>
            <AltitudeMeters>234</AltitudeMeters>
            <DistanceMeters>4084.269412173</DistanceMeters>
          </Trackpoint>
          <Trackpoint>
            <Time>2019-01-04T10:01:47.000Z</Time>
            <Position>
              <LatitudeDegrees>36.519668139517307281494140625</LatitudeDegrees>
              <LongitudeDegrees>-5.41056769900023937225341796875</LongitudeDegrees>
            </Position>
            <AltitudeMeters>234</AltitudeMeters>
            <DistanceMeters>4084.269412173</DistanceMeters>
          </Trackpoint>
          <Trackpoint>
            <Time>2019-01-04T10:01:48.000Z</Time>
            <Position>
              <LatitudeDegrees>36.51966822333633899688720703125</LatitudeDegrees>
              <LongitudeDegrees>-5.41056769900023937225341796875</LongitudeDegrees>
            </Position>
            <AltitudeMeters>234</AltitudeMeters>
            <DistanceMeters>4084.269412173</DistanceMeters>
          </Trackpoint>
          <Trackpoint>
            <Time>2019-01-04T10:01:49.000Z</Time>
            <Position>
              <LatitudeDegrees>36.51966822333633899688720703125</LatitudeDegrees>
              <LongitudeDegrees>-5.41056753136217594146728515625</LongitudeDegrees>
            </Position>
            <AltitudeMeters>234</AltitudeMeters>
            <DistanceMeters>4084.269412173</DistanceMeters>
          </Trackpoint>
          <Trackpoint>
            <Time>2019-01-04T10:01:50.000Z</Time>
            <Position>
              <LatitudeDegrees>36.5196683071553707122802734375</LatitudeDegrees>
              <LongitudeDegrees>-5.4105676151812076568603515625</LongitudeDegrees>
            </Position>
            <AltitudeMeters>234</AltitudeMeters>
            <DistanceMeters>4084.269412173</DistanceMeters>
          </Trackpoint>
          <Trackpoint>
            <Time>2019-01-04T10:01:51.000Z</Time>
            <Position>
              <LatitudeDegrees>36.5196683071553707122802734375</LatitudeDegrees>
              <LongitudeDegrees>-5.4105676151812076568603515625</LongitudeDegrees>
            </Position>
            <AltitudeMeters>234</AltitudeMeters>
            <DistanceMeters>4084.269412173</DistanceMeters>
          </Trackpoint>
          <Trackpoint>
            <Time>2019-01-04T10:01:52.000Z</Time>
            <Position>
              <LatitudeDegrees>36.5196683071553707122802734375</LatitudeDegrees>
              <LongitudeDegrees>-5.4105676151812076568603515625</LongitudeDegrees>
            </Position>
            <AltitudeMeters>233.8000030517578125</AltitudeMeters>
            <DistanceMeters>4084.269412173</DistanceMeters>
          </Trackpoint>
          <Trackpoint>
            <Time>2019-01-04T10:01:53.000Z</Time>
            <Position>
              <LatitudeDegrees>36.51966839097440242767333984375</LatitudeDegrees>
              <LongitudeDegrees>-5.410567782819271087646484375</LongitudeDegrees>
            </Position>
            <AltitudeMeters>233.8000030517578125</AltitudeMeters>
            <DistanceMeters>4084.269412173</DistanceMeters>
          </Trackpoint>
          <Trackpoint>
            <Time>2019-01-04T10:01:54.000Z</Time>
            <Position>
              <LatitudeDegrees>36.51966847479343414306640625</LatitudeDegrees>
              <LongitudeDegrees>-5.41056786663830280303955078125</LongitudeDegrees>
            </Position>
            <AltitudeMeters>233.8000030517578125</AltitudeMeters>
            <DistanceMeters>4084.269412173</DistanceMeters>
          </Trackpoint>
          <Trackpoint>
            <Time>2019-01-04T10:01:55.000Z</Time>
            <Position>
              <LatitudeDegrees>36.51966847479343414306640625</LatitudeDegrees>
              <LongitudeDegrees>-5.4105679504573345184326171875</LongitudeDegrees>
            </Position>
            <AltitudeMeters>233.8000030517578125</AltitudeMeters>
            <DistanceMeters>4084.269412173</DistanceMeters>
          </Trackpoint>
          <Trackpoint>
            <Time>2019-01-04T10:01:56.000Z</Time>
            <Position>
              <LatitudeDegrees>36.5196686424314975738525390625</LatitudeDegrees>
              <LongitudeDegrees>-5.41056786663830280303955078125</LongitudeDegrees>
            </Position>
            <AltitudeMeters>233.8000030517578125</AltitudeMeters>
            <DistanceMeters>4084.269412173</DistanceMeters>
          </Trackpoint>
          <Trackpoint>
            <Time>2019-01-04T10:01:57.000Z</Time>
            <Position>
              <LatitudeDegrees>36.51966872625052928924560546875</LatitudeDegrees>
              <LongitudeDegrees>-5.41056786663830280303955078125</LongitudeDegrees>
            </Position>
            <AltitudeMeters>233.8000030517578125</AltitudeMeters>
            <DistanceMeters>4084.269412173</DistanceMeters>
          </Trackpoint>
          <Trackpoint>
            <Time>2019-01-04T10:01:58.000Z</Time>
            <Position>
              <LatitudeDegrees>36.51966872625052928924560546875</LatitudeDegrees>
              <LongitudeDegrees>-5.41056786663830280303955078125</LongitudeDegrees>
            </Position>
            <AltitudeMeters>234</AltitudeMeters>
            <DistanceMeters>4084.3644388874</DistanceMeters>
          </Trackpoint>
          <Trackpoint>
            <Time>2019-01-04T10:01:59.000Z</Time>
            <Position>
              <LatitudeDegrees>36.51966889388859272003173828125</LatitudeDegrees>
              <LongitudeDegrees>-5.41056769900023937225341796875</LongitudeDegrees>
            </Position>
            <AltitudeMeters>234</AltitudeMeters>
            <DistanceMeters>4084.3644388874</DistanceMeters>
          </Trackpoint>
          <Trackpoint>
            <Time>2019-01-04T10:02:00.000Z</Time>
            <Position>
              <LatitudeDegrees>36.51966906152665615081787109375</LatitudeDegrees>
              <LongitudeDegrees>-5.4105676151812076568603515625</LongitudeDegrees>
            </Position>
            <AltitudeMeters>234</AltitudeMeters>
            <DistanceMeters>4084.3644388874</DistanceMeters>
          </Trackpoint>
          <Trackpoint>
            <Time>2019-01-04T10:02:01.000Z</Time>
            <Position>
              <LatitudeDegrees>36.5196693129837512969970703125</LatitudeDegrees>
              <LongitudeDegrees>-5.41056744754314422607421875</LongitudeDegrees>
            </Position>
            <AltitudeMeters>234</AltitudeMeters>
            <DistanceMeters>4084.3644388874</DistanceMeters>
          </Trackpoint>
          <Trackpoint>
            <Time>2019-01-04T10:02:02.000Z</Time>
            <Position>
              <LatitudeDegrees>36.5196691453456878662109375</LatitudeDegrees>
              <LongitudeDegrees>-5.41056686080992221832275390625</LongitudeDegrees>
            </Position>
            <AltitudeMeters>234</AltitudeMeters>
            <DistanceMeters>4084.3644388874</DistanceMeters>
          </Trackpoint>
          <Trackpoint>
            <Time>2019-01-04T10:02:03.000Z</Time>
            <Position>
              <LatitudeDegrees>36.5196699835360050201416015625</LatitudeDegrees>
              <LongitudeDegrees>-5.410566441714763641357421875</LongitudeDegrees>
            </Position>
            <AltitudeMeters>234</AltitudeMeters>
            <DistanceMeters>4084.4594656017</DistanceMeters>
          </Trackpoint>
          <Trackpoint>
            <Time>2019-01-04T10:02:04.000Z</Time>
            <Position>
              <LatitudeDegrees>36.51966981589794158935546875</LatitudeDegrees>
              <LongitudeDegrees>-5.41056635789573192596435546875</LongitudeDegrees>
            </Position>
            <AltitudeMeters>234</AltitudeMeters>
            <DistanceMeters>4084.4594656017</DistanceMeters>
          </Trackpoint>
          <Trackpoint>
            <Time>2019-01-04T10:02:05.000Z</Time>
            <Position>
              <LatitudeDegrees>36.51966989971697330474853515625</LatitudeDegrees>
              <LongitudeDegrees>-5.41056652553379535675048828125</LongitudeDegrees>
            </Position>
            <AltitudeMeters>234</AltitudeMeters>
            <DistanceMeters>4084.4594656017</DistanceMeters>
          </Trackpoint>
          <Trackpoint>
            <Time>2019-01-04T10:02:06.000Z</Time>
            <Position>
              <LatitudeDegrees>36.5196699835360050201416015625</LatitudeDegrees>
              <LongitudeDegrees>-5.41056769900023937225341796875</LongitudeDegrees>
            </Position>
            <AltitudeMeters>234</AltitudeMeters>
            <DistanceMeters>4084.5544923161</DistanceMeters>
          </Trackpoint>
          <Trackpoint>
            <Time>2019-01-04T10:02:07.000Z</Time>
            <Position>
              <LatitudeDegrees>36.5196696482598781585693359375</LatitudeDegrees>
              <LongitudeDegrees>-5.41056753136217594146728515625</LongitudeDegrees>
            </Position>
            <AltitudeMeters>234</AltitudeMeters>
            <DistanceMeters>4084.6495190305</DistanceMeters>
          </Trackpoint>
          <Trackpoint>
            <Time>2019-01-04T10:02:08.000Z</Time>
            <Position>
              <LatitudeDegrees>36.51967023499310016632080078125</LatitudeDegrees>
              <LongitudeDegrees>-5.41056686080992221832275390625</LongitudeDegrees>
            </Position>
            <AltitudeMeters>234</AltitudeMeters>
            <DistanceMeters>4084.7445457448</DistanceMeters>
          </Trackpoint>
          <Trackpoint>
            <Time>2019-01-04T10:02:09.000Z</Time>
            <Position>
              <LatitudeDegrees>36.5196706540882587432861328125</LatitudeDegrees>
              <LongitudeDegrees>-5.4105666093528270721435546875</LongitudeDegrees>
            </Position>
            <AltitudeMeters>234</AltitudeMeters>
            <DistanceMeters>4084.7445457448</DistanceMeters>
          </Trackpoint>
          <Trackpoint>
            <Time>2019-01-04T10:02:10.000Z</Time>
            <Position>
              <LatitudeDegrees>36.5196706540882587432861328125</LatitudeDegrees>
              <LongitudeDegrees>-5.41056635789573192596435546875</LongitudeDegrees>
            </Position>
            <AltitudeMeters>234</AltitudeMeters>
            <DistanceMeters>4084.7445457448</DistanceMeters>
          </Trackpoint>
          <Trackpoint>
            <Time>2019-01-04T10:02:11.000Z</Time>
            <Position>
              <LatitudeDegrees>36.51967107318341732025146484375</LatitudeDegrees>
              <LongitudeDegrees>-5.410565435886383056640625</LongitudeDegrees>
            </Position>
            <AltitudeMeters>234</AltitudeMeters>
            <DistanceMeters>4084.8395724592</DistanceMeters>
          </Trackpoint>
          <Trackpoint>
            <Time>2019-01-04T10:02:12.000Z</Time>
            <Position>
              <LatitudeDegrees>36.5196713246405124664306640625</LatitudeDegrees>
              <LongitudeDegrees>-5.41056501679122447967529296875</LongitudeDegrees>
            </Position>
            <AltitudeMeters>234</AltitudeMeters>
            <DistanceMeters>4084.8395724592</DistanceMeters>
          </Trackpoint>
          <Trackpoint>
            <Time>2019-01-04T10:02:13.000Z</Time>
            <Position>
              <LatitudeDegrees>36.5196713246405124664306640625</LatitudeDegrees>
              <LongitudeDegrees>-5.41056501679122447967529296875</LongitudeDegrees>
            </Position>
            <AltitudeMeters>234</AltitudeMeters>
            <DistanceMeters>4084.8395724592</DistanceMeters>
          </Trackpoint>
          <Trackpoint>
            <Time>2019-01-04T10:02:14.000Z</Time>
            <Position>
              <LatitudeDegrees>36.5196706540882587432861328125</LatitudeDegrees>
              <LongitudeDegrees>-5.41056551970541477203369140625</LongitudeDegrees>
            </Position>
            <AltitudeMeters>234</AltitudeMeters>
            <DistanceMeters>4084.8395724592</DistanceMeters>
          </Trackpoint>
          <Trackpoint>
            <Time>2019-01-04T10:02:15.000Z</Time>
            <Position>
              <LatitudeDegrees>36.51967040263116359710693359375</LatitudeDegrees>
              <LongitudeDegrees>-5.41056585498154163360595703125</LongitudeDegrees>
            </Position>
            <AltitudeMeters>234</AltitudeMeters>
            <DistanceMeters>4084.8395724592</DistanceMeters>
          </Trackpoint>
          <Trackpoint>
            <Time>2019-01-04T10:02:16.000Z</Time>
            <Position>
              <LatitudeDegrees>36.51967023499310016632080078125</LatitudeDegrees>
              <LongitudeDegrees>-5.4105662740767002105712890625</LongitudeDegrees>
            </Position>
            <AltitudeMeters>234</AltitudeMeters>
            <DistanceMeters>4084.8395724592</DistanceMeters>
          </Trackpoint>
          <Trackpoint>
            <Time>2019-01-04T10:02:17.000Z</Time>
            <Position>
              <LatitudeDegrees>36.5196699835360050201416015625</LatitudeDegrees>
              <LongitudeDegrees>-5.41056568734347820281982421875</LongitudeDegrees>
            </Position>
            <AltitudeMeters>233.8000030517578125</AltitudeMeters>
            <DistanceMeters>4084.8395724592</DistanceMeters>
          </Trackpoint>
          <Trackpoint>
            <Time>2019-01-04T10:02:18.000Z</Time>
            <Position>
              <LatitudeDegrees>36.5196691453456878662109375</LatitudeDegrees>
              <LongitudeDegrees>-5.41056585498154163360595703125</LongitudeDegrees>
            </Position>
            <AltitudeMeters>233.8000030517578125</AltitudeMeters>
            <DistanceMeters>4084.9345991736</DistanceMeters>
          </Trackpoint>
          <Trackpoint>
            <Time>2019-01-04T10:02:19.000Z</Time>
            <Position>
              <LatitudeDegrees>36.51966654695570468902587890625</LatitudeDegrees>
              <LongitudeDegrees>-5.410567112267017364501953125</LongitudeDegrees>
            </Position>
            <AltitudeMeters>233.8000030517578125</AltitudeMeters>
            <DistanceMeters>4085.2196793167</DistanceMeters>
          </Trackpoint>
          <Trackpoint>
            <Time>2019-01-04T10:02:20.000Z</Time>
            <Position>
              <LatitudeDegrees>36.5196616016328334808349609375</LatitudeDegrees>
              <LongitudeDegrees>-5.4105656035244464874267578125</LongitudeDegrees>
            </Position>
            <AltitudeMeters>233.8000030517578125</AltitudeMeters>
            <DistanceMeters>4085.7898396029</DistanceMeters>
          </Trackpoint>
          <Trackpoint>
            <Time>2019-01-04T10:02:21.000Z</Time>
            <Position>
              <LatitudeDegrees>36.5196530520915985107421875</LatitudeDegrees>
              <LongitudeDegrees>-5.41055965237319469451904296875</LongitudeDegrees>
            </Position>
            <AltitudeMeters>233.8000030517578125</AltitudeMeters>
            <DistanceMeters>4086.8816134305</DistanceMeters>
          </Trackpoint>
          <Trackpoint>
            <Time>2019-01-04T10:02:22.000Z</Time>
            <Position>
              <LatitudeDegrees>36.51964508928358554840087890625</LatitudeDegrees>
              <LongitudeDegrees>-5.41055311448872089385986328125</LongitudeDegrees>
            </Position>
            <AltitudeMeters>233.8000030517578125</AltitudeMeters>
            <DistanceMeters>4087.9397861381</DistanceMeters>
          </Trackpoint>
          <Trackpoint>
            <Time>2019-01-04T10:02:23.000Z</Time>
            <Position>
              <LatitudeDegrees>36.51963586919009685516357421875</LatitudeDegrees>
              <LongitudeDegrees>-5.4105454869568347930908203125</LongitudeDegrees>
            </Position>
            <AltitudeMeters>233.8000030517578125</AltitudeMeters>
            <DistanceMeters>4089.1714731286</DistanceMeters>
          </Trackpoint>
          <Trackpoint>
            <Time>2019-01-04T10:02:24.000Z</Time>
            <Position>
              <LatitudeDegrees>36.5196263976395130157470703125</LatitudeDegrees>
              <LongitudeDegrees>-5.4105384461581707000732421875</LongitudeDegrees>
            </Position>
            <AltitudeMeters>234</AltitudeMeters>
            <DistanceMeters>4090.3994889127</DistanceMeters>
          </Trackpoint>
          <Trackpoint>
            <Time>2019-01-04T10:02:25.000Z</Time>
            <Position>
              <LatitudeDegrees>36.5196173451840877532958984375</LatitudeDegrees>
              <LongitudeDegrees>-5.4105307348072528839111328125</LongitudeDegrees>
            </Position>
            <AltitudeMeters>234</AltitudeMeters>
            <DistanceMeters>4091.6238224824</DistanceMeters>
          </Trackpoint>
          <Trackpoint>
            <Time>2019-01-04T10:02:26.000Z</Time>
            <Position>
              <LatitudeDegrees>36.51961105875670909881591796875</LatitudeDegrees>
              <LongitudeDegrees>-5.41052679531276226043701171875</LongitudeDegrees>
            </Position>
            <AltitudeMeters>234</AltitudeMeters>
            <DistanceMeters>4092.4074328436</DistanceMeters>
          </Trackpoint>
          <Trackpoint>
            <Time>2019-01-04T10:02:27.000Z</Time>
            <Position>
              <LatitudeDegrees>36.519607789814472198486328125</LatitudeDegrees>
              <LongitudeDegrees>-5.410525538027286529541015625</LongitudeDegrees>
            </Position>
            <AltitudeMeters>234</AltitudeMeters>
            <DistanceMeters>4092.787539701</DistanceMeters>
          </Trackpoint>
          <Trackpoint>
            <Time>2019-01-04T10:02:28.000Z</Time>
            <Position>
              <LatitudeDegrees>36.51960619725286960601806640625</LatitudeDegrees>
              <LongitudeDegrees>-5.41052428074181079864501953125</LongitudeDegrees>
            </Position>
            <AltitudeMeters>234</AltitudeMeters>
            <DistanceMeters>4092.9775931298</DistanceMeters>
          </Trackpoint>
          <Trackpoint>
            <Time>2019-01-04T10:02:29.000Z</Time>
            <Position>
              <LatitudeDegrees>36.5196039341390132904052734375</LatitudeDegrees>
              <LongitudeDegrees>-5.41052327491343021392822265625</LongitudeDegrees>
            </Position>
            <AltitudeMeters>234</AltitudeMeters>
            <DistanceMeters>4093.2290101839</DistanceMeters>
          </Trackpoint>
          <Trackpoint>
            <Time>2019-01-04T10:02:30.000Z</Time>
            <Position>
              <LatitudeDegrees>36.51960150338709354400634765625</LatitudeDegrees>
              <LongitudeDegrees>-5.4105223529040813446044921875</LongitudeDegrees>
            </Position>
            <AltitudeMeters>234</AltitudeMeters>
            <DistanceMeters>4093.514090327</DistanceMeters>
          </Trackpoint>
          <Trackpoint>
            <Time>2019-01-04T10:02:31.000Z</Time>
            <Position>
              <LatitudeDegrees>36.5196005813777446746826171875</LatitudeDegrees>
              <LongitudeDegrees>-5.41052126325666904449462890625</LongitudeDegrees>
            </Position>
            <AltitudeMeters>234</AltitudeMeters>
            <DistanceMeters>4093.6484783953</DistanceMeters>
          </Trackpoint>
          <Trackpoint>
            <Time>2019-01-04T10:02:32.000Z</Time>
            <Position>
              <LatitudeDegrees>36.51959999464452266693115234375</LatitudeDegrees>
              <LongitudeDegrees>-5.4105190001428127288818359375</LongitudeDegrees>
            </Position>
            <AltitudeMeters>234</AltitudeMeters>
            <DistanceMeters>4093.8812453574</DistanceMeters>
          </Trackpoint>
          <Trackpoint>
            <Time>2019-01-04T10:02:33.000Z</Time>
            <Position>
              <LatitudeDegrees>36.5195968933403491973876953125</LatitudeDegrees>
              <LongitudeDegrees>-5.41051539592444896697998046875</LongitudeDegrees>
            </Position>
            <AltitudeMeters>234</AltitudeMeters>
            <DistanceMeters>4094.3657884283</DistanceMeters>
          </Trackpoint>
          <Trackpoint>
            <Time>2019-01-04T10:02:34.000Z</Time>
            <Position>
              <LatitudeDegrees>36.5195911936461925506591796875</LatitudeDegrees>
              <LongitudeDegrees>-5.41051137261092662811279296875</LongitudeDegrees>
            </Position>
            <AltitudeMeters>234</AltitudeMeters>
            <DistanceMeters>4095.1018621927</DistanceMeters>
          </Trackpoint>
          <Trackpoint>
            <Time>2019-01-04T10:02:35.000Z</Time>
            <Position>
              <LatitudeDegrees>36.5195871703326702117919921875</LatitudeDegrees>
              <LongitudeDegrees>-5.41050785221159458160400390625</LongitudeDegrees>
            </Position>
            <AltitudeMeters>234</AltitudeMeters>
            <DistanceMeters>4095.6559583929</DistanceMeters>
          </Trackpoint>
          <Trackpoint>
            <Time>2019-01-04T10:02:36.000Z</Time>
            <Position>
              <LatitudeDegrees>36.5195851586759090423583984375</LatitudeDegrees>
              <LongitudeDegrees>-5.4105077683925628662109375</LongitudeDegrees>
            </Position>
            <AltitudeMeters>233.8000030517578125</AltitudeMeters>
            <DistanceMeters>4095.8887253551</DistanceMeters>
          </Trackpoint>
          <Trackpoint>
            <Time>2019-01-04T10:02:37.000Z</Time>
            <Position>
              <LatitudeDegrees>36.51958406902849674224853515625</LatitudeDegrees>
              <LongitudeDegrees>-5.4105082713067531585693359375</LongitudeDegrees>
            </Position>
            <AltitudeMeters>233.8000030517578125</AltitudeMeters>
            <DistanceMeters>4095.9837520694</DistanceMeters>
          </Trackpoint>
          <Trackpoint>
            <Time>2019-01-04T10:02:38.000Z</Time>
            <Position>
              <LatitudeDegrees>36.5195797942578792572021484375</LatitudeDegrees>
              <LongitudeDegrees>-5.4105089418590068817138671875</LongitudeDegrees>
            </Position>
            <AltitudeMeters>233.8000030517578125</AltitudeMeters>
            <DistanceMeters>4096.4682951403</DistanceMeters>
          </Trackpoint>
          <Trackpoint>
            <Time>2019-01-04T10:02:39.000Z</Time>
            <Position>
              <LatitudeDegrees>36.5195737592875957489013671875</LatitudeDegrees>
              <LongitudeDegrees>-5.410509444773197174072265625</LongitudeDegrees>
            </Position>
            <AltitudeMeters>233.8000030517578125</AltitudeMeters>
            <DistanceMeters>4097.1402354816</DistanceMeters>
          </Trackpoint>
          <Trackpoint>
            <Time>2019-01-04T10:02:40.000Z</Time>
            <Position>
              <LatitudeDegrees>36.51956512592732906341552734375</LatitudeDegrees>
              <LongitudeDegrees>-5.4105091094970703125</LongitudeDegrees>
            </Position>
            <AltitudeMeters>233.600006103515625</AltitudeMeters>
            <DistanceMeters>4098.0999582526</DistanceMeters>
          </Trackpoint>
          <Trackpoint>
            <Time>2019-01-04T10:02:41.000Z</Time>
            <Position>
              <LatitudeDegrees>36.51955640874803066253662109375</LatitudeDegrees>
              <LongitudeDegrees>-5.410510115325450897216796875</LongitudeDegrees>
            </Position>
            <AltitudeMeters>233.600006103515625</AltitudeMeters>
            <DistanceMeters>4099.0783181573</DistanceMeters>
          </Trackpoint>
          <Trackpoint>
            <Time>2019-01-04T10:02:42.000Z</Time>
            <Position>
              <LatitudeDegrees>36.5195476077497005462646484375</LatitudeDegrees>
              <LongitudeDegrees>-5.41050617583096027374267578125</LongitudeDegrees>
            </Position>
            <AltitudeMeters>233.600006103515625</AltitudeMeters>
            <DistanceMeters>4100.1192836578</DistanceMeters>
          </Trackpoint>
          <Trackpoint>
            <Time>2019-01-04T10:02:43.000Z</Time>
            <Position>
              <LatitudeDegrees>36.51953729800879955291748046875</LatitudeDegrees>
              <LongitudeDegrees>-5.41049544699490070343017578125</LongitudeDegrees>
            </Position>
            <AltitudeMeters>233.600006103515625</AltitudeMeters>
            <DistanceMeters>4101.6187799181</DistanceMeters>
          </Trackpoint>
          <Trackpoint>
            <Time>2019-01-04T10:02:44.000Z</Time>
            <Position>
              <LatitudeDegrees>36.51952631771564483642578125</LatitudeDegrees>
              <LongitudeDegrees>-5.410483963787555694580078125</LongitudeDegrees>
            </Position>
            <AltitudeMeters>233.600006103515625</AltitudeMeters>
            <DistanceMeters>4103.2201985735</DistanceMeters>
          </Trackpoint>
          <Trackpoint>
            <Time>2019-01-04T10:02:45.000Z</Time>
            <Position>
              <LatitudeDegrees>36.519515253603458404541015625</LatitudeDegrees>
              <LongitudeDegrees>-5.41047365404665470123291015625</LongitudeDegrees>
            </Position>
            <AltitudeMeters>233.399993896484375</AltitudeMeters>
            <DistanceMeters>4104.7583403187</DistanceMeters>
          </Trackpoint>
          <Trackpoint>
            <Time>2019-01-04T10:02:46.000Z</Time>
            <Position>
              <LatitudeDegrees>36.5195040218532085418701171875</LatitudeDegrees>
              <LongitudeDegrees>-5.4104640148580074310302734375</LongitudeDegrees>
            </Position>
            <AltitudeMeters>233.1999969482421875</AltitudeMeters>
            <DistanceMeters>4106.2757952582</DistanceMeters>
          </Trackpoint>
          <Trackpoint>
            <Time>2019-01-04T10:02:47.000Z</Time>
            <Position>
              <LatitudeDegrees>36.51949346065521240234375</LatitudeDegrees>
              <LongitudeDegrees>-5.41045722551643848419189453125</LongitudeDegrees>
            </Position>
            <AltitudeMeters>233</AltitudeMeters>
            <DistanceMeters>4107.5993642326</DistanceMeters>
          </Trackpoint>
          <Trackpoint>
            <Time>2019-01-04T10:02:48.000Z</Time>
            <Position>
              <LatitudeDegrees>36.519485414028167724609375</LatitudeDegrees>
              <LongitudeDegrees>-5.41045286692678928375244140625</LongitudeDegrees>
            </Position>
            <AltitudeMeters>233</AltitudeMeters>
            <DistanceMeters>4108.5730982962</DistanceMeters>
          </Trackpoint>
          <Trackpoint>
            <Time>2019-01-04T10:02:49.000Z</Time>
            <Position>
              <LatitudeDegrees>36.51947661302983760833740234375</LatitudeDegrees>
              <LongitudeDegrees>-5.41045169346034526824951171875</LongitudeDegrees>
            </Position>
            <AltitudeMeters>233</AltitudeMeters>
            <DistanceMeters>4109.5514582009</DistanceMeters>
          </Trackpoint>
          <Trackpoint>
            <Time>2019-01-04T10:02:50.000Z</Time>
            <Position>
              <LatitudeDegrees>36.5194691531360149383544921875</LatitudeDegrees>
              <LongitudeDegrees>-5.41045068763196468353271484375</LongitudeDegrees>
            </Position>
            <AltitudeMeters>233</AltitudeMeters>
            <DistanceMeters>4110.3907114181</DistanceMeters>
          </Trackpoint>
          <Trackpoint>
            <Time>2019-01-04T10:02:51.000Z</Time>
            <Position>
              <LatitudeDegrees>36.51946328580379486083984375</LatitudeDegrees>
              <LongitudeDegrees>-5.41044917888939380645751953125</LongitudeDegrees>
            </Position>
            <AltitudeMeters>233</AltitudeMeters>
            <DistanceMeters>4111.0626517594</DistanceMeters>
          </Trackpoint>
          <Trackpoint>
            <Time>2019-01-04T10:02:52.000Z</Time>
            <Position>
              <LatitudeDegrees>36.5194550715386867523193359375</LatitudeDegrees>
              <LongitudeDegrees>-5.41044565849006175994873046875</LongitudeDegrees>
            </Position>
            <AltitudeMeters>233</AltitudeMeters>
            <DistanceMeters>4112.0317379011</DistanceMeters>
          </Trackpoint>
          <Trackpoint>
            <Time>2019-01-04T10:02:53.000Z</Time>
            <Position>
              <LatitudeDegrees>36.519445516169071197509765625</LatitudeDegrees>
              <LongitudeDegrees>-5.4104388691484928131103515625</LongitudeDegrees>
            </Position>
            <AltitudeMeters>233</AltitudeMeters>
            <DistanceMeters>4113.2597536853</DistanceMeters>
          </Trackpoint>
          <Trackpoint>
            <Time>2019-01-04T10:02:54.000Z</Time>
            <Position>
              <LatitudeDegrees>36.5194342844188213348388671875</LatitudeDegrees>
              <LongitudeDegrees>-5.41043333709239959716796875</LongitudeDegrees>
            </Position>
            <AltitudeMeters>233</AltitudeMeters>
            <DistanceMeters>4114.6036343678</DistanceMeters>
          </Trackpoint>
          <Trackpoint>
            <Time>2019-01-04T10:02:55.000Z</Time>
            <Position>
              <LatitudeDegrees>36.51942363940179347991943359375</LatitudeDegrees>
              <LongitudeDegrees>-5.41042453609406948089599609375</LongitudeDegrees>
            </Position>
            <AltitudeMeters>233</AltitudeMeters>
            <DistanceMeters>4116.0258639988</DistanceMeters>
          </Trackpoint>
          <Trackpoint>
            <Time>2019-01-04T10:02:56.000Z</Time>
            <Position>
              <LatitudeDegrees>36.519412994384765625</LatitudeDegrees>
              <LongitudeDegrees>-5.41041648946702480316162109375</LongitudeDegrees>
            </Position>
            <AltitudeMeters>233</AltitudeMeters>
            <DistanceMeters>4117.4094738449</DistanceMeters>
          </Trackpoint>
          <Trackpoint>
            <Time>2019-01-04T10:02:57.000Z</Time>
            <Position>
              <LatitudeDegrees>36.5194000862538814544677734375</LatitudeDegrees>
              <LongitudeDegrees>-5.41041028685867786407470703125</LongitudeDegrees>
            </Position>
            <AltitudeMeters>233</AltitudeMeters>
            <DistanceMeters>4118.9476155901</DistanceMeters>
          </Trackpoint>
          <Trackpoint>
            <Time>2019-01-04T10:02:58.000Z</Time>
            <Position>
              <LatitudeDegrees>36.5193883515894412994384765625</LatitudeDegrees>
              <LongitudeDegrees>-5.41040291078388690948486328125</LongitudeDegrees>
            </Position>
            <AltitudeMeters>233</AltitudeMeters>
            <DistanceMeters>4120.4074436761</DistanceMeters>
          </Trackpoint>
          <Trackpoint>
            <Time>2019-01-04T10:02:59.000Z</Time>
            <Position>
              <LatitudeDegrees>36.5193756110966205596923828125</LatitudeDegrees>
              <LongitudeDegrees>-5.41039335541427135467529296875</LongitudeDegrees>
            </Position>
            <AltitudeMeters>232.8000030517578125</AltitudeMeters>
            <DistanceMeters>4122.061563733</DistanceMeters>
          </Trackpoint>
          <Trackpoint>
            <Time>2019-01-04T10:03:00.000Z</Time>
            <Position>
              <LatitudeDegrees>36.5193632058799266815185546875</LatitudeDegrees>
              <LongitudeDegrees>-5.41038547642529010772705078125</LongitudeDegrees>
            </Position>
            <AltitudeMeters>232.8000030517578125</AltitudeMeters>
            <DistanceMeters>4123.6114025421</DistanceMeters>
          </Trackpoint>
          <Trackpoint>
            <Time>2019-01-04T10:03:01.000Z</Time>
            <Position>
              <LatitudeDegrees>36.51935331523418426513671875</LatitudeDegrees>
              <LongitudeDegrees>-5.41038036346435546875</LongitudeDegrees>
            </Position>
            <AltitudeMeters>232.8000030517578125</AltitudeMeters>
            <DistanceMeters>4124.80586982</DistanceMeters>
          </Trackpoint>
          <Trackpoint>
            <Time>2019-01-04T10:03:02.000Z</Time>
            <Position>
              <LatitudeDegrees>36.5193394012749195098876953125</LatitudeDegrees>
              <LongitudeDegrees>-5.4103751666843891143798828125</LongitudeDegrees>
            </Position>
            <AltitudeMeters>232.600006103515625</AltitudeMeters>
            <DistanceMeters>4126.4241164541</DistanceMeters>
          </Trackpoint>
          <Trackpoint>
            <Time>2019-01-04T10:03:03.000Z</Time>
            <Position>
              <LatitudeDegrees>36.519326828420162200927734375</LatitudeDegrees>
              <LongitudeDegrees>-5.4103651084005832672119140625</LongitudeDegrees>
            </Position>
            <AltitudeMeters>232.600006103515625</AltitudeMeters>
            <DistanceMeters>4128.0891189972</DistanceMeters>
          </Trackpoint>
          <Trackpoint>
            <Time>2019-01-04T10:03:04.000Z</Time>
            <Position>
              <LatitudeDegrees>36.5193139202892780303955078125</LatitudeDegrees>
              <LongitudeDegrees>-5.41035915724933147430419921875</LongitudeDegrees>
            </Position>
            <AltitudeMeters>232.600006103515625</AltitudeMeters>
            <DistanceMeters>4129.6213787256</DistanceMeters>
          </Trackpoint>
          <Trackpoint>
            <Time>2019-01-04T10:03:05.000Z</Time>
            <Position>
              <LatitudeDegrees>36.51930143125355243682861328125</LatitudeDegrees>
              <LongitudeDegrees>-5.410355217754840850830078125</LongitudeDegrees>
            </Position>
            <AltitudeMeters>232.8000030517578125</AltitudeMeters>
            <DistanceMeters>4131.0562506464</DistanceMeters>
          </Trackpoint>
          <Trackpoint>
            <Time>2019-01-04T10:03:06.000Z</Time>
            <Position>
              <LatitudeDegrees>36.51928885839879512786865234375</LatitudeDegrees>
              <LongitudeDegrees>-5.41035161353647708892822265625</LongitudeDegrees>
            </Position>
            <AltitudeMeters>232.8000030517578125</AltitudeMeters>
            <DistanceMeters>4132.4942657735</DistanceMeters>
          </Trackpoint>
          <Trackpoint>
            <Time>2019-01-04T10:03:07.000Z</Time>
            <Position>
              <LatitudeDegrees>36.5192800574004650115966796875</LatitudeDegrees>
              <LongitudeDegrees>-5.41034909896552562713623046875</LongitudeDegrees>
            </Position>
            <AltitudeMeters>232.8000030517578125</AltitudeMeters>
            <DistanceMeters>4133.49993399</DistanceMeters>
          </Trackpoint>
          <Trackpoint>
            <Time>2019-01-04T10:03:08.000Z</Time>
            <Position>
              <LatitudeDegrees>36.51926941238343715667724609375</LatitudeDegrees>
              <LongitudeDegrees>-5.410348512232303619384765625</LongitudeDegrees>
            </Position>
            <AltitudeMeters>233</AltitudeMeters>
            <DistanceMeters>4134.679184503</DistanceMeters>
          </Trackpoint>
          <Trackpoint>
            <Time>2019-01-04T10:03:09.000Z</Time>
            <Position>
              <LatitudeDegrees>36.51925801299512386322021484375</LatitudeDegrees>
              <LongitudeDegrees>-5.41034474037587642669677734375</LongitudeDegrees>
            </Position>
            <AltitudeMeters>233</AltitudeMeters>
            <DistanceMeters>4135.9924798243</DistanceMeters>
          </Trackpoint>
          <Trackpoint>
            <Time>2019-01-04T10:03:10.000Z</Time>
            <Position>
              <LatitudeDegrees>36.5192451886832714080810546875</LatitudeDegrees>
              <LongitudeDegrees>-5.41034088470041751861572265625</LongitudeDegrees>
            </Position>
            <AltitudeMeters>233.1999969482421875</AltitudeMeters>
            <DistanceMeters>4137.4615571776</DistanceMeters>
          </Trackpoint>
          <Trackpoint>
            <Time>2019-01-04T10:03:11.000Z</Time>
            <Position>
              <LatitudeDegrees>36.51923286728560924530029296875</LatitudeDegrees>
              <LongitudeDegrees>-5.41033384390175342559814453125</LongitudeDegrees>
            </Position>
            <AltitudeMeters>233.399993896484375</AltitudeMeters>
            <DistanceMeters>4138.9700595024</DistanceMeters>
          </Trackpoint>
          <Trackpoint>
            <Time>2019-01-04T10:03:12.000Z</Time>
            <Position>
              <LatitudeDegrees>36.51922079734504222869873046875</LatitudeDegrees>
              <LongitudeDegrees>-5.41032646782696247100830078125</LongitudeDegrees>
            </Position>
            <AltitudeMeters>233.399993896484375</AltitudeMeters>
            <DistanceMeters>4140.4665416968</DistanceMeters>
          </Trackpoint>
          <Trackpoint>
            <Time>2019-01-04T10:03:13.000Z</Time>
            <Position>
              <LatitudeDegrees>36.51921174488961696624755859375</LatitudeDegrees>
              <LongitudeDegrees>-5.41032127104699611663818359375</LongitudeDegrees>
            </Position>
            <AltitudeMeters>233.600006103515625</AltitudeMeters>
            <DistanceMeters>4141.5747340972</DistanceMeters>
          </Trackpoint>
          <Trackpoint>
            <Time>2019-01-04T10:03:14.000Z</Time>
            <Position>
              <LatitudeDegrees>36.51920420117676258087158203125</LatitudeDegrees>
              <LongitudeDegrees>-5.41031934320926666259765625</LongitudeDegrees>
            </Position>
            <AltitudeMeters>233.600006103515625</AltitudeMeters>
            <DistanceMeters>4142.4246788692</DistanceMeters>
          </Trackpoint>
          <Trackpoint>
            <Time>2019-01-04T10:03:15.000Z</Time>
            <Position>
              <LatitudeDegrees>36.51919238269329071044921875</LatitudeDegrees>
              <LongitudeDegrees>-5.410315655171871185302734375</LongitudeDegrees>
            </Position>
            <AltitudeMeters>233.600006103515625</AltitudeMeters>
            <DistanceMeters>4143.7786011411</DistanceMeters>
          </Trackpoint>
          <Trackpoint>
            <Time>2019-01-04T10:03:16.000Z</Time>
            <Position>
              <LatitudeDegrees>36.5191794745624065399169921875</LatitudeDegrees>
              <LongitudeDegrees>-5.4103040881454944610595703125</LongitudeDegrees>
            </Position>
            <AltitudeMeters>233.600006103515625</AltitudeMeters>
            <DistanceMeters>4145.5513015113</DistanceMeters>
          </Trackpoint>
          <Trackpoint>
            <Time>2019-01-04T10:03:17.000Z</Time>
            <Position>
              <LatitudeDegrees>36.51916983537375926971435546875</LatitudeDegrees>
              <LongitudeDegrees>-5.41029662825167179107666015625</LongitudeDegrees>
            </Position>
            <AltitudeMeters>233.399993896484375</AltitudeMeters>
            <DistanceMeters>4146.8119733378</DistanceMeters>
          </Trackpoint>
          <Trackpoint>
            <Time>2019-01-04T10:03:18.000Z</Time>
            <Position>
              <LatitudeDegrees>36.51916363276541233062744140625</LatitudeDegrees>
              <LongitudeDegrees>-5.41029260493814945220947265625</LongitudeDegrees>
            </Position>
            <AltitudeMeters>233.1999969482421875</AltitudeMeters>
            <DistanceMeters>4147.5898005176</DistanceMeters>
          </Trackpoint>
          <Trackpoint>
            <Time>2019-01-04T10:03:19.000Z</Time>
            <Position>
              <LatitudeDegrees>36.51915743015706539154052734375</LatitudeDegrees>
              <LongitudeDegrees>-5.41028807871043682098388671875</LongitudeDegrees>
            </Position>
            <AltitudeMeters>233.399993896484375</AltitudeMeters>
            <DistanceMeters>4148.3905098454</DistanceMeters>
          </Trackpoint>
          <Trackpoint>
            <Time>2019-01-04T10:03:20.000Z</Time>
            <Position>
              <LatitudeDegrees>36.51915005408227443695068359375</LatitudeDegrees>
              <LongitudeDegrees>-5.41027986444532871246337890625</LongitudeDegrees>
            </Position>
            <AltitudeMeters>233.399993896484375</AltitudeMeters>
            <DistanceMeters>4149.4905235923</DistanceMeters>
          </Trackpoint>
          <Trackpoint>
            <Time>2019-01-04T10:03:21.000Z</Time>
            <Position>
              <LatitudeDegrees>36.51914410293102264404296875</LatitudeDegrees>
              <LongitudeDegrees>-5.41027114726603031158447265625</LongitudeDegrees>
            </Position>
            <AltitudeMeters>233.399993896484375</AltitudeMeters>
            <DistanceMeters>4150.5139926282</DistanceMeters>
          </Trackpoint>
          <Trackpoint>
            <Time>2019-01-04T10:03:22.000Z</Time>
            <Position>
              <LatitudeDegrees>36.5191375650465488433837890625</LatitudeDegrees>
              <LongitudeDegrees>-5.4102651961147785186767578125</LongitudeDegrees>
            </Position>
            <AltitudeMeters>233.600006103515625</AltitudeMeters>
            <DistanceMeters>4151.4254568529</DistanceMeters>
          </Trackpoint>
          <Trackpoint>
            <Time>2019-01-04T10:03:23.000Z</Time>
            <Position>
              <LatitudeDegrees>36.519128344953060150146484375</LatitudeDegrees>
              <LongitudeDegrees>-5.410255305469036102294921875</LongitudeDegrees>
            </Position>
            <AltitudeMeters>233.8000030517578125</AltitudeMeters>
            <DistanceMeters>4152.7827098118</DistanceMeters>
          </Trackpoint>
          <Trackpoint>
            <Time>2019-01-04T10:03:24.000Z</Time>
            <Position>
              <LatitudeDegrees>36.51912222616374492645263671875</LatitudeDegrees>
              <LongitudeDegrees>-5.41024683974683284759521484375</LongitudeDegrees>
            </Position>
            <AltitudeMeters>234</AltitudeMeters>
            <DistanceMeters>4153.7973174772</DistanceMeters>
          </Trackpoint>
          <Trackpoint>
            <Time>2019-01-04T10:03:25.000Z</Time>
            <Position>
              <LatitudeDegrees>36.519116945564746856689453125</LatitudeDegrees>
              <LongitudeDegrees>-5.41024398989975452423095703125</LongitudeDegrees>
            </Position>
            <AltitudeMeters>234.1999969482421875</AltitudeMeters>
            <DistanceMeters>4154.4276533905</DistanceMeters>
          </Trackpoint>
          <Trackpoint>
            <Time>2019-01-04T10:03:26.000Z</Time>
            <Position>
              <LatitudeDegrees>36.519111581146717071533203125</LatitudeDegrees>
              <LongitudeDegrees>-5.410243906080722808837890625</LongitudeDegrees>
            </Position>
            <AltitudeMeters>234.1999969482421875</AltitudeMeters>
            <DistanceMeters>4155.0286551024</DistanceMeters>
          </Trackpoint>
          <Trackpoint>
            <Time>2019-01-04T10:03:27.000Z</Time>
            <Position>
              <LatitudeDegrees>36.5191063843667507171630859375</LatitudeDegrees>
              <LongitudeDegrees>-5.41023996658623218536376953125</LongitudeDegrees>
            </Position>
            <AltitudeMeters>234.399993896484375</AltitudeMeters>
            <DistanceMeters>4155.7072815819</DistanceMeters>
          </Trackpoint>
          <Trackpoint>
            <Time>2019-01-04T10:03:28.000Z</Time>
            <Position>
              <LatitudeDegrees>36.519096828997135162353515625</LatitudeDegrees>
              <LongitudeDegrees>-5.41023963131010532379150390625</LongitudeDegrees>
            </Position>
            <AltitudeMeters>234.399993896484375</AltitudeMeters>
            <DistanceMeters>4156.7697125469</DistanceMeters>
          </Trackpoint>
          <Trackpoint>
            <Time>2019-01-04T10:03:29.000Z</Time>
            <Position>
              <LatitudeDegrees>36.5190876089036464691162109375</LatitudeDegrees>
              <LongitudeDegrees>-5.41023728437721729278564453125</LongitudeDegrees>
            </Position>
            <AltitudeMeters>234.399993896484375</AltitudeMeters>
            <DistanceMeters>4157.815006405</DistanceMeters>
          </Trackpoint>
          <Trackpoint>
            <Time>2019-01-04T10:03:30.000Z</Time>
            <Position>
              <LatitudeDegrees>36.51907796971499919891357421875</LatitudeDegrees>
              <LongitudeDegrees>-5.41023460216820240020751953125</LongitudeDegrees>
            </Position>
            <AltitudeMeters>234.600006103515625</AltitudeMeters>
            <DistanceMeters>4158.9150201519</DistanceMeters>
          </Trackpoint>
          <Trackpoint>
            <Time>2019-01-04T10:03:31.000Z</Time>
            <Position>
              <LatitudeDegrees>36.51906497776508331298828125</LatitudeDegrees>
              <LongitudeDegrees>-5.41023141704499721527099609375</LongitudeDegrees>
            </Position>
            <AltitudeMeters>234.600006103515625</AltitudeMeters>
            <DistanceMeters>4160.3871676807</DistanceMeters>
          </Trackpoint>
          <Trackpoint>
            <Time>2019-01-04T10:03:32.000Z</Time>
            <Position>
              <LatitudeDegrees>36.51905517093837261199951171875</LatitudeDegrees>
              <LongitudeDegrees>-5.4102236218750476837158203125</LongitudeDegrees>
            </Position>
            <AltitudeMeters>234.600006103515625</AltitudeMeters>
            <DistanceMeters>4161.6831592774</DistanceMeters>
          </Trackpoint>
          <Trackpoint>
            <Time>2019-01-04T10:03:33.000Z</Time>
            <Position>
              <LatitudeDegrees>36.519043855369091033935546875</LatitudeDegrees>
              <LongitudeDegrees>-5.41021884419023990631103515625</LongitudeDegrees>
            </Position>
            <AltitudeMeters>234.8000030517578125</AltitudeMeters>
            <DistanceMeters>4163.0135332786</DistanceMeters>
          </Trackpoint>
          <Trackpoint>
            <Time>2019-01-04T10:03:34.000Z</Time>
            <Position>
              <LatitudeDegrees>36.51903136633336544036865234375</LatitudeDegrees>
              <LongitudeDegrees>-5.41021339595317840576171875</LongitudeDegrees>
            </Position>
            <AltitudeMeters>234.8000030517578125</AltitudeMeters>
            <DistanceMeters>4164.4856808074</DistanceMeters>
          </Trackpoint>
          <Trackpoint>
            <Time>2019-01-04T10:03:35.000Z</Time>
            <Position>
              <LatitudeDegrees>36.51902432553470134735107421875</LatitudeDegrees>
              <LongitudeDegrees>-5.410205014050006866455078125</LongitudeDegrees>
            </Position>
            <AltitudeMeters>235</AltitudeMeters>
            <DistanceMeters>4165.56497681</DistanceMeters>
          </Trackpoint>
          <Trackpoint>
            <Time>2019-01-04T10:03:36.000Z</Time>
            <Position>
              <LatitudeDegrees>36.519012339413166046142578125</LatitudeDegrees>
              <LongitudeDegrees>-5.41019889526069164276123046875</LongitudeDegrees>
            </Position>
            <AltitudeMeters>235</AltitudeMeters>
            <DistanceMeters>4167.0061282878</DistanceMeters>
          </Trackpoint>
          <Trackpoint>
            <Time>2019-01-04T10:03:37.000Z</Time>
            <Position>
              <LatitudeDegrees>36.51899658143520355224609375</LatitudeDegrees>
              <LongitudeDegrees>-5.4101944528520107269287109375</LongitudeDegrees>
            </Position>
            <AltitudeMeters>235.1999969482421875</AltitudeMeters>
            <DistanceMeters>4168.8041181006</DistanceMeters>
          </Trackpoint>
          <Trackpoint>
            <Time>2019-01-04T10:03:38.000Z</Time>
            <Position>
              <LatitudeDegrees>36.5189836733043193817138671875</LatitudeDegrees>
              <LongitudeDegrees>-5.4101897589862346649169921875</LongitudeDegrees>
            </Position>
            <AltitudeMeters>235.399993896484375</AltitudeMeters>
            <DistanceMeters>4170.300600295</DistanceMeters>
          </Trackpoint>
          <Trackpoint>
            <Time>2019-01-04T10:03:39.000Z</Time>
            <Position>
              <LatitudeDegrees>36.518970094621181488037109375</LatitudeDegrees>
              <LongitudeDegrees>-5.41018615476787090301513671875</LongitudeDegrees>
            </Position>
            <AltitudeMeters>235.600006103515625</AltitudeMeters>
            <DistanceMeters>4171.844601649</DistanceMeters>
          </Trackpoint>
          <Trackpoint>
            <Time>2019-01-04T10:03:40.000Z</Time>
            <Position>
              <LatitudeDegrees>36.5189565159380435943603515625</LatitudeDegrees>
              <LongitudeDegrees>-5.410182215273380279541015625</LongitudeDegrees>
            </Position>
            <AltitudeMeters>235.600006103515625</AltitudeMeters>
            <DistanceMeters>4173.3973509561</DistanceMeters>
          </Trackpoint>
          <Trackpoint>
            <Time>2019-01-04T10:03:41.000Z</Time>
            <Position>
              <LatitudeDegrees>36.518947966396808624267578125</LatitudeDegrees>
              <LongitudeDegrees>-5.4101770184934139251708984375</LongitudeDegrees>
            </Position>
            <AltitudeMeters>235.8000030517578125</AltitudeMeters>
            <DistanceMeters>4174.4555236637</DistanceMeters>
          </Trackpoint>
          <Trackpoint>
            <Time>2019-01-04T10:03:42.000Z</Time>
            <Position>
              <LatitudeDegrees>36.518941260874271392822265625</LatitudeDegrees>
              <LongitudeDegrees>-5.41017559356987476348876953125</LongitudeDegrees>
            </Position>
            <AltitudeMeters>236</AltitudeMeters>
            <DistanceMeters>4175.2157373786</DistanceMeters>
          </Trackpoint>
          <Trackpoint>
            <Time>2019-01-04T10:03:43.000Z</Time>
            <Position>
              <LatitudeDegrees>36.5189261734485626220703125</LatitudeDegrees>
              <LongitudeDegrees>-5.410174168646335601806640625</LongitudeDegrees>
            </Position>
            <AltitudeMeters>236.1999969482421875</AltitudeMeters>
            <DistanceMeters>4176.8996150474</DistanceMeters>
          </Trackpoint>
          <Trackpoint>
            <Time>2019-01-04T10:03:44.000Z</Time>
            <Position>
              <LatitudeDegrees>36.51891519315540790557861328125</LatitudeDegrees>
              <LongitudeDegrees>-5.41017073206603527069091796875</LongitudeDegrees>
            </Position>
            <AltitudeMeters>236.399993896484375</AltitudeMeters>
            <DistanceMeters>4178.1531035002</DistanceMeters>
          </Trackpoint>
          <Trackpoint>
            <Time>2019-01-04T10:03:45.000Z</Time>
            <Position>
              <LatitudeDegrees>36.51890614069998264312744140625</LatitudeDegrees>
              <LongitudeDegrees>-5.4101733304560184478759765625</LongitudeDegrees>
            </Position>
            <AltitudeMeters>236.600006103515625</AltitudeMeters>
            <DistanceMeters>4179.1897225704</DistanceMeters>
          </Trackpoint>
          <Trackpoint>
            <Time>2019-01-04T10:03:46.000Z</Time>
            <Position>
              <LatitudeDegrees>36.51890010572969913482666015625</LatitudeDegrees>
              <LongitudeDegrees>-5.41017525829374790191650390625</LongitudeDegrees>
            </Position>
            <AltitudeMeters>236.8000030517578125</AltitudeMeters>
            <DistanceMeters>4179.8880234569</DistanceMeters>
          </Trackpoint>
          <Trackpoint>
            <Time>2019-01-04T10:03:47.000Z</Time>
            <Position>
              <LatitudeDegrees>36.51888937689363956451416015625</LatitudeDegrees>
              <LongitudeDegrees>-5.4101790301501750946044921875</LongitudeDegrees>
            </Position>
            <AltitudeMeters>237</AltitudeMeters>
            <DistanceMeters>4181.1306589915</DistanceMeters>
          </Trackpoint>
          <Trackpoint>
            <Time>2019-01-04T10:03:48.000Z</Time>
            <Position>
              <LatitudeDegrees>36.518875546753406524658203125</LatitudeDegrees>
              <LongitudeDegrees>-5.4101817123591899871826171875</LongitudeDegrees>
            </Position>
            <AltitudeMeters>237.1999969482421875</AltitudeMeters>
            <DistanceMeters>4182.6921072423</DistanceMeters>
          </Trackpoint>
          <Trackpoint>
            <Time>2019-01-04T10:03:49.000Z</Time>
            <Position>
              <LatitudeDegrees>36.5188644826412200927734375</LatitudeDegrees>
              <LongitudeDegrees>-5.41017995215952396392822265625</LongitudeDegrees>
            </Position>
            <AltitudeMeters>237.600006103515625</AltitudeMeters>
            <DistanceMeters>4183.9347427769</DistanceMeters>
          </Trackpoint>
          <Trackpoint>
            <Time>2019-01-04T10:03:50.000Z</Time>
            <Position>
              <LatitudeDegrees>36.5188515745103359222412109375</LatitudeDegrees>
              <LongitudeDegrees>-5.41017509065568447113037109375</LongitudeDegrees>
            </Position>
            <AltitudeMeters>237.600006103515625</AltitudeMeters>
            <DistanceMeters>4185.4372470567</DistanceMeters>
          </Trackpoint>
          <Trackpoint>
            <Time>2019-01-04T10:03:51.000Z</Time>
            <Position>
              <LatitudeDegrees>36.51884193532168865203857421875</LatitudeDegrees>
              <LongitudeDegrees>-5.4101773537695407867431640625</LongitudeDegrees>
            </Position>
            <AltitudeMeters>237.8000030517578125</AltitudeMeters>
            <DistanceMeters>4186.5331485884</DistanceMeters>
          </Trackpoint>
          <Trackpoint>
            <Time>2019-01-04T10:03:52.000Z</Time>
            <Position>
              <LatitudeDegrees>36.51883271522819995880126953125</LatitudeDegrees>
              <LongitudeDegrees>-5.41018246673047542572021484375</LongitudeDegrees>
            </Position>
            <AltitudeMeters>238.1999969482421875</AltitudeMeters>
            <DistanceMeters>4187.6575198359</DistanceMeters>
          </Trackpoint>
          <Trackpoint>
            <Time>2019-01-04T10:03:53.000Z</Time>
            <Position>
              <LatitudeDegrees>36.51882416568696498870849609375</LatitudeDegrees>
              <LongitudeDegrees>-5.410189926624298095703125</LongitudeDegrees>
            </Position>
            <AltitudeMeters>238.399993896484375</AltitudeMeters>
            <DistanceMeters>4188.8174687098</DistanceMeters>
          </Trackpoint>
          <Trackpoint>
            <Time>2019-01-04T10:03:54.000Z</Time>
            <Position>
              <LatitudeDegrees>36.51881687343120574951171875</LatitudeDegrees>
              <LongitudeDegrees>-5.410194285213947296142578125</LongitudeDegrees>
            </Position>
            <AltitudeMeters>238.600006103515625</AltitudeMeters>
            <DistanceMeters>4189.7189712777</DistanceMeters>
          </Trackpoint>
          <Trackpoint>
            <Time>2019-01-04T10:03:55.000Z</Time>
            <Position>
              <LatitudeDegrees>36.51880882680416107177734375</LatitudeDegrees>
              <LongitudeDegrees>-5.41020534932613372802734375</LongitudeDegrees>
            </Position>
            <AltitudeMeters>238.8000030517578125</AltitudeMeters>
            <DistanceMeters>4191.0561156738</DistanceMeters>
          </Trackpoint>
          <Trackpoint>
            <Time>2019-01-04T10:03:56.000Z</Time>
            <Position>
              <LatitudeDegrees>36.51880103163421154022216796875</LatitudeDegrees>
              <LongitudeDegrees>-5.4102162458002567291259765625</LongitudeDegrees>
            </Position>
            <AltitudeMeters>239</AltitudeMeters>
            <DistanceMeters>4192.3590563368</DistanceMeters>
          </Trackpoint>
          <Trackpoint>
            <Time>2019-01-04T10:03:57.000Z</Time>
            <Position>
              <LatitudeDegrees>36.5187915600836277008056640625</LatitudeDegrees>
              <LongitudeDegrees>-5.41022337041795253753662109375</LongitudeDegrees>
            </Position>
            <AltitudeMeters>239.1999969482421875</AltitudeMeters>
            <DistanceMeters>4193.5833899065</DistanceMeters>
          </Trackpoint>
          <Trackpoint>
            <Time>2019-01-04T10:03:58.000Z</Time>
            <Position>
              <LatitudeDegrees>36.5187818370759487152099609375</LatitudeDegrees>
              <LongitudeDegrees>-5.410230159759521484375</LongitudeDegrees>
            </Position>
            <AltitudeMeters>239.600006103515625</AltitudeMeters>
            <DistanceMeters>4194.8223866762</DistanceMeters>
          </Trackpoint>
          <Trackpoint>
            <Time>2019-01-04T10:03:59.000Z</Time>
            <Position>
              <LatitudeDegrees>36.518770270049571990966796875</LatitudeDegrees>
              <LongitudeDegrees>-5.41023728437721729278564453125</LongitudeDegrees>
            </Position>
            <AltitudeMeters>239.600006103515625</AltitudeMeters>
            <DistanceMeters>4196.2604018033</DistanceMeters>
          </Trackpoint>
          <Trackpoint>
            <Time>2019-01-04T10:04:00.000Z</Time>
            <Position>
              <LatitudeDegrees>36.51875962503254413604736328125</LatitudeDegrees>
              <LongitudeDegrees>-5.41024164296686649322509765625</LongitudeDegrees>
            </Position>
            <AltitudeMeters>239.8000030517578125</AltitudeMeters>
            <DistanceMeters>4197.5102830876</DistanceMeters>
          </Trackpoint>
          <Trackpoint>
            <Time>2019-01-04T10:04:01.000Z</Time>
            <Position>
              <LatitudeDegrees>36.51874713599681854248046875</LatitudeDegrees>
              <LongitudeDegrees>-5.410246588289737701416015625</LongitudeDegrees>
            </Position>
            <AltitudeMeters>240</AltitudeMeters>
            <DistanceMeters>4198.9701111736</DistanceMeters>
          </Trackpoint>
          <Trackpoint>
            <Time>2019-01-04T10:04:02.000Z</Time>
            <Position>
              <LatitudeDegrees>36.51873514987528324127197265625</LatitudeDegrees>
              <LongitudeDegrees>-5.41025019250810146331787109375</LongitudeDegrees>
            </Position>
            <AltitudeMeters>240.1999969482421875</AltitudeMeters>
            <DistanceMeters>4200.3406059384</DistanceMeters>
          </Trackpoint>
          <Trackpoint>
            <Time>2019-01-04T10:04:03.000Z</Time>
            <Position>
              <LatitudeDegrees>36.5187241695821285247802734375</LatitudeDegrees>
              <LongitudeDegrees>-5.4102534614503383636474609375</LongitudeDegrees>
            </Position>
            <AltitudeMeters>240.399993896484375</AltitudeMeters>
            <DistanceMeters>4201.6012777649</DistanceMeters>
          </Trackpoint>
          <Trackpoint>
            <Time>2019-01-04T10:04:04.000Z</Time>
            <Position>
              <LatitudeDegrees>36.5187141112983226776123046875</LatitudeDegrees>
              <LongitudeDegrees>-5.41025455109775066375732421875</LongitudeDegrees>
            </Position>
            <AltitudeMeters>240.600006103515625</AltitudeMeters>
            <DistanceMeters>4202.7216262043</DistanceMeters>
          </Trackpoint>
          <Trackpoint>
            <Time>2019-01-04T10:04:05.000Z</Time>
            <Position>
              <LatitudeDegrees>36.518705226480960845947265625</LatitudeDegrees>
              <LongitudeDegrees>-5.4102548025548458099365234375</LongitudeDegrees>
            </Position>
            <AltitudeMeters>240.8000030517578125</AltitudeMeters>
            <DistanceMeters>4203.7091727885</DistanceMeters>
          </Trackpoint>
          <Trackpoint>
            <Time>2019-01-04T10:04:06.000Z</Time>
            <Position>
              <LatitudeDegrees>36.5186943300068378448486328125</LatitudeDegrees>
              <LongitudeDegrees>-5.41025471873581409454345703125</LongitudeDegrees>
            </Position>
            <AltitudeMeters>241</AltitudeMeters>
            <DistanceMeters>4204.9186654028</DistanceMeters>
          </Trackpoint>
          <Trackpoint>
            <Time>2019-01-04T10:04:07.000Z</Time>
            <Position>
              <LatitudeDegrees>36.518681086599826812744140625</LatitudeDegrees>
              <LongitudeDegrees>-5.410254299640655517578125</LongitudeDegrees>
            </Position>
            <AltitudeMeters>241.1999969482421875</AltitudeMeters>
            <DistanceMeters>4206.3938767174</DistanceMeters>
          </Trackpoint>
          <Trackpoint>
            <Time>2019-01-04T10:04:08.000Z</Time>
            <Position>
              <LatitudeDegrees>36.51866935193538665771484375</LatitudeDegrees>
              <LongitudeDegrees>-5.410255976021289825439453125</LongitudeDegrees>
            </Position>
            <AltitudeMeters>241.399993896484375</AltitudeMeters>
            <DistanceMeters>4207.7140300243</DistanceMeters>
          </Trackpoint>
          <Trackpoint>
            <Time>2019-01-04T10:04:09.000Z</Time>
            <Position>
              <LatitudeDegrees>36.518659628927707672119140625</LatitudeDegrees>
              <LongitudeDegrees>-5.41025471873581409454345703125</LongitudeDegrees>
            </Position>
            <AltitudeMeters>241.399993896484375</AltitudeMeters>
            <DistanceMeters>4208.8016604828</DistanceMeters>
          </Trackpoint>
          <Trackpoint>
            <Time>2019-01-04T10:04:10.000Z</Time>
            <Position>
              <LatitudeDegrees>36.5186487324535846710205078125</LatitudeDegrees>
              <LongitudeDegrees>-5.4102470912039279937744140625</LongitudeDegrees>
            </Position>
            <AltitudeMeters>241.600006103515625</AltitudeMeters>
            <DistanceMeters>4210.1950256307</DistanceMeters>
          </Trackpoint>
          <Trackpoint>
            <Time>2019-01-04T10:04:11.000Z</Time>
            <Position>
              <LatitudeDegrees>36.518638171255588531494140625</LatitudeDegrees>
              <LongitudeDegrees>-5.4102366976439952850341796875</LongitudeDegrees>
            </Position>
            <AltitudeMeters>241.8000030517578125</AltitudeMeters>
            <DistanceMeters>4211.6915078251</DistanceMeters>
          </Trackpoint>
          <Trackpoint>
            <Time>2019-01-04T10:04:12.000Z</Time>
            <Position>
              <LatitudeDegrees>36.51863104663789272308349609375</LatitudeDegrees>
              <LongitudeDegrees>-5.41022839955985546112060546875</LongitudeDegrees>
            </Position>
            <AltitudeMeters>241.8000030517578125</AltitudeMeters>
            <DistanceMeters>4212.7749790696</DistanceMeters>
          </Trackpoint>
          <Trackpoint>
            <Time>2019-01-04T10:04:13.000Z</Time>
            <Position>
              <LatitudeDegrees>36.5186235867440700531005859375</LatitudeDegrees>
              <LongitudeDegrees>-5.4102189280092716217041015625</LongitudeDegrees>
            </Position>
            <AltitudeMeters>242</AltitudeMeters>
            <DistanceMeters>4213.9618623517</DistanceMeters>
          </Trackpoint>
          <Trackpoint>
            <Time>2019-01-04T10:04:14.000Z</Time>
            <Position>
              <LatitudeDegrees>36.51861629448831081390380859375</LatitudeDegrees>
              <LongitudeDegrees>-5.4102112166583538055419921875</LongitudeDegrees>
            </Position>
            <AltitudeMeters>242</AltitudeMeters>
            <DistanceMeters>4215.028534575</DistanceMeters>
          </Trackpoint>
          <Trackpoint>
            <Time>2019-01-04T10:04:15.000Z</Time>
            <Position>
              <LatitudeDegrees>36.518610678613185882568359375</LatitudeDegrees>
              <LongitudeDegrees>-5.41020493023097515106201171875</LongitudeDegrees>
            </Position>
            <AltitudeMeters>242</AltitudeMeters>
            <DistanceMeters>4215.8677877922</DistanceMeters>
          </Trackpoint>
          <Trackpoint>
            <Time>2019-01-04T10:04:16.000Z</Time>
            <Position>
              <LatitudeDegrees>36.51860757730901241302490234375</LatitudeDegrees>
              <LongitudeDegrees>-5.4101954586803913116455078125</LongitudeDegrees>
            </Position>
            <AltitudeMeters>242.1999969482421875</AltitudeMeters>
            <DistanceMeters>4216.7792520169</DistanceMeters>
          </Trackpoint>
          <Trackpoint>
            <Time>2019-01-04T10:04:17.000Z</Time>
            <Position>
              <LatitudeDegrees>36.51859869249165058135986328125</LatitudeDegrees>
              <LongitudeDegrees>-5.41018833406269550323486328125</LongitudeDegrees>
            </Position>
            <AltitudeMeters>242.1999969482421875</AltitudeMeters>
            <DistanceMeters>4217.9546675587</DistanceMeters>
          </Trackpoint>
          <Trackpoint>
            <Time>2019-01-04T10:04:18.000Z</Time>
            <Position>
              <LatitudeDegrees>36.51858880184590816497802734375</LatitudeDegrees>
              <LongitudeDegrees>-5.41018095798790454864501953125</LongitudeDegrees>
            </Position>
            <AltitudeMeters>242.1999969482421875</AltitudeMeters>
            <DistanceMeters>4219.2366480237</DistanceMeters>
          </Trackpoint>
          <Trackpoint>
            <Time>2019-01-04T10:04:19.000Z</Time>
            <Position>
              <LatitudeDegrees>36.5185813419520854949951171875</LatitudeDegrees>
              <LongitudeDegrees>-5.41017291136085987091064453125</LongitudeDegrees>
            </Position>
            <AltitudeMeters>242.1999969482421875</AltitudeMeters>
            <DistanceMeters>4220.3366617707</DistanceMeters>
          </Trackpoint>
          <Trackpoint>
            <Time>2019-01-04T10:04:20.000Z</Time>
            <Position>
              <LatitudeDegrees>36.518573462963104248046875</LatitudeDegrees>
              <LongitudeDegrees>-5.41016754694283008575439453125</LongitudeDegrees>
            </Position>
            <AltitudeMeters>242.1999969482421875</AltitudeMeters>
            <DistanceMeters>4221.3333103591</DistanceMeters>
          </Trackpoint>
          <Trackpoint>
            <Time>2019-01-04T10:04:21.000Z</Time>
            <Position>
              <LatitudeDegrees>36.51856650598347187042236328125</LatitudeDegrees>
              <LongitudeDegrees>-5.41016134433448314666748046875</LongitudeDegrees>
            </Position>
            <AltitudeMeters>242.1999969482421875</AltitudeMeters>
            <DistanceMeters>4222.2835775028</DistanceMeters>
          </Trackpoint>
          <Trackpoint>
            <Time>2019-01-04T10:04:22.000Z</Time>
            <Position>
              <LatitudeDegrees>36.5185560286045074462890625</LatitudeDegrees>
              <LongitudeDegrees>-5.41015614755451679229736328125</LongitudeDegrees>
            </Position>
            <AltitudeMeters>242.1999969482421875</AltitudeMeters>
            <DistanceMeters>4223.5370659556</DistanceMeters>
          </Trackpoint>
          <Trackpoint>
            <Time>2019-01-04T10:04:23.000Z</Time>
            <Position>
              <LatitudeDegrees>36.51854571886360645294189453125</LatitudeDegrees>
              <LongitudeDegrees>-5.41014994494616985321044921875</LongitudeDegrees>
            </Position>
            <AltitudeMeters>242.1999969482421875</AltitudeMeters>
            <DistanceMeters>4224.8119831137</DistanceMeters>
          </Trackpoint>
          <Trackpoint>
            <Time>2019-01-04T10:04:24.000Z</Time>
            <Position>
              <LatitudeDegrees>36.51853264309465885162353515625</LatitudeDegrees>
              <LongitudeDegrees>-5.4101456701755523681640625</LongitudeDegrees>
            </Position>
            <AltitudeMeters>242.399993896484375</AltitudeMeters>
            <DistanceMeters>4226.3174894031</DistanceMeters>
          </Trackpoint>
          <Trackpoint>
            <Time>2019-01-04T10:04:25.000Z</Time>
            <Position>
              <LatitudeDegrees>36.51852560229599475860595703125</LatitudeDegrees>
              <LongitudeDegrees>-5.410142652690410614013671875</LongitudeDegrees>
            </Position>
            <AltitudeMeters>242.600006103515625</AltitudeMeters>
            <DistanceMeters>4227.1459130928</DistanceMeters>
          </Trackpoint>
          <Trackpoint>
            <Time>2019-01-04T10:04:26.000Z</Time>
            <Position>
              <LatitudeDegrees>36.51851713657379150390625</LatitudeDegrees>
              <LongitudeDegrees>-5.41013804264366626739501953125</LongitudeDegrees>
            </Position>
            <AltitudeMeters>242.8000030517578125</AltitudeMeters>
            <DistanceMeters>4228.1781674318</DistanceMeters>
          </Trackpoint>
          <Trackpoint>
            <Time>2019-01-04T10:04:27.000Z</Time>
            <Position>
              <LatitudeDegrees>36.51850984431803226470947265625</LatitudeDegrees>
              <LongitudeDegrees>-5.410129241645336151123046875</LongitudeDegrees>
            </Position>
            <AltitudeMeters>243</AltitudeMeters>
            <DistanceMeters>4229.3105414226</DistanceMeters>
          </Trackpoint>
          <Trackpoint>
            <Time>2019-01-04T10:04:28.000Z</Time>
            <Position>
              <LatitudeDegrees>36.51849903166294097900390625</LatitudeDegrees>
              <LongitudeDegrees>-5.410125888884067535400390625</LongitudeDegrees>
            </Position>
            <AltitudeMeters>243</AltitudeMeters>
            <DistanceMeters>4230.5495381924</DistanceMeters>
          </Trackpoint>
          <Trackpoint>
            <Time>2019-01-04T10:04:29.000Z</Time>
            <Position>
              <LatitudeDegrees>36.5184894762933254241943359375</LatitudeDegrees>
              <LongitudeDegrees>-5.41012010537087917327880859375</LongitudeDegrees>
            </Position>
            <AltitudeMeters>243.1999969482421875</AltitudeMeters>
            <DistanceMeters>4231.7326112454</DistanceMeters>
          </Trackpoint>
          <Trackpoint>
            <Time>2019-01-04T10:04:30.000Z</Time>
            <Position>
              <LatitudeDegrees>36.518479920923709869384765625</LatitudeDegrees>
              <LongitudeDegrees>-5.41011256165802478790283203125</LongitudeDegrees>
            </Position>
            <AltitudeMeters>243.1999969482421875</AltitudeMeters>
            <DistanceMeters>4232.9896965161</DistanceMeters>
          </Trackpoint>
          <Trackpoint>
            <Time>2019-01-04T10:04:31.000Z</Time>
            <Position>
              <LatitudeDegrees>36.518471539020538330078125</LatitudeDegrees>
              <LongitudeDegrees>-5.41010677814483642578125</LongitudeDegrees>
            </Position>
            <AltitudeMeters>243.399993896484375</AltitudeMeters>
            <DistanceMeters>4234.0563687394</DistanceMeters>
          </Trackpoint>
          <Trackpoint>
            <Time>2019-01-04T10:04:32.000Z</Time>
            <Position>
              <LatitudeDegrees>36.51846189983189105987548828125</LatitudeDegrees>
              <LongitudeDegrees>-5.41010518558323383331298828125</LongitudeDegrees>
            </Position>
            <AltitudeMeters>243.600006103515625</AltitudeMeters>
            <DistanceMeters>4235.135664742</DistanceMeters>
          </Trackpoint>
          <Trackpoint>
            <Time>2019-01-04T10:04:33.000Z</Time>
            <Position>
              <LatitudeDegrees>36.51844899170100688934326171875</LatitudeDegrees>
              <LongitudeDegrees>-5.41010166518390178680419921875</LongitudeDegrees>
            </Position>
            <AltitudeMeters>243.600006103515625</AltitudeMeters>
            <DistanceMeters>4236.6047420953</DistanceMeters>
          </Trackpoint>
          <Trackpoint>
            <Time>2019-01-04T10:04:34.000Z</Time>
            <Position>
              <LatitudeDegrees>36.518437676131725311279296875</LatitudeDegrees>
              <LongitudeDegrees>-5.41009898297488689422607421875</LongitudeDegrees>
            </Position>
            <AltitudeMeters>243.8000030517578125</AltitudeMeters>
            <DistanceMeters>4237.8867225604</DistanceMeters>
          </Trackpoint>
          <Trackpoint>
            <Time>2019-01-04T10:04:35.000Z</Time>
            <Position>
              <LatitudeDegrees>36.5184271149337291717529296875</LatitudeDegrees>
              <LongitudeDegrees>-5.41008959524333477020263671875</LongitudeDegrees>
            </Position>
            <AltitudeMeters>244</AltitudeMeters>
            <DistanceMeters>4239.3310035782</DistanceMeters>
          </Trackpoint>
          <Trackpoint>
            <Time>2019-01-04T10:04:36.000Z</Time>
            <Position>
              <LatitudeDegrees>36.5184137038886547088623046875</LatitudeDegrees>
              <LongitudeDegrees>-5.41008456610143184661865234375</LongitudeDegrees>
            </Position>
            <AltitudeMeters>244</AltitudeMeters>
            <DistanceMeters>4240.892451829</DistanceMeters>
          </Trackpoint>
          <Trackpoint>
            <Time>2019-01-04T10:04:37.000Z</Time>
            <Position>
              <LatitudeDegrees>36.51840155012905597686767578125</LatitudeDegrees>
              <LongitudeDegrees>-5.41007526218891143798828125</LongitudeDegrees>
            </Position>
            <AltitudeMeters>244.1999969482421875</AltitudeMeters>
            <DistanceMeters>4242.4825528963</DistanceMeters>
          </Trackpoint>
          <Trackpoint>
            <Time>2019-01-04T10:04:38.000Z</Time>
            <Position>
              <LatitudeDegrees>36.518389396369457244873046875</LatitudeDegrees>
              <LongitudeDegrees>-5.41006763465702533721923828125</LongitudeDegrees>
            </Position>
            <AltitudeMeters>244.399993896484375</AltitudeMeters>
            <DistanceMeters>4243.9970295111</DistanceMeters>
          </Trackpoint>
          <Trackpoint>
            <Time>2019-01-04T10:04:39.000Z</Time>
            <Position>
              <LatitudeDegrees>36.51837757788598537445068359375</LatitudeDegrees>
              <LongitudeDegrees>-5.41006076149642467498779296875</LongitudeDegrees>
            </Position>
            <AltitudeMeters>244.399993896484375</AltitudeMeters>
            <DistanceMeters>4245.4506587238</DistanceMeters>
          </Trackpoint>
          <Trackpoint>
            <Time>2019-01-04T10:04:40.000Z</Time>
            <Position>
              <LatitudeDegrees>36.51836693286895751953125</LatitudeDegrees>
              <LongitudeDegrees>-5.41005958802998065948486328125</LongitudeDegrees>
            </Position>
            <AltitudeMeters>244.399993896484375</AltitudeMeters>
            <DistanceMeters>4246.6375420059</DistanceMeters>
          </Trackpoint>
          <Trackpoint>
            <Time>2019-01-04T10:04:41.000Z</Time>
            <Position>
              <LatitudeDegrees>36.5183553658425807952880859375</LatitudeDegrees>
              <LongitudeDegrees>-5.41006126441061496734619140625</LongitudeDegrees>
            </Position>
            <AltitudeMeters>244.399993896484375</AltitudeMeters>
            <DistanceMeters>4247.9335336025</DistanceMeters>
          </Trackpoint>
          <Trackpoint>
            <Time>2019-01-04T10:04:42.000Z</Time>
            <Position>
              <LatitudeDegrees>36.5183429606258869171142578125</LatitudeDegrees>
              <LongitudeDegrees>-5.41006185114383697509765625</LongitudeDegrees>
            </Position>
            <AltitudeMeters>244.399993896484375</AltitudeMeters>
            <DistanceMeters>4249.3106015214</DistanceMeters>
          </Trackpoint>
          <Trackpoint>
            <Time>2019-01-04T10:04:43.000Z</Time>
            <Position>
              <LatitudeDegrees>36.518328376114368438720703125</LatitudeDegrees>
              <LongitudeDegrees>-5.41006143204867839813232421875</LongitudeDegrees>
            </Position>
            <AltitudeMeters>244.399993896484375</AltitudeMeters>
            <DistanceMeters>4250.9316358348</DistanceMeters>
          </Trackpoint>
          <Trackpoint>
            <Time>2019-01-04T10:04:44.000Z</Time>
            <Position>
              <LatitudeDegrees>36.5183124504983425140380859375</LatitudeDegrees>
              <LongitudeDegrees>-5.41006176732480525970458984375</LongitudeDegrees>
            </Position>
            <AltitudeMeters>244.399993896484375</AltitudeMeters>
            <DistanceMeters>4252.704336205</DistanceMeters>
          </Trackpoint>
          <Trackpoint>
            <Time>2019-01-04T10:04:45.000Z</Time>
            <Position>
              <LatitudeDegrees>36.5182976983487606048583984375</LatitudeDegrees>
              <LongitudeDegrees>-5.4100636951625347137451171875</LongitudeDegrees>
            </Position>
            <AltitudeMeters>244.1999969482421875</AltitudeMeters>
            <DistanceMeters>4254.3529880814</DistanceMeters>
          </Trackpoint>
          <Trackpoint>
            <Time>2019-01-04T10:04:46.000Z</Time>
            <Position>
              <LatitudeDegrees>36.5182836167514324188232421875</LatitudeDegrees>
              <LongitudeDegrees>-5.41006260551512241363525390625</LongitudeDegrees>
            </Position>
            <AltitudeMeters>244.1999969482421875</AltitudeMeters>
            <DistanceMeters>4255.9230870812</DistanceMeters>
          </Trackpoint>
          <Trackpoint>
            <Time>2019-01-04T10:04:47.000Z</Time>
            <Position>
              <LatitudeDegrees>36.5182722173631191253662109375</LatitudeDegrees>
              <LongitudeDegrees>-5.410064868628978729248046875</LongitudeDegrees>
            </Position>
            <AltitudeMeters>244.1999969482421875</AltitudeMeters>
            <DistanceMeters>4257.2085846461</DistanceMeters>
          </Trackpoint>
          <Trackpoint>
            <Time>2019-01-04T10:04:48.000Z</Time>
            <Position>
              <LatitudeDegrees>36.51826023124158382415771484375</LatitudeDegrees>
              <LongitudeDegrees>-5.41006612591445446014404296875</LongitudeDegrees>
            </Position>
            <AltitudeMeters>244.1999969482421875</AltitudeMeters>
            <DistanceMeters>4258.5457290421</DistanceMeters>
          </Trackpoint>
          <Trackpoint>
            <Time>2019-01-04T10:04:49.000Z</Time>
            <Position>
              <LatitudeDegrees>36.51824547909200191497802734375</LatitudeDegrees>
              <LongitudeDegrees>-5.41006227023899555206298828125</LongitudeDegrees>
            </Position>
            <AltitudeMeters>244</AltitudeMeters>
            <DistanceMeters>4260.2215434036</DistanceMeters>
          </Trackpoint>
          <Trackpoint>
            <Time>2019-01-04T10:04:50.000Z</Time>
            <Position>
              <LatitudeDegrees>36.5182316489517688751220703125</LatitudeDegrees>
              <LongitudeDegrees>-5.41006176732480525970458984375</LongitudeDegrees>
            </Position>
            <AltitudeMeters>244</AltitudeMeters>
            <DistanceMeters>4261.7626177382</DistanceMeters>
          </Trackpoint>
          <Trackpoint>
            <Time>2019-01-04T10:04:51.000Z</Time>
            <Position>
              <LatitudeDegrees>36.51821672916412353515625</LatitudeDegrees>
              <LongitudeDegrees>-5.4100610129535198211669921875</LongitudeDegrees>
            </Position>
            <AltitudeMeters>244</AltitudeMeters>
            <DistanceMeters>4263.4249063388</DistanceMeters>
          </Trackpoint>
          <Trackpoint>
            <Time>2019-01-04T10:04:52.000Z</Time>
            <Position>
              <LatitudeDegrees>36.51820398867130279541015625</LatitudeDegrees>
              <LongitudeDegrees>-5.41005916893482208251953125</LongitudeDegrees>
            </Position>
            <AltitudeMeters>244</AltitudeMeters>
            <DistanceMeters>4264.8534710998</DistanceMeters>
          </Trackpoint>
          <Trackpoint>
            <Time>2019-01-04T10:04:53.000Z</Time>
            <Position>
              <LatitudeDegrees>36.5181940980255603790283203125</LatitudeDegrees>
              <LongitudeDegrees>-5.41005992330610752105712890625</LongitudeDegrees>
            </Position>
            <AltitudeMeters>244</AltitudeMeters>
            <DistanceMeters>4265.9534848468</DistanceMeters>
          </Trackpoint>
          <Trackpoint>
            <Time>2019-01-04T10:04:54.000Z</Time>
            <Position>
              <LatitudeDegrees>36.51818496175110340118408203125</LatitudeDegrees>
              <LongitudeDegrees>-5.41005740873515605926513671875</LongitudeDegrees>
            </Position>
            <AltitudeMeters>244</AltitudeMeters>
            <DistanceMeters>4266.9944503473</DistanceMeters>
          </Trackpoint>
          <Trackpoint>
            <Time>2019-01-04T10:04:55.000Z</Time>
            <Position>
              <LatitudeDegrees>36.5181759931147098541259765625</LatitudeDegrees>
              <LongitudeDegrees>-5.410049445927143096923828125</LongitudeDegrees>
            </Position>
            <AltitudeMeters>244.1999969482421875</AltitudeMeters>
            <DistanceMeters>4268.2187839169</DistanceMeters>
          </Trackpoint>
          <Trackpoint>
            <Time>2019-01-04T10:04:56.000Z</Time>
            <Position>
              <LatitudeDegrees>36.5181617438793182373046875</LatitudeDegrees>
              <LongitudeDegrees>-5.41004483588039875030517578125</LongitudeDegrees>
            </Position>
            <AltitudeMeters>244.1999969482421875</AltitudeMeters>
            <DistanceMeters>4269.8619494158</DistanceMeters>
          </Trackpoint>
          <Trackpoint>
            <Time>2019-01-04T10:04:57.000Z</Time>
            <Position>
              <LatitudeDegrees>36.5181521885097026824951171875</LatitudeDegrees>
              <LongitudeDegrees>-5.410040728747844696044921875</LongitudeDegrees>
            </Position>
            <AltitudeMeters>244.399993896484375</AltitudeMeters>
            <DistanceMeters>4270.9903291296</DistanceMeters>
          </Trackpoint>
          <Trackpoint>
            <Time>2019-01-04T10:04:58.000Z</Time>
            <Position>
              <LatitudeDegrees>36.51813567616045475006103515625</LatitudeDegrees>
              <LongitudeDegrees>-5.4100432433187961578369140625</LongitudeDegrees>
            </Position>
            <AltitudeMeters>244.600006103515625</AltitudeMeters>
            <DistanceMeters>4272.8427408141</DistanceMeters>
          </Trackpoint>
          <Trackpoint>
            <Time>2019-01-04T10:04:59.000Z</Time>
            <Position>
              <LatitudeDegrees>36.51812025345861911773681640625</LatitudeDegrees>
              <LongitudeDegrees>-5.4100469313561916351318359375</LongitudeDegrees>
            </Position>
            <AltitudeMeters>244.600006103515625</AltitudeMeters>
            <DistanceMeters>4274.5949468496</DistanceMeters>
          </Trackpoint>
          <Trackpoint>
            <Time>2019-01-04T10:05:00.000Z</Time>
            <Position>
              <LatitudeDegrees>36.51810768060386180877685546875</LatitudeDegrees>
              <LongitudeDegrees>-5.4100506193935871124267578125</LongitudeDegrees>
            </Position>
            <AltitudeMeters>244.8000030517578125</AltitudeMeters>
            <DistanceMeters>4276.0360983275</DistanceMeters>
          </Trackpoint>
          <Trackpoint>
            <Time>2019-01-04T10:05:01.000Z</Time>
            <Position>
              <LatitudeDegrees>36.51809695176780223846435546875</LatitudeDegrees>
              <LongitudeDegrees>-5.410055816173553466796875</LongitudeDegrees>
            </Position>
            <AltitudeMeters>245</AltitudeMeters>
            <DistanceMeters>4277.3215958923</DistanceMeters>
          </Trackpoint>
          <Trackpoint>
            <Time>2019-01-04T10:05:02.000Z</Time>
            <Position>
              <LatitudeDegrees>36.51808320544660091400146484375</LatitudeDegrees>
              <LongitudeDegrees>-5.41006495244801044464111328125</LongitudeDegrees>
            </Position>
            <AltitudeMeters>245.1999969482421875</AltitudeMeters>
            <DistanceMeters>4279.055670705</DistanceMeters>
          </Trackpoint>
          <Trackpoint>
            <Time>2019-01-04T10:05:03.000Z</Time>
            <Position>
              <LatitudeDegrees>36.51806945912539958953857421875</LatitudeDegrees>
              <LongitudeDegrees>-5.4100707359611988067626953125</LongitudeDegrees>
            </Position>
            <AltitudeMeters>245.1999969482421875</AltitudeMeters>
            <DistanceMeters>4280.6711248493</DistanceMeters>
          </Trackpoint>
          <Trackpoint>
            <Time>2019-01-04T10:05:04.000Z</Time>
            <Position>
              <LatitudeDegrees>36.5180599875748157501220703125</LatitudeDegrees>
              <LongitudeDegrees>-5.41007501073181629180908203125</LongitudeDegrees>
            </Position>
            <AltitudeMeters>245.1999969482421875</AltitudeMeters>
            <DistanceMeters>4281.7874359839</DistanceMeters>
          </Trackpoint>
          <Trackpoint>
            <Time>2019-01-04T10:05:05.000Z</Time>
            <Position>
              <LatitudeDegrees>36.518048085272312164306640625</LatitudeDegrees>
              <LongitudeDegrees>-5.41008330881595611572265625</LongitudeDegrees>
            </Position>
            <AltitudeMeters>245.1999969482421875</AltitudeMeters>
            <DistanceMeters>4283.3078634138</DistanceMeters>
          </Trackpoint>
          <Trackpoint>
            <Time>2019-01-04T10:05:06.000Z</Time>
            <Position>
              <LatitudeDegrees>36.51803928427398204803466796875</LatitudeDegrees>
              <LongitudeDegrees>-5.41008892469108104705810546875</LongitudeDegrees>
            </Position>
            <AltitudeMeters>245.1999969482421875</AltitudeMeters>
            <DistanceMeters>4284.4119740604</DistanceMeters>
          </Trackpoint>
          <Trackpoint>
            <Time>2019-01-04T10:05:07.000Z</Time>
            <Position>
              <LatitudeDegrees>36.5180289745330810546875</LatitudeDegrees>
              <LongitudeDegrees>-5.41009244509041309356689453125</LongitudeDegrees>
            </Position>
            <AltitudeMeters>245</AltitudeMeters>
            <DistanceMeters>4285.6026553787</DistanceMeters>
          </Trackpoint>
          <Trackpoint>
            <Time>2019-01-04T10:05:08.000Z</Time>
            <Position>
              <LatitudeDegrees>36.518018245697021484375</LatitudeDegrees>
              <LongitudeDegrees>-5.41009663604199886322021484375</LongitudeDegrees>
            </Position>
            <AltitudeMeters>245</AltitudeMeters>
            <DistanceMeters>4286.8561438315</DistanceMeters>
          </Trackpoint>
          <Trackpoint>
            <Time>2019-01-04T10:05:09.000Z</Time>
            <Position>
              <LatitudeDegrees>36.5180070139467716217041015625</LatitudeDegrees>
              <LongitudeDegrees>-5.41010149754583835601806640625</LongitudeDegrees>
            </Position>
            <AltitudeMeters>245</AltitudeMeters>
            <DistanceMeters>4288.1797128059</DistanceMeters>
          </Trackpoint>
          <Trackpoint>
            <Time>2019-01-04T10:05:10.000Z</Time>
            <Position>
              <LatitudeDegrees>36.517993770539760589599609375</LatitudeDegrees>
              <LongitudeDegrees>-5.41011013090610504150390625</LongitudeDegrees>
            </Position>
            <AltitudeMeters>245</AltitudeMeters>
            <DistanceMeters>4289.8420014066</DistanceMeters>
          </Trackpoint>
          <Trackpoint>
            <Time>2019-01-04T10:05:11.000Z</Time>
            <Position>
              <LatitudeDegrees>36.51798136532306671142578125</LatitudeDegrees>
              <LongitudeDegrees>-5.41011792607605457305908203125</LongitudeDegrees>
            </Position>
            <AltitudeMeters>245</AltitudeMeters>
            <DistanceMeters>4291.3860027606</DistanceMeters>
          </Trackpoint>
          <Trackpoint>
            <Time>2019-01-04T10:05:12.000Z</Time>
            <Position>
              <LatitudeDegrees>36.51796803809702396392822265625</LatitudeDegrees>
              <LongitudeDegrees>-5.41012982837855815887451171875</LongitudeDegrees>
            </Position>
            <AltitudeMeters>245</AltitudeMeters>
            <DistanceMeters>4293.2089312099</DistanceMeters>
          </Trackpoint>
          <Trackpoint>
            <Time>2019-01-04T10:05:13.000Z</Time>
            <Position>
              <LatitudeDegrees>36.5179600752890110015869140625</LatitudeDegrees>
              <LongitudeDegrees>-5.41014206595718860626220703125</LongitudeDegrees>
            </Position>
            <AltitudeMeters>244.8000030517578125</AltitudeMeters>
            <DistanceMeters>4294.6184051606</DistanceMeters>
          </Trackpoint>
          <Trackpoint>
            <Time>2019-01-04T10:05:14.000Z</Time>
            <Position>
              <LatitudeDegrees>36.51795320212841033935546875</LatitudeDegrees>
              <LongitudeDegrees>-5.41015430353581905364990234375</LongitudeDegrees>
            </Position>
            <AltitudeMeters>244.8000030517578125</AltitudeMeters>
            <DistanceMeters>4295.9555495566</DistanceMeters>
          </Trackpoint>
          <Trackpoint>
            <Time>2019-01-04T10:05:15.000Z</Time>
            <Position>
              <LatitudeDegrees>36.51794356293976306915283203125</LatitudeDegrees>
              <LongitudeDegrees>-5.41016620583832263946533203125</LongitudeDegrees>
            </Position>
            <AltitudeMeters>244.600006103515625</AltitudeMeters>
            <DistanceMeters>4297.4670419782</DistanceMeters>
          </Trackpoint>
          <Trackpoint>
            <Time>2019-01-04T10:05:16.000Z</Time>
            <Position>
              <LatitudeDegrees>36.51793534867465496063232421875</LatitudeDegrees>
              <LongitudeDegrees>-5.4101810418069362640380859375</LongitudeDegrees>
            </Position>
            <AltitudeMeters>244.399993896484375</AltitudeMeters>
            <DistanceMeters>4299.0796987972</DistanceMeters>
          </Trackpoint>
          <Trackpoint>
            <Time>2019-01-04T10:05:17.000Z</Time>
            <Position>
              <LatitudeDegrees>36.517925374209880828857421875</LatitudeDegrees>
              <LongitudeDegrees>-5.4101984761655330657958984375</LongitudeDegrees>
            </Position>
            <AltitudeMeters>244.399993896484375</AltitudeMeters>
            <DistanceMeters>4300.9944340364</DistanceMeters>
          </Trackpoint>
          <Trackpoint>
            <Time>2019-01-04T10:05:18.000Z</Time>
            <Position>
              <LatitudeDegrees>36.517909951508045196533203125</LatitudeDegrees>
              <LongitudeDegrees>-5.4102199338376522064208984375</LongitudeDegrees>
            </Position>
            <AltitudeMeters>244.399993896484375</AltitudeMeters>
            <DistanceMeters>4303.5689390587</DistanceMeters>
          </Trackpoint>
          <Trackpoint>
            <Time>2019-01-04T10:05:19.000Z</Time>
            <Position>
              <LatitudeDegrees>36.51789561845362186431884765625</LatitudeDegrees>
              <LongitudeDegrees>-5.4102340154349803924560546875</LongitudeDegrees>
            </Position>
            <AltitudeMeters>244.1999969482421875</AltitudeMeters>
            <DistanceMeters>4305.6025995543</DistanceMeters>
          </Trackpoint>
          <Trackpoint>
            <Time>2019-01-04T10:05:20.000Z</Time>
            <Position>
              <LatitudeDegrees>36.51788472197949886322021484375</LatitudeDegrees>
              <LongitudeDegrees>-5.41024516336619853973388671875</LongitudeDegrees>
            </Position>
            <AltitudeMeters>244.1999969482421875</AltitudeMeters>
            <DistanceMeters>4307.1755715647</DistanceMeters>
          </Trackpoint>
          <Trackpoint>
            <Time>2019-01-04T10:05:21.000Z</Time>
            <Position>
              <LatitudeDegrees>36.517879106104373931884765625</LatitudeDegrees>
              <LongitudeDegrees>-5.4102578200399875640869140625</LongitudeDegrees>
            </Position>
            <AltitudeMeters>244.1999969482421875</AltitudeMeters>
            <DistanceMeters>4308.4645766328</DistanceMeters>
          </Trackpoint>
          <Trackpoint>
            <Time>2019-01-04T10:05:22.000Z</Time>
            <Position>
              <LatitudeDegrees>36.5178725682199001312255859375</LatitudeDegrees>
              <LongitudeDegrees>-5.41027014143764972686767578125</LongitudeDegrees>
            </Position>
            <AltitudeMeters>244.399993896484375</AltitudeMeters>
            <DistanceMeters>4309.7813054118</DistanceMeters>
          </Trackpoint>
          <Trackpoint>
            <Time>2019-01-04T10:05:23.000Z</Time>
            <Position>
              <LatitudeDegrees>36.517867706716060638427734375</LatitudeDegrees>
              <LongitudeDegrees>-5.41028405539691448211669921875</LongitudeDegrees>
            </Position>
            <AltitudeMeters>244.399993896484375</AltitudeMeters>
            <DistanceMeters>4311.1451953441</DistanceMeters>
          </Trackpoint>
          <Trackpoint>
            <Time>2019-01-04T10:05:24.000Z</Time>
            <Position>
              <LatitudeDegrees>36.51786066591739654541015625</LatitudeDegrees>
              <LongitudeDegrees>-5.41029713116586208343505859375</LongitudeDegrees>
            </Position>
            <AltitudeMeters>244.600006103515625</AltitudeMeters>
            <DistanceMeters>4312.5546692948</DistanceMeters>
          </Trackpoint>
          <Trackpoint>
            <Time>2019-01-04T10:05:25.000Z</Time>
            <Position>
              <LatitudeDegrees>36.51785454712808132171630859375</LatitudeDegrees>
              <LongitudeDegrees>-5.4103131406009197235107421875</LongitudeDegrees>
            </Position>
            <AltitudeMeters>244.600006103515625</AltitudeMeters>
            <DistanceMeters>4314.1390812524</DistanceMeters>
          </Trackpoint>
          <Trackpoint>
            <Time>2019-01-04T10:05:26.000Z</Time>
            <Position>
              <LatitudeDegrees>36.5178467519581317901611328125</LatitudeDegrees>
              <LongitudeDegrees>-5.4103272221982479095458984375</LongitudeDegrees>
            </Position>
            <AltitudeMeters>244.8000030517578125</AltitudeMeters>
            <DistanceMeters>4315.6654362971</DistanceMeters>
          </Trackpoint>
          <Trackpoint>
            <Time>2019-01-04T10:05:27.000Z</Time>
            <Position>
              <LatitudeDegrees>36.51783786714076995849609375</LatitudeDegrees>
              <LongitudeDegrees>-5.41034474037587642669677734375</LongitudeDegrees>
            </Position>
            <AltitudeMeters>244.8000030517578125</AltitudeMeters>
            <DistanceMeters>4317.5178479816</DistanceMeters>
          </Trackpoint>
          <Trackpoint>
            <Time>2019-01-04T10:05:28.000Z</Time>
            <Position>
              <LatitudeDegrees>36.517829485237598419189453125</LatitudeDegrees>
              <LongitudeDegrees>-5.41036351583898067474365234375</LongitudeDegrees>
            </Position>
            <AltitudeMeters>244.600006103515625</AltitudeMeters>
            <DistanceMeters>4319.4396443458</DistanceMeters>
          </Trackpoint>
          <Trackpoint>
            <Time>2019-01-04T10:05:29.000Z</Time>
            <Position>
              <LatitudeDegrees>36.51781833730638027191162109375</LatitudeDegrees>
              <LongitudeDegrees>-5.41037541814148426055908203125</LongitudeDegrees>
            </Position>
            <AltitudeMeters>244.600006103515625</AltitudeMeters>
            <DistanceMeters>4321.0745457579</DistanceMeters>
          </Trackpoint>
          <Trackpoint>
            <Time>2019-01-04T10:05:30.000Z</Time>
            <Position>
              <LatitudeDegrees>36.51780836284160614013671875</LatitudeDegrees>
              <LongitudeDegrees>-5.4103852249681949615478515625</LongitudeDegrees>
            </Position>
            <AltitudeMeters>244.399993896484375</AltitudeMeters>
            <DistanceMeters>4322.4904119135</DistanceMeters>
          </Trackpoint>
          <Trackpoint>
            <Time>2019-01-04T10:05:31.000Z</Time>
            <Position>
              <LatitudeDegrees>36.51779989711940288543701171875</LatitudeDegrees>
              <LongitudeDegrees>-5.4103899188339710235595703125</LongitudeDegrees>
            </Position>
            <AltitudeMeters>244.399993896484375</AltitudeMeters>
            <DistanceMeters>4323.5182829871</DistanceMeters>
          </Trackpoint>
          <Trackpoint>
            <Time>2019-01-04T10:05:32.000Z</Time>
            <Position>
              <LatitudeDegrees>36.51778866536915302276611328125</LatitudeDegrees>
              <LongitudeDegrees>-5.41039151139557361602783203125</LongitudeDegrees>
            </Position>
            <AltitudeMeters>244.399993896484375</AltitudeMeters>
            <DistanceMeters>4324.7753682578</DistanceMeters>
          </Trackpoint>
          <Trackpoint>
            <Time>2019-01-04T10:05:33.000Z</Time>
            <Position>
              <LatitudeDegrees>36.5177807025611400604248046875</LatitudeDegrees>
              <LongitudeDegrees>-5.41039201430976390838623046875</LongitudeDegrees>
            </Position>
            <AltitudeMeters>244.399993896484375</AltitudeMeters>
            <DistanceMeters>4325.6667978551</DistanceMeters>
          </Trackpoint>
          <Trackpoint>
            <Time>2019-01-04T10:05:34.000Z</Time>
            <Position>
              <LatitudeDegrees>36.51777022518217563629150390625</LatitudeDegrees>
              <LongitudeDegrees>-5.4103848896920680999755859375</LongitudeDegrees>
            </Position>
            <AltitudeMeters>244.399993896484375</AltitudeMeters>
            <DistanceMeters>4326.9971718563</DistanceMeters>
          </Trackpoint>
          <Trackpoint>
            <Time>2019-01-04T10:05:35.000Z</Time>
            <Position>
              <LatitudeDegrees>36.5177625976502895355224609375</LatitudeDegrees>
              <LongitudeDegrees>-5.41037709452211856842041015625</LongitudeDegrees>
            </Position>
            <AltitudeMeters>244.600006103515625</AltitudeMeters>
            <DistanceMeters>4328.0971856033</DistanceMeters>
          </Trackpoint>
          <Trackpoint>
            <Time>2019-01-04T10:05:36.000Z</Time>
            <Position>
              <LatitudeDegrees>36.517753712832927703857421875</LatitudeDegrees>
              <LongitudeDegrees>-5.41036888025701045989990234375</LongitudeDegrees>
            </Position>
            <AltitudeMeters>244.8000030517578125</AltitudeMeters>
            <DistanceMeters>4329.3288725938</DistanceMeters>
          </Trackpoint>
          <Trackpoint>
            <Time>2019-01-04T10:05:37.000Z</Time>
            <Position>
              <LatitudeDegrees>36.51774340309202671051025390625</LatitudeDegrees>
              <LongitudeDegrees>-5.4103614203631877899169921875</LongitudeDegrees>
            </Position>
            <AltitudeMeters>244.8000030517578125</AltitudeMeters>
            <DistanceMeters>4330.6524415682</DistanceMeters>
          </Trackpoint>
          <Trackpoint>
            <Time>2019-01-04T10:05:38.000Z</Time>
            <Position>
              <LatitudeDegrees>36.517732925713062286376953125</LatitudeDegrees>
              <LongitudeDegrees>-5.410352535545825958251953125</LongitudeDegrees>
            </Position>
            <AltitudeMeters>245</AltitudeMeters>
            <DistanceMeters>4332.0619155189</DistanceMeters>
          </Trackpoint>
          <Trackpoint>
            <Time>2019-01-04T10:05:39.000Z</Time>
            <Position>
              <LatitudeDegrees>36.51772362180054187774658203125</LatitudeDegrees>
              <LongitudeDegrees>-5.4103409685194492340087890625</LongitudeDegrees>
            </Position>
            <AltitudeMeters>245</AltitudeMeters>
            <DistanceMeters>4333.5279162671</DistanceMeters>
          </Trackpoint>
          <Trackpoint>
            <Time>2019-01-04T10:05:40.000Z</Time>
            <Position>
              <LatitudeDegrees>36.51771641336381435394287109375</LatitudeDegrees>
              <LongitudeDegrees>-5.41032780893146991729736328125</LongitudeDegrees>
            </Position>
            <AltitudeMeters>245</AltitudeMeters>
            <DistanceMeters>4334.9564810281</DistanceMeters>
          </Trackpoint>
          <Trackpoint>
            <Time>2019-01-04T10:05:41.000Z</Time>
            <Position>
              <LatitudeDegrees>36.5177086181938648223876953125</LatitudeDegrees>
              <LongitudeDegrees>-5.41032143868505954742431640625</LongitudeDegrees>
            </Position>
            <AltitudeMeters>245</AltitudeMeters>
            <DistanceMeters>4335.9931000983</DistanceMeters>
          </Trackpoint>
          <Trackpoint>
            <Time>2019-01-04T10:05:42.000Z</Time>
            <Position>
              <LatitudeDegrees>36.5176992304623126983642578125</LatitudeDegrees>
              <LongitudeDegrees>-5.410316325724124908447265625</LongitudeDegrees>
            </Position>
            <AltitudeMeters>245.1999969482421875</AltitudeMeters>
            <DistanceMeters>4337.1334206708</DistanceMeters>
          </Trackpoint>
          <Trackpoint>
            <Time>2019-01-04T10:05:43.000Z</Time>
            <Position>
              <LatitudeDegrees>36.5176911838352680206298828125</LatitudeDegrees>
              <LongitudeDegrees>-5.41030936874449253082275390625</LongitudeDegrees>
            </Position>
            <AltitudeMeters>245.1999969482421875</AltitudeMeters>
            <DistanceMeters>4338.2210511292</DistanceMeters>
          </Trackpoint>
          <Trackpoint>
            <Time>2019-01-04T10:05:44.000Z</Time>
            <Position>
              <LatitudeDegrees>36.517681293189525604248046875</LatitudeDegrees>
              <LongitudeDegrees>-5.4103066027164459228515625</LongitudeDegrees>
            </Position>
            <AltitudeMeters>245.1999969482421875</AltitudeMeters>
            <DistanceMeters>4339.3454223767</DistanceMeters>
          </Trackpoint>
          <Trackpoint>
            <Time>2019-01-04T10:05:45.000Z</Time>
            <Position>
              <LatitudeDegrees>36.51767048053443431854248046875</LatitudeDegrees>
              <LongitudeDegrees>-5.41030584834516048431396484375</LongitudeDegrees>
            </Position>
            <AltitudeMeters>245.399993896484375</AltitudeMeters>
            <DistanceMeters>4340.554914991</DistanceMeters>
          </Trackpoint>
          <Trackpoint>
            <Time>2019-01-04T10:05:46.000Z</Time>
            <Position>
              <LatitudeDegrees>36.51766008697450160980224609375</LatitudeDegrees>
              <LongitudeDegrees>-5.410300903022289276123046875</LongitudeDegrees>
            </Position>
            <AltitudeMeters>245.600006103515625</AltitudeMeters>
            <DistanceMeters>4341.7939117607</DistanceMeters>
          </Trackpoint>
          <Trackpoint>
            <Time>2019-01-04T10:05:47.000Z</Time>
            <Position>
              <LatitudeDegrees>36.5176509507000446319580078125</LatitudeDegrees>
              <LongitudeDegrees>-5.41029461659491062164306640625</LongitudeDegrees>
            </Position>
            <AltitudeMeters>245.8000030517578125</AltitudeMeters>
            <DistanceMeters>4342.9577465714</DistanceMeters>
          </Trackpoint>
          <Trackpoint>
            <Time>2019-01-04T10:05:48.000Z</Time>
            <Position>
              <LatitudeDegrees>36.5176412276923656463623046875</LatitudeDegrees>
              <LongitudeDegrees>-5.41029252111911773681640625</LongitudeDegrees>
            </Position>
            <AltitudeMeters>245.8000030517578125</AltitudeMeters>
            <DistanceMeters>4344.0577603184</DistanceMeters>
          </Trackpoint>
          <Trackpoint>
            <Time>2019-01-04T10:05:49.000Z</Time>
            <Position>
              <LatitudeDegrees>36.5176348574459552764892578125</LatitudeDegrees>
              <LongitudeDegrees>-5.410290174186229705810546875</LongitudeDegrees>
            </Position>
            <AltitudeMeters>246</AltitudeMeters>
            <DistanceMeters>4344.7938340828</DistanceMeters>
          </Trackpoint>
          <Trackpoint>
            <Time>2019-01-04T10:05:50.000Z</Time>
            <Position>
              <LatitudeDegrees>36.51762924157083034515380859375</LatitudeDegrees>
              <LongitudeDegrees>-5.4102859832346439361572265625</LongitudeDegrees>
            </Position>
            <AltitudeMeters>246.1999969482421875</AltitudeMeters>
            <DistanceMeters>4345.5237481258</DistanceMeters>
          </Trackpoint>
          <Trackpoint>
            <Time>2019-01-04T10:05:51.000Z</Time>
            <Position>
              <LatitudeDegrees>36.51762370951473712921142578125</LatitudeDegrees>
              <LongitudeDegrees>-5.4102765955030918121337890625</LongitudeDegrees>
            </Position>
            <AltitudeMeters>246.399993896484375</AltitudeMeters>
            <DistanceMeters>4346.5647136263</DistanceMeters>
          </Trackpoint>
          <Trackpoint>
            <Time>2019-01-04T10:05:52.000Z</Time>
            <Position>
              <LatitudeDegrees>36.51761658489704132080078125</LatitudeDegrees>
              <LongitudeDegrees>-5.41027416475117206573486328125</LongitudeDegrees>
            </Position>
            <AltitudeMeters>246.600006103515625</AltitudeMeters>
            <DistanceMeters>4347.3821643324</DistanceMeters>
          </Trackpoint>
          <Trackpoint>
            <Time>2019-01-04T10:05:53.000Z</Time>
            <Position>
              <LatitudeDegrees>36.5176105499267578125</LatitudeDegrees>
              <LongitudeDegrees>-5.410270057618618011474609375</LongitudeDegrees>
            </Position>
            <AltitudeMeters>246.8000030517578125</AltitudeMeters>
            <DistanceMeters>4348.1423780473</DistanceMeters>
          </Trackpoint>
          <Trackpoint>
            <Time>2019-01-04T10:05:54.000Z</Time>
            <Position>
              <LatitudeDegrees>36.517602838575839996337890625</LatitudeDegrees>
              <LongitudeDegrees>-5.410259664058685302734375</LongitudeDegrees>
            </Position>
            <AltitudeMeters>247</AltitudeMeters>
            <DistanceMeters>4349.4101925476</DistanceMeters>
          </Trackpoint>
          <Trackpoint>
            <Time>2019-01-04T10:05:55.000Z</Time>
            <Position>
              <LatitudeDegrees>36.5175942890346050262451171875</LatitudeDegrees>
              <LongitudeDegrees>-5.410249270498752593994140625</LongitudeDegrees>
            </Position>
            <AltitudeMeters>247.1999969482421875</AltitudeMeters>
            <DistanceMeters>4350.7473369436</DistanceMeters>
          </Trackpoint>
          <Trackpoint>
            <Time>2019-01-04T10:05:56.000Z</Time>
            <Position>
              <LatitudeDegrees>36.517588756978511810302734375</LatitudeDegrees>
              <LongitudeDegrees>-5.410238206386566162109375</LongitudeDegrees>
            </Position>
            <AltitudeMeters>247.600006103515625</AltitudeMeters>
            <DistanceMeters>4351.9189049611</DistanceMeters>
          </Trackpoint>
          <Trackpoint>
            <Time>2019-01-04T10:05:57.000Z</Time>
            <Position>
              <LatitudeDegrees>36.51758297346532344818115234375</LatitudeDegrees>
              <LongitudeDegrees>-5.41023007594048976898193359375</LongitudeDegrees>
            </Position>
            <AltitudeMeters>248</AltitudeMeters>
            <DistanceMeters>4352.8972648657</DistanceMeters>
          </Trackpoint>
          <Trackpoint>
            <Time>2019-01-04T10:05:58.000Z</Time>
            <Position>
              <LatitudeDegrees>36.5175758488476276397705078125</LatitudeDegrees>
              <LongitudeDegrees>-5.4102273099124431610107421875</LongitudeDegrees>
            </Position>
            <AltitudeMeters>248.1999969482421875</AltitudeMeters>
            <DistanceMeters>4353.7256885555</DistanceMeters>
          </Trackpoint>
          <Trackpoint>
            <Time>2019-01-04T10:05:59.000Z</Time>
            <Position>
              <LatitudeDegrees>36.51756838895380496978759765625</LatitudeDegrees>
              <LongitudeDegrees>-5.41022068820893764495849609375</LongitudeDegrees>
            </Position>
            <AltitudeMeters>248.399993896484375</AltitudeMeters>
            <DistanceMeters>4354.7491575914</DistanceMeters>
          </Trackpoint>
          <Trackpoint>
            <Time>2019-01-04T10:06:00.000Z</Time>
            <Position>
              <LatitudeDegrees>36.51755816303193569183349609375</LatitudeDegrees>
              <LongitudeDegrees>-5.410216748714447021484375</LongitudeDegrees>
            </Position>
            <AltitudeMeters>248.600006103515625</AltitudeMeters>
            <DistanceMeters>4355.9360408735</DistanceMeters>
          </Trackpoint>
          <Trackpoint>
            <Time>2019-01-04T10:06:01.000Z</Time>
            <Position>
              <LatitudeDegrees>36.5175500325858592987060546875</LatitudeDegrees>
              <LongitudeDegrees>-5.41021046228706836700439453125</LongitudeDegrees>
            </Position>
            <AltitudeMeters>248.600006103515625</AltitudeMeters>
            <DistanceMeters>4357.0027130968</DistanceMeters>
          </Trackpoint>
          <Trackpoint>
            <Time>2019-01-04T10:06:02.000Z</Time>
            <Position>
              <LatitudeDegrees>36.51754274033010005950927734375</LatitudeDegrees>
              <LongitudeDegrees>-5.41020057164132595062255859375</LongitudeDegrees>
            </Position>
            <AltitudeMeters>248.8000030517578125</AltitudeMeters>
            <DistanceMeters>4358.2047165207</DistanceMeters>
          </Trackpoint>
          <Trackpoint>
            <Time>2019-01-04T10:06:03.000Z</Time>
            <Position>
              <LatitudeDegrees>36.51753888465464115142822265625</LatitudeDegrees>
              <LongitudeDegrees>-5.410190932452678680419921875</LongitudeDegrees>
            </Position>
            <AltitudeMeters>248.8000030517578125</AltitudeMeters>
            <DistanceMeters>4359.1644392917</DistanceMeters>
          </Trackpoint>
          <Trackpoint>
            <Time>2019-01-04T10:06:04.000Z</Time>
            <Position>
              <LatitudeDegrees>36.51753452606499195098876953125</LatitudeDegrees>
              <LongitudeDegrees>-5.41018380783498287200927734375</LongitudeDegrees>
            </Position>
            <AltitudeMeters>249.1999969482421875</AltitudeMeters>
            <DistanceMeters>4359.9594898254</DistanceMeters>
          </Trackpoint>
          <Trackpoint>
            <Time>2019-01-04T10:06:05.000Z</Time>
            <Position>
              <LatitudeDegrees>36.5175295807421207427978515625</LatitudeDegrees>
              <LongitudeDegrees>-5.41017341427505016326904296875</LongitudeDegrees>
            </Position>
            <AltitudeMeters>249.1999969482421875</AltitudeMeters>
            <DistanceMeters>4361.0429610699</DistanceMeters>
          </Trackpoint>
          <Trackpoint>
            <Time>2019-01-04T10:06:06.000Z</Time>
            <Position>
              <LatitudeDegrees>36.5175218693912029266357421875</LatitudeDegrees>
              <LongitudeDegrees>-5.41016369126737117767333984375</LongitudeDegrees>
            </Position>
            <AltitudeMeters>249.600006103515625</AltitudeMeters>
            <DistanceMeters>4362.2672946395</DistanceMeters>
          </Trackpoint>
          <Trackpoint>
            <Time>2019-01-04T10:06:07.000Z</Time>
            <Position>
              <LatitudeDegrees>36.51750988326966762542724609375</LatitudeDegrees>
              <LongitudeDegrees>-5.4101512022316455841064453125</LongitudeDegrees>
            </Position>
            <AltitudeMeters>249.8000030517578125</AltitudeMeters>
            <DistanceMeters>4364.0039712163</DistanceMeters>
          </Trackpoint>
          <Trackpoint>
            <Time>2019-01-04T10:06:08.000Z</Time>
            <Position>
              <LatitudeDegrees>36.5175007469952106475830078125</LatitudeDegrees>
              <LongitudeDegrees>-5.41013829410076141357421875</LongitudeDegrees>
            </Position>
            <AltitudeMeters>250</AltitudeMeters>
            <DistanceMeters>4365.5450455509</DistanceMeters>
          </Trackpoint>
          <Trackpoint>
            <Time>2019-01-04T10:06:09.000Z</Time>
            <Position>
              <LatitudeDegrees>36.51749714277684688568115234375</LatitudeDegrees>
              <LongitudeDegrees>-5.410125553607940673828125</LongitudeDegrees>
            </Position>
            <AltitudeMeters>250.1999969482421875</AltitudeMeters>
            <DistanceMeters>4366.7545381651</DistanceMeters>
          </Trackpoint>
          <Trackpoint>
            <Time>2019-01-04T10:06:10.000Z</Time>
            <Position>
              <LatitudeDegrees>36.5174927003681659698486328125</LatitudeDegrees>
              <LongitudeDegrees>-5.41011809371411800384521484375</LongitudeDegrees>
            </Position>
            <AltitudeMeters>250.399993896484375</AltitudeMeters>
            <DistanceMeters>4367.5829618549</DistanceMeters>
          </Trackpoint>
          <Trackpoint>
            <Time>2019-01-04T10:06:11.000Z</Time>
            <Position>
              <LatitudeDegrees>36.51748473756015300750732421875</LatitudeDegrees>
              <LongitudeDegrees>-5.4101129807531833648681640625</LongitudeDegrees>
            </Position>
            <AltitudeMeters>250.600006103515625</AltitudeMeters>
            <DistanceMeters>4368.5796104433</DistanceMeters>
          </Trackpoint>
          <Trackpoint>
            <Time>2019-01-04T10:06:12.000Z</Time>
            <Position>
              <LatitudeDegrees>36.51747635565698146820068359375</LatitudeDegrees>
              <LongitudeDegrees>-5.41010904125869274139404296875</LongitudeDegrees>
            </Position>
            <AltitudeMeters>250.600006103515625</AltitudeMeters>
            <DistanceMeters>4369.5762590318</DistanceMeters>
          </Trackpoint>
          <Trackpoint>
            <Time>2019-01-04T10:06:13.000Z</Time>
            <Position>
              <LatitudeDegrees>36.5174678899347782135009765625</LatitudeDegrees>
              <LongitudeDegrees>-5.41010485030710697174072265625</LongitudeDegrees>
            </Position>
            <AltitudeMeters>250.8000030517578125</AltitudeMeters>
            <DistanceMeters>4370.5908666971</DistanceMeters>
          </Trackpoint>
          <Trackpoint>
            <Time>2019-01-04T10:06:14.000Z</Time>
            <Position>
              <LatitudeDegrees>36.51745657436549663543701171875</LatitudeDegrees>
              <LongitudeDegrees>-5.41009747423231601715087890625</LongitudeDegrees>
            </Position>
            <AltitudeMeters>250.8000030517578125</AltitudeMeters>
            <DistanceMeters>4372.0130963282</DistanceMeters>
          </Trackpoint>
          <Trackpoint>
            <Time>2019-01-04T10:06:15.000Z</Time>
            <Position>
              <LatitudeDegrees>36.51744383387267589569091796875</LatitudeDegrees>
              <LongitudeDegrees>-5.41009311564266681671142578125</LongitudeDegrees>
            </Position>
            <AltitudeMeters>251</AltitudeMeters>
            <DistanceMeters>4373.485243857</DistanceMeters>
          </Trackpoint>
          <Trackpoint>
            <Time>2019-01-04T10:06:16.000Z</Time>
            <Position>
              <LatitudeDegrees>36.51743193157017230987548828125</LatitudeDegrees>
              <LongitudeDegrees>-5.4100871644914150238037109375</LongitudeDegrees>
            </Position>
            <AltitudeMeters>251.399993896484375</AltitudeMeters>
            <DistanceMeters>4374.913808618</DistanceMeters>
          </Trackpoint>
          <Trackpoint>
            <Time>2019-01-04T10:06:17.000Z</Time>
            <Position>
              <LatitudeDegrees>36.517420113086700439453125</LatitudeDegrees>
              <LongitudeDegrees>-5.41008255444467067718505859375</LongitudeDegrees>
            </Position>
            <AltitudeMeters>251.600006103515625</AltitudeMeters>
            <DistanceMeters>4376.294151376</DistanceMeters>
          </Trackpoint>
          <Trackpoint>
            <Time>2019-01-04T10:06:18.000Z</Time>
            <Position>
              <LatitudeDegrees>36.5174078755080699920654296875</LatitudeDegrees>
              <LongitudeDegrees>-5.4100814647972583770751953125</LongitudeDegrees>
            </Position>
            <AltitudeMeters>251.600006103515625</AltitudeMeters>
            <DistanceMeters>4377.6580413083</DistanceMeters>
          </Trackpoint>
          <Trackpoint>
            <Time>2019-01-04T10:06:19.000Z</Time>
            <Position>
              <LatitudeDegrees>36.51739655993878841400146484375</LatitudeDegrees>
              <LongitudeDegrees>-5.4100812971591949462890625</LongitudeDegrees>
            </Position>
            <AltitudeMeters>251.8000030517578125</AltitudeMeters>
            <DistanceMeters>4378.9187131348</DistanceMeters>
          </Trackpoint>
          <Trackpoint>
            <Time>2019-01-04T10:06:20.000Z</Time>
            <Position>
              <LatitudeDegrees>36.51738499291241168975830078125</LatitudeDegrees>
              <LongitudeDegrees>-5.41007953695952892303466796875</LongitudeDegrees>
            </Position>
            <AltitudeMeters>251.8000030517578125</AltitudeMeters>
            <DistanceMeters>4380.2147047315</DistanceMeters>
          </Trackpoint>
          <Trackpoint>
            <Time>2019-01-04T10:06:21.000Z</Time>
            <Position>
              <LatitudeDegrees>36.51737325824797153472900390625</LatitudeDegrees>
              <LongitudeDegrees>-5.41007526218891143798828125</LongitudeDegrees>
            </Position>
            <AltitudeMeters>252</AltitudeMeters>
            <DistanceMeters>4381.575280224</DistanceMeters>
          </Trackpoint>
          <Trackpoint>
            <Time>2019-01-04T10:06:22.000Z</Time>
            <Position>
              <LatitudeDegrees>36.517360098659992218017578125</LatitudeDegrees>
              <LongitudeDegrees>-5.41006964631378650665283203125</LongitudeDegrees>
            </Position>
            <AltitudeMeters>252</AltitudeMeters>
            <DistanceMeters>4383.1251190331</DistanceMeters>
          </Trackpoint>
          <Trackpoint>
            <Time>2019-01-04T10:06:23.000Z</Time>
            <Position>
              <LatitudeDegrees>36.5173451788723468780517578125</LatitudeDegrees>
              <LongitudeDegrees>-5.4100660420954227447509765625</LongitudeDegrees>
            </Position>
            <AltitudeMeters>252.1999969482421875</AltitudeMeters>
            <DistanceMeters>4384.8143508574</DistanceMeters>
          </Trackpoint>
          <Trackpoint>
            <Time>2019-01-04T10:06:24.000Z</Time>
            <Position>
              <LatitudeDegrees>36.5173297561705112457275390625</LatitudeDegrees>
              <LongitudeDegrees>-5.410062186419963836669921875</LongitudeDegrees>
            </Position>
            <AltitudeMeters>252.399993896484375</AltitudeMeters>
            <DistanceMeters>4386.5613957447</DistanceMeters>
          </Trackpoint>
          <Trackpoint>
            <Time>2019-01-04T10:06:25.000Z</Time>
            <Position>
              <LatitudeDegrees>36.517317183315753936767578125</LatitudeDegrees>
              <LongitudeDegrees>-5.4100566543638706207275390625</LongitudeDegrees>
            </Position>
            <AltitudeMeters>252.399993896484375</AltitudeMeters>
            <DistanceMeters>4388.0457604749</DistanceMeters>
          </Trackpoint>
          <Trackpoint>
            <Time>2019-01-04T10:06:26.000Z</Time>
            <Position>
              <LatitudeDegrees>36.51730570010840892791748046875</LatitudeDegrees>
              <LongitudeDegrees>-5.4100533016026020050048828125</LongitudeDegrees>
            </Position>
            <AltitudeMeters>252.399993896484375</AltitudeMeters>
            <DistanceMeters>4389.3624892538</DistanceMeters>
          </Trackpoint>
          <Trackpoint>
            <Time>2019-01-04T10:06:27.000Z</Time>
            <Position>
              <LatitudeDegrees>36.517296396195888519287109375</LatitudeDegrees>
              <LongitudeDegrees>-5.41005254723131656646728515625</LongitudeDegrees>
            </Position>
            <AltitudeMeters>252.399993896484375</AltitudeMeters>
            <DistanceMeters>4390.4034547543</DistanceMeters>
          </Trackpoint>
          <Trackpoint>
            <Time>2019-01-04T10:06:28.000Z</Time>
            <Position>
              <LatitudeDegrees>36.5172858349978923797607421875</LatitudeDegrees>
              <LongitudeDegrees>-5.410052798688411712646484375</LongitudeDegrees>
            </Position>
            <AltitudeMeters>252.600006103515625</AltitudeMeters>
            <DistanceMeters>4391.5750227718</DistanceMeters>
          </Trackpoint>
          <Trackpoint>
            <Time>2019-01-04T10:06:29.000Z</Time>
            <Position>
              <LatitudeDegrees>36.51727586053311824798583984375</LatitudeDegrees>
              <LongitudeDegrees>-5.410052128136157989501953125</LongitudeDegrees>
            </Position>
            <AltitudeMeters>252.600006103515625</AltitudeMeters>
            <DistanceMeters>4392.687281947</DistanceMeters>
          </Trackpoint>
          <Trackpoint>
            <Time>2019-01-04T10:06:30.000Z</Time>
            <Position>
              <LatitudeDegrees>36.517265550792217254638671875</LatitudeDegrees>
              <LongitudeDegrees>-5.41004986502230167388916015625</LongitudeDegrees>
            </Position>
            <AltitudeMeters>252.600006103515625</AltitudeMeters>
            <DistanceMeters>4393.8511167577</DistanceMeters>
          </Trackpoint>
          <Trackpoint>
            <Time>2019-01-04T10:06:31.000Z</Time>
            <Position>
              <LatitudeDegrees>36.5172546543180942535400390625</LatitudeDegrees>
              <LongitudeDegrees>-5.410046093165874481201171875</LongitudeDegrees>
            </Position>
            <AltitudeMeters>252.600006103515625</AltitudeMeters>
            <DistanceMeters>4395.1117885842</DistanceMeters>
          </Trackpoint>
          <Trackpoint>
            <Time>2019-01-04T10:06:32.000Z</Time>
            <Position>
              <LatitudeDegrees>36.51724216528236865997314453125</LatitudeDegrees>
              <LongitudeDegrees>-5.41004567407071590423583984375</LongitudeDegrees>
            </Position>
            <AltitudeMeters>252.600006103515625</AltitudeMeters>
            <DistanceMeters>4396.4986578219</DistanceMeters>
          </Trackpoint>
          <Trackpoint>
            <Time>2019-01-04T10:06:33.000Z</Time>
            <Position>
              <LatitudeDegrees>36.51723093353211879730224609375</LatitudeDegrees>
              <LongitudeDegrees>-5.41004148311913013458251953125</LongitudeDegrees>
            </Position>
            <AltitudeMeters>252.8000030517578125</AltitudeMeters>
            <DistanceMeters>4397.801598485</DistanceMeters>
          </Trackpoint>
          <Trackpoint>
            <Time>2019-01-04T10:06:34.000Z</Time>
            <Position>
              <LatitudeDegrees>36.5172181092202663421630859375</LatitudeDegrees>
              <LongitudeDegrees>-5.41003762744367122650146484375</LongitudeDegrees>
            </Position>
            <AltitudeMeters>252.8000030517578125</AltitudeMeters>
            <DistanceMeters>4399.2675992332</DistanceMeters>
          </Trackpoint>
          <Trackpoint>
            <Time>2019-01-04T10:06:35.000Z</Time>
            <Position>
              <LatitudeDegrees>36.517207212746143341064453125</LatitudeDegrees>
              <LongitudeDegrees>-5.41003502905368804931640625</LongitudeDegrees>
            </Position>
            <AltitudeMeters>252.8000030517578125</AltitudeMeters>
            <DistanceMeters>4400.4992862237</DistanceMeters>
          </Trackpoint>
          <Trackpoint>
            <Time>2019-01-04T10:06:36.000Z</Time>
            <Position>
              <LatitudeDegrees>36.51719472371041774749755859375</LatitudeDegrees>
              <LongitudeDegrees>-5.41003276593983173370361328125</LongitudeDegrees>
            </Position>
            <AltitudeMeters>252.8000030517578125</AltitudeMeters>
            <DistanceMeters>4401.905553176</DistanceMeters>
          </Trackpoint>
          <Trackpoint>
            <Time>2019-01-04T10:06:37.000Z</Time>
            <Position>
              <LatitudeDegrees>36.5171812288463115692138671875</LatitudeDegrees>
              <LongitudeDegrees>-5.41003159247338771820068359375</LongitudeDegrees>
            </Position>
            <AltitudeMeters>253</AltitudeMeters>
            <DistanceMeters>4403.4080574559</DistanceMeters>
          </Trackpoint>
          <Trackpoint>
            <Time>2019-01-04T10:06:38.000Z</Time>
            <Position>
              <LatitudeDegrees>36.51716731488704681396484375</LatitudeDegrees>
              <LongitudeDegrees>-5.41003377176821231842041015625</LongitudeDegrees>
            </Position>
            <AltitudeMeters>253</AltitudeMeters>
            <DistanceMeters>4404.972394605</DistanceMeters>
          </Trackpoint>
          <Trackpoint>
            <Time>2019-01-04T10:06:39.000Z</Time>
            <Position>
              <LatitudeDegrees>36.51715365238487720489501953125</LatitudeDegrees>
              <LongitudeDegrees>-5.41003025136888027191162109375</LongitudeDegrees>
            </Position>
            <AltitudeMeters>253</AltitudeMeters>
            <DistanceMeters>4406.5280489648</DistanceMeters>
          </Trackpoint>
          <Trackpoint>
            <Time>2019-01-04T10:06:40.000Z</Time>
            <Position>
              <LatitudeDegrees>36.5171406604349613189697265625</LatitudeDegrees>
              <LongitudeDegrees>-5.41002538986504077911376953125</LongitudeDegrees>
            </Position>
            <AltitudeMeters>253</AltitudeMeters>
            <DistanceMeters>4408.0365512896</DistanceMeters>
          </Trackpoint>
          <Trackpoint>
            <Time>2019-01-04T10:06:41.000Z</Time>
            <Position>
              <LatitudeDegrees>36.5171265788376331329345703125</LatitudeDegrees>
              <LongitudeDegrees>-5.41002119891345500946044921875</LongitudeDegrees>
            </Position>
            <AltitudeMeters>253</AltitudeMeters>
            <DistanceMeters>4409.6492081086</DistanceMeters>
          </Trackpoint>
          <Trackpoint>
            <Time>2019-01-04T10:06:42.000Z</Time>
            <Position>
              <LatitudeDegrees>36.517113335430622100830078125</LatitudeDegrees>
              <LongitudeDegrees>-5.4100204445421695709228515625</LongitudeDegrees>
            </Position>
            <AltitudeMeters>253</AltitudeMeters>
            <DistanceMeters>4411.1274768593</DistanceMeters>
          </Trackpoint>
          <Trackpoint>
            <Time>2019-01-04T10:06:43.000Z</Time>
            <Position>
              <LatitudeDegrees>36.51710218749940395355224609375</LatitudeDegrees>
              <LongitudeDegrees>-5.41001935489475727081298828125</LongitudeDegrees>
            </Position>
            <AltitudeMeters>253</AltitudeMeters>
            <DistanceMeters>4412.3737405346</DistanceMeters>
          </Trackpoint>
          <Trackpoint>
            <Time>2019-01-04T10:06:44.000Z</Time>
            <Position>
              <LatitudeDegrees>36.517089195549488067626953125</LatitudeDegrees>
              <LongitudeDegrees>-5.41001625359058380126953125</LongitudeDegrees>
            </Position>
            <AltitudeMeters>252.8000030517578125</AltitudeMeters>
            <DistanceMeters>4413.8458880634</DistanceMeters>
          </Trackpoint>
          <Trackpoint>
            <Time>2019-01-04T10:06:45.000Z</Time>
            <Position>
              <LatitudeDegrees>36.5170754492282867431640625</LatitudeDegrees>
              <LongitudeDegrees>-5.4100142419338226318359375</LongitudeDegrees>
            </Position>
            <AltitudeMeters>252.399993896484375</AltitudeMeters>
            <DistanceMeters>4415.386962398</DistanceMeters>
          </Trackpoint>
          <Trackpoint>
            <Time>2019-01-04T10:06:46.000Z</Time>
            <Position>
              <LatitudeDegrees>36.517061702907085418701171875</LatitudeDegrees>
              <LongitudeDegrees>-5.41001021862030029296875</LongitudeDegrees>
            </Position>
            <AltitudeMeters>252.399993896484375</AltitudeMeters>
            <DistanceMeters>4416.9570613978</DistanceMeters>
          </Trackpoint>
          <Trackpoint>
            <Time>2019-01-04T10:06:47.000Z</Time>
            <Position>
              <LatitudeDegrees>36.5170486271381378173828125</LatitudeDegrees>
              <LongitudeDegrees>-5.4100088775157928466796875</LongitudeDegrees>
            </Position>
            <AltitudeMeters>252.1999969482421875</AltitudeMeters>
            <DistanceMeters>4418.4168894838</DistanceMeters>
          </Trackpoint>
          <Trackpoint>
            <Time>2019-01-04T10:06:48.000Z</Time>
            <Position>
              <LatitudeDegrees>36.5170370601117610931396484375</LatitudeDegrees>
              <LongitudeDegrees>-5.41000795550644397735595703125</LongitudeDegrees>
            </Position>
            <AltitudeMeters>252.1999969482421875</AltitudeMeters>
            <DistanceMeters>4419.705894552</DistanceMeters>
          </Trackpoint>
          <Trackpoint>
            <Time>2019-01-04T10:06:49.000Z</Time>
            <Position>
              <LatitudeDegrees>36.51702306233346462249755859375</LatitudeDegrees>
              <LongitudeDegrees>-5.41000661440193653106689453125</LongitudeDegrees>
            </Position>
            <AltitudeMeters>252.1999969482421875</AltitudeMeters>
            <DistanceMeters>4421.2673428028</DistanceMeters>
          </Trackpoint>
          <Trackpoint>
            <Time>2019-01-04T10:06:50.000Z</Time>
            <Position>
              <LatitudeDegrees>36.517006717622280120849609375</LatitudeDegrees>
              <LongitudeDegrees>-5.410001836717128753662109375</LongitudeDegrees>
            </Position>
            <AltitudeMeters>252.1999969482421875</AltitudeMeters>
            <DistanceMeters>4423.1343215138</DistanceMeters>
          </Trackpoint>
          <Trackpoint>
            <Time>2019-01-04T10:06:51.000Z</Time>
            <Position>
              <LatitudeDegrees>36.5169923007488250732421875</LatitudeDegrees>
              <LongitudeDegrees>-5.40999622084200382232666015625</LongitudeDegrees>
            </Position>
            <AltitudeMeters>252.1999969482421875</AltitudeMeters>
            <DistanceMeters>4424.8128279482</DistanceMeters>
          </Trackpoint>
          <Trackpoint>
            <Time>2019-01-04T10:06:52.000Z</Time>
            <Position>
              <LatitudeDegrees>36.5169797278940677642822265625</LatitudeDegrees>
              <LongitudeDegrees>-5.4099932871758937835693359375</LongitudeDegrees>
            </Position>
            <AltitudeMeters>252.1999969482421875</AltitudeMeters>
            <DistanceMeters>4426.2382286638</DistanceMeters>
          </Trackpoint>
          <Trackpoint>
            <Time>2019-01-04T10:06:53.000Z</Time>
            <Position>
              <LatitudeDegrees>36.5169686637818813323974609375</LatitudeDegrees>
              <LongitudeDegrees>-5.409989096224308013916015625</LongitudeDegrees>
            </Position>
            <AltitudeMeters>252.1999969482421875</AltitudeMeters>
            <DistanceMeters>4427.5272337319</DistanceMeters>
          </Trackpoint>
          <Trackpoint>
            <Time>2019-01-04T10:06:54.000Z</Time>
            <Position>
              <LatitudeDegrees>36.51695902459323406219482421875</LatitudeDegrees>
              <LongitudeDegrees>-5.40997895412147045135498046875</LongitudeDegrees>
            </Position>
            <AltitudeMeters>252.1999969482421875</AltitudeMeters>
            <DistanceMeters>4428.9302863556</DistanceMeters>
          </Trackpoint>
          <Trackpoint>
            <Time>2019-01-04T10:06:55.000Z</Time>
            <Position>
              <LatitudeDegrees>36.5169482119381427764892578125</LatitudeDegrees>
              <LongitudeDegrees>-5.40997275151312351226806640625</LongitudeDegrees>
            </Position>
            <AltitudeMeters>252.399993896484375</AltitudeMeters>
            <DistanceMeters>4430.2606603568</DistanceMeters>
          </Trackpoint>
          <Trackpoint>
            <Time>2019-01-04T10:06:56.000Z</Time>
            <Position>
              <LatitudeDegrees>36.51693689636886119842529296875</LatitudeDegrees>
              <LongitudeDegrees>-5.4099688120186328887939453125</LongitudeDegrees>
            </Position>
            <AltitudeMeters>252.399993896484375</AltitudeMeters>
            <DistanceMeters>4431.5705132204</DistanceMeters>
          </Trackpoint>
          <Trackpoint>
            <Time>2019-01-04T10:06:57.000Z</Time>
            <Position>
              <LatitudeDegrees>36.51692650280892848968505859375</LatitudeDegrees>
              <LongitudeDegrees>-5.40996260941028594970703125</LongitudeDegrees>
            </Position>
            <AltitudeMeters>252.399993896484375</AltitudeMeters>
            <DistanceMeters>4432.8524936855</DistanceMeters>
          </Trackpoint>
          <Trackpoint>
            <Time>2019-01-04T10:06:58.000Z</Time>
            <Position>
              <LatitudeDegrees>36.51691745035350322723388671875</LatitudeDegrees>
              <LongitudeDegrees>-5.409954898059368133544921875</LongitudeDegrees>
            </Position>
            <AltitudeMeters>252.1999969482421875</AltitudeMeters>
            <DistanceMeters>4434.0768272551</DistanceMeters>
          </Trackpoint>
          <Trackpoint>
            <Time>2019-01-04T10:06:59.000Z</Time>
            <Position>
              <LatitudeDegrees>36.51690873317420482635498046875</LatitudeDegrees>
              <LongitudeDegrees>-5.409942157566547393798828125</LongitudeDegrees>
            </Position>
            <AltitudeMeters>252.1999969482421875</AltitudeMeters>
            <DistanceMeters>4435.5733094495</DistanceMeters>
          </Trackpoint>
          <Trackpoint>
            <Time>2019-01-04T10:07:00.000Z</Time>
            <Position>
              <LatitudeDegrees>36.51689984835684299468994140625</LatitudeDegrees>
              <LongitudeDegrees>-5.40993251837790012359619140625</LongitudeDegrees>
            </Position>
            <AltitudeMeters>252</AltitudeMeters>
            <DistanceMeters>4436.8831623131</DistanceMeters>
          </Trackpoint>
          <Trackpoint>
            <Time>2019-01-04T10:07:01.000Z</Time>
            <Position>
              <LatitudeDegrees>36.51689062826335430145263671875</LatitudeDegrees>
              <LongitudeDegrees>-5.4099228791892528533935546875</LongitudeDegrees>
            </Position>
            <AltitudeMeters>251.8000030517578125</AltitudeMeters>
            <DistanceMeters>4438.2203067091</DistanceMeters>
          </Trackpoint>
          <Trackpoint>
            <Time>2019-01-04T10:07:02.000Z</Time>
            <Position>
              <LatitudeDegrees>36.51688056997954845428466796875</LatitudeDegrees>
              <LongitudeDegrees>-5.4099134914577007293701171875</LongitudeDegrees>
            </Position>
            <AltitudeMeters>251.8000030517578125</AltitudeMeters>
            <DistanceMeters>4439.616908482</DistanceMeters>
          </Trackpoint>
          <Trackpoint>
            <Time>2019-01-04T10:07:03.000Z</Time>
            <Position>
              <LatitudeDegrees>36.51687361299991607666015625</LatitudeDegrees>
              <LongitudeDegrees>-5.40990217588841915130615234375</LongitudeDegrees>
            </Position>
            <AltitudeMeters>251.600006103515625</AltitudeMeters>
            <DistanceMeters>4440.89182564</DistanceMeters>
          </Trackpoint>
          <Trackpoint>
            <Time>2019-01-04T10:07:04.000Z</Time>
            <Position>
              <LatitudeDegrees>36.5168677456676959991455078125</LatitudeDegrees>
              <LongitudeDegrees>-5.40989446453750133514404296875</LongitudeDegrees>
            </Position>
            <AltitudeMeters>251.399993896484375</AltitudeMeters>
            <DistanceMeters>4441.8420927837</DistanceMeters>
          </Trackpoint>
          <Trackpoint>
            <Time>2019-01-04T10:07:05.000Z</Time>
            <Position>
              <LatitudeDegrees>36.516860537230968475341796875</LatitudeDegrees>
              <LongitudeDegrees>-5.40988591499626636505126953125</LongitudeDegrees>
            </Position>
            <AltitudeMeters>251.399993896484375</AltitudeMeters>
            <DistanceMeters>4442.9502851842</DistanceMeters>
          </Trackpoint>
          <Trackpoint>
            <Time>2019-01-04T10:07:06.000Z</Time>
            <Position>
              <LatitudeDegrees>36.516851149499416351318359375</LatitudeDegrees>
              <LongitudeDegrees>-5.40987770073115825653076171875</LongitudeDegrees>
            </Position>
            <AltitudeMeters>251.399993896484375</AltitudeMeters>
            <DistanceMeters>4444.2252023422</DistanceMeters>
          </Trackpoint>
          <Trackpoint>
            <Time>2019-01-04T10:07:07.000Z</Time>
            <Position>
              <LatitudeDegrees>36.51684167794883251190185546875</LatitudeDegrees>
              <LongitudeDegrees>-5.40986898355185985565185546875</LongitudeDegrees>
            </Position>
            <AltitudeMeters>251.399993896484375</AltitudeMeters>
            <DistanceMeters>4445.5316036772</DistanceMeters>
          </Trackpoint>
          <Trackpoint>
            <Time>2019-01-04T10:07:08.000Z</Time>
            <Position>
              <LatitudeDegrees>36.5168328769505023956298828125</LatitudeDegrees>
              <LongitudeDegrees>-5.409860350191593170166015625</LongitudeDegrees>
            </Position>
            <AltitudeMeters>251.399993896484375</AltitudeMeters>
            <DistanceMeters>4446.7778673524</DistanceMeters>
          </Trackpoint>
          <Trackpoint>
            <Time>2019-01-04T10:07:09.000Z</Time>
            <Position>
              <LatitudeDegrees>36.51682374067604541778564453125</LatitudeDegrees>
              <LongitudeDegrees>-5.4098507948219776153564453125</LongitudeDegrees>
            </Position>
            <AltitudeMeters>251.399993896484375</AltitudeMeters>
            <DistanceMeters>4448.1082413536</DistanceMeters>
          </Trackpoint>
          <Trackpoint>
            <Time>2019-01-04T10:07:10.000Z</Time>
            <Position>
              <LatitudeDegrees>36.51681267656385898590087890625</LatitudeDegrees>
              <LongitudeDegrees>-5.409845598042011260986328125</LongitudeDegrees>
            </Position>
            <AltitudeMeters>251.399993896484375</AltitudeMeters>
            <DistanceMeters>4449.4249701325</DistanceMeters>
          </Trackpoint>
          <Trackpoint>
            <Time>2019-01-04T10:07:11.000Z</Time>
            <Position>
              <LatitudeDegrees>36.51679842732846736907958984375</LatitudeDegrees>
              <LongitudeDegrees>-5.40983813814818859100341796875</LongitudeDegrees>
            </Position>
            <AltitudeMeters>251.600006103515625</AltitudeMeters>
            <DistanceMeters>4451.1459771266</DistanceMeters>
          </Trackpoint>
          <Trackpoint>
            <Time>2019-01-04T10:07:12.000Z</Time>
            <Position>
              <LatitudeDegrees>36.51678350754082202911376953125</LatitudeDegrees>
              <LongitudeDegrees>-5.4098316840827465057373046875</LongitudeDegrees>
            </Position>
            <AltitudeMeters>251.8000030517578125</AltitudeMeters>
            <DistanceMeters>4452.9033291528</DistanceMeters>
          </Trackpoint>
          <Trackpoint>
            <Time>2019-01-04T10:07:13.000Z</Time>
            <Position>
              <LatitudeDegrees>36.5167711861431598663330078125</LatitudeDegrees>
              <LongitudeDegrees>-5.4098279960453510284423828125</LongitudeDegrees>
            </Position>
            <AltitudeMeters>251.8000030517578125</AltitudeMeters>
            <DistanceMeters>4454.3128031035</DistanceMeters>
          </Trackpoint>
          <Trackpoint>
            <Time>2019-01-04T10:07:14.000Z</Time>
            <Position>
              <LatitudeDegrees>36.5167611278593540191650390625</LatitudeDegrees>
              <LongitudeDegrees>-5.40982045233249664306640625</LongitudeDegrees>
            </Position>
            <AltitudeMeters>252</AltitudeMeters>
            <DistanceMeters>4455.6157437665</DistanceMeters>
          </Trackpoint>
          <Trackpoint>
            <Time>2019-01-04T10:07:15.000Z</Time>
            <Position>
              <LatitudeDegrees>36.5167514048516750335693359375</LatitudeDegrees>
              <LongitudeDegrees>-5.4098108969628810882568359375</LongitudeDegrees>
            </Position>
            <AltitudeMeters>252</AltitudeMeters>
            <DistanceMeters>4456.9928116854</DistanceMeters>
          </Trackpoint>
          <Trackpoint>
            <Time>2019-01-04T10:07:16.000Z</Time>
            <Position>
              <LatitudeDegrees>36.5167467109858989715576171875</LatitudeDegrees>
              <LongitudeDegrees>-5.409801006317138671875</LongitudeDegrees>
            </Position>
            <AltitudeMeters>252</AltitudeMeters>
            <DistanceMeters>4458.0250660244</DistanceMeters>
          </Trackpoint>
          <Trackpoint>
            <Time>2019-01-04T10:07:17.000Z</Time>
            <Position>
              <LatitudeDegrees>36.51673925109207630157470703125</LatitudeDegrees>
              <LongitudeDegrees>-5.40979706682264804840087890625</LongitudeDegrees>
            </Position>
            <AltitudeMeters>252</AltitudeMeters>
            <DistanceMeters>4458.9265685923</DistanceMeters>
          </Trackpoint>
          <Trackpoint>
            <Time>2019-01-04T10:07:18.000Z</Time>
            <Position>
              <LatitudeDegrees>36.516729779541492462158203125</LatitudeDegrees>
              <LongitudeDegrees>-5.40979497134685516357421875</LongitudeDegrees>
            </Position>
            <AltitudeMeters>251.8000030517578125</AltitudeMeters>
            <DistanceMeters>4459.9932408156</DistanceMeters>
          </Trackpoint>
          <Trackpoint>
            <Time>2019-01-04T10:07:19.000Z</Time>
            <Position>
              <LatitudeDegrees>36.51671561412513256072998046875</LatitudeDegrees>
              <LongitudeDegrees>-5.40979572571814060211181640625</LongitudeDegrees>
            </Position>
            <AltitudeMeters>251.8000030517578125</AltitudeMeters>
            <DistanceMeters>4461.571943162</DistanceMeters>
          </Trackpoint>
          <Trackpoint>
            <Time>2019-01-04T10:07:20.000Z</Time>
            <Position>
              <LatitudeDegrees>36.51670438237488269805908203125</LatitudeDegrees>
              <LongitudeDegrees>-5.40979539044201374053955078125</LongitudeDegrees>
            </Position>
            <AltitudeMeters>251.600006103515625</AltitudeMeters>
            <DistanceMeters>4462.8182068373</DistanceMeters>
          </Trackpoint>
          <Trackpoint>
            <Time>2019-01-04T10:07:21.000Z</Time>
            <Position>
              <LatitudeDegrees>36.51669256389141082763671875</LatitudeDegrees>
              <LongitudeDegrees>-5.40979471988976001739501953125</LongitudeDegrees>
            </Position>
            <AltitudeMeters>251.399993896484375</AltitudeMeters>
            <DistanceMeters>4464.1349356162</DistanceMeters>
          </Trackpoint>
          <Trackpoint>
            <Time>2019-01-04T10:07:22.000Z</Time>
            <Position>
              <LatitudeDegrees>36.516681499779224395751953125</LatitudeDegrees>
              <LongitudeDegrees>-5.40979756973683834075927734375</LongitudeDegrees>
            </Position>
            <AltitudeMeters>251.1999969482421875</AltitudeMeters>
            <DistanceMeters>4465.388424069</DistanceMeters>
          </Trackpoint>
          <Trackpoint>
            <Time>2019-01-04T10:07:23.000Z</Time>
            <Position>
              <LatitudeDegrees>36.51667378842830657958984375</LatitudeDegrees>
              <LongitudeDegrees>-5.4097974859178066253662109375</LongitudeDegrees>
            </Position>
            <AltitudeMeters>251</AltitudeMeters>
            <DistanceMeters>4466.238368841</DistanceMeters>
          </Trackpoint>
          <Trackpoint>
            <Time>2019-01-04T10:07:24.000Z</Time>
            <Position>
              <LatitudeDegrees>36.51666037738323211669921875</LatitudeDegrees>
              <LongitudeDegrees>-5.40980276651680469512939453125</LongitudeDegrees>
            </Position>
            <AltitudeMeters>250.8000030517578125</AltitudeMeters>
            <DistanceMeters>4467.8055895635</DistanceMeters>
          </Trackpoint>
          <Trackpoint>
            <Time>2019-01-04T10:07:25.000Z</Time>
            <Position>
              <LatitudeDegrees>36.51665258221328258514404296875</LatitudeDegrees>
              <LongitudeDegrees>-5.4098050296306610107421875</LongitudeDegrees>
            </Position>
            <AltitudeMeters>250.600006103515625</AltitudeMeters>
            <DistanceMeters>4468.7070921314</DistanceMeters>
          </Trackpoint>
          <Trackpoint>
            <Time>2019-01-04T10:07:26.000Z</Time>
            <Position>
              <LatitudeDegrees>36.51664034463465213775634765625</LatitudeDegrees>
              <LongitudeDegrees>-5.40980561636388301849365234375</LongitudeDegrees>
            </Position>
            <AltitudeMeters>250.399993896484375</AltitudeMeters>
            <DistanceMeters>4470.0709820637</DistanceMeters>
          </Trackpoint>
          <Trackpoint>
            <Time>2019-01-04T10:07:27.000Z</Time>
            <Position>
              <LatitudeDegrees>36.5166300348937511444091796875</LatitudeDegrees>
              <LongitudeDegrees>-5.40980209596455097198486328125</LongitudeDegrees>
            </Position>
            <AltitudeMeters>250</AltitudeMeters>
            <DistanceMeters>4471.2578653458</DistanceMeters>
          </Trackpoint>
          <Trackpoint>
            <Time>2019-01-04T10:07:28.000Z</Time>
            <Position>
              <LatitudeDegrees>36.5166216529905796051025390625</LatitudeDegrees>
              <LongitudeDegrees>-5.40980008430778980255126953125</LongitudeDegrees>
            </Position>
            <AltitudeMeters>249.8000030517578125</AltitudeMeters>
            <DistanceMeters>4472.2081324895</DistanceMeters>
          </Trackpoint>
          <Trackpoint>
            <Time>2019-01-04T10:07:29.000Z</Time>
            <Position>
              <LatitudeDegrees>36.51661218143999576568603515625</LatitudeDegrees>
              <LongitudeDegrees>-5.40979539044201374053955078125</LongitudeDegrees>
            </Position>
            <AltitudeMeters>249.600006103515625</AltitudeMeters>
            <DistanceMeters>4473.3405064803</DistanceMeters>
          </Trackpoint>
          <Trackpoint>
            <Time>2019-01-04T10:07:30.000Z</Time>
            <Position>
              <LatitudeDegrees>36.5166001953184604644775390625</LatitudeDegrees>
              <LongitudeDegrees>-5.40979354642331600189208984375</LongitudeDegrees>
            </Position>
            <AltitudeMeters>249.600006103515625</AltitudeMeters>
            <DistanceMeters>4474.6843871627</DistanceMeters>
          </Trackpoint>
          <Trackpoint>
            <Time>2019-01-04T10:07:31.000Z</Time>
            <Position>
              <LatitudeDegrees>36.51659156195819377899169921875</LatitudeDegrees>
              <LongitudeDegrees>-5.409792624413967132568359375</LongitudeDegrees>
            </Position>
            <AltitudeMeters>249.399993896484375</AltitudeMeters>
            <DistanceMeters>4475.6488029827</DistanceMeters>
          </Trackpoint>
          <Trackpoint>
            <Time>2019-01-04T10:07:32.000Z</Time>
            <Position>
              <LatitudeDegrees>36.5165804140269756317138671875</LatitudeDegrees>
              <LongitudeDegrees>-5.40978851728141307830810546875</LongitudeDegrees>
            </Position>
            <AltitudeMeters>249.1999969482421875</AltitudeMeters>
            <DistanceMeters>4476.9447945793</DistanceMeters>
          </Trackpoint>
          <Trackpoint>
            <Time>2019-01-04T10:07:33.000Z</Time>
            <Position>
              <LatitudeDegrees>36.51656574569642543792724609375</LatitudeDegrees>
              <LongitudeDegrees>-5.40978415869176387786865234375</LongitudeDegrees>
            </Position>
            <AltitudeMeters>249.1999969482421875</AltitudeMeters>
            <DistanceMeters>4478.6286722481</DistanceMeters>
          </Trackpoint>
          <Trackpoint>
            <Time>2019-01-04T10:07:34.000Z</Time>
            <Position>
              <LatitudeDegrees>36.51655443012714385986328125</LatitudeDegrees>
              <LongitudeDegrees>-5.40977627970278263092041015625</LongitudeDegrees>
            </Position>
            <AltitudeMeters>249</AltitudeMeters>
            <DistanceMeters>4480.0698237259</DistanceMeters>
          </Trackpoint>
          <Trackpoint>
            <Time>2019-01-04T10:07:35.000Z</Time>
            <Position>
              <LatitudeDegrees>36.51654093526303768157958984375</LatitudeDegrees>
              <LongitudeDegrees>-5.4097706638276576995849609375</LongitudeDegrees>
            </Position>
            <AltitudeMeters>249</AltitudeMeters>
            <DistanceMeters>4481.6542356836</DistanceMeters>
          </Trackpoint>
          <Trackpoint>
            <Time>2019-01-04T10:07:36.000Z</Time>
            <Position>
              <LatitudeDegrees>36.516525931656360626220703125</LatitudeDegrees>
              <LongitudeDegrees>-5.4097647964954376220703125</LongitudeDegrees>
            </Position>
            <AltitudeMeters>248.8000030517578125</AltitudeMeters>
            <DistanceMeters>4483.4012805708</DistanceMeters>
          </Trackpoint>
          <Trackpoint>
            <Time>2019-01-04T10:07:37.000Z</Time>
            <Position>
              <LatitudeDegrees>36.51651419699192047119140625</LatitudeDegrees>
              <LongitudeDegrees>-5.40975733660161495208740234375</LongitudeDegrees>
            </Position>
            <AltitudeMeters>248.8000030517578125</AltitudeMeters>
            <DistanceMeters>4484.867281319</DistanceMeters>
          </Trackpoint>
          <Trackpoint>
            <Time>2019-01-04T10:07:38.000Z</Time>
            <Position>
              <LatitudeDegrees>36.51650120504200458526611328125</LatitudeDegrees>
              <LongitudeDegrees>-5.40974727831780910491943359375</LongitudeDegrees>
            </Position>
            <AltitudeMeters>248.600006103515625</AltitudeMeters>
            <DistanceMeters>4486.5698248687</DistanceMeters>
          </Trackpoint>
          <Trackpoint>
            <Time>2019-01-04T10:07:39.000Z</Time>
            <Position>
              <LatitudeDegrees>36.51649081148207187652587890625</LatitudeDegrees>
              <LongitudeDegrees>-5.40973520837724208831787109375</LongitudeDegrees>
            </Position>
            <AltitudeMeters>248.399993896484375</AltitudeMeters>
            <DistanceMeters>4488.1513845972</DistanceMeters>
          </Trackpoint>
          <Trackpoint>
            <Time>2019-01-04T10:07:40.000Z</Time>
            <Position>
              <LatitudeDegrees>36.516478322446346282958984375</LatitudeDegrees>
              <LongitudeDegrees>-5.4097270779311656951904296875</LongitudeDegrees>
            </Position>
            <AltitudeMeters>248.1999969482421875</AltitudeMeters>
            <DistanceMeters>4489.721483597</DistanceMeters>
          </Trackpoint>
          <Trackpoint>
            <Time>2019-01-04T10:07:41.000Z</Time>
            <Position>
              <LatitudeDegrees>36.51646398939192295074462890625</LatitudeDegrees>
              <LongitudeDegrees>-5.40971777401864528656005859375</LongitudeDegrees>
            </Position>
            <AltitudeMeters>247.8000030517578125</AltitudeMeters>
            <DistanceMeters>4491.5219828176</DistanceMeters>
          </Trackpoint>
          <Trackpoint>
            <Time>2019-01-04T10:07:42.000Z</Time>
            <Position>
              <LatitudeDegrees>36.51644906960427761077880859375</LatitudeDegrees>
              <LongitudeDegrees>-5.40970520116388797760009765625</LongitudeDegrees>
            </Position>
            <AltitudeMeters>247.399993896484375</AltitudeMeters>
            <DistanceMeters>4493.5288246385</DistanceMeters>
          </Trackpoint>
          <Trackpoint>
            <Time>2019-01-04T10:07:43.000Z</Time>
            <Position>
              <LatitudeDegrees>36.5164389275014400482177734375</LatitudeDegrees>
              <LongitudeDegrees>-5.40969447232782840728759765625</LongitudeDegrees>
            </Position>
            <AltitudeMeters>247</AltitudeMeters>
            <DistanceMeters>4495.0101445148</DistanceMeters>
          </Trackpoint>
          <Trackpoint>
            <Time>2019-01-04T10:07:44.000Z</Time>
            <Position>
              <LatitudeDegrees>36.5164275281131267547607421875</LatitudeDegrees>
              <LongitudeDegrees>-5.40968541987240314483642578125</LongitudeDegrees>
            </Position>
            <AltitudeMeters>246.8000030517578125</AltitudeMeters>
            <DistanceMeters>4496.5126487946</DistanceMeters>
          </Trackpoint>
          <Trackpoint>
            <Time>2019-01-04T10:07:45.000Z</Time>
            <Position>
              <LatitudeDegrees>36.51641738601028919219970703125</LatitudeDegrees>
              <LongitudeDegrees>-5.40967117063701152801513671875</LongitudeDegrees>
            </Position>
            <AltitudeMeters>246.399993896484375</AltitudeMeters>
            <DistanceMeters>4498.2125383387</DistanceMeters>
          </Trackpoint>
          <Trackpoint>
            <Time>2019-01-04T10:07:46.000Z</Time>
            <Position>
              <LatitudeDegrees>36.5164102613925933837890625</LatitudeDegrees>
              <LongitudeDegrees>-5.4096556641161441802978515625</LongitudeDegrees>
            </Position>
            <AltitudeMeters>246.1999969482421875</AltitudeMeters>
            <DistanceMeters>4499.8111351089</DistanceMeters>
          </Trackpoint>
          <Trackpoint>
            <Time>2019-01-04T10:07:47.000Z</Time>
            <Position>
              <LatitudeDegrees>36.51640062220394611358642578125</LatitudeDegrees>
              <LongitudeDegrees>-5.40964351035654544830322265625</LongitudeDegrees>
            </Position>
            <AltitudeMeters>245.8000030517578125</AltitudeMeters>
            <DistanceMeters>4501.3374901536</DistanceMeters>
          </Trackpoint>
          <Trackpoint>
            <Time>2019-01-04T10:07:48.000Z</Time>
            <Position>
              <LatitudeDegrees>36.51639073155820369720458984375</LatitudeDegrees>
              <LongitudeDegrees>-5.40963269770145416259765625</LongitudeDegrees>
            </Position>
            <AltitudeMeters>245.8000030517578125</AltitudeMeters>
            <DistanceMeters>4502.8034909018</DistanceMeters>
          </Trackpoint>
          <Trackpoint>
            <Time>2019-01-04T10:07:49.000Z</Time>
            <Position>
              <LatitudeDegrees>36.51638142764568328857421875</LatitudeDegrees>
              <LongitudeDegrees>-5.4096226394176483154296875</LongitudeDegrees>
            </Position>
            <AltitudeMeters>245.600006103515625</AltitudeMeters>
            <DistanceMeters>4504.177276175</DistanceMeters>
          </Trackpoint>
          <Trackpoint>
            <Time>2019-01-04T10:07:50.000Z</Time>
            <Position>
              <LatitudeDegrees>36.51637245900928974151611328125</LatitudeDegrees>
              <LongitudeDegrees>-5.4096134193241596221923828125</LongitudeDegrees>
            </Position>
            <AltitudeMeters>245.600006103515625</AltitudeMeters>
            <DistanceMeters>4505.4732677716</DistanceMeters>
          </Trackpoint>
          <Trackpoint>
            <Time>2019-01-04T10:07:51.000Z</Time>
            <Position>
              <LatitudeDegrees>36.51636240072548389434814453125</LatitudeDegrees>
              <LongitudeDegrees>-5.40960411541163921356201171875</LongitudeDegrees>
            </Position>
            <AltitudeMeters>245.8000030517578125</AltitudeMeters>
            <DistanceMeters>4506.8698695444</DistanceMeters>
          </Trackpoint>
          <Trackpoint>
            <Time>2019-01-04T10:07:52.000Z</Time>
            <Position>
              <LatitudeDegrees>36.5163551084697246551513671875</LatitudeDegrees>
              <LongitudeDegrees>-5.40959388948976993560791015625</LongitudeDegrees>
            </Position>
            <AltitudeMeters>245.8000030517578125</AltitudeMeters>
            <DistanceMeters>4508.0905097917</DistanceMeters>
          </Trackpoint>
          <Trackpoint>
            <Time>2019-01-04T10:07:53.000Z</Time>
            <Position>
              <LatitudeDegrees>36.5163504146039485931396484375</LatitudeDegrees>
              <LongitudeDegrees>-5.40958064608275890350341796875</LongitudeDegrees>
            </Position>
            <AltitudeMeters>246</AltitudeMeters>
            <DistanceMeters>4509.3865013884</DistanceMeters>
          </Trackpoint>
          <Trackpoint>
            <Time>2019-01-04T10:07:54.000Z</Time>
            <Position>
              <LatitudeDegrees>36.51634479872882366180419921875</LatitudeDegrees>
              <LongitudeDegrees>-5.40957595221698284149169921875</LongitudeDegrees>
            </Position>
            <AltitudeMeters>246</AltitudeMeters>
            <DistanceMeters>4510.1347424855</DistanceMeters>
          </Trackpoint>
          <Trackpoint>
            <Time>2019-01-04T10:07:55.000Z</Time>
            <Position>
              <LatitudeDegrees>36.51634119451045989990234375</LatitudeDegrees>
              <LongitudeDegrees>-5.40957209654152393341064453125</LongitudeDegrees>
            </Position>
            <AltitudeMeters>246</AltitudeMeters>
            <DistanceMeters>4510.6552252358</DistanceMeters>
          </Trackpoint>
          <Trackpoint>
            <Time>2019-01-04T10:07:56.000Z</Time>
            <Position>
              <LatitudeDegrees>36.5163366682827472686767578125</LatitudeDegrees>
              <LongitudeDegrees>-5.40956840850412845611572265625</LongitudeDegrees>
            </Position>
            <AltitudeMeters>246</AltitudeMeters>
            <DistanceMeters>4511.2562269478</DistanceMeters>
          </Trackpoint>
          <Trackpoint>
            <Time>2019-01-04T10:07:57.000Z</Time>
            <Position>
              <LatitudeDegrees>36.51633423753082752227783203125</LatitudeDegrees>
              <LongitudeDegrees>-5.40956136770546436309814453125</LongitudeDegrees>
            </Position>
            <AltitudeMeters>246</AltitudeMeters>
            <DistanceMeters>4511.9414743302</DistanceMeters>
          </Trackpoint>
          <Trackpoint>
            <Time>2019-01-04T10:07:58.000Z</Time>
            <Position>
              <LatitudeDegrees>36.51633054949343204498291015625</LatitudeDegrees>
              <LongitudeDegrees>-5.40955482982099056243896484375</LongitudeDegrees>
            </Position>
            <AltitudeMeters>246</AltitudeMeters>
            <DistanceMeters>4512.6525891457</DistanceMeters>
          </Trackpoint>
          <Trackpoint>
            <Time>2019-01-04T10:07:59.000Z</Time>
            <Position>
              <LatitudeDegrees>36.51632635854184627532958984375</LatitudeDegrees>
              <LongitudeDegrees>-5.40954426862299442291259765625</LongitudeDegrees>
            </Position>
            <AltitudeMeters>246</AltitudeMeters>
            <DistanceMeters>4513.7107618532</DistanceMeters>
          </Trackpoint>
          <Trackpoint>
            <Time>2019-01-04T10:08:00.000Z</Time>
            <Position>
              <LatitudeDegrees>36.5163188986480236053466796875</LatitudeDegrees>
              <LongitudeDegrees>-5.4095369763672351837158203125</LongitudeDegrees>
            </Position>
            <AltitudeMeters>246.1999969482421875</AltitudeMeters>
            <DistanceMeters>4514.7689345608</DistanceMeters>
          </Trackpoint>
          <Trackpoint>
            <Time>2019-01-04T10:08:01.000Z</Time>
            <Position>
              <LatitudeDegrees>36.51631462387740612030029296875</LatitudeDegrees>
              <LongitudeDegrees>-5.40952951647341251373291015625</LongitudeDegrees>
            </Position>
            <AltitudeMeters>246.1999969482421875</AltitudeMeters>
            <DistanceMeters>4515.5918900476</DistanceMeters>
          </Trackpoint>
          <Trackpoint>
            <Time>2019-01-04T10:08:02.000Z</Time>
            <Position>
              <LatitudeDegrees>36.51630900800228118896484375</LatitudeDegrees>
              <LongitudeDegrees>-5.4095126688480377197265625</LongitudeDegrees>
            </Position>
            <AltitudeMeters>246.399993896484375</AltitudeMeters>
            <DistanceMeters>4517.2212587826</DistanceMeters>
          </Trackpoint>
          <Trackpoint>
            <Time>2019-01-04T10:08:03.000Z</Time>
            <Position>
              <LatitudeDegrees>36.51629693806171417236328125</LatitudeDegrees>
              <LongitudeDegrees>-5.40950252674520015716552734375</LongitudeDegrees>
            </Position>
            <AltitudeMeters>246.600006103515625</AltitudeMeters>
            <DistanceMeters>4518.8450759896</DistanceMeters>
          </Trackpoint>
          <Trackpoint>
            <Time>2019-01-04T10:08:04.000Z</Time>
            <Position>
              <LatitudeDegrees>36.5162924118340015411376953125</LatitudeDegrees>
              <LongitudeDegrees>-5.4094903729856014251708984375</LongitudeDegrees>
            </Position>
            <AltitudeMeters>246.600006103515625</AltitudeMeters>
            <DistanceMeters>4520.0433172652</DistanceMeters>
          </Trackpoint>
          <Trackpoint>
            <Time>2019-01-04T10:08:05.000Z</Time>
            <Position>
              <LatitudeDegrees>36.5162810124456882476806640625</LatitudeDegrees>
              <LongitudeDegrees>-5.40947805158793926239013671875</LongitudeDegrees>
            </Position>
            <AltitudeMeters>246.8000030517578125</AltitudeMeters>
            <DistanceMeters>4521.7218236997</DistanceMeters>
          </Trackpoint>
          <Trackpoint>
            <Time>2019-01-04T10:08:06.000Z</Time>
            <Position>
              <LatitudeDegrees>36.5162681043148040771484375</LatitudeDegrees>
              <LongitudeDegrees>-5.409470088779926300048828125</LongitudeDegrees>
            </Position>
            <AltitudeMeters>247</AltitudeMeters>
            <DistanceMeters>4523.3232423551</DistanceMeters>
          </Trackpoint>
          <Trackpoint>
            <Time>2019-01-04T10:08:07.000Z</Time>
            <Position>
              <LatitudeDegrees>36.51625645346939563751220703125</LatitudeDegrees>
              <LongitudeDegrees>-5.40946933440864086151123046875</LongitudeDegrees>
            </Position>
            <AltitudeMeters>247.1999969482421875</AltitudeMeters>
            <DistanceMeters>4524.6227131301</DistanceMeters>
          </Trackpoint>
          <Trackpoint>
            <Time>2019-01-04T10:08:08.000Z</Time>
            <Position>
              <LatitudeDegrees>36.51624605990946292877197265625</LatitudeDegrees>
              <LongitudeDegrees>-5.40946849621832370758056640625</LongitudeDegrees>
            </Position>
            <AltitudeMeters>247.1999969482421875</AltitudeMeters>
            <DistanceMeters>4525.7865479408</DistanceMeters>
          </Trackpoint>
          <Trackpoint>
            <Time>2019-01-04T10:08:09.000Z</Time>
            <Position>
              <LatitudeDegrees>36.51623524725437164306640625</LatitudeDegrees>
              <LongitudeDegrees>-5.40946799330413341522216796875</LongitudeDegrees>
            </Position>
            <AltitudeMeters>247.399993896484375</AltitudeMeters>
            <DistanceMeters>4526.9885513647</DistanceMeters>
          </Trackpoint>
          <Trackpoint>
            <Time>2019-01-04T10:08:10.000Z</Time>
            <Position>
              <LatitudeDegrees>36.51622409932315349578857421875</LatitudeDegrees>
              <LongitudeDegrees>-5.40946514345705509185791015625</LongitudeDegrees>
            </Position>
            <AltitudeMeters>247.600006103515625</AltitudeMeters>
            <DistanceMeters>4528.2563658649</DistanceMeters>
          </Trackpoint>
          <Trackpoint>
            <Time>2019-01-04T10:08:11.000Z</Time>
            <Position>
              <LatitudeDegrees>36.516217477619647979736328125</LatitudeDegrees>
              <LongitudeDegrees>-5.40946078486740589141845703125</LongitudeDegrees>
            </Position>
            <AltitudeMeters>247.8000030517578125</AltitudeMeters>
            <DistanceMeters>4529.0956190822</DistanceMeters>
          </Trackpoint>
          <Trackpoint>
            <Time>2019-01-04T10:08:12.000Z</Time>
            <Position>
              <LatitudeDegrees>36.51621035300195217132568359375</LatitudeDegrees>
              <LongitudeDegrees>-5.40945089422166347503662109375</LongitudeDegrees>
            </Position>
            <AltitudeMeters>248</AltitudeMeters>
            <DistanceMeters>4530.2863004004</DistanceMeters>
          </Trackpoint>
          <Trackpoint>
            <Time>2019-01-04T10:08:13.000Z</Time>
            <Position>
              <LatitudeDegrees>36.51620431803166866302490234375</LatitudeDegrees>
              <LongitudeDegrees>-5.40944284759461879730224609375</LongitudeDegrees>
            </Position>
            <AltitudeMeters>248</AltitudeMeters>
            <DistanceMeters>4531.2692643771</DistanceMeters>
          </Trackpoint>
          <Trackpoint>
            <Time>2019-01-04T10:08:14.000Z</Time>
            <Position>
              <LatitudeDegrees>36.51619560085237026214599609375</LatitudeDegrees>
              <LongitudeDegrees>-5.40944368578493595123291015625</LongitudeDegrees>
            </Position>
            <AltitudeMeters>248.1999969482421875</AltitudeMeters>
            <DistanceMeters>4532.2476242818</DistanceMeters>
          </Trackpoint>
          <Trackpoint>
            <Time>2019-01-04T10:08:15.000Z</Time>
            <Position>
              <LatitudeDegrees>36.5161876380443572998046875</LatitudeDegrees>
              <LongitudeDegrees>-5.40943957865238189697265625</LongitudeDegrees>
            </Position>
            <AltitudeMeters>248.1999969482421875</AltitudeMeters>
            <DistanceMeters>4533.2073470529</DistanceMeters>
          </Trackpoint>
          <Trackpoint>
            <Time>2019-01-04T10:08:16.000Z</Time>
            <Position>
              <LatitudeDegrees>36.51618420146405696868896484375</LatitudeDegrees>
              <LongitudeDegrees>-5.40943513624370098114013671875</LongitudeDegrees>
            </Position>
            <AltitudeMeters>248.1999969482421875</AltitudeMeters>
            <DistanceMeters>4533.7448993259</DistanceMeters>
          </Trackpoint>
          <Trackpoint>
            <Time>2019-01-04T10:08:17.000Z</Time>
            <Position>
              <LatitudeDegrees>36.516181938350200653076171875</LatitudeDegrees>
              <LongitudeDegrees>-5.40943513624370098114013671875</LongitudeDegrees>
            </Position>
            <AltitudeMeters>248.1999969482421875</AltitudeMeters>
            <DistanceMeters>4533.99631638</DistanceMeters>
          </Trackpoint>
          <Trackpoint>
            <Time>2019-01-04T10:08:18.000Z</Time>
            <Position>
              <LatitudeDegrees>36.5161817707121372222900390625</LatitudeDegrees>
              <LongitudeDegrees>-5.40943396277725696563720703125</LongitudeDegrees>
            </Position>
            <AltitudeMeters>248.1999969482421875</AltitudeMeters>
            <DistanceMeters>4534.0913430944</DistanceMeters>
          </Trackpoint>
          <Trackpoint>
            <Time>2019-01-04T10:08:19.000Z</Time>
            <Position>
              <LatitudeDegrees>36.51618302799761295318603515625</LatitudeDegrees>
              <LongitudeDegrees>-5.409431196749210357666015625</LongitudeDegrees>
            </Position>
            <AltitudeMeters>248.1999969482421875</AltitudeMeters>
            <DistanceMeters>4534.3764232375</DistanceMeters>
          </Trackpoint>
          <Trackpoint>
            <Time>2019-01-04T10:08:20.000Z</Time>
            <Position>
              <LatitudeDegrees>36.5161811001598834991455078125</LatitudeDegrees>
              <LongitudeDegrees>-5.40943027473986148834228515625</LongitudeDegrees>
            </Position>
            <AltitudeMeters>248.1999969482421875</AltitudeMeters>
            <DistanceMeters>4534.6091901996</DistanceMeters>
          </Trackpoint>
          <Trackpoint>
            <Time>2019-01-04T10:08:21.000Z</Time>
            <Position>
              <LatitudeDegrees>36.51617799885571002960205078125</LatitudeDegrees>
              <LongitudeDegrees>-5.40942708961665630340576171875</LongitudeDegrees>
            </Position>
            <AltitudeMeters>248.1999969482421875</AltitudeMeters>
            <DistanceMeters>4535.0549049983</DistanceMeters>
          </Trackpoint>
          <Trackpoint>
            <Time>2019-01-04T10:08:22.000Z</Time>
            <Position>
              <LatitudeDegrees>36.5161811001598834991455078125</LatitudeDegrees>
              <LongitudeDegrees>-5.4094249941408634185791015625</LongitudeDegrees>
            </Position>
            <AltitudeMeters>248.1999969482421875</AltitudeMeters>
            <DistanceMeters>4535.4580692031</DistanceMeters>
          </Trackpoint>
          <Trackpoint>
            <Time>2019-01-04T10:08:23.000Z</Time>
            <Position>
              <LatitudeDegrees>36.51618319563567638397216796875</LatitudeDegrees>
              <LongitudeDegrees>-5.4094253294169902801513671875</LongitudeDegrees>
            </Position>
            <AltitudeMeters>248.1999969482421875</AltitudeMeters>
            <DistanceMeters>4535.6908361652</DistanceMeters>
          </Trackpoint>
          <Trackpoint>
            <Time>2019-01-04T10:08:24.000Z</Time>
            <Position>
              <LatitudeDegrees>36.51618830859661102294921875</LatitudeDegrees>
              <LongitudeDegrees>-5.40942859835922718048095703125</LongitudeDegrees>
            </Position>
            <AltitudeMeters>248.1999969482421875</AltitudeMeters>
            <DistanceMeters>4536.3353386993</DistanceMeters>
          </Trackpoint>
          <Trackpoint>
            <Time>2019-01-04T10:08:25.000Z</Time>
            <Position>
              <LatitudeDegrees>36.5161958523094654083251953125</LatitudeDegrees>
              <LongitudeDegrees>-5.40943664498627185821533203125</LongitudeDegrees>
            </Position>
            <AltitudeMeters>248.1999969482421875</AltitudeMeters>
            <DistanceMeters>4537.4435310997</DistanceMeters>
          </Trackpoint>
          <Trackpoint>
            <Time>2019-01-04T10:08:26.000Z</Time>
            <Position>
              <LatitudeDegrees>36.516201384365558624267578125</LatitudeDegrees>
              <LongitudeDegrees>-5.40945223532617092132568359375</LongitudeDegrees>
            </Position>
            <AltitudeMeters>248.1999969482421875</AltitudeMeters>
            <DistanceMeters>4538.9639585296</DistanceMeters>
          </Trackpoint>
          <Trackpoint>
            <Time>2019-01-04T10:08:27.000Z</Time>
            <Position>
              <LatitudeDegrees>36.51621068827807903289794921875</LatitudeDegrees>
              <LongitudeDegrees>-5.40946581400930881500244140625</LongitudeDegrees>
            </Position>
            <AltitudeMeters>248.1999969482421875</AltitudeMeters>
            <DistanceMeters>4540.5597284244</DistanceMeters>
          </Trackpoint>
          <Trackpoint>
            <Time>2019-01-04T10:08:28.000Z</Time>
            <Position>
              <LatitudeDegrees>36.51621890254318714141845703125</LatitudeDegrees>
              <LongitudeDegrees>-5.4094751179218292236328125</LongitudeDegrees>
            </Position>
            <AltitudeMeters>248.1999969482421875</AltitudeMeters>
            <DistanceMeters>4541.7987251942</DistanceMeters>
          </Trackpoint>
          <Trackpoint>
            <Time>2019-01-04T10:08:29.000Z</Time>
            <Position>
              <LatitudeDegrees>36.516229547560214996337890625</LatitudeDegrees>
              <LongitudeDegrees>-5.4094886966049671173095703125</LongitudeDegrees>
            </Position>
            <AltitudeMeters>248.1999969482421875</AltitudeMeters>
            <DistanceMeters>4543.4932942572</DistanceMeters>
          </Trackpoint>
          <Trackpoint>
            <Time>2019-01-04T10:08:30.000Z</Time>
            <Position>
              <LatitudeDegrees>36.51623952202498912811279296875</LatitudeDegrees>
              <LongitudeDegrees>-5.4094984196126461029052734375</LongitudeDegrees>
            </Position>
            <AltitudeMeters>248.1999969482421875</AltitudeMeters>
            <DistanceMeters>4544.9059679258</DistanceMeters>
          </Trackpoint>
          <Trackpoint>
            <Time>2019-01-04T10:08:31.000Z</Time>
            <Position>
              <LatitudeDegrees>36.51625108905136585235595703125</LatitudeDegrees>
              <LongitudeDegrees>-5.40950872935354709625244140625</LongitudeDegrees>
            </Position>
            <AltitudeMeters>248</AltitudeMeters>
            <DistanceMeters>4546.4903798834</DistanceMeters>
          </Trackpoint>
          <Trackpoint>
            <Time>2019-01-04T10:08:32.000Z</Time>
            <Position>
              <LatitudeDegrees>36.51626282371580600738525390625</LatitudeDegrees>
              <LongitudeDegrees>-5.40951761417090892791748046875</LongitudeDegrees>
            </Position>
            <AltitudeMeters>248</AltitudeMeters>
            <DistanceMeters>4548.0167349281</DistanceMeters>
          </Trackpoint>
          <Trackpoint>
            <Time>2019-01-04T10:08:33.000Z</Time>
            <Position>
              <LatitudeDegrees>36.51627413928508758544921875</LatitudeDegrees>
              <LongitudeDegrees>-5.40952398441731929779052734375</LongitudeDegrees>
            </Position>
            <AltitudeMeters>247.600006103515625</AltitudeMeters>
            <DistanceMeters>4549.4003447742</DistanceMeters>
          </Trackpoint>
          <Trackpoint>
            <Time>2019-01-04T10:08:34.000Z</Time>
            <Position>
              <LatitudeDegrees>36.5162810124456882476806640625</LatitudeDegrees>
              <LongitudeDegrees>-5.40953211486339569091796875</LongitudeDegrees>
            </Position>
            <AltitudeMeters>247.399993896484375</AltitudeMeters>
            <DistanceMeters>4550.4585174818</DistanceMeters>
          </Trackpoint>
          <Trackpoint>
            <Time>2019-01-04T10:08:35.000Z</Time>
            <Position>
              <LatitudeDegrees>36.516282856464385986328125</LatitudeDegrees>
              <LongitudeDegrees>-5.40954510681331157684326171875</LongitudeDegrees>
            </Position>
            <AltitudeMeters>247</AltitudeMeters>
            <DistanceMeters>4551.6377679948</DistanceMeters>
          </Trackpoint>
          <Trackpoint>
            <Time>2019-01-04T10:08:36.000Z</Time>
            <Position>
              <LatitudeDegrees>36.51628478430211544036865234375</LatitudeDegrees>
              <LongitudeDegrees>-5.409547202289104461669921875</LongitudeDegrees>
            </Position>
            <AltitudeMeters>246.8000030517578125</AltitudeMeters>
            <DistanceMeters>4551.9065441313</DistanceMeters>
          </Trackpoint>
          <Trackpoint>
            <Time>2019-01-04T10:08:37.000Z</Time>
            <Position>
              <LatitudeDegrees>36.51628562249243259429931640625</LatitudeDegrees>
              <LongitudeDegrees>-5.40954820811748504638671875</LongitudeDegrees>
            </Position>
            <AltitudeMeters>246.8000030517578125</AltitudeMeters>
            <DistanceMeters>4552.0409321995</DistanceMeters>
          </Trackpoint>
          <Trackpoint>
            <Time>2019-01-04T10:08:38.000Z</Time>
            <Position>
              <LatitudeDegrees>36.5162813477218151092529296875</LatitudeDegrees>
              <LongitudeDegrees>-5.40955399163067340850830078125</LongitudeDegrees>
            </Position>
            <AltitudeMeters>246.600006103515625</AltitudeMeters>
            <DistanceMeters>4552.7456691749</DistanceMeters>
          </Trackpoint>
          <Trackpoint>
            <Time>2019-01-04T10:08:39.000Z</Time>
            <Position>
              <LatitudeDegrees>36.51627740822732448577880859375</LatitudeDegrees>
              <LongitudeDegrees>-5.4095550812780857086181640625</LongitudeDegrees>
            </Position>
            <AltitudeMeters>246.600006103515625</AltitudeMeters>
            <DistanceMeters>4553.1913839735</DistanceMeters>
          </Trackpoint>
          <Trackpoint>
            <Time>2019-01-04T10:08:40.000Z</Time>
            <Position>
              <LatitudeDegrees>36.5162743069231510162353515625</LatitudeDegrees>
              <LongitudeDegrees>-5.409555919468402862548828125</LongitudeDegrees>
            </Position>
            <AltitudeMeters>246.600006103515625</AltitudeMeters>
            <DistanceMeters>4553.5469413813</DistanceMeters>
          </Trackpoint>
          <Trackpoint>
            <Time>2019-01-04T10:08:41.000Z</Time>
            <Position>
              <LatitudeDegrees>36.516271792352199554443359375</LatitudeDegrees>
              <LongitudeDegrees>-5.40955885313451290130615234375</LongitudeDegrees>
            </Position>
            <AltitudeMeters>246.600006103515625</AltitudeMeters>
            <DistanceMeters>4553.9270482388</DistanceMeters>
          </Trackpoint>
          <Trackpoint>
            <Time>2019-01-04T10:08:42.000Z</Time>
            <Position>
              <LatitudeDegrees>36.5162707865238189697265625</LatitudeDegrees>
              <LongitudeDegrees>-5.4095601104199886322021484375</LongitudeDegrees>
            </Position>
            <AltitudeMeters>246.600006103515625</AltitudeMeters>
            <DistanceMeters>4554.061436307</DistanceMeters>
          </Trackpoint>
          <Trackpoint>
            <Time>2019-01-04T10:08:43.000Z</Time>
            <Position>
              <LatitudeDegrees>36.51627355255186557769775390625</LatitudeDegrees>
              <LongitudeDegrees>-5.40955583564937114715576171875</LongitudeDegrees>
            </Position>
            <AltitudeMeters>246.399993896484375</AltitudeMeters>
            <DistanceMeters>4554.5459793779</DistanceMeters>
          </Trackpoint>
          <Trackpoint>
            <Time>2019-01-04T10:08:44.000Z</Time>
            <Position>
              <LatitudeDegrees>36.516272127628326416015625</LatitudeDegrees>
              <LongitudeDegrees>-5.40955952368676662445068359375</LongitudeDegrees>
            </Position>
            <AltitudeMeters>246.399993896484375</AltitudeMeters>
            <DistanceMeters>4554.9015367857</DistanceMeters>
          </Trackpoint>
          <Trackpoint>
            <Time>2019-01-04T10:08:45.000Z</Time>
            <Position>
              <LatitudeDegrees>36.5162716247141361236572265625</LatitudeDegrees>
              <LongitudeDegrees>-5.4095594398677349090576171875</LongitudeDegrees>
            </Position>
            <AltitudeMeters>246.1999969482421875</AltitudeMeters>
            <DistanceMeters>4554.9015367857</DistanceMeters>
          </Trackpoint>
          <Trackpoint>
            <Time>2019-01-04T10:08:46.000Z</Time>
            <Position>
              <LatitudeDegrees>36.516271121799945831298828125</LatitudeDegrees>
              <LongitudeDegrees>-5.4095584340393543243408203125</LongitudeDegrees>
            </Position>
            <AltitudeMeters>246</AltitudeMeters>
            <DistanceMeters>4555.0359248539</DistanceMeters>
          </Trackpoint>
          <Trackpoint>
            <Time>2019-01-04T10:08:47.000Z</Time>
            <Position>
              <LatitudeDegrees>36.51627087034285068511962890625</LatitudeDegrees>
              <LongitudeDegrees>-5.4095587693154811859130859375</LongitudeDegrees>
            </Position>
            <AltitudeMeters>246</AltitudeMeters>
            <DistanceMeters>4555.1703129222</DistanceMeters>
          </Trackpoint>
          <Trackpoint>
            <Time>2019-01-04T10:08:48.000Z</Time>
            <Position>
              <LatitudeDegrees>36.5162654221057891845703125</LatitudeDegrees>
              <LongitudeDegrees>-5.4095609486103057861328125</LongitudeDegrees>
            </Position>
            <AltitudeMeters>245.8000030517578125</AltitudeMeters>
            <DistanceMeters>4555.8148154563</DistanceMeters>
          </Trackpoint>
          <Trackpoint>
            <Time>2019-01-04T10:08:49.000Z</Time>
            <Position>
              <LatitudeDegrees>36.5162652544677257537841796875</LatitudeDegrees>
              <LongitudeDegrees>-5.40956103242933750152587890625</LongitudeDegrees>
            </Position>
            <AltitudeMeters>245.600006103515625</AltitudeMeters>
            <DistanceMeters>4555.8148154563</DistanceMeters>
          </Trackpoint>
          <Trackpoint>
            <Time>2019-01-04T10:08:50.000Z</Time>
            <Position>
              <LatitudeDegrees>36.516265086829662322998046875</LatitudeDegrees>
              <LongitudeDegrees>-5.40956472046673297882080078125</LongitudeDegrees>
            </Position>
            <AltitudeMeters>245.600006103515625</AltitudeMeters>
            <DistanceMeters>4556.143997651</DistanceMeters>
          </Trackpoint>
          <Trackpoint>
            <Time>2019-01-04T10:08:51.000Z</Time>
            <Position>
              <LatitudeDegrees>36.516264416277408599853515625</LatitudeDegrees>
              <LongitudeDegrees>-5.40956832468509674072265625</LongitudeDegrees>
            </Position>
            <AltitudeMeters>245.600006103515625</AltitudeMeters>
            <DistanceMeters>4556.4731798457</DistanceMeters>
          </Trackpoint>
          <Trackpoint>
            <Time>2019-01-04T10:08:52.000Z</Time>
            <Position>
              <LatitudeDegrees>36.51626416482031345367431640625</LatitudeDegrees>
              <LongitudeDegrees>-5.4095661453902721405029296875</LongitudeDegrees>
            </Position>
            <AltitudeMeters>245.600006103515625</AltitudeMeters>
            <DistanceMeters>4556.7059468079</DistanceMeters>
          </Trackpoint>
          <Trackpoint>
            <Time>2019-01-04T10:08:53.000Z</Time>
            <Position>
              <LatitudeDegrees>36.5162642486393451690673828125</LatitudeDegrees>
              <LongitudeDegrees>-5.40956321172416210174560546875</LongitudeDegrees>
            </Position>
            <AltitudeMeters>245.8000030517578125</AltitudeMeters>
            <DistanceMeters>4556.9747229444</DistanceMeters>
          </Trackpoint>
          <Trackpoint>
            <Time>2019-01-04T10:08:54.000Z</Time>
            <Position>
              <LatitudeDegrees>36.51626517064869403839111328125</LatitudeDegrees>
              <LongitudeDegrees>-5.40956354700028896331787109375</LongitudeDegrees>
            </Position>
            <AltitudeMeters>245.8000030517578125</AltitudeMeters>
            <DistanceMeters>4556.9747229444</DistanceMeters>
          </Trackpoint>
          <Trackpoint>
            <Time>2019-01-04T10:08:55.000Z</Time>
            <Position>
              <LatitudeDegrees>36.51626600883901119232177734375</LatitudeDegrees>
              <LongitudeDegrees>-5.4095641337335109710693359375</LongitudeDegrees>
            </Position>
            <AltitudeMeters>245.8000030517578125</AltitudeMeters>
            <DistanceMeters>4557.0697496587</DistanceMeters>
          </Trackpoint>
          <Trackpoint>
            <Time>2019-01-04T10:08:56.000Z</Time>
            <Position>
              <LatitudeDegrees>36.516265086829662322998046875</LatitudeDegrees>
              <LongitudeDegrees>-5.4095631279051303863525390625</LongitudeDegrees>
            </Position>
            <AltitudeMeters>246</AltitudeMeters>
            <DistanceMeters>4557.204137727</DistanceMeters>
          </Trackpoint>
          <Trackpoint>
            <Time>2019-01-04T10:08:57.000Z</Time>
            <Position>
              <LatitudeDegrees>36.5162629075348377227783203125</LatitudeDegrees>
              <LongitudeDegrees>-5.40956488810479640960693359375</LongitudeDegrees>
            </Position>
            <AltitudeMeters>246</AltitudeMeters>
            <DistanceMeters>4557.4892178701</DistanceMeters>
          </Trackpoint>
          <Trackpoint>
            <Time>2019-01-04T10:08:58.000Z</Time>
            <Position>
              <LatitudeDegrees>36.516261734068393707275390625</LatitudeDegrees>
              <LongitudeDegrees>-5.40956505574285984039306640625</LongitudeDegrees>
            </Position>
            <AltitudeMeters>246</AltitudeMeters>
            <DistanceMeters>4557.6236059383</DistanceMeters>
          </Trackpoint>
          <Trackpoint>
            <Time>2019-01-04T10:08:59.000Z</Time>
            <Position>
              <LatitudeDegrees>36.5162598900496959686279296875</LatitudeDegrees>
              <LongitudeDegrees>-5.40956187061965465545654296875</LongitudeDegrees>
            </Position>
            <AltitudeMeters>246.1999969482421875</AltitudeMeters>
            <DistanceMeters>4557.9791633461</DistanceMeters>
          </Trackpoint>
          <Trackpoint>
            <Time>2019-01-04T10:09:00.000Z</Time>
            <Position>
              <LatitudeDegrees>36.51625913567841053009033203125</LatitudeDegrees>
              <LongitudeDegrees>-5.40955650620162487030029296875</LongitudeDegrees>
            </Position>
            <AltitudeMeters>246.1999969482421875</AltitudeMeters>
            <DistanceMeters>4558.463706417</DistanceMeters>
          </Trackpoint>
          <Trackpoint>
            <Time>2019-01-04T10:09:01.000Z</Time>
            <Position>
              <LatitudeDegrees>36.5162602253258228302001953125</LatitudeDegrees>
              <LongitudeDegrees>-5.4095529019832611083984375</LongitudeDegrees>
            </Position>
            <AltitudeMeters>246</AltitudeMeters>
            <DistanceMeters>4558.8192638247</DistanceMeters>
          </Trackpoint>
          <Trackpoint>
            <Time>2019-01-04T10:09:02.000Z</Time>
            <Position>
              <LatitudeDegrees>36.51626341044902801513671875</LatitudeDegrees>
              <LongitudeDegrees>-5.4095570929348468780517578125</LongitudeDegrees>
            </Position>
            <AltitudeMeters>246.1999969482421875</AltitudeMeters>
            <DistanceMeters>4559.339746575</DistanceMeters>
          </Trackpoint>
          <Trackpoint>
            <Time>2019-01-04T10:09:03.000Z</Time>
            <Position>
              <LatitudeDegrees>36.51626341044902801513671875</LatitudeDegrees>
              <LongitudeDegrees>-5.409559272229671478271484375</LongitudeDegrees>
            </Position>
            <AltitudeMeters>246.1999969482421875</AltitudeMeters>
            <DistanceMeters>4559.552232768</DistanceMeters>
          </Trackpoint>
          <Trackpoint>
            <Time>2019-01-04T10:09:04.000Z</Time>
            <Position>
              <LatitudeDegrees>36.51626667939126491546630859375</LatitudeDegrees>
              <LongitudeDegrees>-5.4095651395618915557861328125</LongitudeDegrees>
            </Position>
            <AltitudeMeters>246.1999969482421875</AltitudeMeters>
            <DistanceMeters>4560.1825686813</DistanceMeters>
          </Trackpoint>
          <Trackpoint>
            <Time>2019-01-04T10:09:05.000Z</Time>
            <Position>
              <LatitudeDegrees>36.51626533828675746917724609375</LatitudeDegrees>
              <LongitudeDegrees>-5.409560613334178924560546875</LongitudeDegrees>
            </Position>
            <AltitudeMeters>246.1999969482421875</AltitudeMeters>
            <DistanceMeters>4560.6075410673</DistanceMeters>
          </Trackpoint>
          <Trackpoint>
            <Time>2019-01-04T10:09:06.000Z</Time>
            <Position>
              <LatitudeDegrees>36.51626684702932834625244140625</LatitudeDegrees>
              <LongitudeDegrees>-5.40955348871648311614990234375</LongitudeDegrees>
            </Position>
            <AltitudeMeters>246.1999969482421875</AltitudeMeters>
            <DistanceMeters>4561.2659054567</DistanceMeters>
          </Trackpoint>
          <Trackpoint>
            <Time>2019-01-04T10:09:07.000Z</Time>
            <Position>
              <LatitudeDegrees>36.51627271436154842376708984375</LatitudeDegrees>
              <LongitudeDegrees>-5.40954686701297760009765625</LongitudeDegrees>
            </Position>
            <AltitudeMeters>246.1999969482421875</AltitudeMeters>
            <DistanceMeters>4562.1471469527</DistanceMeters>
          </Trackpoint>
          <Trackpoint>
            <Time>2019-01-04T10:09:08.000Z</Time>
            <Position>
              <LatitudeDegrees>36.51627548038959503173828125</LatitudeDegrees>
              <LongitudeDegrees>-5.40953974239528179168701171875</LongitudeDegrees>
            </Position>
            <AltitudeMeters>246.1999969482421875</AltitudeMeters>
            <DistanceMeters>4562.851883928</DistanceMeters>
          </Trackpoint>
          <Trackpoint>
            <Time>2019-01-04T10:09:09.000Z</Time>
            <Position>
              <LatitudeDegrees>36.51627522893249988555908203125</LatitudeDegrees>
              <LongitudeDegrees>-5.409536473453044891357421875</LongitudeDegrees>
            </Position>
            <AltitudeMeters>246.1999969482421875</AltitudeMeters>
            <DistanceMeters>4563.152384784</DistanceMeters>
          </Trackpoint>
          <Trackpoint>
            <Time>2019-01-04T10:09:10.000Z</Time>
            <Position>
              <LatitudeDegrees>36.51627439074218273162841796875</LatitudeDegrees>
              <LongitudeDegrees>-5.40953488089144229888916015625</LongitudeDegrees>
            </Position>
            <AltitudeMeters>246.1999969482421875</AltitudeMeters>
            <DistanceMeters>4563.3424382127</DistanceMeters>
          </Trackpoint>
          <Trackpoint>
            <Time>2019-01-04T10:09:11.000Z</Time>
            <Position>
              <LatitudeDegrees>36.51627548038959503173828125</LatitudeDegrees>
              <LongitudeDegrees>-5.40953345596790313720703125</LongitudeDegrees>
            </Position>
            <AltitudeMeters>246</AltitudeMeters>
            <DistanceMeters>4563.5324916415</DistanceMeters>
          </Trackpoint>
          <Trackpoint>
            <Time>2019-01-04T10:09:12.000Z</Time>
            <Position>
              <LatitudeDegrees>36.51627891696989536285400390625</LatitudeDegrees>
              <LongitudeDegrees>-5.409535802900791168212890625</LongitudeDegrees>
            </Position>
            <AltitudeMeters>246</AltitudeMeters>
            <DistanceMeters>4563.9679587531</DistanceMeters>
          </Trackpoint>
          <Trackpoint>
            <Time>2019-01-04T10:09:13.000Z</Time>
            <Position>
              <LatitudeDegrees>36.51628059335052967071533203125</LatitudeDegrees>
              <LongitudeDegrees>-5.40953739546239376068115234375</LongitudeDegrees>
            </Position>
            <AltitudeMeters>246</AltitudeMeters>
            <DistanceMeters>4564.2007257153</DistanceMeters>
          </Trackpoint>
          <Trackpoint>
            <Time>2019-01-04T10:09:14.000Z</Time>
            <Position>
              <LatitudeDegrees>36.51627958752214908599853515625</LatitudeDegrees>
              <LongitudeDegrees>-5.4095421731472015380859375</LongitudeDegrees>
            </Position>
            <AltitudeMeters>246</AltitudeMeters>
            <DistanceMeters>4564.6361928269</DistanceMeters>
          </Trackpoint>
          <Trackpoint>
            <Time>2019-01-04T10:09:15.000Z</Time>
            <Position>
              <LatitudeDegrees>36.51627958752214908599853515625</LatitudeDegrees>
              <LongitudeDegrees>-5.40954410098493099212646484375</LongitudeDegrees>
            </Position>
            <AltitudeMeters>246</AltitudeMeters>
            <DistanceMeters>4564.8007839243</DistanceMeters>
          </Trackpoint>
          <Trackpoint>
            <Time>2019-01-04T10:09:16.000Z</Time>
            <Position>
              <LatitudeDegrees>36.516278497874736785888671875</LatitudeDegrees>
              <LongitudeDegrees>-5.40954510681331157684326171875</LongitudeDegrees>
            </Position>
            <AltitudeMeters>246</AltitudeMeters>
            <DistanceMeters>4564.9351719925</DistanceMeters>
          </Trackpoint>
          <Trackpoint>
            <Time>2019-01-04T10:09:17.000Z</Time>
            <Position>
              <LatitudeDegrees>36.51627548038959503173828125</LatitudeDegrees>
              <LongitudeDegrees>-5.4095440171658992767333984375</LongitudeDegrees>
            </Position>
            <AltitudeMeters>246.1999969482421875</AltitudeMeters>
            <DistanceMeters>4565.2907294003</DistanceMeters>
          </Trackpoint>
          <Trackpoint>
            <Time>2019-01-04T10:09:18.000Z</Time>
            <Position>
              <LatitudeDegrees>36.51627405546605587005615234375</LatitudeDegrees>
              <LongitudeDegrees>-5.409540496766567230224609375</LongitudeDegrees>
            </Position>
            <AltitudeMeters>246.1999969482421875</AltitudeMeters>
            <DistanceMeters>4565.6462868081</DistanceMeters>
          </Trackpoint>
          <Trackpoint>
            <Time>2019-01-04T10:09:19.000Z</Time>
            <Position>
              <LatitudeDegrees>36.51627338491380214691162109375</LatitudeDegrees>
              <LongitudeDegrees>-5.4095386527478694915771484375</LongitudeDegrees>
            </Position>
            <AltitudeMeters>246.1999969482421875</AltitudeMeters>
            <DistanceMeters>4565.8363402368</DistanceMeters>
          </Trackpoint>
          <Trackpoint>
            <Time>2019-01-04T10:09:20.000Z</Time>
            <Position>
              <LatitudeDegrees>36.51626986451447010040283203125</LatitudeDegrees>
              <LongitudeDegrees>-5.4095426760613918304443359375</LongitudeDegrees>
            </Position>
            <AltitudeMeters>246.1999969482421875</AltitudeMeters>
            <DistanceMeters>4566.3568229871</DistanceMeters>
          </Trackpoint>
          <Trackpoint>
            <Time>2019-01-04T10:09:21.000Z</Time>
            <Position>
              <LatitudeDegrees>36.516269110143184661865234375</LatitudeDegrees>
              <LongitudeDegrees>-5.40954343043267726898193359375</LongitudeDegrees>
            </Position>
            <AltitudeMeters>246.1999969482421875</AltitudeMeters>
            <DistanceMeters>4566.4518497014</DistanceMeters>
          </Trackpoint>
          <Trackpoint>
            <Time>2019-01-04T10:09:22.000Z</Time>
            <Position>
              <LatitudeDegrees>36.516268439590930938720703125</LatitudeDegrees>
              <LongitudeDegrees>-5.40954594500362873077392578125</LongitudeDegrees>
            </Position>
            <AltitudeMeters>246.1999969482421875</AltitudeMeters>
            <DistanceMeters>4566.7032667556</DistanceMeters>
          </Trackpoint>
          <Trackpoint>
            <Time>2019-01-04T10:09:23.000Z</Time>
            <Position>
              <LatitudeDegrees>36.5162682719528675079345703125</LatitudeDegrees>
              <LongitudeDegrees>-5.4095483757555484771728515625</LongitudeDegrees>
            </Position>
            <AltitudeMeters>246</AltitudeMeters>
            <DistanceMeters>4566.9360337177</DistanceMeters>
          </Trackpoint>
          <Trackpoint>
            <Time>2019-01-04T10:09:24.000Z</Time>
            <Position>
              <LatitudeDegrees>36.516270451247692108154296875</LatitudeDegrees>
              <LongitudeDegrees>-5.40955315344035625457763671875</LongitudeDegrees>
            </Position>
            <AltitudeMeters>246</AltitudeMeters>
            <DistanceMeters>4567.4205767886</DistanceMeters>
          </Trackpoint>
          <Trackpoint>
            <Time>2019-01-04T10:09:25.000Z</Time>
            <Position>
              <LatitudeDegrees>36.51626835577189922332763671875</LatitudeDegrees>
              <LongitudeDegrees>-5.40955751203000545501708984375</LongitudeDegrees>
            </Position>
            <AltitudeMeters>245.8000030517578125</AltitudeMeters>
            <DistanceMeters>4567.8662915873</DistanceMeters>
          </Trackpoint>
          <Trackpoint>
            <Time>2019-01-04T10:09:26.000Z</Time>
            <Position>
              <LatitudeDegrees>36.5162625722587108612060546875</LatitudeDegrees>
              <LongitudeDegrees>-5.40956069715321063995361328125</LongitudeDegrees>
            </Position>
            <AltitudeMeters>245.399993896484375</AltitudeMeters>
            <DistanceMeters>4568.5645924737</DistanceMeters>
          </Trackpoint>
          <Trackpoint>
            <Time>2019-01-04T10:09:27.000Z</Time>
            <Position>
              <LatitudeDegrees>36.51625561527907848358154296875</LatitudeDegrees>
              <LongitudeDegrees>-5.40956237353384494781494140625</LongitudeDegrees>
            </Position>
            <AltitudeMeters>245</AltitudeMeters>
            <DistanceMeters>4569.3596430073</DistanceMeters>
          </Trackpoint>
          <Trackpoint>
            <Time>2019-01-04T10:09:28.000Z</Time>
            <Position>
              <LatitudeDegrees>36.5162454731762409210205078125</LatitudeDegrees>
              <LongitudeDegrees>-5.40956589393317699432373046875</LongitudeDegrees>
            </Position>
            <AltitudeMeters>244.8000030517578125</AltitudeMeters>
            <DistanceMeters>4570.5312110248</DistanceMeters>
          </Trackpoint>
          <Trackpoint>
            <Time>2019-01-04T10:09:29.000Z</Time>
            <Position>
              <LatitudeDegrees>36.516235582530498504638671875</LatitudeDegrees>
              <LongitudeDegrees>-5.4095701687037944793701171875</LongitudeDegrees>
            </Position>
            <AltitudeMeters>244.600006103515625</AltitudeMeters>
            <DistanceMeters>4571.6950458355</DistanceMeters>
          </Trackpoint>
          <Trackpoint>
            <Time>2019-01-04T10:09:30.000Z</Time>
            <Position>
              <LatitudeDegrees>36.51622862555086612701416015625</LatitudeDegrees>
              <LongitudeDegrees>-5.40957310236990451812744140625</LongitudeDegrees>
            </Position>
            <AltitudeMeters>244.399993896484375</AltitudeMeters>
            <DistanceMeters>4572.5124965416</DistanceMeters>
          </Trackpoint>
          <Trackpoint>
            <Time>2019-01-04T10:09:31.000Z</Time>
            <Position>
              <LatitudeDegrees>36.5162198245525360107421875</LatitudeDegrees>
              <LongitudeDegrees>-5.40957377292215824127197265625</LongitudeDegrees>
            </Position>
            <AltitudeMeters>244.1999969482421875</AltitudeMeters>
            <DistanceMeters>4573.5000431257</DistanceMeters>
          </Trackpoint>
          <Trackpoint>
            <Time>2019-01-04T10:09:32.000Z</Time>
            <Position>
              <LatitudeDegrees>36.51621236465871334075927734375</LatitudeDegrees>
              <LongitudeDegrees>-5.40957159362733364105224609375</LongitudeDegrees>
            </Position>
            <AltitudeMeters>244</AltitudeMeters>
            <DistanceMeters>4574.3552835551</DistanceMeters>
          </Trackpoint>
          <Trackpoint>
            <Time>2019-01-04T10:09:33.000Z</Time>
            <Position>
              <LatitudeDegrees>36.5162059105932712554931640625</LatitudeDegrees>
              <LongitudeDegrees>-5.409570671617984771728515625</LongitudeDegrees>
            </Position>
            <AltitudeMeters>244</AltitudeMeters>
            <DistanceMeters>4575.0789854507</DistanceMeters>
          </Trackpoint>
          <Trackpoint>
            <Time>2019-01-04T10:09:34.000Z</Time>
            <Position>
              <LatitudeDegrees>36.51620029471814632415771484375</LatitudeDegrees>
              <LongitudeDegrees>-5.40956153534352779388427734375</LongitudeDegrees>
            </Position>
            <AltitudeMeters>244</AltitudeMeters>
            <DistanceMeters>4576.1068565243</DistanceMeters>
          </Trackpoint>
          <Trackpoint>
            <Time>2019-01-04T10:09:35.000Z</Time>
            <Position>
              <LatitudeDegrees>36.51618897914886474609375</LatitudeDegrees>
              <LongitudeDegrees>-5.40955197997391223907470703125</LongitudeDegrees>
            </Position>
            <AltitudeMeters>244</AltitudeMeters>
            <DistanceMeters>4577.633211569</DistanceMeters>
          </Trackpoint>
          <Trackpoint>
            <Time>2019-01-04T10:09:36.000Z</Time>
            <Position>
              <LatitudeDegrees>36.5161824412643909454345703125</LatitudeDegrees>
              <LongitudeDegrees>-5.40954896248877048492431640625</LongitudeDegrees>
            </Position>
            <AltitudeMeters>244</AltitudeMeters>
            <DistanceMeters>4578.4110387489</DistanceMeters>
          </Trackpoint>
          <Trackpoint>
            <Time>2019-01-04T10:09:37.000Z</Time>
            <Position>
              <LatitudeDegrees>36.51617732830345630645751953125</LatitudeDegrees>
              <LongitudeDegrees>-5.4095470346510410308837890625</LongitudeDegrees>
            </Position>
            <AltitudeMeters>244</AltitudeMeters>
            <DistanceMeters>4579.0044803899</DistanceMeters>
          </Trackpoint>
          <Trackpoint>
            <Time>2019-01-04T10:09:38.000Z</Time>
            <Position>
              <LatitudeDegrees>36.516175568103790283203125</LatitudeDegrees>
              <LongitudeDegrees>-5.4095446877181529998779296875</LongitudeDegrees>
            </Position>
            <AltitudeMeters>244</AltitudeMeters>
            <DistanceMeters>4579.3049812459</DistanceMeters>
          </Trackpoint>
          <Trackpoint>
            <Time>2019-01-04T10:09:39.000Z</Time>
            <Position>
              <LatitudeDegrees>36.5161747299134731292724609375</LatitudeDegrees>
              <LongitudeDegrees>-5.40954460389912128448486328125</LongitudeDegrees>
            </Position>
            <AltitudeMeters>244.1999969482421875</AltitudeMeters>
            <DistanceMeters>4579.3049812459</DistanceMeters>
          </Trackpoint>
          <Trackpoint>
            <Time>2019-01-04T10:09:40.000Z</Time>
            <Position>
              <LatitudeDegrees>36.51616458781063556671142578125</LatitudeDegrees>
              <LongitudeDegrees>-5.40954845957458019256591796875</LongitudeDegrees>
            </Position>
            <AltitudeMeters>244.1999969482421875</AltitudeMeters>
            <DistanceMeters>4580.4803967877</DistanceMeters>
          </Trackpoint>
          <Trackpoint>
            <Time>2019-01-04T10:09:41.000Z</Time>
            <Position>
              <LatitudeDegrees>36.51615721173584461212158203125</LatitudeDegrees>
              <LongitudeDegrees>-5.40954913012683391571044921875</LongitudeDegrees>
            </Position>
            <AltitudeMeters>244.1999969482421875</AltitudeMeters>
            <DistanceMeters>4581.3088204775</DistanceMeters>
          </Trackpoint>
          <Trackpoint>
            <Time>2019-01-04T10:09:42.000Z</Time>
            <Position>
              <LatitudeDegrees>36.51615251787006855010986328125</LatitudeDegrees>
              <LongitudeDegrees>-5.40955415926873683929443359375</LongitudeDegrees>
            </Position>
            <AltitudeMeters>244.1999969482421875</AltitudeMeters>
            <DistanceMeters>4582.0071213639</DistanceMeters>
          </Trackpoint>
          <Trackpoint>
            <Time>2019-01-04T10:09:43.000Z</Time>
            <Position>
              <LatitudeDegrees>36.51614597998559474945068359375</LatitudeDegrees>
              <LongitudeDegrees>-5.40955348871648311614990234375</LongitudeDegrees>
            </Position>
            <AltitudeMeters>244.1999969482421875</AltitudeMeters>
            <DistanceMeters>4582.7431951283</DistanceMeters>
          </Trackpoint>
          <Trackpoint>
            <Time>2019-01-04T10:09:44.000Z</Time>
            <Position>
              <LatitudeDegrees>36.51613927446305751800537109375</LatitudeDegrees>
              <LongitudeDegrees>-5.4095529019832611083984375</LongitudeDegrees>
            </Position>
            <AltitudeMeters>244</AltitudeMeters>
            <DistanceMeters>4583.4914362255</DistanceMeters>
          </Trackpoint>
          <Trackpoint>
            <Time>2019-01-04T10:09:45.000Z</Time>
            <Position>
              <LatitudeDegrees>36.51613675989210605621337890625</LatitudeDegrees>
              <LongitudeDegrees>-5.40954896248877048492431640625</LongitudeDegrees>
            </Position>
            <AltitudeMeters>244</AltitudeMeters>
            <DistanceMeters>4583.9471683378</DistanceMeters>
          </Trackpoint>
          <Trackpoint>
            <Time>2019-01-04T10:09:46.000Z</Time>
            <Position>
              <LatitudeDegrees>36.51612753979861736297607421875</LatitudeDegrees>
              <LongitudeDegrees>-5.40955063886940479278564453125</LongitudeDegrees>
            </Position>
            <AltitudeMeters>243.8000030517578125</AltitudeMeters>
            <DistanceMeters>4584.9881338383</DistanceMeters>
          </Trackpoint>
          <Trackpoint>
            <Time>2019-01-04T10:09:47.000Z</Time>
            <Position>
              <LatitudeDegrees>36.5161163918673992156982421875</LatitudeDegrees>
              <LongitudeDegrees>-5.40955357253551483154296875</LongitudeDegrees>
            </Position>
            <AltitudeMeters>243.600006103515625</AltitudeMeters>
            <DistanceMeters>4586.2595046275</DistanceMeters>
          </Trackpoint>
          <Trackpoint>
            <Time>2019-01-04T10:09:48.000Z</Time>
            <Position>
              <LatitudeDegrees>36.5161049924790859222412109375</LatitudeDegrees>
              <LongitudeDegrees>-5.40955625474452972412109375</LongitudeDegrees>
            </Position>
            <AltitudeMeters>243.600006103515625</AltitudeMeters>
            <DistanceMeters>4587.5485096956</DistanceMeters>
          </Trackpoint>
          <Trackpoint>
            <Time>2019-01-04T10:09:49.000Z</Time>
            <Position>
              <LatitudeDegrees>36.51609367690980434417724609375</LatitudeDegrees>
              <LongitudeDegrees>-5.40955466218292713165283203125</LongitudeDegrees>
            </Position>
            <AltitudeMeters>243.399993896484375</AltitudeMeters>
            <DistanceMeters>4588.8163241958</DistanceMeters>
          </Trackpoint>
          <Trackpoint>
            <Time>2019-01-04T10:09:50.000Z</Time>
            <Position>
              <LatitudeDegrees>36.51607967913150787353515625</LatitudeDegrees>
              <LongitudeDegrees>-5.4095520637929439544677734375</LongitudeDegrees>
            </Position>
            <AltitudeMeters>243.1999969482421875</AltitudeMeters>
            <DistanceMeters>4590.3892962063</DistanceMeters>
          </Trackpoint>
          <Trackpoint>
            <Time>2019-01-04T10:09:51.000Z</Time>
            <Position>
              <LatitudeDegrees>36.51606886647641658782958984375</LatitudeDegrees>
              <LongitudeDegrees>-5.40955114178359508514404296875</LongitudeDegrees>
            </Position>
            <AltitudeMeters>243</AltitudeMeters>
            <DistanceMeters>4591.5987888205</DistanceMeters>
          </Trackpoint>
          <Trackpoint>
            <Time>2019-01-04T10:09:52.000Z</Time>
            <Position>
              <LatitudeDegrees>36.51605763472616672515869140625</LatitudeDegrees>
              <LongitudeDegrees>-5.4095503874123096466064453125</LongitudeDegrees>
            </Position>
            <AltitudeMeters>242.8000030517578125</AltitudeMeters>
            <DistanceMeters>4592.8522772733</DistanceMeters>
          </Trackpoint>
          <Trackpoint>
            <Time>2019-01-04T10:09:53.000Z</Time>
            <Position>
              <LatitudeDegrees>36.5160496719181537628173828125</LatitudeDegrees>
              <LongitudeDegrees>-5.40954577736556529998779296875</LongitudeDegrees>
            </Position>
            <AltitudeMeters>242.600006103515625</AltitudeMeters>
            <DistanceMeters>4593.830637178</DistanceMeters>
          </Trackpoint>
          <Trackpoint>
            <Time>2019-01-04T10:09:54.000Z</Time>
            <Position>
              <LatitudeDegrees>36.516041792929172515869140625</LatitudeDegrees>
              <LongitudeDegrees>-5.40954577736556529998779296875</LongitudeDegrees>
            </Position>
            <AltitudeMeters>242.1999969482421875</AltitudeMeters>
            <DistanceMeters>4594.7118786739</DistanceMeters>
          </Trackpoint>
          <Trackpoint>
            <Time>2019-01-04T10:09:55.000Z</Time>
            <Position>
              <LatitudeDegrees>36.5160334110260009765625</LatitudeDegrees>
              <LongitudeDegrees>-5.40955298580229282379150390625</LongitudeDegrees>
            </Position>
            <AltitudeMeters>242</AltitudeMeters>
            <DistanceMeters>4595.8521992464</DistanceMeters>
          </Trackpoint>
          <Trackpoint>
            <Time>2019-01-04T10:09:56.000Z</Time>
            <Position>
              <LatitudeDegrees>36.5160293877124786376953125</LatitudeDegrees>
              <LongitudeDegrees>-5.40955784730613231658935546875</LongitudeDegrees>
            </Position>
            <AltitudeMeters>241.8000030517578125</AltitudeMeters>
            <DistanceMeters>4596.475331084</DistanceMeters>
          </Trackpoint>
          <Trackpoint>
            <Time>2019-01-04T10:09:57.000Z</Time>
            <Position>
              <LatitudeDegrees>36.51602393947541713714599609375</LatitudeDegrees>
              <LongitudeDegrees>-5.40955893695354461669921875</LongitudeDegrees>
            </Position>
            <AltitudeMeters>241.8000030517578125</AltitudeMeters>
            <DistanceMeters>4597.0911745793</DistanceMeters>
          </Trackpoint>
          <Trackpoint>
            <Time>2019-01-04T10:09:58.000Z</Time>
            <Position>
              <LatitudeDegrees>36.51601740159094333648681640625</LatitudeDegrees>
              <LongitudeDegrees>-5.40955357253551483154296875</LongitudeDegrees>
            </Position>
            <AltitudeMeters>241.600006103515625</AltitudeMeters>
            <DistanceMeters>4597.9569091488</DistanceMeters>
          </Trackpoint>
          <Trackpoint>
            <Time>2019-01-04T10:09:59.000Z</Time>
            <Position>
              <LatitudeDegrees>36.51601036079227924346923828125</LatitudeDegrees>
              <LongitudeDegrees>-5.40956002660095691680908203125</LongitudeDegrees>
            </Position>
            <AltitudeMeters>241.600006103515625</AltitudeMeters>
            <DistanceMeters>4598.9306432124</DistanceMeters>
          </Trackpoint>
          <Trackpoint>
            <Time>2019-01-04T10:10:00.000Z</Time>
            <Position>
              <LatitudeDegrees>36.51600248180329799652099609375</LatitudeDegrees>
              <LongitudeDegrees>-5.4095614515244960784912109375</LongitudeDegrees>
            </Position>
            <AltitudeMeters>241.399993896484375</AltitudeMeters>
            <DistanceMeters>4599.8118847083</DistanceMeters>
          </Trackpoint>
          <Trackpoint>
            <Time>2019-01-04T10:10:01.000Z</Time>
            <Position>
              <LatitudeDegrees>36.515997536480426788330078125</LatitudeDegrees>
              <LongitudeDegrees>-5.40956203825771808624267578125</LongitudeDegrees>
            </Position>
            <AltitudeMeters>241.1999969482421875</AltitudeMeters>
            <DistanceMeters>4600.3577716221</DistanceMeters>
          </Trackpoint>
          <Trackpoint>
            <Time>2019-01-04T10:10:02.000Z</Time>
            <Position>
              <LatitudeDegrees>36.51598974131047725677490234375</LatitudeDegrees>
              <LongitudeDegrees>-5.40956488810479640960693359375</LongitudeDegrees>
            </Position>
            <AltitudeMeters>241</AltitudeMeters>
            <DistanceMeters>4601.25927419</DistanceMeters>
          </Trackpoint>
          <Trackpoint>
            <Time>2019-01-04T10:10:03.000Z</Time>
            <Position>
              <LatitudeDegrees>36.51598555035889148712158203125</LatitudeDegrees>
              <LongitudeDegrees>-5.40956522338092327117919921875</LongitudeDegrees>
            </Position>
            <AltitudeMeters>240.8000030517578125</AltitudeMeters>
            <DistanceMeters>4601.7344077619</DistanceMeters>
          </Trackpoint>
          <Trackpoint>
            <Time>2019-01-04T10:10:04.000Z</Time>
            <Position>
              <LatitudeDegrees>36.51598052121698856353759765625</LatitudeDegrees>
              <LongitudeDegrees>-5.40956807322800159454345703125</LongitudeDegrees>
            </Position>
            <AltitudeMeters>240.600006103515625</AltitudeMeters>
            <DistanceMeters>4602.3502512571</DistanceMeters>
          </Trackpoint>
          <Trackpoint>
            <Time>2019-01-04T10:10:05.000Z</Time>
            <Position>
              <LatitudeDegrees>36.515971384942531585693359375</LatitudeDegrees>
              <LongitudeDegrees>-5.40957159362733364105224609375</LongitudeDegrees>
            </Position>
            <AltitudeMeters>240.1999969482421875</AltitudeMeters>
            <DistanceMeters>4603.4126822222</DistanceMeters>
          </Trackpoint>
          <Trackpoint>
            <Time>2019-01-04T10:10:06.000Z</Time>
            <Position>
              <LatitudeDegrees>36.515964008867740631103515625</LatitudeDegrees>
              <LongitudeDegrees>-5.40956958197057247161865234375</LongitudeDegrees>
            </Position>
            <AltitudeMeters>239.8000030517578125</AltitudeMeters>
            <DistanceMeters>4604.2519354394</DistanceMeters>
          </Trackpoint>
          <Trackpoint>
            <Time>2019-01-04T10:10:07.000Z</Time>
            <Position>
              <LatitudeDegrees>36.515954621136188507080078125</LatitudeDegrees>
              <LongitudeDegrees>-5.40957209654152393341064453125</LongitudeDegrees>
            </Position>
            <AltitudeMeters>239.399993896484375</AltitudeMeters>
            <DistanceMeters>4605.3228321237</DistanceMeters>
          </Trackpoint>
          <Trackpoint>
            <Time>2019-01-04T10:10:08.000Z</Time>
            <Position>
              <LatitudeDegrees>36.5159440599381923675537109375</LatitudeDegrees>
              <LongitudeDegrees>-5.40957427583634853363037109375</LongitudeDegrees>
            </Position>
            <AltitudeMeters>239.1999969482421875</AltitudeMeters>
            <DistanceMeters>4606.5172994017</DistanceMeters>
          </Trackpoint>
          <Trackpoint>
            <Time>2019-01-04T10:10:09.000Z</Time>
            <Position>
              <LatitudeDegrees>36.51593676768243312835693359375</LatitudeDegrees>
              <LongitudeDegrees>-5.40957410819828510284423828125</LongitudeDegrees>
            </Position>
            <AltitudeMeters>239</AltitudeMeters>
            <DistanceMeters>4607.3236278112</DistanceMeters>
          </Trackpoint>
          <Trackpoint>
            <Time>2019-01-04T10:10:10.000Z</Time>
            <Position>
              <LatitudeDegrees>36.51592905633151531219482421875</LatitudeDegrees>
              <LongitudeDegrees>-5.40957377292215824127197265625</LongitudeDegrees>
            </Position>
            <AltitudeMeters>238.8000030517578125</AltitudeMeters>
            <DistanceMeters>4608.1841313082</DistanceMeters>
          </Trackpoint>
          <Trackpoint>
            <Time>2019-01-04T10:10:11.000Z</Time>
            <Position>
              <LatitudeDegrees>36.5159194171428680419921875</LatitudeDegrees>
              <LongitudeDegrees>-5.4095755331218242645263671875</LongitudeDegrees>
            </Position>
            <AltitudeMeters>238.600006103515625</AltitudeMeters>
            <DistanceMeters>4609.2676025527</DistanceMeters>
          </Trackpoint>
          <Trackpoint>
            <Time>2019-01-04T10:10:12.000Z</Time>
            <Position>
              <LatitudeDegrees>36.5159128792583942413330078125</LatitudeDegrees>
              <LongitudeDegrees>-5.40957662276923656463623046875</LongitudeDegrees>
            </Position>
            <AltitudeMeters>238.399993896484375</AltitudeMeters>
            <DistanceMeters>4610.0036763171</DistanceMeters>
          </Trackpoint>
          <Trackpoint>
            <Time>2019-01-04T10:10:13.000Z</Time>
            <Position>
              <LatitudeDegrees>36.5159060060977935791015625</LatitudeDegrees>
              <LongitudeDegrees>-5.409576706588268280029296875</LongitudeDegrees>
            </Position>
            <AltitudeMeters>238.1999969482421875</AltitudeMeters>
            <DistanceMeters>4610.7698061813</DistanceMeters>
          </Trackpoint>
          <Trackpoint>
            <Time>2019-01-04T10:10:14.000Z</Time>
            <Position>
              <LatitudeDegrees>36.51589737273752689361572265625</LatitudeDegrees>
              <LongitudeDegrees>-5.40957762859761714935302734375</LongitudeDegrees>
            </Position>
            <AltitudeMeters>238.1999969482421875</AltitudeMeters>
            <DistanceMeters>4611.7388923231</DistanceMeters>
          </Trackpoint>
          <Trackpoint>
            <Time>2019-01-04T10:10:15.000Z</Time>
            <Position>
              <LatitudeDegrees>36.5158900804817676544189453125</LatitudeDegrees>
              <LongitudeDegrees>-5.409579388797283172607421875</LongitudeDegrees>
            </Position>
            <AltitudeMeters>238</AltitudeMeters>
            <DistanceMeters>4612.5673160129</DistanceMeters>
          </Trackpoint>
          <Trackpoint>
            <Time>2019-01-04T10:10:16.000Z</Time>
            <Position>
              <LatitudeDegrees>36.515880189836025238037109375</LatitudeDegrees>
              <LongitudeDegrees>-5.4095819033682346343994140625</LongitudeDegrees>
            </Position>
            <AltitudeMeters>237.8000030517578125</AltitudeMeters>
            <DistanceMeters>4613.6916872603</DistanceMeters>
          </Trackpoint>
          <Trackpoint>
            <Time>2019-01-04T10:10:17.000Z</Time>
            <Position>
              <LatitudeDegrees>36.5158733166754245758056640625</LatitudeDegrees>
              <LongitudeDegrees>-5.4095839150249958038330078125</LongitudeDegrees>
            </Position>
            <AltitudeMeters>237.600006103515625</AltitudeMeters>
            <DistanceMeters>4614.4752976215</DistanceMeters>
          </Trackpoint>
          <Trackpoint>
            <Time>2019-01-04T10:10:18.000Z</Time>
            <Position>
              <LatitudeDegrees>36.5158656053245067596435546875</LatitudeDegrees>
              <LongitudeDegrees>-5.40958383120596408843994140625</LongitudeDegrees>
            </Position>
            <AltitudeMeters>237.399993896484375</AltitudeMeters>
            <DistanceMeters>4615.3305380509</DistanceMeters>
          </Trackpoint>
          <Trackpoint>
            <Time>2019-01-04T10:10:19.000Z</Time>
            <Position>
              <LatitudeDegrees>36.51586049236357212066650390625</LatitudeDegrees>
              <LongitudeDegrees>-5.40957980789244174957275390625</LongitudeDegrees>
            </Position>
            <AltitudeMeters>237.1999969482421875</AltitudeMeters>
            <DistanceMeters>4616.0024783921</DistanceMeters>
          </Trackpoint>
          <Trackpoint>
            <Time>2019-01-04T10:10:20.000Z</Time>
            <Position>
              <LatitudeDegrees>36.51585378684103488922119140625</LatitudeDegrees>
              <LongitudeDegrees>-5.40957695804536342620849609375</LongitudeDegrees>
            </Position>
            <AltitudeMeters>237</AltitudeMeters>
            <DistanceMeters>4616.7860887533</DistanceMeters>
          </Trackpoint>
          <Trackpoint>
            <Time>2019-01-04T10:10:21.000Z</Time>
            <Position>
              <LatitudeDegrees>36.51584498584270477294921875</LatitudeDegrees>
              <LongitudeDegrees>-5.40957662276923656463623046875</LongitudeDegrees>
            </Position>
            <AltitudeMeters>236.8000030517578125</AltitudeMeters>
            <DistanceMeters>4617.764448658</DistanceMeters>
          </Trackpoint>
          <Trackpoint>
            <Time>2019-01-04T10:10:22.000Z</Time>
            <Position>
              <LatitudeDegrees>36.51583802886307239532470703125</LatitudeDegrees>
              <LongitudeDegrees>-5.4095798917114734649658203125</LongitudeDegrees>
            </Position>
            <AltitudeMeters>236.600006103515625</AltitudeMeters>
            <DistanceMeters>4618.5928723477</DistanceMeters>
          </Trackpoint>
          <Trackpoint>
            <Time>2019-01-04T10:10:23.000Z</Time>
            <Position>
              <LatitudeDegrees>36.51582864113152027130126953125</LatitudeDegrees>
              <LongitudeDegrees>-5.40958332829177379608154296875</LongitudeDegrees>
            </Position>
            <AltitudeMeters>236.1999969482421875</AltitudeMeters>
            <DistanceMeters>4619.6805028062</DistanceMeters>
          </Trackpoint>
          <Trackpoint>
            <Time>2019-01-04T10:10:24.000Z</Time>
            <Position>
              <LatitudeDegrees>36.51582210324704647064208984375</LatitudeDegrees>
              <LongitudeDegrees>-5.4095842503011226654052734375</LongitudeDegrees>
            </Position>
            <AltitudeMeters>235.8000030517578125</AltitudeMeters>
            <DistanceMeters>4620.4165765706</DistanceMeters>
          </Trackpoint>
          <Trackpoint>
            <Time>2019-01-04T10:10:25.000Z</Time>
            <Position>
              <LatitudeDegrees>36.51581506244838237762451171875</LatitudeDegrees>
              <LongitudeDegrees>-5.40958802215754985809326171875</LongitudeDegrees>
            </Position>
            <AltitudeMeters>235.600006103515625</AltitudeMeters>
            <DistanceMeters>4621.2718169999</DistanceMeters>
          </Trackpoint>
          <Trackpoint>
            <Time>2019-01-04T10:10:26.000Z</Time>
            <Position>
              <LatitudeDegrees>36.51581011712551116943359375</LatitudeDegrees>
              <LongitudeDegrees>-5.4095896147191524505615234375</LongitudeDegrees>
            </Position>
            <AltitudeMeters>235.399993896484375</AltitudeMeters>
            <DistanceMeters>4621.8419772862</DistanceMeters>
          </Trackpoint>
          <Trackpoint>
            <Time>2019-01-04T10:10:27.000Z</Time>
            <Position>
              <LatitudeDegrees>36.515805087983608245849609375</LatitudeDegrees>
              <LongitudeDegrees>-5.40958953090012073516845703125</LongitudeDegrees>
            </Position>
            <AltitudeMeters>235.1999969482421875</AltitudeMeters>
            <DistanceMeters>4622.3960734864</DistanceMeters>
          </Trackpoint>
          <Trackpoint>
            <Time>2019-01-04T10:10:28.000Z</Time>
            <Position>
              <LatitudeDegrees>36.51579695753753185272216796875</LatitudeDegrees>
              <LongitudeDegrees>-5.40959456004202365875244140625</LongitudeDegrees>
            </Position>
            <AltitudeMeters>235.1999969482421875</AltitudeMeters>
            <DistanceMeters>4623.4106811517</DistanceMeters>
          </Trackpoint>
          <Trackpoint>
            <Time>2019-01-04T10:10:29.000Z</Time>
            <Position>
              <LatitudeDegrees>36.515791006386280059814453125</LatitudeDegrees>
              <LongitudeDegrees>-5.4095976613461971282958984375</LongitudeDegrees>
            </Position>
            <AltitudeMeters>235</AltitudeMeters>
            <DistanceMeters>4624.1343830474</DistanceMeters>
          </Trackpoint>
          <Trackpoint>
            <Time>2019-01-04T10:10:30.000Z</Time>
            <Position>
              <LatitudeDegrees>36.5157817862927913665771484375</LatitudeDegrees>
              <LongitudeDegrees>-5.409599505364894866943359375</LongitudeDegrees>
            </Position>
            <AltitudeMeters>235</AltitudeMeters>
            <DistanceMeters>4625.1753485479</DistanceMeters>
          </Trackpoint>
          <Trackpoint>
            <Time>2019-01-04T10:10:31.000Z</Time>
            <Position>
              <LatitudeDegrees>36.5157700516283512115478515625</LatitudeDegrees>
              <LongitudeDegrees>-5.409601517021656036376953125</LongitudeDegrees>
            </Position>
            <AltitudeMeters>234.8000030517578125</AltitudeMeters>
            <DistanceMeters>4626.4955018548</DistanceMeters>
          </Trackpoint>
          <Trackpoint>
            <Time>2019-01-04T10:10:32.000Z</Time>
            <Position>
              <LatitudeDegrees>36.515762172639369964599609375</LatitudeDegrees>
              <LongitudeDegrees>-5.4096063785254955291748046875</LongitudeDegrees>
            </Position>
            <AltitudeMeters>234.600006103515625</AltitudeMeters>
            <DistanceMeters>4627.4738617594</DistanceMeters>
          </Trackpoint>
          <Trackpoint>
            <Time>2019-01-04T10:10:33.000Z</Time>
            <Position>
              <LatitudeDegrees>36.5157563053071498870849609375</LatitudeDegrees>
              <LongitudeDegrees>-5.4096077196300029754638671875</LongitudeDegrees>
            </Position>
            <AltitudeMeters>234.399993896484375</AltitudeMeters>
            <DistanceMeters>4628.1322261489</DistanceMeters>
          </Trackpoint>
          <Trackpoint>
            <Time>2019-01-04T10:10:34.000Z</Time>
            <Position>
              <LatitudeDegrees>36.515751779079437255859375</LatitudeDegrees>
              <LongitudeDegrees>-5.4096097312867641448974609375</LongitudeDegrees>
            </Position>
            <AltitudeMeters>234.1999969482421875</AltitudeMeters>
            <DistanceMeters>4628.6697784219</DistanceMeters>
          </Trackpoint>
          <Trackpoint>
            <Time>2019-01-04T10:10:35.000Z</Time>
            <Position>
              <LatitudeDegrees>36.51574884541332721710205078125</LatitudeDegrees>
              <LongitudeDegrees>-5.40961283259093761444091796875</LongitudeDegrees>
            </Position>
            <AltitudeMeters>234</AltitudeMeters>
            <DistanceMeters>4629.0947508079</DistanceMeters>
          </Trackpoint>
          <Trackpoint>
            <Time>2019-01-04T10:10:36.000Z</Time>
            <Position>
              <LatitudeDegrees>36.5157477557659149169921875</LatitudeDegrees>
              <LongitudeDegrees>-5.40961853228509426116943359375</LongitudeDegrees>
            </Position>
            <AltitudeMeters>233.8000030517578125</AltitudeMeters>
            <DistanceMeters>4629.6238371617</DistanceMeters>
          </Trackpoint>
          <Trackpoint>
            <Time>2019-01-04T10:10:37.000Z</Time>
            <Position>
              <LatitudeDegrees>36.51574767194688320159912109375</LatitudeDegrees>
              <LongitudeDegrees>-5.40962289087474346160888671875</LongitudeDegrees>
            </Position>
            <AltitudeMeters>233.600006103515625</AltitudeMeters>
            <DistanceMeters>4630.0039440192</DistanceMeters>
          </Trackpoint>
          <Trackpoint>
            <Time>2019-01-04T10:10:38.000Z</Time>
            <Position>
              <LatitudeDegrees>36.51574733667075634002685546875</LatitudeDegrees>
              <LongitudeDegrees>-5.40962473489344120025634765625</LongitudeDegrees>
            </Position>
            <AltitudeMeters>233.399993896484375</AltitudeMeters>
            <DistanceMeters>4630.1939974479</DistanceMeters>
          </Trackpoint>
          <Trackpoint>
            <Time>2019-01-04T10:10:39.000Z</Time>
            <Position>
              <LatitudeDegrees>36.5157397091388702392578125</LatitudeDegrees>
              <LongitudeDegrees>-5.4096328653395175933837890625</LongitudeDegrees>
            </Position>
            <AltitudeMeters>233</AltitudeMeters>
            <DistanceMeters>4631.3103085825</DistanceMeters>
          </Trackpoint>
          <Trackpoint>
            <Time>2019-01-04T10:10:40.000Z</Time>
            <Position>
              <LatitudeDegrees>36.5157355181872844696044921875</LatitudeDegrees>
              <LongitudeDegrees>-5.40964384563267230987548828125</LongitudeDegrees>
            </Position>
            <AltitudeMeters>232.8000030517578125</AltitudeMeters>
            <DistanceMeters>4632.4020824101</DistanceMeters>
          </Trackpoint>
          <Trackpoint>
            <Time>2019-01-04T10:10:41.000Z</Time>
            <Position>
              <LatitudeDegrees>36.5157289803028106689453125</LatitudeDegrees>
              <LongitudeDegrees>-5.4096539877355098724365234375</LongitudeDegrees>
            </Position>
            <AltitudeMeters>232.600006103515625</AltitudeMeters>
            <DistanceMeters>4633.5659172208</DistanceMeters>
          </Trackpoint>
          <Trackpoint>
            <Time>2019-01-04T10:10:42.000Z</Time>
            <Position>
              <LatitudeDegrees>36.51572185568511486053466796875</LatitudeDegrees>
              <LongitudeDegrees>-5.40965792723000049591064453125</LongitudeDegrees>
            </Position>
            <AltitudeMeters>232.399993896484375</AltitudeMeters>
            <DistanceMeters>4634.4368514441</DistanceMeters>
          </Trackpoint>
          <Trackpoint>
            <Time>2019-01-04T10:10:43.000Z</Time>
            <Position>
              <LatitudeDegrees>36.51571313850581645965576171875</LatitudeDegrees>
              <LongitudeDegrees>-5.40966295637190341949462890625</LongitudeDegrees>
            </Position>
            <AltitudeMeters>232</AltitudeMeters>
            <DistanceMeters>4635.5119559901</DistanceMeters>
          </Trackpoint>
          <Trackpoint>
            <Time>2019-01-04T10:10:44.000Z</Time>
            <Position>
              <LatitudeDegrees>36.51570358313620090484619140625</LatitudeDegrees>
              <LongitudeDegrees>-5.40966496802866458892822265625</LongitudeDegrees>
            </Position>
            <AltitudeMeters>231.600006103515625</AltitudeMeters>
            <DistanceMeters>4636.5954272346</DistanceMeters>
          </Trackpoint>
          <Trackpoint>
            <Time>2019-01-04T10:10:45.000Z</Time>
            <Position>
              <LatitudeDegrees>36.51569201610982418060302734375</LatitudeDegrees>
              <LongitudeDegrees>-5.4096657223999500274658203125</LongitudeDegrees>
            </Position>
            <AltitudeMeters>231.1999969482421875</AltitudeMeters>
            <DistanceMeters>4637.8844323028</DistanceMeters>
          </Trackpoint>
          <Trackpoint>
            <Time>2019-01-04T10:10:46.000Z</Time>
            <Position>
              <LatitudeDegrees>36.51568229310214519500732421875</LatitudeDegrees>
              <LongitudeDegrees>-5.4096707515418529510498046875</LongitudeDegrees>
            </Position>
            <AltitudeMeters>231</AltitudeMeters>
            <DistanceMeters>4639.0560003202</DistanceMeters>
          </Trackpoint>
          <Trackpoint>
            <Time>2019-01-04T10:10:47.000Z</Time>
            <Position>
              <LatitudeDegrees>36.51567273773252964019775390625</LatitudeDegrees>
              <LongitudeDegrees>-5.40967636741697788238525390625</LongitudeDegrees>
            </Position>
            <AltitudeMeters>231</AltitudeMeters>
            <DistanceMeters>4640.2352508332</DistanceMeters>
          </Trackpoint>
          <Trackpoint>
            <Time>2019-01-04T10:10:48.000Z</Time>
            <Position>
              <LatitudeDegrees>36.51566335000097751617431640625</LatitudeDegrees>
              <LongitudeDegrees>-5.4096811451017856597900390625</LongitudeDegrees>
            </Position>
            <AltitudeMeters>230.8000030517578125</AltitudeMeters>
            <DistanceMeters>4641.367624824</DistanceMeters>
          </Trackpoint>
          <Trackpoint>
            <Time>2019-01-04T10:10:49.000Z</Time>
            <Position>
              <LatitudeDegrees>36.5156560577452182769775390625</LatitudeDegrees>
              <LongitudeDegrees>-5.4096848331391811370849609375</LongitudeDegrees>
            </Position>
            <AltitudeMeters>230.600006103515625</AltitudeMeters>
            <DistanceMeters>4642.2437278418</DistanceMeters>
          </Trackpoint>
          <Trackpoint>
            <Time>2019-01-04T10:10:50.000Z</Time>
            <Position>
              <LatitudeDegrees>36.5156511962413787841796875</LatitudeDegrees>
              <LongitudeDegrees>-5.409692712128162384033203125</LongitudeDegrees>
            </Position>
            <AltitudeMeters>230.399993896484375</AltitudeMeters>
            <DistanceMeters>4643.1300780269</DistanceMeters>
          </Trackpoint>
          <Trackpoint>
            <Time>2019-01-04T10:10:51.000Z</Time>
            <Position>
              <LatitudeDegrees>36.51564993895590305328369140625</LatitudeDegrees>
              <LongitudeDegrees>-5.409699417650699615478515625</LongitudeDegrees>
            </Position>
            <AltitudeMeters>230</AltitudeMeters>
            <DistanceMeters>4643.7459215221</DistanceMeters>
          </Trackpoint>
          <Trackpoint>
            <Time>2019-01-04T10:10:52.000Z</Time>
            <Position>
              <LatitudeDegrees>36.5156503580510616302490234375</LatitudeDegrees>
              <LongitudeDegrees>-5.40970511734485626220703125</LongitudeDegrees>
            </Position>
            <AltitudeMeters>229.8000030517578125</AltitudeMeters>
            <DistanceMeters>4644.2664042724</DistanceMeters>
          </Trackpoint>
          <Trackpoint>
            <Time>2019-01-04T10:10:53.000Z</Time>
            <Position>
              <LatitudeDegrees>36.515652872622013092041015625</LatitudeDegrees>
              <LongitudeDegrees>-5.40971308015286922454833984375</LongitudeDegrees>
            </Position>
            <AltitudeMeters>229.600006103515625</AltitudeMeters>
            <DistanceMeters>4645.0325341366</DistanceMeters>
          </Trackpoint>
          <Trackpoint>
            <Time>2019-01-04T10:10:54.000Z</Time>
            <Position>
              <LatitudeDegrees>36.51565614156424999237060546875</LatitudeDegrees>
              <LongitudeDegrees>-5.40972380898892879486083984375</LongitudeDegrees>
            </Position>
            <AltitudeMeters>229.399993896484375</AltitudeMeters>
            <DistanceMeters>4646.0560031725</DistanceMeters>
          </Trackpoint>
          <Trackpoint>
            <Time>2019-01-04T10:10:55.000Z</Time>
            <Position>
              <LatitudeDegrees>36.51565614156424999237060546875</LatitudeDegrees>
              <LongitudeDegrees>-5.40973219089210033416748046875</LongitudeDegrees>
            </Position>
            <AltitudeMeters>229.399993896484375</AltitudeMeters>
            <DistanceMeters>4646.7981855376</DistanceMeters>
          </Trackpoint>
          <Trackpoint>
            <Time>2019-01-04T10:10:56.000Z</Time>
            <Position>
              <LatitudeDegrees>36.515656225383281707763671875</LatitudeDegrees>
              <LongitudeDegrees>-5.40973998606204986572265625</LongitudeDegrees>
            </Position>
            <AltitudeMeters>229.1999969482421875</AltitudeMeters>
            <DistanceMeters>4647.4964864241</DistanceMeters>
          </Trackpoint>
          <Trackpoint>
            <Time>2019-01-04T10:10:57.000Z</Time>
            <Position>
              <LatitudeDegrees>36.5156516991555690765380859375</LatitudeDegrees>
              <LongitudeDegrees>-5.409750044345855712890625</LongitudeDegrees>
            </Position>
            <AltitudeMeters>229</AltitudeMeters>
            <DistanceMeters>4648.5287407631</DistanceMeters>
          </Trackpoint>
          <Trackpoint>
            <Time>2019-01-04T10:10:58.000Z</Time>
            <Position>
              <LatitudeDegrees>36.5156486816704273223876953125</LatitudeDegrees>
              <LongitudeDegrees>-5.40975532494485378265380859375</LongitudeDegrees>
            </Position>
            <AltitudeMeters>228.8000030517578125</AltitudeMeters>
            <DistanceMeters>4649.1067657006</DistanceMeters>
          </Trackpoint>
          <Trackpoint>
            <Time>2019-01-04T10:10:59.000Z</Time>
            <Position>
              <LatitudeDegrees>36.51564910076558589935302734375</LatitudeDegrees>
              <LongitudeDegrees>-5.4097622819244861602783203125</LongitudeDegrees>
            </Position>
            <AltitudeMeters>228.600006103515625</AltitudeMeters>
            <DistanceMeters>4649.7298975382</DistanceMeters>
          </Trackpoint>
          <Trackpoint>
            <Time>2019-01-04T10:11:00.000Z</Time>
            <Position>
              <LatitudeDegrees>36.51565178297460079193115234375</LatitudeDegrees>
              <LongitudeDegrees>-5.40976806543767452239990234375</LongitudeDegrees>
            </Position>
            <AltitudeMeters>228.1999969482421875</AltitudeMeters>
            <DistanceMeters>4650.3308992502</DistanceMeters>
          </Trackpoint>
          <Trackpoint>
            <Time>2019-01-04T10:11:01.000Z</Time>
            <Position>
              <LatitudeDegrees>36.51565211825072765350341796875</LatitudeDegrees>
              <LongitudeDegrees>-5.4097787104547023773193359375</LongitudeDegrees>
            </Position>
            <AltitudeMeters>228</AltitudeMeters>
            <DistanceMeters>4651.2859059103</DistanceMeters>
          </Trackpoint>
          <Trackpoint>
            <Time>2019-01-04T10:11:02.000Z</Time>
            <Position>
              <LatitudeDegrees>36.5156485140323638916015625</LatitudeDegrees>
              <LongitudeDegrees>-5.4097840748727321624755859375</LongitudeDegrees>
            </Position>
            <AltitudeMeters>227.8000030517578125</AltitudeMeters>
            <DistanceMeters>4651.9162418235</DistanceMeters>
          </Trackpoint>
          <Trackpoint>
            <Time>2019-01-04T10:11:03.000Z</Time>
            <Position>
              <LatitudeDegrees>36.5156429819762706756591796875</LatitudeDegrees>
              <LongitudeDegrees>-5.40979304350912570953369140625</LongitudeDegrees>
            </Position>
            <AltitudeMeters>227.600006103515625</AltitudeMeters>
            <DistanceMeters>4652.9308494889</DistanceMeters>
          </Trackpoint>
          <Trackpoint>
            <Time>2019-01-04T10:11:04.000Z</Time>
            <Position>
              <LatitudeDegrees>36.515635438263416290283203125</LatitudeDegrees>
              <LongitudeDegrees>-5.4098031856119632720947265625</LongitudeDegrees>
            </Position>
            <AltitudeMeters>227.399993896484375</AltitudeMeters>
            <DistanceMeters>4654.1661967757</DistanceMeters>
          </Trackpoint>
          <Trackpoint>
            <Time>2019-01-04T10:11:05.000Z</Time>
            <Position>
              <LatitudeDegrees>36.51562563143670558929443359375</LatitudeDegrees>
              <LongitudeDegrees>-5.40981198661029338836669921875</LongitudeDegrees>
            </Position>
            <AltitudeMeters>227</AltitudeMeters>
            <DistanceMeters>4655.5100774582</DistanceMeters>
          </Trackpoint>
          <Trackpoint>
            <Time>2019-01-04T10:11:06.000Z</Time>
            <Position>
              <LatitudeDegrees>36.5156198479235172271728515625</LatitudeDegrees>
              <LongitudeDegrees>-5.40980980731546878814697265625</LongitudeDegrees>
            </Position>
            <AltitudeMeters>226.600006103515625</AltitudeMeters>
            <DistanceMeters>4656.1820177995</DistanceMeters>
          </Trackpoint>
          <Trackpoint>
            <Time>2019-01-04T10:11:07.000Z</Time>
            <Position>
              <LatitudeDegrees>36.51561389677226543426513671875</LatitudeDegrees>
              <LongitudeDegrees>-5.409810729324817657470703125</LongitudeDegrees>
            </Position>
            <AltitudeMeters>226</AltitudeMeters>
            <DistanceMeters>4656.8403821889</DistanceMeters>
          </Trackpoint>
          <Trackpoint>
            <Time>2019-01-04T10:11:08.000Z</Time>
            <Position>
              <LatitudeDegrees>36.51560367085039615631103515625</LatitudeDegrees>
              <LongitudeDegrees>-5.4098157584667205810546875</LongitudeDegrees>
            </Position>
            <AltitudeMeters>225.8000030517578125</AltitudeMeters>
            <DistanceMeters>4658.0647157585</DistanceMeters>
          </Trackpoint>
          <Trackpoint>
            <Time>2019-01-04T10:11:09.000Z</Time>
            <Position>
              <LatitudeDegrees>36.5155977196991443634033203125</LatitudeDegrees>
              <LongitudeDegrees>-5.40981299243867397308349609375</LongitudeDegrees>
            </Position>
            <AltitudeMeters>225.399993896484375</AltitudeMeters>
            <DistanceMeters>4658.7694527339</DistanceMeters>
          </Trackpoint>
          <Trackpoint>
            <Time>2019-01-04T10:11:10.000Z</Time>
            <Position>
              <LatitudeDegrees>36.515594534575939178466796875</LatitudeDegrees>
              <LongitudeDegrees>-5.40981047786772251129150390625</LongitudeDegrees>
            </Position>
            <AltitudeMeters>225.1999969482421875</AltitudeMeters>
            <DistanceMeters>4659.1944251199</DistanceMeters>
          </Trackpoint>
          <Trackpoint>
            <Time>2019-01-04T10:11:11.000Z</Time>
            <Position>
              <LatitudeDegrees>36.51559428311884403228759765625</LatitudeDegrees>
              <LongitudeDegrees>-5.40980544872581958770751953125</LongitudeDegrees>
            </Position>
            <AltitudeMeters>225</AltitudeMeters>
            <DistanceMeters>4659.6599590442</DistanceMeters>
          </Trackpoint>
          <Trackpoint>
            <Time>2019-01-04T10:11:12.000Z</Time>
            <Position>
              <LatitudeDegrees>36.51559713296592235565185546875</LatitudeDegrees>
              <LongitudeDegrees>-5.40980435907840728759765625</LongitudeDegrees>
            </Position>
            <AltitudeMeters>224.8000030517578125</AltitudeMeters>
            <DistanceMeters>4659.9891412389</DistanceMeters>
          </Trackpoint>
          <Trackpoint>
            <Time>2019-01-04T10:11:13.000Z</Time>
            <Position>
              <LatitudeDegrees>36.51559646241366863250732421875</LatitudeDegrees>
              <LongitudeDegrees>-5.40980176068842411041259765625</LongitudeDegrees>
            </Position>
            <AltitudeMeters>224.600006103515625</AltitudeMeters>
            <DistanceMeters>4660.240558293</DistanceMeters>
          </Trackpoint>
          <Trackpoint>
            <Time>2019-01-04T10:11:14.000Z</Time>
            <Position>
              <LatitudeDegrees>36.515595875680446624755859375</LatitudeDegrees>
              <LongitudeDegrees>-5.409802012145519256591796875</LongitudeDegrees>
            </Position>
            <AltitudeMeters>224.600006103515625</AltitudeMeters>
            <DistanceMeters>4660.240558293</DistanceMeters>
          </Trackpoint>
          <Trackpoint>
            <Time>2019-01-04T10:11:15.000Z</Time>
            <Position>
              <LatitudeDegrees>36.515592522919178009033203125</LatitudeDegrees>
              <LongitudeDegrees>-5.4098045267164707183837890625</LongitudeDegrees>
            </Position>
            <AltitudeMeters>224.399993896484375</AltitudeMeters>
            <DistanceMeters>4660.6760254047</DistanceMeters>
          </Trackpoint>
          <Trackpoint>
            <Time>2019-01-04T10:11:16.000Z</Time>
            <Position>
              <LatitudeDegrees>36.51559009216725826263427734375</LatitudeDegrees>
              <LongitudeDegrees>-5.409805364906787872314453125</LongitudeDegrees>
            </Position>
            <AltitudeMeters>224.399993896484375</AltitudeMeters>
            <DistanceMeters>4660.9448015412</DistanceMeters>
          </Trackpoint>
          <Trackpoint>
            <Time>2019-01-04T10:11:17.000Z</Time>
            <Position>
              <LatitudeDegrees>36.5155863203108310699462890625</LatitudeDegrees>
              <LongitudeDegrees>-5.4098055325448513031005859375</LongitudeDegrees>
            </Position>
            <AltitudeMeters>224.399993896484375</AltitudeMeters>
            <DistanceMeters>4661.3590133861</DistanceMeters>
          </Trackpoint>
          <Trackpoint>
            <Time>2019-01-04T10:11:18.000Z</Time>
            <Position>
              <LatitudeDegrees>36.5155836381018161773681640625</LatitudeDegrees>
              <LongitudeDegrees>-5.4098088853061199188232421875</LongitudeDegrees>
            </Position>
            <AltitudeMeters>224.1999969482421875</AltitudeMeters>
            <DistanceMeters>4661.7839857721</DistanceMeters>
          </Trackpoint>
          <Trackpoint>
            <Time>2019-01-04T10:11:19.000Z</Time>
            <Position>
              <LatitudeDegrees>36.51558212935924530029296875</LatitudeDegrees>
              <LongitudeDegrees>-5.4098122380673885345458984375</LongitudeDegrees>
            </Position>
            <AltitudeMeters>224.1999969482421875</AltitudeMeters>
            <DistanceMeters>4662.1266094633</DistanceMeters>
          </Trackpoint>
          <Trackpoint>
            <Time>2019-01-04T10:11:20.000Z</Time>
            <Position>
              <LatitudeDegrees>36.515579782426357269287109375</LatitudeDegrees>
              <LongitudeDegrees>-5.409812740981578826904296875</LongitudeDegrees>
            </Position>
            <AltitudeMeters>224.1999969482421875</AltitudeMeters>
            <DistanceMeters>4662.3953855998</DistanceMeters>
          </Trackpoint>
          <Trackpoint>
            <Time>2019-01-04T10:11:21.000Z</Time>
            <Position>
              <LatitudeDegrees>36.515577100217342376708984375</LatitudeDegrees>
              <LongitudeDegrees>-5.409812070429325103759765625</LongitudeDegrees>
            </Position>
            <AltitudeMeters>224</AltitudeMeters>
            <DistanceMeters>4662.7105535564</DistanceMeters>
          </Trackpoint>
          <Trackpoint>
            <Time>2019-01-04T10:11:22.000Z</Time>
            <Position>
              <LatitudeDegrees>36.51557366363704204559326171875</LatitudeDegrees>
              <LongitudeDegrees>-5.4098115675151348114013671875</LongitudeDegrees>
            </Position>
            <AltitudeMeters>224</AltitudeMeters>
            <DistanceMeters>4663.0906604139</DistanceMeters>
          </Trackpoint>
          <Trackpoint>
            <Time>2019-01-04T10:11:23.000Z</Time>
            <Position>
              <LatitudeDegrees>36.51557064615190029144287109375</LatitudeDegrees>
              <LongitudeDegrees>-5.4098102264106273651123046875</LongitudeDegrees>
            </Position>
            <AltitudeMeters>224</AltitudeMeters>
            <DistanceMeters>4663.4462178217</DistanceMeters>
          </Trackpoint>
          <Trackpoint>
            <Time>2019-01-04T10:11:24.000Z</Time>
            <Position>
              <LatitudeDegrees>36.515571065247058868408203125</LatitudeDegrees>
              <LongitudeDegrees>-5.40980813093483448028564453125</LongitudeDegrees>
            </Position>
            <AltitudeMeters>223.8000030517578125</AltitudeMeters>
            <DistanceMeters>4663.6362712504</DistanceMeters>
          </Trackpoint>
          <Trackpoint>
            <Time>2019-01-04T10:11:25.000Z</Time>
            <Position>
              <LatitudeDegrees>36.51557047851383686065673828125</LatitudeDegrees>
              <LongitudeDegrees>-5.409806035459041595458984375</LongitudeDegrees>
            </Position>
            <AltitudeMeters>223.8000030517578125</AltitudeMeters>
            <DistanceMeters>4663.8263246791</DistanceMeters>
          </Trackpoint>
          <Trackpoint>
            <Time>2019-01-04T10:11:26.000Z</Time>
            <Position>
              <LatitudeDegrees>36.5155668742954730987548828125</LatitudeDegrees>
              <LongitudeDegrees>-5.40980461053550243377685546875</LongitudeDegrees>
            </Position>
            <AltitudeMeters>223.8000030517578125</AltitudeMeters>
            <DistanceMeters>4664.2512970651</DistanceMeters>
          </Trackpoint>
          <Trackpoint>
            <Time>2019-01-04T10:11:27.000Z</Time>
            <Position>
              <LatitudeDegrees>36.5155631862580776214599609375</LatitudeDegrees>
              <LongitudeDegrees>-5.4098045267164707183837890625</LongitudeDegrees>
            </Position>
            <AltitudeMeters>223.8000030517578125</AltitudeMeters>
            <DistanceMeters>4664.6762694512</DistanceMeters>
          </Trackpoint>
          <Trackpoint>
            <Time>2019-01-04T10:11:28.000Z</Time>
            <Position>
              <LatitudeDegrees>36.51555958203971385955810546875</LatitudeDegrees>
              <LongitudeDegrees>-5.4098088853061199188232421875</LongitudeDegrees>
            </Position>
            <AltitudeMeters>223.8000030517578125</AltitudeMeters>
            <DistanceMeters>4665.2384550749</DistanceMeters>
          </Trackpoint>
          <Trackpoint>
            <Time>2019-01-04T10:11:29.000Z</Time>
            <Position>
              <LatitudeDegrees>36.5155564807355403900146484375</LatitudeDegrees>
              <LongitudeDegrees>-5.40981114841997623443603515625</LongitudeDegrees>
            </Position>
            <AltitudeMeters>223.8000030517578125</AltitudeMeters>
            <DistanceMeters>4665.6526669198</DistanceMeters>
          </Trackpoint>
          <Trackpoint>
            <Time>2019-01-04T10:11:30.000Z</Time>
            <Position>
              <LatitudeDegrees>36.5155541338026523590087890625</LatitudeDegrees>
              <LongitudeDegrees>-5.4098105616867542266845703125</LongitudeDegrees>
            </Position>
            <AltitudeMeters>223.8000030517578125</AltitudeMeters>
            <DistanceMeters>4665.9214430563</DistanceMeters>
          </Trackpoint>
          <Trackpoint>
            <Time>2019-01-04T10:11:31.000Z</Time>
            <Position>
              <LatitudeDegrees>36.51555337943136692047119140625</LatitudeDegrees>
              <LongitudeDegrees>-5.4098098911345005035400390625</LongitudeDegrees>
            </Position>
            <AltitudeMeters>223.8000030517578125</AltitudeMeters>
            <DistanceMeters>4666.0558311245</DistanceMeters>
          </Trackpoint>
          <Trackpoint>
            <Time>2019-01-04T10:11:32.000Z</Time>
            <Position>
              <LatitudeDegrees>36.51555187068879604339599609375</LatitudeDegrees>
              <LongitudeDegrees>-5.409809052944183349609375</LongitudeDegrees>
            </Position>
            <AltitudeMeters>223.8000030517578125</AltitudeMeters>
            <DistanceMeters>4666.2458845533</DistanceMeters>
          </Trackpoint>
          <Trackpoint>
            <Time>2019-01-04T10:11:33.000Z</Time>
            <Position>
              <LatitudeDegrees>36.51554969139397144317626953125</LatitudeDegrees>
              <LongitudeDegrees>-5.40981148369610309600830078125</LongitudeDegrees>
            </Position>
            <AltitudeMeters>223.600006103515625</AltitudeMeters>
            <DistanceMeters>4666.575066748</DistanceMeters>
          </Trackpoint>
          <Trackpoint>
            <Time>2019-01-04T10:11:34.000Z</Time>
            <Position>
              <LatitudeDegrees>36.51554994285106658935546875</LatitudeDegrees>
              <LongitudeDegrees>-5.40981282480061054229736328125</LongitudeDegrees>
            </Position>
            <AltitudeMeters>223.600006103515625</AltitudeMeters>
            <DistanceMeters>4666.7094548163</DistanceMeters>
          </Trackpoint>
          <Trackpoint>
            <Time>2019-01-04T10:11:35.000Z</Time>
            <Position>
              <LatitudeDegrees>36.51554902084171772003173828125</LatitudeDegrees>
              <LongitudeDegrees>-5.40981718339025974273681640625</LongitudeDegrees>
            </Position>
            <AltitudeMeters>223.600006103515625</AltitudeMeters>
            <DistanceMeters>4667.112619021</DistanceMeters>
          </Trackpoint>
          <Trackpoint>
            <Time>2019-01-04T10:11:36.000Z</Time>
            <Position>
              <LatitudeDegrees>36.51554751209914684295654296875</LatitudeDegrees>
              <LongitudeDegrees>-5.4098169319331645965576171875</LongitudeDegrees>
            </Position>
            <AltitudeMeters>223.600006103515625</AltitudeMeters>
            <DistanceMeters>4667.3026724497</DistanceMeters>
          </Trackpoint>
          <Trackpoint>
            <Time>2019-01-04T10:11:37.000Z</Time>
            <Position>
              <LatitudeDegrees>36.515546925365924835205078125</LatitudeDegrees>
              <LongitudeDegrees>-5.409816764295101165771484375</LongitudeDegrees>
            </Position>
            <AltitudeMeters>223.600006103515625</AltitudeMeters>
            <DistanceMeters>4667.3976991641</DistanceMeters>
          </Trackpoint>
          <Trackpoint>
            <Time>2019-01-04T10:11:38.000Z</Time>
            <Position>
              <LatitudeDegrees>36.5155465900897979736328125</LatitudeDegrees>
              <LongitudeDegrees>-5.40981584228575229644775390625</LongitudeDegrees>
            </Position>
            <AltitudeMeters>223.600006103515625</AltitudeMeters>
            <DistanceMeters>4667.4927258785</DistanceMeters>
          </Trackpoint>
          <Trackpoint>
            <Time>2019-01-04T10:11:39.000Z</Time>
            <Position>
              <LatitudeDegrees>36.51554650627076625823974609375</LatitudeDegrees>
              <LongitudeDegrees>-5.4098155908286571502685546875</LongitudeDegrees>
            </Position>
            <AltitudeMeters>223.600006103515625</AltitudeMeters>
            <DistanceMeters>4667.4927258785</DistanceMeters>
          </Trackpoint>
          <Trackpoint>
            <Time>2019-01-04T10:11:40.000Z</Time>
            <Position>
              <LatitudeDegrees>36.51554667390882968902587890625</LatitudeDegrees>
              <LongitudeDegrees>-5.40981533937156200408935546875</LongitudeDegrees>
            </Position>
            <AltitudeMeters>223.600006103515625</AltitudeMeters>
            <DistanceMeters>4667.4927258785</DistanceMeters>
          </Trackpoint>
          <Trackpoint>
            <Time>2019-01-04T10:11:41.000Z</Time>
            <Position>
              <LatitudeDegrees>36.51554617099463939666748046875</LatitudeDegrees>
              <LongitudeDegrees>-5.409814752638339996337890625</LongitudeDegrees>
            </Position>
            <AltitudeMeters>223.600006103515625</AltitudeMeters>
            <DistanceMeters>4667.4927258785</DistanceMeters>
          </Trackpoint>
          <Trackpoint>
            <Time>2019-01-04T10:11:42.000Z</Time>
            <Position>
              <LatitudeDegrees>36.515542902052402496337890625</LatitudeDegrees>
              <LongitudeDegrees>-5.40981718339025974273681640625</LongitudeDegrees>
            </Position>
            <AltitudeMeters>223.600006103515625</AltitudeMeters>
            <DistanceMeters>4667.9176982645</DistanceMeters>
          </Trackpoint>
          <Trackpoint>
            <Time>2019-01-04T10:11:43.000Z</Time>
            <Position>
              <LatitudeDegrees>36.5155380405485630035400390625</LatitudeDegrees>
              <LongitudeDegrees>-5.40982045233249664306640625</LongitudeDegrees>
            </Position>
            <AltitudeMeters>223.399993896484375</AltitudeMeters>
            <DistanceMeters>4668.5408301021</DistanceMeters>
          </Trackpoint>
          <Trackpoint>
            <Time>2019-01-04T10:11:44.000Z</Time>
            <Position>
              <LatitudeDegrees>36.51553460396826267242431640625</LatitudeDegrees>
              <LongitudeDegrees>-5.409822799265384674072265625</LongitudeDegrees>
            </Position>
            <AltitudeMeters>223.399993896484375</AltitudeMeters>
            <DistanceMeters>4668.9865449008</DistanceMeters>
          </Trackpoint>
          <Trackpoint>
            <Time>2019-01-04T10:11:45.000Z</Time>
            <Position>
              <LatitudeDegrees>36.515531502664089202880859375</LatitudeDegrees>
              <LongitudeDegrees>-5.4098243080079555511474609375</LongitudeDegrees>
            </Position>
            <AltitudeMeters>223.399993896484375</AltitudeMeters>
            <DistanceMeters>4669.3666517583</DistanceMeters>
          </Trackpoint>
          <Trackpoint>
            <Time>2019-01-04T10:11:46.000Z</Time>
            <Position>
              <LatitudeDegrees>36.5155283175408840179443359375</LatitudeDegrees>
              <LongitudeDegrees>-5.40982556529343128204345703125</LongitudeDegrees>
            </Position>
            <AltitudeMeters>223.399993896484375</AltitudeMeters>
            <DistanceMeters>4669.7346886405</DistanceMeters>
          </Trackpoint>
          <Trackpoint>
            <Time>2019-01-04T10:11:47.000Z</Time>
            <Position>
              <LatitudeDegrees>36.51552504859864711761474609375</LatitudeDegrees>
              <LongitudeDegrees>-5.40982673875987529754638671875</LongitudeDegrees>
            </Position>
            <AltitudeMeters>223.399993896484375</AltitudeMeters>
            <DistanceMeters>4670.1027255227</DistanceMeters>
          </Trackpoint>
          <Trackpoint>
            <Time>2019-01-04T10:11:48.000Z</Time>
            <Position>
              <LatitudeDegrees>36.5155216120183467864990234375</LatitudeDegrees>
              <LongitudeDegrees>-5.40982757695019245147705078125</LongitudeDegrees>
            </Position>
            <AltitudeMeters>223.399993896484375</AltitudeMeters>
            <DistanceMeters>4670.4828323802</DistanceMeters>
          </Trackpoint>
          <Trackpoint>
            <Time>2019-01-04T10:11:49.000Z</Time>
            <Position>
              <LatitudeDegrees>36.51552043855190277099609375</LatitudeDegrees>
              <LongitudeDegrees>-5.40982757695019245147705078125</LongitudeDegrees>
            </Position>
            <AltitudeMeters>223.399993896484375</AltitudeMeters>
            <DistanceMeters>4670.6172204484</DistanceMeters>
          </Trackpoint>
          <Trackpoint>
            <Time>2019-01-04T10:11:50.000Z</Time>
            <Position>
              <LatitudeDegrees>36.515520773828029632568359375</LatitudeDegrees>
              <LongitudeDegrees>-5.40982782840728759765625</LongitudeDegrees>
            </Position>
            <AltitudeMeters>223.399993896484375</AltitudeMeters>
            <DistanceMeters>4670.6172204484</DistanceMeters>
          </Trackpoint>
          <Trackpoint>
            <Time>2019-01-04T10:11:51.000Z</Time>
            <Position>
              <LatitudeDegrees>36.51551817543804645538330078125</LatitudeDegrees>
              <LongitudeDegrees>-5.40982908569276332855224609375</LongitudeDegrees>
            </Position>
            <AltitudeMeters>223.399993896484375</AltitudeMeters>
            <DistanceMeters>4670.9177213044</DistanceMeters>
          </Trackpoint>
          <Trackpoint>
            <Time>2019-01-04T10:11:52.000Z</Time>
            <Position>
              <LatitudeDegrees>36.5155165828764438629150390625</LatitudeDegrees>
              <LongitudeDegrees>-5.4098323546350002288818359375</LongitudeDegrees>
            </Position>
            <AltitudeMeters>223.399993896484375</AltitudeMeters>
            <DistanceMeters>4671.2732787122</DistanceMeters>
          </Trackpoint>
          <Trackpoint>
            <Time>2019-01-04T10:11:53.000Z</Time>
            <Position>
              <LatitudeDegrees>36.51551750488579273223876953125</LatitudeDegrees>
              <LongitudeDegrees>-5.40983646176755428314208984375</LongitudeDegrees>
            </Position>
            <AltitudeMeters>223.399993896484375</AltitudeMeters>
            <DistanceMeters>4671.6650838928</DistanceMeters>
          </Trackpoint>
          <Trackpoint>
            <Time>2019-01-04T10:11:54.000Z</Time>
            <Position>
              <LatitudeDegrees>36.51551507413387298583984375</LatitudeDegrees>
              <LongitudeDegrees>-5.4098414070904254913330078125</LongitudeDegrees>
            </Position>
            <AltitudeMeters>223.399993896484375</AltitudeMeters>
            <DistanceMeters>4672.185566643</DistanceMeters>
          </Trackpoint>
          <Trackpoint>
            <Time>2019-01-04T10:11:55.000Z</Time>
            <Position>
              <LatitudeDegrees>36.51551331393420696258544921875</LatitudeDegrees>
              <LongitudeDegrees>-5.409846268594264984130859375</LongitudeDegrees>
            </Position>
            <AltitudeMeters>223.399993896484375</AltitudeMeters>
            <DistanceMeters>4672.6701097139</DistanceMeters>
          </Trackpoint>
          <Trackpoint>
            <Time>2019-01-04T10:11:56.000Z</Time>
            <Position>
              <LatitudeDegrees>36.515512056648731231689453125</LatitudeDegrees>
              <LongitudeDegrees>-5.40985004045069217681884765625</LongitudeDegrees>
            </Position>
            <AltitudeMeters>223.600006103515625</AltitudeMeters>
            <DistanceMeters>4673.0256671217</DistanceMeters>
          </Trackpoint>
          <Trackpoint>
            <Time>2019-01-04T10:11:57.000Z</Time>
            <Position>
              <LatitudeDegrees>36.51551079936325550079345703125</LatitudeDegrees>
              <LongitudeDegrees>-5.409850962460041046142578125</LongitudeDegrees>
            </Position>
            <AltitudeMeters>223.600006103515625</AltitudeMeters>
            <DistanceMeters>4673.1600551899</DistanceMeters>
          </Trackpoint>
          <Trackpoint>
            <Time>2019-01-04T10:11:58.000Z</Time>
            <Position>
              <LatitudeDegrees>36.51551029644906520843505859375</LatitudeDegrees>
              <LongitudeDegrees>-5.4098514653742313385009765625</LongitudeDegrees>
            </Position>
            <AltitudeMeters>223.600006103515625</AltitudeMeters>
            <DistanceMeters>4673.2550819043</DistanceMeters>
          </Trackpoint>
          <Trackpoint>
            <Time>2019-01-04T10:11:59.000Z</Time>
            <Position>
              <LatitudeDegrees>36.515510044991970062255859375</LatitudeDegrees>
              <LongitudeDegrees>-5.4098514653742313385009765625</LongitudeDegrees>
            </Position>
            <AltitudeMeters>223.600006103515625</AltitudeMeters>
            <DistanceMeters>4673.3501086187</DistanceMeters>
          </Trackpoint>
          <Trackpoint>
            <Time>2019-01-04T10:12:00.000Z</Time>
            <Position>
              <LatitudeDegrees>36.515510380268096923828125</LatitudeDegrees>
              <LongitudeDegrees>-5.4098518006503582000732421875</LongitudeDegrees>
            </Position>
            <AltitudeMeters>223.600006103515625</AltitudeMeters>
            <DistanceMeters>4673.3501086187</DistanceMeters>
          </Trackpoint>
          <Trackpoint>
            <Time>2019-01-04T10:12:01.000Z</Time>
            <Position>
              <LatitudeDegrees>36.51551063172519207000732421875</LatitudeDegrees>
              <LongitudeDegrees>-5.409851968288421630859375</LongitudeDegrees>
            </Position>
            <AltitudeMeters>223.600006103515625</AltitudeMeters>
            <DistanceMeters>4673.3501086187</DistanceMeters>
          </Trackpoint>
          <Trackpoint>
            <Time>2019-01-04T10:12:02.000Z</Time>
            <Position>
              <LatitudeDegrees>36.51551130227744579315185546875</LatitudeDegrees>
              <LongitudeDegrees>-5.409851633012294769287109375</LongitudeDegrees>
            </Position>
            <AltitudeMeters>223.600006103515625</AltitudeMeters>
            <DistanceMeters>4673.3501086187</DistanceMeters>
          </Trackpoint>
          <Trackpoint>
            <Time>2019-01-04T10:12:03.000Z</Time>
            <Position>
              <LatitudeDegrees>36.515512056648731231689453125</LatitudeDegrees>
              <LongitudeDegrees>-5.4098507948219776153564453125</LongitudeDegrees>
            </Position>
            <AltitudeMeters>223.399993896484375</AltitudeMeters>
            <DistanceMeters>4673.445135333</DistanceMeters>
          </Trackpoint>
          <Trackpoint>
            <Time>2019-01-04T10:12:04.000Z</Time>
            <Position>
              <LatitudeDegrees>36.5155117213726043701171875</LatitudeDegrees>
              <LongitudeDegrees>-5.40985087864100933074951171875</LongitudeDegrees>
            </Position>
            <AltitudeMeters>223.399993896484375</AltitudeMeters>
            <DistanceMeters>4673.445135333</DistanceMeters>
          </Trackpoint>
          <Trackpoint>
            <Time>2019-01-04T10:12:05.000Z</Time>
            <Position>
              <LatitudeDegrees>36.51551012881100177764892578125</LatitudeDegrees>
              <LongitudeDegrees>-5.40985037572681903839111328125</LongitudeDegrees>
            </Position>
            <AltitudeMeters>223.399993896484375</AltitudeMeters>
            <DistanceMeters>4673.6351887618</DistanceMeters>
          </Trackpoint>
          <Trackpoint>
            <Time>2019-01-04T10:12:06.000Z</Time>
            <Position>
              <LatitudeDegrees>36.51550962589681148529052734375</LatitudeDegrees>
              <LongitudeDegrees>-5.4098504595458507537841796875</LongitudeDegrees>
            </Position>
            <AltitudeMeters>223.399993896484375</AltitudeMeters>
            <DistanceMeters>4673.76957683</DistanceMeters>
          </Trackpoint>
          <Trackpoint>
            <Time>2019-01-04T10:12:07.000Z</Time>
            <Position>
              <LatitudeDegrees>36.515509374439716339111328125</LatitudeDegrees>
              <LongitudeDegrees>-5.4098506271839141845703125</LongitudeDegrees>
            </Position>
            <AltitudeMeters>223.399993896484375</AltitudeMeters>
            <DistanceMeters>4673.8646035444</DistanceMeters>
          </Trackpoint>
          <Trackpoint>
            <Time>2019-01-04T10:12:08.000Z</Time>
            <Position>
              <LatitudeDegrees>36.5155088715255260467529296875</LatitudeDegrees>
              <LongitudeDegrees>-5.409851633012294769287109375</LongitudeDegrees>
            </Position>
            <AltitudeMeters>223.399993896484375</AltitudeMeters>
            <DistanceMeters>4673.8646035444</DistanceMeters>
          </Trackpoint>
          <Trackpoint>
            <Time>2019-01-04T10:12:09.000Z</Time>
            <Position>
              <LatitudeDegrees>36.5155090391635894775390625</LatitudeDegrees>
              <LongitudeDegrees>-5.40985154919326305389404296875</LongitudeDegrees>
            </Position>
            <AltitudeMeters>223.399993896484375</AltitudeMeters>
            <DistanceMeters>4673.8646035444</DistanceMeters>
          </Trackpoint>
          <Trackpoint>
            <Time>2019-01-04T10:12:10.000Z</Time>
            <Position>
              <LatitudeDegrees>36.51550828479230403900146484375</LatitudeDegrees>
              <LongitudeDegrees>-5.40985188446938991546630859375</LongitudeDegrees>
            </Position>
            <AltitudeMeters>223.399993896484375</AltitudeMeters>
            <DistanceMeters>4673.9596302588</DistanceMeters>
          </Trackpoint>
          <Trackpoint>
            <Time>2019-01-04T10:12:11.000Z</Time>
            <Position>
              <LatitudeDegrees>36.51550727896392345428466796875</LatitudeDegrees>
              <LongitudeDegrees>-5.4098518006503582000732421875</LongitudeDegrees>
            </Position>
            <AltitudeMeters>223.399993896484375</AltitudeMeters>
            <DistanceMeters>4674.094018327</DistanceMeters>
          </Trackpoint>
          <Trackpoint>
            <Time>2019-01-04T10:12:12.000Z</Time>
            <Position>
              <LatitudeDegrees>36.515506692230701446533203125</LatitudeDegrees>
              <LongitudeDegrees>-5.40985037572681903839111328125</LongitudeDegrees>
            </Position>
            <AltitudeMeters>223.399993896484375</AltitudeMeters>
            <DistanceMeters>4674.2284063953</DistanceMeters>
          </Trackpoint>
          <Trackpoint>
            <Time>2019-01-04T10:12:13.000Z</Time>
            <Position>
              <LatitudeDegrees>36.51550694368779659271240234375</LatitudeDegrees>
              <LongitudeDegrees>-5.4098504595458507537841796875</LongitudeDegrees>
            </Position>
            <AltitudeMeters>223.399993896484375</AltitudeMeters>
            <DistanceMeters>4674.2284063953</DistanceMeters>
          </Trackpoint>
          <Trackpoint>
            <Time>2019-01-04T10:12:14.000Z</Time>
            <Position>
              <LatitudeDegrees>36.51550711132586002349853515625</LatitudeDegrees>
              <LongitudeDegrees>-5.409850962460041046142578125</LongitudeDegrees>
            </Position>
            <AltitudeMeters>223.399993896484375</AltitudeMeters>
            <DistanceMeters>4674.2284063953</DistanceMeters>
          </Trackpoint>
          <Trackpoint>
            <Time>2019-01-04T10:12:15.000Z</Time>
            <Position>
              <LatitudeDegrees>36.515508703887462615966796875</LatitudeDegrees>
              <LongitudeDegrees>-5.40985238738358020782470703125</LongitudeDegrees>
            </Position>
            <AltitudeMeters>223.399993896484375</AltitudeMeters>
            <DistanceMeters>4674.4408925883</DistanceMeters>
          </Trackpoint>
          <Trackpoint>
            <Time>2019-01-04T10:12:16.000Z</Time>
            <Position>
              <LatitudeDegrees>36.51550996117293834686279296875</LatitudeDegrees>
              <LongitudeDegrees>-5.40985557250678539276123046875</LongitudeDegrees>
            </Position>
            <AltitudeMeters>223.399993896484375</AltitudeMeters>
            <DistanceMeters>4674.7560605449</DistanceMeters>
          </Trackpoint>
          <Trackpoint>
            <Time>2019-01-04T10:12:17.000Z</Time>
            <Position>
              <LatitudeDegrees>36.51550996117293834686279296875</LatitudeDegrees>
              <LongitudeDegrees>-5.4098561592400074005126953125</LongitudeDegrees>
            </Position>
            <AltitudeMeters>223.399993896484375</AltitudeMeters>
            <DistanceMeters>4674.7560605449</DistanceMeters>
          </Trackpoint>
          <Trackpoint>
            <Time>2019-01-04T10:12:18.000Z</Time>
            <Position>
              <LatitudeDegrees>36.51550996117293834686279296875</LatitudeDegrees>
              <LongitudeDegrees>-5.40985674597322940826416015625</LongitudeDegrees>
            </Position>
            <AltitudeMeters>223.399993896484375</AltitudeMeters>
            <DistanceMeters>4674.7560605449</DistanceMeters>
          </Trackpoint>
          <Trackpoint>
            <Time>2019-01-04T10:12:19.000Z</Time>
            <Position>
              <LatitudeDegrees>36.51550962589681148529052734375</LatitudeDegrees>
              <LongitudeDegrees>-5.40985691361129283905029296875</LongitudeDegrees>
            </Position>
            <AltitudeMeters>223.399993896484375</AltitudeMeters>
            <DistanceMeters>4674.7560605449</DistanceMeters>
          </Trackpoint>
          <Trackpoint>
            <Time>2019-01-04T10:12:20.000Z</Time>
            <Position>
              <LatitudeDegrees>36.5155098773539066314697265625</LatitudeDegrees>
              <LongitudeDegrees>-5.40985724888741970062255859375</LongitudeDegrees>
            </Position>
            <AltitudeMeters>223.8000030517578125</AltitudeMeters>
            <DistanceMeters>4674.7560605449</DistanceMeters>
          </Trackpoint>
          <Trackpoint>
            <Time>2019-01-04T10:12:21.000Z</Time>
            <Position>
              <LatitudeDegrees>36.51550996117293834686279296875</LatitudeDegrees>
              <LongitudeDegrees>-5.409857332706451416015625</LongitudeDegrees>
            </Position>
            <AltitudeMeters>223.8000030517578125</AltitudeMeters>
            <DistanceMeters>4674.7560605449</DistanceMeters>
          </Trackpoint>
          <Trackpoint>
            <Time>2019-01-04T10:12:22.000Z</Time>
            <Position>
              <LatitudeDegrees>36.51551046408712863922119140625</LatitudeDegrees>
              <LongitudeDegrees>-5.4098581708967685699462890625</LongitudeDegrees>
            </Position>
            <AltitudeMeters>223.8000030517578125</AltitudeMeters>
            <DistanceMeters>4674.8904486132</DistanceMeters>
          </Trackpoint>
          <Trackpoint>
            <Time>2019-01-04T10:12:23.000Z</Time>
            <Position>
              <LatitudeDegrees>36.515512056648731231689453125</LatitudeDegrees>
              <LongitudeDegrees>-5.4098578356206417083740234375</LongitudeDegrees>
            </Position>
            <AltitudeMeters>223.8000030517578125</AltitudeMeters>
            <DistanceMeters>4675.0248366814</DistanceMeters>
          </Trackpoint>
          <Trackpoint>
            <Time>2019-01-04T10:12:24.000Z</Time>
            <Position>
              <LatitudeDegrees>36.51551331393420696258544921875</LatitudeDegrees>
              <LongitudeDegrees>-5.40985657833516597747802734375</LongitudeDegrees>
            </Position>
            <AltitudeMeters>223.8000030517578125</AltitudeMeters>
            <DistanceMeters>4675.1592247497</DistanceMeters>
          </Trackpoint>
          <Trackpoint>
            <Time>2019-01-04T10:12:25.000Z</Time>
            <Position>
              <LatitudeDegrees>36.51551465503871440887451171875</LatitudeDegrees>
              <LongitudeDegrees>-5.409856997430324554443359375</LongitudeDegrees>
            </Position>
            <AltitudeMeters>223.8000030517578125</AltitudeMeters>
            <DistanceMeters>4675.2936128179</DistanceMeters>
          </Trackpoint>
          <Trackpoint>
            <Time>2019-01-04T10:12:26.000Z</Time>
            <Position>
              <LatitudeDegrees>36.51551566086709499359130859375</LatitudeDegrees>
              <LongitudeDegrees>-5.40985791943967342376708984375</LongitudeDegrees>
            </Position>
            <AltitudeMeters>223.8000030517578125</AltitudeMeters>
            <DistanceMeters>4675.4582039153</DistanceMeters>
          </Trackpoint>
          <Trackpoint>
            <Time>2019-01-04T10:12:27.000Z</Time>
            <Position>
              <LatitudeDegrees>36.51551649905741214752197265625</LatitudeDegrees>
              <LongitudeDegrees>-5.409858338534832000732421875</LongitudeDegrees>
            </Position>
            <AltitudeMeters>223.8000030517578125</AltitudeMeters>
            <DistanceMeters>4675.5925919835</DistanceMeters>
          </Trackpoint>
          <Trackpoint>
            <Time>2019-01-04T10:12:28.000Z</Time>
            <Position>
              <LatitudeDegrees>36.51551800779998302459716796875</LatitudeDegrees>
              <LongitudeDegrees>-5.40985775180160999298095703125</LongitudeDegrees>
            </Position>
            <AltitudeMeters>223.8000030517578125</AltitudeMeters>
            <DistanceMeters>4675.7826454123</DistanceMeters>
          </Trackpoint>
          <Trackpoint>
            <Time>2019-01-04T10:12:29.000Z</Time>
            <Position>
              <LatitudeDegrees>36.5155196003615856170654296875</LatitudeDegrees>
              <LongitudeDegrees>-5.4098571650683879852294921875</LongitudeDegrees>
            </Position>
            <AltitudeMeters>223.8000030517578125</AltitudeMeters>
            <DistanceMeters>4675.972698841</DistanceMeters>
          </Trackpoint>
          <Trackpoint>
            <Time>2019-01-04T10:12:30.000Z</Time>
            <Position>
              <LatitudeDegrees>36.51552085764706134796142578125</LatitudeDegrees>
              <LongitudeDegrees>-5.409860350191593170166015625</LongitudeDegrees>
            </Position>
            <AltitudeMeters>223.8000030517578125</AltitudeMeters>
            <DistanceMeters>4676.2878667976</DistanceMeters>
          </Trackpoint>
          <Trackpoint>
            <Time>2019-01-04T10:12:31.000Z</Time>
            <Position>
              <LatitudeDegrees>36.51552186347544193267822265625</LatitudeDegrees>
              <LongitudeDegrees>-5.40986227802932262420654296875</LongitudeDegrees>
            </Position>
            <AltitudeMeters>223.8000030517578125</AltitudeMeters>
            <DistanceMeters>4676.4779202264</DistanceMeters>
          </Trackpoint>
          <Trackpoint>
            <Time>2019-01-04T10:12:32.000Z</Time>
            <Position>
              <LatitudeDegrees>36.515521109104156494140625</LatitudeDegrees>
              <LongitudeDegrees>-5.409861691296100616455078125</LongitudeDegrees>
            </Position>
            <AltitudeMeters>223.8000030517578125</AltitudeMeters>
            <DistanceMeters>4676.4779202264</DistanceMeters>
          </Trackpoint>
          <Trackpoint>
            <Time>2019-01-04T10:12:33.000Z</Time>
            <Position>
              <LatitudeDegrees>36.515520773828029632568359375</LatitudeDegrees>
              <LongitudeDegrees>-5.40986110456287860870361328125</LongitudeDegrees>
            </Position>
            <AltitudeMeters>223.8000030517578125</AltitudeMeters>
            <DistanceMeters>4676.4779202264</DistanceMeters>
          </Trackpoint>
          <Trackpoint>
            <Time>2019-01-04T10:12:34.000Z</Time>
            <Position>
              <LatitudeDegrees>36.51552018709480762481689453125</LatitudeDegrees>
              <LongitudeDegrees>-5.40986001491546630859375</LongitudeDegrees>
            </Position>
            <AltitudeMeters>223.8000030517578125</AltitudeMeters>
            <DistanceMeters>4676.5729469407</DistanceMeters>
          </Trackpoint>
          <Trackpoint>
            <Time>2019-01-04T10:12:35.000Z</Time>
            <Position>
              <LatitudeDegrees>36.51552035473287105560302734375</LatitudeDegrees>
              <LongitudeDegrees>-5.4098601825535297393798828125</LongitudeDegrees>
            </Position>
            <AltitudeMeters>223.8000030517578125</AltitudeMeters>
            <DistanceMeters>4676.5729469407</DistanceMeters>
          </Trackpoint>
          <Trackpoint>
            <Time>2019-01-04T10:12:36.000Z</Time>
            <Position>
              <LatitudeDegrees>36.515520103275775909423828125</LatitudeDegrees>
              <LongitudeDegrees>-5.40986143983900547027587890625</LongitudeDegrees>
            </Position>
            <AltitudeMeters>223.8000030517578125</AltitudeMeters>
            <DistanceMeters>4676.707335009</DistanceMeters>
          </Trackpoint>
          <Trackpoint>
            <Time>2019-01-04T10:12:37.000Z</Time>
            <Position>
              <LatitudeDegrees>36.51552035473287105560302734375</LatitudeDegrees>
              <LongitudeDegrees>-5.4098635353147983551025390625</LongitudeDegrees>
            </Position>
            <AltitudeMeters>223.8000030517578125</AltitudeMeters>
            <DistanceMeters>4676.8973884377</DistanceMeters>
          </Trackpoint>
          <Trackpoint>
            <Time>2019-01-04T10:12:38.000Z</Time>
            <Position>
              <LatitudeDegrees>36.51552136056125164031982421875</LatitudeDegrees>
              <LongitudeDegrees>-5.4098645411431789398193359375</LongitudeDegrees>
            </Position>
            <AltitudeMeters>223.8000030517578125</AltitudeMeters>
            <DistanceMeters>4677.031776506</DistanceMeters>
          </Trackpoint>
          <Trackpoint>
            <Time>2019-01-04T10:12:39.000Z</Time>
            <Position>
              <LatitudeDegrees>36.51552203111350536346435546875</LatitudeDegrees>
              <LongitudeDegrees>-5.40986529551446437835693359375</LongitudeDegrees>
            </Position>
            <AltitudeMeters>223.8000030517578125</AltitudeMeters>
            <DistanceMeters>4677.1268032203</DistanceMeters>
          </Trackpoint>
          <Trackpoint>
            <Time>2019-01-04T10:12:40.000Z</Time>
            <Position>
              <LatitudeDegrees>36.51552186347544193267822265625</LatitudeDegrees>
              <LongitudeDegrees>-5.40986604988574981689453125</LongitudeDegrees>
            </Position>
            <AltitudeMeters>223.8000030517578125</AltitudeMeters>
            <DistanceMeters>4677.1268032203</DistanceMeters>
          </Trackpoint>
          <Trackpoint>
            <Time>2019-01-04T10:12:41.000Z</Time>
            <Position>
              <LatitudeDegrees>36.51552186347544193267822265625</LatitudeDegrees>
              <LongitudeDegrees>-5.4098667204380035400390625</LongitudeDegrees>
            </Position>
            <AltitudeMeters>223.8000030517578125</AltitudeMeters>
            <DistanceMeters>4677.2218299347</DistanceMeters>
          </Trackpoint>
          <Trackpoint>
            <Time>2019-01-04T10:12:42.000Z</Time>
            <Position>
              <LatitudeDegrees>36.5155226178467273712158203125</LatitudeDegrees>
              <LongitudeDegrees>-5.40986663661897182464599609375</LongitudeDegrees>
            </Position>
            <AltitudeMeters>223.8000030517578125</AltitudeMeters>
            <DistanceMeters>4677.356218003</DistanceMeters>
          </Trackpoint>
          <Trackpoint>
            <Time>2019-01-04T10:12:43.000Z</Time>
            <Position>
              <LatitudeDegrees>36.51552286930382251739501953125</LatitudeDegrees>
              <LongitudeDegrees>-5.4098668880760669708251953125</LongitudeDegrees>
            </Position>
            <AltitudeMeters>223.8000030517578125</AltitudeMeters>
            <DistanceMeters>4677.4906060712</DistanceMeters>
          </Trackpoint>
          <Trackpoint>
            <Time>2019-01-04T10:12:44.000Z</Time>
            <Position>
              <LatitudeDegrees>36.5155229531228542327880859375</LatitudeDegrees>
              <LongitudeDegrees>-5.40986781008541584014892578125</LongitudeDegrees>
            </Position>
            <AltitudeMeters>223.8000030517578125</AltitudeMeters>
            <DistanceMeters>4677.6249941395</DistanceMeters>
          </Trackpoint>
          <Trackpoint>
            <Time>2019-01-04T10:12:45.000Z</Time>
            <Position>
              <LatitudeDegrees>36.51552303694188594818115234375</LatitudeDegrees>
              <LongitudeDegrees>-5.4098678939044475555419921875</LongitudeDegrees>
            </Position>
            <AltitudeMeters>223.8000030517578125</AltitudeMeters>
            <DistanceMeters>4677.6249941395</DistanceMeters>
          </Trackpoint>
          <Trackpoint>
            <Time>2019-01-04T10:12:46.000Z</Time>
            <Position>
              <LatitudeDegrees>36.5155229531228542327880859375</LatitudeDegrees>
              <LongitudeDegrees>-5.40986797772347927093505859375</LongitudeDegrees>
            </Position>
            <AltitudeMeters>223.8000030517578125</AltitudeMeters>
            <DistanceMeters>4677.6249941395</DistanceMeters>
          </Trackpoint>
          <Trackpoint>
            <Time>2019-01-04T10:12:47.000Z</Time>
            <Position>
              <LatitudeDegrees>36.51552638970315456390380859375</LatitudeDegrees>
              <LongitudeDegrees>-5.40987367741763591766357421875</LongitudeDegrees>
            </Position>
            <AltitudeMeters>223.8000030517578125</AltitudeMeters>
            <DistanceMeters>4678.2553300527</DistanceMeters>
          </Trackpoint>
          <Trackpoint>
            <Time>2019-01-04T10:12:48.000Z</Time>
            <Position>
              <LatitudeDegrees>36.5155303291976451873779296875</LatitudeDegrees>
              <LongitudeDegrees>-5.40987837128341197967529296875</LongitudeDegrees>
            </Position>
            <AltitudeMeters>223.8000030517578125</AltitudeMeters>
            <DistanceMeters>4678.8563317647</DistanceMeters>
          </Trackpoint>
          <Trackpoint>
            <Time>2019-01-04T10:12:49.000Z</Time>
            <Position>
              <LatitudeDegrees>36.51553426869213581085205078125</LatitudeDegrees>
              <LongitudeDegrees>-5.40988189168274402618408203125</LongitudeDegrees>
            </Position>
            <AltitudeMeters>223.8000030517578125</AltitudeMeters>
            <DistanceMeters>4679.3938840377</DistanceMeters>
          </Trackpoint>
          <Trackpoint>
            <Time>2019-01-04T10:12:50.000Z</Time>
            <Position>
              <LatitudeDegrees>36.515536867082118988037109375</LatitudeDegrees>
              <LongitudeDegrees>-5.4098839871585369110107421875</LongitudeDegrees>
            </Position>
            <AltitudeMeters>223.8000030517578125</AltitudeMeters>
            <DistanceMeters>4679.7365077289</DistanceMeters>
          </Trackpoint>
          <Trackpoint>
            <Time>2019-01-04T10:12:51.000Z</Time>
            <Position>
              <LatitudeDegrees>36.51553862728178501129150390625</LatitudeDegrees>
              <LongitudeDegrees>-5.40988340042531490325927734375</LongitudeDegrees>
            </Position>
            <AltitudeMeters>223.8000030517578125</AltitudeMeters>
            <DistanceMeters>4679.9265611576</DistanceMeters>
          </Trackpoint>
          <Trackpoint>
            <Time>2019-01-04T10:12:52.000Z</Time>
            <Position>
              <LatitudeDegrees>36.51554080657660961151123046875</LatitudeDegrees>
              <LongitudeDegrees>-5.409878455102443695068359375</LongitudeDegrees>
            </Position>
            <AltitudeMeters>223.8000030517578125</AltitudeMeters>
            <DistanceMeters>4680.4293952659</DistanceMeters>
          </Trackpoint>
          <Trackpoint>
            <Time>2019-01-04T10:12:53.000Z</Time>
            <Position>
              <LatitudeDegrees>36.51554265059530735015869140625</LatitudeDegrees>
              <LongitudeDegrees>-5.40987485088407993316650390625</LongitudeDegrees>
            </Position>
            <AltitudeMeters>223.8000030517578125</AltitudeMeters>
            <DistanceMeters>4680.8095021233</DistanceMeters>
          </Trackpoint>
          <Trackpoint>
            <Time>2019-01-04T10:12:54.000Z</Time>
            <Position>
              <LatitudeDegrees>36.515545584261417388916015625</LatitudeDegrees>
              <LongitudeDegrees>-5.40986831299960613250732421875</LongitudeDegrees>
            </Position>
            <AltitudeMeters>223.8000030517578125</AltitudeMeters>
            <DistanceMeters>4681.4814424646</DistanceMeters>
          </Trackpoint>
          <Trackpoint>
            <Time>2019-01-04T10:12:55.000Z</Time>
            <Position>
              <LatitudeDegrees>36.515548266470432281494140625</LatitudeDegrees>
              <LongitudeDegrees>-5.40986194275319576263427734375</LongitudeDegrees>
            </Position>
            <AltitudeMeters>223.8000030517578125</AltitudeMeters>
            <DistanceMeters>4682.1259449987</DistanceMeters>
          </Trackpoint>
          <Trackpoint>
            <Time>2019-01-04T10:12:56.000Z</Time>
            <Position>
              <LatitudeDegrees>36.5155484341084957122802734375</LatitudeDegrees>
              <LongitudeDegrees>-5.4098618589341640472412109375</LongitudeDegrees>
            </Position>
            <AltitudeMeters>223.8000030517578125</AltitudeMeters>
            <DistanceMeters>4682.1259449987</DistanceMeters>
          </Trackpoint>
          <Trackpoint>
            <Time>2019-01-04T10:12:57.000Z</Time>
            <Position>
              <LatitudeDegrees>36.5155474282801151275634765625</LatitudeDegrees>
              <LongitudeDegrees>-5.40986160747706890106201171875</LongitudeDegrees>
            </Position>
            <AltitudeMeters>223.8000030517578125</AltitudeMeters>
            <DistanceMeters>4682.1259449987</DistanceMeters>
          </Trackpoint>
          <Trackpoint>
            <Time>2019-01-04T10:12:58.000Z</Time>
            <Position>
              <LatitudeDegrees>36.51554600335657596588134765625</LatitudeDegrees>
              <LongitudeDegrees>-5.40986043401062488555908203125</LongitudeDegrees>
            </Position>
            <AltitudeMeters>223.8000030517578125</AltitudeMeters>
            <DistanceMeters>4682.3159984274</DistanceMeters>
          </Trackpoint>
          <Trackpoint>
            <Time>2019-01-04T10:12:59.000Z</Time>
            <Position>
              <LatitudeDegrees>36.51554583571851253509521484375</LatitudeDegrees>
              <LongitudeDegrees>-5.40985909290611743927001953125</LongitudeDegrees>
            </Position>
            <AltitudeMeters>223.8000030517578125</AltitudeMeters>
            <DistanceMeters>4682.3159984274</DistanceMeters>
          </Trackpoint>
          <Trackpoint>
            <Time>2019-01-04T10:13:00.000Z</Time>
            <Position>
              <LatitudeDegrees>36.5155497752130031585693359375</LatitudeDegrees>
              <LongitudeDegrees>-5.40986009873449802398681640625</LongitudeDegrees>
            </Position>
            <AltitudeMeters>223.8000030517578125</AltitudeMeters>
            <DistanceMeters>4682.7815323517</DistanceMeters>
          </Trackpoint>
          <Trackpoint>
            <Time>2019-01-04T10:13:01.000Z</Time>
            <Position>
              <LatitudeDegrees>36.515548937022686004638671875</LatitudeDegrees>
              <LongitudeDegrees>-5.40986604988574981689453125</LongitudeDegrees>
            </Position>
            <AltitudeMeters>223.8000030517578125</AltitudeMeters>
            <DistanceMeters>4683.3356285519</DistanceMeters>
          </Trackpoint>
          <Trackpoint>
            <Time>2019-01-04T10:13:02.000Z</Time>
            <Position>
              <LatitudeDegrees>36.51554868556559085845947265625</LatitudeDegrees>
              <LongitudeDegrees>-5.409867055714130401611328125</LongitudeDegrees>
            </Position>
            <AltitudeMeters>223.8000030517578125</AltitudeMeters>
            <DistanceMeters>4683.4700166201</DistanceMeters>
          </Trackpoint>
          <Trackpoint>
            <Time>2019-01-04T10:13:03.000Z</Time>
            <Position>
              <LatitudeDegrees>36.51554902084171772003173828125</LatitudeDegrees>
              <LongitudeDegrees>-5.409867055714130401611328125</LongitudeDegrees>
            </Position>
            <AltitudeMeters>223.8000030517578125</AltitudeMeters>
            <DistanceMeters>4683.4700166201</DistanceMeters>
          </Trackpoint>
          <Trackpoint>
            <Time>2019-01-04T10:14:07.000Z</Time>
            <Position>
              <LatitudeDegrees>36.51559663005173206329345703125</LatitudeDegrees>
              <LongitudeDegrees>-5.4098189435899257659912109375</LongitudeDegrees>
            </Position>
            <AltitudeMeters>239</AltitudeMeters>
            <DistanceMeters>4690.2967453043</DistanceMeters>
          </Trackpoint>
          <Trackpoint>
            <Time>2019-01-04T10:14:08.000Z</Time>
            <Position>
              <LatitudeDegrees>36.515599228441715240478515625</LatitudeDegrees>
              <LongitudeDegrees>-5.40981969796121120452880859375</LongitudeDegrees>
            </Position>
            <AltitudeMeters>239</AltitudeMeters>
            <DistanceMeters>4690.5972461603</DistanceMeters>
          </Trackpoint>
          <Trackpoint>
            <Time>2019-01-04T10:14:09.000Z</Time>
            <Position>
              <LatitudeDegrees>36.51560115627944469451904296875</LatitudeDegrees>
              <LongitudeDegrees>-5.40982179343700408935546875</LongitudeDegrees>
            </Position>
            <AltitudeMeters>239</AltitudeMeters>
            <DistanceMeters>4690.8977470163</DistanceMeters>
          </Trackpoint>
          <Trackpoint>
            <Time>2019-01-04T10:14:10.000Z</Time>
            <Position>
              <LatitudeDegrees>36.5156002342700958251953125</LatitudeDegrees>
              <LongitudeDegrees>-5.40982154197990894317626953125</LongitudeDegrees>
            </Position>
            <AltitudeMeters>238.8000030517578125</AltitudeMeters>
            <DistanceMeters>4690.9927737306</DistanceMeters>
          </Trackpoint>
          <Trackpoint>
            <Time>2019-01-04T10:14:11.000Z</Time>
            <Position>
              <LatitudeDegrees>36.51560015045106410980224609375</LatitudeDegrees>
              <LongitudeDegrees>-5.40981986559927463531494140625</LongitudeDegrees>
            </Position>
            <AltitudeMeters>238.8000030517578125</AltitudeMeters>
            <DistanceMeters>4691.157364828</DistanceMeters>
          </Trackpoint>
          <Trackpoint>
            <Time>2019-01-04T10:14:12.000Z</Time>
            <Position>
              <LatitudeDegrees>36.5155997313559055328369140625</LatitudeDegrees>
              <LongitudeDegrees>-5.40981969796121120452880859375</LongitudeDegrees>
            </Position>
            <AltitudeMeters>238.8000030517578125</AltitudeMeters>
            <DistanceMeters>4691.157364828</DistanceMeters>
          </Trackpoint>
          <Trackpoint>
            <Time>2019-01-04T10:14:13.000Z</Time>
            <Position>
              <LatitudeDegrees>36.51559562422335147857666015625</LatitudeDegrees>
              <LongitudeDegrees>-5.4098176024854183197021484375</LongitudeDegrees>
            </Position>
            <AltitudeMeters>238.600006103515625</AltitudeMeters>
            <DistanceMeters>4691.6511381201</DistanceMeters>
          </Trackpoint>
          <Trackpoint>
            <Time>2019-01-04T10:14:14.000Z</Time>
            <Position>
              <LatitudeDegrees>36.5155990608036518096923828125</LatitudeDegrees>
              <LongitudeDegrees>-5.40981349535286426544189453125</LongitudeDegrees>
            </Position>
            <AltitudeMeters>238.8000030517578125</AltitudeMeters>
            <DistanceMeters>4692.1802244739</DistanceMeters>
          </Trackpoint>
          <Trackpoint>
            <Time>2019-01-04T10:14:15.000Z</Time>
            <Position>
              <LatitudeDegrees>36.51559864170849323272705078125</LatitudeDegrees>
              <LongitudeDegrees>-5.40981148369610309600830078125</LongitudeDegrees>
            </Position>
            <AltitudeMeters>238.8000030517578125</AltitudeMeters>
            <DistanceMeters>4692.3702779026</DistanceMeters>
          </Trackpoint>
          <Trackpoint>
            <Time>2019-01-04T10:14:16.000Z</Time>
            <Position>
              <LatitudeDegrees>36.51559880934655666351318359375</LatitudeDegrees>
              <LongitudeDegrees>-5.4098102264106273651123046875</LongitudeDegrees>
            </Position>
            <AltitudeMeters>238.8000030517578125</AltitudeMeters>
            <DistanceMeters>4692.465304617</DistanceMeters>
          </Trackpoint>
          <Trackpoint>
            <Time>2019-01-04T10:14:17.000Z</Time>
            <Position>
              <LatitudeDegrees>36.515599228441715240478515625</LatitudeDegrees>
              <LongitudeDegrees>-5.4098098911345005035400390625</LongitudeDegrees>
            </Position>
            <AltitudeMeters>238.8000030517578125</AltitudeMeters>
            <DistanceMeters>4692.465304617</DistanceMeters>
          </Trackpoint>
          <Trackpoint>
            <Time>2019-01-04T10:14:18.000Z</Time>
            <Position>
              <LatitudeDegrees>36.51559931226074695587158203125</LatitudeDegrees>
              <LongitudeDegrees>-5.40981131605803966522216796875</LongitudeDegrees>
            </Position>
            <AltitudeMeters>238.8000030517578125</AltitudeMeters>
            <DistanceMeters>4692.5996926852</DistanceMeters>
          </Trackpoint>
          <Trackpoint>
            <Time>2019-01-04T10:14:19.000Z</Time>
            <Position>
              <LatitudeDegrees>36.515595205128192901611328125</LatitudeDegrees>
              <LongitudeDegrees>-5.40981718339025974273681640625</LongitudeDegrees>
            </Position>
            <AltitudeMeters>238.8000030517578125</AltitudeMeters>
            <DistanceMeters>4693.2914976083</DistanceMeters>
          </Trackpoint>
          <Trackpoint>
            <Time>2019-01-04T10:14:20.000Z</Time>
            <Position>
              <LatitudeDegrees>36.51559512130916118621826171875</LatitudeDegrees>
              <LongitudeDegrees>-5.40981450118124485015869140625</LongitudeDegrees>
            </Position>
            <AltitudeMeters>238.8000030517578125</AltitudeMeters>
            <DistanceMeters>4693.5242645704</DistanceMeters>
          </Trackpoint>
          <Trackpoint>
            <Time>2019-01-04T10:14:22.000Z</Time>
            <Position>
              <LatitudeDegrees>36.5155735798180103302001953125</LatitudeDegrees>
              <LongitudeDegrees>-5.40981047786772251129150390625</LongitudeDegrees>
            </Position>
            <AltitudeMeters>238.8000030517578125</AltitudeMeters>
            <DistanceMeters>4695.9469799248</DistanceMeters>
          </Trackpoint>
          <Trackpoint>
            <Time>2019-01-04T10:14:23.000Z</Time>
            <Position>
              <LatitudeDegrees>36.51557198725640773773193359375</LatitudeDegrees>
              <LongitudeDegrees>-5.4097998328506946563720703125</LongitudeDegrees>
            </Position>
            <AltitudeMeters>238.8000030517578125</AltitudeMeters>
            <DistanceMeters>4696.9160660666</DistanceMeters>
          </Trackpoint>
          <Trackpoint>
            <Time>2019-01-04T10:14:24.000Z</Time>
            <Position>
              <LatitudeDegrees>36.51557031087577342987060546875</LatitudeDegrees>
              <LongitudeDegrees>-5.40980779565870761871337890625</LongitudeDegrees>
            </Position>
            <AltitudeMeters>238.8000030517578125</AltitudeMeters>
            <DistanceMeters>4697.652139831</DistanceMeters>
          </Trackpoint>
          <Trackpoint>
            <Time>2019-01-04T10:14:25.000Z</Time>
            <Position>
              <LatitudeDegrees>36.515572071075439453125</LatitudeDegrees>
              <LongitudeDegrees>-5.40981098078191280364990234375</LongitudeDegrees>
            </Position>
            <AltitudeMeters>238.8000030517578125</AltitudeMeters>
            <DistanceMeters>4697.9947635222</DistanceMeters>
          </Trackpoint>
          <Trackpoint>
            <Time>2019-01-04T10:14:26.000Z</Time>
            <Position>
              <LatitudeDegrees>36.51557668112218379974365234375</LatitudeDegrees>
              <LongitudeDegrees>-5.409816764295101165771484375</LongitudeDegrees>
            </Position>
            <AltitudeMeters>238.8000030517578125</AltitudeMeters>
            <DistanceMeters>4698.7246775652</DistanceMeters>
          </Trackpoint>
          <Trackpoint>
            <Time>2019-01-04T10:14:27.000Z</Time>
            <Position>
              <LatitudeDegrees>36.51557768695056438446044921875</LatitudeDegrees>
              <LongitudeDegrees>-5.40982271544635295867919921875</LongitudeDegrees>
            </Position>
            <AltitudeMeters>238.8000030517578125</AltitudeMeters>
            <DistanceMeters>4699.270564479</DistanceMeters>
          </Trackpoint>
          <Trackpoint>
            <Time>2019-01-04T10:14:28.000Z</Time>
            <Position>
              <LatitudeDegrees>36.5155796147882938385009765625</LatitudeDegrees>
              <LongitudeDegrees>-5.4098279960453510284423828125</LongitudeDegrees>
            </Position>
            <AltitudeMeters>238.8000030517578125</AltitudeMeters>
            <DistanceMeters>4699.7910472293</DistanceMeters>
          </Trackpoint>
          <Trackpoint>
            <Time>2019-01-04T10:14:29.000Z</Time>
            <Position>
              <LatitudeDegrees>36.51557802222669124603271484375</LatitudeDegrees>
              <LongitudeDegrees>-5.40983562357723712921142578125</LongitudeDegrees>
            </Position>
            <AltitudeMeters>238.8000030517578125</AltitudeMeters>
            <DistanceMeters>4700.5021620448</DistanceMeters>
          </Trackpoint>
          <Trackpoint>
            <Time>2019-01-04T10:14:30.000Z</Time>
            <Position>
              <LatitudeDegrees>36.51557818986475467681884765625</LatitudeDegrees>
              <LongitudeDegrees>-5.40984098799526691436767578125</LongitudeDegrees>
            </Position>
            <AltitudeMeters>238.8000030517578125</AltitudeMeters>
            <DistanceMeters>4700.9772956166</DistanceMeters>
          </Trackpoint>
          <Trackpoint>
            <Time>2019-01-04T10:14:31.000Z</Time>
            <Position>
              <LatitudeDegrees>36.5155786089599132537841796875</LatitudeDegrees>
              <LongitudeDegrees>-5.40984601713716983795166015625</LongitudeDegrees>
            </Position>
            <AltitudeMeters>238.8000030517578125</AltitudeMeters>
            <DistanceMeters>4701.4428295409</DistanceMeters>
          </Trackpoint>
          <Trackpoint>
            <Time>2019-01-04T10:14:32.000Z</Time>
            <Position>
              <LatitudeDegrees>36.51558238081634044647216796875</LatitudeDegrees>
              <LongitudeDegrees>-5.40984450839459896087646484375</LongitudeDegrees>
            </Position>
            <AltitudeMeters>238.8000030517578125</AltitudeMeters>
            <DistanceMeters>4701.8885443396</DistanceMeters>
          </Trackpoint>
          <Trackpoint>
            <Time>2019-01-04T10:14:33.000Z</Time>
            <Position>
              <LatitudeDegrees>36.5155843086540699005126953125</LatitudeDegrees>
              <LongitudeDegrees>-5.40984459221363067626953125</LongitudeDegrees>
            </Position>
            <AltitudeMeters>238.600006103515625</AltitudeMeters>
            <DistanceMeters>4702.1010305326</DistanceMeters>
          </Trackpoint>
          <Trackpoint>
            <Time>2019-01-04T10:14:34.000Z</Time>
            <Position>
              <LatitudeDegrees>36.5155876614153385162353515625</LatitudeDegrees>
              <LongitudeDegrees>-5.40984065271914005279541015625</LongitudeDegrees>
            </Position>
            <AltitudeMeters>238.600006103515625</AltitudeMeters>
            <DistanceMeters>4702.6215132829</DistanceMeters>
          </Trackpoint>
          <Trackpoint>
            <Time>2019-01-04T10:14:35.000Z</Time>
            <Position>
              <LatitudeDegrees>36.51558749377727508544921875</LatitudeDegrees>
              <LongitudeDegrees>-5.40984568186104297637939453125</LongitudeDegrees>
            </Position>
            <AltitudeMeters>238.600006103515625</AltitudeMeters>
            <DistanceMeters>4703.0772453952</DistanceMeters>
          </Trackpoint>
          <Trackpoint>
            <Time>2019-01-04T10:14:36.000Z</Time>
            <Position>
              <LatitudeDegrees>36.51559160090982913970947265625</LatitudeDegrees>
              <LongitudeDegrees>-5.409849621355533599853515625</LongitudeDegrees>
            </Position>
            <AltitudeMeters>238.600006103515625</AltitudeMeters>
            <DistanceMeters>4703.6630294039</DistanceMeters>
          </Trackpoint>
          <Trackpoint>
            <Time>2019-01-04T10:14:37.000Z</Time>
            <Position>
              <LatitudeDegrees>36.51558523066341876983642578125</LatitudeDegrees>
              <LongitudeDegrees>-5.40986546315252780914306640625</LongitudeDegrees>
            </Position>
            <AltitudeMeters>238.8000030517578125</AltitudeMeters>
            <DistanceMeters>4705.2474413615</DistanceMeters>
          </Trackpoint>
          <Trackpoint>
            <Time>2019-01-04T10:14:38.000Z</Time>
            <Position>
              <LatitudeDegrees>36.51558271609246730804443359375</LatitudeDegrees>
              <LongitudeDegrees>-5.40987367741763591766357421875</LongitudeDegrees>
            </Position>
            <AltitudeMeters>238.8000030517578125</AltitudeMeters>
            <DistanceMeters>4706.0310517227</DistanceMeters>
          </Trackpoint>
          <Trackpoint>
            <Time>2019-01-04T10:14:39.000Z</Time>
            <Position>
              <LatitudeDegrees>36.51558078825473785400390625</LatitudeDegrees>
              <LongitudeDegrees>-5.40987200103700160980224609375</LongitudeDegrees>
            </Position>
            <AltitudeMeters>238.8000030517578125</AltitudeMeters>
            <DistanceMeters>4706.2998278592</DistanceMeters>
          </Trackpoint>
          <Trackpoint>
            <Time>2019-01-04T10:14:40.000Z</Time>
            <Position>
              <LatitudeDegrees>36.51557852514088153839111328125</LatitudeDegrees>
              <LongitudeDegrees>-5.4098685644567012786865234375</LongitudeDegrees>
            </Position>
            <AltitudeMeters>238.8000030517578125</AltitudeMeters>
            <DistanceMeters>4706.6799347167</DistanceMeters>
          </Trackpoint>
          <Trackpoint>
            <Time>2019-01-04T10:14:41.000Z</Time>
            <Position>
              <LatitudeDegrees>36.5155752561986446380615234375</LatitudeDegrees>
              <LongitudeDegrees>-5.40986613370478153228759765625</LongitudeDegrees>
            </Position>
            <AltitudeMeters>238.8000030517578125</AltitudeMeters>
            <DistanceMeters>4707.0941465616</DistanceMeters>
          </Trackpoint>
          <Trackpoint>
            <Time>2019-01-04T10:14:42.000Z</Time>
            <Position>
              <LatitudeDegrees>36.5155725739896297454833984375</LatitudeDegrees>
              <LongitudeDegrees>-5.40986428968608379364013671875</LongitudeDegrees>
            </Position>
            <AltitudeMeters>238.8000030517578125</AltitudeMeters>
            <DistanceMeters>4707.4367702528</DistanceMeters>
          </Trackpoint>
          <Trackpoint>
            <Time>2019-01-04T10:14:43.000Z</Time>
            <Position>
              <LatitudeDegrees>36.51556796394288539886474609375</LatitudeDegrees>
              <LongitudeDegrees>-5.4098655469715595245361328125</LongitudeDegrees>
            </Position>
            <AltitudeMeters>238.8000030517578125</AltitudeMeters>
            <DistanceMeters>4707.9572530031</DistanceMeters>
          </Trackpoint>
          <Trackpoint>
            <Time>2019-01-04T10:14:44.000Z</Time>
            <Position>
              <LatitudeDegrees>36.51556477881968021392822265625</LatitudeDegrees>
              <LongitudeDegrees>-5.4098638705909252166748046875</LongitudeDegrees>
            </Position>
            <AltitudeMeters>238.8000030517578125</AltitudeMeters>
            <DistanceMeters>4708.3373598605</DistanceMeters>
          </Trackpoint>
          <Trackpoint>
            <Time>2019-01-04T10:14:45.000Z</Time>
            <Position>
              <LatitudeDegrees>36.5155641920864582061767578125</LatitudeDegrees>
              <LongitudeDegrees>-5.4098564945161342620849609375</LongitudeDegrees>
            </Position>
            <AltitudeMeters>238.8000030517578125</AltitudeMeters>
            <DistanceMeters>4708.99572425</DistanceMeters>
          </Trackpoint>
          <Trackpoint>
            <Time>2019-01-04T10:14:46.000Z</Time>
            <Position>
              <LatitudeDegrees>36.5155653655529022216796875</LatitudeDegrees>
              <LongitudeDegrees>-5.4098554886877536773681640625</LongitudeDegrees>
            </Position>
            <AltitudeMeters>238.8000030517578125</AltitudeMeters>
            <DistanceMeters>4709.1603153474</DistanceMeters>
          </Trackpoint>
          <Trackpoint>
            <Time>2019-01-04T10:14:47.000Z</Time>
            <Position>
              <LatitudeDegrees>36.51556511409580707550048828125</LatitudeDegrees>
              <LongitudeDegrees>-5.40985523723065853118896484375</LongitudeDegrees>
            </Position>
            <AltitudeMeters>238.8000030517578125</AltitudeMeters>
            <DistanceMeters>4709.1603153474</DistanceMeters>
          </Trackpoint>
          <Trackpoint>
            <Time>2019-01-04T10:14:48.000Z</Time>
            <Position>
              <LatitudeDegrees>36.5155651979148387908935546875</LatitudeDegrees>
              <LongitudeDegrees>-5.40985540486872196197509765625</LongitudeDegrees>
            </Position>
            <AltitudeMeters>238.8000030517578125</AltitudeMeters>
            <DistanceMeters>4709.1603153474</DistanceMeters>
          </Trackpoint>
          <Trackpoint>
            <Time>2019-01-04T10:14:49.000Z</Time>
            <Position>
              <LatitudeDegrees>36.5155648626387119293212890625</LatitudeDegrees>
              <LongitudeDegrees>-5.40985607542097568511962890625</LongitudeDegrees>
            </Position>
            <AltitudeMeters>238.600006103515625</AltitudeMeters>
            <DistanceMeters>4709.2553420617</DistanceMeters>
          </Trackpoint>
          <Trackpoint>
            <Time>2019-01-04T10:14:50.000Z</Time>
            <Position>
              <LatitudeDegrees>36.5155651979148387908935546875</LatitudeDegrees>
              <LongitudeDegrees>-5.4098561592400074005126953125</LongitudeDegrees>
            </Position>
            <AltitudeMeters>238.600006103515625</AltitudeMeters>
            <DistanceMeters>4709.2553420617</DistanceMeters>
          </Trackpoint>
          <Trackpoint>
            <Time>2019-01-04T10:14:51.000Z</Time>
            <Position>
              <LatitudeDegrees>36.5155651979148387908935546875</LatitudeDegrees>
              <LongitudeDegrees>-5.409856326878070831298828125</LongitudeDegrees>
            </Position>
            <AltitudeMeters>238.600006103515625</AltitudeMeters>
            <DistanceMeters>4709.2553420617</DistanceMeters>
          </Trackpoint>
          <Trackpoint>
            <Time>2019-01-04T10:14:52.000Z</Time>
            <Position>
              <LatitudeDegrees>36.51556528173387050628662109375</LatitudeDegrees>
              <LongitudeDegrees>-5.4098559916019439697265625</LongitudeDegrees>
            </Position>
            <AltitudeMeters>238.600006103515625</AltitudeMeters>
            <DistanceMeters>4709.2553420617</DistanceMeters>
          </Trackpoint>
          <Trackpoint>
            <Time>2019-01-04T10:14:53.000Z</Time>
            <Position>
              <LatitudeDegrees>36.5155658684670925140380859375</LatitudeDegrees>
              <LongitudeDegrees>-5.40985607542097568511962890625</LongitudeDegrees>
            </Position>
            <AltitudeMeters>238.600006103515625</AltitudeMeters>
            <DistanceMeters>4709.2553420617</DistanceMeters>
          </Trackpoint>
          <Trackpoint>
            <Time>2019-01-04T10:14:54.000Z</Time>
            <Position>
              <LatitudeDegrees>36.5155662037432193756103515625</LatitudeDegrees>
              <LongitudeDegrees>-5.40985590778291225433349609375</LongitudeDegrees>
            </Position>
            <AltitudeMeters>238.600006103515625</AltitudeMeters>
            <DistanceMeters>4709.2553420617</DistanceMeters>
          </Trackpoint>
          <Trackpoint>
            <Time>2019-01-04T10:14:55.000Z</Time>
            <Position>
              <LatitudeDegrees>36.51556670665740966796875</LatitudeDegrees>
              <LongitudeDegrees>-5.4098558239638805389404296875</LongitudeDegrees>
            </Position>
            <AltitudeMeters>238.600006103515625</AltitudeMeters>
            <DistanceMeters>4709.2553420617</DistanceMeters>
          </Trackpoint>
          <Trackpoint>
            <Time>2019-01-04T10:14:56.000Z</Time>
            <Position>
              <LatitudeDegrees>36.51556746102869510650634765625</LatitudeDegrees>
              <LongitudeDegrees>-5.4098558239638805389404296875</LongitudeDegrees>
            </Position>
            <AltitudeMeters>238.600006103515625</AltitudeMeters>
            <DistanceMeters>4709.2553420617</DistanceMeters>
          </Trackpoint>
          <Trackpoint>
            <Time>2019-01-04T10:14:57.000Z</Time>
            <Position>
              <LatitudeDegrees>36.5155680477619171142578125</LatitudeDegrees>
              <LongitudeDegrees>-5.40985607542097568511962890625</LongitudeDegrees>
            </Position>
            <AltitudeMeters>238.600006103515625</AltitudeMeters>
            <DistanceMeters>4709.2553420617</DistanceMeters>
          </Trackpoint>
          <Trackpoint>
            <Time>2019-01-04T10:14:58.000Z</Time>
            <Position>
              <LatitudeDegrees>36.51556746102869510650634765625</LatitudeDegrees>
              <LongitudeDegrees>-5.40985607542097568511962890625</LongitudeDegrees>
            </Position>
            <AltitudeMeters>238.600006103515625</AltitudeMeters>
            <DistanceMeters>4709.2553420617</DistanceMeters>
          </Trackpoint>
          <Trackpoint>
            <Time>2019-01-04T10:14:59.000Z</Time>
            <Position>
              <LatitudeDegrees>36.5155655331909656524658203125</LatitudeDegrees>
              <LongitudeDegrees>-5.40985523723065853118896484375</LongitudeDegrees>
            </Position>
            <AltitudeMeters>238.600006103515625</AltitudeMeters>
            <DistanceMeters>4709.4881090239</DistanceMeters>
          </Trackpoint>
          <Trackpoint>
            <Time>2019-01-04T10:15:00.000Z</Time>
            <Position>
              <LatitudeDegrees>36.51556226424872875213623046875</LatitudeDegrees>
              <LongitudeDegrees>-5.40985397994518280029296875</LongitudeDegrees>
            </Position>
            <AltitudeMeters>238.600006103515625</AltitudeMeters>
            <DistanceMeters>4709.8682158814</DistanceMeters>
          </Trackpoint>
          <Trackpoint>
            <Time>2019-01-04T10:15:01.000Z</Time>
            <Position>
              <LatitudeDegrees>36.51555958203971385955810546875</LatitudeDegrees>
              <LongitudeDegrees>-5.40985322557389736175537109375</LongitudeDegrees>
            </Position>
            <AltitudeMeters>238.600006103515625</AltitudeMeters>
            <DistanceMeters>4710.183383838</DistanceMeters>
          </Trackpoint>
          <Trackpoint>
            <Time>2019-01-04T10:15:02.000Z</Time>
            <Position>
              <LatitudeDegrees>36.5155588276684284210205078125</LatitudeDegrees>
              <LongitudeDegrees>-5.409853644669055938720703125</LongitudeDegrees>
            </Position>
            <AltitudeMeters>238.600006103515625</AltitudeMeters>
            <DistanceMeters>4710.2784105524</DistanceMeters>
          </Trackpoint>
          <Trackpoint>
            <Time>2019-01-04T10:15:03.000Z</Time>
            <Position>
              <LatitudeDegrees>36.5155598334968090057373046875</LatitudeDegrees>
              <LongitudeDegrees>-5.40985221974551677703857421875</LongitudeDegrees>
            </Position>
            <AltitudeMeters>238.600006103515625</AltitudeMeters>
            <DistanceMeters>4710.4430016497</DistanceMeters>
          </Trackpoint>
          <Trackpoint>
            <Time>2019-01-04T10:15:04.000Z</Time>
            <Position>
              <LatitudeDegrees>36.51556511409580707550048828125</LatitudeDegrees>
              <LongitudeDegrees>-5.40983981452882289886474609375</LongitudeDegrees>
            </Position>
            <AltitudeMeters>238.600006103515625</AltitudeMeters>
            <DistanceMeters>4711.6964901025</DistanceMeters>
          </Trackpoint>
          <Trackpoint>
            <Time>2019-01-04T10:15:05.000Z</Time>
            <Position>
              <LatitudeDegrees>36.51556863449513912200927734375</LatitudeDegrees>
              <LongitudeDegrees>-5.409834198653697967529296875</LongitudeDegrees>
            </Position>
            <AltitudeMeters>238.8000030517578125</AltitudeMeters>
            <DistanceMeters>4712.3339486815</DistanceMeters>
          </Trackpoint>
          <Trackpoint>
            <Time>2019-01-04T10:15:06.000Z</Time>
            <Position>
              <LatitudeDegrees>36.51557098142802715301513671875</LatitudeDegrees>
              <LongitudeDegrees>-5.40983118116855621337890625</LongitudeDegrees>
            </Position>
            <AltitudeMeters>238.8000030517578125</AltitudeMeters>
            <DistanceMeters>4712.714055539</DistanceMeters>
          </Trackpoint>
          <Trackpoint>
            <Time>2019-01-04T10:15:07.000Z</Time>
            <Position>
              <LatitudeDegrees>36.51557148434221744537353515625</LatitudeDegrees>
              <LongitudeDegrees>-5.40982958860695362091064453125</LongitudeDegrees>
            </Position>
            <AltitudeMeters>238.600006103515625</AltitudeMeters>
            <DistanceMeters>4712.8484436073</DistanceMeters>
          </Trackpoint>
          <Trackpoint>
            <Time>2019-01-04T10:15:08.000Z</Time>
            <Position>
              <LatitudeDegrees>36.51557316072285175323486328125</LatitudeDegrees>
              <LongitudeDegrees>-5.40982455946505069732666015625</LongitudeDegrees>
            </Position>
            <AltitudeMeters>238.8000030517578125</AltitudeMeters>
            <DistanceMeters>4713.3512777155</DistanceMeters>
          </Trackpoint>
          <Trackpoint>
            <Time>2019-01-04T10:15:09.000Z</Time>
            <Position>
              <LatitudeDegrees>36.51557433418929576873779296875</LatitudeDegrees>
              <LongitudeDegrees>-5.409823469817638397216796875</LongitudeDegrees>
            </Position>
            <AltitudeMeters>238.8000030517578125</AltitudeMeters>
            <DistanceMeters>4713.5158688129</DistanceMeters>
          </Trackpoint>
          <Trackpoint>
            <Time>2019-01-04T10:15:10.000Z</Time>
            <Position>
              <LatitudeDegrees>36.5155755914747714996337890625</LatitudeDegrees>
              <LongitudeDegrees>-5.40982338599860668182373046875</LongitudeDegrees>
            </Position>
            <AltitudeMeters>238.8000030517578125</AltitudeMeters>
            <DistanceMeters>4713.6502568811</DistanceMeters>
          </Trackpoint>
          <Trackpoint>
            <Time>2019-01-04T10:15:11.000Z</Time>
            <Position>
              <LatitudeDegrees>36.51557584293186664581298828125</LatitudeDegrees>
              <LongitudeDegrees>-5.40982355363667011260986328125</LongitudeDegrees>
            </Position>
            <AltitudeMeters>238.8000030517578125</AltitudeMeters>
            <DistanceMeters>4713.6502568811</DistanceMeters>
          </Trackpoint>
          <Trackpoint>
            <Time>2019-01-04T10:15:12.000Z</Time>
            <Position>
              <LatitudeDegrees>36.51557617820799350738525390625</LatitudeDegrees>
              <LongitudeDegrees>-5.40982439182698726654052734375</LongitudeDegrees>
            </Position>
            <AltitudeMeters>238.8000030517578125</AltitudeMeters>
            <DistanceMeters>4713.7846449494</DistanceMeters>
          </Trackpoint>
          <Trackpoint>
            <Time>2019-01-04T10:15:13.000Z</Time>
            <Position>
              <LatitudeDegrees>36.51557567529380321502685546875</LatitudeDegrees>
              <LongitudeDegrees>-5.40982590056955814361572265625</LongitudeDegrees>
            </Position>
            <AltitudeMeters>238.8000030517578125</AltitudeMeters>
            <DistanceMeters>4713.9492360467</DistanceMeters>
          </Trackpoint>
          <Trackpoint>
            <Time>2019-01-04T10:15:14.000Z</Time>
            <Position>
              <LatitudeDegrees>36.515575759112834930419921875</LatitudeDegrees>
              <LongitudeDegrees>-5.4098259843885898590087890625</LongitudeDegrees>
            </Position>
            <AltitudeMeters>238.8000030517578125</AltitudeMeters>
            <DistanceMeters>4714.0442627611</DistanceMeters>
          </Trackpoint>
          <Trackpoint>
            <Time>2019-01-04T10:15:15.000Z</Time>
            <Position>
              <LatitudeDegrees>36.515574753284454345703125</LatitudeDegrees>
              <LongitudeDegrees>-5.4098263196647167205810546875</LongitudeDegrees>
            </Position>
            <AltitudeMeters>238.8000030517578125</AltitudeMeters>
            <DistanceMeters>4714.1786508294</DistanceMeters>
          </Trackpoint>
          <Trackpoint>
            <Time>2019-01-04T10:15:16.000Z</Time>
            <Position>
              <LatitudeDegrees>36.51557500474154949188232421875</LatitudeDegrees>
              <LongitudeDegrees>-5.40982581675052642822265625</LongitudeDegrees>
            </Position>
            <AltitudeMeters>238.8000030517578125</AltitudeMeters>
            <DistanceMeters>4714.1786508294</DistanceMeters>
          </Trackpoint>
          <Trackpoint>
            <Time>2019-01-04T10:15:17.000Z</Time>
            <Position>
              <LatitudeDegrees>36.51557483710348606109619140625</LatitudeDegrees>
              <LongitudeDegrees>-5.4098256491124629974365234375</LongitudeDegrees>
            </Position>
            <AltitudeMeters>238.8000030517578125</AltitudeMeters>
            <DistanceMeters>4714.1786508294</DistanceMeters>
          </Trackpoint>
          <Trackpoint>
            <Time>2019-01-04T10:15:18.000Z</Time>
            <Position>
              <LatitudeDegrees>36.515574418008327484130859375</LatitudeDegrees>
              <LongitudeDegrees>-5.4098256491124629974365234375</LongitudeDegrees>
            </Position>
            <AltitudeMeters>238.8000030517578125</AltitudeMeters>
            <DistanceMeters>4714.1786508294</DistanceMeters>
          </Trackpoint>
          <Trackpoint>
            <Time>2019-01-04T10:15:19.000Z</Time>
            <Position>
              <LatitudeDegrees>36.51557450182735919952392578125</LatitudeDegrees>
              <LongitudeDegrees>-5.4098259843885898590087890625</LongitudeDegrees>
            </Position>
            <AltitudeMeters>238.8000030517578125</AltitudeMeters>
            <DistanceMeters>4714.1786508294</DistanceMeters>
          </Trackpoint>
          <Trackpoint>
            <Time>2019-01-04T10:15:20.000Z</Time>
            <Position>
              <LatitudeDegrees>36.5155742503702640533447265625</LatitudeDegrees>
              <LongitudeDegrees>-5.4098263196647167205810546875</LongitudeDegrees>
            </Position>
            <AltitudeMeters>238.8000030517578125</AltitudeMeters>
            <DistanceMeters>4714.1786508294</DistanceMeters>
          </Trackpoint>
          <Trackpoint>
            <Time>2019-01-04T10:15:21.000Z</Time>
            <Position>
              <LatitudeDegrees>36.51557383127510547637939453125</LatitudeDegrees>
              <LongitudeDegrees>-5.4098266549408435821533203125</LongitudeDegrees>
            </Position>
            <AltitudeMeters>238.8000030517578125</AltitudeMeters>
            <DistanceMeters>4714.1786508294</DistanceMeters>
          </Trackpoint>
          <Trackpoint>
            <Time>2019-01-04T10:15:22.000Z</Time>
            <Position>
              <LatitudeDegrees>36.5155732445418834686279296875</LatitudeDegrees>
              <LongitudeDegrees>-5.40982623584568500518798828125</LongitudeDegrees>
            </Position>
            <AltitudeMeters>238.8000030517578125</AltitudeMeters>
            <DistanceMeters>4714.2736775437</DistanceMeters>
          </Trackpoint>
          <Trackpoint>
            <Time>2019-01-04T10:15:23.000Z</Time>
            <Position>
              <LatitudeDegrees>36.51557366363704204559326171875</LatitudeDegrees>
              <LongitudeDegrees>-5.4098249785602092742919921875</LongitudeDegrees>
            </Position>
            <AltitudeMeters>238.8000030517578125</AltitudeMeters>
            <DistanceMeters>4714.3687042581</DistanceMeters>
          </Trackpoint>
          <Trackpoint>
            <Time>2019-01-04T10:15:24.000Z</Time>
            <Position>
              <LatitudeDegrees>36.51557399891316890716552734375</LatitudeDegrees>
              <LongitudeDegrees>-5.40982372127473354339599609375</LongitudeDegrees>
            </Position>
            <AltitudeMeters>238.8000030517578125</AltitudeMeters>
            <DistanceMeters>4714.4637309725</DistanceMeters>
          </Trackpoint>
          <Trackpoint>
            <Time>2019-01-04T10:15:25.000Z</Time>
            <Position>
              <LatitudeDegrees>36.51557408273220062255859375</LatitudeDegrees>
              <LongitudeDegrees>-5.40982372127473354339599609375</LongitudeDegrees>
            </Position>
            <AltitudeMeters>238.8000030517578125</AltitudeMeters>
            <DistanceMeters>4714.4637309725</DistanceMeters>
          </Trackpoint>
          <Trackpoint>
            <Time>2019-01-04T10:15:26.000Z</Time>
            <Position>
              <LatitudeDegrees>36.5155734121799468994140625</LatitudeDegrees>
              <LongitudeDegrees>-5.40982472710311412811279296875</LongitudeDegrees>
            </Position>
            <AltitudeMeters>238.8000030517578125</AltitudeMeters>
            <DistanceMeters>4714.5981190407</DistanceMeters>
          </Trackpoint>
          <Trackpoint>
            <Time>2019-01-04T10:15:27.000Z</Time>
            <Position>
              <LatitudeDegrees>36.515572406351566314697265625</LatitudeDegrees>
              <LongitudeDegrees>-5.4098263196647167205810546875</LongitudeDegrees>
            </Position>
            <AltitudeMeters>238.8000030517578125</AltitudeMeters>
            <DistanceMeters>4714.7627101381</DistanceMeters>
          </Trackpoint>
          <Trackpoint>
            <Time>2019-01-04T10:15:28.000Z</Time>
            <Position>
              <LatitudeDegrees>36.51557047851383686065673828125</LatitudeDegrees>
              <LongitudeDegrees>-5.40982875041663646697998046875</LongitudeDegrees>
            </Position>
            <AltitudeMeters>238.8000030517578125</AltitudeMeters>
            <DistanceMeters>4715.0632109941</DistanceMeters>
          </Trackpoint>
          <Trackpoint>
            <Time>2019-01-04T10:15:29.000Z</Time>
            <Position>
              <LatitudeDegrees>36.51556913740932941436767578125</LatitudeDegrees>
              <LongitudeDegrees>-5.40983059443533420562744140625</LongitudeDegrees>
            </Position>
            <AltitudeMeters>238.8000030517578125</AltitudeMeters>
            <DistanceMeters>4715.2756971871</DistanceMeters>
          </Trackpoint>
          <Trackpoint>
            <Time>2019-01-04T10:15:30.000Z</Time>
            <Position>
              <LatitudeDegrees>36.51556829921901226043701171875</LatitudeDegrees>
              <LongitudeDegrees>-5.409831516444683074951171875</LongitudeDegrees>
            </Position>
            <AltitudeMeters>238.8000030517578125</AltitudeMeters>
            <DistanceMeters>4715.4100852553</DistanceMeters>
          </Trackpoint>
          <Trackpoint>
            <Time>2019-01-04T10:15:31.000Z</Time>
            <Position>
              <LatitudeDegrees>36.51556829921901226043701171875</LatitudeDegrees>
              <LongitudeDegrees>-5.4098316840827465057373046875</LongitudeDegrees>
            </Position>
            <AltitudeMeters>238.8000030517578125</AltitudeMeters>
            <DistanceMeters>4715.4100852553</DistanceMeters>
          </Trackpoint>
          <Trackpoint>
            <Time>2019-01-04T10:15:32.000Z</Time>
            <Position>
              <LatitudeDegrees>36.51556796394288539886474609375</LatitudeDegrees>
              <LongitudeDegrees>-5.40983176790177822113037109375</LongitudeDegrees>
            </Position>
            <AltitudeMeters>238.8000030517578125</AltitudeMeters>
            <DistanceMeters>4715.4100852553</DistanceMeters>
          </Trackpoint>
          <Trackpoint>
            <Time>2019-01-04T10:15:33.000Z</Time>
            <Position>
              <LatitudeDegrees>36.51556779630482196807861328125</LatitudeDegrees>
              <LongitudeDegrees>-5.40983210317790508270263671875</LongitudeDegrees>
            </Position>
            <AltitudeMeters>238.8000030517578125</AltitudeMeters>
            <DistanceMeters>4715.4100852553</DistanceMeters>
          </Trackpoint>
          <Trackpoint>
            <Time>2019-01-04T10:15:34.000Z</Time>
            <Position>
              <LatitudeDegrees>36.51556779630482196807861328125</LatitudeDegrees>
              <LongitudeDegrees>-5.40983210317790508270263671875</LongitudeDegrees>
            </Position>
            <AltitudeMeters>238.8000030517578125</AltitudeMeters>
            <DistanceMeters>4715.4100852553</DistanceMeters>
          </Trackpoint>
          <Trackpoint>
            <Time>2019-01-04T10:15:35.000Z</Time>
            <Position>
              <LatitudeDegrees>36.5155678801238536834716796875</LatitudeDegrees>
              <LongitudeDegrees>-5.409832186996936798095703125</LongitudeDegrees>
            </Position>
            <AltitudeMeters>238.8000030517578125</AltitudeMeters>
            <DistanceMeters>4715.4100852553</DistanceMeters>
          </Trackpoint>
          <Trackpoint>
            <Time>2019-01-04T10:15:36.000Z</Time>
            <Position>
              <LatitudeDegrees>36.51556779630482196807861328125</LatitudeDegrees>
              <LongitudeDegrees>-5.40983227081596851348876953125</LongitudeDegrees>
            </Position>
            <AltitudeMeters>238.8000030517578125</AltitudeMeters>
            <DistanceMeters>4715.4100852553</DistanceMeters>
          </Trackpoint>
          <Trackpoint>
            <Time>2019-01-04T10:15:37.000Z</Time>
            <Position>
              <LatitudeDegrees>36.51556796394288539886474609375</LatitudeDegrees>
              <LongitudeDegrees>-5.40983210317790508270263671875</LongitudeDegrees>
            </Position>
            <AltitudeMeters>238.8000030517578125</AltitudeMeters>
            <DistanceMeters>4715.4100852553</DistanceMeters>
          </Trackpoint>
          <Trackpoint>
            <Time>2019-01-04T10:15:38.000Z</Time>
            <Position>
              <LatitudeDegrees>36.51556796394288539886474609375</LatitudeDegrees>
              <LongitudeDegrees>-5.4098320193588733673095703125</LongitudeDegrees>
            </Position>
            <AltitudeMeters>238.8000030517578125</AltitudeMeters>
            <DistanceMeters>4715.4100852553</DistanceMeters>
          </Trackpoint>
          <Trackpoint>
            <Time>2019-01-04T10:15:39.000Z</Time>
            <Position>
              <LatitudeDegrees>36.51556796394288539886474609375</LatitudeDegrees>
              <LongitudeDegrees>-5.4098320193588733673095703125</LongitudeDegrees>
            </Position>
            <AltitudeMeters>238.8000030517578125</AltitudeMeters>
            <DistanceMeters>4715.4100852553</DistanceMeters>
          </Trackpoint>
          <Trackpoint>
            <Time>2019-01-04T10:15:40.000Z</Time>
            <Position>
              <LatitudeDegrees>36.5155680477619171142578125</LatitudeDegrees>
              <LongitudeDegrees>-5.40983193553984165191650390625</LongitudeDegrees>
            </Position>
            <AltitudeMeters>238.8000030517578125</AltitudeMeters>
            <DistanceMeters>4715.4100852553</DistanceMeters>
          </Trackpoint>
          <Trackpoint>
            <Time>2019-01-04T10:15:41.000Z</Time>
            <Position>
              <LatitudeDegrees>36.51556813158094882965087890625</LatitudeDegrees>
              <LongitudeDegrees>-5.40983176790177822113037109375</LongitudeDegrees>
            </Position>
            <AltitudeMeters>238.8000030517578125</AltitudeMeters>
            <DistanceMeters>4715.4100852553</DistanceMeters>
          </Trackpoint>
          <Trackpoint>
            <Time>2019-01-04T10:15:42.000Z</Time>
            <Position>
              <LatitudeDegrees>36.5155682153999805450439453125</LatitudeDegrees>
              <LongitudeDegrees>-5.4098318517208099365234375</LongitudeDegrees>
            </Position>
            <AltitudeMeters>238.8000030517578125</AltitudeMeters>
            <DistanceMeters>4715.4100852553</DistanceMeters>
          </Trackpoint>
          <Trackpoint>
            <Time>2019-01-04T10:15:43.000Z</Time>
            <Position>
              <LatitudeDegrees>36.51556796394288539886474609375</LatitudeDegrees>
              <LongitudeDegrees>-5.40983210317790508270263671875</LongitudeDegrees>
            </Position>
            <AltitudeMeters>238.8000030517578125</AltitudeMeters>
            <DistanceMeters>4715.4100852553</DistanceMeters>
          </Trackpoint>
          <Trackpoint>
            <Time>2019-01-04T10:15:44.000Z</Time>
            <Position>
              <LatitudeDegrees>36.51556762866675853729248046875</LatitudeDegrees>
              <LongitudeDegrees>-5.40983277373015880584716796875</LongitudeDegrees>
            </Position>
            <AltitudeMeters>238.8000030517578125</AltitudeMeters>
            <DistanceMeters>4715.5051119697</DistanceMeters>
          </Trackpoint>
          <Trackpoint>
            <Time>2019-01-04T10:15:45.000Z</Time>
            <Position>
              <LatitudeDegrees>36.51556762866675853729248046875</LatitudeDegrees>
              <LongitudeDegrees>-5.409832857549190521240234375</LongitudeDegrees>
            </Position>
            <AltitudeMeters>238.8000030517578125</AltitudeMeters>
            <DistanceMeters>4715.5051119697</DistanceMeters>
          </Trackpoint>
          <Trackpoint>
            <Time>2019-01-04T10:15:46.000Z</Time>
            <Position>
              <LatitudeDegrees>36.5155675448477268218994140625</LatitudeDegrees>
              <LongitudeDegrees>-5.4098331928253173828125</LongitudeDegrees>
            </Position>
            <AltitudeMeters>238.8000030517578125</AltitudeMeters>
            <DistanceMeters>4715.5051119697</DistanceMeters>
          </Trackpoint>
          <Trackpoint>
            <Time>2019-01-04T10:15:47.000Z</Time>
            <Position>
              <LatitudeDegrees>36.51556729339063167572021484375</LatitudeDegrees>
              <LongitudeDegrees>-5.40983344428241252899169921875</LongitudeDegrees>
            </Position>
            <AltitudeMeters>238.8000030517578125</AltitudeMeters>
            <DistanceMeters>4715.5051119697</DistanceMeters>
          </Trackpoint>
          <Trackpoint>
            <Time>2019-01-04T10:15:48.000Z</Time>
            <Position>
              <LatitudeDegrees>36.51556695811450481414794921875</LatitudeDegrees>
              <LongitudeDegrees>-5.409833528101444244384765625</LongitudeDegrees>
            </Position>
            <AltitudeMeters>238.8000030517578125</AltitudeMeters>
            <DistanceMeters>4715.5051119697</DistanceMeters>
          </Trackpoint>
          <Trackpoint>
            <Time>2019-01-04T10:15:49.000Z</Time>
            <Position>
              <LatitudeDegrees>36.5155662037432193756103515625</LatitudeDegrees>
              <LongitudeDegrees>-5.40983377955853939056396484375</LongitudeDegrees>
            </Position>
            <AltitudeMeters>238.8000030517578125</AltitudeMeters>
            <DistanceMeters>4715.5051119697</DistanceMeters>
          </Trackpoint>
          <Trackpoint>
            <Time>2019-01-04T10:15:50.000Z</Time>
            <Position>
              <LatitudeDegrees>36.51556494645774364471435546875</LatitudeDegrees>
              <LongitudeDegrees>-5.40983445011079311370849609375</LongitudeDegrees>
            </Position>
            <AltitudeMeters>238.8000030517578125</AltitudeMeters>
            <DistanceMeters>4715.6697030671</DistanceMeters>
          </Trackpoint>
          <Trackpoint>
            <Time>2019-01-04T10:15:51.000Z</Time>
            <Position>
              <LatitudeDegrees>36.51556310243904590606689453125</LatitudeDegrees>
              <LongitudeDegrees>-5.40983579121530055999755859375</LongitudeDegrees>
            </Position>
            <AltitudeMeters>238.8000030517578125</AltitudeMeters>
            <DistanceMeters>4715.9024700292</DistanceMeters>
          </Trackpoint>
          <Trackpoint>
            <Time>2019-01-04T10:15:52.000Z</Time>
            <Position>
              <LatitudeDegrees>36.515561677515506744384765625</LatitudeDegrees>
              <LongitudeDegrees>-5.409835875034332275390625</LongitudeDegrees>
            </Position>
            <AltitudeMeters>238.8000030517578125</AltitudeMeters>
            <DistanceMeters>4716.0925234579</DistanceMeters>
          </Trackpoint>
          <Trackpoint>
            <Time>2019-01-04T10:15:53.000Z</Time>
            <Position>
              <LatitudeDegrees>36.51556125842034816741943359375</LatitudeDegrees>
              <LongitudeDegrees>-5.40983629412949085235595703125</LongitudeDegrees>
            </Position>
            <AltitudeMeters>238.8000030517578125</AltitudeMeters>
            <DistanceMeters>4716.0925234579</DistanceMeters>
          </Trackpoint>
          <Trackpoint>
            <Time>2019-01-04T10:15:54.000Z</Time>
            <Position>
              <LatitudeDegrees>36.5155613422393798828125</LatitudeDegrees>
              <LongitudeDegrees>-5.40983646176755428314208984375</LongitudeDegrees>
            </Position>
            <AltitudeMeters>238.8000030517578125</AltitudeMeters>
            <DistanceMeters>4716.0925234579</DistanceMeters>
          </Trackpoint>
          <Trackpoint>
            <Time>2019-01-04T10:15:55.000Z</Time>
            <Position>
              <LatitudeDegrees>36.5155615098774433135986328125</LatitudeDegrees>
              <LongitudeDegrees>-5.4098363779485225677490234375</LongitudeDegrees>
            </Position>
            <AltitudeMeters>238.8000030517578125</AltitudeMeters>
            <DistanceMeters>4716.0925234579</DistanceMeters>
          </Trackpoint>
          <Trackpoint>
            <Time>2019-01-04T10:15:56.000Z</Time>
            <Position>
              <LatitudeDegrees>36.51556192897260189056396484375</LatitudeDegrees>
              <LongitudeDegrees>-5.4098357073962688446044921875</LongitudeDegrees>
            </Position>
            <AltitudeMeters>238.8000030517578125</AltitudeMeters>
            <DistanceMeters>4716.1875501723</DistanceMeters>
          </Trackpoint>
          <Trackpoint>
            <Time>2019-01-04T10:15:57.000Z</Time>
            <Position>
              <LatitudeDegrees>36.51556176133453845977783203125</LatitudeDegrees>
              <LongitudeDegrees>-5.40983562357723712921142578125</LongitudeDegrees>
            </Position>
            <AltitudeMeters>238.8000030517578125</AltitudeMeters>
            <DistanceMeters>4716.1875501723</DistanceMeters>
          </Trackpoint>
          <Trackpoint>
            <Time>2019-01-04T10:15:58.000Z</Time>
            <Position>
              <LatitudeDegrees>36.51556201279163360595703125</LatitudeDegrees>
              <LongitudeDegrees>-5.40983562357723712921142578125</LongitudeDegrees>
            </Position>
            <AltitudeMeters>238.8000030517578125</AltitudeMeters>
            <DistanceMeters>4716.1875501723</DistanceMeters>
          </Trackpoint>
          <Trackpoint>
            <Time>2019-01-04T10:15:59.000Z</Time>
            <Position>
              <LatitudeDegrees>36.515562348067760467529296875</LatitudeDegrees>
              <LongitudeDegrees>-5.40983512066304683685302734375</LongitudeDegrees>
            </Position>
            <AltitudeMeters>238.8000030517578125</AltitudeMeters>
            <DistanceMeters>4716.1875501723</DistanceMeters>
          </Trackpoint>
          <Trackpoint>
            <Time>2019-01-04T10:16:00.000Z</Time>
            <Position>
              <LatitudeDegrees>36.51556243188679218292236328125</LatitudeDegrees>
              <LongitudeDegrees>-5.4098350368440151214599609375</LongitudeDegrees>
            </Position>
            <AltitudeMeters>238.8000030517578125</AltitudeMeters>
            <DistanceMeters>4716.1875501723</DistanceMeters>
          </Trackpoint>
          <Trackpoint>
            <Time>2019-01-04T10:16:01.000Z</Time>
            <Position>
              <LatitudeDegrees>36.51556276716291904449462890625</LatitudeDegrees>
              <LongitudeDegrees>-5.40983512066304683685302734375</LongitudeDegrees>
            </Position>
            <AltitudeMeters>238.8000030517578125</AltitudeMeters>
            <DistanceMeters>4716.1875501723</DistanceMeters>
          </Trackpoint>
          <Trackpoint>
            <Time>2019-01-04T10:16:02.000Z</Time>
            <Position>
              <LatitudeDegrees>36.51556293480098247528076171875</LatitudeDegrees>
              <LongitudeDegrees>-5.4098363779485225677490234375</LongitudeDegrees>
            </Position>
            <AltitudeMeters>238.8000030517578125</AltitudeMeters>
            <DistanceMeters>4716.2825768867</DistanceMeters>
          </Trackpoint>
          <Trackpoint>
            <Time>2019-01-04T10:16:03.000Z</Time>
            <Position>
              <LatitudeDegrees>36.51556335389614105224609375</LatitudeDegrees>
              <LongitudeDegrees>-5.40983679704368114471435546875</LongitudeDegrees>
            </Position>
            <AltitudeMeters>238.8000030517578125</AltitudeMeters>
            <DistanceMeters>4716.2825768867</DistanceMeters>
          </Trackpoint>
          <Trackpoint>
            <Time>2019-01-04T10:16:04.000Z</Time>
            <Position>
              <LatitudeDegrees>36.5155645273625850677490234375</LatitudeDegrees>
              <LongitudeDegrees>-5.409836210310459136962890625</LongitudeDegrees>
            </Position>
            <AltitudeMeters>238.8000030517578125</AltitudeMeters>
            <DistanceMeters>4716.4169649549</DistanceMeters>
          </Trackpoint>
          <Trackpoint>
            <Time>2019-01-04T10:16:05.000Z</Time>
            <Position>
              <LatitudeDegrees>36.51556578464806079864501953125</LatitudeDegrees>
              <LongitudeDegrees>-5.40983445011079311370849609375</LongitudeDegrees>
            </Position>
            <AltitudeMeters>238.8000030517578125</AltitudeMeters>
            <DistanceMeters>4716.6294511479</DistanceMeters>
          </Trackpoint>
          <Trackpoint>
            <Time>2019-01-04T10:16:06.000Z</Time>
            <Position>
              <LatitudeDegrees>36.51556645520031452178955078125</LatitudeDegrees>
              <LongitudeDegrees>-5.40983428247272968292236328125</LongitudeDegrees>
            </Position>
            <AltitudeMeters>238.8000030517578125</AltitudeMeters>
            <DistanceMeters>4716.6294511479</DistanceMeters>
          </Trackpoint>
          <Trackpoint>
            <Time>2019-01-04T10:16:07.000Z</Time>
            <Position>
              <LatitudeDegrees>36.51556628756225109100341796875</LatitudeDegrees>
              <LongitudeDegrees>-5.40983428247272968292236328125</LongitudeDegrees>
            </Position>
            <AltitudeMeters>238.8000030517578125</AltitudeMeters>
            <DistanceMeters>4716.6294511479</DistanceMeters>
          </Trackpoint>
          <Trackpoint>
            <Time>2019-01-04T10:16:08.000Z</Time>
            <Position>
              <LatitudeDegrees>36.51556645520031452178955078125</LatitudeDegrees>
              <LongitudeDegrees>-5.4098350368440151214599609375</LongitudeDegrees>
            </Position>
            <AltitudeMeters>238.8000030517578125</AltitudeMeters>
            <DistanceMeters>4716.7638392162</DistanceMeters>
          </Trackpoint>
          <Trackpoint>
            <Time>2019-01-04T10:16:09.000Z</Time>
            <Position>
              <LatitudeDegrees>36.51556880213320255279541015625</LatitudeDegrees>
              <LongitudeDegrees>-5.4098336957395076751708984375</LongitudeDegrees>
            </Position>
            <AltitudeMeters>238.8000030517578125</AltitudeMeters>
            <DistanceMeters>4717.0489193593</DistanceMeters>
          </Trackpoint>
          <Trackpoint>
            <Time>2019-01-04T10:16:10.000Z</Time>
            <Position>
              <LatitudeDegrees>36.51557047851383686065673828125</LatitudeDegrees>
              <LongitudeDegrees>-5.409832186996936798095703125</LongitudeDegrees>
            </Position>
            <AltitudeMeters>238.8000030517578125</AltitudeMeters>
            <DistanceMeters>4717.2816863214</DistanceMeters>
          </Trackpoint>
          <Trackpoint>
            <Time>2019-01-04T10:16:11.000Z</Time>
            <Position>
              <LatitudeDegrees>36.515571065247058868408203125</LatitudeDegrees>
              <LongitudeDegrees>-5.40983176790177822113037109375</LongitudeDegrees>
            </Position>
            <AltitudeMeters>238.8000030517578125</AltitudeMeters>
            <DistanceMeters>4717.2816863214</DistanceMeters>
          </Trackpoint>
          <Trackpoint>
            <Time>2019-01-04T10:16:12.000Z</Time>
            <Position>
              <LatitudeDegrees>36.515572406351566314697265625</LatitudeDegrees>
              <LongitudeDegrees>-5.409829504787921905517578125</LongitudeDegrees>
            </Position>
            <AltitudeMeters>238.8000030517578125</AltitudeMeters>
            <DistanceMeters>4717.5144532836</DistanceMeters>
          </Trackpoint>
          <Trackpoint>
            <Time>2019-01-04T10:16:13.000Z</Time>
            <Position>
              <LatitudeDegrees>36.51557349599897861480712890625</LatitudeDegrees>
              <LongitudeDegrees>-5.409825146198272705078125</LongitudeDegrees>
            </Position>
            <AltitudeMeters>238.8000030517578125</AltitudeMeters>
            <DistanceMeters>4717.9176174883</DistanceMeters>
          </Trackpoint>
          <Trackpoint>
            <Time>2019-01-04T10:16:14.000Z</Time>
            <Position>
              <LatitudeDegrees>36.51557282544672489166259765625</LatitudeDegrees>
              <LongitudeDegrees>-5.40982573293149471282958984375</LongitudeDegrees>
            </Position>
            <AltitudeMeters>238.8000030517578125</AltitudeMeters>
            <DistanceMeters>4717.9176174883</DistanceMeters>
          </Trackpoint>
          <Trackpoint>
            <Time>2019-01-04T10:16:15.000Z</Time>
            <Position>
              <LatitudeDegrees>36.51557140052318572998046875</LatitudeDegrees>
              <LongitudeDegrees>-5.40982590056955814361572265625</LongitudeDegrees>
            </Position>
            <AltitudeMeters>238.8000030517578125</AltitudeMeters>
            <DistanceMeters>4718.0520055566</DistanceMeters>
          </Trackpoint>
          <Trackpoint>
            <Time>2019-01-04T10:16:16.000Z</Time>
            <Position>
              <LatitudeDegrees>36.5155708976089954376220703125</LatitudeDegrees>
              <LongitudeDegrees>-5.40982606820762157440185546875</LongitudeDegrees>
            </Position>
            <AltitudeMeters>238.8000030517578125</AltitudeMeters>
            <DistanceMeters>4718.0520055566</DistanceMeters>
          </Trackpoint>
          <Trackpoint>
            <Time>2019-01-04T10:16:17.000Z</Time>
            <Position>
              <LatitudeDegrees>36.5155695565044879913330078125</LatitudeDegrees>
              <LongitudeDegrees>-5.409826152026653289794921875</LongitudeDegrees>
            </Position>
            <AltitudeMeters>238.8000030517578125</AltitudeMeters>
            <DistanceMeters>4718.1863936248</DistanceMeters>
          </Trackpoint>
          <Trackpoint>
            <Time>2019-01-04T10:16:18.000Z</Time>
            <Position>
              <LatitudeDegrees>36.5155688859522342681884765625</LatitudeDegrees>
              <LongitudeDegrees>-5.4098256491124629974365234375</LongitudeDegrees>
            </Position>
            <AltitudeMeters>238.8000030517578125</AltitudeMeters>
            <DistanceMeters>4718.2814203392</DistanceMeters>
          </Trackpoint>
          <Trackpoint>
            <Time>2019-01-04T10:16:19.000Z</Time>
            <Position>
              <LatitudeDegrees>36.515568383038043975830078125</LatitudeDegrees>
              <LongitudeDegrees>-5.40982673875987529754638671875</LongitudeDegrees>
            </Position>
            <AltitudeMeters>238.8000030517578125</AltitudeMeters>
            <DistanceMeters>4718.3764470536</DistanceMeters>
          </Trackpoint>
          <Trackpoint>
            <Time>2019-01-04T10:16:20.000Z</Time>
            <Position>
              <LatitudeDegrees>36.51556796394288539886474609375</LatitudeDegrees>
              <LongitudeDegrees>-5.4098266549408435821533203125</LongitudeDegrees>
            </Position>
            <AltitudeMeters>238.8000030517578125</AltitudeMeters>
            <DistanceMeters>4718.3764470536</DistanceMeters>
          </Trackpoint>
          <Trackpoint>
            <Time>2019-01-04T10:16:21.000Z</Time>
            <Position>
              <LatitudeDegrees>36.51556737720966339111328125</LatitudeDegrees>
              <LongitudeDegrees>-5.40982640348374843597412109375</LongitudeDegrees>
            </Position>
            <AltitudeMeters>238.8000030517578125</AltitudeMeters>
            <DistanceMeters>4718.4714737679</DistanceMeters>
          </Trackpoint>
          <Trackpoint>
            <Time>2019-01-04T10:16:22.000Z</Time>
            <Position>
              <LatitudeDegrees>36.51556762866675853729248046875</LatitudeDegrees>
              <LongitudeDegrees>-5.40982472710311412811279296875</LongitudeDegrees>
            </Position>
            <AltitudeMeters>238.8000030517578125</AltitudeMeters>
            <DistanceMeters>4718.6360648653</DistanceMeters>
          </Trackpoint>
          <Trackpoint>
            <Time>2019-01-04T10:16:23.000Z</Time>
            <Position>
              <LatitudeDegrees>36.51556863449513912200927734375</LatitudeDegrees>
              <LongitudeDegrees>-5.40982422418892383575439453125</LongitudeDegrees>
            </Position>
            <AltitudeMeters>238.8000030517578125</AltitudeMeters>
            <DistanceMeters>4718.6360648653</DistanceMeters>
          </Trackpoint>
          <Trackpoint>
            <Time>2019-01-04T10:16:24.000Z</Time>
            <Position>
              <LatitudeDegrees>36.51556896977126598358154296875</LatitudeDegrees>
              <LongitudeDegrees>-5.40982388891279697418212890625</LongitudeDegrees>
            </Position>
            <AltitudeMeters>238.8000030517578125</AltitudeMeters>
            <DistanceMeters>4718.6360648653</DistanceMeters>
          </Trackpoint>
          <Trackpoint>
            <Time>2019-01-04T10:16:25.000Z</Time>
            <Position>
              <LatitudeDegrees>36.5155702270567417144775390625</LatitudeDegrees>
              <LongitudeDegrees>-5.40982154197990894317626953125</LongitudeDegrees>
            </Position>
            <AltitudeMeters>238.8000030517578125</AltitudeMeters>
            <DistanceMeters>4718.8874819194</DistanceMeters>
          </Trackpoint>
          <Trackpoint>
            <Time>2019-01-04T10:16:26.000Z</Time>
            <Position>
              <LatitudeDegrees>36.51557274162769317626953125</LatitudeDegrees>
              <LongitudeDegrees>-5.409819446504116058349609375</LongitudeDegrees>
            </Position>
            <AltitudeMeters>238.8000030517578125</AltitudeMeters>
            <DistanceMeters>4719.2166641142</DistanceMeters>
          </Trackpoint>
          <Trackpoint>
            <Time>2019-01-04T10:16:27.000Z</Time>
            <Position>
              <LatitudeDegrees>36.5155739150941371917724609375</LatitudeDegrees>
              <LongitudeDegrees>-5.40982003323733806610107421875</LongitudeDegrees>
            </Position>
            <AltitudeMeters>238.8000030517578125</AltitudeMeters>
            <DistanceMeters>4719.3510521824</DistanceMeters>
          </Trackpoint>
          <Trackpoint>
            <Time>2019-01-04T10:16:28.000Z</Time>
            <Position>
              <LatitudeDegrees>36.5155755914747714996337890625</LatitudeDegrees>
              <LongitudeDegrees>-5.40981869213283061981201171875</LongitudeDegrees>
            </Position>
            <AltitudeMeters>238.8000030517578125</AltitudeMeters>
            <DistanceMeters>4719.5411056111</DistanceMeters>
          </Trackpoint>
          <Trackpoint>
            <Time>2019-01-04T10:16:29.000Z</Time>
            <Position>
              <LatitudeDegrees>36.515575759112834930419921875</LatitudeDegrees>
              <LongitudeDegrees>-5.40982003323733806610107421875</LongitudeDegrees>
            </Position>
            <AltitudeMeters>238.8000030517578125</AltitudeMeters>
            <DistanceMeters>4719.6754936794</DistanceMeters>
          </Trackpoint>
          <Trackpoint>
            <Time>2019-01-04T10:16:30.000Z</Time>
            <Position>
              <LatitudeDegrees>36.5155755914747714996337890625</LatitudeDegrees>
              <LongitudeDegrees>-5.40981919504702091217041015625</LongitudeDegrees>
            </Position>
            <AltitudeMeters>238.8000030517578125</AltitudeMeters>
            <DistanceMeters>4719.8098817476</DistanceMeters>
          </Trackpoint>
          <Trackpoint>
            <Time>2019-01-04T10:16:31.000Z</Time>
            <Position>
              <LatitudeDegrees>36.5155816264450550079345703125</LatitudeDegrees>
              <LongitudeDegrees>-5.4098098911345005035400390625</LongitudeDegrees>
            </Position>
            <AltitudeMeters>238.8000030517578125</AltitudeMeters>
            <DistanceMeters>4720.8765539709</DistanceMeters>
          </Trackpoint>
          <Trackpoint>
            <Time>2019-01-04T10:16:32.000Z</Time>
            <Position>
              <LatitudeDegrees>36.5155827999114990234375</LatitudeDegrees>
              <LongitudeDegrees>-5.4098102264106273651123046875</LongitudeDegrees>
            </Position>
            <AltitudeMeters>238.8000030517578125</AltitudeMeters>
            <DistanceMeters>4721.0109420392</DistanceMeters>
          </Trackpoint>
          <Trackpoint>
            <Time>2019-01-04T10:16:33.000Z</Time>
            <Position>
              <LatitudeDegrees>36.5155846439301967620849609375</LatitudeDegrees>
              <LongitudeDegrees>-5.40980729274451732635498046875</LongitudeDegrees>
            </Position>
            <AltitudeMeters>238.8000030517578125</AltitudeMeters>
            <DistanceMeters>4721.3401242339</DistanceMeters>
          </Trackpoint>
          <Trackpoint>
            <Time>2019-01-04T10:16:34.000Z</Time>
            <Position>
              <LatitudeDegrees>36.515591852366924285888671875</LatitudeDegrees>
              <LongitudeDegrees>-5.40979639627039432525634765625</LongitudeDegrees>
            </Position>
            <AltitudeMeters>238.8000030517578125</AltitudeMeters>
            <DistanceMeters>4722.6007960604</DistanceMeters>
          </Trackpoint>
          <Trackpoint>
            <Time>2019-01-04T10:16:35.000Z</Time>
            <Position>
              <LatitudeDegrees>36.51559696532785892486572265625</LatitudeDegrees>
              <LongitudeDegrees>-5.40979237295687198638916015625</LongitudeDegrees>
            </Position>
            <AltitudeMeters>238.8000030517578125</AltitudeMeters>
            <DistanceMeters>4723.2727364017</DistanceMeters>
          </Trackpoint>
          <Trackpoint>
            <Time>2019-01-04T10:16:36.000Z</Time>
            <Position>
              <LatitudeDegrees>36.51559914462268352508544921875</LatitudeDegrees>
              <LongitudeDegrees>-5.40979321114718914031982421875</LongitudeDegrees>
            </Position>
            <AltitudeMeters>238.8000030517578125</AltitudeMeters>
            <DistanceMeters>4723.5415125382</DistanceMeters>
          </Trackpoint>
          <Trackpoint>
            <Time>2019-01-04T10:16:37.000Z</Time>
            <Position>
              <LatitudeDegrees>36.5155983902513980865478515625</LatitudeDegrees>
              <LongitudeDegrees>-5.409793965518474578857421875</LongitudeDegrees>
            </Position>
            <AltitudeMeters>238.8000030517578125</AltitudeMeters>
            <DistanceMeters>4723.6759006064</DistanceMeters>
          </Trackpoint>
          <Trackpoint>
            <Time>2019-01-04T10:16:38.000Z</Time>
            <Position>
              <LatitudeDegrees>36.51559797115623950958251953125</LatitudeDegrees>
              <LongitudeDegrees>-5.40979488752782344818115234375</LongitudeDegrees>
            </Position>
            <AltitudeMeters>238.8000030517578125</AltitudeMeters>
            <DistanceMeters>4723.7709273208</DistanceMeters>
          </Trackpoint>
          <Trackpoint>
            <Time>2019-01-04T10:16:39.000Z</Time>
            <Position>
              <LatitudeDegrees>36.51559763588011264801025390625</LatitudeDegrees>
              <LongitudeDegrees>-5.40979564189910888671875</LongitudeDegrees>
            </Position>
            <AltitudeMeters>238.8000030517578125</AltitudeMeters>
            <DistanceMeters>4723.905315389</DistanceMeters>
          </Trackpoint>
          <Trackpoint>
            <Time>2019-01-04T10:16:40.000Z</Time>
            <Position>
              <LatitudeDegrees>36.51559730060398578643798828125</LatitudeDegrees>
              <LongitudeDegrees>-5.40979631245136260986328125</LongitudeDegrees>
            </Position>
            <AltitudeMeters>238.8000030517578125</AltitudeMeters>
            <DistanceMeters>4724.0397034573</DistanceMeters>
          </Trackpoint>
          <Trackpoint>
            <Time>2019-01-04T10:16:41.000Z</Time>
            <Position>
              <LatitudeDegrees>36.5155970491468906402587890625</LatitudeDegrees>
              <LongitudeDegrees>-5.40979723446071147918701171875</LongitudeDegrees>
            </Position>
            <AltitudeMeters>238.8000030517578125</AltitudeMeters>
            <DistanceMeters>4724.1347301717</DistanceMeters>
          </Trackpoint>
          <Trackpoint>
            <Time>2019-01-04T10:16:42.000Z</Time>
            <Position>
              <LatitudeDegrees>36.51559663005173206329345703125</LatitudeDegrees>
              <LongitudeDegrees>-5.40979974903166294097900390625</LongitudeDegrees>
            </Position>
            <AltitudeMeters>238.8000030517578125</AltitudeMeters>
            <DistanceMeters>4724.3674971338</DistanceMeters>
          </Trackpoint>
          <Trackpoint>
            <Time>2019-01-04T10:16:43.000Z</Time>
            <Position>
              <LatitudeDegrees>36.51559688150882720947265625</LatitudeDegrees>
              <LongitudeDegrees>-5.4098021797835826873779296875</LongitudeDegrees>
            </Position>
            <AltitudeMeters>238.8000030517578125</AltitudeMeters>
            <DistanceMeters>4724.5575505625</DistanceMeters>
          </Trackpoint>
          <Trackpoint>
            <Time>2019-01-04T10:16:44.000Z</Time>
            <Position>
              <LatitudeDegrees>36.51559746824204921722412109375</LatitudeDegrees>
              <LongitudeDegrees>-5.40980310179293155670166015625</LongitudeDegrees>
            </Position>
            <AltitudeMeters>238.8000030517578125</AltitudeMeters>
            <DistanceMeters>4724.6919386308</DistanceMeters>
          </Trackpoint>
          <Trackpoint>
            <Time>2019-01-04T10:16:45.000Z</Time>
            <Position>
              <LatitudeDegrees>36.5155983902513980865478515625</LatitudeDegrees>
              <LongitudeDegrees>-5.40980209596455097198486328125</LongitudeDegrees>
            </Position>
            <AltitudeMeters>238.8000030517578125</AltitudeMeters>
            <DistanceMeters>4724.826326699</DistanceMeters>
          </Trackpoint>
          <Trackpoint>
            <Time>2019-01-04T10:16:46.000Z</Time>
            <Position>
              <LatitudeDegrees>36.51559864170849323272705078125</LatitudeDegrees>
              <LongitudeDegrees>-5.40980343706905841827392578125</LongitudeDegrees>
            </Position>
            <AltitudeMeters>238.8000030517578125</AltitudeMeters>
            <DistanceMeters>4724.9213534134</DistanceMeters>
          </Trackpoint>
          <Trackpoint>
            <Time>2019-01-04T10:16:47.000Z</Time>
            <Position>
              <LatitudeDegrees>36.51559897698462009429931640625</LatitudeDegrees>
              <LongitudeDegrees>-5.4098038561642169952392578125</LongitudeDegrees>
            </Position>
            <AltitudeMeters>238.8000030517578125</AltitudeMeters>
            <DistanceMeters>4724.9213534134</DistanceMeters>
          </Trackpoint>
          <Trackpoint>
            <Time>2019-01-04T10:16:48.000Z</Time>
            <Position>
              <LatitudeDegrees>36.515599228441715240478515625</LatitudeDegrees>
              <LongitudeDegrees>-5.4098051972687244415283203125</LongitudeDegrees>
            </Position>
            <AltitudeMeters>238.8000030517578125</AltitudeMeters>
            <DistanceMeters>4725.0163801278</DistanceMeters>
          </Trackpoint>
          <Trackpoint>
            <Time>2019-01-04T10:16:49.000Z</Time>
            <Position>
              <LatitudeDegrees>36.51559897698462009429931640625</LatitudeDegrees>
              <LongitudeDegrees>-5.40980595164000988006591796875</LongitudeDegrees>
            </Position>
            <AltitudeMeters>238.8000030517578125</AltitudeMeters>
            <DistanceMeters>4725.1114068421</DistanceMeters>
          </Trackpoint>
          <Trackpoint>
            <Time>2019-01-04T10:16:50.000Z</Time>
            <Position>
              <LatitudeDegrees>36.51559797115623950958251953125</LatitudeDegrees>
              <LongitudeDegrees>-5.4098062030971050262451171875</LongitudeDegrees>
            </Position>
            <AltitudeMeters>238.8000030517578125</AltitudeMeters>
            <DistanceMeters>4725.2457949104</DistanceMeters>
          </Trackpoint>
          <Trackpoint>
            <Time>2019-01-04T10:16:51.000Z</Time>
            <Position>
              <LatitudeDegrees>36.51559822261333465576171875</LatitudeDegrees>
              <LongitudeDegrees>-5.40980595164000988006591796875</LongitudeDegrees>
            </Position>
            <AltitudeMeters>238.8000030517578125</AltitudeMeters>
            <DistanceMeters>4725.2457949104</DistanceMeters>
          </Trackpoint>
          <Trackpoint>
            <Time>2019-01-04T10:16:52.000Z</Time>
            <Position>
              <LatitudeDegrees>36.5155980549752712249755859375</LatitudeDegrees>
              <LongitudeDegrees>-5.40980570018291473388671875</LongitudeDegrees>
            </Position>
            <AltitudeMeters>238.8000030517578125</AltitudeMeters>
            <DistanceMeters>4725.2457949104</DistanceMeters>
          </Trackpoint>
          <Trackpoint>
            <Time>2019-01-04T10:16:53.000Z</Time>
            <Position>
              <LatitudeDegrees>36.5155977196991443634033203125</LatitudeDegrees>
              <LongitudeDegrees>-5.409806035459041595458984375</LongitudeDegrees>
            </Position>
            <AltitudeMeters>238.8000030517578125</AltitudeMeters>
            <DistanceMeters>4725.2457949104</DistanceMeters>
          </Trackpoint>
          <Trackpoint>
            <Time>2019-01-04T10:16:54.000Z</Time>
            <Position>
              <LatitudeDegrees>36.51559763588011264801025390625</LatitudeDegrees>
              <LongitudeDegrees>-5.40980662219226360321044921875</LongitudeDegrees>
            </Position>
            <AltitudeMeters>238.8000030517578125</AltitudeMeters>
            <DistanceMeters>4725.2457949104</DistanceMeters>
          </Trackpoint>
          <Trackpoint>
            <Time>2019-01-04T10:16:55.000Z</Time>
            <Position>
              <LatitudeDegrees>36.51559763588011264801025390625</LatitudeDegrees>
              <LongitudeDegrees>-5.40980838239192962646484375</LongitudeDegrees>
            </Position>
            <AltitudeMeters>238.8000030517578125</AltitudeMeters>
            <DistanceMeters>4725.4103860078</DistanceMeters>
          </Trackpoint>
          <Trackpoint>
            <Time>2019-01-04T10:16:56.000Z</Time>
            <Position>
              <LatitudeDegrees>36.51559847407042980194091796875</LatitudeDegrees>
              <LongitudeDegrees>-5.4098092205822467803955078125</LongitudeDegrees>
            </Position>
            <AltitudeMeters>238.8000030517578125</AltitudeMeters>
            <DistanceMeters>4725.544774076</DistanceMeters>
          </Trackpoint>
          <Trackpoint>
            <Time>2019-01-04T10:16:57.000Z</Time>
            <Position>
              <LatitudeDegrees>36.51559998281300067901611328125</LatitudeDegrees>
              <LongitudeDegrees>-5.40980846621096134185791015625</LongitudeDegrees>
            </Position>
            <AltitudeMeters>238.8000030517578125</AltitudeMeters>
            <DistanceMeters>4725.7348275048</DistanceMeters>
          </Trackpoint>
          <Trackpoint>
            <Time>2019-01-04T10:16:58.000Z</Time>
            <Position>
              <LatitudeDegrees>36.51560149155557155609130859375</LatitudeDegrees>
              <LongitudeDegrees>-5.4098072089254856109619140625</LongitudeDegrees>
            </Position>
            <AltitudeMeters>238.8000030517578125</AltitudeMeters>
            <DistanceMeters>4725.9248809335</DistanceMeters>
          </Trackpoint>
          <Trackpoint>
            <Time>2019-01-04T10:16:59.000Z</Time>
            <Position>
              <LatitudeDegrees>36.5156017430126667022705078125</LatitudeDegrees>
              <LongitudeDegrees>-5.4098078794777393341064453125</LongitudeDegrees>
            </Position>
            <AltitudeMeters>238.8000030517578125</AltitudeMeters>
            <DistanceMeters>4726.0199076479</DistanceMeters>
          </Trackpoint>
          <Trackpoint>
            <Time>2019-01-04T10:17:00.000Z</Time>
            <Position>
              <LatitudeDegrees>36.5156020782887935638427734375</LatitudeDegrees>
              <LongitudeDegrees>-5.40980947203934192657470703125</LongitudeDegrees>
            </Position>
            <AltitudeMeters>238.8000030517578125</AltitudeMeters>
            <DistanceMeters>4726.1542957161</DistanceMeters>
          </Trackpoint>
          <Trackpoint>
            <Time>2019-01-04T10:17:01.000Z</Time>
            <Position>
              <LatitudeDegrees>36.5156014077365398406982421875</LatitudeDegrees>
              <LongitudeDegrees>-5.409813411533832550048828125</LongitudeDegrees>
            </Position>
            <AltitudeMeters>238.8000030517578125</AltitudeMeters>
            <DistanceMeters>4726.5098531239</DistanceMeters>
          </Trackpoint>
          <Trackpoint>
            <Time>2019-01-04T10:17:02.000Z</Time>
            <Position>
              <LatitudeDegrees>36.51560115627944469451904296875</LatitudeDegrees>
              <LongitudeDegrees>-5.40981701575219631195068359375</LongitudeDegrees>
            </Position>
            <AltitudeMeters>238.8000030517578125</AltitudeMeters>
            <DistanceMeters>4726.8524768151</DistanceMeters>
          </Trackpoint>
          <Trackpoint>
            <Time>2019-01-04T10:17:03.000Z</Time>
            <Position>
              <LatitudeDegrees>36.51560232974588871002197265625</LatitudeDegrees>
              <LongitudeDegrees>-5.40981768630445003509521484375</LongitudeDegrees>
            </Position>
            <AltitudeMeters>238.8000030517578125</AltitudeMeters>
            <DistanceMeters>4727.0425302438</DistanceMeters>
          </Trackpoint>
          <Trackpoint>
            <Time>2019-01-04T10:17:04.000Z</Time>
            <Position>
              <LatitudeDegrees>36.51560383848845958709716796875</LatitudeDegrees>
              <LongitudeDegrees>-5.4098184406757354736328125</LongitudeDegrees>
            </Position>
            <AltitudeMeters>238.8000030517578125</AltitudeMeters>
            <DistanceMeters>4727.2071213412</DistanceMeters>
          </Trackpoint>
          <Trackpoint>
            <Time>2019-01-04T10:17:05.000Z</Time>
            <Position>
              <LatitudeDegrees>36.51560358703136444091796875</LatitudeDegrees>
              <LongitudeDegrees>-5.40981902740895748138427734375</LongitudeDegrees>
            </Position>
            <AltitudeMeters>238.8000030517578125</AltitudeMeters>
            <DistanceMeters>4727.2071213412</DistanceMeters>
          </Trackpoint>
          <Trackpoint>
            <Time>2019-01-04T10:17:06.000Z</Time>
            <Position>
              <LatitudeDegrees>36.5156030841171741485595703125</LatitudeDegrees>
              <LongitudeDegrees>-5.40982003323733806610107421875</LongitudeDegrees>
            </Position>
            <AltitudeMeters>238.8000030517578125</AltitudeMeters>
            <DistanceMeters>4727.3415094094</DistanceMeters>
          </Trackpoint>
          <Trackpoint>
            <Time>2019-01-04T10:17:07.000Z</Time>
            <Position>
              <LatitudeDegrees>36.5156029164791107177734375</LatitudeDegrees>
              <LongitudeDegrees>-5.40982087142765522003173828125</LongitudeDegrees>
            </Position>
            <AltitudeMeters>238.8000030517578125</AltitudeMeters>
            <DistanceMeters>4727.4365361238</DistanceMeters>
          </Trackpoint>
          <Trackpoint>
            <Time>2019-01-04T10:17:08.000Z</Time>
            <Position>
              <LatitudeDegrees>36.51560266502201557159423828125</LatitudeDegrees>
              <LongitudeDegrees>-5.40982204489409923553466796875</LongitudeDegrees>
            </Position>
            <AltitudeMeters>238.8000030517578125</AltitudeMeters>
            <DistanceMeters>4727.5315628382</DistanceMeters>
          </Trackpoint>
          <Trackpoint>
            <Time>2019-01-04T10:17:09.000Z</Time>
            <Position>
              <LatitudeDegrees>36.51560224592685699462890625</LatitudeDegrees>
              <LongitudeDegrees>-5.4098224639892578125</LongitudeDegrees>
            </Position>
            <AltitudeMeters>238.8000030517578125</AltitudeMeters>
            <DistanceMeters>4727.5315628382</DistanceMeters>
          </Trackpoint>
          <Trackpoint>
            <Time>2019-01-04T10:17:10.000Z</Time>
            <Position>
              <LatitudeDegrees>36.5156024135649204254150390625</LatitudeDegrees>
              <LongitudeDegrees>-5.40982254780828952789306640625</LongitudeDegrees>
            </Position>
            <AltitudeMeters>238.8000030517578125</AltitudeMeters>
            <DistanceMeters>4727.5315628382</DistanceMeters>
          </Trackpoint>
          <Trackpoint>
            <Time>2019-01-04T10:17:11.000Z</Time>
            <Position>
              <LatitudeDegrees>36.51560249738395214080810546875</LatitudeDegrees>
              <LongitudeDegrees>-5.4098226316273212432861328125</LongitudeDegrees>
            </Position>
            <AltitudeMeters>238.8000030517578125</AltitudeMeters>
            <DistanceMeters>4727.5315628382</DistanceMeters>
          </Trackpoint>
          <Trackpoint>
            <Time>2019-01-04T10:17:12.000Z</Time>
            <Position>
              <LatitudeDegrees>36.515603251755237579345703125</LatitudeDegrees>
              <LongitudeDegrees>-5.40982338599860668182373046875</LongitudeDegrees>
            </Position>
            <AltitudeMeters>238.8000030517578125</AltitudeMeters>
            <DistanceMeters>4727.6265895525</DistanceMeters>
          </Trackpoint>
          <Trackpoint>
            <Time>2019-01-04T10:17:13.000Z</Time>
            <Position>
              <LatitudeDegrees>36.51560367085039615631103515625</LatitudeDegrees>
              <LongitudeDegrees>-5.40982355363667011260986328125</LongitudeDegrees>
            </Position>
            <AltitudeMeters>238.8000030517578125</AltitudeMeters>
            <DistanceMeters>4727.6265895525</DistanceMeters>
          </Trackpoint>
          <Trackpoint>
            <Time>2019-01-04T10:17:14.000Z</Time>
            <Position>
              <LatitudeDegrees>36.51560400612652301788330078125</LatitudeDegrees>
              <LongitudeDegrees>-5.4098229669034481048583984375</LongitudeDegrees>
            </Position>
            <AltitudeMeters>238.8000030517578125</AltitudeMeters>
            <DistanceMeters>4727.6265895525</DistanceMeters>
          </Trackpoint>
          <Trackpoint>
            <Time>2019-01-04T10:17:15.000Z</Time>
            <Position>
              <LatitudeDegrees>36.5156040899455547332763671875</LatitudeDegrees>
              <LongitudeDegrees>-5.4098229669034481048583984375</LongitudeDegrees>
            </Position>
            <AltitudeMeters>238.8000030517578125</AltitudeMeters>
            <DistanceMeters>4727.6265895525</DistanceMeters>
          </Trackpoint>
          <Trackpoint>
            <Time>2019-01-04T10:17:16.000Z</Time>
            <Position>
              <LatitudeDegrees>36.51560367085039615631103515625</LatitudeDegrees>
              <LongitudeDegrees>-5.40982271544635295867919921875</LongitudeDegrees>
            </Position>
            <AltitudeMeters>238.8000030517578125</AltitudeMeters>
            <DistanceMeters>4727.6265895525</DistanceMeters>
          </Trackpoint>
          <Trackpoint>
            <Time>2019-01-04T10:17:17.000Z</Time>
            <Position>
              <LatitudeDegrees>36.515603251755237579345703125</LatitudeDegrees>
              <LongitudeDegrees>-5.409822128713130950927734375</LongitudeDegrees>
            </Position>
            <AltitudeMeters>238.8000030517578125</AltitudeMeters>
            <DistanceMeters>4727.6265895525</DistanceMeters>
          </Trackpoint>
          <Trackpoint>
            <Time>2019-01-04T10:17:18.000Z</Time>
            <Position>
              <LatitudeDegrees>36.5156030841171741485595703125</LatitudeDegrees>
              <LongitudeDegrees>-5.4098219610750675201416015625</LongitudeDegrees>
            </Position>
            <AltitudeMeters>238.8000030517578125</AltitudeMeters>
            <DistanceMeters>4727.6265895525</DistanceMeters>
          </Trackpoint>
          <Trackpoint>
            <Time>2019-01-04T10:17:19.000Z</Time>
            <Position>
              <LatitudeDegrees>36.5156034193933010101318359375</LatitudeDegrees>
              <LongitudeDegrees>-5.40982221253216266632080078125</LongitudeDegrees>
            </Position>
            <AltitudeMeters>238.8000030517578125</AltitudeMeters>
            <DistanceMeters>4727.7216162669</DistanceMeters>
          </Trackpoint>
          <Trackpoint>
            <Time>2019-01-04T10:17:20.000Z</Time>
            <Position>
              <LatitudeDegrees>36.515603922307491302490234375</LatitudeDegrees>
              <LongitudeDegrees>-5.40982238017022609710693359375</LongitudeDegrees>
            </Position>
            <AltitudeMeters>238.8000030517578125</AltitudeMeters>
            <DistanceMeters>4727.8166429813</DistanceMeters>
          </Trackpoint>
          <Trackpoint>
            <Time>2019-01-04T10:17:21.000Z</Time>
            <Position>
              <LatitudeDegrees>36.5156037546694278717041015625</LatitudeDegrees>
              <LongitudeDegrees>-5.40982221253216266632080078125</LongitudeDegrees>
            </Position>
            <AltitudeMeters>238.8000030517578125</AltitudeMeters>
            <DistanceMeters>4727.8166429813</DistanceMeters>
          </Trackpoint>
          <Trackpoint>
            <Time>2019-01-04T10:17:22.000Z</Time>
            <Position>
              <LatitudeDegrees>36.51560383848845958709716796875</LatitudeDegrees>
              <LongitudeDegrees>-5.4098219610750675201416015625</LongitudeDegrees>
            </Position>
            <AltitudeMeters>238.8000030517578125</AltitudeMeters>
            <DistanceMeters>4727.8166429813</DistanceMeters>
          </Trackpoint>
          <Trackpoint>
            <Time>2019-01-04T10:17:23.000Z</Time>
            <Position>
              <LatitudeDegrees>36.51560417376458644866943359375</LatitudeDegrees>
              <LongitudeDegrees>-5.40982170961797237396240234375</LongitudeDegrees>
            </Position>
            <AltitudeMeters>238.8000030517578125</AltitudeMeters>
            <DistanceMeters>4727.8166429813</DistanceMeters>
          </Trackpoint>
          <Trackpoint>
            <Time>2019-01-04T10:17:24.000Z</Time>
            <Position>
              <LatitudeDegrees>36.51560434140264987945556640625</LatitudeDegrees>
              <LongitudeDegrees>-5.409821458160877227783203125</LongitudeDegrees>
            </Position>
            <AltitudeMeters>238.8000030517578125</AltitudeMeters>
            <DistanceMeters>4727.8166429813</DistanceMeters>
          </Trackpoint>
          <Trackpoint>
            <Time>2019-01-04T10:17:25.000Z</Time>
            <Position>
              <LatitudeDegrees>36.515604592859745025634765625</LatitudeDegrees>
              <LongitudeDegrees>-5.40982120670378208160400390625</LongitudeDegrees>
            </Position>
            <AltitudeMeters>238.8000030517578125</AltitudeMeters>
            <DistanceMeters>4727.8166429813</DistanceMeters>
          </Trackpoint>
          <Trackpoint>
            <Time>2019-01-04T10:17:26.000Z</Time>
            <Position>
              <LatitudeDegrees>36.5156047604978084564208984375</LatitudeDegrees>
              <LongitudeDegrees>-5.40982120670378208160400390625</LongitudeDegrees>
            </Position>
            <AltitudeMeters>238.8000030517578125</AltitudeMeters>
            <DistanceMeters>4727.8166429813</DistanceMeters>
          </Trackpoint>
          <Trackpoint>
            <Time>2019-01-04T10:17:27.000Z</Time>
            <Position>
              <LatitudeDegrees>36.51560450904071331024169921875</LatitudeDegrees>
              <LongitudeDegrees>-5.4098229669034481048583984375</LongitudeDegrees>
            </Position>
            <AltitudeMeters>238.8000030517578125</AltitudeMeters>
            <DistanceMeters>4728.00669641</DistanceMeters>
          </Trackpoint>
          <Trackpoint>
            <Time>2019-01-04T10:17:28.000Z</Time>
            <Position>
              <LatitudeDegrees>36.51560358703136444091796875</LatitudeDegrees>
              <LongitudeDegrees>-5.409826152026653289794921875</LongitudeDegrees>
            </Position>
            <AltitudeMeters>238.8000030517578125</AltitudeMeters>
            <DistanceMeters>4728.3218643666</DistanceMeters>
          </Trackpoint>
          <Trackpoint>
            <Time>2019-01-04T10:17:29.000Z</Time>
            <Position>
              <LatitudeDegrees>36.5156029164791107177734375</LatitudeDegrees>
              <LongitudeDegrees>-5.40982707403600215911865234375</LongitudeDegrees>
            </Position>
            <AltitudeMeters>238.8000030517578125</AltitudeMeters>
            <DistanceMeters>4728.4562524349</DistanceMeters>
          </Trackpoint>
          <Trackpoint>
            <Time>2019-01-04T10:17:30.000Z</Time>
            <Position>
              <LatitudeDegrees>36.51560249738395214080810546875</LatitudeDegrees>
              <LongitudeDegrees>-5.40982992388308048248291015625</LongitudeDegrees>
            </Position>
            <AltitudeMeters>238.8000030517578125</AltitudeMeters>
            <DistanceMeters>4728.7250285714</DistanceMeters>
          </Trackpoint>
          <Trackpoint>
            <Time>2019-01-04T10:17:31.000Z</Time>
            <Position>
              <LatitudeDegrees>36.51560115627944469451904296875</LatitudeDegrees>
              <LongitudeDegrees>-5.40983327664434909820556640625</LongitudeDegrees>
            </Position>
            <AltitudeMeters>238.8000030517578125</AltitudeMeters>
            <DistanceMeters>4729.0676522626</DistanceMeters>
          </Trackpoint>
          <Trackpoint>
            <Time>2019-01-04T10:17:32.000Z</Time>
            <Position>
              <LatitudeDegrees>36.5155993960797786712646484375</LatitudeDegrees>
              <LongitudeDegrees>-5.4098363779485225677490234375</LongitudeDegrees>
            </Position>
            <AltitudeMeters>238.8000030517578125</AltitudeMeters>
            <DistanceMeters>4729.4102759538</DistanceMeters>
          </Trackpoint>
          <Trackpoint>
            <Time>2019-01-04T10:17:33.000Z</Time>
            <Position>
              <LatitudeDegrees>36.5155983902513980865478515625</LatitudeDegrees>
              <LongitudeDegrees>-5.4098390601575374603271484375</LongitudeDegrees>
            </Position>
            <AltitudeMeters>238.8000030517578125</AltitudeMeters>
            <DistanceMeters>4729.6790520903</DistanceMeters>
          </Trackpoint>
          <Trackpoint>
            <Time>2019-01-04T10:17:34.000Z</Time>
            <Position>
              <LatitudeDegrees>36.5155983902513980865478515625</LatitudeDegrees>
              <LongitudeDegrees>-5.4098383896052837371826171875</LongitudeDegrees>
            </Position>
            <AltitudeMeters>238.8000030517578125</AltitudeMeters>
            <DistanceMeters>4729.7740788047</DistanceMeters>
          </Trackpoint>
          <Trackpoint>
            <Time>2019-01-04T10:17:35.000Z</Time>
            <Position>
              <LatitudeDegrees>36.51559830643236637115478515625</LatitudeDegrees>
              <LongitudeDegrees>-5.40983922779560089111328125</LongitudeDegrees>
            </Position>
            <AltitudeMeters>238.8000030517578125</AltitudeMeters>
            <DistanceMeters>4729.869105519</DistanceMeters>
          </Trackpoint>
          <Trackpoint>
            <Time>2019-01-04T10:17:36.000Z</Time>
            <Position>
              <LatitudeDegrees>36.5155980549752712249755859375</LatitudeDegrees>
              <LongitudeDegrees>-5.4098400659859180450439453125</LongitudeDegrees>
            </Position>
            <AltitudeMeters>238.8000030517578125</AltitudeMeters>
            <DistanceMeters>4729.9641322334</DistanceMeters>
          </Trackpoint>
          <Trackpoint>
            <Time>2019-01-04T10:17:37.000Z</Time>
            <Position>
              <LatitudeDegrees>36.5155977196991443634033203125</LatitudeDegrees>
              <LongitudeDegrees>-5.4098404012620449066162109375</LongitudeDegrees>
            </Position>
            <AltitudeMeters>238.8000030517578125</AltitudeMeters>
            <DistanceMeters>4729.9641322334</DistanceMeters>
          </Trackpoint>
          <Trackpoint>
            <Time>2019-01-04T10:17:38.000Z</Time>
            <Position>
              <LatitudeDegrees>36.5155983902513980865478515625</LatitudeDegrees>
              <LongitudeDegrees>-5.40984031744301319122314453125</LongitudeDegrees>
            </Position>
            <AltitudeMeters>238.8000030517578125</AltitudeMeters>
            <DistanceMeters>4729.9641322334</DistanceMeters>
          </Trackpoint>
          <Trackpoint>
            <Time>2019-01-04T10:17:39.000Z</Time>
            <Position>
              <LatitudeDegrees>36.51559880934655666351318359375</LatitudeDegrees>
              <LongitudeDegrees>-5.4098398983478546142578125</LongitudeDegrees>
            </Position>
            <AltitudeMeters>238.8000030517578125</AltitudeMeters>
            <DistanceMeters>4729.9641322334</DistanceMeters>
          </Trackpoint>
          <Trackpoint>
            <Time>2019-01-04T10:17:40.000Z</Time>
            <Position>
              <LatitudeDegrees>36.51559931226074695587158203125</LatitudeDegrees>
              <LongitudeDegrees>-5.409839563071727752685546875</LongitudeDegrees>
            </Position>
            <AltitudeMeters>238.8000030517578125</AltitudeMeters>
            <DistanceMeters>4729.9641322334</DistanceMeters>
          </Trackpoint>
          <Trackpoint>
            <Time>2019-01-04T10:17:41.000Z</Time>
            <Position>
              <LatitudeDegrees>36.5155993960797786712646484375</LatitudeDegrees>
              <LongitudeDegrees>-5.40983964689075946807861328125</LongitudeDegrees>
            </Position>
            <AltitudeMeters>238.8000030517578125</AltitudeMeters>
            <DistanceMeters>4729.9641322334</DistanceMeters>
          </Trackpoint>
          <Trackpoint>
            <Time>2019-01-04T10:17:42.000Z</Time>
            <Position>
              <LatitudeDegrees>36.51559864170849323272705078125</LatitudeDegrees>
              <LongitudeDegrees>-5.40983998216688632965087890625</LongitudeDegrees>
            </Position>
            <AltitudeMeters>238.8000030517578125</AltitudeMeters>
            <DistanceMeters>4729.9641322334</DistanceMeters>
          </Trackpoint>
          <Trackpoint>
            <Time>2019-01-04T10:17:43.000Z</Time>
            <Position>
              <LatitudeDegrees>36.515598557889461517333984375</LatitudeDegrees>
              <LongitudeDegrees>-5.4098400659859180450439453125</LongitudeDegrees>
            </Position>
            <AltitudeMeters>238.8000030517578125</AltitudeMeters>
            <DistanceMeters>4729.9641322334</DistanceMeters>
          </Trackpoint>
          <Trackpoint>
            <Time>2019-01-04T10:17:44.000Z</Time>
            <Position>
              <LatitudeDegrees>36.5155987255275249481201171875</LatitudeDegrees>
              <LongitudeDegrees>-5.4098390601575374603271484375</LongitudeDegrees>
            </Position>
            <AltitudeMeters>238.8000030517578125</AltitudeMeters>
            <DistanceMeters>4730.0591589478</DistanceMeters>
          </Trackpoint>
          <Trackpoint>
            <Time>2019-01-04T10:17:45.000Z</Time>
            <Position>
              <LatitudeDegrees>36.51559889316558837890625</LatitudeDegrees>
              <LongitudeDegrees>-5.40983864106237888336181640625</LongitudeDegrees>
            </Position>
            <AltitudeMeters>238.8000030517578125</AltitudeMeters>
            <DistanceMeters>4730.0591589478</DistanceMeters>
          </Trackpoint>
          <Trackpoint>
            <Time>2019-01-04T10:17:46.000Z</Time>
            <Position>
              <LatitudeDegrees>36.5155987255275249481201171875</LatitudeDegrees>
              <LongitudeDegrees>-5.40983855724334716796875</LongitudeDegrees>
            </Position>
            <AltitudeMeters>238.8000030517578125</AltitudeMeters>
            <DistanceMeters>4730.0591589478</DistanceMeters>
          </Trackpoint>
          <Trackpoint>
            <Time>2019-01-04T10:17:47.000Z</Time>
            <Position>
              <LatitudeDegrees>36.5155990608036518096923828125</LatitudeDegrees>
              <LongitudeDegrees>-5.40983713231980800628662109375</LongitudeDegrees>
            </Position>
            <AltitudeMeters>238.8000030517578125</AltitudeMeters>
            <DistanceMeters>4730.193547016</DistanceMeters>
          </Trackpoint>
          <Trackpoint>
            <Time>2019-01-04T10:17:48.000Z</Time>
            <Position>
              <LatitudeDegrees>36.51559880934655666351318359375</LatitudeDegrees>
              <LongitudeDegrees>-5.40983495302498340606689453125</LongitudeDegrees>
            </Position>
            <AltitudeMeters>238.8000030517578125</AltitudeMeters>
            <DistanceMeters>4730.3836004448</DistanceMeters>
          </Trackpoint>
          <Trackpoint>
            <Time>2019-01-04T10:17:49.000Z</Time>
            <Position>
              <LatitudeDegrees>36.51559889316558837890625</LatitudeDegrees>
              <LongitudeDegrees>-5.40982992388308048248291015625</LongitudeDegrees>
            </Position>
            <AltitudeMeters>238.8000030517578125</AltitudeMeters>
            <DistanceMeters>4730.8393325571</DistanceMeters>
          </Trackpoint>
          <Trackpoint>
            <Time>2019-01-04T10:17:50.000Z</Time>
            <Position>
              <LatitudeDegrees>36.51559813879430294036865234375</LatitudeDegrees>
              <LongitudeDegrees>-5.409825481474399566650390625</LongitudeDegrees>
            </Position>
            <AltitudeMeters>238.8000030517578125</AltitudeMeters>
            <DistanceMeters>4731.2311377377</DistanceMeters>
          </Trackpoint>
          <Trackpoint>
            <Time>2019-01-04T10:17:51.000Z</Time>
            <Position>
              <LatitudeDegrees>36.51559629477560520172119140625</LatitudeDegrees>
              <LongitudeDegrees>-5.4098259843885898590087890625</LongitudeDegrees>
            </Position>
            <AltitudeMeters>238.8000030517578125</AltitudeMeters>
            <DistanceMeters>4731.4211911664</DistanceMeters>
          </Trackpoint>
          <Trackpoint>
            <Time>2019-01-04T10:17:52.000Z</Time>
            <Position>
              <LatitudeDegrees>36.51559595949947834014892578125</LatitudeDegrees>
              <LongitudeDegrees>-5.40982170961797237396240234375</LongitudeDegrees>
            </Position>
            <AltitudeMeters>238.8000030517578125</AltitudeMeters>
            <DistanceMeters>4731.8012980239</DistanceMeters>
          </Trackpoint>
          <Trackpoint>
            <Time>2019-01-04T10:17:53.000Z</Time>
            <Position>
              <LatitudeDegrees>36.51559554040431976318359375</LatitudeDegrees>
              <LongitudeDegrees>-5.409820787608623504638671875</LongitudeDegrees>
            </Position>
            <AltitudeMeters>238.8000030517578125</AltitudeMeters>
            <DistanceMeters>4731.8963247383</DistanceMeters>
          </Trackpoint>
          <Trackpoint>
            <Time>2019-01-04T10:17:54.000Z</Time>
            <Position>
              <LatitudeDegrees>36.5155953727662563323974609375</LatitudeDegrees>
              <LongitudeDegrees>-5.4098199494183063507080078125</LongitudeDegrees>
            </Position>
            <AltitudeMeters>238.8000030517578125</AltitudeMeters>
            <DistanceMeters>4732.0307128065</DistanceMeters>
          </Trackpoint>
          <Trackpoint>
            <Time>2019-01-04T10:17:55.000Z</Time>
            <Position>
              <LatitudeDegrees>36.51559595949947834014892578125</LatitudeDegrees>
              <LongitudeDegrees>-5.4098189435899257659912109375</LongitudeDegrees>
            </Position>
            <AltitudeMeters>238.8000030517578125</AltitudeMeters>
            <DistanceMeters>4732.1651008748</DistanceMeters>
          </Trackpoint>
          <Trackpoint>
            <Time>2019-01-04T10:17:56.000Z</Time>
            <Position>
              <LatitudeDegrees>36.51559612713754177093505859375</LatitudeDegrees>
              <LongitudeDegrees>-5.40981835685670375823974609375</LongitudeDegrees>
            </Position>
            <AltitudeMeters>238.8000030517578125</AltitudeMeters>
            <DistanceMeters>4732.2601275892</DistanceMeters>
          </Trackpoint>
          <Trackpoint>
            <Time>2019-01-04T10:17:57.000Z</Time>
            <Position>
              <LatitudeDegrees>36.51559554040431976318359375</LatitudeDegrees>
              <LongitudeDegrees>-5.40981818921864032745361328125</LongitudeDegrees>
            </Position>
            <AltitudeMeters>238.8000030517578125</AltitudeMeters>
            <DistanceMeters>4732.2601275892</DistanceMeters>
          </Trackpoint>
          <Trackpoint>
            <Time>2019-01-04T10:17:58.000Z</Time>
            <Position>
              <LatitudeDegrees>36.51559260673820972442626953125</LatitudeDegrees>
              <LongitudeDegrees>-5.4098179377615451812744140625</LongitudeDegrees>
            </Position>
            <AltitudeMeters>238.8000030517578125</AltitudeMeters>
            <DistanceMeters>4732.5893097839</DistanceMeters>
          </Trackpoint>
          <Trackpoint>
            <Time>2019-01-04T10:17:59.000Z</Time>
            <Position>
              <LatitudeDegrees>36.51559009216725826263427734375</LatitudeDegrees>
              <LongitudeDegrees>-5.4098179377615451812744140625</LongitudeDegrees>
            </Position>
            <AltitudeMeters>238.8000030517578125</AltitudeMeters>
            <DistanceMeters>4732.8580859204</DistanceMeters>
          </Trackpoint>
          <Trackpoint>
            <Time>2019-01-04T10:18:00.000Z</Time>
            <Position>
              <LatitudeDegrees>36.5155873261392116546630859375</LatitudeDegrees>
              <LongitudeDegrees>-5.409818775951862335205078125</LongitudeDegrees>
            </Position>
            <AltitudeMeters>238.8000030517578125</AltitudeMeters>
            <DistanceMeters>4733.173253877</DistanceMeters>
          </Trackpoint>
          <Trackpoint>
            <Time>2019-01-04T10:18:01.000Z</Time>
            <Position>
              <LatitudeDegrees>36.51558749377727508544921875</LatitudeDegrees>
              <LongitudeDegrees>-5.40981969796121120452880859375</LongitudeDegrees>
            </Position>
            <AltitudeMeters>238.8000030517578125</AltitudeMeters>
            <DistanceMeters>4733.3076419453</DistanceMeters>
          </Trackpoint>
          <Trackpoint>
            <Time>2019-01-04T10:18:02.000Z</Time>
            <Position>
              <LatitudeDegrees>36.51558724232017993927001953125</LatitudeDegrees>
              <LongitudeDegrees>-5.409818775951862335205078125</LongitudeDegrees>
            </Position>
            <AltitudeMeters>238.8000030517578125</AltitudeMeters>
            <DistanceMeters>4733.4420300135</DistanceMeters>
          </Trackpoint>
          <Trackpoint>
            <Time>2019-01-04T10:18:03.000Z</Time>
            <Position>
              <LatitudeDegrees>36.5155873261392116546630859375</LatitudeDegrees>
              <LongitudeDegrees>-5.40981785394251346588134765625</LongitudeDegrees>
            </Position>
            <AltitudeMeters>238.8000030517578125</AltitudeMeters>
            <DistanceMeters>4733.5370567279</DistanceMeters>
          </Trackpoint>
          <Trackpoint>
            <Time>2019-01-04T10:18:04.000Z</Time>
            <Position>
              <LatitudeDegrees>36.51558707468211650848388671875</LatitudeDegrees>
              <LongitudeDegrees>-5.40981768630445003509521484375</LongitudeDegrees>
            </Position>
            <AltitudeMeters>238.8000030517578125</AltitudeMeters>
            <DistanceMeters>4733.5370567279</DistanceMeters>
          </Trackpoint>
          <Trackpoint>
            <Time>2019-01-04T10:18:05.000Z</Time>
            <Position>
              <LatitudeDegrees>36.51558724232017993927001953125</LatitudeDegrees>
              <LongitudeDegrees>-5.4098176024854183197021484375</LongitudeDegrees>
            </Position>
            <AltitudeMeters>238.8000030517578125</AltitudeMeters>
            <DistanceMeters>4733.5370567279</DistanceMeters>
          </Trackpoint>
          <Trackpoint>
            <Time>2019-01-04T10:18:06.000Z</Time>
            <Position>
              <LatitudeDegrees>36.51558724232017993927001953125</LatitudeDegrees>
              <LongitudeDegrees>-5.4098176024854183197021484375</LongitudeDegrees>
            </Position>
            <AltitudeMeters>238.8000030517578125</AltitudeMeters>
            <DistanceMeters>4733.5370567279</DistanceMeters>
          </Trackpoint>
          <Trackpoint>
            <Time>2019-01-04T10:18:07.000Z</Time>
            <Position>
              <LatitudeDegrees>36.515587158501148223876953125</LatitudeDegrees>
              <LongitudeDegrees>-5.40981785394251346588134765625</LongitudeDegrees>
            </Position>
            <AltitudeMeters>238.8000030517578125</AltitudeMeters>
            <DistanceMeters>4733.5370567279</DistanceMeters>
          </Trackpoint>
          <Trackpoint>
            <Time>2019-01-04T10:18:08.000Z</Time>
            <Position>
              <LatitudeDegrees>36.51558640412986278533935546875</LatitudeDegrees>
              <LongitudeDegrees>-5.4098184406757354736328125</LongitudeDegrees>
            </Position>
            <AltitudeMeters>238.8000030517578125</AltitudeMeters>
            <DistanceMeters>4733.6320834423</DistanceMeters>
          </Trackpoint>
          <Trackpoint>
            <Time>2019-01-04T10:18:09.000Z</Time>
            <Position>
              <LatitudeDegrees>36.51558615267276763916015625</LatitudeDegrees>
              <LongitudeDegrees>-5.40981785394251346588134765625</LongitudeDegrees>
            </Position>
            <AltitudeMeters>238.8000030517578125</AltitudeMeters>
            <DistanceMeters>4733.6320834423</DistanceMeters>
          </Trackpoint>
          <Trackpoint>
            <Time>2019-01-04T10:18:10.000Z</Time>
            <Position>
              <LatitudeDegrees>36.51558640412986278533935546875</LatitudeDegrees>
              <LongitudeDegrees>-5.4098176024854183197021484375</LongitudeDegrees>
            </Position>
            <AltitudeMeters>238.8000030517578125</AltitudeMeters>
            <DistanceMeters>4733.6320834423</DistanceMeters>
          </Trackpoint>
          <Trackpoint>
            <Time>2019-01-04T10:18:11.000Z</Time>
            <Position>
              <LatitudeDegrees>36.5155859850347042083740234375</LatitudeDegrees>
              <LongitudeDegrees>-5.40981651283800601959228515625</LongitudeDegrees>
            </Position>
            <AltitudeMeters>238.8000030517578125</AltitudeMeters>
            <DistanceMeters>4733.7664715105</DistanceMeters>
          </Trackpoint>
          <Trackpoint>
            <Time>2019-01-04T10:18:12.000Z</Time>
            <Position>
              <LatitudeDegrees>36.5155866555869579315185546875</LatitudeDegrees>
              <LongitudeDegrees>-5.40981416590511798858642578125</LongitudeDegrees>
            </Position>
            <AltitudeMeters>238.8000030517578125</AltitudeMeters>
            <DistanceMeters>4733.9992384726</DistanceMeters>
          </Trackpoint>
          <Trackpoint>
            <Time>2019-01-04T10:18:13.000Z</Time>
            <Position>
              <LatitudeDegrees>36.51558749377727508544921875</LatitudeDegrees>
              <LongitudeDegrees>-5.4098149202764034271240234375</LongitudeDegrees>
            </Position>
            <AltitudeMeters>238.8000030517578125</AltitudeMeters>
            <DistanceMeters>4734.1336265409</DistanceMeters>
          </Trackpoint>
          <Trackpoint>
            <Time>2019-01-04T10:18:14.000Z</Time>
            <Position>
              <LatitudeDegrees>36.51558690704405307769775390625</LatitudeDegrees>
              <LongitudeDegrees>-5.40981684811413288116455078125</LongitudeDegrees>
            </Position>
            <AltitudeMeters>238.8000030517578125</AltitudeMeters>
            <DistanceMeters>4734.3236799696</DistanceMeters>
          </Trackpoint>
          <Trackpoint>
            <Time>2019-01-04T10:18:15.000Z</Time>
            <Position>
              <LatitudeDegrees>36.5155859850347042083740234375</LatitudeDegrees>
              <LongitudeDegrees>-5.4098179377615451812744140625</LongitudeDegrees>
            </Position>
            <AltitudeMeters>238.8000030517578125</AltitudeMeters>
            <DistanceMeters>4734.4580680379</DistanceMeters>
          </Trackpoint>
          <Trackpoint>
            <Time>2019-01-04T10:18:16.000Z</Time>
            <Position>
              <LatitudeDegrees>36.515585482120513916015625</LatitudeDegrees>
              <LongitudeDegrees>-5.40981751866638660430908203125</LongitudeDegrees>
            </Position>
            <AltitudeMeters>238.8000030517578125</AltitudeMeters>
            <DistanceMeters>4734.4580680379</DistanceMeters>
          </Trackpoint>
          <Trackpoint>
            <Time>2019-01-04T10:18:17.000Z</Time>
            <Position>
              <LatitudeDegrees>36.5155843086540699005126953125</LatitudeDegrees>
              <LongitudeDegrees>-5.40981550700962543487548828125</LongitudeDegrees>
            </Position>
            <AltitudeMeters>238.8000030517578125</AltitudeMeters>
            <DistanceMeters>4734.690835</DistanceMeters>
          </Trackpoint>
          <Trackpoint>
            <Time>2019-01-04T10:18:18.000Z</Time>
            <Position>
              <LatitudeDegrees>36.5155816264450550079345703125</LatitudeDegrees>
              <LongitudeDegrees>-5.40981198661029338836669921875</LongitudeDegrees>
            </Position>
            <AltitudeMeters>238.8000030517578125</AltitudeMeters>
            <DistanceMeters>4735.1365497987</DistanceMeters>
          </Trackpoint>
          <Trackpoint>
            <Time>2019-01-04T10:18:19.000Z</Time>
            <Position>
              <LatitudeDegrees>36.51557852514088153839111328125</LatitudeDegrees>
              <LongitudeDegrees>-5.4098117351531982421875</LongitudeDegrees>
            </Position>
            <AltitudeMeters>238.8000030517578125</AltitudeMeters>
            <DistanceMeters>4735.4791734899</DistanceMeters>
          </Trackpoint>
          <Trackpoint>
            <Time>2019-01-04T10:18:20.000Z</Time>
            <Position>
              <LatitudeDegrees>36.515575759112834930419921875</LatitudeDegrees>
              <LongitudeDegrees>-5.4098135791718959808349609375</LongitudeDegrees>
            </Position>
            <AltitudeMeters>238.8000030517578125</AltitudeMeters>
            <DistanceMeters>4735.8347308977</DistanceMeters>
          </Trackpoint>
          <Trackpoint>
            <Time>2019-01-04T10:18:21.000Z</Time>
            <Position>
              <LatitudeDegrees>36.51557550765573978424072265625</LatitudeDegrees>
              <LongitudeDegrees>-5.40981374680995941162109375</LongitudeDegrees>
            </Position>
            <AltitudeMeters>238.8000030517578125</AltitudeMeters>
            <DistanceMeters>4735.9691189659</DistanceMeters>
          </Trackpoint>
          <Trackpoint>
            <Time>2019-01-04T10:18:22.000Z</Time>
            <Position>
              <LatitudeDegrees>36.51557634584605693817138671875</LatitudeDegrees>
              <LongitudeDegrees>-5.4098117351531982421875</LongitudeDegrees>
            </Position>
            <AltitudeMeters>238.8000030517578125</AltitudeMeters>
            <DistanceMeters>4736.2018859281</DistanceMeters>
          </Trackpoint>
          <Trackpoint>
            <Time>2019-01-04T10:18:23.000Z</Time>
            <Position>
              <LatitudeDegrees>36.5155755914747714996337890625</LatitudeDegrees>
              <LongitudeDegrees>-5.40980913676321506500244140625</LongitudeDegrees>
            </Position>
            <AltitudeMeters>238.8000030517578125</AltitudeMeters>
            <DistanceMeters>4736.4533029822</DistanceMeters>
          </Trackpoint>
          <Trackpoint>
            <Time>2019-01-04T10:18:24.000Z</Time>
            <Position>
              <LatitudeDegrees>36.51557651348412036895751953125</LatitudeDegrees>
              <LongitudeDegrees>-5.409810729324817657470703125</LongitudeDegrees>
            </Position>
            <AltitudeMeters>238.8000030517578125</AltitudeMeters>
            <DistanceMeters>4736.6433564109</DistanceMeters>
          </Trackpoint>
          <Trackpoint>
            <Time>2019-01-04T10:18:25.000Z</Time>
            <Position>
              <LatitudeDegrees>36.515577770769596099853515625</LatitudeDegrees>
              <LongitudeDegrees>-5.40981508791446685791015625</LongitudeDegrees>
            </Position>
            <AltitudeMeters>238.8000030517578125</AltitudeMeters>
            <DistanceMeters>4737.0683287969</DistanceMeters>
          </Trackpoint>
          <Trackpoint>
            <Time>2019-01-04T10:18:26.000Z</Time>
            <Position>
              <LatitudeDegrees>36.51557743549346923828125</LatitudeDegrees>
              <LongitudeDegrees>-5.40981785394251346588134765625</LongitudeDegrees>
            </Position>
            <AltitudeMeters>238.8000030517578125</AltitudeMeters>
            <DistanceMeters>4737.3010957591</DistanceMeters>
          </Trackpoint>
          <Trackpoint>
            <Time>2019-01-04T10:18:27.000Z</Time>
            <Position>
              <LatitudeDegrees>36.51557986624538898468017578125</LatitudeDegrees>
              <LongitudeDegrees>-5.4098179377615451812744140625</LongitudeDegrees>
            </Position>
            <AltitudeMeters>238.8000030517578125</AltitudeMeters>
            <DistanceMeters>4737.5698718956</DistanceMeters>
          </Trackpoint>
          <Trackpoint>
            <Time>2019-01-04T10:18:28.000Z</Time>
            <Position>
              <LatitudeDegrees>36.51557969860732555389404296875</LatitudeDegrees>
              <LongitudeDegrees>-5.4098219610750675201416015625</LongitudeDegrees>
            </Position>
            <AltitudeMeters>238.8000030517578125</AltitudeMeters>
            <DistanceMeters>4737.9254293033</DistanceMeters>
          </Trackpoint>
          <Trackpoint>
            <Time>2019-01-04T10:18:29.000Z</Time>
            <Position>
              <LatitudeDegrees>36.51557902805507183074951171875</LatitudeDegrees>
              <LongitudeDegrees>-5.40982690639793872833251953125</LongitudeDegrees>
            </Position>
            <AltitudeMeters>238.8000030517578125</AltitudeMeters>
            <DistanceMeters>4738.371144102</DistanceMeters>
          </Trackpoint>
          <Trackpoint>
            <Time>2019-01-04T10:18:30.000Z</Time>
            <Position>
              <LatitudeDegrees>36.51557944715023040771484375</LatitudeDegrees>
              <LongitudeDegrees>-5.40982858277857303619384765625</LongitudeDegrees>
            </Position>
            <AltitudeMeters>238.8000030517578125</AltitudeMeters>
            <DistanceMeters>4738.5611975308</DistanceMeters>
          </Trackpoint>
          <Trackpoint>
            <Time>2019-01-04T10:18:31.000Z</Time>
            <Position>
              <LatitudeDegrees>36.515581794083118438720703125</LatitudeDegrees>
              <LongitudeDegrees>-5.40982757695019245147705078125</LongitudeDegrees>
            </Position>
            <AltitudeMeters>238.8000030517578125</AltitudeMeters>
            <DistanceMeters>4738.8299736673</DistanceMeters>
          </Trackpoint>
          <Trackpoint>
            <Time>2019-01-04T10:18:32.000Z</Time>
            <Position>
              <LatitudeDegrees>36.515584476292133331298828125</LatitudeDegrees>
              <LongitudeDegrees>-5.4098264873027801513671875</LongitudeDegrees>
            </Position>
            <AltitudeMeters>238.8000030517578125</AltitudeMeters>
            <DistanceMeters>4739.1304745232</DistanceMeters>
          </Trackpoint>
          <Trackpoint>
            <Time>2019-01-04T10:18:33.000Z</Time>
            <Position>
              <LatitudeDegrees>36.5155849792063236236572265625</LatitudeDegrees>
              <LongitudeDegrees>-5.40982690639793872833251953125</LongitudeDegrees>
            </Position>
            <AltitudeMeters>238.8000030517578125</AltitudeMeters>
            <DistanceMeters>4739.1304745232</DistanceMeters>
          </Trackpoint>
          <Trackpoint>
            <Time>2019-01-04T10:18:34.000Z</Time>
            <Position>
              <LatitudeDegrees>36.51558556593954563140869140625</LatitudeDegrees>
              <LongitudeDegrees>-5.40982707403600215911865234375</LongitudeDegrees>
            </Position>
            <AltitudeMeters>238.8000030517578125</AltitudeMeters>
            <DistanceMeters>4739.2255012376</DistanceMeters>
          </Trackpoint>
          <Trackpoint>
            <Time>2019-01-04T10:18:35.000Z</Time>
            <Position>
              <LatitudeDegrees>36.515587158501148223876953125</LatitudeDegrees>
              <LongitudeDegrees>-5.40982791222631931304931640625</LongitudeDegrees>
            </Position>
            <AltitudeMeters>238.8000030517578125</AltitudeMeters>
            <DistanceMeters>4739.4155546664</DistanceMeters>
          </Trackpoint>
          <Trackpoint>
            <Time>2019-01-04T10:18:36.000Z</Time>
            <Position>
              <LatitudeDegrees>36.51558824814856052398681640625</LatitudeDegrees>
              <LongitudeDegrees>-5.4098256491124629974365234375</LongitudeDegrees>
            </Position>
            <AltitudeMeters>238.8000030517578125</AltitudeMeters>
            <DistanceMeters>4739.6483216285</DistanceMeters>
          </Trackpoint>
          <Trackpoint>
            <Time>2019-01-04T10:18:37.000Z</Time>
            <Position>
              <LatitudeDegrees>36.51558757759630680084228515625</LatitudeDegrees>
              <LongitudeDegrees>-5.40982690639793872833251953125</LongitudeDegrees>
            </Position>
            <AltitudeMeters>238.8000030517578125</AltitudeMeters>
            <DistanceMeters>4739.7827096967</DistanceMeters>
          </Trackpoint>
          <Trackpoint>
            <Time>2019-01-04T10:18:38.000Z</Time>
            <Position>
              <LatitudeDegrees>36.5155868232250213623046875</LatitudeDegrees>
              <LongitudeDegrees>-5.409828163683414459228515625</LongitudeDegrees>
            </Position>
            <AltitudeMeters>238.8000030517578125</AltitudeMeters>
            <DistanceMeters>4739.917097765</DistanceMeters>
          </Trackpoint>
          <Trackpoint>
            <Time>2019-01-04T10:18:39.000Z</Time>
            <Position>
              <LatitudeDegrees>36.515585817396640777587890625</LatitudeDegrees>
              <LongitudeDegrees>-5.4098336957395076751708984375</LongitudeDegrees>
            </Position>
            <AltitudeMeters>238.8000030517578125</AltitudeMeters>
            <DistanceMeters>4740.428832283</DistanceMeters>
          </Trackpoint>
          <Trackpoint>
            <Time>2019-01-04T10:18:40.000Z</Time>
            <Position>
              <LatitudeDegrees>36.515585146844387054443359375</LatitudeDegrees>
              <LongitudeDegrees>-5.409838892519474029541015625</LongitudeDegrees>
            </Position>
            <AltitudeMeters>238.8000030517578125</AltitudeMeters>
            <DistanceMeters>4740.9039658548</DistanceMeters>
          </Trackpoint>
          <Trackpoint>
            <Time>2019-01-04T10:18:41.000Z</Time>
            <Position>
              <LatitudeDegrees>36.51558472774922847747802734375</LatitudeDegrees>
              <LongitudeDegrees>-5.4098420776426792144775390625</LongitudeDegrees>
            </Position>
            <AltitudeMeters>238.8000030517578125</AltitudeMeters>
            <DistanceMeters>4741.1727419913</DistanceMeters>
          </Trackpoint>
          <Trackpoint>
            <Time>2019-01-04T10:18:42.000Z</Time>
            <Position>
              <LatitudeDegrees>36.51558338664472103118896484375</LatitudeDegrees>
              <LongitudeDegrees>-5.40984232909977436065673828125</LongitudeDegrees>
            </Position>
            <AltitudeMeters>238.8000030517578125</AltitudeMeters>
            <DistanceMeters>4741.3071300596</DistanceMeters>
          </Trackpoint>
          <Trackpoint>
            <Time>2019-01-04T10:18:43.000Z</Time>
            <Position>
              <LatitudeDegrees>36.51558347046375274658203125</LatitudeDegrees>
              <LongitudeDegrees>-5.40984283201396465301513671875</LongitudeDegrees>
            </Position>
            <AltitudeMeters>238.8000030517578125</AltitudeMeters>
            <DistanceMeters>4741.3071300596</DistanceMeters>
          </Trackpoint>
          <Trackpoint>
            <Time>2019-01-04T10:18:44.000Z</Time>
            <Position>
              <LatitudeDegrees>36.51558338664472103118896484375</LatitudeDegrees>
              <LongitudeDegrees>-5.4098424129188060760498046875</LongitudeDegrees>
            </Position>
            <AltitudeMeters>238.8000030517578125</AltitudeMeters>
            <DistanceMeters>4741.3071300596</DistanceMeters>
          </Trackpoint>
          <Trackpoint>
            <Time>2019-01-04T10:18:45.000Z</Time>
            <Position>
              <LatitudeDegrees>36.51558355428278446197509765625</LatitudeDegrees>
              <LongitudeDegrees>-5.4098424129188060760498046875</LongitudeDegrees>
            </Position>
            <AltitudeMeters>238.8000030517578125</AltitudeMeters>
            <DistanceMeters>4741.3071300596</DistanceMeters>
          </Trackpoint>
          <Trackpoint>
            <Time>2019-01-04T10:18:46.000Z</Time>
            <Position>
              <LatitudeDegrees>36.5155841410160064697265625</LatitudeDegrees>
              <LongitudeDegrees>-5.40984232909977436065673828125</LongitudeDegrees>
            </Position>
            <AltitudeMeters>238.8000030517578125</AltitudeMeters>
            <DistanceMeters>4741.4021567739</DistanceMeters>
          </Trackpoint>
          <Trackpoint>
            <Time>2019-01-04T10:18:47.000Z</Time>
            <Position>
              <LatitudeDegrees>36.51558405719697475433349609375</LatitudeDegrees>
              <LongitudeDegrees>-5.4098414070904254913330078125</LongitudeDegrees>
            </Position>
            <AltitudeMeters>238.8000030517578125</AltitudeMeters>
            <DistanceMeters>4741.4971834883</DistanceMeters>
          </Trackpoint>
          <Trackpoint>
            <Time>2019-01-04T10:18:48.000Z</Time>
            <Position>
              <LatitudeDegrees>36.51558388955891132354736328125</LatitudeDegrees>
              <LongitudeDegrees>-5.40984048508107662200927734375</LongitudeDegrees>
            </Position>
            <AltitudeMeters>238.8000030517578125</AltitudeMeters>
            <DistanceMeters>4741.5922102027</DistanceMeters>
          </Trackpoint>
          <Trackpoint>
            <Time>2019-01-04T10:18:49.000Z</Time>
            <Position>
              <LatitudeDegrees>36.5155826322734355926513671875</LatitudeDegrees>
              <LongitudeDegrees>-5.40984115563333034515380859375</LongitudeDegrees>
            </Position>
            <AltitudeMeters>238.8000030517578125</AltitudeMeters>
            <DistanceMeters>4741.7822636314</DistanceMeters>
          </Trackpoint>
          <Trackpoint>
            <Time>2019-01-04T10:18:50.000Z</Time>
            <Position>
              <LatitudeDegrees>36.51558154262602329254150390625</LatitudeDegrees>
              <LongitudeDegrees>-5.409843921661376953125</LongitudeDegrees>
            </Position>
            <AltitudeMeters>238.8000030517578125</AltitudeMeters>
            <DistanceMeters>4742.0510397679</DistanceMeters>
          </Trackpoint>
          <Trackpoint>
            <Time>2019-01-04T10:18:51.000Z</Time>
            <Position>
              <LatitudeDegrees>36.51558204554021358489990234375</LatitudeDegrees>
              <LongitudeDegrees>-5.4098440892994403839111328125</LongitudeDegrees>
            </Position>
            <AltitudeMeters>238.8000030517578125</AltitudeMeters>
            <DistanceMeters>4742.0510397679</DistanceMeters>
          </Trackpoint>
          <Trackpoint>
            <Time>2019-01-04T10:18:52.000Z</Time>
            <Position>
              <LatitudeDegrees>36.51558238081634044647216796875</LatitudeDegrees>
              <LongitudeDegrees>-5.409844256937503814697265625</LongitudeDegrees>
            </Position>
            <AltitudeMeters>238.8000030517578125</AltitudeMeters>
            <DistanceMeters>4742.0510397679</DistanceMeters>
          </Trackpoint>
          <Trackpoint>
            <Time>2019-01-04T10:18:53.000Z</Time>
            <Position>
              <LatitudeDegrees>36.51558212935924530029296875</LatitudeDegrees>
              <LongitudeDegrees>-5.4098440892994403839111328125</LongitudeDegrees>
            </Position>
            <AltitudeMeters>238.8000030517578125</AltitudeMeters>
            <DistanceMeters>4742.0510397679</DistanceMeters>
          </Trackpoint>
          <Trackpoint>
            <Time>2019-01-04T10:18:54.000Z</Time>
            <Position>
              <LatitudeDegrees>36.51557986624538898468017578125</LatitudeDegrees>
              <LongitudeDegrees>-5.40984517894685268402099609375</LongitudeDegrees>
            </Position>
            <AltitudeMeters>238.8000030517578125</AltitudeMeters>
            <DistanceMeters>4742.3198159044</DistanceMeters>
          </Trackpoint>
          <Trackpoint>
            <Time>2019-01-04T10:18:55.000Z</Time>
            <Position>
              <LatitudeDegrees>36.51557743549346923828125</LatitudeDegrees>
              <LongitudeDegrees>-5.40984601713716983795166015625</LongitudeDegrees>
            </Position>
            <AltitudeMeters>238.8000030517578125</AltitudeMeters>
            <DistanceMeters>4742.5885920409</DistanceMeters>
          </Trackpoint>
          <Trackpoint>
            <Time>2019-01-04T10:18:56.000Z</Time>
            <Position>
              <LatitudeDegrees>36.51557835750281810760498046875</LatitudeDegrees>
              <LongitudeDegrees>-5.4098440892994403839111328125</LongitudeDegrees>
            </Position>
            <AltitudeMeters>238.8000030517578125</AltitudeMeters>
            <DistanceMeters>4742.7786454696</DistanceMeters>
          </Trackpoint>
          <Trackpoint>
            <Time>2019-01-04T10:18:57.000Z</Time>
            <Position>
              <LatitudeDegrees>36.5155789442360401153564453125</LatitudeDegrees>
              <LongitudeDegrees>-5.409842245280742645263671875</LongitudeDegrees>
            </Position>
            <AltitudeMeters>238.8000030517578125</AltitudeMeters>
            <DistanceMeters>4742.943236567</DistanceMeters>
          </Trackpoint>
          <Trackpoint>
            <Time>2019-01-04T10:18:58.000Z</Time>
            <Position>
              <LatitudeDegrees>36.5155802853405475616455078125</LatitudeDegrees>
              <LongitudeDegrees>-5.40984232909977436065673828125</LongitudeDegrees>
            </Position>
            <AltitudeMeters>238.8000030517578125</AltitudeMeters>
            <DistanceMeters>4743.0776246353</DistanceMeters>
          </Trackpoint>
          <Trackpoint>
            <Time>2019-01-04T10:18:59.000Z</Time>
            <Position>
              <LatitudeDegrees>36.51557969860732555389404296875</LatitudeDegrees>
              <LongitudeDegrees>-5.40984031744301319122314453125</LongitudeDegrees>
            </Position>
            <AltitudeMeters>238.8000030517578125</AltitudeMeters>
            <DistanceMeters>4743.267678064</DistanceMeters>
          </Trackpoint>
          <Trackpoint>
            <Time>2019-01-04T10:19:00.000Z</Time>
            <Position>
              <LatitudeDegrees>36.515579782426357269287109375</LatitudeDegrees>
              <LongitudeDegrees>-5.4098393954336643218994140625</LongitudeDegrees>
            </Position>
            <AltitudeMeters>238.8000030517578125</AltitudeMeters>
            <DistanceMeters>4743.3627047784</DistanceMeters>
          </Trackpoint>
          <Trackpoint>
            <Time>2019-01-04T10:19:01.000Z</Time>
            <Position>
              <LatitudeDegrees>36.51558020152151584625244140625</LatitudeDegrees>
              <LongitudeDegrees>-5.40983947925269603729248046875</LongitudeDegrees>
            </Position>
            <AltitudeMeters>238.8000030517578125</AltitudeMeters>
            <DistanceMeters>4743.3627047784</DistanceMeters>
          </Trackpoint>
          <Trackpoint>
            <Time>2019-01-04T10:19:02.000Z</Time>
            <Position>
              <LatitudeDegrees>36.51558405719697475433349609375</LatitudeDegrees>
              <LongitudeDegrees>-5.40983713231980800628662109375</LongitudeDegrees>
            </Position>
            <AltitudeMeters>238.8000030517578125</AltitudeMeters>
            <DistanceMeters>4743.8472478493</DistanceMeters>
          </Trackpoint>
          <Trackpoint>
            <Time>2019-01-04T10:19:03.000Z</Time>
            <Position>
              <LatitudeDegrees>36.51558690704405307769775390625</LatitudeDegrees>
              <LongitudeDegrees>-5.40983797051012516021728515625</LongitudeDegrees>
            </Position>
            <AltitudeMeters>238.8000030517578125</AltitudeMeters>
            <DistanceMeters>4744.176430044</DistanceMeters>
          </Trackpoint>
          <Trackpoint>
            <Time>2019-01-04T10:19:04.000Z</Time>
            <Position>
              <LatitudeDegrees>36.51558975689113140106201171875</LatitudeDegrees>
              <LongitudeDegrees>-5.40983864106237888336181640625</LongitudeDegrees>
            </Position>
            <AltitudeMeters>238.8000030517578125</AltitudeMeters>
            <DistanceMeters>4744.5056122387</DistanceMeters>
          </Trackpoint>
          <Trackpoint>
            <Time>2019-01-04T10:19:05.000Z</Time>
            <Position>
              <LatitudeDegrees>36.5155903436243534088134765625</LatitudeDegrees>
              <LongitudeDegrees>-5.409835875034332275390625</LongitudeDegrees>
            </Position>
            <AltitudeMeters>238.8000030517578125</AltitudeMeters>
            <DistanceMeters>4744.7570292928</DistanceMeters>
          </Trackpoint>
          <Trackpoint>
            <Time>2019-01-04T10:19:06.000Z</Time>
            <Position>
              <LatitudeDegrees>36.5155895054340362548828125</LatitudeDegrees>
              <LongitudeDegrees>-5.40983344428241252899169921875</LongitudeDegrees>
            </Position>
            <AltitudeMeters>238.8000030517578125</AltitudeMeters>
            <DistanceMeters>4744.989796255</DistanceMeters>
          </Trackpoint>
          <Trackpoint>
            <Time>2019-01-04T10:19:07.000Z</Time>
            <Position>
              <LatitudeDegrees>36.51558673940598964691162109375</LatitudeDegrees>
              <LongitudeDegrees>-5.40983428247272968292236328125</LongitudeDegrees>
            </Position>
            <AltitudeMeters>238.8000030517578125</AltitudeMeters>
            <DistanceMeters>4745.3189784497</DistanceMeters>
          </Trackpoint>
          <Trackpoint>
            <Time>2019-01-04T10:19:08.000Z</Time>
            <Position>
              <LatitudeDegrees>36.51557735167443752288818359375</LatitudeDegrees>
              <LongitudeDegrees>-5.4098397307097911834716796875</LongitudeDegrees>
            </Position>
            <AltitudeMeters>238.8000030517578125</AltitudeMeters>
            <DistanceMeters>4746.4711161313</DistanceMeters>
          </Trackpoint>
          <Trackpoint>
            <Time>2019-01-04T10:19:09.000Z</Time>
            <Position>
              <LatitudeDegrees>36.51557743549346923828125</LatitudeDegrees>
              <LongitudeDegrees>-5.4098417423665523529052734375</LongitudeDegrees>
            </Position>
            <AltitudeMeters>238.8000030517578125</AltitudeMeters>
            <DistanceMeters>4746.66116956</DistanceMeters>
          </Trackpoint>
          <Trackpoint>
            <Time>2019-01-04T10:19:10.000Z</Time>
            <Position>
              <LatitudeDegrees>36.51557818986475467681884765625</LatitudeDegrees>
              <LongitudeDegrees>-5.40984182618558406829833984375</LongitudeDegrees>
            </Position>
            <AltitudeMeters>238.8000030517578125</AltitudeMeters>
            <DistanceMeters>4746.66116956</DistanceMeters>
          </Trackpoint>
          <Trackpoint>
            <Time>2019-01-04T10:19:11.000Z</Time>
            <Position>
              <LatitudeDegrees>36.5155786089599132537841796875</LatitudeDegrees>
              <LongitudeDegrees>-5.409843586385250091552734375</LongitudeDegrees>
            </Position>
            <AltitudeMeters>238.8000030517578125</AltitudeMeters>
            <DistanceMeters>4746.8512229887</DistanceMeters>
          </Trackpoint>
          <Trackpoint>
            <Time>2019-01-04T10:19:12.000Z</Time>
            <Position>
              <LatitudeDegrees>36.51558078825473785400390625</LatitudeDegrees>
              <LongitudeDegrees>-5.4098420776426792144775390625</LongitudeDegrees>
            </Position>
            <AltitudeMeters>238.8000030517578125</AltitudeMeters>
            <DistanceMeters>4747.1363031319</DistanceMeters>
          </Trackpoint>
          <Trackpoint>
            <Time>2019-01-04T10:19:13.000Z</Time>
            <Position>
              <LatitudeDegrees>36.5155814588069915771484375</LatitudeDegrees>
              <LongitudeDegrees>-5.40984031744301319122314453125</LongitudeDegrees>
            </Position>
            <AltitudeMeters>238.8000030517578125</AltitudeMeters>
            <DistanceMeters>4747.3008942292</DistanceMeters>
          </Trackpoint>
          <Trackpoint>
            <Time>2019-01-04T10:19:14.000Z</Time>
            <Position>
              <LatitudeDegrees>36.51558070443570613861083984375</LatitudeDegrees>
              <LongitudeDegrees>-5.40983855724334716796875</LongitudeDegrees>
            </Position>
            <AltitudeMeters>238.8000030517578125</AltitudeMeters>
            <DistanceMeters>4747.490947658</DistanceMeters>
          </Trackpoint>
          <Trackpoint>
            <Time>2019-01-04T10:19:15.000Z</Time>
            <Position>
              <LatitudeDegrees>36.51557936333119869232177734375</LatitudeDegrees>
              <LongitudeDegrees>-5.40983864106237888336181640625</LongitudeDegrees>
            </Position>
            <AltitudeMeters>238.8000030517578125</AltitudeMeters>
            <DistanceMeters>4747.6555387553</DistanceMeters>
          </Trackpoint>
          <Trackpoint>
            <Time>2019-01-04T10:19:16.000Z</Time>
            <Position>
              <LatitudeDegrees>36.5155787765979766845703125</LatitudeDegrees>
              <LongitudeDegrees>-5.4098393954336643218994140625</LongitudeDegrees>
            </Position>
            <AltitudeMeters>238.8000030517578125</AltitudeMeters>
            <DistanceMeters>4747.7505654697</DistanceMeters>
          </Trackpoint>
          <Trackpoint>
            <Time>2019-01-04T10:19:17.000Z</Time>
            <Position>
              <LatitudeDegrees>36.51557902805507183074951171875</LatitudeDegrees>
              <LongitudeDegrees>-5.40984048508107662200927734375</LongitudeDegrees>
            </Position>
            <AltitudeMeters>238.8000030517578125</AltitudeMeters>
            <DistanceMeters>4747.8455921841</DistanceMeters>
          </Trackpoint>
          <Trackpoint>
            <Time>2019-01-04T10:19:18.000Z</Time>
            <Position>
              <LatitudeDegrees>36.51557852514088153839111328125</LatitudeDegrees>
              <LongitudeDegrees>-5.409841574728488922119140625</LongitudeDegrees>
            </Position>
            <AltitudeMeters>238.8000030517578125</AltitudeMeters>
            <DistanceMeters>4747.9799802523</DistanceMeters>
          </Trackpoint>
          <Trackpoint>
            <Time>2019-01-04T10:19:19.000Z</Time>
            <Position>
              <LatitudeDegrees>36.51557852514088153839111328125</LatitudeDegrees>
              <LongitudeDegrees>-5.4098425805568695068359375</LongitudeDegrees>
            </Position>
            <AltitudeMeters>238.8000030517578125</AltitudeMeters>
            <DistanceMeters>4748.0750069667</DistanceMeters>
          </Trackpoint>
          <Trackpoint>
            <Time>2019-01-04T10:19:20.000Z</Time>
            <Position>
              <LatitudeDegrees>36.51557768695056438446044921875</LatitudeDegrees>
              <LongitudeDegrees>-5.40984400548040866851806640625</LongitudeDegrees>
            </Position>
            <AltitudeMeters>238.8000030517578125</AltitudeMeters>
            <DistanceMeters>4748.2093950349</DistanceMeters>
          </Trackpoint>
          <Trackpoint>
            <Time>2019-01-04T10:19:21.000Z</Time>
            <Position>
              <LatitudeDegrees>36.51557802222669124603271484375</LatitudeDegrees>
              <LongitudeDegrees>-5.4098467715084552764892578125</LongitudeDegrees>
            </Position>
            <AltitudeMeters>238.8000030517578125</AltitudeMeters>
            <DistanceMeters>4748.4421619971</DistanceMeters>
          </Trackpoint>
          <Trackpoint>
            <Time>2019-01-04T10:19:22.000Z</Time>
            <Position>
              <LatitudeDegrees>36.51557936333119869232177734375</LatitudeDegrees>
              <LongitudeDegrees>-5.4098481126129627227783203125</LongitudeDegrees>
            </Position>
            <AltitudeMeters>238.8000030517578125</AltitudeMeters>
            <DistanceMeters>4748.6322154258</DistanceMeters>
          </Trackpoint>
          <Trackpoint>
            <Time>2019-01-04T10:19:23.000Z</Time>
            <Position>
              <LatitudeDegrees>36.51558070443570613861083984375</LatitudeDegrees>
              <LongitudeDegrees>-5.40984869934618473052978515625</LongitudeDegrees>
            </Position>
            <AltitudeMeters>238.8000030517578125</AltitudeMeters>
            <DistanceMeters>4748.7968065232</DistanceMeters>
          </Trackpoint>
          <Trackpoint>
            <Time>2019-01-04T10:19:24.000Z</Time>
            <Position>
              <LatitudeDegrees>36.51558078825473785400390625</LatitudeDegrees>
              <LongitudeDegrees>-5.40984920226037502288818359375</LongitudeDegrees>
            </Position>
            <AltitudeMeters>238.8000030517578125</AltitudeMeters>
            <DistanceMeters>4748.7968065232</DistanceMeters>
          </Trackpoint>
          <Trackpoint>
            <Time>2019-01-04T10:19:25.000Z</Time>
            <Position>
              <LatitudeDegrees>36.51558103971183300018310546875</LatitudeDegrees>
              <LongitudeDegrees>-5.40984928607940673828125</LongitudeDegrees>
            </Position>
            <AltitudeMeters>238.8000030517578125</AltitudeMeters>
            <DistanceMeters>4748.7968065232</DistanceMeters>
          </Trackpoint>
          <Trackpoint>
            <Time>2019-01-04T10:19:26.000Z</Time>
            <Position>
              <LatitudeDegrees>36.51558103971183300018310546875</LatitudeDegrees>
              <LongitudeDegrees>-5.4098491184413433074951171875</LongitudeDegrees>
            </Position>
            <AltitudeMeters>238.8000030517578125</AltitudeMeters>
            <DistanceMeters>4748.7968065232</DistanceMeters>
          </Trackpoint>
          <Trackpoint>
            <Time>2019-01-04T10:19:27.000Z</Time>
            <Position>
              <LatitudeDegrees>36.51558103971183300018310546875</LatitudeDegrees>
              <LongitudeDegrees>-5.4098491184413433074951171875</LongitudeDegrees>
            </Position>
            <AltitudeMeters>238.8000030517578125</AltitudeMeters>
            <DistanceMeters>4748.7968065232</DistanceMeters>
          </Trackpoint>
          <Trackpoint>
            <Time>2019-01-04T10:19:28.000Z</Time>
            <Position>
              <LatitudeDegrees>36.51558204554021358489990234375</LatitudeDegrees>
              <LongitudeDegrees>-5.40984853170812129974365234375</LongitudeDegrees>
            </Position>
            <AltitudeMeters>238.8000030517578125</AltitudeMeters>
            <DistanceMeters>4748.9311945914</DistanceMeters>
          </Trackpoint>
          <Trackpoint>
            <Time>2019-01-04T10:19:29.000Z</Time>
            <Position>
              <LatitudeDegrees>36.51558405719697475433349609375</LatitudeDegrees>
              <LongitudeDegrees>-5.40984727442264556884765625</LongitudeDegrees>
            </Position>
            <AltitudeMeters>238.8000030517578125</AltitudeMeters>
            <DistanceMeters>4749.1639615536</DistanceMeters>
          </Trackpoint>
          <Trackpoint>
            <Time>2019-01-04T10:19:30.000Z</Time>
            <Position>
              <LatitudeDegrees>36.5155853144824504852294921875</LatitudeDegrees>
              <LongitudeDegrees>-5.40984635241329669952392578125</LongitudeDegrees>
            </Position>
            <AltitudeMeters>238.8000030517578125</AltitudeMeters>
            <DistanceMeters>4749.3285526509</DistanceMeters>
          </Trackpoint>
          <Trackpoint>
            <Time>2019-01-04T10:19:31.000Z</Time>
            <Position>
              <LatitudeDegrees>36.51558975689113140106201171875</LatitudeDegrees>
              <LongitudeDegrees>-5.40984367020428180694580078125</LongitudeDegrees>
            </Position>
            <AltitudeMeters>238.8000030517578125</AltitudeMeters>
            <DistanceMeters>4749.8744395647</DistanceMeters>
          </Trackpoint>
          <Trackpoint>
            <Time>2019-01-04T10:19:32.000Z</Time>
            <Position>
              <LatitudeDegrees>36.51559461839497089385986328125</LatitudeDegrees>
              <LongitudeDegrees>-5.409848280251026153564453125</LongitudeDegrees>
            </Position>
            <AltitudeMeters>238.8000030517578125</AltitudeMeters>
            <DistanceMeters>4750.5596869471</DistanceMeters>
          </Trackpoint>
          <Trackpoint>
            <Time>2019-01-04T10:19:33.000Z</Time>
            <Position>
              <LatitudeDegrees>36.5155983902513980865478515625</LatitudeDegrees>
              <LongitudeDegrees>-5.40984995663166046142578125</LongitudeDegrees>
            </Position>
            <AltitudeMeters>238.8000030517578125</AltitudeMeters>
            <DistanceMeters>4751.0054017458</DistanceMeters>
          </Trackpoint>
          <Trackpoint>
            <Time>2019-01-04T10:19:34.000Z</Time>
            <Position>
              <LatitudeDegrees>36.51560484431684017181396484375</LatitudeDegrees>
              <LongitudeDegrees>-5.40984400548040866851806640625</LongitudeDegrees>
            </Position>
            <AltitudeMeters>238.8000030517578125</AltitudeMeters>
            <DistanceMeters>4751.9069043137</DistanceMeters>
          </Trackpoint>
          <Trackpoint>
            <Time>2019-01-04T10:19:35.000Z</Time>
            <Position>
              <LatitudeDegrees>36.515610627830028533935546875</LatitudeDegrees>
              <LongitudeDegrees>-5.4098353721201419830322265625</LongitudeDegrees>
            </Position>
            <AltitudeMeters>238.8000030517578125</AltitudeMeters>
            <DistanceMeters>4752.9125725303</DistanceMeters>
          </Trackpoint>
          <Trackpoint>
            <Time>2019-01-04T10:19:36.000Z</Time>
            <Position>
              <LatitudeDegrees>36.51561590842902660369873046875</LatitudeDegrees>
              <LongitudeDegrees>-5.40983042679727077484130859375</LongitudeDegrees>
            </Position>
            <AltitudeMeters>238.8000030517578125</AltitudeMeters>
            <DistanceMeters>4753.6486462947</DistanceMeters>
          </Trackpoint>
          <Trackpoint>
            <Time>2019-01-04T10:19:37.000Z</Time>
            <Position>
              <LatitudeDegrees>36.5156225301325321197509765625</LatitudeDegrees>
              <LongitudeDegrees>-5.4098249785602092742919921875</LongitudeDegrees>
            </Position>
            <AltitudeMeters>238.8000030517578125</AltitudeMeters>
            <DistanceMeters>4754.5298877906</DistanceMeters>
          </Trackpoint>
          <Trackpoint>
            <Time>2019-01-04T10:19:38.000Z</Time>
            <Position>
              <LatitudeDegrees>36.51563233695924282073974609375</LatitudeDegrees>
              <LongitudeDegrees>-5.4098165966570377349853515625</LongitudeDegrees>
            </Position>
            <AltitudeMeters>238.8000030517578125</AltitudeMeters>
            <DistanceMeters>4755.8500410975</DistanceMeters>
          </Trackpoint>
          <Trackpoint>
            <Time>2019-01-04T10:19:39.000Z</Time>
            <Position>
              <LatitudeDegrees>36.51563971303403377532958984375</LatitudeDegrees>
              <LongitudeDegrees>-5.4098119027912616729736328125</LongitudeDegrees>
            </Position>
            <AltitudeMeters>239.600006103515625</AltitudeMeters>
            <DistanceMeters>4756.7713592758</DistanceMeters>
          </Trackpoint>
          <Trackpoint>
            <Time>2019-01-04T10:19:40.000Z</Time>
            <Position>
              <LatitudeDegrees>36.51564516127109527587890625</LatitudeDegrees>
              <LongitudeDegrees>-5.409810058772563934326171875</LongitudeDegrees>
            </Position>
            <AltitudeMeters>239.8000030517578125</AltitudeMeters>
            <DistanceMeters>4757.4016951891</DistanceMeters>
          </Trackpoint>
          <Trackpoint>
            <Time>2019-01-04T10:19:41.000Z</Time>
            <Position>
              <LatitudeDegrees>36.515650860965251922607421875</LatitudeDegrees>
              <LongitudeDegrees>-5.409809388220310211181640625</LongitudeDegrees>
            </Position>
            <AltitudeMeters>240.399993896484375</AltitudeMeters>
            <DistanceMeters>4758.0461977231</DistanceMeters>
          </Trackpoint>
          <Trackpoint>
            <Time>2019-01-04T10:19:42.000Z</Time>
            <Position>
              <LatitudeDegrees>36.51565429754555225372314453125</LatitudeDegrees>
              <LongitudeDegrees>-5.409809052944183349609375</LongitudeDegrees>
            </Position>
            <AltitudeMeters>240.600006103515625</AltitudeMeters>
            <DistanceMeters>4758.4263045806</DistanceMeters>
          </Trackpoint>
          <Trackpoint>
            <Time>2019-01-04T10:19:43.000Z</Time>
            <Position>
              <LatitudeDegrees>36.51566050015389919281005859375</LatitudeDegrees>
              <LongitudeDegrees>-5.409810058772563934326171875</LongitudeDegrees>
            </Position>
            <AltitudeMeters>241.1999969482421875</AltitudeMeters>
            <DistanceMeters>4759.124605467</DistanceMeters>
          </Trackpoint>
          <Trackpoint>
            <Time>2019-01-04T10:19:44.000Z</Time>
            <Position>
              <LatitudeDegrees>36.51566720567643642425537109375</LatitudeDegrees>
              <LongitudeDegrees>-5.40981198661029338836669921875</LongitudeDegrees>
            </Position>
            <AltitudeMeters>241.399993896484375</AltitudeMeters>
            <DistanceMeters>4759.8907353313</DistanceMeters>
          </Trackpoint>
          <Trackpoint>
            <Time>2019-01-04T10:19:45.000Z</Time>
            <Position>
              <LatitudeDegrees>36.51567734777927398681640625</LatitudeDegrees>
              <LongitudeDegrees>-5.4098115675151348114013671875</LongitudeDegrees>
            </Position>
            <AltitudeMeters>241.1999969482421875</AltitudeMeters>
            <DistanceMeters>4761.0191150451</DistanceMeters>
          </Trackpoint>
          <Trackpoint>
            <Time>2019-01-04T10:19:46.000Z</Time>
            <Position>
              <LatitudeDegrees>36.515690423548221588134765625</LatitudeDegrees>
              <LongitudeDegrees>-5.409804023802280426025390625</LongitudeDegrees>
            </Position>
            <AltitudeMeters>241.399993896484375</AltitudeMeters>
            <DistanceMeters>4762.6233506221</DistanceMeters>
          </Trackpoint>
          <Trackpoint>
            <Time>2019-01-04T10:19:47.000Z</Time>
            <Position>
              <LatitudeDegrees>36.5156939439475536346435546875</LatitudeDegrees>
              <LongitudeDegrees>-5.40978818200528621673583984375</LongitudeDegrees>
            </Position>
            <AltitudeMeters>241.399993896484375</AltitudeMeters>
            <DistanceMeters>4764.0954981509</DistanceMeters>
          </Trackpoint>
          <Trackpoint>
            <Time>2019-01-04T10:19:48.000Z</Time>
            <Position>
              <LatitudeDegrees>36.5156922675669193267822265625</LatitudeDegrees>
              <LongitudeDegrees>-5.40977678261697292327880859375</LongitudeDegrees>
            </Position>
            <AltitudeMeters>241.600006103515625</AltitudeMeters>
            <DistanceMeters>4765.1321172212</DistanceMeters>
          </Trackpoint>
          <Trackpoint>
            <Time>2019-01-04T10:19:49.000Z</Time>
            <Position>
              <LatitudeDegrees>36.5156858973205089569091796875</LatitudeDegrees>
              <LongitudeDegrees>-5.40976940654218196868896484375</LongitudeDegrees>
            </Position>
            <AltitudeMeters>241.8000030517578125</AltitudeMeters>
            <DistanceMeters>4766.1012033629</DistanceMeters>
          </Trackpoint>
          <Trackpoint>
            <Time>2019-01-04T10:19:50.000Z</Time>
            <Position>
              <LatitudeDegrees>36.51568472385406494140625</LatitudeDegrees>
              <LongitudeDegrees>-5.409768484532833099365234375</LongitudeDegrees>
            </Position>
            <AltitudeMeters>241.8000030517578125</AltitudeMeters>
            <DistanceMeters>4766.2657944603</DistanceMeters>
          </Trackpoint>
          <Trackpoint>
            <Time>2019-01-04T10:19:51.000Z</Time>
            <Position>
              <LatitudeDegrees>36.51568472385406494140625</LatitudeDegrees>
              <LongitudeDegrees>-5.40976856835186481475830078125</LongitudeDegrees>
            </Position>
            <AltitudeMeters>242.1999969482421875</AltitudeMeters>
            <DistanceMeters>4766.2657944603</DistanceMeters>
          </Trackpoint>
          <Trackpoint>
            <Time>2019-01-04T10:19:52.000Z</Time>
            <Position>
              <LatitudeDegrees>36.5156838856637477874755859375</LatitudeDegrees>
              <LongitudeDegrees>-5.40976169519126415252685546875</LongitudeDegrees>
            </Position>
            <AltitudeMeters>242.600006103515625</AltitudeMeters>
            <DistanceMeters>4766.8961303736</DistanceMeters>
          </Trackpoint>
          <Trackpoint>
            <Time>2019-01-04T10:19:53.000Z</Time>
            <Position>
              <LatitudeDegrees>36.51568413712084293365478515625</LatitudeDegrees>
              <LongitudeDegrees>-5.40975314565002918243408203125</LongitudeDegrees>
            </Position>
            <AltitudeMeters>243</AltitudeMeters>
            <DistanceMeters>4767.6681310506</DistanceMeters>
          </Trackpoint>
          <Trackpoint>
            <Time>2019-01-04T10:19:54.000Z</Time>
            <Position>
              <LatitudeDegrees>36.51568380184471607208251953125</LatitudeDegrees>
              <LongitudeDegrees>-5.40975079871714115142822265625</LongitudeDegrees>
            </Position>
            <AltitudeMeters>243.399993896484375</AltitudeMeters>
            <DistanceMeters>4767.9008980127</DistanceMeters>
          </Trackpoint>
          <Trackpoint>
            <Time>2019-01-04T10:19:55.000Z</Time>
            <Position>
              <LatitudeDegrees>36.51568514294922351837158203125</LatitudeDegrees>
              <LongitudeDegrees>-5.4097461886703968048095703125</LongitudeDegrees>
            </Position>
            <AltitudeMeters>243.600006103515625</AltitudeMeters>
            <DistanceMeters>4768.3466128114</DistanceMeters>
          </Trackpoint>
          <Trackpoint>
            <Time>2019-01-04T10:19:56.000Z</Time>
            <Position>
              <LatitudeDegrees>36.5156899206340312957763671875</LatitudeDegrees>
              <LongitudeDegrees>-5.40974266827106475830078125</LongitudeDegrees>
            </Position>
            <AltitudeMeters>243.8000030517578125</AltitudeMeters>
            <DistanceMeters>4768.9624563066</DistanceMeters>
          </Trackpoint>
          <Trackpoint>
            <Time>2019-01-04T10:19:57.000Z</Time>
            <Position>
              <LatitudeDegrees>36.5156941115856170654296875</LatitudeDegrees>
              <LongitudeDegrees>-5.40973856113851070404052734375</LongitudeDegrees>
            </Position>
            <AltitudeMeters>244</AltitudeMeters>
            <DistanceMeters>4769.5558979477</DistanceMeters>
          </Trackpoint>
          <Trackpoint>
            <Time>2019-01-04T10:19:58.000Z</Time>
            <Position>
              <LatitudeDegrees>36.51569880545139312744140625</LatitudeDegrees>
              <LongitudeDegrees>-5.40973059833049774169921875</LongitudeDegrees>
            </Position>
            <AltitudeMeters>244.1999969482421875</AltitudeMeters>
            <DistanceMeters>4770.4371394436</DistanceMeters>
          </Trackpoint>
          <Trackpoint>
            <Time>2019-01-04T10:19:59.000Z</Time>
            <Position>
              <LatitudeDegrees>36.51569955982267856597900390625</LatitudeDegrees>
              <LongitudeDegrees>-5.409722886979579925537109375</LongitudeDegrees>
            </Position>
            <AltitudeMeters>244.600006103515625</AltitudeMeters>
            <DistanceMeters>4771.13544033</DistanceMeters>
          </Trackpoint>
          <Trackpoint>
            <Time>2019-01-04T10:20:00.000Z</Time>
            <Position>
              <LatitudeDegrees>36.5156994760036468505859375</LatitudeDegrees>
              <LongitudeDegrees>-5.40971810929477214813232421875</LongitudeDegrees>
            </Position>
            <AltitudeMeters>245</AltitudeMeters>
            <DistanceMeters>4771.5604127161</DistanceMeters>
          </Trackpoint>
          <Trackpoint>
            <Time>2019-01-04T10:20:01.000Z</Time>
            <Position>
              <LatitudeDegrees>36.515703164041042327880859375</LatitudeDegrees>
              <LongitudeDegrees>-5.4097083024680614471435546875</LongitudeDegrees>
            </Position>
            <AltitudeMeters>245.399993896484375</AltitudeMeters>
            <DistanceMeters>4772.5294988578</DistanceMeters>
          </Trackpoint>
          <Trackpoint>
            <Time>2019-01-04T10:20:02.000Z</Time>
            <Position>
              <LatitudeDegrees>36.51570827700197696685791015625</LatitudeDegrees>
              <LongitudeDegrees>-5.40970033966004848480224609375</LongitudeDegrees>
            </Position>
            <AltitudeMeters>245.600006103515625</AltitudeMeters>
            <DistanceMeters>4773.4409630825</DistanceMeters>
          </Trackpoint>
          <Trackpoint>
            <Time>2019-01-04T10:20:03.000Z</Time>
            <Position>
              <LatitudeDegrees>36.51572118513286113739013671875</LatitudeDegrees>
              <LongitudeDegrees>-5.409693382680416107177734375</LongitudeDegrees>
            </Position>
            <AltitudeMeters>245.8000030517578125</AltitudeMeters>
            <DistanceMeters>4775.0081838049</DistanceMeters>
          </Trackpoint>
          <Trackpoint>
            <Time>2019-01-04T10:20:04.000Z</Time>
            <Position>
              <LatitudeDegrees>36.515723951160907745361328125</LatitudeDegrees>
              <LongitudeDegrees>-5.409677289426326751708984375</LongitudeDegrees>
            </Position>
            <AltitudeMeters>246.1999969482421875</AltitudeMeters>
            <DistanceMeters>4776.4803313337</DistanceMeters>
          </Trackpoint>
          <Trackpoint>
            <Time>2019-01-04T10:20:05.000Z</Time>
            <Position>
              <LatitudeDegrees>36.51572487317025661468505859375</LatitudeDegrees>
              <LongitudeDegrees>-5.409661866724491119384765625</LongitudeDegrees>
            </Position>
            <AltitudeMeters>246.399993896484375</AltitudeMeters>
            <DistanceMeters>4777.8639411798</DistanceMeters>
          </Trackpoint>
          <Trackpoint>
            <Time>2019-01-04T10:20:06.000Z</Time>
            <Position>
              <LatitudeDegrees>36.51572562754154205322265625</LatitudeDegrees>
              <LongitudeDegrees>-5.4096539877355098724365234375</LongitudeDegrees>
            </Position>
            <AltitudeMeters>246.8000030517578125</AltitudeMeters>
            <DistanceMeters>4778.5750559953</DistanceMeters>
          </Trackpoint>
          <Trackpoint>
            <Time>2019-01-04T10:20:07.000Z</Time>
            <Position>
              <LatitudeDegrees>36.51572587899863719940185546875</LatitudeDegrees>
              <LongitudeDegrees>-5.4096508026123046875</LongitudeDegrees>
            </Position>
            <AltitudeMeters>247.1999969482421875</AltitudeMeters>
            <DistanceMeters>4778.8601361384</DistanceMeters>
          </Trackpoint>
          <Trackpoint>
            <Time>2019-01-04T10:20:08.000Z</Time>
            <Position>
              <LatitudeDegrees>36.51572621427476406097412109375</LatitudeDegrees>
              <LongitudeDegrees>-5.409647114574909210205078125</LongitudeDegrees>
            </Position>
            <AltitudeMeters>247.399993896484375</AltitudeMeters>
            <DistanceMeters>4779.1893183331</DistanceMeters>
          </Trackpoint>
          <Trackpoint>
            <Time>2019-01-04T10:20:09.000Z</Time>
            <Position>
              <LatitudeDegrees>36.5157291479408740997314453125</LatitudeDegrees>
              <LongitudeDegrees>-5.40963965468108654022216796875</LongitudeDegrees>
            </Position>
            <AltitudeMeters>247.600006103515625</AltitudeMeters>
            <DistanceMeters>4779.9315006982</DistanceMeters>
          </Trackpoint>
          <Trackpoint>
            <Time>2019-01-04T10:20:10.000Z</Time>
            <Position>
              <LatitudeDegrees>36.51573359034955501556396484375</LatitudeDegrees>
              <LongitudeDegrees>-5.40962842293083667755126953125</LongitudeDegrees>
            </Position>
            <AltitudeMeters>248</AltitudeMeters>
            <DistanceMeters>4781.0478118329</DistanceMeters>
          </Trackpoint>
          <Trackpoint>
            <Time>2019-01-04T10:20:11.000Z</Time>
            <Position>
              <LatitudeDegrees>36.51573526673018932342529296875</LatitudeDegrees>
              <LongitudeDegrees>-5.4096288420259952545166015625</LongitudeDegrees>
            </Position>
            <AltitudeMeters>248.399993896484375</AltitudeMeters>
            <DistanceMeters>4781.2378652616</DistanceMeters>
          </Trackpoint>
          <Trackpoint>
            <Time>2019-01-04T10:20:12.000Z</Time>
            <Position>
              <LatitudeDegrees>36.5157365240156650543212890625</LatitudeDegrees>
              <LongitudeDegrees>-5.40962289087474346160888671875</LongitudeDegrees>
            </Position>
            <AltitudeMeters>248.600006103515625</AltitudeMeters>
            <DistanceMeters>4781.7919614618</DistanceMeters>
          </Trackpoint>
          <Trackpoint>
            <Time>2019-01-04T10:20:13.000Z</Time>
            <Position>
              <LatitudeDegrees>36.51573543436825275421142578125</LatitudeDegrees>
              <LongitudeDegrees>-5.4096077196300029754638671875</LongitudeDegrees>
            </Position>
            <AltitudeMeters>248.8000030517578125</AltitudeMeters>
            <DistanceMeters>4783.1558513941</DistanceMeters>
          </Trackpoint>
          <Trackpoint>
            <Time>2019-01-04T10:20:14.000Z</Time>
            <Position>
              <LatitudeDegrees>36.51573057286441326141357421875</LatitudeDegrees>
              <LongitudeDegrees>-5.40960428304970264434814453125</LongitudeDegrees>
            </Position>
            <AltitudeMeters>249</AltitudeMeters>
            <DistanceMeters>4783.7716948894</DistanceMeters>
          </Trackpoint>
          <Trackpoint>
            <Time>2019-01-04T10:20:15.000Z</Time>
            <Position>
              <LatitudeDegrees>36.51572738774120807647705078125</LatitudeDegrees>
              <LongitudeDegrees>-5.40960260666906833648681640625</LongitudeDegrees>
            </Position>
            <AltitudeMeters>249.399993896484375</AltitudeMeters>
            <DistanceMeters>4784.1518017469</DistanceMeters>
          </Trackpoint>
          <Trackpoint>
            <Time>2019-01-04T10:20:16.000Z</Time>
            <Position>
              <LatitudeDegrees>36.51572353206574916839599609375</LatitudeDegrees>
              <LongitudeDegrees>-5.4095956496894359588623046875</LongitudeDegrees>
            </Position>
            <AltitudeMeters>249.600006103515625</AltitudeMeters>
            <DistanceMeters>4784.9060529093</DistanceMeters>
          </Trackpoint>
          <Trackpoint>
            <Time>2019-01-04T10:20:17.000Z</Time>
            <Position>
              <LatitudeDegrees>36.51572026312351226806640625</LatitudeDegrees>
              <LongitudeDegrees>-5.40958969853818416595458984375</LongitudeDegrees>
            </Position>
            <AltitudeMeters>249.8000030517578125</AltitudeMeters>
            <DistanceMeters>4785.5505554433</DistanceMeters>
          </Trackpoint>
          <Trackpoint>
            <Time>2019-01-04T10:20:18.000Z</Time>
            <Position>
              <LatitudeDegrees>36.51571816764771938323974609375</LatitudeDegrees>
              <LongitudeDegrees>-5.40957964025437831878662109375</LongitudeDegrees>
            </Position>
            <AltitudeMeters>250.1999969482421875</AltitudeMeters>
            <DistanceMeters>4786.4816232919</DistanceMeters>
          </Trackpoint>
          <Trackpoint>
            <Time>2019-01-04T10:20:19.000Z</Time>
            <Position>
              <LatitudeDegrees>36.51571548543870449066162109375</LatitudeDegrees>
              <LongitudeDegrees>-5.409572683274745941162109375</LongitudeDegrees>
            </Position>
            <AltitudeMeters>250.1999969482421875</AltitudeMeters>
            <DistanceMeters>4787.1799241783</DistanceMeters>
          </Trackpoint>
          <Trackpoint>
            <Time>2019-01-04T10:20:20.000Z</Time>
            <Position>
              <LatitudeDegrees>36.51571464724838733673095703125</LatitudeDegrees>
              <LongitudeDegrees>-5.4095555841922760009765625</LongitudeDegrees>
            </Position>
            <AltitudeMeters>250.399993896484375</AltitudeMeters>
            <DistanceMeters>4788.7121839067</DistanceMeters>
          </Trackpoint>
          <Trackpoint>
            <Time>2019-01-04T10:20:21.000Z</Time>
            <Position>
              <LatitudeDegrees>36.51571397669613361358642578125</LatitudeDegrees>
              <LongitudeDegrees>-5.409545861184597015380859375</LongitudeDegrees>
            </Position>
            <AltitudeMeters>250.8000030517578125</AltitudeMeters>
            <DistanceMeters>4789.58311813</DistanceMeters>
          </Trackpoint>
          <Trackpoint>
            <Time>2019-01-04T10:20:22.000Z</Time>
            <Position>
              <LatitudeDegrees>36.5157157368957996368408203125</LatitudeDegrees>
              <LongitudeDegrees>-5.409541167318820953369140625</LongitudeDegrees>
            </Position>
            <AltitudeMeters>251</AltitudeMeters>
            <DistanceMeters>4790.0486520543</DistanceMeters>
          </Trackpoint>
          <Trackpoint>
            <Time>2019-01-04T10:20:23.000Z</Time>
            <Position>
              <LatitudeDegrees>36.51571548543870449066162109375</LatitudeDegrees>
              <LongitudeDegrees>-5.40953706018626689910888671875</LongitudeDegrees>
            </Position>
            <AltitudeMeters>251.1999969482421875</AltitudeMeters>
            <DistanceMeters>4790.4287589118</DistanceMeters>
          </Trackpoint>
          <Trackpoint>
            <Time>2019-01-04T10:20:24.000Z</Time>
            <Position>
              <LatitudeDegrees>36.51571892201900482177734375</LatitudeDegrees>
              <LongitudeDegrees>-5.40953747928142547607421875</LongitudeDegrees>
            </Position>
            <AltitudeMeters>251.600006103515625</AltitudeMeters>
            <DistanceMeters>4790.8205640924</DistanceMeters>
          </Trackpoint>
          <Trackpoint>
            <Time>2019-01-04T10:20:25.000Z</Time>
            <Position>
              <LatitudeDegrees>36.5157291479408740997314453125</LatitudeDegrees>
              <LongitudeDegrees>-5.4095376469194889068603515625</LongitudeDegrees>
            </Position>
            <AltitudeMeters>252</AltitudeMeters>
            <DistanceMeters>4791.9608846648</DistanceMeters>
          </Trackpoint>
          <Trackpoint>
            <Time>2019-01-04T10:20:26.000Z</Time>
            <Position>
              <LatitudeDegrees>36.51574197225272655487060546875</LatitudeDegrees>
              <LongitudeDegrees>-5.4095369763672351837158203125</LongitudeDegrees>
            </Position>
            <AltitudeMeters>252.1999969482421875</AltitudeMeters>
            <DistanceMeters>4793.3894494258</DistanceMeters>
          </Trackpoint>
          <Trackpoint>
            <Time>2019-01-04T10:20:27.000Z</Time>
            <Position>
              <LatitudeDegrees>36.5157532878220081329345703125</LatitudeDegrees>
              <LongitudeDegrees>-5.4095386527478694915771484375</LongitudeDegrees>
            </Position>
            <AltitudeMeters>252.399993896484375</AltitudeMeters>
            <DistanceMeters>4794.6572639261</DistanceMeters>
          </Trackpoint>
          <Trackpoint>
            <Time>2019-01-04T10:20:28.000Z</Time>
            <Position>
              <LatitudeDegrees>36.51576183736324310302734375</LatitudeDegrees>
              <LongitudeDegrees>-5.40954016149044036865234375</LongitudeDegrees>
            </Position>
            <AltitudeMeters>252.399993896484375</AltitudeMeters>
            <DistanceMeters>4795.6169866971</DistanceMeters>
          </Trackpoint>
          <Trackpoint>
            <Time>2019-01-04T10:20:29.000Z</Time>
            <Position>
              <LatitudeDegrees>36.51576661504805088043212890625</LatitudeDegrees>
              <LongitudeDegrees>-5.40954175405204296112060546875</LongitudeDegrees>
            </Position>
            <AltitudeMeters>252.600006103515625</AltitudeMeters>
            <DistanceMeters>4796.1710828973</DistanceMeters>
          </Trackpoint>
          <Trackpoint>
            <Time>2019-01-04T10:20:30.000Z</Time>
            <Position>
              <LatitudeDegrees>36.51576996780931949615478515625</LatitudeDegrees>
              <LongitudeDegrees>-5.4095483757555484771728515625</LongitudeDegrees>
            </Position>
            <AltitudeMeters>252.600006103515625</AltitudeMeters>
            <DistanceMeters>4796.8821977129</DistanceMeters>
          </Trackpoint>
          <Trackpoint>
            <Time>2019-01-04T10:20:31.000Z</Time>
            <Position>
              <LatitudeDegrees>36.5157750807702541351318359375</LatitudeDegrees>
              <LongitudeDegrees>-5.4095530696213245391845703125</LongitudeDegrees>
            </Position>
            <AltitudeMeters>252.600006103515625</AltitudeMeters>
            <DistanceMeters>4797.5869346882</DistanceMeters>
          </Trackpoint>
          <Trackpoint>
            <Time>2019-01-04T10:20:32.000Z</Time>
            <Position>
              <LatitudeDegrees>36.51577952317893505096435546875</LatitudeDegrees>
              <LongitudeDegrees>-5.40956086479127407073974609375</LongitudeDegrees>
            </Position>
            <AltitudeMeters>252.600006103515625</AltitudeMeters>
            <DistanceMeters>4798.4474381852</DistanceMeters>
          </Trackpoint>
          <Trackpoint>
            <Time>2019-01-04T10:20:33.000Z</Time>
            <Position>
              <LatitudeDegrees>36.51578463613986968994140625</LatitudeDegrees>
              <LongitudeDegrees>-5.4095624573528766632080078125</LongitudeDegrees>
            </Position>
            <AltitudeMeters>252.600006103515625</AltitudeMeters>
            <DistanceMeters>4799.033222194</DistanceMeters>
          </Trackpoint>
          <Trackpoint>
            <Time>2019-01-04T10:20:34.000Z</Time>
            <Position>
              <LatitudeDegrees>36.51578622870147228240966796875</LatitudeDegrees>
              <LongitudeDegrees>-5.40957125835120677947998046875</LongitudeDegrees>
            </Position>
            <AltitudeMeters>252.600006103515625</AltitudeMeters>
            <DistanceMeters>4799.8339315217</DistanceMeters>
          </Trackpoint>
          <Trackpoint>
            <Time>2019-01-04T10:20:35.000Z</Time>
            <Position>
              <LatitudeDegrees>36.51578731834888458251953125</LatitudeDegrees>
              <LongitudeDegrees>-5.40956706739962100982666015625</LongitudeDegrees>
            </Position>
            <AltitudeMeters>252.600006103515625</AltitudeMeters>
            <DistanceMeters>4800.2370957264</DistanceMeters>
          </Trackpoint>
          <Trackpoint>
            <Time>2019-01-04T10:20:36.000Z</Time>
            <Position>
              <LatitudeDegrees>36.51578790508210659027099609375</LatitudeDegrees>
              <LongitudeDegrees>-5.4095634631812572479248046875</LongitudeDegrees>
            </Position>
            <AltitudeMeters>252.600006103515625</AltitudeMeters>
            <DistanceMeters>4800.5662779212</DistanceMeters>
          </Trackpoint>
          <Trackpoint>
            <Time>2019-01-04T10:20:37.000Z</Time>
            <Position>
              <LatitudeDegrees>36.51578941382467746734619140625</LatitudeDegrees>
              <LongitudeDegrees>-5.40956832468509674072265625</LongitudeDegrees>
            </Position>
            <AltitudeMeters>252.600006103515625</AltitudeMeters>
            <DistanceMeters>4801.0318118455</DistanceMeters>
          </Trackpoint>
          <Trackpoint>
            <Time>2019-01-04T10:20:38.000Z</Time>
            <Position>
              <LatitudeDegrees>36.51578840799629688262939453125</LatitudeDegrees>
              <LongitudeDegrees>-5.40956907905638217926025390625</LongitudeDegrees>
            </Position>
            <AltitudeMeters>252.8000030517578125</AltitudeMeters>
            <DistanceMeters>4801.1661999137</DistanceMeters>
          </Trackpoint>
          <Trackpoint>
            <Time>2019-01-04T10:20:39.000Z</Time>
            <Position>
              <LatitudeDegrees>36.51578907854855060577392578125</LatitudeDegrees>
              <LongitudeDegrees>-5.40956673212349414825439453125</LongitudeDegrees>
            </Position>
            <AltitudeMeters>252.8000030517578125</AltitudeMeters>
            <DistanceMeters>4801.3989668758</DistanceMeters>
          </Trackpoint>
          <Trackpoint>
            <Time>2019-01-04T10:20:40.000Z</Time>
            <Position>
              <LatitudeDegrees>36.51578907854855060577392578125</LatitudeDegrees>
              <LongitudeDegrees>-5.4095621220767498016357421875</LongitudeDegrees>
            </Position>
            <AltitudeMeters>252.8000030517578125</AltitudeMeters>
            <DistanceMeters>4801.8021310806</DistanceMeters>
          </Trackpoint>
          <Trackpoint>
            <Time>2019-01-04T10:20:41.000Z</Time>
            <Position>
              <LatitudeDegrees>36.515789665281772613525390625</LatitudeDegrees>
              <LongitudeDegrees>-5.4095601104199886322021484375</LongitudeDegrees>
            </Position>
            <AltitudeMeters>252.8000030517578125</AltitudeMeters>
            <DistanceMeters>4801.9921845093</DistanceMeters>
          </Trackpoint>
          <Trackpoint>
            <Time>2019-01-04T10:20:42.000Z</Time>
            <Position>
              <LatitudeDegrees>36.51579000055789947509765625</LatitudeDegrees>
              <LongitudeDegrees>-5.4095564223825931549072265625</LongitudeDegrees>
            </Position>
            <AltitudeMeters>252.8000030517578125</AltitudeMeters>
            <DistanceMeters>4802.3213667041</DistanceMeters>
          </Trackpoint>
          <Trackpoint>
            <Time>2019-01-04T10:20:43.000Z</Time>
            <Position>
              <LatitudeDegrees>36.51579125784337520599365234375</LatitudeDegrees>
              <LongitudeDegrees>-5.4095513932406902313232421875</LongitudeDegrees>
            </Position>
            <AltitudeMeters>253</AltitudeMeters>
            <DistanceMeters>4802.805909775</DistanceMeters>
          </Trackpoint>
          <Trackpoint>
            <Time>2019-01-04T10:20:44.000Z</Time>
            <Position>
              <LatitudeDegrees>36.5157911740243434906005859375</LatitudeDegrees>
              <LongitudeDegrees>-5.4095413349568843841552734375</LongitudeDegrees>
            </Position>
            <AltitudeMeters>253.1999969482421875</AltitudeMeters>
            <DistanceMeters>4803.7074123429</DistanceMeters>
          </Trackpoint>
          <Trackpoint>
            <Time>2019-01-04T10:20:45.000Z</Time>
            <Position>
              <LatitudeDegrees>36.51579343713819980621337890625</LatitudeDegrees>
              <LongitudeDegrees>-5.4095319472253322601318359375</LongitudeDegrees>
            </Position>
            <AltitudeMeters>253.399993896484375</AltitudeMeters>
            <DistanceMeters>4804.5835153606</DistanceMeters>
          </Trackpoint>
          <Trackpoint>
            <Time>2019-01-04T10:20:46.000Z</Time>
            <Position>
              <LatitudeDegrees>36.51579947210848331451416015625</LatitudeDegrees>
              <LongitudeDegrees>-5.4095208831131458282470703125</LongitudeDegrees>
            </Position>
            <AltitudeMeters>253.600006103515625</AltitudeMeters>
            <DistanceMeters>4805.7817566362</DistanceMeters>
          </Trackpoint>
          <Trackpoint>
            <Time>2019-01-04T10:20:47.000Z</Time>
            <Position>
              <LatitudeDegrees>36.51580366306006908416748046875</LatitudeDegrees>
              <LongitudeDegrees>-5.40951325558125972747802734375</LongitudeDegrees>
            </Position>
            <AltitudeMeters>253.8000030517578125</AltitudeMeters>
            <DistanceMeters>4806.610180326</DistanceMeters>
          </Trackpoint>
          <Trackpoint>
            <Time>2019-01-04T10:20:48.000Z</Time>
            <Position>
              <LatitudeDegrees>36.5158029086887836456298828125</LatitudeDegrees>
              <LongitudeDegrees>-5.40950738824903964996337890625</LongitudeDegrees>
            </Position>
            <AltitudeMeters>254.1999969482421875</AltitudeMeters>
            <DistanceMeters>4807.1306630763</DistanceMeters>
          </Trackpoint>
          <Trackpoint>
            <Time>2019-01-04T10:20:49.000Z</Time>
            <Position>
              <LatitudeDegrees>36.5158025734126567840576171875</LatitudeDegrees>
              <LongitudeDegrees>-5.40950135327875614166259765625</LongitudeDegrees>
            </Position>
            <AltitudeMeters>254.399993896484375</AltitudeMeters>
            <DistanceMeters>4807.6682153493</DistanceMeters>
          </Trackpoint>
          <Trackpoint>
            <Time>2019-01-04T10:20:50.000Z</Time>
            <Position>
              <LatitudeDegrees>36.5158055908977985382080078125</LatitudeDegrees>
              <LongitudeDegrees>-5.409494228661060333251953125</LongitudeDegrees>
            </Position>
            <AltitudeMeters>254.600006103515625</AltitudeMeters>
            <DistanceMeters>4808.3856513097</DistanceMeters>
          </Trackpoint>
          <Trackpoint>
            <Time>2019-01-04T10:20:51.000Z</Time>
            <Position>
              <LatitudeDegrees>36.51580743491649627685546875</LatitudeDegrees>
              <LongitudeDegrees>-5.40948408655822277069091796875</LongitudeDegrees>
            </Position>
            <AltitudeMeters>254.8000030517578125</AltitudeMeters>
            <DistanceMeters>4809.3167191582</DistanceMeters>
          </Trackpoint>
          <Trackpoint>
            <Time>2019-01-04T10:20:52.000Z</Time>
            <Position>
              <LatitudeDegrees>36.51580902747809886932373046875</LatitudeDegrees>
              <LongitudeDegrees>-5.40947587229311466217041015625</LongitudeDegrees>
            </Position>
            <AltitudeMeters>255</AltitudeMeters>
            <DistanceMeters>4810.0769328732</DistanceMeters>
          </Trackpoint>
          <Trackpoint>
            <Time>2019-01-04T10:20:53.000Z</Time>
            <Position>
              <LatitudeDegrees>36.51581271551549434661865234375</LatitudeDegrees>
              <LongitudeDegrees>-5.40946640074253082275390625</LongitudeDegrees>
            </Position>
            <AltitudeMeters>255</AltitudeMeters>
            <DistanceMeters>4811.0176493509</DistanceMeters>
          </Trackpoint>
          <Trackpoint>
            <Time>2019-01-04T10:20:54.000Z</Time>
            <Position>
              <LatitudeDegrees>36.51581003330647945404052734375</LatitudeDegrees>
              <LongitudeDegrees>-5.409462712705135345458984375</LongitudeDegrees>
            </Position>
            <AltitudeMeters>255.1999969482421875</AltitudeMeters>
            <DistanceMeters>4811.4633641496</DistanceMeters>
          </Trackpoint>
          <Trackpoint>
            <Time>2019-01-04T10:20:55.000Z</Time>
            <Position>
              <LatitudeDegrees>36.51580332778394222259521484375</LatitudeDegrees>
              <LongitudeDegrees>-5.40945910848677158355712890625</LongitudeDegrees>
            </Position>
            <AltitudeMeters>255.399993896484375</AltitudeMeters>
            <DistanceMeters>4812.2752727531</DistanceMeters>
          </Trackpoint>
          <Trackpoint>
            <Time>2019-01-04T10:20:56.000Z</Time>
            <Position>
              <LatitudeDegrees>36.5157988853752613067626953125</LatitudeDegrees>
              <LongitudeDegrees>-5.40945759974420070648193359375</LongitudeDegrees>
            </Position>
            <AltitudeMeters>255.600006103515625</AltitudeMeters>
            <DistanceMeters>4812.7957555034</DistanceMeters>
          </Trackpoint>
          <Trackpoint>
            <Time>2019-01-04T10:20:57.000Z</Time>
            <Position>
              <LatitudeDegrees>36.51579243130981922149658203125</LatitudeDegrees>
              <LongitudeDegrees>-5.40945860557258129119873046875</LongitudeDegrees>
            </Position>
            <AltitudeMeters>256</AltitudeMeters>
            <DistanceMeters>4813.519457399</DistanceMeters>
          </Trackpoint>
          <Trackpoint>
            <Time>2019-01-04T10:20:58.000Z</Time>
            <Position>
              <LatitudeDegrees>36.5157824568450450897216796875</LatitudeDegrees>
              <LongitudeDegrees>-5.409460701048374176025390625</LongitudeDegrees>
            </Position>
            <AltitudeMeters>256.20001220703125</AltitudeMeters>
            <DistanceMeters>4814.6438286465</DistanceMeters>
          </Trackpoint>
          <Trackpoint>
            <Time>2019-01-04T10:20:59.000Z</Time>
            <Position>
              <LatitudeDegrees>36.51577390730381011962890625</LatitudeDegrees>
              <LongitudeDegrees>-5.40946061722934246063232421875</LongitudeDegrees>
            </Position>
            <AltitudeMeters>256.600006103515625</AltitudeMeters>
            <DistanceMeters>4815.5988353066</DistanceMeters>
          </Trackpoint>
          <Trackpoint>
            <Time>2019-01-04T10:21:00.000Z</Time>
            <Position>
              <LatitudeDegrees>36.5157677046954631805419921875</LatitudeDegrees>
              <LongitudeDegrees>-5.4094598628580570220947265625</LongitudeDegrees>
            </Position>
            <AltitudeMeters>256.79998779296875</AltitudeMeters>
            <DistanceMeters>4816.297136193</DistanceMeters>
          </Trackpoint>
          <Trackpoint>
            <Time>2019-01-04T10:21:01.000Z</Time>
            <Position>
              <LatitudeDegrees>36.51576058007776737213134765625</LatitudeDegrees>
              <LongitudeDegrees>-5.40945759974420070648193359375</LongitudeDegrees>
            </Position>
            <AltitudeMeters>257</AltitudeMeters>
            <DistanceMeters>4817.1145868991</DistanceMeters>
          </Trackpoint>
          <Trackpoint>
            <Time>2019-01-04T10:21:02.000Z</Time>
            <Position>
              <LatitudeDegrees>36.5157549642026424407958984375</LatitudeDegrees>
              <LongitudeDegrees>-5.40945625863969326019287109375</LongitudeDegrees>
            </Position>
            <AltitudeMeters>257.20001220703125</AltitudeMeters>
            <DistanceMeters>4817.7449228123</DistanceMeters>
          </Trackpoint>
          <Trackpoint>
            <Time>2019-01-04T10:21:03.000Z</Time>
            <Position>
              <LatitudeDegrees>36.515747420489788055419921875</LatitudeDegrees>
              <LongitudeDegrees>-5.40944653563201427459716796875</LongitudeDegrees>
            </Position>
            <AltitudeMeters>257.399993896484375</AltitudeMeters>
            <DistanceMeters>4818.9544154266</DistanceMeters>
          </Trackpoint>
          <Trackpoint>
            <Time>2019-01-04T10:21:04.000Z</Time>
            <Position>
              <LatitudeDegrees>36.5157435648143291473388671875</LatitudeDegrees>
              <LongitudeDegrees>-5.40944318287074565887451171875</LongitudeDegrees>
            </Position>
            <AltitudeMeters>257.600006103515625</AltitudeMeters>
            <DistanceMeters>4819.4748981768</DistanceMeters>
          </Trackpoint>
          <Trackpoint>
            <Time>2019-01-04T10:21:05.000Z</Time>
            <Position>
              <LatitudeDegrees>36.51573828421533107757568359375</LatitudeDegrees>
              <LongitudeDegrees>-5.409444607794284820556640625</LongitudeDegrees>
            </Position>
            <AltitudeMeters>258</AltitudeMeters>
            <DistanceMeters>4820.0833660348</DistanceMeters>
          </Trackpoint>
          <Trackpoint>
            <Time>2019-01-04T10:21:06.000Z</Time>
            <Position>
              <LatitudeDegrees>36.51573635637760162353515625</LatitudeDegrees>
              <LongitudeDegrees>-5.409438572824001312255859375</LongitudeDegrees>
            </Position>
            <AltitudeMeters>258.20001220703125</AltitudeMeters>
            <DistanceMeters>4820.653526321</DistanceMeters>
          </Trackpoint>
          <Trackpoint>
            <Time>2019-01-04T10:21:07.000Z</Time>
            <Position>
              <LatitudeDegrees>36.51573526673018932342529296875</LatitudeDegrees>
              <LongitudeDegrees>-5.40942482650279998779296875</LongitudeDegrees>
            </Position>
            <AltitudeMeters>258.600006103515625</AltitudeMeters>
            <DistanceMeters>4821.8852133115</DistanceMeters>
          </Trackpoint>
          <Trackpoint>
            <Time>2019-01-04T10:21:08.000Z</Time>
            <Position>
              <LatitudeDegrees>36.51572965085506439208984375</LatitudeDegrees>
              <LongitudeDegrees>-5.4094159416854381561279296875</LongitudeDegrees>
            </Position>
            <AltitudeMeters>258.79998779296875</AltitudeMeters>
            <DistanceMeters>4822.8953611414</DistanceMeters>
          </Trackpoint>
          <Trackpoint>
            <Time>2019-01-04T10:21:09.000Z</Time>
            <Position>
              <LatitudeDegrees>36.51572420261800289154052734375</LatitudeDegrees>
              <LongitudeDegrees>-5.4094115830957889556884765625</LongitudeDegrees>
            </Position>
            <AltitudeMeters>259.20001220703125</AltitudeMeters>
            <DistanceMeters>4823.6127971018</DistanceMeters>
          </Trackpoint>
          <Trackpoint>
            <Time>2019-01-04T10:21:10.000Z</Time>
            <Position>
              <LatitudeDegrees>36.51571699418127536773681640625</LatitudeDegrees>
              <LongitudeDegrees>-5.409409739077091217041015625</LongitudeDegrees>
            </Position>
            <AltitudeMeters>259.399993896484375</AltitudeMeters>
            <DistanceMeters>4824.4302478079</DistanceMeters>
          </Trackpoint>
          <Trackpoint>
            <Time>2019-01-04T10:21:11.000Z</Time>
            <Position>
              <LatitudeDegrees>36.51570911519229412078857421875</LatitudeDegrees>
              <LongitudeDegrees>-5.409413091838359832763671875</LongitudeDegrees>
            </Position>
            <AltitudeMeters>259.600006103515625</AltitudeMeters>
            <DistanceMeters>4825.3613156565</DistanceMeters>
          </Trackpoint>
          <Trackpoint>
            <Time>2019-01-04T10:21:12.000Z</Time>
            <Position>
              <LatitudeDegrees>36.515705846250057220458984375</LatitudeDegrees>
              <LongitudeDegrees>-5.4094132594764232635498046875</LongitudeDegrees>
            </Position>
            <AltitudeMeters>260</AltitudeMeters>
            <DistanceMeters>4825.7414225139</DistanceMeters>
          </Trackpoint>
          <Trackpoint>
            <Time>2019-01-04T10:21:13.000Z</Time>
            <Position>
              <LatitudeDegrees>36.51570978574454784393310546875</LatitudeDegrees>
              <LongitudeDegrees>-5.4094062186777591705322265625</LongitudeDegrees>
            </Position>
            <AltitudeMeters>260.399993896484375</AltitudeMeters>
            <DistanceMeters>4826.5134231909</DistanceMeters>
          </Trackpoint>
          <Trackpoint>
            <Time>2019-01-04T10:21:14.000Z</Time>
            <Position>
              <LatitudeDegrees>36.51570618152618408203125</LatitudeDegrees>
              <LongitudeDegrees>-5.409403704106807708740234375</LongitudeDegrees>
            </Position>
            <AltitudeMeters>260.79998779296875</AltitudeMeters>
            <DistanceMeters>4826.9789571152</DistanceMeters>
          </Trackpoint>
          <Trackpoint>
            <Time>2019-01-04T10:21:15.000Z</Time>
            <Position>
              <LatitudeDegrees>36.51570123620331287384033203125</LatitudeDegrees>
              <LongitudeDegrees>-5.4094028659164905548095703125</LongitudeDegrees>
            </Position>
            <AltitudeMeters>261</AltitudeMeters>
            <DistanceMeters>4827.5330533154</DistanceMeters>
          </Trackpoint>
          <Trackpoint>
            <Time>2019-01-04T10:21:16.000Z</Time>
            <Position>
              <LatitudeDegrees>36.51570039801299571990966796875</LatitudeDegrees>
              <LongitudeDegrees>-5.409401021897792816162109375</LongitudeDegrees>
            </Position>
            <AltitudeMeters>261.20001220703125</AltitudeMeters>
            <DistanceMeters>4827.7231067442</DistanceMeters>
          </Trackpoint>
          <Trackpoint>
            <Time>2019-01-04T10:21:17.000Z</Time>
            <Position>
              <LatitudeDegrees>36.51570123620331287384033203125</LatitudeDegrees>
              <LongitudeDegrees>-5.409397669136524200439453125</LongitudeDegrees>
            </Position>
            <AltitudeMeters>261.399993896484375</AltitudeMeters>
            <DistanceMeters>4828.0236076001</DistanceMeters>
          </Trackpoint>
          <Trackpoint>
            <Time>2019-01-04T10:21:18.000Z</Time>
            <Position>
              <LatitudeDegrees>36.51570643298327922821044921875</LatitudeDegrees>
              <LongitudeDegrees>-5.40939171798527240753173828125</LongitudeDegrees>
            </Position>
            <AltitudeMeters>261.600006103515625</AltitudeMeters>
            <DistanceMeters>4828.8186581338</DistanceMeters>
          </Trackpoint>
          <Trackpoint>
            <Time>2019-01-04T10:21:19.000Z</Time>
            <Position>
              <LatitudeDegrees>36.51570978574454784393310546875</LatitudeDegrees>
              <LongitudeDegrees>-5.4093839228153228759765625</LongitudeDegrees>
            </Position>
            <AltitudeMeters>262</AltitudeMeters>
            <DistanceMeters>4829.6137086675</DistanceMeters>
          </Trackpoint>
          <Trackpoint>
            <Time>2019-01-04T10:21:20.000Z</Time>
            <Position>
              <LatitudeDegrees>36.51570819318294525146484375</LatitudeDegrees>
              <LongitudeDegrees>-5.40937629528343677520751953125</LongitudeDegrees>
            </Position>
            <AltitudeMeters>262.399993896484375</AltitudeMeters>
            <DistanceMeters>4830.324823483</DistanceMeters>
          </Trackpoint>
          <Trackpoint>
            <Time>2019-01-04T10:21:21.000Z</Time>
            <Position>
              <LatitudeDegrees>36.51570743881165981292724609375</LatitudeDegrees>
              <LongitudeDegrees>-5.40937009267508983612060546875</LongitudeDegrees>
            </Position>
            <AltitudeMeters>262.79998779296875</AltitudeMeters>
            <DistanceMeters>4830.8789196832</DistanceMeters>
          </Trackpoint>
          <Trackpoint>
            <Time>2019-01-04T10:21:22.000Z</Time>
            <Position>
              <LatitudeDegrees>36.51571129448711872100830078125</LatitudeDegrees>
              <LongitudeDegrees>-5.40936389006674289703369140625</LongitudeDegrees>
            </Position>
            <AltitudeMeters>263</AltitudeMeters>
            <DistanceMeters>4831.5772205696</DistanceMeters>
          </Trackpoint>
          <Trackpoint>
            <Time>2019-01-04T10:21:23.000Z</Time>
            <Position>
              <LatitudeDegrees>36.5157140605151653289794921875</LatitudeDegrees>
              <LongitudeDegrees>-5.40935466997325420379638671875</LongitudeDegrees>
            </Position>
            <AltitudeMeters>263.20001220703125</AltitudeMeters>
            <DistanceMeters>4832.4584620656</DistanceMeters>
          </Trackpoint>
          <Trackpoint>
            <Time>2019-01-04T10:21:24.000Z</Time>
            <Position>
              <LatitudeDegrees>36.5157140605151653289794921875</LatitudeDegrees>
              <LongitudeDegrees>-5.40934042073786258697509765625</LongitudeDegrees>
            </Position>
            <AltitudeMeters>263.600006103515625</AltitudeMeters>
            <DistanceMeters>4833.7333792236</DistanceMeters>
          </Trackpoint>
          <Trackpoint>
            <Time>2019-01-04T10:21:25.000Z</Time>
            <Position>
              <LatitudeDegrees>36.5157155692577362060546875</LatitudeDegrees>
              <LongitudeDegrees>-5.40932734496891498565673828125</LongitudeDegrees>
            </Position>
            <AltitudeMeters>264</AltitudeMeters>
            <DistanceMeters>4834.9164522767</DistanceMeters>
          </Trackpoint>
          <Trackpoint>
            <Time>2019-01-04T10:21:26.000Z</Time>
            <Position>
              <LatitudeDegrees>36.51571263559162616729736328125</LatitudeDegrees>
              <LongitudeDegrees>-5.40931812487542629241943359375</LongitudeDegrees>
            </Position>
            <AltitudeMeters>264.399993896484375</AltitudeMeters>
            <DistanceMeters>4835.807881874</DistanceMeters>
          </Trackpoint>
          <Trackpoint>
            <Time>2019-01-04T10:21:27.000Z</Time>
            <Position>
              <LatitudeDegrees>36.515712551772594451904296875</LatitudeDegrees>
              <LongitudeDegrees>-5.40931276045739650726318359375</LongitudeDegrees>
            </Position>
            <AltitudeMeters>264.79998779296875</AltitudeMeters>
            <DistanceMeters>4836.2924249449</DistanceMeters>
          </Trackpoint>
          <Trackpoint>
            <Time>2019-01-04T10:21:28.000Z</Time>
            <Position>
              <LatitudeDegrees>36.51571079157292842864990234375</LatitudeDegrees>
              <LongitudeDegrees>-5.409309156239032745361328125</LongitudeDegrees>
            </Position>
            <AltitudeMeters>265</AltitudeMeters>
            <DistanceMeters>4836.6725318024</DistanceMeters>
          </Trackpoint>
          <Trackpoint>
            <Time>2019-01-04T10:21:29.000Z</Time>
            <Position>
              <LatitudeDegrees>36.51571196503937244415283203125</LatitudeDegrees>
              <LongitudeDegrees>-5.4093026183545589447021484375</LongitudeDegrees>
            </Position>
            <AltitudeMeters>265.399993896484375</AltitudeMeters>
            <DistanceMeters>4837.2735335144</DistanceMeters>
          </Trackpoint>
          <Trackpoint>
            <Time>2019-01-04T10:21:30.000Z</Time>
            <Position>
              <LatitudeDegrees>36.51571598835289478302001953125</LatitudeDegrees>
              <LongitudeDegrees>-5.4092922247946262359619140625</LongitudeDegrees>
            </Position>
            <AltitudeMeters>265.399993896484375</AltitudeMeters>
            <DistanceMeters>4838.3057878534</DistanceMeters>
          </Trackpoint>
          <Trackpoint>
            <Time>2019-01-04T10:21:31.000Z</Time>
            <Position>
              <LatitudeDegrees>36.5157177485525608062744140625</LatitudeDegrees>
              <LongitudeDegrees>-5.40928895585238933563232421875</LongitudeDegrees>
            </Position>
            <AltitudeMeters>265.600006103515625</AltitudeMeters>
            <DistanceMeters>4838.6613452611</DistanceMeters>
          </Trackpoint>
          <Trackpoint>
            <Time>2019-01-04T10:21:32.000Z</Time>
            <Position>
              <LatitudeDegrees>36.51572353206574916839599609375</LatitudeDegrees>
              <LongitudeDegrees>-5.4092892073094844818115234375</LongitudeDegrees>
            </Position>
            <AltitudeMeters>265.600006103515625</AltitudeMeters>
            <DistanceMeters>4839.3058477952</DistanceMeters>
          </Trackpoint>
          <Trackpoint>
            <Time>2019-01-04T10:21:33.000Z</Time>
            <Position>
              <LatitudeDegrees>36.51572772301733493804931640625</LatitudeDegrees>
              <LongitudeDegrees>-5.409289710223674774169921875</LongitudeDegrees>
            </Position>
            <AltitudeMeters>266</AltitudeMeters>
            <DistanceMeters>4839.7713817195</DistanceMeters>
          </Trackpoint>
          <Trackpoint>
            <Time>2019-01-04T10:21:34.000Z</Time>
            <Position>
              <LatitudeDegrees>36.51573233306407928466796875</LatitudeDegrees>
              <LongitudeDegrees>-5.40928744710981845855712890625</LongitudeDegrees>
            </Position>
            <AltitudeMeters>266.399993896484375</AltitudeMeters>
            <DistanceMeters>4840.3254779197</DistanceMeters>
          </Trackpoint>
          <Trackpoint>
            <Time>2019-01-04T10:21:35.000Z</Time>
            <Position>
              <LatitudeDegrees>36.51572965085506439208984375</LatitudeDegrees>
              <LongitudeDegrees>-5.40927923284471035003662109375</LongitudeDegrees>
            </Position>
            <AltitudeMeters>266.600006103515625</AltitudeMeters>
            <DistanceMeters>4841.1148290929</DistanceMeters>
          </Trackpoint>
          <Trackpoint>
            <Time>2019-01-04T10:21:36.000Z</Time>
            <Position>
              <LatitudeDegrees>36.5157261304557323455810546875</LatitudeDegrees>
              <LongitudeDegrees>-5.40927185676991939544677734375</LongitudeDegrees>
            </Position>
            <AltitudeMeters>266.79998779296875</AltitudeMeters>
            <DistanceMeters>4841.8750428078</DistanceMeters>
          </Trackpoint>
          <Trackpoint>
            <Time>2019-01-04T10:21:37.000Z</Time>
            <Position>
              <LatitudeDegrees>36.5157204307615756988525390625</LatitudeDegrees>
              <LongitudeDegrees>-5.40926381014287471771240234375</LongitudeDegrees>
            </Position>
            <AltitudeMeters>267</AltitudeMeters>
            <DistanceMeters>4842.8253099515</DistanceMeters>
          </Trackpoint>
          <Trackpoint>
            <Time>2019-01-04T10:21:38.000Z</Time>
            <Position>
              <LatitudeDegrees>36.51571464724838733673095703125</LatitudeDegrees>
              <LongitudeDegrees>-5.40925827808678150177001953125</LongitudeDegrees>
            </Position>
            <AltitudeMeters>267</AltitudeMeters>
            <DistanceMeters>4843.631638361</DistanceMeters>
          </Trackpoint>
          <Trackpoint>
            <Time>2019-01-04T10:21:39.000Z</Time>
            <Position>
              <LatitudeDegrees>36.515709199011325836181640625</LatitudeDegrees>
              <LongitudeDegrees>-5.4092469625174999237060546875</LongitudeDegrees>
            </Position>
            <AltitudeMeters>267.20001220703125</AltitudeMeters>
            <DistanceMeters>4844.8147114141</DistanceMeters>
          </Trackpoint>
          <Trackpoint>
            <Time>2019-01-04T10:21:40.000Z</Time>
            <Position>
              <LatitudeDegrees>36.5157033316791057586669921875</LatitudeDegrees>
              <LongitudeDegrees>-5.4092392511665821075439453125</LongitudeDegrees>
            </Position>
            <AltitudeMeters>267.399993896484375</AltitudeMeters>
            <DistanceMeters>4845.7649785578</DistanceMeters>
          </Trackpoint>
          <Trackpoint>
            <Time>2019-01-04T10:21:41.000Z</Time>
            <Position>
              <LatitudeDegrees>36.51569553650915622711181640625</LatitudeDegrees>
              <LongitudeDegrees>-5.409229695796966552734375</LongitudeDegrees>
            </Position>
            <AltitudeMeters>267.600006103515625</AltitudeMeters>
            <DistanceMeters>4846.9893121274</DistanceMeters>
          </Trackpoint>
          <Trackpoint>
            <Time>2019-01-04T10:21:42.000Z</Time>
            <Position>
              <LatitudeDegrees>36.51568648405373096466064453125</LatitudeDegrees>
              <LongitudeDegrees>-5.40921921841800212860107421875</LongitudeDegrees>
            </Position>
            <AltitudeMeters>267.79998779296875</AltitudeMeters>
            <DistanceMeters>4848.3696548854</DistanceMeters>
          </Trackpoint>
          <Trackpoint>
            <Time>2019-01-04T10:21:43.000Z</Time>
            <Position>
              <LatitudeDegrees>36.5156788565218448638916015625</LatitudeDegrees>
              <LongitudeDegrees>-5.4092104174196720123291015625</LongitudeDegrees>
            </Position>
            <AltitudeMeters>268.20001220703125</AltitudeMeters>
            <DistanceMeters>4849.5257047605</DistanceMeters>
          </Trackpoint>
          <Trackpoint>
            <Time>2019-01-04T10:21:44.000Z</Time>
            <Position>
              <LatitudeDegrees>36.5156704746186733245849609375</LatitudeDegrees>
              <LongitudeDegrees>-5.40920463390648365020751953125</LongitudeDegrees>
            </Position>
            <AltitudeMeters>268.399993896484375</AltitudeMeters>
            <DistanceMeters>4850.5923769838</DistanceMeters>
          </Trackpoint>
          <Trackpoint>
            <Time>2019-01-04T10:21:45.000Z</Time>
            <Position>
              <LatitudeDegrees>36.51566418819129467010498046875</LatitudeDegrees>
              <LongitudeDegrees>-5.4091996885836124420166015625</LongitudeDegrees>
            </Position>
            <AltitudeMeters>268.399993896484375</AltitudeMeters>
            <DistanceMeters>4851.4208006736</DistanceMeters>
          </Trackpoint>
          <Trackpoint>
            <Time>2019-01-04T10:21:46.000Z</Time>
            <Position>
              <LatitudeDegrees>36.51566217653453350067138671875</LatitudeDegrees>
              <LongitudeDegrees>-5.40918870829045772552490234375</LongitudeDegrees>
            </Position>
            <AltitudeMeters>268.399993896484375</AltitudeMeters>
            <DistanceMeters>4852.4264688901</DistanceMeters>
          </Trackpoint>
          <Trackpoint>
            <Time>2019-01-04T10:21:47.000Z</Time>
            <Position>
              <LatitudeDegrees>36.515657566487789154052734375</LatitudeDegrees>
              <LongitudeDegrees>-5.4091773927211761474609375</LongitudeDegrees>
            </Position>
            <AltitudeMeters>268.79998779296875</AltitudeMeters>
            <DistanceMeters>4853.5588428809</DistanceMeters>
          </Trackpoint>
          <Trackpoint>
            <Time>2019-01-04T10:21:48.000Z</Time>
            <Position>
              <LatitudeDegrees>36.51564859785139560699462890625</LatitudeDegrees>
              <LongitudeDegrees>-5.4091711901128292083740234375</LongitudeDegrees>
            </Position>
            <AltitudeMeters>269</AltitudeMeters>
            <DistanceMeters>4854.6991634533</DistanceMeters>
          </Trackpoint>
          <Trackpoint>
            <Time>2019-01-04T10:21:49.000Z</Time>
            <Position>
              <LatitudeDegrees>36.5156433172523975372314453125</LatitudeDegrees>
              <LongitudeDegrees>-5.4091671667993068695068359375</LongitudeDegrees>
            </Position>
            <AltitudeMeters>269.399993896484375</AltitudeMeters>
            <DistanceMeters>4855.3844108357</DistanceMeters>
          </Trackpoint>
          <Trackpoint>
            <Time>2019-01-04T10:21:50.000Z</Time>
            <Position>
              <LatitudeDegrees>36.5156433172523975372314453125</LatitudeDegrees>
              <LongitudeDegrees>-5.40916171856224536895751953125</LongitudeDegrees>
            </Position>
            <AltitudeMeters>269.79998779296875</AltitudeMeters>
            <DistanceMeters>4855.8689539066</DistanceMeters>
          </Trackpoint>
          <Trackpoint>
            <Time>2019-01-04T10:21:51.000Z</Time>
            <Position>
              <LatitudeDegrees>36.51564122177660465240478515625</LatitudeDegrees>
              <LongitudeDegrees>-5.40915719233453273773193359375</LongitudeDegrees>
            </Position>
            <AltitudeMeters>270.20001220703125</AltitudeMeters>
            <DistanceMeters>4856.3344878309</DistanceMeters>
          </Trackpoint>
          <Trackpoint>
            <Time>2019-01-04T10:21:52.000Z</Time>
            <Position>
              <LatitudeDegrees>36.51563711464405059814453125</LatitudeDegrees>
              <LongitudeDegrees>-5.409154593944549560546875</LongitudeDegrees>
            </Position>
            <AltitudeMeters>270.600006103515625</AltitudeMeters>
            <DistanceMeters>4856.8462223489</DistanceMeters>
          </Trackpoint>
          <Trackpoint>
            <Time>2019-01-04T10:21:53.000Z</Time>
            <Position>
              <LatitudeDegrees>36.5156369470059871673583984375</LatitudeDegrees>
              <LongitudeDegrees>-5.40915501303970813751220703125</LongitudeDegrees>
            </Position>
            <AltitudeMeters>271</AltitudeMeters>
            <DistanceMeters>4856.8462223489</DistanceMeters>
          </Trackpoint>
          <Trackpoint>
            <Time>2019-01-04T10:21:54.000Z</Time>
            <Position>
              <LatitudeDegrees>36.5156419761478900909423828125</LatitudeDegrees>
              <LongitudeDegrees>-5.40914596058428287506103515625</LongitudeDegrees>
            </Position>
            <AltitudeMeters>271.399993896484375</AltitudeMeters>
            <DistanceMeters>4857.8291863256</DistanceMeters>
          </Trackpoint>
          <Trackpoint>
            <Time>2019-01-04T10:21:55.000Z</Time>
            <Position>
              <LatitudeDegrees>36.51564239524304866790771484375</LatitudeDegrees>
              <LongitudeDegrees>-5.4091363213956356048583984375</LongitudeDegrees>
            </Position>
            <AltitudeMeters>271.600006103515625</AltitudeMeters>
            <DistanceMeters>4858.6896898226</DistanceMeters>
          </Trackpoint>
          <Trackpoint>
            <Time>2019-01-04T10:21:56.000Z</Time>
            <Position>
              <LatitudeDegrees>36.51563753373920917510986328125</LatitudeDegrees>
              <LongitudeDegrees>-5.4091317951679229736328125</LongitudeDegrees>
            </Position>
            <AltitudeMeters>271.79998779296875</AltitudeMeters>
            <DistanceMeters>4859.3616301638</DistanceMeters>
          </Trackpoint>
          <Trackpoint>
            <Time>2019-01-04T10:21:57.000Z</Time>
            <Position>
              <LatitudeDegrees>36.5156342647969722747802734375</LatitudeDegrees>
              <LongitudeDegrees>-5.40912701748311519622802734375</LongitudeDegrees>
            </Position>
            <AltitudeMeters>272</AltitudeMeters>
            <DistanceMeters>4859.9157263641</DistanceMeters>
          </Trackpoint>
          <Trackpoint>
            <Time>2019-01-04T10:21:58.000Z</Time>
            <Position>
              <LatitudeDegrees>36.51563870720565319061279296875</LatitudeDegrees>
              <LongitudeDegrees>-5.4091210663318634033203125</LongitudeDegrees>
            </Position>
            <AltitudeMeters>272.20001220703125</AltitudeMeters>
            <DistanceMeters>4860.6456404071</DistanceMeters>
          </Trackpoint>
          <Trackpoint>
            <Time>2019-01-04T10:21:59.000Z</Time>
            <Position>
              <LatitudeDegrees>36.51564507745206356048583984375</LatitudeDegrees>
              <LongitudeDegrees>-5.40911972522735595703125</LongitudeDegrees>
            </Position>
            <AltitudeMeters>272.600006103515625</AltitudeMeters>
            <DistanceMeters>4861.3567552226</DistanceMeters>
          </Trackpoint>
          <Trackpoint>
            <Time>2019-01-04T10:22:00.000Z</Time>
            <Position>
              <LatitudeDegrees>36.5156520344316959381103515625</LatitudeDegrees>
              <LongitudeDegrees>-5.40911528281867504119873046875</LongitudeDegrees>
            </Position>
            <AltitudeMeters>273</AltitudeMeters>
            <DistanceMeters>4862.2224897921</DistanceMeters>
          </Trackpoint>
          <Trackpoint>
            <Time>2019-01-04T10:22:01.000Z</Time>
            <Position>
              <LatitudeDegrees>36.51565915904939174652099609375</LatitudeDegrees>
              <LongitudeDegrees>-5.40911494754254817962646484375</LongitudeDegrees>
            </Position>
            <AltitudeMeters>273.20001220703125</AltitudeMeters>
            <DistanceMeters>4863.0175403258</DistanceMeters>
          </Trackpoint>
          <Trackpoint>
            <Time>2019-01-04T10:22:02.000Z</Time>
            <Position>
              <LatitudeDegrees>36.51566569693386554718017578125</LatitudeDegrees>
              <LongitudeDegrees>-5.40911662392318248748779296875</LongitudeDegrees>
            </Position>
            <AltitudeMeters>273.399993896484375</AltitudeMeters>
            <DistanceMeters>4863.7597226909</DistanceMeters>
          </Trackpoint>
          <Trackpoint>
            <Time>2019-01-04T10:22:03.000Z</Time>
            <Position>
              <LatitudeDegrees>36.51567357592284679412841796875</LatitudeDegrees>
              <LongitudeDegrees>-5.40911779738962650299072265625</LongitudeDegrees>
            </Position>
            <AltitudeMeters>273.600006103515625</AltitudeMeters>
            <DistanceMeters>4864.6409641868</DistanceMeters>
          </Trackpoint>
          <Trackpoint>
            <Time>2019-01-04T10:22:04.000Z</Time>
            <Position>
              <LatitudeDegrees>36.5156858973205089569091796875</LatitudeDegrees>
              <LongitudeDegrees>-5.40911905467510223388671875</LongitudeDegrees>
            </Position>
            <AltitudeMeters>273.600006103515625</AltitudeMeters>
            <DistanceMeters>4866.0180321057</DistanceMeters>
          </Trackpoint>
          <Trackpoint>
            <Time>2019-01-04T10:22:05.000Z</Time>
            <Position>
              <LatitudeDegrees>36.5156983025372028350830078125</LatitudeDegrees>
              <LongitudeDegrees>-5.40912064723670482635498046875</LongitudeDegrees>
            </Position>
            <AltitudeMeters>273.600006103515625</AltitudeMeters>
            <DistanceMeters>4867.4049013435</DistanceMeters>
          </Trackpoint>
          <Trackpoint>
            <Time>2019-01-04T10:22:06.000Z</Time>
            <Position>
              <LatitudeDegrees>36.51570593006908893585205078125</LatitudeDegrees>
              <LongitudeDegrees>-5.4091237485408782958984375</LongitudeDegrees>
            </Position>
            <AltitudeMeters>273.600006103515625</AltitudeMeters>
            <DistanceMeters>4868.2963309408</DistanceMeters>
          </Trackpoint>
          <Trackpoint>
            <Time>2019-01-04T10:22:07.000Z</Time>
            <Position>
              <LatitudeDegrees>36.51571934111416339874267578125</LatitudeDegrees>
              <LongitudeDegrees>-5.4091326333582401275634765625</LongitudeDegrees>
            </Position>
            <AltitudeMeters>273.20001220703125</AltitudeMeters>
            <DistanceMeters>4869.9909000038</DistanceMeters>
          </Trackpoint>
          <Trackpoint>
            <Time>2019-01-04T10:22:08.000Z</Time>
            <Position>
              <LatitudeDegrees>36.5157338418066501617431640625</LatitudeDegrees>
              <LongitudeDegrees>-5.4091393388807773590087890625</LongitudeDegrees>
            </Position>
            <AltitudeMeters>273</AltitudeMeters>
            <DistanceMeters>4871.7145284876</DistanceMeters>
          </Trackpoint>
          <Trackpoint>
            <Time>2019-01-04T10:22:09.000Z</Time>
            <Position>
              <LatitudeDegrees>36.51574666611850261688232421875</LatitudeDegrees>
              <LongitudeDegrees>-5.409150905907154083251953125</LongitudeDegrees>
            </Position>
            <AltitudeMeters>272.79998779296875</AltitudeMeters>
            <DistanceMeters>4873.479571369</DistanceMeters>
          </Trackpoint>
          <Trackpoint>
            <Time>2019-01-04T10:22:10.000Z</Time>
            <Position>
              <LatitudeDegrees>36.51576275937259197235107421875</LatitudeDegrees>
              <LongitudeDegrees>-5.40915685705840587615966796875</LongitudeDegrees>
            </Position>
            <AltitudeMeters>272.600006103515625</AltitudeMeters>
            <DistanceMeters>4875.3489668819</DistanceMeters>
          </Trackpoint>
          <Trackpoint>
            <Time>2019-01-04T10:22:11.000Z</Time>
            <Position>
              <LatitudeDegrees>36.51577969081699848175048828125</LatitudeDegrees>
              <LongitudeDegrees>-5.40916062891483306884765625</LongitudeDegrees>
            </Position>
            <AltitudeMeters>272.600006103515625</AltitudeMeters>
            <DistanceMeters>4877.2637021211</DistanceMeters>
          </Trackpoint>
          <Trackpoint>
            <Time>2019-01-04T10:22:12.000Z</Time>
            <Position>
              <LatitudeDegrees>36.515794694423675537109375</LatitudeDegrees>
              <LongitudeDegrees>-5.40916406549513339996337890625</LongitudeDegrees>
            </Position>
            <AltitudeMeters>272.600006103515625</AltitudeMeters>
            <DistanceMeters>4878.9582711841</DistanceMeters>
          </Trackpoint>
          <Trackpoint>
            <Time>2019-01-04T10:22:13.000Z</Time>
            <Position>
              <LatitudeDegrees>36.5158086083829402923583984375</LatitudeDegrees>
              <LongitudeDegrees>-5.40916842408478260040283203125</LongitudeDegrees>
            </Position>
            <AltitudeMeters>272.399993896484375</AltitudeMeters>
            <DistanceMeters>4880.5568679543</DistanceMeters>
          </Trackpoint>
          <Trackpoint>
            <Time>2019-01-04T10:22:14.000Z</Time>
            <Position>
              <LatitudeDegrees>36.515822522342205047607421875</LatitudeDegrees>
              <LongitudeDegrees>-5.40917747654020786285400390625</LongitudeDegrees>
            </Position>
            <AltitudeMeters>272.20001220703125</AltitudeMeters>
            <DistanceMeters>4882.3039128415</DistanceMeters>
          </Trackpoint>
          <Trackpoint>
            <Time>2019-01-04T10:22:15.000Z</Time>
            <Position>
              <LatitudeDegrees>36.51583568193018436431884765625</LatitudeDegrees>
              <LongitudeDegrees>-5.40918502025306224822998046875</LongitudeDegrees>
            </Position>
            <AltitudeMeters>272</AltitudeMeters>
            <DistanceMeters>4883.9165696605</DistanceMeters>
          </Trackpoint>
          <Trackpoint>
            <Time>2019-01-04T10:22:16.000Z</Time>
            <Position>
              <LatitudeDegrees>36.5158496797084808349609375</LatitudeDegrees>
              <LongitudeDegrees>-5.409196503460407257080078125</LongitudeDegrees>
            </Position>
            <AltitudeMeters>272</AltitudeMeters>
            <DistanceMeters>4885.7835483715</DistanceMeters>
          </Trackpoint>
          <Trackpoint>
            <Time>2019-01-04T10:22:17.000Z</Time>
            <Position>
              <LatitudeDegrees>36.51586753316223621368408203125</LatitudeDegrees>
              <LongitudeDegrees>-5.40921167470514774322509765625</LongitudeDegrees>
            </Position>
            <AltitudeMeters>271.79998779296875</AltitudeMeters>
            <DistanceMeters>4888.1875552193</DistanceMeters>
          </Trackpoint>
          <Trackpoint>
            <Time>2019-01-04T10:22:18.000Z</Time>
            <Position>
              <LatitudeDegrees>36.515884883701801300048828125</LatitudeDegrees>
              <LongitudeDegrees>-5.40923380292952060699462890625</LongitudeDegrees>
            </Position>
            <AltitudeMeters>271.399993896484375</AltitudeMeters>
            <DistanceMeters>4890.9531428147</DistanceMeters>
          </Trackpoint>
          <Trackpoint>
            <Time>2019-01-04T10:22:19.000Z</Time>
            <Position>
              <LatitudeDegrees>36.5158987976610660552978515625</LatitudeDegrees>
              <LongitudeDegrees>-5.40925023145973682403564453125</LongitudeDegrees>
            </Position>
            <AltitudeMeters>271.20001220703125</AltitudeMeters>
            <DistanceMeters>4893.0907158967</DistanceMeters>
          </Trackpoint>
          <Trackpoint>
            <Time>2019-01-04T10:22:20.000Z</Time>
            <Position>
              <LatitudeDegrees>36.51591447181999683380126953125</LatitudeDegrees>
              <LongitudeDegrees>-5.40926682762801647186279296875</LongitudeDegrees>
            </Position>
            <AltitudeMeters>271</AltitudeMeters>
            <DistanceMeters>4895.3832046077</DistanceMeters>
          </Trackpoint>
          <Trackpoint>
            <Time>2019-01-04T10:22:21.000Z</Time>
            <Position>
              <LatitudeDegrees>36.51593525893986225128173828125</LatitudeDegrees>
              <LongitudeDegrees>-5.40928459726274013519287109375</LongitudeDegrees>
            </Position>
            <AltitudeMeters>270.600006103515625</AltitudeMeters>
            <DistanceMeters>4898.1909183993</DistanceMeters>
          </Trackpoint>
          <Trackpoint>
            <Time>2019-01-04T10:22:22.000Z</Time>
            <Position>
              <LatitudeDegrees>36.515955962240695953369140625</LatitudeDegrees>
              <LongitudeDegrees>-5.40929800830781459808349609375</LongitudeDegrees>
            </Position>
            <AltitudeMeters>270</AltitudeMeters>
            <DistanceMeters>4900.7898599493</DistanceMeters>
          </Trackpoint>
          <Trackpoint>
            <Time>2019-01-04T10:22:23.000Z</Time>
            <Position>
              <LatitudeDegrees>36.51597616262733936309814453125</LatitudeDegrees>
              <LongitudeDegrees>-5.4093123413622379302978515625</LongitudeDegrees>
            </Position>
            <AltitudeMeters>269.20001220703125</AltitudeMeters>
            <DistanceMeters>4903.3783569498</DistanceMeters>
          </Trackpoint>
          <Trackpoint>
            <Time>2019-01-04T10:22:24.000Z</Time>
            <Position>
              <LatitudeDegrees>36.51599493809044361114501953125</LatitudeDegrees>
              <LongitudeDegrees>-5.4093334637582302093505859375</LongitudeDegrees>
            </Position>
            <AltitudeMeters>268.79998779296875</AltitudeMeters>
            <DistanceMeters>4906.1940996791</DistanceMeters>
          </Trackpoint>
          <Trackpoint>
            <Time>2019-01-04T10:22:25.000Z</Time>
            <Position>
              <LatitudeDegrees>36.51601128280162811279296875</LatitudeDegrees>
              <LongitudeDegrees>-5.4093515686690807342529296875</LongitudeDegrees>
            </Position>
            <AltitudeMeters>268.399993896484375</AltitudeMeters>
            <DistanceMeters>4908.627971111</DistanceMeters>
          </Trackpoint>
          <Trackpoint>
            <Time>2019-01-04T10:22:26.000Z</Time>
            <Position>
              <LatitudeDegrees>36.516027711331844329833984375</LatitudeDegrees>
              <LongitudeDegrees>-5.40936791338026523590087890625</LongitudeDegrees>
            </Position>
            <AltitudeMeters>268.20001220703125</AltitudeMeters>
            <DistanceMeters>4910.9672501292</DistanceMeters>
          </Trackpoint>
          <Trackpoint>
            <Time>2019-01-04T10:22:27.000Z</Time>
            <Position>
              <LatitudeDegrees>36.5160436369478702545166015625</LatitudeDegrees>
              <LongitudeDegrees>-5.4093877784907817840576171875</LongitudeDegrees>
            </Position>
            <AltitudeMeters>267.79998779296875</AltitudeMeters>
            <DistanceMeters>4913.4760273775</DistanceMeters>
          </Trackpoint>
          <Trackpoint>
            <Time>2019-01-04T10:22:28.000Z</Time>
            <Position>
              <LatitudeDegrees>36.51605763472616672515869140625</LatitudeDegrees>
              <LongitudeDegrees>-5.40940244682133197784423828125</LongitudeDegrees>
            </Position>
            <AltitudeMeters>267.399993896484375</AltitudeMeters>
            <DistanceMeters>4915.5141233429</DistanceMeters>
          </Trackpoint>
          <Trackpoint>
            <Time>2019-01-04T10:22:29.000Z</Time>
            <Position>
              <LatitudeDegrees>36.51607205159962177276611328125</LatitudeDegrees>
              <LongitudeDegrees>-5.40941719897091388702392578125</LongitudeDegrees>
            </Position>
            <AltitudeMeters>267.20001220703125</AltitudeMeters>
            <DistanceMeters>4917.5917124602</DistanceMeters>
          </Trackpoint>
          <Trackpoint>
            <Time>2019-01-04T10:22:30.000Z</Time>
            <Position>
              <LatitudeDegrees>36.51609241962432861328125</LatitudeDegrees>
              <LongitudeDegrees>-5.409430526196956634521484375</LongitudeDegrees>
            </Position>
            <AltitudeMeters>267</AltitudeMeters>
            <DistanceMeters>4920.153911823</DistanceMeters>
          </Trackpoint>
          <Trackpoint>
            <Time>2019-01-04T10:22:31.000Z</Time>
            <Position>
              <LatitudeDegrees>36.51611546985805034637451171875</LatitudeDegrees>
              <LongitudeDegrees>-5.409441255033016204833984375</LongitudeDegrees>
            </Position>
            <AltitudeMeters>266.600006103515625</AltitudeMeters>
            <DistanceMeters>4922.8932536281</DistanceMeters>
          </Trackpoint>
          <Trackpoint>
            <Time>2019-01-04T10:22:32.000Z</Time>
            <Position>
              <LatitudeDegrees>36.51613793335855007171630859375</LatitudeDegrees>
              <LongitudeDegrees>-5.4094504751265048980712890625</LongitudeDegrees>
            </Position>
            <AltitudeMeters>266.20001220703125</AltitudeMeters>
            <DistanceMeters>4925.5267111859</DistanceMeters>
          </Trackpoint>
          <Trackpoint>
            <Time>2019-01-04T10:22:33.000Z</Time>
            <Position>
              <LatitudeDegrees>36.51616056449711322784423828125</LatitudeDegrees>
              <LongitudeDegrees>-5.40946774184703826904296875</LongitudeDegrees>
            </Position>
            <AltitudeMeters>265.600006103515625</AltitudeMeters>
            <DistanceMeters>4928.4801928339</DistanceMeters>
          </Trackpoint>
          <Trackpoint>
            <Time>2019-01-04T10:22:34.000Z</Time>
            <Position>
              <LatitudeDegrees>36.51617531664669513702392578125</LatitudeDegrees>
              <LongitudeDegrees>-5.4094950668513774871826171875</LongitudeDegrees>
            </Position>
            <AltitudeMeters>265.20001220703125</AltitudeMeters>
            <DistanceMeters>4931.4229540049</DistanceMeters>
          </Trackpoint>
          <Trackpoint>
            <Time>2019-01-04T10:22:35.000Z</Time>
            <Position>
              <LatitudeDegrees>36.5161894820630550384521484375</LatitudeDegrees>
              <LongitudeDegrees>-5.40951727889478206634521484375</LongitudeDegrees>
            </Position>
            <AltitudeMeters>264.79998779296875</AltitudeMeters>
            <DistanceMeters>4933.9585830054</DistanceMeters>
          </Trackpoint>
          <Trackpoint>
            <Time>2019-01-04T10:22:36.000Z</Time>
            <Position>
              <LatitudeDegrees>36.5162092633545398712158203125</LatitudeDegrees>
              <LongitudeDegrees>-5.4095366410911083221435546875</LongitudeDegrees>
            </Position>
            <AltitudeMeters>264.399993896484375</AltitudeMeters>
            <DistanceMeters>4936.7582448338</DistanceMeters>
          </Trackpoint>
          <Trackpoint>
            <Time>2019-01-04T10:22:37.000Z</Time>
            <Position>
              <LatitudeDegrees>36.5162283740937709808349609375</LatitudeDegrees>
              <LongitudeDegrees>-5.409553907811641693115234375</LongitudeDegrees>
            </Position>
            <AltitudeMeters>264</AltitudeMeters>
            <DistanceMeters>4939.3865538871</DistanceMeters>
          </Trackpoint>
          <Trackpoint>
            <Time>2019-01-04T10:22:38.000Z</Time>
            <Position>
              <LatitudeDegrees>36.5162464790046215057373046875</LatitudeDegrees>
              <LongitudeDegrees>-5.409567989408969879150390625</LongitudeDegrees>
            </Position>
            <AltitudeMeters>263.600006103515625</AltitudeMeters>
            <DistanceMeters>4941.764121521</DistanceMeters>
          </Trackpoint>
          <Trackpoint>
            <Time>2019-01-04T10:22:39.000Z</Time>
            <Position>
              <LatitudeDegrees>36.516265086829662322998046875</LatitudeDegrees>
              <LongitudeDegrees>-5.40958131663501262664794921875</LongitudeDegrees>
            </Position>
            <AltitudeMeters>263.399993896484375</AltitudeMeters>
            <DistanceMeters>4944.1530560769</DistanceMeters>
          </Trackpoint>
          <Trackpoint>
            <Time>2019-01-04T10:22:40.000Z</Time>
            <Position>
              <LatitudeDegrees>36.5162830241024494171142578125</LatitudeDegrees>
              <LongitudeDegrees>-5.4095959849655628204345703125</LongitudeDegrees>
            </Position>
            <AltitudeMeters>263.20001220703125</AltitudeMeters>
            <DistanceMeters>4946.5419906329</DistanceMeters>
          </Trackpoint>
          <Trackpoint>
            <Time>2019-01-04T10:22:41.000Z</Time>
            <Position>
              <LatitudeDegrees>36.51629853062331676483154296875</LatitudeDegrees>
              <LongitudeDegrees>-5.4096117429435253143310546875</LongitudeDegrees>
            </Position>
            <AltitudeMeters>263</AltitudeMeters>
            <DistanceMeters>4948.7685377282</DistanceMeters>
          </Trackpoint>
          <Trackpoint>
            <Time>2019-01-04T10:22:42.000Z</Time>
            <Position>
              <LatitudeDegrees>36.51631562970578670501708984375</LatitudeDegrees>
              <LongitudeDegrees>-5.40962724946439266204833984375</LongitudeDegrees>
            </Position>
            <AltitudeMeters>262.600006103515625</AltitudeMeters>
            <DistanceMeters>4951.123206906</DistanceMeters>
          </Trackpoint>
          <Trackpoint>
            <Time>2019-01-04T10:22:43.000Z</Time>
            <Position>
              <LatitudeDegrees>36.51633046567440032958984375</LatitudeDegrees>
              <LongitudeDegrees>-5.409645773470401763916015625</LongitudeDegrees>
            </Position>
            <AltitudeMeters>262.20001220703125</AltitudeMeters>
            <DistanceMeters>4953.4605550291</DistanceMeters>
          </Trackpoint>
          <Trackpoint>
            <Time>2019-01-04T10:22:44.000Z</Time>
            <Position>
              <LatitudeDegrees>36.5163433738052845001220703125</LatitudeDegrees>
              <LongitudeDegrees>-5.40966362692415714263916015625</LongitudeDegrees>
            </Position>
            <AltitudeMeters>262</AltitudeMeters>
            <DistanceMeters>4955.6086632812</DistanceMeters>
          </Trackpoint>
          <Trackpoint>
            <Time>2019-01-04T10:22:45.000Z</Time>
            <Position>
              <LatitudeDegrees>36.51635737158358097076416015625</LatitudeDegrees>
              <LongitudeDegrees>-5.40968240238726139068603515625</LongitudeDegrees>
            </Position>
            <AltitudeMeters>261.600006103515625</AltitudeMeters>
            <DistanceMeters>4957.9011519923</DistanceMeters>
          </Trackpoint>
          <Trackpoint>
            <Time>2019-01-04T10:22:46.000Z</Time>
            <Position>
              <LatitudeDegrees>36.5163758955895900726318359375</LatitudeDegrees>
              <LongitudeDegrees>-5.40970436297357082366943359375</LongitudeDegrees>
            </Position>
            <AltitudeMeters>261.20001220703125</AltitudeMeters>
            <DistanceMeters>4960.7503692046</DistanceMeters>
          </Trackpoint>
          <Trackpoint>
            <Time>2019-01-04T10:22:47.000Z</Time>
            <Position>
              <LatitudeDegrees>36.51639408431947231292724609375</LatitudeDegrees>
              <LongitudeDegrees>-5.409721545875072479248046875</LongitudeDegrees>
            </Position>
            <AltitudeMeters>261.20001220703125</AltitudeMeters>
            <DistanceMeters>4963.2931107829</DistanceMeters>
          </Trackpoint>
          <Trackpoint>
            <Time>2019-01-04T10:22:48.000Z</Time>
            <Position>
              <LatitudeDegrees>36.5164134465157985687255859375</LatitudeDegrees>
              <LongitudeDegrees>-5.40974006988108158111572265625</LongitudeDegrees>
            </Position>
            <AltitudeMeters>261.20001220703125</AltitudeMeters>
            <DistanceMeters>4966.0109412653</DistanceMeters>
          </Trackpoint>
          <Trackpoint>
            <Time>2019-01-04T10:22:49.000Z</Time>
            <Position>
              <LatitudeDegrees>36.51643230579793453216552734375</LatitudeDegrees>
              <LongitudeDegrees>-5.40976186282932758331298828125</LongitudeDegrees>
            </Position>
            <AltitudeMeters>261.20001220703125</AltitudeMeters>
            <DistanceMeters>4968.8743848934</DistanceMeters>
          </Trackpoint>
          <Trackpoint>
            <Time>2019-01-04T10:22:50.000Z</Time>
            <Position>
              <LatitudeDegrees>36.5164513327181339263916015625</LatitudeDegrees>
              <LongitudeDegrees>-5.40977879427373409271240234375</LongitudeDegrees>
            </Position>
            <AltitudeMeters>261.399993896484375</AltitudeMeters>
            <DistanceMeters>4971.4785330092</DistanceMeters>
          </Trackpoint>
          <Trackpoint>
            <Time>2019-01-04T10:22:51.000Z</Time>
            <Position>
              <LatitudeDegrees>36.5164751373231410980224609375</LatitudeDegrees>
              <LongitudeDegrees>-5.4097917862236499786376953125</LongitudeDegrees>
            </Position>
            <AltitudeMeters>261.399993896484375</AltitudeMeters>
            <DistanceMeters>4974.3733405918</DistanceMeters>
          </Trackpoint>
          <Trackpoint>
            <Time>2019-01-04T10:22:52.000Z</Time>
            <Position>
              <LatitudeDegrees>36.51649684645235538482666015625</LatitudeDegrees>
              <LongitudeDegrees>-5.40980159305036067962646484375</LongitudeDegrees>
            </Position>
            <AltitudeMeters>261.600006103515625</AltitudeMeters>
            <DistanceMeters>4976.9425789771</DistanceMeters>
          </Trackpoint>
          <Trackpoint>
            <Time>2019-01-04T10:22:53.000Z</Time>
            <Position>
              <LatitudeDegrees>36.51651662774384021759033203125</LatitudeDegrees>
              <LongitudeDegrees>-5.409813411533832550048828125</LongitudeDegrees>
            </Position>
            <AltitudeMeters>261.79998779296875</AltitudeMeters>
            <DistanceMeters>4979.3838594716</DistanceMeters>
          </Trackpoint>
          <Trackpoint>
            <Time>2019-01-04T10:22:54.000Z</Time>
            <Position>
              <LatitudeDegrees>36.516537331044673919677734375</LatitudeDegrees>
              <LongitudeDegrees>-5.40982640348374843597412109375</LongitudeDegrees>
            </Position>
            <AltitudeMeters>262</AltitudeMeters>
            <DistanceMeters>4981.9653699627</DistanceMeters>
          </Trackpoint>
          <Trackpoint>
            <Time>2019-01-04T10:22:55.000Z</Time>
            <Position>
              <LatitudeDegrees>36.5165577828884124755859375</LatitudeDegrees>
              <LongitudeDegrees>-5.4098320193588733673095703125</LongitudeDegrees>
            </Position>
            <AltitudeMeters>262.20001220703125</AltitudeMeters>
            <DistanceMeters>4984.296915806</DistanceMeters>
          </Trackpoint>
          <Trackpoint>
            <Time>2019-01-04T10:22:56.000Z</Time>
            <Position>
              <LatitudeDegrees>36.51657722890377044677734375</LatitudeDegrees>
              <LongitudeDegrees>-5.4098417423665523529052734375</LongitudeDegrees>
            </Position>
            <AltitudeMeters>262.79998779296875</AltitudeMeters>
            <DistanceMeters>4986.6303973456</DistanceMeters>
          </Trackpoint>
          <Trackpoint>
            <Time>2019-01-04T10:22:57.000Z</Time>
            <Position>
              <LatitudeDegrees>36.51659592054784297943115234375</LatitudeDegrees>
              <LongitudeDegrees>-5.40984936989843845367431640625</LongitudeDegrees>
            </Position>
            <AltitudeMeters>263.20001220703125</AltitudeMeters>
            <DistanceMeters>4988.8201394747</DistanceMeters>
          </Trackpoint>
          <Trackpoint>
            <Time>2019-01-04T10:22:58.000Z</Time>
            <Position>
              <LatitudeDegrees>36.5166149474680423736572265625</LatitudeDegrees>
              <LongitudeDegrees>-5.40985875762999057769775390625</LongitudeDegrees>
            </Position>
            <AltitudeMeters>263.600006103515625</AltitudeMeters>
            <DistanceMeters>4991.0988000363</DistanceMeters>
          </Trackpoint>
          <Trackpoint>
            <Time>2019-01-04T10:22:59.000Z</Time>
            <Position>
              <LatitudeDegrees>36.516631543636322021484375</LatitudeDegrees>
              <LongitudeDegrees>-5.4098699055612087249755859375</LongitudeDegrees>
            </Position>
            <AltitudeMeters>263.79998779296875</AltitudeMeters>
            <DistanceMeters>4993.1980087693</DistanceMeters>
          </Trackpoint>
          <Trackpoint>
            <Time>2019-01-04T10:23:00.000Z</Time>
            <Position>
              <LatitudeDegrees>36.5166457928717136383056640625</LatitudeDegrees>
              <LongitudeDegrees>-5.4098769463598728179931640625</LongitudeDegrees>
            </Position>
            <AltitudeMeters>264</AltitudeMeters>
            <DistanceMeters>4994.9058479571</DistanceMeters>
          </Trackpoint>
          <Trackpoint>
            <Time>2019-01-04T10:23:01.000Z</Time>
            <Position>
              <LatitudeDegrees>36.51665409095585346221923828125</LatitudeDegrees>
              <LongitudeDegrees>-5.40988189168274402618408203125</LongitudeDegrees>
            </Position>
            <AltitudeMeters>264.20001220703125</AltitudeMeters>
            <DistanceMeters>4995.9337190307</DistanceMeters>
          </Trackpoint>
          <Trackpoint>
            <Time>2019-01-04T10:23:02.000Z</Time>
            <Position>
              <LatitudeDegrees>36.51665928773581981658935546875</LatitudeDegrees>
              <LongitudeDegrees>-5.409883148968219757080078125</LongitudeDegrees>
            </Position>
            <AltitudeMeters>264.600006103515625</AltitudeMeters>
            <DistanceMeters>4996.5195030394</DistanceMeters>
          </Trackpoint>
          <Trackpoint>
            <Time>2019-01-04T10:23:03.000Z</Time>
            <Position>
              <LatitudeDegrees>36.5166659094393253326416015625</LatitudeDegrees>
              <LongitudeDegrees>-5.40988239459693431854248046875</LongitudeDegrees>
            </Position>
            <AltitudeMeters>264.79998779296875</AltitudeMeters>
            <DistanceMeters>4997.2677441366</DistanceMeters>
          </Trackpoint>
          <Trackpoint>
            <Time>2019-01-04T10:23:04.000Z</Time>
            <Position>
              <LatitudeDegrees>36.51666683144867420196533203125</LatitudeDegrees>
              <LongitudeDegrees>-5.4098799638450145721435546875</LongitudeDegrees>
            </Position>
            <AltitudeMeters>265</AltitudeMeters>
            <DistanceMeters>4997.5191611907</DistanceMeters>
          </Trackpoint>
          <Trackpoint>
            <Time>2019-01-04T10:23:05.000Z</Time>
            <Position>
              <LatitudeDegrees>36.51666867546737194061279296875</LatitudeDegrees>
              <LongitudeDegrees>-5.409875772893428802490234375</LongitudeDegrees>
            </Position>
            <AltitudeMeters>265.20001220703125</AltitudeMeters>
            <DistanceMeters>4997.9648759894</DistanceMeters>
          </Trackpoint>
          <Trackpoint>
            <Time>2019-01-04T10:23:06.000Z</Time>
            <Position>
              <LatitudeDegrees>36.51666733436286449432373046875</LatitudeDegrees>
              <LongitudeDegrees>-5.4098742641508579254150390625</LongitudeDegrees>
            </Position>
            <AltitudeMeters>265.600006103515625</AltitudeMeters>
            <DistanceMeters>4998.1773621824</DistanceMeters>
          </Trackpoint>
          <Trackpoint>
            <Time>2019-01-04T10:23:07.000Z</Time>
            <Position>
              <LatitudeDegrees>36.516667418181896209716796875</LatitudeDegrees>
              <LongitudeDegrees>-5.40987585671246051788330078125</LongitudeDegrees>
            </Position>
            <AltitudeMeters>265.79998779296875</AltitudeMeters>
            <DistanceMeters>4998.3117502507</DistanceMeters>
          </Trackpoint>
          <Trackpoint>
            <Time>2019-01-04T10:23:08.000Z</Time>
            <Position>
              <LatitudeDegrees>36.5166685916483402252197265625</LatitudeDegrees>
              <LongitudeDegrees>-5.40987853892147541046142578125</LongitudeDegrees>
            </Position>
            <AltitudeMeters>265.79998779296875</AltitudeMeters>
            <DistanceMeters>4998.5805263872</DistanceMeters>
          </Trackpoint>
          <Trackpoint>
            <Time>2019-01-04T10:23:09.000Z</Time>
            <Position>
              <LatitudeDegrees>36.51666884310543537139892578125</LatitudeDegrees>
              <LongitudeDegrees>-5.40988080203533172607421875</LongitudeDegrees>
            </Position>
            <AltitudeMeters>265.79998779296875</AltitudeMeters>
            <DistanceMeters>4998.7930125802</DistanceMeters>
          </Trackpoint>
          <Trackpoint>
            <Time>2019-01-04T10:23:10.000Z</Time>
            <Position>
              <LatitudeDegrees>36.5166702680289745330810546875</LatitudeDegrees>
              <LongitudeDegrees>-5.40988205932080745697021484375</LongitudeDegrees>
            </Position>
            <AltitudeMeters>265.79998779296875</AltitudeMeters>
            <DistanceMeters>4998.9830660089</DistanceMeters>
          </Trackpoint>
          <Trackpoint>
            <Time>2019-01-04T10:23:11.000Z</Time>
            <Position>
              <LatitudeDegrees>36.5166732855141162872314453125</LatitudeDegrees>
              <LongitudeDegrees>-5.409881137311458587646484375</LongitudeDegrees>
            </Position>
            <AltitudeMeters>265.79998779296875</AltitudeMeters>
            <DistanceMeters>4999.3386234167</DistanceMeters>
          </Trackpoint>
          <Trackpoint>
            <Time>2019-01-04T10:23:12.000Z</Time>
            <Position>
              <LatitudeDegrees>36.5166752971708774566650390625</LatitudeDegrees>
              <LongitudeDegrees>-5.4098816402256488800048828125</LongitudeDegrees>
            </Position>
            <AltitudeMeters>265.79998779296875</AltitudeMeters>
            <DistanceMeters>4999.5713903788</DistanceMeters>
          </Trackpoint>
          <Trackpoint>
            <Time>2019-01-04T10:23:13.000Z</Time>
            <Position>
              <LatitudeDegrees>36.51667554862797260284423828125</LatitudeDegrees>
              <LongitudeDegrees>-5.40988482534885406494140625</LongitudeDegrees>
            </Position>
            <AltitudeMeters>265.79998779296875</AltitudeMeters>
            <DistanceMeters>4999.8401665153</DistanceMeters>
          </Trackpoint>
          <Trackpoint>
            <Time>2019-01-04T10:23:14.000Z</Time>
            <Position>
              <LatitudeDegrees>36.51667219586670398712158203125</LatitudeDegrees>
              <LongitudeDegrees>-5.4098890163004398345947265625</LongitudeDegrees>
            </Position>
            <AltitudeMeters>265.79998779296875</AltitudeMeters>
            <DistanceMeters>5000.3692528691</DistanceMeters>
          </Trackpoint>
          <Trackpoint>
            <Time>2019-01-04T10:23:15.000Z</Time>
            <Position>
              <LatitudeDegrees>36.51666766963899135589599609375</LatitudeDegrees>
              <LongitudeDegrees>-5.409891866147518157958984375</LongitudeDegrees>
            </Position>
            <AltitudeMeters>265.79998779296875</AltitudeMeters>
            <DistanceMeters>5000.9394131553</DistanceMeters>
          </Trackpoint>
          <Trackpoint>
            <Time>2019-01-04T10:23:16.000Z</Time>
            <Position>
              <LatitudeDegrees>36.5166597068309783935546875</LatitudeDegrees>
              <LongitudeDegrees>-5.40990150533616542816162109375</LongitudeDegrees>
            </Position>
            <AltitudeMeters>265.79998779296875</AltitudeMeters>
            <DistanceMeters>5002.1747604422</DistanceMeters>
          </Trackpoint>
          <Trackpoint>
            <Time>2019-01-04T10:23:17.000Z</Time>
            <Position>
              <LatitudeDegrees>36.5166581980884075164794921875</LatitudeDegrees>
              <LongitudeDegrees>-5.4099020920693874359130859375</LongitudeDegrees>
            </Position>
            <AltitudeMeters>265.79998779296875</AltitudeMeters>
            <DistanceMeters>5002.3393515395</DistanceMeters>
          </Trackpoint>
          <Trackpoint>
            <Time>2019-01-04T10:23:18.000Z</Time>
            <Position>
              <LatitudeDegrees>36.51665576733648777008056640625</LatitudeDegrees>
              <LongitudeDegrees>-5.40989899076521396636962890625</LongitudeDegrees>
            </Position>
            <AltitudeMeters>265.79998779296875</AltitudeMeters>
            <DistanceMeters>5002.719458397</DistanceMeters>
          </Trackpoint>
          <Trackpoint>
            <Time>2019-01-04T10:23:19.000Z</Time>
            <Position>
              <LatitudeDegrees>36.51665308512747287750244140625</LatitudeDegrees>
              <LongitudeDegrees>-5.40989496745169162750244140625</LongitudeDegrees>
            </Position>
            <AltitudeMeters>265.79998779296875</AltitudeMeters>
            <DistanceMeters>5003.1751905093</DistanceMeters>
          </Trackpoint>
          <Trackpoint>
            <Time>2019-01-04T10:23:20.000Z</Time>
            <Position>
              <LatitudeDegrees>36.5166511572897434234619140625</LatitudeDegrees>
              <LongitudeDegrees>-5.409893207252025604248046875</LongitudeDegrees>
            </Position>
            <AltitudeMeters>265.79998779296875</AltitudeMeters>
            <DistanceMeters>5003.4439666458</DistanceMeters>
          </Trackpoint>
          <Trackpoint>
            <Time>2019-01-04T10:23:21.000Z</Time>
            <Position>
              <LatitudeDegrees>36.5166501514613628387451171875</LatitudeDegrees>
              <LongitudeDegrees>-5.4098906926810741424560546875</LongitudeDegrees>
            </Position>
            <AltitudeMeters>265.79998779296875</AltitudeMeters>
            <DistanceMeters>5003.676733608</DistanceMeters>
          </Trackpoint>
          <Trackpoint>
            <Time>2019-01-04T10:23:22.000Z</Time>
            <Position>
              <LatitudeDegrees>36.51665073819458484649658203125</LatitudeDegrees>
              <LongitudeDegrees>-5.4098849929869174957275390625</LongitudeDegrees>
            </Position>
            <AltitudeMeters>265.79998779296875</AltitudeMeters>
            <DistanceMeters>5004.1884681259</DistanceMeters>
          </Trackpoint>
          <Trackpoint>
            <Time>2019-01-04T10:23:23.000Z</Time>
            <Position>
              <LatitudeDegrees>36.516650654375553131103515625</LatitudeDegrees>
              <LongitudeDegrees>-5.4098796285688877105712890625</LongitudeDegrees>
            </Position>
            <AltitudeMeters>265.79998779296875</AltitudeMeters>
            <DistanceMeters>5004.6730111968</DistanceMeters>
          </Trackpoint>
          <Trackpoint>
            <Time>2019-01-04T10:23:24.000Z</Time>
            <Position>
              <LatitudeDegrees>36.51664956472814083099365234375</LatitudeDegrees>
              <LongitudeDegrees>-5.40987032465636730194091796875</LongitudeDegrees>
            </Position>
            <AltitudeMeters>264.600006103515625</AltitudeMeters>
            <DistanceMeters>5005.517627109</DistanceMeters>
          </Trackpoint>
          <Trackpoint>
            <Time>2019-01-04T10:23:25.000Z</Time>
            <Position>
              <LatitudeDegrees>36.51664788834750652313232421875</LatitudeDegrees>
              <LongitudeDegrees>-5.4098638705909252166748046875</LongitudeDegrees>
            </Position>
            <AltitudeMeters>264.399993896484375</AltitudeMeters>
            <DistanceMeters>5006.126094967</DistanceMeters>
          </Trackpoint>
          <Trackpoint>
            <Time>2019-01-04T10:23:26.000Z</Time>
            <Position>
              <LatitudeDegrees>36.5166474692523479461669921875</LatitudeDegrees>
              <LongitudeDegrees>-5.409859679639339447021484375</LongitudeDegrees>
            </Position>
            <AltitudeMeters>264.399993896484375</AltitudeMeters>
            <DistanceMeters>5006.5179001476</DistanceMeters>
          </Trackpoint>
          <Trackpoint>
            <Time>2019-01-04T10:23:27.000Z</Time>
            <Position>
              <LatitudeDegrees>36.51664562523365020751953125</LatitudeDegrees>
              <LongitudeDegrees>-5.40985590778291225433349609375</LongitudeDegrees>
            </Position>
            <AltitudeMeters>264.399993896484375</AltitudeMeters>
            <DistanceMeters>5006.9097053282</DistanceMeters>
          </Trackpoint>
          <Trackpoint>
            <Time>2019-01-04T10:23:28.000Z</Time>
            <Position>
              <LatitudeDegrees>36.5166437812149524688720703125</LatitudeDegrees>
              <LongitudeDegrees>-5.409853644669055938720703125</LongitudeDegrees>
            </Position>
            <AltitudeMeters>264.399993896484375</AltitudeMeters>
            <DistanceMeters>5007.2102061841</DistanceMeters>
          </Trackpoint>
          <Trackpoint>
            <Time>2019-01-04T10:23:29.000Z</Time>
            <Position>
              <LatitudeDegrees>36.51663933880627155303955078125</LatitudeDegrees>
              <LongitudeDegrees>-5.40985557250678539276123046875</LongitudeDegrees>
            </Position>
            <AltitudeMeters>264.399993896484375</AltitudeMeters>
            <DistanceMeters>5007.7306889344</DistanceMeters>
          </Trackpoint>
          <Trackpoint>
            <Time>2019-01-04T10:23:30.000Z</Time>
            <Position>
              <LatitudeDegrees>36.5166360698640346527099609375</LatitudeDegrees>
              <LongitudeDegrees>-5.40985800325870513916015625</LongitudeDegrees>
            </Position>
            <AltitudeMeters>264.399993896484375</AltitudeMeters>
            <DistanceMeters>5008.1556613204</DistanceMeters>
          </Trackpoint>
          <Trackpoint>
            <Time>2019-01-04T10:23:31.000Z</Time>
            <Position>
              <LatitudeDegrees>36.51663330383598804473876953125</LatitudeDegrees>
              <LongitudeDegrees>-5.4098581708967685699462890625</LongitudeDegrees>
            </Position>
            <AltitudeMeters>264.399993896484375</AltitudeMeters>
            <DistanceMeters>5008.4848435152</DistanceMeters>
          </Trackpoint>
          <Trackpoint>
            <Time>2019-01-04T10:23:32.000Z</Time>
            <Position>
              <LatitudeDegrees>36.51663196273148059844970703125</LatitudeDegrees>
              <LongitudeDegrees>-5.4098534770309925079345703125</LongitudeDegrees>
            </Position>
            <AltitudeMeters>264.399993896484375</AltitudeMeters>
            <DistanceMeters>5008.9305583138</DistanceMeters>
          </Trackpoint>
          <Trackpoint>
            <Time>2019-01-04T10:23:33.000Z</Time>
            <Position>
              <LatitudeDegrees>36.51663129217922687530517578125</LatitudeDegrees>
              <LongitudeDegrees>-5.409841574728488922119140625</LongitudeDegrees>
            </Position>
            <AltitudeMeters>264.399993896484375</AltitudeMeters>
            <DistanceMeters>5009.9972305371</DistanceMeters>
          </Trackpoint>
          <Trackpoint>
            <Time>2019-01-04T10:23:34.000Z</Time>
            <Position>
              <LatitudeDegrees>36.5166300348937511444091796875</LatitudeDegrees>
              <LongitudeDegrees>-5.40983495302498340606689453125</LongitudeDegrees>
            </Position>
            <AltitudeMeters>263.79998779296875</AltitudeMeters>
            <DistanceMeters>5010.6130740324</DistanceMeters>
          </Trackpoint>
          <Trackpoint>
            <Time>2019-01-04T10:23:35.000Z</Time>
            <Position>
              <LatitudeDegrees>36.51663045398890972137451171875</LatitudeDegrees>
              <LongitudeDegrees>-5.40982807986438274383544921875</LongitudeDegrees>
            </Position>
            <AltitudeMeters>263.79998779296875</AltitudeMeters>
            <DistanceMeters>5011.2289175276</DistanceMeters>
          </Trackpoint>
          <Trackpoint>
            <Time>2019-01-04T10:23:36.000Z</Time>
            <Position>
              <LatitudeDegrees>36.5166293643414974212646484375</LatitudeDegrees>
              <LongitudeDegrees>-5.4098202846944332122802734375</LongitudeDegrees>
            </Position>
            <AltitudeMeters>263.79998779296875</AltitudeMeters>
            <DistanceMeters>5011.9400323432</DistanceMeters>
          </Trackpoint>
          <Trackpoint>
            <Time>2019-01-04T10:23:37.000Z</Time>
            <Position>
              <LatitudeDegrees>36.516629196703433990478515625</LatitudeDegrees>
              <LongitudeDegrees>-5.4098142497241497039794921875</LongitudeDegrees>
            </Position>
            <AltitudeMeters>263.79998779296875</AltitudeMeters>
            <DistanceMeters>5012.4775846162</DistanceMeters>
          </Trackpoint>
          <Trackpoint>
            <Time>2019-01-04T10:23:38.000Z</Time>
            <Position>
              <LatitudeDegrees>36.5166293643414974212646484375</LatitudeDegrees>
              <LongitudeDegrees>-5.4098098911345005035400390625</LongitudeDegrees>
            </Position>
            <AltitudeMeters>263.79998779296875</AltitudeMeters>
            <DistanceMeters>5012.8693897968</DistanceMeters>
          </Trackpoint>
          <Trackpoint>
            <Time>2019-01-04T10:23:39.000Z</Time>
            <Position>
              <LatitudeDegrees>36.5166280232369899749755859375</LatitudeDegrees>
              <LongitudeDegrees>-5.40980192832648754119873046875</LongitudeDegrees>
            </Position>
            <AltitudeMeters>263.600006103515625</AltitudeMeters>
            <DistanceMeters>5013.5993038398</DistanceMeters>
          </Trackpoint>
          <Trackpoint>
            <Time>2019-01-04T10:23:40.000Z</Time>
            <Position>
              <LatitudeDegrees>36.5166246704757213592529296875</LatitudeDegrees>
              <LongitudeDegrees>-5.4097917862236499786376953125</LongitudeDegrees>
            </Position>
            <AltitudeMeters>263.79998779296875</AltitudeMeters>
            <DistanceMeters>5014.5822678165</DistanceMeters>
          </Trackpoint>
          <Trackpoint>
            <Time>2019-01-04T10:23:41.000Z</Time>
            <Position>
              <LatitudeDegrees>36.51662542484700679779052734375</LatitudeDegrees>
              <LongitudeDegrees>-5.409788601100444793701171875</LongitudeDegrees>
            </Position>
            <AltitudeMeters>263.79998779296875</AltitudeMeters>
            <DistanceMeters>5014.8827686725</DistanceMeters>
          </Trackpoint>
          <Trackpoint>
            <Time>2019-01-04T10:23:42.000Z</Time>
            <Position>
              <LatitudeDegrees>36.51662693358957767486572265625</LatitudeDegrees>
              <LongitudeDegrees>-5.40978424251079559326171875</LongitudeDegrees>
            </Position>
            <AltitudeMeters>263.600006103515625</AltitudeMeters>
            <DistanceMeters>5015.3077410585</DistanceMeters>
          </Trackpoint>
          <Trackpoint>
            <Time>2019-01-04T10:23:43.000Z</Time>
            <Position>
              <LatitudeDegrees>36.516627185046672821044921875</LatitudeDegrees>
              <LongitudeDegrees>-5.40978667326271533966064453125</LongitudeDegrees>
            </Position>
            <AltitudeMeters>263.600006103515625</AltitudeMeters>
            <DistanceMeters>5015.5202272515</DistanceMeters>
          </Trackpoint>
          <Trackpoint>
            <Time>2019-01-04T10:23:44.000Z</Time>
            <Position>
              <LatitudeDegrees>36.5166283585131168365478515625</LatitudeDegrees>
              <LongitudeDegrees>-5.40979203768074512481689453125</LongitudeDegrees>
            </Position>
            <AltitudeMeters>263.600006103515625</AltitudeMeters>
            <DistanceMeters>5016.0140005436</DistanceMeters>
          </Trackpoint>
          <Trackpoint>
            <Time>2019-01-04T10:23:45.000Z</Time>
            <Position>
              <LatitudeDegrees>36.51663045398890972137451171875</LatitudeDegrees>
              <LongitudeDegrees>-5.40979824028909206390380859375</LongitudeDegrees>
            </Position>
            <AltitudeMeters>263.79998779296875</AltitudeMeters>
            <DistanceMeters>5016.6150022555</DistanceMeters>
          </Trackpoint>
          <Trackpoint>
            <Time>2019-01-04T10:23:46.000Z</Time>
            <Position>
              <LatitudeDegrees>36.5166374109685420989990234375</LatitudeDegrees>
              <LongitudeDegrees>-5.4098075442016124725341796875</LongitudeDegrees>
            </Position>
            <AltitudeMeters>263.79998779296875</AltitudeMeters>
            <DistanceMeters>5017.7513564835</DistanceMeters>
          </Trackpoint>
          <Trackpoint>
            <Time>2019-01-04T10:23:47.000Z</Time>
            <Position>
              <LatitudeDegrees>36.51664026081562042236328125</LatitudeDegrees>
              <LongitudeDegrees>-5.4098098911345005035400390625</LongitudeDegrees>
            </Position>
            <AltitudeMeters>263.79998779296875</AltitudeMeters>
            <DistanceMeters>5018.131463341</DistanceMeters>
          </Trackpoint>
          <Trackpoint>
            <Time>2019-01-04T10:23:48.000Z</Time>
            <Position>
              <LatitudeDegrees>36.51664428412914276123046875</LatitudeDegrees>
              <LongitudeDegrees>-5.40981148369610309600830078125</LongitudeDegrees>
            </Position>
            <AltitudeMeters>263.79998779296875</AltitudeMeters>
            <DistanceMeters>5018.5969972653</DistanceMeters>
          </Trackpoint>
          <Trackpoint>
            <Time>2019-01-04T10:23:49.000Z</Time>
            <Position>
              <LatitudeDegrees>36.51664604432880878448486328125</LatitudeDegrees>
              <LongitudeDegrees>-5.40981215424835681915283203125</LongitudeDegrees>
            </Position>
            <AltitudeMeters>263.399993896484375</AltitudeMeters>
            <DistanceMeters>5018.8297642274</DistanceMeters>
          </Trackpoint>
          <Trackpoint>
            <Time>2019-01-04T10:23:50.000Z</Time>
            <Position>
              <LatitudeDegrees>36.516647301614284515380859375</LatitudeDegrees>
              <LongitudeDegrees>-5.40981433354318141937255859375</LongitudeDegrees>
            </Position>
            <AltitudeMeters>263.600006103515625</AltitudeMeters>
            <DistanceMeters>5019.0985403639</DistanceMeters>
          </Trackpoint>
          <Trackpoint>
            <Time>2019-01-04T10:23:51.000Z</Time>
            <Position>
              <LatitudeDegrees>36.51664788834750652313232421875</LatitudeDegrees>
              <LongitudeDegrees>-5.40981416590511798858642578125</LongitudeDegrees>
            </Position>
            <AltitudeMeters>263.600006103515625</AltitudeMeters>
            <DistanceMeters>5019.2329284322</DistanceMeters>
          </Trackpoint>
          <Trackpoint>
            <Time>2019-01-04T10:23:52.000Z</Time>
            <Position>
              <LatitudeDegrees>36.5166494809091091156005859375</LatitudeDegrees>
              <LongitudeDegrees>-5.40981248952448368072509765625</LongitudeDegrees>
            </Position>
            <AltitudeMeters>263.600006103515625</AltitudeMeters>
            <DistanceMeters>5019.4656953943</DistanceMeters>
          </Trackpoint>
          <Trackpoint>
            <Time>2019-01-04T10:23:53.000Z</Time>
            <Position>
              <LatitudeDegrees>36.51665057055652141571044921875</LatitudeDegrees>
              <LongitudeDegrees>-5.4098115675151348114013671875</LongitudeDegrees>
            </Position>
            <AltitudeMeters>263.600006103515625</AltitudeMeters>
            <DistanceMeters>5019.6302864917</DistanceMeters>
          </Trackpoint>
          <Trackpoint>
            <Time>2019-01-04T10:23:54.000Z</Time>
            <Position>
              <LatitudeDegrees>36.51665157638490200042724609375</LatitudeDegrees>
              <LongitudeDegrees>-5.40981215424835681915283203125</LongitudeDegrees>
            </Position>
            <AltitudeMeters>263.600006103515625</AltitudeMeters>
            <DistanceMeters>5019.7646745599</DistanceMeters>
          </Trackpoint>
          <Trackpoint>
            <Time>2019-01-04T10:23:55.000Z</Time>
            <Position>
              <LatitudeDegrees>36.51665157638490200042724609375</LatitudeDegrees>
              <LongitudeDegrees>-5.40981265716254711151123046875</LongitudeDegrees>
            </Position>
            <AltitudeMeters>263.600006103515625</AltitudeMeters>
            <DistanceMeters>5019.7646745599</DistanceMeters>
          </Trackpoint>
          <Trackpoint>
            <Time>2019-01-04T10:23:56.000Z</Time>
            <Position>
              <LatitudeDegrees>36.516651324927806854248046875</LatitudeDegrees>
              <LongitudeDegrees>-5.40981299243867397308349609375</LongitudeDegrees>
            </Position>
            <AltitudeMeters>263.600006103515625</AltitudeMeters>
            <DistanceMeters>5019.7646745599</DistanceMeters>
          </Trackpoint>
          <Trackpoint>
            <Time>2019-01-04T10:23:57.000Z</Time>
            <Position>
              <LatitudeDegrees>36.5166518278419971466064453125</LatitudeDegrees>
              <LongitudeDegrees>-5.4098132438957691192626953125</LongitudeDegrees>
            </Position>
            <AltitudeMeters>263.600006103515625</AltitudeMeters>
            <DistanceMeters>5019.7646745599</DistanceMeters>
          </Trackpoint>
          <Trackpoint>
            <Time>2019-01-04T10:23:58.000Z</Time>
            <Position>
              <LatitudeDegrees>36.51665325276553630828857421875</LatitudeDegrees>
              <LongitudeDegrees>-5.40981316007673740386962890625</LongitudeDegrees>
            </Position>
            <AltitudeMeters>263.600006103515625</AltitudeMeters>
            <DistanceMeters>5019.8990626282</DistanceMeters>
          </Trackpoint>
          <Trackpoint>
            <Time>2019-01-04T10:23:59.000Z</Time>
            <Position>
              <LatitudeDegrees>36.51665325276553630828857421875</LatitudeDegrees>
              <LongitudeDegrees>-5.40981148369610309600830078125</LongitudeDegrees>
            </Position>
            <AltitudeMeters>263.600006103515625</AltitudeMeters>
            <DistanceMeters>5020.0636537255</DistanceMeters>
          </Trackpoint>
          <Trackpoint>
            <Time>2019-01-04T10:24:00.000Z</Time>
            <Position>
              <LatitudeDegrees>36.51665174402296543121337890625</LatitudeDegrees>
              <LongitudeDegrees>-5.4098095558583736419677734375</LongitudeDegrees>
            </Position>
            <AltitudeMeters>263.600006103515625</AltitudeMeters>
            <DistanceMeters>5020.2761399186</DistanceMeters>
          </Trackpoint>
          <Trackpoint>
            <Time>2019-01-04T10:24:01.000Z</Time>
            <Position>
              <LatitudeDegrees>36.51664654724299907684326171875</LatitudeDegrees>
              <LongitudeDegrees>-5.40981106460094451904296875</LongitudeDegrees>
            </Position>
            <AltitudeMeters>263.600006103515625</AltitudeMeters>
            <DistanceMeters>5020.8619239273</DistanceMeters>
          </Trackpoint>
          <Trackpoint>
            <Time>2019-01-04T10:24:02.000Z</Time>
            <Position>
              <LatitudeDegrees>36.5166474692523479461669921875</LatitudeDegrees>
              <LongitudeDegrees>-5.40981031022965908050537109375</LongitudeDegrees>
            </Position>
            <AltitudeMeters>263.600006103515625</AltitudeMeters>
            <DistanceMeters>5020.9963119955</DistanceMeters>
          </Trackpoint>
          <Trackpoint>
            <Time>2019-01-04T10:24:03.000Z</Time>
            <Position>
              <LatitudeDegrees>36.516647636890411376953125</LatitudeDegrees>
              <LongitudeDegrees>-5.40980963967740535736083984375</LongitudeDegrees>
            </Position>
            <AltitudeMeters>263.600006103515625</AltitudeMeters>
            <DistanceMeters>5020.9963119955</DistanceMeters>
          </Trackpoint>
          <Trackpoint>
            <Time>2019-01-04T10:24:04.000Z</Time>
            <Position>
              <LatitudeDegrees>36.51665367186069488525390625</LatitudeDegrees>
              <LongitudeDegrees>-5.4098031856119632720947265625</LongitudeDegrees>
            </Position>
            <AltitudeMeters>263.600006103515625</AltitudeMeters>
            <DistanceMeters>5021.8775534915</DistanceMeters>
          </Trackpoint>
          <Trackpoint>
            <Time>2019-01-04T10:24:05.000Z</Time>
            <Position>
              <LatitudeDegrees>36.51665073819458484649658203125</LatitudeDegrees>
              <LongitudeDegrees>-5.40980393998324871063232421875</LongitudeDegrees>
            </Position>
            <AltitudeMeters>263.79998779296875</AltitudeMeters>
            <DistanceMeters>5022.2067356862</DistanceMeters>
          </Trackpoint>
          <Trackpoint>
            <Time>2019-01-04T10:24:06.000Z</Time>
            <Position>
              <LatitudeDegrees>36.51665459387004375457763671875</LatitudeDegrees>
              <LongitudeDegrees>-5.40980167686939239501953125</LongitudeDegrees>
            </Position>
            <AltitudeMeters>263.79998779296875</AltitudeMeters>
            <DistanceMeters>5022.681869258</DistanceMeters>
          </Trackpoint>
          <Trackpoint>
            <Time>2019-01-04T10:24:07.000Z</Time>
            <Position>
              <LatitudeDegrees>36.51665409095585346221923828125</LatitudeDegrees>
              <LongitudeDegrees>-5.40980226360261440277099609375</LongitudeDegrees>
            </Position>
            <AltitudeMeters>264</AltitudeMeters>
            <DistanceMeters>5022.681869258</DistanceMeters>
          </Trackpoint>
          <Trackpoint>
            <Time>2019-01-04T10:24:08.000Z</Time>
            <Position>
              <LatitudeDegrees>36.5166548453271389007568359375</LatitudeDegrees>
              <LongitudeDegrees>-5.409804694354534149169921875</LongitudeDegrees>
            </Position>
            <AltitudeMeters>264</AltitudeMeters>
            <DistanceMeters>5022.9146362202</DistanceMeters>
          </Trackpoint>
          <Trackpoint>
            <Time>2019-01-04T10:24:09.000Z</Time>
            <Position>
              <LatitudeDegrees>36.51665492914617061614990234375</LatitudeDegrees>
              <LongitudeDegrees>-5.40980695746839046478271484375</LongitudeDegrees>
            </Position>
            <AltitudeMeters>264</AltitudeMeters>
            <DistanceMeters>5023.1271224132</DistanceMeters>
          </Trackpoint>
          <Trackpoint>
            <Time>2019-01-04T10:24:10.000Z</Time>
            <Position>
              <LatitudeDegrees>36.5166538394987583160400390625</LatitudeDegrees>
              <LongitudeDegrees>-5.40980930440127849578857421875</LongitudeDegrees>
            </Position>
            <AltitudeMeters>264</AltitudeMeters>
            <DistanceMeters>5023.3785394673</DistanceMeters>
          </Trackpoint>
          <Trackpoint>
            <Time>2019-01-04T10:24:11.000Z</Time>
            <Position>
              <LatitudeDegrees>36.51665643788874149322509765625</LatitudeDegrees>
              <LongitudeDegrees>-5.409816093742847442626953125</LongitudeDegrees>
            </Position>
            <AltitudeMeters>264</AltitudeMeters>
            <DistanceMeters>5024.0504798086</DistanceMeters>
          </Trackpoint>
          <Trackpoint>
            <Time>2019-01-04T10:24:12.000Z</Time>
            <Position>
              <LatitudeDegrees>36.51665794663131237030029296875</LatitudeDegrees>
              <LongitudeDegrees>-5.4098330251872539520263671875</LongitudeDegrees>
            </Position>
            <AltitudeMeters>263.79998779296875</AltitudeMeters>
            <DistanceMeters>5025.573873929</DistanceMeters>
          </Trackpoint>
          <Trackpoint>
            <Time>2019-01-04T10:24:13.000Z</Time>
            <Position>
              <LatitudeDegrees>36.516662053763866424560546875</LatitudeDegrees>
              <LongitudeDegrees>-5.40984082035720348358154296875</LongitudeDegrees>
            </Position>
            <AltitudeMeters>263.79998779296875</AltitudeMeters>
            <DistanceMeters>5026.4022976187</DistanceMeters>
          </Trackpoint>
          <Trackpoint>
            <Time>2019-01-04T10:24:14.000Z</Time>
            <Position>
              <LatitudeDegrees>36.51666314341127872467041015625</LatitudeDegrees>
              <LongitudeDegrees>-5.40984601713716983795166015625</LongitudeDegrees>
            </Position>
            <AltitudeMeters>263.79998779296875</AltitudeMeters>
            <DistanceMeters>5026.8774311906</DistanceMeters>
          </Trackpoint>
          <Trackpoint>
            <Time>2019-01-04T10:24:15.000Z</Time>
            <Position>
              <LatitudeDegrees>36.5166625566780567169189453125</LatitudeDegrees>
              <LongitudeDegrees>-5.4098564945161342620849609375</LongitudeDegrees>
            </Position>
            <AltitudeMeters>263.79998779296875</AltitudeMeters>
            <DistanceMeters>5027.8181476683</DistanceMeters>
          </Trackpoint>
          <Trackpoint>
            <Time>2019-01-04T10:24:16.000Z</Time>
            <Position>
              <LatitudeDegrees>36.5166632272303104400634765625</LatitudeDegrees>
              <LongitudeDegrees>-5.409859009087085723876953125</LongitudeDegrees>
            </Position>
            <AltitudeMeters>264</AltitudeMeters>
            <DistanceMeters>5028.0695647225</DistanceMeters>
          </Trackpoint>
          <Trackpoint>
            <Time>2019-01-04T10:24:17.000Z</Time>
            <Position>
              <LatitudeDegrees>36.51666616089642047882080078125</LatitudeDegrees>
              <LongitudeDegrees>-5.40985976345837116241455078125</LongitudeDegrees>
            </Position>
            <AltitudeMeters>264</AltitudeMeters>
            <DistanceMeters>5028.4251221302</DistanceMeters>
          </Trackpoint>
          <Trackpoint>
            <Time>2019-01-04T10:24:18.000Z</Time>
            <Position>
              <LatitudeDegrees>36.51666683144867420196533203125</LatitudeDegrees>
              <LongitudeDegrees>-5.40986311621963977813720703125</LongitudeDegrees>
            </Position>
            <AltitudeMeters>264</AltitudeMeters>
            <DistanceMeters>5028.754304325</DistanceMeters>
          </Trackpoint>
          <Trackpoint>
            <Time>2019-01-04T10:24:19.000Z</Time>
            <Position>
              <LatitudeDegrees>36.51667186059057712554931640625</LatitudeDegrees>
              <LongitudeDegrees>-5.4098688997328281402587890625</LongitudeDegrees>
            </Position>
            <AltitudeMeters>264</AltitudeMeters>
            <DistanceMeters>5029.5204341892</DistanceMeters>
          </Trackpoint>
          <Trackpoint>
            <Time>2019-01-04T10:24:20.000Z</Time>
            <Position>
              <LatitudeDegrees>36.51667303405702114105224609375</LatitudeDegrees>
              <LongitudeDegrees>-5.409873090684413909912109375</LongitudeDegrees>
            </Position>
            <AltitudeMeters>264</AltitudeMeters>
            <DistanceMeters>5029.9235983939</DistanceMeters>
          </Trackpoint>
          <Trackpoint>
            <Time>2019-01-04T10:24:21.000Z</Time>
            <Position>
              <LatitudeDegrees>36.51667655445635318756103515625</LatitudeDegrees>
              <LongitudeDegrees>-5.4098722524940967559814453125</LongitudeDegrees>
            </Position>
            <AltitudeMeters>264</AltitudeMeters>
            <DistanceMeters>5030.3267625987</DistanceMeters>
          </Trackpoint>
          <Trackpoint>
            <Time>2019-01-04T10:24:22.000Z</Time>
            <Position>
              <LatitudeDegrees>36.51668049395084381103515625</LatitudeDegrees>
              <LongitudeDegrees>-5.4098658822476863861083984375</LongitudeDegrees>
            </Position>
            <AltitudeMeters>264.20001220703125</AltitudeMeters>
            <DistanceMeters>5031.0378774142</DistanceMeters>
          </Trackpoint>
          <Trackpoint>
            <Time>2019-01-04T10:24:23.000Z</Time>
            <Position>
              <LatitudeDegrees>36.5166796557605266571044921875</LatitudeDegrees>
              <LongitudeDegrees>-5.40985574014484882354736328125</LongitudeDegrees>
            </Position>
            <AltitudeMeters>264.20001220703125</AltitudeMeters>
            <DistanceMeters>5031.9443744944</DistanceMeters>
          </Trackpoint>
          <Trackpoint>
            <Time>2019-01-04T10:24:24.000Z</Time>
            <Position>
              <LatitudeDegrees>36.5166758000850677490234375</LatitudeDegrees>
              <LongitudeDegrees>-5.4098481126129627227783203125</LongitudeDegrees>
            </Position>
            <AltitudeMeters>264.399993896484375</AltitudeMeters>
            <DistanceMeters>5032.7450838221</DistanceMeters>
          </Trackpoint>
          <Trackpoint>
            <Time>2019-01-04T10:24:25.000Z</Time>
            <Position>
              <LatitudeDegrees>36.51667554862797260284423828125</LatitudeDegrees>
              <LongitudeDegrees>-5.40984618477523326873779296875</LongitudeDegrees>
            </Position>
            <AltitudeMeters>264.399993896484375</AltitudeMeters>
            <DistanceMeters>5032.8794718904</DistanceMeters>
          </Trackpoint>
          <Trackpoint>
            <Time>2019-01-04T10:24:26.000Z</Time>
            <Position>
              <LatitudeDegrees>36.51667521335184574127197265625</LatitudeDegrees>
              <LongitudeDegrees>-5.40984635241329669952392578125</LongitudeDegrees>
            </Position>
            <AltitudeMeters>264.399993896484375</AltitudeMeters>
            <DistanceMeters>5032.8794718904</DistanceMeters>
          </Trackpoint>
          <Trackpoint>
            <Time>2019-01-04T10:24:27.000Z</Time>
            <Position>
              <LatitudeDegrees>36.51668057776987552642822265625</LatitudeDegrees>
              <LongitudeDegrees>-5.40984299965202808380126953125</LongitudeDegrees>
            </Position>
            <AltitudeMeters>264.399993896484375</AltitudeMeters>
            <DistanceMeters>5033.5514122316</DistanceMeters>
          </Trackpoint>
          <Trackpoint>
            <Time>2019-01-04T10:24:28.000Z</Time>
            <Position>
              <LatitudeDegrees>36.516685523092746734619140625</LatitudeDegrees>
              <LongitudeDegrees>-5.409851968288421630859375</LongitudeDegrees>
            </Position>
            <AltitudeMeters>264.20001220703125</AltitudeMeters>
            <DistanceMeters>5034.5204983734</DistanceMeters>
          </Trackpoint>
          <Trackpoint>
            <Time>2019-01-04T10:24:29.000Z</Time>
            <Position>
              <LatitudeDegrees>36.51668778620660305023193359375</LatitudeDegrees>
              <LongitudeDegrees>-5.4098564945161342620849609375</LongitudeDegrees>
            </Position>
            <AltitudeMeters>264.20001220703125</AltitudeMeters>
            <DistanceMeters>5034.9860322977</DistanceMeters>
          </Trackpoint>
          <Trackpoint>
            <Time>2019-01-04T10:24:30.000Z</Time>
            <Position>
              <LatitudeDegrees>36.516688875854015350341796875</LatitudeDegrees>
              <LongitudeDegrees>-5.40985934436321258544921875</LongitudeDegrees>
            </Position>
            <AltitudeMeters>264.20001220703125</AltitudeMeters>
            <DistanceMeters>5035.2548084342</DistanceMeters>
          </Trackpoint>
          <Trackpoint>
            <Time>2019-01-04T10:24:31.000Z</Time>
            <Position>
              <LatitudeDegrees>36.51668745093047618865966796875</LatitudeDegrees>
              <LongitudeDegrees>-5.40986076928675174713134765625</LongitudeDegrees>
            </Position>
            <AltitudeMeters>264.20001220703125</AltitudeMeters>
            <DistanceMeters>5035.4672946272</DistanceMeters>
          </Trackpoint>
          <Trackpoint>
            <Time>2019-01-04T10:24:32.000Z</Time>
            <Position>
              <LatitudeDegrees>36.5166836790740489959716796875</LatitudeDegrees>
              <LongitudeDegrees>-5.40986663661897182464599609375</LongitudeDegrees>
            </Position>
            <AltitudeMeters>264.20001220703125</AltitudeMeters>
            <DistanceMeters>5036.1392349684</DistanceMeters>
          </Trackpoint>
          <Trackpoint>
            <Time>2019-01-04T10:24:33.000Z</Time>
            <Position>
              <LatitudeDegrees>36.51668024249374866485595703125</LatitudeDegrees>
              <LongitudeDegrees>-5.4098695702850818634033203125</LongitudeDegrees>
            </Position>
            <AltitudeMeters>264</AltitudeMeters>
            <DistanceMeters>5036.6143685403</DistanceMeters>
          </Trackpoint>
          <Trackpoint>
            <Time>2019-01-04T10:24:34.000Z</Time>
            <Position>
              <LatitudeDegrees>36.51667856611311435699462890625</LatitudeDegrees>
              <LongitudeDegrees>-5.40986764244735240936279296875</LongitudeDegrees>
            </Position>
            <AltitudeMeters>264.399993896484375</AltitudeMeters>
            <DistanceMeters>5036.8471355024</DistanceMeters>
          </Trackpoint>
          <Trackpoint>
            <Time>2019-01-04T10:24:35.000Z</Time>
            <Position>
              <LatitudeDegrees>36.5166758000850677490234375</LatitudeDegrees>
              <LongitudeDegrees>-5.4098628647625446319580078125</LongitudeDegrees>
            </Position>
            <AltitudeMeters>264.399993896484375</AltitudeMeters>
            <DistanceMeters>5037.3676182527</DistanceMeters>
          </Trackpoint>
          <Trackpoint>
            <Time>2019-01-04T10:24:36.000Z</Time>
            <Position>
              <LatitudeDegrees>36.51666901074349880218505859375</LatitudeDegrees>
              <LongitudeDegrees>-5.40986579842865467071533203125</LongitudeDegrees>
            </Position>
            <AltitudeMeters>264.399993896484375</AltitudeMeters>
            <DistanceMeters>5038.1683275804</DistanceMeters>
          </Trackpoint>
          <Trackpoint>
            <Time>2019-01-04T10:24:37.000Z</Time>
            <Position>
              <LatitudeDegrees>36.51666448451578617095947265625</LatitudeDegrees>
              <LongitudeDegrees>-5.409865044057369232177734375</LongitudeDegrees>
            </Position>
            <AltitudeMeters>264.399993896484375</AltitudeMeters>
            <DistanceMeters>5038.6888103307</DistanceMeters>
          </Trackpoint>
          <Trackpoint>
            <Time>2019-01-04T10:24:38.000Z</Time>
            <Position>
              <LatitudeDegrees>36.5166642330586910247802734375</LatitudeDegrees>
              <LongitudeDegrees>-5.4098694026470184326171875</LongitudeDegrees>
            </Position>
            <AltitudeMeters>264.20001220703125</AltitudeMeters>
            <DistanceMeters>5039.0689171882</DistanceMeters>
          </Trackpoint>
          <Trackpoint>
            <Time>2019-01-04T10:24:39.000Z</Time>
            <Position>
              <LatitudeDegrees>36.5166665799915790557861328125</LatitudeDegrees>
              <LongitudeDegrees>-5.4098688997328281402587890625</LongitudeDegrees>
            </Position>
            <AltitudeMeters>264.20001220703125</AltitudeMeters>
            <DistanceMeters>5039.3376933247</DistanceMeters>
          </Trackpoint>
          <Trackpoint>
            <Time>2019-01-04T10:24:40.000Z</Time>
            <Position>
              <LatitudeDegrees>36.516666077077388763427734375</LatitudeDegrees>
              <LongitudeDegrees>-5.4098688997328281402587890625</LongitudeDegrees>
            </Position>
            <AltitudeMeters>264.20001220703125</AltitudeMeters>
            <DistanceMeters>5039.432720039</DistanceMeters>
          </Trackpoint>
          <Trackpoint>
            <Time>2019-01-04T10:24:41.000Z</Time>
            <Position>
              <LatitudeDegrees>36.5166665799915790557861328125</LatitudeDegrees>
              <LongitudeDegrees>-5.4098705761134624481201171875</LongitudeDegrees>
            </Position>
            <AltitudeMeters>264.20001220703125</AltitudeMeters>
            <DistanceMeters>5039.6227734678</DistanceMeters>
          </Trackpoint>
          <Trackpoint>
            <Time>2019-01-04T10:24:42.000Z</Time>
            <Position>
              <LatitudeDegrees>36.51667336933314800262451171875</LatitudeDegrees>
              <LongitudeDegrees>-5.4098692350089550018310546875</LongitudeDegrees>
            </Position>
            <AltitudeMeters>264.20001220703125</AltitudeMeters>
            <DistanceMeters>5040.388903332</DistanceMeters>
          </Trackpoint>
          <Trackpoint>
            <Time>2019-01-04T10:24:43.000Z</Time>
            <Position>
              <LatitudeDegrees>36.51667772792279720306396484375</LatitudeDegrees>
              <LongitudeDegrees>-5.40987133048474788665771484375</LongitudeDegrees>
            </Position>
            <AltitudeMeters>264</AltitudeMeters>
            <DistanceMeters>5040.9093860823</DistanceMeters>
          </Trackpoint>
          <Trackpoint>
            <Time>2019-01-04T10:24:44.000Z</Time>
            <Position>
              <LatitudeDegrees>36.51667957194149494171142578125</LatitudeDegrees>
              <LongitudeDegrees>-5.4098699055612087249755859375</LongitudeDegrees>
            </Position>
            <AltitudeMeters>264</AltitudeMeters>
            <DistanceMeters>5041.1421530444</DistanceMeters>
          </Trackpoint>
          <Trackpoint>
            <Time>2019-01-04T10:24:45.000Z</Time>
            <Position>
              <LatitudeDegrees>36.51667990721762180328369140625</LatitudeDegrees>
              <LongitudeDegrees>-5.40986529551446437835693359375</LongitudeDegrees>
            </Position>
            <AltitudeMeters>263.79998779296875</AltitudeMeters>
            <DistanceMeters>5041.5453172491</DistanceMeters>
          </Trackpoint>
          <Trackpoint>
            <Time>2019-01-04T10:24:46.000Z</Time>
            <Position>
              <LatitudeDegrees>36.5166773088276386260986328125</LatitudeDegrees>
              <LongitudeDegrees>-5.409864373505115509033203125</LongitudeDegrees>
            </Position>
            <AltitudeMeters>263.79998779296875</AltitudeMeters>
            <DistanceMeters>5041.8458181051</DistanceMeters>
          </Trackpoint>
          <Trackpoint>
            <Time>2019-01-04T10:24:47.000Z</Time>
            <Position>
              <LatitudeDegrees>36.5166732855141162872314453125</LatitudeDegrees>
              <LongitudeDegrees>-5.4098682291805744171142578125</LongitudeDegrees>
            </Position>
            <AltitudeMeters>263.600006103515625</AltitudeMeters>
            <DistanceMeters>5042.4159783913</DistanceMeters>
          </Trackpoint>
          <Trackpoint>
            <Time>2019-01-04T10:24:48.000Z</Time>
            <Position>
              <LatitudeDegrees>36.516670100390911102294921875</LatitudeDegrees>
              <LongitudeDegrees>-5.40987811982631683349609375</LongitudeDegrees>
            </Position>
            <AltitudeMeters>263.20001220703125</AltitudeMeters>
            <DistanceMeters>5043.3709850514</DistanceMeters>
          </Trackpoint>
          <Trackpoint>
            <Time>2019-01-04T10:24:49.000Z</Time>
            <Position>
              <LatitudeDegrees>36.51666750200092792510986328125</LatitudeDegrees>
              <LongitudeDegrees>-5.40988256223499774932861328125</LongitudeDegrees>
            </Position>
            <AltitudeMeters>263</AltitudeMeters>
            <DistanceMeters>5043.8555281223</DistanceMeters>
          </Trackpoint>
          <Trackpoint>
            <Time>2019-01-04T10:24:50.000Z</Time>
            <Position>
              <LatitudeDegrees>36.516663394868373870849609375</LatitudeDegrees>
              <LongitudeDegrees>-5.409884154796600341796875</LongitudeDegrees>
            </Position>
            <AltitudeMeters>264.600006103515625</AltitudeMeters>
            <DistanceMeters>5044.3306616942</DistanceMeters>
          </Trackpoint>
          <Trackpoint>
            <Time>2019-01-04T10:24:51.000Z</Time>
            <Position>
              <LatitudeDegrees>36.5166571922600269317626953125</LatitudeDegrees>
              <LongitudeDegrees>-5.4098853282630443572998046875</LongitudeDegrees>
            </Position>
            <AltitudeMeters>263.20001220703125</AltitudeMeters>
            <DistanceMeters>5045.0289625806</DistanceMeters>
          </Trackpoint>
          <Trackpoint>
            <Time>2019-01-04T10:24:52.000Z</Time>
            <Position>
              <LatitudeDegrees>36.51664855889976024627685546875</LatitudeDegrees>
              <LongitudeDegrees>-5.40988272987306118011474609375</LongitudeDegrees>
            </Position>
            <AltitudeMeters>262.399993896484375</AltitudeMeters>
            <DistanceMeters>5046.0165091648</DistanceMeters>
          </Trackpoint>
          <Trackpoint>
            <Time>2019-01-04T10:24:53.000Z</Time>
            <Position>
              <LatitudeDegrees>36.5166353993117809295654296875</LatitudeDegrees>
              <LongitudeDegrees>-5.40988348424434661865234375</LongitudeDegrees>
            </Position>
            <AltitudeMeters>262</AltitudeMeters>
            <DistanceMeters>5047.482509913</DistanceMeters>
          </Trackpoint>
          <Trackpoint>
            <Time>2019-01-04T10:24:54.000Z</Time>
            <Position>
              <LatitudeDegrees>36.516626514494419097900390625</LatitudeDegrees>
              <LongitudeDegrees>-5.40988323278725147247314453125</LongitudeDegrees>
            </Position>
            <AltitudeMeters>261.600006103515625</AltitudeMeters>
            <DistanceMeters>5048.4700564972</DistanceMeters>
          </Trackpoint>
          <Trackpoint>
            <Time>2019-01-04T10:24:55.000Z</Time>
            <Position>
              <LatitudeDegrees>36.5166223235428333282470703125</LatitudeDegrees>
              <LongitudeDegrees>-5.40988440625369548797607421875</LongitudeDegrees>
            </Position>
            <AltitudeMeters>261.20001220703125</AltitudeMeters>
            <DistanceMeters>5048.9355904214</DistanceMeters>
          </Trackpoint>
          <Trackpoint>
            <Time>2019-01-04T10:24:56.000Z</Time>
            <Position>
              <LatitudeDegrees>36.5166221559047698974609375</LatitudeDegrees>
              <LongitudeDegrees>-5.40988725610077381134033203125</LongitudeDegrees>
            </Position>
            <AltitudeMeters>260.79998779296875</AltitudeMeters>
            <DistanceMeters>5049.1683573836</DistanceMeters>
          </Trackpoint>
          <Trackpoint>
            <Time>2019-01-04T10:24:57.000Z</Time>
            <Position>
              <LatitudeDegrees>36.51662173680961132049560546875</LatitudeDegrees>
              <LongitudeDegrees>-5.40989111177623271942138671875</LongitudeDegrees>
            </Position>
            <AltitudeMeters>261</AltitudeMeters>
            <DistanceMeters>5049.4975395783</DistanceMeters>
          </Trackpoint>
          <Trackpoint>
            <Time>2019-01-04T10:24:58.000Z</Time>
            <Position>
              <LatitudeDegrees>36.51662148535251617431640625</LatitudeDegrees>
              <LongitudeDegrees>-5.40989463217556476593017578125</LongitudeDegrees>
            </Position>
            <AltitudeMeters>261</AltitudeMeters>
            <DistanceMeters>5049.7980404343</DistanceMeters>
          </Trackpoint>
          <Trackpoint>
            <Time>2019-01-04T10:24:59.000Z</Time>
            <Position>
              <LatitudeDegrees>36.51662089861929416656494140625</LatitudeDegrees>
              <LongitudeDegrees>-5.4098989069461822509765625</LongitudeDegrees>
            </Position>
            <AltitudeMeters>260.600006103515625</AltitudeMeters>
            <DistanceMeters>5050.1898456149</DistanceMeters>
          </Trackpoint>
          <Trackpoint>
            <Time>2019-01-04T10:25:00.000Z</Time>
            <Position>
              <LatitudeDegrees>36.51662156917154788970947265625</LatitudeDegrees>
              <LongitudeDegrees>-5.4099007509648799896240234375</LongitudeDegrees>
            </Position>
            <AltitudeMeters>260.399993896484375</AltitudeMeters>
            <DistanceMeters>5050.3798990436</DistanceMeters>
          </Trackpoint>
          <Trackpoint>
            <Time>2019-01-04T10:25:01.000Z</Time>
            <Position>
              <LatitudeDegrees>36.5166221559047698974609375</LatitudeDegrees>
              <LongitudeDegrees>-5.409907288849353790283203125</LongitudeDegrees>
            </Position>
            <AltitudeMeters>260</AltitudeMeters>
            <DistanceMeters>5050.9656830523</DistanceMeters>
          </Trackpoint>
          <Trackpoint>
            <Time>2019-01-04T10:25:02.000Z</Time>
            <Position>
              <LatitudeDegrees>36.51662173680961132049560546875</LatitudeDegrees>
              <LongitudeDegrees>-5.4099108092486858367919921875</LongitudeDegrees>
            </Position>
            <AltitudeMeters>259.600006103515625</AltitudeMeters>
            <DistanceMeters>5051.2661839083</DistanceMeters>
          </Trackpoint>
          <Trackpoint>
            <Time>2019-01-04T10:25:03.000Z</Time>
            <Position>
              <LatitudeDegrees>36.516619808971881866455078125</LatitudeDegrees>
              <LongitudeDegrees>-5.40991407819092273712158203125</LongitudeDegrees>
            </Position>
            <AltitudeMeters>259.20001220703125</AltitudeMeters>
            <DistanceMeters>5051.6342207905</DistanceMeters>
          </Trackpoint>
          <Trackpoint>
            <Time>2019-01-04T10:25:04.000Z</Time>
            <Position>
              <LatitudeDegrees>36.5166132710874080657958984375</LatitudeDegrees>
              <LongitudeDegrees>-5.4099175147712230682373046875</LongitudeDegrees>
            </Position>
            <AltitudeMeters>258.79998779296875</AltitudeMeters>
            <DistanceMeters>5052.4178311517</DistanceMeters>
          </Trackpoint>
          <Trackpoint>
            <Time>2019-01-04T10:25:05.000Z</Time>
            <Position>
              <LatitudeDegrees>36.5166069008409976959228515625</LatitudeDegrees>
              <LongitudeDegrees>-5.4099215380847454071044921875</LongitudeDegrees>
            </Position>
            <AltitudeMeters>258.399993896484375</AltitudeMeters>
            <DistanceMeters>5053.2128816854</DistanceMeters>
          </Trackpoint>
          <Trackpoint>
            <Time>2019-01-04T10:25:06.000Z</Time>
            <Position>
              <LatitudeDegrees>36.516602039337158203125</LatitudeDegrees>
              <LongitudeDegrees>-5.409922711551189422607421875</LongitudeDegrees>
            </Position>
            <AltitudeMeters>258.20001220703125</AltitudeMeters>
            <DistanceMeters>5053.7504339584</DistanceMeters>
          </Trackpoint>
          <Trackpoint>
            <Time>2019-01-04T10:25:07.000Z</Time>
            <Position>
              <LatitudeDegrees>36.51659508235752582550048828125</LatitudeDegrees>
              <LongitudeDegrees>-5.40992413647472858428955078125</LongitudeDegrees>
            </Position>
            <AltitudeMeters>257.79998779296875</AltitudeMeters>
            <DistanceMeters>5054.5340443196</DistanceMeters>
          </Trackpoint>
          <Trackpoint>
            <Time>2019-01-04T10:25:08.000Z</Time>
            <Position>
              <LatitudeDegrees>36.51658368296921253204345703125</LatitudeDegrees>
              <LongitudeDegrees>-5.40992815978825092315673828125</LongitudeDegrees>
            </Position>
            <AltitudeMeters>257.600006103515625</AltitudeMeters>
            <DistanceMeters>5055.8507730985</DistanceMeters>
          </Trackpoint>
          <Trackpoint>
            <Time>2019-01-04T10:25:09.000Z</Time>
            <Position>
              <LatitudeDegrees>36.51656893081963062286376953125</LatitudeDegrees>
              <LongitudeDegrees>-5.40993712842464447021484375</LongitudeDegrees>
            </Position>
            <AltitudeMeters>257.20001220703125</AltitudeMeters>
            <DistanceMeters>5057.6761766725</DistanceMeters>
          </Trackpoint>
          <Trackpoint>
            <Time>2019-01-04T10:25:10.000Z</Time>
            <Position>
              <LatitudeDegrees>36.51655577123165130615234375</LatitudeDegrees>
              <LongitudeDegrees>-5.40994358249008655548095703125</LongitudeDegrees>
            </Position>
            <AltitudeMeters>257</AltitudeMeters>
            <DistanceMeters>5059.2491486829</DistanceMeters>
          </Trackpoint>
          <Trackpoint>
            <Time>2019-01-04T10:25:11.000Z</Time>
            <Position>
              <LatitudeDegrees>36.5165455453097820281982421875</LatitudeDegrees>
              <LongitudeDegrees>-5.40994710288941860198974609375</LongitudeDegrees>
            </Position>
            <AltitudeMeters>256.600006103515625</AltitudeMeters>
            <DistanceMeters>5060.4322217359</DistanceMeters>
          </Trackpoint>
          <Trackpoint>
            <Time>2019-01-04T10:25:12.000Z</Time>
            <Position>
              <LatitudeDegrees>36.5165354870259761810302734375</LatitudeDegrees>
              <LongitudeDegrees>-5.40995028801262378692626953125</LongitudeDegrees>
            </Position>
            <AltitudeMeters>256.20001220703125</AltitudeMeters>
            <DistanceMeters>5061.588271611</DistanceMeters>
          </Trackpoint>
          <Trackpoint>
            <Time>2019-01-04T10:25:13.000Z</Time>
            <Position>
              <LatitudeDegrees>36.5165255963802337646484375</LatitudeDegrees>
              <LongitudeDegrees>-5.40995146147906780242919921875</LongitudeDegrees>
            </Position>
            <AltitudeMeters>255.8000030517578125</AltitudeMeters>
            <DistanceMeters>5062.6964640115</DistanceMeters>
          </Trackpoint>
          <Trackpoint>
            <Time>2019-01-04T10:25:14.000Z</Time>
            <Position>
              <LatitudeDegrees>36.516515873372554779052734375</LatitudeDegrees>
              <LongitudeDegrees>-5.40995213203132152557373046875</LongitudeDegrees>
            </Position>
            <AltitudeMeters>255.399993896484375</AltitudeMeters>
            <DistanceMeters>5063.7882378391</DistanceMeters>
          </Trackpoint>
          <Trackpoint>
            <Time>2019-01-04T10:25:15.000Z</Time>
            <Position>
              <LatitudeDegrees>36.51650791056454181671142578125</LatitudeDegrees>
              <LongitudeDegrees>-5.40995481424033641815185546875</LongitudeDegrees>
            </Position>
            <AltitudeMeters>255</AltitudeMeters>
            <DistanceMeters>5064.7095560174</DistanceMeters>
          </Trackpoint>
          <Trackpoint>
            <Time>2019-01-04T10:25:16.000Z</Time>
            <Position>
              <LatitudeDegrees>36.5165009535849094390869140625</LatitudeDegrees>
              <LongitudeDegrees>-5.4099507071077823638916015625</LongitudeDegrees>
            </Position>
            <AltitudeMeters>254.600006103515625</AltitudeMeters>
            <DistanceMeters>5065.5700595144</DistanceMeters>
          </Trackpoint>
          <Trackpoint>
            <Time>2019-01-04T10:25:17.000Z</Time>
            <Position>
              <LatitudeDegrees>36.5164907276630401611328125</LatitudeDegrees>
              <LongitudeDegrees>-5.4099520482122898101806640625</LongitudeDegrees>
            </Position>
            <AltitudeMeters>254.399993896484375</AltitudeMeters>
            <DistanceMeters>5066.714332683</DistanceMeters>
          </Trackpoint>
          <Trackpoint>
            <Time>2019-01-04T10:25:18.000Z</Time>
            <Position>
              <LatitudeDegrees>36.51648469269275665283203125</LatitudeDegrees>
              <LongitudeDegrees>-5.40994894690811634063720703125</LongitudeDegrees>
            </Position>
            <AltitudeMeters>254.1999969482421875</AltitudeMeters>
            <DistanceMeters>5067.4380345787</DistanceMeters>
          </Trackpoint>
          <Trackpoint>
            <Time>2019-01-04T10:25:19.000Z</Time>
            <Position>
              <LatitudeDegrees>36.51648108847439289093017578125</LatitudeDegrees>
              <LongitudeDegrees>-5.4099443368613719940185546875</LongitudeDegrees>
            </Position>
            <AltitudeMeters>254.1999969482421875</AltitudeMeters>
            <DistanceMeters>5068.0081948649</DistanceMeters>
          </Trackpoint>
          <Trackpoint>
            <Time>2019-01-04T10:25:20.000Z</Time>
            <Position>
              <LatitudeDegrees>36.5164746344089508056640625</LatitudeDegrees>
              <LongitudeDegrees>-5.409943498671054840087890625</LongitudeDegrees>
            </Position>
            <AltitudeMeters>254</AltitudeMeters>
            <DistanceMeters>5068.7318967605</DistanceMeters>
          </Trackpoint>
          <Trackpoint>
            <Time>2019-01-04T10:25:21.000Z</Time>
            <Position>
              <LatitudeDegrees>36.51646667160093784332275390625</LatitudeDegrees>
              <LongitudeDegrees>-5.409945510327816009521484375</LongitudeDegrees>
            </Position>
            <AltitudeMeters>253.8000030517578125</AltitudeMeters>
            <DistanceMeters>5069.6333993284</DistanceMeters>
          </Trackpoint>
          <Trackpoint>
            <Time>2019-01-04T10:25:22.000Z</Time>
            <Position>
              <LatitudeDegrees>36.51645896025002002716064453125</LatitudeDegrees>
              <LongitudeDegrees>-5.40995095856487751007080078125</LongitudeDegrees>
            </Position>
            <AltitudeMeters>253.600006103515625</AltitudeMeters>
            <DistanceMeters>5070.6117592331</DistanceMeters>
          </Trackpoint>
          <Trackpoint>
            <Time>2019-01-04T10:25:23.000Z</Time>
            <Position>
              <LatitudeDegrees>36.51645191945135593414306640625</LatitudeDegrees>
              <LongitudeDegrees>-5.409952215850353240966796875</LongitudeDegrees>
            </Position>
            <AltitudeMeters>253.399993896484375</AltitudeMeters>
            <DistanceMeters>5071.3953695943</DistanceMeters>
          </Trackpoint>
          <Trackpoint>
            <Time>2019-01-04T10:25:24.000Z</Time>
            <Position>
              <LatitudeDegrees>36.51644538156688213348388671875</LatitudeDegrees>
              <LongitudeDegrees>-5.40995213203132152557373046875</LongitudeDegrees>
            </Position>
            <AltitudeMeters>253</AltitudeMeters>
            <DistanceMeters>5072.1252836373</DistanceMeters>
          </Trackpoint>
          <Trackpoint>
            <Time>2019-01-04T10:25:25.000Z</Time>
            <Position>
              <LatitudeDegrees>36.5164359100162982940673828125</LatitudeDegrees>
              <LongitudeDegrees>-5.40995431132614612579345703125</LongitudeDegrees>
            </Position>
            <AltitudeMeters>252.600006103515625</AltitudeMeters>
            <DistanceMeters>5073.2003881833</DistanceMeters>
          </Trackpoint>
          <Trackpoint>
            <Time>2019-01-04T10:25:26.000Z</Time>
            <Position>
              <LatitudeDegrees>36.51642509736120700836181640625</LatitudeDegrees>
              <LongitudeDegrees>-5.40995196439325809478759765625</LongitudeDegrees>
            </Position>
            <AltitudeMeters>252.1999969482421875</AltitudeMeters>
            <DistanceMeters>5074.4247217529</DistanceMeters>
          </Trackpoint>
          <Trackpoint>
            <Time>2019-01-04T10:25:27.000Z</Time>
            <Position>
              <LatitudeDegrees>36.51641587726771831512451171875</LatitudeDegrees>
              <LongitudeDegrees>-5.409949533641338348388671875</LongitudeDegrees>
            </Position>
            <AltitudeMeters>251.8000030517578125</AltitudeMeters>
            <DistanceMeters>5075.4743261194</DistanceMeters>
          </Trackpoint>
          <Trackpoint>
            <Time>2019-01-04T10:25:28.000Z</Time>
            <Position>
              <LatitudeDegrees>36.5164077468216419219970703125</LatitudeDegrees>
              <LongitudeDegrees>-5.4099497012794017791748046875</LongitudeDegrees>
            </Position>
            <AltitudeMeters>251.399993896484375</AltitudeMeters>
            <DistanceMeters>5076.3808231996</DistanceMeters>
          </Trackpoint>
          <Trackpoint>
            <Time>2019-01-04T10:25:29.000Z</Time>
            <Position>
              <LatitudeDegrees>36.51639978401362895965576171875</LatitudeDegrees>
              <LongitudeDegrees>-5.40994877927005290985107421875</LongitudeDegrees>
            </Position>
            <AltitudeMeters>251.1999969482421875</AltitudeMeters>
            <DistanceMeters>5077.272252797</DistanceMeters>
          </Trackpoint>
          <Trackpoint>
            <Time>2019-01-04T10:25:30.000Z</Time>
            <Position>
              <LatitudeDegrees>36.51639509014785289764404296875</LatitudeDegrees>
              <LongitudeDegrees>-5.4099426604807376861572265625</LongitudeDegrees>
            </Position>
            <AltitudeMeters>251</AltitudeMeters>
            <DistanceMeters>5078.0265039594</DistanceMeters>
          </Trackpoint>
          <Trackpoint>
            <Time>2019-01-04T10:25:31.000Z</Time>
            <Position>
              <LatitudeDegrees>36.5163899771869182586669921875</LatitudeDegrees>
              <LongitudeDegrees>-5.409937798976898193359375</LongitudeDegrees>
            </Position>
            <AltitudeMeters>250.8000030517578125</AltitudeMeters>
            <DistanceMeters>5078.7439399198</DistanceMeters>
          </Trackpoint>
          <Trackpoint>
            <Time>2019-01-04T10:25:32.000Z</Time>
            <Position>
              <LatitudeDegrees>36.51638570241630077362060546875</LatitudeDegrees>
              <LongitudeDegrees>-5.40992774069309234619140625</LongitudeDegrees>
            </Position>
            <AltitudeMeters>250.600006103515625</AltitudeMeters>
            <DistanceMeters>5079.7629879025</DistanceMeters>
          </Trackpoint>
          <Trackpoint>
            <Time>2019-01-04T10:25:33.000Z</Time>
            <Position>
              <LatitudeDegrees>36.51638410985469818115234375</LatitudeDegrees>
              <LongitudeDegrees>-5.4099131561815738677978515625</LongitudeDegrees>
            </Position>
            <AltitudeMeters>250.399993896484375</AltitudeMeters>
            <DistanceMeters>5081.0797166814</DistanceMeters>
          </Trackpoint>
          <Trackpoint>
            <Time>2019-01-04T10:25:34.000Z</Time>
            <Position>
              <LatitudeDegrees>36.516382433474063873291015625</LatitudeDegrees>
              <LongitudeDegrees>-5.4099020920693874359130859375</LongitudeDegrees>
            </Position>
            <AltitudeMeters>250.1999969482421875</AltitudeMeters>
            <DistanceMeters>5082.085384898</DistanceMeters>
          </Trackpoint>
          <Trackpoint>
            <Time>2019-01-04T10:25:35.000Z</Time>
            <Position>
              <LatitudeDegrees>36.51638117618858814239501953125</LatitudeDegrees>
              <LongitudeDegrees>-5.40989697910845279693603515625</LongitudeDegrees>
            </Position>
            <AltitudeMeters>250</AltitudeMeters>
            <DistanceMeters>5082.5699279688</DistanceMeters>
          </Trackpoint>
          <Trackpoint>
            <Time>2019-01-04T10:25:36.000Z</Time>
            <Position>
              <LatitudeDegrees>36.51637136936187744140625</LatitudeDegrees>
              <LongitudeDegrees>-5.409897230565547943115234375</LongitudeDegrees>
            </Position>
            <AltitudeMeters>250</AltitudeMeters>
            <DistanceMeters>5083.6617017964</DistanceMeters>
          </Trackpoint>
          <Trackpoint>
            <Time>2019-01-04T10:25:37.000Z</Time>
            <Position>
              <LatitudeDegrees>36.51636340655386447906494140625</LatitudeDegrees>
              <LongitudeDegrees>-5.409893877804279327392578125</LongitudeDegrees>
            </Position>
            <AltitudeMeters>250</AltitudeMeters>
            <DistanceMeters>5084.6024182742</DistanceMeters>
          </Trackpoint>
          <Trackpoint>
            <Time>2019-01-04T10:25:38.000Z</Time>
            <Position>
              <LatitudeDegrees>36.51634949259459972381591796875</LatitudeDegrees>
              <LongitudeDegrees>-5.40989664383232593536376953125</LongitudeDegrees>
            </Position>
            <AltitudeMeters>249.8000030517578125</AltitudeMeters>
            <DistanceMeters>5086.1696389966</DistanceMeters>
          </Trackpoint>
          <Trackpoint>
            <Time>2019-01-04T10:25:39.000Z</Time>
            <Position>
              <LatitudeDegrees>36.51634714566171169281005859375</LatitudeDegrees>
              <LongitudeDegrees>-5.409893877804279327392578125</LongitudeDegrees>
            </Position>
            <AltitudeMeters>249.600006103515625</AltitudeMeters>
            <DistanceMeters>5086.5122626878</DistanceMeters>
          </Trackpoint>
          <Trackpoint>
            <Time>2019-01-04T10:25:40.000Z</Time>
            <Position>
              <LatitudeDegrees>36.51633960194885730743408203125</LatitudeDegrees>
              <LongitudeDegrees>-5.4098923690617084503173828125</LongitudeDegrees>
            </Position>
            <AltitudeMeters>249.600006103515625</AltitudeMeters>
            <DistanceMeters>5087.3622074598</DistanceMeters>
          </Trackpoint>
          <Trackpoint>
            <Time>2019-01-04T10:25:41.000Z</Time>
            <Position>
              <LatitudeDegrees>36.51633742265403270721435546875</LatitudeDegrees>
              <LongitudeDegrees>-5.4098876751959323883056640625</LongitudeDegrees>
            </Position>
            <AltitudeMeters>249.399993896484375</AltitudeMeters>
            <DistanceMeters>5087.8467505307</DistanceMeters>
          </Trackpoint>
          <Trackpoint>
            <Time>2019-01-04T10:25:42.000Z</Time>
            <Position>
              <LatitudeDegrees>36.51633440516889095306396484375</LatitudeDegrees>
              <LongitudeDegrees>-5.40988205932080745697021484375</LongitudeDegrees>
            </Position>
            <AltitudeMeters>249.399993896484375</AltitudeMeters>
            <DistanceMeters>5088.4477522427</DistanceMeters>
          </Trackpoint>
          <Trackpoint>
            <Time>2019-01-04T10:25:43.000Z</Time>
            <Position>
              <LatitudeDegrees>36.5163323096930980682373046875</LatitudeDegrees>
              <LongitudeDegrees>-5.40987971238791942596435546875</LongitudeDegrees>
            </Position>
            <AltitudeMeters>249.399993896484375</AltitudeMeters>
            <DistanceMeters>5088.7629201993</DistanceMeters>
          </Trackpoint>
          <Trackpoint>
            <Time>2019-01-04T10:25:44.000Z</Time>
            <Position>
              <LatitudeDegrees>36.51633189059793949127197265625</LatitudeDegrees>
              <LongitudeDegrees>-5.40987770073115825653076171875</LongitudeDegrees>
            </Position>
            <AltitudeMeters>249.1999969482421875</AltitudeMeters>
            <DistanceMeters>5088.952973628</DistanceMeters>
          </Trackpoint>
          <Trackpoint>
            <Time>2019-01-04T10:25:45.000Z</Time>
            <Position>
              <LatitudeDegrees>36.5163279511034488677978515625</LatitudeDegrees>
              <LongitudeDegrees>-5.40988038294017314910888671875</LongitudeDegrees>
            </Position>
            <AltitudeMeters>249</AltitudeMeters>
            <DistanceMeters>5089.4558077363</DistanceMeters>
          </Trackpoint>
          <Trackpoint>
            <Time>2019-01-04T10:25:46.000Z</Time>
            <Position>
              <LatitudeDegrees>36.5163299627602100372314453125</LatitudeDegrees>
              <LongitudeDegrees>-5.4098786227405071258544921875</LongitudeDegrees>
            </Position>
            <AltitudeMeters>249</AltitudeMeters>
            <DistanceMeters>5089.7408878794</DistanceMeters>
          </Trackpoint>
          <Trackpoint>
            <Time>2019-01-04T10:25:47.000Z</Time>
            <Position>
              <LatitudeDegrees>36.5163256041705608367919921875</LatitudeDegrees>
              <LongitudeDegrees>-5.40988021530210971832275390625</LongitudeDegrees>
            </Position>
            <AltitudeMeters>248.8000030517578125</AltitudeMeters>
            <DistanceMeters>5090.2346611715</DistanceMeters>
          </Trackpoint>
          <Trackpoint>
            <Time>2019-01-04T10:25:48.000Z</Time>
            <Position>
              <LatitudeDegrees>36.51632216759026050567626953125</LatitudeDegrees>
              <LongitudeDegrees>-5.40987820364534854888916015625</LongitudeDegrees>
            </Position>
            <AltitudeMeters>248.600006103515625</AltitudeMeters>
            <DistanceMeters>5090.6596335575</DistanceMeters>
          </Trackpoint>
          <Trackpoint>
            <Time>2019-01-04T10:25:49.000Z</Time>
            <Position>
              <LatitudeDegrees>36.5163202397525310516357421875</LatitudeDegrees>
              <LongitudeDegrees>-5.40987619198858737945556640625</LongitudeDegrees>
            </Position>
            <AltitudeMeters>248.399993896484375</AltitudeMeters>
            <DistanceMeters>5090.9447137006</DistanceMeters>
          </Trackpoint>
          <Trackpoint>
            <Time>2019-01-04T10:25:50.000Z</Time>
            <Position>
              <LatitudeDegrees>36.51631705462932586669921875</LatitudeDegrees>
              <LongitudeDegrees>-5.409873090684413909912109375</LongitudeDegrees>
            </Position>
            <AltitudeMeters>248.1999969482421875</AltitudeMeters>
            <DistanceMeters>5091.3801808123</DistanceMeters>
          </Trackpoint>
          <Trackpoint>
            <Time>2019-01-04T10:25:51.000Z</Time>
            <Position>
              <LatitudeDegrees>36.51631462387740612030029296875</LatitudeDegrees>
              <LongitudeDegrees>-5.40987141430377960205078125</LongitudeDegrees>
            </Position>
            <AltitudeMeters>248</AltitudeMeters>
            <DistanceMeters>5091.6953487689</DistanceMeters>
          </Trackpoint>
          <Trackpoint>
            <Time>2019-01-04T10:25:52.000Z</Time>
            <Position>
              <LatitudeDegrees>36.51631345041096210479736328125</LatitudeDegrees>
              <LongitudeDegrees>-5.4098745994269847869873046875</LongitudeDegrees>
            </Position>
            <AltitudeMeters>247.8000030517578125</AltitudeMeters>
            <DistanceMeters>5092.0245309636</DistanceMeters>
          </Trackpoint>
          <Trackpoint>
            <Time>2019-01-04T10:25:53.000Z</Time>
            <Position>
              <LatitudeDegrees>36.51631009764969348907470703125</LatitudeDegrees>
              <LongitudeDegrees>-5.40987149812281131744384765625</LongitudeDegrees>
            </Position>
            <AltitudeMeters>247.8000030517578125</AltitudeMeters>
            <DistanceMeters>5092.4900648879</DistanceMeters>
          </Trackpoint>
          <Trackpoint>
            <Time>2019-01-04T10:25:54.000Z</Time>
            <Position>
              <LatitudeDegrees>36.5163051523268222808837890625</LatitudeDegrees>
              <LongitudeDegrees>-5.409868396818637847900390625</LongitudeDegrees>
            </Position>
            <AltitudeMeters>247.8000030517578125</AltitudeMeters>
            <DistanceMeters>5093.1059083831</DistanceMeters>
          </Trackpoint>
          <Trackpoint>
            <Time>2019-01-04T10:25:55.000Z</Time>
            <Position>
              <LatitudeDegrees>36.516295932233333587646484375</LatitudeDegrees>
              <LongitudeDegrees>-5.4098662175238132476806640625</LongitudeDegrees>
            </Position>
            <AltitudeMeters>247.600006103515625</AltitudeMeters>
            <DistanceMeters>5094.1555127496</DistanceMeters>
          </Trackpoint>
          <Trackpoint>
            <Time>2019-01-04T10:25:56.000Z</Time>
            <Position>
              <LatitudeDegrees>36.516291238367557525634765625</LatitudeDegrees>
              <LongitudeDegrees>-5.409861020743846893310546875</LongitudeDegrees>
            </Position>
            <AltitudeMeters>247.600006103515625</AltitudeMeters>
            <DistanceMeters>5094.860249725</DistanceMeters>
          </Trackpoint>
          <Trackpoint>
            <Time>2019-01-04T10:25:57.000Z</Time>
            <Position>
              <LatitudeDegrees>36.5162860415875911712646484375</LatitudeDegrees>
              <LongitudeDegrees>-5.4098447598516941070556640625</LongitudeDegrees>
            </Position>
            <AltitudeMeters>247.399993896484375</AltitudeMeters>
            <DistanceMeters>5096.4274704474</DistanceMeters>
          </Trackpoint>
          <Trackpoint>
            <Time>2019-01-04T10:25:58.000Z</Time>
            <Position>
              <LatitudeDegrees>36.51628352701663970947265625</LatitudeDegrees>
              <LongitudeDegrees>-5.409836210310459136962890625</LongitudeDegrees>
            </Position>
            <AltitudeMeters>247.399993896484375</AltitudeMeters>
            <DistanceMeters>5097.2449211535</DistanceMeters>
          </Trackpoint>
          <Trackpoint>
            <Time>2019-01-04T10:25:59.000Z</Time>
            <Position>
              <LatitudeDegrees>36.51628218591213226318359375</LatitudeDegrees>
              <LongitudeDegrees>-5.40983260609209537506103515625</LongitudeDegrees>
            </Position>
            <AltitudeMeters>247.399993896484375</AltitudeMeters>
            <DistanceMeters>5097.6004785612</DistanceMeters>
          </Trackpoint>
          <Trackpoint>
            <Time>2019-01-04T10:26:00.000Z</Time>
            <Position>
              <LatitudeDegrees>36.51628059335052967071533203125</LatitudeDegrees>
              <LongitudeDegrees>-5.40983076207339763641357421875</LongitudeDegrees>
            </Position>
            <AltitudeMeters>247.399993896484375</AltitudeMeters>
            <DistanceMeters>5097.8332455234</DistanceMeters>
          </Trackpoint>
          <Trackpoint>
            <Time>2019-01-04T10:26:01.000Z</Time>
            <Position>
              <LatitudeDegrees>36.51628076098859310150146484375</LatitudeDegrees>
              <LongitudeDegrees>-5.40983076207339763641357421875</LongitudeDegrees>
            </Position>
            <AltitudeMeters>247.399993896484375</AltitudeMeters>
            <DistanceMeters>5097.8332455234</DistanceMeters>
          </Trackpoint>
          <Trackpoint>
            <Time>2019-01-04T10:26:02.000Z</Time>
            <Position>
              <LatitudeDegrees>36.51627950370311737060546875</LatitudeDegrees>
              <LongitudeDegrees>-5.40982849895954132080078125</LongitudeDegrees>
            </Position>
            <AltitudeMeters>247.399993896484375</AltitudeMeters>
            <DistanceMeters>5098.1020216599</DistanceMeters>
          </Trackpoint>
          <Trackpoint>
            <Time>2019-01-04T10:26:03.000Z</Time>
            <Position>
              <LatitudeDegrees>36.51627891696989536285400390625</LatitudeDegrees>
              <LongitudeDegrees>-5.40982715785503387451171875</LongitudeDegrees>
            </Position>
            <AltitudeMeters>247.600006103515625</AltitudeMeters>
            <DistanceMeters>5098.2364097281</DistanceMeters>
          </Trackpoint>
          <Trackpoint>
            <Time>2019-01-04T10:26:04.000Z</Time>
            <Position>
              <LatitudeDegrees>36.516277827322483062744140625</LatitudeDegrees>
              <LongitudeDegrees>-5.409824140369892120361328125</LongitudeDegrees>
            </Position>
            <AltitudeMeters>247.8000030517578125</AltitudeMeters>
            <DistanceMeters>5098.5369105841</DistanceMeters>
          </Trackpoint>
          <Trackpoint>
            <Time>2019-01-04T10:26:05.000Z</Time>
            <Position>
              <LatitudeDegrees>36.51627472601830959320068359375</LatitudeDegrees>
              <LongitudeDegrees>-5.409822799265384674072265625</LongitudeDegrees>
            </Position>
            <AltitudeMeters>247.8000030517578125</AltitudeMeters>
            <DistanceMeters>5098.8795342753</DistanceMeters>
          </Trackpoint>
          <Trackpoint>
            <Time>2019-01-04T10:26:06.000Z</Time>
            <Position>
              <LatitudeDegrees>36.5162696130573749542236328125</LatitudeDegrees>
              <LongitudeDegrees>-5.40982925333082675933837890625</LongitudeDegrees>
            </Position>
            <AltitudeMeters>248</AltitudeMeters>
            <DistanceMeters>5099.6858626848</DistanceMeters>
          </Trackpoint>
          <Trackpoint>
            <Time>2019-01-04T10:26:07.000Z</Time>
            <Position>
              <LatitudeDegrees>36.51626651175320148468017578125</LatitudeDegrees>
              <LongitudeDegrees>-5.40982305072247982025146484375</LongitudeDegrees>
            </Position>
            <AltitudeMeters>248</AltitudeMeters>
            <DistanceMeters>5100.3303652189</DistanceMeters>
          </Trackpoint>
          <Trackpoint>
            <Time>2019-01-04T10:26:08.000Z</Time>
            <Position>
              <LatitudeDegrees>36.51626181788742542266845703125</LatitudeDegrees>
              <LongitudeDegrees>-5.40981433354318141937255859375</LongitudeDegrees>
            </Position>
            <AltitudeMeters>248.1999969482421875</AltitudeMeters>
            <DistanceMeters>5101.2662698161</DistanceMeters>
          </Trackpoint>
          <Trackpoint>
            <Time>2019-01-04T10:26:09.000Z</Time>
            <Position>
              <LatitudeDegrees>36.5162555314600467681884765625</LatitudeDegrees>
              <LongitudeDegrees>-5.40981567464768886566162109375</LongitudeDegrees>
            </Position>
            <AltitudeMeters>248.1999969482421875</AltitudeMeters>
            <DistanceMeters>5101.9773846316</DistanceMeters>
          </Trackpoint>
          <Trackpoint>
            <Time>2019-01-04T10:26:10.000Z</Time>
            <Position>
              <LatitudeDegrees>36.516246311366558074951171875</LatitudeDegrees>
              <LongitudeDegrees>-5.409821458160877227783203125</LongitudeDegrees>
            </Position>
            <AltitudeMeters>248</AltitudeMeters>
            <DistanceMeters>5103.1295223131</DistanceMeters>
          </Trackpoint>
          <Trackpoint>
            <Time>2019-01-04T10:26:11.000Z</Time>
            <Position>
              <LatitudeDegrees>36.51624019257724285125732421875</LatitudeDegrees>
              <LongitudeDegrees>-5.4098303429782390594482421875</LongitudeDegrees>
            </Position>
            <AltitudeMeters>247.600006103515625</AltitudeMeters>
            <DistanceMeters>5104.1791266796</DistanceMeters>
          </Trackpoint>
          <Trackpoint>
            <Time>2019-01-04T10:26:12.000Z</Time>
            <Position>
              <LatitudeDegrees>36.51623449288308620452880859375</LatitudeDegrees>
              <LongitudeDegrees>-5.40983646176755428314208984375</LongitudeDegrees>
            </Position>
            <AltitudeMeters>247.1999969482421875</AltitudeMeters>
            <DistanceMeters>5105.0129827141</DistanceMeters>
          </Trackpoint>
          <Trackpoint>
            <Time>2019-01-04T10:26:13.000Z</Time>
            <Position>
              <LatitudeDegrees>36.51622854173183441162109375</LatitudeDegrees>
              <LongitudeDegrees>-5.4098420776426792144775390625</LongitudeDegrees>
            </Position>
            <AltitudeMeters>247</AltitudeMeters>
            <DistanceMeters>5105.8414064038</DistanceMeters>
          </Trackpoint>
          <Trackpoint>
            <Time>2019-01-04T10:26:14.000Z</Time>
            <Position>
              <LatitudeDegrees>36.51622527278959751129150390625</LatitudeDegrees>
              <LongitudeDegrees>-5.40984953753650188446044921875</LongitudeDegrees>
            </Position>
            <AltitudeMeters>246.8000030517578125</AltitudeMeters>
            <DistanceMeters>5106.6016201188</DistanceMeters>
          </Trackpoint>
          <Trackpoint>
            <Time>2019-01-04T10:26:15.000Z</Time>
            <Position>
              <LatitudeDegrees>36.516222842037677764892578125</LatitudeDegrees>
              <LongitudeDegrees>-5.40986060164868831634521484375</LongitudeDegrees>
            </Position>
            <AltitudeMeters>246.1999969482421875</AltitudeMeters>
            <DistanceMeters>5107.6250891547</DistanceMeters>
          </Trackpoint>
          <Trackpoint>
            <Time>2019-01-04T10:26:16.000Z</Time>
            <Position>
              <LatitudeDegrees>36.5162246860563755035400390625</LatitudeDegrees>
              <LongitudeDegrees>-5.409866385161876678466796875</LongitudeDegrees>
            </Position>
            <AltitudeMeters>245.8000030517578125</AltitudeMeters>
            <DistanceMeters>5108.1791853549</DistanceMeters>
          </Trackpoint>
          <Trackpoint>
            <Time>2019-01-04T10:26:17.000Z</Time>
            <Position>
              <LatitudeDegrees>36.516223847866058349609375</LatitudeDegrees>
              <LongitudeDegrees>-5.40987007319927215576171875</LongitudeDegrees>
            </Position>
            <AltitudeMeters>245.1999969482421875</AltitudeMeters>
            <DistanceMeters>5108.5218090461</DistanceMeters>
          </Trackpoint>
          <Trackpoint>
            <Time>2019-01-04T10:26:18.000Z</Time>
            <Position>
              <LatitudeDegrees>36.51622158475220203399658203125</LatitudeDegrees>
              <LongitudeDegrees>-5.409873425960540771484375</LongitudeDegrees>
            </Position>
            <AltitudeMeters>245</AltitudeMeters>
            <DistanceMeters>5108.9136142267</DistanceMeters>
          </Trackpoint>
          <Trackpoint>
            <Time>2019-01-04T10:26:19.000Z</Time>
            <Position>
              <LatitudeDegrees>36.51621873490512371063232421875</LatitudeDegrees>
              <LongitudeDegrees>-5.40987451560795307159423828125</LongitudeDegrees>
            </Position>
            <AltitudeMeters>244.8000030517578125</AltitudeMeters>
            <DistanceMeters>5109.2427964215</DistanceMeters>
          </Trackpoint>
          <Trackpoint>
            <Time>2019-01-04T10:26:20.000Z</Time>
            <Position>
              <LatitudeDegrees>36.51621110737323760986328125</LatitudeDegrees>
              <LongitudeDegrees>-5.4098772816359996795654296875</LongitudeDegrees>
            </Position>
            <AltitudeMeters>244.600006103515625</AltitudeMeters>
            <DistanceMeters>5110.1240379174</DistanceMeters>
          </Trackpoint>
          <Trackpoint>
            <Time>2019-01-04T10:26:21.000Z</Time>
            <Position>
              <LatitudeDegrees>36.5162042342126369476318359375</LatitudeDegrees>
              <LongitudeDegrees>-5.409879125654697418212890625</LongitudeDegrees>
            </Position>
            <AltitudeMeters>244.399993896484375</AltitudeMeters>
            <DistanceMeters>5110.9076482786</DistanceMeters>
          </Trackpoint>
          <Trackpoint>
            <Time>2019-01-04T10:26:22.000Z</Time>
            <Position>
              <LatitudeDegrees>36.516196690499782562255859375</LatitudeDegrees>
              <LongitudeDegrees>-5.409877784550189971923828125</LongitudeDegrees>
            </Position>
            <AltitudeMeters>244</AltitudeMeters>
            <DistanceMeters>5111.7575930507</DistanceMeters>
          </Trackpoint>
          <Trackpoint>
            <Time>2019-01-04T10:26:23.000Z</Time>
            <Position>
              <LatitudeDegrees>36.51619208045303821563720703125</LatitudeDegrees>
              <LongitudeDegrees>-5.409875102341175079345703125</LongitudeDegrees>
            </Position>
            <AltitudeMeters>243.8000030517578125</AltitudeMeters>
            <DistanceMeters>5112.3277533369</DistanceMeters>
          </Trackpoint>
          <Trackpoint>
            <Time>2019-01-04T10:26:24.000Z</Time>
            <Position>
              <LatitudeDegrees>36.5161904878914356231689453125</LatitudeDegrees>
              <LongitudeDegrees>-5.4098772816359996795654296875</LongitudeDegrees>
            </Position>
            <AltitudeMeters>243.399993896484375</AltitudeMeters>
            <DistanceMeters>5112.5965294734</DistanceMeters>
          </Trackpoint>
          <Trackpoint>
            <Time>2019-01-04T10:26:25.000Z</Time>
            <Position>
              <LatitudeDegrees>36.51619233191013336181640625</LatitudeDegrees>
              <LongitudeDegrees>-5.40988725610077381134033203125</LongitudeDegrees>
            </Position>
            <AltitudeMeters>243</AltitudeMeters>
            <DistanceMeters>5113.507993698</DistanceMeters>
          </Trackpoint>
          <Trackpoint>
            <Time>2019-01-04T10:26:26.000Z</Time>
            <Position>
              <LatitudeDegrees>36.51618897914886474609375</LatitudeDegrees>
              <LongitudeDegrees>-5.40989345870912075042724609375</LongitudeDegrees>
            </Position>
            <AltitudeMeters>242.8000030517578125</AltitudeMeters>
            <DistanceMeters>5114.1731806986</DistanceMeters>
          </Trackpoint>
          <Trackpoint>
            <Time>2019-01-04T10:26:27.000Z</Time>
            <Position>
              <LatitudeDegrees>36.51618621312081813812255859375</LatitudeDegrees>
              <LongitudeDegrees>-5.4098950512707233428955078125</LongitudeDegrees>
            </Position>
            <AltitudeMeters>242.399993896484375</AltitudeMeters>
            <DistanceMeters>5114.5287381064</DistanceMeters>
          </Trackpoint>
          <Trackpoint>
            <Time>2019-01-04T10:26:28.000Z</Time>
            <Position>
              <LatitudeDegrees>36.5161864645779132843017578125</LatitudeDegrees>
              <LongitudeDegrees>-5.40990284644067287445068359375</LongitudeDegrees>
            </Position>
            <AltitudeMeters>242.1999969482421875</AltitudeMeters>
            <DistanceMeters>5115.2270389928</DistanceMeters>
          </Trackpoint>
          <Trackpoint>
            <Time>2019-01-04T10:26:29.000Z</Time>
            <Position>
              <LatitudeDegrees>36.51618503965437412261962890625</LatitudeDegrees>
              <LongitudeDegrees>-5.409909300506114959716796875</LongitudeDegrees>
            </Position>
            <AltitudeMeters>242</AltitudeMeters>
            <DistanceMeters>5115.8204806338</DistanceMeters>
          </Trackpoint>
          <Trackpoint>
            <Time>2019-01-04T10:26:30.000Z</Time>
            <Position>
              <LatitudeDegrees>36.51617984287440776824951171875</LatitudeDegrees>
              <LongitudeDegrees>-5.409911982715129852294921875</LongitudeDegrees>
            </Position>
            <AltitudeMeters>241.8000030517578125</AltitudeMeters>
            <DistanceMeters>5116.4436124715</DistanceMeters>
          </Trackpoint>
          <Trackpoint>
            <Time>2019-01-04T10:26:31.000Z</Time>
            <Position>
              <LatitudeDegrees>36.516172550618648529052734375</LatitudeDegrees>
              <LongitudeDegrees>-5.40991365909576416015625</LongitudeDegrees>
            </Position>
            <AltitudeMeters>241.600006103515625</AltitudeMeters>
            <DistanceMeters>5117.2720361612</DistanceMeters>
          </Trackpoint>
          <Trackpoint>
            <Time>2019-01-04T10:26:32.000Z</Time>
            <Position>
              <LatitudeDegrees>36.51616282761096954345703125</LatitudeDegrees>
              <LongitudeDegrees>-5.40991726331412792205810546875</LongitudeDegrees>
            </Position>
            <AltitudeMeters>241.399993896484375</AltitudeMeters>
            <DistanceMeters>5118.404410152</DistanceMeters>
          </Trackpoint>
          <Trackpoint>
            <Time>2019-01-04T10:26:33.000Z</Time>
            <Position>
              <LatitudeDegrees>36.5161569602787494659423828125</LatitudeDegrees>
              <LongitudeDegrees>-5.409921705722808837890625</LongitudeDegrees>
            </Position>
            <AltitudeMeters>241</AltitudeMeters>
            <DistanceMeters>5119.164623867</DistanceMeters>
          </Trackpoint>
          <Trackpoint>
            <Time>2019-01-04T10:26:34.000Z</Time>
            <Position>
              <LatitudeDegrees>36.516156457364559173583984375</LatitudeDegrees>
              <LongitudeDegrees>-5.40992430411279201507568359375</LongitudeDegrees>
            </Position>
            <AltitudeMeters>240.600006103515625</AltitudeMeters>
            <DistanceMeters>5119.3973908291</DistanceMeters>
          </Trackpoint>
          <Trackpoint>
            <Time>2019-01-04T10:26:35.000Z</Time>
            <Position>
              <LatitudeDegrees>36.51615679264068603515625</LatitudeDegrees>
              <LongitudeDegrees>-5.40992765687406063079833984375</LongitudeDegrees>
            </Position>
            <AltitudeMeters>240.1999969482421875</AltitudeMeters>
            <DistanceMeters>5119.6978916851</DistanceMeters>
          </Trackpoint>
          <Trackpoint>
            <Time>2019-01-04T10:26:36.000Z</Time>
            <Position>
              <LatitudeDegrees>36.51615838520228862762451171875</LatitudeDegrees>
              <LongitudeDegrees>-5.40993042290210723876953125</LongitudeDegrees>
            </Position>
            <AltitudeMeters>240</AltitudeMeters>
            <DistanceMeters>5119.9983925411</DistanceMeters>
          </Trackpoint>
          <Trackpoint>
            <Time>2019-01-04T10:26:37.000Z</Time>
            <Position>
              <LatitudeDegrees>36.51615939103066921234130859375</LatitudeDegrees>
              <LongitudeDegrees>-5.40993453003466129302978515625</LongitudeDegrees>
            </Position>
            <AltitudeMeters>239.8000030517578125</AltitudeMeters>
            <DistanceMeters>5120.3784993986</DistanceMeters>
          </Trackpoint>
          <Trackpoint>
            <Time>2019-01-04T10:26:38.000Z</Time>
            <Position>
              <LatitudeDegrees>36.516156457364559173583984375</LatitudeDegrees>
              <LongitudeDegrees>-5.409937798976898193359375</LongitudeDegrees>
            </Position>
            <AltitudeMeters>239.600006103515625</AltitudeMeters>
            <DistanceMeters>5120.8139665102</DistanceMeters>
          </Trackpoint>
          <Trackpoint>
            <Time>2019-01-04T10:26:39.000Z</Time>
            <Position>
              <LatitudeDegrees>36.51615235023200511932373046875</LatitudeDegrees>
              <LongitudeDegrees>-5.40994291193783283233642578125</LongitudeDegrees>
            </Position>
            <AltitudeMeters>239.399993896484375</AltitudeMeters>
            <DistanceMeters>5121.4584690443</DistanceMeters>
          </Trackpoint>
          <Trackpoint>
            <Time>2019-01-04T10:26:40.000Z</Time>
            <Position>
              <LatitudeDegrees>36.51614966802299022674560546875</LatitudeDegrees>
              <LongitudeDegrees>-5.4099463485181331634521484375</LongitudeDegrees>
            </Position>
            <AltitudeMeters>239</AltitudeMeters>
            <DistanceMeters>5121.8726808892</DistanceMeters>
          </Trackpoint>
          <Trackpoint>
            <Time>2019-01-04T10:26:41.000Z</Time>
            <Position>
              <LatitudeDegrees>36.51614933274686336517333984375</LatitudeDegrees>
              <LongitudeDegrees>-5.40994542650878429412841796875</LongitudeDegrees>
            </Position>
            <AltitudeMeters>238.8000030517578125</AltitudeMeters>
            <DistanceMeters>5121.9677076035</DistanceMeters>
          </Trackpoint>
          <Trackpoint>
            <Time>2019-01-04T10:26:42.000Z</Time>
            <Position>
              <LatitudeDegrees>36.51614882983267307281494140625</LatitudeDegrees>
              <LongitudeDegrees>-5.4099466837942600250244140625</LongitudeDegrees>
            </Position>
            <AltitudeMeters>238.600006103515625</AltitudeMeters>
            <DistanceMeters>5122.0627343179</DistanceMeters>
          </Trackpoint>
          <Trackpoint>
            <Time>2019-01-04T10:26:43.000Z</Time>
            <Position>
              <LatitudeDegrees>36.51615000329911708831787109375</LatitudeDegrees>
              <LongitudeDegrees>-5.40994525887072086334228515625</LongitudeDegrees>
            </Position>
            <AltitudeMeters>238.399993896484375</AltitudeMeters>
            <DistanceMeters>5122.2527877466</DistanceMeters>
          </Trackpoint>
          <Trackpoint>
            <Time>2019-01-04T10:26:44.000Z</Time>
            <Position>
              <LatitudeDegrees>36.5161462314426898956298828125</LatitudeDegrees>
              <LongitudeDegrees>-5.40994651615619659423828125</LongitudeDegrees>
            </Position>
            <AltitudeMeters>238.1999969482421875</AltitudeMeters>
            <DistanceMeters>5122.6882548583</DistanceMeters>
          </Trackpoint>
          <Trackpoint>
            <Time>2019-01-04T10:26:45.000Z</Time>
            <Position>
              <LatitudeDegrees>36.51614095084369182586669921875</LatitudeDegrees>
              <LongitudeDegrees>-5.409948192536830902099609375</LongitudeDegrees>
            </Position>
            <AltitudeMeters>238.1999969482421875</AltitudeMeters>
            <DistanceMeters>5123.3040983535</DistanceMeters>
          </Trackpoint>
          <Trackpoint>
            <Time>2019-01-04T10:26:46.000Z</Time>
            <Position>
              <LatitudeDegrees>36.516138017177581787109375</LatitudeDegrees>
              <LongitudeDegrees>-5.40994928218424320220947265625</LongitudeDegrees>
            </Position>
            <AltitudeMeters>238</AltitudeMeters>
            <DistanceMeters>5123.6467220447</DistanceMeters>
          </Trackpoint>
          <Trackpoint>
            <Time>2019-01-04T10:26:47.000Z</Time>
            <Position>
              <LatitudeDegrees>36.51613332331180572509765625</LatitudeDegrees>
              <LongitudeDegrees>-5.40995062328875064849853515625</LongitudeDegrees>
            </Position>
            <AltitudeMeters>237.600006103515625</AltitudeMeters>
            <DistanceMeters>5124.1842743177</DistanceMeters>
          </Trackpoint>
          <Trackpoint>
            <Time>2019-01-04T10:26:48.000Z</Time>
            <Position>
              <LatitudeDegrees>36.51612888090312480926513671875</LatitudeDegrees>
              <LongitudeDegrees>-5.40995053946971893310546875</LongitudeDegrees>
            </Position>
            <AltitudeMeters>237.399993896484375</AltitudeMeters>
            <DistanceMeters>5124.6780476098</DistanceMeters>
          </Trackpoint>
          <Trackpoint>
            <Time>2019-01-04T10:26:49.000Z</Time>
            <Position>
              <LatitudeDegrees>36.51612569577991962432861328125</LatitudeDegrees>
              <LongitudeDegrees>-5.40995112620294094085693359375</LongitudeDegrees>
            </Position>
            <AltitudeMeters>237</AltitudeMeters>
            <DistanceMeters>5125.0336050176</DistanceMeters>
          </Trackpoint>
          <Trackpoint>
            <Time>2019-01-04T10:26:50.000Z</Time>
            <Position>
              <LatitudeDegrees>36.5161200799047946929931640625</LatitudeDegrees>
              <LongitudeDegrees>-5.40995280258357524871826171875</LongitudeDegrees>
            </Position>
            <AltitudeMeters>236.8000030517578125</AltitudeMeters>
            <DistanceMeters>5125.6781075517</DistanceMeters>
          </Trackpoint>
          <Trackpoint>
            <Time>2019-01-04T10:26:51.000Z</Time>
            <Position>
              <LatitudeDegrees>36.5161147154867649078369140625</LatitudeDegrees>
              <LongitudeDegrees>-5.4099510423839092254638671875</LongitudeDegrees>
            </Position>
            <AltitudeMeters>236.399993896484375</AltitudeMeters>
            <DistanceMeters>5126.2939510469</DistanceMeters>
          </Trackpoint>
          <Trackpoint>
            <Time>2019-01-04T10:26:52.000Z</Time>
            <Position>
              <LatitudeDegrees>36.51610775850713253021240234375</LatitudeDegrees>
              <LongitudeDegrees>-5.40994944982230663299560546875</LongitudeDegrees>
            </Position>
            <AltitudeMeters>236.1999969482421875</AltitudeMeters>
            <DistanceMeters>5127.0775614081</DistanceMeters>
          </Trackpoint>
          <Trackpoint>
            <Time>2019-01-04T10:26:53.000Z</Time>
            <Position>
              <LatitudeDegrees>36.5161016397178173065185546875</LatitudeDegrees>
              <LongitudeDegrees>-5.40994961746037006378173828125</LongitudeDegrees>
            </Position>
            <AltitudeMeters>236</AltitudeMeters>
            <DistanceMeters>5127.7628087905</DistanceMeters>
          </Trackpoint>
          <Trackpoint>
            <Time>2019-01-04T10:26:54.000Z</Time>
            <Position>
              <LatitudeDegrees>36.51609711349010467529296875</LatitudeDegrees>
              <LongitudeDegrees>-5.4099520482122898101806640625</LongitudeDegrees>
            </Position>
            <AltitudeMeters>235.8000030517578125</AltitudeMeters>
            <DistanceMeters>5128.3169049907</DistanceMeters>
          </Trackpoint>
          <Trackpoint>
            <Time>2019-01-04T10:26:55.000Z</Time>
            <Position>
              <LatitudeDegrees>36.51609283871948719024658203125</LatitudeDegrees>
              <LongitudeDegrees>-5.4099523834884166717529296875</LongitudeDegrees>
            </Position>
            <AltitudeMeters>235.399993896484375</AltitudeMeters>
            <DistanceMeters>5128.7920385626</DistanceMeters>
          </Trackpoint>
          <Trackpoint>
            <Time>2019-01-04T10:26:56.000Z</Time>
            <Position>
              <LatitudeDegrees>36.51609040796756744384765625</LatitudeDegrees>
              <LongitudeDegrees>-5.409959256649017333984375</LongitudeDegrees>
            </Position>
            <AltitudeMeters>235.1999969482421875</AltitudeMeters>
            <DistanceMeters>5129.4639789038</DistanceMeters>
          </Trackpoint>
          <Trackpoint>
            <Time>2019-01-04T10:26:57.000Z</Time>
            <Position>
              <LatitudeDegrees>36.51609116233885288238525390625</LatitudeDegrees>
              <LongitudeDegrees>-5.40996554307639598846435546875</LongitudeDegrees>
            </Position>
            <AltitudeMeters>235</AltitudeMeters>
            <DistanceMeters>5130.0341391901</DistanceMeters>
          </Trackpoint>
          <Trackpoint>
            <Time>2019-01-04T10:26:58.000Z</Time>
            <Position>
              <LatitudeDegrees>36.5160909108817577362060546875</LatitudeDegrees>
              <LongitudeDegrees>-5.40997643955051898956298828125</LongitudeDegrees>
            </Position>
            <AltitudeMeters>234.8000030517578125</AltitudeMeters>
            <DistanceMeters>5131.0124990947</DistanceMeters>
          </Trackpoint>
          <Trackpoint>
            <Time>2019-01-04T10:26:59.000Z</Time>
            <Position>
              <LatitudeDegrees>36.51609334163367748260498046875</LatitudeDegrees>
              <LongitudeDegrees>-5.4099901020526885986328125</LongitudeDegrees>
            </Position>
            <AltitudeMeters>234.600006103515625</AltitudeMeters>
            <DistanceMeters>5132.262380379</DistanceMeters>
          </Trackpoint>
          <Trackpoint>
            <Time>2019-01-04T10:27:00.000Z</Time>
            <Position>
              <LatitudeDegrees>36.51609803549945354461669921875</LatitudeDegrees>
              <LongitudeDegrees>-5.410001836717128753662109375</LongitudeDegrees>
            </Position>
            <AltitudeMeters>234.600006103515625</AltitudeMeters>
            <DistanceMeters>5133.4339483964</DistanceMeters>
          </Trackpoint>
          <Trackpoint>
            <Time>2019-01-04T10:27:01.000Z</Time>
            <Position>
              <LatitudeDegrees>36.516096107661724090576171875</LatitudeDegrees>
              <LongitudeDegrees>-5.41001583449542522430419921875</LongitudeDegrees>
            </Position>
            <AltitudeMeters>234.399993896484375</AltitudeMeters>
            <DistanceMeters>5134.7053191856</DistanceMeters>
          </Trackpoint>
          <Trackpoint>
            <Time>2019-01-04T10:27:02.000Z</Time>
            <Position>
              <LatitudeDegrees>36.516088731586933135986328125</LatitudeDegrees>
              <LongitudeDegrees>-5.41002522222697734832763671875</LongitudeDegrees>
            </Position>
            <AltitudeMeters>234.1999969482421875</AltitudeMeters>
            <DistanceMeters>5135.8807347274</DistanceMeters>
          </Trackpoint>
          <Trackpoint>
            <Time>2019-01-04T10:27:03.000Z</Time>
            <Position>
              <LatitudeDegrees>36.51608026586472988128662109375</LatitudeDegrees>
              <LongitudeDegrees>-5.41003108955919742584228515625</LongitudeDegrees>
            </Position>
            <AltitudeMeters>234.1999969482421875</AltitudeMeters>
            <DistanceMeters>5136.96003073</DistanceMeters>
          </Trackpoint>
          <Trackpoint>
            <Time>2019-01-04T10:27:04.000Z</Time>
            <Position>
              <LatitudeDegrees>36.516073979437351226806640625</LatitudeDegrees>
              <LongitudeDegrees>-5.4100335203111171722412109375</LongitudeDegrees>
            </Position>
            <AltitudeMeters>233.8000030517578125</AltitudeMeters>
            <DistanceMeters>5137.689944773</DistanceMeters>
          </Trackpoint>
          <Trackpoint>
            <Time>2019-01-04T10:27:05.000Z</Time>
            <Position>
              <LatitudeDegrees>36.5160654298961162567138671875</LatitudeDegrees>
              <LongitudeDegrees>-5.41004165075719356536865234375</LongitudeDegrees>
            </Position>
            <AltitudeMeters>233.600006103515625</AltitudeMeters>
            <DistanceMeters>5138.8881860486</DistanceMeters>
          </Trackpoint>
          <Trackpoint>
            <Time>2019-01-04T10:27:06.000Z</Time>
            <Position>
              <LatitudeDegrees>36.51605797000229358673095703125</LatitudeDegrees>
              <LongitudeDegrees>-5.41004885919392108917236328125</LongitudeDegrees>
            </Position>
            <AltitudeMeters>233.399993896484375</AltitudeMeters>
            <DistanceMeters>5139.9377904151</DistanceMeters>
          </Trackpoint>
          <Trackpoint>
            <Time>2019-01-04T10:27:07.000Z</Time>
            <Position>
              <LatitudeDegrees>36.51605411432683467864990234375</LatitudeDegrees>
              <LongitudeDegrees>-5.41005539707839488983154296875</LongitudeDegrees>
            </Position>
            <AltitudeMeters>233.1999969482421875</AltitudeMeters>
            <DistanceMeters>5140.6677044582</DistanceMeters>
          </Trackpoint>
          <Trackpoint>
            <Time>2019-01-04T10:27:08.000Z</Time>
            <Position>
              <LatitudeDegrees>36.51604858227074146270751953125</LatitudeDegrees>
              <LongitudeDegrees>-5.4100606776773929595947265625</LongitudeDegrees>
            </Position>
            <AltitudeMeters>232.8000030517578125</AltitudeMeters>
            <DistanceMeters>5141.4397051352</DistanceMeters>
          </Trackpoint>
          <Trackpoint>
            <Time>2019-01-04T10:27:09.000Z</Time>
            <Position>
              <LatitudeDegrees>36.51604078710079193115234375</LatitudeDegrees>
              <LongitudeDegrees>-5.41006185114383697509765625</LongitudeDegrees>
            </Position>
            <AltitudeMeters>232.399993896484375</AltitudeMeters>
            <DistanceMeters>5142.3106393584</DistanceMeters>
          </Trackpoint>
          <Trackpoint>
            <Time>2019-01-04T10:27:10.000Z</Time>
            <Position>
              <LatitudeDegrees>36.51603366248309612274169921875</LatitudeDegrees>
              <LongitudeDegrees>-5.41006009094417095184326171875</LongitudeDegrees>
            </Position>
            <AltitudeMeters>232.1999969482421875</AltitudeMeters>
            <DistanceMeters>5143.1169677679</DistanceMeters>
          </Trackpoint>
          <Trackpoint>
            <Time>2019-01-04T10:27:11.000Z</Time>
            <Position>
              <LatitudeDegrees>36.51602276600897312164306640625</LatitudeDegrees>
              <LongitudeDegrees>-5.41006227023899555206298828125</LongitudeDegrees>
            </Position>
            <AltitudeMeters>231.8000030517578125</AltitudeMeters>
            <DistanceMeters>5144.3486547585</DistanceMeters>
          </Trackpoint>
          <Trackpoint>
            <Time>2019-01-04T10:27:12.000Z</Time>
            <Position>
              <LatitudeDegrees>36.5160168148577213287353515625</LatitudeDegrees>
              <LongitudeDegrees>-5.410059504210948944091796875</LongitudeDegrees>
            </Position>
            <AltitudeMeters>231.600006103515625</AltitudeMeters>
            <DistanceMeters>5145.0533917338</DistanceMeters>
          </Trackpoint>
          <Trackpoint>
            <Time>2019-01-04T10:27:13.000Z</Time>
            <Position>
              <LatitudeDegrees>36.51601103134453296661376953125</LatitudeDegrees>
              <LongitudeDegrees>-5.4100606776773929595947265625</LongitudeDegrees>
            </Position>
            <AltitudeMeters>231.1999969482421875</AltitudeMeters>
            <DistanceMeters>5145.7117561233</DistanceMeters>
          </Trackpoint>
          <Trackpoint>
            <Time>2019-01-04T10:27:14.000Z</Time>
            <Position>
              <LatitudeDegrees>36.51600382290780544281005859375</LatitudeDegrees>
              <LongitudeDegrees>-5.41006260551512241363525390625</LongitudeDegrees>
            </Position>
            <AltitudeMeters>231.1999969482421875</AltitudeMeters>
            <DistanceMeters>5146.540179813</DistanceMeters>
          </Trackpoint>
          <Trackpoint>
            <Time>2019-01-04T10:27:15.000Z</Time>
            <Position>
              <LatitudeDegrees>36.51599091477692127227783203125</LatitudeDegrees>
              <LongitudeDegrees>-5.41006260551512241363525390625</LongitudeDegrees>
            </Position>
            <AltitudeMeters>231</AltitudeMeters>
            <DistanceMeters>5147.9750517338</DistanceMeters>
          </Trackpoint>
          <Trackpoint>
            <Time>2019-01-04T10:27:16.000Z</Time>
            <Position>
              <LatitudeDegrees>36.51597800664603710174560546875</LatitudeDegrees>
              <LongitudeDegrees>-5.41006025858223438262939453125</LongitudeDegrees>
            </Position>
            <AltitudeMeters>230.600006103515625</AltitudeMeters>
            <DistanceMeters>5149.4286809465</DistanceMeters>
          </Trackpoint>
          <Trackpoint>
            <Time>2019-01-04T10:27:17.000Z</Time>
            <Position>
              <LatitudeDegrees>36.5159688703715801239013671875</LatitudeDegrees>
              <LongitudeDegrees>-5.4100583307445049285888671875</LongitudeDegrees>
            </Position>
            <AltitudeMeters>230.399993896484375</AltitudeMeters>
            <DistanceMeters>5150.4609352855</DistanceMeters>
          </Trackpoint>
          <Trackpoint>
            <Time>2019-01-04T10:27:18.000Z</Time>
            <Position>
              <LatitudeDegrees>36.51595939882099628448486328125</LatitudeDegrees>
              <LongitudeDegrees>-5.41005891747772693634033203125</LongitudeDegrees>
            </Position>
            <AltitudeMeters>230.1999969482421875</AltitudeMeters>
            <DistanceMeters>5151.5148325303</DistanceMeters>
          </Trackpoint>
          <Trackpoint>
            <Time>2019-01-04T10:27:19.000Z</Time>
            <Position>
              <LatitudeDegrees>36.51594900526106357574462890625</LatitudeDegrees>
              <LongitudeDegrees>-5.41005958802998065948486328125</LongitudeDegrees>
            </Position>
            <AltitudeMeters>229.8000030517578125</AltitudeMeters>
            <DistanceMeters>5152.678667341</DistanceMeters>
          </Trackpoint>
          <Trackpoint>
            <Time>2019-01-04T10:27:20.000Z</Time>
            <Position>
              <LatitudeDegrees>36.51593961752951145172119140625</LatitudeDegrees>
              <LongitudeDegrees>-5.4100630246102809906005859375</LongitudeDegrees>
            </Position>
            <AltitudeMeters>229.600006103515625</AltitudeMeters>
            <DistanceMeters>5153.7662977995</DistanceMeters>
          </Trackpoint>
          <Trackpoint>
            <Time>2019-01-04T10:27:21.000Z</Time>
            <Position>
              <LatitudeDegrees>36.51593123562633991241455078125</LatitudeDegrees>
              <LongitudeDegrees>-5.41005539707839488983154296875</LongitudeDegrees>
            </Position>
            <AltitudeMeters>229.399993896484375</AltitudeMeters>
            <DistanceMeters>5154.9223476746</DistanceMeters>
          </Trackpoint>
          <Trackpoint>
            <Time>2019-01-04T10:27:22.000Z</Time>
            <Position>
              <LatitudeDegrees>36.51592168025672435760498046875</LatitudeDegrees>
              <LongitudeDegrees>-5.41004802100360393524169921875</LongitudeDegrees>
            </Position>
            <AltitudeMeters>229</AltitudeMeters>
            <DistanceMeters>5156.1758361273</DistanceMeters>
          </Trackpoint>
          <Trackpoint>
            <Time>2019-01-04T10:27:23.000Z</Time>
            <Position>
              <LatitudeDegrees>36.5159145556390285491943359375</LatitudeDegrees>
              <LongitudeDegrees>-5.41004835627973079681396484375</LongitudeDegrees>
            </Position>
            <AltitudeMeters>228.8000030517578125</AltitudeMeters>
            <DistanceMeters>5156.970886661</DistanceMeters>
          </Trackpoint>
          <Trackpoint>
            <Time>2019-01-04T10:27:24.000Z</Time>
            <Position>
              <LatitudeDegrees>36.5159115381538867950439453125</LatitudeDegrees>
              <LongitudeDegrees>-5.4100496135652065277099609375</LongitudeDegrees>
            </Position>
            <AltitudeMeters>228.8000030517578125</AltitudeMeters>
            <DistanceMeters>5157.3264440688</DistanceMeters>
          </Trackpoint>
          <Trackpoint>
            <Time>2019-01-04T10:27:25.000Z</Time>
            <Position>
              <LatitudeDegrees>36.5159078501164913177490234375</LatitudeDegrees>
              <LongitudeDegrees>-5.41005439125001430511474609375</LongitudeDegrees>
            </Position>
            <AltitudeMeters>228.600006103515625</AltitudeMeters>
            <DistanceMeters>5157.9198857098</DistanceMeters>
          </Trackpoint>
          <Trackpoint>
            <Time>2019-01-04T10:27:26.000Z</Time>
            <Position>
              <LatitudeDegrees>36.5158979594707489013671875</LatitudeDegrees>
              <LongitudeDegrees>-5.4100569896399974822998046875</LongitudeDegrees>
            </Position>
            <AltitudeMeters>228.399993896484375</AltitudeMeters>
            <DistanceMeters>5159.0442569573</DistanceMeters>
          </Trackpoint>
          <Trackpoint>
            <Time>2019-01-04T10:27:27.000Z</Time>
            <Position>
              <LatitudeDegrees>36.51588781736791133880615234375</LatitudeDegrees>
              <LongitudeDegrees>-5.41005724109709262847900390625</LongitudeDegrees>
            </Position>
            <AltitudeMeters>228.1999969482421875</AltitudeMeters>
            <DistanceMeters>5160.1726366711</DistanceMeters>
          </Trackpoint>
          <Trackpoint>
            <Time>2019-01-04T10:27:28.000Z</Time>
            <Position>
              <LatitudeDegrees>36.51587708853185176849365234375</LatitudeDegrees>
              <LongitudeDegrees>-5.4100579954683780670166015625</LongitudeDegrees>
            </Position>
            <AltitudeMeters>228</AltitudeMeters>
            <DistanceMeters>5161.3671039491</DistanceMeters>
          </Trackpoint>
          <Trackpoint>
            <Time>2019-01-04T10:27:29.000Z</Time>
            <Position>
              <LatitudeDegrees>36.5158645994961261749267578125</LatitudeDegrees>
              <LongitudeDegrees>-5.41006042622029781341552734375</LongitudeDegrees>
            </Position>
            <AltitudeMeters>227.8000030517578125</AltitudeMeters>
            <DistanceMeters>5162.7701565727</DistanceMeters>
          </Trackpoint>
          <Trackpoint>
            <Time>2019-01-04T10:27:30.000Z</Time>
            <Position>
              <LatitudeDegrees>36.51585378684103488922119140625</LatitudeDegrees>
              <LongitudeDegrees>-5.41006109677255153656005859375</LongitudeDegrees>
            </Position>
            <AltitudeMeters>227.600006103515625</AltitudeMeters>
            <DistanceMeters>5163.9759104064</DistanceMeters>
          </Trackpoint>
          <Trackpoint>
            <Time>2019-01-04T10:27:31.000Z</Time>
            <Position>
              <LatitudeDegrees>36.5158414654433727264404296875</LatitudeDegrees>
              <LongitudeDegrees>-5.410066209733486175537109375</LongitudeDegrees>
            </Position>
            <AltitudeMeters>227.399993896484375</AltitudeMeters>
            <DistanceMeters>5165.4233141977</DistanceMeters>
          </Trackpoint>
          <Trackpoint>
            <Time>2019-01-04T10:27:32.000Z</Time>
            <Position>
              <LatitudeDegrees>36.51583048515021800994873046875</LatitudeDegrees>
              <LongitudeDegrees>-5.4100678861141204833984375</LongitudeDegrees>
            </Position>
            <AltitudeMeters>227.399993896484375</AltitudeMeters>
            <DistanceMeters>5166.6550011882</DistanceMeters>
          </Trackpoint>
          <Trackpoint>
            <Time>2019-01-04T10:27:33.000Z</Time>
            <Position>
              <LatitudeDegrees>36.51582042686641216278076171875</LatitudeDegrees>
              <LongitudeDegrees>-5.4100630246102809906005859375</LongitudeDegrees>
            </Position>
            <AltitudeMeters>227.1999969482421875</AltitudeMeters>
            <DistanceMeters>5167.8570046121</DistanceMeters>
          </Trackpoint>
          <Trackpoint>
            <Time>2019-01-04T10:27:34.000Z</Time>
            <Position>
              <LatitudeDegrees>36.51580969803035259246826171875</LatitudeDegrees>
              <LongitudeDegrees>-5.41006210260093212127685546875</LongitudeDegrees>
            </Position>
            <AltitudeMeters>227</AltitudeMeters>
            <DistanceMeters>5169.059008036</DistanceMeters>
          </Trackpoint>
          <Trackpoint>
            <Time>2019-01-04T10:27:35.000Z</Time>
            <Position>
              <LatitudeDegrees>36.51579611934721469879150390625</LatitudeDegrees>
              <LongitudeDegrees>-5.4100636951625347137451171875</LongitudeDegrees>
            </Position>
            <AltitudeMeters>227</AltitudeMeters>
            <DistanceMeters>5170.5764629754</DistanceMeters>
          </Trackpoint>
          <Trackpoint>
            <Time>2019-01-04T10:27:36.000Z</Time>
            <Position>
              <LatitudeDegrees>36.51578438468277454376220703125</LatitudeDegrees>
              <LongitudeDegrees>-5.410062856972217559814453125</LongitudeDegrees>
            </Position>
            <AltitudeMeters>226.8000030517578125</AltitudeMeters>
            <DistanceMeters>5171.8863158391</DistanceMeters>
          </Trackpoint>
          <Trackpoint>
            <Time>2019-01-04T10:27:37.000Z</Time>
            <Position>
              <LatitudeDegrees>36.515776254236698150634765625</LatitudeDegrees>
              <LongitudeDegrees>-5.41006243787705898284912109375</LongitudeDegrees>
            </Position>
            <AltitudeMeters>226.399993896484375</AltitudeMeters>
            <DistanceMeters>5172.787818407</DistanceMeters>
          </Trackpoint>
          <Trackpoint>
            <Time>2019-01-04T10:27:38.000Z</Time>
            <Position>
              <LatitudeDegrees>36.515768207609653472900390625</LatitudeDegrees>
              <LongitudeDegrees>-5.41006176732480525970458984375</LongitudeDegrees>
            </Position>
            <AltitudeMeters>226.1999969482421875</AltitudeMeters>
            <DistanceMeters>5173.6893209749</DistanceMeters>
          </Trackpoint>
          <Trackpoint>
            <Time>2019-01-04T10:27:39.000Z</Time>
            <Position>
              <LatitudeDegrees>36.51576108299195766448974609375</LatitudeDegrees>
              <LongitudeDegrees>-5.41006185114383697509765625</LongitudeDegrees>
            </Position>
            <AltitudeMeters>226</AltitudeMeters>
            <DistanceMeters>5174.4843715085</DistanceMeters>
          </Trackpoint>
          <Trackpoint>
            <Time>2019-01-04T10:27:40.000Z</Time>
            <Position>
              <LatitudeDegrees>36.515756137669086456298828125</LatitudeDegrees>
              <LongitudeDegrees>-5.4100603424012660980224609375</LongitudeDegrees>
            </Position>
            <AltitudeMeters>225.600006103515625</AltitudeMeters>
            <DistanceMeters>5175.0545317948</DistanceMeters>
          </Trackpoint>
          <Trackpoint>
            <Time>2019-01-04T10:27:41.000Z</Time>
            <Position>
              <LatitudeDegrees>36.5157504379749298095703125</LatitudeDegrees>
              <LongitudeDegrees>-5.4100596718490123748779296875</LongitudeDegrees>
            </Position>
            <AltitudeMeters>225.399993896484375</AltitudeMeters>
            <DistanceMeters>5175.6990343288</DistanceMeters>
          </Trackpoint>
          <Trackpoint>
            <Time>2019-01-04T10:27:42.000Z</Time>
            <Position>
              <LatitudeDegrees>36.51574213989078998565673828125</LatitudeDegrees>
              <LongitudeDegrees>-5.41005858220160007476806640625</LongitudeDegrees>
            </Position>
            <AltitudeMeters>225.1999969482421875</AltitudeMeters>
            <DistanceMeters>5176.6301021774</DistanceMeters>
          </Trackpoint>
          <Trackpoint>
            <Time>2019-01-04T10:27:43.000Z</Time>
            <Position>
              <LatitudeDegrees>36.51573233306407928466796875</LatitudeDegrees>
              <LongitudeDegrees>-5.4100586660206317901611328125</LongitudeDegrees>
            </Position>
            <AltitudeMeters>225.1999969482421875</AltitudeMeters>
            <DistanceMeters>5177.721876005</DistanceMeters>
          </Trackpoint>
          <Trackpoint>
            <Time>2019-01-04T10:27:44.000Z</Time>
            <Position>
              <LatitudeDegrees>36.51572135277092456817626953125</LatitudeDegrees>
              <LongitudeDegrees>-5.41005606763064861297607421875</LongitudeDegrees>
            </Position>
            <AltitudeMeters>225</AltitudeMeters>
            <DistanceMeters>5178.9608727747</DistanceMeters>
          </Trackpoint>
          <Trackpoint>
            <Time>2019-01-04T10:27:45.000Z</Time>
            <Position>
              <LatitudeDegrees>36.515713892877101898193359375</LatitudeDegrees>
              <LongitudeDegrees>-5.4100522957742214202880859375</LongitudeDegrees>
            </Position>
            <AltitudeMeters>224.8000030517578125</AltitudeMeters>
            <DistanceMeters>5179.8573530051</DistanceMeters>
          </Trackpoint>
          <Trackpoint>
            <Time>2019-01-04T10:27:46.000Z</Time>
            <Position>
              <LatitudeDegrees>36.5157053433358669281005859375</LatitudeDegrees>
              <LongitudeDegrees>-5.41005246341228485107421875</LongitudeDegrees>
            </Position>
            <AltitudeMeters>224.600006103515625</AltitudeMeters>
            <DistanceMeters>5180.8076201488</DistanceMeters>
          </Trackpoint>
          <Trackpoint>
            <Time>2019-01-04T10:27:47.000Z</Time>
            <Position>
              <LatitudeDegrees>36.515698134899139404296875</LatitudeDegrees>
              <LongitudeDegrees>-5.4100549779832363128662109375</LongitudeDegrees>
            </Position>
            <AltitudeMeters>224.1999969482421875</AltitudeMeters>
            <DistanceMeters>5181.6414761833</DistanceMeters>
          </Trackpoint>
          <Trackpoint>
            <Time>2019-01-04T10:27:48.000Z</Time>
            <Position>
              <LatitudeDegrees>36.51568983681499958038330078125</LatitudeDegrees>
              <LongitudeDegrees>-5.41005573235452175140380859375</LongitudeDegrees>
            </Position>
            <AltitudeMeters>223.8000030517578125</AltitudeMeters>
            <DistanceMeters>5182.5676820255</DistanceMeters>
          </Trackpoint>
          <Trackpoint>
            <Time>2019-01-04T10:27:49.000Z</Time>
            <Position>
              <LatitudeDegrees>36.5156788565218448638916015625</LatitudeDegrees>
              <LongitudeDegrees>-5.41005916893482208251953125</LongitudeDegrees>
            </Position>
            <AltitudeMeters>223.600006103515625</AltitudeMeters>
            <DistanceMeters>5183.828353852</DistanceMeters>
          </Trackpoint>
          <Trackpoint>
            <Time>2019-01-04T10:27:50.000Z</Time>
            <Position>
              <LatitudeDegrees>36.51566469110548496246337890625</LatitudeDegrees>
              <LongitudeDegrees>-5.41006528772413730621337890625</LongitudeDegrees>
            </Position>
            <AltitudeMeters>223.1999969482421875</AltitudeMeters>
            <DistanceMeters>5185.4960659209</DistanceMeters>
          </Trackpoint>
          <Trackpoint>
            <Time>2019-01-04T10:27:51.000Z</Time>
            <Position>
              <LatitudeDegrees>36.51565195061266422271728515625</LatitudeDegrees>
              <LongitudeDegrees>-5.41007115505635738372802734375</LongitudeDegrees>
            </Position>
            <AltitudeMeters>223</AltitudeMeters>
            <DistanceMeters>5187.0075583424</DistanceMeters>
          </Trackpoint>
          <Trackpoint>
            <Time>2019-01-04T10:27:52.000Z</Time>
            <Position>
              <LatitudeDegrees>36.515640132129192352294921875</LatitudeDegrees>
              <LongitudeDegrees>-5.4100781120359897613525390625</LongitudeDegrees>
            </Position>
            <AltitudeMeters>223</AltitudeMeters>
            <DistanceMeters>5188.4642902891</DistanceMeters>
          </Trackpoint>
          <Trackpoint>
            <Time>2019-01-04T10:27:53.000Z</Time>
            <Position>
              <LatitudeDegrees>36.5156309120357036590576171875</LatitudeDegrees>
              <LongitudeDegrees>-5.4100848175585269927978515625</LongitudeDegrees>
            </Position>
            <AltitudeMeters>222.8000030517578125</AltitudeMeters>
            <DistanceMeters>5189.6549716074</DistanceMeters>
          </Trackpoint>
          <Trackpoint>
            <Time>2019-01-04T10:27:54.000Z</Time>
            <Position>
              <LatitudeDegrees>36.51561926119029521942138671875</LatitudeDegrees>
              <LongitudeDegrees>-5.4100947082042694091796875</LongitudeDegrees>
            </Position>
            <AltitudeMeters>222.399993896484375</AltitudeMeters>
            <DistanceMeters>5191.2250706072</DistanceMeters>
          </Trackpoint>
          <Trackpoint>
            <Time>2019-01-04T10:27:55.000Z</Time>
            <Position>
              <LatitudeDegrees>36.5156077779829502105712890625</LatitudeDegrees>
              <LongitudeDegrees>-5.4101022519171237945556640625</LongitudeDegrees>
            </Position>
            <AltitudeMeters>222.1999969482421875</AltitudeMeters>
            <DistanceMeters>5192.6724743984</DistanceMeters>
          </Trackpoint>
          <Trackpoint>
            <Time>2019-01-04T10:27:56.000Z</Time>
            <Position>
              <LatitudeDegrees>36.51559956371784210205078125</LatitudeDegrees>
              <LongitudeDegrees>-5.41010535322129726409912109375</LongitudeDegrees>
            </Position>
            <AltitudeMeters>222</AltitudeMeters>
            <DistanceMeters>5193.6274810585</DistanceMeters>
          </Trackpoint>
          <Trackpoint>
            <Time>2019-01-04T10:27:57.000Z</Time>
            <Position>
              <LatitudeDegrees>36.515589170157909393310546875</LatitudeDegrees>
              <LongitudeDegrees>-5.410116501152515411376953125</LongitudeDegrees>
            </Position>
            <AltitudeMeters>221.8000030517578125</AltitudeMeters>
            <DistanceMeters>5195.1567912949</DistanceMeters>
          </Trackpoint>
          <Trackpoint>
            <Time>2019-01-04T10:27:58.000Z</Time>
            <Position>
              <LatitudeDegrees>36.51558070443570613861083984375</LatitudeDegrees>
              <LongitudeDegrees>-5.41012354195117950439453125</LongitudeDegrees>
            </Position>
            <AltitudeMeters>221.399993896484375</AltitudeMeters>
            <DistanceMeters>5196.2891652857</DistanceMeters>
          </Trackpoint>
          <Trackpoint>
            <Time>2019-01-04T10:27:59.000Z</Time>
            <Position>
              <LatitudeDegrees>36.515571735799312591552734375</LatitudeDegrees>
              <LongitudeDegrees>-5.41012999601662158966064453125</LongitudeDegrees>
            </Position>
            <AltitudeMeters>221</AltitudeMeters>
            <DistanceMeters>5197.4413029672</DistanceMeters>
          </Trackpoint>
          <Trackpoint>
            <Time>2019-01-04T10:28:00.000Z</Time>
            <Position>
              <LatitudeDegrees>36.515562348067760467529296875</LatitudeDegrees>
              <LongitudeDegrees>-5.41013267822563648223876953125</LongitudeDegrees>
            </Position>
            <AltitudeMeters>220.600006103515625</AltitudeMeters>
            <DistanceMeters>5198.5079751905</DistanceMeters>
          </Trackpoint>
          <Trackpoint>
            <Time>2019-01-04T10:28:01.000Z</Time>
            <Position>
              <LatitudeDegrees>36.51555597782135009765625</LatitudeDegrees>
              <LongitudeDegrees>-5.4101341031491756439208984375</LongitudeDegrees>
            </Position>
            <AltitudeMeters>220</AltitudeMeters>
            <DistanceMeters>5199.2316770862</DistanceMeters>
          </Trackpoint>
          <Trackpoint>
            <Time>2019-01-04T10:28:02.000Z</Time>
            <Position>
              <LatitudeDegrees>36.5155514515936374664306640625</LatitudeDegrees>
              <LongitudeDegrees>-5.4101327620446681976318359375</LongitudeDegrees>
            </Position>
            <AltitudeMeters>219.8000030517578125</AltitudeMeters>
            <DistanceMeters>5199.7521598364</DistanceMeters>
          </Trackpoint>
          <Trackpoint>
            <Time>2019-01-04T10:28:03.000Z</Time>
            <Position>
              <LatitudeDegrees>36.51554784737527370452880859375</LatitudeDegrees>
              <LongitudeDegrees>-5.41013435460627079010009765625</LongitudeDegrees>
            </Position>
            <AltitudeMeters>219.600006103515625</AltitudeMeters>
            <DistanceMeters>5200.1771322224</DistanceMeters>
          </Trackpoint>
          <Trackpoint>
            <Time>2019-01-04T10:28:04.000Z</Time>
            <Position>
              <LatitudeDegrees>36.51554566808044910430908203125</LatitudeDegrees>
              <LongitudeDegrees>-5.4101347737014293670654296875</LongitudeDegrees>
            </Position>
            <AltitudeMeters>219.399993896484375</AltitudeMeters>
            <DistanceMeters>5200.4098991846</DistanceMeters>
          </Trackpoint>
          <Trackpoint>
            <Time>2019-01-04T10:28:05.000Z</Time>
            <Position>
              <LatitudeDegrees>36.51554348878562450408935546875</LatitudeDegrees>
              <LongitudeDegrees>-5.41013586334884166717529296875</LongitudeDegrees>
            </Position>
            <AltitudeMeters>219.1999969482421875</AltitudeMeters>
            <DistanceMeters>5200.6613162387</DistanceMeters>
          </Trackpoint>
          <Trackpoint>
            <Time>2019-01-04T10:28:06.000Z</Time>
            <Position>
              <LatitudeDegrees>36.51553929783403873443603515625</LatitudeDegrees>
              <LongitudeDegrees>-5.410138629376888275146484375</LongitudeDegrees>
            </Position>
            <AltitudeMeters>219.1999969482421875</AltitudeMeters>
            <DistanceMeters>5201.181798989</DistanceMeters>
          </Trackpoint>
          <Trackpoint>
            <Time>2019-01-04T10:28:07.000Z</Time>
            <Position>
              <LatitudeDegrees>36.5155336819589138031005859375</LatitudeDegrees>
              <LongitudeDegrees>-5.41014022193849086761474609375</LongitudeDegrees>
            </Position>
            <AltitudeMeters>219.1999969482421875</AltitudeMeters>
            <DistanceMeters>5201.826301523</DistanceMeters>
          </Trackpoint>
          <Trackpoint>
            <Time>2019-01-04T10:28:08.000Z</Time>
            <Position>
              <LatitudeDegrees>36.5155286528170108795166015625</LatitudeDegrees>
              <LongitudeDegrees>-5.41013519279658794403076171875</LongitudeDegrees>
            </Position>
            <AltitudeMeters>219.1999969482421875</AltitudeMeters>
            <DistanceMeters>5202.5500034187</DistanceMeters>
          </Trackpoint>
          <Trackpoint>
            <Time>2019-01-04T10:28:09.000Z</Time>
            <Position>
              <LatitudeDegrees>36.51552353985607624053955078125</LatitudeDegrees>
              <LongitudeDegrees>-5.41013619862496852874755859375</LongitudeDegrees>
            </Position>
            <AltitudeMeters>219</AltitudeMeters>
            <DistanceMeters>5203.1201637049</DistanceMeters>
          </Trackpoint>
          <Trackpoint>
            <Time>2019-01-04T10:28:10.000Z</Time>
            <Position>
              <LatitudeDegrees>36.51551683433353900909423828125</LatitudeDegrees>
              <LongitudeDegrees>-5.41013686917722225189208984375</LongitudeDegrees>
            </Position>
            <AltitudeMeters>218.8000030517578125</AltitudeMeters>
            <DistanceMeters>5203.8684048021</DistanceMeters>
          </Trackpoint>
          <Trackpoint>
            <Time>2019-01-04T10:28:11.000Z</Time>
            <Position>
              <LatitudeDegrees>36.51551029644906520843505859375</LatitudeDegrees>
              <LongitudeDegrees>-5.41013686917722225189208984375</LongitudeDegrees>
            </Position>
            <AltitudeMeters>218.8000030517578125</AltitudeMeters>
            <DistanceMeters>5204.6044785665</DistanceMeters>
          </Trackpoint>
          <Trackpoint>
            <Time>2019-01-04T10:28:12.000Z</Time>
            <Position>
              <LatitudeDegrees>36.51550694368779659271240234375</LatitudeDegrees>
              <LongitudeDegrees>-5.4101381264626979827880859375</LongitudeDegrees>
            </Position>
            <AltitudeMeters>218.600006103515625</AltitudeMeters>
            <DistanceMeters>5204.984585424</DistanceMeters>
          </Trackpoint>
          <Trackpoint>
            <Time>2019-01-04T10:28:13.000Z</Time>
            <Position>
              <LatitudeDegrees>36.51550392620265483856201171875</LatitudeDegrees>
              <LongitudeDegrees>-5.41013938374817371368408203125</LongitudeDegrees>
            </Position>
            <AltitudeMeters>218.600006103515625</AltitudeMeters>
            <DistanceMeters>5205.3137676187</DistanceMeters>
          </Trackpoint>
          <Trackpoint>
            <Time>2019-01-04T10:28:14.000Z</Time>
            <Position>
              <LatitudeDegrees>36.5154978074133396148681640625</LatitudeDegrees>
              <LongitudeDegrees>-5.41013854555785655975341796875</LongitudeDegrees>
            </Position>
            <AltitudeMeters>218.399993896484375</AltitudeMeters>
            <DistanceMeters>5205.9990150011</DistanceMeters>
          </Trackpoint>
          <Trackpoint>
            <Time>2019-01-04T10:28:15.000Z</Time>
            <Position>
              <LatitudeDegrees>36.51549118570983409881591796875</LatitudeDegrees>
              <LongitudeDegrees>-5.41013636626303195953369140625</LongitudeDegrees>
            </Position>
            <AltitudeMeters>218.399993896484375</AltitudeMeters>
            <DistanceMeters>5206.7592287161</DistanceMeters>
          </Trackpoint>
          <Trackpoint>
            <Time>2019-01-04T10:28:16.000Z</Time>
            <Position>
              <LatitudeDegrees>36.51548313908278942108154296875</LatitudeDegrees>
              <LongitudeDegrees>-5.41013695299625396728515625</LongitudeDegrees>
            </Position>
            <AltitudeMeters>218.1999969482421875</AltitudeMeters>
            <DistanceMeters>5207.660731284</DistanceMeters>
          </Trackpoint>
          <Trackpoint>
            <Time>2019-01-04T10:28:17.000Z</Time>
            <Position>
              <LatitudeDegrees>36.51547559536993503570556640625</LatitudeDegrees>
              <LongitudeDegrees>-5.4101361148059368133544921875</LongitudeDegrees>
            </Position>
            <AltitudeMeters>218</AltitudeMeters>
            <DistanceMeters>5208.5053471961</DistanceMeters>
          </Trackpoint>
          <Trackpoint>
            <Time>2019-01-04T10:28:18.000Z</Time>
            <Position>
              <LatitudeDegrees>36.51547081768512725830078125</LatitudeDegrees>
              <LongitudeDegrees>-5.4101349413394927978515625</LongitudeDegrees>
            </Position>
            <AltitudeMeters>217.8000030517578125</AltitudeMeters>
            <DistanceMeters>5209.0512341099</DistanceMeters>
          </Trackpoint>
          <Trackpoint>
            <Time>2019-01-04T10:28:19.000Z</Time>
            <Position>
              <LatitudeDegrees>36.51546411216259002685546875</LatitudeDegrees>
              <LongitudeDegrees>-5.4101404733955860137939453125</LongitudeDegrees>
            </Position>
            <AltitudeMeters>217.600006103515625</AltitudeMeters>
            <DistanceMeters>5209.9426637073</DistanceMeters>
          </Trackpoint>
          <Trackpoint>
            <Time>2019-01-04T10:28:20.000Z</Time>
            <Position>
              <LatitudeDegrees>36.5154592506587505340576171875</LatitudeDegrees>
              <LongitudeDegrees>-5.410146676003932952880859375</LongitudeDegrees>
            </Position>
            <AltitudeMeters>217.399993896484375</AltitudeMeters>
            <DistanceMeters>5210.7146643843</DistanceMeters>
          </Trackpoint>
          <Trackpoint>
            <Time>2019-01-04T10:28:21.000Z</Time>
            <Position>
              <LatitudeDegrees>36.51545279659330844879150390625</LatitudeDegrees>
              <LongitudeDegrees>-5.41015497408807277679443359375</LongitudeDegrees>
            </Position>
            <AltitudeMeters>217</AltitudeMeters>
            <DistanceMeters>5211.7469187233</DistanceMeters>
          </Trackpoint>
          <Trackpoint>
            <Time>2019-01-04T10:28:22.000Z</Time>
            <Position>
              <LatitudeDegrees>36.515446342527866363525390625</LatitudeDegrees>
              <LongitudeDegrees>-5.41016235016286373138427734375</LongitudeDegrees>
            </Position>
            <AltitudeMeters>216.8000030517578125</AltitudeMeters>
            <DistanceMeters>5212.7160048651</DistanceMeters>
          </Trackpoint>
          <Trackpoint>
            <Time>2019-01-04T10:28:23.000Z</Time>
            <Position>
              <LatitudeDegrees>36.51543871499598026275634765625</LatitudeDegrees>
              <LongitudeDegrees>-5.41016955859959125518798828125</LongitudeDegrees>
            </Position>
            <AltitudeMeters>216.600006103515625</AltitudeMeters>
            <DistanceMeters>5213.7826770884</DistanceMeters>
          </Trackpoint>
          <Trackpoint>
            <Time>2019-01-04T10:28:24.000Z</Time>
            <Position>
              <LatitudeDegrees>36.51542966254055500030517578125</LatitudeDegrees>
              <LongitudeDegrees>-5.4101724922657012939453125</LongitudeDegrees>
            </Position>
            <AltitudeMeters>216.399993896484375</AltitudeMeters>
            <DistanceMeters>5214.8279709464</DistanceMeters>
          </Trackpoint>
          <Trackpoint>
            <Time>2019-01-04T10:28:25.000Z</Time>
            <Position>
              <LatitudeDegrees>36.515419520437717437744140625</LatitudeDegrees>
              <LongitudeDegrees>-5.4101726599037647247314453125</LongitudeDegrees>
            </Position>
            <AltitudeMeters>216.1999969482421875</AltitudeMeters>
            <DistanceMeters>5215.9563506603</DistanceMeters>
          </Trackpoint>
          <Trackpoint>
            <Time>2019-01-04T10:28:26.000Z</Time>
            <Position>
              <LatitudeDegrees>36.515412144362926483154296875</LatitudeDegrees>
              <LongitudeDegrees>-5.41017643176019191741943359375</LongitudeDegrees>
            </Position>
            <AltitudeMeters>215.8000030517578125</AltitudeMeters>
            <DistanceMeters>5216.8477802576</DistanceMeters>
          </Trackpoint>
          <Trackpoint>
            <Time>2019-01-04T10:28:27.000Z</Time>
            <Position>
              <LatitudeDegrees>36.51540552265942096710205078125</LatitudeDegrees>
              <LongitudeDegrees>-5.41018280200660228729248046875</LongitudeDegrees>
            </Position>
            <AltitudeMeters>215.600006103515625</AltitudeMeters>
            <DistanceMeters>5217.7788481062</DistanceMeters>
          </Trackpoint>
          <Trackpoint>
            <Time>2019-01-04T10:28:28.000Z</Time>
            <Position>
              <LatitudeDegrees>36.51539898477494716644287109375</LatitudeDegrees>
              <LongitudeDegrees>-5.4101847298443317413330078125</LongitudeDegrees>
            </Position>
            <AltitudeMeters>215.399993896484375</AltitudeMeters>
            <DistanceMeters>5218.5270892034</DistanceMeters>
          </Trackpoint>
          <Trackpoint>
            <Time>2019-01-04T10:28:29.000Z</Time>
            <Position>
              <LatitudeDegrees>36.515393368899822235107421875</LatitudeDegrees>
              <LongitudeDegrees>-5.41018816642463207244873046875</LongitudeDegrees>
            </Position>
            <AltitudeMeters>215</AltitudeMeters>
            <DistanceMeters>5219.2123365858</DistanceMeters>
          </Trackpoint>
          <Trackpoint>
            <Time>2019-01-04T10:28:30.000Z</Time>
            <Position>
              <LatitudeDegrees>36.51538901031017303466796875</LatitudeDegrees>
              <LongitudeDegrees>-5.410187244415283203125</LongitudeDegrees>
            </Position>
            <AltitudeMeters>214.8000030517578125</AltitudeMeters>
            <DistanceMeters>5219.7061098779</DistanceMeters>
          </Trackpoint>
          <Trackpoint>
            <Time>2019-01-04T10:28:31.000Z</Time>
            <Position>
              <LatitudeDegrees>36.51538356207311153411865234375</LatitudeDegrees>
              <LongitudeDegrees>-5.41018364019691944122314453125</LongitudeDegrees>
            </Position>
            <AltitudeMeters>214.600006103515625</AltitudeMeters>
            <DistanceMeters>5220.3913572603</DistanceMeters>
          </Trackpoint>
          <Trackpoint>
            <Time>2019-01-04T10:28:32.000Z</Time>
            <Position>
              <LatitudeDegrees>36.5153801254928112030029296875</LatitudeDegrees>
              <LongitudeDegrees>-5.4101859033107757568359375</LongitudeDegrees>
            </Position>
            <AltitudeMeters>214.399993896484375</AltitudeMeters>
            <DistanceMeters>5220.837072059</DistanceMeters>
          </Trackpoint>
          <Trackpoint>
            <Time>2019-01-04T10:28:33.000Z</Time>
            <Position>
              <LatitudeDegrees>36.5153797902166843414306640625</LatitudeDegrees>
              <LongitudeDegrees>-5.41019068099558353424072265625</LongitudeDegrees>
            </Position>
            <AltitudeMeters>214.1999969482421875</AltitudeMeters>
            <DistanceMeters>5221.262044445</DistanceMeters>
          </Trackpoint>
          <Trackpoint>
            <Time>2019-01-04T10:28:34.000Z</Time>
            <Position>
              <LatitudeDegrees>36.51538020931184291839599609375</LatitudeDegrees>
              <LongitudeDegrees>-5.41019369848072528839111328125</LongitudeDegrees>
            </Position>
            <AltitudeMeters>214.1999969482421875</AltitudeMeters>
            <DistanceMeters>5221.5308205815</DistanceMeters>
          </Trackpoint>
          <Trackpoint>
            <Time>2019-01-04T10:28:35.000Z</Time>
            <Position>
              <LatitudeDegrees>36.51537735946476459503173828125</LatitudeDegrees>
              <LongitudeDegrees>-5.41020275093615055084228515625</LongitudeDegrees>
            </Position>
            <AltitudeMeters>214</AltitudeMeters>
            <DistanceMeters>5222.3913240785</DistanceMeters>
          </Trackpoint>
          <Trackpoint>
            <Time>2019-01-04T10:28:36.000Z</Time>
            <Position>
              <LatitudeDegrees>36.51537249796092510223388671875</LatitudeDegrees>
              <LongitudeDegrees>-5.41021406650543212890625</LongitudeDegrees>
            </Position>
            <AltitudeMeters>213.8000030517578125</AltitudeMeters>
            <DistanceMeters>5223.539536237</DistanceMeters>
          </Trackpoint>
          <Trackpoint>
            <Time>2019-01-04T10:28:37.000Z</Time>
            <Position>
              <LatitudeDegrees>36.5153653733432292938232421875</LatitudeDegrees>
              <LongitudeDegrees>-5.41021951474249362945556640625</LongitudeDegrees>
            </Position>
            <AltitudeMeters>213.600006103515625</AltitudeMeters>
            <DistanceMeters>5224.4706040855</DistanceMeters>
          </Trackpoint>
          <Trackpoint>
            <Time>2019-01-04T10:28:38.000Z</Time>
            <Position>
              <LatitudeDegrees>36.515355147421360015869140625</LatitudeDegrees>
              <LongitudeDegrees>-5.41021917946636676788330078125</LongitudeDegrees>
            </Position>
            <AltitudeMeters>213.399993896484375</AltitudeMeters>
            <DistanceMeters>5225.610924658</DistanceMeters>
          </Trackpoint>
          <Trackpoint>
            <Time>2019-01-04T10:28:39.000Z</Time>
            <Position>
              <LatitudeDegrees>36.515344418585300445556640625</LatitudeDegrees>
              <LongitudeDegrees>-5.41021649725735187530517578125</LongitudeDegrees>
            </Position>
            <AltitudeMeters>213</AltitudeMeters>
            <DistanceMeters>5226.8278603739</DistanceMeters>
          </Trackpoint>
          <Trackpoint>
            <Time>2019-01-04T10:28:40.000Z</Time>
            <Position>
              <LatitudeDegrees>36.5153311751782894134521484375</LatitudeDegrees>
              <LongitudeDegrees>-5.410216413438320159912109375</LongitudeDegrees>
            </Position>
            <AltitudeMeters>212.8000030517578125</AltitudeMeters>
            <DistanceMeters>5228.3000079027</DistanceMeters>
          </Trackpoint>
          <Trackpoint>
            <Time>2019-01-04T10:28:41.000Z</Time>
            <Position>
              <LatitudeDegrees>36.51532103307545185089111328125</LatitudeDegrees>
              <LongitudeDegrees>-5.41021876037120819091796875</LongitudeDegrees>
            </Position>
            <AltitudeMeters>212.399993896484375</AltitudeMeters>
            <DistanceMeters>5229.4482200612</DistanceMeters>
          </Trackpoint>
          <Trackpoint>
            <Time>2019-01-04T10:28:42.000Z</Time>
            <Position>
              <LatitudeDegrees>36.51531198062002658843994140625</LatitudeDegrees>
              <LongitudeDegrees>-5.41022286750376224517822265625</LongitudeDegrees>
            </Position>
            <AltitudeMeters>212</AltitudeMeters>
            <DistanceMeters>5230.5233246072</DistanceMeters>
          </Trackpoint>
          <Trackpoint>
            <Time>2019-01-04T10:28:43.000Z</Time>
            <Position>
              <LatitudeDegrees>36.51530242525041103363037109375</LatitudeDegrees>
              <LongitudeDegrees>-5.41022487916052341461181640625</LongitudeDegrees>
            </Position>
            <AltitudeMeters>211.600006103515625</AltitudeMeters>
            <DistanceMeters>5231.6026206098</DistanceMeters>
          </Trackpoint>
          <Trackpoint>
            <Time>2019-01-04T10:28:44.000Z</Time>
            <Position>
              <LatitudeDegrees>36.5152916125953197479248046875</LatitudeDegrees>
              <LongitudeDegrees>-5.4102261364459991455078125</LongitudeDegrees>
            </Position>
            <AltitudeMeters>211.399993896484375</AltitudeMeters>
            <DistanceMeters>5232.8083744435</DistanceMeters>
          </Trackpoint>
          <Trackpoint>
            <Time>2019-01-04T10:28:45.000Z</Time>
            <Position>
              <LatitudeDegrees>36.51528180576860904693603515625</LatitudeDegrees>
              <LongitudeDegrees>-5.410227477550506591796875</LongitudeDegrees>
            </Position>
            <AltitudeMeters>211.1999969482421875</AltitudeMeters>
            <DistanceMeters>5233.9001482711</DistanceMeters>
          </Trackpoint>
          <Trackpoint>
            <Time>2019-01-04T10:28:46.000Z</Time>
            <Position>
              <LatitudeDegrees>36.51527409441769123077392578125</LatitudeDegrees>
              <LongitudeDegrees>-5.41023326106369495391845703125</LongitudeDegrees>
            </Position>
            <AltitudeMeters>210.8000030517578125</AltitudeMeters>
            <DistanceMeters>5234.9058164876</DistanceMeters>
          </Trackpoint>
          <Trackpoint>
            <Time>2019-01-04T10:28:47.000Z</Time>
            <Position>
              <LatitudeDegrees>36.5152657963335514068603515625</LatitudeDegrees>
              <LongitudeDegrees>-5.41023829020559787750244140625</LongitudeDegrees>
            </Position>
            <AltitudeMeters>210.600006103515625</AltitudeMeters>
            <DistanceMeters>5235.9380708266</DistanceMeters>
          </Trackpoint>
          <Trackpoint>
            <Time>2019-01-04T10:28:48.000Z</Time>
            <Position>
              <LatitudeDegrees>36.51525364257395267486572265625</LatitudeDegrees>
              <LongitudeDegrees>-5.4102370329201221466064453125</LongitudeDegrees>
            </Position>
            <AltitudeMeters>210.1999969482421875</AltitudeMeters>
            <DistanceMeters>5237.2953237856</DistanceMeters>
          </Trackpoint>
          <Trackpoint>
            <Time>2019-01-04T10:28:49.000Z</Time>
            <Position>
              <LatitudeDegrees>36.51524282991886138916015625</LatitudeDegrees>
              <LongitudeDegrees>-5.41023326106369495391845703125</LongitudeDegrees>
            </Position>
            <AltitudeMeters>210</AltitudeMeters>
            <DistanceMeters>5238.5488122383</DistanceMeters>
          </Trackpoint>
          <Trackpoint>
            <Time>2019-01-04T10:28:50.000Z</Time>
            <Position>
              <LatitudeDegrees>36.51523503474891185760498046875</LatitudeDegrees>
              <LongitudeDegrees>-5.41023309342563152313232421875</LongitudeDegrees>
            </Position>
            <AltitudeMeters>209.600006103515625</AltitudeMeters>
            <DistanceMeters>5239.4197464616</DistanceMeters>
          </Trackpoint>
          <Trackpoint>
            <Time>2019-01-04T10:28:51.000Z</Time>
            <Position>
              <LatitudeDegrees>36.515227742493152618408203125</LatitudeDegrees>
              <LongitudeDegrees>-5.410235188901424407958984375</LongitudeDegrees>
            </Position>
            <AltitudeMeters>209.399993896484375</AltitudeMeters>
            <DistanceMeters>5240.2481701514</DistanceMeters>
          </Trackpoint>
          <Trackpoint>
            <Time>2019-01-04T10:28:52.000Z</Time>
            <Position>
              <LatitudeDegrees>36.51522003114223480224609375</LatitudeDegrees>
              <LongitudeDegrees>-5.41023493744432926177978515625</LongitudeDegrees>
            </Position>
            <AltitudeMeters>209</AltitudeMeters>
            <DistanceMeters>5241.1034105807</DistanceMeters>
          </Trackpoint>
          <Trackpoint>
            <Time>2019-01-04T10:28:53.000Z</Time>
            <Position>
              <LatitudeDegrees>36.51521307416260242462158203125</LatitudeDegrees>
              <LongitudeDegrees>-5.41023409925401210784912109375</LongitudeDegrees>
            </Position>
            <AltitudeMeters>208.600006103515625</AltitudeMeters>
            <DistanceMeters>5241.8812377606</DistanceMeters>
          </Trackpoint>
          <Trackpoint>
            <Time>2019-01-04T10:28:54.000Z</Time>
            <Position>
              <LatitudeDegrees>36.5152071230113506317138671875</LatitudeDegrees>
              <LongitudeDegrees>-5.41023083031177520751953125</LongitudeDegrees>
            </Position>
            <AltitudeMeters>208.399993896484375</AltitudeMeters>
            <DistanceMeters>5242.6049396562</DistanceMeters>
          </Trackpoint>
          <Trackpoint>
            <Time>2019-01-04T10:28:55.000Z</Time>
            <Position>
              <LatitudeDegrees>36.515199579298496246337890625</LatitudeDegrees>
              <LongitudeDegrees>-5.4102293215692043304443359375</LongitudeDegrees>
            </Position>
            <AltitudeMeters>208</AltitudeMeters>
            <DistanceMeters>5243.4548844283</DistanceMeters>
          </Trackpoint>
          <Trackpoint>
            <Time>2019-01-04T10:28:56.000Z</Time>
            <Position>
              <LatitudeDegrees>36.5151906944811344146728515625</LatitudeDegrees>
              <LongitudeDegrees>-5.4102330096065998077392578125</LongitudeDegrees>
            </Position>
            <AltitudeMeters>207.8000030517578125</AltitudeMeters>
            <DistanceMeters>5244.4958499288</DistanceMeters>
          </Trackpoint>
          <Trackpoint>
            <Time>2019-01-04T10:28:57.000Z</Time>
            <Position>
              <LatitudeDegrees>36.51518390513956546783447265625</LatitudeDegrees>
              <LongitudeDegrees>-5.41023527272045612335205078125</LongitudeDegrees>
            </Position>
            <AltitudeMeters>207.399993896484375</AltitudeMeters>
            <DistanceMeters>5245.27946029</DistanceMeters>
          </Trackpoint>
          <Trackpoint>
            <Time>2019-01-04T10:28:58.000Z</Time>
            <Position>
              <LatitudeDegrees>36.51517870835959911346435546875</LatitudeDegrees>
              <LongitudeDegrees>-5.4102397151291370391845703125</LongitudeDegrees>
            </Position>
            <AltitudeMeters>207.1999969482421875</AltitudeMeters>
            <DistanceMeters>5245.9777611764</DistanceMeters>
          </Trackpoint>
          <Trackpoint>
            <Time>2019-01-04T10:28:59.000Z</Time>
            <Position>
              <LatitudeDegrees>36.51517569087445735931396484375</LatitudeDegrees>
              <LongitudeDegrees>-5.410246588289737701416015625</LongitudeDegrees>
            </Position>
            <AltitudeMeters>207</AltitudeMeters>
            <DistanceMeters>5246.6760620628</DistanceMeters>
          </Trackpoint>
          <Trackpoint>
            <Time>2019-01-04T10:29:00.000Z</Time>
            <Position>
              <LatitudeDegrees>36.51517485268414020538330078125</LatitudeDegrees>
              <LongitudeDegrees>-5.410250611603260040283203125</LongitudeDegrees>
            </Position>
            <AltitudeMeters>206.8000030517578125</AltitudeMeters>
            <DistanceMeters>5247.0561689203</DistanceMeters>
          </Trackpoint>
          <Trackpoint>
            <Time>2019-01-04T10:29:01.000Z</Time>
            <Position>
              <LatitudeDegrees>36.51517367921769618988037109375</LatitudeDegrees>
              <LongitudeDegrees>-5.41025388054549694061279296875</LongitudeDegrees>
            </Position>
            <AltitudeMeters>206.399993896484375</AltitudeMeters>
            <DistanceMeters>5247.385351115</DistanceMeters>
          </Trackpoint>
          <Trackpoint>
            <Time>2019-01-04T10:29:02.000Z</Time>
            <Position>
              <LatitudeDegrees>36.51517032645642757415771484375</LatitudeDegrees>
              <LongitudeDegrees>-5.4102584905922412872314453125</LongitudeDegrees>
            </Position>
            <AltitudeMeters>206.1999969482421875</AltitudeMeters>
            <DistanceMeters>5247.9394473153</DistanceMeters>
          </Trackpoint>
          <Trackpoint>
            <Time>2019-01-04T10:29:03.000Z</Time>
            <Position>
              <LatitudeDegrees>36.5151630342006683349609375</LatitudeDegrees>
              <LongitudeDegrees>-5.41026276536285877227783203125</LongitudeDegrees>
            </Position>
            <AltitudeMeters>205.8000030517578125</AltitudeMeters>
            <DistanceMeters>5248.8359275457</DistanceMeters>
          </Trackpoint>
          <Trackpoint>
            <Time>2019-01-04T10:29:04.000Z</Time>
            <Position>
              <LatitudeDegrees>36.515158675611019134521484375</LatitudeDegrees>
              <LongitudeDegrees>-5.41026293300092220306396484375</LongitudeDegrees>
            </Position>
            <AltitudeMeters>205.399993896484375</AltitudeMeters>
            <DistanceMeters>5249.3204706165</DistanceMeters>
          </Trackpoint>
          <Trackpoint>
            <Time>2019-01-04T10:29:05.000Z</Time>
            <Position>
              <LatitudeDegrees>36.51515322737395763397216796875</LatitudeDegrees>
              <LongitudeDegrees>-5.41026628576219081878662109375</LongitudeDegrees>
            </Position>
            <AltitudeMeters>205</AltitudeMeters>
            <DistanceMeters>5249.9924109578</DistanceMeters>
          </Trackpoint>
          <Trackpoint>
            <Time>2019-01-04T10:29:06.000Z</Time>
            <Position>
              <LatitudeDegrees>36.51514702476561069488525390625</LatitudeDegrees>
              <LongitudeDegrees>-5.410271398723125457763671875</LongitudeDegrees>
            </Position>
            <AltitudeMeters>204.8000030517578125</AltitudeMeters>
            <DistanceMeters>5250.8153664446</DistanceMeters>
          </Trackpoint>
          <Trackpoint>
            <Time>2019-01-04T10:29:07.000Z</Time>
            <Position>
              <LatitudeDegrees>36.51514434255659580230712890625</LatitudeDegrees>
              <LongitudeDegrees>-5.4102796129882335662841796875</LongitudeDegrees>
            </Position>
            <AltitudeMeters>204.600006103515625</AltitudeMeters>
            <DistanceMeters>5251.6047176178</DistanceMeters>
          </Trackpoint>
          <Trackpoint>
            <Time>2019-01-04T10:29:08.000Z</Time>
            <Position>
              <LatitudeDegrees>36.51514115743339061737060546875</LatitudeDegrees>
              <LongitudeDegrees>-5.41028849780559539794921875</LongitudeDegrees>
            </Position>
            <AltitudeMeters>204.399993896484375</AltitudeMeters>
            <DistanceMeters>5252.4756518411</DistanceMeters>
          </Trackpoint>
          <Trackpoint>
            <Time>2019-01-04T10:29:09.000Z</Time>
            <Position>
              <LatitudeDegrees>36.51513545773923397064208984375</LatitudeDegrees>
              <LongitudeDegrees>-5.41029059328138828277587890625</LongitudeDegrees>
            </Position>
            <AltitudeMeters>204</AltitudeMeters>
            <DistanceMeters>5253.1408388417</DistanceMeters>
          </Trackpoint>
          <Trackpoint>
            <Time>2019-01-04T10:29:10.000Z</Time>
            <Position>
              <LatitudeDegrees>36.5151303447782993316650390625</LatitudeDegrees>
              <LongitudeDegrees>-5.41028992272913455963134765625</LongitudeDegrees>
            </Position>
            <AltitudeMeters>203.8000030517578125</AltitudeMeters>
            <DistanceMeters>5253.7266228504</DistanceMeters>
          </Trackpoint>
          <Trackpoint>
            <Time>2019-01-04T10:29:11.000Z</Time>
            <Position>
              <LatitudeDegrees>36.51512615382671356201171875</LatitudeDegrees>
              <LongitudeDegrees>-5.41029042564332485198974609375</LongitudeDegrees>
            </Position>
            <AltitudeMeters>203.399993896484375</AltitudeMeters>
            <DistanceMeters>5254.1921567747</DistanceMeters>
          </Trackpoint>
          <Trackpoint>
            <Time>2019-01-04T10:29:12.000Z</Time>
            <Position>
              <LatitudeDegrees>36.5151233039796352386474609375</LatitudeDegrees>
              <LongitudeDegrees>-5.41028983891010284423828125</LongitudeDegrees>
            </Position>
            <AltitudeMeters>203.1999969482421875</AltitudeMeters>
            <DistanceMeters>5254.5073247313</DistanceMeters>
          </Trackpoint>
          <Trackpoint>
            <Time>2019-01-04T10:29:13.000Z</Time>
            <Position>
              <LatitudeDegrees>36.5151174366474151611328125</LatitudeDegrees>
              <LongitudeDegrees>-5.41029076091945171356201171875</LongitudeDegrees>
            </Position>
            <AltitudeMeters>203</AltitudeMeters>
            <DistanceMeters>5255.1725117319</DistanceMeters>
          </Trackpoint>
          <Trackpoint>
            <Time>2019-01-04T10:29:14.000Z</Time>
            <Position>
              <LatitudeDegrees>36.51510712690651416778564453125</LatitudeDegrees>
              <LongitudeDegrees>-5.41029377840459346771240234375</LongitudeDegrees>
            </Position>
            <AltitudeMeters>203</AltitudeMeters>
            <DistanceMeters>5256.3517622449</DistanceMeters>
          </Trackpoint>
          <Trackpoint>
            <Time>2019-01-04T10:29:15.000Z</Time>
            <Position>
              <LatitudeDegrees>36.51509757153689861297607421875</LatitudeDegrees>
              <LongitudeDegrees>-5.410296209156513214111328125</LongitudeDegrees>
            </Position>
            <AltitudeMeters>202.8000030517578125</AltitudeMeters>
            <DistanceMeters>5257.4352334894</DistanceMeters>
          </Trackpoint>
          <Trackpoint>
            <Time>2019-01-04T10:29:16.000Z</Time>
            <Position>
              <LatitudeDegrees>36.515089608728885650634765625</LatitudeDegrees>
              <LongitudeDegrees>-5.4102993942797183990478515625</LongitudeDegrees>
            </Position>
            <AltitudeMeters>202.399993896484375</AltitudeMeters>
            <DistanceMeters>5258.366301338</DistanceMeters>
          </Trackpoint>
          <Trackpoint>
            <Time>2019-01-04T10:29:17.000Z</Time>
            <Position>
              <LatitudeDegrees>36.515079550445079803466796875</LatitudeDegrees>
              <LongitudeDegrees>-5.4103000648319721221923828125</LongitudeDegrees>
            </Position>
            <AltitudeMeters>202</AltitudeMeters>
            <DistanceMeters>5259.4906725855</DistanceMeters>
          </Trackpoint>
          <Trackpoint>
            <Time>2019-01-04T10:29:18.000Z</Time>
            <Position>
              <LatitudeDegrees>36.5150693245232105255126953125</LatitudeDegrees>
              <LongitudeDegrees>-5.410298220813274383544921875</LongitudeDegrees>
            </Position>
            <AltitudeMeters>201.600006103515625</AltitudeMeters>
            <DistanceMeters>5260.6388847439</DistanceMeters>
          </Trackpoint>
          <Trackpoint>
            <Time>2019-01-04T10:29:19.000Z</Time>
            <Position>
              <LatitudeDegrees>36.5150606073439121246337890625</LatitudeDegrees>
              <LongitudeDegrees>-5.41029880754649639129638671875</LongitudeDegrees>
            </Position>
            <AltitudeMeters>201.399993896484375</AltitudeMeters>
            <DistanceMeters>5261.6079708857</DistanceMeters>
          </Trackpoint>
          <Trackpoint>
            <Time>2019-01-04T10:29:20.000Z</Time>
            <Position>
              <LatitudeDegrees>36.5150522254407405853271484375</LatitudeDegrees>
              <LongitudeDegrees>-5.410302579402923583984375</LongitudeDegrees>
            </Position>
            <AltitudeMeters>201.1999969482421875</AltitudeMeters>
            <DistanceMeters>5262.6046194741</DistanceMeters>
          </Trackpoint>
          <Trackpoint>
            <Time>2019-01-04T10:29:21.000Z</Time>
            <Position>
              <LatitudeDegrees>36.5150411613285541534423828125</LatitudeDegrees>
              <LongitudeDegrees>-5.41030836291611194610595703125</LongitudeDegrees>
            </Position>
            <AltitudeMeters>201</AltitudeMeters>
            <DistanceMeters>5263.9417638702</DistanceMeters>
          </Trackpoint>
          <Trackpoint>
            <Time>2019-01-04T10:29:22.000Z</Time>
            <Position>
              <LatitudeDegrees>36.5150327794253826141357421875</LatitudeDegrees>
              <LongitudeDegrees>-5.4103054292500019073486328125</LongitudeDegrees>
            </Position>
            <AltitudeMeters>200.600006103515625</AltitudeMeters>
            <DistanceMeters>5264.9108500119</DistanceMeters>
          </Trackpoint>
          <Trackpoint>
            <Time>2019-01-04T10:29:23.000Z</Time>
            <Position>
              <LatitudeDegrees>36.5150254033505916595458984375</LatitudeDegrees>
              <LongitudeDegrees>-5.4103040881454944610595703125</LongitudeDegrees>
            </Position>
            <AltitudeMeters>200.399993896484375</AltitudeMeters>
            <DistanceMeters>5265.7338054988</DistanceMeters>
          </Trackpoint>
          <Trackpoint>
            <Time>2019-01-04T10:29:24.000Z</Time>
            <Position>
              <LatitudeDegrees>36.5150155127048492431640625</LatitudeDegrees>
              <LongitudeDegrees>-5.4103060998022556304931640625</LongitudeDegrees>
            </Position>
            <AltitudeMeters>200.399993896484375</AltitudeMeters>
            <DistanceMeters>5266.8501166334</DistanceMeters>
          </Trackpoint>
          <Trackpoint>
            <Time>2019-01-04T10:29:25.000Z</Time>
            <Position>
              <LatitudeDegrees>36.515009142458438873291015625</LatitudeDegrees>
              <LongitudeDegrees>-5.4103040881454944610595703125</LongitudeDegrees>
            </Position>
            <AltitudeMeters>200.1999969482421875</AltitudeMeters>
            <DistanceMeters>5267.5861903978</DistanceMeters>
          </Trackpoint>
          <Trackpoint>
            <Time>2019-01-04T10:29:26.000Z</Time>
            <Position>
              <LatitudeDegrees>36.515001766383647918701171875</LatitudeDegrees>
              <LongitudeDegrees>-5.410300903022289276123046875</LongitudeDegrees>
            </Position>
            <AltitudeMeters>200</AltitudeMeters>
            <DistanceMeters>5268.4519249673</DistanceMeters>
          </Trackpoint>
          <Trackpoint>
            <Time>2019-01-04T10:29:27.000Z</Time>
            <Position>
              <LatitudeDegrees>36.51499497704207897186279296875</LatitudeDegrees>
              <LongitudeDegrees>-5.41029210202395915985107421875</LongitudeDegrees>
            </Position>
            <AltitudeMeters>199.8000030517578125</AltitudeMeters>
            <DistanceMeters>5269.5395554258</DistanceMeters>
          </Trackpoint>
          <Trackpoint>
            <Time>2019-01-04T10:29:28.000Z</Time>
            <Position>
              <LatitudeDegrees>36.5149871818721294403076171875</LatitudeDegrees>
              <LongitudeDegrees>-5.41028522886335849761962890625</LongitudeDegrees>
            </Position>
            <AltitudeMeters>199.600006103515625</AltitudeMeters>
            <DistanceMeters>5270.6019863908</DistanceMeters>
          </Trackpoint>
          <Trackpoint>
            <Time>2019-01-04T10:29:29.000Z</Time>
            <Position>
              <LatitudeDegrees>36.5149818174540996551513671875</LatitudeDegrees>
              <LongitudeDegrees>-5.41028045117855072021484375</LongitudeDegrees>
            </Position>
            <AltitudeMeters>199.600006103515625</AltitudeMeters>
            <DistanceMeters>5271.3319004338</DistanceMeters>
          </Trackpoint>
          <Trackpoint>
            <Time>2019-01-04T10:29:30.000Z</Time>
            <Position>
              <LatitudeDegrees>36.51497905142605304718017578125</LatitudeDegrees>
              <LongitudeDegrees>-5.41027684696018695831298828125</LongitudeDegrees>
            </Position>
            <AltitudeMeters>199.399993896484375</AltitudeMeters>
            <DistanceMeters>5271.7776152325</DistanceMeters>
          </Trackpoint>
          <Trackpoint>
            <Time>2019-01-04T10:29:31.000Z</Time>
            <Position>
              <LatitudeDegrees>36.5149757824838161468505859375</LatitudeDegrees>
              <LongitudeDegrees>-5.41027533821761608123779296875</LongitudeDegrees>
            </Position>
            <AltitudeMeters>199.399993896484375</AltitudeMeters>
            <DistanceMeters>5272.1694204131</DistanceMeters>
          </Trackpoint>
          <Trackpoint>
            <Time>2019-01-04T10:29:32.000Z</Time>
            <Position>
              <LatitudeDegrees>36.51496698148548603057861328125</LatitudeDegrees>
              <LongitudeDegrees>-5.4102770984172821044921875</LongitudeDegrees>
            </Position>
            <AltitudeMeters>199.1999969482421875</AltitudeMeters>
            <DistanceMeters>5273.1569669973</DistanceMeters>
          </Trackpoint>
          <Trackpoint>
            <Time>2019-01-04T10:29:33.000Z</Time>
            <Position>
              <LatitudeDegrees>36.5149657242000102996826171875</LatitudeDegrees>
              <LongitudeDegrees>-5.41028221137821674346923828125</LongitudeDegrees>
            </Position>
            <AltitudeMeters>199</AltitudeMeters>
            <DistanceMeters>5273.6415100682</DistanceMeters>
          </Trackpoint>
          <Trackpoint>
            <Time>2019-01-04T10:29:34.000Z</Time>
            <Position>
              <LatitudeDegrees>36.514966227114200592041015625</LatitudeDegrees>
              <LongitudeDegrees>-5.41028304956853389739990234375</LongitudeDegrees>
            </Position>
            <AltitudeMeters>198.8000030517578125</AltitudeMeters>
            <DistanceMeters>5273.7758981364</DistanceMeters>
          </Trackpoint>
          <Trackpoint>
            <Time>2019-01-04T10:29:35.000Z</Time>
            <Position>
              <LatitudeDegrees>36.514959521591663360595703125</LatitudeDegrees>
              <LongitudeDegrees>-5.41028740815818309783935546875</LongitudeDegrees>
            </Position>
            <AltitudeMeters>198.8000030517578125</AltitudeMeters>
            <DistanceMeters>5274.6151513537</DistanceMeters>
          </Trackpoint>
          <Trackpoint>
            <Time>2019-01-04T10:29:36.000Z</Time>
            <Position>
              <LatitudeDegrees>36.514953486621379852294921875</LatitudeDegrees>
              <LongitudeDegrees>-5.41028992272913455963134765625</LongitudeDegrees>
            </Position>
            <AltitudeMeters>198.600006103515625</AltitudeMeters>
            <DistanceMeters>5275.3262661692</DistanceMeters>
          </Trackpoint>
          <Trackpoint>
            <Time>2019-01-04T10:29:37.000Z</Time>
            <Position>
              <LatitudeDegrees>36.5149469487369060516357421875</LatitudeDegrees>
              <LongitudeDegrees>-5.41029327549040317535400390625</LongitudeDegrees>
            </Position>
            <AltitudeMeters>198.399993896484375</AltitudeMeters>
            <DistanceMeters>5276.1098765304</DistanceMeters>
          </Trackpoint>
          <Trackpoint>
            <Time>2019-01-04T10:29:38.000Z</Time>
            <Position>
              <LatitudeDegrees>36.51493932120501995086669921875</LatitudeDegrees>
              <LongitudeDegrees>-5.410298220813274383544921875</LongitudeDegrees>
            </Position>
            <AltitudeMeters>198</AltitudeMeters>
            <DistanceMeters>5277.0695993014</DistanceMeters>
          </Trackpoint>
          <Trackpoint>
            <Time>2019-01-04T10:29:39.000Z</Time>
            <Position>
              <LatitudeDegrees>36.51493546552956104278564453125</LatitudeDegrees>
              <LongitudeDegrees>-5.41030584834516048431396484375</LongitudeDegrees>
            </Position>
            <AltitudeMeters>197.8000030517578125</AltitudeMeters>
            <DistanceMeters>5277.8815079049</DistanceMeters>
          </Trackpoint>
          <Trackpoint>
            <Time>2019-01-04T10:29:40.000Z</Time>
            <Position>
              <LatitudeDegrees>36.51493445970118045806884765625</LatitudeDegrees>
              <LongitudeDegrees>-5.41031255386769771575927734375</LongitudeDegrees>
            </Position>
            <AltitudeMeters>197.600006103515625</AltitudeMeters>
            <DistanceMeters>5278.4899757629</DistanceMeters>
          </Trackpoint>
          <Trackpoint>
            <Time>2019-01-04T10:29:41.000Z</Time>
            <Position>
              <LatitudeDegrees>36.51493311859667301177978515625</LatitudeDegrees>
              <LongitudeDegrees>-5.4103158228099346160888671875</LongitudeDegrees>
            </Position>
            <AltitudeMeters>197.399993896484375</AltitudeMeters>
            <DistanceMeters>5278.8191579576</DistanceMeters>
          </Trackpoint>
          <Trackpoint>
            <Time>2019-01-04T10:29:42.000Z</Time>
            <Position>
              <LatitudeDegrees>36.51492943055927753448486328125</LatitudeDegrees>
              <LongitudeDegrees>-5.4103231988847255706787109375</LongitudeDegrees>
            </Position>
            <AltitudeMeters>197.1999969482421875</AltitudeMeters>
            <DistanceMeters>5279.5969851375</DistanceMeters>
          </Trackpoint>
          <Trackpoint>
            <Time>2019-01-04T10:29:43.000Z</Time>
            <Position>
              <LatitudeDegrees>36.51492507196962833404541015625</LatitudeDegrees>
              <LongitudeDegrees>-5.4103307425975799560546875</LongitudeDegrees>
            </Position>
            <AltitudeMeters>197</AltitudeMeters>
            <DistanceMeters>5280.4254088273</DistanceMeters>
          </Trackpoint>
          <Trackpoint>
            <Time>2019-01-04T10:29:44.000Z</Time>
            <Position>
              <LatitudeDegrees>36.5149157680571079254150390625</LatitudeDegrees>
              <LongitudeDegrees>-5.41033552028238773345947265625</LongitudeDegrees>
            </Position>
            <AltitudeMeters>196.8000030517578125</AltitudeMeters>
            <DistanceMeters>5281.5457572667</DistanceMeters>
          </Trackpoint>
          <Trackpoint>
            <Time>2019-01-04T10:29:45.000Z</Time>
            <Position>
              <LatitudeDegrees>36.514906547963619232177734375</LatitudeDegrees>
              <LongitudeDegrees>-5.4103374481201171875</LongitudeDegrees>
            </Position>
            <AltitudeMeters>196.600006103515625</AltitudeMeters>
            <DistanceMeters>5282.5867227672</DistanceMeters>
          </Trackpoint>
          <Trackpoint>
            <Time>2019-01-04T10:29:46.000Z</Time>
            <Position>
              <LatitudeDegrees>36.51489690877497196197509765625</LatitudeDegrees>
              <LongitudeDegrees>-5.410339795053005218505859375</LongitudeDegrees>
            </Position>
            <AltitudeMeters>196.1999969482421875</AltitudeMeters>
            <DistanceMeters>5283.6784965948</DistanceMeters>
          </Trackpoint>
          <Trackpoint>
            <Time>2019-01-04T10:29:47.000Z</Time>
            <Position>
              <LatitudeDegrees>36.51488517411053180694580078125</LatitudeDegrees>
              <LongitudeDegrees>-5.410340130329132080078125</LongitudeDegrees>
            </Position>
            <AltitudeMeters>195.600006103515625</AltitudeMeters>
            <DistanceMeters>5284.9814372579</DistanceMeters>
          </Trackpoint>
          <Trackpoint>
            <Time>2019-01-04T10:29:48.000Z</Time>
            <Position>
              <LatitudeDegrees>36.51487628929316997528076171875</LatitudeDegrees>
              <LongitudeDegrees>-5.410341136157512664794921875</LongitudeDegrees>
            </Position>
            <AltitudeMeters>195.399993896484375</AltitudeMeters>
            <DistanceMeters>5285.968983842</DistanceMeters>
          </Trackpoint>
          <Trackpoint>
            <Time>2019-01-04T10:29:49.000Z</Time>
            <Position>
              <LatitudeDegrees>36.51486572809517383575439453125</LatitudeDegrees>
              <LongitudeDegrees>-5.41034205816686153411865234375</LongitudeDegrees>
            </Position>
            <AltitudeMeters>195</AltitudeMeters>
            <DistanceMeters>5287.148234355</DistanceMeters>
          </Trackpoint>
          <Trackpoint>
            <Time>2019-01-04T10:29:50.000Z</Time>
            <Position>
              <LatitudeDegrees>36.51485525071620941162109375</LatitudeDegrees>
              <LongitudeDegrees>-5.41034256108105182647705078125</LongitudeDegrees>
            </Position>
            <AltitudeMeters>195</AltitudeMeters>
            <DistanceMeters>5288.3120691657</DistanceMeters>
          </Trackpoint>
          <Trackpoint>
            <Time>2019-01-04T10:29:51.000Z</Time>
            <Position>
              <LatitudeDegrees>36.5148483775556087493896484375</LatitudeDegrees>
              <LongitudeDegrees>-5.4103423096239566802978515625</LongitudeDegrees>
            </Position>
            <AltitudeMeters>194.8000030517578125</AltitudeMeters>
            <DistanceMeters>5289.07819903</DistanceMeters>
          </Trackpoint>
          <Trackpoint>
            <Time>2019-01-04T10:29:52.000Z</Time>
            <Position>
              <LatitudeDegrees>36.51484326459467411041259765625</LatitudeDegrees>
              <LongitudeDegrees>-5.4103433154523372650146484375</LongitudeDegrees>
            </Position>
            <AltitudeMeters>194.8000030517578125</AltitudeMeters>
            <DistanceMeters>5289.6639830387</DistanceMeters>
          </Trackpoint>
          <Trackpoint>
            <Time>2019-01-04T10:29:53.000Z</Time>
            <Position>
              <LatitudeDegrees>36.51483940891921520233154296875</LatitudeDegrees>
              <LongitudeDegrees>-5.41034457273781299591064453125</LongitudeDegrees>
            </Position>
            <AltitudeMeters>194.8000030517578125</AltitudeMeters>
            <DistanceMeters>5290.1096978374</DistanceMeters>
          </Trackpoint>
          <Trackpoint>
            <Time>2019-01-04T10:29:54.000Z</Time>
            <Position>
              <LatitudeDegrees>36.514834128320217132568359375</LatitudeDegrees>
              <LongitudeDegrees>-5.41034356690943241119384765625</LongitudeDegrees>
            </Position>
            <AltitudeMeters>194.8000030517578125</AltitudeMeters>
            <DistanceMeters>5290.7106995493</DistanceMeters>
          </Trackpoint>
          <Trackpoint>
            <Time>2019-01-04T10:29:55.000Z</Time>
            <Position>
              <LatitudeDegrees>36.514829434454441070556640625</LatitudeDegrees>
              <LongitudeDegrees>-5.41034423746168613433837890625</LongitudeDegrees>
            </Position>
            <AltitudeMeters>195</AltitudeMeters>
            <DistanceMeters>5291.2482518223</DistanceMeters>
          </Trackpoint>
          <Trackpoint>
            <Time>2019-01-04T10:29:56.000Z</Time>
            <Position>
              <LatitudeDegrees>36.51482440531253814697265625</LatitudeDegrees>
              <LongitudeDegrees>-5.41034960187971591949462890625</LongitudeDegrees>
            </Position>
            <AltitudeMeters>195</AltitudeMeters>
            <DistanceMeters>5291.9843255867</DistanceMeters>
          </Trackpoint>
          <Trackpoint>
            <Time>2019-01-04T10:29:57.000Z</Time>
            <Position>
              <LatitudeDegrees>36.51481568813323974609375</LatitudeDegrees>
              <LongitudeDegrees>-5.4103580676019191741943359375</LongitudeDegrees>
            </Position>
            <AltitudeMeters>195</AltitudeMeters>
            <DistanceMeters>5293.2160125772</DistanceMeters>
          </Trackpoint>
          <Trackpoint>
            <Time>2019-01-04T10:29:58.000Z</Time>
            <Position>
              <LatitudeDegrees>36.51480755768716335296630859375</LatitudeDegrees>
              <LongitudeDegrees>-5.41036418639123439788818359375</LongitudeDegrees>
            </Position>
            <AltitudeMeters>195</AltitudeMeters>
            <DistanceMeters>5294.2741852848</DistanceMeters>
          </Trackpoint>
          <Trackpoint>
            <Time>2019-01-04T10:29:59.000Z</Time>
            <Position>
              <LatitudeDegrees>36.5148036181926727294921875</LatitudeDegrees>
              <LongitudeDegrees>-5.4103671200573444366455078125</LongitudeDegrees>
            </Position>
            <AltitudeMeters>195</AltitudeMeters>
            <DistanceMeters>5294.7859198027</DistanceMeters>
          </Trackpoint>
          <Trackpoint>
            <Time>2019-01-04T10:30:00.000Z</Time>
            <Position>
              <LatitudeDegrees>36.51479532010853290557861328125</LatitudeDegrees>
              <LongitudeDegrees>-5.41037156246602535247802734375</LongitudeDegrees>
            </Position>
            <AltitudeMeters>195</AltitudeMeters>
            <DistanceMeters>5295.7825683912</DistanceMeters>
          </Trackpoint>
          <Trackpoint>
            <Time>2019-01-04T10:30:01.000Z</Time>
            <Position>
              <LatitudeDegrees>36.5147840045392513275146484375</LatitudeDegrees>
              <LongitudeDegrees>-5.41037793271243572235107421875</LongitudeDegrees>
            </Position>
            <AltitudeMeters>194.8000030517578125</AltitudeMeters>
            <DistanceMeters>5297.1661782372</DistanceMeters>
          </Trackpoint>
          <Trackpoint>
            <Time>2019-01-04T10:30:02.000Z</Time>
            <Position>
              <LatitudeDegrees>36.5147742815315723419189453125</LatitudeDegrees>
              <LongitudeDegrees>-5.41038011200726032257080078125</LongitudeDegrees>
            </Position>
            <AltitudeMeters>194.8000030517578125</AltitudeMeters>
            <DistanceMeters>5298.2661919842</DistanceMeters>
          </Trackpoint>
          <Trackpoint>
            <Time>2019-01-04T10:30:03.000Z</Time>
            <Position>
              <LatitudeDegrees>36.51476413942873477935791015625</LatitudeDegrees>
              <LongitudeDegrees>-5.4103822074830532073974609375</LongitudeDegrees>
            </Position>
            <AltitudeMeters>194.600006103515625</AltitudeMeters>
            <DistanceMeters>5299.4144041426</DistanceMeters>
          </Trackpoint>
          <Trackpoint>
            <Time>2019-01-04T10:30:04.000Z</Time>
            <Position>
              <LatitudeDegrees>36.51475341059267520904541015625</LatitudeDegrees>
              <LongitudeDegrees>-5.4103892482817173004150390625</LongitudeDegrees>
            </Position>
            <AltitudeMeters>194.600006103515625</AltitudeMeters>
            <DistanceMeters>5300.7649875135</DistanceMeters>
          </Trackpoint>
          <Trackpoint>
            <Time>2019-01-04T10:30:05.000Z</Time>
            <Position>
              <LatitudeDegrees>36.5147446095943450927734375</LatitudeDegrees>
              <LongitudeDegrees>-5.41039603762328624725341796875</LongitudeDegrees>
            </Position>
            <AltitudeMeters>194.399993896484375</AltitudeMeters>
            <DistanceMeters>5301.9171251951</DistanceMeters>
          </Trackpoint>
          <Trackpoint>
            <Time>2019-01-04T10:30:06.000Z</Time>
            <Position>
              <LatitudeDegrees>36.51473480276763439178466796875</LatitudeDegrees>
              <LongitudeDegrees>-5.41040089912712574005126953125</LongitudeDegrees>
            </Position>
            <AltitudeMeters>194.399993896484375</AltitudeMeters>
            <DistanceMeters>5303.0925407369</DistanceMeters>
          </Trackpoint>
          <Trackpoint>
            <Time>2019-01-04T10:30:07.000Z</Time>
            <Position>
              <LatitudeDegrees>36.51472222991287708282470703125</LatitudeDegrees>
              <LongitudeDegrees>-5.41041045449674129486083984375</LongitudeDegrees>
            </Position>
            <AltitudeMeters>194.399993896484375</AltitudeMeters>
            <DistanceMeters>5304.7329561661</DistanceMeters>
          </Trackpoint>
          <Trackpoint>
            <Time>2019-01-04T10:30:08.000Z</Time>
            <Position>
              <LatitudeDegrees>36.514712087810039520263671875</LatitudeDegrees>
              <LongitudeDegrees>-5.41041850112378597259521484375</LongitudeDegrees>
            </Position>
            <AltitudeMeters>194.399993896484375</AltitudeMeters>
            <DistanceMeters>5306.0701005621</DistanceMeters>
          </Trackpoint>
          <Trackpoint>
            <Time>2019-01-04T10:30:09.000Z</Time>
            <Position>
              <LatitudeDegrees>36.5146971680223941802978515625</LatitudeDegrees>
              <LongitudeDegrees>-5.4104318283498287200927734375</LongitudeDegrees>
            </Position>
            <AltitudeMeters>194.399993896484375</AltitudeMeters>
            <DistanceMeters>5308.114831692</DistanceMeters>
          </Trackpoint>
          <Trackpoint>
            <Time>2019-01-04T10:30:10.000Z</Time>
            <Position>
              <LatitudeDegrees>36.514686606824398040771484375</LatitudeDegrees>
              <LongitudeDegrees>-5.41044129990041255950927734375</LongitudeDegrees>
            </Position>
            <AltitudeMeters>194.399993896484375</AltitudeMeters>
            <DistanceMeters>5309.5622354833</DistanceMeters>
          </Trackpoint>
          <Trackpoint>
            <Time>2019-01-04T10:30:11.000Z</Time>
            <Position>
              <LatitudeDegrees>36.51467026211321353912353515625</LatitudeDegrees>
              <LongitudeDegrees>-5.41045613586902618408203125</LongitudeDegrees>
            </Position>
            <AltitudeMeters>194.399993896484375</AltitudeMeters>
            <DistanceMeters>5311.8129848885</DistanceMeters>
          </Trackpoint>
          <Trackpoint>
            <Time>2019-01-04T10:30:12.000Z</Time>
            <Position>
              <LatitudeDegrees>36.514659114181995391845703125</LatitudeDegrees>
              <LongitudeDegrees>-5.41046359576284885406494140625</LongitudeDegrees>
            </Position>
            <AltitudeMeters>194.1999969482421875</AltitudeMeters>
            <DistanceMeters>5313.2192518408</DistanceMeters>
          </Trackpoint>
          <Trackpoint>
            <Time>2019-01-04T10:30:13.000Z</Time>
            <Position>
              <LatitudeDegrees>36.514653079211711883544921875</LatitudeDegrees>
              <LongitudeDegrees>-5.41046309284865856170654296875</LongitudeDegrees>
            </Position>
            <AltitudeMeters>194.1999969482421875</AltitudeMeters>
            <DistanceMeters>5313.8911921821</DistanceMeters>
          </Trackpoint>
          <Trackpoint>
            <Time>2019-01-04T10:30:14.000Z</Time>
            <Position>
              <LatitudeDegrees>36.5146431885659694671630859375</LatitudeDegrees>
              <LongitudeDegrees>-5.4104650206863880157470703125</LongitudeDegrees>
            </Position>
            <AltitudeMeters>194.1999969482421875</AltitudeMeters>
            <DistanceMeters>5315.0075033167</DistanceMeters>
          </Trackpoint>
          <Trackpoint>
            <Time>2019-01-04T10:30:15.000Z</Time>
            <Position>
              <LatitudeDegrees>36.514635644853115081787109375</LatitudeDegrees>
              <LongitudeDegrees>-5.41046795435249805450439453125</LongitudeDegrees>
            </Position>
            <AltitudeMeters>194</AltitudeMeters>
            <DistanceMeters>5315.8887448126</DistanceMeters>
          </Trackpoint>
          <Trackpoint>
            <Time>2019-01-04T10:30:16.000Z</Time>
            <Position>
              <LatitudeDegrees>36.5146267600357532501220703125</LatitudeDegrees>
              <LongitudeDegrees>-5.410470552742481231689453125</LongitudeDegrees>
            </Position>
            <AltitudeMeters>194</AltitudeMeters>
            <DistanceMeters>5316.903352478</DistanceMeters>
          </Trackpoint>
          <Trackpoint>
            <Time>2019-01-04T10:30:17.000Z</Time>
            <Position>
              <LatitudeDegrees>36.51461963541805744171142578125</LatitudeDegrees>
              <LongitudeDegrees>-5.4104700498282909393310546875</LongitudeDegrees>
            </Position>
            <AltitudeMeters>194</AltitudeMeters>
            <DistanceMeters>5317.6984030117</DistanceMeters>
          </Trackpoint>
          <Trackpoint>
            <Time>2019-01-04T10:30:18.000Z</Time>
            <Position>
              <LatitudeDegrees>36.5146163664758205413818359375</LatitudeDegrees>
              <LongitudeDegrees>-5.4104683734476566314697265625</LongitudeDegrees>
            </Position>
            <AltitudeMeters>194</AltitudeMeters>
            <DistanceMeters>5318.0902081923</DistanceMeters>
          </Trackpoint>
          <Trackpoint>
            <Time>2019-01-04T10:30:19.000Z</Time>
            <Position>
              <LatitudeDegrees>36.51461376808583736419677734375</LatitudeDegrees>
              <LongitudeDegrees>-5.410467199981212615966796875</LongitudeDegrees>
            </Position>
            <AltitudeMeters>194</AltitudeMeters>
            <DistanceMeters>5318.3907090482</DistanceMeters>
          </Trackpoint>
          <Trackpoint>
            <Time>2019-01-04T10:30:20.000Z</Time>
            <Position>
              <LatitudeDegrees>36.51460421271622180938720703125</LatitudeDegrees>
              <LongitudeDegrees>-5.41046954691410064697265625</LongitudeDegrees>
            </Position>
            <AltitudeMeters>194</AltitudeMeters>
            <DistanceMeters>5319.4741802928</DistanceMeters>
          </Trackpoint>
          <Trackpoint>
            <Time>2019-01-04T10:30:21.000Z</Time>
            <Position>
              <LatitudeDegrees>36.5145970880985260009765625</LatitudeDegrees>
              <LongitudeDegrees>-5.41046594269573688507080078125</LongitudeDegrees>
            </Position>
            <AltitudeMeters>194</AltitudeMeters>
            <DistanceMeters>5320.3346837898</DistanceMeters>
          </Trackpoint>
          <Trackpoint>
            <Time>2019-01-04T10:30:22.000Z</Time>
            <Position>
              <LatitudeDegrees>36.514593400061130523681640625</LatitudeDegrees>
              <LongitudeDegrees>-5.410463511943817138671875</LongitudeDegrees>
            </Position>
            <AltitudeMeters>194</AltitudeMeters>
            <DistanceMeters>5320.7904159021</DistanceMeters>
          </Trackpoint>
          <Trackpoint>
            <Time>2019-01-04T10:30:23.000Z</Time>
            <Position>
              <LatitudeDegrees>36.51459231041371822357177734375</LatitudeDegrees>
              <LongitudeDegrees>-5.41046007536351680755615234375</LongitudeDegrees>
            </Position>
            <AltitudeMeters>194</AltitudeMeters>
            <DistanceMeters>5321.1195980969</DistanceMeters>
          </Trackpoint>
          <Trackpoint>
            <Time>2019-01-04T10:30:24.000Z</Time>
            <Position>
              <LatitudeDegrees>36.51458895765244960784912109375</LatitudeDegrees>
              <LongitudeDegrees>-5.41046041063964366912841796875</LongitudeDegrees>
            </Position>
            <AltitudeMeters>194</AltitudeMeters>
            <DistanceMeters>5321.4876349791</DistanceMeters>
          </Trackpoint>
          <Trackpoint>
            <Time>2019-01-04T10:30:25.000Z</Time>
            <Position>
              <LatitudeDegrees>36.5145848505198955535888671875</LatitudeDegrees>
              <LongitudeDegrees>-5.41046560741961002349853515625</LongitudeDegrees>
            </Position>
            <AltitudeMeters>194</AltitudeMeters>
            <DistanceMeters>5322.1459993685</DistanceMeters>
          </Trackpoint>
          <Trackpoint>
            <Time>2019-01-04T10:30:26.000Z</Time>
            <Position>
              <LatitudeDegrees>36.51457990519702434539794921875</LatitudeDegrees>
              <LongitudeDegrees>-5.41046979837119579315185546875</LongitudeDegrees>
            </Position>
            <AltitudeMeters>194</AltitudeMeters>
            <DistanceMeters>5322.8179397098</DistanceMeters>
          </Trackpoint>
          <Trackpoint>
            <Time>2019-01-04T10:30:27.000Z</Time>
            <Position>
              <LatitudeDegrees>36.514571607112884521484375</LatitudeDegrees>
              <LongitudeDegrees>-5.41047248058021068572998046875</LongitudeDegrees>
            </Position>
            <AltitudeMeters>194</AltitudeMeters>
            <DistanceMeters>5323.7682068535</DistanceMeters>
          </Trackpoint>
          <Trackpoint>
            <Time>2019-01-04T10:30:28.000Z</Time>
            <Position>
              <LatitudeDegrees>36.514561213552951812744140625</LatitudeDegrees>
              <LongitudeDegrees>-5.41047583334147930145263671875</LongitudeDegrees>
            </Position>
            <AltitudeMeters>194</AltitudeMeters>
            <DistanceMeters>5324.9626741314</DistanceMeters>
          </Trackpoint>
          <Trackpoint>
            <Time>2019-01-04T10:30:29.000Z</Time>
            <Position>
              <LatitudeDegrees>36.51454989798367023468017578125</LatitudeDegrees>
              <LongitudeDegrees>-5.4104804433882236480712890625</LongitudeDegrees>
            </Position>
            <AltitudeMeters>194</AltitudeMeters>
            <DistanceMeters>5326.2862431059</DistanceMeters>
          </Trackpoint>
          <Trackpoint>
            <Time>2019-01-04T10:30:30.000Z</Time>
            <Position>
              <LatitudeDegrees>36.51453799568116664886474609375</LatitudeDegrees>
              <LongitudeDegrees>-5.4104827903211116790771484375</LongitudeDegrees>
            </Position>
            <AltitudeMeters>194</AltitudeMeters>
            <DistanceMeters>5327.6301237884</DistanceMeters>
          </Trackpoint>
          <Trackpoint>
            <Time>2019-01-04T10:30:31.000Z</Time>
            <Position>
              <LatitudeDegrees>36.51452776975929737091064453125</LatitudeDegrees>
              <LongitudeDegrees>-5.41047918610274791717529296875</LongitudeDegrees>
            </Position>
            <AltitudeMeters>193.8000030517578125</AltitudeMeters>
            <DistanceMeters>5328.8170070705</DistanceMeters>
          </Trackpoint>
          <Trackpoint>
            <Time>2019-01-04T10:30:32.000Z</Time>
            <Position>
              <LatitudeDegrees>36.5145157836377620697021484375</LatitudeDegrees>
              <LongitudeDegrees>-5.4104770906269550323486328125</LongitudeDegrees>
            </Position>
            <AltitudeMeters>193.8000030517578125</AltitudeMeters>
            <DistanceMeters>5330.1642432655</DistanceMeters>
          </Trackpoint>
          <Trackpoint>
            <Time>2019-01-04T10:30:33.000Z</Time>
            <Position>
              <LatitudeDegrees>36.51450564153492450714111328125</LatitudeDegrees>
              <LongitudeDegrees>-5.410478599369525909423828125</LongitudeDegrees>
            </Position>
            <AltitudeMeters>193.8000030517578125</AltitudeMeters>
            <DistanceMeters>5331.3045638379</DistanceMeters>
          </Trackpoint>
          <Trackpoint>
            <Time>2019-01-04T10:30:34.000Z</Time>
            <Position>
              <LatitudeDegrees>36.5144970081746578216552734375</LatitudeDegrees>
              <LongitudeDegrees>-5.41048002429306507110595703125</LongitudeDegrees>
            </Position>
            <AltitudeMeters>193.8000030517578125</AltitudeMeters>
            <DistanceMeters>5332.2736499797</DistanceMeters>
          </Trackpoint>
          <Trackpoint>
            <Time>2019-01-04T10:30:35.000Z</Time>
            <Position>
              <LatitudeDegrees>36.5144886262714862823486328125</LatitudeDegrees>
              <LongitudeDegrees>-5.4104801081120967864990234375</LongitudeDegrees>
            </Position>
            <AltitudeMeters>193.8000030517578125</AltitudeMeters>
            <DistanceMeters>5333.2047178283</DistanceMeters>
          </Trackpoint>
          <Trackpoint>
            <Time>2019-01-04T10:30:36.000Z</Time>
            <Position>
              <LatitudeDegrees>36.51448183692991733551025390625</LatitudeDegrees>
              <LongitudeDegrees>-5.410481281578540802001953125</LongitudeDegrees>
            </Position>
            <AltitudeMeters>193.8000030517578125</AltitudeMeters>
            <DistanceMeters>5333.9649315432</DistanceMeters>
          </Trackpoint>
          <Trackpoint>
            <Time>2019-01-04T10:30:37.000Z</Time>
            <Position>
              <LatitudeDegrees>36.51447613723576068878173828125</LatitudeDegrees>
              <LongitudeDegrees>-5.41047885082662105560302734375</LongitudeDegrees>
            </Position>
            <AltitudeMeters>193.8000030517578125</AltitudeMeters>
            <DistanceMeters>5334.6368718845</DistanceMeters>
          </Trackpoint>
          <Trackpoint>
            <Time>2019-01-04T10:30:38.000Z</Time>
            <Position>
              <LatitudeDegrees>36.5144705213606357574462890625</LatitudeDegrees>
              <LongitudeDegrees>-5.410477258265018463134765625</LongitudeDegrees>
            </Position>
            <AltitudeMeters>193.8000030517578125</AltitudeMeters>
            <DistanceMeters>5335.2813744186</DistanceMeters>
          </Trackpoint>
          <Trackpoint>
            <Time>2019-01-04T10:30:39.000Z</Time>
            <Position>
              <LatitudeDegrees>36.51446557603776454925537109375</LatitudeDegrees>
              <LongitudeDegrees>-5.41047734208405017852783203125</LongitudeDegrees>
            </Position>
            <AltitudeMeters>193.8000030517578125</AltitudeMeters>
            <DistanceMeters>5335.8354706188</DistanceMeters>
          </Trackpoint>
          <Trackpoint>
            <Time>2019-01-04T10:30:40.000Z</Time>
            <Position>
              <LatitudeDegrees>36.51446155272424221038818359375</LatitudeDegrees>
              <LongitudeDegrees>-5.4104764200747013092041015625</LongitudeDegrees>
            </Position>
            <AltitudeMeters>193.8000030517578125</AltitudeMeters>
            <DistanceMeters>5336.2912027311</DistanceMeters>
          </Trackpoint>
          <Trackpoint>
            <Time>2019-01-04T10:30:41.000Z</Time>
            <Position>
              <LatitudeDegrees>36.514455936849117279052734375</LatitudeDegrees>
              <LongitudeDegrees>-5.41047465987503528594970703125</LongitudeDegrees>
            </Position>
            <AltitudeMeters>193.8000030517578125</AltitudeMeters>
            <DistanceMeters>5336.9357052652</DistanceMeters>
          </Trackpoint>
          <Trackpoint>
            <Time>2019-01-04T10:30:42.000Z</Time>
            <Position>
              <LatitudeDegrees>36.5144487284123897552490234375</LatitudeDegrees>
              <LongitudeDegrees>-5.41047164238989353179931640625</LongitudeDegrees>
            </Position>
            <AltitudeMeters>193.8000030517578125</AltitudeMeters>
            <DistanceMeters>5337.7749584824</DistanceMeters>
          </Trackpoint>
          <Trackpoint>
            <Time>2019-01-04T10:30:43.000Z</Time>
            <Position>
              <LatitudeDegrees>36.51444294489920139312744140625</LatitudeDegrees>
              <LongitudeDegrees>-5.4104680381715297698974609375</LongitudeDegrees>
            </Position>
            <AltitudeMeters>193.8000030517578125</AltitudeMeters>
            <DistanceMeters>5338.498660378</DistanceMeters>
          </Trackpoint>
          <Trackpoint>
            <Time>2019-01-04T10:30:44.000Z</Time>
            <Position>
              <LatitudeDegrees>36.51443674229085445404052734375</LatitudeDegrees>
              <LongitudeDegrees>-5.410463847219944000244140625</LongitudeDegrees>
            </Position>
            <AltitudeMeters>193.8000030517578125</AltitudeMeters>
            <DistanceMeters>5339.2822707392</DistanceMeters>
          </Trackpoint>
          <Trackpoint>
            <Time>2019-01-04T10:30:45.000Z</Time>
            <Position>
              <LatitudeDegrees>36.5144286118447780609130859375</LatitudeDegrees>
              <LongitudeDegrees>-5.41046242229640483856201171875</LongitudeDegrees>
            </Position>
            <AltitudeMeters>193.600006103515625</AltitudeMeters>
            <DistanceMeters>5340.1986751856</DistanceMeters>
          </Trackpoint>
          <Trackpoint>
            <Time>2019-01-04T10:30:46.000Z</Time>
            <Position>
              <LatitudeDegrees>36.51442207396030426025390625</LatitudeDegrees>
              <LongitudeDegrees>-5.410463176667690277099609375</LongitudeDegrees>
            </Position>
            <AltitudeMeters>193.600006103515625</AltitudeMeters>
            <DistanceMeters>5340.93474895</DistanceMeters>
          </Trackpoint>
          <Trackpoint>
            <Time>2019-01-04T10:30:47.000Z</Time>
            <Position>
              <LatitudeDegrees>36.51441712863743305206298828125</LatitudeDegrees>
              <LongitudeDegrees>-5.41046175174415111541748046875</LongitudeDegrees>
            </Position>
            <AltitudeMeters>193.600006103515625</AltitudeMeters>
            <DistanceMeters>5341.5049092362</DistanceMeters>
          </Trackpoint>
          <Trackpoint>
            <Time>2019-01-04T10:30:48.000Z</Time>
            <Position>
              <LatitudeDegrees>36.5144138596951961517333984375</LatitudeDegrees>
              <LongitudeDegrees>-5.41045789606869220733642578125</LongitudeDegrees>
            </Position>
            <AltitudeMeters>193.8000030517578125</AltitudeMeters>
            <DistanceMeters>5342.0077433445</DistanceMeters>
          </Trackpoint>
          <Trackpoint>
            <Time>2019-01-04T10:30:49.000Z</Time>
            <Position>
              <LatitudeDegrees>36.51440992020070552825927734375</LatitudeDegrees>
              <LongitudeDegrees>-5.4104546271264553070068359375</LongitudeDegrees>
            </Position>
            <AltitudeMeters>193.8000030517578125</AltitudeMeters>
            <DistanceMeters>5342.5452956175</DistanceMeters>
          </Trackpoint>
          <Trackpoint>
            <Time>2019-01-04T10:30:50.000Z</Time>
            <Position>
              <LatitudeDegrees>36.51440841145813465118408203125</LatitudeDegrees>
              <LongitudeDegrees>-5.41045253165066242218017578125</LongitudeDegrees>
            </Position>
            <AltitudeMeters>193.8000030517578125</AltitudeMeters>
            <DistanceMeters>5342.814071754</DistanceMeters>
          </Trackpoint>
          <Trackpoint>
            <Time>2019-01-04T10:30:51.000Z</Time>
            <Position>
              <LatitudeDegrees>36.51440857909619808197021484375</LatitudeDegrees>
              <LongitudeDegrees>-5.4104514420032501220703125</LongitudeDegrees>
            </Position>
            <AltitudeMeters>193.8000030517578125</AltitudeMeters>
            <DistanceMeters>5342.9484598222</DistanceMeters>
          </Trackpoint>
          <Trackpoint>
            <Time>2019-01-04T10:30:52.000Z</Time>
            <Position>
              <LatitudeDegrees>36.5144058130681514739990234375</LatitudeDegrees>
              <LongitudeDegrees>-5.41044515557587146759033203125</LongitudeDegrees>
            </Position>
            <AltitudeMeters>193.8000030517578125</AltitudeMeters>
            <DistanceMeters>5343.5929623563</DistanceMeters>
          </Trackpoint>
          <Trackpoint>
            <Time>2019-01-04T10:30:53.000Z</Time>
            <Position>
              <LatitudeDegrees>36.5144004486501216888427734375</LatitudeDegrees>
              <LongitudeDegrees>-5.41043509729206562042236328125</LongitudeDegrees>
            </Position>
            <AltitudeMeters>193.8000030517578125</AltitudeMeters>
            <DistanceMeters>5344.6764336008</DistanceMeters>
          </Trackpoint>
          <Trackpoint>
            <Time>2019-01-04T10:30:54.000Z</Time>
            <Position>
              <LatitudeDegrees>36.514397598803043365478515625</LatitudeDegrees>
              <LongitudeDegrees>-5.4104273021221160888671875</LongitudeDegrees>
            </Position>
            <AltitudeMeters>193.8000030517578125</AltitudeMeters>
            <DistanceMeters>5345.4484342778</DistanceMeters>
          </Trackpoint>
          <Trackpoint>
            <Time>2019-01-04T10:30:55.000Z</Time>
            <Position>
              <LatitudeDegrees>36.51439189910888671875</LatitudeDegrees>
              <LongitudeDegrees>-5.4104190878570079803466796875</LongitudeDegrees>
            </Position>
            <AltitudeMeters>193.8000030517578125</AltitudeMeters>
            <DistanceMeters>5346.4221683414</DistanceMeters>
          </Trackpoint>
          <Trackpoint>
            <Time>2019-01-04T10:30:56.000Z</Time>
            <Position>
              <LatitudeDegrees>36.514386869966983795166015625</LatitudeDegrees>
              <LongitudeDegrees>-5.410410203039646148681640625</LongitudeDegrees>
            </Position>
            <AltitudeMeters>193.8000030517578125</AltitudeMeters>
            <DistanceMeters>5347.3912544832</DistanceMeters>
          </Trackpoint>
          <Trackpoint>
            <Time>2019-01-04T10:30:57.000Z</Time>
            <Position>
              <LatitudeDegrees>36.51438259519636631011962890625</LatitudeDegrees>
              <LongitudeDegrees>-5.410404838621616363525390625</LongitudeDegrees>
            </Position>
            <AltitudeMeters>193.8000030517578125</AltitudeMeters>
            <DistanceMeters>5348.0631948244</DistanceMeters>
          </Trackpoint>
          <Trackpoint>
            <Time>2019-01-04T10:30:58.000Z</Time>
            <Position>
              <LatitudeDegrees>36.51437790133059024810791015625</LatitudeDegrees>
              <LongitudeDegrees>-5.4104006476700305938720703125</LongitudeDegrees>
            </Position>
            <AltitudeMeters>193.8000030517578125</AltitudeMeters>
            <DistanceMeters>5348.714665156</DistanceMeters>
          </Trackpoint>
          <Trackpoint>
            <Time>2019-01-04T10:30:59.000Z</Time>
            <Position>
              <LatitudeDegrees>36.51437035761773586273193359375</LatitudeDegrees>
              <LongitudeDegrees>-5.4103962890803813934326171875</LongitudeDegrees>
            </Position>
            <AltitudeMeters>193.600006103515625</AltitudeMeters>
            <DistanceMeters>5349.6359833343</DistanceMeters>
          </Trackpoint>
          <Trackpoint>
            <Time>2019-01-04T10:31:00.000Z</Time>
            <Position>
              <LatitudeDegrees>36.5143628977239131927490234375</LatitudeDegrees>
              <LongitudeDegrees>-5.4103939421474933624267578125</LongitudeDegrees>
            </Position>
            <AltitudeMeters>193.399993896484375</AltitudeMeters>
            <DistanceMeters>5350.4964868313</DistanceMeters>
          </Trackpoint>
          <Trackpoint>
            <Time>2019-01-04T10:31:01.000Z</Time>
            <Position>
              <LatitudeDegrees>36.51435778476297855377197265625</LatitudeDegrees>
              <LongitudeDegrees>-5.41039033792912960052490234375</LongitudeDegrees>
            </Position>
            <AltitudeMeters>193.399993896484375</AltitudeMeters>
            <DistanceMeters>5351.1548512208</DistanceMeters>
          </Trackpoint>
          <Trackpoint>
            <Time>2019-01-04T10:31:02.000Z</Time>
            <Position>
              <LatitudeDegrees>36.514352001249790191650390625</LatitudeDegrees>
              <LongitudeDegrees>-5.41038530878722667694091796875</LongitudeDegrees>
            </Position>
            <AltitudeMeters>193.1999969482421875</AltitudeMeters>
            <DistanceMeters>5351.9499017545</DistanceMeters>
          </Trackpoint>
          <Trackpoint>
            <Time>2019-01-04T10:31:03.000Z</Time>
            <Position>
              <LatitudeDegrees>36.51434638537466526031494140625</LatitudeDegrees>
              <LongitudeDegrees>-5.41037893854081630706787109375</LongitudeDegrees>
            </Position>
            <AltitudeMeters>193.1999969482421875</AltitudeMeters>
            <DistanceMeters>5352.7998465265</DistanceMeters>
          </Trackpoint>
          <Trackpoint>
            <Time>2019-01-04T10:31:04.000Z</Time>
            <Position>
              <LatitudeDegrees>36.51434286497533321380615234375</LatitudeDegrees>
              <LongitudeDegrees>-5.4103755019605159759521484375</LongitudeDegrees>
            </Position>
            <AltitudeMeters>193.1999969482421875</AltitudeMeters>
            <DistanceMeters>5353.3026806348</DistanceMeters>
          </Trackpoint>
          <Trackpoint>
            <Time>2019-01-04T10:31:05.000Z</Time>
            <Position>
              <LatitudeDegrees>36.51433850638568401336669921875</LatitudeDegrees>
              <LongitudeDegrees>-5.41037424467504024505615234375</LongitudeDegrees>
            </Position>
            <AltitudeMeters>193.1999969482421875</AltitudeMeters>
            <DistanceMeters>5353.7964539269</DistanceMeters>
          </Trackpoint>
          <Trackpoint>
            <Time>2019-01-04T10:31:06.000Z</Time>
            <Position>
              <LatitudeDegrees>36.514333225786685943603515625</LatitudeDegrees>
              <LongitudeDegrees>-5.41037759743630886077880859375</LongitudeDegrees>
            </Position>
            <AltitudeMeters>193.399993896484375</AltitudeMeters>
            <DistanceMeters>5354.4548183163</DistanceMeters>
          </Trackpoint>
          <Trackpoint>
            <Time>2019-01-04T10:31:07.000Z</Time>
            <Position>
              <LatitudeDegrees>36.51433196850121021270751953125</LatitudeDegrees>
              <LongitudeDegrees>-5.41037625633180141448974609375</LongitudeDegrees>
            </Position>
            <AltitudeMeters>193.600006103515625</AltitudeMeters>
            <DistanceMeters>5354.6194094137</DistanceMeters>
          </Trackpoint>
          <Trackpoint>
            <Time>2019-01-04T10:31:08.000Z</Time>
            <Position>
              <LatitudeDegrees>36.51433012448251247406005859375</LatitudeDegrees>
              <LongitudeDegrees>-5.41037273593246936798095703125</LongitudeDegrees>
            </Position>
            <AltitudeMeters>193.8000030517578125</AltitudeMeters>
            <DistanceMeters>5354.9995162712</DistanceMeters>
          </Trackpoint>
          <Trackpoint>
            <Time>2019-01-04T10:31:09.000Z</Time>
            <Position>
              <LatitudeDegrees>36.51433113031089305877685546875</LatitudeDegrees>
              <LongitudeDegrees>-5.4103691317141056060791015625</LongitudeDegrees>
            </Position>
            <AltitudeMeters>194</AltitudeMeters>
            <DistanceMeters>5355.3550736789</DistanceMeters>
          </Trackpoint>
          <Trackpoint>
            <Time>2019-01-04T10:31:10.000Z</Time>
            <Position>
              <LatitudeDegrees>36.51433498598635196685791015625</LatitudeDegrees>
              <LongitudeDegrees>-5.41036720387637615203857421875</LongitudeDegrees>
            </Position>
            <AltitudeMeters>194</AltitudeMeters>
            <DistanceMeters>5355.8206076032</DistanceMeters>
          </Trackpoint>
          <Trackpoint>
            <Time>2019-01-04T10:31:11.000Z</Time>
            <Position>
              <LatitudeDegrees>36.51433356106281280517578125</LatitudeDegrees>
              <LongitudeDegrees>-5.41036603040993213653564453125</LongitudeDegrees>
            </Position>
            <AltitudeMeters>194.1999969482421875</AltitudeMeters>
            <DistanceMeters>5356.0106610319</DistanceMeters>
          </Trackpoint>
          <Trackpoint>
            <Time>2019-01-04T10:31:12.000Z</Time>
            <Position>
              <LatitudeDegrees>36.5143303759396076202392578125</LatitudeDegrees>
              <LongitudeDegrees>-5.41036183945834636688232421875</LongitudeDegrees>
            </Position>
            <AltitudeMeters>194.1999969482421875</AltitudeMeters>
            <DistanceMeters>5356.5311437822</DistanceMeters>
          </Trackpoint>
          <Trackpoint>
            <Time>2019-01-04T10:31:13.000Z</Time>
            <Position>
              <LatitudeDegrees>36.5143290348351001739501953125</LatitudeDegrees>
              <LongitudeDegrees>-5.41035555303096771240234375</LongitudeDegrees>
            </Position>
            <AltitudeMeters>194.399993896484375</AltitudeMeters>
            <DistanceMeters>5357.1169277909</DistanceMeters>
          </Trackpoint>
          <Trackpoint>
            <Time>2019-01-04T10:31:14.000Z</Time>
            <Position>
              <LatitudeDegrees>36.51432090438902378082275390625</LatitudeDegrees>
              <LongitudeDegrees>-5.41035555303096771240234375</LongitudeDegrees>
            </Position>
            <AltitudeMeters>194.399993896484375</AltitudeMeters>
            <DistanceMeters>5358.0184303588</DistanceMeters>
          </Trackpoint>
          <Trackpoint>
            <Time>2019-01-04T10:31:15.000Z</Time>
            <Position>
              <LatitudeDegrees>36.51431587524712085723876953125</LatitudeDegrees>
              <LongitudeDegrees>-5.41035379283130168914794921875</LongitudeDegrees>
            </Position>
            <AltitudeMeters>194.399993896484375</AltitudeMeters>
            <DistanceMeters>5358.6042143676</DistanceMeters>
          </Trackpoint>
          <Trackpoint>
            <Time>2019-01-04T10:31:16.000Z</Time>
            <Position>
              <LatitudeDegrees>36.51431218720972537994384765625</LatitudeDegrees>
              <LongitudeDegrees>-5.41035412810742855072021484375</LongitudeDegrees>
            </Position>
            <AltitudeMeters>194.399993896484375</AltitudeMeters>
            <DistanceMeters>5359.0184262124</DistanceMeters>
          </Trackpoint>
          <Trackpoint>
            <Time>2019-01-04T10:31:17.000Z</Time>
            <Position>
              <LatitudeDegrees>36.51430539786815643310546875</LatitudeDegrees>
              <LongitudeDegrees>-5.41035848669707775115966796875</LongitudeDegrees>
            </Position>
            <AltitudeMeters>194.399993896484375</AltitudeMeters>
            <DistanceMeters>5359.8630421246</DistanceMeters>
          </Trackpoint>
          <Trackpoint>
            <Time>2019-01-04T10:31:18.000Z</Time>
            <Position>
              <LatitudeDegrees>36.514297015964984893798828125</LatitudeDegrees>
              <LongitudeDegrees>-5.410357229411602020263671875</LongitudeDegrees>
            </Position>
            <AltitudeMeters>194.1999969482421875</AltitudeMeters>
            <DistanceMeters>5360.7941099732</DistanceMeters>
          </Trackpoint>
          <Trackpoint>
            <Time>2019-01-04T10:31:19.000Z</Time>
            <Position>
              <LatitudeDegrees>36.5142894722521305084228515625</LatitudeDegrees>
              <LongitudeDegrees>-5.41035178117454051971435546875</LongitudeDegrees>
            </Position>
            <AltitudeMeters>194</AltitudeMeters>
            <DistanceMeters>5361.7631961149</DistanceMeters>
          </Trackpoint>
          <Trackpoint>
            <Time>2019-01-04T10:31:20.000Z</Time>
            <Position>
              <LatitudeDegrees>36.51428259909152984619140625</LatitudeDegrees>
              <LongitudeDegrees>-5.41034222580492496490478515625</LongitudeDegrees>
            </Position>
            <AltitudeMeters>193.8000030517578125</AltitudeMeters>
            <DistanceMeters>5362.9074692835</DistanceMeters>
          </Trackpoint>
          <Trackpoint>
            <Time>2019-01-04T10:31:21.000Z</Time>
            <Position>
              <LatitudeDegrees>36.5142752230167388916015625</LatitudeDegrees>
              <LongitudeDegrees>-5.410331748425960540771484375</LongitudeDegrees>
            </Position>
            <AltitudeMeters>193.8000030517578125</AltitudeMeters>
            <DistanceMeters>5364.1537329588</DistanceMeters>
          </Trackpoint>
          <Trackpoint>
            <Time>2019-01-04T10:31:22.000Z</Time>
            <Position>
              <LatitudeDegrees>36.51426876895129680633544921875</LatitudeDegrees>
              <LongitudeDegrees>-5.410321690142154693603515625</LongitudeDegrees>
            </Position>
            <AltitudeMeters>193.600006103515625</AltitudeMeters>
            <DistanceMeters>5365.3058706404</DistanceMeters>
          </Trackpoint>
          <Trackpoint>
            <Time>2019-01-04T10:31:23.000Z</Time>
            <Position>
              <LatitudeDegrees>36.514263488352298736572265625</LatitudeDegrees>
              <LongitudeDegrees>-5.41031129658222198486328125</LongitudeDegrees>
            </Position>
            <AltitudeMeters>193.600006103515625</AltitudeMeters>
            <DistanceMeters>5366.4058843873</DistanceMeters>
          </Trackpoint>
          <Trackpoint>
            <Time>2019-01-04T10:31:24.000Z</Time>
            <Position>
              <LatitudeDegrees>36.51425921358168125152587890625</LatitudeDegrees>
              <LongitudeDegrees>-5.41029989719390869140625</LongitudeDegrees>
            </Position>
            <AltitudeMeters>193.600006103515625</AltitudeMeters>
            <DistanceMeters>5367.5302556348</DistanceMeters>
          </Trackpoint>
          <Trackpoint>
            <Time>2019-01-04T10:31:25.000Z</Time>
            <Position>
              <LatitudeDegrees>36.51425602845847606658935546875</LatitudeDegrees>
              <LongitudeDegrees>-5.4102905094623565673828125</LongitudeDegrees>
            </Position>
            <AltitudeMeters>193.600006103515625</AltitudeMeters>
            <DistanceMeters>5368.4417198595</DistanceMeters>
          </Trackpoint>
          <Trackpoint>
            <Time>2019-01-04T10:31:26.000Z</Time>
            <Position>
              <LatitudeDegrees>36.51425234042108058929443359375</LatitudeDegrees>
              <LongitudeDegrees>-5.41028204374015331268310546875</LongitudeDegrees>
            </Position>
            <AltitudeMeters>193.8000030517578125</AltitudeMeters>
            <DistanceMeters>5369.3022233565</DistanceMeters>
          </Trackpoint>
          <Trackpoint>
            <Time>2019-01-04T10:31:27.000Z</Time>
            <Position>
              <LatitudeDegrees>36.5142468921840190887451171875</LatitudeDegrees>
              <LongitudeDegrees>-5.41027701459825038909912109375</LongitudeDegrees>
            </Position>
            <AltitudeMeters>193.8000030517578125</AltitudeMeters>
            <DistanceMeters>5370.0624370715</DistanceMeters>
          </Trackpoint>
          <Trackpoint>
            <Time>2019-01-04T10:31:28.000Z</Time>
            <Position>
              <LatitudeDegrees>36.51423834264278411865234375</LatitudeDegrees>
              <LongitudeDegrees>-5.41027114726603031158447265625</LongitudeDegrees>
            </Position>
            <AltitudeMeters>193.8000030517578125</AltitudeMeters>
            <DistanceMeters>5371.1500675299</DistanceMeters>
          </Trackpoint>
          <Trackpoint>
            <Time>2019-01-04T10:31:29.000Z</Time>
            <Position>
              <LatitudeDegrees>36.51422853581607341766357421875</LatitudeDegrees>
              <LongitudeDegrees>-5.410270728170871734619140625</LongitudeDegrees>
            </Position>
            <AltitudeMeters>193.8000030517578125</AltitudeMeters>
            <DistanceMeters>5372.2418413575</DistanceMeters>
          </Trackpoint>
          <Trackpoint>
            <Time>2019-01-04T10:31:30.000Z</Time>
            <Position>
              <LatitudeDegrees>36.5142187289893627166748046875</LatitudeDegrees>
              <LongitudeDegrees>-5.4102725721895694732666015625</LongitudeDegrees>
            </Position>
            <AltitudeMeters>193.8000030517578125</AltitudeMeters>
            <DistanceMeters>5373.3459520041</DistanceMeters>
          </Trackpoint>
          <Trackpoint>
            <Time>2019-01-04T10:31:31.000Z</Time>
            <Position>
              <LatitudeDegrees>36.51421017944812774658203125</LatitudeDegrees>
              <LongitudeDegrees>-5.41027148254215717315673828125</LongitudeDegrees>
            </Position>
            <AltitudeMeters>194</AltitudeMeters>
            <DistanceMeters>5374.3009586642</DistanceMeters>
          </Trackpoint>
          <Trackpoint>
            <Time>2019-01-04T10:31:32.000Z</Time>
            <Position>
              <LatitudeDegrees>36.51420171372592449188232421875</LatitudeDegrees>
              <LongitudeDegrees>-5.4102692194283008575439453125</LongitudeDegrees>
            </Position>
            <AltitudeMeters>194</AltitudeMeters>
            <DistanceMeters>5375.2606814353</DistanceMeters>
          </Trackpoint>
          <Trackpoint>
            <Time>2019-01-04T10:31:33.000Z</Time>
            <Position>
              <LatitudeDegrees>36.514191739261150360107421875</LatitudeDegrees>
              <LongitudeDegrees>-5.41026704013347625732421875</LongitudeDegrees>
            </Position>
            <AltitudeMeters>193.8000030517578125</AltitudeMeters>
            <DistanceMeters>5376.3850526827</DistanceMeters>
          </Trackpoint>
          <Trackpoint>
            <Time>2019-01-04T10:31:34.000Z</Time>
            <Position>
              <LatitudeDegrees>36.5141840279102325439453125</LatitudeDegrees>
              <LongitudeDegrees>-5.410263352096080780029296875</LongitudeDegrees>
            </Position>
            <AltitudeMeters>193.8000030517578125</AltitudeMeters>
            <DistanceMeters>5377.3063708611</DistanceMeters>
          </Trackpoint>
          <Trackpoint>
            <Time>2019-01-04T10:31:35.000Z</Time>
            <Position>
              <LatitudeDegrees>36.5141764841973781585693359375</LatitudeDegrees>
              <LongitudeDegrees>-5.41025337763130664825439453125</LongitudeDegrees>
            </Position>
            <AltitudeMeters>193.8000030517578125</AltitudeMeters>
            <DistanceMeters>5378.5307044307</DistanceMeters>
          </Trackpoint>
          <Trackpoint>
            <Time>2019-01-04T10:31:36.000Z</Time>
            <Position>
              <LatitudeDegrees>36.51417103596031665802001953125</LatitudeDegrees>
              <LongitudeDegrees>-5.41024214588105678558349609375</LongitudeDegrees>
            </Position>
            <AltitudeMeters>193.8000030517578125</AltitudeMeters>
            <DistanceMeters>5379.7022724481</DistanceMeters>
          </Trackpoint>
          <Trackpoint>
            <Time>2019-01-04T10:31:37.000Z</Time>
            <Position>
              <LatitudeDegrees>36.514162905514240264892578125</LatitudeDegrees>
              <LongitudeDegrees>-5.4102400504052639007568359375</LongitudeDegrees>
            </Position>
            <AltitudeMeters>193.8000030517578125</AltitudeMeters>
            <DistanceMeters>5380.6235906265</DistanceMeters>
          </Trackpoint>
          <Trackpoint>
            <Time>2019-01-04T10:31:38.000Z</Time>
            <Position>
              <LatitudeDegrees>36.51415385305881500244140625</LatitudeDegrees>
              <LongitudeDegrees>-5.41023879311978816986083984375</LongitudeDegrees>
            </Position>
            <AltitudeMeters>193.8000030517578125</AltitudeMeters>
            <DistanceMeters>5381.6337384563</DistanceMeters>
          </Trackpoint>
          <Trackpoint>
            <Time>2019-01-04T10:31:39.000Z</Time>
            <Position>
              <LatitudeDegrees>36.51414320804178714752197265625</LatitudeDegrees>
              <LongitudeDegrees>-5.41023979894816875457763671875</LongitudeDegrees>
            </Position>
            <AltitudeMeters>193.600006103515625</AltitudeMeters>
            <DistanceMeters>5382.8206217384</DistanceMeters>
          </Trackpoint>
          <Trackpoint>
            <Time>2019-01-04T10:31:40.000Z</Time>
            <Position>
              <LatitudeDegrees>36.51412904262542724609375</LatitudeDegrees>
              <LongitudeDegrees>-5.41024097241461277008056640625</LongitudeDegrees>
            </Position>
            <AltitudeMeters>193.399993896484375</AltitudeMeters>
            <DistanceMeters>5384.3993240848</DistanceMeters>
          </Trackpoint>
          <Trackpoint>
            <Time>2019-01-04T10:31:41.000Z</Time>
            <Position>
              <LatitudeDegrees>36.51411621831357479095458984375</LatitudeDegrees>
              <LongitudeDegrees>-5.41024264879524707794189453125</LongitudeDegrees>
            </Position>
            <AltitudeMeters>193.399993896484375</AltitudeMeters>
            <DistanceMeters>5385.8341960056</DistanceMeters>
          </Trackpoint>
          <Trackpoint>
            <Time>2019-01-04T10:31:42.000Z</Time>
            <Position>
              <LatitudeDegrees>36.514104567468166351318359375</LatitudeDegrees>
              <LongitudeDegrees>-5.41024164296686649322509765625</LongitudeDegrees>
            </Position>
            <AltitudeMeters>193.399993896484375</AltitudeMeters>
            <DistanceMeters>5387.1371366687</DistanceMeters>
          </Trackpoint>
          <Trackpoint>
            <Time>2019-01-04T10:31:43.000Z</Time>
            <Position>
              <LatitudeDegrees>36.514096520841121673583984375</LatitudeDegrees>
              <LongitudeDegrees>-5.4102427326142787933349609375</LongitudeDegrees>
            </Position>
            <AltitudeMeters>193.600006103515625</AltitudeMeters>
            <DistanceMeters>5388.0386392366</DistanceMeters>
          </Trackpoint>
          <Trackpoint>
            <Time>2019-01-04T10:31:44.000Z</Time>
            <Position>
              <LatitudeDegrees>36.51408939622342586517333984375</LatitudeDegrees>
              <LongitudeDegrees>-5.4102454148232936859130859375</LongitudeDegrees>
            </Position>
            <AltitudeMeters>193.600006103515625</AltitudeMeters>
            <DistanceMeters>5388.8615947234</DistanceMeters>
          </Trackpoint>
          <Trackpoint>
            <Time>2019-01-04T10:31:45.000Z</Time>
            <Position>
              <LatitudeDegrees>36.51407715864479541778564453125</LatitudeDegrees>
              <LongitudeDegrees>-5.41024717502295970916748046875</LongitudeDegrees>
            </Position>
            <AltitudeMeters>193.600006103515625</AltitudeMeters>
            <DistanceMeters>5390.2320894882</DistanceMeters>
          </Trackpoint>
          <Trackpoint>
            <Time>2019-01-04T10:31:46.000Z</Time>
            <Position>
              <LatitudeDegrees>36.5140658430755138397216796875</LatitudeDegrees>
              <LongitudeDegrees>-5.41024767793715000152587890625</LongitudeDegrees>
            </Position>
            <AltitudeMeters>193.600006103515625</AltitudeMeters>
            <DistanceMeters>5391.4927613147</DistanceMeters>
          </Trackpoint>
          <Trackpoint>
            <Time>2019-01-04T10:31:47.000Z</Time>
            <Position>
              <LatitudeDegrees>36.51405192911624908447265625</LatitudeDegrees>
              <LongitudeDegrees>-5.41024533100426197052001953125</LongitudeDegrees>
            </Position>
            <AltitudeMeters>193.600006103515625</AltitudeMeters>
            <DistanceMeters>5393.0542095655</DistanceMeters>
          </Trackpoint>
          <Trackpoint>
            <Time>2019-01-04T10:31:48.000Z</Time>
            <Position>
              <LatitudeDegrees>36.5140366740524768829345703125</LatitudeDegrees>
              <LongitudeDegrees>-5.41024398989975452423095703125</LongitudeDegrees>
            </Position>
            <AltitudeMeters>193.600006103515625</AltitudeMeters>
            <DistanceMeters>5394.7540991096</DistanceMeters>
          </Trackpoint>
          <Trackpoint>
            <Time>2019-01-04T10:31:49.000Z</Time>
            <Position>
              <LatitudeDegrees>36.51402334682643413543701171875</LatitudeDegrees>
              <LongitudeDegrees>-5.410241223871707916259765625</LongitudeDegrees>
            </Position>
            <AltitudeMeters>193.8000030517578125</AltitudeMeters>
            <DistanceMeters>5396.2566033895</DistanceMeters>
          </Trackpoint>
          <Trackpoint>
            <Time>2019-01-04T10:31:50.000Z</Time>
            <Position>
              <LatitudeDegrees>36.514011360704898834228515625</LatitudeDegrees>
              <LongitudeDegrees>-5.4102397151291370391845703125</LongitudeDegrees>
            </Position>
            <AltitudeMeters>193.8000030517578125</AltitudeMeters>
            <DistanceMeters>5397.5971201601</DistanceMeters>
          </Trackpoint>
          <Trackpoint>
            <Time>2019-01-04T10:31:51.000Z</Time>
            <Position>
              <LatitudeDegrees>36.51399954222142696380615234375</LatitudeDegrees>
              <LongitudeDegrees>-5.4102360270917415618896484375</LongitudeDegrees>
            </Position>
            <AltitudeMeters>193.600006103515625</AltitudeMeters>
            <DistanceMeters>5398.954373119</DistanceMeters>
          </Trackpoint>
          <Trackpoint>
            <Time>2019-01-04T10:31:52.000Z</Time>
            <Position>
              <LatitudeDegrees>36.513986885547637939453125</LatitudeDegrees>
              <LongitudeDegrees>-5.41023158468306064605712890625</LongitudeDegrees>
            </Position>
            <AltitudeMeters>193.600006103515625</AltitudeMeters>
            <DistanceMeters>5400.4203738672</DistanceMeters>
          </Trackpoint>
          <Trackpoint>
            <Time>2019-01-04T10:31:53.000Z</Time>
            <Position>
              <LatitudeDegrees>36.513977162539958953857421875</LatitudeDegrees>
              <LongitudeDegrees>-5.41022722609341144561767578125</LongitudeDegrees>
            </Position>
            <AltitudeMeters>193.600006103515625</AltitudeMeters>
            <DistanceMeters>5401.5764237423</DistanceMeters>
          </Trackpoint>
          <Trackpoint>
            <Time>2019-01-04T10:31:54.000Z</Time>
            <Position>
              <LatitudeDegrees>36.5139669366180896759033203125</LatitudeDegrees>
              <LongitudeDegrees>-5.41022546589374542236328125</LongitudeDegrees>
            </Position>
            <AltitudeMeters>193.600006103515625</AltitudeMeters>
            <DistanceMeters>5402.7246359008</DistanceMeters>
          </Trackpoint>
          <Trackpoint>
            <Time>2019-01-04T10:31:55.000Z</Time>
            <Position>
              <LatitudeDegrees>36.51395495049655437469482421875</LatitudeDegrees>
              <LongitudeDegrees>-5.4102259688079357147216796875</LongitudeDegrees>
            </Position>
            <AltitudeMeters>193.600006103515625</AltitudeMeters>
            <DistanceMeters>5404.0550099019</DistanceMeters>
          </Trackpoint>
          <Trackpoint>
            <Time>2019-01-04T10:31:56.000Z</Time>
            <Position>
              <LatitudeDegrees>36.51394204236567020416259765625</LatitudeDegrees>
              <LongitudeDegrees>-5.4102249629795551300048828125</LongitudeDegrees>
            </Position>
            <AltitudeMeters>193.399993896484375</AltitudeMeters>
            <DistanceMeters>5405.493025029</DistanceMeters>
          </Trackpoint>
          <Trackpoint>
            <Time>2019-01-04T10:31:57.000Z</Time>
            <Position>
              <LatitudeDegrees>36.5139293856918811798095703125</LatitudeDegrees>
              <LongitudeDegrees>-5.41022144258022308349609375</LongitudeDegrees>
            </Position>
            <AltitudeMeters>193.399993896484375</AltitudeMeters>
            <DistanceMeters>5406.9373060469</DistanceMeters>
          </Trackpoint>
          <Trackpoint>
            <Time>2019-01-04T10:31:58.000Z</Time>
            <Position>
              <LatitudeDegrees>36.5139156393706798553466796875</LatitudeDegrees>
              <LongitudeDegrees>-5.410221107304096221923828125</LongitudeDegrees>
            </Position>
            <AltitudeMeters>193.399993896484375</AltitudeMeters>
            <DistanceMeters>5408.4695657753</DistanceMeters>
          </Trackpoint>
          <Trackpoint>
            <Time>2019-01-04T10:31:59.000Z</Time>
            <Position>
              <LatitudeDegrees>36.51390499435365200042724609375</LatitudeDegrees>
              <LongitudeDegrees>-5.4102159105241298675537109375</LongitudeDegrees>
            </Position>
            <AltitudeMeters>193.399993896484375</AltitudeMeters>
            <DistanceMeters>5409.7444829334</DistanceMeters>
          </Trackpoint>
          <Trackpoint>
            <Time>2019-01-04T10:32:00.000Z</Time>
            <Position>
              <LatitudeDegrees>36.51389040984213352203369140625</LatitudeDegrees>
              <LongitudeDegrees>-5.41021683253347873687744140625</LongitudeDegrees>
            </Position>
            <AltitudeMeters>193.600006103515625</AltitudeMeters>
            <DistanceMeters>5411.3710782727</DistanceMeters>
          </Trackpoint>
          <Trackpoint>
            <Time>2019-01-04T10:32:01.000Z</Time>
            <Position>
              <LatitudeDegrees>36.51387817226350307464599609375</LatitudeDegrees>
              <LongitudeDegrees>-5.410218425095081329345703125</LongitudeDegrees>
            </Position>
            <AltitudeMeters>193.600006103515625</AltitudeMeters>
            <DistanceMeters>5412.7415730375</DistanceMeters>
          </Trackpoint>
          <Trackpoint>
            <Time>2019-01-04T10:32:02.000Z</Time>
            <Position>
              <LatitudeDegrees>36.51386710815131664276123046875</LatitudeDegrees>
              <LongitudeDegrees>-5.4102206043899059295654296875</LongitudeDegrees>
            </Position>
            <AltitudeMeters>193.600006103515625</AltitudeMeters>
            <DistanceMeters>5413.9914543218</DistanceMeters>
          </Trackpoint>
          <Trackpoint>
            <Time>2019-01-04T10:32:03.000Z</Time>
            <Position>
              <LatitudeDegrees>36.51385537348687648773193359375</LatitudeDegrees>
              <LongitudeDegrees>-5.41022370569407939910888671875</LongitudeDegrees>
            </Position>
            <AltitudeMeters>193.600006103515625</AltitudeMeters>
            <DistanceMeters>5415.3252178164</DistanceMeters>
          </Trackpoint>
          <Trackpoint>
            <Time>2019-01-04T10:32:04.000Z</Time>
            <Position>
              <LatitudeDegrees>36.5138448961079120635986328125</LatitudeDegrees>
              <LongitudeDegrees>-5.41022521443665027618408203125</LongitudeDegrees>
            </Position>
            <AltitudeMeters>193.600006103515625</AltitudeMeters>
            <DistanceMeters>5416.5006333582</DistanceMeters>
          </Trackpoint>
          <Trackpoint>
            <Time>2019-01-04T10:32:05.000Z</Time>
            <Position>
              <LatitudeDegrees>36.51383274234831333160400390625</LatitudeDegrees>
              <LongitudeDegrees>-5.41022546589374542236328125</LongitudeDegrees>
            </Position>
            <AltitudeMeters>193.8000030517578125</AltitudeMeters>
            <DistanceMeters>5417.8512167291</DistanceMeters>
          </Trackpoint>
          <Trackpoint>
            <Time>2019-01-04T10:32:06.000Z</Time>
            <Position>
              <LatitudeDegrees>36.513824276626110076904296875</LatitudeDegrees>
              <LongitudeDegrees>-5.41022521443665027618408203125</LongitudeDegrees>
            </Position>
            <AltitudeMeters>193.8000030517578125</AltitudeMeters>
            <DistanceMeters>5418.7919332068</DistanceMeters>
          </Trackpoint>
          <Trackpoint>
            <Time>2019-01-04T10:32:07.000Z</Time>
            <Position>
              <LatitudeDegrees>36.51381413452327251434326171875</LatitudeDegrees>
              <LongitudeDegrees>-5.410225801169872283935546875</LongitudeDegrees>
            </Position>
            <AltitudeMeters>194</AltitudeMeters>
            <DistanceMeters>5419.9203129207</DistanceMeters>
          </Trackpoint>
          <Trackpoint>
            <Time>2019-01-04T10:32:08.000Z</Time>
            <Position>
              <LatitudeDegrees>36.51380340568721294403076171875</LatitudeDegrees>
              <LongitudeDegrees>-5.41022521443665027618408203125</LongitudeDegrees>
            </Position>
            <AltitudeMeters>194</AltitudeMeters>
            <DistanceMeters>5421.1147801986</DistanceMeters>
          </Trackpoint>
          <Trackpoint>
            <Time>2019-01-04T10:32:09.000Z</Time>
            <Position>
              <LatitudeDegrees>36.5137924253940582275390625</LatitudeDegrees>
              <LongitudeDegrees>-5.410224460065364837646484375</LongitudeDegrees>
            </Position>
            <AltitudeMeters>194</AltitudeMeters>
            <DistanceMeters>5422.3391137683</DistanceMeters>
          </Trackpoint>
          <Trackpoint>
            <Time>2019-01-04T10:32:10.000Z</Time>
            <Position>
              <LatitudeDegrees>36.51377993635833263397216796875</LatitudeDegrees>
              <LongitudeDegrees>-5.41022337041795253753662109375</LongitudeDegrees>
            </Position>
            <AltitudeMeters>194.1999969482421875</AltitudeMeters>
            <DistanceMeters>5423.7357155411</DistanceMeters>
          </Trackpoint>
          <Trackpoint>
            <Time>2019-01-04T10:32:11.000Z</Time>
            <Position>
              <LatitudeDegrees>36.51376954279839992523193359375</LatitudeDegrees>
              <LongitudeDegrees>-5.41022370569407939910888671875</LongitudeDegrees>
            </Position>
            <AltitudeMeters>194.1999969482421875</AltitudeMeters>
            <DistanceMeters>5424.895664415</DistanceMeters>
          </Trackpoint>
          <Trackpoint>
            <Time>2019-01-04T10:32:12.000Z</Time>
            <Position>
              <LatitudeDegrees>36.5137583948671817779541015625</LatitudeDegrees>
              <LongitudeDegrees>-5.41022588498890399932861328125</LongitudeDegrees>
            </Position>
            <AltitudeMeters>194.1999969482421875</AltitudeMeters>
            <DistanceMeters>5426.1563362415</DistanceMeters>
          </Trackpoint>
          <Trackpoint>
            <Time>2019-01-04T10:32:13.000Z</Time>
            <Position>
              <LatitudeDegrees>36.51375043205916881561279296875</LatitudeDegrees>
              <LongitudeDegrees>-5.41022521443665027618408203125</LongitudeDegrees>
            </Position>
            <AltitudeMeters>194.1999969482421875</AltitudeMeters>
            <DistanceMeters>5427.0477658389</DistanceMeters>
          </Trackpoint>
          <Trackpoint>
            <Time>2019-01-04T10:32:14.000Z</Time>
            <Position>
              <LatitudeDegrees>36.5137416310608386993408203125</LatitudeDegrees>
              <LongitudeDegrees>-5.4102263040840625762939453125</LongitudeDegrees>
            </Position>
            <AltitudeMeters>194.1999969482421875</AltitudeMeters>
            <DistanceMeters>5428.0307298156</DistanceMeters>
          </Trackpoint>
          <Trackpoint>
            <Time>2019-01-04T10:32:15.000Z</Time>
            <Position>
              <LatitudeDegrees>36.51373215951025485992431640625</LatitudeDegrees>
              <LongitudeDegrees>-5.41022588498890399932861328125</LongitudeDegrees>
            </Position>
            <AltitudeMeters>194</AltitudeMeters>
            <DistanceMeters>5429.0889025232</DistanceMeters>
          </Trackpoint>
          <Trackpoint>
            <Time>2019-01-04T10:32:16.000Z</Time>
            <Position>
              <LatitudeDegrees>36.51372394524514675140380859375</LatitudeDegrees>
              <LongitudeDegrees>-5.41022320277988910675048828125</LongitudeDegrees>
            </Position>
            <AltitudeMeters>194</AltitudeMeters>
            <DistanceMeters>5430.0344063931</DistanceMeters>
          </Trackpoint>
          <Trackpoint>
            <Time>2019-01-04T10:32:17.000Z</Time>
            <Position>
              <LatitudeDegrees>36.51371355168521404266357421875</LatitudeDegrees>
              <LongitudeDegrees>-5.4102246277034282684326171875</LongitudeDegrees>
            </Position>
            <AltitudeMeters>194</AltitudeMeters>
            <DistanceMeters>5431.1982412038</DistanceMeters>
          </Trackpoint>
          <Trackpoint>
            <Time>2019-01-04T10:32:18.000Z</Time>
            <Position>
              <LatitudeDegrees>36.5136993862688541412353515625</LatitudeDegrees>
              <LongitudeDegrees>-5.41022890247404575347900390625</LongitudeDegrees>
            </Position>
            <AltitudeMeters>194</AltitudeMeters>
            <DistanceMeters>5432.8164878379</DistanceMeters>
          </Trackpoint>
          <Trackpoint>
            <Time>2019-01-04T10:32:19.000Z</Time>
            <Position>
              <LatitudeDegrees>36.513687483966350555419921875</LatitudeDegrees>
              <LongitudeDegrees>-5.41023594327270984649658203125</LongitudeDegrees>
            </Position>
            <AltitudeMeters>194</AltitudeMeters>
            <DistanceMeters>5434.2855651912</DistanceMeters>
          </Trackpoint>
          <Trackpoint>
            <Time>2019-01-04T10:32:20.000Z</Time>
            <Position>
              <LatitudeDegrees>36.51367600075900554656982421875</LatitudeDegrees>
              <LongitudeDegrees>-5.41023845784366130828857421875</LongitudeDegrees>
            </Position>
            <AltitudeMeters>194.1999969482421875</AltitudeMeters>
            <DistanceMeters>5435.5885058543</DistanceMeters>
          </Trackpoint>
          <Trackpoint>
            <Time>2019-01-04T10:32:21.000Z</Time>
            <Position>
              <LatitudeDegrees>36.51366577483713626861572265625</LatitudeDegrees>
              <LongitudeDegrees>-5.4102408885955810546875</LongitudeDegrees>
            </Position>
            <AltitudeMeters>194.399993896484375</AltitudeMeters>
            <DistanceMeters>5436.7484547282</DistanceMeters>
          </Trackpoint>
          <Trackpoint>
            <Time>2019-01-04T10:32:22.000Z</Time>
            <Position>
              <LatitudeDegrees>36.51365756057202816009521484375</LatitudeDegrees>
              <LongitudeDegrees>-5.41024231351912021636962890625</LongitudeDegrees>
            </Position>
            <AltitudeMeters>194.600006103515625</AltitudeMeters>
            <DistanceMeters>5437.6795225768</DistanceMeters>
          </Trackpoint>
          <Trackpoint>
            <Time>2019-01-04T10:32:23.000Z</Time>
            <Position>
              <LatitudeDegrees>36.5136502683162689208984375</LatitudeDegrees>
              <LongitudeDegrees>-5.4102420620620250701904296875</LongitudeDegrees>
            </Position>
            <AltitudeMeters>194.600006103515625</AltitudeMeters>
            <DistanceMeters>5438.4858509863</DistanceMeters>
          </Trackpoint>
          <Trackpoint>
            <Time>2019-01-04T10:32:24.000Z</Time>
            <Position>
              <LatitudeDegrees>36.51364062912762165069580078125</LatitudeDegrees>
              <LongitudeDegrees>-5.4102440737187862396240234375</LongitudeDegrees>
            </Position>
            <AltitudeMeters>194.600006103515625</AltitudeMeters>
            <DistanceMeters>5439.5776248138</DistanceMeters>
          </Trackpoint>
          <Trackpoint>
            <Time>2019-01-04T10:32:25.000Z</Time>
            <Position>
              <LatitudeDegrees>36.51363090611994266510009765625</LatitudeDegrees>
              <LongitudeDegrees>-5.41024600155651569366455078125</LongitudeDegrees>
            </Position>
            <AltitudeMeters>194.600006103515625</AltitudeMeters>
            <DistanceMeters>5440.6735263455</DistanceMeters>
          </Trackpoint>
          <Trackpoint>
            <Time>2019-01-04T10:32:26.000Z</Time>
            <Position>
              <LatitudeDegrees>36.513622105121612548828125</LatitudeDegrees>
              <LongitudeDegrees>-5.41024566628038883209228515625</LongitudeDegrees>
            </Position>
            <AltitudeMeters>194.600006103515625</AltitudeMeters>
            <DistanceMeters>5441.6564903222</DistanceMeters>
          </Trackpoint>
          <Trackpoint>
            <Time>2019-01-04T10:32:27.000Z</Time>
            <Position>
              <LatitudeDegrees>36.51361330412328243255615234375</LatitudeDegrees>
              <LongitudeDegrees>-5.4102474264800548553466796875</LongitudeDegrees>
            </Position>
            <AltitudeMeters>194.600006103515625</AltitudeMeters>
            <DistanceMeters>5442.6485983467</DistanceMeters>
          </Trackpoint>
          <Trackpoint>
            <Time>2019-01-04T10:32:28.000Z</Time>
            <Position>
              <LatitudeDegrees>36.5136038325726985931396484375</LatitudeDegrees>
              <LongitudeDegrees>-5.41024960577487945556640625</LongitudeDegrees>
            </Position>
            <AltitudeMeters>194.600006103515625</AltitudeMeters>
            <DistanceMeters>5443.7237028927</DistanceMeters>
          </Trackpoint>
          <Trackpoint>
            <Time>2019-01-04T10:32:29.000Z</Time>
            <Position>
              <LatitudeDegrees>36.51359193027019500732421875</LatitudeDegrees>
              <LongitudeDegrees>-5.41024901904165744781494140625</LongitudeDegrees>
            </Position>
            <AltitudeMeters>194.600006103515625</AltitudeMeters>
            <DistanceMeters>5445.0472718672</DistanceMeters>
          </Trackpoint>
          <Trackpoint>
            <Time>2019-01-04T10:32:30.000Z</Time>
            <Position>
              <LatitudeDegrees>36.5135830454528331756591796875</LatitudeDegrees>
              <LongitudeDegrees>-5.41024633683264255523681640625</LongitudeDegrees>
            </Position>
            <AltitudeMeters>194.600006103515625</AltitudeMeters>
            <DistanceMeters>5446.0618795326</DistanceMeters>
          </Trackpoint>
          <Trackpoint>
            <Time>2019-01-04T10:32:31.000Z</Time>
            <Position>
              <LatitudeDegrees>36.513576172292232513427734375</LatitudeDegrees>
              <LongitudeDegrees>-5.4102450795471668243408203125</LongitudeDegrees>
            </Position>
            <AltitudeMeters>194.600006103515625</AltitudeMeters>
            <DistanceMeters>5446.8338802096</DistanceMeters>
          </Trackpoint>
          <Trackpoint>
            <Time>2019-01-04T10:32:32.000Z</Time>
            <Position>
              <LatitudeDegrees>36.51357240043580532073974609375</LatitudeDegrees>
              <LongitudeDegrees>-5.4102464206516742706298828125</LongitudeDegrees>
            </Position>
            <AltitudeMeters>194.8000030517578125</AltitudeMeters>
            <DistanceMeters>5447.2588525956</DistanceMeters>
          </Trackpoint>
          <Trackpoint>
            <Time>2019-01-04T10:32:33.000Z</Time>
            <Position>
              <LatitudeDegrees>36.51357005350291728973388671875</LatitudeDegrees>
              <LongitudeDegrees>-5.410247258841991424560546875</LongitudeDegrees>
            </Position>
            <AltitudeMeters>194.8000030517578125</AltitudeMeters>
            <DistanceMeters>5447.5439327387</DistanceMeters>
          </Trackpoint>
          <Trackpoint>
            <Time>2019-01-04T10:32:34.000Z</Time>
            <Position>
              <LatitudeDegrees>36.51356619782745838165283203125</LatitudeDegrees>
              <LongitudeDegrees>-5.41024960577487945556640625</LongitudeDegrees>
            </Position>
            <AltitudeMeters>195</AltitudeMeters>
            <DistanceMeters>5448.0190663105</DistanceMeters>
          </Trackpoint>
          <Trackpoint>
            <Time>2019-01-04T10:32:35.000Z</Time>
            <Position>
              <LatitudeDegrees>36.51356334798038005828857421875</LatitudeDegrees>
              <LongitudeDegrees>-5.4102511145174503326416015625</LongitudeDegrees>
            </Position>
            <AltitudeMeters>195</AltitudeMeters>
            <DistanceMeters>5448.3482485053</DistanceMeters>
          </Trackpoint>
          <Trackpoint>
            <Time>2019-01-04T10:32:36.000Z</Time>
            <Position>
              <LatitudeDegrees>36.5135592408478260040283203125</LatitudeDegrees>
              <LongitudeDegrees>-5.4102583229541778564453125</LongitudeDegrees>
            </Position>
            <AltitudeMeters>195</AltitudeMeters>
            <DistanceMeters>5449.1318588665</DistanceMeters>
          </Trackpoint>
          <Trackpoint>
            <Time>2019-01-04T10:32:37.000Z</Time>
            <Position>
              <LatitudeDegrees>36.51354943402111530303955078125</LatitudeDegrees>
              <LongitudeDegrees>-5.41026678867638111114501953125</LongitudeDegrees>
            </Position>
            <AltitudeMeters>195.1999969482421875</AltitudeMeters>
            <DistanceMeters>5450.4554278409</DistanceMeters>
          </Trackpoint>
          <Trackpoint>
            <Time>2019-01-04T10:32:38.000Z</Time>
            <Position>
              <LatitudeDegrees>36.513538621366024017333984375</LatitudeDegrees>
              <LongitudeDegrees>-5.41026695631444454193115234375</LongitudeDegrees>
            </Position>
            <AltitudeMeters>195.1999969482421875</AltitudeMeters>
            <DistanceMeters>5451.6611816746</DistanceMeters>
          </Trackpoint>
          <Trackpoint>
            <Time>2019-01-04T10:32:39.000Z</Time>
            <Position>
              <LatitudeDegrees>36.51352764107286930084228515625</LatitudeDegrees>
              <LongitudeDegrees>-5.41026569902896881103515625</LongitudeDegrees>
            </Position>
            <AltitudeMeters>195</AltitudeMeters>
            <DistanceMeters>5452.8855152442</DistanceMeters>
          </Trackpoint>
          <Trackpoint>
            <Time>2019-01-04T10:32:40.000Z</Time>
            <Position>
              <LatitudeDegrees>36.51351540349423885345458984375</LatitudeDegrees>
              <LongitudeDegrees>-5.41026561520993709564208984375</LongitudeDegrees>
            </Position>
            <AltitudeMeters>195</AltitudeMeters>
            <DistanceMeters>5454.2494051766</DistanceMeters>
          </Trackpoint>
          <Trackpoint>
            <Time>2019-01-04T10:32:41.000Z</Time>
            <Position>
              <LatitudeDegrees>36.51350383646786212921142578125</LatitudeDegrees>
              <LongitudeDegrees>-5.4102651961147785186767578125</LongitudeDegrees>
            </Position>
            <AltitudeMeters>194.8000030517578125</AltitudeMeters>
            <DistanceMeters>5455.5349027414</DistanceMeters>
          </Trackpoint>
          <Trackpoint>
            <Time>2019-01-04T10:32:42.000Z</Time>
            <Position>
              <LatitudeDegrees>36.51349402964115142822265625</LatitudeDegrees>
              <LongitudeDegrees>-5.4102628491818904876708984375</LongitudeDegrees>
            </Position>
            <AltitudeMeters>194.600006103515625</AltitudeMeters>
            <DistanceMeters>5456.6430951418</DistanceMeters>
          </Trackpoint>
          <Trackpoint>
            <Time>2019-01-04T10:32:43.000Z</Time>
            <Position>
              <LatitudeDegrees>36.51348623447120189666748046875</LatitudeDegrees>
              <LongitudeDegrees>-5.41025673039257526397705078125</LongitudeDegrees>
            </Position>
            <AltitudeMeters>194.600006103515625</AltitudeMeters>
            <DistanceMeters>5457.6665641778</DistanceMeters>
          </Trackpoint>
          <Trackpoint>
            <Time>2019-01-04T10:32:44.000Z</Time>
            <Position>
              <LatitudeDegrees>36.5134784393012523651123046875</LatitudeDegrees>
              <LongitudeDegrees>-5.4102502763271331787109375</LongitudeDegrees>
            </Position>
            <AltitudeMeters>194.399993896484375</AltitudeMeters>
            <DistanceMeters>5458.7075296783</DistanceMeters>
          </Trackpoint>
          <Trackpoint>
            <Time>2019-01-04T10:32:45.000Z</Time>
            <Position>
              <LatitudeDegrees>36.5134710632264614105224609375</LatitudeDegrees>
              <LongitudeDegrees>-5.41024181060492992401123046875</LongitudeDegrees>
            </Position>
            <AltitudeMeters>194.399993896484375</AltitudeMeters>
            <DistanceMeters>5459.8197888535</DistanceMeters>
          </Trackpoint>
          <Trackpoint>
            <Time>2019-01-04T10:32:46.000Z</Time>
            <Position>
              <LatitudeDegrees>36.51346310041844844818115234375</LatitudeDegrees>
              <LongitudeDegrees>-5.4102341830730438232421875</LongitudeDegrees>
            </Position>
            <AltitudeMeters>194.399993896484375</AltitudeMeters>
            <DistanceMeters>5460.9401372929</DistanceMeters>
          </Trackpoint>
          <Trackpoint>
            <Time>2019-01-04T10:32:47.000Z</Time>
            <Position>
              <LatitudeDegrees>36.51345513761043548583984375</LatitudeDegrees>
              <LongitudeDegrees>-5.4102259688079357147216796875</LongitudeDegrees>
            </Position>
            <AltitudeMeters>194.399993896484375</AltitudeMeters>
            <DistanceMeters>5462.0883494514</DistanceMeters>
          </Trackpoint>
          <Trackpoint>
            <Time>2019-01-04T10:32:48.000Z</Time>
            <Position>
              <LatitudeDegrees>36.5134469233453273773193359375</LatitudeDegrees>
              <LongitudeDegrees>-5.4102199338376522064208984375</LongitudeDegrees>
            </Position>
            <AltitudeMeters>194.399993896484375</AltitudeMeters>
            <DistanceMeters>5463.1465221589</DistanceMeters>
          </Trackpoint>
          <Trackpoint>
            <Time>2019-01-04T10:32:49.000Z</Time>
            <Position>
              <LatitudeDegrees>36.51343694888055324554443359375</LatitudeDegrees>
              <LongitudeDegrees>-5.4102145694196224212646484375</LongitudeDegrees>
            </Position>
            <AltitudeMeters>194.399993896484375</AltitudeMeters>
            <DistanceMeters>5464.3560147732</DistanceMeters>
          </Trackpoint>
          <Trackpoint>
            <Time>2019-01-04T10:32:50.000Z</Time>
            <Position>
              <LatitudeDegrees>36.51342689059674739837646484375</LatitudeDegrees>
              <LongitudeDegrees>-5.4102081991732120513916015625</LongitudeDegrees>
            </Position>
            <AltitudeMeters>194.399993896484375</AltitudeMeters>
            <DistanceMeters>5465.6131000438</DistanceMeters>
          </Trackpoint>
          <Trackpoint>
            <Time>2019-01-04T10:32:51.000Z</Time>
            <Position>
              <LatitudeDegrees>36.51341599412262439727783203125</LatitudeDegrees>
              <LongitudeDegrees>-5.4102038405835628509521484375</LongitudeDegrees>
            </Position>
            <AltitudeMeters>194.399993896484375</AltitudeMeters>
            <DistanceMeters>5466.8880172019</DistanceMeters>
          </Trackpoint>
          <Trackpoint>
            <Time>2019-01-04T10:32:52.000Z</Time>
            <Position>
              <LatitudeDegrees>36.51340476237237453460693359375</LatitudeDegrees>
              <LongitudeDegrees>-5.4101988114416599273681640625</LongitudeDegrees>
            </Position>
            <AltitudeMeters>194.399993896484375</AltitudeMeters>
            <DistanceMeters>5468.2149930519</DistanceMeters>
          </Trackpoint>
          <Trackpoint>
            <Time>2019-01-04T10:32:53.000Z</Time>
            <Position>
              <LatitudeDegrees>36.5133983083069324493408203125</LatitudeDegrees>
              <LongitudeDegrees>-5.4101912677288055419921875</LongitudeDegrees>
            </Position>
            <AltitudeMeters>194.399993896484375</AltitudeMeters>
            <DistanceMeters>5469.1979570286</DistanceMeters>
          </Trackpoint>
          <Trackpoint>
            <Time>2019-01-04T10:32:54.000Z</Time>
            <Position>
              <LatitudeDegrees>36.513391435146331787109375</LatitudeDegrees>
              <LongitudeDegrees>-5.41018397547304630279541015625</LongitudeDegrees>
            </Position>
            <AltitudeMeters>194.399993896484375</AltitudeMeters>
            <DistanceMeters>5470.1991255885</DistanceMeters>
          </Trackpoint>
          <Trackpoint>
            <Time>2019-01-04T10:32:55.000Z</Time>
            <Position>
              <LatitudeDegrees>36.51338464580476284027099609375</LatitudeDegrees>
              <LongitudeDegrees>-5.41017693467438220977783203125</LongitudeDegrees>
            </Position>
            <AltitudeMeters>194.399993896484375</AltitudeMeters>
            <DistanceMeters>5471.1820895652</DistanceMeters>
          </Trackpoint>
          <Trackpoint>
            <Time>2019-01-04T10:32:56.000Z</Time>
            <Position>
              <LatitudeDegrees>36.51337609626352787017822265625</LatitudeDegrees>
              <LongitudeDegrees>-5.41017240844666957855224609375</LongitudeDegrees>
            </Position>
            <AltitudeMeters>194.600006103515625</AltitudeMeters>
            <DistanceMeters>5472.2143439042</DistanceMeters>
          </Trackpoint>
          <Trackpoint>
            <Time>2019-01-04T10:32:57.000Z</Time>
            <Position>
              <LatitudeDegrees>36.51336872018873691558837890625</LatitudeDegrees>
              <LongitudeDegrees>-5.41016603820025920867919921875</LongitudeDegrees>
            </Position>
            <AltitudeMeters>194.600006103515625</AltitudeMeters>
            <DistanceMeters>5473.2109924927</DistanceMeters>
          </Trackpoint>
          <Trackpoint>
            <Time>2019-01-04T10:32:58.000Z</Time>
            <Position>
              <LatitudeDegrees>36.5133624337613582611083984375</LatitudeDegrees>
              <LongitudeDegrees>-5.41016243398189544677734375</LongitudeDegrees>
            </Position>
            <AltitudeMeters>194.600006103515625</AltitudeMeters>
            <DistanceMeters>5473.9829931697</DistanceMeters>
          </Trackpoint>
          <Trackpoint>
            <Time>2019-01-04T10:32:59.000Z</Time>
            <Position>
              <LatitudeDegrees>36.51335765607655048370361328125</LatitudeDegrees>
              <LongitudeDegrees>-5.41015698574483394622802734375</LongitudeDegrees>
            </Position>
            <AltitudeMeters>194.600006103515625</AltitudeMeters>
            <DistanceMeters>5474.7004291301</DistanceMeters>
          </Trackpoint>
          <Trackpoint>
            <Time>2019-01-04T10:33:00.000Z</Time>
            <Position>
              <LatitudeDegrees>36.5133537165820598602294921875</LatitudeDegrees>
              <LongitudeDegrees>-5.41015245951712131500244140625</LongitudeDegrees>
            </Position>
            <AltitudeMeters>194.600006103515625</AltitudeMeters>
            <DistanceMeters>5475.2938707711</DistanceMeters>
          </Trackpoint>
          <Trackpoint>
            <Time>2019-01-04T10:33:01.000Z</Time>
            <Position>
              <LatitudeDegrees>36.51334977708756923675537109375</LatitudeDegrees>
              <LongitudeDegrees>-5.41015229187905788421630859375</LongitudeDegrees>
            </Position>
            <AltitudeMeters>194.600006103515625</AltitudeMeters>
            <DistanceMeters>5475.7188431571</DistanceMeters>
          </Trackpoint>
          <Trackpoint>
            <Time>2019-01-04T10:33:02.000Z</Time>
            <Position>
              <LatitudeDegrees>36.5133406408131122589111328125</LatitudeDegrees>
              <LongitudeDegrees>-5.4101535491645336151123046875</LongitudeDegrees>
            </Position>
            <AltitudeMeters>194.600006103515625</AltitudeMeters>
            <DistanceMeters>5476.7423121931</DistanceMeters>
          </Trackpoint>
          <Trackpoint>
            <Time>2019-01-04T10:33:03.000Z</Time>
            <Position>
              <LatitudeDegrees>36.51332882232964038848876953125</LatitudeDegrees>
              <LongitudeDegrees>-5.41015245951712131500244140625</LongitudeDegrees>
            </Position>
            <AltitudeMeters>194.600006103515625</AltitudeMeters>
            <DistanceMeters>5478.0624654999</DistanceMeters>
          </Trackpoint>
          <Trackpoint>
            <Time>2019-01-04T10:33:04.000Z</Time>
            <Position>
              <LatitudeDegrees>36.51331909932196140289306640625</LatitudeDegrees>
              <LongitudeDegrees>-5.4101458378136157989501953125</LongitudeDegrees>
            </Position>
            <AltitudeMeters>194.600006103515625</AltitudeMeters>
            <DistanceMeters>5479.2978127868</DistanceMeters>
          </Trackpoint>
          <Trackpoint>
            <Time>2019-01-04T10:33:05.000Z</Time>
            <Position>
              <LatitudeDegrees>36.51330920867621898651123046875</LatitudeDegrees>
              <LongitudeDegrees>-5.4101384617388248443603515625</LongitudeDegrees>
            </Position>
            <AltitudeMeters>194.600006103515625</AltitudeMeters>
            <DistanceMeters>5480.5797932518</DistanceMeters>
          </Trackpoint>
          <Trackpoint>
            <Time>2019-01-04T10:33:06.000Z</Time>
            <Position>
              <LatitudeDegrees>36.5132980607450008392333984375</LatitudeDegrees>
              <LongitudeDegrees>-5.41013158857822418212890625</LongitudeDegrees>
            </Position>
            <AltitudeMeters>194.399993896484375</AltitudeMeters>
            <DistanceMeters>5481.9634030979</DistanceMeters>
          </Trackpoint>
          <Trackpoint>
            <Time>2019-01-04T10:33:07.000Z</Time>
            <Position>
              <LatitudeDegrees>36.51328657753765583038330078125</LatitudeDegrees>
              <LongitudeDegrees>-5.4101250506937503814697265625</LongitudeDegrees>
            </Position>
            <AltitudeMeters>194.399993896484375</AltitudeMeters>
            <DistanceMeters>5483.3696700502</DistanceMeters>
          </Trackpoint>
          <Trackpoint>
            <Time>2019-01-04T10:33:08.000Z</Time>
            <Position>
              <LatitudeDegrees>36.5132739208638668060302734375</LatitudeDegrees>
              <LongitudeDegrees>-5.41011817753314971923828125</LongitudeDegrees>
            </Position>
            <AltitudeMeters>194.1999969482421875</AltitudeMeters>
            <DistanceMeters>5484.9048736041</DistanceMeters>
          </Trackpoint>
          <Trackpoint>
            <Time>2019-01-04T10:33:09.000Z</Time>
            <Position>
              <LatitudeDegrees>36.51326193474233150482177734375</LatitudeDegrees>
              <LongitudeDegrees>-5.41011147201061248779296875</LongitudeDegrees>
            </Position>
            <AltitudeMeters>194.1999969482421875</AltitudeMeters>
            <DistanceMeters>5486.3647016901</DistanceMeters>
          </Trackpoint>
          <Trackpoint>
            <Time>2019-01-04T10:33:10.000Z</Time>
            <Position>
              <LatitudeDegrees>36.51325355283915996551513671875</LatitudeDegrees>
              <LongitudeDegrees>-5.4101039282977581024169921875</LongitudeDegrees>
            </Position>
            <AltitudeMeters>194.1999969482421875</AltitudeMeters>
            <DistanceMeters>5487.5129138486</DistanceMeters>
          </Trackpoint>
          <Trackpoint>
            <Time>2019-01-04T10:33:11.000Z</Time>
            <Position>
              <LatitudeDegrees>36.5132452547550201416015625</LatitudeDegrees>
              <LongitudeDegrees>-5.4100968874990940093994140625</LongitudeDegrees>
            </Position>
            <AltitudeMeters>194.1999969482421875</AltitudeMeters>
            <DistanceMeters>5488.6292249832</DistanceMeters>
          </Trackpoint>
          <Trackpoint>
            <Time>2019-01-04T10:33:12.000Z</Time>
            <Position>
              <LatitudeDegrees>36.5132318437099456787109375</LatitudeDegrees>
              <LongitudeDegrees>-5.41008892469108104705810546875</LongitudeDegrees>
            </Position>
            <AltitudeMeters>194.399993896484375</AltitudeMeters>
            <DistanceMeters>5490.2806132132</DistanceMeters>
          </Trackpoint>
          <Trackpoint>
            <Time>2019-01-04T10:33:13.000Z</Time>
            <Position>
              <LatitudeDegrees>36.51322052814066410064697265625</LatitudeDegrees>
              <LongitudeDegrees>-5.4100818000733852386474609375</LongitudeDegrees>
            </Position>
            <AltitudeMeters>194.399993896484375</AltitudeMeters>
            <DistanceMeters>5491.6964793688</DistanceMeters>
          </Trackpoint>
          <Trackpoint>
            <Time>2019-01-04T10:33:14.000Z</Time>
            <Position>
              <LatitudeDegrees>36.5132112242281436920166015625</LatitudeDegrees>
              <LongitudeDegrees>-5.41007526218891143798828125</LongitudeDegrees>
            </Position>
            <AltitudeMeters>194.399993896484375</AltitudeMeters>
            <DistanceMeters>5492.8909466467</DistanceMeters>
          </Trackpoint>
          <Trackpoint>
            <Time>2019-01-04T10:33:15.000Z</Time>
            <Position>
              <LatitudeDegrees>36.513201333582401275634765625</LatitudeDegrees>
              <LongitudeDegrees>-5.41007132269442081451416015625</LongitudeDegrees>
            </Position>
            <AltitudeMeters>194.399993896484375</AltitudeMeters>
            <DistanceMeters>5494.0508955207</DistanceMeters>
          </Trackpoint>
          <Trackpoint>
            <Time>2019-01-04T10:33:16.000Z</Time>
            <Position>
              <LatitudeDegrees>36.51319362223148345947265625</LatitudeDegrees>
              <LongitudeDegrees>-5.41006528772413730621337890625</LongitudeDegrees>
            </Position>
            <AltitudeMeters>194.399993896484375</AltitudeMeters>
            <DistanceMeters>5495.065503186</DistanceMeters>
          </Trackpoint>
          <Trackpoint>
            <Time>2019-01-04T10:33:17.000Z</Time>
            <Position>
              <LatitudeDegrees>36.51318691670894622802734375</LatitudeDegrees>
              <LongitudeDegrees>-5.4100620187819004058837890625</LongitudeDegrees>
            </Position>
            <AltitudeMeters>194.399993896484375</AltitudeMeters>
            <DistanceMeters>5495.8718315955</DistanceMeters>
          </Trackpoint>
          <Trackpoint>
            <Time>2019-01-04T10:33:18.000Z</Time>
            <Position>
              <LatitudeDegrees>36.51317610405385494232177734375</LatitudeDegrees>
              <LongitudeDegrees>-5.41005824692547321319580078125</LongitudeDegrees>
            </Position>
            <AltitudeMeters>194.399993896484375</AltitudeMeters>
            <DistanceMeters>5497.1217128798</DistanceMeters>
          </Trackpoint>
          <Trackpoint>
            <Time>2019-01-04T10:33:19.000Z</Time>
            <Position>
              <LatitudeDegrees>36.51316587813198566436767578125</LatitudeDegrees>
              <LongitudeDegrees>-5.41005271486937999725341796875</LongitudeDegrees>
            </Position>
            <AltitudeMeters>194.399993896484375</AltitudeMeters>
            <DistanceMeters>5498.3607096496</DistanceMeters>
          </Trackpoint>
          <Trackpoint>
            <Time>2019-01-04T10:33:20.000Z</Time>
            <Position>
              <LatitudeDegrees>36.51315783150494098663330078125</LatitudeDegrees>
              <LongitudeDegrees>-5.410053469240665435791015625</LongitudeDegrees>
            </Position>
            <AltitudeMeters>194.600006103515625</AltitudeMeters>
            <DistanceMeters>5499.2622122175</DistanceMeters>
          </Trackpoint>
          <Trackpoint>
            <Time>2019-01-04T10:33:21.000Z</Time>
            <Position>
              <LatitudeDegrees>36.5131502039730548858642578125</LatitudeDegrees>
              <LongitudeDegrees>-5.410053469240665435791015625</LongitudeDegrees>
            </Position>
            <AltitudeMeters>194.600006103515625</AltitudeMeters>
            <DistanceMeters>5500.1121569895</DistanceMeters>
          </Trackpoint>
          <Trackpoint>
            <Time>2019-01-04T10:33:22.000Z</Time>
            <Position>
              <LatitudeDegrees>36.51314157061278820037841796875</LatitudeDegrees>
              <LongitudeDegrees>-5.41005422361195087432861328125</LongitudeDegrees>
            </Position>
            <AltitudeMeters>194.8000030517578125</AltitudeMeters>
            <DistanceMeters>5501.0812431313</DistanceMeters>
          </Trackpoint>
          <Trackpoint>
            <Time>2019-01-04T10:33:23.000Z</Time>
            <Position>
              <LatitudeDegrees>36.51313452981412410736083984375</LatitudeDegrees>
              <LongitudeDegrees>-5.410050787031650543212890625</LongitudeDegrees>
            </Position>
            <AltitudeMeters>194.8000030517578125</AltitudeMeters>
            <DistanceMeters>5501.9204963485</DistanceMeters>
          </Trackpoint>
          <Trackpoint>
            <Time>2019-01-04T10:33:24.000Z</Time>
            <Position>
              <LatitudeDegrees>36.513127572834491729736328125</LatitudeDegrees>
              <LongitudeDegrees>-5.410042740404605865478515625</LongitudeDegrees>
            </Position>
            <AltitudeMeters>194.8000030517578125</AltitudeMeters>
            <DistanceMeters>5502.9786690561</DistanceMeters>
          </Trackpoint>
          <Trackpoint>
            <Time>2019-01-04T10:33:25.000Z</Time>
            <Position>
              <LatitudeDegrees>36.51311910711228847503662109375</LatitudeDegrees>
              <LongitudeDegrees>-5.4100383818149566650390625</LongitudeDegrees>
            </Position>
            <AltitudeMeters>194.8000030517578125</AltitudeMeters>
            <DistanceMeters>5503.9977170388</DistanceMeters>
          </Trackpoint>
          <Trackpoint>
            <Time>2019-01-04T10:33:26.000Z</Time>
            <Position>
              <LatitudeDegrees>36.5131076239049434661865234375</LatitudeDegrees>
              <LongitudeDegrees>-5.41003997437655925750732421875</LongitudeDegrees>
            </Position>
            <AltitudeMeters>194.600006103515625</AltitudeMeters>
            <DistanceMeters>5505.2867221069</DistanceMeters>
          </Trackpoint>
          <Trackpoint>
            <Time>2019-01-04T10:33:27.000Z</Time>
            <Position>
              <LatitudeDegrees>36.51309597305953502655029296875</LatitudeDegrees>
              <LongitudeDegrees>-5.41003997437655925750732421875</LongitudeDegrees>
            </Position>
            <AltitudeMeters>194.600006103515625</AltitudeMeters>
            <DistanceMeters>5506.58966277</DistanceMeters>
          </Trackpoint>
          <Trackpoint>
            <Time>2019-01-04T10:33:28.000Z</Time>
            <Position>
              <LatitudeDegrees>36.5130834840238094329833984375</LatitudeDegrees>
              <LongitudeDegrees>-5.41003896854817867279052734375</LongitudeDegrees>
            </Position>
            <AltitudeMeters>194.399993896484375</AltitudeMeters>
            <DistanceMeters>5507.9830279179</DistanceMeters>
          </Trackpoint>
          <Trackpoint>
            <Time>2019-01-04T10:33:29.000Z</Time>
            <Position>
              <LatitudeDegrees>36.51307216845452785491943359375</LatitudeDegrees>
              <LongitudeDegrees>-5.4100385494530200958251953125</LongitudeDegrees>
            </Position>
            <AltitudeMeters>194.399993896484375</AltitudeMeters>
            <DistanceMeters>5509.2436997444</DistanceMeters>
          </Trackpoint>
          <Trackpoint>
            <Time>2019-01-04T10:33:30.000Z</Time>
            <Position>
              <LatitudeDegrees>36.51306412182748317718505859375</LatitudeDegrees>
              <LongitudeDegrees>-5.4100348614156246185302734375</LongitudeDegrees>
            </Position>
            <AltitudeMeters>194.399993896484375</AltitudeMeters>
            <DistanceMeters>5510.1987064045</DistanceMeters>
          </Trackpoint>
          <Trackpoint>
            <Time>2019-01-04T10:33:31.000Z</Time>
            <Position>
              <LatitudeDegrees>36.5130566619336605072021484375</LatitudeDegrees>
              <LongitudeDegrees>-5.41003377176821231842041015625</LongitudeDegrees>
            </Position>
            <AltitudeMeters>194.399993896484375</AltitudeMeters>
            <DistanceMeters>5511.0271300943</DistanceMeters>
          </Trackpoint>
          <Trackpoint>
            <Time>2019-01-04T10:33:32.000Z</Time>
            <Position>
              <LatitudeDegrees>36.51304635219275951385498046875</LatitudeDegrees>
              <LongitudeDegrees>-5.41003637015819549560546875</LongitudeDegrees>
            </Position>
            <AltitudeMeters>194.399993896484375</AltitudeMeters>
            <DistanceMeters>5512.1986981117</DistanceMeters>
          </Trackpoint>
          <Trackpoint>
            <Time>2019-01-04T10:33:33.000Z</Time>
            <Position>
              <LatitudeDegrees>36.51303629390895366668701171875</LatitudeDegrees>
              <LongitudeDegrees>-5.4100351966917514801025390625</LongitudeDegrees>
            </Position>
            <AltitudeMeters>194.399993896484375</AltitudeMeters>
            <DistanceMeters>5513.3230693592</DistanceMeters>
          </Trackpoint>
          <Trackpoint>
            <Time>2019-01-04T10:33:34.000Z</Time>
            <Position>
              <LatitudeDegrees>36.51302506215870380401611328125</LatitudeDegrees>
              <LongitudeDegrees>-5.4100328497588634490966796875</LongitudeDegrees>
            </Position>
            <AltitudeMeters>194.1999969482421875</AltitudeMeters>
            <DistanceMeters>5514.5908838594</DistanceMeters>
          </Trackpoint>
          <Trackpoint>
            <Time>2019-01-04T10:33:35.000Z</Time>
            <Position>
              <LatitudeDegrees>36.513016931712627410888671875</LatitudeDegrees>
              <LongitudeDegrees>-5.41003276593983173370361328125</LongitudeDegrees>
            </Position>
            <AltitudeMeters>194.1999969482421875</AltitudeMeters>
            <DistanceMeters>5515.4973809396</DistanceMeters>
          </Trackpoint>
          <Trackpoint>
            <Time>2019-01-04T10:33:36.000Z</Time>
            <Position>
              <LatitudeDegrees>36.5130078792572021484375</LatitudeDegrees>
              <LongitudeDegrees>-5.41003494523465633392333984375</LongitudeDegrees>
            </Position>
            <AltitudeMeters>194</AltitudeMeters>
            <DistanceMeters>5516.5208499756</DistanceMeters>
          </Trackpoint>
          <Trackpoint>
            <Time>2019-01-04T10:33:37.000Z</Time>
            <Position>
              <LatitudeDegrees>36.51299782097339630126953125</LatitudeDegrees>
              <LongitudeDegrees>-5.410032011568546295166015625</LongitudeDegrees>
            </Position>
            <AltitudeMeters>194</AltitudeMeters>
            <DistanceMeters>5517.669062134</DistanceMeters>
          </Trackpoint>
          <Trackpoint>
            <Time>2019-01-04T10:33:38.000Z</Time>
            <Position>
              <LatitudeDegrees>36.51298843324184417724609375</LatitudeDegrees>
              <LongitudeDegrees>-5.41003075428307056427001953125</LongitudeDegrees>
            </Position>
            <AltitudeMeters>193.8000030517578125</AltitudeMeters>
            <DistanceMeters>5518.7186665005</DistanceMeters>
          </Trackpoint>
          <Trackpoint>
            <Time>2019-01-04T10:33:39.000Z</Time>
            <Position>
              <LatitudeDegrees>36.5129768662154674530029296875</LatitudeDegrees>
              <LongitudeDegrees>-5.4100288264453411102294921875</LongitudeDegrees>
            </Position>
            <AltitudeMeters>193.600006103515625</AltitudeMeters>
            <DistanceMeters>5520.0146580972</DistanceMeters>
          </Trackpoint>
          <Trackpoint>
            <Time>2019-01-04T10:33:40.000Z</Time>
            <Position>
              <LatitudeDegrees>36.5129654668271541595458984375</LatitudeDegrees>
              <LongitudeDegrees>-5.410025976598262786865234375</LongitudeDegrees>
            </Position>
            <AltitudeMeters>193.600006103515625</AltitudeMeters>
            <DistanceMeters>5521.3071611502</DistanceMeters>
          </Trackpoint>
          <Trackpoint>
            <Time>2019-01-04T10:33:41.000Z</Time>
            <Position>
              <LatitudeDegrees>36.5129533968865871429443359375</LatitudeDegrees>
              <LongitudeDegrees>-5.41002170182764530181884765625</LongitudeDegrees>
            </Position>
            <AltitudeMeters>193.600006103515625</AltitudeMeters>
            <DistanceMeters>5522.7069920644</DistanceMeters>
          </Trackpoint>
          <Trackpoint>
            <Time>2019-01-04T10:33:42.000Z</Time>
            <Position>
              <LatitudeDegrees>36.51294643990695476531982421875</LatitudeDegrees>
              <LongitudeDegrees>-5.4100170917809009552001953125</LongitudeDegrees>
            </Position>
            <AltitudeMeters>193.600006103515625</AltitudeMeters>
            <DistanceMeters>5523.5882335603</DistanceMeters>
          </Trackpoint>
          <Trackpoint>
            <Time>2019-01-04T10:33:43.000Z</Time>
            <Position>
              <LatitudeDegrees>36.51293939910829067230224609375</LatitudeDegrees>
              <LongitudeDegrees>-5.41001516394317150115966796875</LongitudeDegrees>
            </Position>
            <AltitudeMeters>193.600006103515625</AltitudeMeters>
            <DistanceMeters>5524.3889428881</DistanceMeters>
          </Trackpoint>
          <Trackpoint>
            <Time>2019-01-04T10:33:44.000Z</Time>
            <Position>
              <LatitudeDegrees>36.5129309333860874176025390625</LatitudeDegrees>
              <LongitudeDegrees>-5.41001667268574237823486328125</LongitudeDegrees>
            </Position>
            <AltitudeMeters>193.600006103515625</AltitudeMeters>
            <DistanceMeters>5525.3392100318</DistanceMeters>
          </Trackpoint>
          <Trackpoint>
            <Time>2019-01-04T10:33:45.000Z</Time>
            <Position>
              <LatitudeDegrees>36.5129235573112964630126953125</LatitudeDegrees>
              <LongitudeDegrees>-5.41001935489475727081298828125</LongitudeDegrees>
            </Position>
            <AltitudeMeters>193.600006103515625</AltitudeMeters>
            <DistanceMeters>5526.1891548038</DistanceMeters>
          </Trackpoint>
          <Trackpoint>
            <Time>2019-01-04T10:33:46.000Z</Time>
            <Position>
              <LatitudeDegrees>36.51291626505553722381591796875</LatitudeDegrees>
              <LongitudeDegrees>-5.41001801379024982452392578125</LongitudeDegrees>
            </Position>
            <AltitudeMeters>193.600006103515625</AltitudeMeters>
            <DistanceMeters>5527.0010634073</DistanceMeters>
          </Trackpoint>
          <Trackpoint>
            <Time>2019-01-04T10:33:47.000Z</Time>
            <Position>
              <LatitudeDegrees>36.5129091404378414154052734375</LatitudeDegrees>
              <LongitudeDegrees>-5.4100157506763935089111328125</LongitudeDegrees>
            </Position>
            <AltitudeMeters>193.8000030517578125</AltitudeMeters>
            <DistanceMeters>5527.8185141134</DistanceMeters>
          </Trackpoint>
          <Trackpoint>
            <Time>2019-01-04T10:33:48.000Z</Time>
            <Position>
              <LatitudeDegrees>36.512901596724987030029296875</LatitudeDegrees>
              <LongitudeDegrees>-5.4100130684673786163330078125</LongitudeDegrees>
            </Position>
            <AltitudeMeters>193.8000030517578125</AltitudeMeters>
            <DistanceMeters>5528.6894483367</DistanceMeters>
          </Trackpoint>
          <Trackpoint>
            <Time>2019-01-04T10:33:49.000Z</Time>
            <Position>
              <LatitudeDegrees>36.51289128698408603668212890625</LatitudeDegrees>
              <LongitudeDegrees>-5.4100117273628711700439453125</LongitudeDegrees>
            </Position>
            <AltitudeMeters>193.8000030517578125</AltitudeMeters>
            <DistanceMeters>5529.8415860182</DistanceMeters>
          </Trackpoint>
          <Trackpoint>
            <Time>2019-01-04T10:33:50.000Z</Time>
            <Position>
              <LatitudeDegrees>36.512880139052867889404296875</LatitudeDegrees>
              <LongitudeDegrees>-5.41000778786838054656982421875</LongitudeDegrees>
            </Position>
            <AltitudeMeters>193.8000030517578125</AltitudeMeters>
            <DistanceMeters>5531.1340890713</DistanceMeters>
          </Trackpoint>
          <Trackpoint>
            <Time>2019-01-04T10:33:51.000Z</Time>
            <Position>
              <LatitudeDegrees>36.51287049986422061920166015625</LatitudeDegrees>
              <LongitudeDegrees>-5.41000150144100189208984375</LongitudeDegrees>
            </Position>
            <AltitudeMeters>193.600006103515625</AltitudeMeters>
            <DistanceMeters>5532.3435816855</DistanceMeters>
          </Trackpoint>
          <Trackpoint>
            <Time>2019-01-04T10:33:52.000Z</Time>
            <Position>
              <LatitudeDegrees>36.51286144740879535675048828125</LatitudeDegrees>
              <LongitudeDegrees>-5.40999454446136951446533203125</LongitudeDegrees>
            </Position>
            <AltitudeMeters>193.600006103515625</AltitudeMeters>
            <DistanceMeters>5533.5304649676</DistanceMeters>
          </Trackpoint>
          <Trackpoint>
            <Time>2019-01-04T10:33:53.000Z</Time>
            <Position>
              <LatitudeDegrees>36.51285440661013126373291015625</LatitudeDegrees>
              <LongitudeDegrees>-5.4099892638623714447021484375</LongitudeDegrees>
            </Position>
            <AltitudeMeters>193.600006103515625</AltitudeMeters>
            <DistanceMeters>5534.4517831459</DistanceMeters>
          </Trackpoint>
          <Trackpoint>
            <Time>2019-01-04T10:33:54.000Z</Time>
            <Position>
              <LatitudeDegrees>36.5128487907350063323974609375</LatitudeDegrees>
              <LongitudeDegrees>-5.4099828936159610748291015625</LongitudeDegrees>
            </Position>
            <AltitudeMeters>193.399993896484375</AltitudeMeters>
            <DistanceMeters>5535.301727918</DistanceMeters>
          </Trackpoint>
          <Trackpoint>
            <Time>2019-01-04T10:33:55.000Z</Time>
            <Position>
              <LatitudeDegrees>36.5128427557647228240966796875</LatitudeDegrees>
              <LongitudeDegrees>-5.4099748469889163970947265625</LongitudeDegrees>
            </Position>
            <AltitudeMeters>193.399993896484375</AltitudeMeters>
            <DistanceMeters>5536.2800878226</DistanceMeters>
          </Trackpoint>
          <Trackpoint>
            <Time>2019-01-04T10:33:56.000Z</Time>
            <Position>
              <LatitudeDegrees>36.51283646933734416961669921875</LatitudeDegrees>
              <LongitudeDegrees>-5.409969650208950042724609375</LongitudeDegrees>
            </Position>
            <AltitudeMeters>193.399993896484375</AltitudeMeters>
            <DistanceMeters>5537.1193410398</DistanceMeters>
          </Trackpoint>
          <Trackpoint>
            <Time>2019-01-04T10:33:57.000Z</Time>
            <Position>
              <LatitudeDegrees>36.51282808743417263031005859375</LatitudeDegrees>
              <LongitudeDegrees>-5.40996654890477657318115234375</LongitudeDegrees>
            </Position>
            <AltitudeMeters>193.399993896484375</AltitudeMeters>
            <DistanceMeters>5538.0930751034</DistanceMeters>
          </Trackpoint>
          <Trackpoint>
            <Time>2019-01-04T10:33:58.000Z</Time>
            <Position>
              <LatitudeDegrees>36.51282171718776226043701171875</LatitudeDegrees>
              <LongitudeDegrees>-5.409963615238666534423828125</LongitudeDegrees>
            </Position>
            <AltitudeMeters>193.399993896484375</AltitudeMeters>
            <DistanceMeters>5538.8532888184</DistanceMeters>
          </Trackpoint>
          <Trackpoint>
            <Time>2019-01-04T10:33:59.000Z</Time>
            <Position>
              <LatitudeDegrees>36.51281685568392276763916015625</LatitudeDegrees>
              <LongitudeDegrees>-5.409960933029651641845703125</LongitudeDegrees>
            </Position>
            <AltitudeMeters>193.600006103515625</AltitudeMeters>
            <DistanceMeters>5539.4390728271</DistanceMeters>
          </Trackpoint>
          <Trackpoint>
            <Time>2019-01-04T10:34:00.000Z</Time>
            <Position>
              <LatitudeDegrees>36.51281098835170269012451171875</LatitudeDegrees>
              <LongitudeDegrees>-5.4099590890109539031982421875</LongitudeDegrees>
            </Position>
            <AltitudeMeters>193.600006103515625</AltitudeMeters>
            <DistanceMeters>5540.1042598277</DistanceMeters>
          </Trackpoint>
          <Trackpoint>
            <Time>2019-01-04T10:34:01.000Z</Time>
            <Position>
              <LatitudeDegrees>36.51280193589627742767333984375</LatitudeDegrees>
              <LongitudeDegrees>-5.4099594242870807647705078125</LongitudeDegrees>
            </Position>
            <AltitudeMeters>193.600006103515625</AltitudeMeters>
            <DistanceMeters>5541.1099280442</DistanceMeters>
          </Trackpoint>
          <Trackpoint>
            <Time>2019-01-04T10:34:02.000Z</Time>
            <Position>
              <LatitudeDegrees>36.5127921290695667266845703125</LatitudeDegrees>
              <LongitudeDegrees>-5.40995883755385875701904296875</LongitudeDegrees>
            </Position>
            <AltitudeMeters>193.600006103515625</AltitudeMeters>
            <DistanceMeters>5542.2017018718</DistanceMeters>
          </Trackpoint>
          <Trackpoint>
            <Time>2019-01-04T10:34:03.000Z</Time>
            <Position>
              <LatitudeDegrees>36.512784250080585479736328125</LatitudeDegrees>
              <LongitudeDegrees>-5.4099579155445098876953125</LongitudeDegrees>
            </Position>
            <AltitudeMeters>193.600006103515625</AltitudeMeters>
            <DistanceMeters>5543.0829433678</DistanceMeters>
          </Trackpoint>
          <Trackpoint>
            <Time>2019-01-04T10:34:04.000Z</Time>
            <Position>
              <LatitudeDegrees>36.5127758681774139404296875</LatitudeDegrees>
              <LongitudeDegrees>-5.40995548479259014129638671875</LongitudeDegrees>
            </Position>
            <AltitudeMeters>193.600006103515625</AltitudeMeters>
            <DistanceMeters>5544.0379500279</DistanceMeters>
          </Trackpoint>
          <Trackpoint>
            <Time>2019-01-04T10:34:05.000Z</Time>
            <Position>
              <LatitudeDegrees>36.51276639662683010101318359375</LatitudeDegrees>
              <LongitudeDegrees>-5.40995447896420955657958984375</LongitudeDegrees>
            </Position>
            <AltitudeMeters>193.600006103515625</AltitudeMeters>
            <DistanceMeters>5545.0961227354</DistanceMeters>
          </Trackpoint>
          <Trackpoint>
            <Time>2019-01-04T10:34:06.000Z</Time>
            <Position>
              <LatitudeDegrees>36.51275575160980224609375</LatitudeDegrees>
              <LongitudeDegrees>-5.409955568611621856689453125</LongitudeDegrees>
            </Position>
            <AltitudeMeters>193.399993896484375</AltitudeMeters>
            <DistanceMeters>5546.2830060175</DistanceMeters>
          </Trackpoint>
          <Trackpoint>
            <Time>2019-01-04T10:34:07.000Z</Time>
            <Position>
              <LatitudeDegrees>36.51274493895471096038818359375</LatitudeDegrees>
              <LongitudeDegrees>-5.40995724499225616455078125</LongitudeDegrees>
            </Position>
            <AltitudeMeters>193.1999969482421875</AltitudeMeters>
            <DistanceMeters>5547.4962258906</DistanceMeters>
          </Trackpoint>
          <Trackpoint>
            <Time>2019-01-04T10:34:08.000Z</Time>
            <Position>
              <LatitudeDegrees>36.51273588649928569793701171875</LatitudeDegrees>
              <LongitudeDegrees>-5.4099560715258121490478515625</LongitudeDegrees>
            </Position>
            <AltitudeMeters>193.1999969482421875</AltitudeMeters>
            <DistanceMeters>5548.5108335559</DistanceMeters>
          </Trackpoint>
          <Trackpoint>
            <Time>2019-01-04T10:34:09.000Z</Time>
            <Position>
              <LatitudeDegrees>36.512725912034511566162109375</LatitudeDegrees>
              <LongitudeDegrees>-5.40995732881128787994384765625</LongitudeDegrees>
            </Position>
            <AltitudeMeters>193</AltitudeMeters>
            <DistanceMeters>5549.6230927311</DistanceMeters>
          </Trackpoint>
          <Trackpoint>
            <Time>2019-01-04T10:34:10.000Z</Time>
            <Position>
              <LatitudeDegrees>36.512714512646198272705078125</LatitudeDegrees>
              <LongitudeDegrees>-5.40995657444000244140625</LongitudeDegrees>
            </Position>
            <AltitudeMeters>193</AltitudeMeters>
            <DistanceMeters>5550.8944635203</DistanceMeters>
          </Trackpoint>
          <Trackpoint>
            <Time>2019-01-04T10:34:11.000Z</Time>
            <Position>
              <LatitudeDegrees>36.51270587928593158721923828125</LatitudeDegrees>
              <LongitudeDegrees>-5.40995297022163867950439453125</LongitudeDegrees>
            </Position>
            <AltitudeMeters>193</AltitudeMeters>
            <DistanceMeters>5551.913511503</DistanceMeters>
          </Trackpoint>
          <Trackpoint>
            <Time>2019-01-04T10:34:12.000Z</Time>
            <Position>
              <LatitudeDegrees>36.512699760496616363525390625</LatitudeDegrees>
              <LongitudeDegrees>-5.4099500365555286407470703125</LongitudeDegrees>
            </Position>
            <AltitudeMeters>192.8000030517578125</AltitudeMeters>
            <DistanceMeters>5552.6495852674</DistanceMeters>
          </Trackpoint>
          <Trackpoint>
            <Time>2019-01-04T10:34:13.000Z</Time>
            <Position>
              <LatitudeDegrees>36.51269230060279369354248046875</LatitudeDegrees>
              <LongitudeDegrees>-5.40994928218424320220947265625</LongitudeDegrees>
            </Position>
            <AltitudeMeters>192.8000030517578125</AltitudeMeters>
            <DistanceMeters>5553.4888384846</DistanceMeters>
          </Trackpoint>
          <Trackpoint>
            <Time>2019-01-04T10:34:14.000Z</Time>
            <Position>
              <LatitudeDegrees>36.51268324814736843109130859375</LatitudeDegrees>
              <LongitudeDegrees>-5.40994785726070404052734375</LongitudeDegrees>
            </Position>
            <AltitudeMeters>192.8000030517578125</AltitudeMeters>
            <DistanceMeters>5554.50344615</DistanceMeters>
          </Trackpoint>
          <Trackpoint>
            <Time>2019-01-04T10:34:15.000Z</Time>
            <Position>
              <LatitudeDegrees>36.51267687790095806121826171875</LatitudeDegrees>
              <LongitudeDegrees>-5.40994140319526195526123046875</LongitudeDegrees>
            </Position>
            <AltitudeMeters>192.600006103515625</AltitudeMeters>
            <DistanceMeters>5555.4149103746</DistanceMeters>
          </Trackpoint>
          <Trackpoint>
            <Time>2019-01-04T10:34:16.000Z</Time>
            <Position>
              <LatitudeDegrees>36.512672938406467437744140625</LatitudeDegrees>
              <LongitudeDegrees>-5.4099326021969318389892578125</LongitudeDegrees>
            </Position>
            <AltitudeMeters>192.600006103515625</AltitudeMeters>
            <DistanceMeters>5556.311390605</DistanceMeters>
          </Trackpoint>
          <Trackpoint>
            <Time>2019-01-04T10:34:17.000Z</Time>
            <Position>
              <LatitudeDegrees>36.5126658976078033447265625</LatitudeDegrees>
              <LongitudeDegrees>-5.40992346592247486114501953125</LongitudeDegrees>
            </Position>
            <AltitudeMeters>192.600006103515625</AltitudeMeters>
            <DistanceMeters>5557.4437645958</DistanceMeters>
          </Trackpoint>
          <Trackpoint>
            <Time>2019-01-04T10:34:18.000Z</Time>
            <Position>
              <LatitudeDegrees>36.51265558786690235137939453125</LatitudeDegrees>
              <LongitudeDegrees>-5.40991625748574733734130859375</LongitudeDegrees>
            </Position>
            <AltitudeMeters>192.399993896484375</AltitudeMeters>
            <DistanceMeters>5558.7604933748</DistanceMeters>
          </Trackpoint>
          <Trackpoint>
            <Time>2019-01-04T10:34:19.000Z</Time>
            <Position>
              <LatitudeDegrees>36.51264502666890621185302734375</LatitudeDegrees>
              <LongitudeDegrees>-5.4099091328680515289306640625</LongitudeDegrees>
            </Position>
            <AltitudeMeters>192.399993896484375</AltitudeMeters>
            <DistanceMeters>5560.0976377708</DistanceMeters>
          </Trackpoint>
          <Trackpoint>
            <Time>2019-01-04T10:34:20.000Z</Time>
            <Position>
              <LatitudeDegrees>36.51263706386089324951171875</LatitudeDegrees>
              <LongitudeDegrees>-5.40990066714584827423095703125</LongitudeDegrees>
            </Position>
            <AltitudeMeters>192.399993896484375</AltitudeMeters>
            <DistanceMeters>5561.2614725815</DistanceMeters>
          </Trackpoint>
          <Trackpoint>
            <Time>2019-01-04T10:34:21.000Z</Time>
            <Position>
              <LatitudeDegrees>36.512629352509975433349609375</LatitudeDegrees>
              <LongitudeDegrees>-5.4098920337855815887451171875</LongitudeDegrees>
            </Position>
            <AltitudeMeters>192.399993896484375</AltitudeMeters>
            <DistanceMeters>5562.4175224566</DistanceMeters>
          </Trackpoint>
          <Trackpoint>
            <Time>2019-01-04T10:34:22.000Z</Time>
            <Position>
              <LatitudeDegrees>36.5126216411590576171875</LatitudeDegrees>
              <LongitudeDegrees>-5.40988524444401264190673828125</LongitudeDegrees>
            </Position>
            <AltitudeMeters>192.399993896484375</AltitudeMeters>
            <DistanceMeters>5563.4671268231</DistanceMeters>
          </Trackpoint>
          <Trackpoint>
            <Time>2019-01-04T10:34:23.000Z</Time>
            <Position>
              <LatitudeDegrees>36.51261317543685436248779296875</LatitudeDegrees>
              <LongitudeDegrees>-5.409875102341175079345703125</LongitudeDegrees>
            </Position>
            <AltitudeMeters>192.600006103515625</AltitudeMeters>
            <DistanceMeters>5564.7769796867</DistanceMeters>
          </Trackpoint>
          <Trackpoint>
            <Time>2019-01-04T10:34:24.000Z</Time>
            <Position>
              <LatitudeDegrees>36.51260487735271453857421875</LatitudeDegrees>
              <LongitudeDegrees>-5.4098658822476863861083984375</LongitudeDegrees>
            </Position>
            <AltitudeMeters>192.600006103515625</AltitudeMeters>
            <DistanceMeters>5566.0159764565</DistanceMeters>
          </Trackpoint>
          <Trackpoint>
            <Time>2019-01-04T10:34:25.000Z</Time>
            <Position>
              <LatitudeDegrees>36.512595824897289276123046875</LatitudeDegrees>
              <LongitudeDegrees>-5.40986068546772003173828125</LongitudeDegrees>
            </Position>
            <AltitudeMeters>192.8000030517578125</AltitudeMeters>
            <DistanceMeters>5567.1241688569</DistanceMeters>
          </Trackpoint>
          <Trackpoint>
            <Time>2019-01-04T10:34:26.000Z</Time>
            <Position>
              <LatitudeDegrees>36.5125881135463714599609375</LatitudeDegrees>
              <LongitudeDegrees>-5.4098521359264850616455078125</LongitudeDegrees>
            </Position>
            <AltitudeMeters>192.8000030517578125</AltitudeMeters>
            <DistanceMeters>5568.2723810154</DistanceMeters>
          </Trackpoint>
          <Trackpoint>
            <Time>2019-01-04T10:34:27.000Z</Time>
            <Position>
              <LatitudeDegrees>36.51257914490997791290283203125</LatitudeDegrees>
              <LongitudeDegrees>-5.409846603870391845703125</LongitudeDegrees>
            </Position>
            <AltitudeMeters>193</AltitudeMeters>
            <DistanceMeters>5569.3846401906</DistanceMeters>
          </Trackpoint>
          <Trackpoint>
            <Time>2019-01-04T10:34:28.000Z</Time>
            <Position>
              <LatitudeDegrees>36.51257277466356754302978515625</LatitudeDegrees>
              <LongitudeDegrees>-5.40983788669109344482421875</LongitudeDegrees>
            </Position>
            <AltitudeMeters>193</AltitudeMeters>
            <DistanceMeters>5570.4342445571</DistanceMeters>
          </Trackpoint>
          <Trackpoint>
            <Time>2019-01-04T10:34:29.000Z</Time>
            <Position>
              <LatitudeDegrees>36.51256590150296688079833984375</LatitudeDegrees>
              <LongitudeDegrees>-5.40983025915920734405517578125</LongitudeDegrees>
            </Position>
            <AltitudeMeters>193.1999969482421875</AltitudeMeters>
            <DistanceMeters>5571.457713593</DistanceMeters>
          </Trackpoint>
          <Trackpoint>
            <Time>2019-01-04T10:34:30.000Z</Time>
            <Position>
              <LatitudeDegrees>36.51255584321916103363037109375</LatitudeDegrees>
              <LongitudeDegrees>-5.40982623584568500518798828125</LongitudeDegrees>
            </Position>
            <AltitudeMeters>193.399993896484375</AltitudeMeters>
            <DistanceMeters>5572.6331291348</DistanceMeters>
          </Trackpoint>
          <Trackpoint>
            <Time>2019-01-04T10:34:31.000Z</Time>
            <Position>
              <LatitudeDegrees>36.51254561729729175567626953125</LatitudeDegrees>
              <LongitudeDegrees>-5.40982053615152835845947265625</LongitudeDegrees>
            </Position>
            <AltitudeMeters>193.399993896484375</AltitudeMeters>
            <DistanceMeters>5573.8793928101</DistanceMeters>
          </Trackpoint>
          <Trackpoint>
            <Time>2019-01-04T10:34:32.000Z</Time>
            <Position>
              <LatitudeDegrees>36.512538492679595947265625</LatitudeDegrees>
              <LongitudeDegrees>-5.4098119027912616729736328125</LongitudeDegrees>
            </Position>
            <AltitudeMeters>193.399993896484375</AltitudeMeters>
            <DistanceMeters>5574.9875852105</DistanceMeters>
          </Trackpoint>
          <Trackpoint>
            <Time>2019-01-04T10:34:33.000Z</Time>
            <Position>
              <LatitudeDegrees>36.51253203861415386199951171875</LatitudeDegrees>
              <LongitudeDegrees>-5.4098023474216461181640625</LongitudeDegrees>
            </Position>
            <AltitudeMeters>193.399993896484375</AltitudeMeters>
            <DistanceMeters>5576.1038963451</DistanceMeters>
          </Trackpoint>
          <Trackpoint>
            <Time>2019-01-04T10:34:34.000Z</Time>
            <Position>
              <LatitudeDegrees>36.51252583600580692291259765625</LatitudeDegrees>
              <LongitudeDegrees>-5.40979354642331600189208984375</LongitudeDegrees>
            </Position>
            <AltitudeMeters>193.399993896484375</AltitudeMeters>
            <DistanceMeters>5577.1448618457</DistanceMeters>
          </Trackpoint>
          <Trackpoint>
            <Time>2019-01-04T10:34:35.000Z</Time>
            <Position>
              <LatitudeDegrees>36.5125185437500476837158203125</LatitudeDegrees>
              <LongitudeDegrees>-5.409784577786922454833984375</LongitudeDegrees>
            </Position>
            <AltitudeMeters>193.399993896484375</AltitudeMeters>
            <DistanceMeters>5578.2851824181</DistanceMeters>
          </Trackpoint>
          <Trackpoint>
            <Time>2019-01-04T10:34:36.000Z</Time>
            <Position>
              <LatitudeDegrees>36.51251074858009815216064453125</LatitudeDegrees>
              <LongitudeDegrees>-5.4097750224173069000244140625</LongitudeDegrees>
            </Position>
            <AltitudeMeters>193.399993896484375</AltitudeMeters>
            <DistanceMeters>5579.5021181341</DistanceMeters>
          </Trackpoint>
          <Trackpoint>
            <Time>2019-01-04T10:34:37.000Z</Time>
            <Position>
              <LatitudeDegrees>36.51250169612467288970947265625</LatitudeDegrees>
              <LongitudeDegrees>-5.409766472876071929931640625</LongitudeDegrees>
            </Position>
            <AltitudeMeters>193.399993896484375</AltitudeMeters>
            <DistanceMeters>5580.7699326343</DistanceMeters>
          </Trackpoint>
          <Trackpoint>
            <Time>2019-01-04T10:34:38.000Z</Time>
            <Position>
              <LatitudeDegrees>36.51248996146023273468017578125</LatitudeDegrees>
              <LongitudeDegrees>-5.409759767353534698486328125</LongitudeDegrees>
            </Position>
            <AltitudeMeters>193.399993896484375</AltitudeMeters>
            <DistanceMeters>5582.2110841122</DistanceMeters>
          </Trackpoint>
          <Trackpoint>
            <Time>2019-01-04T10:34:39.000Z</Time>
            <Position>
              <LatitudeDegrees>36.51247940026223659515380859375</LatitudeDegrees>
              <LongitudeDegrees>-5.409754402935504913330078125</LongitudeDegrees>
            </Position>
            <AltitudeMeters>193.399993896484375</AltitudeMeters>
            <DistanceMeters>5583.4788986124</DistanceMeters>
          </Trackpoint>
          <Trackpoint>
            <Time>2019-01-04T10:34:40.000Z</Time>
            <Position>
              <LatitudeDegrees>36.51247051544487476348876953125</LatitudeDegrees>
              <LongitudeDegrees>-5.40974669158458709716796875</LongitudeDegrees>
            </Position>
            <AltitudeMeters>193.399993896484375</AltitudeMeters>
            <DistanceMeters>5584.6883912267</DistanceMeters>
          </Trackpoint>
          <Trackpoint>
            <Time>2019-01-04T10:34:41.000Z</Time>
            <Position>
              <LatitudeDegrees>36.51246230117976665496826171875</LatitudeDegrees>
              <LongitudeDegrees>-5.4097379744052886962890625</LongitudeDegrees>
            </Position>
            <AltitudeMeters>193.399993896484375</AltitudeMeters>
            <DistanceMeters>5585.8903946505</DistanceMeters>
          </Trackpoint>
          <Trackpoint>
            <Time>2019-01-04T10:34:42.000Z</Time>
            <Position>
              <LatitudeDegrees>36.5124540030956268310546875</LatitudeDegrees>
              <LongitudeDegrees>-5.40972967632114887237548828125</LongitudeDegrees>
            </Position>
            <AltitudeMeters>193.1999969482421875</AltitudeMeters>
            <DistanceMeters>5587.0734677036</DistanceMeters>
          </Trackpoint>
          <Trackpoint>
            <Time>2019-01-04T10:34:43.000Z</Time>
            <Position>
              <LatitudeDegrees>36.512447632849216461181640625</LatitudeDegrees>
              <LongitudeDegrees>-5.40972112677991390228271484375</LongitudeDegrees>
            </Position>
            <AltitudeMeters>193.1999969482421875</AltitudeMeters>
            <DistanceMeters>5588.1187615616</DistanceMeters>
          </Trackpoint>
          <Trackpoint>
            <Time>2019-01-04T10:34:44.000Z</Time>
            <Position>
              <LatitudeDegrees>36.51244168169796466827392578125</LatitudeDegrees>
              <LongitudeDegrees>-5.40971509180963039398193359375</LongitudeDegrees>
            </Position>
            <AltitudeMeters>193.399993896484375</AltitudeMeters>
            <DistanceMeters>5588.9792650587</DistanceMeters>
          </Trackpoint>
          <Trackpoint>
            <Time>2019-01-04T10:34:45.000Z</Time>
            <Position>
              <LatitudeDegrees>36.51243464089930057525634765625</LatitudeDegrees>
              <LongitudeDegrees>-5.4097083024680614471435546875</LongitudeDegrees>
            </Position>
            <AltitudeMeters>193.399993896484375</AltitudeMeters>
            <DistanceMeters>5589.9713730832</DistanceMeters>
          </Trackpoint>
          <Trackpoint>
            <Time>2019-01-04T10:34:46.000Z</Time>
            <Position>
              <LatitudeDegrees>36.51242776773869991302490234375</LatitudeDegrees>
              <LongitudeDegrees>-5.409703440964221954345703125</LongitudeDegrees>
            </Position>
            <AltitudeMeters>193.399993896484375</AltitudeMeters>
            <DistanceMeters>5590.847476101</DistanceMeters>
          </Trackpoint>
          <Trackpoint>
            <Time>2019-01-04T10:34:47.000Z</Time>
            <Position>
              <LatitudeDegrees>36.5124216489493846893310546875</LatitudeDegrees>
              <LongitudeDegrees>-5.409697405993938446044921875</LongitudeDegrees>
            </Position>
            <AltitudeMeters>193.600006103515625</AltitudeMeters>
            <DistanceMeters>5591.7184103243</DistanceMeters>
          </Trackpoint>
          <Trackpoint>
            <Time>2019-01-04T10:34:48.000Z</Time>
            <Position>
              <LatitudeDegrees>36.51241636835038661956787109375</LatitudeDegrees>
              <LongitudeDegrees>-5.40969279594719409942626953125</LongitudeDegrees>
            </Position>
            <AltitudeMeters>193.600006103515625</AltitudeMeters>
            <DistanceMeters>5592.4421122199</DistanceMeters>
          </Trackpoint>
          <Trackpoint>
            <Time>2019-01-04T10:34:49.000Z</Time>
            <Position>
              <LatitudeDegrees>36.51241234503686428070068359375</LatitudeDegrees>
              <LongitudeDegrees>-5.409685671329498291015625</LongitudeDegrees>
            </Position>
            <AltitudeMeters>193.600006103515625</AltitudeMeters>
            <DistanceMeters>5593.2141128969</DistanceMeters>
          </Trackpoint>
          <Trackpoint>
            <Time>2019-01-04T10:34:50.000Z</Time>
            <Position>
              <LatitudeDegrees>36.5124092437326908111572265625</LatitudeDegrees>
              <LongitudeDegrees>-5.40967804379761219024658203125</LongitudeDegrees>
            </Position>
            <AltitudeMeters>193.600006103515625</AltitudeMeters>
            <DistanceMeters>5593.9802427612</DistanceMeters>
          </Trackpoint>
          <Trackpoint>
            <Time>2019-01-04T10:34:51.000Z</Time>
            <Position>
              <LatitudeDegrees>36.51240631006658077239990234375</LatitudeDegrees>
              <LongitudeDegrees>-5.40966890752315521240234375</LongitudeDegrees>
            </Position>
            <AltitudeMeters>193.399993896484375</AltitudeMeters>
            <DistanceMeters>5594.8563457789</DistanceMeters>
          </Trackpoint>
          <Trackpoint>
            <Time>2019-01-04T10:34:52.000Z</Time>
            <Position>
              <LatitudeDegrees>36.5124025382101535797119140625</LatitudeDegrees>
              <LongitudeDegrees>-5.409659855067729949951171875</LongitudeDegrees>
            </Position>
            <AltitudeMeters>193.399993896484375</AltitudeMeters>
            <DistanceMeters>5595.7628428591</DistanceMeters>
          </Trackpoint>
          <Trackpoint>
            <Time>2019-01-04T10:34:53.000Z</Time>
            <Position>
              <LatitudeDegrees>36.51239273138344287872314453125</LatitudeDegrees>
              <LongitudeDegrees>-5.40965541265904903411865234375</LongitudeDegrees>
            </Position>
            <AltitudeMeters>193.399993896484375</AltitudeMeters>
            <DistanceMeters>5596.9266776698</DistanceMeters>
          </Trackpoint>
          <Trackpoint>
            <Time>2019-01-04T10:34:54.000Z</Time>
            <Position>
              <LatitudeDegrees>36.5123800747096538543701171875</LatitudeDegrees>
              <LongitudeDegrees>-5.4096492938697338104248046875</LongitudeDegrees>
            </Position>
            <AltitudeMeters>193.399993896484375</AltitudeMeters>
            <DistanceMeters>5598.4381700913</DistanceMeters>
          </Trackpoint>
          <Trackpoint>
            <Time>2019-01-04T10:34:55.000Z</Time>
            <Position>
              <LatitudeDegrees>36.5123676694929599761962890625</LatitudeDegrees>
              <LongitudeDegrees>-5.40964300744235515594482421875</LongitudeDegrees>
            </Position>
            <AltitudeMeters>193.399993896484375</AltitudeMeters>
            <DistanceMeters>5599.9316321369</DistanceMeters>
          </Trackpoint>
          <Trackpoint>
            <Time>2019-01-04T10:34:56.000Z</Time>
            <Position>
              <LatitudeDegrees>36.51235786266624927520751953125</LatitudeDegrees>
              <LongitudeDegrees>-5.4096382297575473785400390625</LongitudeDegrees>
            </Position>
            <AltitudeMeters>193.399993896484375</AltitudeMeters>
            <DistanceMeters>5601.1070476787</DistanceMeters>
          </Trackpoint>
          <Trackpoint>
            <Time>2019-01-04T10:34:57.000Z</Time>
            <Position>
              <LatitudeDegrees>36.51235048659145832061767578125</LatitudeDegrees>
              <LongitudeDegrees>-5.4096333682537078857421875</LongitudeDegrees>
            </Position>
            <AltitudeMeters>193.399993896484375</AltitudeMeters>
            <DistanceMeters>5602.0381155273</DistanceMeters>
          </Trackpoint>
          <Trackpoint>
            <Time>2019-01-04T10:34:58.000Z</Time>
            <Position>
              <LatitudeDegrees>36.5123426914215087890625</LatitudeDegrees>
              <LongitudeDegrees>-5.40963009931147098541259765625</LongitudeDegrees>
            </Position>
            <AltitudeMeters>193.399993896484375</AltitudeMeters>
            <DistanceMeters>5602.9594337056</DistanceMeters>
          </Trackpoint>
          <Trackpoint>
            <Time>2019-01-04T10:34:59.000Z</Time>
            <Position>
              <LatitudeDegrees>36.51233489625155925750732421875</LatitudeDegrees>
              <LongitudeDegrees>-5.40962389670312404632568359375</LongitudeDegrees>
            </Position>
            <AltitudeMeters>193.399993896484375</AltitudeMeters>
            <DistanceMeters>5603.9873047792</DistanceMeters>
          </Trackpoint>
          <Trackpoint>
            <Time>2019-01-04T10:35:00.000Z</Time>
            <Position>
              <LatitudeDegrees>36.51233037002384662628173828125</LatitudeDegrees>
              <LongitudeDegrees>-5.40961501188576221466064453125</LongitudeDegrees>
            </Position>
            <AltitudeMeters>193.399993896484375</AltitudeMeters>
            <DistanceMeters>5604.9232093764</DistanceMeters>
          </Trackpoint>
          <Trackpoint>
            <Time>2019-01-04T10:35:01.000Z</Time>
            <Position>
              <LatitudeDegrees>36.51232517324388027191162109375</LatitudeDegrees>
              <LongitudeDegrees>-5.40960595943033695220947265625</LongitudeDegrees>
            </Position>
            <AltitudeMeters>193.600006103515625</AltitudeMeters>
            <DistanceMeters>5605.9107559606</DistanceMeters>
          </Trackpoint>
          <Trackpoint>
            <Time>2019-01-04T10:35:02.000Z</Time>
            <Position>
              <LatitudeDegrees>36.51231578551232814788818359375</LatitudeDegrees>
              <LongitudeDegrees>-5.4095971584320068359375</LongitudeDegrees>
            </Position>
            <AltitudeMeters>193.600006103515625</AltitudeMeters>
            <DistanceMeters>5607.2136966237</DistanceMeters>
          </Trackpoint>
          <Trackpoint>
            <Time>2019-01-04T10:35:03.000Z</Time>
            <Position>
              <LatitudeDegrees>36.51230824179947376251220703125</LatitudeDegrees>
              <LongitudeDegrees>-5.4095876030623912811279296875</LongitudeDegrees>
            </Position>
            <AltitudeMeters>193.600006103515625</AltitudeMeters>
            <DistanceMeters>5608.4081639017</DistanceMeters>
          </Trackpoint>
          <Trackpoint>
            <Time>2019-01-04T10:35:04.000Z</Time>
            <Position>
              <LatitudeDegrees>36.51230237446725368499755859375</LatitudeDegrees>
              <LongitudeDegrees>-5.40957997553050518035888671875</LongitudeDegrees>
            </Position>
            <AltitudeMeters>193.600006103515625</AltitudeMeters>
            <DistanceMeters>5609.3536677715</DistanceMeters>
          </Trackpoint>
          <Trackpoint>
            <Time>2019-01-04T10:35:05.000Z</Time>
            <Position>
              <LatitudeDegrees>36.51229365728795528411865234375</LatitudeDegrees>
              <LongitudeDegrees>-5.4095731861889362335205078125</LongitudeDegrees>
            </Position>
            <AltitudeMeters>193.600006103515625</AltitudeMeters>
            <DistanceMeters>5610.4979409401</DistanceMeters>
          </Trackpoint>
          <Trackpoint>
            <Time>2019-01-04T10:35:06.000Z</Time>
            <Position>
              <LatitudeDegrees>36.51228343136608600616455078125</LatitudeDegrees>
              <LongitudeDegrees>-5.40956773795187473297119140625</LongitudeDegrees>
            </Position>
            <AltitudeMeters>193.600006103515625</AltitudeMeters>
            <DistanceMeters>5611.7369377099</DistanceMeters>
          </Trackpoint>
          <Trackpoint>
            <Time>2019-01-04T10:35:07.000Z</Time>
            <Position>
              <LatitudeDegrees>36.512272618710994720458984375</LatitudeDegrees>
              <LongitudeDegrees>-5.4095621220767498016357421875</LongitudeDegrees>
            </Position>
            <AltitudeMeters>193.600006103515625</AltitudeMeters>
            <DistanceMeters>5613.0433390448</DistanceMeters>
          </Trackpoint>
          <Trackpoint>
            <Time>2019-01-04T10:35:08.000Z</Time>
            <Position>
              <LatitudeDegrees>36.51226532645523548126220703125</LatitudeDegrees>
              <LongitudeDegrees>-5.40955684147775173187255859375</LongitudeDegrees>
            </Position>
            <AltitudeMeters>193.399993896484375</AltitudeMeters>
            <DistanceMeters>5613.9840555226</DistanceMeters>
          </Trackpoint>
          <Trackpoint>
            <Time>2019-01-04T10:35:09.000Z</Time>
            <Position>
              <LatitudeDegrees>36.5122593753039836883544921875</LatitudeDegrees>
              <LongitudeDegrees>-5.40955130942165851593017578125</LongitudeDegrees>
            </Position>
            <AltitudeMeters>193.399993896484375</AltitudeMeters>
            <DistanceMeters>5614.8015062286</DistanceMeters>
          </Trackpoint>
          <Trackpoint>
            <Time>2019-01-04T10:35:10.000Z</Time>
            <Position>
              <LatitudeDegrees>36.51225275360047817230224609375</LatitudeDegrees>
              <LongitudeDegrees>-5.409548543393611907958984375</LongitudeDegrees>
            </Position>
            <AltitudeMeters>193.399993896484375</AltitudeMeters>
            <DistanceMeters>5615.5735069057</DistanceMeters>
          </Trackpoint>
          <Trackpoint>
            <Time>2019-01-04T10:35:11.000Z</Time>
            <Position>
              <LatitudeDegrees>36.512244455516338348388671875</LatitudeDegrees>
              <LongitudeDegrees>-5.40954460389912128448486328125</LongitudeDegrees>
            </Position>
            <AltitudeMeters>193.600006103515625</AltitudeMeters>
            <DistanceMeters>5616.5610534898</DistanceMeters>
          </Trackpoint>
          <Trackpoint>
            <Time>2019-01-04T10:35:12.000Z</Time>
            <Position>
              <LatitudeDegrees>36.51223875582218170166015625</LatitudeDegrees>
              <LongitudeDegrees>-5.40954007767140865325927734375</LongitudeDegrees>
            </Position>
            <AltitudeMeters>193.600006103515625</AltitudeMeters>
            <DistanceMeters>5617.309294587</DistanceMeters>
          </Trackpoint>
          <Trackpoint>
            <Time>2019-01-04T10:35:13.000Z</Time>
            <Position>
              <LatitudeDegrees>36.51223741471767425537109375</LatitudeDegrees>
              <LongitudeDegrees>-5.4095366410911083221435546875</LongitudeDegrees>
            </Position>
            <AltitudeMeters>193.600006103515625</AltitudeMeters>
            <DistanceMeters>5617.6519182782</DistanceMeters>
          </Trackpoint>
          <Trackpoint>
            <Time>2019-01-04T10:35:14.000Z</Time>
            <Position>
              <LatitudeDegrees>36.51223531924188137054443359375</LatitudeDegrees>
              <LongitudeDegrees>-5.4095341265201568603515625</LongitudeDegrees>
            </Position>
            <AltitudeMeters>193.399993896484375</AltitudeMeters>
            <DistanceMeters>5617.981100473</DistanceMeters>
          </Trackpoint>
          <Trackpoint>
            <Time>2019-01-04T10:35:15.000Z</Time>
            <Position>
              <LatitudeDegrees>36.512228362262248992919921875</LatitudeDegrees>
              <LongitudeDegrees>-5.4095309413969516754150390625</LongitudeDegrees>
            </Position>
            <AltitudeMeters>193.399993896484375</AltitudeMeters>
            <DistanceMeters>5618.8095241627</DistanceMeters>
          </Trackpoint>
          <Trackpoint>
            <Time>2019-01-04T10:35:16.000Z</Time>
            <Position>
              <LatitudeDegrees>36.51221754960715770721435546875</LatitudeDegrees>
              <LongitudeDegrees>-5.4095222242176532745361328125</LongitudeDegrees>
            </Position>
            <AltitudeMeters>193.399993896484375</AltitudeMeters>
            <DistanceMeters>5620.2475392898</DistanceMeters>
          </Trackpoint>
          <Trackpoint>
            <Time>2019-01-04T10:35:17.000Z</Time>
            <Position>
              <LatitudeDegrees>36.51220983825623989105224609375</LatitudeDegrees>
              <LongitudeDegrees>-5.4095126688480377197265625</LongitudeDegrees>
            </Position>
            <AltitudeMeters>193.399993896484375</AltitudeMeters>
            <DistanceMeters>5621.4644750058</DistanceMeters>
          </Trackpoint>
          <Trackpoint>
            <Time>2019-01-04T10:35:18.000Z</Time>
            <Position>
              <LatitudeDegrees>36.5122037194669246673583984375</LatitudeDegrees>
              <LongitudeDegrees>-5.4095004312694072723388671875</LongitudeDegrees>
            </Position>
            <AltitudeMeters>193.399993896484375</AltitudeMeters>
            <DistanceMeters>5622.7464554708</DistanceMeters>
          </Trackpoint>
          <Trackpoint>
            <Time>2019-01-04T10:35:19.000Z</Time>
            <Position>
              <LatitudeDegrees>36.5121996961534023284912109375</LatitudeDegrees>
              <LongitudeDegrees>-5.40948609821498394012451171875</LongitudeDegrees>
            </Position>
            <AltitudeMeters>193.399993896484375</AltitudeMeters>
            <DistanceMeters>5624.1037084298</DistanceMeters>
          </Trackpoint>
          <Trackpoint>
            <Time>2019-01-04T10:35:20.000Z</Time>
            <Position>
              <LatitudeDegrees>36.51219726540148258209228515625</LatitudeDegrees>
              <LongitudeDegrees>-5.40947168134152889251708984375</LongitudeDegrees>
            </Position>
            <AltitudeMeters>193.399993896484375</AltitudeMeters>
            <DistanceMeters>5625.4204372087</DistanceMeters>
          </Trackpoint>
          <Trackpoint>
            <Time>2019-01-04T10:35:21.000Z</Time>
            <Position>
              <LatitudeDegrees>36.51219307444989681243896484375</LatitudeDegrees>
              <LongitudeDegrees>-5.40945592336356639862060546875</LongitudeDegrees>
            </Position>
            <AltitudeMeters>193.399993896484375</AltitudeMeters>
            <DistanceMeters>5626.9048019389</DistanceMeters>
          </Trackpoint>
          <Trackpoint>
            <Time>2019-01-04T10:35:22.000Z</Time>
            <Position>
              <LatitudeDegrees>36.51218955405056476593017578125</LatitudeDegrees>
              <LongitudeDegrees>-5.40944402106106281280517578125</LongitudeDegrees>
            </Position>
            <AltitudeMeters>193.600006103515625</AltitudeMeters>
            <DistanceMeters>5628.0371759297</DistanceMeters>
          </Trackpoint>
          <Trackpoint>
            <Time>2019-01-04T10:35:23.000Z</Time>
            <Position>
              <LatitudeDegrees>36.5121862851083278656005859375</LatitudeDegrees>
              <LongitudeDegrees>-5.40943287312984466552734375</LongitudeDegrees>
            </Position>
            <AltitudeMeters>193.8000030517578125</AltitudeMeters>
            <DistanceMeters>5629.0996068948</DistanceMeters>
          </Trackpoint>
          <Trackpoint>
            <Time>2019-01-04T10:35:24.000Z</Time>
            <Position>
              <LatitudeDegrees>36.51218284852802753448486328125</LatitudeDegrees>
              <LongitudeDegrees>-5.40942013263702392578125</LongitudeDegrees>
            </Position>
            <AltitudeMeters>194</AltitudeMeters>
            <DistanceMeters>5630.3016103186</DistanceMeters>
          </Trackpoint>
          <Trackpoint>
            <Time>2019-01-04T10:35:25.000Z</Time>
            <Position>
              <LatitudeDegrees>36.5121804177761077880859375</LatitudeDegrees>
              <LongitudeDegrees>-5.4094089008867740631103515625</LongitudeDegrees>
            </Position>
            <AltitudeMeters>194.1999969482421875</AltitudeMeters>
            <DistanceMeters>5631.3425758192</DistanceMeters>
          </Trackpoint>
          <Trackpoint>
            <Time>2019-01-04T10:35:26.000Z</Time>
            <Position>
              <LatitudeDegrees>36.5121789090335369110107421875</LatitudeDegrees>
              <LongitudeDegrees>-5.409395992755889892578125</LongitudeDegrees>
            </Position>
            <AltitudeMeters>194.399993896484375</AltitudeMeters>
            <DistanceMeters>5632.5064106299</DistanceMeters>
          </Trackpoint>
          <Trackpoint>
            <Time>2019-01-04T10:35:27.000Z</Time>
            <Position>
              <LatitudeDegrees>36.51217681355774402618408203125</LatitudeDegrees>
              <LongitudeDegrees>-5.40938400663435459136962890625</LongitudeDegrees>
            </Position>
            <AltitudeMeters>194.8000030517578125</AltitudeMeters>
            <DistanceMeters>5633.6064243768</DistanceMeters>
          </Trackpoint>
          <Trackpoint>
            <Time>2019-01-04T10:35:28.000Z</Time>
            <Position>
              <LatitudeDegrees>36.51217413134872913360595703125</LatitudeDegrees>
              <LongitudeDegrees>-5.40937243960797786712646484375</LongitudeDegrees>
            </Position>
            <AltitudeMeters>195</AltitudeMeters>
            <DistanceMeters>5634.6898956213</DistanceMeters>
          </Trackpoint>
          <Trackpoint>
            <Time>2019-01-04T10:35:29.000Z</Time>
            <Position>
              <LatitudeDegrees>36.51217304170131683349609375</LatitudeDegrees>
              <LongitudeDegrees>-5.4093633033335208892822265625</LongitudeDegrees>
            </Position>
            <AltitudeMeters>195</AltitudeMeters>
            <DistanceMeters>5635.5183193111</DistanceMeters>
          </Trackpoint>
          <Trackpoint>
            <Time>2019-01-04T10:35:30.000Z</Time>
            <Position>
              <LatitudeDegrees>36.51217144913971424102783203125</LatitudeDegrees>
              <LongitudeDegrees>-5.4093544185161590576171875</LongitudeDegrees>
            </Position>
            <AltitudeMeters>195.1999969482421875</AltitudeMeters>
            <DistanceMeters>5636.3357700172</DistanceMeters>
          </Trackpoint>
          <Trackpoint>
            <Time>2019-01-04T10:35:31.000Z</Time>
            <Position>
              <LatitudeDegrees>36.51216709055006504058837890625</LatitudeDegrees>
              <LongitudeDegrees>-5.40934578515589237213134765625</LongitudeDegrees>
            </Position>
            <AltitudeMeters>195.399993896484375</AltitudeMeters>
            <DistanceMeters>5637.2472342418</DistanceMeters>
          </Trackpoint>
          <Trackpoint>
            <Time>2019-01-04T10:35:32.000Z</Time>
            <Position>
              <LatitudeDegrees>36.51216289959847927093505859375</LatitudeDegrees>
              <LongitudeDegrees>-5.40933857671916484832763671875</LongitudeDegrees>
            </Position>
            <AltitudeMeters>195.600006103515625</AltitudeMeters>
            <DistanceMeters>5638.0479435696</DistanceMeters>
          </Trackpoint>
          <Trackpoint>
            <Time>2019-01-04T10:35:33.000Z</Time>
            <Position>
              <LatitudeDegrees>36.5121611393988132476806640625</LatitudeDegrees>
              <LongitudeDegrees>-5.40932985953986644744873046875</LongitudeDegrees>
            </Position>
            <AltitudeMeters>195.8000030517578125</AltitudeMeters>
            <DistanceMeters>5638.8486528973</DistanceMeters>
          </Trackpoint>
          <Trackpoint>
            <Time>2019-01-04T10:35:34.000Z</Time>
            <Position>
              <LatitudeDegrees>36.5121621452271938323974609375</LatitudeDegrees>
              <LongitudeDegrees>-5.40931980125606060028076171875</LongitudeDegrees>
            </Position>
            <AltitudeMeters>196</AltitudeMeters>
            <DistanceMeters>5639.760117122</DistanceMeters>
          </Trackpoint>
          <Trackpoint>
            <Time>2019-01-04T10:35:35.000Z</Time>
            <Position>
              <LatitudeDegrees>36.512163989245891571044921875</LatitudeDegrees>
              <LongitudeDegrees>-5.40931125171482563018798828125</LongitudeDegrees>
            </Position>
            <AltitudeMeters>196.1999969482421875</AltitudeMeters>
            <DistanceMeters>5640.5551676556</DistanceMeters>
          </Trackpoint>
          <Trackpoint>
            <Time>2019-01-04T10:35:36.000Z</Time>
            <Position>
              <LatitudeDegrees>36.51215803809463977813720703125</LatitudeDegrees>
              <LongitudeDegrees>-5.4093032889068126678466796875</LongitudeDegrees>
            </Position>
            <AltitudeMeters>196.600006103515625</AltitudeMeters>
            <DistanceMeters>5641.5335275603</DistanceMeters>
          </Trackpoint>
          <Trackpoint>
            <Time>2019-01-04T10:35:37.000Z</Time>
            <Position>
              <LatitudeDegrees>36.51215435005724430084228515625</LatitudeDegrees>
              <LongitudeDegrees>-5.40929683484137058258056640625</LongitudeDegrees>
            </Position>
            <AltitudeMeters>196.8000030517578125</AltitudeMeters>
            <DistanceMeters>5642.2446423758</DistanceMeters>
          </Trackpoint>
          <Trackpoint>
            <Time>2019-01-04T10:35:38.000Z</Time>
            <Position>
              <LatitudeDegrees>36.51215384714305400848388671875</LatitudeDegrees>
              <LongitudeDegrees>-5.4092892073094844818115234375</LongitudeDegrees>
            </Position>
            <AltitudeMeters>196.8000030517578125</AltitudeMeters>
            <DistanceMeters>5642.9298897582</DistanceMeters>
          </Trackpoint>
          <Trackpoint>
            <Time>2019-01-04T10:35:39.000Z</Time>
            <Position>
              <LatitudeDegrees>36.51215015910565853118896484375</LatitudeDegrees>
              <LongitudeDegrees>-5.40927730500698089599609375</LongitudeDegrees>
            </Position>
            <AltitudeMeters>197</AltitudeMeters>
            <DistanceMeters>5644.0662439862</DistanceMeters>
          </Trackpoint>
          <Trackpoint>
            <Time>2019-01-04T10:35:40.000Z</Time>
            <Position>
              <LatitudeDegrees>36.5121470578014850616455078125</LatitudeDegrees>
              <LongitudeDegrees>-5.409266240894794464111328125</LongitudeDegrees>
            </Position>
            <AltitudeMeters>197</AltitudeMeters>
            <DistanceMeters>5645.120141231</DistanceMeters>
          </Trackpoint>
          <Trackpoint>
            <Time>2019-01-04T10:35:41.000Z</Time>
            <Position>
              <LatitudeDegrees>36.5121463872492313385009765625</LatitudeDegrees>
              <LongitudeDegrees>-5.40925710462033748626708984375</LongitudeDegrees>
            </Position>
            <AltitudeMeters>197.1999969482421875</AltitudeMeters>
            <DistanceMeters>5645.9485649208</DistanceMeters>
          </Trackpoint>
          <Trackpoint>
            <Time>2019-01-04T10:35:42.000Z</Time>
            <Position>
              <LatitudeDegrees>36.5121447108685970306396484375</LatitudeDegrees>
              <LongitudeDegrees>-5.40924771688878536224365234375</LongitudeDegrees>
            </Position>
            <AltitudeMeters>197.399993896484375</AltitudeMeters>
            <DistanceMeters>5646.8090684178</DistanceMeters>
          </Trackpoint>
          <Trackpoint>
            <Time>2019-01-04T10:35:43.000Z</Time>
            <Position>
              <LatitudeDegrees>36.512141525745391845703125</LatitudeDegrees>
              <LongitudeDegrees>-5.40924050845205783843994140625</LongitudeDegrees>
            </Position>
            <AltitudeMeters>197.600006103515625</AltitudeMeters>
            <DistanceMeters>5647.5451421822</DistanceMeters>
          </Trackpoint>
          <Trackpoint>
            <Time>2019-01-04T10:35:44.000Z</Time>
            <Position>
              <LatitudeDegrees>36.51214127428829669952392578125</LatitudeDegrees>
              <LongitudeDegrees>-5.40923028253018856048583984375</LongitudeDegrees>
            </Position>
            <AltitudeMeters>197.8000030517578125</AltitudeMeters>
            <DistanceMeters>5648.4615466285</DistanceMeters>
          </Trackpoint>
          <Trackpoint>
            <Time>2019-01-04T10:35:45.000Z</Time>
            <Position>
              <LatitudeDegrees>36.51214160956442356109619140625</LatitudeDegrees>
              <LongitudeDegrees>-5.409215949475765228271484375</LongitudeDegrees>
            </Position>
            <AltitudeMeters>198</AltitudeMeters>
            <DistanceMeters>5649.7435270936</DistanceMeters>
          </Trackpoint>
          <Trackpoint>
            <Time>2019-01-04T10:35:46.000Z</Time>
            <Position>
              <LatitudeDegrees>36.512141861021518707275390625</LatitudeDegrees>
              <LongitudeDegrees>-5.40920278988778591156005859375</LongitudeDegrees>
            </Position>
            <AltitudeMeters>198</AltitudeMeters>
            <DistanceMeters>5650.9227776066</DistanceMeters>
          </Trackpoint>
          <Trackpoint>
            <Time>2019-01-04T10:35:47.000Z</Time>
            <Position>
              <LatitudeDegrees>36.51214211247861385345458984375</LatitudeDegrees>
              <LongitudeDegrees>-5.40919289924204349517822265625</LongitudeDegrees>
            </Position>
            <AltitudeMeters>198.1999969482421875</AltitudeMeters>
            <DistanceMeters>5651.8040191025</DistanceMeters>
          </Trackpoint>
          <Trackpoint>
            <Time>2019-01-04T10:35:48.000Z</Time>
            <Position>
              <LatitudeDegrees>36.51213976554572582244873046875</LatitudeDegrees>
              <LongitudeDegrees>-5.40918409824371337890625</LongitudeDegrees>
            </Position>
            <AltitudeMeters>198.399993896484375</AltitudeMeters>
            <DistanceMeters>5652.6214698086</DistanceMeters>
          </Trackpoint>
          <Trackpoint>
            <Time>2019-01-04T10:35:49.000Z</Time>
            <Position>
              <LatitudeDegrees>36.5121366642415523529052734375</LatitudeDegrees>
              <LongitudeDegrees>-5.40917177684605121612548828125</LongitudeDegrees>
            </Position>
            <AltitudeMeters>198.600006103515625</AltitudeMeters>
            <DistanceMeters>5653.7775196837</DistanceMeters>
          </Trackpoint>
          <Trackpoint>
            <Time>2019-01-04T10:35:50.000Z</Time>
            <Position>
              <LatitudeDegrees>36.51213171891868114471435546875</LatitudeDegrees>
              <LongitudeDegrees>-5.40915870107710361480712890625</LongitudeDegrees>
            </Position>
            <AltitudeMeters>198.8000030517578125</AltitudeMeters>
            <DistanceMeters>5655.0735112803</DistanceMeters>
          </Trackpoint>
          <Trackpoint>
            <Time>2019-01-04T10:35:51.000Z</Time>
            <Position>
              <LatitudeDegrees>36.51213054545223712921142578125</LatitudeDegrees>
              <LongitudeDegrees>-5.4091477207839488983154296875</LongitudeDegrees>
            </Position>
            <AltitudeMeters>199.1999969482421875</AltitudeMeters>
            <DistanceMeters>5656.0701598688</DistanceMeters>
          </Trackpoint>
          <Trackpoint>
            <Time>2019-01-04T10:35:52.000Z</Time>
            <Position>
              <LatitudeDegrees>36.51213306002318859100341796875</LatitudeDegrees>
              <LongitudeDegrees>-5.40913975797593593597412109375</LongitudeDegrees>
            </Position>
            <AltitudeMeters>199.600006103515625</AltitudeMeters>
            <DistanceMeters>5656.8421605458</DistanceMeters>
          </Trackpoint>
          <Trackpoint>
            <Time>2019-01-04T10:35:53.000Z</Time>
            <Position>
              <LatitudeDegrees>36.51213574223220348358154296875</LatitudeDegrees>
              <LongitudeDegrees>-5.40913372300565242767333984375</LongitudeDegrees>
            </Position>
            <AltitudeMeters>199.8000030517578125</AltitudeMeters>
            <DistanceMeters>5657.458004041</DistanceMeters>
          </Trackpoint>
          <Trackpoint>
            <Time>2019-01-04T10:35:54.000Z</Time>
            <Position>
              <LatitudeDegrees>36.51213792152702808380126953125</LatitudeDegrees>
              <LongitudeDegrees>-5.40912517346441745758056640625</LongitudeDegrees>
            </Position>
            <AltitudeMeters>200</AltitudeMeters>
            <DistanceMeters>5658.2643324505</DistanceMeters>
          </Trackpoint>
          <Trackpoint>
            <Time>2019-01-04T10:35:55.000Z</Time>
            <Position>
              <LatitudeDegrees>36.5121450461447238922119140625</LatitudeDegrees>
              <LongitudeDegrees>-5.40911461226642131805419921875</LongitudeDegrees>
            </Position>
            <AltitudeMeters>200.1999969482421875</AltitudeMeters>
            <DistanceMeters>5659.4996797374</DistanceMeters>
          </Trackpoint>
          <Trackpoint>
            <Time>2019-01-04T10:35:56.000Z</Time>
            <Position>
              <LatitudeDegrees>36.5121463872492313385009765625</LatitudeDegrees>
              <LongitudeDegrees>-5.4091058112680912017822265625</LongitudeDegrees>
            </Position>
            <AltitudeMeters>200.600006103515625</AltitudeMeters>
            <DistanceMeters>5660.3003890651</DistanceMeters>
          </Trackpoint>
          <Trackpoint>
            <Time>2019-01-04T10:35:57.000Z</Time>
            <Position>
              <LatitudeDegrees>36.5121430344879627227783203125</LatitudeDegrees>
              <LongitudeDegrees>-5.4090967588126659393310546875</LongitudeDegrees>
            </Position>
            <AltitudeMeters>201</AltitudeMeters>
            <DistanceMeters>5661.1918186625</DistanceMeters>
          </Trackpoint>
          <Trackpoint>
            <Time>2019-01-04T10:35:58.000Z</Time>
            <Position>
              <LatitudeDegrees>36.5121353231370449066162109375</LatitudeDegrees>
              <LongitudeDegrees>-5.40908686816692352294921875</LongitudeDegrees>
            </Position>
            <AltitudeMeters>201.1999969482421875</AltitudeMeters>
            <DistanceMeters>5662.423505653</DistanceMeters>
          </Trackpoint>
          <Trackpoint>
            <Time>2019-01-04T10:35:59.000Z</Time>
            <Position>
              <LatitudeDegrees>36.51212769560515880584716796875</LatitudeDegrees>
              <LongitudeDegrees>-5.40907421149313449859619140625</LongitudeDegrees>
            </Position>
            <AltitudeMeters>201.399993896484375</AltitudeMeters>
            <DistanceMeters>5663.8393718086</DistanceMeters>
          </Trackpoint>
          <Trackpoint>
            <Time>2019-01-04T10:36:00.000Z</Time>
            <Position>
              <LatitudeDegrees>36.51212618686258792877197265625</LatitudeDegrees>
              <LongitudeDegrees>-5.40905845351517200469970703125</LongitudeDegrees>
            </Position>
            <AltitudeMeters>201.600006103515625</AltitudeMeters>
            <DistanceMeters>5665.2584232689</DistanceMeters>
          </Trackpoint>
          <Trackpoint>
            <Time>2019-01-04T10:36:01.000Z</Time>
            <Position>
              <LatitudeDegrees>36.5121235884726047515869140625</LatitudeDegrees>
              <LongitudeDegrees>-5.40904940105974674224853515625</LongitudeDegrees>
            </Position>
            <AltitudeMeters>201.8000030517578125</AltitudeMeters>
            <DistanceMeters>5666.1136636982</DistanceMeters>
          </Trackpoint>
          <Trackpoint>
            <Time>2019-01-04T10:36:02.000Z</Time>
            <Position>
              <LatitudeDegrees>36.5121173858642578125</LatitudeDegrees>
              <LongitudeDegrees>-5.40904101915657520294189453125</LongitudeDegrees>
            </Position>
            <AltitudeMeters>202</AltitudeMeters>
            <DistanceMeters>5667.1282713636</DistanceMeters>
          </Trackpoint>
          <Trackpoint>
            <Time>2019-01-04T10:36:03.000Z</Time>
            <Position>
              <LatitudeDegrees>36.512110345065593719482421875</LatitudeDegrees>
              <LongitudeDegrees>-5.4090337269008159637451171875</LongitudeDegrees>
            </Position>
            <AltitudeMeters>202</AltitudeMeters>
            <DistanceMeters>5668.1428790289</DistanceMeters>
          </Trackpoint>
          <Trackpoint>
            <Time>2019-01-04T10:36:04.000Z</Time>
            <Position>
              <LatitudeDegrees>36.51210087351500988006591796875</LatitudeDegrees>
              <LongitudeDegrees>-5.40902978740632534027099609375</LongitudeDegrees>
            </Position>
            <AltitudeMeters>202.1999969482421875</AltitudeMeters>
            <DistanceMeters>5669.2591901635</DistanceMeters>
          </Trackpoint>
          <Trackpoint>
            <Time>2019-01-04T10:36:05.000Z</Time>
            <Position>
              <LatitudeDegrees>36.51209081523120403289794921875</LatitudeDegrees>
              <LongitudeDegrees>-5.40902174077928066253662109375</LongitudeDegrees>
            </Position>
            <AltitudeMeters>202.399993896484375</AltitudeMeters>
            <DistanceMeters>5670.5895641647</DistanceMeters>
          </Trackpoint>
          <Trackpoint>
            <Time>2019-01-04T10:36:06.000Z</Time>
            <Position>
              <LatitudeDegrees>36.5120776556432247161865234375</LatitudeDegrees>
              <LongitudeDegrees>-5.40901386179029941558837890625</LongitudeDegrees>
            </Position>
            <AltitudeMeters>202.399993896484375</AltitudeMeters>
            <DistanceMeters>5672.2133813717</DistanceMeters>
          </Trackpoint>
          <Trackpoint>
            <Time>2019-01-04T10:36:07.000Z</Time>
            <Position>
              <LatitudeDegrees>36.51206566952168941497802734375</LatitudeDegrees>
              <LongitudeDegrees>-5.40901469998061656951904296875</LongitudeDegrees>
            </Position>
            <AltitudeMeters>202.600006103515625</AltitudeMeters>
            <DistanceMeters>5673.5505257677</DistanceMeters>
          </Trackpoint>
          <Trackpoint>
            <Time>2019-01-04T10:36:08.000Z</Time>
            <Position>
              <LatitudeDegrees>36.51205158792436122894287109375</LatitudeDegrees>
              <LongitudeDegrees>-5.40901981294155120849609375</LongitudeDegrees>
            </Position>
            <AltitudeMeters>202.600006103515625</AltitudeMeters>
            <DistanceMeters>5675.1854271799</DistanceMeters>
          </Trackpoint>
          <Trackpoint>
            <Time>2019-01-04T10:36:09.000Z</Time>
            <Position>
              <LatitudeDegrees>36.51203683577477931976318359375</LatitudeDegrees>
              <LongitudeDegrees>-5.40902408771216869354248046875</LongitudeDegrees>
            </Position>
            <AltitudeMeters>202.8000030517578125</AltitudeMeters>
            <DistanceMeters>5676.8746590042</DistanceMeters>
          </Trackpoint>
          <Trackpoint>
            <Time>2019-01-04T10:36:10.000Z</Time>
            <Position>
              <LatitudeDegrees>36.51202593930065631866455078125</LatitudeDegrees>
              <LongitudeDegrees>-5.40902308188378810882568359375</LongitudeDegrees>
            </Position>
            <AltitudeMeters>202.8000030517578125</AltitudeMeters>
            <DistanceMeters>5678.0915947202</DistanceMeters>
          </Trackpoint>
          <Trackpoint>
            <Time>2019-01-04T10:36:11.000Z</Time>
            <Position>
              <LatitudeDegrees>36.5120163001120090484619140625</LatitudeDegrees>
              <LongitudeDegrees>-5.40902190841734409332275390625</LongitudeDegrees>
            </Position>
            <AltitudeMeters>202.600006103515625</AltitudeMeters>
            <DistanceMeters>5679.1666992662</DistanceMeters>
          </Trackpoint>
          <Trackpoint>
            <Time>2019-01-04T10:36:12.000Z</Time>
            <Position>
              <LatitudeDegrees>36.51199995540082454681396484375</LatitudeDegrees>
              <LongitudeDegrees>-5.40902517735958099365234375</LongitudeDegrees>
            </Position>
            <AltitudeMeters>202.600006103515625</AltitudeMeters>
            <DistanceMeters>5681.0093356228</DistanceMeters>
          </Trackpoint>
          <Trackpoint>
            <Time>2019-01-04T10:36:13.000Z</Time>
            <Position>
              <LatitudeDegrees>36.511989645659923553466796875</LatitudeDegrees>
              <LongitudeDegrees>-5.4090253449976444244384765625</LongitudeDegrees>
            </Position>
            <AltitudeMeters>202.399993896484375</AltitudeMeters>
            <DistanceMeters>5682.1575477813</DistanceMeters>
          </Trackpoint>
          <Trackpoint>
            <Time>2019-01-04T10:36:14.000Z</Time>
            <Position>
              <LatitudeDegrees>36.5119851194322109222412109375</LatitudeDegrees>
              <LongitudeDegrees>-5.40902207605540752410888671875</LongitudeDegrees>
            </Position>
            <AltitudeMeters>202.399993896484375</AltitudeMeters>
            <DistanceMeters>5682.7355727188</DistanceMeters>
          </Trackpoint>
          <Trackpoint>
            <Time>2019-01-04T10:36:15.000Z</Time>
            <Position>
              <LatitudeDegrees>36.51198285631835460662841796875</LatitudeDegrees>
              <LongitudeDegrees>-5.4090189747512340545654296875</LongitudeDegrees>
            </Position>
            <AltitudeMeters>202.1999969482421875</AltitudeMeters>
            <DistanceMeters>5683.0911301266</DistanceMeters>
          </Trackpoint>
          <Trackpoint>
            <Time>2019-01-04T10:36:16.000Z</Time>
            <Position>
              <LatitudeDegrees>36.51198235340416431427001953125</LatitudeDegrees>
              <LongitudeDegrees>-5.40901620872318744659423828125</LongitudeDegrees>
            </Position>
            <AltitudeMeters>202.1999969482421875</AltitudeMeters>
            <DistanceMeters>5683.3238970887</DistanceMeters>
          </Trackpoint>
          <Trackpoint>
            <Time>2019-01-04T10:36:17.000Z</Time>
            <Position>
              <LatitudeDegrees>36.5119824372231960296630859375</LatitudeDegrees>
              <LongitudeDegrees>-5.40901310741901397705078125</LongitudeDegrees>
            </Position>
            <AltitudeMeters>202.1999969482421875</AltitudeMeters>
            <DistanceMeters>5683.5926732252</DistanceMeters>
          </Trackpoint>
          <Trackpoint>
            <Time>2019-01-04T10:36:18.000Z</Time>
            <Position>
              <LatitudeDegrees>36.51197967119514942169189453125</LatitudeDegrees>
              <LongitudeDegrees>-5.40901067666709423065185546875</LongitudeDegrees>
            </Position>
            <AltitudeMeters>202.1999969482421875</AltitudeMeters>
            <DistanceMeters>5683.9727800827</DistanceMeters>
          </Trackpoint>
          <Trackpoint>
            <Time>2019-01-04T10:36:19.000Z</Time>
            <Position>
              <LatitudeDegrees>36.51197497732937335968017578125</LatitudeDegrees>
              <LongitudeDegrees>-5.409006066620349884033203125</LongitudeDegrees>
            </Position>
            <AltitudeMeters>202</AltitudeMeters>
            <DistanceMeters>5684.644720424</DistanceMeters>
          </Trackpoint>
          <Trackpoint>
            <Time>2019-01-04T10:36:20.000Z</Time>
            <Position>
              <LatitudeDegrees>36.511967182159423828125</LatitudeDegrees>
              <LongitudeDegrees>-5.409007407724857330322265625</LongitudeDegrees>
            </Position>
            <AltitudeMeters>202</AltitudeMeters>
            <DistanceMeters>5685.5156546472</DistanceMeters>
          </Trackpoint>
          <Trackpoint>
            <Time>2019-01-04T10:36:21.000Z</Time>
            <Position>
              <LatitudeDegrees>36.51195704005658626556396484375</LatitudeDegrees>
              <LongitudeDegrees>-5.40900866501033306121826171875</LongitudeDegrees>
            </Position>
            <AltitudeMeters>202</AltitudeMeters>
            <DistanceMeters>5686.6480286381</DistanceMeters>
          </Trackpoint>
          <Trackpoint>
            <Time>2019-01-04T10:36:22.000Z</Time>
            <Position>
              <LatitudeDegrees>36.51193977333605289459228515625</LatitudeDegrees>
              <LongitudeDegrees>-5.40900598280131816864013671875</LongitudeDegrees>
            </Position>
            <AltitudeMeters>201.8000030517578125</AltitudeMeters>
            <DistanceMeters>5688.583869986</DistanceMeters>
          </Trackpoint>
          <Trackpoint>
            <Time>2019-01-04T10:36:23.000Z</Time>
            <Position>
              <LatitudeDegrees>36.5119234286248683929443359375</LatitudeDegrees>
              <LongitudeDegrees>-5.4090045578777790069580078125</LongitudeDegrees>
            </Position>
            <AltitudeMeters>201.600006103515625</AltitudeMeters>
            <DistanceMeters>5690.4067984353</DistanceMeters>
          </Trackpoint>
          <Trackpoint>
            <Time>2019-01-04T10:36:24.000Z</Time>
            <Position>
              <LatitudeDegrees>36.51190708391368389129638671875</LatitudeDegrees>
              <LongitudeDegrees>-5.40899776853621006011962890625</LongitudeDegrees>
            </Position>
            <AltitudeMeters>201.399993896484375</AltitudeMeters>
            <DistanceMeters>5692.3262439774</DistanceMeters>
          </Trackpoint>
          <Trackpoint>
            <Time>2019-01-04T10:36:25.000Z</Time>
            <Position>
              <LatitudeDegrees>36.5118925832211971282958984375</LatitudeDegrees>
              <LongitudeDegrees>-5.4089908115565776824951171875</LongitudeDegrees>
            </Position>
            <AltitudeMeters>201.1999969482421875</AltitudeMeters>
            <DistanceMeters>5694.0551035156</DistanceMeters>
          </Trackpoint>
          <Trackpoint>
            <Time>2019-01-04T10:36:26.000Z</Time>
            <Position>
              <LatitudeDegrees>36.51188193820416927337646484375</LatitudeDegrees>
              <LongitudeDegrees>-5.40898569859564304351806640625</LongitudeDegrees>
            </Position>
            <AltitudeMeters>201</AltitudeMeters>
            <DistanceMeters>5695.3229180159</DistanceMeters>
          </Trackpoint>
          <Trackpoint>
            <Time>2019-01-04T10:36:27.000Z</Time>
            <Position>
              <LatitudeDegrees>36.51187799870967864990234375</LatitudeDegrees>
              <LongitudeDegrees>-5.40898703970015048980712890625</LongitudeDegrees>
            </Position>
            <AltitudeMeters>200.8000030517578125</AltitudeMeters>
            <DistanceMeters>5695.7686328146</DistanceMeters>
          </Trackpoint>
          <Trackpoint>
            <Time>2019-01-04T10:36:28.000Z</Time>
            <Position>
              <LatitudeDegrees>36.5118768252432346343994140625</LatitudeDegrees>
              <LongitudeDegrees>-5.40898569859564304351806640625</LongitudeDegrees>
            </Position>
            <AltitudeMeters>200.8000030517578125</AltitudeMeters>
            <DistanceMeters>5695.9030208828</DistanceMeters>
          </Trackpoint>
          <Trackpoint>
            <Time>2019-01-04T10:36:29.000Z</Time>
            <Position>
              <LatitudeDegrees>36.51187456212937831878662109375</LatitudeDegrees>
              <LongitudeDegrees>-5.40898351930081844329833984375</LongitudeDegrees>
            </Position>
            <AltitudeMeters>200.8000030517578125</AltitudeMeters>
            <DistanceMeters>5696.2322030775</DistanceMeters>
          </Trackpoint>
          <Trackpoint>
            <Time>2019-01-04T10:36:30.000Z</Time>
            <Position>
              <LatitudeDegrees>36.51186835952103137969970703125</LatitudeDegrees>
              <LongitudeDegrees>-5.40898284874856472015380859375</LongitudeDegrees>
            </Position>
            <AltitudeMeters>200.8000030517578125</AltitudeMeters>
            <DistanceMeters>5696.930503964</DistanceMeters>
          </Trackpoint>
          <Trackpoint>
            <Time>2019-01-04T10:36:31.000Z</Time>
            <Position>
              <LatitudeDegrees>36.51186131872236728668212890625</LatitudeDegrees>
              <LongitudeDegrees>-5.40898025035858154296875</LongitudeDegrees>
            </Position>
            <AltitudeMeters>201</AltitudeMeters>
            <DistanceMeters>5697.74795467</DistanceMeters>
          </Trackpoint>
          <Trackpoint>
            <Time>2019-01-04T10:36:32.000Z</Time>
            <Position>
              <LatitudeDegrees>36.5118533559143543243408203125</LatitudeDegrees>
              <LongitudeDegrees>-5.40897279046475887298583984375</LongitudeDegrees>
            </Position>
            <AltitudeMeters>201</AltitudeMeters>
            <DistanceMeters>5698.8561470705</DistanceMeters>
          </Trackpoint>
          <Trackpoint>
            <Time>2019-01-04T10:36:33.000Z</Time>
            <Position>
              <LatitudeDegrees>36.51184321381151676177978515625</LatitudeDegrees>
              <LongitudeDegrees>-5.4089660011231899261474609375</LongitudeDegrees>
            </Position>
            <AltitudeMeters>201</AltitudeMeters>
            <DistanceMeters>5700.1381275355</DistanceMeters>
          </Trackpoint>
          <Trackpoint>
            <Time>2019-01-04T10:36:34.000Z</Time>
            <Position>
              <LatitudeDegrees>36.51183382607996463775634765625</LatitudeDegrees>
              <LongitudeDegrees>-5.40896348655223846435546875</LongitudeDegrees>
            </Position>
            <AltitudeMeters>201</AltitudeMeters>
            <DistanceMeters>5701.2090242198</DistanceMeters>
          </Trackpoint>
          <Trackpoint>
            <Time>2019-01-04T10:36:35.000Z</Time>
            <Position>
              <LatitudeDegrees>36.51182594709098339080810546875</LatitudeDegrees>
              <LongitudeDegrees>-5.40896440856158733367919921875</LongitudeDegrees>
            </Position>
            <AltitudeMeters>200.8000030517578125</AltitudeMeters>
            <DistanceMeters>5702.0902657157</DistanceMeters>
          </Trackpoint>
          <Trackpoint>
            <Time>2019-01-04T10:36:36.000Z</Time>
            <Position>
              <LatitudeDegrees>36.511818654835224151611328125</LatitudeDegrees>
              <LongitudeDegrees>-5.408963151276111602783203125</LongitudeDegrees>
            </Position>
            <AltitudeMeters>200.8000030517578125</AltitudeMeters>
            <DistanceMeters>5702.9077164218</DistanceMeters>
          </Trackpoint>
          <Trackpoint>
            <Time>2019-01-04T10:36:37.000Z</Time>
            <Position>
              <LatitudeDegrees>36.51180868037045001983642578125</LatitudeDegrees>
              <LongitudeDegrees>-5.40896222926676273345947265625</LongitudeDegrees>
            </Position>
            <AltitudeMeters>200.8000030517578125</AltitudeMeters>
            <DistanceMeters>5704.0240275564</DistanceMeters>
          </Trackpoint>
          <Trackpoint>
            <Time>2019-01-04T10:36:38.000Z</Time>
            <Position>
              <LatitudeDegrees>36.51179895736277103424072265625</LatitudeDegrees>
              <LongitudeDegrees>-5.408959127962589263916015625</LongitudeDegrees>
            </Position>
            <AltitudeMeters>200.600006103515625</AltitudeMeters>
            <DistanceMeters>5705.140338691</DistanceMeters>
          </Trackpoint>
          <Trackpoint>
            <Time>2019-01-04T10:36:39.000Z</Time>
            <Position>
              <LatitudeDegrees>36.5117909945547580718994140625</LatitudeDegrees>
              <LongitudeDegrees>-5.4089495725929737091064453125</LongitudeDegrees>
            </Position>
            <AltitudeMeters>200.600006103515625</AltitudeMeters>
            <DistanceMeters>5706.3720256815</DistanceMeters>
          </Trackpoint>
          <Trackpoint>
            <Time>2019-01-04T10:36:40.000Z</Time>
            <Position>
              <LatitudeDegrees>36.5117819420993328094482421875</LatitudeDegrees>
              <LongitudeDegrees>-5.408940352499485015869140625</LongitudeDegrees>
            </Position>
            <AltitudeMeters>200.600006103515625</AltitudeMeters>
            <DistanceMeters>5707.6749663446</DistanceMeters>
          </Trackpoint>
          <Trackpoint>
            <Time>2019-01-04T10:36:41.000Z</Time>
            <Position>
              <LatitudeDegrees>36.51177079416811466217041015625</LatitudeDegrees>
              <LongitudeDegrees>-5.40893398225307464599609375</LongitudeDegrees>
            </Position>
            <AltitudeMeters>200.600006103515625</AltitudeMeters>
            <DistanceMeters>5709.0388562769</DistanceMeters>
          </Trackpoint>
          <Trackpoint>
            <Time>2019-01-04T10:36:42.000Z</Time>
            <Position>
              <LatitudeDegrees>36.51176132261753082275390625</LatitudeDegrees>
              <LongitudeDegrees>-5.40892736054956912994384765625</LongitudeDegrees>
            </Position>
            <AltitudeMeters>200.600006103515625</AltitudeMeters>
            <DistanceMeters>5710.2483488912</DistanceMeters>
          </Trackpoint>
          <Trackpoint>
            <Time>2019-01-04T10:36:43.000Z</Time>
            <Position>
              <LatitudeDegrees>36.511754281818866729736328125</LatitudeDegrees>
              <LongitudeDegrees>-5.4089207388460636138916015625</LongitudeDegrees>
            </Position>
            <AltitudeMeters>200.600006103515625</AltitudeMeters>
            <DistanceMeters>5711.2358954754</DistanceMeters>
          </Trackpoint>
          <Trackpoint>
            <Time>2019-01-04T10:36:44.000Z</Time>
            <Position>
              <LatitudeDegrees>36.5117457322776317596435546875</LatitudeDegrees>
              <LongitudeDegrees>-5.4089133627712726593017578125</LongitudeDegrees>
            </Position>
            <AltitudeMeters>200.600006103515625</AltitudeMeters>
            <DistanceMeters>5712.3958443493</DistanceMeters>
          </Trackpoint>
          <Trackpoint>
            <Time>2019-01-04T10:36:45.000Z</Time>
            <Position>
              <LatitudeDegrees>36.51173609308898448944091796875</LatitudeDegrees>
              <LongitudeDegrees>-5.40890556760132312774658203125</LongitudeDegrees>
            </Position>
            <AltitudeMeters>200.600006103515625</AltitudeMeters>
            <DistanceMeters>5713.6778248144</DistanceMeters>
          </Trackpoint>
          <Trackpoint>
            <Time>2019-01-04T10:36:46.000Z</Time>
            <Position>
              <LatitudeDegrees>36.51172536425292491912841796875</LatitudeDegrees>
              <LongitudeDegrees>-5.40889936499297618865966796875</LongitudeDegrees>
            </Position>
            <AltitudeMeters>200.8000030517578125</AltitudeMeters>
            <DistanceMeters>5714.9945535933</DistanceMeters>
          </Trackpoint>
          <Trackpoint>
            <Time>2019-01-04T10:36:47.000Z</Time>
            <Position>
              <LatitudeDegrees>36.51171714998781681060791015625</LatitudeDegrees>
              <LongitudeDegrees>-5.40889483876526355743408203125</LongitudeDegrees>
            </Position>
            <AltitudeMeters>200.8000030517578125</AltitudeMeters>
            <DistanceMeters>5715.9912021817</DistanceMeters>
          </Trackpoint>
          <Trackpoint>
            <Time>2019-01-04T10:36:48.000Z</Time>
            <Position>
              <LatitudeDegrees>36.51170675642788410186767578125</LatitudeDegrees>
              <LongitudeDegrees>-5.4088929109275341033935546875</LongitudeDegrees>
            </Position>
            <AltitudeMeters>201</AltitudeMeters>
            <DistanceMeters>5717.1550369924</DistanceMeters>
          </Trackpoint>
          <Trackpoint>
            <Time>2019-01-04T10:36:49.000Z</Time>
            <Position>
              <LatitudeDegrees>36.5116944350302219390869140625</LatitudeDegrees>
              <LongitudeDegrees>-5.4088885523378849029541015625</LongitudeDegrees>
            </Position>
            <AltitudeMeters>201.1999969482421875</AltitudeMeters>
            <DistanceMeters>5718.5836017534</DistanceMeters>
          </Trackpoint>
          <Trackpoint>
            <Time>2019-01-04T10:36:50.000Z</Time>
            <Position>
              <LatitudeDegrees>36.5116815268993377685546875</LatitudeDegrees>
              <LongitudeDegrees>-5.40888796560466289520263671875</LongitudeDegrees>
            </Position>
            <AltitudeMeters>201.399993896484375</AltitudeMeters>
            <DistanceMeters>5720.0184736742</DistanceMeters>
          </Trackpoint>
          <Trackpoint>
            <Time>2019-01-04T10:36:51.000Z</Time>
            <Position>
              <LatitudeDegrees>36.51166887022554874420166015625</LatitudeDegrees>
              <LongitudeDegrees>-5.40888578630983829498291015625</LongitudeDegrees>
            </Position>
            <AltitudeMeters>201.600006103515625</AltitudeMeters>
            <DistanceMeters>5721.4407033053</DistanceMeters>
          </Trackpoint>
          <Trackpoint>
            <Time>2019-01-04T10:36:52.000Z</Time>
            <Position>
              <LatitudeDegrees>36.51165646500885486602783203125</LatitudeDegrees>
              <LongitudeDegrees>-5.408881343901157379150390625</LongitudeDegrees>
            </Position>
            <AltitudeMeters>201.600006103515625</AltitudeMeters>
            <DistanceMeters>5722.8755752261</DistanceMeters>
          </Trackpoint>
          <Trackpoint>
            <Time>2019-01-04T10:36:53.000Z</Time>
            <Position>
              <LatitudeDegrees>36.51164741255342960357666015625</LatitudeDegrees>
              <LongitudeDegrees>-5.4088764823973178863525390625</LongitudeDegrees>
            </Position>
            <AltitudeMeters>201.600006103515625</AltitudeMeters>
            <DistanceMeters>5723.9755889731</DistanceMeters>
          </Trackpoint>
          <Trackpoint>
            <Time>2019-01-04T10:36:54.000Z</Time>
            <Position>
              <LatitudeDegrees>36.51163752190768718719482421875</LatitudeDegrees>
              <LongitudeDegrees>-5.408871285617351531982421875</LongitudeDegrees>
            </Position>
            <AltitudeMeters>201.8000030517578125</AltitudeMeters>
            <DistanceMeters>5725.1700562511</DistanceMeters>
          </Trackpoint>
          <Trackpoint>
            <Time>2019-01-04T10:36:55.000Z</Time>
            <Position>
              <LatitudeDegrees>36.5116283856332302093505859375</LatitudeDegrees>
              <LongitudeDegrees>-5.40886826813220977783203125</LongitudeDegrees>
            </Position>
            <AltitudeMeters>201.600006103515625</AltitudeMeters>
            <DistanceMeters>5726.2196606176</DistanceMeters>
          </Trackpoint>
          <Trackpoint>
            <Time>2019-01-04T10:36:56.000Z</Time>
            <Position>
              <LatitudeDegrees>36.511615477502346038818359375</LatitudeDegrees>
              <LongitudeDegrees>-5.4088667593896389007568359375</LongitudeDegrees>
            </Position>
            <AltitudeMeters>201.600006103515625</AltitudeMeters>
            <DistanceMeters>5727.6608120954</DistanceMeters>
          </Trackpoint>
          <Trackpoint>
            <Time>2019-01-04T10:36:57.000Z</Time>
            <Position>
              <LatitudeDegrees>36.5116055868566036224365234375</LatitudeDegrees>
              <LongitudeDegrees>-5.4088630713522434234619140625</LongitudeDegrees>
            </Position>
            <AltitudeMeters>201.399993896484375</AltitudeMeters>
            <DistanceMeters>5728.8090242539</DistanceMeters>
          </Trackpoint>
          <Trackpoint>
            <Time>2019-01-04T10:36:58.000Z</Time>
            <Position>
              <LatitudeDegrees>36.511597372591495513916015625</LatitudeDegrees>
              <LongitudeDegrees>-5.408862568438053131103515625</LongitudeDegrees>
            </Position>
            <AltitudeMeters>201.399993896484375</AltitudeMeters>
            <DistanceMeters>5729.7204884785</DistanceMeters>
          </Trackpoint>
          <Trackpoint>
            <Time>2019-01-04T10:36:59.000Z</Time>
            <Position>
              <LatitudeDegrees>36.5115871466696262359619140625</LatitudeDegrees>
              <LongitudeDegrees>-5.408859215676784515380859375</LongitudeDegrees>
            </Position>
            <AltitudeMeters>201.399993896484375</AltitudeMeters>
            <DistanceMeters>5730.8997389915</DistanceMeters>
          </Trackpoint>
          <Trackpoint>
            <Time>2019-01-04T10:37:00.000Z</Time>
            <Position>
              <LatitudeDegrees>36.5115747414529323577880859375</LatitudeDegrees>
              <LongitudeDegrees>-5.40885276161134243011474609375</LongitudeDegrees>
            </Position>
            <AltitudeMeters>201.1999969482421875</AltitudeMeters>
            <DistanceMeters>5732.3992352518</DistanceMeters>
          </Trackpoint>
          <Trackpoint>
            <Time>2019-01-04T10:37:01.000Z</Time>
            <Position>
              <LatitudeDegrees>36.5115630067884922027587890625</LatitudeDegrees>
              <LongitudeDegrees>-5.40884538553655147552490234375</LongitudeDegrees>
            </Position>
            <AltitudeMeters>201.1999969482421875</AltitudeMeters>
            <DistanceMeters>5733.8652359999</DistanceMeters>
          </Trackpoint>
          <Trackpoint>
            <Time>2019-01-04T10:37:02.000Z</Time>
            <Position>
              <LatitudeDegrees>36.511550433933734893798828125</LatitudeDegrees>
              <LongitudeDegrees>-5.408835075795650482177734375</LongitudeDegrees>
            </Position>
            <AltitudeMeters>201.1999969482421875</AltitudeMeters>
            <DistanceMeters>5735.5383539568</DistanceMeters>
          </Trackpoint>
          <Trackpoint>
            <Time>2019-01-04T10:37:03.000Z</Time>
            <Position>
              <LatitudeDegrees>36.51153811253607273101806640625</LatitudeDegrees>
              <LongitudeDegrees>-5.4088258557021617889404296875</LongitudeDegrees>
            </Position>
            <AltitudeMeters>201.1999969482421875</AltitudeMeters>
            <DistanceMeters>5737.1397726123</DistanceMeters>
          </Trackpoint>
          <Trackpoint>
            <Time>2019-01-04T10:37:04.000Z</Time>
            <Position>
              <LatitudeDegrees>36.5115224383771419525146484375</LatitudeDegrees>
              <LongitudeDegrees>-5.40881319902837276458740234375</LongitudeDegrees>
            </Position>
            <AltitudeMeters>201.1999969482421875</AltitudeMeters>
            <DistanceMeters>5739.2173617296</DistanceMeters>
          </Trackpoint>
          <Trackpoint>
            <Time>2019-01-04T10:37:05.000Z</Time>
            <Position>
              <LatitudeDegrees>36.51150860823690891265869140625</LatitudeDegrees>
              <LongitudeDegrees>-5.4088013805449008941650390625</LongitudeDegrees>
            </Position>
            <AltitudeMeters>201.1999969482421875</AltitudeMeters>
            <DistanceMeters>5741.0867572425</DistanceMeters>
          </Trackpoint>
          <Trackpoint>
            <Time>2019-01-04T10:37:06.000Z</Time>
            <Position>
              <LatitudeDegrees>36.51149905286729335784912109375</LatitudeDegrees>
              <LongitudeDegrees>-5.4087906517088413238525390625</LongitudeDegrees>
            </Position>
            <AltitudeMeters>201.1999969482421875</AltitudeMeters>
            <DistanceMeters>5742.5216291633</DistanceMeters>
          </Trackpoint>
          <Trackpoint>
            <Time>2019-01-04T10:37:07.000Z</Time>
            <Position>
              <LatitudeDegrees>36.5114889107644557952880859375</LatitudeDegrees>
              <LongitudeDegrees>-5.40878243744373321533203125</LongitudeDegrees>
            </Position>
            <AltitudeMeters>201.1999969482421875</AltitudeMeters>
            <DistanceMeters>5743.8722125342</DistanceMeters>
          </Trackpoint>
          <Trackpoint>
            <Time>2019-01-04T10:37:08.000Z</Time>
            <Position>
              <LatitudeDegrees>36.511472649872303009033203125</LatitudeDegrees>
              <LongitudeDegrees>-5.4087789170444011688232421875</LongitudeDegrees>
            </Position>
            <AltitudeMeters>201.399993896484375</AltitudeMeters>
            <DistanceMeters>5745.7074832264</DistanceMeters>
          </Trackpoint>
          <Trackpoint>
            <Time>2019-01-04T10:37:09.000Z</Time>
            <Position>
              <LatitudeDegrees>36.51145848445594310760498046875</LatitudeDegrees>
              <LongitudeDegrees>-5.40877833031117916107177734375</LongitudeDegrees>
            </Position>
            <AltitudeMeters>201.600006103515625</AltitudeMeters>
            <DistanceMeters>5747.2804552369</DistanceMeters>
          </Trackpoint>
          <Trackpoint>
            <Time>2019-01-04T10:37:10.000Z</Time>
            <Position>
              <LatitudeDegrees>36.51144993491470813751220703125</LatitudeDegrees>
              <LongitudeDegrees>-5.40877799503505229949951171875</LongitudeDegrees>
            </Position>
            <AltitudeMeters>201.8000030517578125</AltitudeMeters>
            <DistanceMeters>5748.2307223806</DistanceMeters>
          </Trackpoint>
          <Trackpoint>
            <Time>2019-01-04T10:37:11.000Z</Time>
            <Position>
              <LatitudeDegrees>36.5114409662783145904541015625</LatitudeDegrees>
              <LongitudeDegrees>-5.40877866558730602264404296875</LongitudeDegrees>
            </Position>
            <AltitudeMeters>202</AltitudeMeters>
            <DistanceMeters>5749.2363905971</DistanceMeters>
          </Trackpoint>
          <Trackpoint>
            <Time>2019-01-04T10:37:12.000Z</Time>
            <Position>
              <LatitudeDegrees>36.51143115945160388946533203125</LatitudeDegrees>
              <LongitudeDegrees>-5.4087738879024982452392578125</LongitudeDegrees>
            </Position>
            <AltitudeMeters>202.1999969482421875</AltitudeMeters>
            <DistanceMeters>5750.4118061389</DistanceMeters>
          </Trackpoint>
          <Trackpoint>
            <Time>2019-01-04T10:37:13.000Z</Time>
            <Position>
              <LatitudeDegrees>36.51142478920519351959228515625</LatitudeDegrees>
              <LongitudeDegrees>-5.40876475162804126739501953125</LongitudeDegrees>
            </Position>
            <AltitudeMeters>202.399993896484375</AltitudeMeters>
            <DistanceMeters>5751.4952773834</DistanceMeters>
          </Trackpoint>
          <Trackpoint>
            <Time>2019-01-04T10:37:14.000Z</Time>
            <Position>
              <LatitudeDegrees>36.51141531765460968017578125</LatitudeDegrees>
              <LongitudeDegrees>-5.40875921957194805145263671875</LongitudeDegrees>
            </Position>
            <AltitudeMeters>202.600006103515625</AltitudeMeters>
            <DistanceMeters>5752.6591121941</DistanceMeters>
          </Trackpoint>
          <Trackpoint>
            <Time>2019-01-04T10:37:15.000Z</Time>
            <Position>
              <LatitudeDegrees>36.51140366680920124053955078125</LatitudeDegrees>
              <LongitudeDegrees>-5.40875704027712345123291015625</LongitudeDegrees>
            </Position>
            <AltitudeMeters>202.600006103515625</AltitudeMeters>
            <DistanceMeters>5753.9724075153</DistanceMeters>
          </Trackpoint>
          <Trackpoint>
            <Time>2019-01-04T10:37:16.000Z</Time>
            <Position>
              <LatitudeDegrees>36.51139562018215656280517578125</LatitudeDegrees>
              <LongitudeDegrees>-5.40875536389648914337158203125</LongitudeDegrees>
            </Position>
            <AltitudeMeters>202.8000030517578125</AltitudeMeters>
            <DistanceMeters>5754.88387174</DistanceMeters>
          </Trackpoint>
          <Trackpoint>
            <Time>2019-01-04T10:37:17.000Z</Time>
            <Position>
              <LatitudeDegrees>36.51138572953641414642333984375</LatitudeDegrees>
              <LongitudeDegrees>-5.40875553153455257415771484375</LongitudeDegrees>
            </Position>
            <AltitudeMeters>203</AltitudeMeters>
            <DistanceMeters>5755.983885487</DistanceMeters>
          </Trackpoint>
          <Trackpoint>
            <Time>2019-01-04T10:37:18.000Z</Time>
            <Position>
              <LatitudeDegrees>36.51137550361454486846923828125</LatitudeDegrees>
              <LongitudeDegrees>-5.40875368751585483551025390625</LongitudeDegrees>
            </Position>
            <AltitudeMeters>203</AltitudeMeters>
            <DistanceMeters>5757.1320976454</DistanceMeters>
          </Trackpoint>
          <Trackpoint>
            <Time>2019-01-04T10:37:19.000Z</Time>
            <Position>
              <LatitudeDegrees>36.51136360131204128265380859375</LatitudeDegrees>
              <LongitudeDegrees>-5.4087534360587596893310546875</LongitudeDegrees>
            </Position>
            <AltitudeMeters>203</AltitudeMeters>
            <DistanceMeters>5758.4556666199</DistanceMeters>
          </Trackpoint>
          <Trackpoint>
            <Time>2019-01-04T10:37:20.000Z</Time>
            <Position>
              <LatitudeDegrees>36.511349938809871673583984375</LatitudeDegrees>
              <LongitudeDegrees>-5.40874949656426906585693359375</LongitudeDegrees>
            </Position>
            <AltitudeMeters>203</AltitudeMeters>
            <DistanceMeters>5760.0171148707</DistanceMeters>
          </Trackpoint>
          <Trackpoint>
            <Time>2019-01-04T10:37:21.000Z</Time>
            <Position>
              <LatitudeDegrees>36.5113323368132114410400390625</LatitudeDegrees>
              <LongitudeDegrees>-5.40874916128814220428466796875</LongitudeDegrees>
            </Position>
            <AltitudeMeters>203.1999969482421875</AltitudeMeters>
            <DistanceMeters>5761.97383468</DistanceMeters>
          </Trackpoint>
          <Trackpoint>
            <Time>2019-01-04T10:37:22.000Z</Time>
            <Position>
              <LatitudeDegrees>36.51131741702556610107421875</LatitudeDegrees>
              <LongitudeDegrees>-5.408752262592315673828125</LongitudeDegrees>
            </Position>
            <AltitudeMeters>203.399993896484375</AltitudeMeters>
            <DistanceMeters>5763.6577123488</DistanceMeters>
          </Trackpoint>
          <Trackpoint>
            <Time>2019-01-04T10:37:23.000Z</Time>
            <Position>
              <LatitudeDegrees>36.51130593381822109222412109375</LatitudeDegrees>
              <LongitudeDegrees>-5.40875695645809173583984375</LongitudeDegrees>
            </Position>
            <AltitudeMeters>203.399993896484375</AltitudeMeters>
            <DistanceMeters>5765.0015930313</DistanceMeters>
          </Trackpoint>
          <Trackpoint>
            <Time>2019-01-04T10:37:24.000Z</Time>
            <Position>
              <LatitudeDegrees>36.511293612420558929443359375</LatitudeDegrees>
              <LongitudeDegrees>-5.408768355846405029296875</LongitudeDegrees>
            </Position>
            <AltitudeMeters>203.399993896484375</AltitudeMeters>
            <DistanceMeters>5766.7120738899</DistanceMeters>
          </Trackpoint>
          <Trackpoint>
            <Time>2019-01-04T10:37:25.000Z</Time>
            <Position>
              <LatitudeDegrees>36.51127676479518413543701171875</LatitudeDegrees>
              <LongitudeDegrees>-5.40877112187445163726806640625</LongitudeDegrees>
            </Position>
            <AltitudeMeters>203.399993896484375</AltitudeMeters>
            <DistanceMeters>5768.6030816297</DistanceMeters>
          </Trackpoint>
          <Trackpoint>
            <Time>2019-01-04T10:37:26.000Z</Time>
            <Position>
              <LatitudeDegrees>36.511263437569141387939453125</LatitudeDegrees>
              <LongitudeDegrees>-5.40877128951251506805419921875</LongitudeDegrees>
            </Position>
            <AltitudeMeters>203.399993896484375</AltitudeMeters>
            <DistanceMeters>5770.0874463599</DistanceMeters>
          </Trackpoint>
          <Trackpoint>
            <Time>2019-01-04T10:37:27.000Z</Time>
            <Position>
              <LatitudeDegrees>36.511251032352447509765625</LatitudeDegrees>
              <LongitudeDegrees>-5.40877363644540309906005859375</LongitudeDegrees>
            </Position>
            <AltitudeMeters>203.399993896484375</AltitudeMeters>
            <DistanceMeters>5771.4840481327</DistanceMeters>
          </Trackpoint>
          <Trackpoint>
            <Time>2019-01-04T10:37:28.000Z</Time>
            <Position>
              <LatitudeDegrees>36.5112387947738170623779296875</LatitudeDegrees>
              <LongitudeDegrees>-5.40877799503505229949951171875</LongitudeDegrees>
            </Position>
            <AltitudeMeters>203.399993896484375</AltitudeMeters>
            <DistanceMeters>5772.8999142883</DistanceMeters>
          </Trackpoint>
          <Trackpoint>
            <Time>2019-01-04T10:37:29.000Z</Time>
            <Position>
              <LatitudeDegrees>36.51122932322323322296142578125</LatitudeDegrees>
              <LongitudeDegrees>-5.408782102167606353759765625</LongitudeDegrees>
            </Position>
            <AltitudeMeters>203.399993896484375</AltitudeMeters>
            <DistanceMeters>5774.0162254229</DistanceMeters>
          </Trackpoint>
          <Trackpoint>
            <Time>2019-01-04T10:37:30.000Z</Time>
            <Position>
              <LatitudeDegrees>36.511217840015888214111328125</LatitudeDegrees>
              <LongitudeDegrees>-5.40878335945308208465576171875</LongitudeDegrees>
            </Position>
            <AltitudeMeters>203.399993896484375</AltitudeMeters>
            <DistanceMeters>5775.298205888</DistanceMeters>
          </Trackpoint>
          <Trackpoint>
            <Time>2019-01-04T10:37:31.000Z</Time>
            <Position>
              <LatitudeDegrees>36.5112052671611309051513671875</LatitudeDegrees>
              <LongitudeDegrees>-5.4087839461863040924072265625</LongitudeDegrees>
            </Position>
            <AltitudeMeters>203.399993896484375</AltitudeMeters>
            <DistanceMeters>5776.6980368022</DistanceMeters>
          </Trackpoint>
          <Trackpoint>
            <Time>2019-01-04T10:37:32.000Z</Time>
            <Position>
              <LatitudeDegrees>36.511196382343769073486328125</LatitudeDegrees>
              <LongitudeDegrees>-5.40878151543438434600830078125</LongitudeDegrees>
            </Position>
            <AltitudeMeters>203.399993896484375</AltitudeMeters>
            <DistanceMeters>5777.7037050187</DistanceMeters>
          </Trackpoint>
          <Trackpoint>
            <Time>2019-01-04T10:37:33.000Z</Time>
            <Position>
              <LatitudeDegrees>36.5111888386309146881103515625</LatitudeDegrees>
              <LongitudeDegrees>-5.4087782464921474456787109375</LongitudeDegrees>
            </Position>
            <AltitudeMeters>203.399993896484375</AltitudeMeters>
            <DistanceMeters>5778.5951346161</DistanceMeters>
          </Trackpoint>
          <Trackpoint>
            <Time>2019-01-04T10:37:34.000Z</Time>
            <Position>
              <LatitudeDegrees>36.5111777745187282562255859375</LatitudeDegrees>
              <LongitudeDegrees>-5.408785454928874969482421875</LongitudeDegrees>
            </Position>
            <AltitudeMeters>203.1999969482421875</AltitudeMeters>
            <DistanceMeters>5779.9852556033</DistanceMeters>
          </Trackpoint>
          <Trackpoint>
            <Time>2019-01-04T10:37:35.000Z</Time>
            <Position>
              <LatitudeDegrees>36.51117048226296901702880859375</LatitudeDegrees>
              <LongitudeDegrees>-5.40878805331885814666748046875</LongitudeDegrees>
            </Position>
            <AltitudeMeters>203.1999969482421875</AltitudeMeters>
            <DistanceMeters>5780.8245088205</DistanceMeters>
          </Trackpoint>
          <Trackpoint>
            <Time>2019-01-04T10:37:36.000Z</Time>
            <Position>
              <LatitudeDegrees>36.5111657045781612396240234375</LatitudeDegrees>
              <LongitudeDegrees>-5.4087924957275390625</LongitudeDegrees>
            </Position>
            <AltitudeMeters>202.8000030517578125</AltitudeMeters>
            <DistanceMeters>5781.48287321</DistanceMeters>
          </Trackpoint>
          <Trackpoint>
            <Time>2019-01-04T10:37:37.000Z</Time>
            <Position>
              <LatitudeDegrees>36.511154137551784515380859375</LatitudeDegrees>
              <LongitudeDegrees>-5.40880364365875720977783203125</LongitudeDegrees>
            </Position>
            <AltitudeMeters>202.600006103515625</AltitudeMeters>
            <DistanceMeters>5783.1122419449</DistanceMeters>
          </Trackpoint>
          <Trackpoint>
            <Time>2019-01-04T10:37:38.000Z</Time>
            <Position>
              <LatitudeDegrees>36.51114416308701038360595703125</LatitudeDegrees>
              <LongitudeDegrees>-5.40880699642002582550048828125</LongitudeDegrees>
            </Position>
            <AltitudeMeters>202.399993896484375</AltitudeMeters>
            <DistanceMeters>5784.2643796265</DistanceMeters>
          </Trackpoint>
          <Trackpoint>
            <Time>2019-01-04T10:37:39.000Z</Time>
            <Position>
              <LatitudeDegrees>36.511132009327411651611328125</LatitudeDegrees>
              <LongitudeDegrees>-5.408814288675785064697265625</LongitudeDegrees>
            </Position>
            <AltitudeMeters>202.1999969482421875</AltitudeMeters>
            <DistanceMeters>5785.7668839064</DistanceMeters>
          </Trackpoint>
          <Trackpoint>
            <Time>2019-01-04T10:37:40.000Z</Time>
            <Position>
              <LatitudeDegrees>36.51112086139619350433349609375</LatitudeDegrees>
              <LongitudeDegrees>-5.40882267057895660400390625</LongitudeDegrees>
            </Position>
            <AltitudeMeters>202</AltitudeMeters>
            <DistanceMeters>5787.2174037481</DistanceMeters>
          </Trackpoint>
          <Trackpoint>
            <Time>2019-01-04T10:37:41.000Z</Time>
            <Position>
              <LatitudeDegrees>36.5111090429127216339111328125</LatitudeDegrees>
              <LongitudeDegrees>-5.40883742272853851318359375</LongitudeDegrees>
            </Position>
            <AltitudeMeters>201.600006103515625</AltitudeMeters>
            <DistanceMeters>5789.0819625246</DistanceMeters>
          </Trackpoint>
          <Trackpoint>
            <Time>2019-01-04T10:37:42.000Z</Time>
            <Position>
              <LatitudeDegrees>36.5111009962856769561767578125</LatitudeDegrees>
              <LongitudeDegrees>-5.40884873829782009124755859375</LongitudeDegrees>
            </Position>
            <AltitudeMeters>201.600006103515625</AltitudeMeters>
            <DistanceMeters>5790.4358847964</DistanceMeters>
          </Trackpoint>
          <Trackpoint>
            <Time>2019-01-04T10:37:43.000Z</Time>
            <Position>
              <LatitudeDegrees>36.51109286583960056304931640625</LatitudeDegrees>
              <LongitudeDegrees>-5.40885678492486476898193359375</LongitudeDegrees>
            </Position>
            <AltitudeMeters>201.399993896484375</AltitudeMeters>
            <DistanceMeters>5791.5840969549</DistanceMeters>
          </Trackpoint>
          <Trackpoint>
            <Time>2019-01-04T10:37:44.000Z</Time>
            <Position>
              <LatitudeDegrees>36.5110828913748264312744140625</LatitudeDegrees>
              <LongitudeDegrees>-5.4088674299418926239013671875</LongitudeDegrees>
            </Position>
            <AltitudeMeters>201.1999969482421875</AltitudeMeters>
            <DistanceMeters>5793.0439250409</DistanceMeters>
          </Trackpoint>
          <Trackpoint>
            <Time>2019-01-04T10:37:45.000Z</Time>
            <Position>
              <LatitudeDegrees>36.51107191108167171478271484375</LatitudeDegrees>
              <LongitudeDegrees>-5.40888058952987194061279296875</LongitudeDegrees>
            </Position>
            <AltitudeMeters>201</AltitudeMeters>
            <DistanceMeters>5794.743814585</DistanceMeters>
          </Trackpoint>
          <Trackpoint>
            <Time>2019-01-04T10:37:46.000Z</Time>
            <Position>
              <LatitudeDegrees>36.511062942445278167724609375</LatitudeDegrees>
              <LongitudeDegrees>-5.408889390528202056884765625</LongitudeDegrees>
            </Position>
            <AltitudeMeters>200.8000030517578125</AltitudeMeters>
            <DistanceMeters>5796.0151853741</DistanceMeters>
          </Trackpoint>
          <Trackpoint>
            <Time>2019-01-04T10:37:47.000Z</Time>
            <Position>
              <LatitudeDegrees>36.51105347089469432830810546875</LatitudeDegrees>
              <LongitudeDegrees>-5.40889835916459560394287109375</LongitudeDegrees>
            </Position>
            <AltitudeMeters>200.600006103515625</AltitudeMeters>
            <DistanceMeters>5797.3387543486</DistanceMeters>
          </Trackpoint>
          <Trackpoint>
            <Time>2019-01-04T10:37:48.000Z</Time>
            <Position>
              <LatitudeDegrees>36.51104609481990337371826171875</LatitudeDegrees>
              <LongitudeDegrees>-5.408908836543560028076171875</LongitudeDegrees>
            </Position>
            <AltitudeMeters>200.399993896484375</AltitudeMeters>
            <DistanceMeters>5798.5850180239</DistanceMeters>
          </Trackpoint>
          <Trackpoint>
            <Time>2019-01-04T10:37:49.000Z</Time>
            <Position>
              <LatitudeDegrees>36.51103905402123928070068359375</LatitudeDegrees>
              <LongitudeDegrees>-5.40891814045608043670654296875</LongitudeDegrees>
            </Position>
            <AltitudeMeters>200.1999969482421875</AltitudeMeters>
            <DistanceMeters>5799.7292911925</DistanceMeters>
          </Trackpoint>
          <Trackpoint>
            <Time>2019-01-04T10:37:50.000Z</Time>
            <Position>
              <LatitudeDegrees>36.511029414832592010498046875</LatitudeDegrees>
              <LongitudeDegrees>-5.4089230857789516448974609375</LongitudeDegrees>
            </Position>
            <AltitudeMeters>200</AltitudeMeters>
            <DistanceMeters>5800.8931260032</DistanceMeters>
          </Trackpoint>
          <Trackpoint>
            <Time>2019-01-04T10:37:51.000Z</Time>
            <Position>
              <LatitudeDegrees>36.5110190212726593017578125</LatitudeDegrees>
              <LongitudeDegrees>-5.40892752818763256072998046875</LongitudeDegrees>
            </Position>
            <AltitudeMeters>200</AltitudeMeters>
            <DistanceMeters>5802.1137662504</DistanceMeters>
          </Trackpoint>
          <Trackpoint>
            <Time>2019-01-04T10:37:52.000Z</Time>
            <Position>
              <LatitudeDegrees>36.51100753806531429290771484375</LatitudeDegrees>
              <LongitudeDegrees>-5.40892995893955230712890625</LongitudeDegrees>
            </Position>
            <AltitudeMeters>199.8000030517578125</AltitudeMeters>
            <DistanceMeters>5803.4097578471</DistanceMeters>
          </Trackpoint>
          <Trackpoint>
            <Time>2019-01-04T10:37:53.000Z</Time>
            <Position>
              <LatitudeDegrees>36.51099949143826961517333984375</LatitudeDegrees>
              <LongitudeDegrees>-5.40892886929214000701904296875</LongitudeDegrees>
            </Position>
            <AltitudeMeters>199.8000030517578125</AltitudeMeters>
            <DistanceMeters>5804.3162549273</DistanceMeters>
          </Trackpoint>
          <Trackpoint>
            <Time>2019-01-04T10:37:54.000Z</Time>
            <Position>
              <LatitudeDegrees>36.51099010370671749114990234375</LatitudeDegrees>
              <LongitudeDegrees>-5.40893037803471088409423828125</LongitudeDegrees>
            </Position>
            <AltitudeMeters>199.8000030517578125</AltitudeMeters>
            <DistanceMeters>5805.3744276349</DistanceMeters>
          </Trackpoint>
          <Trackpoint>
            <Time>2019-01-04T10:37:55.000Z</Time>
            <Position>
              <LatitudeDegrees>36.51097551919519901275634765625</LatitudeDegrees>
              <LongitudeDegrees>-5.40893607772886753082275390625</LongitudeDegrees>
            </Position>
            <AltitudeMeters>199.8000030517578125</AltitudeMeters>
            <DistanceMeters>5807.0796210594</DistanceMeters>
          </Trackpoint>
          <Trackpoint>
            <Time>2019-01-04T10:37:56.000Z</Time>
            <Position>
              <LatitudeDegrees>36.5109658800065517425537109375</LatitudeDegrees>
              <LongitudeDegrees>-5.40893607772886753082275390625</LongitudeDegrees>
            </Position>
            <AltitudeMeters>199.8000030517578125</AltitudeMeters>
            <DistanceMeters>5808.1547256054</DistanceMeters>
          </Trackpoint>
          <Trackpoint>
            <Time>2019-01-04T10:37:57.000Z</Time>
            <Position>
              <LatitudeDegrees>36.5109574981033802032470703125</LatitudeDegrees>
              <LongitudeDegrees>-5.408932305872440338134765625</LongitudeDegrees>
            </Position>
            <AltitudeMeters>199.8000030517578125</AltitudeMeters>
            <DistanceMeters>5809.1513741938</DistanceMeters>
          </Trackpoint>
          <Trackpoint>
            <Time>2019-01-04T10:37:58.000Z</Time>
            <Position>
              <LatitudeDegrees>36.51094350032508373260498046875</LatitudeDegrees>
              <LongitudeDegrees>-5.4089311324059963226318359375</LongitudeDegrees>
            </Position>
            <AltitudeMeters>199.8000030517578125</AltitudeMeters>
            <DistanceMeters>5810.7099281914</DistanceMeters>
          </Trackpoint>
          <Trackpoint>
            <Time>2019-01-04T10:37:59.000Z</Time>
            <Position>
              <LatitudeDegrees>36.5109303407371044158935546875</LatitudeDegrees>
              <LongitudeDegrees>-5.408929288387298583984375</LongitudeDegrees>
            </Position>
            <AltitudeMeters>199.8000030517578125</AltitudeMeters>
            <DistanceMeters>5812.1820757202</DistanceMeters>
          </Trackpoint>
          <Trackpoint>
            <Time>2019-01-04T10:38:00.000Z</Time>
            <Position>
              <LatitudeDegrees>36.51091617532074451446533203125</LatitudeDegrees>
              <LongitudeDegrees>-5.408926270902156829833984375</LongitudeDegrees>
            </Position>
            <AltitudeMeters>200</AltitudeMeters>
            <DistanceMeters>5813.7834943757</DistanceMeters>
          </Trackpoint>
          <Trackpoint>
            <Time>2019-01-04T10:38:01.000Z</Time>
            <Position>
              <LatitudeDegrees>36.51090259663760662078857421875</LatitudeDegrees>
              <LongitudeDegrees>-5.40892685763537883758544921875</LongitudeDegrees>
            </Position>
            <AltitudeMeters>200</AltitudeMeters>
            <DistanceMeters>5815.2949867972</DistanceMeters>
          </Trackpoint>
          <Trackpoint>
            <Time>2019-01-04T10:38:02.000Z</Time>
            <Position>
              <LatitudeDegrees>36.51089270599186420440673828125</LatitudeDegrees>
              <LongitudeDegrees>-5.4089267738163471221923828125</LongitudeDegrees>
            </Position>
            <AltitudeMeters>200</AltitudeMeters>
            <DistanceMeters>5816.3950005441</DistanceMeters>
          </Trackpoint>
          <Trackpoint>
            <Time>2019-01-04T10:38:03.000Z</Time>
            <Position>
              <LatitudeDegrees>36.5108850784599781036376953125</LatitudeDegrees>
              <LongitudeDegrees>-5.40892031975090503692626953125</LongitudeDegrees>
            </Position>
            <AltitudeMeters>200.1999969482421875</AltitudeMeters>
            <DistanceMeters>5817.4184695801</DistanceMeters>
          </Trackpoint>
          <Trackpoint>
            <Time>2019-01-04T10:38:04.000Z</Time>
            <Position>
              <LatitudeDegrees>36.51088113896548748016357421875</LatitudeDegrees>
              <LongitudeDegrees>-5.40892132557928562164306640625</LongitudeDegrees>
            </Position>
            <AltitudeMeters>200.1999969482421875</AltitudeMeters>
            <DistanceMeters>5817.8641843787</DistanceMeters>
          </Trackpoint>
          <Trackpoint>
            <Time>2019-01-04T10:38:05.000Z</Time>
            <Position>
              <LatitudeDegrees>36.51087828911840915679931640625</LatitudeDegrees>
              <LongitudeDegrees>-5.4089204035699367523193359375</LongitudeDegrees>
            </Position>
            <AltitudeMeters>200.1999969482421875</AltitudeMeters>
            <DistanceMeters>5818.1933665735</DistanceMeters>
          </Trackpoint>
          <Trackpoint>
            <Time>2019-01-04T10:38:06.000Z</Time>
            <Position>
              <LatitudeDegrees>36.51087460108101367950439453125</LatitudeDegrees>
              <LongitudeDegrees>-5.408918224275112152099609375</LongitudeDegrees>
            </Position>
            <AltitudeMeters>200.1999969482421875</AltitudeMeters>
            <DistanceMeters>5818.6589004978</DistanceMeters>
          </Trackpoint>
          <Trackpoint>
            <Time>2019-01-04T10:38:07.000Z</Time>
            <Position>
              <LatitudeDegrees>36.5108736790716648101806640625</LatitudeDegrees>
              <LongitudeDegrees>-5.40891629643738269805908203125</LongitudeDegrees>
            </Position>
            <AltitudeMeters>200.1999969482421875</AltitudeMeters>
            <DistanceMeters>5818.8489539265</DistanceMeters>
          </Trackpoint>
          <Trackpoint>
            <Time>2019-01-04T10:38:08.000Z</Time>
            <Position>
              <LatitudeDegrees>36.51087292470037937164306640625</LatitudeDegrees>
              <LongitudeDegrees>-5.40891654789447784423828125</LongitudeDegrees>
            </Position>
            <AltitudeMeters>200.1999969482421875</AltitudeMeters>
            <DistanceMeters>5818.8489539265</DistanceMeters>
          </Trackpoint>
          <Trackpoint>
            <Time>2019-01-04T10:38:09.000Z</Time>
            <Position>
              <LatitudeDegrees>36.51087225414812564849853515625</LatitudeDegrees>
              <LongitudeDegrees>-5.40891797281801700592041015625</LongitudeDegrees>
            </Position>
            <AltitudeMeters>200.1999969482421875</AltitudeMeters>
            <DistanceMeters>5818.9833419947</DistanceMeters>
          </Trackpoint>
          <Trackpoint>
            <Time>2019-01-04T10:38:10.000Z</Time>
            <Position>
              <LatitudeDegrees>36.5108714997768402099609375</LatitudeDegrees>
              <LongitudeDegrees>-5.408922247588634490966796875</LongitudeDegrees>
            </Position>
            <AltitudeMeters>200.1999969482421875</AltitudeMeters>
            <DistanceMeters>5819.3751471753</DistanceMeters>
          </Trackpoint>
          <Trackpoint>
            <Time>2019-01-04T10:38:11.000Z</Time>
            <Position>
              <LatitudeDegrees>36.51086923666298389434814453125</LatitudeDegrees>
              <LongitudeDegrees>-5.40892300195991992950439453125</LongitudeDegrees>
            </Position>
            <AltitudeMeters>200.1999969482421875</AltitudeMeters>
            <DistanceMeters>5819.6439233118</DistanceMeters>
          </Trackpoint>
          <Trackpoint>
            <Time>2019-01-04T10:38:12.000Z</Time>
            <Position>
              <LatitudeDegrees>36.51086621917784214019775390625</LatitudeDegrees>
              <LongitudeDegrees>-5.408920906484127044677734375</LongitudeDegrees>
            </Position>
            <AltitudeMeters>200.1999969482421875</AltitudeMeters>
            <DistanceMeters>5820.0240301693</DistanceMeters>
          </Trackpoint>
          <Trackpoint>
            <Time>2019-01-04T10:38:13.000Z</Time>
            <Position>
              <LatitudeDegrees>36.51086621917784214019775390625</LatitudeDegrees>
              <LongitudeDegrees>-5.40891562588512897491455078125</LongitudeDegrees>
            </Position>
            <AltitudeMeters>200.1999969482421875</AltitudeMeters>
            <DistanceMeters>5820.4895640936</DistanceMeters>
          </Trackpoint>
          <Trackpoint>
            <Time>2019-01-04T10:38:14.000Z</Time>
            <Position>
              <LatitudeDegrees>36.51086521334946155548095703125</LatitudeDegrees>
              <LongitudeDegrees>-5.4089069925248622894287109375</LongitudeDegrees>
            </Position>
            <AltitudeMeters>200.1999969482421875</AltitudeMeters>
            <DistanceMeters>5821.2731744548</DistanceMeters>
          </Trackpoint>
          <Trackpoint>
            <Time>2019-01-04T10:38:15.000Z</Time>
            <Position>
              <LatitudeDegrees>36.51086454279720783233642578125</LatitudeDegrees>
              <LongitudeDegrees>-5.4088959284126758575439453125</LongitudeDegrees>
            </Position>
            <AltitudeMeters>200.1999969482421875</AltitudeMeters>
            <DistanceMeters>5822.2698230433</DistanceMeters>
          </Trackpoint>
          <Trackpoint>
            <Time>2019-01-04T10:38:16.000Z</Time>
            <Position>
              <LatitudeDegrees>36.51086814701557159423828125</LatitudeDegrees>
              <LongitudeDegrees>-5.40888930670917034149169921875</LongitudeDegrees>
            </Position>
            <AltitudeMeters>200.1999969482421875</AltitudeMeters>
            <DistanceMeters>5822.9809378588</DistanceMeters>
          </Trackpoint>
          <Trackpoint>
            <Time>2019-01-04T10:38:17.000Z</Time>
            <Position>
              <LatitudeDegrees>36.51087476871907711029052734375</LatitudeDegrees>
              <LongitudeDegrees>-5.40888092480599880218505859375</LongitudeDegrees>
            </Position>
            <AltitudeMeters>200.1999969482421875</AltitudeMeters>
            <DistanceMeters>5824.0305422253</DistanceMeters>
          </Trackpoint>
          <Trackpoint>
            <Time>2019-01-04T10:38:18.000Z</Time>
            <Position>
              <LatitudeDegrees>36.51088097132742404937744140625</LatitudeDegrees>
              <LongitudeDegrees>-5.40887572802603244781494140625</LongitudeDegrees>
            </Position>
            <AltitudeMeters>200</AltitudeMeters>
            <DistanceMeters>5824.8643982597</DistanceMeters>
          </Trackpoint>
          <Trackpoint>
            <Time>2019-01-04T10:38:19.000Z</Time>
            <Position>
              <LatitudeDegrees>36.510886251926422119140625</LatitudeDegrees>
              <LongitudeDegrees>-5.4088647477328777313232421875</LongitudeDegrees>
            </Position>
            <AltitudeMeters>200</AltitudeMeters>
            <DistanceMeters>5826.0126104182</DistanceMeters>
          </Trackpoint>
          <Trackpoint>
            <Time>2019-01-04T10:38:20.000Z</Time>
            <Position>
              <LatitudeDegrees>36.51089228689670562744140625</LatitudeDegrees>
              <LongitudeDegrees>-5.408856533467769622802734375</LongitudeDegrees>
            </Position>
            <AltitudeMeters>200</AltitudeMeters>
            <DistanceMeters>5827.0092590066</DistanceMeters>
          </Trackpoint>
          <Trackpoint>
            <Time>2019-01-04T10:38:21.000Z</Time>
            <Position>
              <LatitudeDegrees>36.51089857332408428192138671875</LatitudeDegrees>
              <LongitudeDegrees>-5.40884840302169322967529296875</LongitudeDegrees>
            </Position>
            <AltitudeMeters>199.8000030517578125</AltitudeMeters>
            <DistanceMeters>5828.0149272231</DistanceMeters>
          </Trackpoint>
          <Trackpoint>
            <Time>2019-01-04T10:38:22.000Z</Time>
            <Position>
              <LatitudeDegrees>36.51090703904628753662109375</LatitudeDegrees>
              <LongitudeDegrees>-5.40883742272853851318359375</LongitudeDegrees>
            </Position>
            <AltitudeMeters>199.8000030517578125</AltitudeMeters>
            <DistanceMeters>5829.3721801821</DistanceMeters>
          </Trackpoint>
          <Trackpoint>
            <Time>2019-01-04T10:38:23.000Z</Time>
            <Position>
              <LatitudeDegrees>36.51091508567333221435546875</LatitudeDegrees>
              <LongitudeDegrees>-5.40882761590182781219482421875</LongitudeDegrees>
            </Position>
            <AltitudeMeters>199.8000030517578125</AltitudeMeters>
            <DistanceMeters>5830.6256686349</DistanceMeters>
          </Trackpoint>
          <Trackpoint>
            <Time>2019-01-04T10:38:24.000Z</Time>
            <Position>
              <LatitudeDegrees>36.51092313230037689208984375</LatitudeDegrees>
              <LongitudeDegrees>-5.408816300332546234130859375</LongitudeDegrees>
            </Position>
            <AltitudeMeters>200</AltitudeMeters>
            <DistanceMeters>5831.9762520057</DistanceMeters>
          </Trackpoint>
          <Trackpoint>
            <Time>2019-01-04T10:38:25.000Z</Time>
            <Position>
              <LatitudeDegrees>36.51092992164194583892822265625</LatitudeDegrees>
              <LongitudeDegrees>-5.4088023863732814788818359375</LongitudeDegrees>
            </Position>
            <AltitudeMeters>200</AltitudeMeters>
            <DistanceMeters>5833.4329839524</DistanceMeters>
          </Trackpoint>
          <Trackpoint>
            <Time>2019-01-04T10:38:26.000Z</Time>
            <Position>
              <LatitudeDegrees>36.51093394495546817779541015625</LatitudeDegrees>
              <LongitudeDegrees>-5.40878914296627044677734375</LongitudeDegrees>
            </Position>
            <AltitudeMeters>200.1999969482421875</AltitudeMeters>
            <DistanceMeters>5834.7043547415</DistanceMeters>
          </Trackpoint>
          <Trackpoint>
            <Time>2019-01-04T10:38:27.000Z</Time>
            <Position>
              <LatitudeDegrees>36.5109373815357685089111328125</LatitudeDegrees>
              <LongitudeDegrees>-5.40877900086343288421630859375</LongitudeDegrees>
            </Position>
            <AltitudeMeters>200.1999969482421875</AltitudeMeters>
            <DistanceMeters>5835.6873187182</DistanceMeters>
          </Trackpoint>
          <Trackpoint>
            <Time>2019-01-04T10:38:28.000Z</Time>
            <Position>
              <LatitudeDegrees>36.51094249449670314788818359375</LatitudeDegrees>
              <LongitudeDegrees>-5.40877078659832477569580078125</LongitudeDegrees>
            </Position>
            <AltitudeMeters>200.399993896484375</AltitudeMeters>
            <DistanceMeters>5836.6183865668</DistanceMeters>
          </Trackpoint>
          <Trackpoint>
            <Time>2019-01-04T10:38:29.000Z</Time>
            <Position>
              <LatitudeDegrees>36.510945595800876617431640625</LatitudeDegrees>
              <LongitudeDegrees>-5.40876106359064579010009765625</LongitudeDegrees>
            </Position>
            <AltitudeMeters>200.600006103515625</AltitudeMeters>
            <DistanceMeters>5837.5494544153</DistanceMeters>
          </Trackpoint>
          <Trackpoint>
            <Time>2019-01-04T10:38:30.000Z</Time>
            <Position>
              <LatitudeDegrees>36.51094785891473293304443359375</LatitudeDegrees>
              <LongitudeDegrees>-5.40874882601201534271240234375</LongitudeDegrees>
            </Position>
            <AltitudeMeters>200.8000030517578125</AltitudeMeters>
            <DistanceMeters>5838.6657655499</DistanceMeters>
          </Trackpoint>
          <Trackpoint>
            <Time>2019-01-04T10:38:31.000Z</Time>
            <Position>
              <LatitudeDegrees>36.51094886474311351776123046875</LatitudeDegrees>
              <LongitudeDegrees>-5.4087346605956554412841796875</LongitudeDegrees>
            </Position>
            <AltitudeMeters>201</AltitudeMeters>
            <DistanceMeters>5839.9335800502</DistanceMeters>
          </Trackpoint>
          <Trackpoint>
            <Time>2019-01-04T10:38:32.000Z</Time>
            <Position>
              <LatitudeDegrees>36.51095129549503326416015625</LatitudeDegrees>
              <LongitudeDegrees>-5.4087202437222003936767578125</LongitudeDegrees>
            </Position>
            <AltitudeMeters>201.1999969482421875</AltitudeMeters>
            <DistanceMeters>5841.2468753714</DistanceMeters>
          </Trackpoint>
          <Trackpoint>
            <Time>2019-01-04T10:38:33.000Z</Time>
            <Position>
              <LatitudeDegrees>36.51094836182892322540283203125</LatitudeDegrees>
              <LongitudeDegrees>-5.408709011971950531005859375</LongitudeDegrees>
            </Position>
            <AltitudeMeters>201.399993896484375</AltitudeMeters>
            <DistanceMeters>5842.305048079</DistanceMeters>
          </Trackpoint>
          <Trackpoint>
            <Time>2019-01-04T10:38:34.000Z</Time>
            <Position>
              <LatitudeDegrees>36.510942913591861724853515625</LatitudeDegrees>
              <LongitudeDegrees>-5.40869987569749355316162109375</LongitudeDegrees>
            </Position>
            <AltitudeMeters>201.399993896484375</AltitudeMeters>
            <DistanceMeters>5843.3285171149</DistanceMeters>
          </Trackpoint>
          <Trackpoint>
            <Time>2019-01-04T10:38:35.000Z</Time>
            <Position>
              <LatitudeDegrees>36.5109357051551342010498046875</LatitudeDegrees>
              <LongitudeDegrees>-5.40868948213756084442138671875</LongitudeDegrees>
            </Position>
            <AltitudeMeters>201.399993896484375</AltitudeMeters>
            <DistanceMeters>5844.5602041054</DistanceMeters>
          </Trackpoint>
          <Trackpoint>
            <Time>2019-01-04T10:38:36.000Z</Time>
            <Position>
              <LatitudeDegrees>36.510931514203548431396484375</LatitudeDegrees>
              <LongitudeDegrees>-5.4086773283779621124267578125</LongitudeDegrees>
            </Position>
            <AltitudeMeters>201.399993896484375</AltitudeMeters>
            <DistanceMeters>5845.7470873875</DistanceMeters>
          </Trackpoint>
          <Trackpoint>
            <Time>2019-01-04T10:38:37.000Z</Time>
            <Position>
              <LatitudeDegrees>36.510926820337772369384765625</LatitudeDegrees>
              <LongitudeDegrees>-5.4086629115045070648193359375</LongitudeDegrees>
            </Position>
            <AltitudeMeters>201.399993896484375</AltitudeMeters>
            <DistanceMeters>5847.1404525354</DistanceMeters>
          </Trackpoint>
          <Trackpoint>
            <Time>2019-01-04T10:38:38.000Z</Time>
            <Position>
              <LatitudeDegrees>36.5109196119010448455810546875</LatitudeDegrees>
              <LongitudeDegrees>-5.408652685582637786865234375</LongitudeDegrees>
            </Position>
            <AltitudeMeters>201.399993896484375</AltitudeMeters>
            <DistanceMeters>5848.3573882514</DistanceMeters>
          </Trackpoint>
          <Trackpoint>
            <Time>2019-01-04T10:38:39.000Z</Time>
            <Position>
              <LatitudeDegrees>36.51091181673109531402587890625</LatitudeDegrees>
              <LongitudeDegrees>-5.40864472277462482452392578125</LongitudeDegrees>
            </Position>
            <AltitudeMeters>201.399993896484375</AltitudeMeters>
            <DistanceMeters>5849.4817594989</DistanceMeters>
          </Trackpoint>
          <Trackpoint>
            <Time>2019-01-04T10:38:40.000Z</Time>
            <Position>
              <LatitudeDegrees>36.5109038539230823516845703125</LatitudeDegrees>
              <LongitudeDegrees>-5.4086320661008358001708984375</LongitudeDegrees>
            </Position>
            <AltitudeMeters>201.1999969482421875</AltitudeMeters>
            <DistanceMeters>5850.9197746259</DistanceMeters>
          </Trackpoint>
          <Trackpoint>
            <Time>2019-01-04T10:38:41.000Z</Time>
            <Position>
              <LatitudeDegrees>36.510896645486354827880859375</LatitudeDegrees>
              <LongitudeDegrees>-5.4086196608841419219970703125</LongitudeDegrees>
            </Position>
            <AltitudeMeters>201.1999969482421875</AltitudeMeters>
            <DistanceMeters>5852.2869709629</DistanceMeters>
          </Trackpoint>
          <Trackpoint>
            <Time>2019-01-04T10:38:42.000Z</Time>
            <Position>
              <LatitudeDegrees>36.510887928307056427001953125</LatitudeDegrees>
              <LongitudeDegrees>-5.40860616602003574371337890625</LongitudeDegrees>
            </Position>
            <AltitudeMeters>201</AltitudeMeters>
            <DistanceMeters>5853.836809772</DistanceMeters>
          </Trackpoint>
          <Trackpoint>
            <Time>2019-01-04T10:38:43.000Z</Time>
            <Position>
              <LatitudeDegrees>36.51088248006999492645263671875</LatitudeDegrees>
              <LongitudeDegrees>-5.40859007276594638824462890625</LongitudeDegrees>
            </Position>
            <AltitudeMeters>201</AltitudeMeters>
            <DistanceMeters>5855.3982580228</DistanceMeters>
          </Trackpoint>
          <Trackpoint>
            <Time>2019-01-04T10:38:44.000Z</Time>
            <Position>
              <LatitudeDegrees>36.51087460108101367950439453125</LatitudeDegrees>
              <LongitudeDegrees>-5.4085787571966648101806640625</LongitudeDegrees>
            </Position>
            <AltitudeMeters>200.8000030517578125</AltitudeMeters>
            <DistanceMeters>5856.7421387053</DistanceMeters>
          </Trackpoint>
          <Trackpoint>
            <Time>2019-01-04T10:38:45.000Z</Time>
            <Position>
              <LatitudeDegrees>36.51086806319653987884521484375</LatitudeDegrees>
              <LongitudeDegrees>-5.408568866550922393798828125</LongitudeDegrees>
            </Position>
            <AltitudeMeters>200.600006103515625</AltitudeMeters>
            <DistanceMeters>5857.8903508637</DistanceMeters>
          </Trackpoint>
          <Trackpoint>
            <Time>2019-01-04T10:38:46.000Z</Time>
            <Position>
              <LatitudeDegrees>36.51086487807333469390869140625</LatitudeDegrees>
              <LongitudeDegrees>-5.4085596464574337005615234375</LongitudeDegrees>
            </Position>
            <AltitudeMeters>200.399993896484375</AltitudeMeters>
            <DistanceMeters>5858.7968479439</DistanceMeters>
          </Trackpoint>
          <Trackpoint>
            <Time>2019-01-04T10:38:47.000Z</Time>
            <Position>
              <LatitudeDegrees>36.51086336933076381683349609375</LatitudeDegrees>
              <LongitudeDegrees>-5.40855118073523044586181640625</LongitudeDegrees>
            </Position>
            <AltitudeMeters>200</AltitudeMeters>
            <DistanceMeters>5859.5688486209</DistanceMeters>
          </Trackpoint>
          <Trackpoint>
            <Time>2019-01-04T10:38:48.000Z</Time>
            <Position>
              <LatitudeDegrees>36.5108599327504634857177734375</LatitudeDegrees>
              <LongitudeDegrees>-5.40854531340301036834716796875</LongitudeDegrees>
            </Position>
            <AltitudeMeters>200</AltitudeMeters>
            <DistanceMeters>5860.213351155</DistanceMeters>
          </Trackpoint>
          <Trackpoint>
            <Time>2019-01-04T10:38:49.000Z</Time>
            <Position>
              <LatitudeDegrees>36.5108549036085605621337890625</LatitudeDegrees>
              <LongitudeDegrees>-5.4085365124046802520751953125</LongitudeDegrees>
            </Position>
            <AltitudeMeters>200</AltitudeMeters>
            <DistanceMeters>5861.1730739261</DistanceMeters>
          </Trackpoint>
          <Trackpoint>
            <Time>2019-01-04T10:38:50.000Z</Time>
            <Position>
              <LatitudeDegrees>36.510849036276340484619140625</LatitudeDegrees>
              <LongitudeDegrees>-5.40852301754057407379150390625</LongitudeDegrees>
            </Position>
            <AltitudeMeters>199.8000030517578125</AltitudeMeters>
            <DistanceMeters>5862.5435686909</DistanceMeters>
          </Trackpoint>
          <Trackpoint>
            <Time>2019-01-04T10:38:51.000Z</Time>
            <Position>
              <LatitudeDegrees>36.51084694080054759979248046875</LatitudeDegrees>
              <LongitudeDegrees>-5.40850885212421417236328125</LongitudeDegrees>
            </Position>
            <AltitudeMeters>199.8000030517578125</AltitudeMeters>
            <DistanceMeters>5863.832573759</DistanceMeters>
          </Trackpoint>
          <Trackpoint>
            <Time>2019-01-04T10:38:52.000Z</Time>
            <Position>
              <LatitudeDegrees>36.51084224693477153778076171875</LatitudeDegrees>
              <LongitudeDegrees>-5.40849904529750347137451171875</LongitudeDegrees>
            </Position>
            <AltitudeMeters>199.8000030517578125</AltitudeMeters>
            <DistanceMeters>5864.8471814244</DistanceMeters>
          </Trackpoint>
          <Trackpoint>
            <Time>2019-01-04T10:38:53.000Z</Time>
            <Position>
              <LatitudeDegrees>36.51083554141223430633544921875</LatitudeDegrees>
              <LongitudeDegrees>-5.40848965756595134735107421875</LongitudeDegrees>
            </Position>
            <AltitudeMeters>199.8000030517578125</AltitudeMeters>
            <DistanceMeters>5865.9715526718</DistanceMeters>
          </Trackpoint>
          <Trackpoint>
            <Time>2019-01-04T10:38:54.000Z</Time>
            <Position>
              <LatitudeDegrees>36.5108304284512996673583984375</LatitudeDegrees>
              <LongitudeDegrees>-5.40847934782505035400390625</LongitudeDegrees>
            </Position>
            <AltitudeMeters>199.8000030517578125</AltitudeMeters>
            <DistanceMeters>5867.0550239164</DistanceMeters>
          </Trackpoint>
          <Trackpoint>
            <Time>2019-01-04T10:38:55.000Z</Time>
            <Position>
              <LatitudeDegrees>36.51082749478518962860107421875</LatitudeDegrees>
              <LongitudeDegrees>-5.4084644280374050140380859375</LongitudeDegrees>
            </Position>
            <AltitudeMeters>199.8000030517578125</AltitudeMeters>
            <DistanceMeters>5868.4288091895</DistanceMeters>
          </Trackpoint>
          <Trackpoint>
            <Time>2019-01-04T10:38:56.000Z</Time>
            <Position>
              <LatitudeDegrees>36.51082389056682586669921875</LatitudeDegrees>
              <LongitudeDegrees>-5.40845126844942569732666015625</LongitudeDegrees>
            </Position>
            <AltitudeMeters>199.8000030517578125</AltitudeMeters>
            <DistanceMeters>5869.6750728648</DistanceMeters>
          </Trackpoint>
          <Trackpoint>
            <Time>2019-01-04T10:38:57.000Z</Time>
            <Position>
              <LatitudeDegrees>36.51081559248268604278564453125</LatitudeDegrees>
              <LongitudeDegrees>-5.4084419645369052886962890625</LongitudeDegrees>
            </Position>
            <AltitudeMeters>199.8000030517578125</AltitudeMeters>
            <DistanceMeters>5870.9213365401</DistanceMeters>
          </Trackpoint>
          <Trackpoint>
            <Time>2019-01-04T10:38:58.000Z</Time>
            <Position>
              <LatitudeDegrees>36.510806791484355926513671875</LatitudeDegrees>
              <LongitudeDegrees>-5.40843349881470203399658203125</LongitudeDegrees>
            </Position>
            <AltitudeMeters>199.600006103515625</AltitudeMeters>
            <DistanceMeters>5872.1566838269</DistanceMeters>
          </Trackpoint>
          <Trackpoint>
            <Time>2019-01-04T10:38:59.000Z</Time>
            <Position>
              <LatitudeDegrees>36.510800421237945556640625</LatitudeDegrees>
              <LongitudeDegrees>-5.4084211774170398712158203125</LongitudeDegrees>
            </Position>
            <AltitudeMeters>199.399993896484375</AltitudeMeters>
            <DistanceMeters>5873.4665366906</DistanceMeters>
          </Trackpoint>
          <Trackpoint>
            <Time>2019-01-04T10:39:00.000Z</Time>
            <Position>
              <LatitudeDegrees>36.51079497300088405609130859375</LatitudeDegrees>
              <LongitudeDegrees>-5.4084087722003459930419921875</LongitudeDegrees>
            </Position>
            <AltitudeMeters>198.8000030517578125</AltitudeMeters>
            <DistanceMeters>5874.7307848982</DistanceMeters>
          </Trackpoint>
          <Trackpoint>
            <Time>2019-01-04T10:39:01.000Z</Time>
            <Position>
              <LatitudeDegrees>36.51078977622091770172119140625</LatitudeDegrees>
              <LongitudeDegrees>-5.408395193517208099365234375</LongitudeDegrees>
            </Position>
            <AltitudeMeters>198.399993896484375</AltitudeMeters>
            <DistanceMeters>5876.0746655807</DistanceMeters>
          </Trackpoint>
          <Trackpoint>
            <Time>2019-01-04T10:39:02.000Z</Time>
            <Position>
              <LatitudeDegrees>36.51078709401190280914306640625</LatitudeDegrees>
              <LongitudeDegrees>-5.408381111919879913330078125</LongitudeDegrees>
            </Position>
            <AltitudeMeters>198.1999969482421875</AltitudeMeters>
            <DistanceMeters>5877.3706571774</DistanceMeters>
          </Trackpoint>
          <Trackpoint>
            <Time>2019-01-04T10:39:03.000Z</Time>
            <Position>
              <LatitudeDegrees>36.51078273542225360870361328125</LatitudeDegrees>
              <LongitudeDegrees>-5.40837147273123264312744140625</LongitudeDegrees>
            </Position>
            <AltitudeMeters>198</AltitudeMeters>
            <DistanceMeters>5878.3582037616</DistanceMeters>
          </Trackpoint>
          <Trackpoint>
            <Time>2019-01-04T10:39:04.000Z</Time>
            <Position>
              <LatitudeDegrees>36.5107787959277629852294921875</LatitudeDegrees>
              <LongitudeDegrees>-5.408361665904521942138671875</LongitudeDegrees>
            </Position>
            <AltitudeMeters>198</AltitudeMeters>
            <DistanceMeters>5879.3365636662</DistanceMeters>
          </Trackpoint>
          <Trackpoint>
            <Time>2019-01-04T10:39:05.000Z</Time>
            <Position>
              <LatitudeDegrees>36.51077561080455780029296875</LatitudeDegrees>
              <LongitudeDegrees>-5.408350266516208648681640625</LongitudeDegrees>
            </Position>
            <AltitudeMeters>197.8000030517578125</AltitudeMeters>
            <DistanceMeters>5880.4158596688</DistanceMeters>
          </Trackpoint>
          <Trackpoint>
            <Time>2019-01-04T10:39:06.000Z</Time>
            <Position>
              <LatitudeDegrees>36.51076748035848140716552734375</LatitudeDegrees>
              <LongitudeDegrees>-5.4083443991839885711669921875</LongitudeDegrees>
            </Position>
            <AltitudeMeters>197.8000030517578125</AltitudeMeters>
            <DistanceMeters>5881.4568251694</DistanceMeters>
          </Trackpoint>
          <Trackpoint>
            <Time>2019-01-04T10:39:07.000Z</Time>
            <Position>
              <LatitudeDegrees>36.51075893081724643707275390625</LatitudeDegrees>
              <LongitudeDegrees>-5.408333837985992431640625</LongitudeDegrees>
            </Position>
            <AltitudeMeters>197.8000030517578125</AltitudeMeters>
            <DistanceMeters>5882.7939695654</DistanceMeters>
          </Trackpoint>
          <Trackpoint>
            <Time>2019-01-04T10:39:08.000Z</Time>
            <Position>
              <LatitudeDegrees>36.5107516385614871978759765625</LatitudeDegrees>
              <LongitudeDegrees>-5.40832218714058399200439453125</LongitudeDegrees>
            </Position>
            <AltitudeMeters>197.600006103515625</AltitudeMeters>
            <DistanceMeters>5884.1141228723</DistanceMeters>
          </Trackpoint>
          <Trackpoint>
            <Time>2019-01-04T10:39:09.000Z</Time>
            <Position>
              <LatitudeDegrees>36.5107469446957111358642578125</LatitudeDegrees>
              <LongitudeDegrees>-5.408315397799015045166015625</LongitudeDegrees>
            </Position>
            <AltitudeMeters>197.399993896484375</AltitudeMeters>
            <DistanceMeters>5884.909173406</DistanceMeters>
          </Trackpoint>
          <Trackpoint>
            <Time>2019-01-04T10:39:10.000Z</Time>
            <Position>
              <LatitudeDegrees>36.51074451394379138946533203125</LatitudeDegrees>
              <LongitudeDegrees>-5.40830760262906551361083984375</LongitudeDegrees>
            </Position>
            <AltitudeMeters>197.399993896484375</AltitudeMeters>
            <DistanceMeters>5885.6574145032</DistanceMeters>
          </Trackpoint>
          <Trackpoint>
            <Time>2019-01-04T10:39:11.000Z</Time>
            <Position>
              <LatitudeDegrees>36.51073537766933441162109375</LatitudeDegrees>
              <LongitudeDegrees>-5.40829695761203765869140625</LongitudeDegrees>
            </Position>
            <AltitudeMeters>197.399993896484375</AltitudeMeters>
            <DistanceMeters>5887.0507796511</DistanceMeters>
          </Trackpoint>
          <Trackpoint>
            <Time>2019-01-04T10:39:12.000Z</Time>
            <Position>
              <LatitudeDegrees>36.5107248164713382720947265625</LatitudeDegrees>
              <LongitudeDegrees>-5.4082882404327392578125</LongitudeDegrees>
            </Position>
            <AltitudeMeters>197.399993896484375</AltitudeMeters>
            <DistanceMeters>5888.4602536018</DistanceMeters>
          </Trackpoint>
          <Trackpoint>
            <Time>2019-01-04T10:39:13.000Z</Time>
            <Position>
              <LatitudeDegrees>36.51071802712976932525634765625</LatitudeDegrees>
              <LongitudeDegrees>-5.4082760028541088104248046875</LongitudeDegrees>
            </Position>
            <AltitudeMeters>197.1999969482421875</AltitudeMeters>
            <DistanceMeters>5889.7906276029</DistanceMeters>
          </Trackpoint>
          <Trackpoint>
            <Time>2019-01-04T10:39:14.000Z</Time>
            <Position>
              <LatitudeDegrees>36.51071199215948581695556640625</LatitudeDegrees>
              <LongitudeDegrees>-5.408264435827732086181640625</LongitudeDegrees>
            </Position>
            <AltitudeMeters>197</AltitudeMeters>
            <DistanceMeters>5891.0259748898</DistanceMeters>
          </Trackpoint>
          <Trackpoint>
            <Time>2019-01-04T10:39:15.000Z</Time>
            <Position>
              <LatitudeDegrees>36.5107025206089019775390625</LatitudeDegrees>
              <LongitudeDegrees>-5.4082558862864971160888671875</LongitudeDegrees>
            </Position>
            <AltitudeMeters>196.8000030517578125</AltitudeMeters>
            <DistanceMeters>5892.3289155528</DistanceMeters>
          </Trackpoint>
          <Trackpoint>
            <Time>2019-01-04T10:39:16.000Z</Time>
            <Position>
              <LatitudeDegrees>36.51069724000990390777587890625</LatitudeDegrees>
              <LongitudeDegrees>-5.4082438163459300994873046875</LongitudeDegrees>
            </Position>
            <AltitudeMeters>196.399993896484375</AltitudeMeters>
            <DistanceMeters>5893.5606025433</DistanceMeters>
          </Trackpoint>
          <Trackpoint>
            <Time>2019-01-04T10:39:17.000Z</Time>
            <Position>
              <LatitudeDegrees>36.510693132877349853515625</LatitudeDegrees>
              <LongitudeDegrees>-5.4082320816814899444580078125</LongitudeDegrees>
            </Position>
            <AltitudeMeters>196.1999969482421875</AltitudeMeters>
            <DistanceMeters>5894.7088147018</DistanceMeters>
          </Trackpoint>
          <Trackpoint>
            <Time>2019-01-04T10:39:18.000Z</Time>
            <Position>
              <LatitudeDegrees>36.51068332605063915252685546875</LatitudeDegrees>
              <LongitudeDegrees>-5.40822193957865238189697265625</LongitudeDegrees>
            </Position>
            <AltitudeMeters>195.8000030517578125</AltitudeMeters>
            <DistanceMeters>5896.1310443328</DistanceMeters>
          </Trackpoint>
          <Trackpoint>
            <Time>2019-01-04T10:39:19.000Z</Time>
            <Position>
              <LatitudeDegrees>36.51067008264362812042236328125</LatitudeDegrees>
              <LongitudeDegrees>-5.4082143120467662811279296875</LongitudeDegrees>
            </Position>
            <AltitudeMeters>195.600006103515625</AltitudeMeters>
            <DistanceMeters>5897.7576396722</DistanceMeters>
          </Trackpoint>
          <Trackpoint>
            <Time>2019-01-04T10:39:20.000Z</Time>
            <Position>
              <LatitudeDegrees>36.51065985672175884246826171875</LatitudeDegrees>
              <LongitudeDegrees>-5.40820576250553131103515625</LongitudeDegrees>
            </Position>
            <AltitudeMeters>195.399993896484375</AltitudeMeters>
            <DistanceMeters>5899.1314249454</DistanceMeters>
          </Trackpoint>
          <Trackpoint>
            <Time>2019-01-04T10:39:21.000Z</Time>
            <Position>
              <LatitudeDegrees>36.5106487087905406951904296875</LatitudeDegrees>
              <LongitudeDegrees>-5.40819461457431316375732421875</LongitudeDegrees>
            </Position>
            <AltitudeMeters>195.1999969482421875</AltitudeMeters>
            <DistanceMeters>5900.7215260127</DistanceMeters>
          </Trackpoint>
          <Trackpoint>
            <Time>2019-01-04T10:39:22.000Z</Time>
            <Position>
              <LatitudeDegrees>36.51063739322125911712646484375</LatitudeDegrees>
              <LongitudeDegrees>-5.40818187408149242401123046875</LongitudeDegrees>
            </Position>
            <AltitudeMeters>195</AltitudeMeters>
            <DistanceMeters>5902.4187574011</DistanceMeters>
          </Trackpoint>
          <Trackpoint>
            <Time>2019-01-04T10:39:23.000Z</Time>
            <Position>
              <LatitudeDegrees>36.5106282569468021392822265625</LatitudeDegrees>
              <LongitudeDegrees>-5.40817030705511569976806640625</LongitudeDegrees>
            </Position>
            <AltitudeMeters>195</AltitudeMeters>
            <DistanceMeters>5903.8723866137</DistanceMeters>
          </Trackpoint>
          <Trackpoint>
            <Time>2019-01-04T10:39:24.000Z</Time>
            <Position>
              <LatitudeDegrees>36.510615684092044830322265625</LatitudeDegrees>
              <LongitudeDegrees>-5.408157818019390106201171875</LongitudeDegrees>
            </Position>
            <AltitudeMeters>194.8000030517578125</AltitudeMeters>
            <DistanceMeters>5905.6603035752</DistanceMeters>
          </Trackpoint>
          <Trackpoint>
            <Time>2019-01-04T10:39:25.000Z</Time>
            <Position>
              <LatitudeDegrees>36.51060705073177814483642578125</LatitudeDegrees>
              <LongitudeDegrees>-5.40814868174493312835693359375</LongitudeDegrees>
            </Position>
            <AltitudeMeters>194.600006103515625</AltitudeMeters>
            <DistanceMeters>5906.9209754017</DistanceMeters>
          </Trackpoint>
          <Trackpoint>
            <Time>2019-01-04T10:39:26.000Z</Time>
            <Position>
              <LatitudeDegrees>36.51059933938086032867431640625</LatitudeDegrees>
              <LongitudeDegrees>-5.40814097039401531219482421875</LongitudeDegrees>
            </Position>
            <AltitudeMeters>194.600006103515625</AltitudeMeters>
            <DistanceMeters>5908.0209891487</DistanceMeters>
          </Trackpoint>
          <Trackpoint>
            <Time>2019-01-04T10:39:27.000Z</Time>
            <Position>
              <LatitudeDegrees>36.51059330441057682037353515625</LatitudeDegrees>
              <LongitudeDegrees>-5.40813040919601917266845703125</LongitudeDegrees>
            </Position>
            <AltitudeMeters>194.399993896484375</AltitudeMeters>
            <DistanceMeters>5909.1809380226</DistanceMeters>
          </Trackpoint>
          <Trackpoint>
            <Time>2019-01-04T10:39:28.000Z</Time>
            <Position>
              <LatitudeDegrees>36.5105863474309444427490234375</LatitudeDegrees>
              <LongitudeDegrees>-5.40812068618834018707275390625</LongitudeDegrees>
            </Position>
            <AltitudeMeters>194.399993896484375</AltitudeMeters>
            <DistanceMeters>5910.3447728333</DistanceMeters>
          </Trackpoint>
          <Trackpoint>
            <Time>2019-01-04T10:39:29.000Z</Time>
            <Position>
              <LatitudeDegrees>36.51057737879455089569091796875</LatitudeDegrees>
              <LongitudeDegrees>-5.40811054408550262451171875</LongitudeDegrees>
            </Position>
            <AltitudeMeters>194.399993896484375</AltitudeMeters>
            <DistanceMeters>5911.6886535158</DistanceMeters>
          </Trackpoint>
          <Trackpoint>
            <Time>2019-01-04T10:39:30.000Z</Time>
            <Position>
              <LatitudeDegrees>36.5105709247291088104248046875</LatitudeDegrees>
              <LongitudeDegrees>-5.4081018269062042236328125</LongitudeDegrees>
            </Position>
            <AltitudeMeters>194.399993896484375</AltitudeMeters>
            <DistanceMeters>5912.7468262234</DistanceMeters>
          </Trackpoint>
          <Trackpoint>
            <Time>2019-01-04T10:39:31.000Z</Time>
            <Position>
              <LatitudeDegrees>36.510564722120761871337890625</LatitudeDegrees>
              <LongitudeDegrees>-5.40809419937431812286376953125</LongitudeDegrees>
            </Position>
            <AltitudeMeters>194.399993896484375</AltitudeMeters>
            <DistanceMeters>5913.720560287</DistanceMeters>
          </Trackpoint>
          <Trackpoint>
            <Time>2019-01-04T10:39:32.000Z</Time>
            <Position>
              <LatitudeDegrees>36.51055893860757350921630859375</LatitudeDegrees>
              <LongitudeDegrees>-5.4080832190811634063720703125</LongitudeDegrees>
            </Position>
            <AltitudeMeters>194.600006103515625</AltitudeMeters>
            <DistanceMeters>5914.8921283044</DistanceMeters>
          </Trackpoint>
          <Trackpoint>
            <Time>2019-01-04T10:39:33.000Z</Time>
            <Position>
              <LatitudeDegrees>36.51055575348436832427978515625</LatitudeDegrees>
              <LongitudeDegrees>-5.408074669539928436279296875</LongitudeDegrees>
            </Position>
            <AltitudeMeters>194.8000030517578125</AltitudeMeters>
            <DistanceMeters>5915.7313815216</DistanceMeters>
          </Trackpoint>
          <Trackpoint>
            <Time>2019-01-04T10:39:34.000Z</Time>
            <Position>
              <LatitudeDegrees>36.5105524845421314239501953125</LatitudeDegrees>
              <LongitudeDegrees>-5.4080674611032009124755859375</LongitudeDegrees>
            </Position>
            <AltitudeMeters>194.8000030517578125</AltitudeMeters>
            <DistanceMeters>5916.467455286</DistanceMeters>
          </Trackpoint>
          <Trackpoint>
            <Time>2019-01-04T10:39:35.000Z</Time>
            <Position>
              <LatitudeDegrees>36.51054762303829193115234375</LatitudeDegrees>
              <LongitudeDegrees>-5.40806226432323455810546875</LongitudeDegrees>
            </Position>
            <AltitudeMeters>195</AltitudeMeters>
            <DistanceMeters>5917.1785701016</DistanceMeters>
          </Trackpoint>
          <Trackpoint>
            <Time>2019-01-04T10:39:36.000Z</Time>
            <Position>
              <LatitudeDegrees>36.5105420909821987152099609375</LatitudeDegrees>
              <LongitudeDegrees>-5.40805631317198276519775390625</LongitudeDegrees>
            </Position>
            <AltitudeMeters>195.1999969482421875</AltitudeMeters>
            <DistanceMeters>5917.9960208076</DistanceMeters>
          </Trackpoint>
          <Trackpoint>
            <Time>2019-01-04T10:39:37.000Z</Time>
            <Position>
              <LatitudeDegrees>36.5105380676686763763427734375</LatitudeDegrees>
              <LongitudeDegrees>-5.40805094875395298004150390625</LongitudeDegrees>
            </Position>
            <AltitudeMeters>195</AltitudeMeters>
            <DistanceMeters>5918.6543851971</DistanceMeters>
          </Trackpoint>
          <Trackpoint>
            <Time>2019-01-04T10:39:38.000Z</Time>
            <Position>
              <LatitudeDegrees>36.5105276741087436676025390625</LatitudeDegrees>
              <LongitudeDegrees>-5.40804860182106494903564453125</LongitudeDegrees>
            </Position>
            <AltitudeMeters>195</AltitudeMeters>
            <DistanceMeters>5919.8259532145</DistanceMeters>
          </Trackpoint>
          <Trackpoint>
            <Time>2019-01-04T10:39:39.000Z</Time>
            <Position>
              <LatitudeDegrees>36.5105176158249378204345703125</LatitudeDegrees>
              <LongitudeDegrees>-5.4080423153936862945556640625</LongitudeDegrees>
            </Position>
            <AltitudeMeters>195</AltitudeMeters>
            <DistanceMeters>5921.0794416673</DistanceMeters>
          </Trackpoint>
          <Trackpoint>
            <Time>2019-01-04T10:39:40.000Z</Time>
            <Position>
              <LatitudeDegrees>36.510510407388210296630859375</LatitudeDegrees>
              <LongitudeDegrees>-5.40803619660437107086181640625</LongitudeDegrees>
            </Position>
            <AltitudeMeters>195</AltitudeMeters>
            <DistanceMeters>5922.0485278091</DistanceMeters>
          </Trackpoint>
          <Trackpoint>
            <Time>2019-01-04T10:39:41.000Z</Time>
            <Position>
              <LatitudeDegrees>36.5105031989514827728271484375</LatitudeDegrees>
              <LongitudeDegrees>-5.4080285690724849700927734375</LongitudeDegrees>
            </Position>
            <AltitudeMeters>194.8000030517578125</AltitudeMeters>
            <DistanceMeters>5923.1067005166</DistanceMeters>
          </Trackpoint>
          <Trackpoint>
            <Time>2019-01-04T10:39:42.000Z</Time>
            <Position>
              <LatitudeDegrees>36.5104928053915500640869140625</LatitudeDegrees>
              <LongitudeDegrees>-5.40802001953125</LongitudeDegrees>
            </Position>
            <AltitudeMeters>194.8000030517578125</AltitudeMeters>
            <DistanceMeters>5924.4968215038</DistanceMeters>
          </Trackpoint>
          <Trackpoint>
            <Time>2019-01-04T10:39:43.000Z</Time>
            <Position>
              <LatitudeDegrees>36.5104847587645053863525390625</LatitudeDegrees>
              <LongitudeDegrees>-5.40801038034260272979736328125</LongitudeDegrees>
            </Position>
            <AltitudeMeters>194.600006103515625</AltitudeMeters>
            <DistanceMeters>5925.7394570384</DistanceMeters>
          </Trackpoint>
          <Trackpoint>
            <Time>2019-01-04T10:39:44.000Z</Time>
            <Position>
              <LatitudeDegrees>36.51047595776617527008056640625</LatitudeDegrees>
              <LongitudeDegrees>-5.40799881331622600555419921875</LongitudeDegrees>
            </Position>
            <AltitudeMeters>194.399993896484375</AltitudeMeters>
            <DistanceMeters>5927.1680217994</DistanceMeters>
          </Trackpoint>
          <Trackpoint>
            <Time>2019-01-04T10:39:45.000Z</Time>
            <Position>
              <LatitudeDegrees>36.51046757586300373077392578125</LatitudeDegrees>
              <LongitudeDegrees>-5.40798716247081756591796875</LongitudeDegrees>
            </Position>
            <AltitudeMeters>194.399993896484375</AltitudeMeters>
            <DistanceMeters>5928.5710744231</DistanceMeters>
          </Trackpoint>
          <Trackpoint>
            <Time>2019-01-04T10:39:46.000Z</Time>
            <Position>
              <LatitudeDegrees>36.5104619599878787994384765625</LatitudeDegrees>
              <LongitudeDegrees>-5.407974421977996826171875</LongitudeDegrees>
            </Position>
            <AltitudeMeters>194.399993896484375</AltitudeMeters>
            <DistanceMeters>5929.8740150862</DistanceMeters>
          </Trackpoint>
          <Trackpoint>
            <Time>2019-01-04T10:39:47.000Z</Time>
            <Position>
              <LatitudeDegrees>36.51045835576951503753662109375</LatitudeDegrees>
              <LongitudeDegrees>-5.4079608432948589324951171875</LongitudeDegrees>
            </Position>
            <AltitudeMeters>194.1999969482421875</AltitudeMeters>
            <DistanceMeters>5931.1524687757</DistanceMeters>
          </Trackpoint>
          <Trackpoint>
            <Time>2019-01-04T10:39:48.000Z</Time>
            <Position>
              <LatitudeDegrees>36.5104542486369609832763671875</LatitudeDegrees>
              <LongitudeDegrees>-5.4079462587833404541015625</LongitudeDegrees>
            </Position>
            <AltitudeMeters>194.1999969482421875</AltitudeMeters>
            <DistanceMeters>5932.5360786218</DistanceMeters>
          </Trackpoint>
          <Trackpoint>
            <Time>2019-01-04T10:39:49.000Z</Time>
            <Position>
              <LatitudeDegrees>36.5104495547711849212646484375</LatitudeDegrees>
              <LongitudeDegrees>-5.40793125517666339874267578125</LongitudeDegrees>
            </Position>
            <AltitudeMeters>194.1999969482421875</AltitudeMeters>
            <DistanceMeters>5933.9803596397</DistanceMeters>
          </Trackpoint>
          <Trackpoint>
            <Time>2019-01-04T10:39:50.000Z</Time>
            <Position>
              <LatitudeDegrees>36.51044444181025028228759765625</LatitudeDegrees>
              <LongitudeDegrees>-5.40791767649352550506591796875</LongitudeDegrees>
            </Position>
            <AltitudeMeters>194.1999969482421875</AltitudeMeters>
            <DistanceMeters>5935.3242403222</DistanceMeters>
          </Trackpoint>
          <Trackpoint>
            <Time>2019-01-04T10:39:51.000Z</Time>
            <Position>
              <LatitudeDegrees>36.51043832302093505859375</LatitudeDegrees>
              <LongitudeDegrees>-5.407905690371990203857421875</LongitudeDegrees>
            </Position>
            <AltitudeMeters>194.1999969482421875</AltitudeMeters>
            <DistanceMeters>5936.5920548224</DistanceMeters>
          </Trackpoint>
          <Trackpoint>
            <Time>2019-01-04T10:39:52.000Z</Time>
            <Position>
              <LatitudeDegrees>36.5104358084499835968017578125</LatitudeDegrees>
              <LongitudeDegrees>-5.40789437480270862579345703125</LongitudeDegrees>
            </Position>
            <AltitudeMeters>194.1999969482421875</AltitudeMeters>
            <DistanceMeters>5937.6459520672</DistanceMeters>
          </Trackpoint>
          <Trackpoint>
            <Time>2019-01-04T10:39:53.000Z</Time>
            <Position>
              <LatitudeDegrees>36.5104316174983978271484375</LatitudeDegrees>
              <LongitudeDegrees>-5.40788129903376102447509765625</LongitudeDegrees>
            </Position>
            <AltitudeMeters>194.1999969482421875</AltitudeMeters>
            <DistanceMeters>5938.9066238937</DistanceMeters>
          </Trackpoint>
          <Trackpoint>
            <Time>2019-01-04T10:39:54.000Z</Time>
            <Position>
              <LatitudeDegrees>36.51042558252811431884765625</LatitudeDegrees>
              <LongitudeDegrees>-5.40786419995129108428955078125</LongitudeDegrees>
            </Position>
            <AltitudeMeters>194.1999969482421875</AltitudeMeters>
            <DistanceMeters>5940.5743359626</DistanceMeters>
          </Trackpoint>
          <Trackpoint>
            <Time>2019-01-04T10:39:55.000Z</Time>
            <Position>
              <LatitudeDegrees>36.51041963137686252593994140625</LatitudeDegrees>
              <LongitudeDegrees>-5.4078485257923603057861328125</LongitudeDegrees>
            </Position>
            <AltitudeMeters>194.1999969482421875</AltitudeMeters>
            <DistanceMeters>5942.1241747717</DistanceMeters>
          </Trackpoint>
          <Trackpoint>
            <Time>2019-01-04T10:39:56.000Z</Time>
            <Position>
              <LatitudeDegrees>36.51041443459689617156982421875</LatitudeDegrees>
              <LongitudeDegrees>-5.4078314267098903656005859375</LongitudeDegrees>
            </Position>
            <AltitudeMeters>194</AltitudeMeters>
            <DistanceMeters>5943.7590761838</DistanceMeters>
          </Trackpoint>
          <Trackpoint>
            <Time>2019-01-04T10:39:57.000Z</Time>
            <Position>
              <LatitudeDegrees>36.51040705852210521697998046875</LatitudeDegrees>
              <LongitudeDegrees>-5.40780971758067607879638671875</LongitudeDegrees>
            </Position>
            <AltitudeMeters>194</AltitudeMeters>
            <DistanceMeters>5945.8668706734</DistanceMeters>
          </Trackpoint>
          <Trackpoint>
            <Time>2019-01-04T10:39:58.000Z</Time>
            <Position>
              <LatitudeDegrees>36.51040010154247283935546875</LatitudeDegrees>
              <LongitudeDegrees>-5.407786332070827484130859375</LongitudeDegrees>
            </Position>
            <AltitudeMeters>194</AltitudeMeters>
            <DistanceMeters>5948.0974697231</DistanceMeters>
          </Trackpoint>
          <Trackpoint>
            <Time>2019-01-04T10:39:59.000Z</Time>
            <Position>
              <LatitudeDegrees>36.510392725467681884765625</LatitudeDegrees>
              <LongitudeDegrees>-5.40776680223643779754638671875</LongitudeDegrees>
            </Position>
            <AltitudeMeters>194</AltitudeMeters>
            <DistanceMeters>5950.026301363</DistanceMeters>
          </Trackpoint>
          <Trackpoint>
            <Time>2019-01-04T10:40:00.000Z</Time>
            <Position>
              <LatitudeDegrees>36.510387025773525238037109375</LatitudeDegrees>
              <LongitudeDegrees>-5.407754480838775634765625</LongitudeDegrees>
            </Position>
            <AltitudeMeters>194</AltitudeMeters>
            <DistanceMeters>5951.2941158632</DistanceMeters>
          </Trackpoint>
          <Trackpoint>
            <Time>2019-01-04T10:40:01.000Z</Time>
            <Position>
              <LatitudeDegrees>36.510383673012256622314453125</LatitudeDegrees>
              <LongitudeDegrees>-5.40774199180305004119873046875</LongitudeDegrees>
            </Position>
            <AltitudeMeters>194</AltitudeMeters>
            <DistanceMeters>5952.469531405</DistanceMeters>
          </Trackpoint>
          <Trackpoint>
            <Time>2019-01-04T10:40:02.000Z</Time>
            <Position>
              <LatitudeDegrees>36.510383002460002899169921875</LatitudeDegrees>
              <LongitudeDegrees>-5.40773025713860988616943359375</LongitudeDegrees>
            </Position>
            <AltitudeMeters>194.1999969482421875</AltitudeMeters>
            <DistanceMeters>5953.5234286498</DistanceMeters>
          </Trackpoint>
          <Trackpoint>
            <Time>2019-01-04T10:40:03.000Z</Time>
            <Position>
              <LatitudeDegrees>36.51037906296551227569580078125</LatitudeDegrees>
              <LongitudeDegrees>-5.40772254578769207000732421875</LongitudeDegrees>
            </Position>
            <AltitudeMeters>194.1999969482421875</AltitudeMeters>
            <DistanceMeters>5954.3408793559</DistanceMeters>
          </Trackpoint>
          <Trackpoint>
            <Time>2019-01-04T10:40:04.000Z</Time>
            <Position>
              <LatitudeDegrees>36.5103757940232753753662109375</LatitudeDegrees>
              <LongitudeDegrees>-5.407715253531932830810546875</LongitudeDegrees>
            </Position>
            <AltitudeMeters>194.1999969482421875</AltitudeMeters>
            <DistanceMeters>5955.0891204531</DistanceMeters>
          </Trackpoint>
          <Trackpoint>
            <Time>2019-01-04T10:40:05.000Z</Time>
            <Position>
              <LatitudeDegrees>36.510374955832958221435546875</LatitudeDegrees>
              <LongitudeDegrees>-5.40770678780972957611083984375</LongitudeDegrees>
            </Position>
            <AltitudeMeters>194.399993896484375</AltitudeMeters>
            <DistanceMeters>5955.8493341681</DistanceMeters>
          </Trackpoint>
          <Trackpoint>
            <Time>2019-01-04T10:40:06.000Z</Time>
            <Position>
              <LatitudeDegrees>36.51037319563329219818115234375</LatitudeDegrees>
              <LongitudeDegrees>-5.40769337676465511322021484375</LongitudeDegrees>
            </Position>
            <AltitudeMeters>194.399993896484375</AltitudeMeters>
            <DistanceMeters>5957.066269884</DistanceMeters>
          </Trackpoint>
          <Trackpoint>
            <Time>2019-01-04T10:40:07.000Z</Time>
            <Position>
              <LatitudeDegrees>36.51037135161459445953369140625</LatitudeDegrees>
              <LongitudeDegrees>-5.4076761938631534576416015625</LongitudeDegrees>
            </Position>
            <AltitudeMeters>194.600006103515625</AltitudeMeters>
            <DistanceMeters>5958.6219242438</DistanceMeters>
          </Trackpoint>
          <Trackpoint>
            <Time>2019-01-04T10:40:08.000Z</Time>
            <Position>
              <LatitudeDegrees>36.510368250310420989990234375</LatitudeDegrees>
              <LongitudeDegrees>-5.40765968151390552520751953125</LongitudeDegrees>
            </Position>
            <AltitudeMeters>194.600006103515625</AltitudeMeters>
            <DistanceMeters>5960.1423516737</DistanceMeters>
          </Trackpoint>
          <Trackpoint>
            <Time>2019-01-04T10:40:09.000Z</Time>
            <Position>
              <LatitudeDegrees>36.51036481373012065887451171875</LatitudeDegrees>
              <LongitudeDegrees>-5.4076513834297657012939453125</LongitudeDegrees>
            </Position>
            <AltitudeMeters>194.8000030517578125</AltitudeMeters>
            <DistanceMeters>5960.9816048909</DistanceMeters>
          </Trackpoint>
          <Trackpoint>
            <Time>2019-01-04T10:40:10.000Z</Time>
            <Position>
              <LatitudeDegrees>36.51036079041659832000732421875</LatitudeDegrees>
              <LongitudeDegrees>-5.4076396487653255462646484375</LongitudeDegrees>
            </Position>
            <AltitudeMeters>194.8000030517578125</AltitudeMeters>
            <DistanceMeters>5962.1219254634</DistanceMeters>
          </Trackpoint>
          <Trackpoint>
            <Time>2019-01-04T10:40:11.000Z</Time>
            <Position>
              <LatitudeDegrees>36.51035852730274200439453125</LatitudeDegrees>
              <LongitudeDegrees>-5.4076297581195831298828125</LongitudeDegrees>
            </Position>
            <AltitudeMeters>195</AltitudeMeters>
            <DistanceMeters>5963.0432436417</DistanceMeters>
          </Trackpoint>
          <Trackpoint>
            <Time>2019-01-04T10:40:12.000Z</Time>
            <Position>
              <LatitudeDegrees>36.510358862578868865966796875</LatitudeDegrees>
              <LongitudeDegrees>-5.40761894546449184417724609375</LongitudeDegrees>
            </Position>
            <AltitudeMeters>195</AltitudeMeters>
            <DistanceMeters>5964.0029664128</DistanceMeters>
          </Trackpoint>
          <Trackpoint>
            <Time>2019-01-04T10:40:13.000Z</Time>
            <Position>
              <LatitudeDegrees>36.51035928167402744293212890625</LatitudeDegrees>
              <LongitudeDegrees>-5.40760519914329051971435546875</LongitudeDegrees>
            </Position>
            <AltitudeMeters>195.1999969482421875</AltitudeMeters>
            <DistanceMeters>5965.2272999824</DistanceMeters>
          </Trackpoint>
          <Trackpoint>
            <Time>2019-01-04T10:40:14.000Z</Time>
            <Position>
              <LatitudeDegrees>36.51035852730274200439453125</LatitudeDegrees>
              <LongitudeDegrees>-5.4075930453836917877197265625</LongitudeDegrees>
            </Position>
            <AltitudeMeters>195.1999969482421875</AltitudeMeters>
            <DistanceMeters>5966.3107712269</DistanceMeters>
          </Trackpoint>
          <Trackpoint>
            <Time>2019-01-04T10:40:15.000Z</Time>
            <Position>
              <LatitudeDegrees>36.510354168713092803955078125</LatitudeDegrees>
              <LongitudeDegrees>-5.40758323855698108673095703125</LongitudeDegrees>
            </Position>
            <AltitudeMeters>195.1999969482421875</AltitudeMeters>
            <DistanceMeters>5967.3119397868</DistanceMeters>
          </Trackpoint>
          <Trackpoint>
            <Time>2019-01-04T10:40:16.000Z</Time>
            <Position>
              <LatitudeDegrees>36.5103496424853801727294921875</LatitudeDegrees>
              <LongitudeDegrees>-5.40757418610155582427978515625</LongitudeDegrees>
            </Position>
            <AltitudeMeters>195.1999969482421875</AltitudeMeters>
            <DistanceMeters>5968.2622069305</DistanceMeters>
          </Trackpoint>
          <Trackpoint>
            <Time>2019-01-04T10:40:17.000Z</Time>
            <Position>
              <LatitudeDegrees>36.5103446133434772491455078125</LatitudeDegrees>
              <LongitudeDegrees>-5.4075628705322742462158203125</LongitudeDegrees>
            </Position>
            <AltitudeMeters>195.1999969482421875</AltitudeMeters>
            <DistanceMeters>5969.4221558044</DistanceMeters>
          </Trackpoint>
          <Trackpoint>
            <Time>2019-01-04T10:40:18.000Z</Time>
            <Position>
              <LatitudeDegrees>36.51034033857285976409912109375</LatitudeDegrees>
              <LongitudeDegrees>-5.4075504653155803680419921875</LongitudeDegrees>
            </Position>
            <AltitudeMeters>195.399993896484375</AltitudeMeters>
            <DistanceMeters>5970.6279096381</DistanceMeters>
          </Trackpoint>
          <Trackpoint>
            <Time>2019-01-04T10:40:19.000Z</Time>
            <Position>
              <LatitudeDegrees>36.510337404906749725341796875</LatitudeDegrees>
              <LongitudeDegrees>-5.40753780864179134368896484375</LongitudeDegrees>
            </Position>
            <AltitudeMeters>195.399993896484375</AltitudeMeters>
            <DistanceMeters>5971.8071601511</DistanceMeters>
          </Trackpoint>
          <Trackpoint>
            <Time>2019-01-04T10:40:20.000Z</Time>
            <Position>
              <LatitudeDegrees>36.51033564470708370208740234375</LatitudeDegrees>
              <LongitudeDegrees>-5.4075263254344463348388671875</LongitudeDegrees>
            </Position>
            <AltitudeMeters>195.600006103515625</AltitudeMeters>
            <DistanceMeters>5972.8567645176</DistanceMeters>
          </Trackpoint>
          <Trackpoint>
            <Time>2019-01-04T10:40:21.000Z</Time>
            <Position>
              <LatitudeDegrees>36.5103335492312908172607421875</LatitudeDegrees>
              <LongitudeDegrees>-5.4075129143893718719482421875</LongitudeDegrees>
            </Position>
            <AltitudeMeters>195.8000030517578125</AltitudeMeters>
            <DistanceMeters>5974.0810980872</DistanceMeters>
          </Trackpoint>
          <Trackpoint>
            <Time>2019-01-04T10:40:22.000Z</Time>
            <Position>
              <LatitudeDegrees>36.51033346541225910186767578125</LatitudeDegrees>
              <LongitudeDegrees>-5.40750243701040744781494140625</LongitudeDegrees>
            </Position>
            <AltitudeMeters>196</AltitudeMeters>
            <DistanceMeters>5975.0170026844</DistanceMeters>
          </Trackpoint>
          <Trackpoint>
            <Time>2019-01-04T10:40:23.000Z</Time>
            <Position>
              <LatitudeDegrees>36.51033430360257625579833984375</LatitudeDegrees>
              <LongitudeDegrees>-5.40748600848019123077392578125</LongitudeDegrees>
            </Position>
            <AltitudeMeters>196.1999969482421875</AltitudeMeters>
            <DistanceMeters>5976.4860800377</DistanceMeters>
          </Trackpoint>
          <Trackpoint>
            <Time>2019-01-04T10:40:24.000Z</Time>
            <Position>
              <LatitudeDegrees>36.5103379078209400177001953125</LatitudeDegrees>
              <LongitudeDegrees>-5.40746957994997501373291015625</LongitudeDegrees>
            </Position>
            <AltitudeMeters>196.1999969482421875</AltitudeMeters>
            <DistanceMeters>5978.0065074677</DistanceMeters>
          </Trackpoint>
          <Trackpoint>
            <Time>2019-01-04T10:40:25.000Z</Time>
            <Position>
              <LatitudeDegrees>36.51034285314381122589111328125</LatitudeDegrees>
              <LongitudeDegrees>-5.40746220387518405914306640625</LongitudeDegrees>
            </Position>
            <AltitudeMeters>196.1999969482421875</AltitudeMeters>
            <DistanceMeters>5978.8564522397</DistanceMeters>
          </Trackpoint>
          <Trackpoint>
            <Time>2019-01-04T10:40:26.000Z</Time>
            <Position>
              <LatitudeDegrees>36.5103471279144287109375</LatitudeDegrees>
              <LongitudeDegrees>-5.4074505530297756195068359375</LongitudeDegrees>
            </Position>
            <AltitudeMeters>196.1999969482421875</AltitudeMeters>
            <DistanceMeters>5979.9967728121</DistanceMeters>
          </Trackpoint>
          <Trackpoint>
            <Time>2019-01-04T10:40:27.000Z</Time>
            <Position>
              <LatitudeDegrees>36.5103484690189361572265625</LatitudeDegrees>
              <LongitudeDegrees>-5.40743387304246425628662109375</LongitudeDegrees>
            </Position>
            <AltitudeMeters>196.1999969482421875</AltitudeMeters>
            <DistanceMeters>5981.499277092</DistanceMeters>
          </Trackpoint>
          <Trackpoint>
            <Time>2019-01-04T10:40:28.000Z</Time>
            <Position>
              <LatitudeDegrees>36.5103489719331264495849609375</LatitudeDegrees>
              <LongitudeDegrees>-5.40741719305515289306640625</LongitudeDegrees>
            </Position>
            <AltitudeMeters>196.1999969482421875</AltitudeMeters>
            <DistanceMeters>5982.9957592864</DistanceMeters>
          </Trackpoint>
          <Trackpoint>
            <Time>2019-01-04T10:40:29.000Z</Time>
            <Position>
              <LatitudeDegrees>36.5103513188660144805908203125</LatitudeDegrees>
              <LongitudeDegrees>-5.4073999263346195220947265625</LongitudeDegrees>
            </Position>
            <AltitudeMeters>196.1999969482421875</AltitudeMeters>
            <DistanceMeters>5984.5600964356</DistanceMeters>
          </Trackpoint>
          <Trackpoint>
            <Time>2019-01-04T10:40:30.000Z</Time>
            <Position>
              <LatitudeDegrees>36.51034872047603130340576171875</LatitudeDegrees>
              <LongitudeDegrees>-5.40738232433795928955078125</LongitudeDegrees>
            </Position>
            <AltitudeMeters>196.1999969482421875</AltitudeMeters>
            <DistanceMeters>5986.161515091</DistanceMeters>
          </Trackpoint>
          <Trackpoint>
            <Time>2019-01-04T10:40:31.000Z</Time>
            <Position>
              <LatitudeDegrees>36.5103442780673503875732421875</LatitudeDegrees>
              <LongitudeDegrees>-5.40736212395131587982177734375</LongitudeDegrees>
            </Position>
            <AltitudeMeters>196.1999969482421875</AltitudeMeters>
            <DistanceMeters>5988.0333242854</DistanceMeters>
          </Trackpoint>
          <Trackpoint>
            <Time>2019-01-04T10:40:32.000Z</Time>
            <Position>
              <LatitudeDegrees>36.51033715344965457916259765625</LatitudeDegrees>
              <LongitudeDegrees>-5.4073412530124187469482421875</LongitudeDegrees>
            </Position>
            <AltitudeMeters>196.399993896484375</AltitudeMeters>
            <DistanceMeters>5990.0603133782</DistanceMeters>
          </Trackpoint>
          <Trackpoint>
            <Time>2019-01-04T10:40:33.000Z</Time>
            <Position>
              <LatitudeDegrees>36.5103312022984027862548828125</LatitudeDegrees>
              <LongitudeDegrees>-5.4073241539299488067626953125</LongitudeDegrees>
            </Position>
            <AltitudeMeters>196.600006103515625</AltitudeMeters>
            <DistanceMeters>5991.7280254471</DistanceMeters>
          </Trackpoint>
          <Trackpoint>
            <Time>2019-01-04T10:40:34.000Z</Time>
            <Position>
              <LatitudeDegrees>36.510326676070690155029296875</LatitudeDegrees>
              <LongitudeDegrees>-5.40730713866651058197021484375</LongitudeDegrees>
            </Position>
            <AltitudeMeters>196.8000030517578125</AltitudeMeters>
            <DistanceMeters>5993.3294441025</DistanceMeters>
          </Trackpoint>
          <Trackpoint>
            <Time>2019-01-04T10:40:35.000Z</Time>
            <Position>
              <LatitudeDegrees>36.51032391004264354705810546875</LatitudeDegrees>
              <LongitudeDegrees>-5.407290123403072357177734375</LongitudeDegrees>
            </Position>
            <AltitudeMeters>196.8000030517578125</AltitudeMeters>
            <DistanceMeters>5994.8792829116</DistanceMeters>
          </Trackpoint>
          <Trackpoint>
            <Time>2019-01-04T10:40:36.000Z</Time>
            <Position>
              <LatitudeDegrees>36.5103194676339626312255859375</LatitudeDegrees>
              <LongitudeDegrees>-5.40727646090090274810791015625</LongitudeDegrees>
            </Position>
            <AltitudeMeters>196.8000030517578125</AltitudeMeters>
            <DistanceMeters>5996.1960116905</DistanceMeters>
          </Trackpoint>
          <Trackpoint>
            <Time>2019-01-04T10:40:37.000Z</Time>
            <Position>
              <LatitudeDegrees>36.51031494140625</LatitudeDegrees>
              <LongitudeDegrees>-5.4072631336748600006103515625</LongitudeDegrees>
            </Position>
            <AltitudeMeters>196.8000030517578125</AltitudeMeters>
            <DistanceMeters>5997.4920032872</DistanceMeters>
          </Trackpoint>
          <Trackpoint>
            <Time>2019-01-04T10:40:38.000Z</Time>
            <Position>
              <LatitudeDegrees>36.51031100191175937652587890625</LatitudeDegrees>
              <LongitudeDegrees>-5.40725014172494411468505859375</LongitudeDegrees>
            </Position>
            <AltitudeMeters>196.600006103515625</AltitudeMeters>
            <DistanceMeters>5998.7310000569</DistanceMeters>
          </Trackpoint>
          <Trackpoint>
            <Time>2019-01-04T10:40:39.000Z</Time>
            <Position>
              <LatitudeDegrees>36.51030681096017360687255859375</LatitudeDegrees>
              <LongitudeDegrees>-5.40723522193729877471923828125</LongitudeDegrees>
            </Position>
            <AltitudeMeters>196.399993896484375</AltitudeMeters>
            <DistanceMeters>6000.1404740076</DistanceMeters>
          </Trackpoint>
          <Trackpoint>
            <Time>2019-01-04T10:40:40.000Z</Time>
            <Position>
              <LatitudeDegrees>36.51030496694147586822509765625</LatitudeDegrees>
              <LongitudeDegrees>-5.4072242416441440582275390625</LongitudeDegrees>
            </Position>
            <AltitudeMeters>196.399993896484375</AltitudeMeters>
            <DistanceMeters>6001.1461422241</DistanceMeters>
          </Trackpoint>
          <Trackpoint>
            <Time>2019-01-04T10:40:41.000Z</Time>
            <Position>
              <LatitudeDegrees>36.5103053860366344451904296875</LatitudeDegrees>
              <LongitudeDegrees>-5.40720940567553043365478515625</LongitudeDegrees>
            </Position>
            <AltitudeMeters>196.399993896484375</AltitudeMeters>
            <DistanceMeters>6002.4731180742</DistanceMeters>
          </Trackpoint>
          <Trackpoint>
            <Time>2019-01-04T10:40:42.000Z</Time>
            <Position>
              <LatitudeDegrees>36.5103070624172687530517578125</LatitudeDegrees>
              <LongitudeDegrees>-5.40719456970691680908203125</LongitudeDegrees>
            </Position>
            <AltitudeMeters>196.399993896484375</AltitudeMeters>
            <DistanceMeters>6003.8102624702</DistanceMeters>
          </Trackpoint>
          <Trackpoint>
            <Time>2019-01-04T10:40:43.000Z</Time>
            <Position>
              <LatitudeDegrees>36.5103080682456493377685546875</LatitudeDegrees>
              <LongitudeDegrees>-5.4071779735386371612548828125</LongitudeDegrees>
            </Position>
            <AltitudeMeters>196.399993896484375</AltitudeMeters>
            <DistanceMeters>6005.3006982472</DistanceMeters>
          </Trackpoint>
          <Trackpoint>
            <Time>2019-01-04T10:40:44.000Z</Time>
            <Position>
              <LatitudeDegrees>36.51030614040791988372802734375</LatitudeDegrees>
              <LongitudeDegrees>-5.4071628861129283905029296875</LongitudeDegrees>
            </Position>
            <AltitudeMeters>196.399993896484375</AltitudeMeters>
            <DistanceMeters>6006.671193012</DistanceMeters>
          </Trackpoint>
          <Trackpoint>
            <Time>2019-01-04T10:40:45.000Z</Time>
            <Position>
              <LatitudeDegrees>36.51030513457953929901123046875</LatitudeDegrees>
              <LongitudeDegrees>-5.407149307429790496826171875</LongitudeDegrees>
            </Position>
            <AltitudeMeters>196.399993896484375</AltitudeMeters>
            <DistanceMeters>6007.8881287279</DistanceMeters>
          </Trackpoint>
          <Trackpoint>
            <Time>2019-01-04T10:40:46.000Z</Time>
            <Position>
              <LatitudeDegrees>36.51030362583696842193603515625</LatitudeDegrees>
              <LongitudeDegrees>-5.40713765658438205718994140625</LongitudeDegrees>
            </Position>
            <AltitudeMeters>196.600006103515625</AltitudeMeters>
            <DistanceMeters>6008.9463014355</DistanceMeters>
          </Trackpoint>
          <Trackpoint>
            <Time>2019-01-04T10:40:47.000Z</Time>
            <Position>
              <LatitudeDegrees>36.51030362583696842193603515625</LatitudeDegrees>
              <LongitudeDegrees>-5.4071249999105930328369140625</LongitudeDegrees>
            </Position>
            <AltitudeMeters>196.8000030517578125</AltitudeMeters>
            <DistanceMeters>6010.0786754263</DistanceMeters>
          </Trackpoint>
          <Trackpoint>
            <Time>2019-01-04T10:40:48.000Z</Time>
            <Position>
              <LatitudeDegrees>36.5103028714656829833984375</LatitudeDegrees>
              <LongitudeDegrees>-5.40710865519940853118896484375</LongitudeDegrees>
            </Position>
            <AltitudeMeters>196.8000030517578125</AltitudeMeters>
            <DistanceMeters>6011.5446761745</DistanceMeters>
          </Trackpoint>
          <Trackpoint>
            <Time>2019-01-04T10:40:49.000Z</Time>
            <Position>
              <LatitudeDegrees>36.51030211709439754486083984375</LatitudeDegrees>
              <LongitudeDegrees>-5.40709658525884151458740234375</LongitudeDegrees>
            </Position>
            <AltitudeMeters>197</AltitudeMeters>
            <DistanceMeters>6012.628147419</DistanceMeters>
          </Trackpoint>
          <Trackpoint>
            <Time>2019-01-04T10:40:50.000Z</Time>
            <Position>
              <LatitudeDegrees>36.51029708795249462127685546875</LatitudeDegrees>
              <LongitudeDegrees>-5.4070861078798770904541015625</LongitudeDegrees>
            </Position>
            <AltitudeMeters>197.1999969482421875</AltitudeMeters>
            <DistanceMeters>6013.7199212466</DistanceMeters>
          </Trackpoint>
          <Trackpoint>
            <Time>2019-01-04T10:40:51.000Z</Time>
            <Position>
              <LatitudeDegrees>36.5102919749915599822998046875</LatitudeDegrees>
              <LongitudeDegrees>-5.40707387030124664306640625</LongitudeDegrees>
            </Position>
            <AltitudeMeters>197.399993896484375</AltitudeMeters>
            <DistanceMeters>6014.9516082371</DistanceMeters>
          </Trackpoint>
          <Trackpoint>
            <Time>2019-01-04T10:40:52.000Z</Time>
            <Position>
              <LatitudeDegrees>36.5102906338870525360107421875</LatitudeDegrees>
              <LongitudeDegrees>-5.407061465084552764892578125</LongitudeDegrees>
            </Position>
            <AltitudeMeters>197.600006103515625</AltitudeMeters>
            <DistanceMeters>6016.0679193717</DistanceMeters>
          </Trackpoint>
          <Trackpoint>
            <Time>2019-01-04T10:40:53.000Z</Time>
            <Position>
              <LatitudeDegrees>36.510289125144481658935546875</LatitudeDegrees>
              <LongitudeDegrees>-5.407046042382717132568359375</LongitudeDegrees>
            </Position>
            <AltitudeMeters>197.600006103515625</AltitudeMeters>
            <DistanceMeters>6017.4547886094</DistanceMeters>
          </Trackpoint>
          <Trackpoint>
            <Time>2019-01-04T10:40:54.000Z</Time>
            <Position>
              <LatitudeDegrees>36.5102845989167690277099609375</LatitudeDegrees>
              <LongitudeDegrees>-5.407028608024120330810546875</LongitudeDegrees>
            </Position>
            <AltitudeMeters>197.8000030517578125</AltitudeMeters>
            <DistanceMeters>6019.0924493508</DistanceMeters>
          </Trackpoint>
          <Trackpoint>
            <Time>2019-01-04T10:40:55.000Z</Time>
            <Position>
              <LatitudeDegrees>36.51028166525065898895263671875</LatitudeDegrees>
              <LongitudeDegrees>-5.40701477788388729095458984375</LongitudeDegrees>
            </Position>
            <AltitudeMeters>197.8000030517578125</AltitudeMeters>
            <DistanceMeters>6020.3709030404</DistanceMeters>
          </Trackpoint>
          <Trackpoint>
            <Time>2019-01-04T10:40:56.000Z</Time>
            <Position>
              <LatitudeDegrees>36.5102822519838809967041015625</LatitudeDegrees>
              <LongitudeDegrees>-5.407003127038478851318359375</LongitudeDegrees>
            </Position>
            <AltitudeMeters>197.8000030517578125</AltitudeMeters>
            <DistanceMeters>6021.4161968985</DistanceMeters>
          </Trackpoint>
          <Trackpoint>
            <Time>2019-01-04T10:40:57.000Z</Time>
            <Position>
              <LatitudeDegrees>36.5102815814316272735595703125</LatitudeDegrees>
              <LongitudeDegrees>-5.406993068754673004150390625</LongitudeDegrees>
            </Position>
            <AltitudeMeters>198</AltitudeMeters>
            <DistanceMeters>6022.3176994664</DistanceMeters>
          </Trackpoint>
          <Trackpoint>
            <Time>2019-01-04T10:40:58.000Z</Time>
            <Position>
              <LatitudeDegrees>36.510275714099407196044921875</LatitudeDegrees>
              <LongitudeDegrees>-5.4069784842431545257568359375</LongitudeDegrees>
            </Position>
            <AltitudeMeters>198.1999969482421875</AltitudeMeters>
            <DistanceMeters>6023.7775275524</DistanceMeters>
          </Trackpoint>
          <Trackpoint>
            <Time>2019-01-04T10:40:59.000Z</Time>
            <Position>
              <LatitudeDegrees>36.51027244515717029571533203125</LatitudeDegrees>
              <LongitudeDegrees>-5.40696565993130207061767578125</LongitudeDegrees>
            </Position>
            <AltitudeMeters>198.399993896484375</AltitudeMeters>
            <DistanceMeters>6024.9795309763</DistanceMeters>
          </Trackpoint>
          <Trackpoint>
            <Time>2019-01-04T10:41:00.000Z</Time>
            <Position>
              <LatitudeDegrees>36.51026540435850620269775390625</LatitudeDegrees>
              <LongitudeDegrees>-5.40695250034332275390625</LongitudeDegrees>
            </Position>
            <AltitudeMeters>198.399993896484375</AltitudeMeters>
            <DistanceMeters>6026.3953971319</DistanceMeters>
          </Trackpoint>
          <Trackpoint>
            <Time>2019-01-04T10:41:01.000Z</Time>
            <Position>
              <LatitudeDegrees>36.51026758365333080291748046875</LatitudeDegrees>
              <LongitudeDegrees>-5.40693900547921657562255859375</LongitudeDegrees>
            </Position>
            <AltitudeMeters>198.399993896484375</AltitudeMeters>
            <DistanceMeters>6027.6270841224</DistanceMeters>
          </Trackpoint>
          <Trackpoint>
            <Time>2019-01-04T10:41:02.000Z</Time>
            <Position>
              <LatitudeDegrees>36.5102668292820453643798828125</LatitudeDegrees>
              <LongitudeDegrees>-5.40692257694900035858154296875</LongitudeDegrees>
            </Position>
            <AltitudeMeters>198.600006103515625</AltitudeMeters>
            <DistanceMeters>6029.0992316512</DistanceMeters>
          </Trackpoint>
          <Trackpoint>
            <Time>2019-01-04T10:41:03.000Z</Time>
            <Position>
              <LatitudeDegrees>36.5102626383304595947265625</LatitudeDegrees>
              <LongitudeDegrees>-5.4069055616855621337890625</LongitudeDegrees>
            </Position>
            <AltitudeMeters>198.8000030517578125</AltitudeMeters>
            <DistanceMeters>6030.6893327185</DistanceMeters>
          </Trackpoint>
          <Trackpoint>
            <Time>2019-01-04T10:41:04.000Z</Time>
            <Position>
              <LatitudeDegrees>36.5102571062743663787841796875</LatitudeDegrees>
              <LongitudeDegrees>-5.40689055807888507843017578125</LongitudeDegrees>
            </Position>
            <AltitudeMeters>198.8000030517578125</AltitudeMeters>
            <DistanceMeters>6032.1676014693</DistanceMeters>
          </Trackpoint>
          <Trackpoint>
            <Time>2019-01-04T10:41:05.000Z</Time>
            <Position>
              <LatitudeDegrees>36.5102651529014110565185546875</LatitudeDegrees>
              <LongitudeDegrees>-5.40687412954866886138916015625</LongitudeDegrees>
            </Position>
            <AltitudeMeters>198.8000030517578125</AltitudeMeters>
            <DistanceMeters>6033.8886084633</DistanceMeters>
          </Trackpoint>
          <Trackpoint>
            <Time>2019-01-04T10:41:06.000Z</Time>
            <Position>
              <LatitudeDegrees>36.51026154868304729461669921875</LatitudeDegrees>
              <LongitudeDegrees>-5.40686457417905330657958984375</LongitudeDegrees>
            </Position>
            <AltitudeMeters>199</AltitudeMeters>
            <DistanceMeters>6034.8293249411</DistanceMeters>
          </Trackpoint>
          <Trackpoint>
            <Time>2019-01-04T10:41:07.000Z</Time>
            <Position>
              <LatitudeDegrees>36.51025869883596897125244140625</LatitudeDegrees>
              <LongitudeDegrees>-5.4068540968000888824462890625</LongitudeDegrees>
            </Position>
            <AltitudeMeters>199</AltitudeMeters>
            <DistanceMeters>6035.8259735295</DistanceMeters>
          </Trackpoint>
          <Trackpoint>
            <Time>2019-01-04T10:41:08.000Z</Time>
            <Position>
              <LatitudeDegrees>36.51026087813079357147216796875</LatitudeDegrees>
              <LongitudeDegrees>-5.406843535602092742919921875</LongitudeDegrees>
            </Position>
            <AltitudeMeters>198.8000030517578125</AltitudeMeters>
            <DistanceMeters>6036.8043334342</DistanceMeters>
          </Trackpoint>
          <Trackpoint>
            <Time>2019-01-04T10:41:09.000Z</Time>
            <Position>
              <LatitudeDegrees>36.51026104576885700225830078125</LatitudeDegrees>
              <LongitudeDegrees>-5.4068304598331451416015625</LongitudeDegrees>
            </Position>
            <AltitudeMeters>198.600006103515625</AltitudeMeters>
            <DistanceMeters>6037.9759014516</DistanceMeters>
          </Trackpoint>
          <Trackpoint>
            <Time>2019-01-04T10:41:10.000Z</Time>
            <Position>
              <LatitudeDegrees>36.510261632502079010009765625</LatitudeDegrees>
              <LongitudeDegrees>-5.40681294165551662445068359375</LongitudeDegrees>
            </Position>
            <AltitudeMeters>198.600006103515625</AltitudeMeters>
            <DistanceMeters>6039.543122174</DistanceMeters>
          </Trackpoint>
          <Trackpoint>
            <Time>2019-01-04T10:41:11.000Z</Time>
            <Position>
              <LatitudeDegrees>36.510266996920108795166015625</LatitudeDegrees>
              <LongitudeDegrees>-5.406795255839824676513671875</LongitudeDegrees>
            </Position>
            <AltitudeMeters>198.399993896484375</AltitudeMeters>
            <DistanceMeters>6041.2323539984</DistanceMeters>
          </Trackpoint>
          <Trackpoint>
            <Time>2019-01-04T10:41:12.000Z</Time>
            <Position>
              <LatitudeDegrees>36.5102701820433139801025390625</LatitudeDegrees>
              <LongitudeDegrees>-5.4067810066044330596923828125</LongitudeDegrees>
            </Position>
            <AltitudeMeters>198.399993896484375</AltitudeMeters>
            <DistanceMeters>6042.5559229728</DistanceMeters>
          </Trackpoint>
          <Trackpoint>
            <Time>2019-01-04T10:41:13.000Z</Time>
            <Position>
              <LatitudeDegrees>36.51027210988104343414306640625</LatitudeDegrees>
              <LongitudeDegrees>-5.4067629016935825347900390625</LongitudeDegrees>
            </Position>
            <AltitudeMeters>198.399993896484375</AltitudeMeters>
            <DistanceMeters>6044.1908243849</DistanceMeters>
          </Trackpoint>
          <Trackpoint>
            <Time>2019-01-04T10:41:14.000Z</Time>
            <Position>
              <LatitudeDegrees>36.51027210988104343414306640625</LatitudeDegrees>
              <LongitudeDegrees>-5.40674320422112941741943359375</LongitudeDegrees>
            </Position>
            <AltitudeMeters>198.399993896484375</AltitudeMeters>
            <DistanceMeters>6045.9533073768</DistanceMeters>
          </Trackpoint>
          <Trackpoint>
            <Time>2019-01-04T10:41:15.000Z</Time>
            <Position>
              <LatitudeDegrees>36.51027311570942401885986328125</LatitudeDegrees>
              <LongitudeDegrees>-5.4067250154912471771240234375</LongitudeDegrees>
            </Position>
            <AltitudeMeters>198.1999969482421875</AltitudeMeters>
            <DistanceMeters>6047.5826761118</DistanceMeters>
          </Trackpoint>
          <Trackpoint>
            <Time>2019-01-04T10:41:16.000Z</Time>
            <Position>
              <LatitudeDegrees>36.510272361338138580322265625</LatitudeDegrees>
              <LongitudeDegrees>-5.40670883841812610626220703125</LongitudeDegrees>
            </Position>
            <AltitudeMeters>198.1999969482421875</AltitudeMeters>
            <DistanceMeters>6049.0331959536</DistanceMeters>
          </Trackpoint>
          <Trackpoint>
            <Time>2019-01-04T10:41:17.000Z</Time>
            <Position>
              <LatitudeDegrees>36.510269343852996826171875</LatitudeDegrees>
              <LongitudeDegrees>-5.40669257752597332000732421875</LongitudeDegrees>
            </Position>
            <AltitudeMeters>198</AltitudeMeters>
            <DistanceMeters>6050.529678148</DistanceMeters>
          </Trackpoint>
          <Trackpoint>
            <Time>2019-01-04T10:41:18.000Z</Time>
            <Position>
              <LatitudeDegrees>36.51026330888271331787109375</LatitudeDegrees>
              <LongitudeDegrees>-5.4066753946244716644287109375</LongitudeDegrees>
            </Position>
            <AltitudeMeters>197.8000030517578125</AltitudeMeters>
            <DistanceMeters>6052.2081845824</DistanceMeters>
          </Trackpoint>
          <Trackpoint>
            <Time>2019-01-04T10:41:19.000Z</Time>
            <Position>
              <LatitudeDegrees>36.51025819592177867889404296875</LatitudeDegrees>
              <LongitudeDegrees>-5.4066534340381622314453125</LongitudeDegrees>
            </Position>
            <AltitudeMeters>197.600006103515625</AltitudeMeters>
            <DistanceMeters>6054.2551226543</DistanceMeters>
          </Trackpoint>
          <Trackpoint>
            <Time>2019-01-04T10:41:20.000Z</Time>
            <Position>
              <LatitudeDegrees>36.5102545917034149169921875</LatitudeDegrees>
              <LongitudeDegrees>-5.40663423947989940643310546875</LongitudeDegrees>
            </Position>
            <AltitudeMeters>197.1999969482421875</AltitudeMeters>
            <DistanceMeters>6056.0176056462</DistanceMeters>
          </Trackpoint>
          <Trackpoint>
            <Time>2019-01-04T10:41:21.000Z</Time>
            <Position>
              <LatitudeDegrees>36.5102520771324634552001953125</LatitudeDegrees>
              <LongitudeDegrees>-5.4066210798919200897216796875</LongitudeDegrees>
            </Position>
            <AltitudeMeters>197</AltitudeMeters>
            <DistanceMeters>6057.2270982604</DistanceMeters>
          </Trackpoint>
          <Trackpoint>
            <Time>2019-01-04T10:41:22.000Z</Time>
            <Position>
              <LatitudeDegrees>36.5102550946176052093505859375</LatitudeDegrees>
              <LongitudeDegrees>-5.40661009959876537322998046875</LongitudeDegrees>
            </Position>
            <AltitudeMeters>196.8000030517578125</AltitudeMeters>
            <DistanceMeters>6058.268063761</DistanceMeters>
          </Trackpoint>
          <Trackpoint>
            <Time>2019-01-04T10:41:23.000Z</Time>
            <Position>
              <LatitudeDegrees>36.51025836355984210968017578125</LatitudeDegrees>
              <LongitudeDegrees>-5.40660004131495952606201171875</LongitudeDegrees>
            </Position>
            <AltitudeMeters>196.600006103515625</AltitudeMeters>
            <DistanceMeters>6059.2464236656</DistanceMeters>
          </Trackpoint>
          <Trackpoint>
            <Time>2019-01-04T10:41:24.000Z</Time>
            <Position>
              <LatitudeDegrees>36.510257609188556671142578125</LatitudeDegrees>
              <LongitudeDegrees>-5.406591407954692840576171875</LongitudeDegrees>
            </Position>
            <AltitudeMeters>196.399993896484375</AltitudeMeters>
            <DistanceMeters>6060.0300340268</DistanceMeters>
          </Trackpoint>
          <Trackpoint>
            <Time>2019-01-04T10:41:25.000Z</Time>
            <Position>
              <LatitudeDegrees>36.51025258004665374755859375</LatitudeDegrees>
              <LongitudeDegrees>-5.40657590143382549285888671875</LongitudeDegrees>
            </Position>
            <AltitudeMeters>196.399993896484375</AltitudeMeters>
            <DistanceMeters>6061.5265162212</DistanceMeters>
          </Trackpoint>
          <Trackpoint>
            <Time>2019-01-04T10:41:26.000Z</Time>
            <Position>
              <LatitudeDegrees>36.5102514065802097320556640625</LatitudeDegrees>
              <LongitudeDegrees>-5.40656290948390960693359375</LongitudeDegrees>
            </Position>
            <AltitudeMeters>196.399993896484375</AltitudeMeters>
            <DistanceMeters>6062.694224037</DistanceMeters>
          </Trackpoint>
          <Trackpoint>
            <Time>2019-01-04T10:41:27.000Z</Time>
            <Position>
              <LatitudeDegrees>36.51024746708571910858154296875</LatitudeDegrees>
              <LongitudeDegrees>-5.406553186476230621337890625</LongitudeDegrees>
            </Position>
            <AltitudeMeters>196.399993896484375</AltitudeMeters>
            <DistanceMeters>6063.6633101788</DistanceMeters>
          </Trackpoint>
          <Trackpoint>
            <Time>2019-01-04T10:41:28.000Z</Time>
            <Position>
              <LatitudeDegrees>36.51024864055216312408447265625</LatitudeDegrees>
              <LongitudeDegrees>-5.40654421783983707427978515625</LongitudeDegrees>
            </Position>
            <AltitudeMeters>196.1999969482421875</AltitudeMeters>
            <DistanceMeters>6064.4696385883</DistanceMeters>
          </Trackpoint>
          <Trackpoint>
            <Time>2019-01-04T10:41:29.000Z</Time>
            <Position>
              <LatitudeDegrees>36.5102497301995754241943359375</LatitudeDegrees>
              <LongitudeDegrees>-5.406528376042842864990234375</LongitudeDegrees>
            </Position>
            <AltitudeMeters>196</AltitudeMeters>
            <DistanceMeters>6065.8918682193</DistanceMeters>
          </Trackpoint>
          <Trackpoint>
            <Time>2019-01-04T10:41:30.000Z</Time>
            <Position>
              <LatitudeDegrees>36.51024864055216312408447265625</LatitudeDegrees>
              <LongitudeDegrees>-5.40651571936905384063720703125</LongitudeDegrees>
            </Position>
            <AltitudeMeters>196</AltitudeMeters>
            <DistanceMeters>6067.0321887918</DistanceMeters>
          </Trackpoint>
          <Trackpoint>
            <Time>2019-01-04T10:41:31.000Z</Time>
            <Position>
              <LatitudeDegrees>36.51024428196251392364501953125</LatitudeDegrees>
              <LongitudeDegrees>-5.40650482289493083953857421875</LongitudeDegrees>
            </Position>
            <AltitudeMeters>195.8000030517578125</AltitudeMeters>
            <DistanceMeters>6068.1239626193</DistanceMeters>
          </Trackpoint>
          <Trackpoint>
            <Time>2019-01-04T10:41:32.000Z</Time>
            <Position>
              <LatitudeDegrees>36.51023891754448413848876953125</LatitudeDegrees>
              <LongitudeDegrees>-5.40649116039276123046875</LongitudeDegrees>
            </Position>
            <AltitudeMeters>195.600006103515625</AltitudeMeters>
            <DistanceMeters>6069.4812155783</DistanceMeters>
          </Trackpoint>
          <Trackpoint>
            <Time>2019-01-04T10:41:33.000Z</Time>
            <Position>
              <LatitudeDegrees>36.51023514568805694580078125</LatitudeDegrees>
              <LongitudeDegrees>-5.40648235939443111419677734375</LongitudeDegrees>
            </Position>
            <AltitudeMeters>195.399993896484375</AltitudeMeters>
            <DistanceMeters>6070.3726451757</DistanceMeters>
          </Trackpoint>
          <Trackpoint>
            <Time>2019-01-04T10:41:34.000Z</Time>
            <Position>
              <LatitudeDegrees>36.5102291107177734375</LatitudeDegrees>
              <LongitudeDegrees>-5.4064745642244815826416015625</LongitudeDegrees>
            </Position>
            <AltitudeMeters>195.1999969482421875</AltitudeMeters>
            <DistanceMeters>6071.3417313174</DistanceMeters>
          </Trackpoint>
          <Trackpoint>
            <Time>2019-01-04T10:41:35.000Z</Time>
            <Position>
              <LatitudeDegrees>36.5102185495197772979736328125</LatitudeDegrees>
              <LongitudeDegrees>-5.40645821951329708099365234375</LongitudeDegrees>
            </Position>
            <AltitudeMeters>194.8000030517578125</AltitudeMeters>
            <DistanceMeters>6073.2135405118</DistanceMeters>
          </Trackpoint>
          <Trackpoint>
            <Time>2019-01-04T10:41:36.000Z</Time>
            <Position>
              <LatitudeDegrees>36.510205306112766265869140625</LatitudeDegrees>
              <LongitudeDegrees>-5.4064521007239818572998046875</LongitudeDegrees>
            </Position>
            <AltitudeMeters>194.600006103515625</AltitudeMeters>
            <DistanceMeters>6074.7865125223</DistanceMeters>
          </Trackpoint>
          <Trackpoint>
            <Time>2019-01-04T10:41:37.000Z</Time>
            <Position>
              <LatitudeDegrees>36.51019281707704067230224609375</LatitudeDegrees>
              <LongitudeDegrees>-5.40644598193466663360595703125</LongitudeDegrees>
            </Position>
            <AltitudeMeters>194.1999969482421875</AltitudeMeters>
            <DistanceMeters>6076.2829947167</DistanceMeters>
          </Trackpoint>
          <Trackpoint>
            <Time>2019-01-04T10:41:38.000Z</Time>
            <Position>
              <LatitudeDegrees>36.5101830102503299713134765625</LatitudeDegrees>
              <LongitudeDegrees>-5.40643206797540187835693359375</LongitudeDegrees>
            </Position>
            <AltitudeMeters>194</AltitudeMeters>
            <DistanceMeters>6077.9398420962</DistanceMeters>
          </Trackpoint>
          <Trackpoint>
            <Time>2019-01-04T10:41:39.000Z</Time>
            <Position>
              <LatitudeDegrees>36.510173119604587554931640625</LatitudeDegrees>
              <LongitudeDegrees>-5.4064202494919300079345703125</LongitudeDegrees>
            </Position>
            <AltitudeMeters>193.8000030517578125</AltitudeMeters>
            <DistanceMeters>6079.4661971409</DistanceMeters>
          </Trackpoint>
          <Trackpoint>
            <Time>2019-01-04T10:41:40.000Z</Time>
            <Position>
              <LatitudeDegrees>36.51016247458755970001220703125</LatitudeDegrees>
              <LongitudeDegrees>-5.406412370502948760986328125</LongitudeDegrees>
            </Position>
            <AltitudeMeters>193.600006103515625</AltitudeMeters>
            <DistanceMeters>6080.8432650598</DistanceMeters>
          </Trackpoint>
          <Trackpoint>
            <Time>2019-01-04T10:41:41.000Z</Time>
            <Position>
              <LatitudeDegrees>36.51015157811343669891357421875</LatitudeDegrees>
              <LongitudeDegrees>-5.40639786981046199798583984375</LongitudeDegrees>
            </Position>
            <AltitudeMeters>193.399993896484375</AltitudeMeters>
            <DistanceMeters>6082.61596543</DistanceMeters>
          </Trackpoint>
          <Trackpoint>
            <Time>2019-01-04T10:41:42.000Z</Time>
            <Position>
              <LatitudeDegrees>36.510141603648662567138671875</LatitudeDegrees>
              <LongitudeDegrees>-5.4063863866031169891357421875</LongitudeDegrees>
            </Position>
            <AltitudeMeters>193</AltitudeMeters>
            <DistanceMeters>6084.1304420448</DistanceMeters>
          </Trackpoint>
          <Trackpoint>
            <Time>2019-01-04T10:41:43.000Z</Time>
            <Position>
              <LatitudeDegrees>36.5101327188313007354736328125</LatitudeDegrees>
              <LongitudeDegrees>-5.406377501785755157470703125</LongitudeDegrees>
            </Position>
            <AltitudeMeters>192.8000030517578125</AltitudeMeters>
            <DistanceMeters>6085.4018128339</DistanceMeters>
          </Trackpoint>
          <Trackpoint>
            <Time>2019-01-04T10:41:44.000Z</Time>
            <Position>
              <LatitudeDegrees>36.51012542657554149627685546875</LatitudeDegrees>
              <LongitudeDegrees>-5.406367778778076171875</LongitudeDegrees>
            </Position>
            <AltitudeMeters>192.600006103515625</AltitudeMeters>
            <DistanceMeters>6086.5924941522</DistanceMeters>
          </Trackpoint>
          <Trackpoint>
            <Time>2019-01-04T10:41:45.000Z</Time>
            <Position>
              <LatitudeDegrees>36.51011981070041656494140625</LatitudeDegrees>
              <LongitudeDegrees>-5.406355373561382293701171875</LongitudeDegrees>
            </Position>
            <AltitudeMeters>192.399993896484375</AltitudeMeters>
            <DistanceMeters>6087.8638649413</DistanceMeters>
          </Trackpoint>
          <Trackpoint>
            <Time>2019-01-04T10:41:46.000Z</Time>
            <Position>
              <LatitudeDegrees>36.5101151168346405029296875</LatitudeDegrees>
              <LongitudeDegrees>-5.40634606964886188507080078125</LongitudeDegrees>
            </Position>
            <AltitudeMeters>192.399993896484375</AltitudeMeters>
            <DistanceMeters>6088.8514115255</DistanceMeters>
          </Trackpoint>
          <Trackpoint>
            <Time>2019-01-04T10:41:47.000Z</Time>
            <Position>
              <LatitudeDegrees>36.5101126022636890411376953125</LatitudeDegrees>
              <LongitudeDegrees>-5.406339950859546661376953125</LongitudeDegrees>
            </Position>
            <AltitudeMeters>192.399993896484375</AltitudeMeters>
            <DistanceMeters>6089.4598793835</DistanceMeters>
          </Trackpoint>
          <Trackpoint>
            <Time>2019-01-04T10:41:48.000Z</Time>
            <Position>
              <LatitudeDegrees>36.51010849513113498687744140625</LatitudeDegrees>
              <LongitudeDegrees>-5.4063220135867595672607421875</LongitudeDegrees>
            </Position>
            <AltitudeMeters>192.1999969482421875</AltitudeMeters>
            <DistanceMeters>6091.1275914524</DistanceMeters>
          </Trackpoint>
          <Trackpoint>
            <Time>2019-01-04T10:41:49.000Z</Time>
            <Position>
              <LatitudeDegrees>36.5101102553308010101318359375</LatitudeDegrees>
              <LongitudeDegrees>-5.40630432777106761932373046875</LongitudeDegrees>
            </Position>
            <AltitudeMeters>192.1999969482421875</AltitudeMeters>
            <DistanceMeters>6092.7205294552</DistanceMeters>
          </Trackpoint>
          <Trackpoint>
            <Time>2019-01-04T10:41:50.000Z</Time>
            <Position>
              <LatitudeDegrees>36.51011117734014987945556640625</LatitudeDegrees>
              <LongitudeDegrees>-5.40629158727824687957763671875</LongitudeDegrees>
            </Position>
            <AltitudeMeters>192.1999969482421875</AltitudeMeters>
            <DistanceMeters>6093.8608500276</DistanceMeters>
          </Trackpoint>
          <Trackpoint>
            <Time>2019-01-04T10:41:51.000Z</Time>
            <Position>
              <LatitudeDegrees>36.51010916568338871002197265625</LatitudeDegrees>
              <LongitudeDegrees>-5.40628219954669475555419921875</LongitudeDegrees>
            </Position>
            <AltitudeMeters>192</AltitudeMeters>
            <DistanceMeters>6094.7265845971</DistanceMeters>
          </Trackpoint>
          <Trackpoint>
            <Time>2019-01-04T10:41:52.000Z</Time>
            <Position>
              <LatitudeDegrees>36.51010815985500812530517578125</LatitudeDegrees>
              <LongitudeDegrees>-5.40627063252031803131103515625</LongitudeDegrees>
            </Position>
            <AltitudeMeters>191.8000030517578125</AltitudeMeters>
            <DistanceMeters>6095.7675500977</DistanceMeters>
          </Trackpoint>
          <Trackpoint>
            <Time>2019-01-04T10:41:53.000Z</Time>
            <Position>
              <LatitudeDegrees>36.5101075731217861175537109375</LatitudeDegrees>
              <LongitudeDegrees>-5.4062569700181484222412109375</LongitudeDegrees>
            </Position>
            <AltitudeMeters>191.399993896484375</AltitudeMeters>
            <DistanceMeters>6096.9918836673</DistanceMeters>
          </Trackpoint>
          <Trackpoint>
            <Time>2019-01-04T10:41:54.000Z</Time>
            <Position>
              <LatitudeDegrees>36.51010765694081783294677734375</LatitudeDegrees>
              <LongitudeDegrees>-5.40624414570629596710205078125</LongitudeDegrees>
            </Position>
            <AltitudeMeters>191.399993896484375</AltitudeMeters>
            <DistanceMeters>6098.1400958257</DistanceMeters>
          </Trackpoint>
          <Trackpoint>
            <Time>2019-01-04T10:41:55.000Z</Time>
            <Position>
              <LatitudeDegrees>36.51010966859757900238037109375</LatitudeDegrees>
              <LongitudeDegrees>-5.4062323272228240966796875</LongitudeDegrees>
            </Position>
            <AltitudeMeters>191.1999969482421875</AltitudeMeters>
            <DistanceMeters>6099.2235670703</DistanceMeters>
          </Trackpoint>
          <Trackpoint>
            <Time>2019-01-04T10:41:56.000Z</Time>
            <Position>
              <LatitudeDegrees>36.51011151261627674102783203125</LatitudeDegrees>
              <LongitudeDegrees>-5.4062190838158130645751953125</LongitudeDegrees>
            </Position>
            <AltitudeMeters>191.1999969482421875</AltitudeMeters>
            <DistanceMeters>6100.429320904</DistanceMeters>
          </Trackpoint>
          <Trackpoint>
            <Time>2019-01-04T10:41:57.000Z</Time>
            <Position>
              <LatitudeDegrees>36.5101132728159427642822265625</LatitudeDegrees>
              <LongitudeDegrees>-5.40620525367558002471923828125</LongitudeDegrees>
            </Position>
            <AltitudeMeters>191.1999969482421875</AltitudeMeters>
            <DistanceMeters>6101.6792021882</DistanceMeters>
          </Trackpoint>
          <Trackpoint>
            <Time>2019-01-04T10:41:58.000Z</Time>
            <Position>
              <LatitudeDegrees>36.510113440454006195068359375</LatitudeDegrees>
              <LongitudeDegrees>-5.4061915911734104156494140625</LongitudeDegrees>
            </Position>
            <AltitudeMeters>191.1999969482421875</AltitudeMeters>
            <DistanceMeters>6102.9035357579</DistanceMeters>
          </Trackpoint>
          <Trackpoint>
            <Time>2019-01-04T10:41:59.000Z</Time>
            <Position>
              <LatitudeDegrees>36.51011318899691104888916015625</LatitudeDegrees>
              <LongitudeDegrees>-5.40617742575705051422119140625</LongitudeDegrees>
            </Position>
            <AltitudeMeters>191.1999969482421875</AltitudeMeters>
            <DistanceMeters>6104.174906547</DistanceMeters>
          </Trackpoint>
          <Trackpoint>
            <Time>2019-01-04T10:42:00.000Z</Time>
            <Position>
              <LatitudeDegrees>36.51011436246335506439208984375</LatitudeDegrees>
              <LongitudeDegrees>-5.4061624221503734588623046875</LongitudeDegrees>
            </Position>
            <AltitudeMeters>191.1999969482421875</AltitudeMeters>
            <DistanceMeters>6105.5254899179</DistanceMeters>
          </Trackpoint>
          <Trackpoint>
            <Time>2019-01-04T10:42:01.000Z</Time>
            <Position>
              <LatitudeDegrees>36.51011453010141849517822265625</LatitudeDegrees>
              <LongitudeDegrees>-5.4061496816575527191162109375</LongitudeDegrees>
            </Position>
            <AltitudeMeters>191.1999969482421875</AltitudeMeters>
            <DistanceMeters>6106.6618441459</DistanceMeters>
          </Trackpoint>
          <Trackpoint>
            <Time>2019-01-04T10:42:02.000Z</Time>
            <Position>
              <LatitudeDegrees>36.51011788286268711090087890625</LatitudeDegrees>
              <LongitudeDegrees>-5.406135432422161102294921875</LongitudeDegrees>
            </Position>
            <AltitudeMeters>191.1999969482421875</AltitudeMeters>
            <DistanceMeters>6107.9888199959</DistanceMeters>
          </Trackpoint>
          <Trackpoint>
            <Time>2019-01-04T10:42:03.000Z</Time>
            <Position>
              <LatitudeDegrees>36.5101177990436553955078125</LatitudeDegrees>
              <LongitudeDegrees>-5.40612445212900638580322265625</LongitudeDegrees>
            </Position>
            <AltitudeMeters>191.1999969482421875</AltitudeMeters>
            <DistanceMeters>6108.9671799006</DistanceMeters>
          </Trackpoint>
          <Trackpoint>
            <Time>2019-01-04T10:42:04.000Z</Time>
            <Position>
              <LatitudeDegrees>36.51011754758656024932861328125</LatitudeDegrees>
              <LongitudeDegrees>-5.40611573494970798492431640625</LongitudeDegrees>
            </Position>
            <AltitudeMeters>191.1999969482421875</AltitudeMeters>
            <DistanceMeters>6109.7450070804</DistanceMeters>
          </Trackpoint>
          <Trackpoint>
            <Time>2019-01-04T10:42:05.000Z</Time>
            <Position>
              <LatitudeDegrees>36.5101233310997486114501953125</LatitudeDegrees>
              <LongitudeDegrees>-5.40610282681882381439208984375</LongitudeDegrees>
            </Position>
            <AltitudeMeters>191.1999969482421875</AltitudeMeters>
            <DistanceMeters>6111.0651603873</DistanceMeters>
          </Trackpoint>
          <Trackpoint>
            <Time>2019-01-04T10:42:06.000Z</Time>
            <Position>
              <LatitudeDegrees>36.51012559421360492706298828125</LatitudeDegrees>
              <LongitudeDegrees>-5.40609260089695453643798828125</LongitudeDegrees>
            </Position>
            <AltitudeMeters>191</AltitudeMeters>
            <DistanceMeters>6112.0058768651</DistanceMeters>
          </Trackpoint>
          <Trackpoint>
            <Time>2019-01-04T10:42:07.000Z</Time>
            <Position>
              <LatitudeDegrees>36.51012592948973178863525390625</LatitudeDegrees>
              <LongitudeDegrees>-5.40608488954603672027587890625</LongitudeDegrees>
            </Position>
            <AltitudeMeters>191</AltitudeMeters>
            <DistanceMeters>6112.7041777515</DistanceMeters>
          </Trackpoint>
          <Trackpoint>
            <Time>2019-01-04T10:42:08.000Z</Time>
            <Position>
              <LatitudeDegrees>36.51012710295617580413818359375</LatitudeDegrees>
              <LongitudeDegrees>-5.4060769267380237579345703125</LongitudeDegrees>
            </Position>
            <AltitudeMeters>191</AltitudeMeters>
            <DistanceMeters>6113.4278796471</DistanceMeters>
          </Trackpoint>
          <Trackpoint>
            <Time>2019-01-04T10:42:09.000Z</Time>
            <Position>
              <LatitudeDegrees>36.5101260133087635040283203125</LatitudeDegrees>
              <LongitudeDegrees>-5.406073741614818572998046875</LongitudeDegrees>
            </Position>
            <AltitudeMeters>191</AltitudeMeters>
            <DistanceMeters>6113.7430476037</DistanceMeters>
          </Trackpoint>
          <Trackpoint>
            <Time>2019-01-04T10:42:10.000Z</Time>
            <Position>
              <LatitudeDegrees>36.51012517511844635009765625</LatitudeDegrees>
              <LongitudeDegrees>-5.4060692153871059417724609375</LongitudeDegrees>
            </Position>
            <AltitudeMeters>191</AltitudeMeters>
            <DistanceMeters>6114.1680199898</DistanceMeters>
          </Trackpoint>
          <Trackpoint>
            <Time>2019-01-04T10:42:11.000Z</Time>
            <Position>
              <LatitudeDegrees>36.510126851499080657958984375</LatitudeDegrees>
              <LongitudeDegrees>-5.40606661699712276458740234375</LongitudeDegrees>
            </Position>
            <AltitudeMeters>191</AltitudeMeters>
            <DistanceMeters>6114.4685208457</DistanceMeters>
          </Trackpoint>
          <Trackpoint>
            <Time>2019-01-04T10:42:12.000Z</Time>
            <Position>
              <LatitudeDegrees>36.51012944988906383514404296875</LatitudeDegrees>
              <LongitudeDegrees>-5.40606326423585414886474609375</LongitudeDegrees>
            </Position>
            <AltitudeMeters>191</AltitudeMeters>
            <DistanceMeters>6114.8934932318</DistanceMeters>
          </Trackpoint>
          <Trackpoint>
            <Time>2019-01-04T10:42:13.000Z</Time>
            <Position>
              <LatitudeDegrees>36.51013062335550785064697265625</LatitudeDegrees>
              <LongitudeDegrees>-5.4060591571033000946044921875</LongitudeDegrees>
            </Position>
            <AltitudeMeters>191</AltitudeMeters>
            <DistanceMeters>6115.2966574365</DistanceMeters>
          </Trackpoint>
          <Trackpoint>
            <Time>2019-01-04T10:42:14.000Z</Time>
            <Position>
              <LatitudeDegrees>36.5101283602416515350341796875</LatitudeDegrees>
              <LongitudeDegrees>-5.4060534574091434478759765625</LongitudeDegrees>
            </Position>
            <AltitudeMeters>191</AltitudeMeters>
            <DistanceMeters>6115.8668177227</DistanceMeters>
          </Trackpoint>
          <Trackpoint>
            <Time>2019-01-04T10:42:15.000Z</Time>
            <Position>
              <LatitudeDegrees>36.510125510394573211669921875</LatitudeDegrees>
              <LongitudeDegrees>-5.4060474224388599395751953125</LongitudeDegrees>
            </Position>
            <AltitudeMeters>191</AltitudeMeters>
            <DistanceMeters>6116.4899495604</DistanceMeters>
          </Trackpoint>
          <Trackpoint>
            <Time>2019-01-04T10:42:16.000Z</Time>
            <Position>
              <LatitudeDegrees>36.51012090034782886505126953125</LatitudeDegrees>
              <LongitudeDegrees>-5.4060383699834346771240234375</LongitudeDegrees>
            </Position>
            <AltitudeMeters>191</AltitudeMeters>
            <DistanceMeters>6117.4402167041</DistanceMeters>
          </Trackpoint>
          <Trackpoint>
            <Time>2019-01-04T10:42:17.000Z</Time>
            <Position>
              <LatitudeDegrees>36.51011788286268711090087890625</LatitudeDegrees>
              <LongitudeDegrees>-5.4060289822518825531005859375</LongitudeDegrees>
            </Position>
            <AltitudeMeters>191</AltitudeMeters>
            <DistanceMeters>6118.3467137843</DistanceMeters>
          </Trackpoint>
          <Trackpoint>
            <Time>2019-01-04T10:42:18.000Z</Time>
            <Position>
              <LatitudeDegrees>36.51011419482529163360595703125</LatitudeDegrees>
              <LongitudeDegrees>-5.40601573884487152099609375</LongitudeDegrees>
            </Position>
            <AltitudeMeters>190.8000030517578125</AltitudeMeters>
            <DistanceMeters>6119.6037990549</DistanceMeters>
          </Trackpoint>
          <Trackpoint>
            <Time>2019-01-04T10:42:19.000Z</Time>
            <Position>
              <LatitudeDegrees>36.51010950095951557159423828125</LatitudeDegrees>
              <LongitudeDegrees>-5.40600174106657505035400390625</LongitudeDegrees>
            </Position>
            <AltitudeMeters>190.600006103515625</AltitudeMeters>
            <DistanceMeters>6120.9577213267</DistanceMeters>
          </Trackpoint>
          <Trackpoint>
            <Time>2019-01-04T10:42:20.000Z</Time>
            <Position>
              <LatitudeDegrees>36.51010371744632720947265625</LatitudeDegrees>
              <LongitudeDegrees>-5.4059894196689128875732421875</LongitudeDegrees>
            </Position>
            <AltitudeMeters>190.399993896484375</AltitudeMeters>
            <DistanceMeters>6122.2326384848</DistanceMeters>
          </Trackpoint>
          <Trackpoint>
            <Time>2019-01-04T10:42:21.000Z</Time>
            <Position>
              <LatitudeDegrees>36.51009642519056797027587890625</LatitudeDegrees>
              <LongitudeDegrees>-5.4059783555567264556884765625</LongitudeDegrees>
            </Position>
            <AltitudeMeters>190.1999969482421875</AltitudeMeters>
            <DistanceMeters>6123.5146189499</DistanceMeters>
          </Trackpoint>
          <Trackpoint>
            <Time>2019-01-04T10:42:22.000Z</Time>
            <Position>
              <LatitudeDegrees>36.51008787564933300018310546875</LatitudeDegrees>
              <LongitudeDegrees>-5.40596636943519115447998046875</LongitudeDegrees>
            </Position>
            <AltitudeMeters>190</AltitudeMeters>
            <DistanceMeters>6124.9463407639</DistanceMeters>
          </Trackpoint>
          <Trackpoint>
            <Time>2019-01-04T10:42:23.000Z</Time>
            <Position>
              <LatitudeDegrees>36.510079242289066314697265625</LatitudeDegrees>
              <LongitudeDegrees>-5.405956394970417022705078125</LongitudeDegrees>
            </Position>
            <AltitudeMeters>189.8000030517578125</AltitudeMeters>
            <DistanceMeters>6126.2561936275</DistanceMeters>
          </Trackpoint>
          <Trackpoint>
            <Time>2019-01-04T10:42:24.000Z</Time>
            <Position>
              <LatitudeDegrees>36.510070860385894775390625</LatitudeDegrees>
              <LongitudeDegrees>-5.40594868361949920654296875</LongitudeDegrees>
            </Position>
            <AltitudeMeters>189.8000030517578125</AltitudeMeters>
            <DistanceMeters>6127.4200284382</DistanceMeters>
          </Trackpoint>
          <Trackpoint>
            <Time>2019-01-04T10:42:25.000Z</Time>
            <Position>
              <LatitudeDegrees>36.51006122119724750518798828125</LatitudeDegrees>
              <LongitudeDegrees>-5.40593703277409076690673828125</LongitudeDegrees>
            </Position>
            <AltitudeMeters>189.8000030517578125</AltitudeMeters>
            <DistanceMeters>6128.9165106326</DistanceMeters>
          </Trackpoint>
          <Trackpoint>
            <Time>2019-01-04T10:42:26.000Z</Time>
            <Position>
              <LatitudeDegrees>36.51005283929407596588134765625</LatitudeDegrees>
              <LongitudeDegrees>-5.40592647157609462738037109375</LongitudeDegrees>
            </Position>
            <AltitudeMeters>189.8000030517578125</AltitudeMeters>
            <DistanceMeters>6130.2434864826</DistanceMeters>
          </Trackpoint>
          <Trackpoint>
            <Time>2019-01-04T10:42:27.000Z</Time>
            <Position>
              <LatitudeDegrees>36.5100505761802196502685546875</LatitudeDegrees>
              <LongitudeDegrees>-5.4059206880629062652587890625</LongitudeDegrees>
            </Position>
            <AltitudeMeters>189.600006103515625</AltitudeMeters>
            <DistanceMeters>6130.8292704913</DistanceMeters>
          </Trackpoint>
          <Trackpoint>
            <Time>2019-01-04T10:42:28.000Z</Time>
            <Position>
              <LatitudeDegrees>36.5100482292473316192626953125</LatitudeDegrees>
              <LongitudeDegrees>-5.40591515600681304931640625</LongitudeDegrees>
            </Position>
            <AltitudeMeters>189.399993896484375</AltitudeMeters>
            <DistanceMeters>6131.3833666916</DistanceMeters>
          </Trackpoint>
          <Trackpoint>
            <Time>2019-01-04T10:42:29.000Z</Time>
            <Position>
              <LatitudeDegrees>36.51004864834249019622802734375</LatitudeDegrees>
              <LongitudeDegrees>-5.4059082828462123870849609375</LongitudeDegrees>
            </Position>
            <AltitudeMeters>189.1999969482421875</AltitudeMeters>
            <DistanceMeters>6131.9992101868</DistanceMeters>
          </Trackpoint>
          <Trackpoint>
            <Time>2019-01-04T10:42:30.000Z</Time>
            <Position>
              <LatitudeDegrees>36.51004747487604618072509765625</LatitudeDegrees>
              <LongitudeDegrees>-5.40589730255305767059326171875</LongitudeDegrees>
            </Position>
            <AltitudeMeters>189.1999969482421875</AltitudeMeters>
            <DistanceMeters>6132.9958587753</DistanceMeters>
          </Trackpoint>
          <Trackpoint>
            <Time>2019-01-04T10:42:31.000Z</Time>
            <Position>
              <LatitudeDegrees>36.51004412211477756500244140625</LatitudeDegrees>
              <LongitudeDegrees>-5.40588573552668094635009765625</LongitudeDegrees>
            </Position>
            <AltitudeMeters>189.1999969482421875</AltitudeMeters>
            <DistanceMeters>6134.0958725222</DistanceMeters>
          </Trackpoint>
          <Trackpoint>
            <Time>2019-01-04T10:42:32.000Z</Time>
            <Position>
              <LatitudeDegrees>36.51004143990576267242431640625</LatitudeDegrees>
              <LongitudeDegrees>-5.40587626397609710693359375</LongitudeDegrees>
            </Position>
            <AltitudeMeters>189.1999969482421875</AltitudeMeters>
            <DistanceMeters>6134.9873021196</DistanceMeters>
          </Trackpoint>
          <Trackpoint>
            <Time>2019-01-04T10:42:33.000Z</Time>
            <Position>
              <LatitudeDegrees>36.510041020810604095458984375</LatitudeDegrees>
              <LongitudeDegrees>-5.405867882072925567626953125</LongitudeDegrees>
            </Position>
            <AltitudeMeters>189.1999969482421875</AltitudeMeters>
            <DistanceMeters>6135.7355432168</DistanceMeters>
          </Trackpoint>
          <Trackpoint>
            <Time>2019-01-04T10:42:34.000Z</Time>
            <Position>
              <LatitudeDegrees>36.5100388415157794952392578125</LatitudeDegrees>
              <LongitudeDegrees>-5.40586511604487895965576171875</LongitudeDegrees>
            </Position>
            <AltitudeMeters>189.399993896484375</AltitudeMeters>
            <DistanceMeters>6136.0647254115</DistanceMeters>
          </Trackpoint>
          <Trackpoint>
            <Time>2019-01-04T10:42:35.000Z</Time>
            <Position>
              <LatitudeDegrees>36.51003909297287464141845703125</LatitudeDegrees>
              <LongitudeDegrees>-5.4058640263974666595458984375</LongitudeDegrees>
            </Position>
            <AltitudeMeters>189.399993896484375</AltitudeMeters>
            <DistanceMeters>6136.0647254115</DistanceMeters>
          </Trackpoint>
          <Trackpoint>
            <Time>2019-01-04T10:42:36.000Z</Time>
            <Position>
              <LatitudeDegrees>36.510039679706096649169921875</LatitudeDegrees>
              <LongitudeDegrees>-5.40586243383586406707763671875</LongitudeDegrees>
            </Position>
            <AltitudeMeters>189.399993896484375</AltitudeMeters>
            <DistanceMeters>6136.1991134798</DistanceMeters>
          </Trackpoint>
          <Trackpoint>
            <Time>2019-01-04T10:42:37.000Z</Time>
            <Position>
              <LatitudeDegrees>36.51004043407738208770751953125</LatitudeDegrees>
              <LongitudeDegrees>-5.4058600030839443206787109375</LongitudeDegrees>
            </Position>
            <AltitudeMeters>189.399993896484375</AltitudeMeters>
            <DistanceMeters>6136.4318804419</DistanceMeters>
          </Trackpoint>
          <Trackpoint>
            <Time>2019-01-04T10:42:38.000Z</Time>
            <Position>
              <LatitudeDegrees>36.51004194281995296478271484375</LatitudeDegrees>
              <LongitudeDegrees>-5.40585706941783428192138671875</LongitudeDegrees>
            </Position>
            <AltitudeMeters>189.399993896484375</AltitudeMeters>
            <DistanceMeters>6136.7470483985</DistanceMeters>
          </Trackpoint>
          <Trackpoint>
            <Time>2019-01-04T10:42:39.000Z</Time>
            <Position>
              <LatitudeDegrees>36.5100400149822235107421875</LatitudeDegrees>
              <LongitudeDegrees>-5.4058512859046459197998046875</LongitudeDegrees>
            </Position>
            <AltitudeMeters>189.399993896484375</AltitudeMeters>
            <DistanceMeters>6137.3172086847</DistanceMeters>
          </Trackpoint>
          <Trackpoint>
            <Time>2019-01-04T10:42:40.000Z</Time>
            <Position>
              <LatitudeDegrees>36.51003800332546234130859375</LatitudeDegrees>
              <LongitudeDegrees>-5.40584751404821872711181640625</LongitudeDegrees>
            </Position>
            <AltitudeMeters>189.600006103515625</AltitudeMeters>
            <DistanceMeters>6137.7314205296</DistanceMeters>
          </Trackpoint>
          <Trackpoint>
            <Time>2019-01-04T10:42:41.000Z</Time>
            <Position>
              <LatitudeDegrees>36.51003255508840084075927734375</LatitudeDegrees>
              <LongitudeDegrees>-5.40584617294371128082275390625</LongitudeDegrees>
            </Position>
            <AltitudeMeters>189.600006103515625</AltitudeMeters>
            <DistanceMeters>6138.3472640249</DistanceMeters>
          </Trackpoint>
          <Trackpoint>
            <Time>2019-01-04T10:42:42.000Z</Time>
            <Position>
              <LatitudeDegrees>36.51002786122262477874755859375</LatitudeDegrees>
              <LongitudeDegrees>-5.4058455862104892730712890625</LongitudeDegrees>
            </Position>
            <AltitudeMeters>189.600006103515625</AltitudeMeters>
            <DistanceMeters>6138.8677467751</DistanceMeters>
          </Trackpoint>
          <Trackpoint>
            <Time>2019-01-04T10:42:43.000Z</Time>
            <Position>
              <LatitudeDegrees>36.51002165861427783966064453125</LatitudeDegrees>
              <LongitudeDegrees>-5.4058445803821086883544921875</LongitudeDegrees>
            </Position>
            <AltitudeMeters>189.600006103515625</AltitudeMeters>
            <DistanceMeters>6139.5660476615</DistanceMeters>
          </Trackpoint>
          <Trackpoint>
            <Time>2019-01-04T10:42:44.000Z</Time>
            <Position>
              <LatitudeDegrees>36.51001453399658203125</LatitudeDegrees>
              <LongitudeDegrees>-5.40583812631666660308837890625</LongitudeDegrees>
            </Position>
            <AltitudeMeters>189.600006103515625</AltitudeMeters>
            <DistanceMeters>6140.5490116383</DistanceMeters>
          </Trackpoint>
          <Trackpoint>
            <Time>2019-01-04T10:42:45.000Z</Time>
            <Position>
              <LatitudeDegrees>36.5100073255598545074462890625</LatitudeDegrees>
              <LongitudeDegrees>-5.40582840330898761749267578125</LongitudeDegrees>
            </Position>
            <AltitudeMeters>189.600006103515625</AltitudeMeters>
            <DistanceMeters>6141.7358949203</DistanceMeters>
          </Trackpoint>
          <Trackpoint>
            <Time>2019-01-04T10:42:46.000Z</Time>
            <Position>
              <LatitudeDegrees>36.50999919511377811431884765625</LatitudeDegrees>
              <LongitudeDegrees>-5.405815578997135162353515625</LongitudeDegrees>
            </Position>
            <AltitudeMeters>189.600006103515625</AltitudeMeters>
            <DistanceMeters>6143.2018956685</DistanceMeters>
          </Trackpoint>
          <Trackpoint>
            <Time>2019-01-04T10:42:47.000Z</Time>
            <Position>
              <LatitudeDegrees>36.50998771190643310546875</LatitudeDegrees>
              <LongitudeDegrees>-5.405806861817836761474609375</LongitudeDegrees>
            </Position>
            <AltitudeMeters>189.600006103515625</AltitudeMeters>
            <DistanceMeters>6144.6983778629</DistanceMeters>
          </Trackpoint>
          <Trackpoint>
            <Time>2019-01-04T10:42:48.000Z</Time>
            <Position>
              <LatitudeDegrees>36.5099784918129444122314453125</LatitudeDegrees>
              <LongitudeDegrees>-5.40579722262918949127197265625</LongitudeDegrees>
            </Position>
            <AltitudeMeters>189.600006103515625</AltitudeMeters>
            <DistanceMeters>6146.0388946335</DistanceMeters>
          </Trackpoint>
          <Trackpoint>
            <Time>2019-01-04T10:42:49.000Z</Time>
            <Position>
              <LatitudeDegrees>36.50997086428105831146240234375</LatitudeDegrees>
              <LongitudeDegrees>-5.4057875834405422210693359375</LongitudeDegrees>
            </Position>
            <AltitudeMeters>189.600006103515625</AltitudeMeters>
            <DistanceMeters>6147.2483872478</DistanceMeters>
          </Trackpoint>
          <Trackpoint>
            <Time>2019-01-04T10:42:50.000Z</Time>
            <Position>
              <LatitudeDegrees>36.50996499694883823394775390625</LatitudeDegrees>
              <LongitudeDegrees>-5.40577299892902374267578125</LongitudeDegrees>
            </Position>
            <AltitudeMeters>189.600006103515625</AltitudeMeters>
            <DistanceMeters>6148.7082153338</DistanceMeters>
          </Trackpoint>
          <Trackpoint>
            <Time>2019-01-04T10:42:51.000Z</Time>
            <Position>
              <LatitudeDegrees>36.50996080599725246429443359375</LatitudeDegrees>
              <LongitudeDegrees>-5.40576092898845672607421875</LongitudeDegrees>
            </Position>
            <AltitudeMeters>189.600006103515625</AltitudeMeters>
            <DistanceMeters>6149.8874658468</DistanceMeters>
          </Trackpoint>
          <Trackpoint>
            <Time>2019-01-04T10:42:52.000Z</Time>
            <Position>
              <LatitudeDegrees>36.50995460338890552520751953125</LatitudeDegrees>
              <LongitudeDegrees>-5.40575162507593631744384765625</LongitudeDegrees>
            </Position>
            <AltitudeMeters>189.8000030517578125</AltitudeMeters>
            <DistanceMeters>6150.9709370913</DistanceMeters>
          </Trackpoint>
          <Trackpoint>
            <Time>2019-01-04T10:42:53.000Z</Time>
            <Position>
              <LatitudeDegrees>36.5099506638944149017333984375</LatitudeDegrees>
              <LongitudeDegrees>-5.4057423211634159088134765625</LongitudeDegrees>
            </Position>
            <AltitudeMeters>189.8000030517578125</AltitudeMeters>
            <DistanceMeters>6151.9116535691</DistanceMeters>
          </Trackpoint>
          <Trackpoint>
            <Time>2019-01-04T10:42:54.000Z</Time>
            <Position>
              <LatitudeDegrees>36.5099463053047657012939453125</LatitudeDegrees>
              <LongitudeDegrees>-5.40573410689830780029296875</LongitudeDegrees>
            </Position>
            <AltitudeMeters>190</AltitudeMeters>
            <DistanceMeters>6152.7825877923</DistanceMeters>
          </Trackpoint>
          <Trackpoint>
            <Time>2019-01-04T10:42:55.000Z</Time>
            <Position>
              <LatitudeDegrees>36.5099419467151165008544921875</LatitudeDegrees>
              <LongitudeDegrees>-5.4057279042899608612060546875</LongitudeDegrees>
            </Position>
            <AltitudeMeters>190.1999969482421875</AltitudeMeters>
            <DistanceMeters>6153.5186615567</DistanceMeters>
          </Trackpoint>
          <Trackpoint>
            <Time>2019-01-04T10:42:56.000Z</Time>
            <Position>
              <LatitudeDegrees>36.50993700139224529266357421875</LatitudeDegrees>
              <LongitudeDegrees>-5.405721366405487060546875</LongitudeDegrees>
            </Position>
            <AltitudeMeters>190.399993896484375</AltitudeMeters>
            <DistanceMeters>6154.3249899662</DistanceMeters>
          </Trackpoint>
          <Trackpoint>
            <Time>2019-01-04T10:42:57.000Z</Time>
            <Position>
              <LatitudeDegrees>36.5099339000880718231201171875</LatitudeDegrees>
              <LongitudeDegrees>-5.4057087935507297515869140625</LongitudeDegrees>
            </Position>
            <AltitudeMeters>190.600006103515625</AltitudeMeters>
            <DistanceMeters>6155.4965579837</DistanceMeters>
          </Trackpoint>
          <Trackpoint>
            <Time>2019-01-04T10:42:58.000Z</Time>
            <Position>
              <LatitudeDegrees>36.50993063114583492279052734375</LatitudeDegrees>
              <LongitudeDegrees>-5.4056994058191776275634765625</LongitudeDegrees>
            </Position>
            <AltitudeMeters>190.8000030517578125</AltitudeMeters>
            <DistanceMeters>6156.4080222083</DistanceMeters>
          </Trackpoint>
          <Trackpoint>
            <Time>2019-01-04T10:42:59.000Z</Time>
            <Position>
              <LatitudeDegrees>36.509929709136486053466796875</LatitudeDegrees>
              <LongitudeDegrees>-5.40568892844021320343017578125</LongitudeDegrees>
            </Position>
            <AltitudeMeters>191</AltitudeMeters>
            <DistanceMeters>6157.3535260782</DistanceMeters>
          </Trackpoint>
          <Trackpoint>
            <Time>2019-01-04T10:43:00.000Z</Time>
            <Position>
              <LatitudeDegrees>36.509930379688739776611328125</LatitudeDegrees>
              <LongitudeDegrees>-5.40568172000348567962646484375</LongitudeDegrees>
            </Position>
            <AltitudeMeters>191.1999969482421875</AltitudeMeters>
            <DistanceMeters>6157.9980286123</DistanceMeters>
          </Trackpoint>
          <Trackpoint>
            <Time>2019-01-04T10:43:01.000Z</Time>
            <Position>
              <LatitudeDegrees>36.5099305473268032073974609375</LatitudeDegrees>
              <LongitudeDegrees>-5.40567048825323581695556640625</LongitudeDegrees>
            </Position>
            <AltitudeMeters>191.399993896484375</AltitudeMeters>
            <DistanceMeters>6159.0036968288</DistanceMeters>
          </Trackpoint>
          <Trackpoint>
            <Time>2019-01-04T10:43:02.000Z</Time>
            <Position>
              <LatitudeDegrees>36.5099268592894077301025390625</LatitudeDegrees>
              <LongitudeDegrees>-5.40566445328295230865478515625</LongitudeDegrees>
            </Position>
            <AltitudeMeters>191.600006103515625</AltitudeMeters>
            <DistanceMeters>6159.6756371701</DistanceMeters>
          </Trackpoint>
          <Trackpoint>
            <Time>2019-01-04T10:43:03.000Z</Time>
            <Position>
              <LatitudeDegrees>36.5099238418042659759521484375</LatitudeDegrees>
              <LongitudeDegrees>-5.40565540082752704620361328125</LongitudeDegrees>
            </Position>
            <AltitudeMeters>191.8000030517578125</AltitudeMeters>
            <DistanceMeters>6160.5465713933</DistanceMeters>
          </Trackpoint>
          <Trackpoint>
            <Time>2019-01-04T10:43:04.000Z</Time>
            <Position>
              <LatitudeDegrees>36.50991923175752162933349609375</LatitudeDegrees>
              <LongitudeDegrees>-5.4056450910866260528564453125</LongitudeDegrees>
            </Position>
            <AltitudeMeters>192</AltitudeMeters>
            <DistanceMeters>6161.6047441009</DistanceMeters>
          </Trackpoint>
          <Trackpoint>
            <Time>2019-01-04T10:43:05.000Z</Time>
            <Position>
              <LatitudeDegrees>36.5099084191024303436279296875</LatitudeDegrees>
              <LongitudeDegrees>-5.4056395590305328369140625</LongitudeDegrees>
            </Position>
            <AltitudeMeters>192</AltitudeMeters>
            <DistanceMeters>6162.907684764</DistanceMeters>
          </Trackpoint>
          <Trackpoint>
            <Time>2019-01-04T10:43:06.000Z</Time>
            <Position>
              <LatitudeDegrees>36.50989777408540248870849609375</LatitudeDegrees>
              <LongitudeDegrees>-5.40564014576375484466552734375</LongitudeDegrees>
            </Position>
            <AltitudeMeters>192.1999969482421875</AltitudeMeters>
            <DistanceMeters>6164.086935277</DistanceMeters>
          </Trackpoint>
          <Trackpoint>
            <Time>2019-01-04T10:43:07.000Z</Time>
            <Position>
              <LatitudeDegrees>36.509894169867038726806640625</LatitudeDegrees>
              <LongitudeDegrees>-5.40563327260315418243408203125</LongitudeDegrees>
            </Position>
            <AltitudeMeters>192.399993896484375</AltitudeMeters>
            <DistanceMeters>6164.8230090414</DistanceMeters>
          </Trackpoint>
          <Trackpoint>
            <Time>2019-01-04T10:43:08.000Z</Time>
            <Position>
              <LatitudeDegrees>36.50988972745835781097412109375</LatitudeDegrees>
              <LongitudeDegrees>-5.4056256450712680816650390625</LongitudeDegrees>
            </Position>
            <AltitudeMeters>192.399993896484375</AltitudeMeters>
            <DistanceMeters>6165.6729538134</DistanceMeters>
          </Trackpoint>
          <Trackpoint>
            <Time>2019-01-04T10:43:09.000Z</Time>
            <Position>
              <LatitudeDegrees>36.509883441030979156494140625</LatitudeDegrees>
              <LongitudeDegrees>-5.40561852045357227325439453125</LongitudeDegrees>
            </Position>
            <AltitudeMeters>192.399993896484375</AltitudeMeters>
            <DistanceMeters>6166.6232209571</DistanceMeters>
          </Trackpoint>
          <Trackpoint>
            <Time>2019-01-04T10:43:10.000Z</Time>
            <Position>
              <LatitudeDegrees>36.50988243520259857177734375</LatitudeDegrees>
              <LongitudeDegrees>-5.405609719455242156982421875</LongitudeDegrees>
            </Position>
            <AltitudeMeters>192.600006103515625</AltitudeMeters>
            <DistanceMeters>6167.4125721303</DistanceMeters>
          </Trackpoint>
          <Trackpoint>
            <Time>2019-01-04T10:43:11.000Z</Time>
            <Position>
              <LatitudeDegrees>36.50988042354583740234375</LatitudeDegrees>
              <LongitudeDegrees>-5.40559463202953338623046875</LongitudeDegrees>
            </Position>
            <AltitudeMeters>192.600006103515625</AltitudeMeters>
            <DistanceMeters>6168.7764620626</DistanceMeters>
          </Trackpoint>
          <Trackpoint>
            <Time>2019-01-04T10:43:12.000Z</Time>
            <Position>
              <LatitudeDegrees>36.5098728798329830169677734375</LatitudeDegrees>
              <LongitudeDegrees>-5.40557853877544403076171875</LongitudeDegrees>
            </Position>
            <AltitudeMeters>192.8000030517578125</AltitudeMeters>
            <DistanceMeters>6170.4387506633</DistanceMeters>
          </Trackpoint>
          <Trackpoint>
            <Time>2019-01-04T10:43:13.000Z</Time>
            <Position>
              <LatitudeDegrees>36.50986474938690662384033203125</LatitudeDegrees>
              <LongitudeDegrees>-5.4055629484355449676513671875</LongitudeDegrees>
            </Position>
            <AltitudeMeters>193</AltitudeMeters>
            <DistanceMeters>6172.0983208833</DistanceMeters>
          </Trackpoint>
          <Trackpoint>
            <Time>2019-01-04T10:43:14.000Z</Time>
            <Position>
              <LatitudeDegrees>36.50985754095017910003662109375</LatitudeDegrees>
              <LongitudeDegrees>-5.40555171668529510498046875</LongitudeDegrees>
            </Position>
            <AltitudeMeters>193.1999969482421875</AltitudeMeters>
            <DistanceMeters>6173.3873259515</DistanceMeters>
          </Trackpoint>
          <Trackpoint>
            <Time>2019-01-04T10:43:15.000Z</Time>
            <Position>
              <LatitudeDegrees>36.50984932668507099151611328125</LatitudeDegrees>
              <LongitudeDegrees>-5.405537970364093780517578125</LongitudeDegrees>
            </Position>
            <AltitudeMeters>193.399993896484375</AltitudeMeters>
            <DistanceMeters>6174.9195856799</DistanceMeters>
          </Trackpoint>
          <Trackpoint>
            <Time>2019-01-04T10:43:16.000Z</Time>
            <Position>
              <LatitudeDegrees>36.50984295643866062164306640625</LatitudeDegrees>
              <LongitudeDegrees>-5.40552346967160701751708984375</LongitudeDegrees>
            </Position>
            <AltitudeMeters>193.399993896484375</AltitudeMeters>
            <DistanceMeters>6176.3978544307</DistanceMeters>
          </Trackpoint>
          <Trackpoint>
            <Time>2019-01-04T10:43:17.000Z</Time>
            <Position>
              <LatitudeDegrees>36.50983549654483795166015625</LatitudeDegrees>
              <LongitudeDegrees>-5.40551257319748401641845703125</LongitudeDegrees>
            </Position>
            <AltitudeMeters>193.399993896484375</AltitudeMeters>
            <DistanceMeters>6177.6798348957</DistanceMeters>
          </Trackpoint>
          <Trackpoint>
            <Time>2019-01-04T10:43:18.000Z</Time>
            <Position>
              <LatitudeDegrees>36.50982870720326900482177734375</LatitudeDegrees>
              <LongitudeDegrees>-5.4055032692849636077880859375</LongitudeDegrees>
            </Position>
            <AltitudeMeters>193.600006103515625</AltitudeMeters>
            <DistanceMeters>6178.8042061432</DistanceMeters>
          </Trackpoint>
          <Trackpoint>
            <Time>2019-01-04T10:43:19.000Z</Time>
            <Position>
              <LatitudeDegrees>36.50982216931879520416259765625</LatitudeDegrees>
              <LongitudeDegrees>-5.40549363009631633758544921875</LongitudeDegrees>
            </Position>
            <AltitudeMeters>193.8000030517578125</AltitudeMeters>
            <DistanceMeters>6179.936580134</DistanceMeters>
          </Trackpoint>
          <Trackpoint>
            <Time>2019-01-04T10:43:20.000Z</Time>
            <Position>
              <LatitudeDegrees>36.50981412269175052642822265625</LatitudeDegrees>
              <LongitudeDegrees>-5.40548868477344512939453125</LongitudeDegrees>
            </Position>
            <AltitudeMeters>194</AltitudeMeters>
            <DistanceMeters>6180.9377486939</DistanceMeters>
          </Trackpoint>
          <Trackpoint>
            <Time>2019-01-04T10:43:21.000Z</Time>
            <Position>
              <LatitudeDegrees>36.50980456732213497161865234375</LatitudeDegrees>
              <LongitudeDegrees>-5.4054888524115085601806640625</LongitudeDegrees>
            </Position>
            <AltitudeMeters>194.1999969482421875</AltitudeMeters>
            <DistanceMeters>6182.0044209172</DistanceMeters>
          </Trackpoint>
          <Trackpoint>
            <Time>2019-01-04T10:43:22.000Z</Time>
            <Position>
              <LatitudeDegrees>36.50979149155318737030029296875</LatitudeDegrees>
              <LongitudeDegrees>-5.40549027733504772186279296875</LongitudeDegrees>
            </Position>
            <AltitudeMeters>194.1999969482421875</AltitudeMeters>
            <DistanceMeters>6183.4642490032</DistanceMeters>
          </Trackpoint>
          <Trackpoint>
            <Time>2019-01-04T10:43:23.000Z</Time>
            <Position>
              <LatitudeDegrees>36.50978193618357181549072265625</LatitudeDegrees>
              <LongitudeDegrees>-5.40549094788730144500732421875</LongitudeDegrees>
            </Position>
            <AltitudeMeters>194.399993896484375</AltitudeMeters>
            <DistanceMeters>6184.5309212265</DistanceMeters>
          </Trackpoint>
          <Trackpoint>
            <Time>2019-01-04T10:43:24.000Z</Time>
            <Position>
              <LatitudeDegrees>36.5097744762897491455078125</LatitudeDegrees>
              <LongitudeDegrees>-5.40549262426793575286865234375</LongitudeDegrees>
            </Position>
            <AltitudeMeters>194.399993896484375</AltitudeMeters>
            <DistanceMeters>6185.3755371387</DistanceMeters>
          </Trackpoint>
          <Trackpoint>
            <Time>2019-01-04T10:43:25.000Z</Time>
            <Position>
              <LatitudeDegrees>36.50976114906370639801025390625</LatitudeDegrees>
              <LongitudeDegrees>-5.4054928757250308990478515625</LongitudeDegrees>
            </Position>
            <AltitudeMeters>194.600006103515625</AltitudeMeters>
            <DistanceMeters>6186.8599018689</DistanceMeters>
          </Trackpoint>
          <Trackpoint>
            <Time>2019-01-04T10:43:26.000Z</Time>
            <Position>
              <LatitudeDegrees>36.50974606163799762725830078125</LatitudeDegrees>
              <LongitudeDegrees>-5.405493713915348052978515625</LongitudeDegrees>
            </Position>
            <AltitudeMeters>194.600006103515625</AltitudeMeters>
            <DistanceMeters>6188.5437795377</DistanceMeters>
          </Trackpoint>
          <Trackpoint>
            <Time>2019-01-04T10:43:27.000Z</Time>
            <Position>
              <LatitudeDegrees>36.5097320638597011566162109375</LatitudeDegrees>
              <LongitudeDegrees>-5.40549698285758495330810546875</LongitudeDegrees>
            </Position>
            <AltitudeMeters>194.600006103515625</AltitudeMeters>
            <DistanceMeters>6190.131038599</DistanceMeters>
          </Trackpoint>
          <Trackpoint>
            <Time>2019-01-04T10:43:28.000Z</Time>
            <Position>
              <LatitudeDegrees>36.50971823371946811676025390625</LatitudeDegrees>
              <LongitudeDegrees>-5.40549966506659984588623046875</LongitudeDegrees>
            </Position>
            <AltitudeMeters>194.8000030517578125</AltitudeMeters>
            <DistanceMeters>6191.6866929588</DistanceMeters>
          </Trackpoint>
          <Trackpoint>
            <Time>2019-01-04T10:43:29.000Z</Time>
            <Position>
              <LatitudeDegrees>36.50970599614083766937255859375</LatitudeDegrees>
              <LongitudeDegrees>-5.40550318546593189239501953125</LongitudeDegrees>
            </Position>
            <AltitudeMeters>195</AltitudeMeters>
            <DistanceMeters>6193.0832947316</DistanceMeters>
          </Trackpoint>
          <Trackpoint>
            <Time>2019-01-04T10:43:30.000Z</Time>
            <Position>
              <LatitudeDegrees>36.50969627313315868377685546875</LatitudeDegrees>
              <LongitudeDegrees>-5.405502431094646453857421875</LongitudeDegrees>
            </Position>
            <AltitudeMeters>195.1999969482421875</AltitudeMeters>
            <DistanceMeters>6194.1667659761</DistanceMeters>
          </Trackpoint>
          <Trackpoint>
            <Time>2019-01-04T10:43:31.000Z</Time>
            <Position>
              <LatitudeDegrees>36.50969107635319232940673828125</LatitudeDegrees>
              <LongitudeDegrees>-5.405497737228870391845703125</LongitudeDegrees>
            </Position>
            <AltitudeMeters>195.1999969482421875</AltitudeMeters>
            <DistanceMeters>6194.8715029515</DistanceMeters>
          </Trackpoint>
          <Trackpoint>
            <Time>2019-01-04T10:43:32.000Z</Time>
            <Position>
              <LatitudeDegrees>36.5096821077167987823486328125</LatitudeDegrees>
              <LongitudeDegrees>-5.40549078024923801422119140625</LongitudeDegrees>
            </Position>
            <AltitudeMeters>195.399993896484375</AltitudeMeters>
            <DistanceMeters>6196.0430709689</DistanceMeters>
          </Trackpoint>
          <Trackpoint>
            <Time>2019-01-04T10:43:33.000Z</Time>
            <Position>
              <LatitudeDegrees>36.50967062450945377349853515625</LatitudeDegrees>
              <LongitudeDegrees>-5.4054878465831279754638671875</LongitudeDegrees>
            </Position>
            <AltitudeMeters>195.399993896484375</AltitudeMeters>
            <DistanceMeters>6197.346011632</DistanceMeters>
          </Trackpoint>
          <Trackpoint>
            <Time>2019-01-04T10:43:34.000Z</Time>
            <Position>
              <LatitudeDegrees>36.509654782712459564208984375</LatitudeDegrees>
              <LongitudeDegrees>-5.405483655631542205810546875</LongitudeDegrees>
            </Position>
            <AltitudeMeters>195.600006103515625</AltitudeMeters>
            <DistanceMeters>6199.1490167678</DistanceMeters>
          </Trackpoint>
          <Trackpoint>
            <Time>2019-01-04T10:43:35.000Z</Time>
            <Position>
              <LatitudeDegrees>36.5096432156860828399658203125</LatitudeDegrees>
              <LongitudeDegrees>-5.405474938452243804931640625</LongitudeDegrees>
            </Position>
            <AltitudeMeters>195.8000030517578125</AltitudeMeters>
            <DistanceMeters>6200.6515210477</DistanceMeters>
          </Trackpoint>
          <Trackpoint>
            <Time>2019-01-04T10:43:36.000Z</Time>
            <Position>
              <LatitudeDegrees>36.50963424704968929290771484375</LatitudeDegrees>
              <LongitudeDegrees>-5.40546630509197711944580078125</LongitudeDegrees>
            </Position>
            <AltitudeMeters>196</AltitudeMeters>
            <DistanceMeters>6201.9121928742</DistanceMeters>
          </Trackpoint>
          <Trackpoint>
            <Time>2019-01-04T10:43:37.000Z</Time>
            <Position>
              <LatitudeDegrees>36.5096274577081203460693359375</LatitudeDegrees>
              <LongitudeDegrees>-5.405459515750408172607421875</LongitudeDegrees>
            </Position>
            <AltitudeMeters>196.1999969482421875</AltitudeMeters>
            <DistanceMeters>6202.8812790159</DistanceMeters>
          </Trackpoint>
          <Trackpoint>
            <Time>2019-01-04T10:43:38.000Z</Time>
            <Position>
              <LatitudeDegrees>36.50962066836655139923095703125</LatitudeDegrees>
              <LongitudeDegrees>-5.40545381605625152587890625</LongitudeDegrees>
            </Position>
            <AltitudeMeters>196.1999969482421875</AltitudeMeters>
            <DistanceMeters>6203.7927432406</DistanceMeters>
          </Trackpoint>
          <Trackpoint>
            <Time>2019-01-04T10:43:39.000Z</Time>
            <Position>
              <LatitudeDegrees>36.5096143819391727447509765625</LatitudeDegrees>
              <LongitudeDegrees>-5.405445434153079986572265625</LongitudeDegrees>
            </Position>
            <AltitudeMeters>196.399993896484375</AltitudeMeters>
            <DistanceMeters>6204.8162122765</DistanceMeters>
          </Trackpoint>
          <Trackpoint>
            <Time>2019-01-04T10:43:40.000Z</Time>
            <Position>
              <LatitudeDegrees>36.5096080116927623748779296875</LatitudeDegrees>
              <LongitudeDegrees>-5.40543763898313045501708984375</LongitudeDegrees>
            </Position>
            <AltitudeMeters>196.399993896484375</AltitudeMeters>
            <DistanceMeters>6205.812860865</DistanceMeters>
          </Trackpoint>
          <Trackpoint>
            <Time>2019-01-04T10:43:41.000Z</Time>
            <Position>
              <LatitudeDegrees>36.50960004888474941253662109375</LatitudeDegrees>
              <LongitudeDegrees>-5.40542305447161197662353515625</LongitudeDegrees>
            </Position>
            <AltitudeMeters>196.399993896484375</AltitudeMeters>
            <DistanceMeters>6207.3915632114</DistanceMeters>
          </Trackpoint>
          <Trackpoint>
            <Time>2019-01-04T10:43:42.000Z</Time>
            <Position>
              <LatitudeDegrees>36.50959133170545101165771484375</LatitudeDegrees>
              <LongitudeDegrees>-5.4054100625216960906982421875</LongitudeDegrees>
            </Position>
            <AltitudeMeters>196.399993896484375</AltitudeMeters>
            <DistanceMeters>6208.9060398262</DistanceMeters>
          </Trackpoint>
          <Trackpoint>
            <Time>2019-01-04T10:43:43.000Z</Time>
            <Position>
              <LatitudeDegrees>36.5095832012593746185302734375</LatitudeDegrees>
              <LongitudeDegrees>-5.4053939692676067352294921875</LongitudeDegrees>
            </Position>
            <AltitudeMeters>196.399993896484375</AltitudeMeters>
            <DistanceMeters>6210.6059293702</DistanceMeters>
          </Trackpoint>
          <Trackpoint>
            <Time>2019-01-04T10:43:44.000Z</Time>
            <Position>
              <LatitudeDegrees>36.5095748193562030792236328125</LatitudeDegrees>
              <LongitudeDegrees>-5.405374355614185333251953125</LongitudeDegrees>
            </Position>
            <AltitudeMeters>196.399993896484375</AltitudeMeters>
            <DistanceMeters>6212.5924195932</DistanceMeters>
          </Trackpoint>
          <Trackpoint>
            <Time>2019-01-04T10:43:45.000Z</Time>
            <Position>
              <LatitudeDegrees>36.509567610919475555419921875</LatitudeDegrees>
              <LongitudeDegrees>-5.4053594358265399932861328125</LongitudeDegrees>
            </Position>
            <AltitudeMeters>196.399993896484375</AltitudeMeters>
            <DistanceMeters>6214.1451689003</DistanceMeters>
          </Trackpoint>
          <Trackpoint>
            <Time>2019-01-04T10:43:46.000Z</Time>
            <Position>
              <LatitudeDegrees>36.50955797173082828521728515625</LatitudeDegrees>
              <LongitudeDegrees>-5.405343510210514068603515625</LongitudeDegrees>
            </Position>
            <AltitudeMeters>196.399993896484375</AltitudeMeters>
            <DistanceMeters>6215.928028095</DistanceMeters>
          </Trackpoint>
          <Trackpoint>
            <Time>2019-01-04T10:43:47.000Z</Time>
            <Position>
              <LatitudeDegrees>36.509553529322147369384765625</LatitudeDegrees>
              <LongitudeDegrees>-5.40532909333705902099609375</LongitudeDegrees>
            </Position>
            <AltitudeMeters>196.399993896484375</AltitudeMeters>
            <DistanceMeters>6217.3116379411</DistanceMeters>
          </Trackpoint>
          <Trackpoint>
            <Time>2019-01-04T10:43:48.000Z</Time>
            <Position>
              <LatitudeDegrees>36.509552188217639923095703125</LatitudeDegrees>
              <LongitudeDegrees>-5.4053141735494136810302734375</LongitudeDegrees>
            </Position>
            <AltitudeMeters>196.1999969482421875</AltitudeMeters>
            <DistanceMeters>6218.6521547117</DistanceMeters>
          </Trackpoint>
          <Trackpoint>
            <Time>2019-01-04T10:43:49.000Z</Time>
            <Position>
              <LatitudeDegrees>36.509550176560878753662109375</LatitudeDegrees>
              <LongitudeDegrees>-5.4053014330565929412841796875</LongitudeDegrees>
            </Position>
            <AltitudeMeters>196.1999969482421875</AltitudeMeters>
            <DistanceMeters>6219.8159895224</DistanceMeters>
          </Trackpoint>
          <Trackpoint>
            <Time>2019-01-04T10:43:50.000Z</Time>
            <Position>
              <LatitudeDegrees>36.5095516853034496307373046875</LatitudeDegrees>
              <LongitudeDegrees>-5.4052913747727870941162109375</LongitudeDegrees>
            </Position>
            <AltitudeMeters>196</AltitudeMeters>
            <DistanceMeters>6220.7373077007</DistanceMeters>
          </Trackpoint>
          <Trackpoint>
            <Time>2019-01-04T10:43:51.000Z</Time>
            <Position>
              <LatitudeDegrees>36.50954875163733959197998046875</LatitudeDegrees>
              <LongitudeDegrees>-5.4052806459367275238037109375</LongitudeDegrees>
            </Position>
            <AltitudeMeters>196</AltitudeMeters>
            <DistanceMeters>6221.7519153661</DistanceMeters>
          </Trackpoint>
          <Trackpoint>
            <Time>2019-01-04T10:43:52.000Z</Time>
            <Position>
              <LatitudeDegrees>36.50954254902899265289306640625</LatitudeDegrees>
              <LongitudeDegrees>-5.40527033619582653045654296875</LongitudeDegrees>
            </Position>
            <AltitudeMeters>196</AltitudeMeters>
            <DistanceMeters>6222.9040530477</DistanceMeters>
          </Trackpoint>
          <Trackpoint>
            <Time>2019-01-04T10:43:53.000Z</Time>
            <Position>
              <LatitudeDegrees>36.50952947326004505157470703125</LatitudeDegrees>
              <LongitudeDegrees>-5.40526296012103557586669921875</LongitudeDegrees>
            </Position>
            <AltitudeMeters>196</AltitudeMeters>
            <DistanceMeters>6224.4998229425</DistanceMeters>
          </Trackpoint>
          <Trackpoint>
            <Time>2019-01-04T10:43:54.000Z</Time>
            <Position>
              <LatitudeDegrees>36.50951757095754146575927734375</LatitudeDegrees>
              <LongitudeDegrees>-5.40525541640818119049072265625</LongitudeDegrees>
            </Position>
            <AltitudeMeters>196</AltitudeMeters>
            <DistanceMeters>6225.9841876727</DistanceMeters>
          </Trackpoint>
          <Trackpoint>
            <Time>2019-01-04T10:43:55.000Z</Time>
            <Position>
              <LatitudeDegrees>36.50950566865503787994384765625</LatitudeDegrees>
              <LongitudeDegrees>-5.40524636395275592803955078125</LongitudeDegrees>
            </Position>
            <AltitudeMeters>195.8000030517578125</AltitudeMeters>
            <DistanceMeters>6227.5340264818</DistanceMeters>
          </Trackpoint>
          <Trackpoint>
            <Time>2019-01-04T10:43:56.000Z</Time>
            <Position>
              <LatitudeDegrees>36.509495861828327178955078125</LatitudeDegrees>
              <LongitudeDegrees>-5.40523915551602840423583984375</LongitudeDegrees>
            </Position>
            <AltitudeMeters>195.8000030517578125</AltitudeMeters>
            <DistanceMeters>6228.801840982</DistanceMeters>
          </Trackpoint>
          <Trackpoint>
            <Time>2019-01-04T10:43:57.000Z</Time>
            <Position>
              <LatitudeDegrees>36.509489156305789947509765625</LatitudeDegrees>
              <LongitudeDegrees>-5.4052345454692840576171875</LongitudeDegrees>
            </Position>
            <AltitudeMeters>195.8000030517578125</AltitudeMeters>
            <DistanceMeters>6229.651785754</DistanceMeters>
          </Trackpoint>
          <Trackpoint>
            <Time>2019-01-04T10:43:58.000Z</Time>
            <Position>
              <LatitudeDegrees>36.5094853006303310394287109375</LatitudeDegrees>
              <LongitudeDegrees>-5.4052249900996685028076171875</LongitudeDegrees>
            </Position>
            <AltitudeMeters>195.8000030517578125</AltitudeMeters>
            <DistanceMeters>6230.6115085251</DistanceMeters>
          </Trackpoint>
          <Trackpoint>
            <Time>2019-01-04T10:43:59.000Z</Time>
            <Position>
              <LatitudeDegrees>36.50947918184101581573486328125</LatitudeDegrees>
              <LongitudeDegrees>-5.405213423073291778564453125</LongitudeDegrees>
            </Position>
            <AltitudeMeters>195.8000030517578125</AltitudeMeters>
            <DistanceMeters>6231.8505052949</DistanceMeters>
          </Trackpoint>
          <Trackpoint>
            <Time>2019-01-04T10:44:00.000Z</Time>
            <Position>
              <LatitudeDegrees>36.50946945883333683013916015625</LatitudeDegrees>
              <LongitudeDegrees>-5.40520546026527881622314453125</LongitudeDegrees>
            </Position>
            <AltitudeMeters>195.8000030517578125</AltitudeMeters>
            <DistanceMeters>6233.1464968915</DistanceMeters>
          </Trackpoint>
          <Trackpoint>
            <Time>2019-01-04T10:44:01.000Z</Time>
            <Position>
              <LatitudeDegrees>36.50945688597857952117919921875</LatitudeDegrees>
              <LongitudeDegrees>-5.40519959293305873870849609375</LongitudeDegrees>
            </Position>
            <AltitudeMeters>195.8000030517578125</AltitudeMeters>
            <DistanceMeters>6234.6369326684</DistanceMeters>
          </Trackpoint>
          <Trackpoint>
            <Time>2019-01-04T10:44:02.000Z</Time>
            <Position>
              <LatitudeDegrees>36.5094460733234882354736328125</LatitudeDegrees>
              <LongitudeDegrees>-5.405193977057933807373046875</LongitudeDegrees>
            </Position>
            <AltitudeMeters>196</AltitudeMeters>
            <DistanceMeters>6235.9398733315</DistanceMeters>
          </Trackpoint>
          <Trackpoint>
            <Time>2019-01-04T10:44:03.000Z</Time>
            <Position>
              <LatitudeDegrees>36.5094386972486972808837890625</LatitudeDegrees>
              <LongitudeDegrees>-5.4051897861063480377197265625</LongitudeDegrees>
            </Position>
            <AltitudeMeters>196</AltitudeMeters>
            <DistanceMeters>6236.8413758994</DistanceMeters>
          </Trackpoint>
          <Trackpoint>
            <Time>2019-01-04T10:44:04.000Z</Time>
            <Position>
              <LatitudeDegrees>36.50942805223166942596435546875</LatitudeDegrees>
              <LongitudeDegrees>-5.40518165566027164459228515625</LongitudeDegrees>
            </Position>
            <AltitudeMeters>195.8000030517578125</AltitudeMeters>
            <DistanceMeters>6238.2314968866</DistanceMeters>
          </Trackpoint>
          <Trackpoint>
            <Time>2019-01-04T10:44:05.000Z</Time>
            <Position>
              <LatitudeDegrees>36.509421430528163909912109375</LatitudeDegrees>
              <LongitudeDegrees>-5.4051736928522586822509765625</LongitudeDegrees>
            </Position>
            <AltitudeMeters>195.8000030517578125</AltitudeMeters>
            <DistanceMeters>6239.2549659225</DistanceMeters>
          </Trackpoint>
          <Trackpoint>
            <Time>2019-01-04T10:44:06.000Z</Time>
            <Position>
              <LatitudeDegrees>36.50941330008208751678466796875</LatitudeDegrees>
              <LongitudeDegrees>-5.40516505949199199676513671875</LongitudeDegrees>
            </Position>
            <AltitudeMeters>195.8000030517578125</AltitudeMeters>
            <DistanceMeters>6240.4456472408</DistanceMeters>
          </Trackpoint>
          <Trackpoint>
            <Time>2019-01-04T10:44:07.000Z</Time>
            <Position>
              <LatitudeDegrees>36.50940391235053539276123046875</LatitudeDegrees>
              <LongitudeDegrees>-5.405158102512359619140625</LongitudeDegrees>
            </Position>
            <AltitudeMeters>195.600006103515625</AltitudeMeters>
            <DistanceMeters>6241.6625829568</DistanceMeters>
          </Trackpoint>
          <Trackpoint>
            <Time>2019-01-04T10:44:08.000Z</Time>
            <Position>
              <LatitudeDegrees>36.50939318351447582244873046875</LatitudeDegrees>
              <LongitudeDegrees>-5.40515382774174213409423828125</LongitudeDegrees>
            </Position>
            <AltitudeMeters>195.399993896484375</AltitudeMeters>
            <DistanceMeters>6242.9160714096</DistanceMeters>
          </Trackpoint>
          <Trackpoint>
            <Time>2019-01-04T10:44:09.000Z</Time>
            <Position>
              <LatitudeDegrees>36.50938195176422595977783203125</LatitudeDegrees>
              <LongitudeDegrees>-5.40515399537980556488037109375</LongitudeDegrees>
            </Position>
            <AltitudeMeters>195.399993896484375</AltitudeMeters>
            <DistanceMeters>6244.1695598623</DistanceMeters>
          </Trackpoint>
          <Trackpoint>
            <Time>2019-01-04T10:44:10.000Z</Time>
            <Position>
              <LatitudeDegrees>36.50937139056622982025146484375</LatitudeDegrees>
              <LongitudeDegrees>-5.40515399537980556488037109375</LongitudeDegrees>
            </Position>
            <AltitudeMeters>195.399993896484375</AltitudeMeters>
            <DistanceMeters>6245.3488103753</DistanceMeters>
          </Trackpoint>
          <Trackpoint>
            <Time>2019-01-04T10:44:11.000Z</Time>
            <Position>
              <LatitudeDegrees>36.50935647077858448028564453125</LatitudeDegrees>
              <LongitudeDegrees>-5.4051569290459156036376953125</LongitudeDegrees>
            </Position>
            <AltitudeMeters>195.399993896484375</AltitudeMeters>
            <DistanceMeters>6247.0326880441</DistanceMeters>
          </Trackpoint>
          <Trackpoint>
            <Time>2019-01-04T10:44:12.000Z</Time>
            <Position>
              <LatitudeDegrees>36.50934456847608089447021484375</LatitudeDegrees>
              <LongitudeDegrees>-5.40515734814107418060302734375</LongitudeDegrees>
            </Position>
            <AltitudeMeters>195.399993896484375</AltitudeMeters>
            <DistanceMeters>6248.3562570185</DistanceMeters>
          </Trackpoint>
          <Trackpoint>
            <Time>2019-01-04T10:44:13.000Z</Time>
            <Position>
              <LatitudeDegrees>36.50933585129678249359130859375</LatitudeDegrees>
              <LongitudeDegrees>-5.4051599465310573577880859375</LongitudeDegrees>
            </Position>
            <AltitudeMeters>195.399993896484375</AltitudeMeters>
            <DistanceMeters>6249.3574255784</DistanceMeters>
          </Trackpoint>
          <Trackpoint>
            <Time>2019-01-04T10:44:14.000Z</Time>
            <Position>
              <LatitudeDegrees>36.5093250386416912078857421875</LatitudeDegrees>
              <LongitudeDegrees>-5.405163466930389404296875</LongitudeDegrees>
            </Position>
            <AltitudeMeters>195.399993896484375</AltitudeMeters>
            <DistanceMeters>6250.600061113</DistanceMeters>
          </Trackpoint>
          <Trackpoint>
            <Time>2019-01-04T10:44:15.000Z</Time>
            <Position>
              <LatitudeDegrees>36.50931305252015590667724609375</LatitudeDegrees>
              <LongitudeDegrees>-5.4051612876355648040771484375</LongitudeDegrees>
            </Position>
            <AltitudeMeters>195.399993896484375</AltitudeMeters>
            <DistanceMeters>6251.9506444839</DistanceMeters>
          </Trackpoint>
          <Trackpoint>
            <Time>2019-01-04T10:44:16.000Z</Time>
            <Position>
              <LatitudeDegrees>36.50930366478860378265380859375</LatitudeDegrees>
              <LongitudeDegrees>-5.40515801869332790374755859375</LongitudeDegrees>
            </Position>
            <AltitudeMeters>195.399993896484375</AltitudeMeters>
            <DistanceMeters>6253.0382749424</DistanceMeters>
          </Trackpoint>
          <Trackpoint>
            <Time>2019-01-04T10:44:17.000Z</Time>
            <Position>
              <LatitudeDegrees>36.5092955343425273895263671875</LatitudeDegrees>
              <LongitudeDegrees>-5.405157767236232757568359375</LongitudeDegrees>
            </Position>
            <AltitudeMeters>195.600006103515625</AltitudeMeters>
            <DistanceMeters>6253.9397775103</DistanceMeters>
          </Trackpoint>
          <Trackpoint>
            <Time>2019-01-04T10:44:18.000Z</Time>
            <Position>
              <LatitudeDegrees>36.5092861466109752655029296875</LatitudeDegrees>
              <LongitudeDegrees>-5.4051535762846469879150390625</LongitudeDegrees>
            </Position>
            <AltitudeMeters>195.600006103515625</AltitudeMeters>
            <DistanceMeters>6255.0520366855</DistanceMeters>
          </Trackpoint>
          <Trackpoint>
            <Time>2019-01-04T10:44:19.000Z</Time>
            <Position>
              <LatitudeDegrees>36.50927885435521602630615234375</LatitudeDegrees>
              <LongitudeDegrees>-5.40514728985726833343505859375</LongitudeDegrees>
            </Position>
            <AltitudeMeters>195.8000030517578125</AltitudeMeters>
            <DistanceMeters>6256.04414471</DistanceMeters>
          </Trackpoint>
          <Trackpoint>
            <Time>2019-01-04T10:44:20.000Z</Time>
            <Position>
              <LatitudeDegrees>36.509272567927837371826171875</LatitudeDegrees>
              <LongitudeDegrees>-5.4051415063440799713134765625</LongitudeDegrees>
            </Position>
            <AltitudeMeters>195.600006103515625</AltitudeMeters>
            <DistanceMeters>6256.9150789333</DistanceMeters>
          </Trackpoint>
          <Trackpoint>
            <Time>2019-01-04T10:44:21.000Z</Time>
            <Position>
              <LatitudeDegrees>36.50926561094820499420166015625</LatitudeDegrees>
              <LongitudeDegrees>-5.4051354713737964630126953125</LongitudeDegrees>
            </Position>
            <AltitudeMeters>195.8000030517578125</AltitudeMeters>
            <DistanceMeters>6257.8509835305</DistanceMeters>
          </Trackpoint>
          <Trackpoint>
            <Time>2019-01-04T10:44:22.000Z</Time>
            <Position>
              <LatitudeDegrees>36.50925588794052600860595703125</LatitudeDegrees>
              <LongitudeDegrees>-5.40513555519282817840576171875</LongitudeDegrees>
            </Position>
            <AltitudeMeters>195.600006103515625</AltitudeMeters>
            <DistanceMeters>6258.9344547751</DistanceMeters>
          </Trackpoint>
          <Trackpoint>
            <Time>2019-01-04T10:44:23.000Z</Time>
            <Position>
              <LatitudeDegrees>36.509242393076419830322265625</LatitudeDegrees>
              <LongitudeDegrees>-5.4051388241350650787353515625</LongitudeDegrees>
            </Position>
            <AltitudeMeters>195.600006103515625</AltitudeMeters>
            <DistanceMeters>6260.4667145035</DistanceMeters>
          </Trackpoint>
          <Trackpoint>
            <Time>2019-01-04T10:44:24.000Z</Time>
            <Position>
              <LatitudeDegrees>36.50922395288944244384765625</LatitudeDegrees>
              <LongitudeDegrees>-5.40513354353606700897216796875</LongitudeDegrees>
            </Position>
            <AltitudeMeters>195.600006103515625</AltitudeMeters>
            <DistanceMeters>6262.5745089931</DistanceMeters>
          </Trackpoint>
          <Trackpoint>
            <Time>2019-01-04T10:44:25.000Z</Time>
            <Position>
              <LatitudeDegrees>36.50921179912984371185302734375</LatitudeDegrees>
              <LongitudeDegrees>-5.4051277600228786468505859375</LongitudeDegrees>
            </Position>
            <AltitudeMeters>195.8000030517578125</AltitudeMeters>
            <DistanceMeters>6264.0250288349</DistanceMeters>
          </Trackpoint>
          <Trackpoint>
            <Time>2019-01-04T10:44:26.000Z</Time>
            <Position>
              <LatitudeDegrees>36.5091989748179912567138671875</LatitudeDegrees>
              <LongitudeDegrees>-5.4051280952990055084228515625</LongitudeDegrees>
            </Position>
            <AltitudeMeters>195.600006103515625</AltitudeMeters>
            <DistanceMeters>6265.4535935959</DistanceMeters>
          </Trackpoint>
          <Trackpoint>
            <Time>2019-01-04T10:44:27.000Z</Time>
            <Position>
              <LatitudeDegrees>36.50918581523001194000244140625</LatitudeDegrees>
              <LongitudeDegrees>-5.4051311127841472625732421875</LongitudeDegrees>
            </Position>
            <AltitudeMeters>195.600006103515625</AltitudeMeters>
            <DistanceMeters>6266.9379583261</DistanceMeters>
          </Trackpoint>
          <Trackpoint>
            <Time>2019-01-04T10:44:28.000Z</Time>
            <Position>
              <LatitudeDegrees>36.509174667298793792724609375</LatitudeDegrees>
              <LongitudeDegrees>-5.40513371117413043975830078125</LongitudeDegrees>
            </Position>
            <AltitudeMeters>195.399993896484375</AltitudeMeters>
            <DistanceMeters>6268.1986301526</DistanceMeters>
          </Trackpoint>
          <Trackpoint>
            <Time>2019-01-04T10:44:29.000Z</Time>
            <Position>
              <LatitudeDegrees>36.5091620944440364837646484375</LatitudeDegrees>
              <LongitudeDegrees>-5.405134297907352447509765625</LongitudeDegrees>
            </Position>
            <AltitudeMeters>195.1999969482421875</AltitudeMeters>
            <DistanceMeters>6269.5984610668</DistanceMeters>
          </Trackpoint>
          <Trackpoint>
            <Time>2019-01-04T10:44:30.000Z</Time>
            <Position>
              <LatitudeDegrees>36.509148180484771728515625</LatitudeDegrees>
              <LongitudeDegrees>-5.40513387881219387054443359375</LongitudeDegrees>
            </Position>
            <AltitudeMeters>195</AltitudeMeters>
            <DistanceMeters>6271.1482998759</DistanceMeters>
          </Trackpoint>
          <Trackpoint>
            <Time>2019-01-04T10:44:31.000Z</Time>
            <Position>
              <LatitudeDegrees>36.5091372840106487274169921875</LatitudeDegrees>
              <LongitudeDegrees>-5.4051344655454158782958984375</LongitudeDegrees>
            </Position>
            <AltitudeMeters>195</AltitudeMeters>
            <DistanceMeters>6272.3577924901</DistanceMeters>
          </Trackpoint>
          <Trackpoint>
            <Time>2019-01-04T10:44:32.000Z</Time>
            <Position>
              <LatitudeDegrees>36.50912177748978137969970703125</LatitudeDegrees>
              <LongitudeDegrees>-5.40513874031603336334228515625</LongitudeDegrees>
            </Position>
            <AltitudeMeters>195</AltitudeMeters>
            <DistanceMeters>6274.1253915537</DistanceMeters>
          </Trackpoint>
          <Trackpoint>
            <Time>2019-01-04T10:44:33.000Z</Time>
            <Position>
              <LatitudeDegrees>36.50911021046340465545654296875</LatitudeDegrees>
              <LongitudeDegrees>-5.40513605810701847076416015625</LongitudeDegrees>
            </Position>
            <AltitudeMeters>195.1999969482421875</AltitudeMeters>
            <DistanceMeters>6275.4352444174</DistanceMeters>
          </Trackpoint>
          <Trackpoint>
            <Time>2019-01-04T10:44:34.000Z</Time>
            <Position>
              <LatitudeDegrees>36.50909998454153537750244140625</LatitudeDegrees>
              <LongitudeDegrees>-5.40513035841286182403564453125</LongitudeDegrees>
            </Position>
            <AltitudeMeters>195.1999969482421875</AltitudeMeters>
            <DistanceMeters>6276.6851257016</DistanceMeters>
          </Trackpoint>
          <Trackpoint>
            <Time>2019-01-04T10:44:35.000Z</Time>
            <Position>
              <LatitudeDegrees>36.50908925570547580718994140625</LatitudeDegrees>
              <LongitudeDegrees>-5.40512415580451488494873046875</LongitudeDegrees>
            </Position>
            <AltitudeMeters>195.1999969482421875</AltitudeMeters>
            <DistanceMeters>6278.0018544806</DistanceMeters>
          </Trackpoint>
          <Trackpoint>
            <Time>2019-01-04T10:44:36.000Z</Time>
            <Position>
              <LatitudeDegrees>36.5090796165168285369873046875</LatitudeDegrees>
              <LongitudeDegrees>-5.4051183722913265228271484375</LongitudeDegrees>
            </Position>
            <AltitudeMeters>195</AltitudeMeters>
            <DistanceMeters>6279.1963217585</DistanceMeters>
          </Trackpoint>
          <Trackpoint>
            <Time>2019-01-04T10:44:37.000Z</Time>
            <Position>
              <LatitudeDegrees>36.5090708993375301361083984375</LatitudeDegrees>
              <LongitudeDegrees>-5.40511409752070903778076171875</LongitudeDegrees>
            </Position>
            <AltitudeMeters>195</AltitudeMeters>
            <DistanceMeters>6280.2416156166</DistanceMeters>
          </Trackpoint>
          <Trackpoint>
            <Time>2019-01-04T10:44:38.000Z</Time>
            <Position>
              <LatitudeDegrees>36.5090628527104854583740234375</LatitudeDegrees>
              <LongitudeDegrees>-5.40511141531169414520263671875</LongitudeDegrees>
            </Position>
            <AltitudeMeters>194.8000030517578125</AltitudeMeters>
            <DistanceMeters>6281.1678214588</DistanceMeters>
          </Trackpoint>
          <Trackpoint>
            <Time>2019-01-04T10:44:39.000Z</Time>
            <Position>
              <LatitudeDegrees>36.509052626788616180419921875</LatitudeDegrees>
              <LongitudeDegrees>-5.4051089845597743988037109375</LongitudeDegrees>
            </Position>
            <AltitudeMeters>194.8000030517578125</AltitudeMeters>
            <DistanceMeters>6282.3238713339</DistanceMeters>
          </Trackpoint>
          <Trackpoint>
            <Time>2019-01-04T10:44:40.000Z</Time>
            <Position>
              <LatitudeDegrees>36.50904080830514430999755859375</LatitudeDegrees>
              <LongitudeDegrees>-5.40510806255042552947998046875</LongitudeDegrees>
            </Position>
            <AltitudeMeters>194.8000030517578125</AltitudeMeters>
            <DistanceMeters>6283.6406001128</DistanceMeters>
          </Trackpoint>
          <Trackpoint>
            <Time>2019-01-04T10:44:41.000Z</Time>
            <Position>
              <LatitudeDegrees>36.509030163288116455078125</LatitudeDegrees>
              <LongitudeDegrees>-5.40510521270334720611572265625</LongitudeDegrees>
            </Position>
            <AltitudeMeters>194.8000030517578125</AltitudeMeters>
            <DistanceMeters>6284.8500927271</DistanceMeters>
          </Trackpoint>
          <Trackpoint>
            <Time>2019-01-04T10:44:42.000Z</Time>
            <Position>
              <LatitudeDegrees>36.509018428623676300048828125</LatitudeDegrees>
              <LongitudeDegrees>-5.40510185994207859039306640625</LongitudeDegrees>
            </Position>
            <AltitudeMeters>194.8000030517578125</AltitudeMeters>
            <DistanceMeters>6286.1872371232</DistanceMeters>
          </Trackpoint>
          <Trackpoint>
            <Time>2019-01-04T10:44:43.000Z</Time>
            <Position>
              <LatitudeDegrees>36.5090061910450458526611328125</LatitudeDegrees>
              <LongitudeDegrees>-5.40510152466595172882080078125</LongitudeDegrees>
            </Position>
            <AltitudeMeters>194.8000030517578125</AltitudeMeters>
            <DistanceMeters>6287.5511270555</DistanceMeters>
          </Trackpoint>
          <Trackpoint>
            <Time>2019-01-04T10:44:44.000Z</Time>
            <Position>
              <LatitudeDegrees>36.5089937858283519744873046875</LatitudeDegrees>
              <LongitudeDegrees>-5.40510286577045917510986328125</LongitudeDegrees>
            </Position>
            <AltitudeMeters>194.8000030517578125</AltitudeMeters>
            <DistanceMeters>6288.9347369015</DistanceMeters>
          </Trackpoint>
          <Trackpoint>
            <Time>2019-01-04T10:44:45.000Z</Time>
            <Position>
              <LatitudeDegrees>36.50898230262100696563720703125</LatitudeDegrees>
              <LongitudeDegrees>-5.4051049612462520599365234375</LongitudeDegrees>
            </Position>
            <AltitudeMeters>195</AltitudeMeters>
            <DistanceMeters>6290.2272399546</DistanceMeters>
          </Trackpoint>
          <Trackpoint>
            <Time>2019-01-04T10:44:46.000Z</Time>
            <Position>
              <LatitudeDegrees>36.50897073559463024139404296875</LatitudeDegrees>
              <LongitudeDegrees>-5.40510470978915691375732421875</LongitudeDegrees>
            </Position>
            <AltitudeMeters>195</AltitudeMeters>
            <DistanceMeters>6291.5162450227</DistanceMeters>
          </Trackpoint>
          <Trackpoint>
            <Time>2019-01-04T10:44:47.000Z</Time>
            <Position>
              <LatitudeDegrees>36.50895816273987293243408203125</LatitudeDegrees>
              <LongitudeDegrees>-5.405104458332061767578125</LongitudeDegrees>
            </Position>
            <AltitudeMeters>195</AltitudeMeters>
            <DistanceMeters>6292.9128467955</DistanceMeters>
          </Trackpoint>
          <Trackpoint>
            <Time>2019-01-04T10:44:48.000Z</Time>
            <Position>
              <LatitudeDegrees>36.50894491933286190032958984375</LatitudeDegrees>
              <LongitudeDegrees>-5.4051076434552669525146484375</LongitudeDegrees>
            </Position>
            <AltitudeMeters>195</AltitudeMeters>
            <DistanceMeters>6294.4123430558</DistanceMeters>
          </Trackpoint>
          <Trackpoint>
            <Time>2019-01-04T10:44:49.000Z</Time>
            <Position>
              <LatitudeDegrees>36.508931256830692291259765625</LatitudeDegrees>
              <LongitudeDegrees>-5.405110158026218414306640625</LongitudeDegrees>
            </Position>
            <AltitudeMeters>194.8000030517578125</AltitudeMeters>
            <DistanceMeters>6295.950484801</DistanceMeters>
          </Trackpoint>
          <Trackpoint>
            <Time>2019-01-04T10:44:50.000Z</Time>
            <Position>
              <LatitudeDegrees>36.5089183486998081207275390625</LatitudeDegrees>
              <LongitudeDegrees>-5.4051106609404087066650390625</LongitudeDegrees>
            </Position>
            <AltitudeMeters>195</AltitudeMeters>
            <DistanceMeters>6297.3853567218</DistanceMeters>
          </Trackpoint>
          <Trackpoint>
            <Time>2019-01-04T10:44:51.000Z</Time>
            <Position>
              <LatitudeDegrees>36.5089086256921291351318359375</LatitudeDegrees>
              <LongitudeDegrees>-5.40511476807296276092529296875</LongitudeDegrees>
            </Position>
            <AltitudeMeters>195</AltitudeMeters>
            <DistanceMeters>6298.5256772943</DistanceMeters>
          </Trackpoint>
          <Trackpoint>
            <Time>2019-01-04T10:44:52.000Z</Time>
            <Position>
              <LatitudeDegrees>36.50889873504638671875</LatitudeDegrees>
              <LongitudeDegrees>-5.40512063540518283843994140625</LongitudeDegrees>
            </Position>
            <AltitudeMeters>195</AltitudeMeters>
            <DistanceMeters>6299.7426130103</DistanceMeters>
          </Trackpoint>
          <Trackpoint>
            <Time>2019-01-04T10:44:53.000Z</Time>
            <Position>
              <LatitudeDegrees>36.5088898502290248870849609375</LatitudeDegrees>
              <LongitudeDegrees>-5.40512658655643463134765625</LongitudeDegrees>
            </Position>
            <AltitudeMeters>195</AltitudeMeters>
            <DistanceMeters>6300.8669842577</DistanceMeters>
          </Trackpoint>
          <Trackpoint>
            <Time>2019-01-04T10:44:54.000Z</Time>
            <Position>
              <LatitudeDegrees>36.5088804624974727630615234375</LatitudeDegrees>
              <LongitudeDegrees>-5.40513270534574985504150390625</LongitudeDegrees>
            </Position>
            <AltitudeMeters>195</AltitudeMeters>
            <DistanceMeters>6302.0462347707</DistanceMeters>
          </Trackpoint>
          <Trackpoint>
            <Time>2019-01-04T10:44:55.000Z</Time>
            <Position>
              <LatitudeDegrees>36.5088687278330326080322265625</LatitudeDegrees>
              <LongitudeDegrees>-5.40514402091503143310546875</LongitudeDegrees>
            </Position>
            <AltitudeMeters>195</AltitudeMeters>
            <DistanceMeters>6303.7030821502</DistanceMeters>
          </Trackpoint>
          <Trackpoint>
            <Time>2019-01-04T10:44:56.000Z</Time>
            <Position>
              <LatitudeDegrees>36.50885825045406818389892578125</LatitudeDegrees>
              <LongitudeDegrees>-5.4051559232175350189208984375</LongitudeDegrees>
            </Position>
            <AltitudeMeters>195.1999969482421875</AltitudeMeters>
            <DistanceMeters>6305.2817844966</DistanceMeters>
          </Trackpoint>
          <Trackpoint>
            <Time>2019-01-04T10:44:57.000Z</Time>
            <Position>
              <LatitudeDegrees>36.50884735397994518280029296875</LatitudeDegrees>
              <LongitudeDegrees>-5.40516774170100688934326171875</LongitudeDegrees>
            </Position>
            <AltitudeMeters>195.1999969482421875</AltitudeMeters>
            <DistanceMeters>6306.8888320575</DistanceMeters>
          </Trackpoint>
          <Trackpoint>
            <Time>2019-01-04T10:44:58.000Z</Time>
            <Position>
              <LatitudeDegrees>36.50883830152451992034912109375</LatitudeDegrees>
              <LongitudeDegrees>-5.4051757045090198516845703125</LongitudeDegrees>
            </Position>
            <AltitudeMeters>195.399993896484375</AltitudeMeters>
            <DistanceMeters>6308.120519048</DistanceMeters>
          </Trackpoint>
          <Trackpoint>
            <Time>2019-01-04T10:44:59.000Z</Time>
            <Position>
              <LatitudeDegrees>36.508829332888126373291015625</LatitudeDegrees>
              <LongitudeDegrees>-5.40518349967896938323974609375</LongitudeDegrees>
            </Position>
            <AltitudeMeters>195.600006103515625</AltitudeMeters>
            <DistanceMeters>6309.337454764</DistanceMeters>
          </Trackpoint>
          <Trackpoint>
            <Time>2019-01-04T10:45:00.000Z</Time>
            <Position>
              <LatitudeDegrees>36.50881969369947910308837890625</LatitudeDegrees>
              <LongitudeDegrees>-5.4051928035914897918701171875</LongitudeDegrees>
            </Position>
            <AltitudeMeters>195.8000030517578125</AltitudeMeters>
            <DistanceMeters>6310.6947077229</DistanceMeters>
          </Trackpoint>
          <Trackpoint>
            <Time>2019-01-04T10:45:01.000Z</Time>
            <Position>
              <LatitudeDegrees>36.508807875216007232666015625</LatitudeDegrees>
              <LongitudeDegrees>-5.4052050411701202392578125</LongitudeDegrees>
            </Position>
            <AltitudeMeters>196</AltitudeMeters>
            <DistanceMeters>6312.4051885816</DistanceMeters>
          </Trackpoint>
          <Trackpoint>
            <Time>2019-01-04T10:45:02.000Z</Time>
            <Position>
              <LatitudeDegrees>36.50879689492285251617431640625</LatitudeDegrees>
              <LongitudeDegrees>-5.405214764177799224853515625</LongitudeDegrees>
            </Position>
            <AltitudeMeters>196</AltitudeMeters>
            <DistanceMeters>6313.9076928615</DistanceMeters>
          </Trackpoint>
          <Trackpoint>
            <Time>2019-01-04T10:45:03.000Z</Time>
            <Position>
              <LatitudeDegrees>36.50878583081066608428955078125</LatitudeDegrees>
              <LongitudeDegrees>-5.40522188879549503326416015625</LongitudeDegrees>
            </Position>
            <AltitudeMeters>196.1999969482421875</AltitudeMeters>
            <DistanceMeters>6315.2978138486</DistanceMeters>
          </Trackpoint>
          <Trackpoint>
            <Time>2019-01-04T10:45:04.000Z</Time>
            <Position>
              <LatitudeDegrees>36.5087738446891307830810546875</LatitudeDegrees>
              <LongitudeDegrees>-5.40522691793739795684814453125</LongitudeDegrees>
            </Position>
            <AltitudeMeters>196.399993896484375</AltitudeMeters>
            <DistanceMeters>6316.7104875173</DistanceMeters>
          </Trackpoint>
          <Trackpoint>
            <Time>2019-01-04T10:45:05.000Z</Time>
            <Position>
              <LatitudeDegrees>36.50876135565340518951416015625</LatitudeDegrees>
              <LongitudeDegrees>-5.405233539640903472900390625</LongitudeDegrees>
            </Position>
            <AltitudeMeters>196.399993896484375</AltitudeMeters>
            <DistanceMeters>6318.2249641321</DistanceMeters>
          </Trackpoint>
          <Trackpoint>
            <Time>2019-01-04T10:45:06.000Z</Time>
            <Position>
              <LatitudeDegrees>36.50875163264572620391845703125</LatitudeDegrees>
              <LongitudeDegrees>-5.405242256820201873779296875</LongitudeDegrees>
            </Position>
            <AltitudeMeters>196.600006103515625</AltitudeMeters>
            <DistanceMeters>6319.5553381333</DistanceMeters>
          </Trackpoint>
          <Trackpoint>
            <Time>2019-01-04T10:45:07.000Z</Time>
            <Position>
              <LatitudeDegrees>36.5087429992854595184326171875</LatitudeDegrees>
              <LongitudeDegrees>-5.405253656208515167236328125</LongitudeDegrees>
            </Position>
            <AltitudeMeters>196.8000030517578125</AltitudeMeters>
            <DistanceMeters>6320.9551690475</DistanceMeters>
          </Trackpoint>
          <Trackpoint>
            <Time>2019-01-04T10:45:08.000Z</Time>
            <Position>
              <LatitudeDegrees>36.50873486883938312530517578125</LatitudeDegrees>
              <LongitudeDegrees>-5.405264385044574737548828125</LongitudeDegrees>
            </Position>
            <AltitudeMeters>197</AltitudeMeters>
            <DistanceMeters>6322.2787380219</DistanceMeters>
          </Trackpoint>
          <Trackpoint>
            <Time>2019-01-04T10:45:09.000Z</Time>
            <Position>
              <LatitudeDegrees>36.50872833095490932464599609375</LatitudeDegrees>
              <LongitudeDegrees>-5.40526916272938251495361328125</LongitudeDegrees>
            </Position>
            <AltitudeMeters>197.1999969482421875</AltitudeMeters>
            <DistanceMeters>6323.1233539341</DistanceMeters>
          </Trackpoint>
          <Trackpoint>
            <Time>2019-01-04T10:45:10.000Z</Time>
            <Position>
              <LatitudeDegrees>36.5087175182998180389404296875</LatitudeDegrees>
              <LongitudeDegrees>-5.405276119709014892578125</LongitudeDegrees>
            </Position>
            <AltitudeMeters>197.399993896484375</AltitudeMeters>
            <DistanceMeters>6324.480606893</DistanceMeters>
          </Trackpoint>
          <Trackpoint>
            <Time>2019-01-04T10:45:11.000Z</Time>
            <Position>
              <LatitudeDegrees>36.50871098041534423828125</LatitudeDegrees>
              <LongitudeDegrees>-5.4052940569818019866943359375</LongitudeDegrees>
            </Position>
            <AltitudeMeters>197.600006103515625</AltitudeMeters>
            <DistanceMeters>6326.2430898849</DistanceMeters>
          </Trackpoint>
          <Trackpoint>
            <Time>2019-01-04T10:45:12.000Z</Time>
            <Position>
              <LatitudeDegrees>36.50870201177895069122314453125</LatitudeDegrees>
              <LongitudeDegrees>-5.4053047858178615570068359375</LongitudeDegrees>
            </Position>
            <AltitudeMeters>197.8000030517578125</AltitudeMeters>
            <DistanceMeters>6327.626699731</DistanceMeters>
          </Trackpoint>
          <Trackpoint>
            <Time>2019-01-04T10:45:13.000Z</Time>
            <Position>
              <LatitudeDegrees>36.5086967311799526214599609375</LatitudeDegrees>
              <LongitudeDegrees>-5.40531207807362079620361328125</LongitudeDegrees>
            </Position>
            <AltitudeMeters>197.8000030517578125</AltitudeMeters>
            <DistanceMeters>6328.4976339543</DistanceMeters>
          </Trackpoint>
          <Trackpoint>
            <Time>2019-01-04T10:45:14.000Z</Time>
            <Position>
              <LatitudeDegrees>36.5086880140006542205810546875</LatitudeDegrees>
              <LongitudeDegrees>-5.40531970560550689697265625</LongitudeDegrees>
            </Position>
            <AltitudeMeters>198</AltitudeMeters>
            <DistanceMeters>6329.6845172363</DistanceMeters>
          </Trackpoint>
          <Trackpoint>
            <Time>2019-01-04T10:45:15.000Z</Time>
            <Position>
              <LatitudeDegrees>36.508678458631038665771484375</LatitudeDegrees>
              <LongitudeDegrees>-5.405328758060932159423828125</LongitudeDegrees>
            </Position>
            <AltitudeMeters>198</AltitudeMeters>
            <DistanceMeters>6331.0148912375</DistanceMeters>
          </Trackpoint>
          <Trackpoint>
            <Time>2019-01-04T10:45:16.000Z</Time>
            <Position>
              <LatitudeDegrees>36.50866965763270854949951171875</LatitudeDegrees>
              <LongitudeDegrees>-5.40533437393605709075927734375</LongitudeDegrees>
            </Position>
            <AltitudeMeters>198</AltitudeMeters>
            <DistanceMeters>6332.1149049845</DistanceMeters>
          </Trackpoint>
          <Trackpoint>
            <Time>2019-01-04T10:45:17.000Z</Time>
            <Position>
              <LatitudeDegrees>36.50865943171083927154541015625</LatitudeDegrees>
              <LongitudeDegrees>-5.40533890016376972198486328125</LongitudeDegrees>
            </Position>
            <AltitudeMeters>198</AltitudeMeters>
            <DistanceMeters>6333.3243975987</DistanceMeters>
          </Trackpoint>
          <Trackpoint>
            <Time>2019-01-04T10:45:18.000Z</Time>
            <Position>
              <LatitudeDegrees>36.50864903815090656280517578125</LatitudeDegrees>
              <LongitudeDegrees>-5.40534594096243381500244140625</LongitudeDegrees>
            </Position>
            <AltitudeMeters>198</AltitudeMeters>
            <DistanceMeters>6334.6411263776</DistanceMeters>
          </Trackpoint>
          <Trackpoint>
            <Time>2019-01-04T10:45:19.000Z</Time>
            <Position>
              <LatitudeDegrees>36.50863864459097385406494140625</LatitudeDegrees>
              <LongitudeDegrees>-5.40534493513405323028564453125</LongitudeDegrees>
            </Position>
            <AltitudeMeters>198</AltitudeMeters>
            <DistanceMeters>6335.8049611883</DistanceMeters>
          </Trackpoint>
          <Trackpoint>
            <Time>2019-01-04T10:45:20.000Z</Time>
            <Position>
              <LatitudeDegrees>36.508628167212009429931640625</LatitudeDegrees>
              <LongitudeDegrees>-5.4053430072963237762451171875</LongitudeDegrees>
            </Position>
            <AltitudeMeters>198</AltitudeMeters>
            <DistanceMeters>6336.9842117013</DistanceMeters>
          </Trackpoint>
          <Trackpoint>
            <Time>2019-01-04T10:45:21.000Z</Time>
            <Position>
              <LatitudeDegrees>36.5086155943572521209716796875</LatitudeDegrees>
              <LongitudeDegrees>-5.40533353574573993682861328125</LongitudeDegrees>
            </Position>
            <AltitudeMeters>198</AltitudeMeters>
            <DistanceMeters>6338.6191131135</DistanceMeters>
          </Trackpoint>
          <Trackpoint>
            <Time>2019-01-04T10:45:22.000Z</Time>
            <Position>
              <LatitudeDegrees>36.50860310532152652740478515625</LatitudeDegrees>
              <LongitudeDegrees>-5.405324399471282958984375</LongitudeDegrees>
            </Position>
            <AltitudeMeters>197.8000030517578125</AltitudeMeters>
            <DistanceMeters>6340.2317699325</DistanceMeters>
          </Trackpoint>
          <Trackpoint>
            <Time>2019-01-04T10:45:23.000Z</Time>
            <Position>
              <LatitudeDegrees>36.50859070010483264923095703125</LatitudeDegrees>
              <LongitudeDegrees>-5.4053168557584285736083984375</LongitudeDegrees>
            </Position>
            <AltitudeMeters>197.8000030517578125</AltitudeMeters>
            <DistanceMeters>6341.7640296609</DistanceMeters>
          </Trackpoint>
          <Trackpoint>
            <Time>2019-01-04T10:45:24.000Z</Time>
            <Position>
              <LatitudeDegrees>36.5085783787071704864501953125</LatitudeDegrees>
              <LongitudeDegrees>-5.405311994254589080810546875</LongitudeDegrees>
            </Position>
            <AltitudeMeters>197.600006103515625</AltitudeMeters>
            <DistanceMeters>6343.1989015817</DistanceMeters>
          </Trackpoint>
          <Trackpoint>
            <Time>2019-01-04T10:45:25.000Z</Time>
            <Position>
              <LatitudeDegrees>36.5085646323859691619873046875</LatitudeDegrees>
              <LongitudeDegrees>-5.40530637837946414947509765625</LongitudeDegrees>
            </Position>
            <AltitudeMeters>197.600006103515625</AltitudeMeters>
            <DistanceMeters>6344.8115584007</DistanceMeters>
          </Trackpoint>
          <Trackpoint>
            <Time>2019-01-04T10:45:26.000Z</Time>
            <Position>
              <LatitudeDegrees>36.50855264626443386077880859375</LatitudeDegrees>
              <LongitudeDegrees>-5.4053051210939884185791015625</LongitudeDegrees>
            </Position>
            <AltitudeMeters>197.399993896484375</AltitudeMeters>
            <DistanceMeters>6346.1487027968</DistanceMeters>
          </Trackpoint>
          <Trackpoint>
            <Time>2019-01-04T10:45:27.000Z</Time>
            <Position>
              <LatitudeDegrees>36.508538313210010528564453125</LatitudeDegrees>
              <LongitudeDegrees>-5.40530227124691009521484375</LongitudeDegrees>
            </Position>
            <AltitudeMeters>197.399993896484375</AltitudeMeters>
            <DistanceMeters>6347.7669494309</DistanceMeters>
          </Trackpoint>
          <Trackpoint>
            <Time>2019-01-04T10:45:28.000Z</Time>
            <Position>
              <LatitudeDegrees>36.50852481834590435028076171875</LatitudeDegrees>
              <LongitudeDegrees>-5.405297242105007171630859375</LongitudeDegrees>
            </Position>
            <AltitudeMeters>197.399993896484375</AltitudeMeters>
            <DistanceMeters>6349.3341701533</DistanceMeters>
          </Trackpoint>
          <Trackpoint>
            <Time>2019-01-04T10:45:29.000Z</Time>
            <Position>
              <LatitudeDegrees>36.5085136704146862030029296875</LatitudeDegrees>
              <LongitudeDegrees>-5.40529129095375537872314453125</LongitudeDegrees>
            </Position>
            <AltitudeMeters>197.399993896484375</AltitudeMeters>
            <DistanceMeters>6350.6847535242</DistanceMeters>
          </Trackpoint>
          <Trackpoint>
            <Time>2019-01-04T10:45:30.000Z</Time>
            <Position>
              <LatitudeDegrees>36.5085016004741191864013671875</LatitudeDegrees>
              <LongitudeDegrees>-5.405287183821201324462890625</LongitudeDegrees>
            </Position>
            <AltitudeMeters>197.399993896484375</AltitudeMeters>
            <DistanceMeters>6352.0781186721</DistanceMeters>
          </Trackpoint>
          <Trackpoint>
            <Time>2019-01-04T10:45:31.000Z</Time>
            <Position>
              <LatitudeDegrees>36.508490703999996185302734375</LatitudeDegrees>
              <LongitudeDegrees>-5.4052806459367275238037109375</LongitudeDegrees>
            </Position>
            <AltitudeMeters>197.399993896484375</AltitudeMeters>
            <DistanceMeters>6353.4219993546</DistanceMeters>
          </Trackpoint>
          <Trackpoint>
            <Time>2019-01-04T10:45:32.000Z</Time>
            <Position>
              <LatitudeDegrees>36.50848089717328548431396484375</LatitudeDegrees>
              <LongitudeDegrees>-5.4052793048322200775146484375</LongitudeDegrees>
            </Position>
            <AltitudeMeters>197.399993896484375</AltitudeMeters>
            <DistanceMeters>6354.5137731822</DistanceMeters>
          </Trackpoint>
          <Trackpoint>
            <Time>2019-01-04T10:45:33.000Z</Time>
            <Position>
              <LatitudeDegrees>36.508471928536891937255859375</LatitudeDegrees>
              <LongitudeDegrees>-5.40527469478547573089599609375</LongitudeDegrees>
            </Position>
            <AltitudeMeters>197.1999969482421875</AltitudeMeters>
            <DistanceMeters>6355.5930691848</DistanceMeters>
          </Trackpoint>
          <Trackpoint>
            <Time>2019-01-04T10:45:34.000Z</Time>
            <Position>
              <LatitudeDegrees>36.5084610320627689361572265625</LatitudeDegrees>
              <LongitudeDegrees>-5.4052725993096828460693359375</LongitudeDegrees>
            </Position>
            <AltitudeMeters>197.1999969482421875</AltitudeMeters>
            <DistanceMeters>6356.8174027544</DistanceMeters>
          </Trackpoint>
          <Trackpoint>
            <Time>2019-01-04T10:45:35.000Z</Time>
            <Position>
              <LatitudeDegrees>36.50844971649348735809326171875</LatitudeDegrees>
              <LongitudeDegrees>-5.4052699171006679534912109375</LongitudeDegrees>
            </Position>
            <AltitudeMeters>197.1999969482421875</AltitudeMeters>
            <DistanceMeters>6358.0923199125</DistanceMeters>
          </Trackpoint>
          <Trackpoint>
            <Time>2019-01-04T10:45:36.000Z</Time>
            <Position>
              <LatitudeDegrees>36.50843831710517406463623046875</LatitudeDegrees>
              <LongitudeDegrees>-5.405265390872955322265625</LongitudeDegrees>
            </Position>
            <AltitudeMeters>197.1999969482421875</AltitudeMeters>
            <DistanceMeters>6359.4226939137</DistanceMeters>
          </Trackpoint>
          <Trackpoint>
            <Time>2019-01-04T10:45:37.000Z</Time>
            <Position>
              <LatitudeDegrees>36.50842926464974880218505859375</LatitudeDegrees>
              <LongitudeDegrees>-5.40525943972170352935791015625</LongitudeDegrees>
            </Position>
            <AltitudeMeters>197.399993896484375</AltitudeMeters>
            <DistanceMeters>6360.5630144861</DistanceMeters>
          </Trackpoint>
          <Trackpoint>
            <Time>2019-01-04T10:45:38.000Z</Time>
            <Position>
              <LatitudeDegrees>36.50842021219432353973388671875</LatitudeDegrees>
              <LongitudeDegrees>-5.405253656208515167236328125</LongitudeDegrees>
            </Position>
            <AltitudeMeters>197.399993896484375</AltitudeMeters>
            <DistanceMeters>6361.6953884769</DistanceMeters>
          </Trackpoint>
          <Trackpoint>
            <Time>2019-01-04T10:45:39.000Z</Time>
            <Position>
              <LatitudeDegrees>36.50840965099632740020751953125</LatitudeDegrees>
              <LongitudeDegrees>-5.40524703450500965118408203125</LongitudeDegrees>
            </Position>
            <AltitudeMeters>197.399993896484375</AltitudeMeters>
            <DistanceMeters>6363.0121172558</DistanceMeters>
          </Trackpoint>
          <Trackpoint>
            <Time>2019-01-04T10:45:40.000Z</Time>
            <Position>
              <LatitudeDegrees>36.5084016881883144378662109375</LatitudeDegrees>
              <LongitudeDegrees>-5.40523949079215526580810546875</LongitudeDegrees>
            </Position>
            <AltitudeMeters>197.600006103515625</AltitudeMeters>
            <DistanceMeters>6364.124376431</DistanceMeters>
          </Trackpoint>
          <Trackpoint>
            <Time>2019-01-04T10:45:41.000Z</Time>
            <Position>
              <LatitudeDegrees>36.50839288718998432159423828125</LatitudeDegrees>
              <LongitudeDegrees>-5.40523244999349117279052734375</LongitudeDegrees>
            </Position>
            <AltitudeMeters>197.600006103515625</AltitudeMeters>
            <DistanceMeters>6365.2882112417</DistanceMeters>
          </Trackpoint>
          <Trackpoint>
            <Time>2019-01-04T10:45:42.000Z</Time>
            <Position>
              <LatitudeDegrees>36.50838098488748073577880859375</LatitudeDegrees>
              <LongitudeDegrees>-5.4052196256816387176513671875</LongitudeDegrees>
            </Position>
            <AltitudeMeters>197.600006103515625</AltitudeMeters>
            <DistanceMeters>6367.0404172772</DistanceMeters>
          </Trackpoint>
          <Trackpoint>
            <Time>2019-01-04T10:45:43.000Z</Time>
            <Position>
              <LatitudeDegrees>36.50837025605142116546630859375</LatitudeDegrees>
              <LongitudeDegrees>-5.40521183051168918609619140625</LongitudeDegrees>
            </Position>
            <AltitudeMeters>197.600006103515625</AltitudeMeters>
            <DistanceMeters>6368.4240271233</DistanceMeters>
          </Trackpoint>
          <Trackpoint>
            <Time>2019-01-04T10:45:44.000Z</Time>
            <Position>
              <LatitudeDegrees>36.50835650973021984100341796875</LatitudeDegrees>
              <LongitudeDegrees>-5.40519841946661472320556640625</LongitudeDegrees>
            </Position>
            <AltitudeMeters>197.600006103515625</AltitudeMeters>
            <DistanceMeters>6370.3714952505</DistanceMeters>
          </Trackpoint>
          <Trackpoint>
            <Time>2019-01-04T10:45:45.000Z</Time>
            <Position>
              <LatitudeDegrees>36.508345864713191986083984375</LatitudeDegrees>
              <LongitudeDegrees>-5.4051847569644451141357421875</LongitudeDegrees>
            </Position>
            <AltitudeMeters>197.600006103515625</AltitudeMeters>
            <DistanceMeters>6372.0740388002</DistanceMeters>
          </Trackpoint>
          <Trackpoint>
            <Time>2019-01-04T10:45:46.000Z</Time>
            <Position>
              <LatitudeDegrees>36.5083389915525913238525390625</LatitudeDegrees>
              <LongitudeDegrees>-5.40517495013773441314697265625</LongitudeDegrees>
            </Position>
            <AltitudeMeters>197.8000030517578125</AltitudeMeters>
            <DistanceMeters>6373.2378736109</DistanceMeters>
          </Trackpoint>
          <Trackpoint>
            <Time>2019-01-04T10:45:47.000Z</Time>
            <Position>
              <LatitudeDegrees>36.50833555497229099273681640625</LatitudeDegrees>
              <LongitudeDegrees>-5.405169166624546051025390625</LongitudeDegrees>
            </Position>
            <AltitudeMeters>197.8000030517578125</AltitudeMeters>
            <DistanceMeters>6373.8823761449</DistanceMeters>
          </Trackpoint>
          <Trackpoint>
            <Time>2019-01-04T10:45:48.000Z</Time>
            <Position>
              <LatitudeDegrees>36.5083316154778003692626953125</LatitudeDegrees>
              <LongitudeDegrees>-5.4051673226058483123779296875</LongitudeDegrees>
            </Position>
            <AltitudeMeters>197.8000030517578125</AltitudeMeters>
            <DistanceMeters>6374.3479100692</DistanceMeters>
          </Trackpoint>
          <Trackpoint>
            <Time>2019-01-04T10:45:49.000Z</Time>
            <Position>
              <LatitudeDegrees>36.50833052583038806915283203125</LatitudeDegrees>
              <LongitudeDegrees>-5.40516623295843601226806640625</LongitudeDegrees>
            </Position>
            <AltitudeMeters>197.8000030517578125</AltitudeMeters>
            <DistanceMeters>6374.4822981375</DistanceMeters>
          </Trackpoint>
          <Trackpoint>
            <Time>2019-01-04T10:45:50.000Z</Time>
            <Position>
              <LatitudeDegrees>36.5083285979926586151123046875</LatitudeDegrees>
              <LongitudeDegrees>-5.40516522713005542755126953125</LongitudeDegrees>
            </Position>
            <AltitudeMeters>197.8000030517578125</AltitudeMeters>
            <DistanceMeters>6374.7150650996</DistanceMeters>
          </Trackpoint>
          <Trackpoint>
            <Time>2019-01-04T10:45:51.000Z</Time>
            <Position>
              <LatitudeDegrees>36.50832616724073886871337890625</LatitudeDegrees>
              <LongitudeDegrees>-5.4051636345684528350830078125</LongitudeDegrees>
            </Position>
            <AltitudeMeters>197.8000030517578125</AltitudeMeters>
            <DistanceMeters>6375.0155659556</DistanceMeters>
          </Trackpoint>
          <Trackpoint>
            <Time>2019-01-04T10:45:52.000Z</Time>
            <Position>
              <LatitudeDegrees>36.50832474231719970703125</LatitudeDegrees>
              <LongitudeDegrees>-5.4051616229116916656494140625</LongitudeDegrees>
            </Position>
            <AltitudeMeters>197.600006103515625</AltitudeMeters>
            <DistanceMeters>6375.2669830097</DistanceMeters>
          </Trackpoint>
          <Trackpoint>
            <Time>2019-01-04T10:45:53.000Z</Time>
            <Position>
              <LatitudeDegrees>36.5083245746791362762451171875</LatitudeDegrees>
              <LongitudeDegrees>-5.405161119997501373291015625</LongitudeDegrees>
            </Position>
            <AltitudeMeters>197.600006103515625</AltitudeMeters>
            <DistanceMeters>6375.2669830097</DistanceMeters>
          </Trackpoint>
          <Trackpoint>
            <Time>2019-01-04T10:45:54.000Z</Time>
            <Position>
              <LatitudeDegrees>36.50832348503172397613525390625</LatitudeDegrees>
              <LongitudeDegrees>-5.40515986271202564239501953125</LongitudeDegrees>
            </Position>
            <AltitudeMeters>197.600006103515625</AltitudeMeters>
            <DistanceMeters>6375.401371078</DistanceMeters>
          </Trackpoint>
          <Trackpoint>
            <Time>2019-01-04T10:45:55.000Z</Time>
            <Position>
              <LatitudeDegrees>36.508323065936565399169921875</LatitudeDegrees>
              <LongitudeDegrees>-5.405161119997501373291015625</LongitudeDegrees>
            </Position>
            <AltitudeMeters>197.399993896484375</AltitudeMeters>
            <DistanceMeters>6375.401371078</DistanceMeters>
          </Trackpoint>
          <Trackpoint>
            <Time>2019-01-04T10:45:56.000Z</Time>
            <Position>
              <LatitudeDegrees>36.50832180865108966827392578125</LatitudeDegrees>
              <LongitudeDegrees>-5.40516355074942111968994140625</LongitudeDegrees>
            </Position>
            <AltitudeMeters>197.399993896484375</AltitudeMeters>
            <DistanceMeters>6375.6341380401</DistanceMeters>
          </Trackpoint>
          <Trackpoint>
            <Time>2019-01-04T10:45:57.000Z</Time>
            <Position>
              <LatitudeDegrees>36.50832281447947025299072265625</LatitudeDegrees>
              <LongitudeDegrees>-5.4051648080348968505859375</LongitudeDegrees>
            </Position>
            <AltitudeMeters>197.399993896484375</AltitudeMeters>
            <DistanceMeters>6375.7685261084</DistanceMeters>
          </Trackpoint>
          <Trackpoint>
            <Time>2019-01-04T10:45:58.000Z</Time>
            <Position>
              <LatitudeDegrees>36.50832549668848514556884765625</LatitudeDegrees>
              <LongitudeDegrees>-5.405166484415531158447265625</LongitudeDegrees>
            </Position>
            <AltitudeMeters>197.399993896484375</AltitudeMeters>
            <DistanceMeters>6376.1111497996</DistanceMeters>
          </Trackpoint>
          <Trackpoint>
            <Time>2019-01-04T10:45:59.000Z</Time>
            <Position>
              <LatitudeDegrees>36.50832482613623142242431640625</LatitudeDegrees>
              <LongitudeDegrees>-5.40516681969165802001953125</LongitudeDegrees>
            </Position>
            <AltitudeMeters>197.600006103515625</AltitudeMeters>
            <DistanceMeters>6376.2061765139</DistanceMeters>
          </Trackpoint>
          <Trackpoint>
            <Time>2019-01-04T10:46:00.000Z</Time>
            <Position>
              <LatitudeDegrees>36.50832767598330974578857421875</LatitudeDegrees>
              <LongitudeDegrees>-5.40516857989132404327392578125</LongitudeDegrees>
            </Position>
            <AltitudeMeters>197.600006103515625</AltitudeMeters>
            <DistanceMeters>6376.5742133961</DistanceMeters>
          </Trackpoint>
          <Trackpoint>
            <Time>2019-01-04T10:46:01.000Z</Time>
            <Position>
              <LatitudeDegrees>36.50833102874457836151123046875</LatitudeDegrees>
              <LongitudeDegrees>-5.4051700048148632049560546875</LongitudeDegrees>
            </Position>
            <AltitudeMeters>197.600006103515625</AltitudeMeters>
            <DistanceMeters>6376.9773776009</DistanceMeters>
          </Trackpoint>
          <Trackpoint>
            <Time>2019-01-04T10:46:02.000Z</Time>
            <Position>
              <LatitudeDegrees>36.50833404622972011566162109375</LatitudeDegrees>
              <LongitudeDegrees>-5.4051730223000049591064453125</LongitudeDegrees>
            </Position>
            <AltitudeMeters>197.600006103515625</AltitudeMeters>
            <DistanceMeters>6377.4023499869</DistanceMeters>
          </Trackpoint>
          <Trackpoint>
            <Time>2019-01-04T10:46:03.000Z</Time>
            <Position>
              <LatitudeDegrees>36.5083349682390689849853515625</LatitudeDegrees>
              <LongitudeDegrees>-5.40517528541386127471923828125</LongitudeDegrees>
            </Position>
            <AltitudeMeters>197.600006103515625</AltitudeMeters>
            <DistanceMeters>6377.635116949</DistanceMeters>
          </Trackpoint>
          <Trackpoint>
            <Time>2019-01-04T10:46:04.000Z</Time>
            <Position>
              <LatitudeDegrees>36.50833538733422756195068359375</LatitudeDegrees>
              <LongitudeDegrees>-5.40517612360417842864990234375</LongitudeDegrees>
            </Position>
            <AltitudeMeters>197.600006103515625</AltitudeMeters>
            <DistanceMeters>6377.7695050173</DistanceMeters>
          </Trackpoint>
          <Trackpoint>
            <Time>2019-01-04T10:46:05.000Z</Time>
            <Position>
              <LatitudeDegrees>36.5083356387913227081298828125</LatitudeDegrees>
              <LongitudeDegrees>-5.40517662651836872100830078125</LongitudeDegrees>
            </Position>
            <AltitudeMeters>197.600006103515625</AltitudeMeters>
            <DistanceMeters>6377.8645317316</DistanceMeters>
          </Trackpoint>
          <Trackpoint>
            <Time>2019-01-04T10:46:06.000Z</Time>
            <Position>
              <LatitudeDegrees>36.50833589024841785430908203125</LatitudeDegrees>
              <LongitudeDegrees>-5.4051770456135272979736328125</LongitudeDegrees>
            </Position>
            <AltitudeMeters>197.600006103515625</AltitudeMeters>
            <DistanceMeters>6377.8645317316</DistanceMeters>
          </Trackpoint>
          <Trackpoint>
            <Time>2019-01-04T10:46:07.000Z</Time>
            <Position>
              <LatitudeDegrees>36.50833689607679843902587890625</LatitudeDegrees>
              <LongitudeDegrees>-5.40517662651836872100830078125</LongitudeDegrees>
            </Position>
            <AltitudeMeters>197.600006103515625</AltitudeMeters>
            <DistanceMeters>6377.9989197999</DistanceMeters>
          </Trackpoint>
          <Trackpoint>
            <Time>2019-01-04T10:46:08.000Z</Time>
            <Position>
              <LatitudeDegrees>36.5083376504480838775634765625</LatitudeDegrees>
              <LongitudeDegrees>-5.40517629124224185943603515625</LongitudeDegrees>
            </Position>
            <AltitudeMeters>197.600006103515625</AltitudeMeters>
            <DistanceMeters>6377.9989197999</DistanceMeters>
          </Trackpoint>
          <Trackpoint>
            <Time>2019-01-04T10:46:09.000Z</Time>
            <Position>
              <LatitudeDegrees>36.50833874009549617767333984375</LatitudeDegrees>
              <LongitudeDegrees>-5.40517427958548069000244140625</LongitudeDegrees>
            </Position>
            <AltitudeMeters>197.600006103515625</AltitudeMeters>
            <DistanceMeters>6378.231686762</DistanceMeters>
          </Trackpoint>
          <Trackpoint>
            <Time>2019-01-04T10:46:10.000Z</Time>
            <Position>
              <LatitudeDegrees>36.5083399973809719085693359375</LatitudeDegrees>
              <LongitudeDegrees>-5.40517528541386127471923828125</LongitudeDegrees>
            </Position>
            <AltitudeMeters>197.600006103515625</AltitudeMeters>
            <DistanceMeters>6378.4217401908</DistanceMeters>
          </Trackpoint>
          <Trackpoint>
            <Time>2019-01-04T10:46:11.000Z</Time>
            <Position>
              <LatitudeDegrees>36.50834175758063793182373046875</LatitudeDegrees>
              <LongitudeDegrees>-5.40517696179449558258056640625</LongitudeDegrees>
            </Position>
            <AltitudeMeters>197.600006103515625</AltitudeMeters>
            <DistanceMeters>6378.6905163273</DistanceMeters>
          </Trackpoint>
          <Trackpoint>
            <Time>2019-01-04T10:46:12.000Z</Time>
            <Position>
              <LatitudeDegrees>36.50834284722805023193359375</LatitudeDegrees>
              <LongitudeDegrees>-5.4051770456135272979736328125</LongitudeDegrees>
            </Position>
            <AltitudeMeters>197.600006103515625</AltitudeMeters>
            <DistanceMeters>6378.8249043955</DistanceMeters>
          </Trackpoint>
          <Trackpoint>
            <Time>2019-01-04T10:46:13.000Z</Time>
            <Position>
              <LatitudeDegrees>36.50834276340901851654052734375</LatitudeDegrees>
              <LongitudeDegrees>-5.40517729707062244415283203125</LongitudeDegrees>
            </Position>
            <AltitudeMeters>197.600006103515625</AltitudeMeters>
            <DistanceMeters>6378.8249043955</DistanceMeters>
          </Trackpoint>
          <Trackpoint>
            <Time>2019-01-04T10:46:14.000Z</Time>
            <Position>
              <LatitudeDegrees>36.50834259577095508575439453125</LatitudeDegrees>
              <LongitudeDegrees>-5.40517746470868587493896484375</LongitudeDegrees>
            </Position>
            <AltitudeMeters>197.600006103515625</AltitudeMeters>
            <DistanceMeters>6378.8249043955</DistanceMeters>
          </Trackpoint>
          <Trackpoint>
            <Time>2019-01-04T10:46:15.000Z</Time>
            <Position>
              <LatitudeDegrees>36.50834226049482822418212890625</LatitudeDegrees>
              <LongitudeDegrees>-5.4051780514419078826904296875</LongitudeDegrees>
            </Position>
            <AltitudeMeters>197.600006103515625</AltitudeMeters>
            <DistanceMeters>6378.8249043955</DistanceMeters>
          </Trackpoint>
          <Trackpoint>
            <Time>2019-01-04T10:46:16.000Z</Time>
            <Position>
              <LatitudeDegrees>36.50834175758063793182373046875</LatitudeDegrees>
              <LongitudeDegrees>-5.40517947636544704437255859375</LongitudeDegrees>
            </Position>
            <AltitudeMeters>197.600006103515625</AltitudeMeters>
            <DistanceMeters>6378.9592924638</DistanceMeters>
          </Trackpoint>
          <Trackpoint>
            <Time>2019-01-04T10:46:17.000Z</Time>
            <Position>
              <LatitudeDegrees>36.50834108702838420867919921875</LatitudeDegrees>
              <LongitudeDegrees>-5.40518048219382762908935546875</LongitudeDegrees>
            </Position>
            <AltitudeMeters>197.8000030517578125</AltitudeMeters>
            <DistanceMeters>6379.093680532</DistanceMeters>
          </Trackpoint>
          <Trackpoint>
            <Time>2019-01-04T10:46:18.000Z</Time>
            <Position>
              <LatitudeDegrees>36.5083410032093524932861328125</LatitudeDegrees>
              <LongitudeDegrees>-5.405179895460605621337890625</LongitudeDegrees>
            </Position>
            <AltitudeMeters>197.8000030517578125</AltitudeMeters>
            <DistanceMeters>6379.093680532</DistanceMeters>
          </Trackpoint>
          <Trackpoint>
            <Time>2019-01-04T10:46:19.000Z</Time>
            <Position>
              <LatitudeDegrees>36.5083368122577667236328125</LatitudeDegrees>
              <LongitudeDegrees>-5.40518115274608135223388671875</LongitudeDegrees>
            </Position>
            <AltitudeMeters>197.8000030517578125</AltitudeMeters>
            <DistanceMeters>6379.5782236029</DistanceMeters>
          </Trackpoint>
          <Trackpoint>
            <Time>2019-01-04T10:46:20.000Z</Time>
            <Position>
              <LatitudeDegrees>36.50833454914391040802001953125</LatitudeDegrees>
              <LongitudeDegrees>-5.40518517605960369110107421875</LongitudeDegrees>
            </Position>
            <AltitudeMeters>197.8000030517578125</AltitudeMeters>
            <DistanceMeters>6380.0031959889</DistanceMeters>
          </Trackpoint>
          <Trackpoint>
            <Time>2019-01-04T10:46:21.000Z</Time>
            <Position>
              <LatitudeDegrees>36.50833119638264179229736328125</LatitudeDegrees>
              <LongitudeDegrees>-5.4051891155540943145751953125</LongitudeDegrees>
            </Position>
            <AltitudeMeters>197.8000030517578125</AltitudeMeters>
            <DistanceMeters>6380.5236787392</DistanceMeters>
          </Trackpoint>
          <Trackpoint>
            <Time>2019-01-04T10:46:22.000Z</Time>
            <Position>
              <LatitudeDegrees>36.50832834653556346893310546875</LatitudeDegrees>
              <LongitudeDegrees>-5.4051911272108554840087890625</LongitudeDegrees>
            </Position>
            <AltitudeMeters>197.8000030517578125</AltitudeMeters>
            <DistanceMeters>6380.9037855967</DistanceMeters>
          </Trackpoint>
          <Trackpoint>
            <Time>2019-01-04T10:46:23.000Z</Time>
            <Position>
              <LatitudeDegrees>36.508327759802341461181640625</LatitudeDegrees>
              <LongitudeDegrees>-5.40519095957279205322265625</LongitudeDegrees>
            </Position>
            <AltitudeMeters>197.8000030517578125</AltitudeMeters>
            <DistanceMeters>6380.9037855967</DistanceMeters>
          </Trackpoint>
          <Trackpoint>
            <Time>2019-01-04T10:46:24.000Z</Time>
            <Position>
              <LatitudeDegrees>36.50832801125943660736083984375</LatitudeDegrees>
              <LongitudeDegrees>-5.40518986992537975311279296875</LongitudeDegrees>
            </Position>
            <AltitudeMeters>197.600006103515625</AltitudeMeters>
            <DistanceMeters>6380.998812311</DistanceMeters>
          </Trackpoint>
          <Trackpoint>
            <Time>2019-01-04T10:46:25.000Z</Time>
            <Position>
              <LatitudeDegrees>36.508329100906848907470703125</LatitudeDegrees>
              <LongitudeDegrees>-5.40518970228731632232666015625</LongitudeDegrees>
            </Position>
            <AltitudeMeters>197.600006103515625</AltitudeMeters>
            <DistanceMeters>6381.0938390254</DistanceMeters>
          </Trackpoint>
          <Trackpoint>
            <Time>2019-01-04T10:46:26.000Z</Time>
            <Position>
              <LatitudeDegrees>36.50832868181169033050537109375</LatitudeDegrees>
              <LongitudeDegrees>-5.4051911272108554840087890625</LongitudeDegrees>
            </Position>
            <AltitudeMeters>197.600006103515625</AltitudeMeters>
            <DistanceMeters>6381.2584301228</DistanceMeters>
          </Trackpoint>
          <Trackpoint>
            <Time>2019-01-04T10:46:27.000Z</Time>
            <Position>
              <LatitudeDegrees>36.50832667015492916107177734375</LatitudeDegrees>
              <LongitudeDegrees>-5.40519640780985355377197265625</LongitudeDegrees>
            </Position>
            <AltitudeMeters>197.600006103515625</AltitudeMeters>
            <DistanceMeters>6381.7875164766</DistanceMeters>
          </Trackpoint>
          <Trackpoint>
            <Time>2019-01-04T10:46:28.000Z</Time>
            <Position>
              <LatitudeDegrees>36.50832516141235828399658203125</LatitudeDegrees>
              <LongitudeDegrees>-5.4052008502185344696044921875</LongitudeDegrees>
            </Position>
            <AltitudeMeters>197.399993896484375</AltitudeMeters>
            <DistanceMeters>6382.2124888626</DistanceMeters>
          </Trackpoint>
          <Trackpoint>
            <Time>2019-01-04T10:46:29.000Z</Time>
            <Position>
              <LatitudeDegrees>36.50832541286945343017578125</LatitudeDegrees>
              <LongitudeDegrees>-5.4052048735320568084716796875</LongitudeDegrees>
            </Position>
            <AltitudeMeters>197.600006103515625</AltitudeMeters>
            <DistanceMeters>6382.5680462703</DistanceMeters>
          </Trackpoint>
          <Trackpoint>
            <Time>2019-01-04T10:46:30.000Z</Time>
            <Position>
              <LatitudeDegrees>36.50832717306911945343017578125</LatitudeDegrees>
              <LongitudeDegrees>-5.405207388103008270263671875</LongitudeDegrees>
            </Position>
            <AltitudeMeters>197.600006103515625</AltitudeMeters>
            <DistanceMeters>6382.8685471263</DistanceMeters>
          </Trackpoint>
          <Trackpoint>
            <Time>2019-01-04T10:46:31.000Z</Time>
            <Position>
              <LatitudeDegrees>36.50832465849816799163818359375</LatitudeDegrees>
              <LongitudeDegrees>-5.40521333925426006317138671875</LongitudeDegrees>
            </Position>
            <AltitudeMeters>197.600006103515625</AltitudeMeters>
            <DistanceMeters>6383.4695488383</DistanceMeters>
          </Trackpoint>
          <Trackpoint>
            <Time>2019-01-04T10:46:32.000Z</Time>
            <Position>
              <LatitudeDegrees>36.50832063518464565277099609375</LatitudeDegrees>
              <LongitudeDegrees>-5.40521912276744842529296875</LongitudeDegrees>
            </Position>
            <AltitudeMeters>197.600006103515625</AltitudeMeters>
            <DistanceMeters>6384.1547962207</DistanceMeters>
          </Trackpoint>
          <Trackpoint>
            <Time>2019-01-04T10:46:33.000Z</Time>
            <Position>
              <LatitudeDegrees>36.50832138955593109130859375</LatitudeDegrees>
              <LongitudeDegrees>-5.40522121824324131011962890625</LongitudeDegrees>
            </Position>
            <AltitudeMeters>197.600006103515625</AltitudeMeters>
            <DistanceMeters>6384.3448496494</DistanceMeters>
          </Trackpoint>
          <Trackpoint>
            <Time>2019-01-04T10:46:34.000Z</Time>
            <Position>
              <LatitudeDegrees>36.50832348503172397613525390625</LatitudeDegrees>
              <LongitudeDegrees>-5.40522314608097076416015625</LongitudeDegrees>
            </Position>
            <AltitudeMeters>197.600006103515625</AltitudeMeters>
            <DistanceMeters>6384.6453505054</DistanceMeters>
          </Trackpoint>
          <Trackpoint>
            <Time>2019-01-04T10:46:35.000Z</Time>
            <Position>
              <LatitudeDegrees>36.50832449086010456085205078125</LatitudeDegrees>
              <LongitudeDegrees>-5.40522582828998565673828125</LongitudeDegrees>
            </Position>
            <AltitudeMeters>197.600006103515625</AltitudeMeters>
            <DistanceMeters>6384.8967675595</DistanceMeters>
          </Trackpoint>
          <Trackpoint>
            <Time>2019-01-04T10:46:36.000Z</Time>
            <Position>
              <LatitudeDegrees>36.50832331739366054534912109375</LatitudeDegrees>
              <LongitudeDegrees>-5.4052337072789669036865234375</LongitudeDegrees>
            </Position>
            <AltitudeMeters>197.600006103515625</AltitudeMeters>
            <DistanceMeters>6385.6142035199</DistanceMeters>
          </Trackpoint>
          <Trackpoint>
            <Time>2019-01-04T10:46:37.000Z</Time>
            <Position>
              <LatitudeDegrees>36.508323736488819122314453125</LatitudeDegrees>
              <LongitudeDegrees>-5.405240245163440704345703125</LongitudeDegrees>
            </Position>
            <AltitudeMeters>197.600006103515625</AltitudeMeters>
            <DistanceMeters>6386.1999875286</DistanceMeters>
          </Trackpoint>
          <Trackpoint>
            <Time>2019-01-04T10:46:38.000Z</Time>
            <Position>
              <LatitudeDegrees>36.5083138458430767059326171875</LatitudeDegrees>
              <LongitudeDegrees>-5.405245609581470489501953125</LongitudeDegrees>
            </Position>
            <AltitudeMeters>197.600006103515625</AltitudeMeters>
            <DistanceMeters>6387.4019909525</DistanceMeters>
          </Trackpoint>
          <Trackpoint>
            <Time>2019-01-04T10:46:39.000Z</Time>
            <Position>
              <LatitudeDegrees>36.5083101578056812286376953125</LatitudeDegrees>
              <LongitudeDegrees>-5.40524334646761417388916015625</LongitudeDegrees>
            </Position>
            <AltitudeMeters>197.600006103515625</AltitudeMeters>
            <DistanceMeters>6387.8675248768</DistanceMeters>
          </Trackpoint>
          <Trackpoint>
            <Time>2019-01-04T10:46:40.000Z</Time>
            <Position>
              <LatitudeDegrees>36.5083114989101886749267578125</LatitudeDegrees>
              <LongitudeDegrees>-5.4052427597343921661376953125</LongitudeDegrees>
            </Position>
            <AltitudeMeters>197.600006103515625</AltitudeMeters>
            <DistanceMeters>6388.0019129451</DistanceMeters>
          </Trackpoint>
          <Trackpoint>
            <Time>2019-01-04T10:46:41.000Z</Time>
            <Position>
              <LatitudeDegrees>36.508310325443744659423828125</LatitudeDegrees>
              <LongitudeDegrees>-5.40524200536310672760009765625</LongitudeDegrees>
            </Position>
            <AltitudeMeters>197.8000030517578125</AltitudeMeters>
            <DistanceMeters>6388.1363010133</DistanceMeters>
          </Trackpoint>
          <Trackpoint>
            <Time>2019-01-04T10:46:42.000Z</Time>
            <Position>
              <LatitudeDegrees>36.5083086490631103515625</LatitudeDegrees>
              <LongitudeDegrees>-5.40523932315409183502197265625</LongitudeDegrees>
            </Position>
            <AltitudeMeters>197.8000030517578125</AltitudeMeters>
            <DistanceMeters>6388.4213811564</DistanceMeters>
          </Trackpoint>
          <Trackpoint>
            <Time>2019-01-04T10:46:43.000Z</Time>
            <Position>
              <LatitudeDegrees>36.5083078108727931976318359375</LatitudeDegrees>
              <LongitudeDegrees>-5.4052353836596012115478515625</LongitudeDegrees>
            </Position>
            <AltitudeMeters>197.8000030517578125</AltitudeMeters>
            <DistanceMeters>6388.7769385642</DistanceMeters>
          </Trackpoint>
          <Trackpoint>
            <Time>2019-01-04T10:46:44.000Z</Time>
            <Position>
              <LatitudeDegrees>36.50830529630184173583984375</LatitudeDegrees>
              <LongitudeDegrees>-5.40523119270801544189453125</LongitudeDegrees>
            </Position>
            <AltitudeMeters>198</AltitudeMeters>
            <DistanceMeters>6389.2614816351</DistanceMeters>
          </Trackpoint>
          <Trackpoint>
            <Time>2019-01-04T10:46:45.000Z</Time>
            <Position>
              <LatitudeDegrees>36.5083051286637783050537109375</LatitudeDegrees>
              <LongitudeDegrees>-5.4052236489951610565185546875</LongitudeDegrees>
            </Position>
            <AltitudeMeters>198</AltitudeMeters>
            <DistanceMeters>6389.9401081145</DistanceMeters>
          </Trackpoint>
          <Trackpoint>
            <Time>2019-01-04T10:46:46.000Z</Time>
            <Position>
              <LatitudeDegrees>36.5083027817308902740478515625</LatitudeDegrees>
              <LongitudeDegrees>-5.40520998649299144744873046875</LongitudeDegrees>
            </Position>
            <AltitudeMeters>198</AltitudeMeters>
            <DistanceMeters>6391.1899893988</DistanceMeters>
          </Trackpoint>
          <Trackpoint>
            <Time>2019-01-04T10:46:47.000Z</Time>
            <Position>
              <LatitudeDegrees>36.50830236263573169708251953125</LatitudeDegrees>
              <LongitudeDegrees>-5.4052038677036762237548828125</LongitudeDegrees>
            </Position>
            <AltitudeMeters>198</AltitudeMeters>
            <DistanceMeters>6391.7358763126</DistanceMeters>
          </Trackpoint>
          <Trackpoint>
            <Time>2019-01-04T10:46:48.000Z</Time>
            <Position>
              <LatitudeDegrees>36.50830705650150775909423828125</LatitudeDegrees>
              <LongitudeDegrees>-5.4052068851888179779052734375</LongitudeDegrees>
            </Position>
            <AltitudeMeters>198</AltitudeMeters>
            <DistanceMeters>6392.3216603213</DistanceMeters>
          </Trackpoint>
          <Trackpoint>
            <Time>2019-01-04T10:46:49.000Z</Time>
            <Position>
              <LatitudeDegrees>36.50830755941569805145263671875</LatitudeDegrees>
              <LongitudeDegrees>-5.40520797483623027801513671875</LongitudeDegrees>
            </Position>
            <AltitudeMeters>198</AltitudeMeters>
            <DistanceMeters>6392.4166870357</DistanceMeters>
          </Trackpoint>
          <Trackpoint>
            <Time>2019-01-04T10:46:50.000Z</Time>
            <Position>
              <LatitudeDegrees>36.50830806232988834381103515625</LatitudeDegrees>
              <LongitudeDegrees>-5.40520797483623027801513671875</LongitudeDegrees>
            </Position>
            <AltitudeMeters>197.8000030517578125</AltitudeMeters>
            <DistanceMeters>6392.4166870357</DistanceMeters>
          </Trackpoint>
          <Trackpoint>
            <Time>2019-01-04T10:46:51.000Z</Time>
            <Position>
              <LatitudeDegrees>36.50831225328147411346435546875</LatitudeDegrees>
              <LongitudeDegrees>-5.40521115995943546295166015625</LongitudeDegrees>
            </Position>
            <AltitudeMeters>197.8000030517578125</AltitudeMeters>
            <DistanceMeters>6392.9625739495</DistanceMeters>
          </Trackpoint>
          <Trackpoint>
            <Time>2019-01-04T10:46:52.000Z</Time>
            <Position>
              <LatitudeDegrees>36.508315019309520721435546875</LatitudeDegrees>
              <LongitudeDegrees>-5.40521384216845035552978515625</LongitudeDegrees>
            </Position>
            <AltitudeMeters>197.8000030517578125</AltitudeMeters>
            <DistanceMeters>6393.342680807</DistanceMeters>
          </Trackpoint>
          <Trackpoint>
            <Time>2019-01-04T10:46:53.000Z</Time>
            <Position>
              <LatitudeDegrees>36.50831661187112331390380859375</LatitudeDegrees>
              <LongitudeDegrees>-5.405216105282306671142578125</LongitudeDegrees>
            </Position>
            <AltitudeMeters>197.600006103515625</AltitudeMeters>
            <DistanceMeters>6393.6277609501</DistanceMeters>
          </Trackpoint>
          <Trackpoint>
            <Time>2019-01-04T10:46:54.000Z</Time>
            <Position>
              <LatitudeDegrees>36.50831929408013820648193359375</LatitudeDegrees>
              <LongitudeDegrees>-5.40521836839616298675537109375</LongitudeDegrees>
            </Position>
            <AltitudeMeters>197.600006103515625</AltitudeMeters>
            <DistanceMeters>6393.9833183578</DistanceMeters>
          </Trackpoint>
          <Trackpoint>
            <Time>2019-01-04T10:46:55.000Z</Time>
            <Position>
              <LatitudeDegrees>36.50832273066043853759765625</LatitudeDegrees>
              <LongitudeDegrees>-5.40522188879549503326416015625</LongitudeDegrees>
            </Position>
            <AltitudeMeters>197.600006103515625</AltitudeMeters>
            <DistanceMeters>6394.4770916499</DistanceMeters>
          </Trackpoint>
          <Trackpoint>
            <Time>2019-01-04T10:46:56.000Z</Time>
            <Position>
              <LatitudeDegrees>36.508324407041072845458984375</LatitudeDegrees>
              <LongitudeDegrees>-5.4052238166332244873046875</LongitudeDegrees>
            </Position>
            <AltitudeMeters>197.600006103515625</AltitudeMeters>
            <DistanceMeters>6394.7098586121</DistanceMeters>
          </Trackpoint>
          <Trackpoint>
            <Time>2019-01-04T10:46:57.000Z</Time>
            <Position>
              <LatitudeDegrees>36.50832532905042171478271484375</LatitudeDegrees>
              <LongitudeDegrees>-5.4052253253757953643798828125</LongitudeDegrees>
            </Position>
            <AltitudeMeters>197.399993896484375</AltitudeMeters>
            <DistanceMeters>6394.8744497094</DistanceMeters>
          </Trackpoint>
          <Trackpoint>
            <Time>2019-01-04T10:46:58.000Z</Time>
            <Position>
              <LatitudeDegrees>36.50832650251686573028564453125</LatitudeDegrees>
              <LongitudeDegrees>-5.4052259959280490875244140625</LongitudeDegrees>
            </Position>
            <AltitudeMeters>197.399993896484375</AltitudeMeters>
            <DistanceMeters>6395.0645031382</DistanceMeters>
          </Trackpoint>
          <Trackpoint>
            <Time>2019-01-04T10:46:59.000Z</Time>
            <Position>
              <LatitudeDegrees>36.50832700543105602264404296875</LatitudeDegrees>
              <LongitudeDegrees>-5.40522691793739795684814453125</LongitudeDegrees>
            </Position>
            <AltitudeMeters>197.399993896484375</AltitudeMeters>
            <DistanceMeters>6395.1988912064</DistanceMeters>
          </Trackpoint>
          <Trackpoint>
            <Time>2019-01-04T10:47:00.000Z</Time>
            <Position>
              <LatitudeDegrees>36.50832817889750003814697265625</LatitudeDegrees>
              <LongitudeDegrees>-5.405228175222873687744140625</LongitudeDegrees>
            </Position>
            <AltitudeMeters>197.399993896484375</AltitudeMeters>
            <DistanceMeters>6395.3634823038</DistanceMeters>
          </Trackpoint>
          <Trackpoint>
            <Time>2019-01-04T10:47:01.000Z</Time>
            <Position>
              <LatitudeDegrees>36.5083285979926586151123046875</LatitudeDegrees>
              <LongitudeDegrees>-5.4052293486893177032470703125</LongitudeDegrees>
            </Position>
            <AltitudeMeters>197.399993896484375</AltitudeMeters>
            <DistanceMeters>6395.4978703721</DistanceMeters>
          </Trackpoint>
          <Trackpoint>
            <Time>2019-01-04T10:47:02.000Z</Time>
            <Position>
              <LatitudeDegrees>36.50832943618297576904296875</LatitudeDegrees>
              <LongitudeDegrees>-5.40523060597479343414306640625</LongitudeDegrees>
            </Position>
            <AltitudeMeters>197.399993896484375</AltitudeMeters>
            <DistanceMeters>6395.6322584403</DistanceMeters>
          </Trackpoint>
          <Trackpoint>
            <Time>2019-01-04T10:47:03.000Z</Time>
            <Position>
              <LatitudeDegrees>36.50833019055426120758056640625</LatitudeDegrees>
              <LongitudeDegrees>-5.4052318632602691650390625</LongitudeDegrees>
            </Position>
            <AltitudeMeters>197.399993896484375</AltitudeMeters>
            <DistanceMeters>6395.7666465086</DistanceMeters>
          </Trackpoint>
          <Trackpoint>
            <Time>2019-01-04T10:47:04.000Z</Time>
            <Position>
              <LatitudeDegrees>36.5083312802016735076904296875</LatitudeDegrees>
              <LongitudeDegrees>-5.40523295290768146514892578125</LongitudeDegrees>
            </Position>
            <AltitudeMeters>197.399993896484375</AltitudeMeters>
            <DistanceMeters>6395.9312376059</DistanceMeters>
          </Trackpoint>
          <Trackpoint>
            <Time>2019-01-04T10:47:05.000Z</Time>
            <Position>
              <LatitudeDegrees>36.50833102874457836151123046875</LatitudeDegrees>
              <LongitudeDegrees>-5.40523513220250606536865234375</LongitudeDegrees>
            </Position>
            <AltitudeMeters>197.399993896484375</AltitudeMeters>
            <DistanceMeters>6396.1640045681</DistanceMeters>
          </Trackpoint>
          <Trackpoint>
            <Time>2019-01-04T10:47:06.000Z</Time>
            <Position>
              <LatitudeDegrees>36.5083309449255466461181640625</LatitudeDegrees>
              <LongitudeDegrees>-5.40523588657379150390625</LongitudeDegrees>
            </Position>
            <AltitudeMeters>197.399993896484375</AltitudeMeters>
            <DistanceMeters>6396.2590312824</DistanceMeters>
          </Trackpoint>
          <Trackpoint>
            <Time>2019-01-04T10:47:07.000Z</Time>
            <Position>
              <LatitudeDegrees>36.5083309449255466461181640625</LatitudeDegrees>
              <LongitudeDegrees>-5.4052367247641086578369140625</LongitudeDegrees>
            </Position>
            <AltitudeMeters>197.399993896484375</AltitudeMeters>
            <DistanceMeters>6396.3540579968</DistanceMeters>
          </Trackpoint>
          <Trackpoint>
            <Time>2019-01-04T10:47:08.000Z</Time>
            <Position>
              <LatitudeDegrees>36.50833069346845149993896484375</LatitudeDegrees>
              <LongitudeDegrees>-5.40523798204958438873291015625</LongitudeDegrees>
            </Position>
            <AltitudeMeters>197.399993896484375</AltitudeMeters>
            <DistanceMeters>6396.3540579968</DistanceMeters>
          </Trackpoint>
          <Trackpoint>
            <Time>2019-01-04T10:47:09.000Z</Time>
            <Position>
              <LatitudeDegrees>36.50833052583038806915283203125</LatitudeDegrees>
              <LongitudeDegrees>-5.40523949079215526580810546875</LongitudeDegrees>
            </Position>
            <AltitudeMeters>197.399993896484375</AltitudeMeters>
            <DistanceMeters>6396.488446065</DistanceMeters>
          </Trackpoint>
          <Trackpoint>
            <Time>2019-01-04T10:47:10.000Z</Time>
            <Position>
              <LatitudeDegrees>36.50833052583038806915283203125</LatitudeDegrees>
              <LongitudeDegrees>-5.40524058043956756591796875</LongitudeDegrees>
            </Position>
            <AltitudeMeters>197.399993896484375</AltitudeMeters>
            <DistanceMeters>6396.5834727794</DistanceMeters>
          </Trackpoint>
          <Trackpoint>
            <Time>2019-01-04T10:47:11.000Z</Time>
            <Position>
              <LatitudeDegrees>36.5083306096494197845458984375</LatitudeDegrees>
              <LongitudeDegrees>-5.40524150244891643524169921875</LongitudeDegrees>
            </Position>
            <AltitudeMeters>197.399993896484375</AltitudeMeters>
            <DistanceMeters>6396.6784994938</DistanceMeters>
          </Trackpoint>
          <Trackpoint>
            <Time>2019-01-04T10:47:12.000Z</Time>
            <Position>
              <LatitudeDegrees>36.50833069346845149993896484375</LatitudeDegrees>
              <LongitudeDegrees>-5.4052417539060115814208984375</LongitudeDegrees>
            </Position>
            <AltitudeMeters>197.399993896484375</AltitudeMeters>
            <DistanceMeters>6396.6784994938</DistanceMeters>
          </Trackpoint>
          <Trackpoint>
            <Time>2019-01-04T10:47:13.000Z</Time>
            <Position>
              <LatitudeDegrees>36.50833069346845149993896484375</LatitudeDegrees>
              <LongitudeDegrees>-5.40524192154407501220703125</LongitudeDegrees>
            </Position>
            <AltitudeMeters>197.399993896484375</AltitudeMeters>
            <DistanceMeters>6396.6784994938</DistanceMeters>
          </Trackpoint>
          <Trackpoint>
            <Time>2019-01-04T10:47:14.000Z</Time>
            <Position>
              <LatitudeDegrees>36.50833052583038806915283203125</LatitudeDegrees>
              <LongitudeDegrees>-5.4052424244582653045654296875</LongitudeDegrees>
            </Position>
            <AltitudeMeters>197.399993896484375</AltitudeMeters>
            <DistanceMeters>6396.6784994938</DistanceMeters>
          </Trackpoint>
          <Trackpoint>
            <Time>2019-01-04T10:47:15.000Z</Time>
            <Position>
              <LatitudeDegrees>36.508330442011356353759765625</LatitudeDegrees>
              <LongitudeDegrees>-5.405242927372455596923828125</LongitudeDegrees>
            </Position>
            <AltitudeMeters>197.399993896484375</AltitudeMeters>
            <DistanceMeters>6396.6784994938</DistanceMeters>
          </Trackpoint>
          <Trackpoint>
            <Time>2019-01-04T10:47:16.000Z</Time>
            <Position>
              <LatitudeDegrees>36.50833035819232463836669921875</LatitudeDegrees>
              <LongitudeDegrees>-5.4052434302866458892822265625</LongitudeDegrees>
            </Position>
            <AltitudeMeters>197.399993896484375</AltitudeMeters>
            <DistanceMeters>6396.6784994938</DistanceMeters>
          </Trackpoint>
          <Trackpoint>
            <Time>2019-01-04T10:47:17.000Z</Time>
            <Position>
              <LatitudeDegrees>36.50833035819232463836669921875</LatitudeDegrees>
              <LongitudeDegrees>-5.40524384938180446624755859375</LongitudeDegrees>
            </Position>
            <AltitudeMeters>197.399993896484375</AltitudeMeters>
            <DistanceMeters>6396.6784994938</DistanceMeters>
          </Trackpoint>
          <Trackpoint>
            <Time>2019-01-04T10:47:18.000Z</Time>
            <Position>
              <LatitudeDegrees>36.50833052583038806915283203125</LatitudeDegrees>
              <LongitudeDegrees>-5.40524401701986789703369140625</LongitudeDegrees>
            </Position>
            <AltitudeMeters>197.399993896484375</AltitudeMeters>
            <DistanceMeters>6396.6784994938</DistanceMeters>
          </Trackpoint>
          <Trackpoint>
            <Time>2019-01-04T10:47:19.000Z</Time>
            <Position>
              <LatitudeDegrees>36.508330442011356353759765625</LatitudeDegrees>
              <LongitudeDegrees>-5.40524435229599475860595703125</LongitudeDegrees>
            </Position>
            <AltitudeMeters>197.399993896484375</AltitudeMeters>
            <DistanceMeters>6396.6784994938</DistanceMeters>
          </Trackpoint>
          <Trackpoint>
            <Time>2019-01-04T10:47:20.000Z</Time>
            <Position>
              <LatitudeDegrees>36.508330442011356353759765625</LatitudeDegrees>
              <LongitudeDegrees>-5.4052452743053436279296875</LongitudeDegrees>
            </Position>
            <AltitudeMeters>197.399993896484375</AltitudeMeters>
            <DistanceMeters>6396.812887562</DistanceMeters>
          </Trackpoint>
          <Trackpoint>
            <Time>2019-01-04T10:47:21.000Z</Time>
            <Position>
              <LatitudeDegrees>36.50832952000200748443603515625</LatitudeDegrees>
              <LongitudeDegrees>-5.40524669922888278961181640625</LongitudeDegrees>
            </Position>
            <AltitudeMeters>197.399993896484375</AltitudeMeters>
            <DistanceMeters>6397.0029409908</DistanceMeters>
          </Trackpoint>
          <Trackpoint>
            <Time>2019-01-04T10:47:22.000Z</Time>
            <Position>
              <LatitudeDegrees>36.50832851417362689971923828125</LatitudeDegrees>
              <LongitudeDegrees>-5.40524837560951709747314453125</LongitudeDegrees>
            </Position>
            <AltitudeMeters>197.399993896484375</AltitudeMeters>
            <DistanceMeters>6397.1929944195</DistanceMeters>
          </Trackpoint>
          <Trackpoint>
            <Time>2019-01-04T10:47:23.000Z</Time>
            <Position>
              <LatitudeDegrees>36.50832717306911945343017578125</LatitudeDegrees>
              <LongitudeDegrees>-5.40524971671402454376220703125</LongitudeDegrees>
            </Position>
            <AltitudeMeters>197.399993896484375</AltitudeMeters>
            <DistanceMeters>6397.3830478483</DistanceMeters>
          </Trackpoint>
          <Trackpoint>
            <Time>2019-01-04T10:47:24.000Z</Time>
            <Position>
              <LatitudeDegrees>36.50832474231719970703125</LatitudeDegrees>
              <LongitudeDegrees>-5.405249632894992828369140625</LongitudeDegrees>
            </Position>
            <AltitudeMeters>197.399993896484375</AltitudeMeters>
            <DistanceMeters>6397.6518239848</DistanceMeters>
          </Trackpoint>
          <Trackpoint>
            <Time>2019-01-04T10:47:25.000Z</Time>
            <Position>
              <LatitudeDegrees>36.508321724832057952880859375</LatitudeDegrees>
              <LongitudeDegrees>-5.40524971671402454376220703125</LongitudeDegrees>
            </Position>
            <AltitudeMeters>197.399993896484375</AltitudeMeters>
            <DistanceMeters>6397.9810061795</DistanceMeters>
          </Trackpoint>
          <Trackpoint>
            <Time>2019-01-04T10:47:26.000Z</Time>
            <Position>
              <LatitudeDegrees>36.5083185397088527679443359375</LatitudeDegrees>
              <LongitudeDegrees>-5.4052504710853099822998046875</LongitudeDegrees>
            </Position>
            <AltitudeMeters>197.399993896484375</AltitudeMeters>
            <DistanceMeters>6398.3365635872</DistanceMeters>
          </Trackpoint>
          <Trackpoint>
            <Time>2019-01-04T10:47:27.000Z</Time>
            <Position>
              <LatitudeDegrees>36.50831627659499645233154296875</LatitudeDegrees>
              <LongitudeDegrees>-5.405250303447246551513671875</LongitudeDegrees>
            </Position>
            <AltitudeMeters>197.399993896484375</AltitudeMeters>
            <DistanceMeters>6398.5693305494</DistanceMeters>
          </Trackpoint>
          <Trackpoint>
            <Time>2019-01-04T10:47:28.000Z</Time>
            <Position>
              <LatitudeDegrees>36.50831602513790130615234375</LatitudeDegrees>
              <LongitudeDegrees>-5.4052501358091831207275390625</LongitudeDegrees>
            </Position>
            <AltitudeMeters>197.399993896484375</AltitudeMeters>
            <DistanceMeters>6398.5693305494</DistanceMeters>
          </Trackpoint>
          <Trackpoint>
            <Time>2019-01-04T10:47:29.000Z</Time>
            <Position>
              <LatitudeDegrees>36.508316360414028167724609375</LatitudeDegrees>
              <LongitudeDegrees>-5.40524996817111968994140625</LongitudeDegrees>
            </Position>
            <AltitudeMeters>197.399993896484375</AltitudeMeters>
            <DistanceMeters>6398.5693305494</DistanceMeters>
          </Trackpoint>
          <Trackpoint>
            <Time>2019-01-04T10:47:30.000Z</Time>
            <Position>
              <LatitudeDegrees>36.50831644423305988311767578125</LatitudeDegrees>
              <LongitudeDegrees>-5.4052498005330562591552734375</LongitudeDegrees>
            </Position>
            <AltitudeMeters>197.399993896484375</AltitudeMeters>
            <DistanceMeters>6398.5693305494</DistanceMeters>
          </Trackpoint>
          <Trackpoint>
            <Time>2019-01-04T10:47:31.000Z</Time>
            <Position>
              <LatitudeDegrees>36.50831594131886959075927734375</LatitudeDegrees>
              <LongitudeDegrees>-5.40524988435208797454833984375</LongitudeDegrees>
            </Position>
            <AltitudeMeters>197.399993896484375</AltitudeMeters>
            <DistanceMeters>6398.5693305494</DistanceMeters>
          </Trackpoint>
          <Trackpoint>
            <Time>2019-01-04T10:47:32.000Z</Time>
            <Position>
              <LatitudeDegrees>36.50831359438598155975341796875</LatitudeDegrees>
              <LongitudeDegrees>-5.40524996817111968994140625</LongitudeDegrees>
            </Position>
            <AltitudeMeters>197.399993896484375</AltitudeMeters>
            <DistanceMeters>6398.8207476035</DistanceMeters>
          </Trackpoint>
          <Trackpoint>
            <Time>2019-01-04T10:47:33.000Z</Time>
            <Position>
              <LatitudeDegrees>36.5083108283579349517822265625</LatitudeDegrees>
              <LongitudeDegrees>-5.405249632894992828369140625</LongitudeDegrees>
            </Position>
            <AltitudeMeters>197.399993896484375</AltitudeMeters>
            <DistanceMeters>6399.1212484595</DistanceMeters>
          </Trackpoint>
          <Trackpoint>
            <Time>2019-01-04T10:47:34.000Z</Time>
            <Position>
              <LatitudeDegrees>36.50830856524407863616943359375</LatitudeDegrees>
              <LongitudeDegrees>-5.405254662036895751953125</LongitudeDegrees>
            </Position>
            <AltitudeMeters>197.399993896484375</AltitudeMeters>
            <DistanceMeters>6399.6417312097</DistanceMeters>
          </Trackpoint>
          <Trackpoint>
            <Time>2019-01-04T10:47:35.000Z</Time>
            <Position>
              <LatitudeDegrees>36.50830655358731746673583984375</LatitudeDegrees>
              <LongitudeDegrees>-5.4052565060555934906005859375</LongitudeDegrees>
            </Position>
            <AltitudeMeters>197.399993896484375</AltitudeMeters>
            <DistanceMeters>6399.9268113529</DistanceMeters>
          </Trackpoint>
          <Trackpoint>
            <Time>2019-01-04T10:47:36.000Z</Time>
            <Position>
              <LatitudeDegrees>36.50830395519733428955078125</LatitudeDegrees>
              <LongitudeDegrees>-5.40525893680751323699951171875</LongitudeDegrees>
            </Position>
            <AltitudeMeters>197.399993896484375</AltitudeMeters>
            <DistanceMeters>6400.2948482351</DistanceMeters>
          </Trackpoint>
          <Trackpoint>
            <Time>2019-01-04T10:47:37.000Z</Time>
            <Position>
              <LatitudeDegrees>36.50830051861703395843505859375</LatitudeDegrees>
              <LongitudeDegrees>-5.40526061318814754486083984375</LongitudeDegrees>
            </Position>
            <AltitudeMeters>197.399993896484375</AltitudeMeters>
            <DistanceMeters>6400.7198206211</DistanceMeters>
          </Trackpoint>
          <Trackpoint>
            <Time>2019-01-04T10:47:38.000Z</Time>
            <Position>
              <LatitudeDegrees>36.50830118916928768157958984375</LatitudeDegrees>
              <LongitudeDegrees>-5.4052613675594329833984375</LongitudeDegrees>
            </Position>
            <AltitudeMeters>197.399993896484375</AltitudeMeters>
            <DistanceMeters>6400.7198206211</DistanceMeters>
          </Trackpoint>
          <Trackpoint>
            <Time>2019-01-04T10:47:39.000Z</Time>
            <Position>
              <LatitudeDegrees>36.5082937292754650115966796875</LatitudeDegrees>
              <LongitudeDegrees>-5.40526765398681163787841796875</LongitudeDegrees>
            </Position>
            <AltitudeMeters>197.399993896484375</AltitudeMeters>
            <DistanceMeters>6401.7164692095</DistanceMeters>
          </Trackpoint>
          <Trackpoint>
            <Time>2019-01-04T10:47:40.000Z</Time>
            <Position>
              <LatitudeDegrees>36.5082917176187038421630859375</LatitudeDegrees>
              <LongitudeDegrees>-5.40526933036744594573974609375</LongitudeDegrees>
            </Position>
            <AltitudeMeters>197.399993896484375</AltitudeMeters>
            <DistanceMeters>6401.985245346</DistanceMeters>
          </Trackpoint>
          <Trackpoint>
            <Time>2019-01-04T10:47:41.000Z</Time>
            <Position>
              <LatitudeDegrees>36.50829196907579898834228515625</LatitudeDegrees>
              <LongitudeDegrees>-5.40527503006160259246826171875</LongitudeDegrees>
            </Position>
            <AltitudeMeters>197.399993896484375</AltitudeMeters>
            <DistanceMeters>6402.496979864</DistanceMeters>
          </Trackpoint>
          <Trackpoint>
            <Time>2019-01-04T10:47:42.000Z</Time>
            <Position>
              <LatitudeDegrees>36.50828878395259380340576171875</LatitudeDegrees>
              <LongitudeDegrees>-5.4052779637277126312255859375</LongitudeDegrees>
            </Position>
            <AltitudeMeters>197.399993896484375</AltitudeMeters>
            <DistanceMeters>6402.9426946627</DistanceMeters>
          </Trackpoint>
          <Trackpoint>
            <Time>2019-01-04T10:47:43.000Z</Time>
            <Position>
              <LatitudeDegrees>36.508286856114864349365234375</LatitudeDegrees>
              <LongitudeDegrees>-5.4052772931754589080810546875</LongitudeDegrees>
            </Position>
            <AltitudeMeters>197.399993896484375</AltitudeMeters>
            <DistanceMeters>6403.1754616248</DistanceMeters>
          </Trackpoint>
          <Trackpoint>
            <Time>2019-01-04T10:47:44.000Z</Time>
            <Position>
              <LatitudeDegrees>36.50828677229583263397216796875</LatitudeDegrees>
              <LongitudeDegrees>-5.405276119709014892578125</LongitudeDegrees>
            </Position>
            <AltitudeMeters>197.399993896484375</AltitudeMeters>
            <DistanceMeters>6403.2704883392</DistanceMeters>
          </Trackpoint>
          <Trackpoint>
            <Time>2019-01-04T10:47:45.000Z</Time>
            <Position>
              <LatitudeDegrees>36.50828744284808635711669921875</LatitudeDegrees>
              <LongitudeDegrees>-5.40527402423322200775146484375</LongitudeDegrees>
            </Position>
            <AltitudeMeters>197.399993896484375</AltitudeMeters>
            <DistanceMeters>6403.4829745322</DistanceMeters>
          </Trackpoint>
          <Trackpoint>
            <Time>2019-01-04T10:47:46.000Z</Time>
            <Position>
              <LatitudeDegrees>36.50828878395259380340576171875</LatitudeDegrees>
              <LongitudeDegrees>-5.40527335368096828460693359375</LongitudeDegrees>
            </Position>
            <AltitudeMeters>197.399993896484375</AltitudeMeters>
            <DistanceMeters>6403.6730279609</DistanceMeters>
          </Trackpoint>
          <Trackpoint>
            <Time>2019-01-04T10:47:47.000Z</Time>
            <Position>
              <LatitudeDegrees>36.5082890354096889495849609375</LatitudeDegrees>
              <LongitudeDegrees>-5.405272431671619415283203125</LongitudeDegrees>
            </Position>
            <AltitudeMeters>197.399993896484375</AltitudeMeters>
            <DistanceMeters>6403.8074160292</DistanceMeters>
          </Trackpoint>
          <Trackpoint>
            <Time>2019-01-04T10:47:48.000Z</Time>
            <Position>
              <LatitudeDegrees>36.50828878395259380340576171875</LatitudeDegrees>
              <LongitudeDegrees>-5.40527184493839740753173828125</LongitudeDegrees>
            </Position>
            <AltitudeMeters>197.399993896484375</AltitudeMeters>
            <DistanceMeters>6403.8074160292</DistanceMeters>
          </Trackpoint>
          <Trackpoint>
            <Time>2019-01-04T10:47:49.000Z</Time>
            <Position>
              <LatitudeDegrees>36.5082887001335620880126953125</LatitudeDegrees>
              <LongitudeDegrees>-5.40527234785258769989013671875</LongitudeDegrees>
            </Position>
            <AltitudeMeters>197.399993896484375</AltitudeMeters>
            <DistanceMeters>6403.8074160292</DistanceMeters>
          </Trackpoint>
          <Trackpoint>
            <Time>2019-01-04T10:47:50.000Z</Time>
            <Position>
              <LatitudeDegrees>36.50828920304775238037109375</LatitudeDegrees>
              <LongitudeDegrees>-5.405272431671619415283203125</LongitudeDegrees>
            </Position>
            <AltitudeMeters>197.399993896484375</AltitudeMeters>
            <DistanceMeters>6403.8074160292</DistanceMeters>
          </Trackpoint>
          <Trackpoint>
            <Time>2019-01-04T10:47:51.000Z</Time>
            <Position>
              <LatitudeDegrees>36.50828962214291095733642578125</LatitudeDegrees>
              <LongitudeDegrees>-5.4052720963954925537109375</LongitudeDegrees>
            </Position>
            <AltitudeMeters>197.399993896484375</AltitudeMeters>
            <DistanceMeters>6403.8074160292</DistanceMeters>
          </Trackpoint>
          <Trackpoint>
            <Time>2019-01-04T10:47:52.000Z</Time>
            <Position>
              <LatitudeDegrees>36.5082897059619426727294921875</LatitudeDegrees>
              <LongitudeDegrees>-5.40527142584323883056640625</LongitudeDegrees>
            </Position>
            <AltitudeMeters>197.399993896484375</AltitudeMeters>
            <DistanceMeters>6403.9418040974</DistanceMeters>
          </Trackpoint>
          <Trackpoint>
            <Time>2019-01-04T10:47:53.000Z</Time>
            <Position>
              <LatitudeDegrees>36.5082897059619426727294921875</LatitudeDegrees>
              <LongitudeDegrees>-5.405270755290985107421875</LongitudeDegrees>
            </Position>
            <AltitudeMeters>197.399993896484375</AltitudeMeters>
            <DistanceMeters>6404.0761921657</DistanceMeters>
          </Trackpoint>
          <Trackpoint>
            <Time>2019-01-04T10:47:54.000Z</Time>
            <Position>
              <LatitudeDegrees>36.5082907117903232574462890625</LatitudeDegrees>
              <LongitudeDegrees>-5.40527083911001682281494140625</LongitudeDegrees>
            </Position>
            <AltitudeMeters>197.399993896484375</AltitudeMeters>
            <DistanceMeters>6404.2105802339</DistanceMeters>
          </Trackpoint>
          <Trackpoint>
            <Time>2019-01-04T10:47:55.000Z</Time>
            <Position>
              <LatitudeDegrees>36.50829113088548183441162109375</LatitudeDegrees>
              <LongitudeDegrees>-5.4052695818245410919189453125</LongitudeDegrees>
            </Position>
            <AltitudeMeters>197.399993896484375</AltitudeMeters>
            <DistanceMeters>6404.3056069483</DistanceMeters>
          </Trackpoint>
          <Trackpoint>
            <Time>2019-01-04T10:47:56.000Z</Time>
            <Position>
              <LatitudeDegrees>36.50829054415225982666015625</LatitudeDegrees>
              <LongitudeDegrees>-5.405268408358097076416015625</LongitudeDegrees>
            </Position>
            <AltitudeMeters>197.399993896484375</AltitudeMeters>
            <DistanceMeters>6404.4006336627</DistanceMeters>
          </Trackpoint>
          <Trackpoint>
            <Time>2019-01-04T10:47:57.000Z</Time>
            <Position>
              <LatitudeDegrees>36.50829146616160869598388671875</LatitudeDegrees>
              <LongitudeDegrees>-5.4052652232348918914794921875</LongitudeDegrees>
            </Position>
            <AltitudeMeters>197.399993896484375</AltitudeMeters>
            <DistanceMeters>6404.7011345186</DistanceMeters>
          </Trackpoint>
          <Trackpoint>
            <Time>2019-01-04T10:47:58.000Z</Time>
            <Position>
              <LatitudeDegrees>36.5082923881709575653076171875</LatitudeDegrees>
              <LongitudeDegrees>-5.40525558404624462127685546875</LongitudeDegrees>
            </Position>
            <AltitudeMeters>197.399993896484375</AltitudeMeters>
            <DistanceMeters>6405.5720687419</DistanceMeters>
          </Trackpoint>
          <Trackpoint>
            <Time>2019-01-04T10:47:59.000Z</Time>
            <Position>
              <LatitudeDegrees>36.5082910470664501190185546875</LatitudeDegrees>
              <LongitudeDegrees>-5.40524334646761417388916015625</LongitudeDegrees>
            </Position>
            <AltitudeMeters>197.399993896484375</AltitudeMeters>
            <DistanceMeters>6406.6720824889</DistanceMeters>
          </Trackpoint>
          <Trackpoint>
            <Time>2019-01-04T10:48:00.000Z</Time>
            <Position>
              <LatitudeDegrees>36.50828777812421321868896484375</LatitudeDegrees>
              <LongitudeDegrees>-5.40522658266127109527587890625</LongitudeDegrees>
            </Position>
            <AltitudeMeters>197.399993896484375</AltitudeMeters>
            <DistanceMeters>6408.2131568235</DistanceMeters>
          </Trackpoint>
          <Trackpoint>
            <Time>2019-01-04T10:48:01.000Z</Time>
            <Position>
              <LatitudeDegrees>36.508282832801342010498046875</LatitudeDegrees>
              <LongitudeDegrees>-5.40520428679883480072021484375</LongitudeDegrees>
            </Position>
            <AltitudeMeters>197.399993896484375</AltitudeMeters>
            <DistanceMeters>6410.2842160479</DistanceMeters>
          </Trackpoint>
          <Trackpoint>
            <Time>2019-01-04T10:48:02.000Z</Time>
            <Position>
              <LatitudeDegrees>36.50827713310718536376953125</LatitudeDegrees>
              <LongitudeDegrees>-5.4051874391734600067138671875</LongitudeDegrees>
            </Position>
            <AltitudeMeters>197.399993896484375</AltitudeMeters>
            <DistanceMeters>6411.91911746</DistanceMeters>
          </Trackpoint>
          <Trackpoint>
            <Time>2019-01-04T10:48:03.000Z</Time>
            <Position>
              <LatitudeDegrees>36.50827084667980670928955078125</LatitudeDegrees>
              <LongitudeDegrees>-5.4051716811954975128173828125</LongitudeDegrees>
            </Position>
            <AltitudeMeters>197.399993896484375</AltitudeMeters>
            <DistanceMeters>6413.4920894704</DistanceMeters>
          </Trackpoint>
          <Trackpoint>
            <Time>2019-01-04T10:48:04.000Z</Time>
            <Position>
              <LatitudeDegrees>36.50826447643339633941650390625</LatitudeDegrees>
              <LongitudeDegrees>-5.405152738094329833984375</LongitudeDegrees>
            </Position>
            <AltitudeMeters>197.399993896484375</AltitudeMeters>
            <DistanceMeters>6415.3298186643</DistanceMeters>
          </Trackpoint>
          <Trackpoint>
            <Time>2019-01-04T10:48:05.000Z</Time>
            <Position>
              <LatitudeDegrees>36.5082625485956668853759765625</LatitudeDegrees>
              <LongitudeDegrees>-5.4051398299634456634521484375</LongitudeDegrees>
            </Position>
            <AltitudeMeters>198.1999969482421875</AltitudeMeters>
            <DistanceMeters>6416.5090691773</DistanceMeters>
          </Trackpoint>
          <Trackpoint>
            <Time>2019-01-04T10:48:06.000Z</Time>
            <Position>
              <LatitudeDegrees>36.5082612074911594390869140625</LatitudeDegrees>
              <LongitudeDegrees>-5.40512650273740291595458984375</LongitudeDegrees>
            </Position>
            <AltitudeMeters>198.8000030517578125</AltitudeMeters>
            <DistanceMeters>6417.7110726012</DistanceMeters>
          </Trackpoint>
          <Trackpoint>
            <Time>2019-01-04T10:48:07.000Z</Time>
            <Position>
              <LatitudeDegrees>36.50825701653957366943359375</LatitudeDegrees>
              <LongitudeDegrees>-5.405112169682979583740234375</LongitudeDegrees>
            </Position>
            <AltitudeMeters>198.8000030517578125</AltitudeMeters>
            <DistanceMeters>6419.0749625335</DistanceMeters>
          </Trackpoint>
          <Trackpoint>
            <Time>2019-01-04T10:48:08.000Z</Time>
            <Position>
              <LatitudeDegrees>36.508252657949924468994140625</LatitudeDegrees>
              <LongitudeDegrees>-5.4050949029624462127685546875</LongitudeDegrees>
            </Position>
            <AltitudeMeters>198.8000030517578125</AltitudeMeters>
            <DistanceMeters>6420.6932091676</DistanceMeters>
          </Trackpoint>
          <Trackpoint>
            <Time>2019-01-04T10:48:09.000Z</Time>
            <Position>
              <LatitudeDegrees>36.50824737735092639923095703125</LatitudeDegrees>
              <LongitudeDegrees>-5.40507973171770572662353515625</LongitudeDegrees>
            </Position>
            <AltitudeMeters>198.600006103515625</AltitudeMeters>
            <DistanceMeters>6422.1714779183</DistanceMeters>
          </Trackpoint>
          <Trackpoint>
            <Time>2019-01-04T10:48:10.000Z</Time>
            <Position>
              <LatitudeDegrees>36.5082407556474208831787109375</LatitudeDegrees>
              <LongitudeDegrees>-5.4050633870065212249755859375</LongitudeDegrees>
            </Position>
            <AltitudeMeters>198.600006103515625</AltitudeMeters>
            <DistanceMeters>6423.8063793305</DistanceMeters>
          </Trackpoint>
          <Trackpoint>
            <Time>2019-01-04T10:48:11.000Z</Time>
            <Position>
              <LatitudeDegrees>36.5082384087145328521728515625</LatitudeDegrees>
              <LongitudeDegrees>-5.40504687465727329254150390625</LongitudeDegrees>
            </Position>
            <AltitudeMeters>198.8000030517578125</AltitudeMeters>
            <DistanceMeters>6425.3088836103</DistanceMeters>
          </Trackpoint>
          <Trackpoint>
            <Time>2019-01-04T10:48:12.000Z</Time>
            <Position>
              <LatitudeDegrees>36.508235894143581390380859375</LatitudeDegrees>
              <LongitudeDegrees>-5.40502860210835933685302734375</LongitudeDegrees>
            </Position>
            <AltitudeMeters>198.8000030517578125</AltitudeMeters>
            <DistanceMeters>6426.9684538304</DistanceMeters>
          </Trackpoint>
          <Trackpoint>
            <Time>2019-01-04T10:48:13.000Z</Time>
            <Position>
              <LatitudeDegrees>36.50822818279266357421875</LatitudeDegrees>
              <LongitudeDegrees>-5.4050070606172084808349609375</LongitudeDegrees>
            </Position>
            <AltitudeMeters>198.8000030517578125</AltitudeMeters>
            <DistanceMeters>6429.0805281102</DistanceMeters>
          </Trackpoint>
          <Trackpoint>
            <Time>2019-01-04T10:48:14.000Z</Time>
            <Position>
              <LatitudeDegrees>36.50822491385042667388916015625</LatitudeDegrees>
              <LongitudeDegrees>-5.404990799725055694580078125</LongitudeDegrees>
            </Position>
            <AltitudeMeters>199</AltitudeMeters>
            <DistanceMeters>6430.5830323901</DistanceMeters>
          </Trackpoint>
          <Trackpoint>
            <Time>2019-01-04T10:48:15.000Z</Time>
            <Position>
              <LatitudeDegrees>36.50821988470852375030517578125</LatitudeDegrees>
              <LongitudeDegrees>-5.40497680194675922393798828125</LongitudeDegrees>
            </Position>
            <AltitudeMeters>199.1999969482421875</AltitudeMeters>
            <DistanceMeters>6431.9535271549</DistanceMeters>
          </Trackpoint>
          <Trackpoint>
            <Time>2019-01-04T10:48:16.000Z</Time>
            <Position>
              <LatitudeDegrees>36.5082134306430816650390625</LatitudeDegrees>
              <LongitudeDegrees>-5.4049609601497650146484375</LongitudeDegrees>
            </Position>
            <AltitudeMeters>199.1999969482421875</AltitudeMeters>
            <DistanceMeters>6433.5407862162</DistanceMeters>
          </Trackpoint>
          <Trackpoint>
            <Time>2019-01-04T10:48:17.000Z</Time>
            <Position>
              <LatitudeDegrees>36.50820739567279815673828125</LatitudeDegrees>
              <LongitudeDegrees>-5.40494578890502452850341796875</LongitudeDegrees>
            </Position>
            <AltitudeMeters>199.399993896484375</AltitudeMeters>
            <DistanceMeters>6435.055262831</DistanceMeters>
          </Trackpoint>
          <Trackpoint>
            <Time>2019-01-04T10:48:18.000Z</Time>
            <Position>
              <LatitudeDegrees>36.5081998519599437713623046875</LatitudeDegrees>
              <LongitudeDegrees>-5.40493749082088470458984375</LongitudeDegrees>
            </Position>
            <AltitudeMeters>199.399993896484375</AltitudeMeters>
            <DistanceMeters>6436.1715739656</DistanceMeters>
          </Trackpoint>
          <Trackpoint>
            <Time>2019-01-04T10:48:19.000Z</Time>
            <Position>
              <LatitudeDegrees>36.50818635709583759307861328125</LatitudeDegrees>
              <LongitudeDegrees>-5.404924415051937103271484375</LongitudeDegrees>
            </Position>
            <AltitudeMeters>199.399993896484375</AltitudeMeters>
            <DistanceMeters>6438.0768536644</DistanceMeters>
          </Trackpoint>
          <Trackpoint>
            <Time>2019-01-04T10:48:20.000Z</Time>
            <Position>
              <LatitudeDegrees>36.5081743709743022918701171875</LatitudeDegrees>
              <LongitudeDegrees>-5.4049141891300678253173828125</LongitudeDegrees>
            </Position>
            <AltitudeMeters>199.600006103515625</AltitudeMeters>
            <DistanceMeters>6439.6895104834</DistanceMeters>
          </Trackpoint>
          <Trackpoint>
            <Time>2019-01-04T10:48:21.000Z</Time>
            <Position>
              <LatitudeDegrees>36.508166156709194183349609375</LatitudeDegrees>
              <LongitudeDegrees>-5.40490522049367427825927734375</LongitudeDegrees>
            </Position>
            <AltitudeMeters>199.600006103515625</AltitudeMeters>
            <DistanceMeters>6440.8990030976</DistanceMeters>
          </Trackpoint>
          <Trackpoint>
            <Time>2019-01-04T10:48:22.000Z</Time>
            <Position>
              <LatitudeDegrees>36.5081576071679592132568359375</LatitudeDegrees>
              <LongitudeDegrees>-5.4048939049243927001953125</LongitudeDegrees>
            </Position>
            <AltitudeMeters>199.600006103515625</AltitudeMeters>
            <DistanceMeters>6442.2891240848</DistanceMeters>
          </Trackpoint>
          <Trackpoint>
            <Time>2019-01-04T10:48:23.000Z</Time>
            <Position>
              <LatitudeDegrees>36.508150734007358551025390625</LatitudeDegrees>
              <LongitudeDegrees>-5.40488644503057003021240234375</LongitudeDegrees>
            </Position>
            <AltitudeMeters>199.8000030517578125</AltitudeMeters>
            <DistanceMeters>6443.3037317502</DistanceMeters>
          </Trackpoint>
          <Trackpoint>
            <Time>2019-01-04T10:48:24.000Z</Time>
            <Position>
              <LatitudeDegrees>36.50814025662839412689208984375</LatitudeDegrees>
              <LongitudeDegrees>-5.4048759676516056060791015625</LongitudeDegrees>
            </Position>
            <AltitudeMeters>199.8000030517578125</AltitudeMeters>
            <DistanceMeters>6444.8032280104</DistanceMeters>
          </Trackpoint>
          <Trackpoint>
            <Time>2019-01-04T10:48:25.000Z</Time>
            <Position>
              <LatitudeDegrees>36.5081314556300640106201171875</LatitudeDegrees>
              <LongitudeDegrees>-5.4048649035394191741943359375</LongitudeDegrees>
            </Position>
            <AltitudeMeters>199.8000030517578125</AltitudeMeters>
            <DistanceMeters>6446.1998297833</DistanceMeters>
          </Trackpoint>
          <Trackpoint>
            <Time>2019-01-04T10:48:26.000Z</Time>
            <Position>
              <LatitudeDegrees>36.5081247501075267791748046875</LatitudeDegrees>
              <LongitudeDegrees>-5.40485509671270847320556640625</LongitudeDegrees>
            </Position>
            <AltitudeMeters>199.8000030517578125</AltitudeMeters>
            <DistanceMeters>6447.3519674648</DistanceMeters>
          </Trackpoint>
          <Trackpoint>
            <Time>2019-01-04T10:48:27.000Z</Time>
            <Position>
              <LatitudeDegrees>36.5081130154430866241455078125</LatitudeDegrees>
              <LongitudeDegrees>-5.40484285913407802581787109375</LongitudeDegrees>
            </Position>
            <AltitudeMeters>200</AltitudeMeters>
            <DistanceMeters>6449.0518570089</DistanceMeters>
          </Trackpoint>
          <Trackpoint>
            <Time>2019-01-04T10:48:28.000Z</Time>
            <Position>
              <LatitudeDegrees>36.508103795349597930908203125</LatitudeDegrees>
              <LongitudeDegrees>-5.404831878840923309326171875</LongitudeDegrees>
            </Position>
            <AltitudeMeters>200</AltitudeMeters>
            <DistanceMeters>6450.4709084692</DistanceMeters>
          </Trackpoint>
          <Trackpoint>
            <Time>2019-01-04T10:48:29.000Z</Time>
            <Position>
              <LatitudeDegrees>36.5080954134464263916015625</LatitudeDegrees>
              <LongitudeDegrees>-5.40482081472873687744140625</LongitudeDegrees>
            </Position>
            <AltitudeMeters>200</AltitudeMeters>
            <DistanceMeters>6451.8281614282</DistanceMeters>
          </Trackpoint>
          <Trackpoint>
            <Time>2019-01-04T10:48:30.000Z</Time>
            <Position>
              <LatitudeDegrees>36.50808594189584255218505859375</LatitudeDegrees>
              <LongitudeDegrees>-5.40481084026396274566650390625</LongitudeDegrees>
            </Position>
            <AltitudeMeters>200.1999969482421875</AltitudeMeters>
            <DistanceMeters>6453.2085041862</DistanceMeters>
          </Trackpoint>
          <Trackpoint>
            <Time>2019-01-04T10:48:31.000Z</Time>
            <Position>
              <LatitudeDegrees>36.50807797908782958984375</LatitudeDegrees>
              <LongitudeDegrees>-5.40480312891304492950439453125</LongitudeDegrees>
            </Position>
            <AltitudeMeters>200.1999969482421875</AltitudeMeters>
            <DistanceMeters>6454.3328754337</DistanceMeters>
          </Trackpoint>
          <Trackpoint>
            <Time>2019-01-04T10:48:32.000Z</Time>
            <Position>
              <LatitudeDegrees>36.5080685913562774658203125</LatitudeDegrees>
              <LongitudeDegrees>-5.4047931544482707977294921875</LongitudeDegrees>
            </Position>
            <AltitudeMeters>200.1999969482421875</AltitudeMeters>
            <DistanceMeters>6455.7033701985</DistanceMeters>
          </Trackpoint>
          <Trackpoint>
            <Time>2019-01-04T10:48:33.000Z</Time>
            <Position>
              <LatitudeDegrees>36.50805777870118618011474609375</LatitudeDegrees>
              <LongitudeDegrees>-5.4047785699367523193359375</LongitudeDegrees>
            </Position>
            <AltitudeMeters>200.1999969482421875</AltitudeMeters>
            <DistanceMeters>6457.4811572373</DistanceMeters>
          </Trackpoint>
          <Trackpoint>
            <Time>2019-01-04T10:48:34.000Z</Time>
            <Position>
              <LatitudeDegrees>36.50805224664509296417236328125</LatitudeDegrees>
              <LongitudeDegrees>-5.4047659970819950103759765625</LongitudeDegrees>
            </Position>
            <AltitudeMeters>200</AltitudeMeters>
            <DistanceMeters>6458.7666548021</DistanceMeters>
          </Trackpoint>
          <Trackpoint>
            <Time>2019-01-04T10:48:35.000Z</Time>
            <Position>
              <LatitudeDegrees>36.50804570876061916351318359375</LatitudeDegrees>
              <LongitudeDegrees>-5.4047571122646331787109375</LongitudeDegrees>
            </Position>
            <AltitudeMeters>200</AltitudeMeters>
            <DistanceMeters>6459.8417593481</DistanceMeters>
          </Trackpoint>
          <Trackpoint>
            <Time>2019-01-04T10:48:36.000Z</Time>
            <Position>
              <LatitudeDegrees>36.5080364048480987548828125</LatitudeDegrees>
              <LongitudeDegrees>-5.40475049056112766265869140625</LongitudeDegrees>
            </Position>
            <AltitudeMeters>200</AltitudeMeters>
            <DistanceMeters>6461.0362266261</DistanceMeters>
          </Trackpoint>
          <Trackpoint>
            <Time>2019-01-04T10:48:37.000Z</Time>
            <Position>
              <LatitudeDegrees>36.50802626274526119232177734375</LatitudeDegrees>
              <LongitudeDegrees>-5.40474412031471729278564453125</LongitudeDegrees>
            </Position>
            <AltitudeMeters>200</AltitudeMeters>
            <DistanceMeters>6462.3040411264</DistanceMeters>
          </Trackpoint>
          <Trackpoint>
            <Time>2019-01-04T10:48:38.000Z</Time>
            <Position>
              <LatitudeDegrees>36.50801427662372589111328125</LatitudeDegrees>
              <LongitudeDegrees>-5.404731296002864837646484375</LongitudeDegrees>
            </Position>
            <AltitudeMeters>200.1999969482421875</AltitudeMeters>
            <DistanceMeters>6464.0639605053</DistanceMeters>
          </Trackpoint>
          <Trackpoint>
            <Time>2019-01-04T10:48:39.000Z</Time>
            <Position>
              <LatitudeDegrees>36.5080043859779834747314453125</LatitudeDegrees>
              <LongitudeDegrees>-5.4047193937003612518310546875</LongitudeDegrees>
            </Position>
            <AltitudeMeters>200.1999969482421875</AltitudeMeters>
            <DistanceMeters>6465.5962202337</DistanceMeters>
          </Trackpoint>
          <Trackpoint>
            <Time>2019-01-04T10:48:40.000Z</Time>
            <Position>
              <LatitudeDegrees>36.5079990215599536895751953125</LatitudeDegrees>
              <LongitudeDegrees>-5.4047063179314136505126953125</LongitudeDegrees>
            </Position>
            <AltitudeMeters>200.1999969482421875</AltitudeMeters>
            <DistanceMeters>6466.909515555</DistanceMeters>
          </Trackpoint>
          <Trackpoint>
            <Time>2019-01-04T10:48:41.000Z</Time>
            <Position>
              <LatitudeDegrees>36.50799726136028766632080078125</LatitudeDegrees>
              <LongitudeDegrees>-5.4046972654759883880615234375</LongitudeDegrees>
            </Position>
            <AltitudeMeters>200.399993896484375</AltitudeMeters>
            <DistanceMeters>6467.7379392447</DistanceMeters>
          </Trackpoint>
          <Trackpoint>
            <Time>2019-01-04T10:48:42.000Z</Time>
            <Position>
              <LatitudeDegrees>36.5079923160374164581298828125</LatitudeDegrees>
              <LongitudeDegrees>-5.40468276478350162506103515625</LongitudeDegrees>
            </Position>
            <AltitudeMeters>200.1999969482421875</AltitudeMeters>
            <DistanceMeters>6469.144206197</DistanceMeters>
          </Trackpoint>
          <Trackpoint>
            <Time>2019-01-04T10:48:43.000Z</Time>
            <Position>
              <LatitudeDegrees>36.5079800784587860107421875</LatitudeDegrees>
              <LongitudeDegrees>-5.4046711139380931854248046875</LongitudeDegrees>
            </Position>
            <AltitudeMeters>200.1999969482421875</AltitudeMeters>
            <DistanceMeters>6470.857324653</DistanceMeters>
          </Trackpoint>
          <Trackpoint>
            <Time>2019-01-04T10:48:44.000Z</Time>
            <Position>
              <LatitudeDegrees>36.5079720318317413330078125</LatitudeDegrees>
              <LongitudeDegrees>-5.4046570323407649993896484375</LongitudeDegrees>
            </Position>
            <AltitudeMeters>200.1999969482421875</AltitudeMeters>
            <DistanceMeters>6472.4013260071</DistanceMeters>
          </Trackpoint>
          <Trackpoint>
            <Time>2019-01-04T10:48:45.000Z</Time>
            <Position>
              <LatitudeDegrees>36.50795987807214260101318359375</LatitudeDegrees>
              <LongitudeDegrees>-5.40464672259986400604248046875</LongitudeDegrees>
            </Position>
            <AltitudeMeters>200</AltitudeMeters>
            <DistanceMeters>6474.0362274192</DistanceMeters>
          </Trackpoint>
          <Trackpoint>
            <Time>2019-01-04T10:48:46.000Z</Time>
            <Position>
              <LatitudeDegrees>36.50794990360736846923828125</LatitudeDegrees>
              <LongitudeDegrees>-5.40463783778250217437744140625</LongitudeDegrees>
            </Position>
            <AltitudeMeters>199.8000030517578125</AltitudeMeters>
            <DistanceMeters>6475.4001173515</DistanceMeters>
          </Trackpoint>
          <Trackpoint>
            <Time>2019-01-04T10:48:47.000Z</Time>
            <Position>
              <LatitudeDegrees>36.50794110260903835296630859375</LatitudeDegrees>
              <LongitudeDegrees>-5.40463247336447238922119140625</LongitudeDegrees>
            </Position>
            <AltitudeMeters>199.600006103515625</AltitudeMeters>
            <DistanceMeters>6476.48774781</DistanceMeters>
          </Trackpoint>
          <Trackpoint>
            <Time>2019-01-04T10:48:48.000Z</Time>
            <Position>
              <LatitudeDegrees>36.5079326368868350982666015625</LatitudeDegrees>
              <LongitudeDegrees>-5.40462459437549114227294921875</LongitudeDegrees>
            </Position>
            <AltitudeMeters>199.399993896484375</AltitudeMeters>
            <DistanceMeters>6477.6631633518</DistanceMeters>
          </Trackpoint>
          <Trackpoint>
            <Time>2019-01-04T10:48:49.000Z</Time>
            <Position>
              <LatitudeDegrees>36.50792299769818782806396484375</LatitudeDegrees>
              <LongitudeDegrees>-5.4046141169965267181396484375</LongitudeDegrees>
            </Position>
            <AltitudeMeters>199.1999969482421875</AltitudeMeters>
            <DistanceMeters>6479.0853929828</DistanceMeters>
          </Trackpoint>
          <Trackpoint>
            <Time>2019-01-04T10:48:50.000Z</Time>
            <Position>
              <LatitudeDegrees>36.50791210122406482696533203125</LatitudeDegrees>
              <LongitudeDegrees>-5.40460548363626003265380859375</LongitudeDegrees>
            </Position>
            <AltitudeMeters>199.1999969482421875</AltitudeMeters>
            <DistanceMeters>6480.5202649037</DistanceMeters>
          </Trackpoint>
          <Trackpoint>
            <Time>2019-01-04T10:48:51.000Z</Time>
            <Position>
              <LatitudeDegrees>36.507901959121227264404296875</LatitudeDegrees>
              <LongitudeDegrees>-5.4045961797237396240234375</LongitudeDegrees>
            </Position>
            <AltitudeMeters>199</AltitudeMeters>
            <DistanceMeters>6481.9200958179</DistanceMeters>
          </Trackpoint>
          <Trackpoint>
            <Time>2019-01-04T10:48:52.000Z</Time>
            <Position>
              <LatitudeDegrees>36.50789466686546802520751953125</LatitudeDegrees>
              <LongitudeDegrees>-5.4045896418392658233642578125</LongitudeDegrees>
            </Position>
            <AltitudeMeters>199.1999969482421875</AltitudeMeters>
            <DistanceMeters>6482.9167444063</DistanceMeters>
          </Trackpoint>
          <Trackpoint>
            <Time>2019-01-04T10:48:53.000Z</Time>
            <Position>
              <LatitudeDegrees>36.5078853629529476165771484375</LatitudeDegrees>
              <LongitudeDegrees>-5.4045795835554599761962890625</LongitudeDegrees>
            </Position>
            <AltitudeMeters>199.1999969482421875</AltitudeMeters>
            <DistanceMeters>6484.2872391711</DistanceMeters>
          </Trackpoint>
          <Trackpoint>
            <Time>2019-01-04T10:48:54.000Z</Time>
            <Position>
              <LatitudeDegrees>36.50787656195461750030517578125</LatitudeDegrees>
              <LongitudeDegrees>-5.4045695252716541290283203125</LongitudeDegrees>
            </Position>
            <AltitudeMeters>199.1999969482421875</AltitudeMeters>
            <DistanceMeters>6485.6176131723</DistanceMeters>
          </Trackpoint>
          <Trackpoint>
            <Time>2019-01-04T10:48:55.000Z</Time>
            <Position>
              <LatitudeDegrees>36.50786700658500194549560546875</LatitudeDegrees>
              <LongitudeDegrees>-5.4045614786446094512939453125</LongitudeDegrees>
            </Position>
            <AltitudeMeters>199.1999969482421875</AltitudeMeters>
            <DistanceMeters>6486.8995936373</DistanceMeters>
          </Trackpoint>
          <Trackpoint>
            <Time>2019-01-04T10:48:56.000Z</Time>
            <Position>
              <LatitudeDegrees>36.5078575350344181060791015625</LatitudeDegrees>
              <LongitudeDegrees>-5.404551587998867034912109375</LongitudeDegrees>
            </Position>
            <AltitudeMeters>199.399993896484375</AltitudeMeters>
            <DistanceMeters>6488.2799363954</DistanceMeters>
          </Trackpoint>
          <Trackpoint>
            <Time>2019-01-04T10:48:57.000Z</Time>
            <Position>
              <LatitudeDegrees>36.50784722529351711273193359375</LatitudeDegrees>
              <LongitudeDegrees>-5.40454320609569549560546875</LongitudeDegrees>
            </Position>
            <AltitudeMeters>199.600006103515625</AltitudeMeters>
            <DistanceMeters>6489.6504311602</DistanceMeters>
          </Trackpoint>
          <Trackpoint>
            <Time>2019-01-04T10:48:58.000Z</Time>
            <Position>
              <LatitudeDegrees>36.50783381424844264984130859375</LatitudeDegrees>
              <LongitudeDegrees>-5.40453105233609676361083984375</LongitudeDegrees>
            </Position>
            <AltitudeMeters>199.600006103515625</AltitudeMeters>
            <DistanceMeters>6491.4979616459</DistanceMeters>
          </Trackpoint>
          <Trackpoint>
            <Time>2019-01-04T10:48:59.000Z</Time>
            <Position>
              <LatitudeDegrees>36.50782241486012935638427734375</LatitudeDegrees>
              <LongitudeDegrees>-5.40452040731906890869140625</LongitudeDegrees>
            </Position>
            <AltitudeMeters>199.600006103515625</AltitudeMeters>
            <DistanceMeters>6493.0823736035</DistanceMeters>
          </Trackpoint>
          <Trackpoint>
            <Time>2019-01-04T10:49:00.000Z</Time>
            <Position>
              <LatitudeDegrees>36.507810764014720916748046875</LatitudeDegrees>
              <LongitudeDegrees>-5.40451076813042163848876953125</LongitudeDegrees>
            </Position>
            <AltitudeMeters>199.600006103515625</AltitudeMeters>
            <DistanceMeters>6494.6380279633</DistanceMeters>
          </Trackpoint>
          <Trackpoint>
            <Time>2019-01-04T10:49:01.000Z</Time>
            <Position>
              <LatitudeDegrees>36.507796011865139007568359375</LatitudeDegrees>
              <LongitudeDegrees>-5.40449970401823520660400390625</LongitudeDegrees>
            </Position>
            <AltitudeMeters>199.600006103515625</AltitudeMeters>
            <DistanceMeters>6496.5551198006</DistanceMeters>
          </Trackpoint>
          <Trackpoint>
            <Time>2019-01-04T10:49:02.000Z</Time>
            <Position>
              <LatitudeDegrees>36.50778134353458881378173828125</LatitudeDegrees>
              <LongitudeDegrees>-5.40448956191539764404296875</LongitudeDegrees>
            </Position>
            <AltitudeMeters>199.399993896484375</AltitudeMeters>
            <DistanceMeters>6498.4220985116</DistanceMeters>
          </Trackpoint>
          <Trackpoint>
            <Time>2019-01-04T10:49:03.000Z</Time>
            <Position>
              <LatitudeDegrees>36.50777019560337066650390625</LatitudeDegrees>
              <LongitudeDegrees>-5.404481850564479827880859375</LongitudeDegrees>
            </Position>
            <AltitudeMeters>199.399993896484375</AltitudeMeters>
            <DistanceMeters>6499.8443281427</DistanceMeters>
          </Trackpoint>
          <Trackpoint>
            <Time>2019-01-04T10:49:04.000Z</Time>
            <Position>
              <LatitudeDegrees>36.507763154804706573486328125</LatitudeDegrees>
              <LongitudeDegrees>-5.4044722951948642730712890625</LongitudeDegrees>
            </Position>
            <AltitudeMeters>199.1999969482421875</AltitudeMeters>
            <DistanceMeters>6501.0081629534</DistanceMeters>
          </Trackpoint>
          <Trackpoint>
            <Time>2019-01-04T10:49:05.000Z</Time>
            <Position>
              <LatitudeDegrees>36.5077525936067104339599609375</LatitudeDegrees>
              <LongitudeDegrees>-5.40446097962558269500732421875</LongitudeDegrees>
            </Position>
            <AltitudeMeters>199.1999969482421875</AltitudeMeters>
            <DistanceMeters>6502.5638173131</DistanceMeters>
          </Trackpoint>
          <Trackpoint>
            <Time>2019-01-04T10:49:06.000Z</Time>
            <Position>
              <LatitudeDegrees>36.50774261914193630218505859375</LatitudeDegrees>
              <LongitudeDegrees>-5.404451005160808563232421875</LongitudeDegrees>
            </Position>
            <AltitudeMeters>199</AltitudeMeters>
            <DistanceMeters>6503.9892180287</DistanceMeters>
          </Trackpoint>
          <Trackpoint>
            <Time>2019-01-04T10:49:07.000Z</Time>
            <Position>
              <LatitudeDegrees>36.5077324770390987396240234375</LatitudeDegrees>
              <LongitudeDegrees>-5.40444270707666873931884765625</LongitudeDegrees>
            </Position>
            <AltitudeMeters>199</AltitudeMeters>
            <DistanceMeters>6505.3464709876</DistanceMeters>
          </Trackpoint>
          <Trackpoint>
            <Time>2019-01-04T10:49:08.000Z</Time>
            <Position>
              <LatitudeDegrees>36.50772283785045146942138671875</LatitudeDegrees>
              <LongitudeDegrees>-5.404436588287353515625</LongitudeDegrees>
            </Position>
            <AltitudeMeters>198.8000030517578125</AltitudeMeters>
            <DistanceMeters>6506.5522248213</DistanceMeters>
          </Trackpoint>
          <Trackpoint>
            <Time>2019-01-04T10:49:09.000Z</Time>
            <Position>
              <LatitudeDegrees>36.50770640932023525238037109375</LatitudeDegrees>
              <LongitudeDegrees>-5.4044307209551334381103515625</LongitudeDegrees>
            </Position>
            <AltitudeMeters>198.8000030517578125</AltitudeMeters>
            <DistanceMeters>6508.4527591087</DistanceMeters>
          </Trackpoint>
          <Trackpoint>
            <Time>2019-01-04T10:49:10.000Z</Time>
            <Position>
              <LatitudeDegrees>36.50769174098968505859375</LatitudeDegrees>
              <LongitudeDegrees>-5.40442929603159427642822265625</LongitudeDegrees>
            </Position>
            <AltitudeMeters>198.8000030517578125</AltitudeMeters>
            <DistanceMeters>6510.0876605208</DistanceMeters>
          </Trackpoint>
          <Trackpoint>
            <Time>2019-01-04T10:49:11.000Z</Time>
            <Position>
              <LatitudeDegrees>36.5076774917542934417724609375</LatitudeDegrees>
              <LongitudeDegrees>-5.40442049503326416015625</LongitudeDegrees>
            </Position>
            <AltitudeMeters>198.600006103515625</AltitudeMeters>
            <DistanceMeters>6511.8552595844</DistanceMeters>
          </Trackpoint>
          <Trackpoint>
            <Time>2019-01-04T10:49:12.000Z</Time>
            <Position>
              <LatitudeDegrees>36.50766651146113872528076171875</LatitudeDegrees>
              <LongitudeDegrees>-5.40441521443426609039306640625</LongitudeDegrees>
            </Position>
            <AltitudeMeters>198.8000030517578125</AltitudeMeters>
            <DistanceMeters>6513.165112448</DistanceMeters>
          </Trackpoint>
          <Trackpoint>
            <Time>2019-01-04T10:49:13.000Z</Time>
            <Position>
              <LatitudeDegrees>36.5076556988060474395751953125</LatitudeDegrees>
              <LongitudeDegrees>-5.40440985001623630523681640625</LongitudeDegrees>
            </Position>
            <AltitudeMeters>198.8000030517578125</AltitudeMeters>
            <DistanceMeters>6514.4611040447</DistanceMeters>
          </Trackpoint>
          <Trackpoint>
            <Time>2019-01-04T10:49:14.000Z</Time>
            <Position>
              <LatitudeDegrees>36.50764589197933673858642578125</LatitudeDegrees>
              <LongitudeDegrees>-5.40440582670271396636962890625</LongitudeDegrees>
            </Position>
            <AltitudeMeters>199</AltitudeMeters>
            <DistanceMeters>6515.6093162031</DistanceMeters>
          </Trackpoint>
          <Trackpoint>
            <Time>2019-01-04T10:49:15.000Z</Time>
            <Position>
              <LatitudeDegrees>36.50763751007616519927978515625</LatitudeDegrees>
              <LongitudeDegrees>-5.40440666489303112030029296875</LongitudeDegrees>
            </Position>
            <AltitudeMeters>199</AltitudeMeters>
            <DistanceMeters>6516.5452208003</DistanceMeters>
          </Trackpoint>
          <Trackpoint>
            <Time>2019-01-04T10:49:16.000Z</Time>
            <Position>
              <LatitudeDegrees>36.50762594304978847503662109375</LatitudeDegrees>
              <LongitudeDegrees>-5.4044032283127307891845703125</LongitudeDegrees>
            </Position>
            <AltitudeMeters>199</AltitudeMeters>
            <DistanceMeters>6517.8653741072</DistanceMeters>
          </Trackpoint>
          <Trackpoint>
            <Time>2019-01-04T10:49:17.000Z</Time>
            <Position>
              <LatitudeDegrees>36.5076067484915256500244140625</LatitudeDegrees>
              <LongitudeDegrees>-5.404387302696704864501953125</LongitudeDegrees>
            </Position>
            <AltitudeMeters>199</AltitudeMeters>
            <DistanceMeters>6520.4328545461</DistanceMeters>
          </Trackpoint>
          <Trackpoint>
            <Time>2019-01-04T10:49:18.000Z</Time>
            <Position>
              <LatitudeDegrees>36.5075906552374362945556640625</LatitudeDegrees>
              <LongitudeDegrees>-5.404374562203884124755859375</LongitudeDegrees>
            </Position>
            <AltitudeMeters>199</AltitudeMeters>
            <DistanceMeters>6522.5577164762</DistanceMeters>
          </Trackpoint>
          <Trackpoint>
            <Time>2019-01-04T10:49:19.000Z</Time>
            <Position>
              <LatitudeDegrees>36.5075745619833469390869140625</LatitudeDegrees>
              <LongitudeDegrees>-5.4043656773865222930908203125</LongitudeDegrees>
            </Position>
            <AltitudeMeters>199</AltitudeMeters>
            <DistanceMeters>6524.5167423792</DistanceMeters>
          </Trackpoint>
          <Trackpoint>
            <Time>2019-01-04T10:49:20.000Z</Time>
            <Position>
              <LatitudeDegrees>36.50756190530955791473388671875</LatitudeDegrees>
              <LongitudeDegrees>-5.40435788221657276153564453125</LongitudeDegrees>
            </Position>
            <AltitudeMeters>199</AltitudeMeters>
            <DistanceMeters>6526.0897143897</DistanceMeters>
          </Trackpoint>
          <Trackpoint>
            <Time>2019-01-04T10:49:21.000Z</Time>
            <Position>
              <LatitudeDegrees>36.50755025446414947509765625</LatitudeDegrees>
              <LongitudeDegrees>-5.40435017086565494537353515625</LongitudeDegrees>
            </Position>
            <AltitudeMeters>199</AltitudeMeters>
            <DistanceMeters>6527.5557151379</DistanceMeters>
          </Trackpoint>
          <Trackpoint>
            <Time>2019-01-04T10:49:22.000Z</Time>
            <Position>
              <LatitudeDegrees>36.50753860361874103546142578125</LatitudeDegrees>
              <LongitudeDegrees>-5.40434162132441997528076171875</LongitudeDegrees>
            </Position>
            <AltitudeMeters>199</AltitudeMeters>
            <DistanceMeters>6529.0642174626</DistanceMeters>
          </Trackpoint>
          <Trackpoint>
            <Time>2019-01-04T10:49:23.000Z</Time>
            <Position>
              <LatitudeDegrees>36.50752368383109569549560546875</LatitudeDegrees>
              <LongitudeDegrees>-5.4043375141918659210205078125</LongitudeDegrees>
            </Position>
            <AltitudeMeters>199</AltitudeMeters>
            <DistanceMeters>6530.7667610123</DistanceMeters>
          </Trackpoint>
          <Trackpoint>
            <Time>2019-01-04T10:49:24.000Z</Time>
            <Position>
              <LatitudeDegrees>36.50750733911991119384765625</LatitudeDegrees>
              <LongitudeDegrees>-5.40433340705931186676025390625</LongitudeDegrees>
            </Position>
            <AltitudeMeters>198.8000030517578125</AltitudeMeters>
            <DistanceMeters>6532.624041067</DistanceMeters>
          </Trackpoint>
          <Trackpoint>
            <Time>2019-01-04T10:49:25.000Z</Time>
            <Position>
              <LatitudeDegrees>36.5074945986270904541015625</LatitudeDegrees>
              <LongitudeDegrees>-5.40433357469737529754638671875</LongitudeDegrees>
            </Position>
            <AltitudeMeters>198.8000030517578125</AltitudeMeters>
            <DistanceMeters>6534.0399072226</DistanceMeters>
          </Trackpoint>
          <Trackpoint>
            <Time>2019-01-04T10:49:26.000Z</Time>
            <Position>
              <LatitudeDegrees>36.50748143903911113739013671875</LatitudeDegrees>
              <LongitudeDegrees>-5.40433466434478759765625</LongitudeDegrees>
            </Position>
            <AltitudeMeters>198.600006103515625</AltitudeMeters>
            <DistanceMeters>6535.5059079708</DistanceMeters>
          </Trackpoint>
          <Trackpoint>
            <Time>2019-01-04T10:49:27.000Z</Time>
            <Position>
              <LatitudeDegrees>36.50747121311724185943603515625</LatitudeDegrees>
              <LongitudeDegrees>-5.404337681829929351806640625</LongitudeDegrees>
            </Position>
            <AltitudeMeters>198.399993896484375</AltitudeMeters>
            <DistanceMeters>6536.6774759882</DistanceMeters>
          </Trackpoint>
          <Trackpoint>
            <Time>2019-01-04T10:49:28.000Z</Time>
            <Position>
              <LatitudeDegrees>36.50745713151991367340087890625</LatitudeDegrees>
              <LongitudeDegrees>-5.40433642454445362091064453125</LongitudeDegrees>
            </Position>
            <AltitudeMeters>198.399993896484375</AltitudeMeters>
            <DistanceMeters>6538.2504479987</DistanceMeters>
          </Trackpoint>
          <Trackpoint>
            <Time>2019-01-04T10:49:29.000Z</Time>
            <Position>
              <LatitudeDegrees>36.5074382722377777099609375</LatitudeDegrees>
              <LongitudeDegrees>-5.404339022934436798095703125</LongitudeDegrees>
            </Position>
            <AltitudeMeters>198.399993896484375</AltitudeMeters>
            <DistanceMeters>6540.3625222784</DistanceMeters>
          </Trackpoint>
          <Trackpoint>
            <Time>2019-01-04T10:49:30.000Z</Time>
            <Position>
              <LatitudeDegrees>36.5074206702411174774169921875</LatitudeDegrees>
              <LongitudeDegrees>-5.40434095077216625213623046875</LongitudeDegrees>
            </Position>
            <AltitudeMeters>198.399993896484375</AltitudeMeters>
            <DistanceMeters>6542.3284502319</DistanceMeters>
          </Trackpoint>
          <Trackpoint>
            <Time>2019-01-04T10:49:31.000Z</Time>
            <Position>
              <LatitudeDegrees>36.5074029006063938140869140625</LatitudeDegrees>
              <LongitudeDegrees>-5.40434581227600574493408203125</LongitudeDegrees>
            </Position>
            <AltitudeMeters>198.1999969482421875</AltitudeMeters>
            <DistanceMeters>6544.3532106388</DistanceMeters>
          </Trackpoint>
          <Trackpoint>
            <Time>2019-01-04T10:49:32.000Z</Time>
            <Position>
              <LatitudeDegrees>36.5073891542851924896240234375</LatitudeDegrees>
              <LongitudeDegrees>-5.4043479077517986297607421875</LongitudeDegrees>
            </Position>
            <AltitudeMeters>198.1999969482421875</AltitudeMeters>
            <DistanceMeters>6545.8972119928</DistanceMeters>
          </Trackpoint>
          <Trackpoint>
            <Time>2019-01-04T10:49:33.000Z</Time>
            <Position>
              <LatitudeDegrees>36.5073757432401180267333984375</LatitudeDegrees>
              <LongitudeDegrees>-5.40434648282825946807861328125</LongitudeDegrees>
            </Position>
            <AltitudeMeters>198.1999969482421875</AltitudeMeters>
            <DistanceMeters>6547.3997162727</DistanceMeters>
          </Trackpoint>
          <Trackpoint>
            <Time>2019-01-04T10:49:34.000Z</Time>
            <Position>
              <LatitudeDegrees>36.50736518204212188720703125</LatitudeDegrees>
              <LongitudeDegrees>-5.40434212423861026763916015625</LongitudeDegrees>
            </Position>
            <AltitudeMeters>198.1999969482421875</AltitudeMeters>
            <DistanceMeters>6548.6423518073</DistanceMeters>
          </Trackpoint>
          <Trackpoint>
            <Time>2019-01-04T10:49:35.000Z</Time>
            <Position>
              <LatitudeDegrees>36.50735554285347461700439453125</LatitudeDegrees>
              <LongitudeDegrees>-5.40433625690639019012451171875</LongitudeDegrees>
            </Position>
            <AltitudeMeters>198.1999969482421875</AltitudeMeters>
            <DistanceMeters>6549.8330331256</DistanceMeters>
          </Trackpoint>
          <Trackpoint>
            <Time>2019-01-04T10:49:36.000Z</Time>
            <Position>
              <LatitudeDegrees>36.5073442272841930389404296875</LatitudeDegrees>
              <LongitudeDegrees>-5.40433659218251705169677734375</LongitudeDegrees>
            </Position>
            <AltitudeMeters>198.1999969482421875</AltitudeMeters>
            <DistanceMeters>6551.0901183962</DistanceMeters>
          </Trackpoint>
          <Trackpoint>
            <Time>2019-01-04T10:49:37.000Z</Time>
            <Position>
              <LatitudeDegrees>36.5073348395526409149169921875</LatitudeDegrees>
              <LongitudeDegrees>-5.40433910675346851348876953125</LongitudeDegrees>
            </Position>
            <AltitudeMeters>198.1999969482421875</AltitudeMeters>
            <DistanceMeters>6552.1610150805</DistanceMeters>
          </Trackpoint>
          <Trackpoint>
            <Time>2019-01-04T10:49:38.000Z</Time>
            <Position>
              <LatitudeDegrees>36.5073210932314395904541015625</LatitudeDegrees>
              <LongitudeDegrees>-5.40434128604829311370849609375</LongitudeDegrees>
            </Position>
            <AltitudeMeters>198.1999969482421875</AltitudeMeters>
            <DistanceMeters>6553.7050164345</DistanceMeters>
          </Trackpoint>
          <Trackpoint>
            <Time>2019-01-04T10:49:39.000Z</Time>
            <Position>
              <LatitudeDegrees>36.507306508719921112060546875</LatitudeDegrees>
              <LongitudeDegrees>-5.4043440520763397216796875</LongitudeDegrees>
            </Position>
            <AltitudeMeters>198.1999969482421875</AltitudeMeters>
            <DistanceMeters>6555.3454318637</DistanceMeters>
          </Trackpoint>
          <Trackpoint>
            <Time>2019-01-04T10:49:40.000Z</Time>
            <Position>
              <LatitudeDegrees>36.50729334913194179534912109375</LatitudeDegrees>
              <LongitudeDegrees>-5.4043485783040523529052734375</LongitudeDegrees>
            </Position>
            <AltitudeMeters>198.1999969482421875</AltitudeMeters>
            <DistanceMeters>6556.8628868031</DistanceMeters>
          </Trackpoint>
          <Trackpoint>
            <Time>2019-01-04T10:49:41.000Z</Time>
            <Position>
              <LatitudeDegrees>36.50727792643010616302490234375</LatitudeDegrees>
              <LongitudeDegrees>-5.40435520000755786895751953125</LongitudeDegrees>
            </Position>
            <AltitudeMeters>198.399993896484375</AltitudeMeters>
            <DistanceMeters>6558.678369632</DistanceMeters>
          </Trackpoint>
          <Trackpoint>
            <Time>2019-01-04T10:49:42.000Z</Time>
            <Position>
              <LatitudeDegrees>36.5072612464427947998046875</LatitudeDegrees>
              <LongitudeDegrees>-5.40435955859720706939697265625</LongitudeDegrees>
            </Position>
            <AltitudeMeters>198.399993896484375</AltitudeMeters>
            <DistanceMeters>6560.5741466297</DistanceMeters>
          </Trackpoint>
          <Trackpoint>
            <Time>2019-01-04T10:49:43.000Z</Time>
            <Position>
              <LatitudeDegrees>36.5072478353977203369140625</LatitudeDegrees>
              <LongitudeDegrees>-5.40436215698719024658203125</LongitudeDegrees>
            </Position>
            <AltitudeMeters>198.600006103515625</AltitudeMeters>
            <DistanceMeters>6562.0856390512</DistanceMeters>
          </Trackpoint>
          <Trackpoint>
            <Time>2019-01-04T10:49:44.000Z</Time>
            <Position>
              <LatitudeDegrees>36.50723903439939022064208984375</LatitudeDegrees>
              <LongitudeDegrees>-5.40436509065330028533935546875</LongitudeDegrees>
            </Position>
            <AltitudeMeters>198.600006103515625</AltitudeMeters>
            <DistanceMeters>6563.1002467166</DistanceMeters>
          </Trackpoint>
          <Trackpoint>
            <Time>2019-01-04T10:49:45.000Z</Time>
            <Position>
              <LatitudeDegrees>36.50722864083945751190185546875</LatitudeDegrees>
              <LongitudeDegrees>-5.40435905568301677703857421875</LongitudeDegrees>
            </Position>
            <AltitudeMeters>198.600006103515625</AltitudeMeters>
            <DistanceMeters>6564.3751638746</DistanceMeters>
          </Trackpoint>
          <Trackpoint>
            <Time>2019-01-04T10:49:46.000Z</Time>
            <Position>
              <LatitudeDegrees>36.50721673853695392608642578125</LatitudeDegrees>
              <LongitudeDegrees>-5.40434564463794231414794921875</LongitudeDegrees>
            </Position>
            <AltitudeMeters>198.600006103515625</AltitudeMeters>
            <DistanceMeters>6566.1656043616</DistanceMeters>
          </Trackpoint>
          <Trackpoint>
            <Time>2019-01-04T10:49:47.000Z</Time>
            <Position>
              <LatitudeDegrees>36.50720466859638690948486328125</LatitudeDegrees>
              <LongitudeDegrees>-5.40433474816381931304931640625</LongitudeDegrees>
            </Position>
            <AltitudeMeters>198.399993896484375</AltitudeMeters>
            <DistanceMeters>6567.8278929623</DistanceMeters>
          </Trackpoint>
          <Trackpoint>
            <Time>2019-01-04T10:49:48.000Z</Time>
            <Position>
              <LatitudeDegrees>36.507190167903900146484375</LatitudeDegrees>
              <LongitudeDegrees>-5.404326617717742919921875</LongitudeDegrees>
            </Position>
            <AltitudeMeters>198.1999969482421875</AltitudeMeters>
            <DistanceMeters>6569.5980445168</DistanceMeters>
          </Trackpoint>
          <Trackpoint>
            <Time>2019-01-04T10:49:49.000Z</Time>
            <Position>
              <LatitudeDegrees>36.50717399083077907562255859375</LatitudeDegrees>
              <LongitudeDegrees>-5.40432058274745941162109375</LongitudeDegrees>
            </Position>
            <AltitudeMeters>198.1999969482421875</AltitudeMeters>
            <DistanceMeters>6571.4746717609</DistanceMeters>
          </Trackpoint>
          <Trackpoint>
            <Time>2019-01-04T10:49:50.000Z</Time>
            <Position>
              <LatitudeDegrees>36.50716141797602176666259765625</LatitudeDegrees>
              <LongitudeDegrees>-5.40431278757750988006591796875</LongitudeDegrees>
            </Position>
            <AltitudeMeters>198</AltitudeMeters>
            <DistanceMeters>6573.0361200117</DistanceMeters>
          </Trackpoint>
          <Trackpoint>
            <Time>2019-01-04T10:49:51.000Z</Time>
            <Position>
              <LatitudeDegrees>36.50715085677802562713623046875</LatitudeDegrees>
              <LongitudeDegrees>-5.404304824769496917724609375</LongitudeDegrees>
            </Position>
            <AltitudeMeters>198</AltitudeMeters>
            <DistanceMeters>6574.4066147765</DistanceMeters>
          </Trackpoint>
          <Trackpoint>
            <Time>2019-01-04T10:49:52.000Z</Time>
            <Position>
              <LatitudeDegrees>36.5071432292461395263671875</LatitudeDegrees>
              <LongitudeDegrees>-5.40429099462926387786865234375</LongitudeDegrees>
            </Position>
            <AltitudeMeters>198</AltitudeMeters>
            <DistanceMeters>6575.9091190563</DistanceMeters>
          </Trackpoint>
          <Trackpoint>
            <Time>2019-01-04T10:49:53.000Z</Time>
            <Position>
              <LatitudeDegrees>36.507136523723602294921875</LatitudeDegrees>
              <LongitudeDegrees>-5.40427993051707744598388671875</LongitudeDegrees>
            </Position>
            <AltitudeMeters>198</AltitudeMeters>
            <DistanceMeters>6577.1553827316</DistanceMeters>
          </Trackpoint>
          <Trackpoint>
            <Time>2019-01-04T10:49:54.000Z</Time>
            <Position>
              <LatitudeDegrees>36.507128141820430755615234375</LatitudeDegrees>
              <LongitudeDegrees>-5.40426467545330524444580078125</LongitudeDegrees>
            </Position>
            <AltitudeMeters>198</AltitudeMeters>
            <DistanceMeters>6578.8095027885</DistanceMeters>
          </Trackpoint>
          <Trackpoint>
            <Time>2019-01-04T10:49:55.000Z</Time>
            <Position>
              <LatitudeDegrees>36.5071202628314495086669921875</LatitudeDegrees>
              <LongitudeDegrees>-5.4042476601898670196533203125</LongitudeDegrees>
            </Position>
            <AltitudeMeters>198</AltitudeMeters>
            <DistanceMeters>6580.5642837057</DistanceMeters>
          </Trackpoint>
          <Trackpoint>
            <Time>2019-01-04T10:49:56.000Z</Time>
            <Position>
              <LatitudeDegrees>36.507114060223102569580078125</LatitudeDegrees>
              <LongitudeDegrees>-5.40423248894512653350830078125</LongitudeDegrees>
            </Position>
            <AltitudeMeters>198</AltitudeMeters>
            <DistanceMeters>6582.0847111356</DistanceMeters>
          </Trackpoint>
          <Trackpoint>
            <Time>2019-01-04T10:49:57.000Z</Time>
            <Position>
              <LatitudeDegrees>36.5071065165102481842041015625</LatitudeDegrees>
              <LongitudeDegrees>-5.40421958081424236297607421875</LongitudeDegrees>
            </Position>
            <AltitudeMeters>198</AltitudeMeters>
            <DistanceMeters>6583.5132758966</DistanceMeters>
          </Trackpoint>
          <Trackpoint>
            <Time>2019-01-04T10:49:58.000Z</Time>
            <Position>
              <LatitudeDegrees>36.5071024931967258453369140625</LatitudeDegrees>
              <LongitudeDegrees>-5.4042091034352779388427734375</LongitudeDegrees>
            </Position>
            <AltitudeMeters>198</AltitudeMeters>
            <DistanceMeters>6584.5542413971</DistanceMeters>
          </Trackpoint>
          <Trackpoint>
            <Time>2019-01-04T10:49:59.000Z</Time>
            <Position>
              <LatitudeDegrees>36.50709587149322032928466796875</LatitudeDegrees>
              <LongitudeDegrees>-5.4041970334947109222412109375</LongitudeDegrees>
            </Position>
            <AltitudeMeters>198.1999969482421875</AltitudeMeters>
            <DistanceMeters>6585.8571820602</DistanceMeters>
          </Trackpoint>
          <Trackpoint>
            <Time>2019-01-04T10:50:00.000Z</Time>
            <Position>
              <LatitudeDegrees>36.50708732195198535919189453125</LatitudeDegrees>
              <LongitudeDegrees>-5.40418387390673160552978515625</LongitudeDegrees>
            </Position>
            <AltitudeMeters>198.1999969482421875</AltitudeMeters>
            <DistanceMeters>6587.371658675</DistanceMeters>
          </Trackpoint>
          <Trackpoint>
            <Time>2019-01-04T10:50:01.000Z</Time>
            <Position>
              <LatitudeDegrees>36.5070786885917186737060546875</LatitudeDegrees>
              <LongitudeDegrees>-5.404175408184528350830078125</LongitudeDegrees>
            </Position>
            <AltitudeMeters>198.1999969482421875</AltitudeMeters>
            <DistanceMeters>6588.5959922446</DistanceMeters>
          </Trackpoint>
          <Trackpoint>
            <Time>2019-01-04T10:50:02.000Z</Time>
            <Position>
              <LatitudeDegrees>36.507071144878864288330078125</LatitudeDegrees>
              <LongitudeDegrees>-5.4041683673858642578125</LongitudeDegrees>
            </Position>
            <AltitudeMeters>198.399993896484375</AltitudeMeters>
            <DistanceMeters>6589.6455966111</DistanceMeters>
          </Trackpoint>
          <Trackpoint>
            <Time>2019-01-04T10:50:03.000Z</Time>
            <Position>
              <LatitudeDegrees>36.50706083513796329498291015625</LatitudeDegrees>
              <LongitudeDegrees>-5.40415939874947071075439453125</LongitudeDegrees>
            </Position>
            <AltitudeMeters>198.399993896484375</AltitudeMeters>
            <DistanceMeters>6591.0421983839</DistanceMeters>
          </Trackpoint>
          <Trackpoint>
            <Time>2019-01-04T10:50:04.000Z</Time>
            <Position>
              <LatitudeDegrees>36.50704977102577686309814453125</LatitudeDegrees>
              <LongitudeDegrees>-5.4041464067995548248291015625</LongitudeDegrees>
            </Position>
            <AltitudeMeters>198.600006103515625</AltitudeMeters>
            <DistanceMeters>6592.7367674469</DistanceMeters>
          </Trackpoint>
          <Trackpoint>
            <Time>2019-01-04T10:50:05.000Z</Time>
            <Position>
              <LatitudeDegrees>36.50703786872327327728271484375</LatitudeDegrees>
              <LongitudeDegrees>-5.40413391776382923126220703125</LongitudeDegrees>
            </Position>
            <AltitudeMeters>198.600006103515625</AltitudeMeters>
            <DistanceMeters>6594.4682365859</DistanceMeters>
          </Trackpoint>
          <Trackpoint>
            <Time>2019-01-04T10:50:06.000Z</Time>
            <Position>
              <LatitudeDegrees>36.5070273913443088531494140625</LatitudeDegrees>
              <LongitudeDegrees>-5.40412084199488162994384765625</LongitudeDegrees>
            </Position>
            <AltitudeMeters>198.8000030517578125</AltitudeMeters>
            <DistanceMeters>6596.1196248159</DistanceMeters>
          </Trackpoint>
          <Trackpoint>
            <Time>2019-01-04T10:50:07.000Z</Time>
            <Position>
              <LatitudeDegrees>36.507016159594058990478515625</LatitudeDegrees>
              <LongitudeDegrees>-5.40410642512142658233642578125</LongitudeDegrees>
            </Position>
            <AltitudeMeters>198.8000030517578125</AltitudeMeters>
            <DistanceMeters>6597.9151017137</DistanceMeters>
          </Trackpoint>
          <Trackpoint>
            <Time>2019-01-04T10:50:08.000Z</Time>
            <Position>
              <LatitudeDegrees>36.50700367055833339691162109375</LatitudeDegrees>
              <LongitudeDegrees>-5.40409184060990810394287109375</LongitudeDegrees>
            </Position>
            <AltitudeMeters>199</AltitudeMeters>
            <DistanceMeters>6599.8203814124</DistanceMeters>
          </Trackpoint>
          <Trackpoint>
            <Time>2019-01-04T10:50:09.000Z</Time>
            <Position>
              <LatitudeDegrees>36.50699193589389324188232421875</LatitudeDegrees>
              <LongitudeDegrees>-5.4040776751935482025146484375</LongitudeDegrees>
            </Position>
            <AltitudeMeters>199.1999969482421875</AltitudeMeters>
            <DistanceMeters>6601.6408313719</DistanceMeters>
          </Trackpoint>
          <Trackpoint>
            <Time>2019-01-04T10:50:10.000Z</Time>
            <Position>
              <LatitudeDegrees>36.50697894394397735595703125</LatitudeDegrees>
              <LongitudeDegrees>-5.40406635962426662445068359375</LongitudeDegrees>
            </Position>
            <AltitudeMeters>199.1999969482421875</AltitudeMeters>
            <DistanceMeters>6603.4058742533</DistanceMeters>
          </Trackpoint>
          <Trackpoint>
            <Time>2019-01-04T10:50:11.000Z</Time>
            <Position>
              <LatitudeDegrees>36.50696578435599803924560546875</LatitudeDegrees>
              <LongitudeDegrees>-5.40405663661658763885498046875</LongitudeDegrees>
            </Position>
            <AltitudeMeters>199.399993896484375</AltitudeMeters>
            <DistanceMeters>6605.1057637974</DistanceMeters>
          </Trackpoint>
          <Trackpoint>
            <Time>2019-01-04T10:50:12.000Z</Time>
            <Position>
              <LatitudeDegrees>36.5069502778351306915283203125</LatitudeDegrees>
              <LongitudeDegrees>-5.40404506959021091461181640625</LongitudeDegrees>
            </Position>
            <AltitudeMeters>199.399993896484375</AltitudeMeters>
            <DistanceMeters>6607.1171002304</DistanceMeters>
          </Trackpoint>
          <Trackpoint>
            <Time>2019-01-04T10:50:13.000Z</Time>
            <Position>
              <LatitudeDegrees>36.506937034428119659423828125</LatitudeDegrees>
              <LongitudeDegrees>-5.4040381126105785369873046875</LongitudeDegrees>
            </Position>
            <AltitudeMeters>199.399993896484375</AltitudeMeters>
            <DistanceMeters>6608.7185188859</DistanceMeters>
          </Trackpoint>
          <Trackpoint>
            <Time>2019-01-04T10:50:14.000Z</Time>
            <Position>
              <LatitudeDegrees>36.50692270137369632720947265625</LatitudeDegrees>
              <LongitudeDegrees>-5.40402763523161411285400390625</LongitudeDegrees>
            </Position>
            <AltitudeMeters>199.399993896484375</AltitudeMeters>
            <DistanceMeters>6610.5709305703</DistanceMeters>
          </Trackpoint>
          <Trackpoint>
            <Time>2019-01-04T10:50:15.000Z</Time>
            <Position>
              <LatitudeDegrees>36.5069100446999073028564453125</LatitudeDegrees>
              <LongitudeDegrees>-5.40401908569037914276123046875</LongitudeDegrees>
            </Position>
            <AltitudeMeters>199.399993896484375</AltitudeMeters>
            <DistanceMeters>6612.1723492258</DistanceMeters>
          </Trackpoint>
          <Trackpoint>
            <Time>2019-01-04T10:50:16.000Z</Time>
            <Position>
              <LatitudeDegrees>36.50689671747386455535888671875</LatitudeDegrees>
              <LongitudeDegrees>-5.40400852449238300323486328125</LongitudeDegrees>
            </Position>
            <AltitudeMeters>199.600006103515625</AltitudeMeters>
            <DistanceMeters>6613.9322686047</DistanceMeters>
          </Trackpoint>
          <Trackpoint>
            <Time>2019-01-04T10:50:17.000Z</Time>
            <Position>
              <LatitudeDegrees>36.5068845637142658233642578125</LatitudeDegrees>
              <LongitudeDegrees>-5.4039978794753551483154296875</LongitudeDegrees>
            </Position>
            <AltitudeMeters>199.600006103515625</AltitudeMeters>
            <DistanceMeters>6615.5836568347</DistanceMeters>
          </Trackpoint>
          <Trackpoint>
            <Time>2019-01-04T10:50:18.000Z</Time>
            <Position>
              <LatitudeDegrees>36.5068738348782062530517578125</LatitudeDegrees>
              <LongitudeDegrees>-5.40398773737251758575439453125</LongitudeDegrees>
            </Position>
            <AltitudeMeters>199.600006103515625</AltitudeMeters>
            <DistanceMeters>6617.0801390291</DistanceMeters>
          </Trackpoint>
          <Trackpoint>
            <Time>2019-01-04T10:50:19.000Z</Time>
            <Position>
              <LatitudeDegrees>36.506862603127956390380859375</LatitudeDegrees>
              <LongitudeDegrees>-5.403977595269680023193359375</LongitudeDegrees>
            </Position>
            <AltitudeMeters>199.8000030517578125</AltitudeMeters>
            <DistanceMeters>6618.6241403831</DistanceMeters>
          </Trackpoint>
          <Trackpoint>
            <Time>2019-01-04T10:50:20.000Z</Time>
            <Position>
              <LatitudeDegrees>36.5068533830344676971435546875</LatitudeDegrees>
              <LongitudeDegrees>-5.4039685428142547607421875</LongitudeDegrees>
            </Position>
            <AltitudeMeters>199.8000030517578125</AltitudeMeters>
            <DistanceMeters>6619.930541718</DistanceMeters>
          </Trackpoint>
          <Trackpoint>
            <Time>2019-01-04T10:50:21.000Z</Time>
            <Position>
              <LatitudeDegrees>36.5068428218364715576171875</LatitudeDegrees>
              <LongitudeDegrees>-5.40396384894847869873046875</LongitudeDegrees>
            </Position>
            <AltitudeMeters>199.8000030517578125</AltitudeMeters>
            <DistanceMeters>6621.1768053933</DistanceMeters>
          </Trackpoint>
          <Trackpoint>
            <Time>2019-01-04T10:50:22.000Z</Time>
            <Position>
              <LatitudeDegrees>36.50683368556201457977294921875</LatitudeDegrees>
              <LongitudeDegrees>-5.40395890362560749053955078125</LongitudeDegrees>
            </Position>
            <AltitudeMeters>199.8000030517578125</AltitudeMeters>
            <DistanceMeters>6622.2890645685</DistanceMeters>
          </Trackpoint>
          <Trackpoint>
            <Time>2019-01-04T10:50:23.000Z</Time>
            <Position>
              <LatitudeDegrees>36.50682161562144756317138671875</LatitudeDegrees>
              <LongitudeDegrees>-5.4039559699594974517822265625</LongitudeDegrees>
            </Position>
            <AltitudeMeters>199.8000030517578125</AltitudeMeters>
            <DistanceMeters>6623.6595593333</DistanceMeters>
          </Trackpoint>
          <Trackpoint>
            <Time>2019-01-04T10:50:24.000Z</Time>
            <Position>
              <LatitudeDegrees>36.50680954568088054656982421875</LatitudeDegrees>
              <LongitudeDegrees>-5.40395387448370456695556640625</LongitudeDegrees>
            </Position>
            <AltitudeMeters>199.8000030517578125</AltitudeMeters>
            <DistanceMeters>6625.0168122923</DistanceMeters>
          </Trackpoint>
          <Trackpoint>
            <Time>2019-01-04T10:50:25.000Z</Time>
            <Position>
              <LatitudeDegrees>36.50679831393063068389892578125</LatitudeDegrees>
              <LongitudeDegrees>-5.40394834242761135101318359375</LongitudeDegrees>
            </Position>
            <AltitudeMeters>199.8000030517578125</AltitudeMeters>
            <DistanceMeters>6626.3606929748</DistanceMeters>
          </Trackpoint>
          <Trackpoint>
            <Time>2019-01-04T10:50:26.000Z</Time>
            <Position>
              <LatitudeDegrees>36.50678523816168308258056640625</LatitudeDegrees>
              <LongitudeDegrees>-5.40394105017185211181640625</LongitudeDegrees>
            </Position>
            <AltitudeMeters>199.8000030517578125</AltitudeMeters>
            <DistanceMeters>6627.9564628696</DistanceMeters>
          </Trackpoint>
          <Trackpoint>
            <Time>2019-01-04T10:50:27.000Z</Time>
            <Position>
              <LatitudeDegrees>36.50677300058305263519287109375</LatitudeDegrees>
              <LongitudeDegrees>-5.40393644012510776519775390625</LongitudeDegrees>
            </Position>
            <AltitudeMeters>200</AltitudeMeters>
            <DistanceMeters>6629.3850276306</DistanceMeters>
          </Trackpoint>
          <Trackpoint>
            <Time>2019-01-04T10:50:28.000Z</Time>
            <Position>
              <LatitudeDegrees>36.50676109828054904937744140625</LatitudeDegrees>
              <LongitudeDegrees>-5.40393300354480743408203125</LongitudeDegrees>
            </Position>
            <AltitudeMeters>200</AltitudeMeters>
            <DistanceMeters>6630.7489175629</DistanceMeters>
          </Trackpoint>
          <Trackpoint>
            <Time>2019-01-04T10:50:29.000Z</Time>
            <Position>
              <LatitudeDegrees>36.5067477710545063018798828125</LatitudeDegrees>
              <LongitudeDegrees>-5.40393174625933170318603515625</LongitudeDegrees>
            </Position>
            <AltitudeMeters>200</AltitudeMeters>
            <DistanceMeters>6632.2332822931</DistanceMeters>
          </Trackpoint>
          <Trackpoint>
            <Time>2019-01-04T10:50:30.000Z</Time>
            <Position>
              <LatitudeDegrees>36.506733857095241546630859375</LatitudeDegrees>
              <LongitudeDegrees>-5.40392822585999965667724609375</LongitudeDegrees>
            </Position>
            <AltitudeMeters>200</AltitudeMeters>
            <DistanceMeters>6633.8119846395</DistanceMeters>
          </Trackpoint>
          <Trackpoint>
            <Time>2019-01-04T10:50:31.000Z</Time>
            <Position>
              <LatitudeDegrees>36.506719775497913360595703125</LatitudeDegrees>
              <LongitudeDegrees>-5.40392923168838024139404296875</LongitudeDegrees>
            </Position>
            <AltitudeMeters>200</AltitudeMeters>
            <DistanceMeters>6635.3792053619</DistanceMeters>
          </Trackpoint>
          <Trackpoint>
            <Time>2019-01-04T10:50:32.000Z</Time>
            <Position>
              <LatitudeDegrees>36.5067048557102680206298828125</LatitudeDegrees>
              <LongitudeDegrees>-5.40392722003161907196044921875</LongitudeDegrees>
            </Position>
            <AltitudeMeters>199.8000030517578125</AltitudeMeters>
            <DistanceMeters>6637.0523233188</DistanceMeters>
          </Trackpoint>
          <Trackpoint>
            <Time>2019-01-04T10:50:33.000Z</Time>
            <Position>
              <LatitudeDegrees>36.50669069029390811920166015625</LatitudeDegrees>
              <LongitudeDegrees>-5.40392403490841388702392578125</LongitudeDegrees>
            </Position>
            <AltitudeMeters>199.600006103515625</AltitudeMeters>
            <DistanceMeters>6638.6537419743</DistanceMeters>
          </Trackpoint>
          <Trackpoint>
            <Time>2019-01-04T10:50:34.000Z</Time>
            <Position>
              <LatitudeDegrees>36.506678871810436248779296875</LatitudeDegrees>
              <LongitudeDegrees>-5.40392034687101840972900390625</LongitudeDegrees>
            </Position>
            <AltitudeMeters>199.399993896484375</AltitudeMeters>
            <DistanceMeters>6640.0109949332</DistanceMeters>
          </Trackpoint>
          <Trackpoint>
            <Time>2019-01-04T10:50:35.000Z</Time>
            <Position>
              <LatitudeDegrees>36.5066686458885669708251953125</LatitudeDegrees>
              <LongitudeDegrees>-5.4039184190332889556884765625</LongitudeDegrees>
            </Position>
            <AltitudeMeters>199.1999969482421875</AltitudeMeters>
            <DistanceMeters>6641.1592070917</DistanceMeters>
          </Trackpoint>
          <Trackpoint>
            <Time>2019-01-04T10:50:36.000Z</Time>
            <Position>
              <LatitudeDegrees>36.5066575817763805389404296875</LatitudeDegrees>
              <LongitudeDegrees>-5.40391917340457439422607421875</LongitudeDegrees>
            </Position>
            <AltitudeMeters>199</AltitudeMeters>
            <DistanceMeters>6642.3908940822</DistanceMeters>
          </Trackpoint>
          <Trackpoint>
            <Time>2019-01-04T10:50:37.000Z</Time>
            <Position>
              <LatitudeDegrees>36.50664693675935268402099609375</LatitudeDegrees>
              <LongitudeDegrees>-5.403921604156494140625</LongitudeDegrees>
            </Position>
            <AltitudeMeters>199</AltitudeMeters>
            <DistanceMeters>6643.592897506</DistanceMeters>
          </Trackpoint>
          <Trackpoint>
            <Time>2019-01-04T10:50:38.000Z</Time>
            <Position>
              <LatitudeDegrees>36.50663553737103939056396484375</LatitudeDegrees>
              <LongitudeDegrees>-5.403924286365509033203125</LongitudeDegrees>
            </Position>
            <AltitudeMeters>199</AltitudeMeters>
            <DistanceMeters>6644.8819025742</DistanceMeters>
          </Trackpoint>
          <Trackpoint>
            <Time>2019-01-04T10:50:39.000Z</Time>
            <Position>
              <LatitudeDegrees>36.5066257305443286895751953125</LatitudeDegrees>
              <LongitudeDegrees>-5.4039261303842067718505859375</LongitudeDegrees>
            </Position>
            <AltitudeMeters>198.8000030517578125</AltitudeMeters>
            <DistanceMeters>6645.9819163211</DistanceMeters>
          </Trackpoint>
          <Trackpoint>
            <Time>2019-01-04T10:50:40.000Z</Time>
            <Position>
              <LatitudeDegrees>36.506615169346332550048828125</LatitudeDegrees>
              <LongitudeDegrees>-5.4039254598319530487060546875</LongitudeDegrees>
            </Position>
            <AltitudeMeters>198.8000030517578125</AltitudeMeters>
            <DistanceMeters>6647.1611668341</DistanceMeters>
          </Trackpoint>
          <Trackpoint>
            <Time>2019-01-04T10:50:41.000Z</Time>
            <Position>
              <LatitudeDegrees>36.5066041052341461181640625</LatitudeDegrees>
              <LongitudeDegrees>-5.40392118506133556365966796875</LongitudeDegrees>
            </Position>
            <AltitudeMeters>198.600006103515625</AltitudeMeters>
            <DistanceMeters>6648.4501719023</DistanceMeters>
          </Trackpoint>
          <Trackpoint>
            <Time>2019-01-04T10:50:42.000Z</Time>
            <Position>
              <LatitudeDegrees>36.50659195147454738616943359375</LatitudeDegrees>
              <LongitudeDegrees>-5.40391825139522552490234375</LongitudeDegrees>
            </Position>
            <AltitudeMeters>198.399993896484375</AltitudeMeters>
            <DistanceMeters>6649.8305146603</DistanceMeters>
          </Trackpoint>
          <Trackpoint>
            <Time>2019-01-04T10:50:43.000Z</Time>
            <Position>
              <LatitudeDegrees>36.5065804682672023773193359375</LatitudeDegrees>
              <LongitudeDegrees>-5.403918586671352386474609375</LongitudeDegrees>
            </Position>
            <AltitudeMeters>198.1999969482421875</AltitudeMeters>
            <DistanceMeters>6651.1089683499</DistanceMeters>
          </Trackpoint>
          <Trackpoint>
            <Time>2019-01-04T10:50:44.000Z</Time>
            <Position>
              <LatitudeDegrees>36.506568901240825653076171875</LatitudeDegrees>
              <LongitudeDegrees>-5.40392093360424041748046875</LongitudeDegrees>
            </Position>
            <AltitudeMeters>198</AltitudeMeters>
            <DistanceMeters>6652.4119090129</DistanceMeters>
          </Trackpoint>
          <Trackpoint>
            <Time>2019-01-04T10:50:45.000Z</Time>
            <Position>
              <LatitudeDegrees>36.506557166576385498046875</LatitudeDegrees>
              <LongitudeDegrees>-5.4039221070706844329833984375</LongitudeDegrees>
            </Position>
            <AltitudeMeters>197.8000030517578125</AltitudeMeters>
            <DistanceMeters>6653.7183103479</DistanceMeters>
          </Trackpoint>
          <Trackpoint>
            <Time>2019-01-04T10:50:46.000Z</Time>
            <Position>
              <LatitudeDegrees>36.50654635392129421234130859375</LatitudeDegrees>
              <LongitudeDegrees>-5.403919927775859832763671875</LongitudeDegrees>
            </Position>
            <AltitudeMeters>197.8000030517578125</AltitudeMeters>
            <DistanceMeters>6654.9426439175</DistanceMeters>
          </Trackpoint>
          <Trackpoint>
            <Time>2019-01-04T10:50:47.000Z</Time>
            <Position>
              <LatitudeDegrees>36.50653813965618610382080078125</LatitudeDegrees>
              <LongitudeDegrees>-5.4039147309958934783935546875</LongitudeDegrees>
            </Position>
            <AltitudeMeters>197.600006103515625</AltitudeMeters>
            <DistanceMeters>6655.9705149911</DistanceMeters>
          </Trackpoint>
          <Trackpoint>
            <Time>2019-01-04T10:50:48.000Z</Time>
            <Position>
              <LatitudeDegrees>36.5065288357436656951904296875</LatitudeDegrees>
              <LongitudeDegrees>-5.4039133898913860321044921875</LongitudeDegrees>
            </Position>
            <AltitudeMeters>197.399993896484375</AltitudeMeters>
            <DistanceMeters>6657.0114804916</DistanceMeters>
          </Trackpoint>
          <Trackpoint>
            <Time>2019-01-04T10:50:49.000Z</Time>
            <Position>
              <LatitudeDegrees>36.506522633135318756103515625</LatitudeDegrees>
              <LongitudeDegrees>-5.40391380898654460906982421875</LongitudeDegrees>
            </Position>
            <AltitudeMeters>197.1999969482421875</AltitudeMeters>
            <DistanceMeters>6657.696727874</DistanceMeters>
          </Trackpoint>
          <Trackpoint>
            <Time>2019-01-04T10:50:50.000Z</Time>
            <Position>
              <LatitudeDegrees>36.50652020238339900970458984375</LatitudeDegrees>
              <LongitudeDegrees>-5.403911881148815155029296875</LongitudeDegrees>
            </Position>
            <AltitudeMeters>197</AltitudeMeters>
            <DistanceMeters>6658.0259100687</DistanceMeters>
          </Trackpoint>
          <Trackpoint>
            <Time>2019-01-04T10:50:51.000Z</Time>
            <Position>
              <LatitudeDegrees>36.5065167658030986785888671875</LatitudeDegrees>
              <LongitudeDegrees>-5.40390660054981708526611328125</LongitudeDegrees>
            </Position>
            <AltitudeMeters>197</AltitudeMeters>
            <DistanceMeters>6658.641753564</DistanceMeters>
          </Trackpoint>
          <Trackpoint>
            <Time>2019-01-04T10:50:52.000Z</Time>
            <Position>
              <LatitudeDegrees>36.5065130777657032012939453125</LatitudeDegrees>
              <LongitudeDegrees>-5.40390308015048503875732421875</LongitudeDegrees>
            </Position>
            <AltitudeMeters>196.8000030517578125</AltitudeMeters>
            <DistanceMeters>6659.1622363142</DistanceMeters>
          </Trackpoint>
          <Trackpoint>
            <Time>2019-01-04T10:50:53.000Z</Time>
            <Position>
              <LatitudeDegrees>36.506511904299259185791015625</LatitudeDegrees>
              <LongitudeDegrees>-5.40389872156083583831787109375</LongitudeDegrees>
            </Position>
            <AltitudeMeters>196.600006103515625</AltitudeMeters>
            <DistanceMeters>6659.5872087003</DistanceMeters>
          </Trackpoint>
          <Trackpoint>
            <Time>2019-01-04T10:50:54.000Z</Time>
            <Position>
              <LatitudeDegrees>36.50651450268924236297607421875</LatitudeDegrees>
              <LongitudeDegrees>-5.40389478206634521484375</LongitudeDegrees>
            </Position>
            <AltitudeMeters>196.600006103515625</AltitudeMeters>
            <DistanceMeters>6660.0527426245</DistanceMeters>
          </Trackpoint>
          <Trackpoint>
            <Time>2019-01-04T10:50:55.000Z</Time>
            <Position>
              <LatitudeDegrees>36.506521292030811309814453125</LatitudeDegrees>
              <LongitudeDegrees>-5.40388740599155426025390625</LongitudeDegrees>
            </Position>
            <AltitudeMeters>196.399993896484375</AltitudeMeters>
            <DistanceMeters>6661.0539111844</DistanceMeters>
          </Trackpoint>
          <Trackpoint>
            <Time>2019-01-04T10:50:56.000Z</Time>
            <Position>
              <LatitudeDegrees>36.5065258182585239410400390625</LatitudeDegrees>
              <LongitudeDegrees>-5.403876006603240966796875</LongitudeDegrees>
            </Position>
            <AltitudeMeters>196.399993896484375</AltitudeMeters>
            <DistanceMeters>6662.1902654124</DistanceMeters>
          </Trackpoint>
          <Trackpoint>
            <Time>2019-01-04T10:50:57.000Z</Time>
            <Position>
              <LatitudeDegrees>36.5065228007733821868896484375</LatitudeDegrees>
              <LongitudeDegrees>-5.40386754088103771209716796875</LongitudeDegrees>
            </Position>
            <AltitudeMeters>196.399993896484375</AltitudeMeters>
            <DistanceMeters>6663.0186891022</DistanceMeters>
          </Trackpoint>
          <Trackpoint>
            <Time>2019-01-04T10:50:58.000Z</Time>
            <Position>
              <LatitudeDegrees>36.5065214596688747406005859375</LatitudeDegrees>
              <LongitudeDegrees>-5.403862260282039642333984375</LongitudeDegrees>
            </Position>
            <AltitudeMeters>196.399993896484375</AltitudeMeters>
            <DistanceMeters>6663.5215232104</DistanceMeters>
          </Trackpoint>
          <Trackpoint>
            <Time>2019-01-04T10:50:59.000Z</Time>
            <Position>
              <LatitudeDegrees>36.5065209567546844482421875</LatitudeDegrees>
              <LongitudeDegrees>-5.40386150591075420379638671875</LongitudeDegrees>
            </Position>
            <AltitudeMeters>196.399993896484375</AltitudeMeters>
            <DistanceMeters>6663.6165499248</DistanceMeters>
          </Trackpoint>
          <Trackpoint>
            <Time>2019-01-04T10:51:00.000Z</Time>
            <Position>
              <LatitudeDegrees>36.506525315344333648681640625</LatitudeDegrees>
              <LongitudeDegrees>-5.403861589729785919189453125</LongitudeDegrees>
            </Position>
            <AltitudeMeters>196.399993896484375</AltitudeMeters>
            <DistanceMeters>6664.1010929957</DistanceMeters>
          </Trackpoint>
          <Trackpoint>
            <Time>2019-01-04T10:51:01.000Z</Time>
            <Position>
              <LatitudeDegrees>36.5065263211727142333984375</LatitudeDegrees>
              <LongitudeDegrees>-5.403858907520771026611328125</LongitudeDegrees>
            </Position>
            <AltitudeMeters>196.399993896484375</AltitudeMeters>
            <DistanceMeters>6664.3698691322</DistanceMeters>
          </Trackpoint>
          <Trackpoint>
            <Time>2019-01-04T10:51:02.000Z</Time>
            <Position>
              <LatitudeDegrees>36.50652699172496795654296875</LatitudeDegrees>
              <LongitudeDegrees>-5.4038580693304538726806640625</LongitudeDegrees>
            </Position>
            <AltitudeMeters>196.399993896484375</AltitudeMeters>
            <DistanceMeters>6664.5042572004</DistanceMeters>
          </Trackpoint>
          <Trackpoint>
            <Time>2019-01-04T10:51:03.000Z</Time>
            <Position>
              <LatitudeDegrees>36.50652707554399967193603515625</LatitudeDegrees>
              <LongitudeDegrees>-5.40385882370173931121826171875</LongitudeDegrees>
            </Position>
            <AltitudeMeters>196.600006103515625</AltitudeMeters>
            <DistanceMeters>6664.6386452687</DistanceMeters>
          </Trackpoint>
          <Trackpoint>
            <Time>2019-01-04T10:51:04.000Z</Time>
            <Position>
              <LatitudeDegrees>36.5065268240869045257568359375</LatitudeDegrees>
              <LongitudeDegrees>-5.40385832078754901885986328125</LongitudeDegrees>
            </Position>
            <AltitudeMeters>196.600006103515625</AltitudeMeters>
            <DistanceMeters>6664.6386452687</DistanceMeters>
          </Trackpoint>
          <Trackpoint>
            <Time>2019-01-04T10:51:05.000Z</Time>
            <Position>
              <LatitudeDegrees>36.5065264888107776641845703125</LatitudeDegrees>
              <LongitudeDegrees>-5.40385865606367588043212890625</LongitudeDegrees>
            </Position>
            <AltitudeMeters>196.8000030517578125</AltitudeMeters>
            <DistanceMeters>6664.6386452687</DistanceMeters>
          </Trackpoint>
          <Trackpoint>
            <Time>2019-01-04T10:51:06.000Z</Time>
            <Position>
              <LatitudeDegrees>36.50652523152530193328857421875</LatitudeDegrees>
              <LongitudeDegrees>-5.4038597457110881805419921875</LongitudeDegrees>
            </Position>
            <AltitudeMeters>197</AltitudeMeters>
            <DistanceMeters>6664.8286986974</DistanceMeters>
          </Trackpoint>
          <Trackpoint>
            <Time>2019-01-04T10:51:07.000Z</Time>
            <Position>
              <LatitudeDegrees>36.506524644792079925537109375</LatitudeDegrees>
              <LongitudeDegrees>-5.40386066772043704986572265625</LongitudeDegrees>
            </Position>
            <AltitudeMeters>197.1999969482421875</AltitudeMeters>
            <DistanceMeters>6664.9630867657</DistanceMeters>
          </Trackpoint>
          <Trackpoint>
            <Time>2019-01-04T10:51:08.000Z</Time>
            <Position>
              <LatitudeDegrees>36.506524644792079925537109375</LatitudeDegrees>
              <LongitudeDegrees>-5.4038610868155956268310546875</LongitudeDegrees>
            </Position>
            <AltitudeMeters>197.1999969482421875</AltitudeMeters>
            <DistanceMeters>6664.9630867657</DistanceMeters>
          </Trackpoint>
          <Trackpoint>
            <Time>2019-01-04T10:51:09.000Z</Time>
            <Position>
              <LatitudeDegrees>36.50652489624917507171630859375</LatitudeDegrees>
              <LongitudeDegrees>-5.40386066772043704986572265625</LongitudeDegrees>
            </Position>
            <AltitudeMeters>197.1999969482421875</AltitudeMeters>
            <DistanceMeters>6664.9630867657</DistanceMeters>
          </Trackpoint>
          <Trackpoint>
            <Time>2019-01-04T10:51:10.000Z</Time>
            <Position>
              <LatitudeDegrees>36.50652422569692134857177734375</LatitudeDegrees>
              <LongitudeDegrees>-5.4038604162633419036865234375</LongitudeDegrees>
            </Position>
            <AltitudeMeters>197.399993896484375</AltitudeMeters>
            <DistanceMeters>6664.9630867657</DistanceMeters>
          </Trackpoint>
          <Trackpoint>
            <Time>2019-01-04T10:51:11.000Z</Time>
            <Position>
              <LatitudeDegrees>36.50652439333498477935791015625</LatitudeDegrees>
              <LongitudeDegrees>-5.4038607515394687652587890625</LongitudeDegrees>
            </Position>
            <AltitudeMeters>197.399993896484375</AltitudeMeters>
            <DistanceMeters>6664.9630867657</DistanceMeters>
          </Trackpoint>
          <Trackpoint>
            <Time>2019-01-04T10:51:12.000Z</Time>
            <Position>
              <LatitudeDegrees>36.5065244771540164947509765625</LatitudeDegrees>
              <LongitudeDegrees>-5.40386083535850048065185546875</LongitudeDegrees>
            </Position>
            <AltitudeMeters>197.399993896484375</AltitudeMeters>
            <DistanceMeters>6664.9630867657</DistanceMeters>
          </Trackpoint>
          <Trackpoint>
            <Time>2019-01-04T10:51:13.000Z</Time>
            <Position>
              <LatitudeDegrees>36.506524644792079925537109375</LatitudeDegrees>
              <LongitudeDegrees>-5.4038607515394687652587890625</LongitudeDegrees>
            </Position>
            <AltitudeMeters>197.399993896484375</AltitudeMeters>
            <DistanceMeters>6664.9630867657</DistanceMeters>
          </Trackpoint>
          <Trackpoint>
            <Time>2019-01-04T10:51:14.000Z</Time>
            <Position>
              <LatitudeDegrees>36.50652523152530193328857421875</LatitudeDegrees>
              <LongitudeDegrees>-5.40386083535850048065185546875</LongitudeDegrees>
            </Position>
            <AltitudeMeters>197.399993896484375</AltitudeMeters>
            <DistanceMeters>6664.9630867657</DistanceMeters>
          </Trackpoint>
          <Trackpoint>
            <Time>2019-01-04T10:51:15.000Z</Time>
            <Position>
              <LatitudeDegrees>36.50652372278273105621337890625</LatitudeDegrees>
              <LongitudeDegrees>-5.40386184118688106536865234375</LongitudeDegrees>
            </Position>
            <AltitudeMeters>197.399993896484375</AltitudeMeters>
            <DistanceMeters>6665.1755729587</DistanceMeters>
          </Trackpoint>
          <Trackpoint>
            <Time>2019-01-04T10:51:16.000Z</Time>
            <Position>
              <LatitudeDegrees>36.50652338750660419464111328125</LatitudeDegrees>
              <LongitudeDegrees>-5.40386368520557880401611328125</LongitudeDegrees>
            </Position>
            <AltitudeMeters>197.399993896484375</AltitudeMeters>
            <DistanceMeters>6665.3656263874</DistanceMeters>
          </Trackpoint>
          <Trackpoint>
            <Time>2019-01-04T10:51:17.000Z</Time>
            <Position>
              <LatitudeDegrees>36.50652774609625339508056640625</LatitudeDegrees>
              <LongitudeDegrees>-5.403862260282039642333984375</LongitudeDegrees>
            </Position>
            <AltitudeMeters>197.399993896484375</AltitudeMeters>
            <DistanceMeters>6665.8773609054</DistanceMeters>
          </Trackpoint>
          <Trackpoint>
            <Time>2019-01-04T10:51:18.000Z</Time>
            <Position>
              <LatitudeDegrees>36.50653311051428318023681640625</LatitudeDegrees>
              <LongitudeDegrees>-5.40385932661592960357666015625</LongitudeDegrees>
            </Position>
            <AltitudeMeters>197.399993896484375</AltitudeMeters>
            <DistanceMeters>6666.5357252948</DistanceMeters>
          </Trackpoint>
          <Trackpoint>
            <Time>2019-01-04T10:51:19.000Z</Time>
            <Position>
              <LatitudeDegrees>36.50654182769358158111572265625</LatitudeDegrees>
              <LongitudeDegrees>-5.40385882370173931121826171875</LongitudeDegrees>
            </Position>
            <AltitudeMeters>197.399993896484375</AltitudeMeters>
            <DistanceMeters>6667.5094593584</DistanceMeters>
          </Trackpoint>
          <Trackpoint>
            <Time>2019-01-04T10:51:20.000Z</Time>
            <Position>
              <LatitudeDegrees>36.50655088014900684356689453125</LatitudeDegrees>
              <LongitudeDegrees>-5.4038560576736927032470703125</LongitudeDegrees>
            </Position>
            <AltitudeMeters>197.399993896484375</AltitudeMeters>
            <DistanceMeters>6668.5460784287</DistanceMeters>
          </Trackpoint>
          <Trackpoint>
            <Time>2019-01-04T10:51:21.000Z</Time>
            <Position>
              <LatitudeDegrees>36.506559848785400390625</LatitudeDegrees>
              <LongitudeDegrees>-5.40385429747402667999267578125</LongitudeDegrees>
            </Position>
            <AltitudeMeters>197.399993896484375</AltitudeMeters>
            <DistanceMeters>6669.5606860941</DistanceMeters>
          </Trackpoint>
          <Trackpoint>
            <Time>2019-01-04T10:51:22.000Z</Time>
            <Position>
              <LatitudeDegrees>36.50657183490693569183349609375</LatitudeDegrees>
              <LongitudeDegrees>-5.403849184513092041015625</LongitudeDegrees>
            </Position>
            <AltitudeMeters>197.399993896484375</AltitudeMeters>
            <DistanceMeters>6670.9701600447</DistanceMeters>
          </Trackpoint>
          <Trackpoint>
            <Time>2019-01-04T10:51:23.000Z</Time>
            <Position>
              <LatitudeDegrees>36.50658071972429752349853515625</LatitudeDegrees>
              <LongitudeDegrees>-5.4038369469344615936279296875</LongitudeDegrees>
            </Position>
            <AltitudeMeters>197.600006103515625</AltitudeMeters>
            <DistanceMeters>6672.4423075735</DistanceMeters>
          </Trackpoint>
          <Trackpoint>
            <Time>2019-01-04T10:51:24.000Z</Time>
            <Position>
              <LatitudeDegrees>36.50658675469458103179931640625</LatitudeDegrees>
              <LongitudeDegrees>-5.4038232006132602691650390625</LongitudeDegrees>
            </Position>
            <AltitudeMeters>197.8000030517578125</AltitudeMeters>
            <DistanceMeters>6673.8453601972</DistanceMeters>
          </Trackpoint>
          <Trackpoint>
            <Time>2019-01-04T10:51:25.000Z</Time>
            <Position>
              <LatitudeDegrees>36.50659195147454738616943359375</LatitudeDegrees>
              <LongitudeDegrees>-5.4038091190159320831298828125</LongitudeDegrees>
            </Position>
            <AltitudeMeters>197.8000030517578125</AltitudeMeters>
            <DistanceMeters>6675.2322294349</DistanceMeters>
          </Trackpoint>
          <Trackpoint>
            <Time>2019-01-04T10:51:26.000Z</Time>
            <Position>
              <LatitudeDegrees>36.5065995790064334869384765625</LatitudeDegrees>
              <LongitudeDegrees>-5.40379780344665050506591796875</LongitudeDegrees>
            </Position>
            <AltitudeMeters>197.8000030517578125</AltitudeMeters>
            <DistanceMeters>6676.5557984094</DistanceMeters>
          </Trackpoint>
          <Trackpoint>
            <Time>2019-01-04T10:51:27.000Z</Time>
            <Position>
              <LatitudeDegrees>36.50660804472863674163818359375</LatitudeDegrees>
              <LongitudeDegrees>-5.40378975681960582733154296875</LongitudeDegrees>
            </Position>
            <AltitudeMeters>198</AltitudeMeters>
            <DistanceMeters>6677.7502656874</DistanceMeters>
          </Trackpoint>
          <Trackpoint>
            <Time>2019-01-04T10:51:28.000Z</Time>
            <Position>
              <LatitudeDegrees>36.50661575607955455780029296875</LatitudeDegrees>
              <LongitudeDegrees>-5.40378145873546600341796875</LongitudeDegrees>
            </Position>
            <AltitudeMeters>198</AltitudeMeters>
            <DistanceMeters>6678.8905862598</DistanceMeters>
          </Trackpoint>
          <Trackpoint>
            <Time>2019-01-04T10:51:29.000Z</Time>
            <Position>
              <LatitudeDegrees>36.5066217072308063507080078125</LatitudeDegrees>
              <LongitudeDegrees>-5.403774417936801910400390625</LongitudeDegrees>
            </Position>
            <AltitudeMeters>198.1999969482421875</AltitudeMeters>
            <DistanceMeters>6679.8069907062</DistanceMeters>
          </Trackpoint>
          <Trackpoint>
            <Time>2019-01-04T10:51:30.000Z</Time>
            <Position>
              <LatitudeDegrees>36.5066294185817241668701171875</LatitudeDegrees>
              <LongitudeDegrees>-5.40376544930040836334228515625</LongitudeDegrees>
            </Position>
            <AltitudeMeters>198.1999969482421875</AltitudeMeters>
            <DistanceMeters>6680.9785587236</DistanceMeters>
          </Trackpoint>
          <Trackpoint>
            <Time>2019-01-04T10:51:31.000Z</Time>
            <Position>
              <LatitudeDegrees>36.5066374652087688446044921875</LatitudeDegrees>
              <LongitudeDegrees>-5.4037551395595073699951171875</LongitudeDegrees>
            </Position>
            <AltitudeMeters>198.1999969482421875</AltitudeMeters>
            <DistanceMeters>6682.2605391887</DistanceMeters>
          </Trackpoint>
          <Trackpoint>
            <Time>2019-01-04T10:51:32.000Z</Time>
            <Position>
              <LatitudeDegrees>36.50664341636002063751220703125</LatitudeDegrees>
              <LongitudeDegrees>-5.40373845957219600677490234375</LongitudeDegrees>
            </Position>
            <AltitudeMeters>198.1999969482421875</AltitudeMeters>
            <DistanceMeters>6683.8954406008</DistanceMeters>
          </Trackpoint>
          <Trackpoint>
            <Time>2019-01-04T10:51:33.000Z</Time>
            <Position>
              <LatitudeDegrees>36.50664542801678180694580078125</LatitudeDegrees>
              <LongitudeDegrees>-5.40372110903263092041015625</LongitudeDegrees>
            </Position>
            <AltitudeMeters>198.399993896484375</AltitudeMeters>
            <DistanceMeters>6685.4626613232</DistanceMeters>
          </Trackpoint>
          <Trackpoint>
            <Time>2019-01-04T10:51:34.000Z</Time>
            <Position>
              <LatitudeDegrees>36.5066491998732089996337890625</LatitudeDegrees>
              <LongitudeDegrees>-5.4037031717598438262939453125</LongitudeDegrees>
            </Position>
            <AltitudeMeters>198.600006103515625</AltitudeMeters>
            <DistanceMeters>6687.1195087027</DistanceMeters>
          </Trackpoint>
          <Trackpoint>
            <Time>2019-01-04T10:51:35.000Z</Time>
            <Position>
              <LatitudeDegrees>36.50664894841611385345458984375</LatitudeDegrees>
              <LongitudeDegrees>-5.403686575591564178466796875</LongitudeDegrees>
            </Position>
            <AltitudeMeters>198.600006103515625</AltitudeMeters>
            <DistanceMeters>6688.6069120538</DistanceMeters>
          </Trackpoint>
          <Trackpoint>
            <Time>2019-01-04T10:51:36.000Z</Time>
            <Position>
              <LatitudeDegrees>36.5066471882164478302001953125</LatitudeDegrees>
              <LongitudeDegrees>-5.40367274545133113861083984375</LongitudeDegrees>
            </Position>
            <AltitudeMeters>198.8000030517578125</AltitudeMeters>
            <DistanceMeters>6689.8604005065</DistanceMeters>
          </Trackpoint>
          <Trackpoint>
            <Time>2019-01-04T10:51:37.000Z</Time>
            <Position>
              <LatitudeDegrees>36.506645679473876953125</LatitudeDegrees>
              <LongitudeDegrees>-5.40366319008171558380126953125</LongitudeDegrees>
            </Position>
            <AltitudeMeters>198.8000030517578125</AltitudeMeters>
            <DistanceMeters>6690.7313347298</DistanceMeters>
          </Trackpoint>
          <Trackpoint>
            <Time>2019-01-04T10:51:38.000Z</Time>
            <Position>
              <LatitudeDegrees>36.50664425455033779144287109375</LatitudeDegrees>
              <LongitudeDegrees>-5.40365883149206638336181640625</LongitudeDegrees>
            </Position>
            <AltitudeMeters>198.8000030517578125</AltitudeMeters>
            <DistanceMeters>6691.1563071159</DistanceMeters>
          </Trackpoint>
          <Trackpoint>
            <Time>2019-01-04T10:51:39.000Z</Time>
            <Position>
              <LatitudeDegrees>36.506644003093242645263671875</LatitudeDegrees>
              <LongitudeDegrees>-5.4036572389304637908935546875</LongitudeDegrees>
            </Position>
            <AltitudeMeters>198.8000030517578125</AltitudeMeters>
            <DistanceMeters>6691.2906951841</DistanceMeters>
          </Trackpoint>
          <Trackpoint>
            <Time>2019-01-04T10:51:40.000Z</Time>
            <Position>
              <LatitudeDegrees>36.50664391927421092987060546875</LatitudeDegrees>
              <LongitudeDegrees>-5.403652377426624298095703125</LongitudeDegrees>
            </Position>
            <AltitudeMeters>198.8000030517578125</AltitudeMeters>
            <DistanceMeters>6691.7156675701</DistanceMeters>
          </Trackpoint>
          <Trackpoint>
            <Time>2019-01-04T10:51:41.000Z</Time>
            <Position>
              <LatitudeDegrees>36.5066428296267986297607421875</LatitudeDegrees>
              <LongitudeDegrees>-5.4036471806466579437255859375</LongitudeDegrees>
            </Position>
            <AltitudeMeters>198.8000030517578125</AltitudeMeters>
            <DistanceMeters>6692.1812014944</DistanceMeters>
          </Trackpoint>
          <Trackpoint>
            <Time>2019-01-04T10:51:42.000Z</Time>
            <Position>
              <LatitudeDegrees>36.50664090178906917572021484375</LatitudeDegrees>
              <LongitudeDegrees>-5.40364793501794338226318359375</LongitudeDegrees>
            </Position>
            <AltitudeMeters>198.8000030517578125</AltitudeMeters>
            <DistanceMeters>6692.4139684565</DistanceMeters>
          </Trackpoint>
          <Trackpoint>
            <Time>2019-01-04T10:51:43.000Z</Time>
            <Position>
              <LatitudeDegrees>36.5066401474177837371826171875</LatitudeDegrees>
              <LongitudeDegrees>-5.40364910848438739776611328125</LongitudeDegrees>
            </Position>
            <AltitudeMeters>198.8000030517578125</AltitudeMeters>
            <DistanceMeters>6692.5483565248</DistanceMeters>
          </Trackpoint>
          <Trackpoint>
            <Time>2019-01-04T10:51:44.000Z</Time>
            <Position>
              <LatitudeDegrees>36.5066374652087688446044921875</LatitudeDegrees>
              <LongitudeDegrees>-5.403649695217609405517578125</LongitudeDegrees>
            </Position>
            <AltitudeMeters>198.8000030517578125</AltitudeMeters>
            <DistanceMeters>6692.8488573808</DistanceMeters>
          </Trackpoint>
          <Trackpoint>
            <Time>2019-01-04T10:51:45.000Z</Time>
            <Position>
              <LatitudeDegrees>36.506635956466197967529296875</LatitudeDegrees>
              <LongitudeDegrees>-5.4036522097885608673095703125</LongitudeDegrees>
            </Position>
            <AltitudeMeters>198.8000030517578125</AltitudeMeters>
            <DistanceMeters>6693.1339375239</DistanceMeters>
          </Trackpoint>
          <Trackpoint>
            <Time>2019-01-04T10:51:46.000Z</Time>
            <Position>
              <LatitudeDegrees>36.50663319043815135955810546875</LatitudeDegrees>
              <LongitudeDegrees>-5.4036515392363071441650390625</LongitudeDegrees>
            </Position>
            <AltitudeMeters>198.8000030517578125</AltitudeMeters>
            <DistanceMeters>6693.4631197186</DistanceMeters>
          </Trackpoint>
          <Trackpoint>
            <Time>2019-01-04T10:51:47.000Z</Time>
            <Position>
              <LatitudeDegrees>36.5066309273242950439453125</LatitudeDegrees>
              <LongitudeDegrees>-5.4036458395421504974365234375</LongitudeDegrees>
            </Position>
            <AltitudeMeters>198.8000030517578125</AltitudeMeters>
            <DistanceMeters>6694.0332800048</DistanceMeters>
          </Trackpoint>
          <Trackpoint>
            <Time>2019-01-04T10:51:48.000Z</Time>
            <Position>
              <LatitudeDegrees>36.5066304244101047515869140625</LatitudeDegrees>
              <LongitudeDegrees>-5.40363837964832782745361328125</LongitudeDegrees>
            </Position>
            <AltitudeMeters>198.8000030517578125</AltitudeMeters>
            <DistanceMeters>6694.6984670054</DistanceMeters>
          </Trackpoint>
          <Trackpoint>
            <Time>2019-01-04T10:51:49.000Z</Time>
            <Position>
              <LatitudeDegrees>36.5066304244101047515869140625</LatitudeDegrees>
              <LongitudeDegrees>-5.4036273993551731109619140625</LongitudeDegrees>
            </Position>
            <AltitudeMeters>198.8000030517578125</AltitudeMeters>
            <DistanceMeters>6695.6860135896</DistanceMeters>
          </Trackpoint>
          <Trackpoint>
            <Time>2019-01-04T10:51:50.000Z</Time>
            <Position>
              <LatitudeDegrees>36.5066331066191196441650390625</LatitudeDegrees>
              <LongitudeDegrees>-5.4036166705191135406494140625</LongitudeDegrees>
            </Position>
            <AltitudeMeters>198.8000030517578125</AltitudeMeters>
            <DistanceMeters>6696.6916818061</DistanceMeters>
          </Trackpoint>
          <Trackpoint>
            <Time>2019-01-04T10:51:51.000Z</Time>
            <Position>
              <LatitudeDegrees>36.50663184933364391326904296875</LatitudeDegrees>
              <LongitudeDegrees>-5.40360719896852970123291015625</LongitudeDegrees>
            </Position>
            <AltitudeMeters>198.8000030517578125</AltitudeMeters>
            <DistanceMeters>6697.5416265782</DistanceMeters>
          </Trackpoint>
          <Trackpoint>
            <Time>2019-01-04T10:51:52.000Z</Time>
            <Position>
              <LatitudeDegrees>36.50662749074399471282958984375</LatitudeDegrees>
              <LongitudeDegrees>-5.40359730832278728485107421875</LongitudeDegrees>
            </Position>
            <AltitudeMeters>198.600006103515625</AltitudeMeters>
            <DistanceMeters>6698.551774408</DistanceMeters>
          </Trackpoint>
          <Trackpoint>
            <Time>2019-01-04T10:51:53.000Z</Time>
            <Position>
              <LatitudeDegrees>36.50662212632596492767333984375</LatitudeDegrees>
              <LongitudeDegrees>-5.40358540602028369903564453125</LongitudeDegrees>
            </Position>
            <AltitudeMeters>198.399993896484375</AltitudeMeters>
            <DistanceMeters>6699.768710124</DistanceMeters>
          </Trackpoint>
          <Trackpoint>
            <Time>2019-01-04T10:51:54.000Z</Time>
            <Position>
              <LatitudeDegrees>36.5066134929656982421875</LatitudeDegrees>
              <LongitudeDegrees>-5.403575599193572998046875</LongitudeDegrees>
            </Position>
            <AltitudeMeters>198.399993896484375</AltitudeMeters>
            <DistanceMeters>6701.0716507871</DistanceMeters>
          </Trackpoint>
          <Trackpoint>
            <Time>2019-01-04T10:51:55.000Z</Time>
            <Position>
              <LatitudeDegrees>36.50660402141511440277099609375</LatitudeDegrees>
              <LongitudeDegrees>-5.40356327779591083526611328125</LongitudeDegrees>
            </Position>
            <AltitudeMeters>198.399993896484375</AltitudeMeters>
            <DistanceMeters>6702.5950449075</DistanceMeters>
          </Trackpoint>
          <Trackpoint>
            <Time>2019-01-04T10:51:56.000Z</Time>
            <Position>
              <LatitudeDegrees>36.5065999142825603485107421875</LatitudeDegrees>
              <LongitudeDegrees>-5.40354802273213863372802734375</LongitudeDegrees>
            </Position>
            <AltitudeMeters>198.399993896484375</AltitudeMeters>
            <DistanceMeters>6704.0299168283</DistanceMeters>
          </Trackpoint>
          <Trackpoint>
            <Time>2019-01-04T10:51:57.000Z</Time>
            <Position>
              <LatitudeDegrees>36.506595052778720855712890625</LatitudeDegrees>
              <LongitudeDegrees>-5.403531678020954132080078125</LongitudeDegrees>
            </Position>
            <AltitudeMeters>198.1999969482421875</AltitudeMeters>
            <DistanceMeters>6705.585571188</DistanceMeters>
          </Trackpoint>
          <Trackpoint>
            <Time>2019-01-04T10:51:58.000Z</Time>
            <Position>
              <LatitudeDegrees>36.50659496895968914031982421875</LatitudeDegrees>
              <LongitudeDegrees>-5.4035174287855625152587890625</LongitudeDegrees>
            </Position>
            <AltitudeMeters>198</AltitudeMeters>
            <DistanceMeters>6706.8604883461</DistanceMeters>
          </Trackpoint>
          <Trackpoint>
            <Time>2019-01-04T10:51:59.000Z</Time>
            <Position>
              <LatitudeDegrees>36.50659404695034027099609375</LatitudeDegrees>
              <LongitudeDegrees>-5.40350544266402721405029296875</LongitudeDegrees>
            </Position>
            <AltitudeMeters>197.8000030517578125</AltitudeMeters>
            <DistanceMeters>6707.9355928921</DistanceMeters>
          </Trackpoint>
          <Trackpoint>
            <Time>2019-01-04T10:52:00.000Z</Time>
            <Position>
              <LatitudeDegrees>36.50659010745584964752197265625</LatitudeDegrees>
              <LongitudeDegrees>-5.403496138751506805419921875</LongitudeDegrees>
            </Position>
            <AltitudeMeters>197.8000030517578125</AltitudeMeters>
            <DistanceMeters>6708.8763093699</DistanceMeters>
          </Trackpoint>
          <Trackpoint>
            <Time>2019-01-04T10:52:01.000Z</Time>
            <Position>
              <LatitudeDegrees>36.50658558122813701629638671875</LatitudeDegrees>
              <LongitudeDegrees>-5.40348909795284271240234375</LongitudeDegrees>
            </Position>
            <AltitudeMeters>197.600006103515625</AltitudeMeters>
            <DistanceMeters>6709.6882179733</DistanceMeters>
          </Trackpoint>
          <Trackpoint>
            <Time>2019-01-04T10:52:02.000Z</Time>
            <Position>
              <LatitudeDegrees>36.50658943690359592437744140625</LatitudeDegrees>
              <LongitudeDegrees>-5.4034842364490032196044921875</LongitudeDegrees>
            </Position>
            <AltitudeMeters>197.399993896484375</AltitudeMeters>
            <DistanceMeters>6710.3040614686</DistanceMeters>
          </Trackpoint>
          <Trackpoint>
            <Time>2019-01-04T10:52:03.000Z</Time>
            <Position>
              <LatitudeDegrees>36.5065906941890716552734375</LatitudeDegrees>
              <LongitudeDegrees>-5.40347929112613201141357421875</LongitudeDegrees>
            </Position>
            <AltitudeMeters>197.1999969482421875</AltitudeMeters>
            <DistanceMeters>6710.7695953929</DistanceMeters>
          </Trackpoint>
          <Trackpoint>
            <Time>2019-01-04T10:52:04.000Z</Time>
            <Position>
              <LatitudeDegrees>36.50658859871327877044677734375</LatitudeDegrees>
              <LongitudeDegrees>-5.40347627364099025726318359375</LongitudeDegrees>
            </Position>
            <AltitudeMeters>196.8000030517578125</AltitudeMeters>
            <DistanceMeters>6711.1251528006</DistanceMeters>
          </Trackpoint>
          <Trackpoint>
            <Time>2019-01-04T10:52:05.000Z</Time>
            <Position>
              <LatitudeDegrees>36.5065831504762172698974609375</LatitudeDegrees>
              <LongitudeDegrees>-5.40346805937588214874267578125</LongitudeDegrees>
            </Position>
            <AltitudeMeters>196.600006103515625</AltitudeMeters>
            <DistanceMeters>6712.0848755717</DistanceMeters>
          </Trackpoint>
          <Trackpoint>
            <Time>2019-01-04T10:52:06.000Z</Time>
            <Position>
              <LatitudeDegrees>36.50657334364950656890869140625</LatitudeDegrees>
              <LongitudeDegrees>-5.4034600965678691864013671875</LongitudeDegrees>
            </Position>
            <AltitudeMeters>196.399993896484375</AltitudeMeters>
            <DistanceMeters>6713.3878162348</DistanceMeters>
          </Trackpoint>
          <Trackpoint>
            <Time>2019-01-04T10:52:07.000Z</Time>
            <Position>
              <LatitudeDegrees>36.5065633691847324371337890625</LatitudeDegrees>
              <LongitudeDegrees>-5.4034517146646976470947265625</LongitudeDegrees>
            </Position>
            <AltitudeMeters>196.1999969482421875</AltitudeMeters>
            <DistanceMeters>6714.7249606308</DistanceMeters>
          </Trackpoint>
          <Trackpoint>
            <Time>2019-01-04T10:52:08.000Z</Time>
            <Position>
              <LatitudeDegrees>36.5065543167293071746826171875</LatitudeDegrees>
              <LongitudeDegrees>-5.403441488742828369140625</LongitudeDegrees>
            </Position>
            <AltitudeMeters>196</AltitudeMeters>
            <DistanceMeters>6716.0822135898</DistanceMeters>
          </Trackpoint>
          <Trackpoint>
            <Time>2019-01-04T10:52:09.000Z</Time>
            <Position>
              <LatitudeDegrees>36.50654836557805538177490234375</LatitudeDegrees>
              <LongitudeDegrees>-5.40343469940125942230224609375</LongitudeDegrees>
            </Position>
            <AltitudeMeters>195.8000030517578125</AltitudeMeters>
            <DistanceMeters>6716.9837161577</DistanceMeters>
          </Trackpoint>
          <Trackpoint>
            <Time>2019-01-04T10:52:10.000Z</Time>
            <Position>
              <LatitudeDegrees>36.50654350407421588897705078125</LatitudeDegrees>
              <LongitudeDegrees>-5.40343084372580051422119140625</LongitudeDegrees>
            </Position>
            <AltitudeMeters>195.8000030517578125</AltitudeMeters>
            <DistanceMeters>6717.6282186917</DistanceMeters>
          </Trackpoint>
          <Trackpoint>
            <Time>2019-01-04T10:52:11.000Z</Time>
            <Position>
              <LatitudeDegrees>36.50653646327555179595947265625</LatitudeDegrees>
              <LongitudeDegrees>-5.40342765860259532928466796875</LongitudeDegrees>
            </Position>
            <AltitudeMeters>195.600006103515625</AltitudeMeters>
            <DistanceMeters>6718.467471909</DistanceMeters>
          </Trackpoint>
          <Trackpoint>
            <Time>2019-01-04T10:52:12.000Z</Time>
            <Position>
              <LatitudeDegrees>36.50653093121945858001708984375</LatitudeDegrees>
              <LongitudeDegrees>-5.40342296473681926727294921875</LongitudeDegrees>
            </Position>
            <AltitudeMeters>195.600006103515625</AltitudeMeters>
            <DistanceMeters>6719.2096542741</DistanceMeters>
          </Trackpoint>
          <Trackpoint>
            <Time>2019-01-04T10:52:13.000Z</Time>
            <Position>
              <LatitudeDegrees>36.5065217949450016021728515625</LatitudeDegrees>
              <LongitudeDegrees>-5.403417013585567474365234375</LongitudeDegrees>
            </Position>
            <AltitudeMeters>195.399993896484375</AltitudeMeters>
            <DistanceMeters>6720.3578664325</DistanceMeters>
          </Trackpoint>
          <Trackpoint>
            <Time>2019-01-04T10:52:14.000Z</Time>
            <Position>
              <LatitudeDegrees>36.50651332922279834747314453125</LatitudeDegrees>
              <LongitudeDegrees>-5.403410308063030242919921875</LongitudeDegrees>
            </Position>
            <AltitudeMeters>195.1999969482421875</AltitudeMeters>
            <DistanceMeters>6721.4741775671</DistanceMeters>
          </Trackpoint>
          <Trackpoint>
            <Time>2019-01-04T10:52:15.000Z</Time>
            <Position>
              <LatitudeDegrees>36.50650612078607082366943359375</LatitudeDegrees>
              <LongitudeDegrees>-5.40340670384466648101806640625</LongitudeDegrees>
            </Position>
            <AltitudeMeters>195</AltitudeMeters>
            <DistanceMeters>6722.3346810642</DistanceMeters>
          </Trackpoint>
          <Trackpoint>
            <Time>2019-01-04T10:52:16.000Z</Time>
            <Position>
              <LatitudeDegrees>36.506497152149677276611328125</LatitudeDegrees>
              <LongitudeDegrees>-5.40339882485568523406982421875</LongitudeDegrees>
            </Position>
            <AltitudeMeters>194.8000030517578125</AltitudeMeters>
            <DistanceMeters>6723.5553213114</DistanceMeters>
          </Trackpoint>
          <Trackpoint>
            <Time>2019-01-04T10:52:17.000Z</Time>
            <Position>
              <LatitudeDegrees>36.506487429141998291015625</LatitudeDegrees>
              <LongitudeDegrees>-5.403390862047672271728515625</LongitudeDegrees>
            </Position>
            <AltitudeMeters>194.8000030517578125</AltitudeMeters>
            <DistanceMeters>6724.8513129081</DistanceMeters>
          </Trackpoint>
          <Trackpoint>
            <Time>2019-01-04T10:52:18.000Z</Time>
            <Position>
              <LatitudeDegrees>36.5064792148768901824951171875</LatitudeDegrees>
              <LongitudeDegrees>-5.40337971411645412445068359375</LongitudeDegrees>
            </Position>
            <AltitudeMeters>194.600006103515625</AltitudeMeters>
            <DistanceMeters>6726.201896279</DistanceMeters>
          </Trackpoint>
          <Trackpoint>
            <Time>2019-01-04T10:52:19.000Z</Time>
            <Position>
              <LatitudeDegrees>36.50646722875535488128662109375</LatitudeDegrees>
              <LongitudeDegrees>-5.40336529724299907684326171875</LongitudeDegrees>
            </Position>
            <AltitudeMeters>194.399993896484375</AltitudeMeters>
            <DistanceMeters>6728.0591763337</DistanceMeters>
          </Trackpoint>
          <Trackpoint>
            <Time>2019-01-04T10:52:20.000Z</Time>
            <Position>
              <LatitudeDegrees>36.50645666755735874176025390625</LatitudeDegrees>
              <LongitudeDegrees>-5.403349958360195159912109375</LongitudeDegrees>
            </Position>
            <AltitudeMeters>194</AltitudeMeters>
            <DistanceMeters>6729.8671828803</DistanceMeters>
          </Trackpoint>
          <Trackpoint>
            <Time>2019-01-04T10:52:21.000Z</Time>
            <Position>
              <LatitudeDegrees>36.50644895620644092559814453125</LatitudeDegrees>
              <LongitudeDegrees>-5.4033390618860721588134765625</LongitudeDegrees>
            </Position>
            <AltitudeMeters>194</AltitudeMeters>
            <DistanceMeters>6731.1701235434</DistanceMeters>
          </Trackpoint>
          <Trackpoint>
            <Time>2019-01-04T10:52:22.000Z</Time>
            <Position>
              <LatitudeDegrees>36.5064404904842376708984375</LatitudeDegrees>
              <LongitudeDegrees>-5.4033300094306468963623046875</LongitudeDegrees>
            </Position>
            <AltitudeMeters>193.8000030517578125</AltitudeMeters>
            <DistanceMeters>6732.4091203131</DistanceMeters>
          </Trackpoint>
          <Trackpoint>
            <Time>2019-01-04T10:52:23.000Z</Time>
            <Position>
              <LatitudeDegrees>36.50643403641879558563232421875</LatitudeDegrees>
              <LongitudeDegrees>-5.40332556702196598052978515625</LongitudeDegrees>
            </Position>
            <AltitudeMeters>193.600006103515625</AltitudeMeters>
            <DistanceMeters>6733.2265710192</DistanceMeters>
          </Trackpoint>
          <Trackpoint>
            <Time>2019-01-04T10:52:24.000Z</Time>
            <Position>
              <LatitudeDegrees>36.50642766617238521575927734375</LatitudeDegrees>
              <LongitudeDegrees>-5.40332372300326824188232421875</LongitudeDegrees>
            </Position>
            <AltitudeMeters>193.600006103515625</AltitudeMeters>
            <DistanceMeters>6733.9502729148</DistanceMeters>
          </Trackpoint>
          <Trackpoint>
            <Time>2019-01-04T10:52:25.000Z</Time>
            <Position>
              <LatitudeDegrees>36.5064203739166259765625</LatitudeDegrees>
              <LongitudeDegrees>-5.40332590229809284210205078125</LongitudeDegrees>
            </Position>
            <AltitudeMeters>193.600006103515625</AltitudeMeters>
            <DistanceMeters>6734.7841289493</DistanceMeters>
          </Trackpoint>
          <Trackpoint>
            <Time>2019-01-04T10:52:26.000Z</Time>
            <Position>
              <LatitudeDegrees>36.506411992013454437255859375</LatitudeDegrees>
              <LongitudeDegrees>-5.40333084762096405029296875</LongitudeDegrees>
            </Position>
            <AltitudeMeters>193.600006103515625</AltitudeMeters>
            <DistanceMeters>6735.8163832883</DistanceMeters>
          </Trackpoint>
          <Trackpoint>
            <Time>2019-01-04T10:52:27.000Z</Time>
            <Position>
              <LatitudeDegrees>36.50640419684350490570068359375</LatitudeDegrees>
              <LongitudeDegrees>-5.40333889424800872802734375</LongitudeDegrees>
            </Position>
            <AltitudeMeters>193.600006103515625</AltitudeMeters>
            <DistanceMeters>6736.9407545358</DistanceMeters>
          </Trackpoint>
          <Trackpoint>
            <Time>2019-01-04T10:52:28.000Z</Time>
            <Position>
              <LatitudeDegrees>36.50639430619776248931884765625</LatitudeDegrees>
              <LongitudeDegrees>-5.403344593942165374755859375</LongitudeDegrees>
            </Position>
            <AltitudeMeters>193.399993896484375</AltitudeMeters>
            <DistanceMeters>6738.15024715</DistanceMeters>
          </Trackpoint>
          <Trackpoint>
            <Time>2019-01-04T10:52:29.000Z</Time>
            <Position>
              <LatitudeDegrees>36.5063833259046077728271484375</LatitudeDegrees>
              <LongitudeDegrees>-5.40334962308406829833984375</LongitudeDegrees>
            </Position>
            <AltitudeMeters>193.399993896484375</AltitudeMeters>
            <DistanceMeters>6739.4531878131</DistanceMeters>
          </Trackpoint>
          <Trackpoint>
            <Time>2019-01-04T10:52:30.000Z</Time>
            <Position>
              <LatitudeDegrees>36.50637351907789707183837890625</LatitudeDegrees>
              <LongitudeDegrees>-5.4033554904162883758544921875</LongitudeDegrees>
            </Position>
            <AltitudeMeters>193.399993896484375</AltitudeMeters>
            <DistanceMeters>6740.6626804273</DistanceMeters>
          </Trackpoint>
          <Trackpoint>
            <Time>2019-01-04T10:52:31.000Z</Time>
            <Position>
              <LatitudeDegrees>36.5063632093369960784912109375</LatitudeDegrees>
              <LongitudeDegrees>-5.4033615253865718841552734375</LongitudeDegrees>
            </Position>
            <AltitudeMeters>193.399993896484375</AltitudeMeters>
            <DistanceMeters>6741.9304949276</DistanceMeters>
          </Trackpoint>
          <Trackpoint>
            <Time>2019-01-04T10:52:32.000Z</Time>
            <Position>
              <LatitudeDegrees>36.506352312862873077392578125</LatitudeDegrees>
              <LongitudeDegrees>-5.40336613543331623077392578125</LongitudeDegrees>
            </Position>
            <AltitudeMeters>193.1999969482421875</AltitudeMeters>
            <DistanceMeters>6743.2124753926</DistanceMeters>
          </Trackpoint>
          <Trackpoint>
            <Time>2019-01-04T10:52:33.000Z</Time>
            <Position>
              <LatitudeDegrees>36.50633865036070346832275390625</LatitudeDegrees>
              <LongitudeDegrees>-5.4033792950212955474853515625</LongitudeDegrees>
            </Position>
            <AltitudeMeters>193.1999969482421875</AltitudeMeters>
            <DistanceMeters>6745.1366197069</DistanceMeters>
          </Trackpoint>
          <Trackpoint>
            <Time>2019-01-04T10:52:34.000Z</Time>
            <Position>
              <LatitudeDegrees>36.50632607750594615936279296875</LatitudeDegrees>
              <LongitudeDegrees>-5.40339262224733829498291015625</LongitudeDegrees>
            </Position>
            <AltitudeMeters>193.1999969482421875</AltitudeMeters>
            <DistanceMeters>6746.9768041179</DistanceMeters>
          </Trackpoint>
          <Trackpoint>
            <Time>2019-01-04T10:52:35.000Z</Time>
            <Position>
              <LatitudeDegrees>36.50631375610828399658203125</LatitudeDegrees>
              <LongitudeDegrees>-5.4034000821411609649658203125</LongitudeDegrees>
            </Position>
            <AltitudeMeters>193.1999969482421875</AltitudeMeters>
            <DistanceMeters>6748.5001982383</DistanceMeters>
          </Trackpoint>
          <Trackpoint>
            <Time>2019-01-04T10:52:36.000Z</Time>
            <Position>
              <LatitudeDegrees>36.506304033100605010986328125</LatitudeDegrees>
              <LongitudeDegrees>-5.403411649167537689208984375</LongitudeDegrees>
            </Position>
            <AltitudeMeters>193.1999969482421875</AltitudeMeters>
            <DistanceMeters>6749.9966804327</DistanceMeters>
          </Trackpoint>
          <Trackpoint>
            <Time>2019-01-04T10:52:37.000Z</Time>
            <Position>
              <LatitudeDegrees>36.506293974816799163818359375</LatitudeDegrees>
              <LongitudeDegrees>-5.403421707451343536376953125</LongitudeDegrees>
            </Position>
            <AltitudeMeters>193.1999969482421875</AltitudeMeters>
            <DistanceMeters>6751.4346955597</DistanceMeters>
          </Trackpoint>
          <Trackpoint>
            <Time>2019-01-04T10:52:38.000Z</Time>
            <Position>
              <LatitudeDegrees>36.5062897838652133941650390625</LatitudeDegrees>
              <LongitudeDegrees>-5.40343352593481540679931640625</LongitudeDegrees>
            </Position>
            <AltitudeMeters>193.1999969482421875</AltitudeMeters>
            <DistanceMeters>6752.5907454348</DistanceMeters>
          </Trackpoint>
          <Trackpoint>
            <Time>2019-01-04T10:52:39.000Z</Time>
            <Position>
              <LatitudeDegrees>36.5062840841710567474365234375</LatitudeDegrees>
              <LongitudeDegrees>-5.4034409858286380767822265625</LongitudeDegrees>
            </Position>
            <AltitudeMeters>193.399993896484375</AltitudeMeters>
            <DistanceMeters>6753.5120636132</DistanceMeters>
          </Trackpoint>
          <Trackpoint>
            <Time>2019-01-04T10:52:40.000Z</Time>
            <Position>
              <LatitudeDegrees>36.50627628900110721588134765625</LatitudeDegrees>
              <LongitudeDegrees>-5.4034456796944141387939453125</LongitudeDegrees>
            </Position>
            <AltitudeMeters>193.600006103515625</AltitudeMeters>
            <DistanceMeters>6754.4717863842</DistanceMeters>
          </Trackpoint>
          <Trackpoint>
            <Time>2019-01-04T10:52:41.000Z</Time>
            <Position>
              <LatitudeDegrees>36.506268493831157684326171875</LatitudeDegrees>
              <LongitudeDegrees>-5.40345414541661739349365234375</LongitudeDegrees>
            </Position>
            <AltitudeMeters>193.8000030517578125</AltitudeMeters>
            <DistanceMeters>6755.6199985427</DistanceMeters>
          </Trackpoint>
          <Trackpoint>
            <Time>2019-01-04T10:52:42.000Z</Time>
            <Position>
              <LatitudeDegrees>36.50626019574701786041259765625</LatitudeDegrees>
              <LongitudeDegrees>-5.40346235968172550201416015625</LongitudeDegrees>
            </Position>
            <AltitudeMeters>194</AltitudeMeters>
            <DistanceMeters>6756.7992490556</DistanceMeters>
          </Trackpoint>
          <Trackpoint>
            <Time>2019-01-04T10:52:43.000Z</Time>
            <Position>
              <LatitudeDegrees>36.50625231675803661346435546875</LatitudeDegrees>
              <LongitudeDegrees>-5.40346906520426273345947265625</LongitudeDegrees>
            </Position>
            <AltitudeMeters>194.1999969482421875</AltitudeMeters>
            <DistanceMeters>6757.8659212789</DistanceMeters>
          </Trackpoint>
          <Trackpoint>
            <Time>2019-01-04T10:52:44.000Z</Time>
            <Position>
              <LatitudeDegrees>36.50624259375035762786865234375</LatitudeDegrees>
              <LongitudeDegrees>-5.4034714959561824798583984375</LongitudeDegrees>
            </Position>
            <AltitudeMeters>194.600006103515625</AltitudeMeters>
            <DistanceMeters>6758.9659350259</DistanceMeters>
          </Trackpoint>
          <Trackpoint>
            <Time>2019-01-04T10:52:45.000Z</Time>
            <Position>
              <LatitudeDegrees>36.506232284009456634521484375</LatitudeDegrees>
              <LongitudeDegrees>-5.403472669422626495361328125</LongitudeDegrees>
            </Position>
            <AltitudeMeters>194.8000030517578125</AltitudeMeters>
            <DistanceMeters>6760.1180727074</DistanceMeters>
          </Trackpoint>
          <Trackpoint>
            <Time>2019-01-04T10:52:46.000Z</Time>
            <Position>
              <LatitudeDegrees>36.50622230954468250274658203125</LatitudeDegrees>
              <LongitudeDegrees>-5.40347459726035594940185546875</LongitudeDegrees>
            </Position>
            <AltitudeMeters>195</AltitudeMeters>
            <DistanceMeters>6761.2424439549</DistanceMeters>
          </Trackpoint>
          <Trackpoint>
            <Time>2019-01-04T10:52:47.000Z</Time>
            <Position>
              <LatitudeDegrees>36.50621183216571807861328125</LatitudeDegrees>
              <LongitudeDegrees>-5.4034798778593540191650390625</LongitudeDegrees>
            </Position>
            <AltitudeMeters>195.1999969482421875</AltitudeMeters>
            <DistanceMeters>6762.4995292256</DistanceMeters>
          </Trackpoint>
          <Trackpoint>
            <Time>2019-01-04T10:52:48.000Z</Time>
            <Position>
              <LatitudeDegrees>36.5062046237289905548095703125</LatitudeDegrees>
              <LongitudeDegrees>-5.403480716049671173095703125</LongitudeDegrees>
            </Position>
            <AltitudeMeters>195.399993896484375</AltitudeMeters>
            <DistanceMeters>6763.3058576351</DistanceMeters>
          </Trackpoint>
          <Trackpoint>
            <Time>2019-01-04T10:52:49.000Z</Time>
            <Position>
              <LatitudeDegrees>36.506200768053531646728515625</LatitudeDegrees>
              <LongitudeDegrees>-5.403479039669036865234375</LongitudeDegrees>
            </Position>
            <AltitudeMeters>195.399993896484375</AltitudeMeters>
            <DistanceMeters>6763.7713915594</DistanceMeters>
          </Trackpoint>
          <Trackpoint>
            <Time>2019-01-04T10:52:50.000Z</Time>
            <Position>
              <LatitudeDegrees>36.50619833730161190032958984375</LatitudeDegrees>
              <LongitudeDegrees>-5.4034771956503391265869140625</LongitudeDegrees>
            </Position>
            <AltitudeMeters>195.399993896484375</AltitudeMeters>
            <DistanceMeters>6764.1005737541</DistanceMeters>
          </Trackpoint>
          <Trackpoint>
            <Time>2019-01-04T10:52:51.000Z</Time>
            <Position>
              <LatitudeDegrees>36.50619381107389926910400390625</LatitudeDegrees>
              <LongitudeDegrees>-5.403479039669036865234375</LongitudeDegrees>
            </Position>
            <AltitudeMeters>195.399993896484375</AltitudeMeters>
            <DistanceMeters>6764.6381260271</DistanceMeters>
          </Trackpoint>
          <Trackpoint>
            <Time>2019-01-04T10:52:52.000Z</Time>
            <Position>
              <LatitudeDegrees>36.5061895363032817840576171875</LatitudeDegrees>
              <LongitudeDegrees>-5.4034832306206226348876953125</LongitudeDegrees>
            </Position>
            <AltitudeMeters>195.399993896484375</AltitudeMeters>
            <DistanceMeters>6765.2539695223</DistanceMeters>
          </Trackpoint>
          <Trackpoint>
            <Time>2019-01-04T10:52:53.000Z</Time>
            <Position>
              <LatitudeDegrees>36.50618257932364940643310546875</LatitudeDegrees>
              <LongitudeDegrees>-5.40348096750676631927490234375</LongitudeDegrees>
            </Position>
            <AltitudeMeters>195.399993896484375</AltitudeMeters>
            <DistanceMeters>6766.0602979318</DistanceMeters>
          </Trackpoint>
          <Trackpoint>
            <Time>2019-01-04T10:52:54.000Z</Time>
            <Position>
              <LatitudeDegrees>36.50617905892431735992431640625</LatitudeDegrees>
              <LongitudeDegrees>-5.40348012931644916534423828125</LongitudeDegrees>
            </Position>
            <AltitudeMeters>195.399993896484375</AltitudeMeters>
            <DistanceMeters>6766.4634621366</DistanceMeters>
          </Trackpoint>
          <Trackpoint>
            <Time>2019-01-04T10:52:55.000Z</Time>
            <Position>
              <LatitudeDegrees>36.50617604143917560577392578125</LatitudeDegrees>
              <LongitudeDegrees>-5.40348113514482975006103515625</LongitudeDegrees>
            </Position>
            <AltitudeMeters>195.399993896484375</AltitudeMeters>
            <DistanceMeters>6766.8190195443</DistanceMeters>
          </Trackpoint>
          <Trackpoint>
            <Time>2019-01-04T10:52:56.000Z</Time>
            <Position>
              <LatitudeDegrees>36.50617302395403385162353515625</LatitudeDegrees>
              <LongitudeDegrees>-5.40348532609641551971435546875</LongitudeDegrees>
            </Position>
            <AltitudeMeters>195.399993896484375</AltitudeMeters>
            <DistanceMeters>6767.3218536526</DistanceMeters>
          </Trackpoint>
          <Trackpoint>
            <Time>2019-01-04T10:52:57.000Z</Time>
            <Position>
              <LatitudeDegrees>36.50617268867790699005126953125</LatitudeDegrees>
              <LongitudeDegrees>-5.4034892655909061431884765625</LongitudeDegrees>
            </Position>
            <AltitudeMeters>195.399993896484375</AltitudeMeters>
            <DistanceMeters>6767.6774110604</DistanceMeters>
          </Trackpoint>
          <Trackpoint>
            <Time>2019-01-04T10:52:58.000Z</Time>
            <Position>
              <LatitudeDegrees>36.50617386214435100555419921875</LatitudeDegrees>
              <LongitudeDegrees>-5.4034911096096038818359375</LongitudeDegrees>
            </Position>
            <AltitudeMeters>195.1999969482421875</AltitudeMeters>
            <DistanceMeters>6767.8898972534</DistanceMeters>
          </Trackpoint>
          <Trackpoint>
            <Time>2019-01-04T10:52:59.000Z</Time>
            <Position>
              <LatitudeDegrees>36.50617352686822414398193359375</LatitudeDegrees>
              <LongitudeDegrees>-5.40349253453314304351806640625</LongitudeDegrees>
            </Position>
            <AltitudeMeters>195.1999969482421875</AltitudeMeters>
            <DistanceMeters>6768.0242853216</DistanceMeters>
          </Trackpoint>
          <Trackpoint>
            <Time>2019-01-04T10:53:00.000Z</Time>
            <Position>
              <LatitudeDegrees>36.5061734430491924285888671875</LatitudeDegrees>
              <LongitudeDegrees>-5.40349303744733333587646484375</LongitudeDegrees>
            </Position>
            <AltitudeMeters>195.1999969482421875</AltitudeMeters>
            <DistanceMeters>6768.0242853216</DistanceMeters>
          </Trackpoint>
          <Trackpoint>
            <Time>2019-01-04T10:53:01.000Z</Time>
            <Position>
              <LatitudeDegrees>36.506173610687255859375</LatitudeDegrees>
              <LongitudeDegrees>-5.4034936241805553436279296875</LongitudeDegrees>
            </Position>
            <AltitudeMeters>195.1999969482421875</AltitudeMeters>
            <DistanceMeters>6768.0242853216</DistanceMeters>
          </Trackpoint>
          <Trackpoint>
            <Time>2019-01-04T10:53:02.000Z</Time>
            <Position>
              <LatitudeDegrees>36.50616900064051151275634765625</LatitudeDegrees>
              <LongitudeDegrees>-5.40349722839891910552978515625</LongitudeDegrees>
            </Position>
            <AltitudeMeters>195.1999969482421875</AltitudeMeters>
            <DistanceMeters>6768.6401288169</DistanceMeters>
          </Trackpoint>
          <Trackpoint>
            <Time>2019-01-04T10:53:03.000Z</Time>
            <Position>
              <LatitudeDegrees>36.50616112165153026580810546875</LatitudeDegrees>
              <LongitudeDegrees>-5.40349789895117282867431640625</LongitudeDegrees>
            </Position>
            <AltitudeMeters>195.1999969482421875</AltitudeMeters>
            <DistanceMeters>6769.526479002</DistanceMeters>
          </Trackpoint>
          <Trackpoint>
            <Time>2019-01-04T10:53:04.000Z</Time>
            <Position>
              <LatitudeDegrees>36.506151817739009857177734375</LatitudeDegrees>
              <LongitudeDegrees>-5.4034969769418239593505859375</LongitudeDegrees>
            </Position>
            <AltitudeMeters>195.1999969482421875</AltitudeMeters>
            <DistanceMeters>6770.5674445025</DistanceMeters>
          </Trackpoint>
          <Trackpoint>
            <Time>2019-01-04T10:53:05.000Z</Time>
            <Position>
              <LatitudeDegrees>36.5061446093022823333740234375</LatitudeDegrees>
              <LongitudeDegrees>-5.40349622257053852081298828125</LongitudeDegrees>
            </Position>
            <AltitudeMeters>195</AltitudeMeters>
            <DistanceMeters>6771.373772912</DistanceMeters>
          </Trackpoint>
          <Trackpoint>
            <Time>2019-01-04T10:53:06.000Z</Time>
            <Position>
              <LatitudeDegrees>36.50613714940845966339111328125</LatitudeDegrees>
              <LongitudeDegrees>-5.40349722839891910552978515625</LongitudeDegrees>
            </Position>
            <AltitudeMeters>195</AltitudeMeters>
            <DistanceMeters>6772.2021966018</DistanceMeters>
          </Trackpoint>
          <Trackpoint>
            <Time>2019-01-04T10:53:07.000Z</Time>
            <Position>
              <LatitudeDegrees>36.5061320364475250244140625</LatitudeDegrees>
              <LongitudeDegrees>-5.40349580347537994384765625</LongitudeDegrees>
            </Position>
            <AltitudeMeters>195</AltitudeMeters>
            <DistanceMeters>6772.7802215393</DistanceMeters>
          </Trackpoint>
          <Trackpoint>
            <Time>2019-01-04T10:53:08.000Z</Time>
            <Position>
              <LatitudeDegrees>36.5061261691153049468994140625</LatitudeDegrees>
              <LongitudeDegrees>-5.4034909419715404510498046875</LongitudeDegrees>
            </Position>
            <AltitudeMeters>195</AltitudeMeters>
            <DistanceMeters>6773.5638319005</DistanceMeters>
          </Trackpoint>
          <Trackpoint>
            <Time>2019-01-04T10:53:09.000Z</Time>
            <Position>
              <LatitudeDegrees>36.50612340308725833892822265625</LatitudeDegrees>
              <LongitudeDegrees>-5.40348851121962070465087890625</LongitudeDegrees>
            </Position>
            <AltitudeMeters>195</AltitudeMeters>
            <DistanceMeters>6773.9318687827</DistanceMeters>
          </Trackpoint>
          <Trackpoint>
            <Time>2019-01-04T10:53:10.000Z</Time>
            <Position>
              <LatitudeDegrees>36.50611770339310169219970703125</LatitudeDegrees>
              <LongitudeDegrees>-5.403486080467700958251953125</LongitudeDegrees>
            </Position>
            <AltitudeMeters>195</AltitudeMeters>
            <DistanceMeters>6774.603809124</DistanceMeters>
          </Trackpoint>
          <Trackpoint>
            <Time>2019-01-04T10:53:11.000Z</Time>
            <Position>
              <LatitudeDegrees>36.5061043761670589447021484375</LatitudeDegrees>
              <LongitudeDegrees>-5.40348297916352748870849609375</LongitudeDegrees>
            </Position>
            <AltitudeMeters>195</AltitudeMeters>
            <DistanceMeters>6776.1123114487</DistanceMeters>
          </Trackpoint>
          <Trackpoint>
            <Time>2019-01-04T10:53:12.000Z</Time>
            <Position>
              <LatitudeDegrees>36.506092809140682220458984375</LatitudeDegrees>
              <LongitudeDegrees>-5.403477363288402557373046875</LongitudeDegrees>
            </Position>
            <AltitudeMeters>195</AltitudeMeters>
            <DistanceMeters>6777.4959212948</DistanceMeters>
          </Trackpoint>
          <Trackpoint>
            <Time>2019-01-04T10:53:13.000Z</Time>
            <Position>
              <LatitudeDegrees>36.5060819126665592193603515625</LatitudeDegrees>
              <LongitudeDegrees>-5.403468310832977294921875</LongitudeDegrees>
            </Position>
            <AltitudeMeters>194.8000030517578125</AltitudeMeters>
            <DistanceMeters>6778.9495505075</DistanceMeters>
          </Trackpoint>
          <Trackpoint>
            <Time>2019-01-04T10:53:14.000Z</Time>
            <Position>
              <LatitudeDegrees>36.50607009418308734893798828125</LatitudeDegrees>
              <LongitudeDegrees>-5.4034611023962497711181640625</LongitudeDegrees>
            </Position>
            <AltitudeMeters>194.8000030517578125</AltitudeMeters>
            <DistanceMeters>6780.4155512556</DistanceMeters>
          </Trackpoint>
          <Trackpoint>
            <Time>2019-01-04T10:53:15.000Z</Time>
            <Position>
              <LatitudeDegrees>36.50605785660445690155029296875</LatitudeDegrees>
              <LongitudeDegrees>-5.403456576168537139892578125</LongitudeDegrees>
            </Position>
            <AltitudeMeters>194.8000030517578125</AltitudeMeters>
            <DistanceMeters>6781.8346027159</DistanceMeters>
          </Trackpoint>
          <Trackpoint>
            <Time>2019-01-04T10:53:16.000Z</Time>
            <Position>
              <LatitudeDegrees>36.50604846887290477752685546875</LatitudeDegrees>
              <LongitudeDegrees>-5.40344978682696819305419921875</LongitudeDegrees>
            </Position>
            <AltitudeMeters>194.600006103515625</AltitudeMeters>
            <DistanceMeters>6783.0440953302</DistanceMeters>
          </Trackpoint>
          <Trackpoint>
            <Time>2019-01-04T10:53:17.000Z</Time>
            <Position>
              <LatitudeDegrees>36.5060389973223209381103515625</LatitudeDegrees>
              <LongitudeDegrees>-5.40343721397221088409423828125</LongitudeDegrees>
            </Position>
            <AltitudeMeters>194.600006103515625</AltitudeMeters>
            <DistanceMeters>6784.5880966842</DistanceMeters>
          </Trackpoint>
          <Trackpoint>
            <Time>2019-01-04T10:53:18.000Z</Time>
            <Position>
              <LatitudeDegrees>36.506029106676578521728515625</LatitudeDegrees>
              <LongitudeDegrees>-5.40342715568840503692626953125</LongitudeDegrees>
            </Position>
            <AltitudeMeters>194.600006103515625</AltitudeMeters>
            <DistanceMeters>6786.0103263153</DistanceMeters>
          </Trackpoint>
          <Trackpoint>
            <Time>2019-01-04T10:53:19.000Z</Time>
            <Position>
              <LatitudeDegrees>36.5060178749263286590576171875</LatitudeDegrees>
              <LongitudeDegrees>-5.4034171812236309051513671875</LongitudeDegrees>
            </Position>
            <AltitudeMeters>194.600006103515625</AltitudeMeters>
            <DistanceMeters>6787.5455298691</DistanceMeters>
          </Trackpoint>
          <Trackpoint>
            <Time>2019-01-04T10:53:20.000Z</Time>
            <Position>
              <LatitudeDegrees>36.50601175613701343536376953125</LatitudeDegrees>
              <LongitudeDegrees>-5.40340863168239593505859375</LongitudeDegrees>
            </Position>
            <AltitudeMeters>194.600006103515625</AltitudeMeters>
            <DistanceMeters>6788.5689989051</DistanceMeters>
          </Trackpoint>
          <Trackpoint>
            <Time>2019-01-04T10:53:21.000Z</Time>
            <Position>
              <LatitudeDegrees>36.5060058049857616424560546875</LatitudeDegrees>
              <LongitudeDegrees>-5.4033953882753849029541015625</LongitudeDegrees>
            </Position>
            <AltitudeMeters>194.600006103515625</AltitudeMeters>
            <DistanceMeters>6789.9328888374</DistanceMeters>
          </Trackpoint>
          <Trackpoint>
            <Time>2019-01-04T10:53:22.000Z</Time>
            <Position>
              <LatitudeDegrees>36.506000943481922149658203125</LatitudeDegrees>
              <LongitudeDegrees>-5.40338088758289813995361328125</LongitudeDegrees>
            </Position>
            <AltitudeMeters>194.8000030517578125</AltitudeMeters>
            <DistanceMeters>6791.335941461</DistanceMeters>
          </Trackpoint>
          <Trackpoint>
            <Time>2019-01-04T10:53:23.000Z</Time>
            <Position>
              <LatitudeDegrees>36.5059970878064632415771484375</LatitudeDegrees>
              <LongitudeDegrees>-5.4033672250807285308837890625</LongitudeDegrees>
            </Position>
            <AltitudeMeters>195</AltitudeMeters>
            <DistanceMeters>6792.6319330577</DistanceMeters>
          </Trackpoint>
          <Trackpoint>
            <Time>2019-01-04T10:53:24.000Z</Time>
            <Position>
              <LatitudeDegrees>36.50599616579711437225341796875</LatitudeDegrees>
              <LongitudeDegrees>-5.40335423313081264495849609375</LongitudeDegrees>
            </Position>
            <AltitudeMeters>195</AltitudeMeters>
            <DistanceMeters>6793.8035010751</DistanceMeters>
          </Trackpoint>
          <Trackpoint>
            <Time>2019-01-04T10:53:25.000Z</Time>
            <Position>
              <LatitudeDegrees>36.505990214645862579345703125</LatitudeDegrees>
              <LongitudeDegrees>-5.40334551595151424407958984375</LongitudeDegrees>
            </Position>
            <AltitudeMeters>195</AltitudeMeters>
            <DistanceMeters>6794.8225490578</DistanceMeters>
          </Trackpoint>
          <Trackpoint>
            <Time>2019-01-04T10:53:26.000Z</Time>
            <Position>
              <LatitudeDegrees>36.50598158128559589385986328125</LatitudeDegrees>
              <LongitudeDegrees>-5.40334098972380161285400390625</LongitudeDegrees>
            </Position>
            <AltitudeMeters>195</AltitudeMeters>
            <DistanceMeters>6795.8635145584</DistanceMeters>
          </Trackpoint>
          <Trackpoint>
            <Time>2019-01-04T10:53:27.000Z</Time>
            <Position>
              <LatitudeDegrees>36.50597177445888519287109375</LatitudeDegrees>
              <LongitudeDegrees>-5.40333394892513751983642578125</LongitudeDegrees>
            </Position>
            <AltitudeMeters>195</AltitudeMeters>
            <DistanceMeters>6797.1241863849</DistanceMeters>
          </Trackpoint>
          <Trackpoint>
            <Time>2019-01-04T10:53:28.000Z</Time>
            <Position>
              <LatitudeDegrees>36.5059612132608890533447265625</LatitudeDegrees>
              <LongitudeDegrees>-5.40332338772714138031005859375</LongitudeDegrees>
            </Position>
            <AltitudeMeters>194.8000030517578125</AltitudeMeters>
            <DistanceMeters>6798.6326887096</DistanceMeters>
          </Trackpoint>
          <Trackpoint>
            <Time>2019-01-04T10:53:29.000Z</Time>
            <Position>
              <LatitudeDegrees>36.50595207698643207550048828125</LatitudeDegrees>
              <LongitudeDegrees>-5.40331567637622356414794921875</LongitudeDegrees>
            </Position>
            <AltitudeMeters>194.8000030517578125</AltitudeMeters>
            <DistanceMeters>6799.8607044938</DistanceMeters>
          </Trackpoint>
          <Trackpoint>
            <Time>2019-01-04T10:53:30.000Z</Time>
            <Position>
              <LatitudeDegrees>36.505944617092609405517578125</LatitudeDegrees>
              <LongitudeDegrees>-5.40330360643565654754638671875</LongitudeDegrees>
            </Position>
            <AltitudeMeters>194.600006103515625</AltitudeMeters>
            <DistanceMeters>6801.2212799864</DistanceMeters>
          </Trackpoint>
          <Trackpoint>
            <Time>2019-01-04T10:53:31.000Z</Time>
            <Position>
              <LatitudeDegrees>36.50593732483685016632080078125</LatitudeDegrees>
              <LongitudeDegrees>-5.40328969247639179229736328125</LongitudeDegrees>
            </Position>
            <AltitudeMeters>194.600006103515625</AltitudeMeters>
            <DistanceMeters>6802.7056447166</DistanceMeters>
          </Trackpoint>
          <Trackpoint>
            <Time>2019-01-04T10:53:32.000Z</Time>
            <Position>
              <LatitudeDegrees>36.5059286914765834808349609375</LatitudeDegrees>
              <LongitudeDegrees>-5.40327695198357105255126953125</LongitudeDegrees>
            </Position>
            <AltitudeMeters>194.399993896484375</AltitudeMeters>
            <DistanceMeters>6804.1960804936</DistanceMeters>
          </Trackpoint>
          <Trackpoint>
            <Time>2019-01-04T10:53:33.000Z</Time>
            <Position>
              <LatitudeDegrees>36.50591720826923847198486328125</LatitudeDegrees>
              <LongitudeDegrees>-5.40326722897589206695556640625</LongitudeDegrees>
            </Position>
            <AltitudeMeters>194.399993896484375</AltitudeMeters>
            <DistanceMeters>6805.7430033286</DistanceMeters>
          </Trackpoint>
          <Trackpoint>
            <Time>2019-01-04T10:53:34.000Z</Time>
            <Position>
              <LatitudeDegrees>36.5059053897857666015625</LatitudeDegrees>
              <LongitudeDegrees>-5.4032606072723865509033203125</LongitudeDegrees>
            </Position>
            <AltitudeMeters>194.399993896484375</AltitudeMeters>
            <DistanceMeters>6807.1904071199</DistanceMeters>
          </Trackpoint>
          <Trackpoint>
            <Time>2019-01-04T10:53:35.000Z</Time>
            <Position>
              <LatitudeDegrees>36.505897343158721923828125</LatitudeDegrees>
              <LongitudeDegrees>-5.4032528959214687347412109375</LongitudeDegrees>
            </Position>
            <AltitudeMeters>194.399993896484375</AltitudeMeters>
            <DistanceMeters>6808.3227811107</DistanceMeters>
          </Trackpoint>
          <Trackpoint>
            <Time>2019-01-04T10:53:36.000Z</Time>
            <Position>
              <LatitudeDegrees>36.50589088909327983856201171875</LatitudeDegrees>
              <LongitudeDegrees>-5.403244011104106903076171875</LongitudeDegrees>
            </Position>
            <AltitudeMeters>194.399993896484375</AltitudeMeters>
            <DistanceMeters>6809.393677795</DistanceMeters>
          </Trackpoint>
          <Trackpoint>
            <Time>2019-01-04T10:53:37.000Z</Time>
            <Position>
              <LatitudeDegrees>36.5058830939233303070068359375</LatitudeDegrees>
              <LongitudeDegrees>-5.4032347910106182098388671875</LongitudeDegrees>
            </Position>
            <AltitudeMeters>194.399993896484375</AltitudeMeters>
            <DistanceMeters>6810.5919190706</DistanceMeters>
          </Trackpoint>
          <Trackpoint>
            <Time>2019-01-04T10:53:38.000Z</Time>
            <Position>
              <LatitudeDegrees>36.5058723650872707366943359375</LatitudeDegrees>
              <LongitudeDegrees>-5.40322850458323955535888671875</LongitudeDegrees>
            </Position>
            <AltitudeMeters>194.600006103515625</AltitudeMeters>
            <DistanceMeters>6811.9120723775</DistanceMeters>
          </Trackpoint>
          <Trackpoint>
            <Time>2019-01-04T10:53:39.000Z</Time>
            <Position>
              <LatitudeDegrees>36.50586314499378204345703125</LatitudeDegrees>
              <LongitudeDegrees>-5.4032202064990997314453125</LongitudeDegrees>
            </Position>
            <AltitudeMeters>194.600006103515625</AltitudeMeters>
            <DistanceMeters>6813.1798868777</DistanceMeters>
          </Trackpoint>
          <Trackpoint>
            <Time>2019-01-04T10:53:40.000Z</Time>
            <Position>
              <LatitudeDegrees>36.5058539249002933502197265625</LatitudeDegrees>
              <LongitudeDegrees>-5.40321207605302333831787109375</LongitudeDegrees>
            </Position>
            <AltitudeMeters>194.600006103515625</AltitudeMeters>
            <DistanceMeters>6814.4405587042</DistanceMeters>
          </Trackpoint>
          <Trackpoint>
            <Time>2019-01-04T10:53:41.000Z</Time>
            <Position>
              <LatitudeDegrees>36.5058431960642337799072265625</LatitudeDegrees>
              <LongitudeDegrees>-5.40320369414985179901123046875</LongitudeDegrees>
            </Position>
            <AltitudeMeters>194.8000030517578125</AltitudeMeters>
            <DistanceMeters>6815.8500326549</DistanceMeters>
          </Trackpoint>
          <Trackpoint>
            <Time>2019-01-04T10:53:42.000Z</Time>
            <Position>
              <LatitudeDegrees>36.5058405138552188873291015625</LatitudeDegrees>
              <LongitudeDegrees>-5.403195060789585113525390625</LongitudeDegrees>
            </Position>
            <AltitudeMeters>195</AltitudeMeters>
            <DistanceMeters>6816.6784563447</DistanceMeters>
          </Trackpoint>
          <Trackpoint>
            <Time>2019-01-04T10:53:43.000Z</Time>
            <Position>
              <LatitudeDegrees>36.5058358199894428253173828125</LatitudeDegrees>
              <LongitudeDegrees>-5.403188355267047882080078125</LongitudeDegrees>
            </Position>
            <AltitudeMeters>195</AltitudeMeters>
            <DistanceMeters>6817.4735068783</DistanceMeters>
          </Trackpoint>
          <Trackpoint>
            <Time>2019-01-04T10:53:44.000Z</Time>
            <Position>
              <LatitudeDegrees>36.50582601316273212432861328125</LatitudeDegrees>
              <LongitudeDegrees>-5.403187014162540435791015625</LongitudeDegrees>
            </Position>
            <AltitudeMeters>195</AltitudeMeters>
            <DistanceMeters>6818.5652807059</DistanceMeters>
          </Trackpoint>
          <Trackpoint>
            <Time>2019-01-04T10:53:45.000Z</Time>
            <Position>
              <LatitudeDegrees>36.50581578724086284637451171875</LatitudeDegrees>
              <LongitudeDegrees>-5.40318978019058704376220703125</LongitudeDegrees>
            </Position>
            <AltitudeMeters>195</AltitudeMeters>
            <DistanceMeters>6819.7291155166</DistanceMeters>
          </Trackpoint>
          <Trackpoint>
            <Time>2019-01-04T10:53:46.000Z</Time>
            <Position>
              <LatitudeDegrees>36.505807153880596160888671875</LatitudeDegrees>
              <LongitudeDegrees>-5.40318743325769901275634765625</LongitudeDegrees>
            </Position>
            <AltitudeMeters>195</AltitudeMeters>
            <DistanceMeters>6820.7120794933</DistanceMeters>
          </Trackpoint>
          <Trackpoint>
            <Time>2019-01-04T10:53:47.000Z</Time>
            <Position>
              <LatitudeDegrees>36.5057975985109806060791015625</LatitudeDegrees>
              <LongitudeDegrees>-5.4031821526587009429931640625</LongitudeDegrees>
            </Position>
            <AltitudeMeters>195</AltitudeMeters>
            <DistanceMeters>6821.875914304</DistanceMeters>
          </Trackpoint>
          <Trackpoint>
            <Time>2019-01-04T10:53:48.000Z</Time>
            <Position>
              <LatitudeDegrees>36.5057905577123165130615234375</LatitudeDegrees>
              <LongitudeDegrees>-5.40318056009709835052490234375</LongitudeDegrees>
            </Position>
            <AltitudeMeters>195</AltitudeMeters>
            <DistanceMeters>6822.6766236317</DistanceMeters>
          </Trackpoint>
          <Trackpoint>
            <Time>2019-01-04T10:53:49.000Z</Time>
            <Position>
              <LatitudeDegrees>36.50578267872333526611328125</LatitudeDegrees>
              <LongitudeDegrees>-5.40318039245903491973876953125</LongitudeDegrees>
            </Position>
            <AltitudeMeters>195.1999969482421875</AltitudeMeters>
            <DistanceMeters>6823.5578651277</DistanceMeters>
          </Trackpoint>
          <Trackpoint>
            <Time>2019-01-04T10:53:50.000Z</Time>
            <Position>
              <LatitudeDegrees>36.50577454827725887298583984375</LatitudeDegrees>
              <LongitudeDegrees>-5.40318173356354236602783203125</LongitudeDegrees>
            </Position>
            <AltitudeMeters>195.1999969482421875</AltitudeMeters>
            <DistanceMeters>6824.4643622079</DistanceMeters>
          </Trackpoint>
          <Trackpoint>
            <Time>2019-01-04T10:53:51.000Z</Time>
            <Position>
              <LatitudeDegrees>36.505763232707977294921875</LatitudeDegrees>
              <LongitudeDegrees>-5.40318206883966922760009765625</LongitudeDegrees>
            </Position>
            <AltitudeMeters>195.1999969482421875</AltitudeMeters>
            <DistanceMeters>6825.7250340344</DistanceMeters>
          </Trackpoint>
          <Trackpoint>
            <Time>2019-01-04T10:53:52.000Z</Time>
            <Position>
              <LatitudeDegrees>36.5057543478906154632568359375</LatitudeDegrees>
              <LongitudeDegrees>-5.4031868465244770050048828125</LongitudeDegrees>
            </Position>
            <AltitudeMeters>195.399993896484375</AltitudeMeters>
            <DistanceMeters>6826.804330037</DistanceMeters>
          </Trackpoint>
          <Trackpoint>
            <Time>2019-01-04T10:53:53.000Z</Time>
            <Position>
              <LatitudeDegrees>36.50574621744453907012939453125</LatitudeDegrees>
              <LongitudeDegrees>-5.40319346822798252105712890625</LongitudeDegrees>
            </Position>
            <AltitudeMeters>195.399993896484375</AltitudeMeters>
            <DistanceMeters>6827.8878012815</DistanceMeters>
          </Trackpoint>
          <Trackpoint>
            <Time>2019-01-04T10:53:54.000Z</Time>
            <Position>
              <LatitudeDegrees>36.50573917664587497711181640625</LatitudeDegrees>
              <LongitudeDegrees>-5.40320210158824920654296875</LongitudeDegrees>
            </Position>
            <AltitudeMeters>195.600006103515625</AltitudeMeters>
            <DistanceMeters>6828.9878150285</DistanceMeters>
          </Trackpoint>
          <Trackpoint>
            <Time>2019-01-04T10:53:55.000Z</Time>
            <Position>
              <LatitudeDegrees>36.50572693906724452972412109375</LatitudeDegrees>
              <LongitudeDegrees>-5.4032039456069469451904296875</LongitudeDegrees>
            </Position>
            <AltitudeMeters>195.600006103515625</AltitudeMeters>
            <DistanceMeters>6830.3583097933</DistanceMeters>
          </Trackpoint>
          <Trackpoint>
            <Time>2019-01-04T10:53:56.000Z</Time>
            <Position>
              <LatitudeDegrees>36.50572274811565876007080078125</LatitudeDegrees>
              <LongitudeDegrees>-5.4032140038907527923583984375</LongitudeDegrees>
            </Position>
            <AltitudeMeters>195.600006103515625</AltitudeMeters>
            <DistanceMeters>6831.3729174586</DistanceMeters>
          </Trackpoint>
          <Trackpoint>
            <Time>2019-01-04T10:53:57.000Z</Time>
            <Position>
              <LatitudeDegrees>36.50572475977241992950439453125</LatitudeDegrees>
              <LongitudeDegrees>-5.40322649292647838592529296875</LongitudeDegrees>
            </Position>
            <AltitudeMeters>195.600006103515625</AltitudeMeters>
            <DistanceMeters>6832.5132380311</DistanceMeters>
          </Trackpoint>
          <Trackpoint>
            <Time>2019-01-04T10:53:58.000Z</Time>
            <Position>
              <LatitudeDegrees>36.5057258494198322296142578125</LatitudeDegrees>
              <LongitudeDegrees>-5.403239987790584564208984375</LongitudeDegrees>
            </Position>
            <AltitudeMeters>195.600006103515625</AltitudeMeters>
            <DistanceMeters>6833.7264579041</DistanceMeters>
          </Trackpoint>
          <Trackpoint>
            <Time>2019-01-04T10:53:59.000Z</Time>
            <Position>
              <LatitudeDegrees>36.5057261846959590911865234375</LatitudeDegrees>
              <LongitudeDegrees>-5.40325574576854705810546875</LongitudeDegrees>
            </Position>
            <AltitudeMeters>195.600006103515625</AltitudeMeters>
            <DistanceMeters>6835.1359318548</DistanceMeters>
          </Trackpoint>
          <Trackpoint>
            <Time>2019-01-04T10:54:00.000Z</Time>
            <Position>
              <LatitudeDegrees>36.5057265199720859527587890625</LatitudeDegrees>
              <LongitudeDegrees>-5.40327175520360469818115234375</LongitudeDegrees>
            </Position>
            <AltitudeMeters>195.399993896484375</AltitudeMeters>
            <DistanceMeters>6836.5708037757</DistanceMeters>
          </Trackpoint>
          <Trackpoint>
            <Time>2019-01-04T10:54:01.000Z</Time>
            <Position>
              <LatitudeDegrees>36.505728028714656829833984375</LatitudeDegrees>
              <LongitudeDegrees>-5.40328348986804485321044921875</LongitudeDegrees>
            </Position>
            <AltitudeMeters>195.1999969482421875</AltitudeMeters>
            <DistanceMeters>6837.6332347407</DistanceMeters>
          </Trackpoint>
          <Trackpoint>
            <Time>2019-01-04T10:54:02.000Z</Time>
            <Position>
              <LatitudeDegrees>36.5057292021811008453369140625</LatitudeDegrees>
              <LongitudeDegrees>-5.4032953083515167236328125</LongitudeDegrees>
            </Position>
            <AltitudeMeters>195</AltitudeMeters>
            <DistanceMeters>6838.699906964</DistanceMeters>
          </Trackpoint>
          <Trackpoint>
            <Time>2019-01-04T10:54:03.000Z</Time>
            <Position>
              <LatitudeDegrees>36.5057281963527202606201171875</LatitudeDegrees>
              <LongitudeDegrees>-5.4033082164824008941650390625</LongitudeDegrees>
            </Position>
            <AltitudeMeters>194.600006103515625</AltitudeMeters>
            <DistanceMeters>6839.8637417747</DistanceMeters>
          </Trackpoint>
          <Trackpoint>
            <Time>2019-01-04T10:54:04.000Z</Time>
            <Position>
              <LatitudeDegrees>36.50572559796273708343505859375</LatitudeDegrees>
              <LongitudeDegrees>-5.40332087315618991851806640625</LongitudeDegrees>
            </Position>
            <AltitudeMeters>194.399993896484375</AltitudeMeters>
            <DistanceMeters>6841.0314495905</DistanceMeters>
          </Trackpoint>
          <Trackpoint>
            <Time>2019-01-04T10:54:05.000Z</Time>
            <Position>
              <LatitudeDegrees>36.5057194791734218597412109375</LatitudeDegrees>
              <LongitudeDegrees>-5.40333093143999576568603515625</LongitudeDegrees>
            </Position>
            <AltitudeMeters>194.1999969482421875</AltitudeMeters>
            <DistanceMeters>6842.1598293043</DistanceMeters>
          </Trackpoint>
          <Trackpoint>
            <Time>2019-01-04T10:54:06.000Z</Time>
            <Position>
              <LatitudeDegrees>36.505710594356060028076171875</LatitudeDegrees>
              <LongitudeDegrees>-5.40333830751478672027587890625</LongitudeDegrees>
            </Position>
            <AltitudeMeters>194</AltitudeMeters>
            <DistanceMeters>6843.3467125864</DistanceMeters>
          </Trackpoint>
          <Trackpoint>
            <Time>2019-01-04T10:54:07.000Z</Time>
            <Position>
              <LatitudeDegrees>36.50570221245288848876953125</LatitudeDegrees>
              <LongitudeDegrees>-5.40334752760827541351318359375</LongitudeDegrees>
            </Position>
            <AltitudeMeters>193.8000030517578125</AltitudeMeters>
            <DistanceMeters>6844.5965938707</DistanceMeters>
          </Trackpoint>
          <Trackpoint>
            <Time>2019-01-04T10:54:08.000Z</Time>
            <Position>
              <LatitudeDegrees>36.505691148340702056884765625</LatitudeDegrees>
              <LongitudeDegrees>-5.40335406549274921417236328125</LongitudeDegrees>
            </Position>
            <AltitudeMeters>193.600006103515625</AltitudeMeters>
            <DistanceMeters>6845.960483803</DistanceMeters>
          </Trackpoint>
          <Trackpoint>
            <Time>2019-01-04T10:54:09.000Z</Time>
            <Position>
              <LatitudeDegrees>36.5056802518665790557861328125</LatitudeDegrees>
              <LongitudeDegrees>-5.40335339494049549102783203125</LongitudeDegrees>
            </Position>
            <AltitudeMeters>193.600006103515625</AltitudeMeters>
            <DistanceMeters>6847.177419519</DistanceMeters>
          </Trackpoint>
          <Trackpoint>
            <Time>2019-01-04T10:54:10.000Z</Time>
            <Position>
              <LatitudeDegrees>36.5056671760976314544677734375</LatitudeDegrees>
              <LongitudeDegrees>-5.403355322778224945068359375</LongitudeDegrees>
            </Position>
            <AltitudeMeters>193.600006103515625</AltitudeMeters>
            <DistanceMeters>6848.6434202671</DistanceMeters>
          </Trackpoint>
          <Trackpoint>
            <Time>2019-01-04T10:54:11.000Z</Time>
            <Position>
              <LatitudeDegrees>36.5056554414331912994384765625</LatitudeDegrees>
              <LongitudeDegrees>-5.4033548198640346527099609375</LongitudeDegrees>
            </Position>
            <AltitudeMeters>193.600006103515625</AltitudeMeters>
            <DistanceMeters>6849.9463609302</DistanceMeters>
          </Trackpoint>
          <Trackpoint>
            <Time>2019-01-04T10:54:12.000Z</Time>
            <Position>
              <LatitudeDegrees>36.5056433714926242828369140625</LatitudeDegrees>
              <LongitudeDegrees>-5.40335725061595439910888671875</LongitudeDegrees>
            </Position>
            <AltitudeMeters>193.600006103515625</AltitudeMeters>
            <DistanceMeters>6851.3069364228</DistanceMeters>
          </Trackpoint>
          <Trackpoint>
            <Time>2019-01-04T10:54:13.000Z</Time>
            <Position>
              <LatitudeDegrees>36.505631469190120697021484375</LatitudeDegrees>
              <LongitudeDegrees>-5.40336378850042819976806640625</LongitudeDegrees>
            </Position>
            <AltitudeMeters>193.600006103515625</AltitudeMeters>
            <DistanceMeters>6852.754340214</DistanceMeters>
          </Trackpoint>
          <Trackpoint>
            <Time>2019-01-04T10:54:14.000Z</Time>
            <Position>
              <LatitudeDegrees>36.5056205727159976959228515625</LatitudeDegrees>
              <LongitudeDegrees>-5.4033729247748851776123046875</LongitudeDegrees>
            </Position>
            <AltitudeMeters>193.8000030517578125</AltitudeMeters>
            <DistanceMeters>6854.2172578868</DistanceMeters>
          </Trackpoint>
          <Trackpoint>
            <Time>2019-01-04T10:54:15.000Z</Time>
            <Position>
              <LatitudeDegrees>36.50560841895639896392822265625</LatitudeDegrees>
              <LongitudeDegrees>-5.40338105522096157073974609375</LongitudeDegrees>
            </Position>
            <AltitudeMeters>193.8000030517578125</AltitudeMeters>
            <DistanceMeters>6855.755399632</DistanceMeters>
          </Trackpoint>
          <Trackpoint>
            <Time>2019-01-04T10:54:16.000Z</Time>
            <Position>
              <LatitudeDegrees>36.50559601373970508575439453125</LatitudeDegrees>
              <LongitudeDegrees>-5.4033865034580230712890625</LongitudeDegrees>
            </Position>
            <AltitudeMeters>193.8000030517578125</AltitudeMeters>
            <DistanceMeters>6857.2183173047</DistanceMeters>
          </Trackpoint>
          <Trackpoint>
            <Time>2019-01-04T10:54:17.000Z</Time>
            <Position>
              <LatitudeDegrees>36.505584530532360076904296875</LatitudeDegrees>
              <LongitudeDegrees>-5.40339262224733829498291015625</LongitudeDegrees>
            </Position>
            <AltitudeMeters>193.8000030517578125</AltitudeMeters>
            <DistanceMeters>6858.6084382919</DistanceMeters>
          </Trackpoint>
          <Trackpoint>
            <Time>2019-01-04T10:54:18.000Z</Time>
            <Position>
              <LatitudeDegrees>36.505573131144046783447265625</LatitudeDegrees>
              <LongitudeDegrees>-5.40339882485568523406982421875</LongitudeDegrees>
            </Position>
            <AltitudeMeters>193.8000030517578125</AltitudeMeters>
            <DistanceMeters>6859.992048138</DistanceMeters>
          </Trackpoint>
          <Trackpoint>
            <Time>2019-01-04T10:54:19.000Z</Time>
            <Position>
              <LatitudeDegrees>36.5055602230131626129150390625</LatitudeDegrees>
              <LongitudeDegrees>-5.403404273092746734619140625</LongitudeDegrees>
            </Position>
            <AltitudeMeters>193.8000030517578125</AltitudeMeters>
            <DistanceMeters>6861.5095030774</DistanceMeters>
          </Trackpoint>
          <Trackpoint>
            <Time>2019-01-04T10:54:20.000Z</Time>
            <Position>
              <LatitudeDegrees>36.505546979606151580810546875</LatitudeDegrees>
              <LongitudeDegrees>-5.40341089479625225067138671875</LongitudeDegrees>
            </Position>
            <AltitudeMeters>193.8000030517578125</AltitudeMeters>
            <DistanceMeters>6863.0996041447</DistanceMeters>
          </Trackpoint>
          <Trackpoint>
            <Time>2019-01-04T10:54:21.000Z</Time>
            <Position>
              <LatitudeDegrees>36.505533568561077117919921875</LatitudeDegrees>
              <LongitudeDegrees>-5.40341994725167751312255859375</LongitudeDegrees>
            </Position>
            <AltitudeMeters>194</AltitudeMeters>
            <DistanceMeters>6864.7968355331</DistanceMeters>
          </Trackpoint>
          <Trackpoint>
            <Time>2019-01-04T10:54:22.000Z</Time>
            <Position>
              <LatitudeDegrees>36.50552191771566867828369140625</LatitudeDegrees>
              <LongitudeDegrees>-5.40342765860259532928466796875</LongitudeDegrees>
            </Position>
            <AltitudeMeters>194.1999969482421875</AltitudeMeters>
            <DistanceMeters>6866.2628362813</DistanceMeters>
          </Trackpoint>
          <Trackpoint>
            <Time>2019-01-04T10:54:23.000Z</Time>
            <Position>
              <LatitudeDegrees>36.50550515390932559967041015625</LatitudeDegrees>
              <LongitudeDegrees>-5.40342807769775390625</LongitudeDegrees>
            </Position>
            <AltitudeMeters>194.1999969482421875</AltitudeMeters>
            <DistanceMeters>6868.1273950577</DistanceMeters>
          </Trackpoint>
          <Trackpoint>
            <Time>2019-01-04T10:54:24.000Z</Time>
            <Position>
              <LatitudeDegrees>36.5054881386458873748779296875</LatitudeDegrees>
              <LongitudeDegrees>-5.4034299217164516448974609375</LongitudeDegrees>
            </Position>
            <AltitudeMeters>194.399993896484375</AltitudeMeters>
            <DistanceMeters>6870.0279293451</DistanceMeters>
          </Trackpoint>
          <Trackpoint>
            <Time>2019-01-04T10:54:25.000Z</Time>
            <Position>
              <LatitudeDegrees>36.5054743923246860504150390625</LatitudeDegrees>
              <LongitudeDegrees>-5.4034315980970859527587890625</LongitudeDegrees>
            </Position>
            <AltitudeMeters>194.399993896484375</AltitudeMeters>
            <DistanceMeters>6871.5660710903</DistanceMeters>
          </Trackpoint>
          <Trackpoint>
            <Time>2019-01-04T10:54:26.000Z</Time>
            <Position>
              <LatitudeDegrees>36.505461148917675018310546875</LatitudeDegrees>
              <LongitudeDegrees>-5.4034366272389888763427734375</LongitudeDegrees>
            </Position>
            <AltitudeMeters>194.1999969482421875</AltitudeMeters>
            <DistanceMeters>6873.1100724443</DistanceMeters>
          </Trackpoint>
          <Trackpoint>
            <Time>2019-01-04T10:54:27.000Z</Time>
            <Position>
              <LatitudeDegrees>36.505446396768093109130859375</LatitudeDegrees>
              <LongitudeDegrees>-5.40343838743865489959716796875</LongitudeDegrees>
            </Position>
            <AltitudeMeters>194</AltitudeMeters>
            <DistanceMeters>6874.7614606743</DistanceMeters>
          </Trackpoint>
          <Trackpoint>
            <Time>2019-01-04T10:54:28.000Z</Time>
            <Position>
              <LatitudeDegrees>36.5054328180849552154541015625</LatitudeDegrees>
              <LongitudeDegrees>-5.40343905799090862274169921875</LongitudeDegrees>
            </Position>
            <AltitudeMeters>193.8000030517578125</AltitudeMeters>
            <DistanceMeters>6876.2759372891</DistanceMeters>
          </Trackpoint>
          <Trackpoint>
            <Time>2019-01-04T10:54:29.000Z</Time>
            <Position>
              <LatitudeDegrees>36.505419574677944183349609375</LatitudeDegrees>
              <LongitudeDegrees>-5.403441824018955230712890625</LongitudeDegrees>
            </Position>
            <AltitudeMeters>193.600006103515625</AltitudeMeters>
            <DistanceMeters>6877.7663730661</DistanceMeters>
          </Trackpoint>
          <Trackpoint>
            <Time>2019-01-04T10:54:30.000Z</Time>
            <Position>
              <LatitudeDegrees>36.50540792383253574371337890625</LatitudeDegrees>
              <LongitudeDegrees>-5.403445847332477569580078125</LongitudeDegrees>
            </Position>
            <AltitudeMeters>193.600006103515625</AltitudeMeters>
            <DistanceMeters>6879.1102537486</DistanceMeters>
          </Trackpoint>
          <Trackpoint>
            <Time>2019-01-04T10:54:31.000Z</Time>
            <Position>
              <LatitudeDegrees>36.50539551861584186553955078125</LatitudeDegrees>
              <LongitudeDegrees>-5.403447858989238739013671875</LongitudeDegrees>
            </Position>
            <AltitudeMeters>193.399993896484375</AltitudeMeters>
            <DistanceMeters>6880.5068555214</DistanceMeters>
          </Trackpoint>
          <Trackpoint>
            <Time>2019-01-04T10:54:32.000Z</Time>
            <Position>
              <LatitudeDegrees>36.50538562797009944915771484375</LatitudeDegrees>
              <LongitudeDegrees>-5.4034517146646976470947265625</LongitudeDegrees>
            </Position>
            <AltitudeMeters>193.1999969482421875</AltitudeMeters>
            <DistanceMeters>6881.6629053965</DistanceMeters>
          </Trackpoint>
          <Trackpoint>
            <Time>2019-01-04T10:54:33.000Z</Time>
            <Position>
              <LatitudeDegrees>36.5053721331059932708740234375</LatitudeDegrees>
              <LongitudeDegrees>-5.4034543968737125396728515625</LongitudeDegrees>
            </Position>
            <AltitudeMeters>193.1999969482421875</AltitudeMeters>
            <DistanceMeters>6883.1833328264</DistanceMeters>
          </Trackpoint>
          <Trackpoint>
            <Time>2019-01-04T10:54:34.000Z</Time>
            <Position>
              <LatitudeDegrees>36.5053570456802845001220703125</LatitudeDegrees>
              <LongitudeDegrees>-5.40345531888306140899658203125</LongitudeDegrees>
            </Position>
            <AltitudeMeters>193.1999969482421875</AltitudeMeters>
            <DistanceMeters>6884.8645270231</DistanceMeters>
          </Trackpoint>
          <Trackpoint>
            <Time>2019-01-04T10:54:35.000Z</Time>
            <Position>
              <LatitudeDegrees>36.50534237734973430633544921875</LatitudeDegrees>
              <LongitudeDegrees>-5.4034587554633617401123046875</LongitudeDegrees>
            </Position>
            <AltitudeMeters>193.1999969482421875</AltitudeMeters>
            <DistanceMeters>6886.5268156237</DistanceMeters>
          </Trackpoint>
          <Trackpoint>
            <Time>2019-01-04T10:54:36.000Z</Time>
            <Position>
              <LatitudeDegrees>36.5053275413811206817626953125</LatitudeDegrees>
              <LongitudeDegrees>-5.403460599482059478759765625</LongitudeDegrees>
            </Position>
            <AltitudeMeters>193.1999969482421875</AltitudeMeters>
            <DistanceMeters>6888.1863858438</DistanceMeters>
          </Trackpoint>
          <Trackpoint>
            <Time>2019-01-04T10:54:37.000Z</Time>
            <Position>
              <LatitudeDegrees>36.5053141303360462188720703125</LatitudeDegrees>
              <LongitudeDegrees>-5.403464622795581817626953125</LongitudeDegrees>
            </Position>
            <AltitudeMeters>193.1999969482421875</AltitudeMeters>
            <DistanceMeters>6889.7186455723</DistanceMeters>
          </Trackpoint>
          <Trackpoint>
            <Time>2019-01-04T10:54:38.000Z</Time>
            <Position>
              <LatitudeDegrees>36.50530231185257434844970703125</LatitudeDegrees>
              <LongitudeDegrees>-5.40347107686102390289306640625</LongitudeDegrees>
            </Position>
            <AltitudeMeters>193.399993896484375</AltitudeMeters>
            <DistanceMeters>6891.1566606993</DistanceMeters>
          </Trackpoint>
          <Trackpoint>
            <Time>2019-01-04T10:54:39.000Z</Time>
            <Position>
              <LatitudeDegrees>36.50528940372169017791748046875</LatitudeDegrees>
              <LongitudeDegrees>-5.403478704392910003662109375</LongitudeDegrees>
            </Position>
            <AltitudeMeters>193.399993896484375</AltitudeMeters>
            <DistanceMeters>6892.7467617667</DistanceMeters>
          </Trackpoint>
          <Trackpoint>
            <Time>2019-01-04T10:54:40.000Z</Time>
            <Position>
              <LatitudeDegrees>36.505272053182125091552734375</LatitudeDegrees>
              <LongitudeDegrees>-5.4034845717251300811767578125</LongitudeDegrees>
            </Position>
            <AltitudeMeters>193.399993896484375</AltitudeMeters>
            <DistanceMeters>6894.7445840281</DistanceMeters>
          </Trackpoint>
          <Trackpoint>
            <Time>2019-01-04T10:54:41.000Z</Time>
            <Position>
              <LatitudeDegrees>36.50525956414639949798583984375</LatitudeDegrees>
              <LongitudeDegrees>-5.40348951704800128936767578125</LongitudeDegrees>
            </Position>
            <AltitudeMeters>193.399993896484375</AltitudeMeters>
            <DistanceMeters>6896.2044121141</DistanceMeters>
          </Trackpoint>
          <Trackpoint>
            <Time>2019-01-04T10:54:42.000Z</Time>
            <Position>
              <LatitudeDegrees>36.50525000877678394317626953125</LatitudeDegrees>
              <LongitudeDegrees>-5.40349521674215793609619140625</LongitudeDegrees>
            </Position>
            <AltitudeMeters>193.1999969482421875</AltitudeMeters>
            <DistanceMeters>6897.3836626271</DistanceMeters>
          </Trackpoint>
          <Trackpoint>
            <Time>2019-01-04T10:54:43.000Z</Time>
            <Position>
              <LatitudeDegrees>36.50524028576910495758056640625</LatitudeDegrees>
              <LongitudeDegrees>-5.4035050235688686370849609375</LongitudeDegrees>
            </Position>
            <AltitudeMeters>193.1999969482421875</AltitudeMeters>
            <DistanceMeters>6898.7737836143</DistanceMeters>
          </Trackpoint>
          <Trackpoint>
            <Time>2019-01-04T10:54:44.000Z</Time>
            <Position>
              <LatitudeDegrees>36.50522888638079166412353515625</LatitudeDegrees>
              <LongitudeDegrees>-5.40351415984332561492919921875</LongitudeDegrees>
            </Position>
            <AltitudeMeters>193.1999969482421875</AltitudeMeters>
            <DistanceMeters>6900.2822859391</DistanceMeters>
          </Trackpoint>
          <Trackpoint>
            <Time>2019-01-04T10:54:45.000Z</Time>
            <Position>
              <LatitudeDegrees>36.50521832518279552459716796875</LatitudeDegrees>
              <LongitudeDegrees>-5.40352262556552886962890625</LongitudeDegrees>
            </Position>
            <AltitudeMeters>193.1999969482421875</AltitudeMeters>
            <DistanceMeters>6901.6788877119</DistanceMeters>
          </Trackpoint>
          <Trackpoint>
            <Time>2019-01-04T10:54:46.000Z</Time>
            <Position>
              <LatitudeDegrees>36.50520860217511653900146484375</LatitudeDegrees>
              <LongitudeDegrees>-5.40353142656385898590087890625</LongitudeDegrees>
            </Position>
            <AltitudeMeters>193.1999969482421875</AltitudeMeters>
            <DistanceMeters>6903.0194044825</DistanceMeters>
          </Trackpoint>
          <Trackpoint>
            <Time>2019-01-04T10:54:47.000Z</Time>
            <Position>
              <LatitudeDegrees>36.50519586168229579925537109375</LatitudeDegrees>
              <LongitudeDegrees>-5.40354114957153797149658203125</LongitudeDegrees>
            </Position>
            <AltitudeMeters>193.1999969482421875</AltitudeMeters>
            <DistanceMeters>6904.6844070256</DistanceMeters>
          </Trackpoint>
          <Trackpoint>
            <Time>2019-01-04T10:54:48.000Z</Time>
            <Position>
              <LatitudeDegrees>36.505183875560760498046875</LatitudeDegrees>
              <LongitudeDegrees>-5.4035482741892337799072265625</LongitudeDegrees>
            </Position>
            <AltitudeMeters>193.1999969482421875</AltitudeMeters>
            <DistanceMeters>6906.1626757763</DistanceMeters>
          </Trackpoint>
          <Trackpoint>
            <Time>2019-01-04T10:54:49.000Z</Time>
            <Position>
              <LatitudeDegrees>36.5051756612956523895263671875</LatitudeDegrees>
              <LongitudeDegrees>-5.4035559855401515960693359375</LongitudeDegrees>
            </Position>
            <AltitudeMeters>193.1999969482421875</AltitudeMeters>
            <DistanceMeters>6907.3069489449</DistanceMeters>
          </Trackpoint>
          <Trackpoint>
            <Time>2019-01-04T10:54:50.000Z</Time>
            <Position>
              <LatitudeDegrees>36.5051649324595928192138671875</LatitudeDegrees>
              <LongitudeDegrees>-5.40356193669140338897705078125</LongitudeDegrees>
            </Position>
            <AltitudeMeters>193.1999969482421875</AltitudeMeters>
            <DistanceMeters>6908.6168018085</DistanceMeters>
          </Trackpoint>
          <Trackpoint>
            <Time>2019-01-04T10:54:51.000Z</Time>
            <Position>
              <LatitudeDegrees>36.50515244342386722564697265625</LatitudeDegrees>
              <LongitudeDegrees>-5.40357233025133609771728515625</LongitudeDegrees>
            </Position>
            <AltitudeMeters>193.1999969482421875</AltitudeMeters>
            <DistanceMeters>6910.2899197654</DistanceMeters>
          </Trackpoint>
          <Trackpoint>
            <Time>2019-01-04T10:54:52.000Z</Time>
            <Position>
              <LatitudeDegrees>36.50514104403555393218994140625</LatitudeDegrees>
              <LongitudeDegrees>-5.4035823047161102294921875</LongitudeDegrees>
            </Position>
            <AltitudeMeters>193.1999969482421875</AltitudeMeters>
            <DistanceMeters>6911.8397585745</DistanceMeters>
          </Trackpoint>
          <Trackpoint>
            <Time>2019-01-04T10:54:53.000Z</Time>
            <Position>
              <LatitudeDegrees>36.50513132102787494659423828125</LatitudeDegrees>
              <LongitudeDegrees>-5.40359077043831348419189453125</LongitudeDegrees>
            </Position>
            <AltitudeMeters>193.1999969482421875</AltitudeMeters>
            <DistanceMeters>6913.1599118814</DistanceMeters>
          </Trackpoint>
          <Trackpoint>
            <Time>2019-01-04T10:54:54.000Z</Time>
            <Position>
              <LatitudeDegrees>36.5051216818392276763916015625</LatitudeDegrees>
              <LongitudeDegrees>-5.40359529666602611541748046875</LongitudeDegrees>
            </Position>
            <AltitudeMeters>193</AltitudeMeters>
            <DistanceMeters>6914.3081240398</DistanceMeters>
          </Trackpoint>
          <Trackpoint>
            <Time>2019-01-04T10:54:55.000Z</Time>
            <Position>
              <LatitudeDegrees>36.5051089413464069366455078125</LatitudeDegrees>
              <LongitudeDegrees>-5.40360116399824619293212890625</LongitudeDegrees>
            </Position>
            <AltitudeMeters>193.1999969482421875</AltitudeMeters>
            <DistanceMeters>6915.8166263646</DistanceMeters>
          </Trackpoint>
          <Trackpoint>
            <Time>2019-01-04T10:54:56.000Z</Time>
            <Position>
              <LatitudeDegrees>36.5050967037677764892578125</LatitudeDegrees>
              <LongitudeDegrees>-5.4036037623882293701171875</LongitudeDegrees>
            </Position>
            <AltitudeMeters>193.1999969482421875</AltitudeMeters>
            <DistanceMeters>6917.1969691227</DistanceMeters>
          </Trackpoint>
          <Trackpoint>
            <Time>2019-01-04T10:54:57.000Z</Time>
            <Position>
              <LatitudeDegrees>36.50508505292236804962158203125</LatitudeDegrees>
              <LongitudeDegrees>-5.4036042653024196624755859375</LongitudeDegrees>
            </Position>
            <AltitudeMeters>193.1999969482421875</AltitudeMeters>
            <DistanceMeters>6918.4929607193</DistanceMeters>
          </Trackpoint>
          <Trackpoint>
            <Time>2019-01-04T10:54:58.000Z</Time>
            <Position>
              <LatitudeDegrees>36.50506912730634212493896484375</LatitudeDegrees>
              <LongitudeDegrees>-5.403600074350833892822265625</LongitudeDegrees>
            </Position>
            <AltitudeMeters>193.1999969482421875</AltitudeMeters>
            <DistanceMeters>6920.3034627903</DistanceMeters>
          </Trackpoint>
          <Trackpoint>
            <Time>2019-01-04T10:54:59.000Z</Time>
            <Position>
              <LatitudeDegrees>36.50505387224256992340087890625</LatitudeDegrees>
              <LongitudeDegrees>-5.40359512902796268463134765625</LongitudeDegrees>
            </Position>
            <AltitudeMeters>193.1999969482421875</AltitudeMeters>
            <DistanceMeters>6922.0556688258</DistanceMeters>
          </Trackpoint>
          <Trackpoint>
            <Time>2019-01-04T10:55:00.000Z</Time>
            <Position>
              <LatitudeDegrees>36.505043394863605499267578125</LatitudeDegrees>
              <LongitudeDegrees>-5.403593368828296661376953125</LongitudeDegrees>
            </Position>
            <AltitudeMeters>193.399993896484375</AltitudeMeters>
            <DistanceMeters>6923.2310843677</DistanceMeters>
          </Trackpoint>
          <Trackpoint>
            <Time>2019-01-04T10:55:01.000Z</Time>
            <Position>
              <LatitudeDegrees>36.50502989999949932098388671875</LatitudeDegrees>
              <LongitudeDegrees>-5.4035930335521697998046875</LongitudeDegrees>
            </Position>
            <AltitudeMeters>193.399993896484375</AltitudeMeters>
            <DistanceMeters>6924.7305806279</DistanceMeters>
          </Trackpoint>
          <Trackpoint>
            <Time>2019-01-04T10:55:02.000Z</Time>
            <Position>
              <LatitudeDegrees>36.50501690804958343505859375</LatitudeDegrees>
              <LongitudeDegrees>-5.40359412319958209991455078125</LongitudeDegrees>
            </Position>
            <AltitudeMeters>193.399993896484375</AltitudeMeters>
            <DistanceMeters>6926.1779844192</DistanceMeters>
          </Trackpoint>
          <Trackpoint>
            <Time>2019-01-04T10:55:03.000Z</Time>
            <Position>
              <LatitudeDegrees>36.5050050057470798492431640625</LatitudeDegrees>
              <LongitudeDegrees>-5.40359663777053356170654296875</LongitudeDegrees>
            </Position>
            <AltitudeMeters>193.399993896484375</AltitudeMeters>
            <DistanceMeters>6927.5218651017</DistanceMeters>
          </Trackpoint>
          <Trackpoint>
            <Time>2019-01-04T10:55:04.000Z</Time>
            <Position>
              <LatitudeDegrees>36.50499385781586170196533203125</LatitudeDegrees>
              <LongitudeDegrees>-5.40359730832278728485107421875</LongitudeDegrees>
            </Position>
            <AltitudeMeters>193.399993896484375</AltitudeMeters>
            <DistanceMeters>6928.7645006363</DistanceMeters>
          </Trackpoint>
          <Trackpoint>
            <Time>2019-01-04T10:55:05.000Z</Time>
            <Position>
              <LatitudeDegrees>36.5049828775227069854736328125</LatitudeDegrees>
              <LongitudeDegrees>-5.40360015816986560821533203125</LongitudeDegrees>
            </Position>
            <AltitudeMeters>193.600006103515625</AltitudeMeters>
            <DistanceMeters>6930.0107643116</DistanceMeters>
          </Trackpoint>
          <Trackpoint>
            <Time>2019-01-04T10:55:06.000Z</Time>
            <Position>
              <LatitudeDegrees>36.50497390888631343841552734375</LatitudeDegrees>
              <LongitudeDegrees>-5.4036042653024196624755859375</LongitudeDegrees>
            </Position>
            <AltitudeMeters>193.600006103515625</AltitudeMeters>
            <DistanceMeters>6931.0774365349</DistanceMeters>
          </Trackpoint>
          <Trackpoint>
            <Time>2019-01-04T10:55:07.000Z</Time>
            <Position>
              <LatitudeDegrees>36.50496192276477813720703125</LatitudeDegrees>
              <LongitudeDegrees>-5.40360669605433940887451171875</LongitudeDegrees>
            </Position>
            <AltitudeMeters>193.399993896484375</AltitudeMeters>
            <DistanceMeters>6932.4280199058</DistanceMeters>
          </Trackpoint>
          <Trackpoint>
            <Time>2019-01-04T10:55:08.000Z</Time>
            <Position>
              <LatitudeDegrees>36.50494742207229137420654296875</LatitudeDegrees>
              <LongitudeDegrees>-5.403604768216609954833984375</LongitudeDegrees>
            </Position>
            <AltitudeMeters>193.399993896484375</AltitudeMeters>
            <DistanceMeters>6934.0518371127</DistanceMeters>
          </Trackpoint>
          <Trackpoint>
            <Time>2019-01-04T10:55:09.000Z</Time>
            <Position>
              <LatitudeDegrees>36.5049369446933269500732421875</LatitudeDegrees>
              <LongitudeDegrees>-5.40360904298722743988037109375</LongitudeDegrees>
            </Position>
            <AltitudeMeters>193.399993896484375</AltitudeMeters>
            <DistanceMeters>6935.2798528969</DistanceMeters>
          </Trackpoint>
          <Trackpoint>
            <Time>2019-01-04T10:55:10.000Z</Time>
            <Position>
              <LatitudeDegrees>36.50492370128631591796875</LatitudeDegrees>
              <LongitudeDegrees>-5.403614155948162078857421875</LongitudeDegrees>
            </Position>
            <AltitudeMeters>193.399993896484375</AltitudeMeters>
            <DistanceMeters>6936.8238542509</DistanceMeters>
          </Trackpoint>
          <Trackpoint>
            <Time>2019-01-04T10:55:11.000Z</Time>
            <Position>
              <LatitudeDegrees>36.50491104461252689361572265625</LatitudeDegrees>
              <LongitudeDegrees>-5.40361859835684299468994140625</LongitudeDegrees>
            </Position>
            <AltitudeMeters>193.399993896484375</AltitudeMeters>
            <DistanceMeters>6938.2836823369</DistanceMeters>
          </Trackpoint>
          <Trackpoint>
            <Time>2019-01-04T10:55:12.000Z</Time>
            <Position>
              <LatitudeDegrees>36.50490065105259418487548828125</LatitudeDegrees>
              <LongitudeDegrees>-5.40362513624131679534912109375</LongitudeDegrees>
            </Position>
            <AltitudeMeters>193.399993896484375</AltitudeMeters>
            <DistanceMeters>6939.5796739336</DistanceMeters>
          </Trackpoint>
          <Trackpoint>
            <Time>2019-01-04T10:55:13.000Z</Time>
            <Position>
              <LatitudeDegrees>36.5048890002071857452392578125</LatitudeDegrees>
              <LongitudeDegrees>-5.4036257229745388031005859375</LongitudeDegrees>
            </Position>
            <AltitudeMeters>193.399993896484375</AltitudeMeters>
            <DistanceMeters>6940.8756655302</DistanceMeters>
          </Trackpoint>
          <Trackpoint>
            <Time>2019-01-04T10:55:14.000Z</Time>
            <Position>
              <LatitudeDegrees>36.504873745143413543701171875</LatitudeDegrees>
              <LongitudeDegrees>-5.403626896440982818603515625</LongitudeDegrees>
            </Position>
            <AltitudeMeters>193.399993896484375</AltitudeMeters>
            <DistanceMeters>6942.5755550743</DistanceMeters>
          </Trackpoint>
          <Trackpoint>
            <Time>2019-01-04T10:55:15.000Z</Time>
            <Position>
              <LatitudeDegrees>36.504858322441577911376953125</LatitudeDegrees>
              <LongitudeDegrees>-5.40362614206969738006591796875</LongitudeDegrees>
            </Position>
            <AltitudeMeters>193.399993896484375</AltitudeMeters>
            <DistanceMeters>6944.2965620684</DistanceMeters>
          </Trackpoint>
          <Trackpoint>
            <Time>2019-01-04T10:55:16.000Z</Time>
            <Position>
              <LatitudeDegrees>36.50484583340585231781005859375</LatitudeDegrees>
              <LongitudeDegrees>-5.4036253876984119415283203125</LongitudeDegrees>
            </Position>
            <AltitudeMeters>193.399993896484375</AltitudeMeters>
            <DistanceMeters>6945.6931638412</DistanceMeters>
          </Trackpoint>
          <Trackpoint>
            <Time>2019-01-04T10:55:17.000Z</Time>
            <Position>
              <LatitudeDegrees>36.5048353560268878936767578125</LatitudeDegrees>
              <LongitudeDegrees>-5.4036227054893970489501953125</LongitudeDegrees>
            </Position>
            <AltitudeMeters>193.399993896484375</AltitudeMeters>
            <DistanceMeters>6946.8876311192</DistanceMeters>
          </Trackpoint>
          <Trackpoint>
            <Time>2019-01-04T10:55:18.000Z</Time>
            <Position>
              <LatitudeDegrees>36.5048219449818134307861328125</LatitudeDegrees>
              <LongitudeDegrees>-5.40362463332712650299072265625</LongitudeDegrees>
            </Position>
            <AltitudeMeters>193.1999969482421875</AltitudeMeters>
            <DistanceMeters>6948.390135399</DistanceMeters>
          </Trackpoint>
          <Trackpoint>
            <Time>2019-01-04T10:55:19.000Z</Time>
            <Position>
              <LatitudeDegrees>36.5048095397651195526123046875</LatitudeDegrees>
              <LongitudeDegrees>-5.403622202575206756591796875</LongitudeDegrees>
            </Position>
            <AltitudeMeters>193.1999969482421875</AltitudeMeters>
            <DistanceMeters>6949.7867371719</DistanceMeters>
          </Trackpoint>
          <Trackpoint>
            <Time>2019-01-04T10:55:20.000Z</Time>
            <Position>
              <LatitudeDegrees>36.50479696691036224365234375</LatitudeDegrees>
              <LongitudeDegrees>-5.4036166705191135406494140625</LongitudeDegrees>
            </Position>
            <AltitudeMeters>193.399993896484375</AltitudeMeters>
            <DistanceMeters>6951.2680570482</DistanceMeters>
          </Trackpoint>
          <Trackpoint>
            <Time>2019-01-04T10:55:21.000Z</Time>
            <Position>
              <LatitudeDegrees>36.504782550036907196044921875</LatitudeDegrees>
              <LongitudeDegrees>-5.40361340157687664031982421875</LongitudeDegrees>
            </Position>
            <AltitudeMeters>193.399993896484375</AltitudeMeters>
            <DistanceMeters>6952.9029584603</DistanceMeters>
          </Trackpoint>
          <Trackpoint>
            <Time>2019-01-04T10:55:22.000Z</Time>
            <Position>
              <LatitudeDegrees>36.5047681331634521484375</LatitudeDegrees>
              <LongitudeDegrees>-5.40360937826335430145263671875</LongitudeDegrees>
            </Position>
            <AltitudeMeters>193.399993896484375</AltitudeMeters>
            <DistanceMeters>6954.548869434</DistanceMeters>
          </Trackpoint>
          <Trackpoint>
            <Time>2019-01-04T10:55:23.000Z</Time>
            <Position>
              <LatitudeDegrees>36.50475262664258480072021484375</LatitudeDegrees>
              <LongitudeDegrees>-5.4036082886159420013427734375</LongitudeDegrees>
            </Position>
            <AltitudeMeters>193.600006103515625</AltitudeMeters>
            <DistanceMeters>6956.280338573</DistanceMeters>
          </Trackpoint>
          <Trackpoint>
            <Time>2019-01-04T10:55:24.000Z</Time>
            <Position>
              <LatitudeDegrees>36.50473661720752716064453125</LatitudeDegrees>
              <LongitudeDegrees>-5.4036109708249568939208984375</LongitudeDegrees>
            </Position>
            <AltitudeMeters>193.600006103515625</AltitudeMeters>
            <DistanceMeters>6958.0783283858</DistanceMeters>
          </Trackpoint>
          <Trackpoint>
            <Time>2019-01-04T10:55:25.000Z</Time>
            <Position>
              <LatitudeDegrees>36.50472412817180156707763671875</LatitudeDegrees>
              <LongitudeDegrees>-5.40361390449106693267822265625</LongitudeDegrees>
            </Position>
            <AltitudeMeters>193.8000030517578125</AltitudeMeters>
            <DistanceMeters>6959.4910020544</DistanceMeters>
          </Trackpoint>
          <Trackpoint>
            <Time>2019-01-04T10:55:26.000Z</Time>
            <Position>
              <LatitudeDegrees>36.504710800945758819580078125</LatitudeDegrees>
              <LongitudeDegrees>-5.40361491031944751739501953125</LongitudeDegrees>
            </Position>
            <AltitudeMeters>193.8000030517578125</AltitudeMeters>
            <DistanceMeters>6960.9784054055</DistanceMeters>
          </Trackpoint>
          <Trackpoint>
            <Time>2019-01-04T10:55:27.000Z</Time>
            <Position>
              <LatitudeDegrees>36.50469294749200344085693359375</LatitudeDegrees>
              <LongitudeDegrees>-5.4036136530339717864990234375</LongitudeDegrees>
            </Position>
            <AltitudeMeters>193.8000030517578125</AltitudeMeters>
            <DistanceMeters>6962.9671672018</DistanceMeters>
          </Trackpoint>
          <Trackpoint>
            <Time>2019-01-04T10:55:28.000Z</Time>
            <Position>
              <LatitudeDegrees>36.50467786006629467010498046875</LatitudeDegrees>
              <LongitudeDegrees>-5.40361423976719379425048828125</LongitudeDegrees>
            </Position>
            <AltitudeMeters>193.8000030517578125</AltitudeMeters>
            <DistanceMeters>6964.6456736363</DistanceMeters>
          </Trackpoint>
          <Trackpoint>
            <Time>2019-01-04T10:55:29.000Z</Time>
            <Position>
              <LatitudeDegrees>36.50466193445026874542236328125</LatitudeDegrees>
              <LongitudeDegrees>-5.40361356921494007110595703125</LongitudeDegrees>
            </Position>
            <AltitudeMeters>193.600006103515625</AltitudeMeters>
            <DistanceMeters>6966.4183740065</DistanceMeters>
          </Trackpoint>
          <Trackpoint>
            <Time>2019-01-04T10:55:30.000Z</Time>
            <Position>
              <LatitudeDegrees>36.50464517064392566680908203125</LatitudeDegrees>
              <LongitudeDegrees>-5.40361407212913036346435546875</LongitudeDegrees>
            </Position>
            <AltitudeMeters>193.600006103515625</AltitudeMeters>
            <DistanceMeters>6968.2853527175</DistanceMeters>
          </Trackpoint>
          <Trackpoint>
            <Time>2019-01-04T10:55:31.000Z</Time>
            <Position>
              <LatitudeDegrees>36.504630334675312042236328125</LatitudeDegrees>
              <LongitudeDegrees>-5.40361071936786174774169921875</LongitudeDegrees>
            </Position>
            <AltitudeMeters>193.600006103515625</AltitudeMeters>
            <DistanceMeters>6969.9638591519</DistanceMeters>
          </Trackpoint>
          <Trackpoint>
            <Time>2019-01-04T10:55:32.000Z</Time>
            <Position>
              <LatitudeDegrees>36.504618935286998748779296875</LatitudeDegrees>
              <LongitudeDegrees>-5.4036076180636882781982421875</LongitudeDegrees>
            </Position>
            <AltitudeMeters>193.399993896484375</AltitudeMeters>
            <DistanceMeters>6971.2598507486</DistanceMeters>
          </Trackpoint>
          <Trackpoint>
            <Time>2019-01-04T10:55:33.000Z</Time>
            <Position>
              <LatitudeDegrees>36.5046063624322414398193359375</LatitudeDegrees>
              <LongitudeDegrees>-5.40360636077821254730224609375</LongitudeDegrees>
            </Position>
            <AltitudeMeters>193.399993896484375</AltitudeMeters>
            <DistanceMeters>6972.6629033723</DistanceMeters>
          </Trackpoint>
          <Trackpoint>
            <Time>2019-01-04T10:55:34.000Z</Time>
            <Position>
              <LatitudeDegrees>36.50459353812038898468017578125</LatitudeDegrees>
              <LongitudeDegrees>-5.40360351093113422393798828125</LongitudeDegrees>
            </Position>
            <AltitudeMeters>193.1999969482421875</AltitudeMeters>
            <DistanceMeters>6974.1103071635</DistanceMeters>
          </Trackpoint>
          <Trackpoint>
            <Time>2019-01-04T10:55:35.000Z</Time>
            <Position>
              <LatitudeDegrees>36.5045781992375850677490234375</LatitudeDegrees>
              <LongitudeDegrees>-5.4035989008843898773193359375</LongitudeDegrees>
            </Position>
            <AltitudeMeters>193.1999969482421875</AltitudeMeters>
            <DistanceMeters>6975.8676591897</DistanceMeters>
          </Trackpoint>
          <Trackpoint>
            <Time>2019-01-04T10:55:36.000Z</Time>
            <Position>
              <LatitudeDegrees>36.5045637823641300201416015625</LatitudeDegrees>
              <LongitudeDegrees>-5.40359714068472385406494140625</LongitudeDegrees>
            </Position>
            <AltitudeMeters>193.1999969482421875</AltitudeMeters>
            <DistanceMeters>6977.4803160087</DistanceMeters>
          </Trackpoint>
          <Trackpoint>
            <Time>2019-01-04T10:55:37.000Z</Time>
            <Position>
              <LatitudeDegrees>36.504549868404865264892578125</LatitudeDegrees>
              <LongitudeDegrees>-5.4035972245037555694580078125</LongitudeDegrees>
            </Position>
            <AltitudeMeters>193.1999969482421875</AltitudeMeters>
            <DistanceMeters>6979.0301548177</DistanceMeters>
          </Trackpoint>
          <Trackpoint>
            <Time>2019-01-04T10:55:38.000Z</Time>
            <Position>
              <LatitudeDegrees>36.50453771464526653289794921875</LatitudeDegrees>
              <LongitudeDegrees>-5.4035957157611846923828125</LongitudeDegrees>
            </Position>
            <AltitudeMeters>193.1999969482421875</AltitudeMeters>
            <DistanceMeters>6980.3874077767</DistanceMeters>
          </Trackpoint>
          <Trackpoint>
            <Time>2019-01-04T10:55:39.000Z</Time>
            <Position>
              <LatitudeDegrees>36.50452698580920696258544921875</LatitudeDegrees>
              <LongitudeDegrees>-5.40359395556151866912841796875</LongitudeDegrees>
            </Position>
            <AltitudeMeters>193.399993896484375</AltitudeMeters>
            <DistanceMeters>6981.5894112006</DistanceMeters>
          </Trackpoint>
          <Trackpoint>
            <Time>2019-01-04T10:55:40.000Z</Time>
            <Position>
              <LatitudeDegrees>36.5045141614973545074462890625</LatitudeDegrees>
              <LongitudeDegrees>-5.4035955481231212615966796875</LongitudeDegrees>
            </Position>
            <AltitudeMeters>193.399993896484375</AltitudeMeters>
            <DistanceMeters>6983.0211330146</DistanceMeters>
          </Trackpoint>
          <Trackpoint>
            <Time>2019-01-04T10:55:41.000Z</Time>
            <Position>
              <LatitudeDegrees>36.5045014210045337677001953125</LatitudeDegrees>
              <LongitudeDegrees>-5.40359462611377239227294921875</LongitudeDegrees>
            </Position>
            <AltitudeMeters>193.399993896484375</AltitudeMeters>
            <DistanceMeters>6984.4369991702</DistanceMeters>
          </Trackpoint>
          <Trackpoint>
            <Time>2019-01-04T10:55:42.000Z</Time>
            <Position>
              <LatitudeDegrees>36.50448909960687160491943359375</LatitudeDegrees>
              <LongitudeDegrees>-5.40359060280025005340576171875</LongitudeDegrees>
            </Position>
            <AltitudeMeters>193.399993896484375</AltitudeMeters>
            <DistanceMeters>6985.8528653258</DistanceMeters>
          </Trackpoint>
          <Trackpoint>
            <Time>2019-01-04T10:55:43.000Z</Time>
            <Position>
              <LatitudeDegrees>36.5044756047427654266357421875</LatitudeDegrees>
              <LongitudeDegrees>-5.40358842350542545318603515625</LongitudeDegrees>
            </Position>
            <AltitudeMeters>193.399993896484375</AltitudeMeters>
            <DistanceMeters>6987.3673419406</DistanceMeters>
          </Trackpoint>
          <Trackpoint>
            <Time>2019-01-04T10:55:44.000Z</Time>
            <Position>
              <LatitudeDegrees>36.504459679126739501953125</LatitudeDegrees>
              <LongitudeDegrees>-5.4035930335521697998046875</LongitudeDegrees>
            </Position>
            <AltitudeMeters>193.399993896484375</AltitudeMeters>
            <DistanceMeters>6989.1853100312</DistanceMeters>
          </Trackpoint>
          <Trackpoint>
            <Time>2019-01-04T10:55:45.000Z</Time>
            <Position>
              <LatitudeDegrees>36.50444484315812587738037109375</LatitudeDegrees>
              <LongitudeDegrees>-5.40359370410442352294921875</LongitudeDegrees>
            </Position>
            <AltitudeMeters>193.399993896484375</AltitudeMeters>
            <DistanceMeters>6990.8421574107</DistanceMeters>
          </Trackpoint>
          <Trackpoint>
            <Time>2019-01-04T10:55:46.000Z</Time>
            <Position>
              <LatitudeDegrees>36.5044300071895122528076171875</LatitudeDegrees>
              <LongitudeDegrees>-5.403592027723789215087890625</LongitudeDegrees>
            </Position>
            <AltitudeMeters>193.399993896484375</AltitudeMeters>
            <DistanceMeters>6992.5044460114</DistanceMeters>
          </Trackpoint>
          <Trackpoint>
            <Time>2019-01-04T10:55:47.000Z</Time>
            <Position>
              <LatitudeDegrees>36.504413075745105743408203125</LatitudeDegrees>
              <LongitudeDegrees>-5.403588004410266876220703125</LongitudeDegrees>
            </Position>
            <AltitudeMeters>193.399993896484375</AltitudeMeters>
            <DistanceMeters>6994.4238915535</DistanceMeters>
          </Trackpoint>
          <Trackpoint>
            <Time>2019-01-04T10:55:48.000Z</Time>
            <Position>
              <LatitudeDegrees>36.50439731776714324951171875</LatitudeDegrees>
              <LongitudeDegrees>-5.4035814665257930755615234375</LongitudeDegrees>
            </Position>
            <AltitudeMeters>193.399993896484375</AltitudeMeters>
            <DistanceMeters>6996.2714220392</DistanceMeters>
          </Trackpoint>
          <Trackpoint>
            <Time>2019-01-04T10:55:49.000Z</Time>
            <Position>
              <LatitudeDegrees>36.50438122451305389404296875</LatitudeDegrees>
              <LongitudeDegrees>-5.4035742580890655517578125</LongitudeDegrees>
            </Position>
            <AltitudeMeters>193.1999969482421875</AltitudeMeters>
            <DistanceMeters>6998.1743305116</DistanceMeters>
          </Trackpoint>
          <Trackpoint>
            <Time>2019-01-04T10:55:50.000Z</Time>
            <Position>
              <LatitudeDegrees>36.5043649636209011077880859375</LatitudeDegrees>
              <LongitudeDegrees>-5.403569228947162628173828125</LongitudeDegrees>
            </Position>
            <AltitudeMeters>193.1999969482421875</AltitudeMeters>
            <DistanceMeters>7000.0364662087</DistanceMeters>
          </Trackpoint>
          <Trackpoint>
            <Time>2019-01-04T10:55:51.000Z</Time>
            <Position>
              <LatitudeDegrees>36.50434903800487518310546875</LatitudeDegrees>
              <LongitudeDegrees>-5.40356478653848171234130859375</LongitudeDegrees>
            </Position>
            <AltitudeMeters>193.1999969482421875</AltitudeMeters>
            <DistanceMeters>7001.8494603691</DistanceMeters>
          </Trackpoint>
          <Trackpoint>
            <Time>2019-01-04T10:55:52.000Z</Time>
            <Position>
              <LatitudeDegrees>36.50433202274143695831298828125</LatitudeDegrees>
              <LongitudeDegrees>-5.40356160141527652740478515625</LongitudeDegrees>
            </Position>
            <AltitudeMeters>193.1999969482421875</AltitudeMeters>
            <DistanceMeters>7003.7641956083</DistanceMeters>
          </Trackpoint>
          <Trackpoint>
            <Time>2019-01-04T10:55:53.000Z</Time>
            <Position>
              <LatitudeDegrees>36.504318527877330780029296875</LatitudeDegrees>
              <LongitudeDegrees>-5.40356143377721309661865234375</LongitudeDegrees>
            </Position>
            <AltitudeMeters>193.1999969482421875</AltitudeMeters>
            <DistanceMeters>7005.2666998881</DistanceMeters>
          </Trackpoint>
          <Trackpoint>
            <Time>2019-01-04T10:55:54.000Z</Time>
            <Position>
              <LatitudeDegrees>36.50430737994611263275146484375</LatitudeDegrees>
              <LongitudeDegrees>-5.403566546738147735595703125</LongitudeDegrees>
            </Position>
            <AltitudeMeters>193</AltitudeMeters>
            <DistanceMeters>7006.583428667</DistanceMeters>
          </Trackpoint>
          <Trackpoint>
            <Time>2019-01-04T10:55:55.000Z</Time>
            <Position>
              <LatitudeDegrees>36.504297070205211639404296875</LatitudeDegrees>
              <LongitudeDegrees>-5.403571240603923797607421875</LongitudeDegrees>
            </Position>
            <AltitudeMeters>193</AltitudeMeters>
            <DistanceMeters>7007.800364383</DistanceMeters>
          </Trackpoint>
          <Trackpoint>
            <Time>2019-01-04T10:55:56.000Z</Time>
            <Position>
              <LatitudeDegrees>36.5042861737310886383056640625</LatitudeDegrees>
              <LongitudeDegrees>-5.4035750962793827056884765625</LongitudeDegrees>
            </Position>
            <AltitudeMeters>193</AltitudeMeters>
            <DistanceMeters>7009.0610362095</DistanceMeters>
          </Trackpoint>
          <Trackpoint>
            <Time>2019-01-04T10:55:57.000Z</Time>
            <Position>
              <LatitudeDegrees>36.50427670218050479888916015625</LatitudeDegrees>
              <LongitudeDegrees>-5.40358087979257106781005859375</LongitudeDegrees>
            </Position>
            <AltitudeMeters>193.1999969482421875</AltitudeMeters>
            <DistanceMeters>7010.2326042269</DistanceMeters>
          </Trackpoint>
          <Trackpoint>
            <Time>2019-01-04T10:55:58.000Z</Time>
            <Position>
              <LatitudeDegrees>36.504268236458301544189453125</LatitudeDegrees>
              <LongitudeDegrees>-5.403587333858013153076171875</LongitudeDegrees>
            </Position>
            <AltitudeMeters>193.1999969482421875</AltitudeMeters>
            <DistanceMeters>7011.3326179739</DistanceMeters>
          </Trackpoint>
          <Trackpoint>
            <Time>2019-01-04T10:55:59.000Z</Time>
            <Position>
              <LatitudeDegrees>36.50426010601222515106201171875</LatitudeDegrees>
              <LongitudeDegrees>-5.4035885073244571685791015625</LongitudeDegrees>
            </Position>
            <AltitudeMeters>193.1999969482421875</AltitudeMeters>
            <DistanceMeters>7012.2440821986</DistanceMeters>
          </Trackpoint>
          <Trackpoint>
            <Time>2019-01-04T10:56:00.000Z</Time>
            <Position>
              <LatitudeDegrees>36.5042499639093875885009765625</LatitudeDegrees>
              <LongitudeDegrees>-5.403588004410266876220703125</LongitudeDegrees>
            </Position>
            <AltitudeMeters>193.1999969482421875</AltitudeMeters>
            <DistanceMeters>7013.3764561894</DistanceMeters>
          </Trackpoint>
          <Trackpoint>
            <Time>2019-01-04T10:56:01.000Z</Time>
            <Position>
              <LatitudeDegrees>36.50424216873943805694580078125</LatitudeDegrees>
              <LongitudeDegrees>-5.40358968079090118408203125</LongitudeDegrees>
            </Position>
            <AltitudeMeters>193.1999969482421875</AltitudeMeters>
            <DistanceMeters>7014.2576976853</DistanceMeters>
          </Trackpoint>
          <Trackpoint>
            <Time>2019-01-04T10:56:02.000Z</Time>
            <Position>
              <LatitudeDegrees>36.504234373569488525390625</LatitudeDegrees>
              <LongitudeDegrees>-5.40359378792345523834228515625</LongitudeDegrees>
            </Position>
            <AltitudeMeters>193.1999969482421875</AltitudeMeters>
            <DistanceMeters>7015.1984141631</DistanceMeters>
          </Trackpoint>
          <Trackpoint>
            <Time>2019-01-04T10:56:03.000Z</Time>
            <Position>
              <LatitudeDegrees>36.5042254887521266937255859375</LatitudeDegrees>
              <LongitudeDegrees>-5.40359747596085071563720703125</LongitudeDegrees>
            </Position>
            <AltitudeMeters>193.1999969482421875</AltitudeMeters>
            <DistanceMeters>7016.2393796636</DistanceMeters>
          </Trackpoint>
          <Trackpoint>
            <Time>2019-01-04T10:56:04.000Z</Time>
            <Position>
              <LatitudeDegrees>36.50421551428735256195068359375</LatitudeDegrees>
              <LongitudeDegrees>-5.403601415455341339111328125</LongitudeDegrees>
            </Position>
            <AltitudeMeters>193</AltitudeMeters>
            <DistanceMeters>7017.4032144743</DistanceMeters>
          </Trackpoint>
          <Trackpoint>
            <Time>2019-01-04T10:56:05.000Z</Time>
            <Position>
              <LatitudeDegrees>36.5042063780128955841064453125</LatitudeDegrees>
              <LongitudeDegrees>-5.40360569022595882415771484375</LongitudeDegrees>
            </Position>
            <AltitudeMeters>193</AltitudeMeters>
            <DistanceMeters>7018.4908449327</DistanceMeters>
          </Trackpoint>
          <Trackpoint>
            <Time>2019-01-04T10:56:06.000Z</Time>
            <Position>
              <LatitudeDegrees>36.5041966550052165985107421875</LatitudeDegrees>
              <LongitudeDegrees>-5.403613150119781494140625</LongitudeDegrees>
            </Position>
            <AltitudeMeters>192.8000030517578125</AltitudeMeters>
            <DistanceMeters>7019.758659433</DistanceMeters>
          </Trackpoint>
          <Trackpoint>
            <Time>2019-01-04T10:56:07.000Z</Time>
            <Position>
              <LatitudeDegrees>36.50418542325496673583984375</LatitudeDegrees>
              <LongitudeDegrees>-5.40362211875617504119873046875</LongitudeDegrees>
            </Position>
            <AltitudeMeters>192.8000030517578125</AltitudeMeters>
            <DistanceMeters>7021.2430241632</DistanceMeters>
          </Trackpoint>
          <Trackpoint>
            <Time>2019-01-04T10:56:08.000Z</Time>
            <Position>
              <LatitudeDegrees>36.5041701681911945343017578125</LatitudeDegrees>
              <LongitudeDegrees>-5.4036294110119342803955078125</LongitudeDegrees>
            </Position>
            <AltitudeMeters>193</AltitudeMeters>
            <DistanceMeters>7023.0609922538</DistanceMeters>
          </Trackpoint>
          <Trackpoint>
            <Time>2019-01-04T10:56:09.000Z</Time>
            <Position>
              <LatitudeDegrees>36.50415323674678802490234375</LatitudeDegrees>
              <LongitudeDegrees>-5.40363854728639125823974609375</LongitudeDegrees>
            </Position>
            <AltitudeMeters>193.1999969482421875</AltitudeMeters>
            <DistanceMeters>7025.1145369208</DistanceMeters>
          </Trackpoint>
          <Trackpoint>
            <Time>2019-01-04T10:56:10.000Z</Time>
            <Position>
              <LatitudeDegrees>36.50414250791072845458984375</LatitudeDegrees>
              <LongitudeDegrees>-5.40365095250308513641357421875</LongitudeDegrees>
            </Position>
            <AltitudeMeters>193.399993896484375</AltitudeMeters>
            <DistanceMeters>7026.7439056558</DistanceMeters>
          </Trackpoint>
          <Trackpoint>
            <Time>2019-01-04T10:56:11.000Z</Time>
            <Position>
              <LatitudeDegrees>36.50413286872208118438720703125</LatitudeDegrees>
              <LongitudeDegrees>-5.4036602564156055450439453125</LongitudeDegrees>
            </Position>
            <AltitudeMeters>193.399993896484375</AltitudeMeters>
            <DistanceMeters>7028.1044811484</DistanceMeters>
          </Trackpoint>
          <Trackpoint>
            <Time>2019-01-04T10:56:12.000Z</Time>
            <Position>
              <LatitudeDegrees>36.50412264280021190643310546875</LatitudeDegrees>
              <LongitudeDegrees>-5.40367173962295055389404296875</LongitudeDegrees>
            </Position>
            <AltitudeMeters>193.600006103515625</AltitudeMeters>
            <DistanceMeters>7029.6396847023</DistanceMeters>
          </Trackpoint>
          <Trackpoint>
            <Time>2019-01-04T10:56:13.000Z</Time>
            <Position>
              <LatitudeDegrees>36.504113338887691497802734375</LatitudeDegrees>
              <LongitudeDegrees>-5.4036833904683589935302734375</LongitudeDegrees>
            </Position>
            <AltitudeMeters>193.600006103515625</AltitudeMeters>
            <DistanceMeters>7031.1087620556</DistanceMeters>
          </Trackpoint>
          <Trackpoint>
            <Time>2019-01-04T10:56:14.000Z</Time>
            <Position>
              <LatitudeDegrees>36.5041029453277587890625</LatitudeDegrees>
              <LongitudeDegrees>-5.40369269438087940216064453125</LongitudeDegrees>
            </Position>
            <AltitudeMeters>193.600006103515625</AltitudeMeters>
            <DistanceMeters>7032.5373268166</DistanceMeters>
          </Trackpoint>
          <Trackpoint>
            <Time>2019-01-04T10:56:15.000Z</Time>
            <Position>
              <LatitudeDegrees>36.50409498251974582672119140625</LatitudeDegrees>
              <LongitudeDegrees>-5.4037051834166049957275390625</LongitudeDegrees>
            </Position>
            <AltitudeMeters>193.600006103515625</AltitudeMeters>
            <DistanceMeters>7033.9658915776</DistanceMeters>
          </Trackpoint>
          <Trackpoint>
            <Time>2019-01-04T10:56:16.000Z</Time>
            <Position>
              <LatitudeDegrees>36.504084505140781402587890625</LatitudeDegrees>
              <LongitudeDegrees>-5.4037179239094257354736328125</LongitudeDegrees>
            </Position>
            <AltitudeMeters>193.600006103515625</AltitudeMeters>
            <DistanceMeters>7035.5980289955</DistanceMeters>
          </Trackpoint>
          <Trackpoint>
            <Time>2019-01-04T10:56:17.000Z</Time>
            <Position>
              <LatitudeDegrees>36.50407679378986358642578125</LatitudeDegrees>
              <LongitudeDegrees>-5.40372806601226329803466796875</LongitudeDegrees>
            </Position>
            <AltitudeMeters>193.600006103515625</AltitudeMeters>
            <DistanceMeters>7036.8442926708</DistanceMeters>
          </Trackpoint>
          <Trackpoint>
            <Time>2019-01-04T10:56:18.000Z</Time>
            <Position>
              <LatitudeDegrees>36.5040695853531360626220703125</LatitudeDegrees>
              <LongitudeDegrees>-5.4037403874099254608154296875</LongitudeDegrees>
            </Position>
            <AltitudeMeters>193.600006103515625</AltitudeMeters>
            <DistanceMeters>7038.2081826031</DistanceMeters>
          </Trackpoint>
          <Trackpoint>
            <Time>2019-01-04T10:56:19.000Z</Time>
            <Position>
              <LatitudeDegrees>36.504060365259647369384765625</LatitudeDegrees>
              <LongitudeDegrees>-5.40375195443630218505859375</LongitudeDegrees>
            </Position>
            <AltitudeMeters>193.600006103515625</AltitudeMeters>
            <DistanceMeters>7039.6680106891</DistanceMeters>
          </Trackpoint>
          <Trackpoint>
            <Time>2019-01-04T10:56:20.000Z</Time>
            <Position>
              <LatitudeDegrees>36.50405458174645900726318359375</LatitudeDegrees>
              <LongitudeDegrees>-5.40376762859523296356201171875</LongitudeDegrees>
            </Position>
            <AltitudeMeters>193.600006103515625</AltitudeMeters>
            <DistanceMeters>7041.2120120431</DistanceMeters>
          </Trackpoint>
          <Trackpoint>
            <Time>2019-01-04T10:56:21.000Z</Time>
            <Position>
              <LatitudeDegrees>36.50405039079487323760986328125</LatitudeDegrees>
              <LongitudeDegrees>-5.4037826322019100189208984375</LongitudeDegrees>
            </Position>
            <AltitudeMeters>193.600006103515625</AltitudeMeters>
            <DistanceMeters>7042.6342416742</DistanceMeters>
          </Trackpoint>
          <Trackpoint>
            <Time>2019-01-04T10:56:22.000Z</Time>
            <Position>
              <LatitudeDegrees>36.50404854677617549896240234375</LatitudeDegrees>
              <LongitudeDegrees>-5.40379780344665050506591796875</LongitudeDegrees>
            </Position>
            <AltitudeMeters>193.8000030517578125</AltitudeMeters>
            <DistanceMeters>7044.004736439</DistanceMeters>
          </Trackpoint>
          <Trackpoint>
            <Time>2019-01-04T10:56:23.000Z</Time>
            <Position>
              <LatitudeDegrees>36.504046954214572906494140625</LatitudeDegrees>
              <LongitudeDegrees>-5.40381037630140781402587890625</LongitudeDegrees>
            </Position>
            <AltitudeMeters>193.600006103515625</AltitudeMeters>
            <DistanceMeters>7045.1450570114</DistanceMeters>
          </Trackpoint>
          <Trackpoint>
            <Time>2019-01-04T10:56:24.000Z</Time>
            <Position>
              <LatitudeDegrees>36.50404636748135089874267578125</LatitudeDegrees>
              <LongitudeDegrees>-5.403824038803577423095703125</LongitudeDegrees>
            </Position>
            <AltitudeMeters>193.600006103515625</AltitudeMeters>
            <DistanceMeters>7046.3693905811</DistanceMeters>
          </Trackpoint>
          <Trackpoint>
            <Time>2019-01-04T10:56:25.000Z</Time>
            <Position>
              <LatitudeDegrees>36.5040447749197483062744140625</LatitudeDegrees>
              <LongitudeDegrees>-5.403840802609920501708984375</LongitudeDegrees>
            </Position>
            <AltitudeMeters>193.399993896484375</AltitudeMeters>
            <DistanceMeters>7047.8808830026</DistanceMeters>
          </Trackpoint>
          <Trackpoint>
            <Time>2019-01-04T10:56:26.000Z</Time>
            <Position>
              <LatitudeDegrees>36.5040404163300991058349609375</LatitudeDegrees>
              <LongitudeDegrees>-5.403857566416263580322265625</LongitudeDegrees>
            </Position>
            <AltitudeMeters>193.399993896484375</AltitudeMeters>
            <DistanceMeters>7049.459585349</DistanceMeters>
          </Trackpoint>
          <Trackpoint>
            <Time>2019-01-04T10:56:27.000Z</Time>
            <Position>
              <LatitudeDegrees>36.504033543169498443603515625</LatitudeDegrees>
              <LongitudeDegrees>-5.40387039072811603546142578125</LongitudeDegrees>
            </Position>
            <AltitudeMeters>193.399993896484375</AltitudeMeters>
            <DistanceMeters>7050.839928107</DistanceMeters>
          </Trackpoint>
          <Trackpoint>
            <Time>2019-01-04T10:56:28.000Z</Time>
            <Position>
              <LatitudeDegrees>36.5040253289043903350830078125</LatitudeDegrees>
              <LongitudeDegrees>-5.40387793444097042083740234375</LongitudeDegrees>
            </Position>
            <AltitudeMeters>193.1999969482421875</AltitudeMeters>
            <DistanceMeters>7051.976282335</DistanceMeters>
          </Trackpoint>
          <Trackpoint>
            <Time>2019-01-04T10:56:29.000Z</Time>
            <Position>
              <LatitudeDegrees>36.50401837192475795745849609375</LatitudeDegrees>
              <LongitudeDegrees>-5.4038842208683490753173828125</LongitudeDegrees>
            </Position>
            <AltitudeMeters>193.1999969482421875</AltitudeMeters>
            <DistanceMeters>7052.9360051061</DistanceMeters>
          </Trackpoint>
          <Trackpoint>
            <Time>2019-01-04T10:56:30.000Z</Time>
            <Position>
              <LatitudeDegrees>36.5040102414786815643310546875</LatitudeDegrees>
              <LongitudeDegrees>-5.40388547815382480621337890625</LongitudeDegrees>
            </Position>
            <AltitudeMeters>193</AltitudeMeters>
            <DistanceMeters>7053.8474693307</DistanceMeters>
          </Trackpoint>
          <Trackpoint>
            <Time>2019-01-04T10:56:31.000Z</Time>
            <Position>
              <LatitudeDegrees>36.50400144048035144805908203125</LatitudeDegrees>
              <LongitudeDegrees>-5.40388380177319049835205078125</LongitudeDegrees>
            </Position>
            <AltitudeMeters>193.1999969482421875</AltitudeMeters>
            <DistanceMeters>7054.8395773553</DistanceMeters>
          </Trackpoint>
          <Trackpoint>
            <Time>2019-01-04T10:56:32.000Z</Time>
            <Position>
              <LatitudeDegrees>36.50399238802492618560791015625</LatitudeDegrees>
              <LongitudeDegrees>-5.40387910790741443634033203125</LongitudeDegrees>
            </Position>
            <AltitudeMeters>193</AltitudeMeters>
            <DistanceMeters>7055.9272078137</DistanceMeters>
          </Trackpoint>
          <Trackpoint>
            <Time>2019-01-04T10:56:33.000Z</Time>
            <Position>
              <LatitudeDegrees>36.50398283265531063079833984375</LatitudeDegrees>
              <LongitudeDegrees>-5.40387391112744808197021484375</LongitudeDegrees>
            </Position>
            <AltitudeMeters>193.1999969482421875</AltitudeMeters>
            <DistanceMeters>7057.0910426244</DistanceMeters>
          </Trackpoint>
          <Trackpoint>
            <Time>2019-01-04T10:56:34.000Z</Time>
            <Position>
              <LatitudeDegrees>36.50397042743861675262451171875</LatitudeDegrees>
              <LongitudeDegrees>-5.40386871434748172760009765625</LongitudeDegrees>
            </Position>
            <AltitudeMeters>193.1999969482421875</AltitudeMeters>
            <DistanceMeters>7058.5446718371</DistanceMeters>
          </Trackpoint>
          <Trackpoint>
            <Time>2019-01-04T10:56:35.000Z</Time>
            <Position>
              <LatitudeDegrees>36.5039576031267642974853515625</LatitudeDegrees>
              <LongitudeDegrees>-5.40386536158621311187744140625</LongitudeDegrees>
            </Position>
            <AltitudeMeters>193.1999969482421875</AltitudeMeters>
            <DistanceMeters>7060.0044999231</DistanceMeters>
          </Trackpoint>
          <Trackpoint>
            <Time>2019-01-04T10:56:36.000Z</Time>
            <Position>
              <LatitudeDegrees>36.50394410826265811920166015625</LatitudeDegrees>
              <LongitudeDegrees>-5.4038620926439762115478515625</LongitudeDegrees>
            </Position>
            <AltitudeMeters>193.399993896484375</AltitudeMeters>
            <DistanceMeters>7061.5367596516</DistanceMeters>
          </Trackpoint>
          <Trackpoint>
            <Time>2019-01-04T10:56:37.000Z</Time>
            <Position>
              <LatitudeDegrees>36.503933966159820556640625</LatitudeDegrees>
              <LongitudeDegrees>-5.40386016480624675750732421875</LongitudeDegrees>
            </Position>
            <AltitudeMeters>193.399993896484375</AltitudeMeters>
            <DistanceMeters>7062.677080224</DistanceMeters>
          </Trackpoint>
          <Trackpoint>
            <Time>2019-01-04T10:56:38.000Z</Time>
            <Position>
              <LatitudeDegrees>36.50392130948603153228759765625</LatitudeDegrees>
              <LongitudeDegrees>-5.40386167354881763458251953125</LongitudeDegrees>
            </Position>
            <AltitudeMeters>193.600006103515625</AltitudeMeters>
            <DistanceMeters>7064.0929463796</DistanceMeters>
          </Trackpoint>
          <Trackpoint>
            <Time>2019-01-04T10:56:39.000Z</Time>
            <Position>
              <LatitudeDegrees>36.50390840135514736175537109375</LatitudeDegrees>
              <LongitudeDegrees>-5.40386284701526165008544921875</LongitudeDegrees>
            </Position>
            <AltitudeMeters>193.600006103515625</AltitudeMeters>
            <DistanceMeters>7065.5340978575</DistanceMeters>
          </Trackpoint>
          <Trackpoint>
            <Time>2019-01-04T10:56:40.000Z</Time>
            <Position>
              <LatitudeDegrees>36.503897421061992645263671875</LatitudeDegrees>
              <LongitudeDegrees>-5.40386653505265712738037109375</LongitudeDegrees>
            </Position>
            <AltitudeMeters>193.600006103515625</AltitudeMeters>
            <DistanceMeters>7066.8019123577</DistanceMeters>
          </Trackpoint>
          <Trackpoint>
            <Time>2019-01-04T10:56:41.000Z</Time>
            <Position>
              <LatitudeDegrees>36.50388593785464763641357421875</LatitudeDegrees>
              <LongitudeDegrees>-5.4038671217858791351318359375</LongitudeDegrees>
            </Position>
            <AltitudeMeters>193.600006103515625</AltitudeMeters>
            <DistanceMeters>7068.0803660473</DistanceMeters>
          </Trackpoint>
          <Trackpoint>
            <Time>2019-01-04T10:56:42.000Z</Time>
            <Position>
              <LatitudeDegrees>36.503874622285366058349609375</LatitudeDegrees>
              <LongitudeDegrees>-5.40386754088103771209716796875</LongitudeDegrees>
            </Position>
            <AltitudeMeters>193.600006103515625</AltitudeMeters>
            <DistanceMeters>7069.3374513179</DistanceMeters>
          </Trackpoint>
          <Trackpoint>
            <Time>2019-01-04T10:56:43.000Z</Time>
            <Position>
              <LatitudeDegrees>36.50385911576449871063232421875</LatitudeDegrees>
              <LongitudeDegrees>-5.40386259555816650390625</LongitudeDegrees>
            </Position>
            <AltitudeMeters>193.600006103515625</AltitudeMeters>
            <DistanceMeters>7071.1203105127</DistanceMeters>
          </Trackpoint>
          <Trackpoint>
            <Time>2019-01-04T10:56:44.000Z</Time>
            <Position>
              <LatitudeDegrees>36.50384637527167797088623046875</LatitudeDegrees>
              <LongitudeDegrees>-5.4038612544536590576171875</LongitudeDegrees>
            </Position>
            <AltitudeMeters>193.600006103515625</AltitudeMeters>
            <DistanceMeters>7072.5425401437</DistanceMeters>
          </Trackpoint>
          <Trackpoint>
            <Time>2019-01-04T10:56:45.000Z</Time>
            <Position>
              <LatitudeDegrees>36.5038335509598255157470703125</LatitudeDegrees>
              <LongitudeDegrees>-5.4038600809872150421142578125</LongitudeDegrees>
            </Position>
            <AltitudeMeters>193.600006103515625</AltitudeMeters>
            <DistanceMeters>7073.9711049047</DistanceMeters>
          </Trackpoint>
          <Trackpoint>
            <Time>2019-01-04T10:56:46.000Z</Time>
            <Position>
              <LatitudeDegrees>36.50382198393344879150390625</LatitudeDegrees>
              <LongitudeDegrees>-5.4038617573678493499755859375</LongitudeDegrees>
            </Position>
            <AltitudeMeters>193.600006103515625</AltitudeMeters>
            <DistanceMeters>7075.2670965014</DistanceMeters>
          </Trackpoint>
          <Trackpoint>
            <Time>2019-01-04T10:56:47.000Z</Time>
            <Position>
              <LatitudeDegrees>36.50380589067935943603515625</LatitudeDegrees>
              <LongitudeDegrees>-5.40386167354881763458251953125</LongitudeDegrees>
            </Position>
            <AltitudeMeters>193.399993896484375</AltitudeMeters>
            <DistanceMeters>7077.0600569622</DistanceMeters>
          </Trackpoint>
          <Trackpoint>
            <Time>2019-01-04T10:56:48.000Z</Time>
            <Position>
              <LatitudeDegrees>36.50379222817718982696533203125</LatitudeDegrees>
              <LongitudeDegrees>-5.40385865606367588043212890625</LongitudeDegrees>
            </Position>
            <AltitudeMeters>193.399993896484375</AltitudeMeters>
            <DistanceMeters>7078.6040583162</DistanceMeters>
          </Trackpoint>
          <Trackpoint>
            <Time>2019-01-04T10:56:49.000Z</Time>
            <Position>
              <LatitudeDegrees>36.50378082878887653350830078125</LatitudeDegrees>
              <LongitudeDegrees>-5.4038594104349613189697265625</LongitudeDegrees>
            </Position>
            <AltitudeMeters>193.399993896484375</AltitudeMeters>
            <DistanceMeters>7079.8718728164</DistanceMeters>
          </Trackpoint>
          <Trackpoint>
            <Time>2019-01-04T10:56:50.000Z</Time>
            <Position>
              <LatitudeDegrees>36.5037701837718486785888671875</LatitudeDegrees>
              <LongitudeDegrees>-5.4038590751588344573974609375</LongitudeDegrees>
            </Position>
            <AltitudeMeters>193.600006103515625</AltitudeMeters>
            <DistanceMeters>7081.0549458695</DistanceMeters>
          </Trackpoint>
          <Trackpoint>
            <Time>2019-01-04T10:56:51.000Z</Time>
            <Position>
              <LatitudeDegrees>36.50376297533512115478515625</LatitudeDegrees>
              <LongitudeDegrees>-5.4038590751588344573974609375</LongitudeDegrees>
            </Position>
            <AltitudeMeters>193.399993896484375</AltitudeMeters>
            <DistanceMeters>7081.8556551972</DistanceMeters>
          </Trackpoint>
          <Trackpoint>
            <Time>2019-01-04T10:56:52.000Z</Time>
            <Position>
              <LatitudeDegrees>36.50375819765031337738037109375</LatitudeDegrees>
              <LongitudeDegrees>-5.403854548931121826171875</LongitudeDegrees>
            </Position>
            <AltitudeMeters>193.600006103515625</AltitudeMeters>
            <DistanceMeters>7082.5208421978</DistanceMeters>
          </Trackpoint>
          <Trackpoint>
            <Time>2019-01-04T10:56:53.000Z</Time>
            <Position>
              <LatitudeDegrees>36.5037510730326175689697265625</LatitudeDegrees>
              <LongitudeDegrees>-5.40384960360825061798095703125</LongitudeDegrees>
            </Position>
            <AltitudeMeters>193.600006103515625</AltitudeMeters>
            <DistanceMeters>7083.427339278</DistanceMeters>
          </Trackpoint>
          <Trackpoint>
            <Time>2019-01-04T10:56:54.000Z</Time>
            <Position>
              <LatitudeDegrees>36.50374679826200008392333984375</LatitudeDegrees>
              <LongitudeDegrees>-5.4038465023040771484375</LongitudeDegrees>
            </Position>
            <AltitudeMeters>193.600006103515625</AltitudeMeters>
            <DistanceMeters>7083.9732261918</DistanceMeters>
          </Trackpoint>
          <Trackpoint>
            <Time>2019-01-04T10:56:55.000Z</Time>
            <Position>
              <LatitudeDegrees>36.50374193675816059112548828125</LatitudeDegrees>
              <LongitudeDegrees>-5.40384122170507907867431640625</LongitudeDegrees>
            </Position>
            <AltitudeMeters>193.600006103515625</AltitudeMeters>
            <DistanceMeters>7084.6843410073</DistanceMeters>
          </Trackpoint>
          <Trackpoint>
            <Time>2019-01-04T10:56:56.000Z</Time>
            <Position>
              <LatitudeDegrees>36.503736488521099090576171875</LatitudeDegrees>
              <LongitudeDegrees>-5.40383166633546352386474609375</LongitudeDegrees>
            </Position>
            <AltitudeMeters>193.600006103515625</AltitudeMeters>
            <DistanceMeters>7085.7253065078</DistanceMeters>
          </Trackpoint>
          <Trackpoint>
            <Time>2019-01-04T10:56:57.000Z</Time>
            <Position>
              <LatitudeDegrees>36.50372810661792755126953125</LatitudeDegrees>
              <LongitudeDegrees>-5.40382076986134052276611328125</LongitudeDegrees>
            </Position>
            <AltitudeMeters>193.600006103515625</AltitudeMeters>
            <DistanceMeters>7087.0691871903</DistanceMeters>
          </Trackpoint>
          <Trackpoint>
            <Time>2019-01-04T10:56:58.000Z</Time>
            <Position>
              <LatitudeDegrees>36.5037219040095806121826171875</LatitudeDegrees>
              <LongitudeDegrees>-5.40380828082561492919921875</LongitudeDegrees>
            </Position>
            <AltitudeMeters>193.8000030517578125</AltitudeMeters>
            <DistanceMeters>7088.3790400539</DistanceMeters>
          </Trackpoint>
          <Trackpoint>
            <Time>2019-01-04T10:56:59.000Z</Time>
            <Position>
              <LatitudeDegrees>36.5037158690392971038818359375</LatitudeDegrees>
              <LongitudeDegrees>-5.40379327721893787384033203125</LongitudeDegrees>
            </Position>
            <AltitudeMeters>193.8000030517578125</AltitudeMeters>
            <DistanceMeters>7089.8815443338</DistanceMeters>
          </Trackpoint>
          <Trackpoint>
            <Time>2019-01-04T10:57:00.000Z</Time>
            <Position>
              <LatitudeDegrees>36.50370589457452297210693359375</LatitudeDegrees>
              <LongitudeDegrees>-5.4037809558212757110595703125</LongitudeDegrees>
            </Position>
            <AltitudeMeters>194</AltitudeMeters>
            <DistanceMeters>7091.4429925846</DistanceMeters>
          </Trackpoint>
          <Trackpoint>
            <Time>2019-01-04T10:57:01.000Z</Time>
            <Position>
              <LatitudeDegrees>36.50369617156684398651123046875</LatitudeDegrees>
              <LongitudeDegrees>-5.40376804769039154052734375</LongitudeDegrees>
            </Position>
            <AltitudeMeters>194.1999969482421875</AltitudeMeters>
            <DistanceMeters>7093.0274045422</DistanceMeters>
          </Trackpoint>
          <Trackpoint>
            <Time>2019-01-04T10:57:02.000Z</Time>
            <Position>
              <LatitudeDegrees>36.50368477217853069305419921875</LatitudeDegrees>
              <LongitudeDegrees>-5.40375220589339733123779296875</LongitudeDegrees>
            </Position>
            <AltitudeMeters>194.1999969482421875</AltitudeMeters>
            <DistanceMeters>7094.9279388296</DistanceMeters>
          </Trackpoint>
          <Trackpoint>
            <Time>2019-01-04T10:57:03.000Z</Time>
            <Position>
              <LatitudeDegrees>36.5036737918853759765625</LatitudeDegrees>
              <LongitudeDegrees>-5.40373527444899082183837890625</LongitudeDegrees>
            </Position>
            <AltitudeMeters>194.1999969482421875</AltitudeMeters>
            <DistanceMeters>7096.8730871607</DistanceMeters>
          </Trackpoint>
          <Trackpoint>
            <Time>2019-01-04T10:57:04.000Z</Time>
            <Position>
              <LatitudeDegrees>36.503664068877696990966796875</LatitudeDegrees>
              <LongitudeDegrees>-5.40371733717620372772216796875</LongitudeDegrees>
            </Position>
            <AltitudeMeters>194.1999969482421875</AltitudeMeters>
            <DistanceMeters>7098.8112594442</DistanceMeters>
          </Trackpoint>
          <Trackpoint>
            <Time>2019-01-04T10:57:05.000Z</Time>
            <Position>
              <LatitudeDegrees>36.50365107692778110504150390625</LatitudeDegrees>
              <LongitudeDegrees>-5.403702668845653533935546875</LongitudeDegrees>
            </Position>
            <AltitudeMeters>194</AltitudeMeters>
            <DistanceMeters>7100.7633588934</DistanceMeters>
          </Trackpoint>
          <Trackpoint>
            <Time>2019-01-04T10:57:06.000Z</Time>
            <Position>
              <LatitudeDegrees>36.50364168919622898101806640625</LatitudeDegrees>
              <LongitudeDegrees>-5.40368481539189815521240234375</LongitudeDegrees>
            </Position>
            <AltitudeMeters>193.8000030517578125</AltitudeMeters>
            <DistanceMeters>7102.6686385921</DistanceMeters>
          </Trackpoint>
          <Trackpoint>
            <Time>2019-01-04T10:57:07.000Z</Time>
            <Position>
              <LatitudeDegrees>36.5036337263882160186767578125</LatitudeDegrees>
              <LongitudeDegrees>-5.40366620756685733795166015625</LongitudeDegrees>
            </Position>
            <AltitudeMeters>193.600006103515625</AltitudeMeters>
            <DistanceMeters>7104.5548650152</DistanceMeters>
          </Trackpoint>
          <Trackpoint>
            <Time>2019-01-04T10:57:08.000Z</Time>
            <Position>
              <LatitudeDegrees>36.50362475775182247161865234375</LatitudeDegrees>
              <LongitudeDegrees>-5.4036488570272922515869140625</LongitudeDegrees>
            </Position>
            <AltitudeMeters>193.399993896484375</AltitudeMeters>
            <DistanceMeters>7106.4023955009</DistanceMeters>
          </Trackpoint>
          <Trackpoint>
            <Time>2019-01-04T10:57:09.000Z</Time>
            <Position>
              <LatitudeDegrees>36.5036126039922237396240234375</LatitudeDegrees>
              <LongitudeDegrees>-5.40363125503063201904296875</LongitudeDegrees>
            </Position>
            <AltitudeMeters>193.399993896484375</AltitudeMeters>
            <DistanceMeters>7108.4799846182</DistanceMeters>
          </Trackpoint>
          <Trackpoint>
            <Time>2019-01-04T10:57:10.000Z</Time>
            <Position>
              <LatitudeDegrees>36.50360028259456157684326171875</LatitudeDegrees>
              <LongitudeDegrees>-5.40361524559557437896728515625</LongitudeDegrees>
            </Position>
            <AltitudeMeters>193.399993896484375</AltitudeMeters>
            <DistanceMeters>7110.4619238839</DistanceMeters>
          </Trackpoint>
          <Trackpoint>
            <Time>2019-01-04T10:57:11.000Z</Time>
            <Position>
              <LatitudeDegrees>36.503584273159503936767578125</LatitudeDegrees>
              <LongitudeDegrees>-5.4036012478172779083251953125</LongitudeDegrees>
            </Position>
            <AltitudeMeters>193.399993896484375</AltitudeMeters>
            <DistanceMeters>7112.6413321086</DistanceMeters>
          </Trackpoint>
          <Trackpoint>
            <Time>2019-01-04T10:57:12.000Z</Time>
            <Position>
              <LatitudeDegrees>36.50356977246701717376708984375</LatitudeDegrees>
              <LongitudeDegrees>-5.4035876691341400146484375</LongitudeDegrees>
            </Position>
            <AltitudeMeters>193.399993896484375</AltitudeMeters>
            <DistanceMeters>7114.6616277683</DistanceMeters>
          </Trackpoint>
          <Trackpoint>
            <Time>2019-01-04T10:57:13.000Z</Time>
            <Position>
              <LatitudeDegrees>36.503558792173862457275390625</LatitudeDegrees>
              <LongitudeDegrees>-5.40358037687838077545166015625</LongitudeDegrees>
            </Position>
            <AltitudeMeters>193.399993896484375</AltitudeMeters>
            <DistanceMeters>7116.0452376143</DistanceMeters>
          </Trackpoint>
          <Trackpoint>
            <Time>2019-01-04T10:57:14.000Z</Time>
            <Position>
              <LatitudeDegrees>36.50354697369039058685302734375</LatitudeDegrees>
              <LongitudeDegrees>-5.4035717435181140899658203125</LongitudeDegrees>
            </Position>
            <AltitudeMeters>193.399993896484375</AltitudeMeters>
            <DistanceMeters>7117.5715926591</DistanceMeters>
          </Trackpoint>
          <Trackpoint>
            <Time>2019-01-04T10:57:15.000Z</Time>
            <Position>
              <LatitudeDegrees>36.5035343170166015625</LatitudeDegrees>
              <LongitudeDegrees>-5.4035657085478305816650390625</LongitudeDegrees>
            </Position>
            <AltitudeMeters>193.600006103515625</AltitudeMeters>
            <DistanceMeters>7119.0800949838</DistanceMeters>
          </Trackpoint>
          <Trackpoint>
            <Time>2019-01-04T10:57:16.000Z</Time>
            <Position>
              <LatitudeDegrees>36.5035195648670196533203125</LatitudeDegrees>
              <LongitudeDegrees>-5.40356897749006748199462890625</LongitudeDegrees>
            </Position>
            <AltitudeMeters>193.600006103515625</AltitudeMeters>
            <DistanceMeters>7120.7532129407</DistanceMeters>
          </Trackpoint>
          <Trackpoint>
            <Time>2019-01-04T10:57:17.000Z</Time>
            <Position>
              <LatitudeDegrees>36.503502465784549713134765625</LatitudeDegrees>
              <LongitudeDegrees>-5.40358272381126880645751953125</LongitudeDegrees>
            </Position>
            <AltitudeMeters>193.600006103515625</AltitudeMeters>
            <DistanceMeters>7123.0179609223</DistanceMeters>
          </Trackpoint>
          <Trackpoint>
            <Time>2019-01-04T10:57:18.000Z</Time>
            <Position>
              <LatitudeDegrees>36.5034845285117626190185546875</LatitudeDegrees>
              <LongitudeDegrees>-5.4035965539515018463134765625</LongitudeDegrees>
            </Position>
            <AltitudeMeters>193.600006103515625</AltitudeMeters>
            <DistanceMeters>7125.3668706071</DistanceMeters>
          </Trackpoint>
          <Trackpoint>
            <Time>2019-01-04T10:57:19.000Z</Time>
            <Position>
              <LatitudeDegrees>36.5034680999815464019775390625</LatitudeDegrees>
              <LongitudeDegrees>-5.40360451675951480865478515625</LongitudeDegrees>
            </Position>
            <AltitudeMeters>193.399993896484375</AltitudeMeters>
            <DistanceMeters>7127.3281998923</DistanceMeters>
          </Trackpoint>
          <Trackpoint>
            <Time>2019-01-04T10:57:20.000Z</Time>
            <Position>
              <LatitudeDegrees>36.50345544330775737762451171875</LatitudeDegrees>
              <LongitudeDegrees>-5.40360954590141773223876953125</LongitudeDegrees>
            </Position>
            <AltitudeMeters>193.399993896484375</AltitudeMeters>
            <DistanceMeters>7128.8064686431</DistanceMeters>
          </Trackpoint>
          <Trackpoint>
            <Time>2019-01-04T10:57:21.000Z</Time>
            <Position>
              <LatitudeDegrees>36.503441445529460906982421875</LatitudeDegrees>
              <LongitudeDegrees>-5.40361004881560802459716796875</LongitudeDegrees>
            </Position>
            <AltitudeMeters>193.399993896484375</AltitudeMeters>
            <DistanceMeters>7130.3650226407</DistanceMeters>
          </Trackpoint>
          <Trackpoint>
            <Time>2019-01-04T10:57:22.000Z</Time>
            <Position>
              <LatitudeDegrees>36.503427028656005859375</LatitudeDegrees>
              <LongitudeDegrees>-5.40361373685300350189208984375</LongitudeDegrees>
            </Position>
            <AltitudeMeters>193.399993896484375</AltitudeMeters>
            <DistanceMeters>7132.0026833821</DistanceMeters>
          </Trackpoint>
          <Trackpoint>
            <Time>2019-01-04T10:57:23.000Z</Time>
            <Position>
              <LatitudeDegrees>36.50341370142996311187744140625</LatitudeDegrees>
              <LongitudeDegrees>-5.40361256338655948638916015625</LongitudeDegrees>
            </Position>
            <AltitudeMeters>193.399993896484375</AltitudeMeters>
            <DistanceMeters>7133.4900867331</DistanceMeters>
          </Trackpoint>
          <Trackpoint>
            <Time>2019-01-04T10:57:24.000Z</Time>
            <Position>
              <LatitudeDegrees>36.5034015476703643798828125</LatitudeDegrees>
              <LongitudeDegrees>-5.40361382067203521728515625</LongitudeDegrees>
            </Position>
            <AltitudeMeters>193.399993896484375</AltitudeMeters>
            <DistanceMeters>7134.8440090049</DistanceMeters>
          </Trackpoint>
          <Trackpoint>
            <Time>2019-01-04T10:57:25.000Z</Time>
            <Position>
              <LatitudeDegrees>36.50338478386402130126953125</LatitudeDegrees>
              <LongitudeDegrees>-5.4036126472055912017822265625</LongitudeDegrees>
            </Position>
            <AltitudeMeters>193.399993896484375</AltitudeMeters>
            <DistanceMeters>7136.710987716</DistanceMeters>
          </Trackpoint>
          <Trackpoint>
            <Time>2019-01-04T10:57:26.000Z</Time>
            <Position>
              <LatitudeDegrees>36.5033732168376445770263671875</LatitudeDegrees>
              <LongitudeDegrees>-5.403611473739147186279296875</LongitudeDegrees>
            </Position>
            <AltitudeMeters>193.399993896484375</AltitudeMeters>
            <DistanceMeters>7138.003490769</DistanceMeters>
          </Trackpoint>
          <Trackpoint>
            <Time>2019-01-04T10:57:27.000Z</Time>
            <Position>
              <LatitudeDegrees>36.503362320363521575927734375</LatitudeDegrees>
              <LongitudeDegrees>-5.40360753424465656280517578125</LongitudeDegrees>
            </Position>
            <AltitudeMeters>193.399993896484375</AltitudeMeters>
            <DistanceMeters>7139.2641625955</DistanceMeters>
          </Trackpoint>
          <Trackpoint>
            <Time>2019-01-04T10:57:28.000Z</Time>
            <Position>
              <LatitudeDegrees>36.50334597565233707427978515625</LatitudeDegrees>
              <LongitudeDegrees>-5.40360384620726108551025390625</LongitudeDegrees>
            </Position>
            <AltitudeMeters>193.399993896484375</AltitudeMeters>
            <DistanceMeters>7141.1116930813</DistanceMeters>
          </Trackpoint>
          <Trackpoint>
            <Time>2019-01-04T10:57:29.000Z</Time>
            <Position>
              <LatitudeDegrees>36.50333273224532604217529296875</LatitudeDegrees>
              <LongitudeDegrees>-5.40360510349273681640625</LongitudeDegrees>
            </Position>
            <AltitudeMeters>193.399993896484375</AltitudeMeters>
            <DistanceMeters>7142.5838406101</DistanceMeters>
          </Trackpoint>
          <Trackpoint>
            <Time>2019-01-04T10:57:30.000Z</Time>
            <Position>
              <LatitudeDegrees>36.50331906974315643310546875</LatitudeDegrees>
              <LongitudeDegrees>-5.40360309183597564697265625</LongitudeDegrees>
            </Position>
            <AltitudeMeters>193.399993896484375</AltitudeMeters>
            <DistanceMeters>7144.1131508464</DistanceMeters>
          </Trackpoint>
          <Trackpoint>
            <Time>2019-01-04T10:57:31.000Z</Time>
            <Position>
              <LatitudeDegrees>36.5033071674406528472900390625</LatitudeDegrees>
              <LongitudeDegrees>-5.4036025889217853546142578125</LongitudeDegrees>
            </Position>
            <AltitudeMeters>193.399993896484375</AltitudeMeters>
            <DistanceMeters>7145.4367198209</DistanceMeters>
          </Trackpoint>
          <Trackpoint>
            <Time>2019-01-04T10:57:32.000Z</Time>
            <Position>
              <LatitudeDegrees>36.5032961033284664154052734375</LatitudeDegrees>
              <LongitudeDegrees>-5.403597392141819000244140625</LongitudeDegrees>
            </Position>
            <AltitudeMeters>193.399993896484375</AltitudeMeters>
            <DistanceMeters>7146.7534485998</DistanceMeters>
          </Trackpoint>
          <Trackpoint>
            <Time>2019-01-04T10:57:33.000Z</Time>
            <Position>
              <LatitudeDegrees>36.50328797288239002227783203125</LatitudeDegrees>
              <LongitudeDegrees>-5.40359412319958209991455078125</LongitudeDegrees>
            </Position>
            <AltitudeMeters>193.399993896484375</AltitudeMeters>
            <DistanceMeters>7147.7084552599</DistanceMeters>
          </Trackpoint>
          <Trackpoint>
            <Time>2019-01-04T10:57:34.000Z</Time>
            <Position>
              <LatitudeDegrees>36.50328109972178936004638671875</LatitudeDegrees>
              <LongitudeDegrees>-5.40358942933380603790283203125</LongitudeDegrees>
            </Position>
            <AltitudeMeters>193.600006103515625</AltitudeMeters>
            <DistanceMeters>7148.5793894832</DistanceMeters>
          </Trackpoint>
          <Trackpoint>
            <Time>2019-01-04T10:57:35.000Z</Time>
            <Position>
              <LatitudeDegrees>36.503278501331806182861328125</LatitudeDegrees>
              <LongitudeDegrees>-5.4035911895334720611572265625</LongitudeDegrees>
            </Position>
            <AltitudeMeters>193.600006103515625</AltitudeMeters>
            <DistanceMeters>7148.9085716779</DistanceMeters>
          </Trackpoint>
          <Trackpoint>
            <Time>2019-01-04T10:57:36.000Z</Time>
            <Position>
              <LatitudeDegrees>36.50328026153147220611572265625</LatitudeDegrees>
              <LongitudeDegrees>-5.4035911895334720611572265625</LongitudeDegrees>
            </Position>
            <AltitudeMeters>193.399993896484375</AltitudeMeters>
            <DistanceMeters>7149.0986251066</DistanceMeters>
          </Trackpoint>
          <Trackpoint>
            <Time>2019-01-04T10:57:37.000Z</Time>
            <Position>
              <LatitudeDegrees>36.5032803453505039215087890625</LatitudeDegrees>
              <LongitudeDegrees>-5.40359261445701122283935546875</LongitudeDegrees>
            </Position>
            <AltitudeMeters>193.399993896484375</AltitudeMeters>
            <DistanceMeters>7149.2330131749</DistanceMeters>
          </Trackpoint>
          <Trackpoint>
            <Time>2019-01-04T10:57:38.000Z</Time>
            <Position>
              <LatitudeDegrees>36.50328017771244049072265625</LatitudeDegrees>
              <LongitudeDegrees>-5.40359714068472385406494140625</LongitudeDegrees>
            </Position>
            <AltitudeMeters>193.399993896484375</AltitudeMeters>
            <DistanceMeters>7149.6361773796</DistanceMeters>
          </Trackpoint>
          <Trackpoint>
            <Time>2019-01-04T10:57:39.000Z</Time>
            <Position>
              <LatitudeDegrees>36.50328093208372592926025390625</LatitudeDegrees>
              <LongitudeDegrees>-5.4035995714366436004638671875</LongitudeDegrees>
            </Position>
            <AltitudeMeters>193.399993896484375</AltitudeMeters>
            <DistanceMeters>7149.8689443418</DistanceMeters>
          </Trackpoint>
          <Trackpoint>
            <Time>2019-01-04T10:57:40.000Z</Time>
            <Position>
              <LatitudeDegrees>36.5032803453505039215087890625</LatitudeDegrees>
              <LongitudeDegrees>-5.403600074350833892822265625</LongitudeDegrees>
            </Position>
            <AltitudeMeters>193.1999969482421875</AltitudeMeters>
            <DistanceMeters>7149.9639710561</DistanceMeters>
          </Trackpoint>
          <Trackpoint>
            <Time>2019-01-04T10:57:41.000Z</Time>
            <Position>
              <LatitudeDegrees>36.50328017771244049072265625</LatitudeDegrees>
              <LongitudeDegrees>-5.40360133163630962371826171875</LongitudeDegrees>
            </Position>
            <AltitudeMeters>193.1999969482421875</AltitudeMeters>
            <DistanceMeters>7150.0983591244</DistanceMeters>
          </Trackpoint>
          <Trackpoint>
            <Time>2019-01-04T10:57:42.000Z</Time>
            <Position>
              <LatitudeDegrees>36.50328042916953563690185546875</LatitudeDegrees>
              <LongitudeDegrees>-5.403602086007595062255859375</LongitudeDegrees>
            </Position>
            <AltitudeMeters>193.1999969482421875</AltitudeMeters>
            <DistanceMeters>7150.2327471926</DistanceMeters>
          </Trackpoint>
          <Trackpoint>
            <Time>2019-01-04T10:57:43.000Z</Time>
            <Position>
              <LatitudeDegrees>36.5032803453505039215087890625</LatitudeDegrees>
              <LongitudeDegrees>-5.40360233746469020843505859375</LongitudeDegrees>
            </Position>
            <AltitudeMeters>193.1999969482421875</AltitudeMeters>
            <DistanceMeters>7150.2327471926</DistanceMeters>
          </Trackpoint>
          <Trackpoint>
            <Time>2019-01-04T10:57:44.000Z</Time>
            <Position>
              <LatitudeDegrees>36.50328026153147220611572265625</LatitudeDegrees>
              <LongitudeDegrees>-5.4036022536456584930419921875</LongitudeDegrees>
            </Position>
            <AltitudeMeters>193.1999969482421875</AltitudeMeters>
            <DistanceMeters>7150.2327471926</DistanceMeters>
          </Trackpoint>
          <Trackpoint>
            <Time>2019-01-04T10:57:45.000Z</Time>
            <Position>
              <LatitudeDegrees>36.50328059680759906768798828125</LatitudeDegrees>
              <LongitudeDegrees>-5.40360233746469020843505859375</LongitudeDegrees>
            </Position>
            <AltitudeMeters>193.1999969482421875</AltitudeMeters>
            <DistanceMeters>7150.2327471926</DistanceMeters>
          </Trackpoint>
          <Trackpoint>
            <Time>2019-01-04T10:57:46.000Z</Time>
            <Position>
              <LatitudeDegrees>36.5032793395221233367919921875</LatitudeDegrees>
              <LongitudeDegrees>-5.403601415455341339111328125</LongitudeDegrees>
            </Position>
            <AltitudeMeters>193.1999969482421875</AltitudeMeters>
            <DistanceMeters>7150.39733829</DistanceMeters>
          </Trackpoint>
          <Trackpoint>
            <Time>2019-01-04T10:57:47.000Z</Time>
            <Position>
              <LatitudeDegrees>36.50327070616185665130615234375</LatitudeDegrees>
              <LongitudeDegrees>-5.40359915234148502349853515625</LongitudeDegrees>
            </Position>
            <AltitudeMeters>193.1999969482421875</AltitudeMeters>
            <DistanceMeters>7151.3848848742</DistanceMeters>
          </Trackpoint>
          <Trackpoint>
            <Time>2019-01-04T10:57:48.000Z</Time>
            <Position>
              <LatitudeDegrees>36.50325830094516277313232421875</LatitudeDegrees>
              <LongitudeDegrees>-5.40359429083764553070068359375</LongitudeDegrees>
            </Position>
            <AltitudeMeters>193.1999969482421875</AltitudeMeters>
            <DistanceMeters>7152.8322886655</DistanceMeters>
          </Trackpoint>
          <Trackpoint>
            <Time>2019-01-04T10:57:49.000Z</Time>
            <Position>
              <LatitudeDegrees>36.50324505753815174102783203125</LatitudeDegrees>
              <LongitudeDegrees>-5.40358792059123516082763671875</LongitudeDegrees>
            </Position>
            <AltitudeMeters>193.1999969482421875</AltitudeMeters>
            <DistanceMeters>7154.4109910119</DistanceMeters>
          </Trackpoint>
          <Trackpoint>
            <Time>2019-01-04T10:57:50.000Z</Time>
            <Position>
              <LatitudeDegrees>36.5032327361404895782470703125</LatitudeDegrees>
              <LongitudeDegrees>-5.40358222089707851409912109375</LongitudeDegrees>
            </Position>
            <AltitudeMeters>193.1999969482421875</AltitudeMeters>
            <DistanceMeters>7155.8708190979</DistanceMeters>
          </Trackpoint>
          <Trackpoint>
            <Time>2019-01-04T10:57:51.000Z</Time>
            <Position>
              <LatitudeDegrees>36.50322225876152515411376953125</LatitudeDegrees>
              <LongitudeDegrees>-5.40357836522161960601806640625</LongitudeDegrees>
            </Position>
            <AltitudeMeters>193.1999969482421875</AltitudeMeters>
            <DistanceMeters>7157.084038971</DistanceMeters>
          </Trackpoint>
          <Trackpoint>
            <Time>2019-01-04T10:57:52.000Z</Time>
            <Position>
              <LatitudeDegrees>36.50321454741060733795166015625</LatitudeDegrees>
              <LongitudeDegrees>-5.4035744257271289825439453125</LongitudeDegrees>
            </Position>
            <AltitudeMeters>193.399993896484375</AltitudeMeters>
            <DistanceMeters>7158.0151068195</DistanceMeters>
          </Trackpoint>
          <Trackpoint>
            <Time>2019-01-04T10:57:53.000Z</Time>
            <Position>
              <LatitudeDegrees>36.50320583023130893707275390625</LatitudeDegrees>
              <LongitudeDegrees>-5.40357132442295551300048828125</LongitudeDegrees>
            </Position>
            <AltitudeMeters>193.399993896484375</AltitudeMeters>
            <DistanceMeters>7159.020775036</DistanceMeters>
          </Trackpoint>
          <Trackpoint>
            <Time>2019-01-04T10:57:54.000Z</Time>
            <Position>
              <LatitudeDegrees>36.503198035061359405517578125</LatitudeDegrees>
              <LongitudeDegrees>-5.40356964804232120513916015625</LongitudeDegrees>
            </Position>
            <AltitudeMeters>193.399993896484375</AltitudeMeters>
            <DistanceMeters>7159.8968780538</DistanceMeters>
          </Trackpoint>
          <Trackpoint>
            <Time>2019-01-04T10:57:55.000Z</Time>
            <Position>
              <LatitudeDegrees>36.50318739004433155059814453125</LatitudeDegrees>
              <LongitudeDegrees>-5.40356227196753025054931640625</LongitudeDegrees>
            </Position>
            <AltitudeMeters>193.399993896484375</AltitudeMeters>
            <DistanceMeters>7161.2508003256</DistanceMeters>
          </Trackpoint>
          <Trackpoint>
            <Time>2019-01-04T10:57:56.000Z</Time>
            <Position>
              <LatitudeDegrees>36.50317733176052570343017578125</LatitudeDegrees>
              <LongitudeDegrees>-5.40355741046369075775146484375</LongitudeDegrees>
            </Position>
            <AltitudeMeters>193.399993896484375</AltitudeMeters>
            <DistanceMeters>7162.4528037495</DistanceMeters>
          </Trackpoint>
          <Trackpoint>
            <Time>2019-01-04T10:57:57.000Z</Time>
            <Position>
              <LatitudeDegrees>36.50316417217254638671875</LatitudeDegrees>
              <LongitudeDegrees>-5.40355321951210498809814453125</LongitudeDegrees>
            </Position>
            <AltitudeMeters>193.600006103515625</AltitudeMeters>
            <DistanceMeters>7163.9672803643</DistanceMeters>
          </Trackpoint>
          <Trackpoint>
            <Time>2019-01-04T10:57:58.000Z</Time>
            <Position>
              <LatitudeDegrees>36.50315235368907451629638671875</LatitudeDegrees>
              <LongitudeDegrees>-5.40355271659791469573974609375</LongitudeDegrees>
            </Position>
            <AltitudeMeters>193.600006103515625</AltitudeMeters>
            <DistanceMeters>7165.2805756855</DistanceMeters>
          </Trackpoint>
          <Trackpoint>
            <Time>2019-01-04T10:57:59.000Z</Time>
            <Position>
              <LatitudeDegrees>36.503140367567539215087890625</LatitudeDegrees>
              <LongitudeDegrees>-5.4035546444356441497802734375</LongitudeDegrees>
            </Position>
            <AltitudeMeters>193.600006103515625</AltitudeMeters>
            <DistanceMeters>7166.624456368</DistanceMeters>
          </Trackpoint>
          <Trackpoint>
            <Time>2019-01-04T10:58:00.000Z</Time>
            <Position>
              <LatitudeDegrees>36.50312771089375019073486328125</LatitudeDegrees>
              <LongitudeDegrees>-5.403555817902088165283203125</LongitudeDegrees>
            </Position>
            <AltitudeMeters>193.600006103515625</AltitudeMeters>
            <DistanceMeters>7168.0371300367</DistanceMeters>
          </Trackpoint>
          <Trackpoint>
            <Time>2019-01-04T10:58:01.000Z</Time>
            <Position>
              <LatitudeDegrees>36.50311522185802459716796875</LatitudeDegrees>
              <LongitudeDegrees>-5.4035556502640247344970703125</LongitudeDegrees>
            </Position>
            <AltitudeMeters>193.600006103515625</AltitudeMeters>
            <DistanceMeters>7169.4272510239</DistanceMeters>
          </Trackpoint>
          <Trackpoint>
            <Time>2019-01-04T10:58:02.000Z</Time>
            <Position>
              <LatitudeDegrees>36.503100804984569549560546875</LatitudeDegrees>
              <LongitudeDegrees>-5.403556488454341888427734375</LongitudeDegrees>
            </Position>
            <AltitudeMeters>193.600006103515625</AltitudeMeters>
            <DistanceMeters>7171.0342985848</DistanceMeters>
          </Trackpoint>
          <Trackpoint>
            <Time>2019-01-04T10:58:03.000Z</Time>
            <Position>
              <LatitudeDegrees>36.50308295153081417083740234375</LatitudeDegrees>
              <LongitudeDegrees>-5.40355590172111988067626953125</LongitudeDegrees>
            </Position>
            <AltitudeMeters>193.8000030517578125</AltitudeMeters>
            <DistanceMeters>7173.0185146339</DistanceMeters>
          </Trackpoint>
          <Trackpoint>
            <Time>2019-01-04T10:58:04.000Z</Time>
            <Position>
              <LatitudeDegrees>36.50306585244834423065185546875</LatitudeDegrees>
              <LongitudeDegrees>-5.4035526327788829803466796875</LongitudeDegrees>
            </Position>
            <AltitudeMeters>193.8000030517578125</AltitudeMeters>
            <DistanceMeters>7174.9450040365</DistanceMeters>
          </Trackpoint>
          <Trackpoint>
            <Time>2019-01-04T10:58:05.000Z</Time>
            <Position>
              <LatitudeDegrees>36.50305378250777721405029296875</LatitudeDegrees>
              <LongitudeDegrees>-5.40355003438889980316162109375</LongitudeDegrees>
            </Position>
            <AltitudeMeters>193.8000030517578125</AltitudeMeters>
            <DistanceMeters>7176.3088939688</DistanceMeters>
          </Trackpoint>
          <Trackpoint>
            <Time>2019-01-04T10:58:06.000Z</Time>
            <Position>
              <LatitudeDegrees>36.50304607115685939788818359375</LatitudeDegrees>
              <LongitudeDegrees>-5.4035472683608531951904296875</LongitudeDegrees>
            </Position>
            <AltitudeMeters>193.8000030517578125</AltitudeMeters>
            <DistanceMeters>7177.2003235662</DistanceMeters>
          </Trackpoint>
          <Trackpoint>
            <Time>2019-01-04T10:58:07.000Z</Time>
            <Position>
              <LatitudeDegrees>36.50303735397756099700927734375</LatitudeDegrees>
              <LongitudeDegrees>-5.40354819037020206451416015625</LongitudeDegrees>
            </Position>
            <AltitudeMeters>193.8000030517578125</AltitudeMeters>
            <DistanceMeters>7178.1740576298</DistanceMeters>
          </Trackpoint>
          <Trackpoint>
            <Time>2019-01-04T10:58:08.000Z</Time>
            <Position>
              <LatitudeDegrees>36.50302679277956485748291015625</LatitudeDegrees>
              <LongitudeDegrees>-5.4035452567040920257568359375</LongitudeDegrees>
            </Position>
            <AltitudeMeters>193.600006103515625</AltitudeMeters>
            <DistanceMeters>7179.383550244</DistanceMeters>
          </Trackpoint>
          <Trackpoint>
            <Time>2019-01-04T10:58:09.000Z</Time>
            <Position>
              <LatitudeDegrees>36.50301338173449039459228515625</LatitudeDegrees>
              <LongitudeDegrees>-5.40354450233280658721923828125</LongitudeDegrees>
            </Position>
            <AltitudeMeters>193.8000030517578125</AltitudeMeters>
            <DistanceMeters>7180.8800324384</DistanceMeters>
          </Trackpoint>
          <Trackpoint>
            <Time>2019-01-04T10:58:10.000Z</Time>
            <Position>
              <LatitudeDegrees>36.50300080887973308563232421875</LatitudeDegrees>
              <LongitudeDegrees>-5.40354819037020206451416015625</LongitudeDegrees>
            </Position>
            <AltitudeMeters>193.8000030517578125</AltitudeMeters>
            <DistanceMeters>7182.3149043593</DistanceMeters>
          </Trackpoint>
          <Trackpoint>
            <Time>2019-01-04T10:58:11.000Z</Time>
            <Position>
              <LatitudeDegrees>36.502987481653690338134765625</LatitudeDegrees>
              <LongitudeDegrees>-5.4035460948944091796875</LongitudeDegrees>
            </Position>
            <AltitudeMeters>193.8000030517578125</AltitudeMeters>
            <DistanceMeters>7183.8083664049</DistanceMeters>
          </Trackpoint>
          <Trackpoint>
            <Time>2019-01-04T10:58:12.000Z</Time>
            <Position>
              <LatitudeDegrees>36.50297801010310649871826171875</LatitudeDegrees>
              <LongitudeDegrees>-5.403543077409267425537109375</LongitudeDegrees>
            </Position>
            <AltitudeMeters>193.8000030517578125</AltitudeMeters>
            <DistanceMeters>7184.8918376494</DistanceMeters>
          </Trackpoint>
          <Trackpoint>
            <Time>2019-01-04T10:58:13.000Z</Time>
            <Position>
              <LatitudeDegrees>36.5029658563435077667236328125</LatitudeDegrees>
              <LongitudeDegrees>-5.4035382159054279327392578125</LongitudeDegrees>
            </Position>
            <AltitudeMeters>193.8000030517578125</AltitudeMeters>
            <DistanceMeters>7186.3140672805</DistanceMeters>
          </Trackpoint>
          <Trackpoint>
            <Time>2019-01-04T10:58:14.000Z</Time>
            <Position>
              <LatitudeDegrees>36.50295370258390903472900390625</LatitudeDegrees>
              <LongitudeDegrees>-5.40353578515350818634033203125</LongitudeDegrees>
            </Position>
            <AltitudeMeters>193.8000030517578125</AltitudeMeters>
            <DistanceMeters>7187.6845620453</DistanceMeters>
          </Trackpoint>
          <Trackpoint>
            <Time>2019-01-04T10:58:15.000Z</Time>
            <Position>
              <LatitudeDegrees>36.5029433928430080413818359375</LatitudeDegrees>
              <LongitudeDegrees>-5.40353444404900074005126953125</LongitudeDegrees>
            </Position>
            <AltitudeMeters>193.8000030517578125</AltitudeMeters>
            <DistanceMeters>7188.8366997268</DistanceMeters>
          </Trackpoint>
          <Trackpoint>
            <Time>2019-01-04T10:58:16.000Z</Time>
            <Position>
              <LatitudeDegrees>36.50293392129242420196533203125</LatitudeDegrees>
              <LongitudeDegrees>-5.403528325259685516357421875</LongitudeDegrees>
            </Position>
            <AltitudeMeters>193.8000030517578125</AltitudeMeters>
            <DistanceMeters>7190.0235830089</DistanceMeters>
          </Trackpoint>
          <Trackpoint>
            <Time>2019-01-04T10:58:17.000Z</Time>
            <Position>
              <LatitudeDegrees>36.50292746722698211669921875</LatitudeDegrees>
              <LongitudeDegrees>-5.40351918898522853851318359375</LongitudeDegrees>
            </Position>
            <AltitudeMeters>193.8000030517578125</AltitudeMeters>
            <DistanceMeters>7191.1070542534</DistanceMeters>
          </Trackpoint>
          <Trackpoint>
            <Time>2019-01-04T10:58:18.000Z</Time>
            <Position>
              <LatitudeDegrees>36.50291967205703258514404296875</LatitudeDegrees>
              <LongitudeDegrees>-5.40351013652980327606201171875</LongitudeDegrees>
            </Position>
            <AltitudeMeters>193.8000030517578125</AltitudeMeters>
            <DistanceMeters>7192.2901273064</DistanceMeters>
          </Trackpoint>
          <Trackpoint>
            <Time>2019-01-04T10:58:19.000Z</Time>
            <Position>
              <LatitudeDegrees>36.50291145779192447662353515625</LatitudeDegrees>
              <LongitudeDegrees>-5.40350477211177349090576171875</LongitudeDegrees>
            </Position>
            <AltitudeMeters>193.600006103515625</AltitudeMeters>
            <DistanceMeters>7193.3223816454</DistanceMeters>
          </Trackpoint>
          <Trackpoint>
            <Time>2019-01-04T10:58:20.000Z</Time>
            <Position>
              <LatitudeDegrees>36.50290207006037235260009765625</LatitudeDegrees>
              <LongitudeDegrees>-5.40350158698856830596923828125</LongitudeDegrees>
            </Position>
            <AltitudeMeters>193.8000030517578125</AltitudeMeters>
            <DistanceMeters>7194.40585289</DistanceMeters>
          </Trackpoint>
          <Trackpoint>
            <Time>2019-01-04T10:58:21.000Z</Time>
            <Position>
              <LatitudeDegrees>36.50289016775786876678466796875</LatitudeDegrees>
              <LongitudeDegrees>-5.403496138751506805419921875</LongitudeDegrees>
            </Position>
            <AltitudeMeters>194</AltitudeMeters>
            <DistanceMeters>7195.8153268407</DistanceMeters>
          </Trackpoint>
          <Trackpoint>
            <Time>2019-01-04T10:58:22.000Z</Time>
            <Position>
              <LatitudeDegrees>36.502879522740840911865234375</LatitudeDegrees>
              <LongitudeDegrees>-5.403494127094745635986328125</LongitudeDegrees>
            </Position>
            <AltitudeMeters>194.1999969482421875</AltitudeMeters>
            <DistanceMeters>7197.0173302645</DistanceMeters>
          </Trackpoint>
          <Trackpoint>
            <Time>2019-01-04T10:58:23.000Z</Time>
            <Position>
              <LatitudeDegrees>36.502866782248020172119140625</LatitudeDegrees>
              <LongitudeDegrees>-5.40349303744733333587646484375</LongitudeDegrees>
            </Position>
            <AltitudeMeters>194.1999969482421875</AltitudeMeters>
            <DistanceMeters>7198.4395598956</DistanceMeters>
          </Trackpoint>
          <Trackpoint>
            <Time>2019-01-04T10:58:24.000Z</Time>
            <Position>
              <LatitudeDegrees>36.50285714305937290191650390625</LatitudeDegrees>
              <LongitudeDegrees>-5.40349203161895275115966796875</LongitudeDegrees>
            </Position>
            <AltitudeMeters>194.399993896484375</AltitudeMeters>
            <DistanceMeters>7199.5188558982</DistanceMeters>
          </Trackpoint>
          <Trackpoint>
            <Time>2019-01-04T10:58:25.000Z</Time>
            <Position>
              <LatitudeDegrees>36.50284607894718647003173828125</LatitudeDegrees>
              <LongitudeDegrees>-5.4034912772476673126220703125</LongitudeDegrees>
            </Position>
            <AltitudeMeters>194.399993896484375</AltitudeMeters>
            <DistanceMeters>7200.757852668</DistanceMeters>
          </Trackpoint>
          <Trackpoint>
            <Time>2019-01-04T10:58:26.000Z</Time>
            <Position>
              <LatitudeDegrees>36.50283518247306346893310546875</LatitudeDegrees>
              <LongitudeDegrees>-5.403489433228969573974609375</LongitudeDegrees>
            </Position>
            <AltitudeMeters>194.399993896484375</AltitudeMeters>
            <DistanceMeters>7201.9821862376</DistanceMeters>
          </Trackpoint>
          <Trackpoint>
            <Time>2019-01-04T10:58:27.000Z</Time>
            <Position>
              <LatitudeDegrees>36.50282361544668674468994140625</LatitudeDegrees>
              <LongitudeDegrees>-5.40348331443965435028076171875</LongitudeDegrees>
            </Position>
            <AltitudeMeters>194.399993896484375</AltitudeMeters>
            <DistanceMeters>7203.3820171518</DistanceMeters>
          </Trackpoint>
          <Trackpoint>
            <Time>2019-01-04T10:58:28.000Z</Time>
            <Position>
              <LatitudeDegrees>36.5028143115341663360595703125</LatitudeDegrees>
              <LongitudeDegrees>-5.403479039669036865234375</LongitudeDegrees>
            </Position>
            <AltitudeMeters>194.399993896484375</AltitudeMeters>
            <DistanceMeters>7204.4820308987</DistanceMeters>
          </Trackpoint>
          <Trackpoint>
            <Time>2019-01-04T10:58:29.000Z</Time>
            <Position>
              <LatitudeDegrees>36.50279947556555271148681640625</LatitudeDegrees>
              <LongitudeDegrees>-5.40347241796553134918212890625</LongitudeDegrees>
            </Position>
            <AltitudeMeters>194.600006103515625</AltitudeMeters>
            <DistanceMeters>7206.2342369343</DistanceMeters>
          </Trackpoint>
          <Trackpoint>
            <Time>2019-01-04T10:58:30.000Z</Time>
            <Position>
              <LatitudeDegrees>36.502787657082080841064453125</LatitudeDegrees>
              <LongitudeDegrees>-5.4034723341464996337890625</LongitudeDegrees>
            </Position>
            <AltitudeMeters>194.600006103515625</AltitudeMeters>
            <DistanceMeters>7207.5475322555</DistanceMeters>
          </Trackpoint>
          <Trackpoint>
            <Time>2019-01-04T10:58:31.000Z</Time>
            <Position>
              <LatitudeDegrees>36.5027720667421817779541015625</LatitudeDegrees>
              <LongitudeDegrees>-5.40346923284232616424560546875</LongitudeDegrees>
            </Position>
            <AltitudeMeters>194.600006103515625</AltitudeMeters>
            <DistanceMeters>7209.3023131727</DistanceMeters>
          </Trackpoint>
          <Trackpoint>
            <Time>2019-01-04T10:58:32.000Z</Time>
            <Position>
              <LatitudeDegrees>36.5027553029358386993408203125</LatitudeDegrees>
              <LongitudeDegrees>-5.403464622795581817626953125</LongitudeDegrees>
            </Position>
            <AltitudeMeters>194.8000030517578125</AltitudeMeters>
            <DistanceMeters>7211.2123264929</DistanceMeters>
          </Trackpoint>
          <Trackpoint>
            <Time>2019-01-04T10:58:33.000Z</Time>
            <Position>
              <LatitudeDegrees>36.50274314917623996734619140625</LatitudeDegrees>
              <LongitudeDegrees>-5.40346487425267696380615234375</LongitudeDegrees>
            </Position>
            <AltitudeMeters>194.8000030517578125</AltitudeMeters>
            <DistanceMeters>7212.5629098638</DistanceMeters>
          </Trackpoint>
          <Trackpoint>
            <Time>2019-01-04T10:58:34.000Z</Time>
            <Position>
              <LatitudeDegrees>36.502732001245021820068359375</LatitudeDegrees>
              <LongitudeDegrees>-5.4034624435007572174072265625</LongitudeDegrees>
            </Position>
            <AltitudeMeters>194.8000030517578125</AltitudeMeters>
            <DistanceMeters>7213.8235816903</DistanceMeters>
          </Trackpoint>
          <Trackpoint>
            <Time>2019-01-04T10:58:35.000Z</Time>
            <Position>
              <LatitudeDegrees>36.50272085331380367279052734375</LatitudeDegrees>
              <LongitudeDegrees>-5.40345867164433002471923828125</LongitudeDegrees>
            </Position>
            <AltitudeMeters>194.8000030517578125</AltitudeMeters>
            <DistanceMeters>7215.1125867584</DistanceMeters>
          </Trackpoint>
          <Trackpoint>
            <Time>2019-01-04T10:58:36.000Z</Time>
            <Position>
              <LatitudeDegrees>36.50271163322031497955322265625</LatitudeDegrees>
              <LongitudeDegrees>-5.403457917273044586181640625</LongitudeDegrees>
            </Position>
            <AltitudeMeters>194.8000030517578125</AltitudeMeters>
            <DistanceMeters>7216.1448410974</DistanceMeters>
          </Trackpoint>
          <Trackpoint>
            <Time>2019-01-04T10:58:37.000Z</Time>
            <Position>
              <LatitudeDegrees>36.5027009882032871246337890625</LatitudeDegrees>
              <LongitudeDegrees>-5.40345733053982257843017578125</LongitudeDegrees>
            </Position>
            <AltitudeMeters>194.600006103515625</AltitudeMeters>
            <DistanceMeters>7217.3317243795</DistanceMeters>
          </Trackpoint>
          <Trackpoint>
            <Time>2019-01-04T10:58:38.000Z</Time>
            <Position>
              <LatitudeDegrees>36.5026902593672275543212890625</LatitudeDegrees>
              <LongitudeDegrees>-5.40345850400626659393310546875</LongitudeDegrees>
            </Position>
            <AltitudeMeters>194.399993896484375</AltitudeMeters>
            <DistanceMeters>7218.5337278034</DistanceMeters>
          </Trackpoint>
          <Trackpoint>
            <Time>2019-01-04T10:58:39.000Z</Time>
            <Position>
              <LatitudeDegrees>36.502677686512470245361328125</LatitudeDegrees>
              <LongitudeDegrees>-5.40345984511077404022216796875</LongitudeDegrees>
            </Position>
            <AltitudeMeters>194.399993896484375</AltitudeMeters>
            <DistanceMeters>7219.9367804271</DistanceMeters>
          </Trackpoint>
          <Trackpoint>
            <Time>2019-01-04T10:58:40.000Z</Time>
            <Position>
              <LatitudeDegrees>36.50266704149544239044189453125</LatitudeDegrees>
              <LongitudeDegrees>-5.40346370078623294830322265625</LongitudeDegrees>
            </Position>
            <AltitudeMeters>194.1999969482421875</AltitudeMeters>
            <DistanceMeters>7221.1684674176</DistanceMeters>
          </Trackpoint>
          <Trackpoint>
            <Time>2019-01-04T10:58:41.000Z</Time>
            <Position>
              <LatitudeDegrees>36.5026567317545413970947265625</LatitudeDegrees>
              <LongitudeDegrees>-5.40346118621528148651123046875</LongitudeDegrees>
            </Position>
            <AltitudeMeters>194.1999969482421875</AltitudeMeters>
            <DistanceMeters>7222.340035435</DistanceMeters>
          </Trackpoint>
          <Trackpoint>
            <Time>2019-01-04T10:58:42.000Z</Time>
            <Position>
              <LatitudeDegrees>36.5026460029184818267822265625</LatitudeDegrees>
              <LongitudeDegrees>-5.40345288813114166259765625</LongitudeDegrees>
            </Position>
            <AltitudeMeters>194</AltitudeMeters>
            <DistanceMeters>7223.7495093857</DistanceMeters>
          </Trackpoint>
          <Trackpoint>
            <Time>2019-01-04T10:58:43.000Z</Time>
            <Position>
              <LatitudeDegrees>36.50263720192015171051025390625</LatitudeDegrees>
              <LongitudeDegrees>-5.40344224311411380767822265625</LongitudeDegrees>
            </Position>
            <AltitudeMeters>194</AltitudeMeters>
            <DistanceMeters>7225.113399318</DistanceMeters>
          </Trackpoint>
          <Trackpoint>
            <Time>2019-01-04T10:58:44.000Z</Time>
            <Position>
              <LatitudeDegrees>36.502630077302455902099609375</LatitudeDegrees>
              <LongitudeDegrees>-5.40343545377254486083984375</LongitudeDegrees>
            </Position>
            <AltitudeMeters>193.8000030517578125</AltitudeMeters>
            <DistanceMeters>7226.1100479064</DistanceMeters>
          </Trackpoint>
          <Trackpoint>
            <Time>2019-01-04T10:58:45.000Z</Time>
            <Position>
              <LatitudeDegrees>36.50262144394218921661376953125</LatitudeDegrees>
              <LongitudeDegrees>-5.40342950262129306793212890625</LongitudeDegrees>
            </Position>
            <AltitudeMeters>193.8000030517578125</AltitudeMeters>
            <DistanceMeters>7227.2100616534</DistanceMeters>
          </Trackpoint>
          <Trackpoint>
            <Time>2019-01-04T10:58:46.000Z</Time>
            <Position>
              <LatitudeDegrees>36.50261423550546169281005859375</LatitudeDegrees>
              <LongitudeDegrees>-5.4034238867461681365966796875</LongitudeDegrees>
            </Position>
            <AltitudeMeters>193.8000030517578125</AltitudeMeters>
            <DistanceMeters>7228.1603287971</DistanceMeters>
          </Trackpoint>
          <Trackpoint>
            <Time>2019-01-04T10:58:47.000Z</Time>
            <Position>
              <LatitudeDegrees>36.50260803289711475372314453125</LatitudeDegrees>
              <LongitudeDegrees>-5.40341760031878948211669921875</LongitudeDegrees>
            </Position>
            <AltitudeMeters>193.600006103515625</AltitudeMeters>
            <DistanceMeters>7229.0517583945</DistanceMeters>
          </Trackpoint>
          <Trackpoint>
            <Time>2019-01-04T10:58:48.000Z</Time>
            <Position>
              <LatitudeDegrees>36.50260233320295810699462890625</LatitudeDegrees>
              <LongitudeDegrees>-5.40341198444366455078125</LongitudeDegrees>
            </Position>
            <AltitudeMeters>193.600006103515625</AltitudeMeters>
            <DistanceMeters>7229.8636669979</DistanceMeters>
          </Trackpoint>
          <Trackpoint>
            <Time>2019-01-04T10:58:49.000Z</Time>
            <Position>
              <LatitudeDegrees>36.50259126909077167510986328125</LatitudeDegrees>
              <LongitudeDegrees>-5.403403937816619873046875</LongitudeDegrees>
            </Position>
            <AltitudeMeters>193.600006103515625</AltitudeMeters>
            <DistanceMeters>7231.2922317589</DistanceMeters>
          </Trackpoint>
          <Trackpoint>
            <Time>2019-01-04T10:58:50.000Z</Time>
            <Position>
              <LatitudeDegrees>36.5025776065886020660400390625</LatitudeDegrees>
              <LongitudeDegrees>-5.4033876769244670867919921875</LongitudeDegrees>
            </Position>
            <AltitudeMeters>193.8000030517578125</AltitudeMeters>
            <DistanceMeters>7233.3978830914</DistanceMeters>
          </Trackpoint>
          <Trackpoint>
            <Time>2019-01-04T10:58:51.000Z</Time>
            <Position>
              <LatitudeDegrees>36.5025608427822589874267578125</LatitudeDegrees>
              <LongitudeDegrees>-5.403370745480060577392578125</LongitudeDegrees>
            </Position>
            <AltitudeMeters>193.8000030517578125</AltitudeMeters>
            <DistanceMeters>7235.8018899392</DistanceMeters>
          </Trackpoint>
          <Trackpoint>
            <Time>2019-01-04T10:58:52.000Z</Time>
            <Position>
              <LatitudeDegrees>36.5025444142520427703857421875</LatitudeDegrees>
              <LongitudeDegrees>-5.40334568358957767486572265625</LongitudeDegrees>
            </Position>
            <AltitudeMeters>193.8000030517578125</AltitudeMeters>
            <DistanceMeters>7238.6935764345</DistanceMeters>
          </Trackpoint>
          <Trackpoint>
            <Time>2019-01-04T10:58:53.000Z</Time>
            <Position>
              <LatitudeDegrees>36.50253846310079097747802734375</LatitudeDegrees>
              <LongitudeDegrees>-5.40332875214517116546630859375</LongitudeDegrees>
            </Position>
            <AltitudeMeters>193.8000030517578125</AltitudeMeters>
            <DistanceMeters>7240.3476964913</DistanceMeters>
          </Trackpoint>
          <Trackpoint>
            <Time>2019-01-04T10:58:54.000Z</Time>
            <Position>
              <LatitudeDegrees>36.50253318250179290771484375</LatitudeDegrees>
              <LongitudeDegrees>-5.4033098928630352020263671875</LongitudeDegrees>
            </Position>
            <AltitudeMeters>193.8000030517578125</AltitudeMeters>
            <DistanceMeters>7242.1305556861</DistanceMeters>
          </Trackpoint>
          <Trackpoint>
            <Time>2019-01-04T10:58:55.000Z</Time>
            <Position>
              <LatitudeDegrees>36.5025289915502071380615234375</LatitudeDegrees>
              <LongitudeDegrees>-5.40329840965569019317626953125</LongitudeDegrees>
            </Position>
            <AltitudeMeters>193.8000030517578125</AltitudeMeters>
            <DistanceMeters>7243.2629296769</DistanceMeters>
          </Trackpoint>
          <Trackpoint>
            <Time>2019-01-04T10:58:56.000Z</Time>
            <Position>
              <LatitudeDegrees>36.50252572260797023773193359375</LatitudeDegrees>
              <LongitudeDegrees>-5.40329304523766040802001953125</LongitudeDegrees>
            </Position>
            <AltitudeMeters>194</AltitudeMeters>
            <DistanceMeters>7243.8639313888</DistanceMeters>
          </Trackpoint>
          <Trackpoint>
            <Time>2019-01-04T10:58:57.000Z</Time>
            <Position>
              <LatitudeDegrees>36.50251734070479869842529296875</LatitudeDegrees>
              <LongitudeDegrees>-5.40328659117221832275390625</LongitudeDegrees>
            </Position>
            <AltitudeMeters>194</AltitudeMeters>
            <DistanceMeters>7244.9639451358</DistanceMeters>
          </Trackpoint>
          <Trackpoint>
            <Time>2019-01-04T10:58:58.000Z</Time>
            <Position>
              <LatitudeDegrees>36.502510048449039459228515625</LatitudeDegrees>
              <LongitudeDegrees>-5.40328030474483966827392578125</LongitudeDegrees>
            </Position>
            <AltitudeMeters>194</AltitudeMeters>
            <DistanceMeters>7245.9560531603</DistanceMeters>
          </Trackpoint>
          <Trackpoint>
            <Time>2019-01-04T10:58:59.000Z</Time>
            <Position>
              <LatitudeDegrees>36.50250594131648540496826171875</LatitudeDegrees>
              <LongitudeDegrees>-5.40327292867004871368408203125</LongitudeDegrees>
            </Position>
            <AltitudeMeters>194.1999969482421875</AltitudeMeters>
            <DistanceMeters>7246.7623815698</DistanceMeters>
          </Trackpoint>
          <Trackpoint>
            <Time>2019-01-04T10:59:00.000Z</Time>
            <Position>
              <LatitudeDegrees>36.50249856524169445037841796875</LatitudeDegrees>
              <LongitudeDegrees>-5.4032679833471775054931640625</LongitudeDegrees>
            </Position>
            <AltitudeMeters>194.1999969482421875</AltitudeMeters>
            <DistanceMeters>7247.6934494184</DistanceMeters>
          </Trackpoint>
          <Trackpoint>
            <Time>2019-01-04T10:59:01.000Z</Time>
            <Position>
              <LatitudeDegrees>36.50248934514820575714111328125</LatitudeDegrees>
              <LongitudeDegrees>-5.40326002053916454315185546875</LongitudeDegrees>
            </Position>
            <AltitudeMeters>194.1999969482421875</AltitudeMeters>
            <DistanceMeters>7248.9433307027</DistanceMeters>
          </Trackpoint>
          <Trackpoint>
            <Time>2019-01-04T10:59:02.000Z</Time>
            <Position>
              <LatitudeDegrees>36.50248012505471706390380859375</LatitudeDegrees>
              <LongitudeDegrees>-5.40325717069208621978759765625</LongitudeDegrees>
            </Position>
            <AltitudeMeters>194.1999969482421875</AltitudeMeters>
            <DistanceMeters>7250.0015034103</DistanceMeters>
          </Trackpoint>
          <Trackpoint>
            <Time>2019-01-04T10:59:03.000Z</Time>
            <Position>
              <LatitudeDegrees>36.502469480037689208984375</LatitudeDegrees>
              <LongitudeDegrees>-5.40325063280761241912841796875</LongitudeDegrees>
            </Position>
            <AltitudeMeters>194</AltitudeMeters>
            <DistanceMeters>7251.3250723847</DistanceMeters>
          </Trackpoint>
          <Trackpoint>
            <Time>2019-01-04T10:59:04.000Z</Time>
            <Position>
              <LatitudeDegrees>36.5024585835635662078857421875</LatitudeDegrees>
              <LongitudeDegrees>-5.40324208326637744903564453125</LongitudeDegrees>
            </Position>
            <AltitudeMeters>194</AltitudeMeters>
            <DistanceMeters>7252.7599443056</DistanceMeters>
          </Trackpoint>
          <Trackpoint>
            <Time>2019-01-04T10:59:05.000Z</Time>
            <Position>
              <LatitudeDegrees>36.5024491958320140838623046875</LatitudeDegrees>
              <LongitudeDegrees>-5.40323722176253795623779296875</LongitudeDegrees>
            </Position>
            <AltitudeMeters>194</AltitudeMeters>
            <DistanceMeters>7253.8923182964</DistanceMeters>
          </Trackpoint>
          <Trackpoint>
            <Time>2019-01-04T10:59:06.000Z</Time>
            <Position>
              <LatitudeDegrees>36.5024386346340179443359375</LatitudeDegrees>
              <LongitudeDegrees>-5.40323068387806415557861328125</LongitudeDegrees>
            </Position>
            <AltitudeMeters>194</AltitudeMeters>
            <DistanceMeters>7255.2056136176</DistanceMeters>
          </Trackpoint>
          <Trackpoint>
            <Time>2019-01-04T10:59:07.000Z</Time>
            <Position>
              <LatitudeDegrees>36.50242748670279979705810546875</LatitudeDegrees>
              <LongitudeDegrees>-5.40321878157556056976318359375</LongitudeDegrees>
            </Position>
            <AltitudeMeters>193.8000030517578125</AltitudeMeters>
            <DistanceMeters>7256.8405150297</DistanceMeters>
          </Trackpoint>
          <Trackpoint>
            <Time>2019-01-04T10:59:08.000Z</Time>
            <Position>
              <LatitudeDegrees>36.5024183504283428192138671875</LatitudeDegrees>
              <LongitudeDegrees>-5.40321006439626216888427734375</LongitudeDegrees>
            </Position>
            <AltitudeMeters>193.8000030517578125</AltitudeMeters>
            <DistanceMeters>7258.1224954948</DistanceMeters>
          </Trackpoint>
          <Trackpoint>
            <Time>2019-01-04T10:59:09.000Z</Time>
            <Position>
              <LatitudeDegrees>36.50240980088710784912109375</LatitudeDegrees>
              <LongitudeDegrees>-5.40320671163499355316162109375</LongitudeDegrees>
            </Position>
            <AltitudeMeters>193.8000030517578125</AltitudeMeters>
            <DistanceMeters>7259.1191440832</DistanceMeters>
          </Trackpoint>
          <Trackpoint>
            <Time>2019-01-04T10:59:10.000Z</Time>
            <Position>
              <LatitudeDegrees>36.50240217335522174835205078125</LatitudeDegrees>
              <LongitudeDegrees>-5.40320386178791522979736328125</LongitudeDegrees>
            </Position>
            <AltitudeMeters>193.8000030517578125</AltitudeMeters>
            <DistanceMeters>7260.0003855792</DistanceMeters>
          </Trackpoint>
          <Trackpoint>
            <Time>2019-01-04T10:59:11.000Z</Time>
            <Position>
              <LatitudeDegrees>36.50239513255655765533447265625</LatitudeDegrees>
              <LongitudeDegrees>-5.403201095759868621826171875</LongitudeDegrees>
            </Position>
            <AltitudeMeters>193.8000030517578125</AltitudeMeters>
            <DistanceMeters>7260.8178362852</DistanceMeters>
          </Trackpoint>
          <Trackpoint>
            <Time>2019-01-04T10:59:12.000Z</Time>
            <Position>
              <LatitudeDegrees>36.5023905225098133087158203125</LatitudeDegrees>
              <LongitudeDegrees>-5.40320151485502719879150390625</LongitudeDegrees>
            </Position>
            <AltitudeMeters>193.600006103515625</AltitudeMeters>
            <DistanceMeters>7261.3295708032</DistanceMeters>
          </Trackpoint>
          <Trackpoint>
            <Time>2019-01-04T10:59:13.000Z</Time>
            <Position>
              <LatitudeDegrees>36.50238423608243465423583984375</LatitudeDegrees>
              <LongitudeDegrees>-5.40320369414985179901123046875</LongitudeDegrees>
            </Position>
            <AltitudeMeters>193.600006103515625</AltitudeMeters>
            <DistanceMeters>7262.0532726988</DistanceMeters>
          </Trackpoint>
          <Trackpoint>
            <Time>2019-01-04T10:59:14.000Z</Time>
            <Position>
              <LatitudeDegrees>36.50237937457859516143798828125</LatitudeDegrees>
              <LongitudeDegrees>-5.40320369414985179901123046875</LongitudeDegrees>
            </Position>
            <AltitudeMeters>193.600006103515625</AltitudeMeters>
            <DistanceMeters>7262.5908249718</DistanceMeters>
          </Trackpoint>
          <Trackpoint>
            <Time>2019-01-04T10:59:15.000Z</Time>
            <Position>
              <LatitudeDegrees>36.50237266905605792999267578125</LatitudeDegrees>
              <LongitudeDegrees>-5.40320553816854953765869140625</LongitudeDegrees>
            </Position>
            <AltitudeMeters>193.600006103515625</AltitudeMeters>
            <DistanceMeters>7263.3510386868</DistanceMeters>
          </Trackpoint>
          <Trackpoint>
            <Time>2019-01-04T10:59:16.000Z</Time>
            <Position>
              <LatitudeDegrees>36.5023635327816009521484375</LatitudeDegrees>
              <LongitudeDegrees>-5.40320704691112041473388671875</LongitudeDegrees>
            </Position>
            <AltitudeMeters>193.399993896484375</AltitudeMeters>
            <DistanceMeters>7264.3745077227</DistanceMeters>
          </Trackpoint>
          <Trackpoint>
            <Time>2019-01-04T10:59:17.000Z</Time>
            <Position>
              <LatitudeDegrees>36.50235020555555820465087890625</LatitudeDegrees>
              <LongitudeDegrees>-5.4032066278159618377685546875</LongitudeDegrees>
            </Position>
            <AltitudeMeters>193.399993896484375</AltitudeMeters>
            <DistanceMeters>7265.858872453</DistanceMeters>
          </Trackpoint>
          <Trackpoint>
            <Time>2019-01-04T10:59:18.000Z</Time>
            <Position>
              <LatitudeDegrees>36.5023392252624034881591796875</LatitudeDegrees>
              <LongitudeDegrees>-5.40320671163499355316162109375</LongitudeDegrees>
            </Position>
            <AltitudeMeters>193</AltitudeMeters>
            <DistanceMeters>7267.0832060226</DistanceMeters>
          </Trackpoint>
          <Trackpoint>
            <Time>2019-01-04T10:59:19.000Z</Time>
            <Position>
              <LatitudeDegrees>36.5023295022547245025634765625</LatitudeDegrees>
              <LongitudeDegrees>-5.403209812939167022705078125</LongitudeDegrees>
            </Position>
            <AltitudeMeters>192.8000030517578125</AltitudeMeters>
            <DistanceMeters>7268.1954651978</DistanceMeters>
          </Trackpoint>
          <Trackpoint>
            <Time>2019-01-04T10:59:20.000Z</Time>
            <Position>
              <LatitudeDegrees>36.50231902487576007843017578125</LatitudeDegrees>
              <LongitudeDegrees>-5.40321090258657932281494140625</LongitudeDegrees>
            </Position>
            <AltitudeMeters>192.600006103515625</AltitudeMeters>
            <DistanceMeters>7269.3670332152</DistanceMeters>
          </Trackpoint>
          <Trackpoint>
            <Time>2019-01-04T10:59:21.000Z</Time>
            <Position>
              <LatitudeDegrees>36.50230645202100276947021484375</LatitudeDegrees>
              <LongitudeDegrees>-5.40320880711078643798828125</LongitudeDegrees>
            </Position>
            <AltitudeMeters>192.600006103515625</AltitudeMeters>
            <DistanceMeters>7270.7765071659</DistanceMeters>
          </Trackpoint>
          <Trackpoint>
            <Time>2019-01-04T10:59:22.000Z</Time>
            <Position>
              <LatitudeDegrees>36.50229136459529399871826171875</LatitudeDegrees>
              <LongitudeDegrees>-5.40320687927305698394775390625</LongitudeDegrees>
            </Position>
            <AltitudeMeters>192.600006103515625</AltitudeMeters>
            <DistanceMeters>7272.4630640371</DistanceMeters>
          </Trackpoint>
          <Trackpoint>
            <Time>2019-01-04T10:59:23.000Z</Time>
            <Position>
              <LatitudeDegrees>36.50227778591215610504150390625</LatitudeDegrees>
              <LongitudeDegrees>-5.40320612490177154541015625</LongitudeDegrees>
            </Position>
            <AltitudeMeters>192.600006103515625</AltitudeMeters>
            <DistanceMeters>7273.9745564586</DistanceMeters>
          </Trackpoint>
          <Trackpoint>
            <Time>2019-01-04T10:59:24.000Z</Time>
            <Position>
              <LatitudeDegrees>36.50226957164704799652099609375</LatitudeDegrees>
              <LongitudeDegrees>-5.40320654399693012237548828125</LongitudeDegrees>
            </Position>
            <AltitudeMeters>192.600006103515625</AltitudeMeters>
            <DistanceMeters>7274.8860206833</DistanceMeters>
          </Trackpoint>
          <Trackpoint>
            <Time>2019-01-04T10:59:25.000Z</Time>
            <Position>
              <LatitudeDegrees>36.50226186029613018035888671875</LatitudeDegrees>
              <LongitudeDegrees>-5.40320352651178836822509765625</LongitudeDegrees>
            </Position>
            <AltitudeMeters>192.600006103515625</AltitudeMeters>
            <DistanceMeters>7275.7875232512</DistanceMeters>
          </Trackpoint>
          <Trackpoint>
            <Time>2019-01-04T10:59:26.000Z</Time>
            <Position>
              <LatitudeDegrees>36.50225180201232433319091796875</LatitudeDegrees>
              <LongitudeDegrees>-5.40320050902664661407470703125</LongitudeDegrees>
            </Position>
            <AltitudeMeters>192.8000030517578125</AltitudeMeters>
            <DistanceMeters>7276.9396609328</DistanceMeters>
          </Trackpoint>
          <Trackpoint>
            <Time>2019-01-04T10:59:27.000Z</Time>
            <Position>
              <LatitudeDegrees>36.502240486443042755126953125</LatitudeDegrees>
              <LongitudeDegrees>-5.40319547988474369049072265625</LongitudeDegrees>
            </Position>
            <AltitudeMeters>192.8000030517578125</AltitudeMeters>
            <DistanceMeters>7278.2801777034</DistanceMeters>
          </Trackpoint>
          <Trackpoint>
            <Time>2019-01-04T10:59:28.000Z</Time>
            <Position>
              <LatitudeDegrees>36.502228416502475738525390625</LatitudeDegrees>
              <LongitudeDegrees>-5.403188355267047882080078125</LongitudeDegrees>
            </Position>
            <AltitudeMeters>192.8000030517578125</AltitudeMeters>
            <DistanceMeters>7279.7675810545</DistanceMeters>
          </Trackpoint>
          <Trackpoint>
            <Time>2019-01-04T10:59:29.000Z</Time>
            <Position>
              <LatitudeDegrees>36.50221676565706729888916015625</LatitudeDegrees>
              <LongitudeDegrees>-5.40318424813449382781982421875</LongitudeDegrees>
            </Position>
            <AltitudeMeters>192.8000030517578125</AltitudeMeters>
            <DistanceMeters>7281.1181644253</DistanceMeters>
          </Trackpoint>
          <Trackpoint>
            <Time>2019-01-04T10:59:30.000Z</Time>
            <Position>
              <LatitudeDegrees>36.50220536626875400543212890625</LatitudeDegrees>
              <LongitudeDegrees>-5.403180979192256927490234375</LongitudeDegrees>
            </Position>
            <AltitudeMeters>192.8000030517578125</AltitudeMeters>
            <DistanceMeters>7282.4211050884</DistanceMeters>
          </Trackpoint>
          <Trackpoint>
            <Time>2019-01-04T10:59:31.000Z</Time>
            <Position>
              <LatitudeDegrees>36.5021927095949649810791015625</LatitudeDegrees>
              <LongitudeDegrees>-5.40317737497389316558837890625</LongitudeDegrees>
            </Position>
            <AltitudeMeters>192.8000030517578125</AltitudeMeters>
            <DistanceMeters>7283.8685088797</DistanceMeters>
          </Trackpoint>
          <Trackpoint>
            <Time>2019-01-04T10:59:32.000Z</Time>
            <Position>
              <LatitudeDegrees>36.50218239985406398773193359375</LatitudeDegrees>
              <LongitudeDegrees>-5.40317251347005367279052734375</LongitudeDegrees>
            </Position>
            <AltitudeMeters>192.8000030517578125</AltitudeMeters>
            <DistanceMeters>7285.1001958702</DistanceMeters>
          </Trackpoint>
          <Trackpoint>
            <Time>2019-01-04T10:59:33.000Z</Time>
            <Position>
              <LatitudeDegrees>36.50217049755156040191650390625</LatitudeDegrees>
              <LongitudeDegrees>-5.4031660594046115875244140625</LongitudeDegrees>
            </Position>
            <AltitudeMeters>193</AltitudeMeters>
            <DistanceMeters>7286.5475996615</DistanceMeters>
          </Trackpoint>
          <Trackpoint>
            <Time>2019-01-04T10:59:34.000Z</Time>
            <Position>
              <LatitudeDegrees>36.5021551586687564849853515625</LatitudeDegrees>
              <LongitudeDegrees>-5.40315859951078891754150390625</LongitudeDegrees>
            </Position>
            <AltitudeMeters>193</AltitudeMeters>
            <DistanceMeters>7288.3804085542</DistanceMeters>
          </Trackpoint>
          <Trackpoint>
            <Time>2019-01-04T10:59:35.000Z</Time>
            <Position>
              <LatitudeDegrees>36.50213981978595256805419921875</LatitudeDegrees>
              <LongitudeDegrees>-5.403149127960205078125</LongitudeDegrees>
            </Position>
            <AltitudeMeters>193</AltitudeMeters>
            <DistanceMeters>7290.2856882529</DistanceMeters>
          </Trackpoint>
          <Trackpoint>
            <Time>2019-01-04T10:59:36.000Z</Time>
            <Position>
              <LatitudeDegrees>36.50213009677827358245849609375</LatitudeDegrees>
              <LongitudeDegrees>-5.40314820595085620880126953125</LongitudeDegrees>
            </Position>
            <AltitudeMeters>193.1999969482421875</AltitudeMeters>
            <DistanceMeters>7291.3733187114</DistanceMeters>
          </Trackpoint>
          <Trackpoint>
            <Time>2019-01-04T10:59:37.000Z</Time>
            <Position>
              <LatitudeDegrees>36.5021221339702606201171875</LatitudeDegrees>
              <LongitudeDegrees>-5.40314099751412868499755859375</LongitudeDegrees>
            </Position>
            <AltitudeMeters>193</AltitudeMeters>
            <DistanceMeters>7292.469220243</DistanceMeters>
          </Trackpoint>
          <Trackpoint>
            <Time>2019-01-04T10:59:38.000Z</Time>
            <Position>
              <LatitudeDegrees>36.5021159313619136810302734375</LatitudeDegrees>
              <LongitudeDegrees>-5.40313647128641605377197265625</LongitudeDegrees>
            </Position>
            <AltitudeMeters>193</AltitudeMeters>
            <DistanceMeters>7293.2642707767</DistanceMeters>
          </Trackpoint>
          <Trackpoint>
            <Time>2019-01-04T10:59:39.000Z</Time>
            <Position>
              <LatitudeDegrees>36.5021078847348690032958984375</LatitudeDegrees>
              <LongitudeDegrees>-5.4031405784189701080322265625</LongitudeDegrees>
            </Position>
            <AltitudeMeters>193</AltitudeMeters>
            <DistanceMeters>7294.2333569184</DistanceMeters>
          </Trackpoint>
          <Trackpoint>
            <Time>2019-01-04T10:59:40.000Z</Time>
            <Position>
              <LatitudeDegrees>36.5020953118801116943359375</LatitudeDegrees>
              <LongitudeDegrees>-5.4031442664563655853271484375</LongitudeDegrees>
            </Position>
            <AltitudeMeters>193</AltitudeMeters>
            <DistanceMeters>7295.6682288393</DistanceMeters>
          </Trackpoint>
          <Trackpoint>
            <Time>2019-01-04T10:59:41.000Z</Time>
            <Position>
              <LatitudeDegrees>36.50208366103470325469970703125</LatitudeDegrees>
              <LongitudeDegrees>-5.40314267389476299285888671875</LongitudeDegrees>
            </Position>
            <AltitudeMeters>193</AltitudeMeters>
            <DistanceMeters>7296.9711695023</DistanceMeters>
          </Trackpoint>
          <Trackpoint>
            <Time>2019-01-04T10:59:42.000Z</Time>
            <Position>
              <LatitudeDegrees>36.5020760335028171539306640625</LatitudeDegrees>
              <LongitudeDegrees>-5.40313814766705036163330078125</LongitudeDegrees>
            </Position>
            <AltitudeMeters>193</AltitudeMeters>
            <DistanceMeters>7297.9118859801</DistanceMeters>
          </Trackpoint>
          <Trackpoint>
            <Time>2019-01-04T10:59:43.000Z</Time>
            <Position>
              <LatitudeDegrees>36.50206924416124820709228515625</LatitudeDegrees>
              <LongitudeDegrees>-5.4031301848590373992919921875</LongitudeDegrees>
            </Position>
            <AltitudeMeters>192.8000030517578125</AltitudeMeters>
            <DistanceMeters>7298.9528514806</DistanceMeters>
          </Trackpoint>
          <Trackpoint>
            <Time>2019-01-04T10:59:44.000Z</Time>
            <Position>
              <LatitudeDegrees>36.50205574929714202880859375</LatitudeDegrees>
              <LongitudeDegrees>-5.40312205441296100616455078125</LongitudeDegrees>
            </Position>
            <AltitudeMeters>192.8000030517578125</AltitudeMeters>
            <DistanceMeters>7300.6232686804</DistanceMeters>
          </Trackpoint>
          <Trackpoint>
            <Time>2019-01-04T10:59:45.000Z</Time>
            <Position>
              <LatitudeDegrees>36.50204367935657501220703125</LatitudeDegrees>
              <LongitudeDegrees>-5.40311585180461406707763671875</LongitudeDegrees>
            </Position>
            <AltitudeMeters>192.8000030517578125</AltitudeMeters>
            <DistanceMeters>7302.076897893</DistanceMeters>
          </Trackpoint>
          <Trackpoint>
            <Time>2019-01-04T10:59:46.000Z</Time>
            <Position>
              <LatitudeDegrees>36.50203186087310314178466796875</LatitudeDegrees>
              <LongitudeDegrees>-5.403111241757869720458984375</LongitudeDegrees>
            </Position>
            <AltitudeMeters>192.8000030517578125</AltitudeMeters>
            <DistanceMeters>7303.4539658119</DistanceMeters>
          </Trackpoint>
          <Trackpoint>
            <Time>2019-01-04T10:59:47.000Z</Time>
            <Position>
              <LatitudeDegrees>36.5020197071135044097900390625</LatitudeDegrees>
              <LongitudeDegrees>-5.40310964919626712799072265625</LongitudeDegrees>
            </Position>
            <AltitudeMeters>192.8000030517578125</AltitudeMeters>
            <DistanceMeters>7304.8112187708</DistanceMeters>
          </Trackpoint>
          <Trackpoint>
            <Time>2019-01-04T10:59:48.000Z</Time>
            <Position>
              <LatitudeDegrees>36.502010822296142578125</LatitudeDegrees>
              <LongitudeDegrees>-5.403108894824981689453125</LongitudeDegrees>
            </Position>
            <AltitudeMeters>193</AltitudeMeters>
            <DistanceMeters>7305.8078673593</DistanceMeters>
          </Trackpoint>
          <Trackpoint>
            <Time>2019-01-04T10:59:49.000Z</Time>
            <Position>
              <LatitudeDegrees>36.50200612843036651611328125</LatitudeDegrees>
              <LongitudeDegrees>-5.40310948155820369720458984375</LongitudeDegrees>
            </Position>
            <AltitudeMeters>193.1999969482421875</AltitudeMeters>
            <DistanceMeters>7306.3283501095</DistanceMeters>
          </Trackpoint>
          <Trackpoint>
            <Time>2019-01-04T10:59:50.000Z</Time>
            <Position>
              <LatitudeDegrees>36.50200185365974903106689453125</LatitudeDegrees>
              <LongitudeDegrees>-5.4031134210526943206787109375</LongitudeDegrees>
            </Position>
            <AltitudeMeters>193.1999969482421875</AltitudeMeters>
            <DistanceMeters>7306.9141341183</DistanceMeters>
          </Trackpoint>
          <Trackpoint>
            <Time>2019-01-04T10:59:51.000Z</Time>
            <Position>
              <LatitudeDegrees>36.50199749507009983062744140625</LatitudeDegrees>
              <LongitudeDegrees>-5.403110571205615997314453125</LongitudeDegrees>
            </Position>
            <AltitudeMeters>193.1999969482421875</AltitudeMeters>
            <DistanceMeters>7307.4516863913</DistanceMeters>
          </Trackpoint>
          <Trackpoint>
            <Time>2019-01-04T10:59:52.000Z</Time>
            <Position>
              <LatitudeDegrees>36.50199246592819690704345703125</LatitudeDegrees>
              <LongitudeDegrees>-5.40310981683433055877685546875</LongitudeDegrees>
            </Position>
            <AltitudeMeters>193.1999969482421875</AltitudeMeters>
            <DistanceMeters>7308.013872015</DistanceMeters>
          </Trackpoint>
          <Trackpoint>
            <Time>2019-01-04T10:59:53.000Z</Time>
            <Position>
              <LatitudeDegrees>36.50198626331984996795654296875</LatitudeDegrees>
              <LongitudeDegrees>-5.40311316959559917449951171875</LongitudeDegrees>
            </Position>
            <AltitudeMeters>193.1999969482421875</AltitudeMeters>
            <DistanceMeters>7308.7621131122</DistanceMeters>
          </Trackpoint>
          <Trackpoint>
            <Time>2019-01-04T10:59:54.000Z</Time>
            <Position>
              <LatitudeDegrees>36.50197855196893215179443359375</LatitudeDegrees>
              <LongitudeDegrees>-5.40311836637556552886962890625</LongitudeDegrees>
            </Position>
            <AltitudeMeters>193.1999969482421875</AltitudeMeters>
            <DistanceMeters>7309.7404730169</DistanceMeters>
          </Trackpoint>
          <Trackpoint>
            <Time>2019-01-04T10:59:55.000Z</Time>
            <Position>
              <LatitudeDegrees>36.50196832604706287384033203125</LatitudeDegrees>
              <LongitudeDegrees>-5.40311668999493122100830078125</LongitudeDegrees>
            </Position>
            <AltitudeMeters>193.1999969482421875</AltitudeMeters>
            <DistanceMeters>7310.8926106984</DistanceMeters>
          </Trackpoint>
          <Trackpoint>
            <Time>2019-01-04T10:59:56.000Z</Time>
            <Position>
              <LatitudeDegrees>36.501960195600986480712890625</LatitudeDegrees>
              <LongitudeDegrees>-5.40311769582331180572509765625</LongitudeDegrees>
            </Position>
            <AltitudeMeters>193.1999969482421875</AltitudeMeters>
            <DistanceMeters>7311.8040749231</DistanceMeters>
          </Trackpoint>
          <Trackpoint>
            <Time>2019-01-04T10:59:57.000Z</Time>
            <Position>
              <LatitudeDegrees>36.5019531548023223876953125</LatitudeDegrees>
              <LongitudeDegrees>-5.4031191207468509674072265625</LongitudeDegrees>
            </Position>
            <AltitudeMeters>193.1999969482421875</AltitudeMeters>
            <DistanceMeters>7312.5934260963</DistanceMeters>
          </Trackpoint>
          <Trackpoint>
            <Time>2019-01-04T10:59:58.000Z</Time>
            <Position>
              <LatitudeDegrees>36.50194703601300716400146484375</LatitudeDegrees>
              <LongitudeDegrees>-5.40311518125236034393310546875</LongitudeDegrees>
            </Position>
            <AltitudeMeters>193.1999969482421875</AltitudeMeters>
            <DistanceMeters>7313.3654267733</DistanceMeters>
          </Trackpoint>
          <Trackpoint>
            <Time>2019-01-04T10:59:59.000Z</Time>
            <Position>
              <LatitudeDegrees>36.50194301269948482513427734375</LatitudeDegrees>
              <LongitudeDegrees>-5.40311451070010662078857421875</LongitudeDegrees>
            </Position>
            <AltitudeMeters>193</AltitudeMeters>
            <DistanceMeters>7313.811141572</DistanceMeters>
          </Trackpoint>
          <Trackpoint>
            <Time>2019-01-04T11:00:00.000Z</Time>
            <Position>
              <LatitudeDegrees>36.5019335411489009857177734375</LatitudeDegrees>
              <LongitudeDegrees>-5.40311224758625030517578125</LongitudeDegrees>
            </Position>
            <AltitudeMeters>193</AltitudeMeters>
            <DistanceMeters>7314.886246118</DistanceMeters>
          </Trackpoint>
          <Trackpoint>
            <Time>2019-01-04T11:00:01.000Z</Time>
            <Position>
              <LatitudeDegrees>36.50192893110215663909912109375</LatitudeDegrees>
              <LongitudeDegrees>-5.40311199612915515899658203125</LongitudeDegrees>
            </Position>
            <AltitudeMeters>192.8000030517578125</AltitudeMeters>
            <DistanceMeters>7315.3890802262</DistanceMeters>
          </Trackpoint>
          <Trackpoint>
            <Time>2019-01-04T11:00:02.000Z</Time>
            <Position>
              <LatitudeDegrees>36.501922644674777984619140625</LatitudeDegrees>
              <LongitudeDegrees>-5.40311266668140888214111328125</LongitudeDegrees>
            </Position>
            <AltitudeMeters>192.8000030517578125</AltitudeMeters>
            <DistanceMeters>7316.0938172016</DistanceMeters>
          </Trackpoint>
          <Trackpoint>
            <Time>2019-01-04T11:00:03.000Z</Time>
            <Position>
              <LatitudeDegrees>36.501916609704494476318359375</LatitudeDegrees>
              <LongitudeDegrees>-5.4031156003475189208984375</LongitudeDegrees>
            </Position>
            <AltitudeMeters>192.8000030517578125</AltitudeMeters>
            <DistanceMeters>7316.8237312446</DistanceMeters>
          </Trackpoint>
          <Trackpoint>
            <Time>2019-01-04T11:00:04.000Z</Time>
            <Position>
              <LatitudeDegrees>36.5019100718200206756591796875</LatitudeDegrees>
              <LongitudeDegrees>-5.40311870165169239044189453125</LongitudeDegrees>
            </Position>
            <AltitudeMeters>192.600006103515625</AltitudeMeters>
            <DistanceMeters>7317.6015584245</DistanceMeters>
          </Trackpoint>
          <Trackpoint>
            <Time>2019-01-04T11:00:05.000Z</Time>
            <Position>
              <LatitudeDegrees>36.5019073896110057830810546875</LatitudeDegrees>
              <LongitudeDegrees>-5.4031271673738956451416015625</LongitudeDegrees>
            </Position>
            <AltitudeMeters>192.600006103515625</AltitudeMeters>
            <DistanceMeters>7318.4134670279</DistanceMeters>
          </Trackpoint>
          <Trackpoint>
            <Time>2019-01-04T11:00:06.000Z</Time>
            <Position>
              <LatitudeDegrees>36.50190479122102260589599609375</LatitudeDegrees>
              <LongitudeDegrees>-5.4031372256577014923095703125</LongitudeDegrees>
            </Position>
            <AltitudeMeters>192.399993896484375</AltitudeMeters>
            <DistanceMeters>7319.3637341716</DistanceMeters>
          </Trackpoint>
          <Trackpoint>
            <Time>2019-01-04T11:00:07.000Z</Time>
            <Position>
              <LatitudeDegrees>36.50190018117427825927734375</LatitudeDegrees>
              <LongitudeDegrees>-5.40314485318958759307861328125</LongitudeDegrees>
            </Position>
            <AltitudeMeters>192.399993896484375</AltitudeMeters>
            <DistanceMeters>7320.2242376687</DistanceMeters>
          </Trackpoint>
          <Trackpoint>
            <Time>2019-01-04T11:00:08.000Z</Time>
            <Position>
              <LatitudeDegrees>36.50189842097461223602294921875</LatitudeDegrees>
              <LongitudeDegrees>-5.40315088815987110137939453125</LongitudeDegrees>
            </Position>
            <AltitudeMeters>192.1999969482421875</AltitudeMeters>
            <DistanceMeters>7320.8022626062</DistanceMeters>
          </Trackpoint>
          <Trackpoint>
            <Time>2019-01-04T11:00:09.000Z</Time>
            <Position>
              <LatitudeDegrees>36.50189724750816822052001953125</LatitudeDegrees>
              <LongitudeDegrees>-5.40315591730177402496337890625</LongitudeDegrees>
            </Position>
            <AltitudeMeters>192.1999969482421875</AltitudeMeters>
            <DistanceMeters>7321.2868056771</DistanceMeters>
          </Trackpoint>
          <Trackpoint>
            <Time>2019-01-04T11:00:10.000Z</Time>
            <Position>
              <LatitudeDegrees>36.50189070962369441986083984375</LatitudeDegrees>
              <LongitudeDegrees>-5.40315809659659862518310546875</LongitudeDegrees>
            </Position>
            <AltitudeMeters>192</AltitudeMeters>
            <DistanceMeters>7322.0470193921</DistanceMeters>
          </Trackpoint>
          <Trackpoint>
            <Time>2019-01-04T11:00:11.000Z</Time>
            <Position>
              <LatitudeDegrees>36.50188668631017208099365234375</LatitudeDegrees>
              <LongitudeDegrees>-5.40316614322364330291748046875</LongitudeDegrees>
            </Position>
            <AltitudeMeters>191.8000030517578125</AltitudeMeters>
            <DistanceMeters>7322.8969641641</DistanceMeters>
          </Trackpoint>
          <Trackpoint>
            <Time>2019-01-04T11:00:12.000Z</Time>
            <Position>
              <LatitudeDegrees>36.501882076263427734375</LatitudeDegrees>
              <LongitudeDegrees>-5.40317838080227375030517578125</LongitudeDegrees>
            </Position>
            <AltitudeMeters>191.600006103515625</AltitudeMeters>
            <DistanceMeters>7324.1027179978</DistanceMeters>
          </Trackpoint>
          <Trackpoint>
            <Time>2019-01-04T11:00:13.000Z</Time>
            <Position>
              <LatitudeDegrees>36.501877047121524810791015625</LatitudeDegrees>
              <LongitudeDegrees>-5.40318869054317474365234375</LongitudeDegrees>
            </Position>
            <AltitudeMeters>191.399993896484375</AltitudeMeters>
            <DistanceMeters>7325.1778225438</DistanceMeters>
          </Trackpoint>
          <Trackpoint>
            <Time>2019-01-04T11:00:14.000Z</Time>
            <Position>
              <LatitudeDegrees>36.50187495164573192596435546875</LatitudeDegrees>
              <LongitudeDegrees>-5.403197742998600006103515625</LongitudeDegrees>
            </Position>
            <AltitudeMeters>191.1999969482421875</AltitudeMeters>
            <DistanceMeters>7326.017075761</DistanceMeters>
          </Trackpoint>
          <Trackpoint>
            <Time>2019-01-04T11:00:15.000Z</Time>
            <Position>
              <LatitudeDegrees>36.50187361054122447967529296875</LatitudeDegrees>
              <LongitudeDegrees>-5.40320989675819873809814453125</LongitudeDegrees>
            </Position>
            <AltitudeMeters>191</AltitudeMeters>
            <DistanceMeters>7327.117089508</DistanceMeters>
          </Trackpoint>
          <Trackpoint>
            <Time>2019-01-04T11:00:16.000Z</Time>
            <Position>
              <LatitudeDegrees>36.5018731914460659027099609375</LatitudeDegrees>
              <LongitudeDegrees>-5.40322414599359035491943359375</LongitudeDegrees>
            </Position>
            <AltitudeMeters>190.8000030517578125</AltitudeMeters>
            <DistanceMeters>7328.392006666</DistanceMeters>
          </Trackpoint>
          <Trackpoint>
            <Time>2019-01-04T11:00:17.000Z</Time>
            <Position>
              <LatitudeDegrees>36.501874029636383056640625</LatitudeDegrees>
              <LongitudeDegrees>-5.403233952820301055908203125</LongitudeDegrees>
            </Position>
            <AltitudeMeters>190.600006103515625</AltitudeMeters>
            <DistanceMeters>7329.273248162</DistanceMeters>
          </Trackpoint>
          <Trackpoint>
            <Time>2019-01-04T11:00:18.000Z</Time>
            <Position>
              <LatitudeDegrees>36.50187470018863677978515625</LatitudeDegrees>
              <LongitudeDegrees>-5.4032441787421703338623046875</LongitudeDegrees>
            </Position>
            <AltitudeMeters>190.399993896484375</AltitudeMeters>
            <DistanceMeters>7330.1847123867</DistanceMeters>
          </Trackpoint>
          <Trackpoint>
            <Time>2019-01-04T11:00:19.000Z</Time>
            <Position>
              <LatitudeDegrees>36.50187470018863677978515625</LatitudeDegrees>
              <LongitudeDegrees>-5.40325700305402278900146484375</LongitudeDegrees>
            </Position>
            <AltitudeMeters>190.1999969482421875</AltitudeMeters>
            <DistanceMeters>7331.3289855553</DistanceMeters>
          </Trackpoint>
          <Trackpoint>
            <Time>2019-01-04T11:00:20.000Z</Time>
            <Position>
              <LatitudeDegrees>36.501875706017017364501953125</LatitudeDegrees>
              <LongitudeDegrees>-5.40326739661395549774169921875</LongitudeDegrees>
            </Position>
            <AltitudeMeters>190</AltitudeMeters>
            <DistanceMeters>7332.2600534038</DistanceMeters>
          </Trackpoint>
          <Trackpoint>
            <Time>2019-01-04T11:00:21.000Z</Time>
            <Position>
              <LatitudeDegrees>36.50187796913087368011474609375</LatitudeDegrees>
              <LongitudeDegrees>-5.4032783769071102142333984375</LongitudeDegrees>
            </Position>
            <AltitudeMeters>190</AltitudeMeters>
            <DistanceMeters>7333.2702012337</DistanceMeters>
          </Trackpoint>
          <Trackpoint>
            <Time>2019-01-04T11:00:22.000Z</Time>
            <Position>
              <LatitudeDegrees>36.50188006460666656494140625</LatitudeDegrees>
              <LongitudeDegrees>-5.403294302523136138916015625</LongitudeDegrees>
            </Position>
            <AltitudeMeters>190</AltitudeMeters>
            <DistanceMeters>7334.7176050249</DistanceMeters>
          </Trackpoint>
          <Trackpoint>
            <Time>2019-01-04T11:00:23.000Z</Time>
            <Position>
              <LatitudeDegrees>36.501879729330539703369140625</LatitudeDegrees>
              <LongitudeDegrees>-5.4033051989972591400146484375</LongitudeDegrees>
            </Position>
            <AltitudeMeters>189.8000030517578125</AltitudeMeters>
            <DistanceMeters>7335.6959649296</DistanceMeters>
          </Trackpoint>
          <Trackpoint>
            <Time>2019-01-04T11:00:24.000Z</Time>
            <Position>
              <LatitudeDegrees>36.50187545455992221832275390625</LatitudeDegrees>
              <LongitudeDegrees>-5.40331115014851093292236328125</LongitudeDegrees>
            </Position>
            <AltitudeMeters>189.8000030517578125</AltitudeMeters>
            <DistanceMeters>7336.41340089</DistanceMeters>
          </Trackpoint>
          <Trackpoint>
            <Time>2019-01-04T11:00:25.000Z</Time>
            <Position>
              <LatitudeDegrees>36.50186774320900440216064453125</LatitudeDegrees>
              <LongitudeDegrees>-5.40331366471946239471435546875</LongitudeDegrees>
            </Position>
            <AltitudeMeters>189.8000030517578125</AltitudeMeters>
            <DistanceMeters>7337.3048304874</DistanceMeters>
          </Trackpoint>
          <Trackpoint>
            <Time>2019-01-04T11:00:26.000Z</Time>
            <Position>
              <LatitudeDegrees>36.5018570981919765472412109375</LatitudeDegrees>
              <LongitudeDegrees>-5.403314419090747833251953125</LongitudeDegrees>
            </Position>
            <AltitudeMeters>189.600006103515625</AltitudeMeters>
            <DistanceMeters>7338.4917137695</DistanceMeters>
          </Trackpoint>
          <Trackpoint>
            <Time>2019-01-04T11:00:27.000Z</Time>
            <Position>
              <LatitudeDegrees>36.501844860613346099853515625</LatitudeDegrees>
              <LongitudeDegrees>-5.40331341326236724853515625</LongitudeDegrees>
            </Position>
            <AltitudeMeters>189.600006103515625</AltitudeMeters>
            <DistanceMeters>7339.8589101065</DistanceMeters>
          </Trackpoint>
          <Trackpoint>
            <Time>2019-01-04T11:00:28.000Z</Time>
            <Position>
              <LatitudeDegrees>36.50183178484439849853515625</LatitudeDegrees>
              <LongitudeDegrees>-5.4033055342733860015869140625</LongitudeDegrees>
            </Position>
            <AltitudeMeters>189.600006103515625</AltitudeMeters>
            <DistanceMeters>7341.4771567406</DistanceMeters>
          </Trackpoint>
          <Trackpoint>
            <Time>2019-01-04T11:00:29.000Z</Time>
            <Position>
              <LatitudeDegrees>36.50181795470416545867919921875</LatitudeDegrees>
              <LongitudeDegrees>-5.40329639799892902374267578125</LongitudeDegrees>
            </Position>
            <AltitudeMeters>189.399993896484375</AltitudeMeters>
            <DistanceMeters>7343.2190251871</DistanceMeters>
          </Trackpoint>
          <Trackpoint>
            <Time>2019-01-04T11:00:30.000Z</Time>
            <Position>
              <LatitudeDegrees>36.5018031187355518341064453125</LatitudeDegrees>
              <LongitudeDegrees>-5.40329396724700927734375</LongitudeDegrees>
            </Position>
            <AltitudeMeters>189.399993896484375</AltitudeMeters>
            <DistanceMeters>7344.8840277302</DistanceMeters>
          </Trackpoint>
          <Trackpoint>
            <Time>2019-01-04T11:00:31.000Z</Time>
            <Position>
              <LatitudeDegrees>36.50179079733788967132568359375</LatitudeDegrees>
              <LongitudeDegrees>-5.403294302523136138916015625</LongitudeDegrees>
            </Position>
            <AltitudeMeters>189.399993896484375</AltitudeMeters>
            <DistanceMeters>7346.254522495</DistanceMeters>
          </Trackpoint>
          <Trackpoint>
            <Time>2019-01-04T11:00:32.000Z</Time>
            <Position>
              <LatitudeDegrees>36.5017789788544178009033203125</LatitudeDegrees>
              <LongitudeDegrees>-5.403291620314121246337890625</LongitudeDegrees>
            </Position>
            <AltitudeMeters>189.600006103515625</AltitudeMeters>
            <DistanceMeters>7347.591666891</DistanceMeters>
          </Trackpoint>
          <Trackpoint>
            <Time>2019-01-04T11:00:33.000Z</Time>
            <Position>
              <LatitudeDegrees>36.5017679147422313690185546875</LatitudeDegrees>
              <LongitudeDegrees>-5.4032904468476772308349609375</LongitudeDegrees>
            </Position>
            <AltitudeMeters>189.600006103515625</AltitudeMeters>
            <DistanceMeters>7348.8306636608</DistanceMeters>
          </Trackpoint>
          <Trackpoint>
            <Time>2019-01-04T11:00:34.000Z</Time>
            <Position>
              <LatitudeDegrees>36.50175743736326694488525390625</LatitudeDegrees>
              <LongitudeDegrees>-5.40329069830477237701416015625</LongitudeDegrees>
            </Position>
            <AltitudeMeters>189.8000030517578125</AltitudeMeters>
            <DistanceMeters>7349.9983714766</DistanceMeters>
          </Trackpoint>
          <Trackpoint>
            <Time>2019-01-04T11:00:35.000Z</Time>
            <Position>
              <LatitudeDegrees>36.50174729526042938232421875</LatitudeDegrees>
              <LongitudeDegrees>-5.40329329669475555419921875</LongitudeDegrees>
            </Position>
            <AltitudeMeters>190</AltitudeMeters>
            <DistanceMeters>7351.1544213517</DistanceMeters>
          </Trackpoint>
          <Trackpoint>
            <Time>2019-01-04T11:00:36.000Z</Time>
            <Position>
              <LatitudeDegrees>36.50173312984406948089599609375</LatitudeDegrees>
              <LongitudeDegrees>-5.403291285037994384765625</LongitudeDegrees>
            </Position>
            <AltitudeMeters>190</AltitudeMeters>
            <DistanceMeters>7352.744522419</DistanceMeters>
          </Trackpoint>
          <Trackpoint>
            <Time>2019-01-04T11:00:37.000Z</Time>
            <Position>
              <LatitudeDegrees>36.5017213113605976104736328125</LatitudeDegrees>
              <LongitudeDegrees>-5.403292290866374969482421875</LongitudeDegrees>
            </Position>
            <AltitudeMeters>190</AltitudeMeters>
            <DistanceMeters>7354.0612511979</DistanceMeters>
          </Trackpoint>
          <Trackpoint>
            <Time>2019-01-04T11:00:38.000Z</Time>
            <Position>
              <LatitudeDegrees>36.50170949287712574005126953125</LatitudeDegrees>
              <LongitudeDegrees>-5.40329036302864551544189453125</LongitudeDegrees>
            </Position>
            <AltitudeMeters>190</AltitudeMeters>
            <DistanceMeters>7355.3848201723</DistanceMeters>
          </Trackpoint>
          <Trackpoint>
            <Time>2019-01-04T11:00:39.000Z</Time>
            <Position>
              <LatitudeDegrees>36.50169507600367069244384765625</LatitudeDegrees>
              <LongitudeDegrees>-5.40328885428607463836669921875</LongitudeDegrees>
            </Position>
            <AltitudeMeters>189.600006103515625</AltitudeMeters>
            <DistanceMeters>7356.9946748054</DistanceMeters>
          </Trackpoint>
          <Trackpoint>
            <Time>2019-01-04T11:00:40.000Z</Time>
            <Position>
              <LatitudeDegrees>36.501681916415691375732421875</LatitudeDegrees>
              <LongitudeDegrees>-5.403288938105106353759765625</LongitudeDegrees>
            </Position>
            <AltitudeMeters>189.1999969482421875</AltitudeMeters>
            <DistanceMeters>7358.4606755535</DistanceMeters>
          </Trackpoint>
          <Trackpoint>
            <Time>2019-01-04T11:00:41.000Z</Time>
            <Position>
              <LatitudeDegrees>36.50166808627545833587646484375</LatitudeDegrees>
              <LongitudeDegrees>-5.40328927338123321533203125</LongitudeDegrees>
            </Position>
            <AltitudeMeters>188.8000030517578125</AltitudeMeters>
            <DistanceMeters>7359.9988172987</DistanceMeters>
          </Trackpoint>
          <Trackpoint>
            <Time>2019-01-04T11:00:42.000Z</Time>
            <Position>
              <LatitudeDegrees>36.50165484286844730377197265625</LatitudeDegrees>
              <LongitudeDegrees>-5.403295643627643585205078125</LongitudeDegrees>
            </Position>
            <AltitudeMeters>188.399993896484375</AltitudeMeters>
            <DistanceMeters>7361.5832292563</DistanceMeters>
          </Trackpoint>
          <Trackpoint>
            <Time>2019-01-04T11:00:43.000Z</Time>
            <Position>
              <LatitudeDegrees>36.50163858197629451751708984375</LatitudeDegrees>
              <LongitudeDegrees>-5.4032951407134532928466796875</LongitudeDegrees>
            </Position>
            <AltitudeMeters>188.1999969482421875</AltitudeMeters>
            <DistanceMeters>7363.3937313274</DistanceMeters>
          </Trackpoint>
          <Trackpoint>
            <Time>2019-01-04T11:00:44.000Z</Time>
            <Position>
              <LatitudeDegrees>36.50162751786410808563232421875</LatitudeDegrees>
              <LongitudeDegrees>-5.403302013874053955078125</LongitudeDegrees>
            </Position>
            <AltitudeMeters>188</AltitudeMeters>
            <DistanceMeters>7364.7707992462</DistanceMeters>
          </Trackpoint>
          <Trackpoint>
            <Time>2019-01-04T11:00:45.000Z</Time>
            <Position>
              <LatitudeDegrees>36.501617543399333953857421875</LatitudeDegrees>
              <LongitudeDegrees>-5.403309725224971771240234375</LongitudeDegrees>
            </Position>
            <AltitudeMeters>187.8000030517578125</AltitudeMeters>
            <DistanceMeters>7366.0806521099</DistanceMeters>
          </Trackpoint>
          <Trackpoint>
            <Time>2019-01-04T11:00:46.000Z</Time>
            <Position>
              <LatitudeDegrees>36.50160756893455982208251953125</LatitudeDegrees>
              <LongitudeDegrees>-5.40331802330911159515380859375</LongitudeDegrees>
            </Position>
            <AltitudeMeters>187.600006103515625</AltitudeMeters>
            <DistanceMeters>7367.4177965059</DistanceMeters>
          </Trackpoint>
          <Trackpoint>
            <Time>2019-01-04T11:00:47.000Z</Time>
            <Position>
              <LatitudeDegrees>36.50159264914691448211669921875</LatitudeDegrees>
              <LongitudeDegrees>-5.403322465717792510986328125</LongitudeDegrees>
            </Position>
            <AltitudeMeters>187.1999969482421875</AltitudeMeters>
            <DistanceMeters>7369.1229899304</DistanceMeters>
          </Trackpoint>
          <Trackpoint>
            <Time>2019-01-04T11:00:48.000Z</Time>
            <Position>
              <LatitudeDegrees>36.5015761367976665496826171875</LatitudeDegrees>
              <LongitudeDegrees>-5.403327159583568572998046875</LongitudeDegrees>
            </Position>
            <AltitudeMeters>187</AltitudeMeters>
            <DistanceMeters>7371.0044228859</DistanceMeters>
          </Trackpoint>
          <Trackpoint>
            <Time>2019-01-04T11:00:49.000Z</Time>
            <Position>
              <LatitudeDegrees>36.50156113319098949432373046875</LatitudeDegrees>
              <LongitudeDegrees>-5.40333059616386890411376953125</LongitudeDegrees>
            </Position>
            <AltitudeMeters>186.8000030517578125</AltitudeMeters>
            <DistanceMeters>7372.7016542743</DistanceMeters>
          </Trackpoint>
          <Trackpoint>
            <Time>2019-01-04T11:00:50.000Z</Time>
            <Position>
              <LatitudeDegrees>36.5015452913939952850341796875</LatitudeDegrees>
              <LongitudeDegrees>-5.4033316858112812042236328125</LongitudeDegrees>
            </Position>
            <AltitudeMeters>186.600006103515625</AltitudeMeters>
            <DistanceMeters>7374.4692533379</DistanceMeters>
          </Trackpoint>
          <Trackpoint>
            <Time>2019-01-04T11:00:51.000Z</Time>
            <Position>
              <LatitudeDegrees>36.50153112597763538360595703125</LatitudeDegrees>
              <LongitudeDegrees>-5.4033320210874080657958984375</LongitudeDegrees>
            </Position>
            <AltitudeMeters>186.399993896484375</AltitudeMeters>
            <DistanceMeters>7376.0479556843</DistanceMeters>
          </Trackpoint>
          <Trackpoint>
            <Time>2019-01-04T11:00:52.000Z</Time>
            <Position>
              <LatitudeDegrees>36.5015194751322269439697265625</LatitudeDegrees>
              <LongitudeDegrees>-5.4033336974680423736572265625</LongitudeDegrees>
            </Position>
            <AltitudeMeters>186.399993896484375</AltitudeMeters>
            <DistanceMeters>7377.3578085479</DistanceMeters>
          </Trackpoint>
          <Trackpoint>
            <Time>2019-01-04T11:00:53.000Z</Time>
            <Position>
              <LatitudeDegrees>36.5015053935348987579345703125</LatitudeDegrees>
              <LongitudeDegrees>-5.40333352982997894287109375</LongitudeDegrees>
            </Position>
            <AltitudeMeters>186.399993896484375</AltitudeMeters>
            <DistanceMeters>7378.9250292703</DistanceMeters>
          </Trackpoint>
          <Trackpoint>
            <Time>2019-01-04T11:00:54.000Z</Time>
            <Position>
              <LatitudeDegrees>36.5014919824898242950439453125</LatitudeDegrees>
              <LongitudeDegrees>-5.40333076380193233489990234375</LongitudeDegrees>
            </Position>
            <AltitudeMeters>186.399993896484375</AltitudeMeters>
            <DistanceMeters>7380.4335315951</DistanceMeters>
          </Trackpoint>
          <Trackpoint>
            <Time>2019-01-04T11:00:55.000Z</Time>
            <Position>
              <LatitudeDegrees>36.50147731415927410125732421875</LatitudeDegrees>
              <LongitudeDegrees>-5.4033169336616992950439453125</LongitudeDegrees>
            </Position>
            <AltitudeMeters>186.1999969482421875</AltitudeMeters>
            <DistanceMeters>7382.4804696669</DistanceMeters>
          </Trackpoint>
          <Trackpoint>
            <Time>2019-01-04T11:00:56.000Z</Time>
            <Position>
              <LatitudeDegrees>36.501465998589992523193359375</LatitudeDegrees>
              <LongitudeDegrees>-5.40330762974917888641357421875</LongitudeDegrees>
            </Position>
            <AltitudeMeters>185.8000030517578125</AltitudeMeters>
            <DistanceMeters>7383.9889719917</DistanceMeters>
          </Trackpoint>
          <Trackpoint>
            <Time>2019-01-04T11:00:57.000Z</Time>
            <Position>
              <LatitudeDegrees>36.50145300664007663726806640625</LatitudeDegrees>
              <LongitudeDegrees>-5.40329555980861186981201171875</LongitudeDegrees>
            </Position>
            <AltitudeMeters>185.600006103515625</AltitudeMeters>
            <DistanceMeters>7385.7919771276</DistanceMeters>
          </Trackpoint>
          <Trackpoint>
            <Time>2019-01-04T11:00:58.000Z</Time>
            <Position>
              <LatitudeDegrees>36.50143741630017757415771484375</LatitudeDegrees>
              <LongitudeDegrees>-5.4032807238399982452392578125</LongitudeDegrees>
            </Position>
            <AltitudeMeters>185.1999969482421875</AltitudeMeters>
            <DistanceMeters>7387.9775915581</DistanceMeters>
          </Trackpoint>
          <Trackpoint>
            <Time>2019-01-04T11:00:59.000Z</Time>
            <Position>
              <LatitudeDegrees>36.50142517872154712677001953125</LatitudeDegrees>
              <LongitudeDegrees>-5.403271503746509552001953125</LongitudeDegrees>
            </Position>
            <AltitudeMeters>185</AltitudeMeters>
            <DistanceMeters>7389.5733614529</DistanceMeters>
          </Trackpoint>
          <Trackpoint>
            <Time>2019-01-04T11:01:00.000Z</Time>
            <Position>
              <LatitudeDegrees>36.5014140307903289794921875</LatitudeDegrees>
              <LongitudeDegrees>-5.40326605550944805145263671875</LongitudeDegrees>
            </Position>
            <AltitudeMeters>184.8000030517578125</AltitudeMeters>
            <DistanceMeters>7390.9071249475</DistanceMeters>
          </Trackpoint>
          <Trackpoint>
            <Time>2019-01-04T11:01:01.000Z</Time>
            <Position>
              <LatitudeDegrees>36.50140237994492053985595703125</LatitudeDegrees>
              <LongitudeDegrees>-5.403260774910449981689453125</LongitudeDegrees>
            </Position>
            <AltitudeMeters>184.600006103515625</AltitudeMeters>
            <DistanceMeters>7392.2907347935</DistanceMeters>
          </Trackpoint>
          <Trackpoint>
            <Time>2019-01-04T11:01:02.000Z</Time>
            <Position>
              <LatitudeDegrees>36.50139181874692440032958984375</LatitudeDegrees>
              <LongitudeDegrees>-5.40325448848307132720947265625</LongitudeDegrees>
            </Position>
            <AltitudeMeters>184.1999969482421875</AltitudeMeters>
            <DistanceMeters>7393.5936754566</DistanceMeters>
          </Trackpoint>
          <Trackpoint>
            <Time>2019-01-04T11:01:03.000Z</Time>
            <Position>
              <LatitudeDegrees>36.50138427503407001495361328125</LatitudeDegrees>
              <LongitudeDegrees>-5.4032525606453418731689453125</LongitudeDegrees>
            </Position>
            <AltitudeMeters>183.8000030517578125</AltitudeMeters>
            <DistanceMeters>7394.4541789536</DistanceMeters>
          </Trackpoint>
          <Trackpoint>
            <Time>2019-01-04T11:01:04.000Z</Time>
            <Position>
              <LatitudeDegrees>36.50137505494058132171630859375</LatitudeDegrees>
              <LongitudeDegrees>-5.40325029753148555755615234375</LongitudeDegrees>
            </Position>
            <AltitudeMeters>183.600006103515625</AltitudeMeters>
            <DistanceMeters>7395.5037833201</DistanceMeters>
          </Trackpoint>
          <Trackpoint>
            <Time>2019-01-04T11:01:05.000Z</Time>
            <Position>
              <LatitudeDegrees>36.5013585425913333892822265625</LatitudeDegrees>
              <LongitudeDegrees>-5.40324325673282146453857421875</LongitudeDegrees>
            </Position>
            <AltitudeMeters>183.399993896484375</AltitudeMeters>
            <DistanceMeters>7397.4466090852</DistanceMeters>
          </Trackpoint>
          <Trackpoint>
            <Time>2019-01-04T11:01:06.000Z</Time>
            <Position>
              <LatitudeDegrees>36.50134094059467315673828125</LatitudeDegrees>
              <LongitudeDegrees>-5.40323437191545963287353515625</LongitudeDegrees>
            </Position>
            <AltitudeMeters>183.1999969482421875</AltitudeMeters>
            <DistanceMeters>7399.5629545004</DistanceMeters>
          </Trackpoint>
          <Trackpoint>
            <Time>2019-01-04T11:01:07.000Z</Time>
            <Position>
              <LatitudeDegrees>36.50132887065410614013671875</LatitudeDegrees>
              <LongitudeDegrees>-5.40322934277355670928955078125</LongitudeDegrees>
            </Position>
            <AltitudeMeters>183.1999969482421875</AltitudeMeters>
            <DistanceMeters>7400.9851841314</DistanceMeters>
          </Trackpoint>
          <Trackpoint>
            <Time>2019-01-04T11:01:08.000Z</Time>
            <Position>
              <LatitudeDegrees>36.501315794885158538818359375</LatitudeDegrees>
              <LongitudeDegrees>-5.4032223857939243316650390625</LongitudeDegrees>
            </Position>
            <AltitudeMeters>183</AltitudeMeters>
            <DistanceMeters>7402.569596089</DistanceMeters>
          </Trackpoint>
          <Trackpoint>
            <Time>2019-01-04T11:01:09.000Z</Time>
            <Position>
              <LatitudeDegrees>36.50130732916295528411865234375</LatitudeDegrees>
              <LongitudeDegrees>-5.4032146744430065155029296875</LongitudeDegrees>
            </Position>
            <AltitudeMeters>182.8000030517578125</AltitudeMeters>
            <DistanceMeters>7403.7373039048</DistanceMeters>
          </Trackpoint>
          <Trackpoint>
            <Time>2019-01-04T11:01:10.000Z</Time>
            <Position>
              <LatitudeDegrees>36.50130079127848148345947265625</LatitudeDegrees>
              <LongitudeDegrees>-5.4032109864056110382080078125</LongitudeDegrees>
            </Position>
            <AltitudeMeters>182.600006103515625</AltitudeMeters>
            <DistanceMeters>7404.5323544385</DistanceMeters>
          </Trackpoint>
          <Trackpoint>
            <Time>2019-01-04T11:01:11.000Z</Time>
            <Position>
              <LatitudeDegrees>36.50129475630819797515869140625</LatitudeDegrees>
              <LongitudeDegrees>-5.403205789625644683837890625</LongitudeDegrees>
            </Position>
            <AltitudeMeters>182.399993896484375</AltitudeMeters>
            <DistanceMeters>7405.3498051445</DistanceMeters>
          </Trackpoint>
          <Trackpoint>
            <Time>2019-01-04T11:01:12.000Z</Time>
            <Position>
              <LatitudeDegrees>36.50128872133791446685791015625</LatitudeDegrees>
              <LongitudeDegrees>-5.40320402942597866058349609375</LongitudeDegrees>
            </Position>
            <AltitudeMeters>182.399993896484375</AltitudeMeters>
            <DistanceMeters>7406.0416100676</DistanceMeters>
          </Trackpoint>
          <Trackpoint>
            <Time>2019-01-04T11:01:13.000Z</Time>
            <Position>
              <LatitudeDegrees>36.501280255615711212158203125</LatitudeDegrees>
              <LongitudeDegrees>-5.4032042808830738067626953125</LongitudeDegrees>
            </Position>
            <AltitudeMeters>182.1999969482421875</AltitudeMeters>
            <DistanceMeters>7406.9823265453</DistanceMeters>
          </Trackpoint>
          <Trackpoint>
            <Time>2019-01-04T11:01:14.000Z</Time>
            <Position>
              <LatitudeDegrees>36.50127732194960117340087890625</LatitudeDegrees>
              <LongitudeDegrees>-5.40320822037756443023681640625</LongitudeDegrees>
            </Position>
            <AltitudeMeters>182.1999969482421875</AltitudeMeters>
            <DistanceMeters>7407.4668696162</DistanceMeters>
          </Trackpoint>
          <Trackpoint>
            <Time>2019-01-04T11:01:15.000Z</Time>
            <Position>
              <LatitudeDegrees>36.501275561749935150146484375</LatitudeDegrees>
              <LongitudeDegrees>-5.4032133333384990692138671875</LongitudeDegrees>
            </Position>
            <AltitudeMeters>182</AltitudeMeters>
            <DistanceMeters>7407.9697037245</DistanceMeters>
          </Trackpoint>
          <Trackpoint>
            <Time>2019-01-04T11:01:16.000Z</Time>
            <Position>
              <LatitudeDegrees>36.5012705326080322265625</LatitudeDegrees>
              <LongitudeDegrees>-5.403217859566211700439453125</LongitudeDegrees>
            </Position>
            <AltitudeMeters>181.8000030517578125</AltitudeMeters>
            <DistanceMeters>7408.6549511069</DistanceMeters>
          </Trackpoint>
          <Trackpoint>
            <Time>2019-01-04T11:01:17.000Z</Time>
            <Position>
              <LatitudeDegrees>36.50126441381871700286865234375</LatitudeDegrees>
              <LongitudeDegrees>-5.403223894536495208740234375</LongitudeDegrees>
            </Position>
            <AltitudeMeters>181.600006103515625</AltitudeMeters>
            <DistanceMeters>7409.5258853301</DistanceMeters>
          </Trackpoint>
          <Trackpoint>
            <Time>2019-01-04T11:01:18.000Z</Time>
            <Position>
              <LatitudeDegrees>36.50126089341938495635986328125</LatitudeDegrees>
              <LongitudeDegrees>-5.40322783403098583221435546875</LongitudeDegrees>
            </Position>
            <AltitudeMeters>181.1999969482421875</AltitudeMeters>
            <DistanceMeters>7410.0549716839</DistanceMeters>
          </Trackpoint>
          <Trackpoint>
            <Time>2019-01-04T11:01:19.000Z</Time>
            <Position>
              <LatitudeDegrees>36.501256786286830902099609375</LatitudeDegrees>
              <LongitudeDegrees>-5.40322959423065185546875</LongitudeDegrees>
            </Position>
            <AltitudeMeters>181</AltitudeMeters>
            <DistanceMeters>7410.5395147548</DistanceMeters>
          </Trackpoint>
          <Trackpoint>
            <Time>2019-01-04T11:01:20.000Z</Time>
            <Position>
              <LatitudeDegrees>36.50124932639300823211669921875</LatitudeDegrees>
              <LongitudeDegrees>-5.4032297618687152862548828125</LongitudeDegrees>
            </Position>
            <AltitudeMeters>180.8000030517578125</AltitudeMeters>
            <DistanceMeters>7411.3679384446</DistanceMeters>
          </Trackpoint>
          <Trackpoint>
            <Time>2019-01-04T11:01:21.000Z</Time>
            <Position>
              <LatitudeDegrees>36.5012411959469318389892578125</LatitudeDegrees>
              <LongitudeDegrees>-5.4032300971448421478271484375</LongitudeDegrees>
            </Position>
            <AltitudeMeters>180.600006103515625</AltitudeMeters>
            <DistanceMeters>7412.2694410125</DistanceMeters>
          </Trackpoint>
          <Trackpoint>
            <Time>2019-01-04T11:01:22.000Z</Time>
            <Position>
              <LatitudeDegrees>36.50123222731053829193115234375</LatitudeDegrees>
              <LongitudeDegrees>-5.403225235641002655029296875</LongitudeDegrees>
            </Position>
            <AltitudeMeters>180.1999969482421875</AltitudeMeters>
            <DistanceMeters>7413.3570714709</DistanceMeters>
          </Trackpoint>
          <Trackpoint>
            <Time>2019-01-04T11:01:23.000Z</Time>
            <Position>
              <LatitudeDegrees>36.50122560560703277587890625</LatitudeDegrees>
              <LongitudeDegrees>-5.40321685373783111572265625</LongitudeDegrees>
            </Position>
            <AltitudeMeters>180</AltitudeMeters>
            <DistanceMeters>7414.4066758374</DistanceMeters>
          </Trackpoint>
          <Trackpoint>
            <Time>2019-01-04T11:01:24.000Z</Time>
            <Position>
              <LatitudeDegrees>36.50122099556028842926025390625</LatitudeDegrees>
              <LongitudeDegrees>-5.4032153449952602386474609375</LongitudeDegrees>
            </Position>
            <AltitudeMeters>179.8000030517578125</AltitudeMeters>
            <DistanceMeters>7414.9442281104</DistanceMeters>
          </Trackpoint>
          <Trackpoint>
            <Time>2019-01-04T11:01:25.000Z</Time>
            <Position>
              <LatitudeDegrees>36.50121596641838550567626953125</LatitudeDegrees>
              <LongitudeDegrees>-5.4032093100249767303466796875</LongitudeDegrees>
            </Position>
            <AltitudeMeters>179.600006103515625</AltitudeMeters>
            <DistanceMeters>7415.7162287874</DistanceMeters>
          </Trackpoint>
          <Trackpoint>
            <Time>2019-01-04T11:01:26.000Z</Time>
            <Position>
              <LatitudeDegrees>36.5012090094387531280517578125</LatitudeDegrees>
              <LongitudeDegrees>-5.40320386178791522979736328125</LongitudeDegrees>
            </Position>
            <AltitudeMeters>179.399993896484375</AltitudeMeters>
            <DistanceMeters>7416.6276930121</DistanceMeters>
          </Trackpoint>
          <Trackpoint>
            <Time>2019-01-04T11:01:27.000Z</Time>
            <Position>
              <LatitudeDegrees>36.5011972747743129730224609375</LatitudeDegrees>
              <LongitudeDegrees>-5.403192043304443359375</LongitudeDegrees>
            </Position>
            <AltitudeMeters>179.1999969482421875</AltitudeMeters>
            <DistanceMeters>7418.3088872088</DistanceMeters>
          </Trackpoint>
          <Trackpoint>
            <Time>2019-01-04T11:01:28.000Z</Time>
            <Position>
              <LatitudeDegrees>36.50118797086179256439208984375</LatitudeDegrees>
              <LongitudeDegrees>-5.40318064391613006591796875</LongitudeDegrees>
            </Position>
            <AltitudeMeters>179.1999969482421875</AltitudeMeters>
            <DistanceMeters>7419.7594070506</DistanceMeters>
          </Trackpoint>
          <Trackpoint>
            <Time>2019-01-04T11:01:29.000Z</Time>
            <Position>
              <LatitudeDegrees>36.50117472745478153228759765625</LatitudeDegrees>
              <LongitudeDegrees>-5.40317066945135593414306640625</LongitudeDegrees>
            </Position>
            <AltitudeMeters>179</AltitudeMeters>
            <DistanceMeters>7421.4804140446</DistanceMeters>
          </Trackpoint>
          <Trackpoint>
            <Time>2019-01-04T11:01:30.000Z</Time>
            <Position>
              <LatitudeDegrees>36.501165926456451416015625</LatitudeDegrees>
              <LongitudeDegrees>-5.4031784646213054656982421875</LongitudeDegrees>
            </Position>
            <AltitudeMeters>179</AltitudeMeters>
            <DistanceMeters>7422.6824174685</DistanceMeters>
          </Trackpoint>
          <Trackpoint>
            <Time>2019-01-04T11:01:31.000Z</Time>
            <Position>
              <LatitudeDegrees>36.5011550299823284149169921875</LatitudeDegrees>
              <LongitudeDegrees>-5.40318173356354236602783203125</LongitudeDegrees>
            </Position>
            <AltitudeMeters>179.1999969482421875</AltitudeMeters>
            <DistanceMeters>7423.9322987528</DistanceMeters>
          </Trackpoint>
          <Trackpoint>
            <Time>2019-01-04T11:01:32.000Z</Time>
            <Position>
              <LatitudeDegrees>36.50114648044109344482421875</LatitudeDegrees>
              <LongitudeDegrees>-5.40318408049643039703369140625</LongitudeDegrees>
            </Position>
            <AltitudeMeters>179</AltitudeMeters>
            <DistanceMeters>7424.9060328164</DistanceMeters>
          </Trackpoint>
          <Trackpoint>
            <Time>2019-01-04T11:01:33.000Z</Time>
            <Position>
              <LatitudeDegrees>36.50113734416663646697998046875</LatitudeDegrees>
              <LongitudeDegrees>-5.40318676270544528961181640625</LongitudeDegrees>
            </Position>
            <AltitudeMeters>179</AltitudeMeters>
            <DistanceMeters>7425.9513266745</DistanceMeters>
          </Trackpoint>
          <Trackpoint>
            <Time>2019-01-04T11:01:34.000Z</Time>
            <Position>
              <LatitudeDegrees>36.50112678296864032745361328125</LatitudeDegrees>
              <LongitudeDegrees>-5.40319246239960193634033203125</LongitudeDegrees>
            </Position>
            <AltitudeMeters>179.1999969482421875</AltitudeMeters>
            <DistanceMeters>7427.2333071395</DistanceMeters>
          </Trackpoint>
          <Trackpoint>
            <Time>2019-01-04T11:01:35.000Z</Time>
            <Position>
              <LatitudeDegrees>36.50111856870353221893310546875</LatitudeDegrees>
              <LongitudeDegrees>-5.40319807827472686767578125</LongitudeDegrees>
            </Position>
            <AltitudeMeters>179.1999969482421875</AltitudeMeters>
            <DistanceMeters>7428.2742726401</DistanceMeters>
          </Trackpoint>
          <Trackpoint>
            <Time>2019-01-04T11:01:36.000Z</Time>
            <Position>
              <LatitudeDegrees>36.50110968388617038726806640625</LatitudeDegrees>
              <LongitudeDegrees>-5.40320503525435924530029296875</LongitudeDegrees>
            </Position>
            <AltitudeMeters>179.1999969482421875</AltitudeMeters>
            <DistanceMeters>7429.4458406575</DistanceMeters>
          </Trackpoint>
          <Trackpoint>
            <Time>2019-01-04T11:01:37.000Z</Time>
            <Position>
              <LatitudeDegrees>36.50109945796430110931396484375</LatitudeDegrees>
              <LongitudeDegrees>-5.403210818767547607421875</LongitudeDegrees>
            </Position>
            <AltitudeMeters>179</AltitudeMeters>
            <DistanceMeters>7430.6993291103</DistanceMeters>
          </Trackpoint>
          <Trackpoint>
            <Time>2019-01-04T11:01:38.000Z</Time>
            <Position>
              <LatitudeDegrees>36.50108990259468555450439453125</LatitudeDegrees>
              <LongitudeDegrees>-5.403217859566211700439453125</LongitudeDegrees>
            </Position>
            <AltitudeMeters>179</AltitudeMeters>
            <DistanceMeters>7431.9346763971</DistanceMeters>
          </Trackpoint>
          <Trackpoint>
            <Time>2019-01-04T11:01:39.000Z</Time>
            <Position>
              <LatitudeDegrees>36.5010814368724822998046875</LatitudeDegrees>
              <LongitudeDegrees>-5.4032163508236408233642578125</LongitudeDegrees>
            </Position>
            <AltitudeMeters>178.8000030517578125</AltitudeMeters>
            <DistanceMeters>7432.8849435408</DistanceMeters>
          </Trackpoint>
          <Trackpoint>
            <Time>2019-01-04T11:01:40.000Z</Time>
            <Position>
              <LatitudeDegrees>36.5010738931596279144287109375</LatitudeDegrees>
              <LongitudeDegrees>-5.4032156802713871002197265625</LongitudeDegrees>
            </Position>
            <AltitudeMeters>178.8000030517578125</AltitudeMeters>
            <DistanceMeters>7433.729559453</DistanceMeters>
          </Trackpoint>
          <Trackpoint>
            <Time>2019-01-04T11:01:41.000Z</Time>
            <Position>
              <LatitudeDegrees>36.50106693617999553680419921875</LatitudeDegrees>
              <LongitudeDegrees>-5.40321224369108676910400390625</LongitudeDegrees>
            </Position>
            <AltitudeMeters>178.8000030517578125</AltitudeMeters>
            <DistanceMeters>7434.5579831427</DistanceMeters>
          </Trackpoint>
          <Trackpoint>
            <Time>2019-01-04T11:01:42.000Z</Time>
            <Position>
              <LatitudeDegrees>36.50105821900069713592529296875</LatitudeDegrees>
              <LongitudeDegrees>-5.4032041132450103759765625</LongitudeDegrees>
            </Position>
            <AltitudeMeters>178.8000030517578125</AltitudeMeters>
            <DistanceMeters>7435.7749188587</DistanceMeters>
          </Trackpoint>
          <Trackpoint>
            <Time>2019-01-04T11:01:43.000Z</Time>
            <Position>
              <LatitudeDegrees>36.5010464005172252655029296875</LatitudeDegrees>
              <LongitudeDegrees>-5.403200425207614898681640625</LongitudeDegrees>
            </Position>
            <AltitudeMeters>179</AltitudeMeters>
            <DistanceMeters>7437.1288411305</DistanceMeters>
          </Trackpoint>
          <Trackpoint>
            <Time>2019-01-04T11:01:44.000Z</Time>
            <Position>
              <LatitudeDegrees>36.501037515699863433837890625</LatitudeDegrees>
              <LongitudeDegrees>-5.40319832973182201385498046875</LongitudeDegrees>
            </Position>
            <AltitudeMeters>179</AltitudeMeters>
            <DistanceMeters>7438.134509347</DistanceMeters>
          </Trackpoint>
          <Trackpoint>
            <Time>2019-01-04T11:01:45.000Z</Time>
            <Position>
              <LatitudeDegrees>36.50102653540670871734619140625</LatitudeDegrees>
              <LongitudeDegrees>-5.40319816209375858306884765625</LongitudeDegrees>
            </Position>
            <AltitudeMeters>179.1999969482421875</AltitudeMeters>
            <DistanceMeters>7439.3588429166</DistanceMeters>
          </Trackpoint>
          <Trackpoint>
            <Time>2019-01-04T11:01:46.000Z</Time>
            <Position>
              <LatitudeDegrees>36.50101714767515659332275390625</LatitudeDegrees>
              <LongitudeDegrees>-5.4031962342560291290283203125</LongitudeDegrees>
            </Position>
            <AltitudeMeters>179.1999969482421875</AltitudeMeters>
            <DistanceMeters>7440.4127401614</DistanceMeters>
          </Trackpoint>
          <Trackpoint>
            <Time>2019-01-04T11:01:47.000Z</Time>
            <Position>
              <LatitudeDegrees>36.501009352505207061767578125</LatitudeDegrees>
              <LongitudeDegrees>-5.40319673717021942138671875</LongitudeDegrees>
            </Position>
            <AltitudeMeters>179.399993896484375</AltitudeMeters>
            <DistanceMeters>7441.2732436585</DistanceMeters>
          </Trackpoint>
          <Trackpoint>
            <Time>2019-01-04T11:01:48.000Z</Time>
            <Position>
              <LatitudeDegrees>36.5010004676878452301025390625</LatitudeDegrees>
              <LongitudeDegrees>-5.40319397114217281341552734375</LongitudeDegrees>
            </Position>
            <AltitudeMeters>179.399993896484375</AltitudeMeters>
            <DistanceMeters>7442.2878513238</DistanceMeters>
          </Trackpoint>
          <Trackpoint>
            <Time>2019-01-04T11:01:49.000Z</Time>
            <Position>
              <LatitudeDegrees>36.50099133141338825225830078125</LatitudeDegrees>
              <LongitudeDegrees>-5.4031915403902530670166015625</LongitudeDegrees>
            </Position>
            <AltitudeMeters>179.600006103515625</AltitudeMeters>
            <DistanceMeters>7443.3288168244</DistanceMeters>
          </Trackpoint>
          <Trackpoint>
            <Time>2019-01-04T11:01:50.000Z</Time>
            <Position>
              <LatitudeDegrees>36.50098018348217010498046875</LatitudeDegrees>
              <LongitudeDegrees>-5.403189361095428466796875</LongitudeDegrees>
            </Position>
            <AltitudeMeters>179.8000030517578125</AltitudeMeters>
            <DistanceMeters>7444.5894886509</DistanceMeters>
          </Trackpoint>
          <Trackpoint>
            <Time>2019-01-04T11:01:51.000Z</Time>
            <Position>
              <LatitudeDegrees>36.5009682811796665191650390625</LatitudeDegrees>
              <LongitudeDegrees>-5.40318726561963558197021484375</LongitudeDegrees>
            </Position>
            <AltitudeMeters>180.1999969482421875</AltitudeMeters>
            <DistanceMeters>7445.9266330469</DistanceMeters>
          </Trackpoint>
          <Trackpoint>
            <Time>2019-01-04T11:01:52.000Z</Time>
            <Position>
              <LatitudeDegrees>36.500961743295192718505859375</LatitudeDegrees>
              <LongitudeDegrees>-5.403189696371555328369140625</LongitudeDegrees>
            </Position>
            <AltitudeMeters>180.399993896484375</AltitudeMeters>
            <DistanceMeters>7446.6868467619</DistanceMeters>
          </Trackpoint>
          <Trackpoint>
            <Time>2019-01-04T11:01:53.000Z</Time>
            <Position>
              <LatitudeDegrees>36.50095210410654544830322265625</LatitudeDegrees>
              <LongitudeDegrees>-5.403193719685077667236328125</LongitudeDegrees>
            </Position>
            <AltitudeMeters>180.600006103515625</AltitudeMeters>
            <DistanceMeters>7447.8192207527</DistanceMeters>
          </Trackpoint>
          <Trackpoint>
            <Time>2019-01-04T11:01:54.000Z</Time>
            <Position>
              <LatitudeDegrees>36.50094137527048587799072265625</LatitudeDegrees>
              <LongitudeDegrees>-5.40319514460861682891845703125</LongitudeDegrees>
            </Position>
            <AltitudeMeters>180.8000030517578125</AltitudeMeters>
            <DistanceMeters>7449.0212241766</DistanceMeters>
          </Trackpoint>
          <Trackpoint>
            <Time>2019-01-04T11:01:55.000Z</Time>
            <Position>
              <LatitudeDegrees>36.50093324482440948486328125</LatitudeDegrees>
              <LongitudeDegrees>-5.40319447405636310577392578125</LongitudeDegrees>
            </Position>
            <AltitudeMeters>181</AltitudeMeters>
            <DistanceMeters>7449.9326884012</DistanceMeters>
          </Trackpoint>
          <Trackpoint>
            <Time>2019-01-04T11:01:56.000Z</Time>
            <Position>
              <LatitudeDegrees>36.500926874577999114990234375</LatitudeDegrees>
              <LongitudeDegrees>-5.40319397114217281341552734375</LongitudeDegrees>
            </Position>
            <AltitudeMeters>181.1999969482421875</AltitudeMeters>
            <DistanceMeters>7450.6438032167</DistanceMeters>
          </Trackpoint>
          <Trackpoint>
            <Time>2019-01-04T11:01:57.000Z</Time>
            <Position>
              <LatitudeDegrees>36.50092008523643016815185546875</LatitudeDegrees>
              <LongitudeDegrees>-5.403193049132823944091796875</LongitudeDegrees>
            </Position>
            <AltitudeMeters>181.399993896484375</AltitudeMeters>
            <DistanceMeters>7451.4040169317</DistanceMeters>
          </Trackpoint>
          <Trackpoint>
            <Time>2019-01-04T11:01:58.000Z</Time>
            <Position>
              <LatitudeDegrees>36.50091405026614665985107421875</LatitudeDegrees>
              <LongitudeDegrees>-5.40318869054317474365234375</LongitudeDegrees>
            </Position>
            <AltitudeMeters>181.8000030517578125</AltitudeMeters>
            <DistanceMeters>7452.1818441116</DistanceMeters>
          </Trackpoint>
          <Trackpoint>
            <Time>2019-01-04T11:01:59.000Z</Time>
            <Position>
              <LatitudeDegrees>36.5009092725813388824462890625</LatitudeDegrees>
              <LongitudeDegrees>-5.40318441577255725860595703125</LongitudeDegrees>
            </Position>
            <AltitudeMeters>182.1999969482421875</AltitudeMeters>
            <DistanceMeters>7452.840208501</DistanceMeters>
          </Trackpoint>
          <Trackpoint>
            <Time>2019-01-04T11:02:00.000Z</Time>
            <Position>
              <LatitudeDegrees>36.50090374052524566650390625</LatitudeDegrees>
              <LongitudeDegrees>-5.403180308640003204345703125</LongitudeDegrees>
            </Position>
            <AltitudeMeters>182.8000030517578125</AltitudeMeters>
            <DistanceMeters>7453.5639103967</DistanceMeters>
          </Trackpoint>
          <Trackpoint>
            <Time>2019-01-04T11:02:01.000Z</Time>
            <Position>
              <LatitudeDegrees>36.5008975379168987274169921875</LatitudeDegrees>
              <LongitudeDegrees>-5.403177626430988311767578125</LongitudeDegrees>
            </Position>
            <AltitudeMeters>183</AltitudeMeters>
            <DistanceMeters>7454.2999841611</DistanceMeters>
          </Trackpoint>
          <Trackpoint>
            <Time>2019-01-04T11:02:02.000Z</Time>
            <Position>
              <LatitudeDegrees>36.50089024566113948822021484375</LatitudeDegrees>
              <LongitudeDegrees>-5.40317787788808345794677734375</LongitudeDegrees>
            </Position>
            <AltitudeMeters>183.1999969482421875</AltitudeMeters>
            <DistanceMeters>7455.1063125706</DistanceMeters>
          </Trackpoint>
          <Trackpoint>
            <Time>2019-01-04T11:02:03.000Z</Time>
            <Position>
              <LatitudeDegrees>36.50088203139603137969970703125</LatitudeDegrees>
              <LongitudeDegrees>-5.40317653678357601165771484375</LongitudeDegrees>
            </Position>
            <AltitudeMeters>183.399993896484375</AltitudeMeters>
            <DistanceMeters>7456.0276307489</DistanceMeters>
          </Trackpoint>
          <Trackpoint>
            <Time>2019-01-04T11:02:04.000Z</Time>
            <Position>
              <LatitudeDegrees>36.5008722245693206787109375</LatitudeDegrees>
              <LongitudeDegrees>-5.403161533176898956298828125</LongitudeDegrees>
            </Position>
            <AltitudeMeters>183.600006103515625</AltitudeMeters>
            <DistanceMeters>7457.7590998879</DistanceMeters>
          </Trackpoint>
          <Trackpoint>
            <Time>2019-01-04T11:02:05.000Z</Time>
            <Position>
              <LatitudeDegrees>36.50086107663810253143310546875</LatitudeDegrees>
              <LongitudeDegrees>-5.40315155871212482452392578125</LongitudeDegrees>
            </Position>
            <AltitudeMeters>183.8000030517578125</AltitudeMeters>
            <DistanceMeters>7459.2854549327</DistanceMeters>
          </Trackpoint>
          <Trackpoint>
            <Time>2019-01-04T11:02:06.000Z</Time>
            <Position>
              <LatitudeDegrees>36.50084749795496463775634765625</LatitudeDegrees>
              <LongitudeDegrees>-5.403144769370555877685546875</LongitudeDegrees>
            </Position>
            <AltitudeMeters>184.1999969482421875</AltitudeMeters>
            <DistanceMeters>7460.9148236676</DistanceMeters>
          </Trackpoint>
          <Trackpoint>
            <Time>2019-01-04T11:02:07.000Z</Time>
            <Position>
              <LatitudeDegrees>36.5008378587663173675537109375</LatitudeDegrees>
              <LongitudeDegrees>-5.4031392373144626617431640625</LongitudeDegrees>
            </Position>
            <AltitudeMeters>184.600006103515625</AltitudeMeters>
            <DistanceMeters>7462.0940741806</DistanceMeters>
          </Trackpoint>
          <Trackpoint>
            <Time>2019-01-04T11:02:08.000Z</Time>
            <Position>
              <LatitudeDegrees>36.50082863867282867431640625</LatitudeDegrees>
              <LongitudeDegrees>-5.40313529781997203826904296875</LongitudeDegrees>
            </Position>
            <AltitudeMeters>184.8000030517578125</AltitudeMeters>
            <DistanceMeters>7463.1817046391</DistanceMeters>
          </Trackpoint>
          <Trackpoint>
            <Time>2019-01-04T11:02:09.000Z</Time>
            <Position>
              <LatitudeDegrees>36.5008190833032131195068359375</LatitudeDegrees>
              <LongitudeDegrees>-5.403132028877735137939453125</LongitudeDegrees>
            </Position>
            <AltitudeMeters>185</AltitudeMeters>
            <DistanceMeters>7464.2898970395</DistanceMeters>
          </Trackpoint>
          <Trackpoint>
            <Time>2019-01-04T11:02:10.000Z</Time>
            <Position>
              <LatitudeDegrees>36.50081128813326358795166015625</LatitudeDegrees>
              <LongitudeDegrees>-5.40312834084033966064453125</LongitudeDegrees>
            </Position>
            <AltitudeMeters>185.1999969482421875</AltitudeMeters>
            <DistanceMeters>7465.2209648881</DistanceMeters>
          </Trackpoint>
          <Trackpoint>
            <Time>2019-01-04T11:02:11.000Z</Time>
            <Position>
              <LatitudeDegrees>36.50080475024878978729248046875</LatitudeDegrees>
              <LongitudeDegrees>-5.40312238968908786773681640625</LongitudeDegrees>
            </Position>
            <AltitudeMeters>185.399993896484375</AltitudeMeters>
            <DistanceMeters>7466.1274619683</DistanceMeters>
          </Trackpoint>
          <Trackpoint>
            <Time>2019-01-04T11:02:12.000Z</Time>
            <Position>
              <LatitudeDegrees>36.5007982961833477020263671875</LatitudeDegrees>
              <LongitudeDegrees>-5.4031144268810749053955078125</LongitudeDegrees>
            </Position>
            <AltitudeMeters>185.399993896484375</AltitudeMeters>
            <DistanceMeters>7467.1420696336</DistanceMeters>
          </Trackpoint>
          <Trackpoint>
            <Time>2019-01-04T11:02:13.000Z</Time>
            <Position>
              <LatitudeDegrees>36.500790752470493316650390625</LatitudeDegrees>
              <LongitudeDegrees>-5.40310562588274478912353515625</LongitudeDegrees>
            </Position>
            <AltitudeMeters>185.8000030517578125</AltitudeMeters>
            <DistanceMeters>7468.2902817921</DistanceMeters>
          </Trackpoint>
          <Trackpoint>
            <Time>2019-01-04T11:02:14.000Z</Time>
            <Position>
              <LatitudeDegrees>36.50078765116631984710693359375</LatitudeDegrees>
              <LongitudeDegrees>-5.4031006805598735809326171875</LongitudeDegrees>
            </Position>
            <AltitudeMeters>186</AltitudeMeters>
            <DistanceMeters>7468.8524674158</DistanceMeters>
          </Trackpoint>
          <Trackpoint>
            <Time>2019-01-04T11:02:15.000Z</Time>
            <Position>
              <LatitudeDegrees>36.50078882463276386260986328125</LatitudeDegrees>
              <LongitudeDegrees>-5.40310160256922245025634765625</LongitudeDegrees>
            </Position>
            <AltitudeMeters>186.1999969482421875</AltitudeMeters>
            <DistanceMeters>7469.0170585132</DistanceMeters>
          </Trackpoint>
          <Trackpoint>
            <Time>2019-01-04T11:02:16.000Z</Time>
            <Position>
              <LatitudeDegrees>36.50078631006181240081787109375</LatitudeDegrees>
              <LongitudeDegrees>-5.40309481322765350341796875</LongitudeDegrees>
            </Position>
            <AltitudeMeters>186.399993896484375</AltitudeMeters>
            <DistanceMeters>7469.6889988544</DistanceMeters>
          </Trackpoint>
          <Trackpoint>
            <Time>2019-01-04T11:02:17.000Z</Time>
            <Position>
              <LatitudeDegrees>36.50078262202441692352294921875</LatitudeDegrees>
              <LongitudeDegrees>-5.40308819152414798736572265625</LongitudeDegrees>
            </Position>
            <AltitudeMeters>186.399993896484375</AltitudeMeters>
            <DistanceMeters>7470.4127007501</DistanceMeters>
          </Trackpoint>
          <Trackpoint>
            <Time>2019-01-04T11:02:18.000Z</Time>
            <Position>
              <LatitudeDegrees>36.500782705843448638916015625</LatitudeDegrees>
              <LongitudeDegrees>-5.4030855931341648101806640625</LongitudeDegrees>
            </Position>
            <AltitudeMeters>186.600006103515625</AltitudeMeters>
            <DistanceMeters>7470.6641178042</DistanceMeters>
          </Trackpoint>
          <Trackpoint>
            <Time>2019-01-04T11:02:19.000Z</Time>
            <Position>
              <LatitudeDegrees>36.50077876634895801544189453125</LatitudeDegrees>
              <LongitudeDegrees>-5.40307880379259586334228515625</LongitudeDegrees>
            </Position>
            <AltitudeMeters>186.600006103515625</AltitudeMeters>
            <DistanceMeters>7471.4123589014</DistanceMeters>
          </Trackpoint>
          <Trackpoint>
            <Time>2019-01-04T11:02:20.000Z</Time>
            <Position>
              <LatitudeDegrees>36.50077574886381626129150390625</LatitudeDegrees>
              <LongitudeDegrees>-5.40307243354618549346923828125</LongitudeDegrees>
            </Position>
            <AltitudeMeters>186.600006103515625</AltitudeMeters>
            <DistanceMeters>7472.0707232908</DistanceMeters>
          </Trackpoint>
          <Trackpoint>
            <Time>2019-01-04T11:02:21.000Z</Time>
            <Position>
              <LatitudeDegrees>36.5007708035409450531005859375</LatitudeDegrees>
              <LongitudeDegrees>-5.40306665003299713134765625</LongitudeDegrees>
            </Position>
            <AltitudeMeters>186.600006103515625</AltitudeMeters>
            <DistanceMeters>7472.8309370058</DistanceMeters>
          </Trackpoint>
          <Trackpoint>
            <Time>2019-01-04T11:02:22.000Z</Time>
            <Position>
              <LatitudeDegrees>36.50076485238969326019287109375</LatitudeDegrees>
              <LongitudeDegrees>-5.40306623093783855438232421875</LongitudeDegrees>
            </Position>
            <AltitudeMeters>186.8000030517578125</AltitudeMeters>
            <DistanceMeters>7473.4893013953</DistanceMeters>
          </Trackpoint>
          <Trackpoint>
            <Time>2019-01-04T11:02:23.000Z</Time>
            <Position>
              <LatitudeDegrees>36.50076015852391719818115234375</LatitudeDegrees>
              <LongitudeDegrees>-5.4030740261077880859375</LongitudeDegrees>
            </Position>
            <AltitudeMeters>186.8000030517578125</AltitudeMeters>
            <DistanceMeters>7474.3602356185</DistanceMeters>
          </Trackpoint>
          <Trackpoint>
            <Time>2019-01-04T11:02:24.000Z</Time>
            <Position>
              <LatitudeDegrees>36.50075730867683887481689453125</LatitudeDegrees>
              <LongitudeDegrees>-5.40307327173650264739990234375</LongitudeDegrees>
            </Position>
            <AltitudeMeters>187</AltitudeMeters>
            <DistanceMeters>7474.6894178133</DistanceMeters>
          </Trackpoint>
          <Trackpoint>
            <Time>2019-01-04T11:02:25.000Z</Time>
            <Position>
              <LatitudeDegrees>36.50075110606849193572998046875</LatitudeDegrees>
              <LongitudeDegrees>-5.40307335555553436279296875</LongitudeDegrees>
            </Position>
            <AltitudeMeters>187.1999969482421875</AltitudeMeters>
            <DistanceMeters>7475.3812227363</DistanceMeters>
          </Trackpoint>
          <Trackpoint>
            <Time>2019-01-04T11:02:26.000Z</Time>
            <Position>
              <LatitudeDegrees>36.500747837126255035400390625</LatitudeDegrees>
              <LongitudeDegrees>-5.40307092480361461639404296875</LongitudeDegrees>
            </Position>
            <AltitudeMeters>187.399993896484375</AltitudeMeters>
            <DistanceMeters>7475.8061951223</DistanceMeters>
          </Trackpoint>
          <Trackpoint>
            <Time>2019-01-04T11:02:27.000Z</Time>
            <Position>
              <LatitudeDegrees>36.5007429756224155426025390625</LatitudeDegrees>
              <LongitudeDegrees>-5.40307058952748775482177734375</LongitudeDegrees>
            </Position>
            <AltitudeMeters>187.399993896484375</AltitudeMeters>
            <DistanceMeters>7476.3437473953</DistanceMeters>
          </Trackpoint>
          <Trackpoint>
            <Time>2019-01-04T11:02:28.000Z</Time>
            <Position>
              <LatitudeDegrees>36.50073668919503688812255859375</LatitudeDegrees>
              <LongitudeDegrees>-5.4030725173652172088623046875</LongitudeDegrees>
            </Position>
            <AltitudeMeters>187.399993896484375</AltitudeMeters>
            <DistanceMeters>7477.0611833557</DistanceMeters>
          </Trackpoint>
          <Trackpoint>
            <Time>2019-01-04T11:02:29.000Z</Time>
            <Position>
              <LatitudeDegrees>36.5007312409579753875732421875</LatitudeDegrees>
              <LongitudeDegrees>-5.403071008622646331787109375</LongitudeDegrees>
            </Position>
            <AltitudeMeters>187.399993896484375</AltitudeMeters>
            <DistanceMeters>7477.6843151934</DistanceMeters>
          </Trackpoint>
          <Trackpoint>
            <Time>2019-01-04T11:02:30.000Z</Time>
            <Position>
              <LatitudeDegrees>36.50072646327316761016845703125</LatitudeDegrees>
              <LongitudeDegrees>-5.403067655861377716064453125</LongitudeDegrees>
            </Position>
            <AltitudeMeters>187.600006103515625</AltitudeMeters>
            <DistanceMeters>7478.3001586887</DistanceMeters>
          </Trackpoint>
          <Trackpoint>
            <Time>2019-01-04T11:02:31.000Z</Time>
            <Position>
              <LatitudeDegrees>36.50071472860872745513916015625</LatitudeDegrees>
              <LongitudeDegrees>-5.40306522510945796966552734375</LongitudeDegrees>
            </Position>
            <AltitudeMeters>187.600006103515625</AltitudeMeters>
            <DistanceMeters>7479.6203119955</DistanceMeters>
          </Trackpoint>
          <Trackpoint>
            <Time>2019-01-04T11:02:32.000Z</Time>
            <Position>
              <LatitudeDegrees>36.50070718489587306976318359375</LatitudeDegrees>
              <LongitudeDegrees>-5.40306388400495052337646484375</LongitudeDegrees>
            </Position>
            <AltitudeMeters>187.600006103515625</AltitudeMeters>
            <DistanceMeters>7480.4595652128</DistanceMeters>
          </Trackpoint>
          <Trackpoint>
            <Time>2019-01-04T11:02:33.000Z</Time>
            <Position>
              <LatitudeDegrees>36.50070047937333583831787109375</LatitudeDegrees>
              <LongitudeDegrees>-5.40305793285369873046875</LongitudeDegrees>
            </Position>
            <AltitudeMeters>187.8000030517578125</AltitudeMeters>
            <DistanceMeters>7481.3710294374</DistanceMeters>
          </Trackpoint>
          <Trackpoint>
            <Time>2019-01-04T11:02:34.000Z</Time>
            <Position>
              <LatitudeDegrees>36.5006936900317668914794921875</LatitudeDegrees>
              <LongitudeDegrees>-5.40305147878825664520263671875</LongitudeDegrees>
            </Position>
            <AltitudeMeters>188</AltitudeMeters>
            <DistanceMeters>7482.3165333073</DistanceMeters>
          </Trackpoint>
          <Trackpoint>
            <Time>2019-01-04T11:02:35.000Z</Time>
            <Position>
              <LatitudeDegrees>36.50068706832826137542724609375</LatitudeDegrees>
              <LongitudeDegrees>-5.403044857084751129150390625</LongitudeDegrees>
            </Position>
            <AltitudeMeters>188.1999969482421875</AltitudeMeters>
            <DistanceMeters>7483.266800451</DistanceMeters>
          </Trackpoint>
          <Trackpoint>
            <Time>2019-01-04T11:02:36.000Z</Time>
            <Position>
              <LatitudeDegrees>36.5006809495389461517333984375</LatitudeDegrees>
              <LongitudeDegrees>-5.40303907357156276702880859375</LongitudeDegrees>
            </Position>
            <AltitudeMeters>188.399993896484375</AltitudeMeters>
            <DistanceMeters>7484.127303948</DistanceMeters>
          </Trackpoint>
          <Trackpoint>
            <Time>2019-01-04T11:02:37.000Z</Time>
            <Position>
              <LatitudeDegrees>36.50067416019737720489501953125</LatitudeDegrees>
              <LongitudeDegrees>-5.4030359722673892974853515625</LongitudeDegrees>
            </Position>
            <AltitudeMeters>188.399993896484375</AltitudeMeters>
            <DistanceMeters>7484.9223544817</DistanceMeters>
          </Trackpoint>
          <Trackpoint>
            <Time>2019-01-04T11:02:38.000Z</Time>
            <Position>
              <LatitudeDegrees>36.50066477246582508087158203125</LatitudeDegrees>
              <LongitudeDegrees>-5.40303069166839122772216796875</LongitudeDegrees>
            </Position>
            <AltitudeMeters>188.600006103515625</AltitudeMeters>
            <DistanceMeters>7486.0705666402</DistanceMeters>
          </Trackpoint>
          <Trackpoint>
            <Time>2019-01-04T11:02:39.000Z</Time>
            <Position>
              <LatitudeDegrees>36.50065287016332149505615234375</LatitudeDegrees>
              <LongitudeDegrees>-5.40302750654518604278564453125</LongitudeDegrees>
            </Position>
            <AltitudeMeters>188.8000030517578125</AltitudeMeters>
            <DistanceMeters>7487.424488912</DistanceMeters>
          </Trackpoint>
          <Trackpoint>
            <Time>2019-01-04T11:02:40.000Z</Time>
            <Position>
              <LatitudeDegrees>36.50064381770789623260498046875</LatitudeDegrees>
              <LongitudeDegrees>-5.4030239023268222808837890625</LongitudeDegrees>
            </Position>
            <AltitudeMeters>189</AltitudeMeters>
            <DistanceMeters>7488.4826616195</DistanceMeters>
          </Trackpoint>
          <Trackpoint>
            <Time>2019-01-04T11:02:41.000Z</Time>
            <Position>
              <LatitudeDegrees>36.5006388723850250244140625</LatitudeDegrees>
              <LongitudeDegrees>-5.40302381850779056549072265625</LongitudeDegrees>
            </Position>
            <AltitudeMeters>189.1999969482421875</AltitudeMeters>
            <DistanceMeters>7489.0367578198</DistanceMeters>
          </Trackpoint>
          <Trackpoint>
            <Time>2019-01-04T11:02:42.000Z</Time>
            <Position>
              <LatitudeDegrees>36.5006289817392826080322265625</LatitudeDegrees>
              <LongitudeDegrees>-5.40302381850779056549072265625</LongitudeDegrees>
            </Position>
            <AltitudeMeters>189.399993896484375</AltitudeMeters>
            <DistanceMeters>7490.1367715667</DistanceMeters>
          </Trackpoint>
          <Trackpoint>
            <Time>2019-01-04T11:02:43.000Z</Time>
            <Position>
              <LatitudeDegrees>36.50061414577066898345947265625</LatitudeDegrees>
              <LongitudeDegrees>-5.4030178673565387725830078125</LongitudeDegrees>
            </Position>
            <AltitudeMeters>189.399993896484375</AltitudeMeters>
            <DistanceMeters>7491.8734481435</DistanceMeters>
          </Trackpoint>
          <Trackpoint>
            <Time>2019-01-04T11:02:44.000Z</Time>
            <Position>
              <LatitudeDegrees>36.50060408748686313629150390625</LatitudeDegrees>
              <LongitudeDegrees>-5.40301677770912647247314453125</LongitudeDegrees>
            </Position>
            <AltitudeMeters>189.600006103515625</AltitudeMeters>
            <DistanceMeters>7492.997819391</DistanceMeters>
          </Trackpoint>
          <Trackpoint>
            <Time>2019-01-04T11:02:45.000Z</Time>
            <Position>
              <LatitudeDegrees>36.50059235282242298126220703125</LatitudeDegrees>
              <LongitudeDegrees>-5.40301376022398471832275390625</LongitudeDegrees>
            </Position>
            <AltitudeMeters>189.600006103515625</AltitudeMeters>
            <DistanceMeters>7494.334963787</DistanceMeters>
          </Trackpoint>
          <Trackpoint>
            <Time>2019-01-04T11:02:46.000Z</Time>
            <Position>
              <LatitudeDegrees>36.5005860663950443267822265625</LatitudeDegrees>
              <LongitudeDegrees>-5.40300772525370121002197265625</LongitudeDegrees>
            </Position>
            <AltitudeMeters>189.8000030517578125</AltitudeMeters>
            <DistanceMeters>7495.216205283</DistanceMeters>
          </Trackpoint>
          <Trackpoint>
            <Time>2019-01-04T11:02:47.000Z</Time>
            <Position>
              <LatitudeDegrees>36.50057894177734851837158203125</LatitudeDegrees>
              <LongitudeDegrees>-5.40300738997757434844970703125</LongitudeDegrees>
            </Position>
            <AltitudeMeters>189.8000030517578125</AltitudeMeters>
            <DistanceMeters>7496.0112558166</DistanceMeters>
          </Trackpoint>
          <Trackpoint>
            <Time>2019-01-04T11:02:48.000Z</Time>
            <Position>
              <LatitudeDegrees>36.50057659484446048736572265625</LatitudeDegrees>
              <LongitudeDegrees>-5.403003953397274017333984375</LongitudeDegrees>
            </Position>
            <AltitudeMeters>190</AltitudeMeters>
            <DistanceMeters>7496.4144200214</DistanceMeters>
          </Trackpoint>
          <Trackpoint>
            <Time>2019-01-04T11:02:49.000Z</Time>
            <Position>
              <LatitudeDegrees>36.500572822988033294677734375</LatitudeDegrees>
              <LongitudeDegrees>-5.40299934335052967071533203125</LongitudeDegrees>
            </Position>
            <AltitudeMeters>190.1999969482421875</AltitudeMeters>
            <DistanceMeters>7497.0002040301</DistanceMeters>
          </Trackpoint>
          <Trackpoint>
            <Time>2019-01-04T11:02:50.000Z</Time>
            <Position>
              <LatitudeDegrees>36.5005709789693355560302734375</LatitudeDegrees>
              <LongitudeDegrees>-5.4030017741024494171142578125</LongitudeDegrees>
            </Position>
            <AltitudeMeters>190.1999969482421875</AltitudeMeters>
            <DistanceMeters>7497.3007048861</DistanceMeters>
          </Trackpoint>
          <Trackpoint>
            <Time>2019-01-04T11:02:51.000Z</Time>
            <Position>
              <LatitudeDegrees>36.50056553073227405548095703125</LatitudeDegrees>
              <LongitudeDegrees>-5.40300705470144748687744140625</LongitudeDegrees>
            </Position>
            <AltitudeMeters>190.1999969482421875</AltitudeMeters>
            <DistanceMeters>7498.0727055631</DistanceMeters>
          </Trackpoint>
          <Trackpoint>
            <Time>2019-01-04T11:02:52.000Z</Time>
            <Position>
              <LatitudeDegrees>36.50055865757167339324951171875</LatitudeDegrees>
              <LongitudeDegrees>-5.4030165262520313262939453125</LongitudeDegrees>
            </Position>
            <AltitudeMeters>190.1999969482421875</AltitudeMeters>
            <DistanceMeters>7499.2130261355</DistanceMeters>
          </Trackpoint>
          <Trackpoint>
            <Time>2019-01-04T11:02:53.000Z</Time>
            <Position>
              <LatitudeDegrees>36.5005508624017238616943359375</LatitudeDegrees>
              <LongitudeDegrees>-5.40302281267940998077392578125</LongitudeDegrees>
            </Position>
            <AltitudeMeters>190.399993896484375</AltitudeMeters>
            <DistanceMeters>7500.2452804745</DistanceMeters>
          </Trackpoint>
          <Trackpoint>
            <Time>2019-01-04T11:02:54.000Z</Time>
            <Position>
              <LatitudeDegrees>36.50054206140339374542236328125</LatitudeDegrees>
              <LongitudeDegrees>-5.4030312784016132354736328125</LongitudeDegrees>
            </Position>
            <AltitudeMeters>190.399993896484375</AltitudeMeters>
            <DistanceMeters>7501.4806277613</DistanceMeters>
          </Trackpoint>
          <Trackpoint>
            <Time>2019-01-04T11:02:55.000Z</Time>
            <Position>
              <LatitudeDegrees>36.50053384713828563690185546875</LatitudeDegrees>
              <LongitudeDegrees>-5.40303588844835758209228515625</LongitudeDegrees>
            </Position>
            <AltitudeMeters>190.600006103515625</AltitudeMeters>
            <DistanceMeters>7502.4772763498</DistanceMeters>
          </Trackpoint>
          <Trackpoint>
            <Time>2019-01-04T11:02:56.000Z</Time>
            <Position>
              <LatitudeDegrees>36.5005250461399555206298828125</LatitudeDegrees>
              <LongitudeDegrees>-5.4030416719615459442138671875</LongitudeDegrees>
            </Position>
            <AltitudeMeters>190.600006103515625</AltitudeMeters>
            <DistanceMeters>7503.5854687502</DistanceMeters>
          </Trackpoint>
          <Trackpoint>
            <Time>2019-01-04T11:02:57.000Z</Time>
            <Position>
              <LatitudeDegrees>36.50051574222743511199951171875</LatitudeDegrees>
              <LongitudeDegrees>-5.40305147878825664520263671875</LongitudeDegrees>
            </Position>
            <AltitudeMeters>190.600006103515625</AltitudeMeters>
            <DistanceMeters>7504.9427217091</DistanceMeters>
          </Trackpoint>
          <Trackpoint>
            <Time>2019-01-04T11:02:58.000Z</Time>
            <Position>
              <LatitudeDegrees>36.5005045942962169647216796875</LatitudeDegrees>
              <LongitudeDegrees>-5.40305701084434986114501953125</LongitudeDegrees>
            </Position>
            <AltitudeMeters>190.8000030517578125</AltitudeMeters>
            <DistanceMeters>7506.2798661052</DistanceMeters>
          </Trackpoint>
          <Trackpoint>
            <Time>2019-01-04T11:02:59.000Z</Time>
            <Position>
              <LatitudeDegrees>36.500495038926601409912109375</LatitudeDegrees>
              <LongitudeDegrees>-5.403060615062713623046875</LongitudeDegrees>
            </Position>
            <AltitudeMeters>190.8000030517578125</AltitudeMeters>
            <DistanceMeters>7507.3961772398</DistanceMeters>
          </Trackpoint>
          <Trackpoint>
            <Time>2019-01-04T11:03:00.000Z</Time>
            <Position>
              <LatitudeDegrees>36.50048338808119297027587890625</LatitudeDegrees>
              <LongitudeDegrees>-5.40305902250111103057861328125</LongitudeDegrees>
            </Position>
            <AltitudeMeters>190.8000030517578125</AltitudeMeters>
            <DistanceMeters>7508.6991179029</DistanceMeters>
          </Trackpoint>
          <Trackpoint>
            <Time>2019-01-04T11:03:01.000Z</Time>
            <Position>
              <LatitudeDegrees>36.5004710666835308074951171875</LatitudeDegrees>
              <LongitudeDegrees>-5.4030577652156352996826171875</LongitudeDegrees>
            </Position>
            <AltitudeMeters>191</AltitudeMeters>
            <DistanceMeters>7510.0761858218</DistanceMeters>
          </Trackpoint>
          <Trackpoint>
            <Time>2019-01-04T11:03:02.000Z</Time>
            <Position>
              <LatitudeDegrees>36.50045312941074371337890625</LatitudeDegrees>
              <LongitudeDegrees>-5.40305131115019321441650390625</LongitudeDegrees>
            </Position>
            <AltitudeMeters>191</AltitudeMeters>
            <DistanceMeters>7512.153774939</DistanceMeters>
          </Trackpoint>
          <Trackpoint>
            <Time>2019-01-04T11:03:03.000Z</Time>
            <Position>
              <LatitudeDegrees>36.5004402212798595428466796875</LatitudeDegrees>
              <LongitudeDegrees>-5.403049886226654052734375</LongitudeDegrees>
            </Position>
            <AltitudeMeters>191.1999969482421875</AltitudeMeters>
            <DistanceMeters>7513.5980559569</DistanceMeters>
          </Trackpoint>
          <Trackpoint>
            <Time>2019-01-04T11:03:04.000Z</Time>
            <Position>
              <LatitudeDegrees>36.50043024681508541107177734375</LatitudeDegrees>
              <LongitudeDegrees>-5.40305449627339839935302734375</LongitudeDegrees>
            </Position>
            <AltitudeMeters>191.399993896484375</AltitudeMeters>
            <DistanceMeters>7514.784939239</DistanceMeters>
          </Trackpoint>
          <Trackpoint>
            <Time>2019-01-04T11:03:05.000Z</Time>
            <Position>
              <LatitudeDegrees>36.500422619283199310302734375</LatitudeDegrees>
              <LongitudeDegrees>-5.40305416099727153778076171875</LongitudeDegrees>
            </Position>
            <AltitudeMeters>191.8000030517578125</AltitudeMeters>
            <DistanceMeters>7515.634884011</DistanceMeters>
          </Trackpoint>
          <Trackpoint>
            <Time>2019-01-04T11:03:06.000Z</Time>
            <Position>
              <LatitudeDegrees>36.50041582994163036346435546875</LatitudeDegrees>
              <LongitudeDegrees>-5.403053574264049530029296875</LongitudeDegrees>
            </Position>
            <AltitudeMeters>192</AltitudeMeters>
            <DistanceMeters>7516.3831251082</DistanceMeters>
          </Trackpoint>
          <Trackpoint>
            <Time>2019-01-04T11:03:07.000Z</Time>
            <Position>
              <LatitudeDegrees>36.50040945969521999359130859375</LatitudeDegrees>
              <LongitudeDegrees>-5.40305047295987606048583984375</LongitudeDegrees>
            </Position>
            <AltitudeMeters>192.1999969482421875</AltitudeMeters>
            <DistanceMeters>7517.1373762706</DistanceMeters>
          </Trackpoint>
          <Trackpoint>
            <Time>2019-01-04T11:03:08.000Z</Time>
            <Position>
              <LatitudeDegrees>36.50039588101208209991455078125</LatitudeDegrees>
              <LongitudeDegrees>-5.40304309688508510589599609375</LongitudeDegrees>
            </Position>
            <AltitudeMeters>192.600006103515625</AltitudeMeters>
            <DistanceMeters>7518.7832872442</DistanceMeters>
          </Trackpoint>
          <Trackpoint>
            <Time>2019-01-04T11:03:09.000Z</Time>
            <Position>
              <LatitudeDegrees>36.500384397804737091064453125</LatitudeDegrees>
              <LongitudeDegrees>-5.40302566252648830413818359375</LongitudeDegrees>
            </Position>
            <AltitudeMeters>193</AltitudeMeters>
            <DistanceMeters>7520.799108268</DistanceMeters>
          </Trackpoint>
          <Trackpoint>
            <Time>2019-01-04T11:03:10.000Z</Time>
            <Position>
              <LatitudeDegrees>36.50037266314029693603515625</LatitudeDegrees>
              <LongitudeDegrees>-5.403012335300445556640625</LongitudeDegrees>
            </Position>
            <AltitudeMeters>193.399993896484375</AltitudeMeters>
            <DistanceMeters>7522.5692598225</DistanceMeters>
          </Trackpoint>
          <Trackpoint>
            <Time>2019-01-04T11:03:11.000Z</Time>
            <Position>
              <LatitudeDegrees>36.50036369450390338897705078125</LatitudeDegrees>
              <LongitudeDegrees>-5.40299900807440280914306640625</LongitudeDegrees>
            </Position>
            <AltitudeMeters>193.600006103515625</AltitudeMeters>
            <DistanceMeters>7524.1249141823</DistanceMeters>
          </Trackpoint>
          <Trackpoint>
            <Time>2019-01-04T11:03:12.000Z</Time>
            <Position>
              <LatitudeDegrees>36.5003553964197635650634765625</LatitudeDegrees>
              <LongitudeDegrees>-5.402983836829662322998046875</LongitudeDegrees>
            </Position>
            <AltitudeMeters>194</AltitudeMeters>
            <DistanceMeters>7525.7680796812</DistanceMeters>
          </Trackpoint>
          <Trackpoint>
            <Time>2019-01-04T11:03:13.000Z</Time>
            <Position>
              <LatitudeDegrees>36.50034726597368717193603515625</LatitudeDegrees>
              <LongitudeDegrees>-5.40296866558492183685302734375</LongitudeDegrees>
            </Position>
            <AltitudeMeters>194.1999969482421875</AltitudeMeters>
            <DistanceMeters>7527.3974484161</DistanceMeters>
          </Trackpoint>
          <Trackpoint>
            <Time>2019-01-04T11:03:14.000Z</Time>
            <Position>
              <LatitudeDegrees>36.5003382973372936248779296875</LatitudeDegrees>
              <LongitudeDegrees>-5.402955673635005950927734375</LongitudeDegrees>
            </Position>
            <AltitudeMeters>194.399993896484375</AltitudeMeters>
            <DistanceMeters>7528.9297081446</DistanceMeters>
          </Trackpoint>
          <Trackpoint>
            <Time>2019-01-04T11:03:15.000Z</Time>
            <Position>
              <LatitudeDegrees>36.5003275685012340545654296875</LatitudeDegrees>
              <LongitudeDegrees>-5.40294460952281951904296875</LongitudeDegrees>
            </Position>
            <AltitudeMeters>194.399993896484375</AltitudeMeters>
            <DistanceMeters>7530.4824574516</DistanceMeters>
          </Trackpoint>
          <Trackpoint>
            <Time>2019-01-04T11:03:16.000Z</Time>
            <Position>
              <LatitudeDegrees>36.50032044388353824615478515625</LatitudeDegrees>
              <LongitudeDegrees>-5.40293999947607517242431640625</LongitudeDegrees>
            </Position>
            <AltitudeMeters>194.600006103515625</AltitudeMeters>
            <DistanceMeters>7531.378937682</DistanceMeters>
          </Trackpoint>
          <Trackpoint>
            <Time>2019-01-04T11:03:17.000Z</Time>
            <Position>
              <LatitudeDegrees>36.50031541474163532257080078125</LatitudeDegrees>
              <LongitudeDegrees>-5.40293798781931400299072265625</LongitudeDegrees>
            </Position>
            <AltitudeMeters>194.600006103515625</AltitudeMeters>
            <DistanceMeters>7531.9723793231</DistanceMeters>
          </Trackpoint>
          <Trackpoint>
            <Time>2019-01-04T11:03:18.000Z</Time>
            <Position>
              <LatitudeDegrees>36.500311978161334991455078125</LatitudeDegrees>
              <LongitudeDegrees>-5.402934215962886810302734375</LongitudeDegrees>
            </Position>
            <AltitudeMeters>194.600006103515625</AltitudeMeters>
            <DistanceMeters>7532.4928620733</DistanceMeters>
          </Trackpoint>
          <Trackpoint>
            <Time>2019-01-04T11:03:19.000Z</Time>
            <Position>
              <LatitudeDegrees>36.50030787102878093719482421875</LatitudeDegrees>
              <LongitudeDegrees>-5.4029300250113010406494140625</LongitudeDegrees>
            </Position>
            <AltitudeMeters>194.8000030517578125</AltitudeMeters>
            <DistanceMeters>7533.078646082</DistanceMeters>
          </Trackpoint>
          <Trackpoint>
            <Time>2019-01-04T11:03:20.000Z</Time>
            <Position>
              <LatitudeDegrees>36.50030300952494144439697265625</LatitudeDegrees>
              <LongitudeDegrees>-5.4029263369739055633544921875</LongitudeDegrees>
            </Position>
            <AltitudeMeters>194.8000030517578125</AltitudeMeters>
            <DistanceMeters>7533.7161046611</DistanceMeters>
          </Trackpoint>
          <Trackpoint>
            <Time>2019-01-04T11:03:21.000Z</Time>
            <Position>
              <LatitudeDegrees>36.50029881857335567474365234375</LatitudeDegrees>
              <LongitudeDegrees>-5.4029260016977787017822265625</LongitudeDegrees>
            </Position>
            <AltitudeMeters>194.8000030517578125</AltitudeMeters>
            <DistanceMeters>7534.1718367734</DistanceMeters>
          </Trackpoint>
          <Trackpoint>
            <Time>2019-01-04T11:03:22.000Z</Time>
            <Position>
              <LatitudeDegrees>36.5002963878214359283447265625</LatitudeDegrees>
              <LongitudeDegrees>-5.40292893536388874053955078125</LongitudeDegrees>
            </Position>
            <AltitudeMeters>194.8000030517578125</AltitudeMeters>
            <DistanceMeters>7534.5519436309</DistanceMeters>
          </Trackpoint>
          <Trackpoint>
            <Time>2019-01-04T11:03:23.000Z</Time>
            <Position>
              <LatitudeDegrees>36.50029529817402362823486328125</LatitudeDegrees>
              <LongitudeDegrees>-5.402937233448028564453125</LongitudeDegrees>
            </Position>
            <AltitudeMeters>194.600006103515625</AltitudeMeters>
            <DistanceMeters>7535.3001847281</DistanceMeters>
          </Trackpoint>
          <Trackpoint>
            <Time>2019-01-04T11:03:24.000Z</Time>
            <Position>
              <LatitudeDegrees>36.50029345415532588958740234375</LatitudeDegrees>
              <LongitudeDegrees>-5.40294989012181758880615234375</LongitudeDegrees>
            </Position>
            <AltitudeMeters>194.1999969482421875</AltitudeMeters>
            <DistanceMeters>7536.4483968865</DistanceMeters>
          </Trackpoint>
          <Trackpoint>
            <Time>2019-01-04T11:03:25.000Z</Time>
            <Position>
              <LatitudeDegrees>36.50028808973729610443115234375</LatitudeDegrees>
              <LongitudeDegrees>-5.40296682156622409820556640625</LongitudeDegrees>
            </Position>
            <AltitudeMeters>194.1999969482421875</AltitudeMeters>
            <DistanceMeters>7538.0777656215</DistanceMeters>
          </Trackpoint>
          <Trackpoint>
            <Time>2019-01-04T11:03:26.000Z</Time>
            <Position>
              <LatitudeDegrees>36.50028708390891551971435546875</LatitudeDegrees>
              <LongitudeDegrees>-5.40297956205904483795166015625</LongitudeDegrees>
            </Position>
            <AltitudeMeters>194</AltitudeMeters>
            <DistanceMeters>7539.22597778</DistanceMeters>
          </Trackpoint>
          <Trackpoint>
            <Time>2019-01-04T11:03:27.000Z</Time>
            <Position>
              <LatitudeDegrees>36.5002866648137569427490234375</LatitudeDegrees>
              <LongitudeDegrees>-5.40299020707607269287109375</LongitudeDegrees>
            </Position>
            <AltitudeMeters>194</AltitudeMeters>
            <DistanceMeters>7540.1809844401</DistanceMeters>
          </Trackpoint>
          <Trackpoint>
            <Time>2019-01-04T11:03:28.000Z</Time>
            <Position>
              <LatitudeDegrees>36.5002880059182643890380859375</LatitudeDegrees>
              <LongitudeDegrees>-5.40299213491380214691162109375</LongitudeDegrees>
            </Position>
            <AltitudeMeters>193.8000030517578125</AltitudeMeters>
            <DistanceMeters>7540.4137514022</DistanceMeters>
          </Trackpoint>
          <Trackpoint>
            <Time>2019-01-04T11:03:29.000Z</Time>
            <Position>
              <LatitudeDegrees>36.50028775446116924285888671875</LatitudeDegrees>
              <LongitudeDegrees>-5.40299288928508758544921875</LongitudeDegrees>
            </Position>
            <AltitudeMeters>193.600006103515625</AltitudeMeters>
            <DistanceMeters>7540.5087781166</DistanceMeters>
          </Trackpoint>
          <Trackpoint>
            <Time>2019-01-04T11:03:30.000Z</Time>
            <Position>
              <LatitudeDegrees>36.5002883411943912506103515625</LatitudeDegrees>
              <LongitudeDegrees>-5.402993895113468170166015625</LongitudeDegrees>
            </Position>
            <AltitudeMeters>193.600006103515625</AltitudeMeters>
            <DistanceMeters>7540.6431661848</DistanceMeters>
          </Trackpoint>
          <Trackpoint>
            <Time>2019-01-04T11:03:31.000Z</Time>
            <Position>
              <LatitudeDegrees>36.50028959847986698150634765625</LatitudeDegrees>
              <LongitudeDegrees>-5.40299481712281703948974609375</LongitudeDegrees>
            </Position>
            <AltitudeMeters>193.600006103515625</AltitudeMeters>
            <DistanceMeters>7540.8332196136</DistanceMeters>
          </Trackpoint>
          <Trackpoint>
            <Time>2019-01-04T11:03:32.000Z</Time>
            <Position>
              <LatitudeDegrees>36.50029010139405727386474609375</LatitudeDegrees>
              <LongitudeDegrees>-5.40299548767507076263427734375</LongitudeDegrees>
            </Position>
            <AltitudeMeters>193.600006103515625</AltitudeMeters>
            <DistanceMeters>7540.9676076818</DistanceMeters>
          </Trackpoint>
          <Trackpoint>
            <Time>2019-01-04T11:03:33.000Z</Time>
            <Position>
              <LatitudeDegrees>36.50028976611793041229248046875</LatitudeDegrees>
              <LongitudeDegrees>-5.40299481712281703948974609375</LongitudeDegrees>
            </Position>
            <AltitudeMeters>193.600006103515625</AltitudeMeters>
            <DistanceMeters>7541.0626343962</DistanceMeters>
          </Trackpoint>
          <Trackpoint>
            <Time>2019-01-04T11:03:34.000Z</Time>
            <Position>
              <LatitudeDegrees>36.5002893470227718353271484375</LatitudeDegrees>
              <LongitudeDegrees>-5.4029940627515316009521484375</LongitudeDegrees>
            </Position>
            <AltitudeMeters>193.600006103515625</AltitudeMeters>
            <DistanceMeters>7541.1970224644</DistanceMeters>
          </Trackpoint>
          <Trackpoint>
            <Time>2019-01-04T11:03:35.000Z</Time>
            <Position>
              <LatitudeDegrees>36.50029026903212070465087890625</LatitudeDegrees>
              <LongitudeDegrees>-5.40299297310411930084228515625</LongitudeDegrees>
            </Position>
            <AltitudeMeters>193.600006103515625</AltitudeMeters>
            <DistanceMeters>7541.3616135618</DistanceMeters>
          </Trackpoint>
          <Trackpoint>
            <Time>2019-01-04T11:03:36.000Z</Time>
            <Position>
              <LatitudeDegrees>36.5002906881272792816162109375</LatitudeDegrees>
              <LongitudeDegrees>-5.40299280546605587005615234375</LongitudeDegrees>
            </Position>
            <AltitudeMeters>193.600006103515625</AltitudeMeters>
            <DistanceMeters>7541.3616135618</DistanceMeters>
          </Trackpoint>
          <Trackpoint>
            <Time>2019-01-04T11:03:37.000Z</Time>
            <Position>
              <LatitudeDegrees>36.5002870000898838043212890625</LatitudeDegrees>
              <LongitudeDegrees>-5.402993895113468170166015625</LongitudeDegrees>
            </Position>
            <AltitudeMeters>193.600006103515625</AltitudeMeters>
            <DistanceMeters>7541.7865859478</DistanceMeters>
          </Trackpoint>
          <Trackpoint>
            <Time>2019-01-04T11:03:38.000Z</Time>
            <Position>
              <LatitudeDegrees>36.50028222240507602691650390625</LatitudeDegrees>
              <LongitudeDegrees>-5.40299548767507076263427734375</LongitudeDegrees>
            </Position>
            <AltitudeMeters>193.600006103515625</AltitudeMeters>
            <DistanceMeters>7542.3324728616</DistanceMeters>
          </Trackpoint>
          <Trackpoint>
            <Time>2019-01-04T11:03:39.000Z</Time>
            <Position>
              <LatitudeDegrees>36.500275768339633941650390625</LatitudeDegrees>
              <LongitudeDegrees>-5.40300202555954456329345703125</LongitudeDegrees>
            </Position>
            <AltitudeMeters>193.600006103515625</AltitudeMeters>
            <DistanceMeters>7543.2537910399</DistanceMeters>
          </Trackpoint>
          <Trackpoint>
            <Time>2019-01-04T11:03:40.000Z</Time>
            <Position>
              <LatitudeDegrees>36.50026738643646240234375</LatitudeDegrees>
              <LongitudeDegrees>-5.4030041210353374481201171875</LongitudeDegrees>
            </Position>
            <AltitudeMeters>193.600006103515625</AltitudeMeters>
            <DistanceMeters>7544.2040581836</DistanceMeters>
          </Trackpoint>
          <Trackpoint>
            <Time>2019-01-04T11:03:41.000Z</Time>
            <Position>
              <LatitudeDegrees>36.50026076473295688629150390625</LatitudeDegrees>
              <LongitudeDegrees>-5.4030064679682254791259765625</LongitudeDegrees>
            </Position>
            <AltitudeMeters>193.600006103515625</AltitudeMeters>
            <DistanceMeters>7544.9701880479</DistanceMeters>
          </Trackpoint>
          <Trackpoint>
            <Time>2019-01-04T11:03:42.000Z</Time>
            <Position>
              <LatitudeDegrees>36.500252299010753631591796875</LatitudeDegrees>
              <LongitudeDegrees>-5.40300923399627208709716796875</LongitudeDegrees>
            </Position>
            <AltitudeMeters>193.600006103515625</AltitudeMeters>
            <DistanceMeters>7545.9439221115</DistanceMeters>
          </Trackpoint>
          <Trackpoint>
            <Time>2019-01-04T11:03:43.000Z</Time>
            <Position>
              <LatitudeDegrees>36.50024752132594585418701171875</LatitudeDegrees>
              <LongitudeDegrees>-5.40301040746271610260009765625</LongitudeDegrees>
            </Position>
            <AltitudeMeters>193.600006103515625</AltitudeMeters>
            <DistanceMeters>7546.4898090253</DistanceMeters>
          </Trackpoint>
          <Trackpoint>
            <Time>2019-01-04T11:03:44.000Z</Time>
            <Position>
              <LatitudeDegrees>36.5002424083650112152099609375</LatitudeDegrees>
              <LongitudeDegrees>-5.4030125029385089874267578125</LongitudeDegrees>
            </Position>
            <AltitudeMeters>193.8000030517578125</AltitudeMeters>
            <DistanceMeters>7547.0908107372</DistanceMeters>
          </Trackpoint>
          <Trackpoint>
            <Time>2019-01-04T11:03:45.000Z</Time>
            <Position>
              <LatitudeDegrees>36.50023343972861766815185546875</LatitudeDegrees>
              <LongitudeDegrees>-5.40301459841430187225341796875</LongitudeDegrees>
            </Position>
            <AltitudeMeters>193.8000030517578125</AltitudeMeters>
            <DistanceMeters>7548.1054184026</DistanceMeters>
          </Trackpoint>
          <Trackpoint>
            <Time>2019-01-04T11:03:46.000Z</Time>
            <Position>
              <LatitudeDegrees>36.50022069923579692840576171875</LatitudeDegrees>
              <LongitudeDegrees>-5.40301627479493618011474609375</LongitudeDegrees>
            </Position>
            <AltitudeMeters>193.8000030517578125</AltitudeMeters>
            <DistanceMeters>7549.5308191181</DistanceMeters>
          </Trackpoint>
          <Trackpoint>
            <Time>2019-01-04T11:03:47.000Z</Time>
            <Position>
              <LatitudeDegrees>36.5002145804464817047119140625</LatitudeDegrees>
              <LongitudeDegrees>-5.40301845408976078033447265625</LongitudeDegrees>
            </Position>
            <AltitudeMeters>194</AltitudeMeters>
            <DistanceMeters>7550.2482550785</DistanceMeters>
          </Trackpoint>
          <Trackpoint>
            <Time>2019-01-04T11:03:48.000Z</Time>
            <Position>
              <LatitudeDegrees>36.50020745582878589630126953125</LatitudeDegrees>
              <LongitudeDegrees>-5.403021387755870819091796875</LongitudeDegrees>
            </Position>
            <AltitudeMeters>194</AltitudeMeters>
            <DistanceMeters>7551.0875082958</DistanceMeters>
          </Trackpoint>
          <Trackpoint>
            <Time>2019-01-04T11:03:49.000Z</Time>
            <Position>
              <LatitudeDegrees>36.5001951344311237335205078125</LatitudeDegrees>
              <LongitudeDegrees>-5.403024069964885711669921875</LongitudeDegrees>
            </Position>
            <AltitudeMeters>194</AltitudeMeters>
            <DistanceMeters>7552.477629283</DistanceMeters>
          </Trackpoint>
          <Trackpoint>
            <Time>2019-01-04T11:03:50.000Z</Time>
            <Position>
              <LatitudeDegrees>36.5001790411770343780517578125</LatitudeDegrees>
              <LongitudeDegrees>-5.403028428554534912109375</LongitudeDegrees>
            </Position>
            <AltitudeMeters>194.1999969482421875</AltitudeMeters>
            <DistanceMeters>7554.3104381756</DistanceMeters>
          </Trackpoint>
          <Trackpoint>
            <Time>2019-01-04T11:03:51.000Z</Time>
            <Position>
              <LatitudeDegrees>36.5001612715423107147216796875</LatitudeDegrees>
              <LongitudeDegrees>-5.40303521789610385894775390625</LongitudeDegrees>
            </Position>
            <AltitudeMeters>194.1999969482421875</AltitudeMeters>
            <DistanceMeters>7556.3793161891</DistanceMeters>
          </Trackpoint>
          <Trackpoint>
            <Time>2019-01-04T11:03:52.000Z</Time>
            <Position>
              <LatitudeDegrees>36.50014601647853851318359375</LatitudeDegrees>
              <LongitudeDegrees>-5.4030386544764041900634765625</LongitudeDegrees>
            </Position>
            <AltitudeMeters>194.399993896484375</AltitudeMeters>
            <DistanceMeters>7558.1055621815</DistanceMeters>
          </Trackpoint>
          <Trackpoint>
            <Time>2019-01-04T11:03:53.000Z</Time>
            <Position>
              <LatitudeDegrees>36.50013084523379802703857421875</LatitudeDegrees>
              <LongitudeDegrees>-5.403042845427989959716796875</LongitudeDegrees>
            </Position>
            <AltitudeMeters>194.1999969482421875</AltitudeMeters>
            <DistanceMeters>7559.8344217198</DistanceMeters>
          </Trackpoint>
          <Trackpoint>
            <Time>2019-01-04T11:03:54.000Z</Time>
            <Position>
              <LatitudeDegrees>36.50011341087520122528076171875</LatitudeDegrees>
              <LongitudeDegrees>-5.40304829366505146026611328125</LongitudeDegrees>
            </Position>
            <AltitudeMeters>194.1999969482421875</AltitudeMeters>
            <DistanceMeters>7561.8345026843</DistanceMeters>
          </Trackpoint>
          <Trackpoint>
            <Time>2019-01-04T11:03:55.000Z</Time>
            <Position>
              <LatitudeDegrees>36.5000989101827144622802734375</LatitudeDegrees>
              <LongitudeDegrees>-5.40305726230144500732421875</LongitudeDegrees>
            </Position>
            <AltitudeMeters>194.399993896484375</AltitudeMeters>
            <DistanceMeters>7563.6350019049</DistanceMeters>
          </Trackpoint>
          <Trackpoint>
            <Time>2019-01-04T11:03:56.000Z</Time>
            <Position>
              <LatitudeDegrees>36.5000863373279571533203125</LatitudeDegrees>
              <LongitudeDegrees>-5.403062291443347930908203125</LongitudeDegrees>
            </Position>
            <AltitudeMeters>194.399993896484375</AltitudeMeters>
            <DistanceMeters>7565.1071494337</DistanceMeters>
          </Trackpoint>
          <Trackpoint>
            <Time>2019-01-04T11:03:57.000Z</Time>
            <Position>
              <LatitudeDegrees>36.50007150135934352874755859375</LatitudeDegrees>
              <LongitudeDegrees>-5.403064973652362823486328125</LongitudeDegrees>
            </Position>
            <AltitudeMeters>194.399993896484375</AltitudeMeters>
            <DistanceMeters>7566.7748615026</DistanceMeters>
          </Trackpoint>
          <Trackpoint>
            <Time>2019-01-04T11:03:58.000Z</Time>
            <Position>
              <LatitudeDegrees>36.50005775503814220428466796875</LatitudeDegrees>
              <LongitudeDegrees>-5.40306824259459972381591796875</LongitudeDegrees>
            </Position>
            <AltitudeMeters>194.600006103515625</AltitudeMeters>
            <DistanceMeters>7568.3363097534</DistanceMeters>
          </Trackpoint>
          <Trackpoint>
            <Time>2019-01-04T11:03:59.000Z</Time>
            <Position>
              <LatitudeDegrees>36.500043757259845733642578125</LatitudeDegrees>
              <LongitudeDegrees>-5.40306924842298030853271484375</LongitudeDegrees>
            </Position>
            <AltitudeMeters>194.600006103515625</AltitudeMeters>
            <DistanceMeters>7569.8977580042</DistanceMeters>
          </Trackpoint>
          <Trackpoint>
            <Time>2019-01-04T11:04:00.000Z</Time>
            <Position>
              <LatitudeDegrees>36.500031687319278717041015625</LatitudeDegrees>
              <LongitudeDegrees>-5.4030694998800754547119140625</LongitudeDegrees>
            </Position>
            <AltitudeMeters>194.600006103515625</AltitudeMeters>
            <DistanceMeters>7571.2416386867</DistanceMeters>
          </Trackpoint>
          <Trackpoint>
            <Time>2019-01-04T11:04:01.000Z</Time>
            <Position>
              <LatitudeDegrees>36.5000221319496631622314453125</LatitudeDegrees>
              <LongitudeDegrees>-5.4030681587755680084228515625</LongitudeDegrees>
            </Position>
            <AltitudeMeters>194.600006103515625</AltitudeMeters>
            <DistanceMeters>7572.3125353709</DistanceMeters>
          </Trackpoint>
          <Trackpoint>
            <Time>2019-01-04T11:04:02.000Z</Time>
            <Position>
              <LatitudeDegrees>36.50001190602779388427734375</LatitudeDegrees>
              <LongitudeDegrees>-5.40306254290044307708740234375</LongitudeDegrees>
            </Position>
            <AltitudeMeters>194.600006103515625</AltitudeMeters>
            <DistanceMeters>7573.5587990462</DistanceMeters>
          </Trackpoint>
          <Trackpoint>
            <Time>2019-01-04T11:04:03.000Z</Time>
            <Position>
              <LatitudeDegrees>36.500000841915607452392578125</LatitudeDegrees>
              <LongitudeDegrees>-5.40307511575520038604736328125</LongitudeDegrees>
            </Position>
            <AltitudeMeters>194.399993896484375</AltitudeMeters>
            <DistanceMeters>7575.2265111151</DistanceMeters>
          </Trackpoint>
          <Trackpoint>
            <Time>2019-01-04T11:04:04.000Z</Time>
            <Position>
              <LatitudeDegrees>36.4999899454414844512939453125</LatitudeDegrees>
              <LongitudeDegrees>-5.40308433584868907928466796875</LongitudeDegrees>
            </Position>
            <AltitudeMeters>194.399993896484375</AltitudeMeters>
            <DistanceMeters>7576.6925118633</DistanceMeters>
          </Trackpoint>
          <Trackpoint>
            <Time>2019-01-04T11:04:05.000Z</Time>
            <Position>
              <LatitudeDegrees>36.49997971951961517333984375</LatitudeDegrees>
              <LongitudeDegrees>-5.4030882753431797027587890625</LongitudeDegrees>
            </Position>
            <AltitudeMeters>194.399993896484375</AltitudeMeters>
            <DistanceMeters>7577.8869791413</DistanceMeters>
          </Trackpoint>
          <Trackpoint>
            <Time>2019-01-04T11:04:06.000Z</Time>
            <Position>
              <LatitudeDegrees>36.499971337616443634033203125</LatitudeDegrees>
              <LongitudeDegrees>-5.4031006805598735809326171875</LongitudeDegrees>
            </Position>
            <AltitudeMeters>194.1999969482421875</AltitudeMeters>
            <DistanceMeters>7579.3343829325</DistanceMeters>
          </Trackpoint>
          <Trackpoint>
            <Time>2019-01-04T11:04:07.000Z</Time>
            <Position>
              <LatitudeDegrees>36.49996287189424037933349609375</LatitudeDegrees>
              <LongitudeDegrees>-5.403103195130825042724609375</LongitudeDegrees>
            </Position>
            <AltitudeMeters>194.1999969482421875</AltitudeMeters>
            <DistanceMeters>7580.3034690743</DistanceMeters>
          </Trackpoint>
          <Trackpoint>
            <Time>2019-01-04T11:04:08.000Z</Time>
            <Position>
              <LatitudeDegrees>36.49995155632495880126953125</LatitudeDegrees>
              <LongitudeDegrees>-5.40310311131179332733154296875</LongitudeDegrees>
            </Position>
            <AltitudeMeters>194.1999969482421875</AltitudeMeters>
            <DistanceMeters>7581.5641409008</DistanceMeters>
          </Trackpoint>
          <Trackpoint>
            <Time>2019-01-04T11:04:09.000Z</Time>
            <Position>
              <LatitudeDegrees>36.4999403245747089385986328125</LatitudeDegrees>
              <LongitudeDegrees>-5.40310294367372989654541015625</LongitudeDegrees>
            </Position>
            <AltitudeMeters>194.1999969482421875</AltitudeMeters>
            <DistanceMeters>7582.8140221851</DistanceMeters>
          </Trackpoint>
          <Trackpoint>
            <Time>2019-01-04T11:04:10.000Z</Time>
            <Position>
              <LatitudeDegrees>36.49992900900542736053466796875</LatitudeDegrees>
              <LongitudeDegrees>-5.403103530406951904296875</LongitudeDegrees>
            </Position>
            <AltitudeMeters>194.1999969482421875</AltitudeMeters>
            <DistanceMeters>7584.0746940116</DistanceMeters>
          </Trackpoint>
          <Trackpoint>
            <Time>2019-01-04T11:04:11.000Z</Time>
            <Position>
              <LatitudeDegrees>36.49991777725517749786376953125</LatitudeDegrees>
              <LongitudeDegrees>-5.40310428477823734283447265625</LongitudeDegrees>
            </Position>
            <AltitudeMeters>194.1999969482421875</AltitudeMeters>
            <DistanceMeters>7585.3281824644</DistanceMeters>
          </Trackpoint>
          <Trackpoint>
            <Time>2019-01-04T11:04:12.000Z</Time>
            <Position>
              <LatitudeDegrees>36.499900259077548980712890625</LatitudeDegrees>
              <LongitudeDegrees>-5.40309992618858814239501953125</LongitudeDegrees>
            </Position>
            <AltitudeMeters>194.399993896484375</AltitudeMeters>
            <DistanceMeters>7587.3146726874</DistanceMeters>
          </Trackpoint>
          <Trackpoint>
            <Time>2019-01-04T11:04:13.000Z</Time>
            <Position>
              <LatitudeDegrees>36.499886177480220794677734375</LatitudeDegrees>
              <LongitudeDegrees>-5.40309523232281208038330078125</LongitudeDegrees>
            </Position>
            <AltitudeMeters>194.600006103515625</AltitudeMeters>
            <DistanceMeters>7588.9329193215</DistanceMeters>
          </Trackpoint>
          <Trackpoint>
            <Time>2019-01-04T11:04:14.000Z</Time>
            <Position>
              <LatitudeDegrees>36.49987419135868549346923828125</LatitudeDegrees>
              <LongitudeDegrees>-5.40309690870344638824462890625</LongitudeDegrees>
            </Position>
            <AltitudeMeters>194.600006103515625</AltitudeMeters>
            <DistanceMeters>7590.276800004</DistanceMeters>
          </Trackpoint>
          <Trackpoint>
            <Time>2019-01-04T11:04:15.000Z</Time>
            <Position>
              <LatitudeDegrees>36.49986178614199161529541015625</LatitudeDegrees>
              <LongitudeDegrees>-5.4030976630747318267822265625</LongitudeDegrees>
            </Position>
            <AltitudeMeters>194.8000030517578125</AltitudeMeters>
            <DistanceMeters>7591.66040985</DistanceMeters>
          </Trackpoint>
          <Trackpoint>
            <Time>2019-01-04T11:04:16.000Z</Time>
            <Position>
              <LatitudeDegrees>36.499846279621124267578125</LatitudeDegrees>
              <LongitudeDegrees>-5.403096489608287811279296875</LongitudeDegrees>
            </Position>
            <AltitudeMeters>194.8000030517578125</AltitudeMeters>
            <DistanceMeters>7593.3892693883</DistanceMeters>
          </Trackpoint>
          <Trackpoint>
            <Time>2019-01-04T11:04:17.000Z</Time>
            <Position>
              <LatitudeDegrees>36.4998333714902400970458984375</LatitudeDegrees>
              <LongitudeDegrees>-5.40309975855052471160888671875</LongitudeDegrees>
            </Position>
            <AltitudeMeters>194.600006103515625</AltitudeMeters>
            <DistanceMeters>7594.8552701364</DistanceMeters>
          </Trackpoint>
          <Trackpoint>
            <Time>2019-01-04T11:04:18.000Z</Time>
            <Position>
              <LatitudeDegrees>36.49982205592095851898193359375</LatitudeDegrees>
              <LongitudeDegrees>-5.40310545824468135833740234375</LongitudeDegrees>
            </Position>
            <AltitudeMeters>194.600006103515625</AltitudeMeters>
            <DistanceMeters>7596.215845629</DistanceMeters>
          </Trackpoint>
          <Trackpoint>
            <Time>2019-01-04T11:04:19.000Z</Time>
            <Position>
              <LatitudeDegrees>36.4998129196465015411376953125</LatitudeDegrees>
              <LongitudeDegrees>-5.4031048715114593505859375</LongitudeDegrees>
            </Position>
            <AltitudeMeters>194.600006103515625</AltitudeMeters>
            <DistanceMeters>7597.2348936117</DistanceMeters>
          </Trackpoint>
          <Trackpoint>
            <Time>2019-01-04T11:04:20.000Z</Time>
            <Position>
              <LatitudeDegrees>36.49980830959975719451904296875</LatitudeDegrees>
              <LongitudeDegrees>-5.40310596115887165069580078125</LongitudeDegrees>
            </Position>
            <AltitudeMeters>194.600006103515625</AltitudeMeters>
            <DistanceMeters>7597.755376362</DistanceMeters>
          </Trackpoint>
          <Trackpoint>
            <Time>2019-01-04T11:04:21.000Z</Time>
            <Position>
              <LatitudeDegrees>36.49980160407721996307373046875</LatitudeDegrees>
              <LongitudeDegrees>-5.4031010158360004425048828125</LongitudeDegrees>
            </Position>
            <AltitudeMeters>194.600006103515625</AltitudeMeters>
            <DistanceMeters>7598.6263105853</DistanceMeters>
          </Trackpoint>
          <Trackpoint>
            <Time>2019-01-04T11:04:22.000Z</Time>
            <Position>
              <LatitudeDegrees>36.4997971616685390472412109375</LatitudeDegrees>
              <LongitudeDegrees>-5.40309707634150981903076171875</LongitudeDegrees>
            </Position>
            <AltitudeMeters>194.8000030517578125</AltitudeMeters>
            <DistanceMeters>7599.2273122972</DistanceMeters>
          </Trackpoint>
          <Trackpoint>
            <Time>2019-01-04T11:04:23.000Z</Time>
            <Position>
              <LatitudeDegrees>36.49979255162179470062255859375</LatitudeDegrees>
              <LongitudeDegrees>-5.40309539996087551116943359375</LongitudeDegrees>
            </Position>
            <AltitudeMeters>194.8000030517578125</AltitudeMeters>
            <DistanceMeters>7599.7648645702</DistanceMeters>
          </Trackpoint>
          <Trackpoint>
            <Time>2019-01-04T11:04:24.000Z</Time>
            <Position>
              <LatitudeDegrees>36.49978919886052608489990234375</LatitudeDegrees>
              <LongitudeDegrees>-5.40309489704668521881103515625</LongitudeDegrees>
            </Position>
            <AltitudeMeters>194.8000030517578125</AltitudeMeters>
            <DistanceMeters>7600.1329014524</DistanceMeters>
          </Trackpoint>
          <Trackpoint>
            <Time>2019-01-04T11:04:25.000Z</Time>
            <Position>
              <LatitudeDegrees>36.49978852830827236175537109375</LatitudeDegrees>
              <LongitudeDegrees>-5.40309556759893894195556640625</LongitudeDegrees>
            </Position>
            <AltitudeMeters>194.8000030517578125</AltitudeMeters>
            <DistanceMeters>7600.2672895207</DistanceMeters>
          </Trackpoint>
          <Trackpoint>
            <Time>2019-01-04T11:04:26.000Z</Time>
            <Position>
              <LatitudeDegrees>36.4997881092131137847900390625</LatitudeDegrees>
              <LongitudeDegrees>-5.403096489608287811279296875</LongitudeDegrees>
            </Position>
            <AltitudeMeters>194.8000030517578125</AltitudeMeters>
            <DistanceMeters>7600.362316235</DistanceMeters>
          </Trackpoint>
          <Trackpoint>
            <Time>2019-01-04T11:04:27.000Z</Time>
            <Position>
              <LatitudeDegrees>36.4997860975563526153564453125</LatitudeDegrees>
              <LongitudeDegrees>-5.4030963219702243804931640625</LongitudeDegrees>
            </Position>
            <AltitudeMeters>194.8000030517578125</AltitudeMeters>
            <DistanceMeters>7600.5950831972</DistanceMeters>
          </Trackpoint>
          <Trackpoint>
            <Time>2019-01-04T11:04:28.000Z</Time>
            <Position>
              <LatitudeDegrees>36.49978098459541797637939453125</LatitudeDegrees>
              <LongitudeDegrees>-5.4030936397612094879150390625</LongitudeDegrees>
            </Position>
            <AltitudeMeters>194.8000030517578125</AltitudeMeters>
            <DistanceMeters>7601.2109266924</DistanceMeters>
          </Trackpoint>
          <Trackpoint>
            <Time>2019-01-04T11:04:29.000Z</Time>
            <Position>
              <LatitudeDegrees>36.4997767098248004913330078125</LatitudeDegrees>
              <LongitudeDegrees>-5.40309187956154346466064453125</LongitudeDegrees>
            </Position>
            <AltitudeMeters>194.600006103515625</AltitudeMeters>
            <DistanceMeters>7601.7137608007</DistanceMeters>
          </Trackpoint>
          <Trackpoint>
            <Time>2019-01-04T11:04:30.000Z</Time>
            <Position>
              <LatitudeDegrees>36.49977612309157848358154296875</LatitudeDegrees>
              <LongitudeDegrees>-5.40309707634150981903076171875</LongitudeDegrees>
            </Position>
            <AltitudeMeters>194.600006103515625</AltitudeMeters>
            <DistanceMeters>7602.179294725</DistanceMeters>
          </Trackpoint>
          <Trackpoint>
            <Time>2019-01-04T11:04:31.000Z</Time>
            <Position>
              <LatitudeDegrees>36.49977763183414936065673828125</LatitudeDegrees>
              <LongitudeDegrees>-5.40309975855052471160888671875</LongitudeDegrees>
            </Position>
            <AltitudeMeters>194.600006103515625</AltitudeMeters>
            <DistanceMeters>7602.4643748681</DistanceMeters>
          </Trackpoint>
          <Trackpoint>
            <Time>2019-01-04T11:04:32.000Z</Time>
            <Position>
              <LatitudeDegrees>36.49977696128189563751220703125</LatitudeDegrees>
              <LongitudeDegrees>-5.40310042910277843475341796875</LongitudeDegrees>
            </Position>
            <AltitudeMeters>194.600006103515625</AltitudeMeters>
            <DistanceMeters>7602.5987629363</DistanceMeters>
          </Trackpoint>
          <Trackpoint>
            <Time>2019-01-04T11:04:33.000Z</Time>
            <Position>
              <LatitudeDegrees>36.4997767098248004913330078125</LatitudeDegrees>
              <LongitudeDegrees>-5.40310009382665157318115234375</LongitudeDegrees>
            </Position>
            <AltitudeMeters>194.600006103515625</AltitudeMeters>
            <DistanceMeters>7602.5987629363</DistanceMeters>
          </Trackpoint>
          <Trackpoint>
            <Time>2019-01-04T11:04:34.000Z</Time>
            <Position>
              <LatitudeDegrees>36.4997773803770542144775390625</LatitudeDegrees>
              <LongitudeDegrees>-5.403098165988922119140625</LongitudeDegrees>
            </Position>
            <AltitudeMeters>194.600006103515625</AltitudeMeters>
            <DistanceMeters>7602.7331510046</DistanceMeters>
          </Trackpoint>
          <Trackpoint>
            <Time>2019-01-04T11:04:35.000Z</Time>
            <Position>
              <LatitudeDegrees>36.4997740276157855987548828125</LatitudeDegrees>
              <LongitudeDegrees>-5.403091795742511749267578125</LongitudeDegrees>
            </Position>
            <AltitudeMeters>194.600006103515625</AltitudeMeters>
            <DistanceMeters>7603.4050913458</DistanceMeters>
          </Trackpoint>
          <Trackpoint>
            <Time>2019-01-04T11:04:36.000Z</Time>
            <Position>
              <LatitudeDegrees>36.49976648390293121337890625</LatitudeDegrees>
              <LongitudeDegrees>-5.4030914604663848876953125</LongitudeDegrees>
            </Position>
            <AltitudeMeters>194.600006103515625</AltitudeMeters>
            <DistanceMeters>7604.244344563</DistanceMeters>
          </Trackpoint>
          <Trackpoint>
            <Time>2019-01-04T11:04:37.000Z</Time>
            <Position>
              <LatitudeDegrees>36.4997559227049350738525390625</LatitudeDegrees>
              <LongitudeDegrees>-5.4030892811715602874755859375</LongitudeDegrees>
            </Position>
            <AltitudeMeters>194.600006103515625</AltitudeMeters>
            <DistanceMeters>7605.438811841</DistanceMeters>
          </Trackpoint>
          <Trackpoint>
            <Time>2019-01-04T11:04:38.000Z</Time>
            <Position>
              <LatitudeDegrees>36.49974460713565349578857421875</LatitudeDegrees>
              <LongitudeDegrees>-5.4030869342386722564697265625</LongitudeDegrees>
            </Position>
            <AltitudeMeters>194.600006103515625</AltitudeMeters>
            <DistanceMeters>7606.7172655306</DistanceMeters>
          </Trackpoint>
          <Trackpoint>
            <Time>2019-01-04T11:04:39.000Z</Time>
            <Position>
              <LatitudeDegrees>36.49973563849925994873046875</LatitudeDegrees>
              <LongitudeDegrees>-5.40308567695319652557373046875</LongitudeDegrees>
            </Position>
            <AltitudeMeters>194.600006103515625</AltitudeMeters>
            <DistanceMeters>7607.7229337471</DistanceMeters>
          </Trackpoint>
          <Trackpoint>
            <Time>2019-01-04T11:04:40.000Z</Time>
            <Position>
              <LatitudeDegrees>36.49972767569124698638916015625</LatitudeDegrees>
              <LongitudeDegrees>-5.4030852578580379486083984375</LongitudeDegrees>
            </Position>
            <AltitudeMeters>194.600006103515625</AltitudeMeters>
            <DistanceMeters>7608.6092839322</DistanceMeters>
          </Trackpoint>
          <Trackpoint>
            <Time>2019-01-04T11:04:41.000Z</Time>
            <Position>
              <LatitudeDegrees>36.499719880521297454833984375</LatitudeDegrees>
              <LongitudeDegrees>-5.4030832462012767791748046875</LongitudeDegrees>
            </Position>
            <AltitudeMeters>194.600006103515625</AltitudeMeters>
            <DistanceMeters>7609.5007135296</DistanceMeters>
          </Trackpoint>
          <Trackpoint>
            <Time>2019-01-04T11:04:42.000Z</Time>
            <Position>
              <LatitudeDegrees>36.499713845551013946533203125</LatitudeDegrees>
              <LongitudeDegrees>-5.40308517403900623321533203125</LongitudeDegrees>
            </Position>
            <AltitudeMeters>194.600006103515625</AltitudeMeters>
            <DistanceMeters>7610.199014416</DistanceMeters>
          </Trackpoint>
          <Trackpoint>
            <Time>2019-01-04T11:04:43.000Z</Time>
            <Position>
              <LatitudeDegrees>36.499706804752349853515625</LatitudeDegrees>
              <LongitudeDegrees>-5.403084419667720794677734375</LongitudeDegrees>
            </Position>
            <AltitudeMeters>194.600006103515625</AltitudeMeters>
            <DistanceMeters>7610.9940649497</DistanceMeters>
          </Trackpoint>
          <Trackpoint>
            <Time>2019-01-04T11:04:44.000Z</Time>
            <Position>
              <LatitudeDegrees>36.4997027814388275146484375</LatitudeDegrees>
              <LongitudeDegrees>-5.4030835814774036407470703125</LongitudeDegrees>
            </Position>
            <AltitudeMeters>194.600006103515625</AltitudeMeters>
            <DistanceMeters>7611.4595988739</DistanceMeters>
          </Trackpoint>
          <Trackpoint>
            <Time>2019-01-04T11:04:45.000Z</Time>
            <Position>
              <LatitudeDegrees>36.49969783611595630645751953125</LatitudeDegrees>
              <LongitudeDegrees>-5.40307779796421527862548828125</LongitudeDegrees>
            </Position>
            <AltitudeMeters>194.399993896484375</AltitudeMeters>
            <DistanceMeters>7612.2198125889</DistanceMeters>
          </Trackpoint>
          <Trackpoint>
            <Time>2019-01-04T11:04:46.000Z</Time>
            <Position>
              <LatitudeDegrees>36.499693728983402252197265625</LatitudeDegrees>
              <LongitudeDegrees>-5.4030738584697246551513671875</LongitudeDegrees>
            </Position>
            <AltitudeMeters>194.399993896484375</AltitudeMeters>
            <DistanceMeters>7612.8055965976</DistanceMeters>
          </Trackpoint>
          <Trackpoint>
            <Time>2019-01-04T11:04:47.000Z</Time>
            <Position>
              <LatitudeDegrees>36.49969096295535564422607421875</LatitudeDegrees>
              <LongitudeDegrees>-5.40307201445102691650390625</LongitudeDegrees>
            </Position>
            <AltitudeMeters>194.1999969482421875</AltitudeMeters>
            <DistanceMeters>7613.1482202888</DistanceMeters>
          </Trackpoint>
          <Trackpoint>
            <Time>2019-01-04T11:04:48.000Z</Time>
            <Position>
              <LatitudeDegrees>36.499688364565372467041015625</LatitudeDegrees>
              <LongitudeDegrees>-5.40306908078491687774658203125</LongitudeDegrees>
            </Position>
            <AltitudeMeters>194</AltitudeMeters>
            <DistanceMeters>7613.5513844936</DistanceMeters>
          </Trackpoint>
          <Trackpoint>
            <Time>2019-01-04T11:04:49.000Z</Time>
            <Position>
              <LatitudeDegrees>36.49968526326119899749755859375</LatitudeDegrees>
              <LongitudeDegrees>-5.4030708409845829010009765625</LongitudeDegrees>
            </Position>
            <AltitudeMeters>193.8000030517578125</AltitudeMeters>
            <DistanceMeters>7613.9431896742</DistanceMeters>
          </Trackpoint>
          <Trackpoint>
            <Time>2019-01-04T11:04:50.000Z</Time>
            <Position>
              <LatitudeDegrees>36.499680317938327789306640625</LatitudeDegrees>
              <LongitudeDegrees>-5.4030762054026126861572265625</LongitudeDegrees>
            </Position>
            <AltitudeMeters>193.600006103515625</AltitudeMeters>
            <DistanceMeters>7614.6668915698</DistanceMeters>
          </Trackpoint>
          <Trackpoint>
            <Time>2019-01-04T11:04:51.000Z</Time>
            <Position>
              <LatitudeDegrees>36.4996754564344882965087890625</LatitudeDegrees>
              <LongitudeDegrees>-5.40308333002030849456787109375</LongitudeDegrees>
            </Position>
            <AltitudeMeters>193.600006103515625</AltitudeMeters>
            <DistanceMeters>7615.5007476042</DistanceMeters>
          </Trackpoint>
          <Trackpoint>
            <Time>2019-01-04T11:04:52.000Z</Time>
            <Position>
              <LatitudeDegrees>36.49967051111161708831787109375</LatitudeDegrees>
              <LongitudeDegrees>-5.40309011936187744140625</LongitudeDegrees>
            </Position>
            <AltitudeMeters>193.600006103515625</AltitudeMeters>
            <DistanceMeters>7616.3237030911</DistanceMeters>
          </Trackpoint>
          <Trackpoint>
            <Time>2019-01-04T11:04:53.000Z</Time>
            <Position>
              <LatitudeDegrees>36.49966414086520671844482421875</LatitudeDegrees>
              <LongitudeDegrees>-5.4030916281044483184814453125</LongitudeDegrees>
            </Position>
            <AltitudeMeters>193.600006103515625</AltitudeMeters>
            <DistanceMeters>7617.0474049867</DistanceMeters>
          </Trackpoint>
          <Trackpoint>
            <Time>2019-01-04T11:04:54.000Z</Time>
            <Position>
              <LatitudeDegrees>36.49966045282781124114990234375</LatitudeDegrees>
              <LongitudeDegrees>-5.40309305302798748016357421875</LongitudeDegrees>
            </Position>
            <AltitudeMeters>193.399993896484375</AltitudeMeters>
            <DistanceMeters>7617.4723773727</DistanceMeters>
          </Trackpoint>
          <Trackpoint>
            <Time>2019-01-04T11:04:55.000Z</Time>
            <Position>
              <LatitudeDegrees>36.4996583573520183563232421875</LatitudeDegrees>
              <LongitudeDegrees>-5.403094477951526641845703125</LongitudeDegrees>
            </Position>
            <AltitudeMeters>193.600006103515625</AltitudeMeters>
            <DistanceMeters>7617.7411535092</DistanceMeters>
          </Trackpoint>
          <Trackpoint>
            <Time>2019-01-04T11:04:56.000Z</Time>
            <Position>
              <LatitudeDegrees>36.49965777061879634857177734375</LatitudeDegrees>
              <LongitudeDegrees>-5.40309506468474864959716796875</LongitudeDegrees>
            </Position>
            <AltitudeMeters>193.600006103515625</AltitudeMeters>
            <DistanceMeters>7617.8361802236</DistanceMeters>
          </Trackpoint>
          <Trackpoint>
            <Time>2019-01-04T11:04:57.000Z</Time>
            <Position>
              <LatitudeDegrees>36.49965860880911350250244140625</LatitudeDegrees>
              <LongitudeDegrees>-5.40309573523700237274169921875</LongitudeDegrees>
            </Position>
            <AltitudeMeters>193.600006103515625</AltitudeMeters>
            <DistanceMeters>7618.000771321</DistanceMeters>
          </Trackpoint>
          <Trackpoint>
            <Time>2019-01-04T11:04:58.000Z</Time>
            <Position>
              <LatitudeDegrees>36.499658860266208648681640625</LatitudeDegrees>
              <LongitudeDegrees>-5.4030968248844146728515625</LongitudeDegrees>
            </Position>
            <AltitudeMeters>193.600006103515625</AltitudeMeters>
            <DistanceMeters>7618.1351593892</DistanceMeters>
          </Trackpoint>
          <Trackpoint>
            <Time>2019-01-04T11:04:59.000Z</Time>
            <Position>
              <LatitudeDegrees>36.49965911172330379486083984375</LatitudeDegrees>
              <LongitudeDegrees>-5.40309724397957324981689453125</LongitudeDegrees>
            </Position>
            <AltitudeMeters>193.600006103515625</AltitudeMeters>
            <DistanceMeters>7618.2301861036</DistanceMeters>
          </Trackpoint>
          <Trackpoint>
            <Time>2019-01-04T11:05:00.000Z</Time>
            <Position>
              <LatitudeDegrees>36.499658860266208648681640625</LatitudeDegrees>
              <LongitudeDegrees>-5.4030969925224781036376953125</LongitudeDegrees>
            </Position>
            <AltitudeMeters>193.600006103515625</AltitudeMeters>
            <DistanceMeters>7618.325212818</DistanceMeters>
          </Trackpoint>
          <Trackpoint>
            <Time>2019-01-04T11:05:01.000Z</Time>
            <Position>
              <LatitudeDegrees>36.4996586926281452178955078125</LatitudeDegrees>
              <LongitudeDegrees>-5.4030969925224781036376953125</LongitudeDegrees>
            </Position>
            <AltitudeMeters>193.600006103515625</AltitudeMeters>
            <DistanceMeters>7618.325212818</DistanceMeters>
          </Trackpoint>
          <Trackpoint>
            <Time>2019-01-04T11:05:02.000Z</Time>
            <Position>
              <LatitudeDegrees>36.49965894408524036407470703125</LatitudeDegrees>
              <LongitudeDegrees>-5.4030973277986049652099609375</LongitudeDegrees>
            </Position>
            <AltitudeMeters>193.600006103515625</AltitudeMeters>
            <DistanceMeters>7618.325212818</DistanceMeters>
          </Trackpoint>
          <Trackpoint>
            <Time>2019-01-04T11:05:03.000Z</Time>
            <Position>
              <LatitudeDegrees>36.4996612071990966796875</LatitudeDegrees>
              <LongitudeDegrees>-5.40309556759893894195556640625</LongitudeDegrees>
            </Position>
            <AltitudeMeters>193.600006103515625</AltitudeMeters>
            <DistanceMeters>7618.6257136739</DistanceMeters>
          </Trackpoint>
          <Trackpoint>
            <Time>2019-01-04T11:05:04.000Z</Time>
            <Position>
              <LatitudeDegrees>36.49966564960777759552001953125</LatitudeDegrees>
              <LongitudeDegrees>-5.40309087373316287994384765625</LongitudeDegrees>
            </Position>
            <AltitudeMeters>193.8000030517578125</AltitudeMeters>
            <DistanceMeters>7619.263172253</DistanceMeters>
          </Trackpoint>
          <Trackpoint>
            <Time>2019-01-04T11:05:05.000Z</Time>
            <Position>
              <LatitudeDegrees>36.49967134930193424224853515625</LatitudeDegrees>
              <LongitudeDegrees>-5.40308517403900623321533203125</LongitudeDegrees>
            </Position>
            <AltitudeMeters>193.8000030517578125</AltitudeMeters>
            <DistanceMeters>7620.0695006625</DistanceMeters>
          </Trackpoint>
          <Trackpoint>
            <Time>2019-01-04T11:05:06.000Z</Time>
            <Position>
              <LatitudeDegrees>36.49967989884316921234130859375</LatitudeDegrees>
              <LongitudeDegrees>-5.40307897143065929412841796875</LongitudeDegrees>
            </Position>
            <AltitudeMeters>193.8000030517578125</AltitudeMeters>
            <DistanceMeters>7621.1695144094</DistanceMeters>
          </Trackpoint>
          <Trackpoint>
            <Time>2019-01-04T11:05:07.000Z</Time>
            <Position>
              <LatitudeDegrees>36.499688364565372467041015625</LatitudeDegrees>
              <LongitudeDegrees>-5.40307260118424892425537109375</LongitudeDegrees>
            </Position>
            <AltitudeMeters>193.600006103515625</AltitudeMeters>
            <DistanceMeters>7622.2695281564</DistanceMeters>
          </Trackpoint>
          <Trackpoint>
            <Time>2019-01-04T11:05:08.000Z</Time>
            <Position>
              <LatitudeDegrees>36.49969632737338542938232421875</LatitudeDegrees>
              <LongitudeDegrees>-5.40306488983333110809326171875</LongitudeDegrees>
            </Position>
            <AltitudeMeters>193.8000030517578125</AltitudeMeters>
            <DistanceMeters>7623.3938994038</DistanceMeters>
          </Trackpoint>
          <Trackpoint>
            <Time>2019-01-04T11:05:09.000Z</Time>
            <Position>
              <LatitudeDegrees>36.49970185942947864532470703125</LatitudeDegrees>
              <LongitudeDegrees>-5.403055250644683837890625</LongitudeDegrees>
            </Position>
            <AltitudeMeters>193.8000030517578125</AltitudeMeters>
            <DistanceMeters>7624.4520721114</DistanceMeters>
          </Trackpoint>
          <Trackpoint>
            <Time>2019-01-04T11:05:10.000Z</Time>
            <Position>
              <LatitudeDegrees>36.499707140028476715087890625</LatitudeDegrees>
              <LongitudeDegrees>-5.403044521808624267578125</LongitudeDegrees>
            </Position>
            <AltitudeMeters>193.8000030517578125</AltitudeMeters>
            <DistanceMeters>7625.5724205508</DistanceMeters>
          </Trackpoint>
          <Trackpoint>
            <Time>2019-01-04T11:05:11.000Z</Time>
            <Position>
              <LatitudeDegrees>36.4997133426368236541748046875</LatitudeDegrees>
              <LongitudeDegrees>-5.403033792972564697265625</LongitudeDegrees>
            </Position>
            <AltitudeMeters>194</AltitudeMeters>
            <DistanceMeters>7626.7516710638</DistanceMeters>
          </Trackpoint>
          <Trackpoint>
            <Time>2019-01-04T11:05:12.000Z</Time>
            <Position>
              <LatitudeDegrees>36.49971728213131427764892578125</LatitudeDegrees>
              <LongitudeDegrees>-5.4030202142894268035888671875</LongitudeDegrees>
            </Position>
            <AltitudeMeters>194.1999969482421875</AltitudeMeters>
            <DistanceMeters>7628.040676132</DistanceMeters>
          </Trackpoint>
          <Trackpoint>
            <Time>2019-01-04T11:05:13.000Z</Time>
            <Position>
              <LatitudeDegrees>36.499719209969043731689453125</LatitudeDegrees>
              <LongitudeDegrees>-5.40300738997757434844970703125</LongitudeDegrees>
            </Position>
            <AltitudeMeters>194.399993896484375</AltitudeMeters>
            <DistanceMeters>7629.2083839477</DistanceMeters>
          </Trackpoint>
          <Trackpoint>
            <Time>2019-01-04T11:05:14.000Z</Time>
            <Position>
              <LatitudeDegrees>36.49972021579742431640625</LatitudeDegrees>
              <LongitudeDegrees>-5.402996242046356201171875</LongitudeDegrees>
            </Position>
            <AltitudeMeters>194.399993896484375</AltitudeMeters>
            <DistanceMeters>7630.2095525076</DistanceMeters>
          </Trackpoint>
          <Trackpoint>
            <Time>2019-01-04T11:05:15.000Z</Time>
            <Position>
              <LatitudeDegrees>36.499722562730312347412109375</LatitudeDegrees>
              <LongitudeDegrees>-5.40298928506672382354736328125</LongitudeDegrees>
            </Position>
            <AltitudeMeters>194.399993896484375</AltitudeMeters>
            <DistanceMeters>7630.8881789871</DistanceMeters>
          </Trackpoint>
          <Trackpoint>
            <Time>2019-01-04T11:05:16.000Z</Time>
            <Position>
              <LatitudeDegrees>36.49972365237772464752197265625</LatitudeDegrees>
              <LongitudeDegrees>-5.40298358537256717681884765625</LongitudeDegrees>
            </Position>
            <AltitudeMeters>194.399993896484375</AltitudeMeters>
            <DistanceMeters>7631.4257312601</DistanceMeters>
          </Trackpoint>
          <Trackpoint>
            <Time>2019-01-04T11:05:17.000Z</Time>
            <Position>
              <LatitudeDegrees>36.49972893297672271728515625</LatitudeDegrees>
              <LongitudeDegrees>-5.40297822095453739166259765625</LongitudeDegrees>
            </Position>
            <AltitudeMeters>194.399993896484375</AltitudeMeters>
            <DistanceMeters>7632.185944975</DistanceMeters>
          </Trackpoint>
          <Trackpoint>
            <Time>2019-01-04T11:05:18.000Z</Time>
            <Position>
              <LatitudeDegrees>36.49972918443381786346435546875</LatitudeDegrees>
              <LongitudeDegrees>-5.40297277271747589111328125</LongitudeDegrees>
            </Position>
            <AltitudeMeters>194.1999969482421875</AltitudeMeters>
            <DistanceMeters>7632.6797182671</DistanceMeters>
          </Trackpoint>
          <Trackpoint>
            <Time>2019-01-04T11:05:19.000Z</Time>
            <Position>
              <LatitudeDegrees>36.49972884915769100189208984375</LatitudeDegrees>
              <LongitudeDegrees>-5.40296866558492183685302734375</LongitudeDegrees>
            </Position>
            <AltitudeMeters>194.1999969482421875</AltitudeMeters>
            <DistanceMeters>7633.0477551493</DistanceMeters>
          </Trackpoint>
          <Trackpoint>
            <Time>2019-01-04T11:05:20.000Z</Time>
            <Position>
              <LatitudeDegrees>36.49972767569124698638916015625</LatitudeDegrees>
              <LongitudeDegrees>-5.40296581573784351348876953125</LongitudeDegrees>
            </Position>
            <AltitudeMeters>194</AltitudeMeters>
            <DistanceMeters>7633.3165312858</DistanceMeters>
          </Trackpoint>
          <Trackpoint>
            <Time>2019-01-04T11:05:21.000Z</Time>
            <Position>
              <LatitudeDegrees>36.4997274242341518402099609375</LatitudeDegrees>
              <LongitudeDegrees>-5.402967073023319244384765625</LongitudeDegrees>
            </Position>
            <AltitudeMeters>193.8000030517578125</AltitudeMeters>
            <DistanceMeters>7633.4115580002</DistanceMeters>
          </Trackpoint>
          <Trackpoint>
            <Time>2019-01-04T11:05:22.000Z</Time>
            <Position>
              <LatitudeDegrees>36.49972817860543727874755859375</LatitudeDegrees>
              <LongitudeDegrees>-5.40296413935720920562744140625</LongitudeDegrees>
            </Position>
            <AltitudeMeters>193.8000030517578125</AltitudeMeters>
            <DistanceMeters>7633.6803341367</DistanceMeters>
          </Trackpoint>
          <Trackpoint>
            <Time>2019-01-04T11:05:23.000Z</Time>
            <Position>
              <LatitudeDegrees>36.4997260831296443939208984375</LatitudeDegrees>
              <LongitudeDegrees>-5.40295609273016452789306640625</LongitudeDegrees>
            </Position>
            <AltitudeMeters>193.8000030517578125</AltitudeMeters>
            <DistanceMeters>7634.4405478517</DistanceMeters>
          </Trackpoint>
          <Trackpoint>
            <Time>2019-01-04T11:05:24.000Z</Time>
            <Position>
              <LatitudeDegrees>36.49972130544483661651611328125</LatitudeDegrees>
              <LongitudeDegrees>-5.4029441066086292266845703125</LongitudeDegrees>
            </Position>
            <AltitudeMeters>193.8000030517578125</AltitudeMeters>
            <DistanceMeters>7635.6387891273</DistanceMeters>
          </Trackpoint>
          <Trackpoint>
            <Time>2019-01-04T11:05:25.000Z</Time>
            <Position>
              <LatitudeDegrees>36.49971459992229938507080078125</LatitudeDegrees>
              <LongitudeDegrees>-5.40293580852448940277099609375</LongitudeDegrees>
            </Position>
            <AltitudeMeters>193.8000030517578125</AltitudeMeters>
            <DistanceMeters>7636.6883934938</DistanceMeters>
          </Trackpoint>
          <Trackpoint>
            <Time>2019-01-04T11:05:26.000Z</Time>
            <Position>
              <LatitudeDegrees>36.4997054636478424072265625</LatitudeDegrees>
              <LongitudeDegrees>-5.40293362922966480255126953125</LongitudeDegrees>
            </Position>
            <AltitudeMeters>193.8000030517578125</AltitudeMeters>
            <DistanceMeters>7637.7206478328</DistanceMeters>
          </Trackpoint>
          <Trackpoint>
            <Time>2019-01-04T11:05:27.000Z</Time>
            <Position>
              <LatitudeDegrees>36.499697752296924591064453125</LatitudeDegrees>
              <LongitudeDegrees>-5.40293597616255283355712890625</LongitudeDegrees>
            </Position>
            <AltitudeMeters>193.600006103515625</AltitudeMeters>
            <DistanceMeters>7638.6018893287</DistanceMeters>
          </Trackpoint>
          <Trackpoint>
            <Time>2019-01-04T11:05:28.000Z</Time>
            <Position>
              <LatitudeDegrees>36.49969230405986309051513671875</LatitudeDegrees>
              <LongitudeDegrees>-5.402942597866058349609375</LongitudeDegrees>
            </Position>
            <AltitudeMeters>193.600006103515625</AltitudeMeters>
            <DistanceMeters>7639.4518341008</DistanceMeters>
          </Trackpoint>
          <Trackpoint>
            <Time>2019-01-04T11:05:29.000Z</Time>
            <Position>
              <LatitudeDegrees>36.499687694013118743896484375</LatitudeDegrees>
              <LongitudeDegrees>-5.40294997394084930419921875</LongitudeDegrees>
            </Position>
            <AltitudeMeters>193.8000030517578125</AltitudeMeters>
            <DistanceMeters>7640.291087318</DistanceMeters>
          </Trackpoint>
          <Trackpoint>
            <Time>2019-01-04T11:05:30.000Z</Time>
            <Position>
              <LatitudeDegrees>36.4996786415576934814453125</LatitudeDegrees>
              <LongitudeDegrees>-5.402957014739513397216796875</LongitudeDegrees>
            </Position>
            <AltitudeMeters>193.8000030517578125</AltitudeMeters>
            <DistanceMeters>7641.4779706001</DistanceMeters>
          </Trackpoint>
          <Trackpoint>
            <Time>2019-01-04T11:05:31.000Z</Time>
            <Position>
              <LatitudeDegrees>36.49967336095869541168212890625</LatitudeDegrees>
              <LongitudeDegrees>-5.4029665701091289520263671875</LongitudeDegrees>
            </Position>
            <AltitudeMeters>193.8000030517578125</AltitudeMeters>
            <DistanceMeters>7642.5189361006</DistanceMeters>
          </Trackpoint>
          <Trackpoint>
            <Time>2019-01-04T11:05:32.000Z</Time>
            <Position>
              <LatitudeDegrees>36.4996670745313167572021484375</LatitudeDegrees>
              <LongitudeDegrees>-5.40297470055520534515380859375</LongitudeDegrees>
            </Position>
            <AltitudeMeters>193.8000030517578125</AltitudeMeters>
            <DistanceMeters>7643.5335437659</DistanceMeters>
          </Trackpoint>
          <Trackpoint>
            <Time>2019-01-04T11:05:33.000Z</Time>
            <Position>
              <LatitudeDegrees>36.4996590279042720794677734375</LatitudeDegrees>
              <LongitudeDegrees>-5.4029870219528675079345703125</LongitudeDegrees>
            </Position>
            <AltitudeMeters>193.8000030517578125</AltitudeMeters>
            <DistanceMeters>7644.9494099215</DistanceMeters>
          </Trackpoint>
          <Trackpoint>
            <Time>2019-01-04T11:05:34.000Z</Time>
            <Position>
              <LatitudeDegrees>36.49965173564851284027099609375</LatitudeDegrees>
              <LongitudeDegrees>-5.40299682877957820892333984375</LongitudeDegrees>
            </Position>
            <AltitudeMeters>193.8000030517578125</AltitudeMeters>
            <DistanceMeters>7646.1438771995</DistanceMeters>
          </Trackpoint>
          <Trackpoint>
            <Time>2019-01-04T11:05:35.000Z</Time>
            <Position>
              <LatitudeDegrees>36.4996449463069438934326171875</LatitudeDegrees>
              <LongitudeDegrees>-5.40300755761563777923583984375</LongitudeDegrees>
            </Position>
            <AltitudeMeters>193.600006103515625</AltitudeMeters>
            <DistanceMeters>7647.3645174468</DistanceMeters>
          </Trackpoint>
          <Trackpoint>
            <Time>2019-01-04T11:05:36.000Z</Time>
            <Position>
              <LatitudeDegrees>36.49963815696537494659423828125</LatitudeDegrees>
              <LongitudeDegrees>-5.4030195437371730804443359375</LongitudeDegrees>
            </Position>
            <AltitudeMeters>193.399993896484375</AltitudeMeters>
            <DistanceMeters>7648.677812768</DistanceMeters>
          </Trackpoint>
          <Trackpoint>
            <Time>2019-01-04T11:05:37.000Z</Time>
            <Position>
              <LatitudeDegrees>36.4996318705379962921142578125</LatitudeDegrees>
              <LongitudeDegrees>-5.4030353017151355743408203125</LongitudeDegrees>
            </Position>
            <AltitudeMeters>193.1999969482421875</AltitudeMeters>
            <DistanceMeters>7650.2507847785</DistanceMeters>
          </Trackpoint>
          <Trackpoint>
            <Time>2019-01-04T11:05:38.000Z</Time>
            <Position>
              <LatitudeDegrees>36.49962558411061763763427734375</LatitudeDegrees>
              <LongitudeDegrees>-5.403050892055034637451171875</LongitudeDegrees>
            </Position>
            <AltitudeMeters>192.8000030517578125</AltitudeMeters>
            <DistanceMeters>7651.8093387761</DistanceMeters>
          </Trackpoint>
          <Trackpoint>
            <Time>2019-01-04T11:05:39.000Z</Time>
            <Position>
              <LatitudeDegrees>36.49961887858808040618896484375</LatitudeDegrees>
              <LongitudeDegrees>-5.40306421928107738494873046875</LongitudeDegrees>
            </Position>
            <AltitudeMeters>192.399993896484375</AltitudeMeters>
            <DistanceMeters>7653.2188127268</DistanceMeters>
          </Trackpoint>
          <Trackpoint>
            <Time>2019-01-04T11:05:40.000Z</Time>
            <Position>
              <LatitudeDegrees>36.49961552582681179046630859375</LatitudeDegrees>
              <LongitudeDegrees>-5.4030715115368366241455078125</LongitudeDegrees>
            </Position>
            <AltitudeMeters>192</AltitudeMeters>
            <DistanceMeters>7653.9670538239</DistanceMeters>
          </Trackpoint>
          <Trackpoint>
            <Time>2019-01-04T11:05:41.000Z</Time>
            <Position>
              <LatitudeDegrees>36.49960764683783054351806640625</LatitudeDegrees>
              <LongitudeDegrees>-5.40308064781129360198974609375</LongitudeDegrees>
            </Position>
            <AltitudeMeters>191.600006103515625</AltitudeMeters>
            <DistanceMeters>7655.1652950996</DistanceMeters>
          </Trackpoint>
          <Trackpoint>
            <Time>2019-01-04T11:05:42.000Z</Time>
            <Position>
              <LatitudeDegrees>36.49959909729659557342529296875</LatitudeDegrees>
              <LongitudeDegrees>-5.40308785624802112579345703125</LongitudeDegrees>
            </Position>
            <AltitudeMeters>191.1999969482421875</AltitudeMeters>
            <DistanceMeters>7656.313507258</DistanceMeters>
          </Trackpoint>
          <Trackpoint>
            <Time>2019-01-04T11:05:43.000Z</Time>
            <Position>
              <LatitudeDegrees>36.49959205649793148040771484375</LatitudeDegrees>
              <LongitudeDegrees>-5.40310026146471500396728515625</LongitudeDegrees>
            </Position>
            <AltitudeMeters>190.8000030517578125</AltitudeMeters>
            <DistanceMeters>7657.670760217</DistanceMeters>
          </Trackpoint>
          <Trackpoint>
            <Time>2019-01-04T11:05:44.000Z</Time>
            <Position>
              <LatitudeDegrees>36.49958333931863307952880859375</LatitudeDegrees>
              <LongitudeDegrees>-5.403111241757869720458984375</LongitudeDegrees>
            </Position>
            <AltitudeMeters>190.399993896484375</AltitudeMeters>
            <DistanceMeters>7659.054370063</DistanceMeters>
          </Trackpoint>
          <Trackpoint>
            <Time>2019-01-04T11:05:45.000Z</Time>
            <Position>
              <LatitudeDegrees>36.49957361631095409393310546875</LatitudeDegrees>
              <LongitudeDegrees>-5.4031182825565338134765625</LongitudeDegrees>
            </Position>
            <AltitudeMeters>190</AltitudeMeters>
            <DistanceMeters>7660.3078585158</DistanceMeters>
          </Trackpoint>
          <Trackpoint>
            <Time>2019-01-04T11:05:46.000Z</Time>
            <Position>
              <LatitudeDegrees>36.49956406094133853912353515625</LatitudeDegrees>
              <LongitudeDegrees>-5.40312892757356166839599609375</LongitudeDegrees>
            </Position>
            <AltitudeMeters>189.8000030517578125</AltitudeMeters>
            <DistanceMeters>7661.7332592313</DistanceMeters>
          </Trackpoint>
          <Trackpoint>
            <Time>2019-01-04T11:05:47.000Z</Time>
            <Position>
              <LatitudeDegrees>36.499555595219135284423828125</LatitudeDegrees>
              <LongitudeDegrees>-5.40314233861863613128662109375</LongitudeDegrees>
            </Position>
            <AltitudeMeters>189.399993896484375</AltitudeMeters>
            <DistanceMeters>7663.2625694677</DistanceMeters>
          </Trackpoint>
          <Trackpoint>
            <Time>2019-01-04T11:05:48.000Z</Time>
            <Position>
              <LatitudeDegrees>36.49954729713499546051025390625</LatitudeDegrees>
              <LongitudeDegrees>-5.4031549952924251556396484375</LongitudeDegrees>
            </Position>
            <AltitudeMeters>189.1999969482421875</AltitudeMeters>
            <DistanceMeters>7664.7254871404</DistanceMeters>
          </Trackpoint>
          <Trackpoint>
            <Time>2019-01-04T11:05:49.000Z</Time>
            <Position>
              <LatitudeDegrees>36.4995391666889190673828125</LatitudeDegrees>
              <LongitudeDegrees>-5.4031674005091190338134765625</LongitudeDegrees>
            </Position>
            <AltitudeMeters>189</AltitudeMeters>
            <DistanceMeters>7666.1540519014</DistanceMeters>
          </Trackpoint>
          <Trackpoint>
            <Time>2019-01-04T11:05:50.000Z</Time>
            <Position>
              <LatitudeDegrees>36.499532796442508697509765625</LatitudeDegrees>
              <LongitudeDegrees>-5.4031801410019397735595703125</LongitudeDegrees>
            </Position>
            <AltitudeMeters>189</AltitudeMeters>
            <DistanceMeters>7667.4979325839</DistanceMeters>
          </Trackpoint>
          <Trackpoint>
            <Time>2019-01-04T11:05:51.000Z</Time>
            <Position>
              <LatitudeDegrees>36.49952667765319347381591796875</LatitudeDegrees>
              <LongitudeDegrees>-5.40318994782865047454833984375</LongitudeDegrees>
            </Position>
            <AltitudeMeters>188.8000030517578125</AltitudeMeters>
            <DistanceMeters>7668.6061249843</DistanceMeters>
          </Trackpoint>
          <Trackpoint>
            <Time>2019-01-04T11:05:52.000Z</Time>
            <Position>
              <LatitudeDegrees>36.4995208941400051116943359375</LatitudeDegrees>
              <LongitudeDegrees>-5.40320302359759807586669921875</LongitudeDegrees>
            </Position>
            <AltitudeMeters>188.8000030517578125</AltitudeMeters>
            <DistanceMeters>7669.9432693804</DistanceMeters>
          </Trackpoint>
          <Trackpoint>
            <Time>2019-01-04T11:05:53.000Z</Time>
            <Position>
              <LatitudeDegrees>36.49951301515102386474609375</LatitudeDegrees>
              <LongitudeDegrees>-5.40321844629943370819091796875</LongitudeDegrees>
            </Position>
            <AltitudeMeters>188.600006103515625</AltitudeMeters>
            <DistanceMeters>7671.5781707925</DistanceMeters>
          </Trackpoint>
          <Trackpoint>
            <Time>2019-01-04T11:05:54.000Z</Time>
            <Position>
              <LatitudeDegrees>36.49950572289526462554931640625</LatitudeDegrees>
              <LongitudeDegrees>-5.40323453955352306365966796875</LongitudeDegrees>
            </Position>
            <AltitudeMeters>188.399993896484375</AltitudeMeters>
            <DistanceMeters>7673.226822669</DistanceMeters>
          </Trackpoint>
          <Trackpoint>
            <Time>2019-01-04T11:05:55.000Z</Time>
            <Position>
              <LatitudeDegrees>36.49949960410594940185546875</LatitudeDegrees>
              <LongitudeDegrees>-5.4032515548169612884521484375</LongitudeDegrees>
            </Position>
            <AltitudeMeters>188.1999969482421875</AltitudeMeters>
            <DistanceMeters>7674.8945347379</DistanceMeters>
          </Trackpoint>
          <Trackpoint>
            <Time>2019-01-04T11:05:56.000Z</Time>
            <Position>
              <LatitudeDegrees>36.4994935691356658935546875</LatitudeDegrees>
              <LongitudeDegrees>-5.4032673127949237823486328125</LongitudeDegrees>
            </Position>
            <AltitudeMeters>188.1999969482421875</AltitudeMeters>
            <DistanceMeters>7676.4559829886</DistanceMeters>
          </Trackpoint>
          <Trackpoint>
            <Time>2019-01-04T11:05:57.000Z</Time>
            <Position>
              <LatitudeDegrees>36.49948359467089176177978515625</LatitudeDegrees>
              <LongitudeDegrees>-5.40328323841094970703125</LongitudeDegrees>
            </Position>
            <AltitudeMeters>187.8000030517578125</AltitudeMeters>
            <DistanceMeters>7678.2639895353</DistanceMeters>
          </Trackpoint>
          <Trackpoint>
            <Time>2019-01-04T11:05:58.000Z</Time>
            <Position>
              <LatitudeDegrees>36.49947387166321277618408203125</LatitudeDegrees>
              <LongitudeDegrees>-5.40329757146537303924560546875</LongitudeDegrees>
            </Position>
            <AltitudeMeters>187.600006103515625</AltitudeMeters>
            <DistanceMeters>7679.9424959697</DistanceMeters>
          </Trackpoint>
          <Trackpoint>
            <Time>2019-01-04T11:05:59.000Z</Time>
            <Position>
              <LatitudeDegrees>36.4994602091610431671142578125</LatitudeDegrees>
              <LongitudeDegrees>-5.403304360806941986083984375</LongitudeDegrees>
            </Position>
            <AltitudeMeters>187.1999969482421875</AltitudeMeters>
            <DistanceMeters>7681.5773973819</DistanceMeters>
          </Trackpoint>
          <Trackpoint>
            <Time>2019-01-04T11:06:00.000Z</Time>
            <Position>
              <LatitudeDegrees>36.4994479715824127197265625</LatitudeDegrees>
              <LongitudeDegrees>-5.4033087193965911865234375</LongitudeDegrees>
            </Position>
            <AltitudeMeters>187</AltitudeMeters>
            <DistanceMeters>7682.9932635375</DistanceMeters>
          </Trackpoint>
          <Trackpoint>
            <Time>2019-01-04T11:06:01.000Z</Time>
            <Position>
              <LatitudeDegrees>36.4994364045560359954833984375</LatitudeDegrees>
              <LongitudeDegrees>-5.40331483818590641021728515625</LongitudeDegrees>
            </Position>
            <AltitudeMeters>186.8000030517578125</AltitudeMeters>
            <DistanceMeters>7684.3898653103</DistanceMeters>
          </Trackpoint>
          <Trackpoint>
            <Time>2019-01-04T11:06:02.000Z</Time>
            <Position>
              <LatitudeDegrees>36.49942978285253047943115234375</LatitudeDegrees>
              <LongitudeDegrees>-5.4033273272216320037841796875</LongitudeDegrees>
            </Position>
            <AltitudeMeters>186.399993896484375</AltitudeMeters>
            <DistanceMeters>7685.7303820809</DistanceMeters>
          </Trackpoint>
          <Trackpoint>
            <Time>2019-01-04T11:06:03.000Z</Time>
            <Position>
              <LatitudeDegrees>36.49942207150161266326904296875</LatitudeDegrees>
              <LongitudeDegrees>-5.403338558971881866455078125</LongitudeDegrees>
            </Position>
            <AltitudeMeters>186.1999969482421875</AltitudeMeters>
            <DistanceMeters>7687.0539510554</DistanceMeters>
          </Trackpoint>
          <Trackpoint>
            <Time>2019-01-04T11:06:04.000Z</Time>
            <Position>
              <LatitudeDegrees>36.4994115941226482391357421875</LatitudeDegrees>
              <LongitudeDegrees>-5.40334719233214855194091796875</LongitudeDegrees>
            </Position>
            <AltitudeMeters>185.8000030517578125</AltitudeMeters>
            <DistanceMeters>7688.4505528282</DistanceMeters>
          </Trackpoint>
          <Trackpoint>
            <Time>2019-01-04T11:06:05.000Z</Time>
            <Position>
              <LatitudeDegrees>36.499402038753032684326171875</LatitudeDegrees>
              <LongitudeDegrees>-5.40335708297789096832275390625</LongitudeDegrees>
            </Position>
            <AltitudeMeters>185.600006103515625</AltitudeMeters>
            <DistanceMeters>7689.8341626743</DistanceMeters>
          </Trackpoint>
          <Trackpoint>
            <Time>2019-01-04T11:06:06.000Z</Time>
            <Position>
              <LatitudeDegrees>36.49939524941146373748779296875</LatitudeDegrees>
              <LongitudeDegrees>-5.40336663834750652313232421875</LongitudeDegrees>
            </Position>
            <AltitudeMeters>185.1999969482421875</AltitudeMeters>
            <DistanceMeters>7690.9744832467</DistanceMeters>
          </Trackpoint>
          <Trackpoint>
            <Time>2019-01-04T11:06:07.000Z</Time>
            <Position>
              <LatitudeDegrees>36.4993847720324993133544921875</LatitudeDegrees>
              <LongitudeDegrees>-5.4033682309091091156005859375</LongitudeDegrees>
            </Position>
            <AltitudeMeters>185.1999969482421875</AltitudeMeters>
            <DistanceMeters>7692.1498987885</DistanceMeters>
          </Trackpoint>
          <Trackpoint>
            <Time>2019-01-04T11:06:08.000Z</Time>
            <Position>
              <LatitudeDegrees>36.49937362410128116607666015625</LatitudeDegrees>
              <LongitudeDegrees>-5.40336395613849163055419921875</LongitudeDegrees>
            </Position>
            <AltitudeMeters>185</AltitudeMeters>
            <DistanceMeters>7693.4458903852</DistanceMeters>
          </Trackpoint>
          <Trackpoint>
            <Time>2019-01-04T11:06:09.000Z</Time>
            <Position>
              <LatitudeDegrees>36.499364487826824188232421875</LatitudeDegrees>
              <LongitudeDegrees>-5.40335523895919322967529296875</LongitudeDegrees>
            </Position>
            <AltitudeMeters>185</AltitudeMeters>
            <DistanceMeters>7694.7278708502</DistanceMeters>
          </Trackpoint>
          <Trackpoint>
            <Time>2019-01-04T11:06:10.000Z</Time>
            <Position>
              <LatitudeDegrees>36.49935744702816009521484375</LatitudeDegrees>
              <LongitudeDegrees>-5.40334752760827541351318359375</LongitudeDegrees>
            </Position>
            <AltitudeMeters>184.8000030517578125</AltitudeMeters>
            <DistanceMeters>7695.7731647083</DistanceMeters>
          </Trackpoint>
          <Trackpoint>
            <Time>2019-01-04T11:06:11.000Z</Time>
            <Position>
              <LatitudeDegrees>36.4993589557707309722900390625</LatitudeDegrees>
              <LongitudeDegrees>-5.40334735997021198272705078125</LongitudeDegrees>
            </Position>
            <AltitudeMeters>184.8000030517578125</AltitudeMeters>
            <DistanceMeters>7695.9377558057</DistanceMeters>
          </Trackpoint>
          <Trackpoint>
            <Time>2019-01-04T11:06:12.000Z</Time>
            <Position>
              <LatitudeDegrees>36.49935602210462093353271484375</LatitudeDegrees>
              <LongitudeDegrees>-5.4033462703227996826171875</LongitudeDegrees>
            </Position>
            <AltitudeMeters>185</AltitudeMeters>
            <DistanceMeters>7696.2669380004</DistanceMeters>
          </Trackpoint>
          <Trackpoint>
            <Time>2019-01-04T11:06:13.000Z</Time>
            <Position>
              <LatitudeDegrees>36.49935074150562286376953125</LatitudeDegrees>
              <LongitudeDegrees>-5.40335104800760746002197265625</LongitudeDegrees>
            </Position>
            <AltitudeMeters>185</AltitudeMeters>
            <DistanceMeters>7696.9906398961</DistanceMeters>
          </Trackpoint>
          <Trackpoint>
            <Time>2019-01-04T11:06:14.000Z</Time>
            <Position>
              <LatitudeDegrees>36.49934537708759307861328125</LatitudeDegrees>
              <LongitudeDegrees>-5.40335557423532009124755859375</LongitudeDegrees>
            </Position>
            <AltitudeMeters>185</AltitudeMeters>
            <DistanceMeters>7697.7080758565</DistanceMeters>
          </Trackpoint>
          <Trackpoint>
            <Time>2019-01-04T11:06:15.000Z</Time>
            <Position>
              <LatitudeDegrees>36.49933925829827785491943359375</LatitudeDegrees>
              <LongitudeDegrees>-5.40335423313081264495849609375</LongitudeDegrees>
            </Position>
            <AltitudeMeters>184.8000030517578125</AltitudeMeters>
            <DistanceMeters>7698.3933232389</DistanceMeters>
          </Trackpoint>
          <Trackpoint>
            <Time>2019-01-04T11:06:16.000Z</Time>
            <Position>
              <LatitudeDegrees>36.4993411861360073089599609375</LatitudeDegrees>
              <LongitudeDegrees>-5.40335741825401782989501953125</LongitudeDegrees>
            </Position>
            <AltitudeMeters>184.8000030517578125</AltitudeMeters>
            <DistanceMeters>7698.7488806466</DistanceMeters>
          </Trackpoint>
          <Trackpoint>
            <Time>2019-01-04T11:06:17.000Z</Time>
            <Position>
              <LatitudeDegrees>36.49934177286922931671142578125</LatitudeDegrees>
              <LongitudeDegrees>-5.40335741825401782989501953125</LongitudeDegrees>
            </Position>
            <AltitudeMeters>184.8000030517578125</AltitudeMeters>
            <DistanceMeters>7698.843907361</DistanceMeters>
          </Trackpoint>
          <Trackpoint>
            <Time>2019-01-04T11:06:18.000Z</Time>
            <Position>
              <LatitudeDegrees>36.4993435330688953399658203125</LatitudeDegrees>
              <LongitudeDegrees>-5.40336177684366703033447265625</LongitudeDegrees>
            </Position>
            <AltitudeMeters>184.600006103515625</AltitudeMeters>
            <DistanceMeters>7699.2896221597</DistanceMeters>
          </Trackpoint>
          <Trackpoint>
            <Time>2019-01-04T11:06:19.000Z</Time>
            <Position>
              <LatitudeDegrees>36.49934411980211734771728515625</LatitudeDegrees>
              <LongitudeDegrees>-5.40336630307137966156005859375</LongitudeDegrees>
            </Position>
            <AltitudeMeters>184.600006103515625</AltitudeMeters>
            <DistanceMeters>7699.6927863644</DistanceMeters>
          </Trackpoint>
          <Trackpoint>
            <Time>2019-01-04T11:06:20.000Z</Time>
            <Position>
              <LatitudeDegrees>36.49934428744018077850341796875</LatitudeDegrees>
              <LongitudeDegrees>-5.40337376296520233154296875</LongitudeDegrees>
            </Position>
            <AltitudeMeters>184.600006103515625</AltitudeMeters>
            <DistanceMeters>7700.3647267057</DistanceMeters>
          </Trackpoint>
          <Trackpoint>
            <Time>2019-01-04T11:06:21.000Z</Time>
            <Position>
              <LatitudeDegrees>36.49934344924986362457275390625</LatitudeDegrees>
              <LongitudeDegrees>-5.40338239632546901702880859375</LongitudeDegrees>
            </Position>
            <AltitudeMeters>184.600006103515625</AltitudeMeters>
            <DistanceMeters>7701.1483370669</DistanceMeters>
          </Trackpoint>
          <Trackpoint>
            <Time>2019-01-04T11:06:22.000Z</Time>
            <Position>
              <LatitudeDegrees>36.49934093467891216278076171875</LatitudeDegrees>
              <LongitudeDegrees>-5.40339262224733829498291015625</LongitudeDegrees>
            </Position>
            <AltitudeMeters>184.600006103515625</AltitudeMeters>
            <DistanceMeters>7702.103343727</DistanceMeters>
          </Trackpoint>
          <Trackpoint>
            <Time>2019-01-04T11:06:23.000Z</Time>
            <Position>
              <LatitudeDegrees>36.499336659908294677734375</LatitudeDegrees>
              <LongitudeDegrees>-5.4034004174172878265380859375</LongitudeDegrees>
            </Position>
            <AltitudeMeters>184.600006103515625</AltitudeMeters>
            <DistanceMeters>7702.953288499</DistanceMeters>
          </Trackpoint>
          <Trackpoint>
            <Time>2019-01-04T11:06:24.000Z</Time>
            <Position>
              <LatitudeDegrees>36.49932987056672573089599609375</LatitudeDegrees>
              <LongitudeDegrees>-5.4034071229398250579833984375</LongitudeDegrees>
            </Position>
            <AltitudeMeters>184.399993896484375</AltitudeMeters>
            <DistanceMeters>7703.917704319</DistanceMeters>
          </Trackpoint>
          <Trackpoint>
            <Time>2019-01-04T11:06:25.000Z</Time>
            <Position>
              <LatitudeDegrees>36.4993237517774105072021484375</LatitudeDegrees>
              <LongitudeDegrees>-5.40341340936720371246337890625</LongitudeDegrees>
            </Position>
            <AltitudeMeters>184.399993896484375</AltitudeMeters>
            <DistanceMeters>7704.7989458149</DistanceMeters>
          </Trackpoint>
          <Trackpoint>
            <Time>2019-01-04T11:06:26.000Z</Time>
            <Position>
              <LatitudeDegrees>36.499318890273571014404296875</LatitudeDegrees>
              <LongitudeDegrees>-5.40341910906136035919189453125</LongitudeDegrees>
            </Position>
            <AltitudeMeters>184.1999969482421875</AltitudeMeters>
            <DistanceMeters>7705.54112818</DistanceMeters>
          </Trackpoint>
          <Trackpoint>
            <Time>2019-01-04T11:06:27.000Z</Time>
            <Position>
              <LatitudeDegrees>36.4993160404264926910400390625</LatitudeDegrees>
              <LongitudeDegrees>-5.4034235514700412750244140625</LongitudeDegrees>
            </Position>
            <AltitudeMeters>184</AltitudeMeters>
            <DistanceMeters>7706.0439622883</DistanceMeters>
          </Trackpoint>
          <Trackpoint>
            <Time>2019-01-04T11:06:28.000Z</Time>
            <Position>
              <LatitudeDegrees>36.49931478314101696014404296875</LatitudeDegrees>
              <LongitudeDegrees>-5.4034282453358173370361328125</LongitudeDegrees>
            </Position>
            <AltitudeMeters>183.8000030517578125</AltitudeMeters>
            <DistanceMeters>7706.489677087</DistanceMeters>
          </Trackpoint>
          <Trackpoint>
            <Time>2019-01-04T11:06:29.000Z</Time>
            <Position>
              <LatitudeDegrees>36.49931360967457294464111328125</LatitudeDegrees>
              <LongitudeDegrees>-5.4034326039254665374755859375</LongitudeDegrees>
            </Position>
            <AltitudeMeters>183.600006103515625</AltitudeMeters>
            <DistanceMeters>7706.9038889318</DistanceMeters>
          </Trackpoint>
          <Trackpoint>
            <Time>2019-01-04T11:06:30.000Z</Time>
            <Position>
              <LatitudeDegrees>36.499312184751033782958984375</LatitudeDegrees>
              <LongitudeDegrees>-5.40343587286770343780517578125</LongitudeDegrees>
            </Position>
            <AltitudeMeters>183.600006103515625</AltitudeMeters>
            <DistanceMeters>7707.2330711266</DistanceMeters>
          </Trackpoint>
          <Trackpoint>
            <Time>2019-01-04T11:06:31.000Z</Time>
            <Position>
              <LatitudeDegrees>36.49931319057941436767578125</LatitudeDegrees>
              <LongitudeDegrees>-5.4034386388957500457763671875</LongitudeDegrees>
            </Position>
            <AltitudeMeters>183.399993896484375</AltitudeMeters>
            <DistanceMeters>7707.4658380887</DistanceMeters>
          </Trackpoint>
          <Trackpoint>
            <Time>2019-01-04T11:06:32.000Z</Time>
            <Position>
              <LatitudeDegrees>36.49931319057941436767578125</LatitudeDegrees>
              <LongitudeDegrees>-5.40343905799090862274169921875</LongitudeDegrees>
            </Position>
            <AltitudeMeters>183.1999969482421875</AltitudeMeters>
            <DistanceMeters>7707.4658380887</DistanceMeters>
          </Trackpoint>
          <Trackpoint>
            <Time>2019-01-04T11:06:33.000Z</Time>
            <Position>
              <LatitudeDegrees>36.49931344203650951385498046875</LatitudeDegrees>
              <LongitudeDegrees>-5.4034393094480037689208984375</LongitudeDegrees>
            </Position>
            <AltitudeMeters>183.1999969482421875</AltitudeMeters>
            <DistanceMeters>7707.4658380887</DistanceMeters>
          </Trackpoint>
          <Trackpoint>
            <Time>2019-01-04T11:06:34.000Z</Time>
            <Position>
              <LatitudeDegrees>36.49931360967457294464111328125</LatitudeDegrees>
              <LongitudeDegrees>-5.4034401476383209228515625</LongitudeDegrees>
            </Position>
            <AltitudeMeters>183.1999969482421875</AltitudeMeters>
            <DistanceMeters>7707.5608648031</DistanceMeters>
          </Trackpoint>
          <Trackpoint>
            <Time>2019-01-04T11:06:35.000Z</Time>
            <Position>
              <LatitudeDegrees>36.49931327439844608306884765625</LatitudeDegrees>
              <LongitudeDegrees>-5.4034406505525112152099609375</LongitudeDegrees>
            </Position>
            <AltitudeMeters>183</AltitudeMeters>
            <DistanceMeters>7707.5608648031</DistanceMeters>
          </Trackpoint>
          <Trackpoint>
            <Time>2019-01-04T11:06:36.000Z</Time>
            <Position>
              <LatitudeDegrees>36.49931184947490692138671875</LatitudeDegrees>
              <LongitudeDegrees>-5.403441153466701507568359375</LongitudeDegrees>
            </Position>
            <AltitudeMeters>183</AltitudeMeters>
            <DistanceMeters>7707.7254559004</DistanceMeters>
          </Trackpoint>
          <Trackpoint>
            <Time>2019-01-04T11:06:37.000Z</Time>
            <Position>
              <LatitudeDegrees>36.49931042455136775970458984375</LatitudeDegrees>
              <LongitudeDegrees>-5.403441824018955230712890625</LongitudeDegrees>
            </Position>
            <AltitudeMeters>183</AltitudeMeters>
            <DistanceMeters>7707.9379420935</DistanceMeters>
          </Trackpoint>
          <Trackpoint>
            <Time>2019-01-04T11:06:38.000Z</Time>
            <Position>
              <LatitudeDegrees>36.4993110112845897674560546875</LatitudeDegrees>
              <LongitudeDegrees>-5.4034419916570186614990234375</LongitudeDegrees>
            </Position>
            <AltitudeMeters>183</AltitudeMeters>
            <DistanceMeters>7708.0723301617</DistanceMeters>
          </Trackpoint>
          <Trackpoint>
            <Time>2019-01-04T11:06:39.000Z</Time>
            <Position>
              <LatitudeDegrees>36.49931176565587520599365234375</LatitudeDegrees>
              <LongitudeDegrees>-5.40344576351344585418701171875</LongitudeDegrees>
            </Position>
            <AltitudeMeters>183</AltitudeMeters>
            <DistanceMeters>7708.4278875695</DistanceMeters>
          </Trackpoint>
          <Trackpoint>
            <Time>2019-01-04T11:06:40.000Z</Time>
            <Position>
              <LatitudeDegrees>36.499315537512302398681640625</LatitudeDegrees>
              <LongitudeDegrees>-5.40345028974115848541259765625</LongitudeDegrees>
            </Position>
            <AltitudeMeters>183</AltitudeMeters>
            <DistanceMeters>7709.005912507</DistanceMeters>
          </Trackpoint>
          <Trackpoint>
            <Time>2019-01-04T11:06:41.000Z</Time>
            <Position>
              <LatitudeDegrees>36.499312855303287506103515625</LatitudeDegrees>
              <LongitudeDegrees>-5.40345045737922191619873046875</LongitudeDegrees>
            </Position>
            <AltitudeMeters>183</AltitudeMeters>
            <DistanceMeters>7709.2909926501</DistanceMeters>
          </Trackpoint>
          <Trackpoint>
            <Time>2019-01-04T11:06:42.000Z</Time>
            <Position>
              <LatitudeDegrees>36.49931126274168491363525390625</LatitudeDegrees>
              <LongitudeDegrees>-5.40345179848372936248779296875</LongitudeDegrees>
            </Position>
            <AltitudeMeters>183</AltitudeMeters>
            <DistanceMeters>7709.4810460789</DistanceMeters>
          </Trackpoint>
          <Trackpoint>
            <Time>2019-01-04T11:06:43.000Z</Time>
            <Position>
              <LatitudeDegrees>36.4993100054562091827392578125</LatitudeDegrees>
              <LongitudeDegrees>-5.40345129556953907012939453125</LongitudeDegrees>
            </Position>
            <AltitudeMeters>183</AltitudeMeters>
            <DistanceMeters>7709.5760727932</DistanceMeters>
          </Trackpoint>
          <Trackpoint>
            <Time>2019-01-04T11:06:44.000Z</Time>
            <Position>
              <LatitudeDegrees>36.499310173094272613525390625</LatitudeDegrees>
              <LongitudeDegrees>-5.403449870645999908447265625</LongitudeDegrees>
            </Position>
            <AltitudeMeters>183.1999969482421875</AltitudeMeters>
            <DistanceMeters>7709.7104608615</DistanceMeters>
          </Trackpoint>
          <Trackpoint>
            <Time>2019-01-04T11:06:45.000Z</Time>
            <Position>
              <LatitudeDegrees>36.49930782616138458251953125</LatitudeDegrees>
              <LongitudeDegrees>-5.40345028974115848541259765625</LongitudeDegrees>
            </Position>
            <AltitudeMeters>183.1999969482421875</AltitudeMeters>
            <DistanceMeters>7709.9432278236</DistanceMeters>
          </Trackpoint>
          <Trackpoint>
            <Time>2019-01-04T11:06:46.000Z</Time>
            <Position>
              <LatitudeDegrees>36.4993058145046234130859375</LatitudeDegrees>
              <LongitudeDegrees>-5.4034507088363170623779296875</LongitudeDegrees>
            </Position>
            <AltitudeMeters>183.1999969482421875</AltitudeMeters>
            <DistanceMeters>7710.1332812524</DistanceMeters>
          </Trackpoint>
          <Trackpoint>
            <Time>2019-01-04T11:06:47.000Z</Time>
            <Position>
              <LatitudeDegrees>36.499303467571735382080078125</LatitudeDegrees>
              <LongitudeDegrees>-5.40344894863665103912353515625</LongitudeDegrees>
            </Position>
            <AltitudeMeters>183.1999969482421875</AltitudeMeters>
            <DistanceMeters>7710.4337821083</DistanceMeters>
          </Trackpoint>
          <Trackpoint>
            <Time>2019-01-04T11:06:48.000Z</Time>
            <Position>
              <LatitudeDegrees>36.49930036626756191253662109375</LatitudeDegrees>
              <LongitudeDegrees>-5.4034450091421604156494140625</LongitudeDegrees>
            </Position>
            <AltitudeMeters>183.1999969482421875</AltitudeMeters>
            <DistanceMeters>7710.9183251792</DistanceMeters>
          </Trackpoint>
          <Trackpoint>
            <Time>2019-01-04T11:06:49.000Z</Time>
            <Position>
              <LatitudeDegrees>36.49930179119110107421875</LatitudeDegrees>
              <LongitudeDegrees>-5.40344886481761932373046875</LongitudeDegrees>
            </Position>
            <AltitudeMeters>183.399993896484375</AltitudeMeters>
            <DistanceMeters>7711.2984320367</DistanceMeters>
          </Trackpoint>
          <Trackpoint>
            <Time>2019-01-04T11:06:50.000Z</Time>
            <Position>
              <LatitudeDegrees>36.49930338375270366668701171875</LatitudeDegrees>
              <LongitudeDegrees>-5.40344794280827045440673828125</LongitudeDegrees>
            </Position>
            <AltitudeMeters>183.1999969482421875</AltitudeMeters>
            <DistanceMeters>7711.5109182297</DistanceMeters>
          </Trackpoint>
          <Trackpoint>
            <Time>2019-01-04T11:06:51.000Z</Time>
            <Position>
              <LatitudeDegrees>36.49930573068559169769287109375</LatitudeDegrees>
              <LongitudeDegrees>-5.40344743989408016204833984375</LongitudeDegrees>
            </Position>
            <AltitudeMeters>183.1999969482421875</AltitudeMeters>
            <DistanceMeters>7711.7623352838</DistanceMeters>
          </Trackpoint>
          <Trackpoint>
            <Time>2019-01-04T11:06:52.000Z</Time>
            <Position>
              <LatitudeDegrees>36.4993083290755748748779296875</LatitudeDegrees>
              <LongitudeDegrees>-5.40344643406569957733154296875</LongitudeDegrees>
            </Position>
            <AltitudeMeters>183.1999969482421875</AltitudeMeters>
            <DistanceMeters>7712.0628361398</DistanceMeters>
          </Trackpoint>
          <Trackpoint>
            <Time>2019-01-04T11:06:53.000Z</Time>
            <Position>
              <LatitudeDegrees>36.49930975399911403656005859375</LatitudeDegrees>
              <LongitudeDegrees>-5.40344693697988986968994140625</LongitudeDegrees>
            </Position>
            <AltitudeMeters>183.1999969482421875</AltitudeMeters>
            <DistanceMeters>7712.1972242081</DistanceMeters>
          </Trackpoint>
          <Trackpoint>
            <Time>2019-01-04T11:06:54.000Z</Time>
            <Position>
              <LatitudeDegrees>36.49931159801781177520751953125</LatitudeDegrees>
              <LongitudeDegrees>-5.40344878099858760833740234375</LongitudeDegrees>
            </Position>
            <AltitudeMeters>183.1999969482421875</AltitudeMeters>
            <DistanceMeters>7712.4660003446</DistanceMeters>
          </Trackpoint>
          <Trackpoint>
            <Time>2019-01-04T11:06:55.000Z</Time>
            <Position>
              <LatitudeDegrees>36.49931126274168491363525390625</LatitudeDegrees>
              <LongitudeDegrees>-5.4034508764743804931640625</LongitudeDegrees>
            </Position>
            <AltitudeMeters>183.1999969482421875</AltitudeMeters>
            <DistanceMeters>7712.6560537733</DistanceMeters>
          </Trackpoint>
          <Trackpoint>
            <Time>2019-01-04T11:06:56.000Z</Time>
            <Position>
              <LatitudeDegrees>36.499310843646526336669921875</LatitudeDegrees>
              <LongitudeDegrees>-5.40345230139791965484619140625</LongitudeDegrees>
            </Position>
            <AltitudeMeters>183.1999969482421875</AltitudeMeters>
            <DistanceMeters>7712.7904418416</DistanceMeters>
          </Trackpoint>
          <Trackpoint>
            <Time>2019-01-04T11:06:57.000Z</Time>
            <Position>
              <LatitudeDegrees>36.4993116818368434906005859375</LatitudeDegrees>
              <LongitudeDegrees>-5.40345112793147563934326171875</LongitudeDegrees>
            </Position>
            <AltitudeMeters>183.399993896484375</AltitudeMeters>
            <DistanceMeters>7712.9248299098</DistanceMeters>
          </Trackpoint>
          <Trackpoint>
            <Time>2019-01-04T11:06:58.000Z</Time>
            <Position>
              <LatitudeDegrees>36.49931327439844608306884765625</LatitudeDegrees>
              <LongitudeDegrees>-5.4034523852169513702392578125</LongitudeDegrees>
            </Position>
            <AltitudeMeters>183.399993896484375</AltitudeMeters>
            <DistanceMeters>7713.1148833385</DistanceMeters>
          </Trackpoint>
          <Trackpoint>
            <Time>2019-01-04T11:06:59.000Z</Time>
            <Position>
              <LatitudeDegrees>36.4993126876652240753173828125</LatitudeDegrees>
              <LongitudeDegrees>-5.4034533910453319549560546875</LongitudeDegrees>
            </Position>
            <AltitudeMeters>183.1999969482421875</AltitudeMeters>
            <DistanceMeters>7713.2492714068</DistanceMeters>
          </Trackpoint>
          <Trackpoint>
            <Time>2019-01-04T11:07:00.000Z</Time>
            <Position>
              <LatitudeDegrees>36.49931159801781177520751953125</LatitudeDegrees>
              <LongitudeDegrees>-5.40345347486436367034912109375</LongitudeDegrees>
            </Position>
            <AltitudeMeters>183.1999969482421875</AltitudeMeters>
            <DistanceMeters>7713.383659475</DistanceMeters>
          </Trackpoint>
          <Trackpoint>
            <Time>2019-01-04T11:07:01.000Z</Time>
            <Position>
              <LatitudeDegrees>36.49931159801781177520751953125</LatitudeDegrees>
              <LongitudeDegrees>-5.4034533910453319549560546875</LongitudeDegrees>
            </Position>
            <AltitudeMeters>183.1999969482421875</AltitudeMeters>
            <DistanceMeters>7713.4786861894</DistanceMeters>
          </Trackpoint>
          <Trackpoint>
            <Time>2019-01-04T11:07:02.000Z</Time>
            <Position>
              <LatitudeDegrees>36.4993110112845897674560546875</LatitudeDegrees>
              <LongitudeDegrees>-5.4034513793885707855224609375</LongitudeDegrees>
            </Position>
            <AltitudeMeters>183</AltitudeMeters>
            <DistanceMeters>7713.6911723824</DistanceMeters>
          </Trackpoint>
          <Trackpoint>
            <Time>2019-01-04T11:07:03.000Z</Time>
            <Position>
              <LatitudeDegrees>36.49930858053267002105712890625</LatitudeDegrees>
              <LongitudeDegrees>-5.4034486971795558929443359375</LongitudeDegrees>
            </Position>
            <AltitudeMeters>183</AltitudeMeters>
            <DistanceMeters>7714.0467297902</DistanceMeters>
          </Trackpoint>
          <Trackpoint>
            <Time>2019-01-04T11:07:04.000Z</Time>
            <Position>
              <LatitudeDegrees>36.4993053115904331207275390625</LatitudeDegrees>
              <LongitudeDegrees>-5.40344358421862125396728515625</LongitudeDegrees>
            </Position>
            <AltitudeMeters>183</AltitudeMeters>
            <DistanceMeters>7714.6247547277</DistanceMeters>
          </Trackpoint>
          <Trackpoint>
            <Time>2019-01-04T11:07:05.000Z</Time>
            <Position>
              <LatitudeDegrees>36.49930623359978199005126953125</LatitudeDegrees>
              <LongitudeDegrees>-5.4034401476383209228515625</LongitudeDegrees>
            </Position>
            <AltitudeMeters>183</AltitudeMeters>
            <DistanceMeters>7714.9539369225</DistanceMeters>
          </Trackpoint>
          <Trackpoint>
            <Time>2019-01-04T11:07:06.000Z</Time>
            <Position>
              <LatitudeDegrees>36.49930740706622600555419921875</LatitudeDegrees>
              <LongitudeDegrees>-5.40343369357287883758544921875</LongitudeDegrees>
            </Position>
            <AltitudeMeters>183</AltitudeMeters>
            <DistanceMeters>7715.5549386344</DistanceMeters>
          </Trackpoint>
          <Trackpoint>
            <Time>2019-01-04T11:07:07.000Z</Time>
            <Position>
              <LatitudeDegrees>36.49930355139076709747314453125</LatitudeDegrees>
              <LongitudeDegrees>-5.40343503467738628387451171875</LongitudeDegrees>
            </Position>
            <AltitudeMeters>183</AltitudeMeters>
            <DistanceMeters>7715.990405746</DistanceMeters>
          </Trackpoint>
          <Trackpoint>
            <Time>2019-01-04T11:07:08.000Z</Time>
            <Position>
              <LatitudeDegrees>36.499303467571735382080078125</LatitudeDegrees>
              <LongitudeDegrees>-5.403435118496417999267578125</LongitudeDegrees>
            </Position>
            <AltitudeMeters>183</AltitudeMeters>
            <DistanceMeters>7715.990405746</DistanceMeters>
          </Trackpoint>
          <Trackpoint>
            <Time>2019-01-04T11:07:09.000Z</Time>
            <Position>
              <LatitudeDegrees>36.4993029646575450897216796875</LatitudeDegrees>
              <LongitudeDegrees>-5.40343587286770343780517578125</LongitudeDegrees>
            </Position>
            <AltitudeMeters>183</AltitudeMeters>
            <DistanceMeters>7715.990405746</DistanceMeters>
          </Trackpoint>
          <Trackpoint>
            <Time>2019-01-04T11:07:10.000Z</Time>
            <Position>
              <LatitudeDegrees>36.49930103681981563568115234375</LatitudeDegrees>
              <LongitudeDegrees>-5.40343679487705230712890625</LongitudeDegrees>
            </Position>
            <AltitudeMeters>183</AltitudeMeters>
            <DistanceMeters>7716.2231727082</DistanceMeters>
          </Trackpoint>
          <Trackpoint>
            <Time>2019-01-04T11:07:11.000Z</Time>
            <Position>
              <LatitudeDegrees>36.49930137209594249725341796875</LatitudeDegrees>
              <LongitudeDegrees>-5.40343738161027431488037109375</LongitudeDegrees>
            </Position>
            <AltitudeMeters>183</AltitudeMeters>
            <DistanceMeters>7716.2231727082</DistanceMeters>
          </Trackpoint>
          <Trackpoint>
            <Time>2019-01-04T11:07:12.000Z</Time>
            <Position>
              <LatitudeDegrees>36.49930137209594249725341796875</LatitudeDegrees>
              <LongitudeDegrees>-5.40343872271478176116943359375</LongitudeDegrees>
            </Position>
            <AltitudeMeters>183</AltitudeMeters>
            <DistanceMeters>7716.3575607764</DistanceMeters>
          </Trackpoint>
          <Trackpoint>
            <Time>2019-01-04T11:07:13.000Z</Time>
            <Position>
              <LatitudeDegrees>36.49930003099143505096435546875</LatitudeDegrees>
              <LongitudeDegrees>-5.40344090200960636138916015625</LongitudeDegrees>
            </Position>
            <AltitudeMeters>183</AltitudeMeters>
            <DistanceMeters>7716.6263369129</DistanceMeters>
          </Trackpoint>
          <Trackpoint>
            <Time>2019-01-04T11:07:14.000Z</Time>
            <Position>
              <LatitudeDegrees>36.499297432601451873779296875</LatitudeDegrees>
              <LongitudeDegrees>-5.403441824018955230712890625</LongitudeDegrees>
            </Position>
            <AltitudeMeters>183</AltitudeMeters>
            <DistanceMeters>7716.9268377689</DistanceMeters>
          </Trackpoint>
          <Trackpoint>
            <Time>2019-01-04T11:07:15.000Z</Time>
            <Position>
              <LatitudeDegrees>36.4992976002395153045654296875</LatitudeDegrees>
              <LongitudeDegrees>-5.40344291366636753082275390625</LongitudeDegrees>
            </Position>
            <AltitudeMeters>183</AltitudeMeters>
            <DistanceMeters>7716.9268377689</DistanceMeters>
          </Trackpoint>
          <Trackpoint>
            <Time>2019-01-04T11:07:16.000Z</Time>
            <Position>
              <LatitudeDegrees>36.49929977953433990478515625</LatitudeDegrees>
              <LongitudeDegrees>-5.4034443385899066925048828125</LongitudeDegrees>
            </Position>
            <AltitudeMeters>183</AltitudeMeters>
            <DistanceMeters>7717.211917912</DistanceMeters>
          </Trackpoint>
          <Trackpoint>
            <Time>2019-01-04T11:07:17.000Z</Time>
            <Position>
              <LatitudeDegrees>36.4993012882769107818603515625</LatitudeDegrees>
              <LongitudeDegrees>-5.4034453444182872772216796875</LongitudeDegrees>
            </Position>
            <AltitudeMeters>183</AltitudeMeters>
            <DistanceMeters>7717.4019713408</DistanceMeters>
          </Trackpoint>
          <Trackpoint>
            <Time>2019-01-04T11:07:18.000Z</Time>
            <Position>
              <LatitudeDegrees>36.49930380284786224365234375</LatitudeDegrees>
              <LongitudeDegrees>-5.40344794280827045440673828125</LongitudeDegrees>
            </Position>
            <AltitudeMeters>182.8000030517578125</AltitudeMeters>
            <DistanceMeters>7717.7575287485</DistanceMeters>
          </Trackpoint>
          <Trackpoint>
            <Time>2019-01-04T11:07:19.000Z</Time>
            <Position>
              <LatitudeDegrees>36.49930556304752826690673828125</LatitudeDegrees>
              <LongitudeDegrees>-5.40344861336052417755126953125</LongitudeDegrees>
            </Position>
            <AltitudeMeters>182.600006103515625</AltitudeMeters>
            <DistanceMeters>7717.9902957107</DistanceMeters>
          </Trackpoint>
          <Trackpoint>
            <Time>2019-01-04T11:07:20.000Z</Time>
            <Position>
              <LatitudeDegrees>36.499304808676242828369140625</LatitudeDegrees>
              <LongitudeDegrees>-5.40344886481761932373046875</LongitudeDegrees>
            </Position>
            <AltitudeMeters>182.600006103515625</AltitudeMeters>
            <DistanceMeters>7718.085322425</DistanceMeters>
          </Trackpoint>
          <Trackpoint>
            <Time>2019-01-04T11:07:21.000Z</Time>
            <Position>
              <LatitudeDegrees>36.4993032999336719512939453125</LatitudeDegrees>
              <LongitudeDegrees>-5.4034490324556827545166015625</LongitudeDegrees>
            </Position>
            <AltitudeMeters>182.600006103515625</AltitudeMeters>
            <DistanceMeters>7718.2499135224</DistanceMeters>
          </Trackpoint>
          <Trackpoint>
            <Time>2019-01-04T11:07:22.000Z</Time>
            <Position>
              <LatitudeDegrees>36.49930514395236968994140625</LatitudeDegrees>
              <LongitudeDegrees>-5.4034533910453319549560546875</LongitudeDegrees>
            </Position>
            <AltitudeMeters>182.600006103515625</AltitudeMeters>
            <DistanceMeters>7718.6956283211</DistanceMeters>
          </Trackpoint>
          <Trackpoint>
            <Time>2019-01-04T11:07:23.000Z</Time>
            <Position>
              <LatitudeDegrees>36.49930522777140140533447265625</LatitudeDegrees>
              <LongitudeDegrees>-5.40345422923564910888671875</LongitudeDegrees>
            </Position>
            <AltitudeMeters>182.600006103515625</AltitudeMeters>
            <DistanceMeters>7718.7906550355</DistanceMeters>
          </Trackpoint>
          <Trackpoint>
            <Time>2019-01-04T11:07:24.000Z</Time>
            <Position>
              <LatitudeDegrees>36.4993096701800823211669921875</LatitudeDegrees>
              <LongitudeDegrees>-5.40345883928239345550537109375</LongitudeDegrees>
            </Position>
            <AltitudeMeters>182.600006103515625</AltitudeMeters>
            <DistanceMeters>7719.4351575695</DistanceMeters>
          </Trackpoint>
          <Trackpoint>
            <Time>2019-01-04T11:07:25.000Z</Time>
            <Position>
              <LatitudeDegrees>36.49931109510362148284912109375</LatitudeDegrees>
              <LongitudeDegrees>-5.4034642875194549560546875</LongitudeDegrees>
            </Position>
            <AltitudeMeters>182.600006103515625</AltitudeMeters>
            <DistanceMeters>7719.9468920875</DistanceMeters>
          </Trackpoint>
          <Trackpoint>
            <Time>2019-01-04T11:07:26.000Z</Time>
            <Position>
              <LatitudeDegrees>36.49931277148425579071044921875</LatitudeDegrees>
              <LongitudeDegrees>-5.4034641198813915252685546875</LongitudeDegrees>
            </Position>
            <AltitudeMeters>182.8000030517578125</AltitudeMeters>
            <DistanceMeters>7720.1369455162</DistanceMeters>
          </Trackpoint>
          <Trackpoint>
            <Time>2019-01-04T11:07:27.000Z</Time>
            <Position>
              <LatitudeDegrees>36.49931444786489009857177734375</LatitudeDegrees>
              <LongitudeDegrees>-5.403468310832977294921875</LongitudeDegrees>
            </Position>
            <AltitudeMeters>183</AltitudeMeters>
            <DistanceMeters>7720.5619179022</DistanceMeters>
          </Trackpoint>
          <Trackpoint>
            <Time>2019-01-04T11:07:28.000Z</Time>
            <Position>
              <LatitudeDegrees>36.4993123523890972137451171875</LatitudeDegrees>
              <LongitudeDegrees>-5.4034701548516750335693359375</LongitudeDegrees>
            </Position>
            <AltitudeMeters>183</AltitudeMeters>
            <DistanceMeters>7720.8469980454</DistanceMeters>
          </Trackpoint>
          <Trackpoint>
            <Time>2019-01-04T11:07:29.000Z</Time>
            <Position>
              <LatitudeDegrees>36.4993120171129703521728515625</LatitudeDegrees>
              <LongitudeDegrees>-5.4034688137471675872802734375</LongitudeDegrees>
            </Position>
            <AltitudeMeters>183.1999969482421875</AltitudeMeters>
            <DistanceMeters>7720.9813861136</DistanceMeters>
          </Trackpoint>
          <Trackpoint>
            <Time>2019-01-04T11:07:30.000Z</Time>
            <Position>
              <LatitudeDegrees>36.4993143640458583831787109375</LatitudeDegrees>
              <LongitudeDegrees>-5.40346705354750156402587890625</LongitudeDegrees>
            </Position>
            <AltitudeMeters>183.1999969482421875</AltitudeMeters>
            <DistanceMeters>7721.2965540702</DistanceMeters>
          </Trackpoint>
          <Trackpoint>
            <Time>2019-01-04T11:07:31.000Z</Time>
            <Position>
              <LatitudeDegrees>36.49931478314101696014404296875</LatitudeDegrees>
              <LongitudeDegrees>-5.403468310832977294921875</LongitudeDegrees>
            </Position>
            <AltitudeMeters>183.1999969482421875</AltitudeMeters>
            <DistanceMeters>7721.4309421385</DistanceMeters>
          </Trackpoint>
          <Trackpoint>
            <Time>2019-01-04T11:07:32.000Z</Time>
            <Position>
              <LatitudeDegrees>36.49931394495069980621337890625</LatitudeDegrees>
              <LongitudeDegrees>-5.403470657765865325927734375</LongitudeDegrees>
            </Position>
            <AltitudeMeters>183.1999969482421875</AltitudeMeters>
            <DistanceMeters>7721.6637091006</DistanceMeters>
          </Trackpoint>
          <Trackpoint>
            <Time>2019-01-04T11:07:33.000Z</Time>
            <Position>
              <LatitudeDegrees>36.49931428022682666778564453125</LatitudeDegrees>
              <LongitudeDegrees>-5.40346805937588214874267578125</LongitudeDegrees>
            </Position>
            <AltitudeMeters>183.1999969482421875</AltitudeMeters>
            <DistanceMeters>7721.8964760628</DistanceMeters>
          </Trackpoint>
          <Trackpoint>
            <Time>2019-01-04T11:07:34.000Z</Time>
            <Position>
              <LatitudeDegrees>36.499312184751033782958984375</LatitudeDegrees>
              <LongitudeDegrees>-5.40347007103264331817626953125</LongitudeDegrees>
            </Position>
            <AltitudeMeters>183.1999969482421875</AltitudeMeters>
            <DistanceMeters>7722.1969769187</DistanceMeters>
          </Trackpoint>
          <Trackpoint>
            <Time>2019-01-04T11:07:35.000Z</Time>
            <Position>
              <LatitudeDegrees>36.49931411258876323699951171875</LatitudeDegrees>
              <LongitudeDegrees>-5.4034698195755481719970703125</LongitudeDegrees>
            </Position>
            <AltitudeMeters>183</AltitudeMeters>
            <DistanceMeters>7722.4297438809</DistanceMeters>
          </Trackpoint>
          <Trackpoint>
            <Time>2019-01-04T11:07:36.000Z</Time>
            <Position>
              <LatitudeDegrees>36.49931645952165126800537109375</LatitudeDegrees>
              <LongitudeDegrees>-5.40346906520426273345947265625</LongitudeDegrees>
            </Position>
            <AltitudeMeters>183</AltitudeMeters>
            <DistanceMeters>7722.714824024</DistanceMeters>
          </Trackpoint>
          <Trackpoint>
            <Time>2019-01-04T11:07:37.000Z</Time>
            <Position>
              <LatitudeDegrees>36.49931629188358783721923828125</LatitudeDegrees>
              <LongitudeDegrees>-5.40346940048038959503173828125</LongitudeDegrees>
            </Position>
            <AltitudeMeters>182.8000030517578125</AltitudeMeters>
            <DistanceMeters>7722.714824024</DistanceMeters>
          </Trackpoint>
          <Trackpoint>
            <Time>2019-01-04T11:07:38.000Z</Time>
            <Position>
              <LatitudeDegrees>36.49931478314101696014404296875</LatitudeDegrees>
              <LongitudeDegrees>-5.40347032248973846435546875</LongitudeDegrees>
            </Position>
            <AltitudeMeters>182.8000030517578125</AltitudeMeters>
            <DistanceMeters>7722.9048774527</DistanceMeters>
          </Trackpoint>
          <Trackpoint>
            <Time>2019-01-04T11:07:39.000Z</Time>
            <Position>
              <LatitudeDegrees>36.49931444786489009857177734375</LatitudeDegrees>
              <LongitudeDegrees>-5.40347074158489704132080078125</LongitudeDegrees>
            </Position>
            <AltitudeMeters>182.600006103515625</AltitudeMeters>
            <DistanceMeters>7722.9999041671</DistanceMeters>
          </Trackpoint>
          <Trackpoint>
            <Time>2019-01-04T11:07:40.000Z</Time>
            <Position>
              <LatitudeDegrees>36.49931645952165126800537109375</LatitudeDegrees>
              <LongitudeDegrees>-5.40347032248973846435546875</LongitudeDegrees>
            </Position>
            <AltitudeMeters>182.8000030517578125</AltitudeMeters>
            <DistanceMeters>7723.2326711292</DistanceMeters>
          </Trackpoint>
          <Trackpoint>
            <Time>2019-01-04T11:07:41.000Z</Time>
            <Position>
              <LatitudeDegrees>36.49932065047323703765869140625</LatitudeDegrees>
              <LongitudeDegrees>-5.4034709930419921875</LongitudeDegrees>
            </Position>
            <AltitudeMeters>183</AltitudeMeters>
            <DistanceMeters>7723.7078047011</DistanceMeters>
          </Trackpoint>
          <Trackpoint>
            <Time>2019-01-04T11:07:42.000Z</Time>
            <Position>
              <LatitudeDegrees>36.4993219077587127685546875</LatitudeDegrees>
              <LongitudeDegrees>-5.40347225032746791839599609375</LongitudeDegrees>
            </Position>
            <AltitudeMeters>183.1999969482421875</AltitudeMeters>
            <DistanceMeters>7723.8978581298</DistanceMeters>
          </Trackpoint>
          <Trackpoint>
            <Time>2019-01-04T11:07:43.000Z</Time>
            <Position>
              <LatitudeDegrees>36.4993220753967761993408203125</LatitudeDegrees>
              <LongitudeDegrees>-5.4034721665084362030029296875</LongitudeDegrees>
            </Position>
            <AltitudeMeters>183.1999969482421875</AltitudeMeters>
            <DistanceMeters>7723.8978581298</DistanceMeters>
          </Trackpoint>
          <Trackpoint>
            <Time>2019-01-04T11:07:44.000Z</Time>
            <Position>
              <LatitudeDegrees>36.49932132102549076080322265625</LatitudeDegrees>
              <LongitudeDegrees>-5.4034725017845630645751953125</LongitudeDegrees>
            </Position>
            <AltitudeMeters>183.399993896484375</AltitudeMeters>
            <DistanceMeters>7724.0322461981</DistanceMeters>
          </Trackpoint>
          <Trackpoint>
            <Time>2019-01-04T11:07:45.000Z</Time>
            <Position>
              <LatitudeDegrees>36.49932065047323703765869140625</LatitudeDegrees>
              <LongitudeDegrees>-5.40347308851778507232666015625</LongitudeDegrees>
            </Position>
            <AltitudeMeters>183.399993896484375</AltitudeMeters>
            <DistanceMeters>7724.1666342663</DistanceMeters>
          </Trackpoint>
          <Trackpoint>
            <Time>2019-01-04T11:07:46.000Z</Time>
            <Position>
              <LatitudeDegrees>36.4993203990161418914794921875</LatitudeDegrees>
              <LongitudeDegrees>-5.403473675251007080078125</LongitudeDegrees>
            </Position>
            <AltitudeMeters>183.1999969482421875</AltitudeMeters>
            <DistanceMeters>7724.1666342663</DistanceMeters>
          </Trackpoint>
          <Trackpoint>
            <Time>2019-01-04T11:07:47.000Z</Time>
            <Position>
              <LatitudeDegrees>36.4993210695683956146240234375</LatitudeDegrees>
              <LongitudeDegrees>-5.40347375907003879547119140625</LongitudeDegrees>
            </Position>
            <AltitudeMeters>183.1999969482421875</AltitudeMeters>
            <DistanceMeters>7724.1666342663</DistanceMeters>
          </Trackpoint>
          <Trackpoint>
            <Time>2019-01-04T11:07:48.000Z</Time>
            <Position>
              <LatitudeDegrees>36.49932081811130046844482421875</LatitudeDegrees>
              <LongitudeDegrees>-5.40347392670810222625732421875</LongitudeDegrees>
            </Position>
            <AltitudeMeters>183</AltitudeMeters>
            <DistanceMeters>7724.1666342663</DistanceMeters>
          </Trackpoint>
          <Trackpoint>
            <Time>2019-01-04T11:07:49.000Z</Time>
            <Position>
              <LatitudeDegrees>36.4993207342922687530517578125</LatitudeDegrees>
              <LongitudeDegrees>-5.4034741781651973724365234375</LongitudeDegrees>
            </Position>
            <AltitudeMeters>182.8000030517578125</AltitudeMeters>
            <DistanceMeters>7724.1666342663</DistanceMeters>
          </Trackpoint>
          <Trackpoint>
            <Time>2019-01-04T11:07:50.000Z</Time>
            <Position>
              <LatitudeDegrees>36.49931947700679302215576171875</LatitudeDegrees>
              <LongitudeDegrees>-5.40347543545067310333251953125</LongitudeDegrees>
            </Position>
            <AltitudeMeters>182.8000030517578125</AltitudeMeters>
            <DistanceMeters>7724.3312253637</DistanceMeters>
          </Trackpoint>
          <Trackpoint>
            <Time>2019-01-04T11:07:51.000Z</Time>
            <Position>
              <LatitudeDegrees>36.49931495077908039093017578125</LatitudeDegrees>
              <LongitudeDegrees>-5.4034721665084362030029296875</LongitudeDegrees>
            </Position>
            <AltitudeMeters>182.600006103515625</AltitudeMeters>
            <DistanceMeters>7724.9170093724</DistanceMeters>
          </Trackpoint>
          <Trackpoint>
            <Time>2019-01-04T11:07:52.000Z</Time>
            <Position>
              <LatitudeDegrees>36.49930858053267002105712890625</LatitudeDegrees>
              <LongitudeDegrees>-5.4034761898219585418701171875</LongitudeDegrees>
            </Position>
            <AltitudeMeters>182.600006103515625</AltitudeMeters>
            <DistanceMeters>7725.7120599061</DistanceMeters>
          </Trackpoint>
          <Trackpoint>
            <Time>2019-01-04T11:07:53.000Z</Time>
            <Position>
              <LatitudeDegrees>36.49930070154368877410888671875</LatitudeDegrees>
              <LongitudeDegrees>-5.4034815542399883270263671875</LongitudeDegrees>
            </Position>
            <AltitudeMeters>182.600006103515625</AltitudeMeters>
            <DistanceMeters>7726.7041679306</DistanceMeters>
          </Trackpoint>
          <Trackpoint>
            <Time>2019-01-04T11:07:54.000Z</Time>
            <Position>
              <LatitudeDegrees>36.49928980506956577301025390625</LatitudeDegrees>
              <LongitudeDegrees>-5.4034845717251300811767578125</LongitudeDegrees>
            </Position>
            <AltitudeMeters>182.399993896484375</AltitudeMeters>
            <DistanceMeters>7727.9431647004</DistanceMeters>
          </Trackpoint>
          <Trackpoint>
            <Time>2019-01-04T11:07:55.000Z</Time>
            <Position>
              <LatitudeDegrees>36.4992794953286647796630859375</LatitudeDegrees>
              <LongitudeDegrees>-5.4034872539341449737548828125</LongitudeDegrees>
            </Position>
            <AltitudeMeters>182.399993896484375</AltitudeMeters>
            <DistanceMeters>7729.1147327178</DistanceMeters>
          </Trackpoint>
          <Trackpoint>
            <Time>2019-01-04T11:07:56.000Z</Time>
            <Position>
              <LatitudeDegrees>36.499266587197780609130859375</LatitudeDegrees>
              <LongitudeDegrees>-5.4034899361431598663330078125</LongitudeDegrees>
            </Position>
            <AltitudeMeters>182.399993896484375</AltitudeMeters>
            <DistanceMeters>7730.5714646644</DistanceMeters>
          </Trackpoint>
          <Trackpoint>
            <Time>2019-01-04T11:07:57.000Z</Time>
            <Position>
              <LatitudeDegrees>36.49925309233367443084716796875</LatitudeDegrees>
              <LongitudeDegrees>-5.4034919477999210357666015625</LongitudeDegrees>
            </Position>
            <AltitudeMeters>182.399993896484375</AltitudeMeters>
            <DistanceMeters>7732.0859412792</DistanceMeters>
          </Trackpoint>
          <Trackpoint>
            <Time>2019-01-04T11:07:58.000Z</Time>
            <Position>
              <LatitudeDegrees>36.4992414414882659912109375</LatitudeDegrees>
              <LongitudeDegrees>-5.40349370799958705902099609375</LongitudeDegrees>
            </Position>
            <AltitudeMeters>182.399993896484375</AltitudeMeters>
            <DistanceMeters>7733.3957941429</DistanceMeters>
          </Trackpoint>
          <Trackpoint>
            <Time>2019-01-04T11:07:59.000Z</Time>
            <Position>
              <LatitudeDegrees>36.499232389032840728759765625</LatitudeDegrees>
              <LongitudeDegrees>-5.40349907241761684417724609375</LongitudeDegrees>
            </Position>
            <AltitudeMeters>182.399993896484375</AltitudeMeters>
            <DistanceMeters>7734.5121052775</DistanceMeters>
          </Trackpoint>
          <Trackpoint>
            <Time>2019-01-04T11:08:00.000Z</Time>
            <Position>
              <LatitudeDegrees>36.49922660551965236663818359375</LatitudeDegrees>
              <LongitudeDegrees>-5.4035103879868984222412109375</LongitudeDegrees>
            </Position>
            <AltitudeMeters>182.1999969482421875</AltitudeMeters>
            <DistanceMeters>7735.7141087014</DistanceMeters>
          </Trackpoint>
          <Trackpoint>
            <Time>2019-01-04T11:08:01.000Z</Time>
            <Position>
              <LatitudeDegrees>36.49922199547290802001953125</LatitudeDegrees>
              <LongitudeDegrees>-5.40352237410843372344970703125</LongitudeDegrees>
            </Position>
            <AltitudeMeters>181.8000030517578125</AltitudeMeters>
            <DistanceMeters>7736.9009919834</DistanceMeters>
          </Trackpoint>
          <Trackpoint>
            <Time>2019-01-04T11:08:02.000Z</Time>
            <Position>
              <LatitudeDegrees>36.49921621195971965789794921875</LatitudeDegrees>
              <LongitudeDegrees>-5.40353243239223957061767578125</LongitudeDegrees>
            </Position>
            <AltitudeMeters>181.399993896484375</AltitudeMeters>
            <DistanceMeters>7738.0091843839</DistanceMeters>
          </Trackpoint>
          <Trackpoint>
            <Time>2019-01-04T11:08:03.000Z</Time>
            <Position>
              <LatitudeDegrees>36.4992090873420238494873046875</LatitudeDegrees>
              <LongitudeDegrees>-5.4035452567040920257568359375</LongitudeDegrees>
            </Position>
            <AltitudeMeters>180.8000030517578125</AltitudeMeters>
            <DistanceMeters>7739.4025495318</DistanceMeters>
          </Trackpoint>
          <Trackpoint>
            <Time>2019-01-04T11:08:04.000Z</Time>
            <Position>
              <LatitudeDegrees>36.4992043934762477874755859375</LatitudeDegrees>
              <LongitudeDegrees>-5.4035529680550098419189453125</LongitudeDegrees>
            </Position>
            <AltitudeMeters>180.399993896484375</AltitudeMeters>
            <DistanceMeters>7740.2682841013</DistanceMeters>
          </Trackpoint>
          <Trackpoint>
            <Time>2019-01-04T11:08:05.000Z</Time>
            <Position>
              <LatitudeDegrees>36.499200873076915740966796875</LatitudeDegrees>
              <LongitudeDegrees>-5.40355883538722991943359375</LongitudeDegrees>
            </Position>
            <AltitudeMeters>180</AltitudeMeters>
            <DistanceMeters>7740.9197544328</DistanceMeters>
          </Trackpoint>
          <Trackpoint>
            <Time>2019-01-04T11:08:06.000Z</Time>
            <Position>
              <LatitudeDegrees>36.4991936646401882171630859375</LatitudeDegrees>
              <LongitudeDegrees>-5.40356813929975032806396484375</LongitudeDegrees>
            </Position>
            <AltitudeMeters>179.8000030517578125</AltitudeMeters>
            <DistanceMeters>7742.0797033068</DistanceMeters>
          </Trackpoint>
          <Trackpoint>
            <Time>2019-01-04T11:08:07.000Z</Time>
            <Position>
              <LatitudeDegrees>36.499186120927333831787109375</LatitudeDegrees>
              <LongitudeDegrees>-5.40357316844165325164794921875</LongitudeDegrees>
            </Position>
            <AltitudeMeters>179.600006103515625</AltitudeMeters>
            <DistanceMeters>7743.0347099669</DistanceMeters>
          </Trackpoint>
          <Trackpoint>
            <Time>2019-01-04T11:08:08.000Z</Time>
            <Position>
              <LatitudeDegrees>36.49917908012866973876953125</LatitudeDegrees>
              <LongitudeDegrees>-5.4035769402980804443359375</LongitudeDegrees>
            </Position>
            <AltitudeMeters>179.1999969482421875</AltitudeMeters>
            <DistanceMeters>7743.8899503962</DistanceMeters>
          </Trackpoint>
          <Trackpoint>
            <Time>2019-01-04T11:08:09.000Z</Time>
            <Position>
              <LatitudeDegrees>36.4991712011396884918212890625</LatitudeDegrees>
              <LongitudeDegrees>-5.40358121506869792938232421875</LongitudeDegrees>
            </Position>
            <AltitudeMeters>179</AltitudeMeters>
            <DistanceMeters>7744.8449570563</DistanceMeters>
          </Trackpoint>
          <Trackpoint>
            <Time>2019-01-04T11:08:10.000Z</Time>
            <Position>
              <LatitudeDegrees>36.499160639941692352294921875</LatitudeDegrees>
              <LongitudeDegrees>-5.4035854898393154144287109375</LongitudeDegrees>
            </Position>
            <AltitudeMeters>178.600006103515625</AltitudeMeters>
            <DistanceMeters>7746.0803043431</DistanceMeters>
          </Trackpoint>
          <Trackpoint>
            <Time>2019-01-04T11:08:11.000Z</Time>
            <Position>
              <LatitudeDegrees>36.49915158748626708984375</LatitudeDegrees>
              <LongitudeDegrees>-5.40359009988605976104736328125</LongitudeDegrees>
            </Position>
            <AltitudeMeters>178.1999969482421875</AltitudeMeters>
            <DistanceMeters>7747.1720781707</DistanceMeters>
          </Trackpoint>
          <Trackpoint>
            <Time>2019-01-04T11:08:12.000Z</Time>
            <Position>
              <LatitudeDegrees>36.4991413615643978118896484375</LatitudeDegrees>
              <LongitudeDegrees>-5.40359236299991607666015625</LongitudeDegrees>
            </Position>
            <AltitudeMeters>178</AltitudeMeters>
            <DistanceMeters>7748.3281280458</DistanceMeters>
          </Trackpoint>
          <Trackpoint>
            <Time>2019-01-04T11:08:13.000Z</Time>
            <Position>
              <LatitudeDegrees>36.4991261065006256103515625</LatitudeDegrees>
              <LongitudeDegrees>-5.40359278209507465362548828125</LongitudeDegrees>
            </Position>
            <AltitudeMeters>177.600006103515625</AltitudeMeters>
            <DistanceMeters>7750.0226971088</DistanceMeters>
          </Trackpoint>
          <Trackpoint>
            <Time>2019-01-04T11:08:14.000Z</Time>
            <Position>
              <LatitudeDegrees>36.4991142041981220245361328125</LatitudeDegrees>
              <LongitudeDegrees>-5.403596721589565277099609375</LongitudeDegrees>
            </Position>
            <AltitudeMeters>177.399993896484375</AltitudeMeters>
            <DistanceMeters>7751.3931918736</DistanceMeters>
          </Trackpoint>
          <Trackpoint>
            <Time>2019-01-04T11:08:15.000Z</Time>
            <Position>
              <LatitudeDegrees>36.49910397827625274658203125</LatitudeDegrees>
              <LongitudeDegrees>-5.403598733246326446533203125</LongitudeDegrees>
            </Position>
            <AltitudeMeters>177</AltitudeMeters>
            <DistanceMeters>7752.5453295551</DistanceMeters>
          </Trackpoint>
          <Trackpoint>
            <Time>2019-01-04T11:08:16.000Z</Time>
            <Position>
              <LatitudeDegrees>36.49909266270697116851806640625</LatitudeDegrees>
              <LongitudeDegrees>-5.40360233746469020843505859375</LongitudeDegrees>
            </Position>
            <AltitudeMeters>176.8000030517578125</AltitudeMeters>
            <DistanceMeters>7753.8482702182</DistanceMeters>
          </Trackpoint>
          <Trackpoint>
            <Time>2019-01-04T11:08:17.000Z</Time>
            <Position>
              <LatitudeDegrees>36.4990818500518798828125</LatitudeDegrees>
              <LongitudeDegrees>-5.403605438768863677978515625</LongitudeDegrees>
            </Position>
            <AltitudeMeters>176.600006103515625</AltitudeMeters>
            <DistanceMeters>7755.0799572087</DistanceMeters>
          </Trackpoint>
          <Trackpoint>
            <Time>2019-01-04T11:08:18.000Z</Time>
            <Position>
              <LatitudeDegrees>36.49907170794904232025146484375</LatitudeDegrees>
              <LongitudeDegrees>-5.4036096297204494476318359375</LongitudeDegrees>
            </Position>
            <AltitudeMeters>176.399993896484375</AltitudeMeters>
            <DistanceMeters>7756.2668404908</DistanceMeters>
          </Trackpoint>
          <Trackpoint>
            <Time>2019-01-04T11:08:19.000Z</Time>
            <Position>
              <LatitudeDegrees>36.49906282313168048858642578125</LatitudeDegrees>
              <LongitudeDegrees>-5.40361390449106693267822265625</LongitudeDegrees>
            </Position>
            <AltitudeMeters>176.1999969482421875</AltitudeMeters>
            <DistanceMeters>7757.3250131983</DistanceMeters>
          </Trackpoint>
          <Trackpoint>
            <Time>2019-01-04T11:08:20.000Z</Time>
            <Position>
              <LatitudeDegrees>36.4990521781146526336669921875</LatitudeDegrees>
              <LongitudeDegrees>-5.40361708961427211761474609375</LongitudeDegrees>
            </Position>
            <AltitudeMeters>176.1999969482421875</AltitudeMeters>
            <DistanceMeters>7758.5419489143</DistanceMeters>
          </Trackpoint>
          <Trackpoint>
            <Time>2019-01-04T11:08:21.000Z</Time>
            <Position>
              <LatitudeDegrees>36.49904119782149791717529296875</LatitudeDegrees>
              <LongitudeDegrees>-5.40362186729907989501953125</LongitudeDegrees>
            </Position>
            <AltitudeMeters>176</AltitudeMeters>
            <DistanceMeters>7759.837940511</DistanceMeters>
          </Trackpoint>
          <Trackpoint>
            <Time>2019-01-04T11:08:22.000Z</Time>
            <Position>
              <LatitudeDegrees>36.4990334026515483856201171875</LatitudeDegrees>
              <LongitudeDegrees>-5.403628908097743988037109375</LongitudeDegrees>
            </Position>
            <AltitudeMeters>175.600006103515625</AltitudeMeters>
            <DistanceMeters>7760.913045057</DistanceMeters>
          </Trackpoint>
          <Trackpoint>
            <Time>2019-01-04T11:08:23.000Z</Time>
            <Position>
              <LatitudeDegrees>36.499025523662567138671875</LatitudeDegrees>
              <LongitudeDegrees>-5.4036332666873931884765625</LongitudeDegrees>
            </Position>
            <AltitudeMeters>175.399993896484375</AltitudeMeters>
            <DistanceMeters>7761.872767828</DistanceMeters>
          </Trackpoint>
          <Trackpoint>
            <Time>2019-01-04T11:08:24.000Z</Time>
            <Position>
              <LatitudeDegrees>36.499017812311649322509765625</LatitudeDegrees>
              <LongitudeDegrees>-5.40363888256251811981201171875</LongitudeDegrees>
            </Position>
            <AltitudeMeters>175</AltitudeMeters>
            <DistanceMeters>7762.8694164164</DistanceMeters>
          </Trackpoint>
          <Trackpoint>
            <Time>2019-01-04T11:08:25.000Z</Time>
            <Position>
              <LatitudeDegrees>36.4990106038749217987060546875</LatitudeDegrees>
              <LongitudeDegrees>-5.40364441461861133575439453125</LongitudeDegrees>
            </Position>
            <AltitudeMeters>174.8000030517578125</AltitudeMeters>
            <DistanceMeters>7763.8101328942</DistanceMeters>
          </Trackpoint>
          <Trackpoint>
            <Time>2019-01-04T11:08:26.000Z</Time>
            <Position>
              <LatitudeDegrees>36.49900264106690883636474609375</LatitudeDegrees>
              <LongitudeDegrees>-5.4036493599414825439453125</LongitudeDegrees>
            </Position>
            <AltitudeMeters>174.600006103515625</AltitudeMeters>
            <DistanceMeters>7764.7976794784</DistanceMeters>
          </Trackpoint>
          <Trackpoint>
            <Time>2019-01-04T11:08:27.000Z</Time>
            <Position>
              <LatitudeDegrees>36.49899258278310298919677734375</LatitudeDegrees>
              <LongitudeDegrees>-5.40365849621593952178955078125</LongitudeDegrees>
            </Position>
            <AltitudeMeters>174.1999969482421875</AltitudeMeters>
            <DistanceMeters>7766.1845487161</DistanceMeters>
          </Trackpoint>
          <Trackpoint>
            <Time>2019-01-04T11:08:28.000Z</Time>
            <Position>
              <LatitudeDegrees>36.498983614146709442138671875</LatitudeDegrees>
              <LongitudeDegrees>-5.4036639444530010223388671875</LongitudeDegrees>
            </Position>
            <AltitudeMeters>174</AltitudeMeters>
            <DistanceMeters>7767.2927411165</DistanceMeters>
          </Trackpoint>
          <Trackpoint>
            <Time>2019-01-04T11:08:29.000Z</Time>
            <Position>
              <LatitudeDegrees>36.49897414259612560272216796875</LatitudeDegrees>
              <LongitudeDegrees>-5.40366905741393566131591796875</LongitudeDegrees>
            </Position>
            <AltitudeMeters>173.8000030517578125</AltitudeMeters>
            <DistanceMeters>7768.440953275</DistanceMeters>
          </Trackpoint>
          <Trackpoint>
            <Time>2019-01-04T11:08:30.000Z</Time>
            <Position>
              <LatitudeDegrees>36.49896374903619289398193359375</LatitudeDegrees>
              <LongitudeDegrees>-5.403669811785221099853515625</LongitudeDegrees>
            </Position>
            <AltitudeMeters>173.600006103515625</AltitudeMeters>
            <DistanceMeters>7769.6047880857</DistanceMeters>
          </Trackpoint>
          <Trackpoint>
            <Time>2019-01-04T11:08:31.000Z</Time>
            <Position>
              <LatitudeDegrees>36.498950757086277008056640625</LatitudeDegrees>
              <LongitudeDegrees>-5.40366821922361850738525390625</LongitudeDegrees>
            </Position>
            <AltitudeMeters>173.399993896484375</AltitudeMeters>
            <DistanceMeters>7771.0584172984</DistanceMeters>
          </Trackpoint>
          <Trackpoint>
            <Time>2019-01-04T11:08:32.000Z</Time>
            <Position>
              <LatitudeDegrees>36.49894212372601032257080078125</LatitudeDegrees>
              <LongitudeDegrees>-5.40367224253714084625244140625</LongitudeDegrees>
            </Position>
            <AltitudeMeters>173</AltitudeMeters>
            <DistanceMeters>7772.0818863343</DistanceMeters>
          </Trackpoint>
          <Trackpoint>
            <Time>2019-01-04T11:08:33.000Z</Time>
            <Position>
              <LatitudeDegrees>36.49893390946090221405029296875</LatitudeDegrees>
              <LongitudeDegrees>-5.40367794223129749298095703125</LongitudeDegrees>
            </Position>
            <AltitudeMeters>172.600006103515625</AltitudeMeters>
            <DistanceMeters>7773.1314907008</DistanceMeters>
          </Trackpoint>
          <Trackpoint>
            <Time>2019-01-04T11:08:34.000Z</Time>
            <Position>
              <LatitudeDegrees>36.49892569519579410552978515625</LatitudeDegrees>
              <LongitudeDegrees>-5.4036847315728664398193359375</LongitudeDegrees>
            </Position>
            <AltitudeMeters>172</AltitudeMeters>
            <DistanceMeters>7774.2315044477</DistanceMeters>
          </Trackpoint>
          <Trackpoint>
            <Time>2019-01-04T11:08:35.000Z</Time>
            <Position>
              <LatitudeDegrees>36.49891060777008533477783203125</LatitudeDegrees>
              <LongitudeDegrees>-5.40368598885834217071533203125</LongitudeDegrees>
            </Position>
            <AltitudeMeters>171.399993896484375</AltitudeMeters>
            <DistanceMeters>7775.9126986444</DistanceMeters>
          </Trackpoint>
          <Trackpoint>
            <Time>2019-01-04T11:08:36.000Z</Time>
            <Position>
              <LatitudeDegrees>36.49889870546758174896240234375</LatitudeDegrees>
              <LongitudeDegrees>-5.40368850342929363250732421875</LongitudeDegrees>
            </Position>
            <AltitudeMeters>171</AltitudeMeters>
            <DistanceMeters>7777.2565793269</DistanceMeters>
          </Trackpoint>
          <Trackpoint>
            <Time>2019-01-04T11:08:37.000Z</Time>
            <Position>
              <LatitudeDegrees>36.4988873898983001708984375</LatitudeDegrees>
              <LongitudeDegrees>-5.40369487367570400238037109375</LongitudeDegrees>
            </Position>
            <AltitudeMeters>170.600006103515625</AltitudeMeters>
            <DistanceMeters>7778.640189173</DistanceMeters>
          </Trackpoint>
          <Trackpoint>
            <Time>2019-01-04T11:08:38.000Z</Time>
            <Position>
              <LatitudeDegrees>36.498876325786113739013671875</LatitudeDegrees>
              <LongitudeDegrees>-5.4036991484463214874267578125</LongitudeDegrees>
            </Position>
            <AltitudeMeters>170.1999969482421875</AltitudeMeters>
            <DistanceMeters>7779.9291942411</DistanceMeters>
          </Trackpoint>
          <Trackpoint>
            <Time>2019-01-04T11:08:39.000Z</Time>
            <Position>
              <LatitudeDegrees>36.49886534549295902252197265625</LatitudeDegrees>
              <LongitudeDegrees>-5.403706021606922149658203125</LongitudeDegrees>
            </Position>
            <AltitudeMeters>170</AltitudeMeters>
            <DistanceMeters>7781.2963905781</DistanceMeters>
          </Trackpoint>
          <Trackpoint>
            <Time>2019-01-04T11:08:40.000Z</Time>
            <Position>
              <LatitudeDegrees>36.49885361082851886749267578125</LatitudeDegrees>
              <LongitudeDegrees>-5.40371239185333251953125</LongitudeDegrees>
            </Position>
            <AltitudeMeters>169.8000030517578125</AltitudeMeters>
            <DistanceMeters>7782.7186202092</DistanceMeters>
          </Trackpoint>
          <Trackpoint>
            <Time>2019-01-04T11:08:41.000Z</Time>
            <Position>
              <LatitudeDegrees>36.49884237907826900482177734375</LatitudeDegrees>
              <LongitudeDegrees>-5.4037132300436496734619140625</LongitudeDegrees>
            </Position>
            <AltitudeMeters>169.600006103515625</AltitudeMeters>
            <DistanceMeters>7783.9721086619</DistanceMeters>
          </Trackpoint>
          <Trackpoint>
            <Time>2019-01-04T11:08:42.000Z</Time>
            <Position>
              <LatitudeDegrees>36.49883173406124114990234375</LatitudeDegrees>
              <LongitudeDegrees>-5.40371851064264774322509765625</LongitudeDegrees>
            </Position>
            <AltitudeMeters>169.600006103515625</AltitudeMeters>
            <DistanceMeters>7785.24702582</DistanceMeters>
          </Trackpoint>
          <Trackpoint>
            <Time>2019-01-04T11:08:43.000Z</Time>
            <Position>
              <LatitudeDegrees>36.49882226251065731048583984375</LatitudeDegrees>
              <LongitudeDegrees>-5.4037206061184406280517578125</LongitudeDegrees>
            </Position>
            <AltitudeMeters>169.399993896484375</AltitudeMeters>
            <DistanceMeters>7786.3179225043</DistanceMeters>
          </Trackpoint>
          <Trackpoint>
            <Time>2019-01-04T11:08:44.000Z</Time>
            <Position>
              <LatitudeDegrees>36.49881295859813690185546875</LatitudeDegrees>
              <LongitudeDegrees>-5.4037269763648509979248046875</LongitudeDegrees>
            </Position>
            <AltitudeMeters>169</AltitudeMeters>
            <DistanceMeters>7787.4971730172</DistanceMeters>
          </Trackpoint>
          <Trackpoint>
            <Time>2019-01-04T11:08:45.000Z</Time>
            <Position>
              <LatitudeDegrees>36.49880130775272846221923828125</LatitudeDegrees>
              <LongitudeDegrees>-5.40373074822127819061279296875</LongitudeDegrees>
            </Position>
            <AltitudeMeters>168.600006103515625</AltitudeMeters>
            <DistanceMeters>7788.8343174133</DistanceMeters>
          </Trackpoint>
          <Trackpoint>
            <Time>2019-01-04T11:08:46.000Z</Time>
            <Position>
              <LatitudeDegrees>36.498789153993129730224609375</LatitudeDegrees>
              <LongitudeDegrees>-5.40373577736318111419677734375</LongitudeDegrees>
            </Position>
            <AltitudeMeters>168</AltitudeMeters>
            <DistanceMeters>7790.2565470444</DistanceMeters>
          </Trackpoint>
          <Trackpoint>
            <Time>2019-01-04T11:08:47.000Z</Time>
            <Position>
              <LatitudeDegrees>36.4987785927951335906982421875</LatitudeDegrees>
              <LongitudeDegrees>-5.4037392139434814453125</LongitudeDegrees>
            </Position>
            <AltitudeMeters>167.600006103515625</AltitudeMeters>
            <DistanceMeters>7791.4660396586</DistanceMeters>
          </Trackpoint>
          <Trackpoint>
            <Time>2019-01-04T11:08:48.000Z</Time>
            <Position>
              <LatitudeDegrees>36.49876727722585201263427734375</LatitudeDegrees>
              <LongitudeDegrees>-5.40374315343797206878662109375</LongitudeDegrees>
            </Position>
            <AltitudeMeters>167.1999969482421875</AltitudeMeters>
            <DistanceMeters>7792.7758925222</DistanceMeters>
          </Trackpoint>
          <Trackpoint>
            <Time>2019-01-04T11:08:49.000Z</Time>
            <Position>
              <LatitudeDegrees>36.49875369854271411895751953125</LatitudeDegrees>
              <LongitudeDegrees>-5.4037494398653507232666015625</LongitudeDegrees>
            </Position>
            <AltitudeMeters>167</AltitudeMeters>
            <DistanceMeters>7794.3885493412</DistanceMeters>
          </Trackpoint>
          <Trackpoint>
            <Time>2019-01-04T11:08:50.000Z</Time>
            <Position>
              <LatitudeDegrees>36.4987430535256862640380859375</LatitudeDegrees>
              <LongitudeDegrees>-5.4037558101117610931396484375</LongitudeDegrees>
            </Position>
            <AltitudeMeters>166.600006103515625</AltitudeMeters>
            <DistanceMeters>7795.7052781202</DistanceMeters>
          </Trackpoint>
          <Trackpoint>
            <Time>2019-01-04T11:08:51.000Z</Time>
            <Position>
              <LatitudeDegrees>36.4987323246896266937255859375</LatitudeDegrees>
              <LongitudeDegrees>-5.4037611745297908782958984375</LongitudeDegrees>
            </Position>
            <AltitudeMeters>166.399993896484375</AltitudeMeters>
            <DistanceMeters>7796.9942831883</DistanceMeters>
          </Trackpoint>
          <Trackpoint>
            <Time>2019-01-04T11:08:52.000Z</Time>
            <Position>
              <LatitudeDegrees>36.49872176349163055419921875</LatitudeDegrees>
              <LongitudeDegrees>-5.40376544930040836334228515625</LongitudeDegrees>
            </Position>
            <AltitudeMeters>166</AltitudeMeters>
            <DistanceMeters>7798.2296304751</DistanceMeters>
          </Trackpoint>
          <Trackpoint>
            <Time>2019-01-04T11:08:53.000Z</Time>
            <Position>
              <LatitudeDegrees>36.4987115375697612762451171875</LatitudeDegrees>
              <LongitudeDegrees>-5.4037722386419773101806640625</LongitudeDegrees>
            </Position>
            <AltitudeMeters>165.600006103515625</AltitudeMeters>
            <DistanceMeters>7799.5186355432</DistanceMeters>
          </Trackpoint>
          <Trackpoint>
            <Time>2019-01-04T11:08:54.000Z</Time>
            <Position>
              <LatitudeDegrees>36.498699970543384552001953125</LatitudeDegrees>
              <LongitudeDegrees>-5.40377986617386341094970703125</LongitudeDegrees>
            </Position>
            <AltitudeMeters>165.399993896484375</AltitudeMeters>
            <DistanceMeters>7800.9784636293</DistanceMeters>
          </Trackpoint>
          <Trackpoint>
            <Time>2019-01-04T11:08:55.000Z</Time>
            <Position>
              <LatitudeDegrees>36.4986890740692615509033203125</LatitudeDegrees>
              <LongitudeDegrees>-5.40378388948738574981689453125</LongitudeDegrees>
            </Position>
            <AltitudeMeters>165</AltitudeMeters>
            <DistanceMeters>7802.2427118369</DistanceMeters>
          </Trackpoint>
          <Trackpoint>
            <Time>2019-01-04T11:08:56.000Z</Time>
            <Position>
              <LatitudeDegrees>36.498683206737041473388671875</LatitudeDegrees>
              <LongitudeDegrees>-5.4037866555154323577880859375</LongitudeDegrees>
            </Position>
            <AltitudeMeters>164.600006103515625</AltitudeMeters>
            <DistanceMeters>7802.9410127234</DistanceMeters>
          </Trackpoint>
          <Trackpoint>
            <Time>2019-01-04T11:08:57.000Z</Time>
            <Position>
              <LatitudeDegrees>36.49867909960448741912841796875</LatitudeDegrees>
              <LongitudeDegrees>-5.40378824807703495025634765625</LongitudeDegrees>
            </Position>
            <AltitudeMeters>164.1999969482421875</AltitudeMeters>
            <DistanceMeters>7803.4255557942</DistanceMeters>
          </Trackpoint>
          <Trackpoint>
            <Time>2019-01-04T11:08:58.000Z</Time>
            <Position>
              <LatitudeDegrees>36.4986716397106647491455078125</LatitudeDegrees>
              <LongitudeDegrees>-5.40378749370574951171875</LongitudeDegrees>
            </Position>
            <AltitudeMeters>163.600006103515625</AltitudeMeters>
            <DistanceMeters>7804.2594118287</DistanceMeters>
          </Trackpoint>
          <Trackpoint>
            <Time>2019-01-04T11:08:59.000Z</Time>
            <Position>
              <LatitudeDegrees>36.49866334162652492523193359375</LatitudeDegrees>
              <LongitudeDegrees>-5.40378657169640064239501953125</LongitudeDegrees>
            </Position>
            <AltitudeMeters>163</AltitudeMeters>
            <DistanceMeters>7805.1904796772</DistanceMeters>
          </Trackpoint>
          <Trackpoint>
            <Time>2019-01-04T11:09:00.000Z</Time>
            <Position>
              <LatitudeDegrees>36.4986567199230194091796875</LatitudeDegrees>
              <LongitudeDegrees>-5.40379143320024013519287109375</LongitudeDegrees>
            </Position>
            <AltitudeMeters>162.8000030517578125</AltitudeMeters>
            <DistanceMeters>7806.0457201066</DistanceMeters>
          </Trackpoint>
          <Trackpoint>
            <Time>2019-01-04T11:09:01.000Z</Time>
            <Position>
              <LatitudeDegrees>36.4986474998295307159423828125</LatitudeDegrees>
              <LongitudeDegrees>-5.403793863952159881591796875</LongitudeDegrees>
            </Position>
            <AltitudeMeters>162.8000030517578125</AltitudeMeters>
            <DistanceMeters>7807.0953244731</DistanceMeters>
          </Trackpoint>
          <Trackpoint>
            <Time>2019-01-04T11:09:02.000Z</Time>
            <Position>
              <LatitudeDegrees>36.4986374415457248687744140625</LatitudeDegrees>
              <LongitudeDegrees>-5.40379822254180908203125</LongitudeDegrees>
            </Position>
            <AltitudeMeters>162.600006103515625</AltitudeMeters>
            <DistanceMeters>7808.2822077551</DistanceMeters>
          </Trackpoint>
          <Trackpoint>
            <Time>2019-01-04T11:09:03.000Z</Time>
            <Position>
              <LatitudeDegrees>36.49862579070031642913818359375</LatitudeDegrees>
              <LongitudeDegrees>-5.40380350314080715179443359375</LongitudeDegrees>
            </Position>
            <AltitudeMeters>162.600006103515625</AltitudeMeters>
            <DistanceMeters>7809.6658176012</DistanceMeters>
          </Trackpoint>
          <Trackpoint>
            <Time>2019-01-04T11:09:04.000Z</Time>
            <Position>
              <LatitudeDegrees>36.49861187674105167388916015625</LatitudeDegrees>
              <LongitudeDegrees>-5.4038050957024097442626953125</LongitudeDegrees>
            </Position>
            <AltitudeMeters>162.399993896484375</AltitudeMeters>
            <DistanceMeters>7811.2214719609</DistanceMeters>
          </Trackpoint>
          <Trackpoint>
            <Time>2019-01-04T11:09:05.000Z</Time>
            <Position>
              <LatitudeDegrees>36.49860030971467494964599609375</LatitudeDegrees>
              <LongitudeDegrees>-5.4038104601204395294189453125</LongitudeDegrees>
            </Position>
            <AltitudeMeters>162.399993896484375</AltitudeMeters>
            <DistanceMeters>7812.5985398798</DistanceMeters>
          </Trackpoint>
          <Trackpoint>
            <Time>2019-01-04T11:09:06.000Z</Time>
            <Position>
              <LatitudeDegrees>36.4985868148505687713623046875</LatitudeDegrees>
              <LongitudeDegrees>-5.40381724946200847625732421875</LongitudeDegrees>
            </Position>
            <AltitudeMeters>162.1999969482421875</AltitudeMeters>
            <DistanceMeters>7814.2195741932</DistanceMeters>
          </Trackpoint>
          <Trackpoint>
            <Time>2019-01-04T11:09:07.000Z</Time>
            <Position>
              <LatitudeDegrees>36.49857633747160434722900390625</LatitudeDegrees>
              <LongitudeDegrees>-5.40382294915616512298583984375</LongitudeDegrees>
            </Position>
            <AltitudeMeters>162.1999969482421875</AltitudeMeters>
            <DistanceMeters>7815.4909449824</DistanceMeters>
          </Trackpoint>
          <Trackpoint>
            <Time>2019-01-04T11:09:08.000Z</Time>
            <Position>
              <LatitudeDegrees>36.49856409989297389984130859375</LatitudeDegrees>
              <LongitudeDegrees>-5.4038262180984020233154296875</LongitudeDegrees>
            </Position>
            <AltitudeMeters>162</AltitudeMeters>
            <DistanceMeters>7816.8810659695</DistanceMeters>
          </Trackpoint>
          <Trackpoint>
            <Time>2019-01-04T11:09:09.000Z</Time>
            <Position>
              <LatitudeDegrees>36.49854867719113826751708984375</LatitudeDegrees>
              <LongitudeDegrees>-5.40382839739322662353515625</LongitudeDegrees>
            </Position>
            <AltitudeMeters>161.8000030517578125</AltitudeMeters>
            <DistanceMeters>7818.6099255078</DistanceMeters>
          </Trackpoint>
          <Trackpoint>
            <Time>2019-01-04T11:09:10.000Z</Time>
            <Position>
              <LatitudeDegrees>36.49853392504155635833740234375</LatitudeDegrees>
              <LongitudeDegrees>-5.4038263857364654541015625</LongitudeDegrees>
            </Position>
            <AltitudeMeters>161.399993896484375</AltitudeMeters>
            <DistanceMeters>7820.2613137377</DistanceMeters>
          </Trackpoint>
          <Trackpoint>
            <Time>2019-01-04T11:09:11.000Z</Time>
            <Position>
              <LatitudeDegrees>36.49852269329130649566650390625</LatitudeDegrees>
              <LongitudeDegrees>-5.40382697246968746185302734375</LongitudeDegrees>
            </Position>
            <AltitudeMeters>160.8000030517578125</AltitudeMeters>
            <DistanceMeters>7821.5148021905</DistanceMeters>
          </Trackpoint>
          <Trackpoint>
            <Time>2019-01-04T11:09:12.000Z</Time>
            <Position>
              <LatitudeDegrees>36.49851179681718349456787109375</LatitudeDegrees>
              <LongitudeDegrees>-5.4038290679454803466796875</LongitudeDegrees>
            </Position>
            <AltitudeMeters>160.399993896484375</AltitudeMeters>
            <DistanceMeters>7822.7391357601</DistanceMeters>
          </Trackpoint>
          <Trackpoint>
            <Time>2019-01-04T11:09:13.000Z</Time>
            <Position>
              <LatitudeDegrees>36.49849914014339447021484375</LatitudeDegrees>
              <LongitudeDegrees>-5.4038317501544952392578125</LongitudeDegrees>
            </Position>
            <AltitudeMeters>160</AltitudeMeters>
            <DistanceMeters>7824.1677005211</DistanceMeters>
          </Trackpoint>
          <Trackpoint>
            <Time>2019-01-04T11:09:14.000Z</Time>
            <Position>
              <LatitudeDegrees>36.49848631583154201507568359375</LatitudeDegrees>
              <LongitudeDegrees>-5.4038349352777004241943359375</LongitudeDegrees>
            </Position>
            <AltitudeMeters>159.399993896484375</AltitudeMeters>
            <DistanceMeters>7825.6244324678</DistanceMeters>
          </Trackpoint>
          <Trackpoint>
            <Time>2019-01-04T11:09:15.000Z</Time>
            <Position>
              <LatitudeDegrees>36.4984743297100067138671875</LatitudeDegrees>
              <LongitudeDegrees>-5.40384273044764995574951171875</LongitudeDegrees>
            </Position>
            <AltitudeMeters>159.1999969482421875</AltitudeMeters>
            <DistanceMeters>7827.1299387572</DistanceMeters>
          </Trackpoint>
          <Trackpoint>
            <Time>2019-01-04T11:09:16.000Z</Time>
            <Position>
              <LatitudeDegrees>36.4984624274075031280517578125</LatitudeDegrees>
              <LongitudeDegrees>-5.40384759195148944854736328125</LongitudeDegrees>
            </Position>
            <AltitudeMeters>159</AltitudeMeters>
            <DistanceMeters>7828.52654053</DistanceMeters>
          </Trackpoint>
          <Trackpoint>
            <Time>2019-01-04T11:09:17.000Z</Time>
            <Position>
              <LatitudeDegrees>36.498449854552745819091796875</LatitudeDegrees>
              <LongitudeDegrees>-5.4038547165691852569580078125</LongitudeDegrees>
            </Position>
            <AltitudeMeters>158.8000030517578125</AltitudeMeters>
            <DistanceMeters>7830.0646822752</DistanceMeters>
          </Trackpoint>
          <Trackpoint>
            <Time>2019-01-04T11:09:18.000Z</Time>
            <Position>
              <LatitudeDegrees>36.4984359405934810638427734375</LatitudeDegrees>
              <LongitudeDegrees>-5.40386234410107135772705078125</LongitudeDegrees>
            </Position>
            <AltitudeMeters>158.399993896484375</AltitudeMeters>
            <DistanceMeters>7831.7592513382</DistanceMeters>
          </Trackpoint>
          <Trackpoint>
            <Time>2019-01-04T11:09:19.000Z</Time>
            <Position>
              <LatitudeDegrees>36.49842261336743831634521484375</LatitudeDegrees>
              <LongitudeDegrees>-5.40386854670941829681396484375</LongitudeDegrees>
            </Position>
            <AltitudeMeters>158</AltitudeMeters>
            <DistanceMeters>7833.3436632958</DistanceMeters>
          </Trackpoint>
          <Trackpoint>
            <Time>2019-01-04T11:09:20.000Z</Time>
            <Position>
              <LatitudeDegrees>36.4984134770929813385009765625</LatitudeDegrees>
              <LongitudeDegrees>-5.40387642569839954376220703125</LongitudeDegrees>
            </Position>
            <AltitudeMeters>157.600006103515625</AltitudeMeters>
            <DistanceMeters>7834.5826600655</DistanceMeters>
          </Trackpoint>
          <Trackpoint>
            <Time>2019-01-04T11:09:21.000Z</Time>
            <Position>
              <LatitudeDegrees>36.49840283207595348358154296875</LatitudeDegrees>
              <LongitudeDegrees>-5.40387667715549468994140625</LongitudeDegrees>
            </Position>
            <AltitudeMeters>157.1999969482421875</AltitudeMeters>
            <DistanceMeters>7835.7695433476</DistanceMeters>
          </Trackpoint>
          <Trackpoint>
            <Time>2019-01-04T11:09:22.000Z</Time>
            <Position>
              <LatitudeDegrees>36.498390845954418182373046875</LatitudeDegrees>
              <LongitudeDegrees>-5.40387508459389209747314453125</LongitudeDegrees>
            </Position>
            <AltitudeMeters>156.8000030517578125</AltitudeMeters>
            <DistanceMeters>7837.1134240301</DistanceMeters>
          </Trackpoint>
          <Trackpoint>
            <Time>2019-01-04T11:09:23.000Z</Time>
            <Position>
              <LatitudeDegrees>36.49838103912770748138427734375</LatitudeDegrees>
              <LongitudeDegrees>-5.4038791917264461517333984375</LongitudeDegrees>
            </Position>
            <AltitudeMeters>156.600006103515625</AltitudeMeters>
            <DistanceMeters>7838.2655617117</DistanceMeters>
          </Trackpoint>
          <Trackpoint>
            <Time>2019-01-04T11:09:24.000Z</Time>
            <Position>
              <LatitudeDegrees>36.498371399939060211181640625</LatitudeDegrees>
              <LongitudeDegrees>-5.40388514287769794464111328125</LongitudeDegrees>
            </Position>
            <AltitudeMeters>156.1999969482421875</AltitudeMeters>
            <DistanceMeters>7839.4638029873</DistanceMeters>
          </Trackpoint>
          <Trackpoint>
            <Time>2019-01-04T11:09:25.000Z</Time>
            <Position>
              <LatitudeDegrees>36.49835471995174884796142578125</LatitudeDegrees>
              <LongitudeDegrees>-5.403885059058666229248046875</LongitudeDegrees>
            </Position>
            <AltitudeMeters>155.8000030517578125</AltitudeMeters>
            <DistanceMeters>7841.321083042</DistanceMeters>
          </Trackpoint>
          <Trackpoint>
            <Time>2019-01-04T11:09:26.000Z</Time>
            <Position>
              <LatitudeDegrees>36.49834164418280124664306640625</LatitudeDegrees>
              <LongitudeDegrees>-5.40389142930507659912109375</LongitudeDegrees>
            </Position>
            <AltitudeMeters>155.1999969482421875</AltitudeMeters>
            <DistanceMeters>7842.8825312928</DistanceMeters>
          </Trackpoint>
          <Trackpoint>
            <Time>2019-01-04T11:09:27.000Z</Time>
            <Position>
              <LatitudeDegrees>36.49832923896610736846923828125</LatitudeDegrees>
              <LongitudeDegrees>-5.40390157140791416168212890625</LongitudeDegrees>
            </Position>
            <AltitudeMeters>155</AltitudeMeters>
            <DistanceMeters>7844.5339195227</DistanceMeters>
          </Trackpoint>
          <Trackpoint>
            <Time>2019-01-04T11:09:28.000Z</Time>
            <Position>
              <LatitudeDegrees>36.49832052178680896759033203125</LatitudeDegrees>
              <LongitudeDegrees>-5.40391112677752971649169921875</LongitudeDegrees>
            </Position>
            <AltitudeMeters>154.600006103515625</AltitudeMeters>
            <DistanceMeters>7845.8264225758</DistanceMeters>
          </Trackpoint>
          <Trackpoint>
            <Time>2019-01-04T11:09:29.000Z</Time>
            <Position>
              <LatitudeDegrees>36.49830828420817852020263671875</LatitudeDegrees>
              <LongitudeDegrees>-5.40391623973846435546875</LongitudeDegrees>
            </Position>
            <AltitudeMeters>154.399993896484375</AltitudeMeters>
            <DistanceMeters>7847.2612944966</DistanceMeters>
          </Trackpoint>
          <Trackpoint>
            <Time>2019-01-04T11:09:30.000Z</Time>
            <Position>
              <LatitudeDegrees>36.4982974715530872344970703125</LatitudeDegrees>
              <LongitudeDegrees>-5.4039244540035724639892578125</LongitudeDegrees>
            </Position>
            <AltitudeMeters>154.1999969482421875</AltitudeMeters>
            <DistanceMeters>7848.6707684473</DistanceMeters>
          </Trackpoint>
          <Trackpoint>
            <Time>2019-01-04T11:09:31.000Z</Time>
            <Position>
              <LatitudeDegrees>36.49828716181218624114990234375</LatitudeDegrees>
              <LongitudeDegrees>-5.40393342263996601104736328125</LongitudeDegrees>
            </Position>
            <AltitudeMeters>153.8000030517578125</AltitudeMeters>
            <DistanceMeters>7850.0673702201</DistanceMeters>
          </Trackpoint>
          <Trackpoint>
            <Time>2019-01-04T11:09:32.000Z</Time>
            <Position>
              <LatitudeDegrees>36.49827458895742893218994140625</LatitudeDegrees>
              <LongitudeDegrees>-5.40394096635282039642333984375</LongitudeDegrees>
            </Position>
            <AltitudeMeters>153.399993896484375</AltitudeMeters>
            <DistanceMeters>7851.6172090292</DistanceMeters>
          </Trackpoint>
          <Trackpoint>
            <Time>2019-01-04T11:09:33.000Z</Time>
            <Position>
              <LatitudeDegrees>36.4982651174068450927734375</LatitudeDegrees>
              <LongitudeDegrees>-5.4039539583027362823486328125</LongitudeDegrees>
            </Position>
            <AltitudeMeters>153</AltitudeMeters>
            <DistanceMeters>7853.1844297516</DistanceMeters>
          </Trackpoint>
          <Trackpoint>
            <Time>2019-01-04T11:09:34.000Z</Time>
            <Position>
              <LatitudeDegrees>36.49825329892337322235107421875</LatitudeDegrees>
              <LongitudeDegrees>-5.4039606638252735137939453125</LongitudeDegrees>
            </Position>
            <AltitudeMeters>152.600006103515625</AltitudeMeters>
            <DistanceMeters>7854.6318335429</DistanceMeters>
          </Trackpoint>
          <Trackpoint>
            <Time>2019-01-04T11:09:35.000Z</Time>
            <Position>
              <LatitudeDegrees>36.49824173189699649810791015625</LatitudeDegrees>
              <LongitudeDegrees>-5.40396544151008129119873046875</LongitudeDegrees>
            </Position>
            <AltitudeMeters>152.399993896484375</AltitudeMeters>
            <DistanceMeters>7855.9890865018</DistanceMeters>
          </Trackpoint>
          <Trackpoint>
            <Time>2019-01-04T11:09:36.000Z</Time>
            <Position>
              <LatitudeDegrees>36.49823251180350780487060546875</LatitudeDegrees>
              <LongitudeDegrees>-5.403971560299396514892578125</LongitudeDegrees>
            </Position>
            <AltitudeMeters>152.1999969482421875</AltitudeMeters>
            <DistanceMeters>7857.1529213125</DistanceMeters>
          </Trackpoint>
          <Trackpoint>
            <Time>2019-01-04T11:09:37.000Z</Time>
            <Position>
              <LatitudeDegrees>36.49822060950100421905517578125</LatitudeDegrees>
              <LongitudeDegrees>-5.4039784334599971771240234375</LongitudeDegrees>
            </Position>
            <AltitudeMeters>152</AltitudeMeters>
            <DistanceMeters>7858.6127493986</DistanceMeters>
          </Trackpoint>
          <Trackpoint>
            <Time>2019-01-04T11:09:38.000Z</Time>
            <Position>
              <LatitudeDegrees>36.49820971302688121795654296875</LatitudeDegrees>
              <LongitudeDegrees>-5.403984300792217254638671875</LongitudeDegrees>
            </Position>
            <AltitudeMeters>151.8000030517578125</AltitudeMeters>
            <DistanceMeters>7859.936318373</DistanceMeters>
          </Trackpoint>
          <Trackpoint>
            <Time>2019-01-04T11:09:39.000Z</Time>
            <Position>
              <LatitudeDegrees>36.49819814600050449371337890625</LatitudeDegrees>
              <LongitudeDegrees>-5.40398874320089817047119140625</LongitudeDegrees>
            </Position>
            <AltitudeMeters>151.600006103515625</AltitudeMeters>
            <DistanceMeters>7861.2835545681</DistanceMeters>
          </Trackpoint>
          <Trackpoint>
            <Time>2019-01-04T11:09:40.000Z</Time>
            <Position>
              <LatitudeDegrees>36.49818708188831806182861328125</LatitudeDegrees>
              <LongitudeDegrees>-5.4039905034005641937255859375</LongitudeDegrees>
            </Position>
            <AltitudeMeters>151.399993896484375</AltitudeMeters>
            <DistanceMeters>7862.5261901027</DistanceMeters>
          </Trackpoint>
          <Trackpoint>
            <Time>2019-01-04T11:09:41.000Z</Time>
            <Position>
              <LatitudeDegrees>36.49817434139549732208251953125</LatitudeDegrees>
              <LongitudeDegrees>-5.40399662218987941741943359375</LongitudeDegrees>
            </Position>
            <AltitudeMeters>151.1999969482421875</AltitudeMeters>
            <DistanceMeters>7864.0466175326</DistanceMeters>
          </Trackpoint>
          <Trackpoint>
            <Time>2019-01-04T11:09:42.000Z</Time>
            <Position>
              <LatitudeDegrees>36.49816059507429599761962890625</LatitudeDegrees>
              <LongitudeDegrees>-5.4040002264082431793212890625</LongitudeDegrees>
            </Position>
            <AltitudeMeters>150.8000030517578125</AltitudeMeters>
            <DistanceMeters>7865.613838255</DistanceMeters>
          </Trackpoint>
          <Trackpoint>
            <Time>2019-01-04T11:09:43.000Z</Time>
            <Position>
              <LatitudeDegrees>36.49814835749566555023193359375</LatitudeDegrees>
              <LongitudeDegrees>-5.40400383062660694122314453125</LongitudeDegrees>
            </Position>
            <AltitudeMeters>150.600006103515625</AltitudeMeters>
            <DistanceMeters>7867.0168908787</DistanceMeters>
          </Trackpoint>
          <Trackpoint>
            <Time>2019-01-04T11:09:44.000Z</Time>
            <Position>
              <LatitudeDegrees>36.49813712574541568756103515625</LatitudeDegrees>
              <LongitudeDegrees>-5.40400542318820953369140625</LongitudeDegrees>
            </Position>
            <AltitudeMeters>150</AltitudeMeters>
            <DistanceMeters>7868.2739761493</DistanceMeters>
          </Trackpoint>
          <Trackpoint>
            <Time>2019-01-04T11:09:45.000Z</Time>
            <Position>
              <LatitudeDegrees>36.49812740273773670196533203125</LatitudeDegrees>
              <LongitudeDegrees>-5.4040109552443027496337890625</LongitudeDegrees>
            </Position>
            <AltitudeMeters>149.399993896484375</AltitudeMeters>
            <DistanceMeters>7869.4608594314</DistanceMeters>
          </Trackpoint>
          <Trackpoint>
            <Time>2019-01-04T11:09:46.000Z</Time>
            <Position>
              <LatitudeDegrees>36.4981150813400745391845703125</LatitudeDegrees>
              <LongitudeDegrees>-5.4040159843862056732177734375</LongitudeDegrees>
            </Position>
            <AltitudeMeters>149</AltitudeMeters>
            <DistanceMeters>7870.9051404493</DistanceMeters>
          </Trackpoint>
          <Trackpoint>
            <Time>2019-01-04T11:09:47.000Z</Time>
            <Position>
              <LatitudeDegrees>36.4981020055711269378662109375</LatitudeDegrees>
              <LongitudeDegrees>-5.40402042679488658905029296875</LongitudeDegrees>
            </Position>
            <AltitudeMeters>148.600006103515625</AltitudeMeters>
            <DistanceMeters>7872.4136427741</DistanceMeters>
          </Trackpoint>
          <Trackpoint>
            <Time>2019-01-04T11:09:48.000Z</Time>
            <Position>
              <LatitudeDegrees>36.49808867834508419036865234375</LatitudeDegrees>
              <LongitudeDegrees>-5.4040247015655040740966796875</LongitudeDegrees>
            </Position>
            <AltitudeMeters>148.1999969482421875</AltitudeMeters>
            <DistanceMeters>7873.9459025025</DistanceMeters>
          </Trackpoint>
          <Trackpoint>
            <Time>2019-01-04T11:09:49.000Z</Time>
            <Position>
              <LatitudeDegrees>36.49807426147162914276123046875</LatitudeDegrees>
              <LongitudeDegrees>-5.4040287248790264129638671875</LongitudeDegrees>
            </Position>
            <AltitudeMeters>147.8000030517578125</AltitudeMeters>
            <DistanceMeters>7875.5918134762</DistanceMeters>
          </Trackpoint>
          <Trackpoint>
            <Time>2019-01-04T11:09:50.000Z</Time>
            <Position>
              <LatitudeDegrees>36.49806202389299869537353515625</LatitudeDegrees>
              <LongitudeDegrees>-5.4040324129164218902587890625</LongitudeDegrees>
            </Position>
            <AltitudeMeters>147.399993896484375</AltitudeMeters>
            <DistanceMeters>7876.9948660998</DistanceMeters>
          </Trackpoint>
          <Trackpoint>
            <Time>2019-01-04T11:09:51.000Z</Time>
            <Position>
              <LatitudeDegrees>36.49805121123790740966796875</LatitudeDegrees>
              <LongitudeDegrees>-5.40404004044830799102783203125</LongitudeDegrees>
            </Position>
            <AltitudeMeters>147</AltitudeMeters>
            <DistanceMeters>7878.3784759459</DistanceMeters>
          </Trackpoint>
          <Trackpoint>
            <Time>2019-01-04T11:09:52.000Z</Time>
            <Position>
              <LatitudeDegrees>36.4980411529541015625</LatitudeDegrees>
              <LongitudeDegrees>-5.4040463268756866455078125</LongitudeDegrees>
            </Position>
            <AltitudeMeters>146.8000030517578125</AltitudeMeters>
            <DistanceMeters>7879.6319643987</DistanceMeters>
          </Trackpoint>
          <Trackpoint>
            <Time>2019-01-04T11:09:53.000Z</Time>
            <Position>
              <LatitudeDegrees>36.49803017266094684600830078125</LatitudeDegrees>
              <LongitudeDegrees>-5.4040521942079067230224609375</LongitudeDegrees>
            </Position>
            <AltitudeMeters>146.600006103515625</AltitudeMeters>
            <DistanceMeters>7880.9623383998</DistanceMeters>
          </Trackpoint>
          <Trackpoint>
            <Time>2019-01-04T11:09:54.000Z</Time>
            <Position>
              <LatitudeDegrees>36.4980181865394115447998046875</LatitudeDegrees>
              <LongitudeDegrees>-5.40405596606433391571044921875</LongitudeDegrees>
            </Position>
            <AltitudeMeters>146.1999969482421875</AltitudeMeters>
            <DistanceMeters>7882.3394063187</DistanceMeters>
          </Trackpoint>
          <Trackpoint>
            <Time>2019-01-04T11:09:55.000Z</Time>
            <Position>
              <LatitudeDegrees>36.49800670333206653594970703125</LatitudeDegrees>
              <LongitudeDegrees>-5.4040645994246006011962890625</LongitudeDegrees>
            </Position>
            <AltitudeMeters>146.1999969482421875</AltitudeMeters>
            <DistanceMeters>7883.8328683643</DistanceMeters>
          </Trackpoint>
          <Trackpoint>
            <Time>2019-01-04T11:09:56.000Z</Time>
            <Position>
              <LatitudeDegrees>36.497998572885990142822265625</LatitudeDegrees>
              <LongitudeDegrees>-5.4040746577084064483642578125</LongitudeDegrees>
            </Position>
            <AltitudeMeters>146</AltitudeMeters>
            <DistanceMeters>7885.1113220539</DistanceMeters>
          </Trackpoint>
          <Trackpoint>
            <Time>2019-01-04T11:09:57.000Z</Time>
            <Position>
              <LatitudeDegrees>36.497988514602184295654296875</LatitudeDegrees>
              <LongitudeDegrees>-5.40408530272543430328369140625</LongitudeDegrees>
            </Position>
            <AltitudeMeters>145.8000030517578125</AltitudeMeters>
            <DistanceMeters>7886.5803994072</DistanceMeters>
          </Trackpoint>
          <Trackpoint>
            <Time>2019-01-04T11:09:58.000Z</Time>
            <Position>
              <LatitudeDegrees>36.4979766122996807098388671875</LatitudeDegrees>
              <LongitudeDegrees>-5.40409234352409839630126953125</LongitudeDegrees>
            </Position>
            <AltitudeMeters>145.600006103515625</AltitudeMeters>
            <DistanceMeters>7888.0464001554</DistanceMeters>
          </Trackpoint>
          <Trackpoint>
            <Time>2019-01-04T11:09:59.000Z</Time>
            <Position>
              <LatitudeDegrees>36.49796412326395511627197265625</LatitudeDegrees>
              <LongitudeDegrees>-5.4040974564850330352783203125</LongitudeDegrees>
            </Position>
            <AltitudeMeters>145.399993896484375</AltitudeMeters>
            <DistanceMeters>7889.5062282414</DistanceMeters>
          </Trackpoint>
          <Trackpoint>
            <Time>2019-01-04T11:10:00.000Z</Time>
            <Position>
              <LatitudeDegrees>36.497952640056610107421875</LatitudeDegrees>
              <LongitudeDegrees>-5.4040998034179210662841796875</LongitudeDegrees>
            </Position>
            <AltitudeMeters>145.1999969482421875</AltitudeMeters>
            <DistanceMeters>7890.8022198381</DistanceMeters>
          </Trackpoint>
          <Trackpoint>
            <Time>2019-01-04T11:10:01.000Z</Time>
            <Position>
              <LatitudeDegrees>36.4979397319257259368896484375</LatitudeDegrees>
              <LongitudeDegrees>-5.40410332381725311279296875</LongitudeDegrees>
            </Position>
            <AltitudeMeters>145</AltitudeMeters>
            <DistanceMeters>7892.2743673669</DistanceMeters>
          </Trackpoint>
          <Trackpoint>
            <Time>2019-01-04T11:10:02.000Z</Time>
            <Position>
              <LatitudeDegrees>36.4979298412799835205078125</LatitudeDegrees>
              <LongitudeDegrees>-5.404107011854648590087890625</LongitudeDegrees>
            </Position>
            <AltitudeMeters>144.600006103515625</AltitudeMeters>
            <DistanceMeters>7893.4225795253</DistanceMeters>
          </Trackpoint>
          <Trackpoint>
            <Time>2019-01-04T11:10:03.000Z</Time>
            <Position>
              <LatitudeDegrees>36.49791634641587734222412109375</LatitudeDegrees>
              <LongitudeDegrees>-5.40411480702459812164306640625</LongitudeDegrees>
            </Position>
            <AltitudeMeters>144.1999969482421875</AltitudeMeters>
            <DistanceMeters>7895.0794269048</DistanceMeters>
          </Trackpoint>
          <Trackpoint>
            <Time>2019-01-04T11:10:04.000Z</Time>
            <Position>
              <LatitudeDegrees>36.49790662340819835662841796875</LatitudeDegrees>
              <LongitudeDegrees>-5.404122769832611083984375</LongitudeDegrees>
            </Position>
            <AltitudeMeters>143.8000030517578125</AltitudeMeters>
            <DistanceMeters>7896.3754185015</DistanceMeters>
          </Trackpoint>
          <Trackpoint>
            <Time>2019-01-04T11:10:05.000Z</Time>
            <Position>
              <LatitudeDegrees>36.49789304472506046295166015625</LatitudeDegrees>
              <LongitudeDegrees>-5.40412352420389652252197265625</LongitudeDegrees>
            </Position>
            <AltitudeMeters>143.399993896484375</AltitudeMeters>
            <DistanceMeters>7897.8898951163</DistanceMeters>
          </Trackpoint>
          <Trackpoint>
            <Time>2019-01-04T11:10:06.000Z</Time>
            <Position>
              <LatitudeDegrees>36.4978802204132080078125</LatitudeDegrees>
              <LongitudeDegrees>-5.40412603877484798431396484375</LongitudeDegrees>
            </Position>
            <AltitudeMeters>143.1999969482421875</AltitudeMeters>
            <DistanceMeters>7899.3341761342</DistanceMeters>
          </Trackpoint>
          <Trackpoint>
            <Time>2019-01-04T11:10:07.000Z</Time>
            <Position>
              <LatitudeDegrees>36.49786588735878467559814453125</LatitudeDegrees>
              <LongitudeDegrees>-5.4041299782693386077880859375</LongitudeDegrees>
            </Position>
            <AltitudeMeters>143.1999969482421875</AltitudeMeters>
            <DistanceMeters>7900.9690775463</DistanceMeters>
          </Trackpoint>
          <Trackpoint>
            <Time>2019-01-04T11:10:08.000Z</Time>
            <Position>
              <LatitudeDegrees>36.497850380837917327880859375</LatitudeDegrees>
              <LongitudeDegrees>-5.4041321575641632080078125</LongitudeDegrees>
            </Position>
            <AltitudeMeters>143</AltitudeMeters>
            <DistanceMeters>7902.7083519952</DistanceMeters>
          </Trackpoint>
          <Trackpoint>
            <Time>2019-01-04T11:10:09.000Z</Time>
            <Position>
              <LatitudeDegrees>36.4978347904980182647705078125</LatitudeDegrees>
              <LongitudeDegrees>-5.4041360132396221160888671875</LongitudeDegrees>
            </Position>
            <AltitudeMeters>142.8000030517578125</AltitudeMeters>
            <DistanceMeters>7904.4759510588</DistanceMeters>
          </Trackpoint>
          <Trackpoint>
            <Time>2019-01-04T11:10:10.000Z</Time>
            <Position>
              <LatitudeDegrees>36.4978183619678020477294921875</LatitudeDegrees>
              <LongitudeDegrees>-5.40413894690573215484619140625</LongitudeDegrees>
            </Position>
            <AltitudeMeters>142.600006103515625</AltitudeMeters>
            <DistanceMeters>7906.3234815446</DistanceMeters>
          </Trackpoint>
          <Trackpoint>
            <Time>2019-01-04T11:10:11.000Z</Time>
            <Position>
              <LatitudeDegrees>36.4978059567511081695556640625</LatitudeDegrees>
              <LongitudeDegrees>-5.4041450656950473785400390625</LongitudeDegrees>
            </Position>
            <AltitudeMeters>142.399993896484375</AltitudeMeters>
            <DistanceMeters>7907.8078462748</DistanceMeters>
          </Trackpoint>
          <Trackpoint>
            <Time>2019-01-04T11:10:12.000Z</Time>
            <Position>
              <LatitudeDegrees>36.497797071933746337890625</LatitudeDegrees>
              <LongitudeDegrees>-5.4041554592549800872802734375</LongitudeDegrees>
            </Position>
            <AltitudeMeters>142.1999969482421875</AltitudeMeters>
            <DistanceMeters>7909.1650992337</DistanceMeters>
          </Trackpoint>
          <Trackpoint>
            <Time>2019-01-04T11:10:13.000Z</Time>
            <Position>
              <LatitudeDegrees>36.497792042791843414306640625</LatitudeDegrees>
              <LongitudeDegrees>-5.404166691005229949951171875</LongitudeDegrees>
            </Position>
            <AltitudeMeters>142</AltitudeMeters>
            <DistanceMeters>7910.3133113922</DistanceMeters>
          </Trackpoint>
          <Trackpoint>
            <Time>2019-01-04T11:10:14.000Z</Time>
            <Position>
              <LatitudeDegrees>36.4977876842021942138671875</LatitudeDegrees>
              <LongitudeDegrees>-5.4041777551174163818359375</LongitudeDegrees>
            </Position>
            <AltitudeMeters>142</AltitudeMeters>
            <DistanceMeters>7911.4174220388</DistanceMeters>
          </Trackpoint>
          <Trackpoint>
            <Time>2019-01-04T11:10:15.000Z</Time>
            <Position>
              <LatitudeDegrees>36.497787348926067352294921875</LatitudeDegrees>
              <LongitudeDegrees>-5.4041899926960468292236328125</LongitudeDegrees>
            </Position>
            <AltitudeMeters>142</AltitudeMeters>
            <DistanceMeters>7912.5091958664</DistanceMeters>
          </Trackpoint>
          <Trackpoint>
            <Time>2019-01-04T11:10:16.000Z</Time>
            <Position>
              <LatitudeDegrees>36.4977915398776531219482421875</LatitudeDegrees>
              <LongitudeDegrees>-5.4042070917785167694091796875</LongitudeDegrees>
            </Position>
            <AltitudeMeters>142</AltitudeMeters>
            <DistanceMeters>7914.1106145219</DistanceMeters>
          </Trackpoint>
          <Trackpoint>
            <Time>2019-01-04T11:10:17.000Z</Time>
            <Position>
              <LatitudeDegrees>36.49779682047665119171142578125</LatitudeDegrees>
              <LongitudeDegrees>-5.4042221792042255401611328125</LongitudeDegrees>
            </Position>
            <AltitudeMeters>141.8000030517578125</AltitudeMeters>
            <DistanceMeters>7915.5827620506</DistanceMeters>
          </Trackpoint>
          <Trackpoint>
            <Time>2019-01-04T11:10:18.000Z</Time>
            <Position>
              <LatitudeDegrees>36.49780176579952239990234375</LatitudeDegrees>
              <LongitudeDegrees>-5.40423550643026828765869140625</LongitudeDegrees>
            </Position>
            <AltitudeMeters>141.8000030517578125</AltitudeMeters>
            <DistanceMeters>7916.8994908296</DistanceMeters>
          </Trackpoint>
          <Trackpoint>
            <Time>2019-01-04T11:10:19.000Z</Time>
            <Position>
              <LatitudeDegrees>36.49780369363725185394287109375</LatitudeDegrees>
              <LongitudeDegrees>-5.40425428189337253570556640625</LongitudeDegrees>
            </Position>
            <AltitudeMeters>142</AltitudeMeters>
            <DistanceMeters>7918.5940598925</DistanceMeters>
          </Trackpoint>
          <Trackpoint>
            <Time>2019-01-04T11:10:20.000Z</Time>
            <Position>
              <LatitudeDegrees>36.49780821986496448516845703125</LatitudeDegrees>
              <LongitudeDegrees>-5.4042694531381130218505859375</LongitudeDegrees>
            </Position>
            <AltitudeMeters>142</AltitudeMeters>
            <DistanceMeters>7920.0414636838</DistanceMeters>
          </Trackpoint>
          <Trackpoint>
            <Time>2019-01-04T11:10:21.000Z</Time>
            <Position>
              <LatitudeDegrees>36.497814841568470001220703125</LatitudeDegrees>
              <LongitudeDegrees>-5.40428638458251953125</LongitudeDegrees>
            </Position>
            <AltitudeMeters>142</AltitudeMeters>
            <DistanceMeters>7921.7253413526</DistanceMeters>
          </Trackpoint>
          <Trackpoint>
            <Time>2019-01-04T11:10:22.000Z</Time>
            <Position>
              <LatitudeDegrees>36.49782246910035610198974609375</LatitudeDegrees>
              <LongitudeDegrees>-5.40429937653243541717529296875</LongitudeDegrees>
            </Position>
            <AltitudeMeters>142</AltitudeMeters>
            <DistanceMeters>7923.1664928304</DistanceMeters>
          </Trackpoint>
          <Trackpoint>
            <Time>2019-01-04T11:10:23.000Z</Time>
            <Position>
              <LatitudeDegrees>36.497826911509037017822265625</LatitudeDegrees>
              <LongitudeDegrees>-5.4043116979300975799560546875</LongitudeDegrees>
            </Position>
            <AltitudeMeters>142.1999969482421875</AltitudeMeters>
            <DistanceMeters>7924.3722466641</DistanceMeters>
          </Trackpoint>
          <Trackpoint>
            <Time>2019-01-04T11:10:24.000Z</Time>
            <Position>
              <LatitudeDegrees>36.497832275927066802978515625</LatitudeDegrees>
              <LongitudeDegrees>-5.40432460606098175048828125</LongitudeDegrees>
            </Position>
            <AltitudeMeters>142.1999969482421875</AltitudeMeters>
            <DistanceMeters>7925.6751873272</DistanceMeters>
          </Trackpoint>
          <Trackpoint>
            <Time>2019-01-04T11:10:25.000Z</Time>
            <Position>
              <LatitudeDegrees>36.4978381432592868804931640625</LatitudeDegrees>
              <LongitudeDegrees>-5.404336340725421905517578125</LongitudeDegrees>
            </Position>
            <AltitudeMeters>141.8000030517578125</AltitudeMeters>
            <DistanceMeters>7926.914184097</DistanceMeters>
          </Trackpoint>
          <Trackpoint>
            <Time>2019-01-04T11:10:26.000Z</Time>
            <Position>
              <LatitudeDegrees>36.49783973582088947296142578125</LatitudeDegrees>
              <LongitudeDegrees>-5.40434874594211578369140625</LongitudeDegrees>
            </Position>
            <AltitudeMeters>141.399993896484375</AltitudeMeters>
            <DistanceMeters>7928.0385553444</DistanceMeters>
          </Trackpoint>
          <Trackpoint>
            <Time>2019-01-04T11:10:27.000Z</Time>
            <Position>
              <LatitudeDegrees>36.4978398196399211883544921875</LatitudeDegrees>
              <LongitudeDegrees>-5.4043614864349365234375</LongitudeDegrees>
            </Position>
            <AltitudeMeters>140.8000030517578125</AltitudeMeters>
            <DistanceMeters>7929.1788759169</DistanceMeters>
          </Trackpoint>
          <Trackpoint>
            <Time>2019-01-04T11:10:28.000Z</Time>
            <Position>
              <LatitudeDegrees>36.49784023873507976531982421875</LatitudeDegrees>
              <LongitudeDegrees>-5.404372550547122955322265625</LongitudeDegrees>
            </Position>
            <AltitudeMeters>140.1999969482421875</AltitudeMeters>
            <DistanceMeters>7930.1755245053</DistanceMeters>
          </Trackpoint>
          <Trackpoint>
            <Time>2019-01-04T11:10:29.000Z</Time>
            <Position>
              <LatitudeDegrees>36.49783722124993801116943359375</LatitudeDegrees>
              <LongitudeDegrees>-5.40438353084027767181396484375</LongitudeDegrees>
            </Position>
            <AltitudeMeters>139.8000030517578125</AltitudeMeters>
            <DistanceMeters>7931.2164900058</DistanceMeters>
          </Trackpoint>
          <Trackpoint>
            <Time>2019-01-04T11:10:30.000Z</Time>
            <Position>
              <LatitudeDegrees>36.49783068336546421051025390625</LatitudeDegrees>
              <LongitudeDegrees>-5.404397360980510711669921875</LongitudeDegrees>
            </Position>
            <AltitudeMeters>139.399993896484375</AltitudeMeters>
            <DistanceMeters>7932.6513619267</DistanceMeters>
          </Trackpoint>
          <Trackpoint>
            <Time>2019-01-04T11:10:31.000Z</Time>
            <Position>
              <LatitudeDegrees>36.4978233911097049713134765625</LatitudeDegrees>
              <LongitudeDegrees>-5.4044116102159023284912109375</LongitudeDegrees>
            </Position>
            <AltitudeMeters>139.1999969482421875</AltitudeMeters>
            <DistanceMeters>7934.1658385415</DistanceMeters>
          </Trackpoint>
          <Trackpoint>
            <Time>2019-01-04T11:10:32.000Z</Time>
            <Position>
              <LatitudeDegrees>36.49781676940619945526123046875</LatitudeDegrees>
              <LongitudeDegrees>-5.40442544035613536834716796875</LongitudeDegrees>
            </Position>
            <AltitudeMeters>139.399993896484375</AltitudeMeters>
            <DistanceMeters>7935.6069900193</DistanceMeters>
          </Trackpoint>
          <Trackpoint>
            <Time>2019-01-04T11:10:33.000Z</Time>
            <Position>
              <LatitudeDegrees>36.497807800769805908203125</LatitudeDegrees>
              <LongitudeDegrees>-5.404436923563480377197265625</LongitudeDegrees>
            </Position>
            <AltitudeMeters>139.399993896484375</AltitudeMeters>
            <DistanceMeters>7937.0418619402</DistanceMeters>
          </Trackpoint>
          <Trackpoint>
            <Time>2019-01-04T11:10:34.000Z</Time>
            <Position>
              <LatitudeDegrees>36.4977989159524440765380859375</LatitudeDegrees>
              <LongitudeDegrees>-5.4044468142092227935791015625</LongitudeDegrees>
            </Position>
            <AltitudeMeters>139.399993896484375</AltitudeMeters>
            <DistanceMeters>7938.3688377902</DistanceMeters>
          </Trackpoint>
          <Trackpoint>
            <Time>2019-01-04T11:10:35.000Z</Time>
            <Position>
              <LatitudeDegrees>36.49779179133474826812744140625</LatitudeDegrees>
              <LongitudeDegrees>-5.40445494465529918670654296875</LongitudeDegrees>
            </Position>
            <AltitudeMeters>139.399993896484375</AltitudeMeters>
            <DistanceMeters>7939.4439423362</DistanceMeters>
          </Trackpoint>
          <Trackpoint>
            <Time>2019-01-04T11:10:36.000Z</Time>
            <Position>
              <LatitudeDegrees>36.49778525345027446746826171875</LatitudeDegrees>
              <LongitudeDegrees>-5.40446114726364612579345703125</LongitudeDegrees>
            </Position>
            <AltitudeMeters>139.399993896484375</AltitudeMeters>
            <DistanceMeters>7940.3652605145</DistanceMeters>
          </Trackpoint>
          <Trackpoint>
            <Time>2019-01-04T11:10:37.000Z</Time>
            <Position>
              <LatitudeDegrees>36.4977761171758174896240234375</LatitudeDegrees>
              <LongitudeDegrees>-5.40446248836815357208251953125</LongitudeDegrees>
            </Position>
            <AltitudeMeters>139.1999969482421875</AltitudeMeters>
            <DistanceMeters>7941.3887295505</DistanceMeters>
          </Trackpoint>
          <Trackpoint>
            <Time>2019-01-04T11:10:38.000Z</Time>
            <Position>
              <LatitudeDegrees>36.49776882492005825042724609375</LatitudeDegrees>
              <LongitudeDegrees>-5.4044669307768344879150390625</LongitudeDegrees>
            </Position>
            <AltitudeMeters>138.8000030517578125</AltitudeMeters>
            <DistanceMeters>7942.2902321184</DistanceMeters>
          </Trackpoint>
          <Trackpoint>
            <Time>2019-01-04T11:10:39.000Z</Time>
            <Position>
              <LatitudeDegrees>36.497761867940425872802734375</LatitudeDegrees>
              <LongitudeDegrees>-5.40447036735713481903076171875</LongitudeDegrees>
            </Position>
            <AltitudeMeters>138.1999969482421875</AltitudeMeters>
            <DistanceMeters>7943.1294853356</DistanceMeters>
          </Trackpoint>
          <Trackpoint>
            <Time>2019-01-04T11:10:40.000Z</Time>
            <Position>
              <LatitudeDegrees>36.4977546595036983489990234375</LatitudeDegrees>
              <LongitudeDegrees>-5.404473803937435150146484375</LongitudeDegrees>
            </Position>
            <AltitudeMeters>137.8000030517578125</AltitudeMeters>
            <DistanceMeters>7943.9899888326</DistanceMeters>
          </Trackpoint>
          <Trackpoint>
            <Time>2019-01-04T11:10:41.000Z</Time>
            <Position>
              <LatitudeDegrees>36.4977419190108776092529296875</LatitudeDegrees>
              <LongitudeDegrees>-5.4044733010232448577880859375</LongitudeDegrees>
            </Position>
            <AltitudeMeters>137.1999969482421875</AltitudeMeters>
            <DistanceMeters>7945.4058549882</DistanceMeters>
          </Trackpoint>
          <Trackpoint>
            <Time>2019-01-04T11:10:42.000Z</Time>
            <Position>
              <LatitudeDegrees>36.49773077107965946197509765625</LatitudeDegrees>
              <LongitudeDegrees>-5.4044726304709911346435546875</LongitudeDegrees>
            </Position>
            <AltitudeMeters>136.8000030517578125</AltitudeMeters>
            <DistanceMeters>7946.6521186635</DistanceMeters>
          </Trackpoint>
          <Trackpoint>
            <Time>2019-01-04T11:10:43.000Z</Time>
            <Position>
              <LatitudeDegrees>36.49771970696747303009033203125</LatitudeDegrees>
              <LongitudeDegrees>-5.40446969680488109588623046875</LongitudeDegrees>
            </Position>
            <AltitudeMeters>136.600006103515625</AltitudeMeters>
            <DistanceMeters>7947.91279049</DistanceMeters>
          </Trackpoint>
          <Trackpoint>
            <Time>2019-01-04T11:10:44.000Z</Time>
            <Position>
              <LatitudeDegrees>36.497707553207874298095703125</LatitudeDegrees>
              <LongitudeDegrees>-5.40446600876748561859130859375</LongitudeDegrees>
            </Position>
            <AltitudeMeters>136.399993896484375</AltitudeMeters>
            <DistanceMeters>7949.306155638</DistanceMeters>
          </Trackpoint>
          <Trackpoint>
            <Time>2019-01-04T11:10:45.000Z</Time>
            <Position>
              <LatitudeDegrees>36.49769447743892669677734375</LatitudeDegrees>
              <LongitudeDegrees>-5.404458381235599517822265625</LongitudeDegrees>
            </Position>
            <AltitudeMeters>136.1999969482421875</AltitudeMeters>
            <DistanceMeters>7950.9132031988</DistanceMeters>
          </Trackpoint>
          <Trackpoint>
            <Time>2019-01-04T11:10:46.000Z</Time>
            <Position>
              <LatitudeDegrees>36.497679390013217926025390625</LatitudeDegrees>
              <LongitudeDegrees>-5.4044501669704914093017578125</LongitudeDegrees>
            </Position>
            <AltitudeMeters>136</AltitudeMeters>
            <DistanceMeters>7952.7460120915</DistanceMeters>
          </Trackpoint>
          <Trackpoint>
            <Time>2019-01-04T11:10:47.000Z</Time>
            <Position>
              <LatitudeDegrees>36.49766572751104831695556640625</LatitudeDegrees>
              <LongitudeDegrees>-5.4044468142092227935791015625</LongitudeDegrees>
            </Position>
            <AltitudeMeters>135.8000030517578125</AltitudeMeters>
            <DistanceMeters>7954.2958509006</DistanceMeters>
          </Trackpoint>
          <Trackpoint>
            <Time>2019-01-04T11:10:48.000Z</Time>
            <Position>
              <LatitudeDegrees>36.4976527355611324310302734375</LatitudeDegrees>
              <LongitudeDegrees>-5.40443851612508296966552734375</LongitudeDegrees>
            </Position>
            <AltitudeMeters>135.600006103515625</AltitudeMeters>
            <DistanceMeters>7955.9196681076</DistanceMeters>
          </Trackpoint>
          <Trackpoint>
            <Time>2019-01-04T11:10:49.000Z</Time>
            <Position>
              <LatitudeDegrees>36.49763773195445537567138671875</LatitudeDegrees>
              <LongitudeDegrees>-5.4044317267835140228271484375</LongitudeDegrees>
            </Position>
            <AltitudeMeters>135.399993896484375</AltitudeMeters>
            <DistanceMeters>7957.6974551464</DistanceMeters>
          </Trackpoint>
          <Trackpoint>
            <Time>2019-01-04T11:10:50.000Z</Time>
            <Position>
              <LatitudeDegrees>36.497623063623905181884765625</LatitudeDegrees>
              <LongitudeDegrees>-5.404428541660308837890625</LongitudeDegrees>
            </Position>
            <AltitudeMeters>135.1999969482421875</AltitudeMeters>
            <DistanceMeters>7959.3543025259</DistanceMeters>
          </Trackpoint>
          <Trackpoint>
            <Time>2019-01-04T11:10:51.000Z</Time>
            <Position>
              <LatitudeDegrees>36.49760998785495758056640625</LatitudeDegrees>
              <LongitudeDegrees>-5.40442711673676967620849609375</LongitudeDegrees>
            </Position>
            <AltitudeMeters>135</AltitudeMeters>
            <DistanceMeters>7960.8141306119</DistanceMeters>
          </Trackpoint>
          <Trackpoint>
            <Time>2019-01-04T11:10:52.000Z</Time>
            <Position>
              <LatitudeDegrees>36.4975977502763271331787109375</LatitudeDegrees>
              <LongitudeDegrees>-5.4044283740222454071044921875</LongitudeDegrees>
            </Position>
            <AltitudeMeters>135</AltitudeMeters>
            <DistanceMeters>7962.1780205442</DistanceMeters>
          </Trackpoint>
          <Trackpoint>
            <Time>2019-01-04T11:10:53.000Z</Time>
            <Position>
              <LatitudeDegrees>36.4975892007350921630859375</LatitudeDegrees>
              <LongitudeDegrees>-5.4044298827648162841796875</LongitudeDegrees>
            </Position>
            <AltitudeMeters>134.8000030517578125</AltitudeMeters>
            <DistanceMeters>7963.1377433153</DistanceMeters>
          </Trackpoint>
          <Trackpoint>
            <Time>2019-01-04T11:10:54.000Z</Time>
            <Position>
              <LatitudeDegrees>36.49758090265095233917236328125</LatitudeDegrees>
              <LongitudeDegrees>-5.40443566627800464630126953125</LongitudeDegrees>
            </Position>
            <AltitudeMeters>134.600006103515625</AltitudeMeters>
            <DistanceMeters>7964.1959160229</DistanceMeters>
          </Trackpoint>
          <Trackpoint>
            <Time>2019-01-04T11:10:55.000Z</Time>
            <Position>
              <LatitudeDegrees>36.4975695870816707611083984375</LatitudeDegrees>
              <LongitudeDegrees>-5.4044374264776706695556640625</LongitudeDegrees>
            </Position>
            <AltitudeMeters>134.399993896484375</AltitudeMeters>
            <DistanceMeters>7965.4637305231</DistanceMeters>
          </Trackpoint>
          <Trackpoint>
            <Time>2019-01-04T11:10:56.000Z</Time>
            <Position>
              <LatitudeDegrees>36.4975555054843425750732421875</LatitudeDegrees>
              <LongitudeDegrees>-5.40443994104862213134765625</LongitudeDegrees>
            </Position>
            <AltitudeMeters>133.8000030517578125</AltitudeMeters>
            <DistanceMeters>7967.0481424807</DistanceMeters>
          </Trackpoint>
          <Trackpoint>
            <Time>2019-01-04T11:10:57.000Z</Time>
            <Position>
              <LatitudeDegrees>36.49754134006798267364501953125</LatitudeDegrees>
              <LongitudeDegrees>-5.40444404818117618560791015625</LongitudeDegrees>
            </Position>
            <AltitudeMeters>133.399993896484375</AltitudeMeters>
            <DistanceMeters>7968.6663891148</DistanceMeters>
          </Trackpoint>
          <Trackpoint>
            <Time>2019-01-04T11:10:58.000Z</Time>
            <Position>
              <LatitudeDegrees>36.4975266717374324798583984375</LatitudeDegrees>
              <LongitudeDegrees>-5.40444555692374706268310546875</LongitudeDegrees>
            </Position>
            <AltitudeMeters>133</AltitudeMeters>
            <DistanceMeters>7970.306804544</DistanceMeters>
          </Trackpoint>
          <Trackpoint>
            <Time>2019-01-04T11:10:59.000Z</Time>
            <Position>
              <LatitudeDegrees>36.49751451797783374786376953125</LatitudeDegrees>
              <LongitudeDegrees>-5.40445201098918914794921875</LongitudeDegrees>
            </Position>
            <AltitudeMeters>132.600006103515625</AltitudeMeters>
            <DistanceMeters>7971.7820158587</DistanceMeters>
          </Trackpoint>
          <Trackpoint>
            <Time>2019-01-04T11:11:00.000Z</Time>
            <Position>
              <LatitudeDegrees>36.4975032024085521697998046875</LatitudeDegrees>
              <LongitudeDegrees>-5.4044595547020435333251953125</LongitudeDegrees>
            </Position>
            <AltitudeMeters>132.399993896484375</AltitudeMeters>
            <DistanceMeters>7973.2105806197</DistanceMeters>
          </Trackpoint>
          <Trackpoint>
            <Time>2019-01-04T11:11:01.000Z</Time>
            <Position>
              <LatitudeDegrees>36.49749473668634891510009765625</LatitudeDegrees>
              <LongitudeDegrees>-5.40446818806231021881103515625</LongitudeDegrees>
            </Position>
            <AltitudeMeters>132</AltitudeMeters>
            <DistanceMeters>7974.4275163356</DistanceMeters>
          </Trackpoint>
          <Trackpoint>
            <Time>2019-01-04T11:11:02.000Z</Time>
            <Position>
              <LatitudeDegrees>36.497487612068653106689453125</LatitudeDegrees>
              <LongitudeDegrees>-5.40447489358484745025634765625</LongitudeDegrees>
            </Position>
            <AltitudeMeters>131.600006103515625</AltitudeMeters>
            <DistanceMeters>7975.4241649241</DistanceMeters>
          </Trackpoint>
          <Trackpoint>
            <Time>2019-01-04T11:11:03.000Z</Time>
            <Position>
              <LatitudeDegrees>36.4974807389080524444580078125</LatitudeDegrees>
              <LongitudeDegrees>-5.4044790007174015045166015625</LongitudeDegrees>
            </Position>
            <AltitudeMeters>131</AltitudeMeters>
            <DistanceMeters>7976.2741096961</DistanceMeters>
          </Trackpoint>
          <Trackpoint>
            <Time>2019-01-04T11:11:04.000Z</Time>
            <Position>
              <LatitudeDegrees>36.49746908806264400482177734375</LatitudeDegrees>
              <LongitudeDegrees>-5.4044816829264163970947265625</LongitudeDegrees>
            </Position>
            <AltitudeMeters>130.600006103515625</AltitudeMeters>
            <DistanceMeters>7977.590838475</DistanceMeters>
          </Trackpoint>
          <Trackpoint>
            <Time>2019-01-04T11:11:05.000Z</Time>
            <Position>
              <LatitudeDegrees>36.49745467118918895721435546875</LatitudeDegrees>
              <LongitudeDegrees>-5.40448210202157497406005859375</LongitudeDegrees>
            </Position>
            <AltitudeMeters>130.1999969482421875</AltitudeMeters>
            <DistanceMeters>7979.1922571305</DistanceMeters>
          </Trackpoint>
          <Trackpoint>
            <Time>2019-01-04T11:11:06.000Z</Time>
            <Position>
              <LatitudeDegrees>36.497440673410892486572265625</LatitudeDegrees>
              <LongitudeDegrees>-5.40448629297316074371337890625</LongitudeDegrees>
            </Position>
            <AltitudeMeters>130</AltitudeMeters>
            <DistanceMeters>7980.793675786</DistanceMeters>
          </Trackpoint>
          <Trackpoint>
            <Time>2019-01-04T11:11:07.000Z</Time>
            <Position>
              <LatitudeDegrees>36.49742751382291316986083984375</LatitudeDegrees>
              <LongitudeDegrees>-5.40448863990604877471923828125</LongitudeDegrees>
            </Position>
            <AltitudeMeters>129.8000030517578125</AltitudeMeters>
            <DistanceMeters>7982.2719445367</DistanceMeters>
          </Trackpoint>
          <Trackpoint>
            <Time>2019-01-04T11:11:08.000Z</Time>
            <Position>
              <LatitudeDegrees>36.4974167011678218841552734375</LatitudeDegrees>
              <LongitudeDegrees>-5.40449685417115688323974609375</LongitudeDegrees>
            </Position>
            <AltitudeMeters>129.399993896484375</AltitudeMeters>
            <DistanceMeters>7983.6814184874</DistanceMeters>
          </Trackpoint>
          <Trackpoint>
            <Time>2019-01-04T11:11:09.000Z</Time>
            <Position>
              <LatitudeDegrees>36.49740639142692089080810546875</LatitudeDegrees>
              <LongitudeDegrees>-5.40450255386531352996826171875</LongitudeDegrees>
            </Position>
            <AltitudeMeters>129</AltitudeMeters>
            <DistanceMeters>7984.9349069402</DistanceMeters>
          </Trackpoint>
          <Trackpoint>
            <Time>2019-01-04T11:11:10.000Z</Time>
            <Position>
              <LatitudeDegrees>36.497397758066654205322265625</LatitudeDegrees>
              <LongitudeDegrees>-5.404509007930755615234375</LongitudeDegrees>
            </Position>
            <AltitudeMeters>128.600006103515625</AltitudeMeters>
            <DistanceMeters>7986.0592781877</DistanceMeters>
          </Trackpoint>
          <Trackpoint>
            <Time>2019-01-04T11:11:11.000Z</Time>
            <Position>
              <LatitudeDegrees>36.49738895706832408905029296875</LatitudeDegrees>
              <LongitudeDegrees>-5.404515378177165985107421875</LongitudeDegrees>
            </Position>
            <AltitudeMeters>128.399993896484375</AltitudeMeters>
            <DistanceMeters>7987.1916521785</DistanceMeters>
          </Trackpoint>
          <Trackpoint>
            <Time>2019-01-04T11:11:12.000Z</Time>
            <Position>
              <LatitudeDegrees>36.49738007225096225738525390625</LatitudeDegrees>
              <LongitudeDegrees>-5.40452384389936923980712890625</LongitudeDegrees>
            </Position>
            <AltitudeMeters>128.399993896484375</AltitudeMeters>
            <DistanceMeters>7988.4379158538</DistanceMeters>
          </Trackpoint>
          <Trackpoint>
            <Time>2019-01-04T11:11:13.000Z</Time>
            <Position>
              <LatitudeDegrees>36.49737135507166385650634765625</LatitudeDegrees>
              <LongitudeDegrees>-5.4045343212783336639404296875</LongitudeDegrees>
            </Position>
            <AltitudeMeters>128.1999969482421875</AltitudeMeters>
            <DistanceMeters>7989.7884992246</DistanceMeters>
          </Trackpoint>
          <Trackpoint>
            <Time>2019-01-04T11:11:14.000Z</Time>
            <Position>
              <LatitudeDegrees>36.4973613806068897247314453125</LatitudeDegrees>
              <LongitudeDegrees>-5.4045440442860126495361328125</LongitudeDegrees>
            </Position>
            <AltitudeMeters>128</AltitudeMeters>
            <DistanceMeters>7991.2011728933</DistanceMeters>
          </Trackpoint>
          <Trackpoint>
            <Time>2019-01-04T11:11:15.000Z</Time>
            <Position>
              <LatitudeDegrees>36.49735257960855960845947265625</LatitudeDegrees>
              <LongitudeDegrees>-5.40455259382724761962890625</LongitudeDegrees>
            </Position>
            <AltitudeMeters>128</AltitudeMeters>
            <DistanceMeters>7992.4474365686</DistanceMeters>
          </Trackpoint>
          <Trackpoint>
            <Time>2019-01-04T11:11:16.000Z</Time>
            <Position>
              <LatitudeDegrees>36.4973409287631511688232421875</LatitudeDegrees>
              <LongitudeDegrees>-5.40456072427332401275634765625</LongitudeDegrees>
            </Position>
            <AltitudeMeters>127.8000030517578125</AltitudeMeters>
            <DistanceMeters>7993.9348399197</DistanceMeters>
          </Trackpoint>
          <Trackpoint>
            <Time>2019-01-04T11:11:17.000Z</Time>
            <Position>
              <LatitudeDegrees>36.4973290264606475830078125</LatitudeDegrees>
              <LongitudeDegrees>-5.40457111783325672149658203125</LongitudeDegrees>
            </Position>
            <AltitudeMeters>127.8000030517578125</AltitudeMeters>
            <DistanceMeters>7995.5530865537</DistanceMeters>
          </Trackpoint>
          <Trackpoint>
            <Time>2019-01-04T11:11:18.000Z</Time>
            <Position>
              <LatitudeDegrees>36.497317291796207427978515625</LatitudeDegrees>
              <LongitudeDegrees>-5.404580421745777130126953125</LongitudeDegrees>
            </Position>
            <AltitudeMeters>127.59999847412109375</AltitudeMeters>
            <DistanceMeters>7997.1029253628</DistanceMeters>
          </Trackpoint>
          <Trackpoint>
            <Time>2019-01-04T11:11:19.000Z</Time>
            <Position>
              <LatitudeDegrees>36.49730614386498928070068359375</LatitudeDegrees>
              <LongitudeDegrees>-5.4045923240482807159423828125</LongitudeDegrees>
            </Position>
            <AltitudeMeters>127.59999847412109375</AltitudeMeters>
            <DistanceMeters>7998.7378267749</DistanceMeters>
          </Trackpoint>
          <Trackpoint>
            <Time>2019-01-04T11:11:20.000Z</Time>
            <Position>
              <LatitudeDegrees>36.4972973428666591644287109375</LatitudeDegrees>
              <LongitudeDegrees>-5.4046064056456089019775390625</LongitudeDegrees>
            </Position>
            <AltitudeMeters>127.1999969482421875</AltitudeMeters>
            <DistanceMeters>8000.3335966698</DistanceMeters>
          </Trackpoint>
          <Trackpoint>
            <Time>2019-01-04T11:11:21.000Z</Time>
            <Position>
              <LatitudeDegrees>36.4972913078963756561279296875</LatitudeDegrees>
              <LongitudeDegrees>-5.40462375618517398834228515625</LongitudeDegrees>
            </Position>
            <AltitudeMeters>127</AltitudeMeters>
            <DistanceMeters>8002.0281657327</DistanceMeters>
          </Trackpoint>
          <Trackpoint>
            <Time>2019-01-04T11:11:22.000Z</Time>
            <Position>
              <LatitudeDegrees>36.4972862787544727325439453125</LatitudeDegrees>
              <LongitudeDegrees>-5.404640771448612213134765625</LongitudeDegrees>
            </Position>
            <AltitudeMeters>126.40000152587890625</AltitudeMeters>
            <DistanceMeters>8003.6519829397</DistanceMeters>
          </Trackpoint>
          <Trackpoint>
            <Time>2019-01-04T11:11:23.000Z</Time>
            <Position>
              <LatitudeDegrees>36.49727680720388889312744140625</LatitudeDegrees>
              <LongitudeDegrees>-5.40465845726430416107177734375</LongitudeDegrees>
            </Position>
            <AltitudeMeters>126</AltitudeMeters>
            <DistanceMeters>8005.5525172271</DistanceMeters>
          </Trackpoint>
          <Trackpoint>
            <Time>2019-01-04T11:11:24.000Z</Time>
            <Position>
              <LatitudeDegrees>36.49726406671106815338134765625</LatitudeDegrees>
              <LongitudeDegrees>-5.404672957956790924072265625</LongitudeDegrees>
            </Position>
            <AltitudeMeters>125.59999847412109375</AltitudeMeters>
            <DistanceMeters>8007.4719627692</DistanceMeters>
          </Trackpoint>
          <Trackpoint>
            <Time>2019-01-04T11:11:25.000Z</Time>
            <Position>
              <LatitudeDegrees>36.4972534216940402984619140625</LatitudeDegrees>
              <LongitudeDegrees>-5.40468268096446990966796875</LongitudeDegrees>
            </Position>
            <AltitudeMeters>125.40000152587890625</AltitudeMeters>
            <DistanceMeters>8008.9379635174</DistanceMeters>
          </Trackpoint>
          <Trackpoint>
            <Time>2019-01-04T11:11:26.000Z</Time>
            <Position>
              <LatitudeDegrees>36.497243531048297882080078125</LatitudeDegrees>
              <LongitudeDegrees>-5.40469248779118061065673828125</LongitudeDegrees>
            </Position>
            <AltitudeMeters>125.1999969482421875</AltitudeMeters>
            <DistanceMeters>8010.3442304697</DistanceMeters>
          </Trackpoint>
          <Trackpoint>
            <Time>2019-01-04T11:11:27.000Z</Time>
            <Position>
              <LatitudeDegrees>36.4972312934696674346923828125</LatitudeDegrees>
              <LongitudeDegrees>-5.40469952858984470367431640625</LongitudeDegrees>
            </Position>
            <AltitudeMeters>125.1999969482421875</AltitudeMeters>
            <DistanceMeters>8011.8467347496</DistanceMeters>
          </Trackpoint>
          <Trackpoint>
            <Time>2019-01-04T11:11:28.000Z</Time>
            <Position>
              <LatitudeDegrees>36.49721981026232242584228515625</LatitudeDegrees>
              <LongitudeDegrees>-5.40470589883625507354736328125</LongitudeDegrees>
            </Position>
            <AltitudeMeters>125.1999969482421875</AltitudeMeters>
            <DistanceMeters>8013.2497873732</DistanceMeters>
          </Trackpoint>
          <Trackpoint>
            <Time>2019-01-04T11:11:29.000Z</Time>
            <Position>
              <LatitudeDegrees>36.4972091652452945709228515625</LatitudeDegrees>
              <LongitudeDegrees>-5.40471562184393405914306640625</LongitudeDegrees>
            </Position>
            <AltitudeMeters>125</AltitudeMeters>
            <DistanceMeters>8014.721934902</DistanceMeters>
          </Trackpoint>
          <Trackpoint>
            <Time>2019-01-04T11:11:30.000Z</Time>
            <Position>
              <LatitudeDegrees>36.49720053188502788543701171875</LatitudeDegrees>
              <LongitudeDegrees>-5.40472920052707195281982421875</LongitudeDegrees>
            </Position>
            <AltitudeMeters>125</AltitudeMeters>
            <DistanceMeters>8016.2717737111</DistanceMeters>
          </Trackpoint>
          <Trackpoint>
            <Time>2019-01-04T11:11:31.000Z</Time>
            <Position>
              <LatitudeDegrees>36.49719131179153919219970703125</LatitudeDegrees>
              <LongitudeDegrees>-5.4047391749918460845947265625</LongitudeDegrees>
            </Position>
            <AltitudeMeters>125</AltitudeMeters>
            <DistanceMeters>8017.6290266701</DistanceMeters>
          </Trackpoint>
          <Trackpoint>
            <Time>2019-01-04T11:11:32.000Z</Time>
            <Position>
              <LatitudeDegrees>36.4971816726028919219970703125</LatitudeDegrees>
              <LongitudeDegrees>-5.40474898181855678558349609375</LongitudeDegrees>
            </Position>
            <AltitudeMeters>125</AltitudeMeters>
            <DistanceMeters>8019.0126365161</DistanceMeters>
          </Trackpoint>
          <Trackpoint>
            <Time>2019-01-04T11:11:33.000Z</Time>
            <Position>
              <LatitudeDegrees>36.49717186577618122100830078125</LatitudeDegrees>
              <LongitudeDegrees>-5.40475518442690372467041015625</LongitudeDegrees>
            </Position>
            <AltitudeMeters>124.8000030517578125</AltitudeMeters>
            <DistanceMeters>8020.2369700857</DistanceMeters>
          </Trackpoint>
          <Trackpoint>
            <Time>2019-01-04T11:11:34.000Z</Time>
            <Position>
              <LatitudeDegrees>36.49716080166399478912353515625</LatitudeDegrees>
              <LongitudeDegrees>-5.4047619737684726715087890625</LongitudeDegrees>
            </Position>
            <AltitudeMeters>124.8000030517578125</AltitudeMeters>
            <DistanceMeters>8021.6140380046</DistanceMeters>
          </Trackpoint>
          <Trackpoint>
            <Time>2019-01-04T11:11:35.000Z</Time>
            <Position>
              <LatitudeDegrees>36.49714973755180835723876953125</LatitudeDegrees>
              <LongitudeDegrees>-5.4047680087387561798095703125</LongitudeDegrees>
            </Position>
            <AltitudeMeters>124.59999847412109375</AltitudeMeters>
            <DistanceMeters>8022.9579186871</DistanceMeters>
          </Trackpoint>
          <Trackpoint>
            <Time>2019-01-04T11:11:36.000Z</Time>
            <Position>
              <LatitudeDegrees>36.4971387572586536407470703125</LatitudeDegrees>
              <LongitudeDegrees>-5.40477664209902286529541015625</LongitudeDegrees>
            </Position>
            <AltitudeMeters>124.40000152587890625</AltitudeMeters>
            <DistanceMeters>8024.4053224784</DistanceMeters>
          </Trackpoint>
          <Trackpoint>
            <Time>2019-01-04T11:11:37.000Z</Time>
            <Position>
              <LatitudeDegrees>36.49712719023227691650390625</LatitudeDegrees>
              <LongitudeDegrees>-5.40478368289768695831298828125</LongitudeDegrees>
            </Position>
            <AltitudeMeters>124.1999969482421875</AltitudeMeters>
            <DistanceMeters>8025.8401943992</DistanceMeters>
          </Trackpoint>
          <Trackpoint>
            <Time>2019-01-04T11:11:38.000Z</Time>
            <Position>
              <LatitudeDegrees>36.49711721576750278472900390625</LatitudeDegrees>
              <LongitudeDegrees>-5.4047914780676364898681640625</LongitudeDegrees>
            </Position>
            <AltitudeMeters>123.8000030517578125</AltitudeMeters>
            <DistanceMeters>8027.1534897205</DistanceMeters>
          </Trackpoint>
          <Trackpoint>
            <Time>2019-01-04T11:11:39.000Z</Time>
            <Position>
              <LatitudeDegrees>36.4971062354743480682373046875</LatitudeDegrees>
              <LongitudeDegrees>-5.40479667484760284423828125</LongitudeDegrees>
            </Position>
            <AltitudeMeters>123.59999847412109375</AltitudeMeters>
            <DistanceMeters>8028.4598910554</DistanceMeters>
          </Trackpoint>
          <Trackpoint>
            <Time>2019-01-04T11:11:40.000Z</Time>
            <Position>
              <LatitudeDegrees>36.4970951713621616363525390625</LatitudeDegrees>
              <LongitudeDegrees>-5.40480497293174266815185546875</LongitudeDegrees>
            </Position>
            <AltitudeMeters>123.40000152587890625</AltitudeMeters>
            <DistanceMeters>8029.9010425333</DistanceMeters>
          </Trackpoint>
          <Trackpoint>
            <Time>2019-01-04T11:11:41.000Z</Time>
            <Position>
              <LatitudeDegrees>36.497085280716419219970703125</LatitudeDegrees>
              <LongitudeDegrees>-5.4048136062920093536376953125</LongitudeDegrees>
            </Position>
            <AltitudeMeters>123</AltitudeMeters>
            <DistanceMeters>8031.2449232158</DistanceMeters>
          </Trackpoint>
          <Trackpoint>
            <Time>2019-01-04T11:11:42.000Z</Time>
            <Position>
              <LatitudeDegrees>36.497074551880359649658203125</LatitudeDegrees>
              <LongitudeDegrees>-5.40481955744326114654541015625</LongitudeDegrees>
            </Position>
            <AltitudeMeters>122.8000030517578125</AltitudeMeters>
            <DistanceMeters>8032.5547760794</DistanceMeters>
          </Trackpoint>
          <Trackpoint>
            <Time>2019-01-04T11:11:43.000Z</Time>
            <Position>
              <LatitudeDegrees>36.497062481939792633056640625</LatitudeDegrees>
              <LongitudeDegrees>-5.40483078919351100921630859375</LongitudeDegrees>
            </Position>
            <AltitudeMeters>122.8000030517578125</AltitudeMeters>
            <DistanceMeters>8034.2332825138</DistanceMeters>
          </Trackpoint>
          <Trackpoint>
            <Time>2019-01-04T11:11:44.000Z</Time>
            <Position>
              <LatitudeDegrees>36.4970505796372890472412109375</LatitudeDegrees>
              <LongitudeDegrees>-5.40483699180185794830322265625</LongitudeDegrees>
            </Position>
            <AltitudeMeters>122.59999847412109375</AltitudeMeters>
            <DistanceMeters>8035.6681544347</DistanceMeters>
          </Trackpoint>
          <Trackpoint>
            <Time>2019-01-04T11:11:45.000Z</Time>
            <Position>
              <LatitudeDegrees>36.4970401860773563385009765625</LatitudeDegrees>
              <LongitudeDegrees>-5.404840596020221710205078125</LongitudeDegrees>
            </Position>
            <AltitudeMeters>122.40000152587890625</AltitudeMeters>
            <DistanceMeters>8036.8701578586</DistanceMeters>
          </Trackpoint>
          <Trackpoint>
            <Time>2019-01-04T11:11:46.000Z</Time>
            <Position>
              <LatitudeDegrees>36.49702602066099643707275390625</LatitudeDegrees>
              <LongitudeDegrees>-5.4048501513898372650146484375</LongitudeDegrees>
            </Position>
            <AltitudeMeters>122</AltitudeMeters>
            <DistanceMeters>8038.6631183194</DistanceMeters>
          </Trackpoint>
          <Trackpoint>
            <Time>2019-01-04T11:11:47.000Z</Time>
            <Position>
              <LatitudeDegrees>36.49701277725398540496826171875</LatitudeDegrees>
              <LongitudeDegrees>-5.40486046113073825836181640625</LongitudeDegrees>
            </Position>
            <AltitudeMeters>121.59999847412109375</AltitudeMeters>
            <DistanceMeters>8040.4023927683</DistanceMeters>
          </Trackpoint>
          <Trackpoint>
            <Time>2019-01-04T11:11:48.000Z</Time>
            <Position>
              <LatitudeDegrees>36.4969966001808643341064453125</LatitudeDegrees>
              <LongitudeDegrees>-5.4048712737858295440673828125</LongitudeDegrees>
            </Position>
            <AltitudeMeters>121.40000152587890625</AltitudeMeters>
            <DistanceMeters>8042.4449145717</DistanceMeters>
          </Trackpoint>
          <Trackpoint>
            <Time>2019-01-04T11:11:49.000Z</Time>
            <Position>
              <LatitudeDegrees>36.49698008783161640167236328125</LatitudeDegrees>
              <LongitudeDegrees>-5.40487839840352535247802734375</LongitudeDegrees>
            </Position>
            <AltitudeMeters>121.1999969482421875</AltitudeMeters>
            <DistanceMeters>8044.3877403368</DistanceMeters>
          </Trackpoint>
          <Trackpoint>
            <Time>2019-01-04T11:11:50.000Z</Time>
            <Position>
              <LatitudeDegrees>36.49696701206266880035400390625</LatitudeDegrees>
              <LongitudeDegrees>-5.40488594211637973785400390625</LongitudeDegrees>
            </Position>
            <AltitudeMeters>120.8000030517578125</AltitudeMeters>
            <DistanceMeters>8045.9891589922</DistanceMeters>
          </Trackpoint>
          <Trackpoint>
            <Time>2019-01-04T11:11:51.000Z</Time>
            <Position>
              <LatitudeDegrees>36.4969535171985626220703125</LatitudeDegrees>
              <LongitudeDegrees>-5.4048944078385829925537109375</LongitudeDegrees>
            </Position>
            <AltitudeMeters>120.59999847412109375</AltitudeMeters>
            <DistanceMeters>8047.6676654267</DistanceMeters>
          </Trackpoint>
          <Trackpoint>
            <Time>2019-01-04T11:11:52.000Z</Time>
            <Position>
              <LatitudeDegrees>36.49694018997251987457275390625</LatitudeDegrees>
              <LongitudeDegrees>-5.40490488521754741668701171875</LongitudeDegrees>
            </Position>
            <AltitudeMeters>120.40000152587890625</AltitudeMeters>
            <DistanceMeters>8049.4224463439</DistanceMeters>
          </Trackpoint>
          <Trackpoint>
            <Time>2019-01-04T11:11:53.000Z</Time>
            <Position>
              <LatitudeDegrees>36.4969271980226039886474609375</LatitudeDegrees>
              <LongitudeDegrees>-5.404915027320384979248046875</LongitudeDegrees>
            </Position>
            <AltitudeMeters>120.1999969482421875</AltitudeMeters>
            <DistanceMeters>8051.1302855317</DistanceMeters>
          </Trackpoint>
          <Trackpoint>
            <Time>2019-01-04T11:11:54.000Z</Time>
            <Position>
              <LatitudeDegrees>36.49691529572010040283203125</LatitudeDegrees>
              <LongitudeDegrees>-5.4049207270145416259765625</LongitudeDegrees>
            </Position>
            <AltitudeMeters>120</AltitudeMeters>
            <DistanceMeters>8052.549336992</DistanceMeters>
          </Trackpoint>
          <Trackpoint>
            <Time>2019-01-04T11:11:55.000Z</Time>
            <Position>
              <LatitudeDegrees>36.49690431542694568634033203125</LatitudeDegrees>
              <LongitudeDegrees>-5.40492676198482513427734375</LongitudeDegrees>
            </Position>
            <AltitudeMeters>119.59999847412109375</AltitudeMeters>
            <DistanceMeters>8053.8831004866</DistanceMeters>
          </Trackpoint>
          <Trackpoint>
            <Time>2019-01-04T11:11:56.000Z</Time>
            <Position>
              <LatitudeDegrees>36.4968946762382984161376953125</LatitudeDegrees>
              <LongitudeDegrees>-5.40493438951671123504638671875</LongitudeDegrees>
            </Position>
            <AltitudeMeters>119.40000152587890625</AltitudeMeters>
            <DistanceMeters>8055.1544712757</DistanceMeters>
          </Trackpoint>
          <Trackpoint>
            <Time>2019-01-04T11:11:57.000Z</Time>
            <Position>
              <LatitudeDegrees>36.496886126697063446044921875</LatitudeDegrees>
              <LongitudeDegrees>-5.40494210086762905120849609375</LongitudeDegrees>
            </Position>
            <AltitudeMeters>119.1999969482421875</AltitudeMeters>
            <DistanceMeters>8056.3337217887</DistanceMeters>
          </Trackpoint>
          <Trackpoint>
            <Time>2019-01-04T11:11:58.000Z</Time>
            <Position>
              <LatitudeDegrees>36.496877409517765045166015625</LatitudeDegrees>
              <LongitudeDegrees>-5.40495182387530803680419921875</LongitudeDegrees>
            </Position>
            <AltitudeMeters>119.1999969482421875</AltitudeMeters>
            <DistanceMeters>8057.6366624518</DistanceMeters>
          </Trackpoint>
          <Trackpoint>
            <Time>2019-01-04T11:11:59.000Z</Time>
            <Position>
              <LatitudeDegrees>36.4968678541481494903564453125</LatitudeDegrees>
              <LongitudeDegrees>-5.40496422909200191497802734375</LongitudeDegrees>
            </Position>
            <AltitudeMeters>119</AltitudeMeters>
            <DistanceMeters>8059.174804197</DistanceMeters>
          </Trackpoint>
          <Trackpoint>
            <Time>2019-01-04T11:12:00.000Z</Time>
            <Position>
              <LatitudeDegrees>36.4968598075211048126220703125</LatitudeDegrees>
              <LongitudeDegrees>-5.40498082526028156280517578125</LongitudeDegrees>
            </Position>
            <AltitudeMeters>118.59999847412109375</AltitudeMeters>
            <DistanceMeters>8060.9114807737</DistanceMeters>
          </Trackpoint>
          <Trackpoint>
            <Time>2019-01-04T11:12:01.000Z</Time>
            <Position>
              <LatitudeDegrees>36.4968520961701869964599609375</LatitudeDegrees>
              <LongitudeDegrees>-5.40499088354408740997314453125</LongitudeDegrees>
            </Position>
            <AltitudeMeters>118.40000152587890625</AltitudeMeters>
            <DistanceMeters>8062.157744449</DistanceMeters>
          </Trackpoint>
          <Trackpoint>
            <Time>2019-01-04T11:12:02.000Z</Time>
            <Position>
              <LatitudeDegrees>36.49684329517185688018798828125</LatitudeDegrees>
              <LongitudeDegrees>-5.40499825961887836456298828125</LongitudeDegrees>
            </Position>
            <AltitudeMeters>118</AltitudeMeters>
            <DistanceMeters>8063.336994962</DistanceMeters>
          </Trackpoint>
          <Trackpoint>
            <Time>2019-01-04T11:12:03.000Z</Time>
            <Position>
              <LatitudeDegrees>36.496832482516765594482421875</LatitudeDegrees>
              <LongitudeDegrees>-5.40500245057046413421630859375</LongitudeDegrees>
            </Position>
            <AltitudeMeters>117.8000030517578125</AltitudeMeters>
            <DistanceMeters>8064.5976667885</DistanceMeters>
          </Trackpoint>
          <Trackpoint>
            <Time>2019-01-04T11:12:04.000Z</Time>
            <Position>
              <LatitudeDegrees>36.49682217277586460113525390625</LatitudeDegrees>
              <LongitudeDegrees>-5.40500781498849391937255859375</LongitudeDegrees>
            </Position>
            <AltitudeMeters>117.59999847412109375</AltitudeMeters>
            <DistanceMeters>8065.8366635583</DistanceMeters>
          </Trackpoint>
          <Trackpoint>
            <Time>2019-01-04T11:12:05.000Z</Time>
            <Position>
              <LatitudeDegrees>36.49681203067302703857421875</LatitudeDegrees>
              <LongitudeDegrees>-5.40501393377780914306640625</LongitudeDegrees>
            </Position>
            <AltitudeMeters>117.1999969482421875</AltitudeMeters>
            <DistanceMeters>8067.090152011</DistanceMeters>
          </Trackpoint>
          <Trackpoint>
            <Time>2019-01-04T11:12:06.000Z</Time>
            <Position>
              <LatitudeDegrees>36.49680264294147491455078125</LatitudeDegrees>
              <LongitudeDegrees>-5.40502407588064670562744140625</LongitudeDegrees>
            </Position>
            <AltitudeMeters>117</AltitudeMeters>
            <DistanceMeters>8068.4737618571</DistanceMeters>
          </Trackpoint>
          <Trackpoint>
            <Time>2019-01-04T11:12:07.000Z</Time>
            <Position>
              <LatitudeDegrees>36.4967920817434787750244140625</LatitudeDegrees>
              <LongitudeDegrees>-5.40503161959350109100341796875</LongitudeDegrees>
            </Position>
            <AltitudeMeters>116.8000030517578125</AltitudeMeters>
            <DistanceMeters>8069.8310148161</DistanceMeters>
          </Trackpoint>
          <Trackpoint>
            <Time>2019-01-04T11:12:08.000Z</Time>
            <Position>
              <LatitudeDegrees>36.49678244255483150482177734375</LatitudeDegrees>
              <LongitudeDegrees>-5.40503941476345062255859375</LongitudeDegrees>
            </Position>
            <AltitudeMeters>116.59999847412109375</AltitudeMeters>
            <DistanceMeters>8071.1129952811</DistanceMeters>
          </Trackpoint>
          <Trackpoint>
            <Time>2019-01-04T11:12:09.000Z</Time>
            <Position>
              <LatitudeDegrees>36.4967738091945648193359375</LatitudeDegrees>
              <LongitudeDegrees>-5.40504612028598785400390625</LongitudeDegrees>
            </Position>
            <AltitudeMeters>116.1999969482421875</AltitudeMeters>
            <DistanceMeters>8072.2453692719</DistanceMeters>
          </Trackpoint>
          <Trackpoint>
            <Time>2019-01-04T11:12:10.000Z</Time>
            <Position>
              <LatitudeDegrees>36.4967662654817104339599609375</LatitudeDegrees>
              <LongitudeDegrees>-5.40505416691303253173828125</LongitudeDegrees>
            </Position>
            <AltitudeMeters>116</AltitudeMeters>
            <DistanceMeters>8073.3535616724</DistanceMeters>
          </Trackpoint>
          <Trackpoint>
            <Time>2019-01-04T11:12:11.000Z</Time>
            <Position>
              <LatitudeDegrees>36.4967565424740314483642578125</LatitudeDegrees>
              <LongitudeDegrees>-5.40506179444491863250732421875</LongitudeDegrees>
            </Position>
            <AltitudeMeters>115.59999847412109375</AltitudeMeters>
            <DistanceMeters>8074.6355421374</DistanceMeters>
          </Trackpoint>
          <Trackpoint>
            <Time>2019-01-04T11:12:12.000Z</Time>
            <Position>
              <LatitudeDegrees>36.49674405343830585479736328125</LatitudeDegrees>
              <LongitudeDegrees>-5.4050670750439167022705078125</LongitudeDegrees>
            </Position>
            <AltitudeMeters>115.40000152587890625</AltitudeMeters>
            <DistanceMeters>8076.1076896662</DistanceMeters>
          </Trackpoint>
          <Trackpoint>
            <Time>2019-01-04T11:12:13.000Z</Time>
            <Position>
              <LatitudeDegrees>36.49673298932611942291259765625</LatitudeDegrees>
              <LongitudeDegrees>-5.405070595443248748779296875</LongitudeDegrees>
            </Position>
            <AltitudeMeters>115.1999969482421875</AltitudeMeters>
            <DistanceMeters>8077.3790604553</DistanceMeters>
          </Trackpoint>
          <Trackpoint>
            <Time>2019-01-04T11:12:14.000Z</Time>
            <Position>
              <LatitudeDegrees>36.4967230148613452911376953125</LatitudeDegrees>
              <LongitudeDegrees>-5.4050774686038494110107421875</LongitudeDegrees>
            </Position>
            <AltitudeMeters>115</AltitudeMeters>
            <DistanceMeters>8078.6468749556</DistanceMeters>
          </Trackpoint>
          <Trackpoint>
            <Time>2019-01-04T11:12:15.000Z</Time>
            <Position>
              <LatitudeDegrees>36.4967183209955692291259765625</LatitudeDegrees>
              <LongitudeDegrees>-5.405084006488323211669921875</LongitudeDegrees>
            </Position>
            <AltitudeMeters>114.8000030517578125</AltitudeMeters>
            <DistanceMeters>8079.4247021355</DistanceMeters>
          </Trackpoint>
          <Trackpoint>
            <Time>2019-01-04T11:12:16.000Z</Time>
            <Position>
              <LatitudeDegrees>36.49670742452144622802734375</LatitudeDegrees>
              <LongitudeDegrees>-5.4050923883914947509765625</LongitudeDegrees>
            </Position>
            <AltitudeMeters>114.40000152587890625</AltitudeMeters>
            <DistanceMeters>8080.8469317665</DistanceMeters>
          </Trackpoint>
          <Trackpoint>
            <Time>2019-01-04T11:12:17.000Z</Time>
            <Position>
              <LatitudeDegrees>36.49669745005667209625244140625</LatitudeDegrees>
              <LongitudeDegrees>-5.40509062819182872772216796875</LongitudeDegrees>
            </Position>
            <AltitudeMeters>114</AltitudeMeters>
            <DistanceMeters>8081.971303014</DistanceMeters>
          </Trackpoint>
          <Trackpoint>
            <Time>2019-01-04T11:12:18.000Z</Time>
            <Position>
              <LatitudeDegrees>36.4966906607151031494140625</LatitudeDegrees>
              <LongitudeDegrees>-5.40509230457246303558349609375</LongitudeDegrees>
            </Position>
            <AltitudeMeters>113.8000030517578125</AltitudeMeters>
            <DistanceMeters>8082.743303691</DistanceMeters>
          </Trackpoint>
          <Trackpoint>
            <Time>2019-01-04T11:12:19.000Z</Time>
            <Position>
              <LatitudeDegrees>36.4966807700693607330322265625</LatitudeDegrees>
              <LongitudeDegrees>-5.40508861653506755828857421875</LongitudeDegrees>
            </Position>
            <AltitudeMeters>113.40000152587890625</AltitudeMeters>
            <DistanceMeters>8083.8915158495</DistanceMeters>
          </Trackpoint>
          <Trackpoint>
            <Time>2019-01-04T11:12:20.000Z</Time>
            <Position>
              <LatitudeDegrees>36.49667381308972835540771484375</LatitudeDegrees>
              <LongitudeDegrees>-5.40508543141186237335205078125</LongitudeDegrees>
            </Position>
            <AltitudeMeters>113.1999969482421875</AltitudeMeters>
            <DistanceMeters>8084.7199395392</DistanceMeters>
          </Trackpoint>
          <Trackpoint>
            <Time>2019-01-04T11:12:21.000Z</Time>
            <Position>
              <LatitudeDegrees>36.49666853249073028564453125</LatitudeDegrees>
              <LongitudeDegrees>-5.4050821624696254730224609375</LongitudeDegrees>
            </Position>
            <AltitudeMeters>112.8000030517578125</AltitudeMeters>
            <DistanceMeters>8085.3783039287</DistanceMeters>
          </Trackpoint>
          <Trackpoint>
            <Time>2019-01-04T11:12:22.000Z</Time>
            <Position>
              <LatitudeDegrees>36.49666241370141506195068359375</LatitudeDegrees>
              <LongitudeDegrees>-5.40508341975510120391845703125</LongitudeDegrees>
            </Position>
            <AltitudeMeters>112.59999847412109375</AltitudeMeters>
            <DistanceMeters>8086.0635513111</DistanceMeters>
          </Trackpoint>
          <Trackpoint>
            <Time>2019-01-04T11:12:23.000Z</Time>
            <Position>
              <LatitudeDegrees>36.49665604345500469207763671875</LatitudeDegrees>
              <LongitudeDegrees>-5.4050868563354015350341796875</LongitudeDegrees>
            </Position>
            <AltitudeMeters>112.40000152587890625</AltitudeMeters>
            <DistanceMeters>8086.8355519881</DistanceMeters>
          </Trackpoint>
          <Trackpoint>
            <Time>2019-01-04T11:12:24.000Z</Time>
            <Position>
              <LatitudeDegrees>36.49664849974215030670166015625</LatitudeDegrees>
              <LongitudeDegrees>-5.40508777834475040435791015625</LongitudeDegrees>
            </Position>
            <AltitudeMeters>112.1999969482421875</AltitudeMeters>
            <DistanceMeters>8087.6801679002</DistanceMeters>
          </Trackpoint>
          <Trackpoint>
            <Time>2019-01-04T11:12:25.000Z</Time>
            <Position>
              <LatitudeDegrees>36.49664028547704219818115234375</LatitudeDegrees>
              <LongitudeDegrees>-5.40509180165827274322509765625</LongitudeDegrees>
            </Position>
            <AltitudeMeters>112</AltitudeMeters>
            <DistanceMeters>8088.6631318769</DistanceMeters>
          </Trackpoint>
          <Trackpoint>
            <Time>2019-01-04T11:12:26.000Z</Time>
            <Position>
              <LatitudeDegrees>36.49663073010742664337158203125</LatitudeDegrees>
              <LongitudeDegrees>-5.405092723667621612548828125</LongitudeDegrees>
            </Position>
            <AltitudeMeters>112</AltitudeMeters>
            <DistanceMeters>8089.7340285612</DistanceMeters>
          </Trackpoint>
          <Trackpoint>
            <Time>2019-01-04T11:12:27.000Z</Time>
            <Position>
              <LatitudeDegrees>36.496622599661350250244140625</LatitudeDegrees>
              <LongitudeDegrees>-5.40509574115276336669921875</LongitudeDegrees>
            </Position>
            <AltitudeMeters>111.40000152587890625</AltitudeMeters>
            <DistanceMeters>8090.6795324311</DistanceMeters>
          </Trackpoint>
          <Trackpoint>
            <Time>2019-01-04T11:12:28.000Z</Time>
            <Position>
              <LatitudeDegrees>36.49661094881594181060791015625</LatitudeDegrees>
              <LongitudeDegrees>-5.4050979204475879669189453125</LongitudeDegrees>
            </Position>
            <AltitudeMeters>110.8000030517578125</AltitudeMeters>
            <DistanceMeters>8091.99626121</DistanceMeters>
          </Trackpoint>
          <Trackpoint>
            <Time>2019-01-04T11:12:29.000Z</Time>
            <Position>
              <LatitudeDegrees>36.49660038761794567108154296875</LatitudeDegrees>
              <LongitudeDegrees>-5.4051004350185394287109375</LongitudeDegrees>
            </Position>
            <AltitudeMeters>110.1999969482421875</AltitudeMeters>
            <DistanceMeters>8093.190728488</DistanceMeters>
          </Trackpoint>
          <Trackpoint>
            <Time>2019-01-04T11:12:30.000Z</Time>
            <Position>
              <LatitudeDegrees>36.49659133516252040863037109375</LatitudeDegrees>
              <LongitudeDegrees>-5.40510370396077632904052734375</LongitudeDegrees>
            </Position>
            <AltitudeMeters>109.8000030517578125</AltitudeMeters>
            <DistanceMeters>8094.2403328545</DistanceMeters>
          </Trackpoint>
          <Trackpoint>
            <Time>2019-01-04T11:12:31.000Z</Time>
            <Position>
              <LatitudeDegrees>36.4965806901454925537109375</LatitudeDegrees>
              <LongitudeDegrees>-5.40510755963623523712158203125</LongitudeDegrees>
            </Position>
            <AltitudeMeters>109.59999847412109375</AltitudeMeters>
            <DistanceMeters>8095.472019845</DistanceMeters>
          </Trackpoint>
          <Trackpoint>
            <Time>2019-01-04T11:12:32.000Z</Time>
            <Position>
              <LatitudeDegrees>36.49656526744365692138671875</LatitudeDegrees>
              <LongitudeDegrees>-5.40511191822588443756103515625</LongitudeDegrees>
            </Position>
            <AltitudeMeters>109.40000152587890625</AltitudeMeters>
            <DistanceMeters>8097.2319392239</DistanceMeters>
          </Trackpoint>
          <Trackpoint>
            <Time>2019-01-04T11:12:33.000Z</Time>
            <Position>
              <LatitudeDegrees>36.496554203331470489501953125</LatitudeDegrees>
              <LongitudeDegrees>-5.40511828847229480743408203125</LongitudeDegrees>
            </Position>
            <AltitudeMeters>109</AltitudeMeters>
            <DistanceMeters>8098.5891921828</DistanceMeters>
          </Trackpoint>
          <Trackpoint>
            <Time>2019-01-04T11:12:34.000Z</Time>
            <Position>
              <LatitudeDegrees>36.496544815599918365478515625</LatitudeDegrees>
              <LongitudeDegrees>-5.40512524545192718505859375</LongitudeDegrees>
            </Position>
            <AltitudeMeters>108.8000030517578125</AltitudeMeters>
            <DistanceMeters>8099.8061278988</DistanceMeters>
          </Trackpoint>
          <Trackpoint>
            <Time>2019-01-04T11:12:35.000Z</Time>
            <Position>
              <LatitudeDegrees>36.4965350925922393798828125</LatitudeDegrees>
              <LongitudeDegrees>-5.405134968459606170654296875</LongitudeDegrees>
            </Position>
            <AltitudeMeters>108.59999847412109375</AltitudeMeters>
            <DistanceMeters>8101.1929971365</DistanceMeters>
          </Trackpoint>
          <Trackpoint>
            <Time>2019-01-04T11:12:36.000Z</Time>
            <Position>
              <LatitudeDegrees>36.4965282194316387176513671875</LatitudeDegrees>
              <LongitudeDegrees>-5.40514645166695117950439453125</LongitudeDegrees>
            </Position>
            <AltitudeMeters>108.1999969482421875</AltitudeMeters>
            <DistanceMeters>8102.4749776016</DistanceMeters>
          </Trackpoint>
          <Trackpoint>
            <Time>2019-01-04T11:12:37.000Z</Time>
            <Position>
              <LatitudeDegrees>36.49652578867971897125244140625</LatitudeDegrees>
              <LongitudeDegrees>-5.40516011416912078857421875</LongitudeDegrees>
            </Position>
            <AltitudeMeters>107.8000030517578125</AltitudeMeters>
            <DistanceMeters>8103.7212412769</DistanceMeters>
          </Trackpoint>
          <Trackpoint>
            <Time>2019-01-04T11:12:38.000Z</Time>
            <Position>
              <LatitudeDegrees>36.49652310647070407867431640625</LatitudeDegrees>
              <LongitudeDegrees>-5.40517411194741725921630859375</LongitudeDegrees>
            </Position>
            <AltitudeMeters>107.59999847412109375</AltitudeMeters>
            <DistanceMeters>8105.010246345</DistanceMeters>
          </Trackpoint>
          <Trackpoint>
            <Time>2019-01-04T11:12:39.000Z</Time>
            <Position>
              <LatitudeDegrees>36.49651975370943546295166015625</LatitudeDegrees>
              <LongitudeDegrees>-5.40518668480217456817626953125</LongitudeDegrees>
            </Position>
            <AltitudeMeters>107.1999969482421875</AltitudeMeters>
            <DistanceMeters>8106.1971296271</DistanceMeters>
          </Trackpoint>
          <Trackpoint>
            <Time>2019-01-04T11:12:40.000Z</Time>
            <Position>
              <LatitudeDegrees>36.4965144731104373931884765625</LatitudeDegrees>
              <LongitudeDegrees>-5.40519841946661472320556640625</LongitudeDegrees>
            </Position>
            <AltitudeMeters>107.1999969482421875</AltitudeMeters>
            <DistanceMeters>8107.4028834608</DistanceMeters>
          </Trackpoint>
          <Trackpoint>
            <Time>2019-01-04T11:12:41.000Z</Time>
            <Position>
              <LatitudeDegrees>36.49650986306369304656982421875</LatitudeDegrees>
              <LongitudeDegrees>-5.40521283634006977081298828125</LongitudeDegrees>
            </Position>
            <AltitudeMeters>106.8000030517578125</AltitudeMeters>
            <DistanceMeters>8108.7897526985</DistanceMeters>
          </Trackpoint>
          <Trackpoint>
            <Time>2019-01-04T11:12:42.000Z</Time>
            <Position>
              <LatitudeDegrees>36.49650491774082183837890625</LatitudeDegrees>
              <LongitudeDegrees>-5.40522725321352481842041015625</LongitudeDegrees>
            </Position>
            <AltitudeMeters>106.59999847412109375</AltitudeMeters>
            <DistanceMeters>8110.1928053222</DistanceMeters>
          </Trackpoint>
          <Trackpoint>
            <Time>2019-01-04T11:12:43.000Z</Time>
            <Position>
              <LatitudeDegrees>36.49650181643664836883544921875</LatitudeDegrees>
              <LongitudeDegrees>-5.40524326264858245849609375</LongitudeDegrees>
            </Position>
            <AltitudeMeters>106.1999969482421875</AltitudeMeters>
            <DistanceMeters>8111.664952851</DistanceMeters>
          </Trackpoint>
          <Trackpoint>
            <Time>2019-01-04T11:12:44.000Z</Time>
            <Position>
              <LatitudeDegrees>36.49649946950376033782958984375</LatitudeDegrees>
              <LongitudeDegrees>-5.40526161901652812957763671875</LongitudeDegrees>
            </Position>
            <AltitudeMeters>105.8000030517578125</AltitudeMeters>
            <DistanceMeters>8113.3272414517</DistanceMeters>
          </Trackpoint>
          <Trackpoint>
            <Time>2019-01-04T11:12:45.000Z</Time>
            <Position>
              <LatitudeDegrees>36.49649812839925289154052734375</LatitudeDegrees>
              <LongitudeDegrees>-5.4052803106606006622314453125</LongitudeDegrees>
            </Position>
            <AltitudeMeters>105.40000152587890625</AltitudeMeters>
            <DistanceMeters>8115.0084356483</DistanceMeters>
          </Trackpoint>
          <Trackpoint>
            <Time>2019-01-04T11:12:46.000Z</Time>
            <Position>
              <LatitudeDegrees>36.4964977093040943145751953125</LatitudeDegrees>
              <LongitudeDegrees>-5.40530025959014892578125</LongitudeDegrees>
            </Position>
            <AltitudeMeters>105.1999969482421875</AltitudeMeters>
            <DistanceMeters>8116.7963526098</DistanceMeters>
          </Trackpoint>
          <Trackpoint>
            <Time>2019-01-04T11:12:47.000Z</Time>
            <Position>
              <LatitudeDegrees>36.496495194733142852783203125</LatitudeDegrees>
              <LongitudeDegrees>-5.40531559847295284271240234375</LongitudeDegrees>
            </Position>
            <AltitudeMeters>104.8000030517578125</AltitudeMeters>
            <DistanceMeters>8118.1994052335</DistanceMeters>
          </Trackpoint>
          <Trackpoint>
            <Time>2019-01-04T11:12:48.000Z</Time>
            <Position>
              <LatitudeDegrees>36.49649142287671566009521484375</LatitudeDegrees>
              <LongitudeDegrees>-5.40533135645091533660888671875</LongitudeDegrees>
            </Position>
            <AltitudeMeters>104.59999847412109375</AltitudeMeters>
            <DistanceMeters>8119.6715527623</DistanceMeters>
          </Trackpoint>
          <Trackpoint>
            <Time>2019-01-04T11:12:49.000Z</Time>
            <Position>
              <LatitudeDegrees>36.49648739956319332122802734375</LatitudeDegrees>
              <LongitudeDegrees>-5.40534376166760921478271484375</LongitudeDegrees>
            </Position>
            <AltitudeMeters>104.59999847412109375</AltitudeMeters>
            <DistanceMeters>8120.8660200403</DistanceMeters>
          </Trackpoint>
          <Trackpoint>
            <Time>2019-01-04T11:12:50.000Z</Time>
            <Position>
              <LatitudeDegrees>36.49648069404065608978271484375</LatitudeDegrees>
              <LongitudeDegrees>-5.4053527303040027618408203125</LongitudeDegrees>
            </Position>
            <AltitudeMeters>104.40000152587890625</AltitudeMeters>
            <DistanceMeters>8121.9660337872</DistanceMeters>
          </Trackpoint>
          <Trackpoint>
            <Time>2019-01-04T11:12:51.000Z</Time>
            <Position>
              <LatitudeDegrees>36.49647801183164119720458984375</LatitudeDegrees>
              <LongitudeDegrees>-5.4053606092929840087890625</LongitudeDegrees>
            </Position>
            <AltitudeMeters>104.1999969482421875</AltitudeMeters>
            <DistanceMeters>8122.7321636514</DistanceMeters>
          </Trackpoint>
          <Trackpoint>
            <Time>2019-01-04T11:12:52.000Z</Time>
            <Position>
              <LatitudeDegrees>36.4964732341468334197998046875</LatitudeDegrees>
              <LongitudeDegrees>-5.40536957792937755584716796875</LongitudeDegrees>
            </Position>
            <AltitudeMeters>104</AltitudeMeters>
            <DistanceMeters>8123.6918864225</DistanceMeters>
          </Trackpoint>
          <Trackpoint>
            <Time>2019-01-04T11:12:53.000Z</Time>
            <Position>
              <LatitudeDegrees>36.4964645169675350189208984375</LatitudeDegrees>
              <LongitudeDegrees>-5.405380390584468841552734375</LongitudeDegrees>
            </Position>
            <AltitudeMeters>103.8000030517578125</AltitudeMeters>
            <DistanceMeters>8125.0590827595</DistanceMeters>
          </Trackpoint>
          <Trackpoint>
            <Time>2019-01-04T11:12:54.000Z</Time>
            <Position>
              <LatitudeDegrees>36.49645806290209293365478515625</LatitudeDegrees>
              <LongitudeDegrees>-5.40539204142987728118896484375</LongitudeDegrees>
            </Position>
            <AltitudeMeters>103.59999847412109375</AltitudeMeters>
            <DistanceMeters>8126.3268972597</DistanceMeters>
          </Trackpoint>
          <Trackpoint>
            <Time>2019-01-04T11:12:55.000Z</Time>
            <Position>
              <LatitudeDegrees>36.49645135737955570220947265625</LatitudeDegrees>
              <LongitudeDegrees>-5.40540645830333232879638671875</LongitudeDegrees>
            </Position>
            <AltitudeMeters>103.40000152587890625</AltitudeMeters>
            <DistanceMeters>8127.8173330367</DistanceMeters>
          </Trackpoint>
          <Trackpoint>
            <Time>2019-01-04T11:12:56.000Z</Time>
            <Position>
              <LatitudeDegrees>36.4964464120566844940185546875</LatitudeDegrees>
              <LongitudeDegrees>-5.4054187797009944915771484375</LongitudeDegrees>
            </Position>
            <AltitudeMeters>103.1999969482421875</AltitudeMeters>
            <DistanceMeters>8129.0490200272</DistanceMeters>
          </Trackpoint>
          <Trackpoint>
            <Time>2019-01-04T11:12:57.000Z</Time>
            <Position>
              <LatitudeDegrees>36.49643878452479839324951171875</LatitudeDegrees>
              <LongitudeDegrees>-5.40542833507061004638671875</LongitudeDegrees>
            </Position>
            <AltitudeMeters>103</AltitudeMeters>
            <DistanceMeters>8130.2510234511</DistanceMeters>
          </Trackpoint>
          <Trackpoint>
            <Time>2019-01-04T11:12:58.000Z</Time>
            <Position>
              <LatitudeDegrees>36.4964346773922443389892578125</LatitudeDegrees>
              <LongitudeDegrees>-5.40543898008763790130615234375</LongitudeDegrees>
            </Position>
            <AltitudeMeters>102.8000030517578125</AltitudeMeters>
            <DistanceMeters>8131.3006278176</DistanceMeters>
          </Trackpoint>
          <Trackpoint>
            <Time>2019-01-04T11:12:59.000Z</Time>
            <Position>
              <LatitudeDegrees>36.4964269660413265228271484375</LatitudeDegrees>
              <LongitudeDegrees>-5.405444763600826263427734375</LongitudeDegrees>
            </Position>
            <AltitudeMeters>102.59999847412109375</AltitudeMeters>
            <DistanceMeters>8132.3062960341</DistanceMeters>
          </Trackpoint>
          <Trackpoint>
            <Time>2019-01-04T11:13:00.000Z</Time>
            <Position>
              <LatitudeDegrees>36.49641900323331356048583984375</LatitudeDegrees>
              <LongitudeDegrees>-5.40545255877077579498291015625</LongitudeDegrees>
            </Position>
            <AltitudeMeters>102.40000152587890625</AltitudeMeters>
            <DistanceMeters>8133.4386700249</DistanceMeters>
          </Trackpoint>
          <Trackpoint>
            <Time>2019-01-04T11:13:01.000Z</Time>
            <Position>
              <LatitudeDegrees>36.4964143931865692138671875</LatitudeDegrees>
              <LongitudeDegrees>-5.405462868511676788330078125</LongitudeDegrees>
            </Position>
            <AltitudeMeters>102.40000152587890625</AltitudeMeters>
            <DistanceMeters>8134.4968427325</DistanceMeters>
          </Trackpoint>
          <Trackpoint>
            <Time>2019-01-04T11:13:02.000Z</Time>
            <Position>
              <LatitudeDegrees>36.49641145952045917510986328125</LatitudeDegrees>
              <LongitudeDegrees>-5.4054767824709415435791015625</LongitudeDegrees>
            </Position>
            <AltitudeMeters>102.1999969482421875</AltitudeMeters>
            <DistanceMeters>8135.7858478006</DistanceMeters>
          </Trackpoint>
          <Trackpoint>
            <Time>2019-01-04T11:13:03.000Z</Time>
            <Position>
              <LatitudeDegrees>36.49640626274049282073974609375</LatitudeDegrees>
              <LongitudeDegrees>-5.4054945521056652069091796875</LongitudeDegrees>
            </Position>
            <AltitudeMeters>102.1999969482421875</AltitudeMeters>
            <DistanceMeters>8137.4804168636</DistanceMeters>
          </Trackpoint>
          <Trackpoint>
            <Time>2019-01-04T11:13:04.000Z</Time>
            <Position>
              <LatitudeDegrees>36.49640223942697048187255859375</LatitudeDegrees>
              <LongitudeDegrees>-5.40550871752202510833740234375</LongitudeDegrees>
            </Position>
            <AltitudeMeters>102</AltitudeMeters>
            <DistanceMeters>8138.8242975461</DistanceMeters>
          </Trackpoint>
          <Trackpoint>
            <Time>2019-01-04T11:13:05.000Z</Time>
            <Position>
              <LatitudeDegrees>36.49640156887471675872802734375</LatitudeDegrees>
              <LongitudeDegrees>-5.40552749298512935638427734375</LongitudeDegrees>
            </Position>
            <AltitudeMeters>101.59999847412109375</AltitudeMeters>
            <DistanceMeters>8140.5081752148</DistanceMeters>
          </Trackpoint>
          <Trackpoint>
            <Time>2019-01-04T11:13:06.000Z</Time>
            <Position>
              <LatitudeDegrees>36.49640190415084362030029296875</LatitudeDegrees>
              <LongitudeDegrees>-5.40554526261985301971435546875</LongitudeDegrees>
            </Position>
            <AltitudeMeters>101</AltitudeMeters>
            <DistanceMeters>8142.0982762822</DistanceMeters>
          </Trackpoint>
          <Trackpoint>
            <Time>2019-01-04T11:13:07.000Z</Time>
            <Position>
              <LatitudeDegrees>36.4963991381227970123291015625</LatitudeDegrees>
              <LongitudeDegrees>-5.40556135587394237518310546875</LongitudeDegrees>
            </Position>
            <AltitudeMeters>100.40000152587890625</AltitudeMeters>
            <DistanceMeters>8143.570423811</DistanceMeters>
          </Trackpoint>
          <Trackpoint>
            <Time>2019-01-04T11:13:08.000Z</Time>
            <Position>
              <LatitudeDegrees>36.4963961206376552581787109375</LatitudeDegrees>
              <LongitudeDegrees>-5.4055773653090000152587890625</LongitudeDegrees>
            </Position>
            <AltitudeMeters>100</AltitudeMeters>
            <DistanceMeters>8145.0425713398</DistanceMeters>
          </Trackpoint>
          <Trackpoint>
            <Time>2019-01-04T11:13:09.000Z</Time>
            <Position>
              <LatitudeDegrees>36.49640022777020931243896484375</LatitudeDegrees>
              <LongitudeDegrees>-5.40559270419180393218994140625</LongitudeDegrees>
            </Position>
            <AltitudeMeters>99.59999847412109375</AltitudeMeters>
            <DistanceMeters>8146.489975131</DistanceMeters>
          </Trackpoint>
          <Trackpoint>
            <Time>2019-01-04T11:13:10.000Z</Time>
            <Position>
              <LatitudeDegrees>36.496406681835651397705078125</LatitudeDegrees>
              <LongitudeDegrees>-5.4056075401604175567626953125</LongitudeDegrees>
            </Position>
            <AltitudeMeters>99.1999969482421875</AltitudeMeters>
            <DistanceMeters>8147.9984774558</DistanceMeters>
          </Trackpoint>
          <Trackpoint>
            <Time>2019-01-04T11:13:11.000Z</Time>
            <Position>
              <LatitudeDegrees>36.496409364044666290283203125</LatitudeDegrees>
              <LongitudeDegrees>-5.40561952628195285797119140625</LongitudeDegrees>
            </Position>
            <AltitudeMeters>99</AltitudeMeters>
            <DistanceMeters>8149.110736631</DistanceMeters>
          </Trackpoint>
          <Trackpoint>
            <Time>2019-01-04T11:13:12.000Z</Time>
            <Position>
              <LatitudeDegrees>36.496410369873046875</LatitudeDegrees>
              <LongitudeDegrees>-5.4056315124034881591796875</LongitudeDegrees>
            </Position>
            <AltitudeMeters>98.8000030517578125</AltitudeMeters>
            <DistanceMeters>8150.1900326336</DistanceMeters>
          </Trackpoint>
          <Trackpoint>
            <Time>2019-01-04T11:13:13.000Z</Time>
            <Position>
              <LatitudeDegrees>36.496412046253681182861328125</LatitudeDegrees>
              <LongitudeDegrees>-5.4056434147059917449951171875</LongitudeDegrees>
            </Position>
            <AltitudeMeters>98.59999847412109375</AltitudeMeters>
            <DistanceMeters>8151.2735038782</DistanceMeters>
          </Trackpoint>
          <Trackpoint>
            <Time>2019-01-04T11:13:14.000Z</Time>
            <Position>
              <LatitudeDegrees>36.49641372263431549072265625</LatitudeDegrees>
              <LongitudeDegrees>-5.40565758012235164642333984375</LongitudeDegrees>
            </Position>
            <AltitudeMeters>98.1999969482421875</AltitudeMeters>
            <DistanceMeters>8152.559001443</DistanceMeters>
          </Trackpoint>
          <Trackpoint>
            <Time>2019-01-04T11:13:15.000Z</Time>
            <Position>
              <LatitudeDegrees>36.49641598574817180633544921875</LatitudeDegrees>
              <LongitudeDegrees>-5.40567367337644100189208984375</LongitudeDegrees>
            </Position>
            <AltitudeMeters>98</AltitudeMeters>
            <DistanceMeters>8154.0188295291</DistanceMeters>
          </Trackpoint>
          <Trackpoint>
            <Time>2019-01-04T11:13:16.000Z</Time>
            <Position>
              <LatitudeDegrees>36.4964169077575206756591796875</LatitudeDegrees>
              <LongitudeDegrees>-5.40569026954472064971923828125</LongitudeDegrees>
            </Position>
            <AltitudeMeters>97.8000030517578125</AltitudeMeters>
            <DistanceMeters>8155.5062328801</DistanceMeters>
          </Trackpoint>
          <Trackpoint>
            <Time>2019-01-04T11:13:17.000Z</Time>
            <Position>
              <LatitudeDegrees>36.49641866795718669891357421875</LatitudeDegrees>
              <LongitudeDegrees>-5.40570552460849285125732421875</LongitudeDegrees>
            </Position>
            <AltitudeMeters>97.59999847412109375</AltitudeMeters>
            <DistanceMeters>8156.883300799</DistanceMeters>
          </Trackpoint>
          <Trackpoint>
            <Time>2019-01-04T11:13:18.000Z</Time>
            <Position>
              <LatitudeDegrees>36.4964189194142818450927734375</LatitudeDegrees>
              <LongitudeDegrees>-5.40571776218712329864501953125</LongitudeDegrees>
            </Position>
            <AltitudeMeters>97.40000152587890625</AltitudeMeters>
            <DistanceMeters>8157.9792023307</DistanceMeters>
          </Trackpoint>
          <Trackpoint>
            <Time>2019-01-04T11:13:19.000Z</Time>
            <Position>
              <LatitudeDegrees>36.4964182488620281219482421875</LatitudeDegrees>
              <LongitudeDegrees>-5.40573385544121265411376953125</LongitudeDegrees>
            </Position>
            <AltitudeMeters>97.1999969482421875</AltitudeMeters>
            <DistanceMeters>8159.4203538085</DistanceMeters>
          </Trackpoint>
          <Trackpoint>
            <Time>2019-01-04T11:13:20.000Z</Time>
            <Position>
              <LatitudeDegrees>36.49642017669975757598876953125</LatitudeDegrees>
              <LongitudeDegrees>-5.40574978105723857879638671875</LongitudeDegrees>
            </Position>
            <AltitudeMeters>97</AltitudeMeters>
            <DistanceMeters>8160.8646348264</DistanceMeters>
          </Trackpoint>
          <Trackpoint>
            <Time>2019-01-04T11:13:21.000Z</Time>
            <Position>
              <LatitudeDegrees>36.496425457298755645751953125</LatitudeDegrees>
              <LongitudeDegrees>-5.405768640339374542236328125</LongitudeDegrees>
            </Position>
            <AltitudeMeters>96.8000030517578125</AltitudeMeters>
            <DistanceMeters>8162.6525517879</DistanceMeters>
          </Trackpoint>
          <Trackpoint>
            <Time>2019-01-04T11:13:22.000Z</Time>
            <Position>
              <LatitudeDegrees>36.49643249809741973876953125</LatitudeDegrees>
              <LongitudeDegrees>-5.40578431449830532073974609375</LongitudeDegrees>
            </Position>
            <AltitudeMeters>96.40000152587890625</AltitudeMeters>
            <DistanceMeters>8164.2595993487</DistanceMeters>
          </Trackpoint>
          <Trackpoint>
            <Time>2019-01-04T11:13:23.000Z</Time>
            <Position>
              <LatitudeDegrees>36.49644012562930583953857421875</LatitudeDegrees>
              <LongitudeDegrees>-5.40579604916274547576904296875</LongitudeDegrees>
            </Position>
            <AltitudeMeters>96.1999969482421875</AltitudeMeters>
            <DistanceMeters>8165.6101827196</DistanceMeters>
          </Trackpoint>
          <Trackpoint>
            <Time>2019-01-04T11:13:24.000Z</Time>
            <Position>
              <LatitudeDegrees>36.49644833989441394805908203125</LatitudeDegrees>
              <LongitudeDegrees>-5.4058033414185047149658203125</LongitudeDegrees>
            </Position>
            <AltitudeMeters>96</AltitudeMeters>
            <DistanceMeters>8166.7345539671</DistanceMeters>
          </Trackpoint>
          <Trackpoint>
            <Time>2019-01-04T11:13:25.000Z</Time>
            <Position>
              <LatitudeDegrees>36.49645395576953887939453125</LatitudeDegrees>
              <LongitudeDegrees>-5.40581281296908855438232421875</LongitudeDegrees>
            </Position>
            <AltitudeMeters>96</AltitudeMeters>
            <DistanceMeters>8167.7841583336</DistanceMeters>
          </Trackpoint>
          <Trackpoint>
            <Time>2019-01-04T11:13:26.000Z</Time>
            <Position>
              <LatitudeDegrees>36.49645823054015636444091796875</LatitudeDegrees>
              <LongitudeDegrees>-5.40582220070064067840576171875</LongitudeDegrees>
            </Position>
            <AltitudeMeters>95.59999847412109375</AltitudeMeters>
            <DistanceMeters>8168.7485741535</DistanceMeters>
          </Trackpoint>
          <Trackpoint>
            <Time>2019-01-04T11:13:27.000Z</Time>
            <Position>
              <LatitudeDegrees>36.49646292440593242645263671875</LatitudeDegrees>
              <LongitudeDegrees>-5.40583670139312744140625</LongitudeDegrees>
            </Position>
            <AltitudeMeters>95</AltitudeMeters>
            <DistanceMeters>8170.1484050677</DistanceMeters>
          </Trackpoint>
          <Trackpoint>
            <Time>2019-01-04T11:13:28.000Z</Time>
            <Position>
              <LatitudeDegrees>36.4964668639004230499267578125</LatitudeDegrees>
              <LongitudeDegrees>-5.40584935806691646575927734375</LongitudeDegrees>
            </Position>
            <AltitudeMeters>94.40000152587890625</AltitudeMeters>
            <DistanceMeters>8171.3653407837</DistanceMeters>
          </Trackpoint>
          <Trackpoint>
            <Time>2019-01-04T11:13:29.000Z</Time>
            <Position>
              <LatitudeDegrees>36.4964680373668670654296875</LatitudeDegrees>
              <LongitudeDegrees>-5.4058613441884517669677734375</LongitudeDegrees>
            </Position>
            <AltitudeMeters>94</AltitudeMeters>
            <DistanceMeters>8172.4404453297</DistanceMeters>
          </Trackpoint>
          <Trackpoint>
            <Time>2019-01-04T11:13:30.000Z</Time>
            <Position>
              <LatitudeDegrees>36.49646862410008907318115234375</LatitudeDegrees>
              <LongitudeDegrees>-5.4058767668902873992919921875</LongitudeDegrees>
            </Position>
            <AltitudeMeters>93.8000030517578125</AltitudeMeters>
            <DistanceMeters>8173.8240551757</DistanceMeters>
          </Trackpoint>
          <Trackpoint>
            <Time>2019-01-04T11:13:31.000Z</Time>
            <Position>
              <LatitudeDegrees>36.49646962992846965789794921875</LatitudeDegrees>
              <LongitudeDegrees>-5.405892692506313323974609375</LongitudeDegrees>
            </Position>
            <AltitudeMeters>93.59999847412109375</AltitudeMeters>
            <DistanceMeters>8175.2557769898</DistanceMeters>
          </Trackpoint>
          <Trackpoint>
            <Time>2019-01-04T11:13:32.000Z</Time>
            <Position>
              <LatitudeDegrees>36.4964685402810573577880859375</LatitudeDegrees>
              <LongitudeDegrees>-5.405909121036529541015625</LongitudeDegrees>
            </Position>
            <AltitudeMeters>93.59999847412109375</AltitudeMeters>
            <DistanceMeters>8176.7309883045</DistanceMeters>
          </Trackpoint>
          <Trackpoint>
            <Time>2019-01-04T11:13:33.000Z</Time>
            <Position>
              <LatitudeDegrees>36.496466696262359619140625</LatitudeDegrees>
              <LongitudeDegrees>-5.40592563338577747344970703125</LongitudeDegrees>
            </Position>
            <AltitudeMeters>93.40000152587890625</AltitudeMeters>
            <DistanceMeters>8178.2244503501</DistanceMeters>
          </Trackpoint>
          <Trackpoint>
            <Time>2019-01-04T11:13:34.000Z</Time>
            <Position>
              <LatitudeDegrees>36.49646443314850330352783203125</LatitudeDegrees>
              <LongitudeDegrees>-5.40594038553535938262939453125</LongitudeDegrees>
            </Position>
            <AltitudeMeters>93.40000152587890625</AltitudeMeters>
            <DistanceMeters>8179.5683310326</DistanceMeters>
          </Trackpoint>
          <Trackpoint>
            <Time>2019-01-04T11:13:35.000Z</Time>
            <Position>
              <LatitudeDegrees>36.4964635111391544342041015625</LatitudeDegrees>
              <LongitudeDegrees>-5.4059535451233386993408203125</LongitudeDegrees>
            </Position>
            <AltitudeMeters>93.1999969482421875</AltitudeMeters>
            <DistanceMeters>8180.7552143146</DistanceMeters>
          </Trackpoint>
          <Trackpoint>
            <Time>2019-01-04T11:13:36.000Z</Time>
            <Position>
              <LatitudeDegrees>36.49646057747304439544677734375</LatitudeDegrees>
              <LongitudeDegrees>-5.40596653707325458526611328125</LongitudeDegrees>
            </Position>
            <AltitudeMeters>93.1999969482421875</AltitudeMeters>
            <DistanceMeters>8181.9647069289</DistanceMeters>
          </Trackpoint>
          <Trackpoint>
            <Time>2019-01-04T11:13:37.000Z</Time>
            <Position>
              <LatitudeDegrees>36.49645722471177577972412109375</LatitudeDegrees>
              <LongitudeDegrees>-5.4059807024896144866943359375</LongitudeDegrees>
            </Position>
            <AltitudeMeters>92.8000030517578125</AltitudeMeters>
            <DistanceMeters>8183.2882759033</DistanceMeters>
          </Trackpoint>
          <Trackpoint>
            <Time>2019-01-04T11:13:38.000Z</Time>
            <Position>
              <LatitudeDegrees>36.496452949941158294677734375</LatitudeDegrees>
              <LongitudeDegrees>-5.40599537082016468048095703125</LongitudeDegrees>
            </Position>
            <AltitudeMeters>92.59999847412109375</AltitudeMeters>
            <DistanceMeters>8184.6848776762</DistanceMeters>
          </Trackpoint>
          <Trackpoint>
            <Time>2019-01-04T11:13:39.000Z</Time>
            <Position>
              <LatitudeDegrees>36.49644951336085796356201171875</LatitudeDegrees>
              <LongitudeDegrees>-5.40601112879812717437744140625</LongitudeDegrees>
            </Position>
            <AltitudeMeters>92.1999969482421875</AltitudeMeters>
            <DistanceMeters>8186.1447057622</DistanceMeters>
          </Trackpoint>
          <Trackpoint>
            <Time>2019-01-04T11:13:40.000Z</Time>
            <Position>
              <LatitudeDegrees>36.49644666351377964019775390625</LatitudeDegrees>
              <LongitudeDegrees>-5.406027138233184814453125</LongitudeDegrees>
            </Position>
            <AltitudeMeters>92</AltitudeMeters>
            <DistanceMeters>8187.6107065104</DistanceMeters>
          </Trackpoint>
          <Trackpoint>
            <Time>2019-01-04T11:13:41.000Z</Time>
            <Position>
              <LatitudeDegrees>36.49643995799124240875244140625</LatitudeDegrees>
              <LongitudeDegrees>-5.4060403816401958465576171875</LongitudeDegrees>
            </Position>
            <AltitudeMeters>91.8000030517578125</AltitudeMeters>
            <DistanceMeters>8189.0137591341</DistanceMeters>
          </Trackpoint>
          <Trackpoint>
            <Time>2019-01-04T11:13:42.000Z</Time>
            <Position>
              <LatitudeDegrees>36.4964346773922443389892578125</LatitudeDegrees>
              <LongitudeDegrees>-5.40605136193335056304931640625</LongitudeDegrees>
            </Position>
            <AltitudeMeters>91.59999847412109375</AltitudeMeters>
            <DistanceMeters>8190.1540797065</DistanceMeters>
          </Trackpoint>
          <Trackpoint>
            <Time>2019-01-04T11:13:43.000Z</Time>
            <Position>
              <LatitudeDegrees>36.49642956443130970001220703125</LatitudeDegrees>
              <LongitudeDegrees>-5.40606527589261531829833984375</LongitudeDegrees>
            </Position>
            <AltitudeMeters>91.59999847412109375</AltitudeMeters>
            <DistanceMeters>8191.5245744713</DistanceMeters>
          </Trackpoint>
          <Trackpoint>
            <Time>2019-01-04T11:13:44.000Z</Time>
            <Position>
              <LatitudeDegrees>36.49642118252813816070556640625</LatitudeDegrees>
              <LongitudeDegrees>-5.40607617236673831939697265625</LongitudeDegrees>
            </Position>
            <AltitudeMeters>91.59999847412109375</AltitudeMeters>
            <DistanceMeters>8192.8718106663</DistanceMeters>
          </Trackpoint>
          <Trackpoint>
            <Time>2019-01-04T11:13:45.000Z</Time>
            <Position>
              <LatitudeDegrees>36.49641280062496662139892578125</LatitudeDegrees>
              <LongitudeDegrees>-5.4060821235179901123046875</LongitudeDegrees>
            </Position>
            <AltitudeMeters>91.40000152587890625</AltitudeMeters>
            <DistanceMeters>8193.9427073506</DistanceMeters>
          </Trackpoint>
          <Trackpoint>
            <Time>2019-01-04T11:13:46.000Z</Time>
            <Position>
              <LatitudeDegrees>36.49640458635985851287841796875</LatitudeDegrees>
              <LongitudeDegrees>-5.40608740411698818206787109375</LongitudeDegrees>
            </Position>
            <AltitudeMeters>91</AltitudeMeters>
            <DistanceMeters>8194.9705784242</DistanceMeters>
          </Trackpoint>
          <Trackpoint>
            <Time>2019-01-04T11:13:47.000Z</Time>
            <Position>
              <LatitudeDegrees>36.49639553390443325042724609375</LatitudeDegrees>
              <LongitudeDegrees>-5.4060936905443668365478515625</LongitudeDegrees>
            </Position>
            <AltitudeMeters>90.8000030517578125</AltitudeMeters>
            <DistanceMeters>8196.1266282993</DistanceMeters>
          </Trackpoint>
          <Trackpoint>
            <Time>2019-01-04T11:13:48.000Z</Time>
            <Position>
              <LatitudeDegrees>36.49638648144900798797607421875</LatitudeDegrees>
              <LongitudeDegrees>-5.4060970433056354522705078125</LongitudeDegrees>
            </Position>
            <AltitudeMeters>90.40000152587890625</AltitudeMeters>
            <DistanceMeters>8197.1762326658</DistanceMeters>
          </Trackpoint>
          <Trackpoint>
            <Time>2019-01-04T11:13:49.000Z</Time>
            <Position>
              <LatitudeDegrees>36.49638011120259761810302734375</LatitudeDegrees>
              <LongitudeDegrees>-5.4061020724475383758544921875</LongitudeDegrees>
            </Position>
            <AltitudeMeters>90</AltitudeMeters>
            <DistanceMeters>8198.015485883</DistanceMeters>
          </Trackpoint>
          <Trackpoint>
            <Time>2019-01-04T11:13:50.000Z</Time>
            <Position>
              <LatitudeDegrees>36.49637139402329921722412109375</LatitudeDegrees>
              <LongitudeDegrees>-5.4061081074178218841552734375</LongitudeDegrees>
            </Position>
            <AltitudeMeters>89.59999847412109375</AltitudeMeters>
            <DistanceMeters>8199.1236782835</DistanceMeters>
          </Trackpoint>
          <Trackpoint>
            <Time>2019-01-04T11:13:51.000Z</Time>
            <Position>
              <LatitudeDegrees>36.496363095939159393310546875</LatitudeDegrees>
              <LongitudeDegrees>-5.406114645302295684814453125</LongitudeDegrees>
            </Position>
            <AltitudeMeters>89.1999969482421875</AltitudeMeters>
            <DistanceMeters>8200.215452111</DistanceMeters>
          </Trackpoint>
          <Trackpoint>
            <Time>2019-01-04T11:13:52.000Z</Time>
            <Position>
              <LatitudeDegrees>36.496351696550846099853515625</LatitudeDegrees>
              <LongitudeDegrees>-5.406120680272579193115234375</LongitudeDegrees>
            </Position>
            <AltitudeMeters>88.8000030517578125</AltitudeMeters>
            <DistanceMeters>8201.5925200299</DistanceMeters>
          </Trackpoint>
          <Trackpoint>
            <Time>2019-01-04T11:13:53.000Z</Time>
            <Position>
              <LatitudeDegrees>36.496340297162532806396484375</LatitudeDegrees>
              <LongitudeDegrees>-5.4061282239854335784912109375</LongitudeDegrees>
            </Position>
            <AltitudeMeters>88.8000030517578125</AltitudeMeters>
            <DistanceMeters>8203.0336715078</DistanceMeters>
          </Trackpoint>
          <Trackpoint>
            <Time>2019-01-04T11:13:54.000Z</Time>
            <Position>
              <LatitudeDegrees>36.4963285624980926513671875</LatitudeDegrees>
              <LongitudeDegrees>-5.40613509714603424072265625</LongitudeDegrees>
            </Position>
            <AltitudeMeters>88.59999847412109375</AltitudeMeters>
            <DistanceMeters>8204.4810752991</DistanceMeters>
          </Trackpoint>
          <Trackpoint>
            <Time>2019-01-04T11:13:55.000Z</Time>
            <Position>
              <LatitudeDegrees>36.496317498385906219482421875</LatitudeDegrees>
              <LongitudeDegrees>-5.40614088065922260284423828125</LongitudeDegrees>
            </Position>
            <AltitudeMeters>88.59999847412109375</AltitudeMeters>
            <DistanceMeters>8205.8182196951</DistanceMeters>
          </Trackpoint>
          <Trackpoint>
            <Time>2019-01-04T11:13:56.000Z</Time>
            <Position>
              <LatitudeDegrees>36.49630534462630748748779296875</LatitudeDegrees>
              <LongitudeDegrees>-5.4061424732208251953125</LongitudeDegrees>
            </Position>
            <AltitudeMeters>88.40000152587890625</AltitudeMeters>
            <DistanceMeters>8207.1787951877</DistanceMeters>
          </Trackpoint>
          <Trackpoint>
            <Time>2019-01-04T11:13:57.000Z</Time>
            <Position>
              <LatitudeDegrees>36.49629411287605762481689453125</LatitudeDegrees>
              <LongitudeDegrees>-5.4061438143253326416015625</LongitudeDegrees>
            </Position>
            <AltitudeMeters>88.40000152587890625</AltitudeMeters>
            <DistanceMeters>8208.4322836405</DistanceMeters>
          </Trackpoint>
          <Trackpoint>
            <Time>2019-01-04T11:13:58.000Z</Time>
            <Position>
              <LatitudeDegrees>36.4962794445455074310302734375</LatitudeDegrees>
              <LongitudeDegrees>-5.4061411321163177490234375</LongitudeDegrees>
            </Position>
            <AltitudeMeters>88.1999969482421875</AltitudeMeters>
            <DistanceMeters>8210.0809355169</DistanceMeters>
          </Trackpoint>
          <Trackpoint>
            <Time>2019-01-04T11:13:59.000Z</Time>
            <Position>
              <LatitudeDegrees>36.49626486003398895263671875</LatitudeDegrees>
              <LongitudeDegrees>-5.40614238940179347991943359375</LongitudeDegrees>
            </Position>
            <AltitudeMeters>88</AltitudeMeters>
            <DistanceMeters>8211.7075308563</DistanceMeters>
          </Trackpoint>
          <Trackpoint>
            <Time>2019-01-04T11:14:00.000Z</Time>
            <Position>
              <LatitudeDegrees>36.49624935351312160491943359375</LatitudeDegrees>
              <LongitudeDegrees>-5.4061416350305080413818359375</LongitudeDegrees>
            </Position>
            <AltitudeMeters>87.8000030517578125</AltitudeMeters>
            <DistanceMeters>8213.4363903945</DistanceMeters>
          </Trackpoint>
          <Trackpoint>
            <Time>2019-01-04T11:14:01.000Z</Time>
            <Position>
              <LatitudeDegrees>36.4962371997535228729248046875</LatitudeDegrees>
              <LongitudeDegrees>-5.40614037774503231048583984375</LongitudeDegrees>
            </Position>
            <AltitudeMeters>87.59999847412109375</AltitudeMeters>
            <DistanceMeters>8214.7936433534</DistanceMeters>
          </Trackpoint>
          <Trackpoint>
            <Time>2019-01-04T11:14:02.000Z</Time>
            <Position>
              <LatitudeDegrees>36.4962261356413364410400390625</LatitudeDegrees>
              <LongitudeDegrees>-5.40613937191665172576904296875</LongitudeDegrees>
            </Position>
            <AltitudeMeters>87.40000152587890625</AltitudeMeters>
            <DistanceMeters>8216.025330344</DistanceMeters>
          </Trackpoint>
          <Trackpoint>
            <Time>2019-01-04T11:14:03.000Z</Time>
            <Position>
              <LatitudeDegrees>36.49621565826237201690673828125</LatitudeDegrees>
              <LongitudeDegrees>-5.40614641271531581878662109375</LongitudeDegrees>
            </Position>
            <AltitudeMeters>87.1999969482421875</AltitudeMeters>
            <DistanceMeters>8217.3488993184</DistanceMeters>
          </Trackpoint>
          <Trackpoint>
            <Time>2019-01-04T11:14:04.000Z</Time>
            <Position>
              <LatitudeDegrees>36.49620593525469303131103515625</LatitudeDegrees>
              <LongitudeDegrees>-5.4061473347246646881103515625</LongitudeDegrees>
            </Position>
            <AltitudeMeters>87</AltitudeMeters>
            <DistanceMeters>8218.4323705629</DistanceMeters>
          </Trackpoint>
          <Trackpoint>
            <Time>2019-01-04T11:14:05.000Z</Time>
            <Position>
              <LatitudeDegrees>36.4961971342563629150390625</LatitudeDegrees>
              <LongitudeDegrees>-5.4061466641724109649658203125</LongitudeDegrees>
            </Position>
            <AltitudeMeters>86.8000030517578125</AltitudeMeters>
            <DistanceMeters>8219.4107304676</DistanceMeters>
          </Trackpoint>
          <Trackpoint>
            <Time>2019-01-04T11:14:06.000Z</Time>
            <Position>
              <LatitudeDegrees>36.49618682451546192169189453125</LatitudeDegrees>
              <LongitudeDegrees>-5.40614775381982326507568359375</LongitudeDegrees>
            </Position>
            <AltitudeMeters>86.40000152587890625</AltitudeMeters>
            <DistanceMeters>8220.5589426261</DistanceMeters>
          </Trackpoint>
          <Trackpoint>
            <Time>2019-01-04T11:14:07.000Z</Time>
            <Position>
              <LatitudeDegrees>36.49617441929876804351806640625</LatitudeDegrees>
              <LongitudeDegrees>-5.40614658035337924957275390625</LongitudeDegrees>
            </Position>
            <AltitudeMeters>86.1999969482421875</AltitudeMeters>
            <DistanceMeters>8221.9425524721</DistanceMeters>
          </Trackpoint>
          <Trackpoint>
            <Time>2019-01-04T11:14:08.000Z</Time>
            <Position>
              <LatitudeDegrees>36.49616234935820102691650390625</LatitudeDegrees>
              <LongitudeDegrees>-5.4061439819633960723876953125</LongitudeDegrees>
            </Position>
            <AltitudeMeters>86.1999969482421875</AltitudeMeters>
            <DistanceMeters>8223.3064424044</DistanceMeters>
          </Trackpoint>
          <Trackpoint>
            <Time>2019-01-04T11:14:09.000Z</Time>
            <Position>
              <LatitudeDegrees>36.496153213083744049072265625</LatitudeDegrees>
              <LongitudeDegrees>-5.40614373050630092620849609375</LongitudeDegrees>
            </Position>
            <AltitudeMeters>86</AltitudeMeters>
            <DistanceMeters>8224.3210500698</DistanceMeters>
          </Trackpoint>
          <Trackpoint>
            <Time>2019-01-04T11:14:10.000Z</Time>
            <Position>
              <LatitudeDegrees>36.49614281952381134033203125</LatitudeDegrees>
              <LongitudeDegrees>-5.40614188648760318756103515625</LongitudeDegrees>
            </Position>
            <AltitudeMeters>85.8000030517578125</AltitudeMeters>
            <DistanceMeters>8225.4887578856</DistanceMeters>
          </Trackpoint>
          <Trackpoint>
            <Time>2019-01-04T11:14:11.000Z</Time>
            <Position>
              <LatitudeDegrees>36.49613318033516407012939453125</LatitudeDegrees>
              <LongitudeDegrees>-5.40614339523017406463623046875</LongitudeDegrees>
            </Position>
            <AltitudeMeters>85.59999847412109375</AltitudeMeters>
            <DistanceMeters>8226.5722291301</DistanceMeters>
          </Trackpoint>
          <Trackpoint>
            <Time>2019-01-04T11:14:12.000Z</Time>
            <Position>
              <LatitudeDegrees>36.49612379260361194610595703125</LatitudeDegrees>
              <LongitudeDegrees>-5.40614088065922260284423828125</LongitudeDegrees>
            </Position>
            <AltitudeMeters>85.40000152587890625</AltitudeMeters>
            <DistanceMeters>8227.6431258144</DistanceMeters>
          </Trackpoint>
          <Trackpoint>
            <Time>2019-01-04T11:14:13.000Z</Time>
            <Position>
              <LatitudeDegrees>36.49611608125269412994384765625</LatitudeDegrees>
              <LongitudeDegrees>-5.40614289231598377227783203125</LongitudeDegrees>
            </Position>
            <AltitudeMeters>85.1999969482421875</AltitudeMeters>
            <DistanceMeters>8228.5243673103</DistanceMeters>
          </Trackpoint>
          <Trackpoint>
            <Time>2019-01-04T11:14:14.000Z</Time>
            <Position>
              <LatitudeDegrees>36.49610619060695171356201171875</LatitudeDegrees>
              <LongitudeDegrees>-5.40614448487758636474609375</LongitudeDegrees>
            </Position>
            <AltitudeMeters>85</AltitudeMeters>
            <DistanceMeters>8229.6325597107</DistanceMeters>
          </Trackpoint>
          <Trackpoint>
            <Time>2019-01-04T11:14:15.000Z</Time>
            <Position>
              <LatitudeDegrees>36.49609797634184360504150390625</LatitudeDegrees>
              <LongitudeDegrees>-5.40614741854369640350341796875</LongitudeDegrees>
            </Position>
            <AltitudeMeters>84.59999847412109375</AltitudeMeters>
            <DistanceMeters>8230.5828268544</DistanceMeters>
          </Trackpoint>
          <Trackpoint>
            <Time>2019-01-04T11:14:16.000Z</Time>
            <Position>
              <LatitudeDegrees>36.49609160609543323516845703125</LatitudeDegrees>
              <LongitudeDegrees>-5.40615479461848735809326171875</LongitudeDegrees>
            </Position>
            <AltitudeMeters>84.1999969482421875</AltitudeMeters>
            <DistanceMeters>8231.5519129962</DistanceMeters>
          </Trackpoint>
          <Trackpoint>
            <Time>2019-01-04T11:14:17.000Z</Time>
            <Position>
              <LatitudeDegrees>36.49608339183032512664794921875</LatitudeDegrees>
              <LongitudeDegrees>-5.40616200305521488189697265625</LongitudeDegrees>
            </Position>
            <AltitudeMeters>84</AltitudeMeters>
            <DistanceMeters>8232.6722614356</DistanceMeters>
          </Trackpoint>
          <Trackpoint>
            <Time>2019-01-04T11:14:18.000Z</Time>
            <Position>
              <LatitudeDegrees>36.4960745908319950103759765625</LatitudeDegrees>
              <LongitudeDegrees>-5.4061694629490375518798828125</LongitudeDegrees>
            </Position>
            <AltitudeMeters>83.59999847412109375</AltitudeMeters>
            <DistanceMeters>8233.8515119486</DistanceMeters>
          </Trackpoint>
          <Trackpoint>
            <Time>2019-01-04T11:14:19.000Z</Time>
            <Position>
              <LatitudeDegrees>36.4960648678243160247802734375</LatitudeDegrees>
              <LongitudeDegrees>-5.40618203580379486083984375</LongitudeDegrees>
            </Position>
            <AltitudeMeters>83.1999969482421875</AltitudeMeters>
            <DistanceMeters>8235.4129601994</DistanceMeters>
          </Trackpoint>
          <Trackpoint>
            <Time>2019-01-04T11:14:20.000Z</Time>
            <Position>
              <LatitudeDegrees>36.49605095386505126953125</LatitudeDegrees>
              <LongitudeDegrees>-5.40618681348860263824462890625</LongitudeDegrees>
            </Position>
            <AltitudeMeters>83</AltitudeMeters>
            <DistanceMeters>8237.0200077603</DistanceMeters>
          </Trackpoint>
          <Trackpoint>
            <Time>2019-01-04T11:14:21.000Z</Time>
            <Position>
              <LatitudeDegrees>36.49603913538157939910888671875</LatitudeDegrees>
              <LongitudeDegrees>-5.40619016624987125396728515625</LongitudeDegrees>
            </Position>
            <AltitudeMeters>82.8000030517578125</AltitudeMeters>
            <DistanceMeters>8238.3705911312</DistanceMeters>
          </Trackpoint>
          <Trackpoint>
            <Time>2019-01-04T11:14:22.000Z</Time>
            <Position>
              <LatitudeDegrees>36.49602622725069522857666015625</LatitudeDegrees>
              <LongitudeDegrees>-5.40619284845888614654541015625</LongitudeDegrees>
            </Position>
            <AltitudeMeters>82.59999847412109375</AltitudeMeters>
            <DistanceMeters>8239.8273230778</DistanceMeters>
          </Trackpoint>
          <Trackpoint>
            <Time>2019-01-04T11:14:23.000Z</Time>
            <Position>
              <LatitudeDegrees>36.49601499550044536590576171875</LatitudeDegrees>
              <LongitudeDegrees>-5.40619737468659877777099609375</LongitudeDegrees>
            </Position>
            <AltitudeMeters>82.40000152587890625</AltitudeMeters>
            <DistanceMeters>8241.1440518567</DistanceMeters>
          </Trackpoint>
          <Trackpoint>
            <Time>2019-01-04T11:14:24.000Z</Time>
            <Position>
              <LatitudeDegrees>36.49600510485470294952392578125</LatitudeDegrees>
              <LongitudeDegrees>-5.4062033258378505706787109375</LongitudeDegrees>
            </Position>
            <AltitudeMeters>82.1999969482421875</AltitudeMeters>
            <DistanceMeters>8242.3720676409</DistanceMeters>
          </Trackpoint>
          <Trackpoint>
            <Time>2019-01-04T11:14:25.000Z</Time>
            <Position>
              <LatitudeDegrees>36.4959951303899288177490234375</LatitudeDegrees>
              <LongitudeDegrees>-5.4062055051326751708984375</LongitudeDegrees>
            </Position>
            <AltitudeMeters>82</AltitudeMeters>
            <DistanceMeters>8243.5044416317</DistanceMeters>
          </Trackpoint>
          <Trackpoint>
            <Time>2019-01-04T11:14:26.000Z</Time>
            <Position>
              <LatitudeDegrees>36.4959880895912647247314453125</LatitudeDegrees>
              <LongitudeDegrees>-5.406206510961055755615234375</LongitudeDegrees>
            </Position>
            <AltitudeMeters>81.59999847412109375</AltitudeMeters>
            <DistanceMeters>8244.2937928049</DistanceMeters>
          </Trackpoint>
          <Trackpoint>
            <Time>2019-01-04T11:14:27.000Z</Time>
            <Position>
              <LatitudeDegrees>36.495979540050029754638671875</LatitudeDegrees>
              <LongitudeDegrees>-5.4062083549797534942626953125</LongitudeDegrees>
            </Position>
            <AltitudeMeters>81.40000152587890625</AltitudeMeters>
            <DistanceMeters>8245.2628789466</DistanceMeters>
          </Trackpoint>
          <Trackpoint>
            <Time>2019-01-04T11:14:28.000Z</Time>
            <Position>
              <LatitudeDegrees>36.49597006849944591522216796875</LatitudeDegrees>
              <LongitudeDegrees>-5.40621179156005382537841796875</LongitudeDegrees>
            </Position>
            <AltitudeMeters>80.8000030517578125</AltitudeMeters>
            <DistanceMeters>8246.3546527742</DistanceMeters>
          </Trackpoint>
          <Trackpoint>
            <Time>2019-01-04T11:14:29.000Z</Time>
            <Position>
              <LatitudeDegrees>36.49595850147306919097900390625</LatitudeDegrees>
              <LongitudeDegrees>-5.4062153957784175872802734375</LongitudeDegrees>
            </Position>
            <AltitudeMeters>80.1999969482421875</AltitudeMeters>
            <DistanceMeters>8247.6850267754</DistanceMeters>
          </Trackpoint>
          <Trackpoint>
            <Time>2019-01-04T11:14:30.000Z</Time>
            <Position>
              <LatitudeDegrees>36.49594701826572418212890625</LatitudeDegrees>
              <LongitudeDegrees>-5.40621430613100528717041015625</LongitudeDegrees>
            </Position>
            <AltitudeMeters>79.8000030517578125</AltitudeMeters>
            <DistanceMeters>8248.9670072405</DistanceMeters>
          </Trackpoint>
          <Trackpoint>
            <Time>2019-01-04T11:14:31.000Z</Time>
            <Position>
              <LatitudeDegrees>36.49593092501163482666015625</LatitudeDegrees>
              <LongitudeDegrees>-5.4062013141810894012451171875</LongitudeDegrees>
            </Position>
            <AltitudeMeters>79.40000152587890625</AltitudeMeters>
            <DistanceMeters>8251.100351687</DistanceMeters>
          </Trackpoint>
          <Trackpoint>
            <Time>2019-01-04T11:14:32.000Z</Time>
            <Position>
              <LatitudeDegrees>36.49592463858425617218017578125</LatitudeDegrees>
              <LongitudeDegrees>-5.40618899278342723846435546875</LongitudeDegrees>
            </Position>
            <AltitudeMeters>79</AltitudeMeters>
            <DistanceMeters>8252.4032923501</DistanceMeters>
          </Trackpoint>
          <Trackpoint>
            <Time>2019-01-04T11:14:33.000Z</Time>
            <Position>
              <LatitudeDegrees>36.495919860899448394775390625</LatitudeDegrees>
              <LongitudeDegrees>-5.4061733186244964599609375</LongitudeDegrees>
            </Position>
            <AltitudeMeters>79</AltitudeMeters>
            <DistanceMeters>8253.90579663</DistanceMeters>
          </Trackpoint>
          <Trackpoint>
            <Time>2019-01-04T11:14:34.000Z</Time>
            <Position>
              <LatitudeDegrees>36.495916508138179779052734375</LatitudeDegrees>
              <LongitudeDegrees>-5.406158231198787689208984375</LongitudeDegrees>
            </Position>
            <AltitudeMeters>78.8000030517578125</AltitudeMeters>
            <DistanceMeters>8255.3088492536</DistanceMeters>
          </Trackpoint>
          <Trackpoint>
            <Time>2019-01-04T11:14:35.000Z</Time>
            <Position>
              <LatitudeDegrees>36.49591458030045032501220703125</LatitudeDegrees>
              <LongitudeDegrees>-5.4061416350305080413818359375</LongitudeDegrees>
            </Position>
            <AltitudeMeters>78.8000030517578125</AltitudeMeters>
            <DistanceMeters>8256.8113535335</DistanceMeters>
          </Trackpoint>
          <Trackpoint>
            <Time>2019-01-04T11:14:36.000Z</Time>
            <Position>
              <LatitudeDegrees>36.49591340683400630950927734375</LatitudeDegrees>
              <LongitudeDegrees>-5.40612780489027500152587890625</LongitudeDegrees>
            </Position>
            <AltitudeMeters>78.59999847412109375</AltitudeMeters>
            <DistanceMeters>8258.0539890681</DistanceMeters>
          </Trackpoint>
          <Trackpoint>
            <Time>2019-01-04T11:14:37.000Z</Time>
            <Position>
              <LatitudeDegrees>36.4959155023097991943359375</LatitudeDegrees>
              <LongitudeDegrees>-5.40611757896840572357177734375</LongitudeDegrees>
            </Position>
            <AltitudeMeters>78.59999847412109375</AltitudeMeters>
            <DistanceMeters>8258.9947055459</DistanceMeters>
          </Trackpoint>
          <Trackpoint>
            <Time>2019-01-04T11:14:38.000Z</Time>
            <Position>
              <LatitudeDegrees>36.4959213696420192718505859375</LatitudeDegrees>
              <LongitudeDegrees>-5.4061087779700756072998046875</LongitudeDegrees>
            </Position>
            <AltitudeMeters>78.40000152587890625</AltitudeMeters>
            <DistanceMeters>8260.0181745818</DistanceMeters>
          </Trackpoint>
          <Trackpoint>
            <Time>2019-01-04T11:14:39.000Z</Time>
            <Position>
              <LatitudeDegrees>36.4959250576794147491455078125</LatitudeDegrees>
              <LongitudeDegrees>-5.4060995578765869140625</LongitudeDegrees>
            </Position>
            <AltitudeMeters>78</AltitudeMeters>
            <DistanceMeters>8260.9394927601</DistanceMeters>
          </Trackpoint>
          <Trackpoint>
            <Time>2019-01-04T11:14:40.000Z</Time>
            <Position>
              <LatitudeDegrees>36.4959275722503662109375</LatitudeDegrees>
              <LongitudeDegrees>-5.40608991868793964385986328125</LongitudeDegrees>
            </Position>
            <AltitudeMeters>77.8000030517578125</AltitudeMeters>
            <DistanceMeters>8261.840995328</DistanceMeters>
          </Trackpoint>
          <Trackpoint>
            <Time>2019-01-04T11:14:41.000Z</Time>
            <Position>
              <LatitudeDegrees>36.4959284104406833648681640625</LatitudeDegrees>
              <LongitudeDegrees>-5.4060767590999603271484375</LongitudeDegrees>
            </Position>
            <AltitudeMeters>77.40000152587890625</AltitudeMeters>
            <DistanceMeters>8263.0240683811</DistanceMeters>
          </Trackpoint>
          <Trackpoint>
            <Time>2019-01-04T11:14:42.000Z</Time>
            <Position>
              <LatitudeDegrees>36.49593167938292026519775390625</LatitudeDegrees>
              <LongitudeDegrees>-5.40606343187391757965087890625</LongitudeDegrees>
            </Position>
            <AltitudeMeters>77</AltitudeMeters>
            <DistanceMeters>8264.2703320564</DistanceMeters>
          </Trackpoint>
          <Trackpoint>
            <Time>2019-01-04T11:14:43.000Z</Time>
            <Position>
              <LatitudeDegrees>36.4959347806870937347412109375</LatitudeDegrees>
              <LongitudeDegrees>-5.4060551337897777557373046875</LongitudeDegrees>
            </Position>
            <AltitudeMeters>76.59999847412109375</AltitudeMeters>
            <DistanceMeters>8265.0877827624</DistanceMeters>
          </Trackpoint>
          <Trackpoint>
            <Time>2019-01-04T11:14:44.000Z</Time>
            <Position>
              <LatitudeDegrees>36.495937965810298919677734375</LatitudeDegrees>
              <LongitudeDegrees>-5.40604599751532077789306640625</LongitudeDegrees>
            </Position>
            <AltitudeMeters>76.1999969482421875</AltitudeMeters>
            <DistanceMeters>8265.9792123598</DistanceMeters>
          </Trackpoint>
          <Trackpoint>
            <Time>2019-01-04T11:14:45.000Z</Time>
            <Position>
              <LatitudeDegrees>36.4959388040006160736083984375</LatitudeDegrees>
              <LongitudeDegrees>-5.40603375993669033050537109375</LongitudeDegrees>
            </Position>
            <AltitudeMeters>76.1999969482421875</AltitudeMeters>
            <DistanceMeters>8267.0751138914</DistanceMeters>
          </Trackpoint>
          <Trackpoint>
            <Time>2019-01-04T11:14:46.000Z</Time>
            <Position>
              <LatitudeDegrees>36.495946682989597320556640625</LatitudeDegrees>
              <LongitudeDegrees>-5.406027473509311676025390625</LongitudeDegrees>
            </Position>
            <AltitudeMeters>75.8000030517578125</AltitudeMeters>
            <DistanceMeters>8268.116079392</DistanceMeters>
          </Trackpoint>
          <Trackpoint>
            <Time>2019-01-04T11:14:47.000Z</Time>
            <Position>
              <LatitudeDegrees>36.49595079012215137481689453125</LatitudeDegrees>
              <LongitudeDegrees>-5.4060192592442035675048828125</LongitudeDegrees>
            </Position>
            <AltitudeMeters>75.59999847412109375</AltitudeMeters>
            <DistanceMeters>8268.9818139615</DistanceMeters>
          </Trackpoint>
          <Trackpoint>
            <Time>2019-01-04T11:14:48.000Z</Time>
            <Position>
              <LatitudeDegrees>36.49595799855887889862060546875</LatitudeDegrees>
              <LongitudeDegrees>-5.406012050807476043701171875</LongitudeDegrees>
            </Position>
            <AltitudeMeters>75.40000152587890625</AltitudeMeters>
            <DistanceMeters>8270.0096850351</DistanceMeters>
          </Trackpoint>
          <Trackpoint>
            <Time>2019-01-04T11:14:49.000Z</Time>
            <Position>
              <LatitudeDegrees>36.49596369825303554534912109375</LatitudeDegrees>
              <LongitudeDegrees>-5.40600140579044818878173828125</LongitudeDegrees>
            </Position>
            <AltitudeMeters>75.1999969482421875</AltitudeMeters>
            <DistanceMeters>8271.1500056075</DistanceMeters>
          </Trackpoint>
          <Trackpoint>
            <Time>2019-01-04T11:14:50.000Z</Time>
            <Position>
              <LatitudeDegrees>36.49596621282398700714111328125</LatitudeDegrees>
              <LongitudeDegrees>-5.40599017404019832611083984375</LongitudeDegrees>
            </Position>
            <AltitudeMeters>74.8000030517578125</AltitudeMeters>
            <DistanceMeters>8272.199609974</DistanceMeters>
          </Trackpoint>
          <Trackpoint>
            <Time>2019-01-04T11:14:51.000Z</Time>
            <Position>
              <LatitudeDegrees>36.49597258307039737701416015625</LatitudeDegrees>
              <LongitudeDegrees>-5.40598346851766109466552734375</LongitudeDegrees>
            </Position>
            <AltitudeMeters>74.40000152587890625</AltitudeMeters>
            <DistanceMeters>8273.1306778226</DistanceMeters>
          </Trackpoint>
          <Trackpoint>
            <Time>2019-01-04T11:14:52.000Z</Time>
            <Position>
              <LatitudeDegrees>36.49597576819360256195068359375</LatitudeDegrees>
              <LongitudeDegrees>-5.405973829329013824462890625</LongitudeDegrees>
            </Position>
            <AltitudeMeters>74</AltitudeMeters>
            <DistanceMeters>8274.0617456711</DistanceMeters>
          </Trackpoint>
          <Trackpoint>
            <Time>2019-01-04T11:14:53.000Z</Time>
            <Position>
              <LatitudeDegrees>36.49597593583166599273681640625</LatitudeDegrees>
              <LongitudeDegrees>-5.40596050210297107696533203125</LongitudeDegrees>
            </Position>
            <AltitudeMeters>73.59999847412109375</AltitudeMeters>
            <DistanceMeters>8275.2562129491</DistanceMeters>
          </Trackpoint>
          <Trackpoint>
            <Time>2019-01-04T11:14:54.000Z</Time>
            <Position>
              <LatitudeDegrees>36.49597208015620708465576171875</LatitudeDegrees>
              <LongitudeDegrees>-5.4059475101530551910400390625</LongitudeDegrees>
            </Position>
            <AltitudeMeters>73.1999969482421875</AltitudeMeters>
            <DistanceMeters>8276.4988484837</DistanceMeters>
          </Trackpoint>
          <Trackpoint>
            <Time>2019-01-04T11:14:55.000Z</Time>
            <Position>
              <LatitudeDegrees>36.4959683082997798919677734375</LatitudeDegrees>
              <LongitudeDegrees>-5.40593393146991729736328125</LongitudeDegrees>
            </Position>
            <AltitudeMeters>73</AltitudeMeters>
            <DistanceMeters>8277.7878535519</DistanceMeters>
          </Trackpoint>
          <Trackpoint>
            <Time>2019-01-04T11:14:56.000Z</Time>
            <Position>
              <LatitudeDegrees>36.49596487171947956085205078125</LatitudeDegrees>
              <LongitudeDegrees>-5.4059186764061450958251953125</LongitudeDegrees>
            </Position>
            <AltitudeMeters>72.8000030517578125</AltitudeMeters>
            <DistanceMeters>8279.2005272205</DistanceMeters>
          </Trackpoint>
          <Trackpoint>
            <Time>2019-01-04T11:14:57.000Z</Time>
            <Position>
              <LatitudeDegrees>36.4959656260907649993896484375</LatitudeDegrees>
              <LongitudeDegrees>-5.40589772164821624755859375</LongitudeDegrees>
            </Position>
            <AltitudeMeters>72.40000152587890625</AltitudeMeters>
            <DistanceMeters>8281.0771544646</DistanceMeters>
          </Trackpoint>
          <Trackpoint>
            <Time>2019-01-04T11:14:58.000Z</Time>
            <Position>
              <LatitudeDegrees>36.49596235714852809906005859375</LatitudeDegrees>
              <LongitudeDegrees>-5.40588053874671459197998046875</LongitudeDegrees>
            </Position>
            <AltitudeMeters>72.1999969482421875</AltitudeMeters>
            <DistanceMeters>8282.655856811</DistanceMeters>
          </Trackpoint>
          <Trackpoint>
            <Time>2019-01-04T11:14:59.000Z</Time>
            <Position>
              <LatitudeDegrees>36.49596621282398700714111328125</LatitudeDegrees>
              <LongitudeDegrees>-5.40586880408227443695068359375</LongitudeDegrees>
            </Position>
            <AltitudeMeters>72</AltitudeMeters>
            <DistanceMeters>8283.7882308018</DistanceMeters>
          </Trackpoint>
          <Trackpoint>
            <Time>2019-01-04T11:15:00.000Z</Time>
            <Position>
              <LatitudeDegrees>36.495962776243686676025390625</LatitudeDegrees>
              <LongitudeDegrees>-5.40585371665656566619873046875</LongitudeDegrees>
            </Position>
            <AltitudeMeters>72</AltitudeMeters>
            <DistanceMeters>8285.1912834255</DistanceMeters>
          </Trackpoint>
          <Trackpoint>
            <Time>2019-01-04T11:15:01.000Z</Time>
            <Position>
              <LatitudeDegrees>36.4959584176540374755859375</LatitudeDegrees>
              <LongitudeDegrees>-5.40584097616374492645263671875</LongitudeDegrees>
            </Position>
            <AltitudeMeters>71.8000030517578125</AltitudeMeters>
            <DistanceMeters>8286.4302801952</DistanceMeters>
          </Trackpoint>
          <Trackpoint>
            <Time>2019-01-04T11:15:02.000Z</Time>
            <Position>
              <LatitudeDegrees>36.49595347233116626739501953125</LatitudeDegrees>
              <LongitudeDegrees>-5.4058254696428775787353515625</LongitudeDegrees>
            </Position>
            <AltitudeMeters>71.59999847412109375</AltitudeMeters>
            <DistanceMeters>8287.9207159722</DistanceMeters>
          </Trackpoint>
          <Trackpoint>
            <Time>2019-01-04T11:15:03.000Z</Time>
            <Position>
              <LatitudeDegrees>36.49595238268375396728515625</LatitudeDegrees>
              <LongitudeDegrees>-5.40581398643553256988525390625</LongitudeDegrees>
            </Position>
            <AltitudeMeters>71.59999847412109375</AltitudeMeters>
            <DistanceMeters>8288.9529703112</DistanceMeters>
          </Trackpoint>
          <Trackpoint>
            <Time>2019-01-04T11:15:04.000Z</Time>
            <Position>
              <LatitudeDegrees>36.49594559334218502044677734375</LatitudeDegrees>
              <LongitudeDegrees>-5.4057983122766017913818359375</LongitudeDegrees>
            </Position>
            <AltitudeMeters>71.40000152587890625</AltitudeMeters>
            <DistanceMeters>8290.548740206</DistanceMeters>
          </Trackpoint>
          <Trackpoint>
            <Time>2019-01-04T11:15:05.000Z</Time>
            <Position>
              <LatitudeDegrees>36.49594794027507305145263671875</LatitudeDegrees>
              <LongitudeDegrees>-5.4057849012315273284912109375</LongitudeDegrees>
            </Position>
            <AltitudeMeters>71.1999969482421875</AltitudeMeters>
            <DistanceMeters>8291.7804271965</DistanceMeters>
          </Trackpoint>
          <Trackpoint>
            <Time>2019-01-04T11:15:06.000Z</Time>
            <Position>
              <LatitudeDegrees>36.49594894610345363616943359375</LatitudeDegrees>
              <LongitudeDegrees>-5.40577006526291370391845703125</LongitudeDegrees>
            </Position>
            <AltitudeMeters>70.8000030517578125</AltitudeMeters>
            <DistanceMeters>8293.1141906911</DistanceMeters>
          </Trackpoint>
          <Trackpoint>
            <Time>2019-01-04T11:15:07.000Z</Time>
            <Position>
              <LatitudeDegrees>36.495951376855373382568359375</LatitudeDegrees>
              <LongitudeDegrees>-5.40575766004621982574462890625</LongitudeDegrees>
            </Position>
            <AltitudeMeters>70.59999847412109375</AltitudeMeters>
            <DistanceMeters>8294.2545112635</DistanceMeters>
          </Trackpoint>
          <Trackpoint>
            <Time>2019-01-04T11:15:08.000Z</Time>
            <Position>
              <LatitudeDegrees>36.495954059064388275146484375</LatitudeDegrees>
              <LongitudeDegrees>-5.40574550628662109375</LongitudeDegrees>
            </Position>
            <AltitudeMeters>70.1999969482421875</AltitudeMeters>
            <DistanceMeters>8295.378882511</DistanceMeters>
          </Trackpoint>
          <Trackpoint>
            <Time>2019-01-04T11:15:09.000Z</Time>
            <Position>
              <LatitudeDegrees>36.49595112539827823638916015625</LatitudeDegrees>
              <LongitudeDegrees>-5.40572941303253173828125</LongitudeDegrees>
            </Position>
            <AltitudeMeters>69.8000030517578125</AltitudeMeters>
            <DistanceMeters>8296.8510300398</DistanceMeters>
          </Trackpoint>
          <Trackpoint>
            <Time>2019-01-04T11:15:10.000Z</Time>
            <Position>
              <LatitudeDegrees>36.49595481343567371368408203125</LatitudeDegrees>
              <LongitudeDegrees>-5.405717678368091583251953125</LongitudeDegrees>
            </Position>
            <AltitudeMeters>69.40000152587890625</AltitudeMeters>
            <DistanceMeters>8297.9794097536</DistanceMeters>
          </Trackpoint>
          <Trackpoint>
            <Time>2019-01-04T11:15:11.000Z</Time>
            <Position>
              <LatitudeDegrees>36.4959622733294963836669921875</LatitudeDegrees>
              <LongitudeDegrees>-5.40570728480815887451171875</LongitudeDegrees>
            </Position>
            <AltitudeMeters>68.8000030517578125</AltitudeMeters>
            <DistanceMeters>8299.2292910379</DistanceMeters>
          </Trackpoint>
          <Trackpoint>
            <Time>2019-01-04T11:15:12.000Z</Time>
            <Position>
              <LatitudeDegrees>36.49596587754786014556884765625</LatitudeDegrees>
              <LongitudeDegrees>-5.4056957177817821502685546875</LongitudeDegrees>
            </Position>
            <AltitudeMeters>68.40000152587890625</AltitudeMeters>
            <DistanceMeters>8300.3456021725</DistanceMeters>
          </Trackpoint>
          <Trackpoint>
            <Time>2019-01-04T11:15:13.000Z</Time>
            <Position>
              <LatitudeDegrees>36.4959689788520336151123046875</LatitudeDegrees>
              <LongitudeDegrees>-5.40568155236542224884033203125</LongitudeDegrees>
            </Position>
            <AltitudeMeters>68</AltitudeMeters>
            <DistanceMeters>8301.6623309514</DistanceMeters>
          </Trackpoint>
          <Trackpoint>
            <Time>2019-01-04T11:15:14.000Z</Time>
            <Position>
              <LatitudeDegrees>36.49597107432782649993896484375</LatitudeDegrees>
              <LongitudeDegrees>-5.40566780604422092437744140625</LongitudeDegrees>
            </Position>
            <AltitudeMeters>67.59999847412109375</AltitudeMeters>
            <DistanceMeters>8302.9158194042</DistanceMeters>
          </Trackpoint>
          <Trackpoint>
            <Time>2019-01-04T11:15:15.000Z</Time>
            <Position>
              <LatitudeDegrees>36.49597073905169963836669921875</LatitudeDegrees>
              <LongitudeDegrees>-5.405656993389129638671875</LongitudeDegrees>
            </Position>
            <AltitudeMeters>67.40000152587890625</AltitudeMeters>
            <DistanceMeters>8303.884905546</DistanceMeters>
          </Trackpoint>
          <Trackpoint>
            <Time>2019-01-04T11:15:16.000Z</Time>
            <Position>
              <LatitudeDegrees>36.4959679730236530303955078125</LatitudeDegrees>
              <LongitudeDegrees>-5.40564768947660923004150390625</LongitudeDegrees>
            </Position>
            <AltitudeMeters>67.1999969482421875</AltitudeMeters>
            <DistanceMeters>8304.7712557311</DistanceMeters>
          </Trackpoint>
          <Trackpoint>
            <Time>2019-01-04T11:15:17.000Z</Time>
            <Position>
              <LatitudeDegrees>36.4959656260907649993896484375</LatitudeDegrees>
              <LongitudeDegrees>-5.4056410677731037139892578125</LongitudeDegrees>
            </Position>
            <AltitudeMeters>67.1999969482421875</AltitudeMeters>
            <DistanceMeters>8305.4157582651</DistanceMeters>
          </Trackpoint>
          <Trackpoint>
            <Time>2019-01-04T11:15:18.000Z</Time>
            <Position>
              <LatitudeDegrees>36.4959616027772426605224609375</LatitudeDegrees>
              <LongitudeDegrees>-5.40563846938312053680419921875</LongitudeDegrees>
            </Position>
            <AltitudeMeters>67.1999969482421875</AltitudeMeters>
            <DistanceMeters>8305.9185923734</DistanceMeters>
          </Trackpoint>
          <Trackpoint>
            <Time>2019-01-04T11:15:19.000Z</Time>
            <Position>
              <LatitudeDegrees>36.49596068076789379119873046875</LatitudeDegrees>
              <LongitudeDegrees>-5.405635870993137359619140625</LongitudeDegrees>
            </Position>
            <AltitudeMeters>67.1999969482421875</AltitudeMeters>
            <DistanceMeters>8306.1513593356</DistanceMeters>
          </Trackpoint>
          <Trackpoint>
            <Time>2019-01-04T11:15:20.000Z</Time>
            <Position>
              <LatitudeDegrees>36.49593436159193515777587890625</LatitudeDegrees>
              <LongitudeDegrees>-5.40560913272202014923095703125</LongitudeDegrees>
            </Position>
            <AltitudeMeters>67</AltitudeMeters>
            <DistanceMeters>8309.9345684447</DistanceMeters>
          </Trackpoint>
          <Trackpoint>
            <Time>2019-01-04T11:15:21.000Z</Time>
            <Position>
              <LatitudeDegrees>36.4959253929555416107177734375</LatitudeDegrees>
              <LongitudeDegrees>-5.40560175664722919464111328125</LongitudeDegrees>
            </Position>
            <AltitudeMeters>66.59999847412109375</AltitudeMeters>
            <DistanceMeters>8311.1328097203</DistanceMeters>
          </Trackpoint>
          <Trackpoint>
            <Time>2019-01-04T11:15:22.000Z</Time>
            <Position>
              <LatitudeDegrees>36.4959233812987804412841796875</LatitudeDegrees>
              <LongitudeDegrees>-5.40559706278145313262939453125</LongitudeDegrees>
            </Position>
            <AltitudeMeters>66.40000152587890625</AltitudeMeters>
            <DistanceMeters>8311.5983436446</DistanceMeters>
          </Trackpoint>
          <Trackpoint>
            <Time>2019-01-04T11:15:23.000Z</Time>
            <Position>
              <LatitudeDegrees>36.49592111818492412567138671875</LatitudeDegrees>
              <LongitudeDegrees>-5.4055931232869625091552734375</LongitudeDegrees>
            </Position>
            <AltitudeMeters>66</AltitudeMeters>
            <DistanceMeters>8312.0440584433</DistanceMeters>
          </Trackpoint>
          <Trackpoint>
            <Time>2019-01-04T11:15:24.000Z</Time>
            <Position>
              <LatitudeDegrees>36.49591743014752864837646484375</LatitudeDegrees>
              <LongitudeDegrees>-5.40559052489697933197021484375</LongitudeDegrees>
            </Position>
            <AltitudeMeters>65.8000030517578125</AltitudeMeters>
            <DistanceMeters>8312.5191920151</DistanceMeters>
          </Trackpoint>
          <Trackpoint>
            <Time>2019-01-04T11:15:25.000Z</Time>
            <Position>
              <LatitudeDegrees>36.4959136582911014556884765625</LatitudeDegrees>
              <LongitudeDegrees>-5.4055867530405521392822265625</LongitudeDegrees>
            </Position>
            <AltitudeMeters>65.59999847412109375</AltitudeMeters>
            <DistanceMeters>8313.0567442881</DistanceMeters>
          </Trackpoint>
          <Trackpoint>
            <Time>2019-01-04T11:15:26.000Z</Time>
            <Position>
              <LatitudeDegrees>36.49591089226305484771728515625</LatitudeDegrees>
              <LongitudeDegrees>-5.40558164007961750030517578125</LongitudeDegrees>
            </Position>
            <AltitudeMeters>65.59999847412109375</AltitudeMeters>
            <DistanceMeters>8313.6108404884</DistanceMeters>
          </Trackpoint>
          <Trackpoint>
            <Time>2019-01-04T11:15:27.000Z</Time>
            <Position>
              <LatitudeDegrees>36.49590636603534221649169921875</LatitudeDegrees>
              <LongitudeDegrees>-5.40557744912803173065185546875</LongitudeDegrees>
            </Position>
            <AltitudeMeters>65.40000152587890625</AltitudeMeters>
            <DistanceMeters>8314.2411764016</DistanceMeters>
          </Trackpoint>
          <Trackpoint>
            <Time>2019-01-04T11:15:28.000Z</Time>
            <Position>
              <LatitudeDegrees>36.49589882232248783111572265625</LatitudeDegrees>
              <LongitudeDegrees>-5.40557158179581165313720703125</LongitudeDegrees>
            </Position>
            <AltitudeMeters>65.40000152587890625</AltitudeMeters>
            <DistanceMeters>8315.2287229858</DistanceMeters>
          </Trackpoint>
          <Trackpoint>
            <Time>2019-01-04T11:15:29.000Z</Time>
            <Position>
              <LatitudeDegrees>36.4958940446376800537109375</LatitudeDegrees>
              <LongitudeDegrees>-5.4055696539580821990966796875</LongitudeDegrees>
            </Position>
            <AltitudeMeters>65.40000152587890625</AltitudeMeters>
            <DistanceMeters>8315.782819186</DistanceMeters>
          </Trackpoint>
          <Trackpoint>
            <Time>2019-01-04T11:15:30.000Z</Time>
            <Position>
              <LatitudeDegrees>36.49589094333350658416748046875</LatitudeDegrees>
              <LongitudeDegrees>-5.40556655265390872955322265625</LongitudeDegrees>
            </Position>
            <AltitudeMeters>65.40000152587890625</AltitudeMeters>
            <DistanceMeters>8316.207791572</DistanceMeters>
          </Trackpoint>
          <Trackpoint>
            <Time>2019-01-04T11:15:31.000Z</Time>
            <Position>
              <LatitudeDegrees>36.495890356600284576416015625</LatitudeDegrees>
              <LongitudeDegrees>-5.40556420572102069854736328125</LongitudeDegrees>
            </Position>
            <AltitudeMeters>65.40000152587890625</AltitudeMeters>
            <DistanceMeters>8316.420277765</DistanceMeters>
          </Trackpoint>
          <Trackpoint>
            <Time>2019-01-04T11:15:32.000Z</Time>
            <Position>
              <LatitudeDegrees>36.495888344943523406982421875</LatitudeDegrees>
              <LongitudeDegrees>-5.40556219406425952911376953125</LongitudeDegrees>
            </Position>
            <AltitudeMeters>65.40000152587890625</AltitudeMeters>
            <DistanceMeters>8316.7053579082</DistanceMeters>
          </Trackpoint>
          <Trackpoint>
            <Time>2019-01-04T11:15:33.000Z</Time>
            <Position>
              <LatitudeDegrees>36.49588666856288909912109375</LatitudeDegrees>
              <LongitudeDegrees>-5.405560769140720367431640625</LongitudeDegrees>
            </Position>
            <AltitudeMeters>65.40000152587890625</AltitudeMeters>
            <DistanceMeters>8316.9381248703</DistanceMeters>
          </Trackpoint>
          <Trackpoint>
            <Time>2019-01-04T11:15:34.000Z</Time>
            <Position>
              <LatitudeDegrees>36.49588641710579395294189453125</LatitudeDegrees>
              <LongitudeDegrees>-5.40555842220783233642578125</LongitudeDegrees>
            </Position>
            <AltitudeMeters>65.40000152587890625</AltitudeMeters>
            <DistanceMeters>8317.1708918324</DistanceMeters>
          </Trackpoint>
          <Trackpoint>
            <Time>2019-01-04T11:15:35.000Z</Time>
            <Position>
              <LatitudeDegrees>36.49588490836322307586669921875</LatitudeDegrees>
              <LongitudeDegrees>-5.4055572487413883209228515625</LongitudeDegrees>
            </Position>
            <AltitudeMeters>65.40000152587890625</AltitudeMeters>
            <DistanceMeters>8317.3609452612</DistanceMeters>
          </Trackpoint>
          <Trackpoint>
            <Time>2019-01-04T11:15:36.000Z</Time>
            <Position>
              <LatitudeDegrees>36.49588222615420818328857421875</LatitudeDegrees>
              <LongitudeDegrees>-5.40555833838880062103271484375</LongitudeDegrees>
            </Position>
            <AltitudeMeters>65.40000152587890625</AltitudeMeters>
            <DistanceMeters>8317.6614461172</DistanceMeters>
          </Trackpoint>
          <Trackpoint>
            <Time>2019-01-04T11:15:37.000Z</Time>
            <Position>
              <LatitudeDegrees>36.49588138796389102935791015625</LatitudeDegrees>
              <LongitudeDegrees>-5.4055575840175151824951171875</LongitudeDegrees>
            </Position>
            <AltitudeMeters>65.40000152587890625</AltitudeMeters>
            <DistanceMeters>8317.7958341854</DistanceMeters>
          </Trackpoint>
          <Trackpoint>
            <Time>2019-01-04T11:15:38.000Z</Time>
            <Position>
              <LatitudeDegrees>36.49587786756455898284912109375</LatitudeDegrees>
              <LongitudeDegrees>-5.40555414743721485137939453125</LongitudeDegrees>
            </Position>
            <AltitudeMeters>65.40000152587890625</AltitudeMeters>
            <DistanceMeters>8318.2803772563</DistanceMeters>
          </Trackpoint>
          <Trackpoint>
            <Time>2019-01-04T11:15:39.000Z</Time>
            <Position>
              <LatitudeDegrees>36.495881974697113037109375</LatitudeDegrees>
              <LongitudeDegrees>-5.4055619426071643829345703125</LongitudeDegrees>
            </Position>
            <AltitudeMeters>65.59999847412109375</AltitudeMeters>
            <DistanceMeters>8319.1142332907</DistanceMeters>
          </Trackpoint>
          <Trackpoint>
            <Time>2019-01-04T11:15:40.000Z</Time>
            <Position>
              <LatitudeDegrees>36.4958848245441913604736328125</LatitudeDegrees>
              <LongitudeDegrees>-5.40556512773036956787109375</LongitudeDegrees>
            </Position>
            <AltitudeMeters>65.59999847412109375</AltitudeMeters>
            <DistanceMeters>8319.5392056768</DistanceMeters>
          </Trackpoint>
          <Trackpoint>
            <Time>2019-01-04T11:15:41.000Z</Time>
            <Position>
              <LatitudeDegrees>36.49588490836322307586669921875</LatitudeDegrees>
              <LongitudeDegrees>-5.4055671393871307373046875</LongitudeDegrees>
            </Position>
            <AltitudeMeters>65.59999847412109375</AltitudeMeters>
            <DistanceMeters>8319.7292591055</DistanceMeters>
          </Trackpoint>
          <Trackpoint>
            <Time>2019-01-04T11:15:42.000Z</Time>
            <Position>
              <LatitudeDegrees>36.4958828128874301910400390625</LatitudeDegrees>
              <LongitudeDegrees>-5.4055644571781158447265625</LongitudeDegrees>
            </Position>
            <AltitudeMeters>65.59999847412109375</AltitudeMeters>
            <DistanceMeters>8320.0584413002</DistanceMeters>
          </Trackpoint>
          <Trackpoint>
            <Time>2019-01-04T11:15:43.000Z</Time>
            <Position>
              <LatitudeDegrees>36.495876610279083251953125</LatitudeDegrees>
              <LongitudeDegrees>-5.40555733256042003631591796875</LongitudeDegrees>
            </Position>
            <AltitudeMeters>65.59999847412109375</AltitudeMeters>
            <DistanceMeters>8320.999157778</DistanceMeters>
          </Trackpoint>
          <Trackpoint>
            <Time>2019-01-04T11:15:44.000Z</Time>
            <Position>
              <LatitudeDegrees>36.495871581137180328369140625</LatitudeDegrees>
              <LongitudeDegrees>-5.40555708110332489013671875</LongitudeDegrees>
            </Position>
            <AltitudeMeters>65.59999847412109375</AltitudeMeters>
            <DistanceMeters>8321.5693180642</DistanceMeters>
          </Trackpoint>
          <Trackpoint>
            <Time>2019-01-04T11:15:45.000Z</Time>
            <Position>
              <LatitudeDegrees>36.495868228375911712646484375</LatitudeDegrees>
              <LongitudeDegrees>-5.40555917657911777496337890625</LongitudeDegrees>
            </Position>
            <AltitudeMeters>65.59999847412109375</AltitudeMeters>
            <DistanceMeters>8321.9942904502</DistanceMeters>
          </Trackpoint>
          <Trackpoint>
            <Time>2019-01-04T11:15:46.000Z</Time>
            <Position>
              <LatitudeDegrees>36.4958699047565460205078125</LatitudeDegrees>
              <LongitudeDegrees>-5.40555951185524463653564453125</LongitudeDegrees>
            </Position>
            <AltitudeMeters>65.59999847412109375</AltitudeMeters>
            <DistanceMeters>8322.184343879</DistanceMeters>
          </Trackpoint>
          <Trackpoint>
            <Time>2019-01-04T11:15:47.000Z</Time>
            <Position>
              <LatitudeDegrees>36.4958724193274974822998046875</LatitudeDegrees>
              <LongitudeDegrees>-5.4055609367787837982177734375</LongitudeDegrees>
            </Position>
            <AltitudeMeters>65.8000030517578125</AltitudeMeters>
            <DistanceMeters>8322.4848447349</DistanceMeters>
          </Trackpoint>
          <Trackpoint>
            <Time>2019-01-04T11:15:48.000Z</Time>
            <Position>
              <LatitudeDegrees>36.495876610279083251953125</LatitudeDegrees>
              <LongitudeDegrees>-5.4055639542639255523681640625</LongitudeDegrees>
            </Position>
            <AltitudeMeters>65.8000030517578125</AltitudeMeters>
            <DistanceMeters>8323.0307316487</DistanceMeters>
          </Trackpoint>
          <Trackpoint>
            <Time>2019-01-04T11:15:49.000Z</Time>
            <Position>
              <LatitudeDegrees>36.49587518535554409027099609375</LatitudeDegrees>
              <LongitudeDegrees>-5.405564121901988983154296875</LongitudeDegrees>
            </Position>
            <AltitudeMeters>66</AltitudeMeters>
            <DistanceMeters>8323.165119717</DistanceMeters>
          </Trackpoint>
          <Trackpoint>
            <Time>2019-01-04T11:15:50.000Z</Time>
            <Position>
              <LatitudeDegrees>36.49587191641330718994140625</LatitudeDegrees>
              <LongitudeDegrees>-5.405564121901988983154296875</LongitudeDegrees>
            </Position>
            <AltitudeMeters>66</AltitudeMeters>
            <DistanceMeters>8323.5206771247</DistanceMeters>
          </Trackpoint>
          <Trackpoint>
            <Time>2019-01-04T11:15:51.000Z</Time>
            <Position>
              <LatitudeDegrees>36.495872922241687774658203125</LatitudeDegrees>
              <LongitudeDegrees>-5.4055649600923061370849609375</LongitudeDegrees>
            </Position>
            <AltitudeMeters>66.1999969482421875</AltitudeMeters>
            <DistanceMeters>8323.6852682221</DistanceMeters>
          </Trackpoint>
          <Trackpoint>
            <Time>2019-01-04T11:15:52.000Z</Time>
            <Position>
              <LatitudeDegrees>36.49587501771748065948486328125</LatitudeDegrees>
              <LongitudeDegrees>-5.4055622778832912445068359375</LongitudeDegrees>
            </Position>
            <AltitudeMeters>66.40000152587890625</AltitudeMeters>
            <DistanceMeters>8324.0144504168</DistanceMeters>
          </Trackpoint>
          <Trackpoint>
            <Time>2019-01-04T11:15:53.000Z</Time>
            <Position>
              <LatitudeDegrees>36.4958784542977809906005859375</LatitudeDegrees>
              <LongitudeDegrees>-5.40556873194873332977294921875</LongitudeDegrees>
            </Position>
            <AltitudeMeters>66.40000152587890625</AltitudeMeters>
            <DistanceMeters>8324.6996977992</DistanceMeters>
          </Trackpoint>
          <Trackpoint>
            <Time>2019-01-04T11:15:54.000Z</Time>
            <Position>
              <LatitudeDegrees>36.49587920866906642913818359375</LatitudeDegrees>
              <LongitudeDegrees>-5.40557560510933399200439453125</LongitudeDegrees>
            </Position>
            <AltitudeMeters>66.59999847412109375</AltitudeMeters>
            <DistanceMeters>8325.3155412945</DistanceMeters>
          </Trackpoint>
          <Trackpoint>
            <Time>2019-01-04T11:15:55.000Z</Time>
            <Position>
              <LatitudeDegrees>36.49587216787040233612060546875</LatitudeDegrees>
              <LongitudeDegrees>-5.40557049214839935302734375</LongitudeDegrees>
            </Position>
            <AltitudeMeters>66.40000152587890625</AltitudeMeters>
            <DistanceMeters>8326.2170438624</DistanceMeters>
          </Trackpoint>
          <Trackpoint>
            <Time>2019-01-04T11:15:56.000Z</Time>
            <Position>
              <LatitudeDegrees>36.4958623610436916351318359375</LatitudeDegrees>
              <LongitudeDegrees>-5.4055646248161792755126953125</LongitudeDegrees>
            </Position>
            <AltitudeMeters>66.1999969482421875</AltitudeMeters>
            <DistanceMeters>8327.4265364766</DistanceMeters>
          </Trackpoint>
          <Trackpoint>
            <Time>2019-01-04T11:15:57.000Z</Time>
            <Position>
              <LatitudeDegrees>36.49585523642599582672119140625</LatitudeDegrees>
              <LongitudeDegrees>-5.40556286461651325225830078125</LongitudeDegrees>
            </Position>
            <AltitudeMeters>65.8000030517578125</AltitudeMeters>
            <DistanceMeters>8328.2439871827</DistanceMeters>
          </Trackpoint>
          <Trackpoint>
            <Time>2019-01-04T11:15:58.000Z</Time>
            <Position>
              <LatitudeDegrees>36.4958502911031246185302734375</LatitudeDegrees>
              <LongitudeDegrees>-5.405565798282623291015625</LongitudeDegrees>
            </Position>
            <AltitudeMeters>65.40000152587890625</AltitudeMeters>
            <DistanceMeters>8328.8524550407</DistanceMeters>
          </Trackpoint>
          <Trackpoint>
            <Time>2019-01-04T11:15:59.000Z</Time>
            <Position>
              <LatitudeDegrees>36.495846100151538848876953125</LatitudeDegrees>
              <LongitudeDegrees>-5.40556739084422588348388671875</LongitudeDegrees>
            </Position>
            <AltitudeMeters>65.1999969482421875</AltitudeMeters>
            <DistanceMeters>8329.3369981116</DistanceMeters>
          </Trackpoint>
          <Trackpoint>
            <Time>2019-01-04T11:16:00.000Z</Time>
            <Position>
              <LatitudeDegrees>36.4958402328193187713623046875</LatitudeDegrees>
              <LongitudeDegrees>-5.40556915104389190673828125</LongitudeDegrees>
            </Position>
            <AltitudeMeters>65</AltitudeMeters>
            <DistanceMeters>8330.0089384528</DistanceMeters>
          </Trackpoint>
          <Trackpoint>
            <Time>2019-01-04T11:16:01.000Z</Time>
            <Position>
              <LatitudeDegrees>36.49583277292549610137939453125</LatitudeDegrees>
              <LongitudeDegrees>-5.40557459928095340728759765625</LongitudeDegrees>
            </Position>
            <AltitudeMeters>64.8000030517578125</AltitudeMeters>
            <DistanceMeters>8330.9686612239</DistanceMeters>
          </Trackpoint>
          <Trackpoint>
            <Time>2019-01-04T11:16:02.000Z</Time>
            <Position>
              <LatitudeDegrees>36.4958254806697368621826171875</LatitudeDegrees>
              <LongitudeDegrees>-5.4055823944509029388427734375</LongitudeDegrees>
            </Position>
            <AltitudeMeters>64.59999847412109375</AltitudeMeters>
            <DistanceMeters>8332.0353334472</DistanceMeters>
          </Trackpoint>
          <Trackpoint>
            <Time>2019-01-04T11:16:03.000Z</Time>
            <Position>
              <LatitudeDegrees>36.4958177693188190460205078125</LatitudeDegrees>
              <LongitudeDegrees>-5.4055914469063282012939453125</LongitudeDegrees>
            </Position>
            <AltitudeMeters>64.40000152587890625</AltitudeMeters>
            <DistanceMeters>8333.210748989</DistanceMeters>
          </Trackpoint>
          <Trackpoint>
            <Time>2019-01-04T11:16:04.000Z</Time>
            <Position>
              <LatitudeDegrees>36.49580712430179119110107421875</LatitudeDegrees>
              <LongitudeDegrees>-5.40559890680015087127685546875</LongitudeDegrees>
            </Position>
            <AltitudeMeters>64.1999969482421875</AltitudeMeters>
            <DistanceMeters>8334.5680019479</DistanceMeters>
          </Trackpoint>
          <Trackpoint>
            <Time>2019-01-04T11:16:05.000Z</Time>
            <Position>
              <LatitudeDegrees>36.49579522199928760528564453125</LatitudeDegrees>
              <LongitudeDegrees>-5.40560544468462467193603515625</LongitudeDegrees>
            </Position>
            <AltitudeMeters>64.1999969482421875</AltitudeMeters>
            <DistanceMeters>8336.0154057392</DistanceMeters>
          </Trackpoint>
          <Trackpoint>
            <Time>2019-01-04T11:16:06.000Z</Time>
            <Position>
              <LatitudeDegrees>36.49578918702900409698486328125</LatitudeDegrees>
              <LongitudeDegrees>-5.405613742768764495849609375</LongitudeDegrees>
            </Position>
            <AltitudeMeters>64</AltitudeMeters>
            <DistanceMeters>8337.0120543276</DistanceMeters>
          </Trackpoint>
          <Trackpoint>
            <Time>2019-01-04T11:16:07.000Z</Time>
            <Position>
              <LatitudeDegrees>36.49578298442065715789794921875</LatitudeDegrees>
              <LongitudeDegrees>-5.40562153793871402740478515625</LongitudeDegrees>
            </Position>
            <AltitudeMeters>63.59999847412109375</AltitudeMeters>
            <DistanceMeters>8337.9904142323</DistanceMeters>
          </Trackpoint>
          <Trackpoint>
            <Time>2019-01-04T11:16:08.000Z</Time>
            <Position>
              <LatitudeDegrees>36.4957721717655658721923828125</LatitudeDegrees>
              <LongitudeDegrees>-5.4056239686906337738037109375</LongitudeDegrees>
            </Position>
            <AltitudeMeters>63.200000762939453125</AltitudeMeters>
            <DistanceMeters>8339.2110544796</DistanceMeters>
          </Trackpoint>
          <Trackpoint>
            <Time>2019-01-04T11:16:09.000Z</Time>
            <Position>
              <LatitudeDegrees>36.49576085619628429412841796875</LatitudeDegrees>
              <LongitudeDegrees>-5.40562874637544155120849609375</LongitudeDegrees>
            </Position>
            <AltitudeMeters>62.799999237060546875</AltitudeMeters>
            <DistanceMeters>8340.5414284808</DistanceMeters>
          </Trackpoint>
          <Trackpoint>
            <Time>2019-01-04T11:16:10.000Z</Time>
            <Position>
              <LatitudeDegrees>36.49574643932282924652099609375</LatitudeDegrees>
              <LongitudeDegrees>-5.4056315124034881591796875</LongitudeDegrees>
            </Position>
            <AltitudeMeters>62.59999847412109375</AltitudeMeters>
            <DistanceMeters>8342.1652456877</DistanceMeters>
          </Trackpoint>
          <Trackpoint>
            <Time>2019-01-04T11:16:11.000Z</Time>
            <Position>
              <LatitudeDegrees>36.49573185481131076812744140625</LatitudeDegrees>
              <LongitudeDegrees>-5.40563746355473995208740234375</LongitudeDegrees>
            </Position>
            <AltitudeMeters>62.40000152587890625</AltitudeMeters>
            <DistanceMeters>8343.8757265464</DistanceMeters>
          </Trackpoint>
          <Trackpoint>
            <Time>2019-01-04T11:16:12.000Z</Time>
            <Position>
              <LatitudeDegrees>36.49571877904236316680908203125</LatitudeDegrees>
              <LongitudeDegrees>-5.40564634837210178375244140625</LongitudeDegrees>
            </Position>
            <AltitudeMeters>62.200000762939453125</AltitudeMeters>
            <DistanceMeters>8345.5325739259</DistanceMeters>
          </Trackpoint>
          <Trackpoint>
            <Time>2019-01-04T11:16:13.000Z</Time>
            <Position>
              <LatitudeDegrees>36.49570151232182979583740234375</LatitudeDegrees>
              <LongitudeDegrees>-5.40564559400081634521484375</LongitudeDegrees>
            </Position>
            <AltitudeMeters>62.200000762939453125</AltitudeMeters>
            <DistanceMeters>8347.4567182401</DistanceMeters>
          </Trackpoint>
          <Trackpoint>
            <Time>2019-01-04T11:16:14.000Z</Time>
            <Position>
              <LatitudeDegrees>36.4956870116293430328369140625</LatitudeDegrees>
              <LongitudeDegrees>-5.4056494496762752532958984375</LongitudeDegrees>
            </Position>
            <AltitudeMeters>62.200000762939453125</AltitudeMeters>
            <DistanceMeters>8349.1081064701</DistanceMeters>
          </Trackpoint>
          <Trackpoint>
            <Time>2019-01-04T11:16:15.000Z</Time>
            <Position>
              <LatitudeDegrees>36.495672427117824554443359375</LatitudeDegrees>
              <LongitudeDegrees>-5.40565431118011474609375</LongitudeDegrees>
            </Position>
            <AltitudeMeters>62</AltitudeMeters>
            <DistanceMeters>8350.7893006668</DistanceMeters>
          </Trackpoint>
          <Trackpoint>
            <Time>2019-01-04T11:16:16.000Z</Time>
            <Position>
              <LatitudeDegrees>36.4956497959792613983154296875</LatitudeDegrees>
              <LongitudeDegrees>-5.405654646456241607666015625</LongitudeDegrees>
            </Position>
            <AltitudeMeters>61.799999237060546875</AltitudeMeters>
            <DistanceMeters>8353.3070603185</DistanceMeters>
          </Trackpoint>
          <Trackpoint>
            <Time>2019-01-04T11:16:17.000Z</Time>
            <Position>
              <LatitudeDegrees>36.49562959559261798858642578125</LatitudeDegrees>
              <LongitudeDegrees>-5.405651293694972991943359375</LongitudeDegrees>
            </Position>
            <AltitudeMeters>61.59999847412109375</AltitudeMeters>
            <DistanceMeters>8355.5777812721</DistanceMeters>
          </Trackpoint>
          <Trackpoint>
            <Time>2019-01-04T11:16:18.000Z</Time>
            <Position>
              <LatitudeDegrees>36.4956162683665752410888671875</LatitudeDegrees>
              <LongitudeDegrees>-5.40565221570432186126708984375</LongitudeDegrees>
            </Position>
            <AltitudeMeters>61.59999847412109375</AltitudeMeters>
            <DistanceMeters>8357.0651846232</DistanceMeters>
          </Trackpoint>
          <Trackpoint>
            <Time>2019-01-04T11:16:19.000Z</Time>
            <Position>
              <LatitudeDegrees>36.49560377933084964752197265625</LatitudeDegrees>
              <LongitudeDegrees>-5.40565632283687591552734375</LongitudeDegrees>
            </Position>
            <AltitudeMeters>61.40000152587890625</AltitudeMeters>
            <DistanceMeters>8358.5063361011</DistanceMeters>
          </Trackpoint>
          <Trackpoint>
            <Time>2019-01-04T11:16:20.000Z</Time>
            <Position>
              <LatitudeDegrees>36.495592296123504638671875</LatitudeDegrees>
              <LongitudeDegrees>-5.40566311217844486236572265625</LongitudeDegrees>
            </Position>
            <AltitudeMeters>61.40000152587890625</AltitudeMeters>
            <DistanceMeters>8359.9222022567</DistanceMeters>
          </Trackpoint>
          <Trackpoint>
            <Time>2019-01-04T11:16:21.000Z</Time>
            <Position>
              <LatitudeDegrees>36.49558098055422306060791015625</LatitudeDegrees>
              <LongitudeDegrees>-5.40567233227193355560302734375</LongitudeDegrees>
            </Position>
            <AltitudeMeters>61.40000152587890625</AltitudeMeters>
            <DistanceMeters>8361.4277085461</DistanceMeters>
          </Trackpoint>
          <Trackpoint>
            <Time>2019-01-04T11:16:22.000Z</Time>
            <Position>
              <LatitudeDegrees>36.49556874297559261322021484375</LatitudeDegrees>
              <LongitudeDegrees>-5.4056759364902973175048828125</LongitudeDegrees>
            </Position>
            <AltitudeMeters>61.200000762939453125</AltitudeMeters>
            <DistanceMeters>8362.8275394603</DistanceMeters>
          </Trackpoint>
          <Trackpoint>
            <Time>2019-01-04T11:16:23.000Z</Time>
            <Position>
              <LatitudeDegrees>36.49555885232985019683837890625</LatitudeDegrees>
              <LongitudeDegrees>-5.40568121708929538726806640625</LongitudeDegrees>
            </Position>
            <AltitudeMeters>61.200000762939453125</AltitudeMeters>
            <DistanceMeters>8364.0257807359</DistanceMeters>
          </Trackpoint>
          <Trackpoint>
            <Time>2019-01-04T11:16:24.000Z</Time>
            <Position>
              <LatitudeDegrees>36.4955478720366954803466796875</LatitudeDegrees>
              <LongitudeDegrees>-5.40568607859313488006591796875</LongitudeDegrees>
            </Position>
            <AltitudeMeters>61.200000762939453125</AltitudeMeters>
            <DistanceMeters>8365.3217723325</DistanceMeters>
          </Trackpoint>
          <Trackpoint>
            <Time>2019-01-04T11:16:25.000Z</Time>
            <Position>
              <LatitudeDegrees>36.49553772993385791778564453125</LatitudeDegrees>
              <LongitudeDegrees>-5.40569094009697437286376953125</LongitudeDegrees>
            </Position>
            <AltitudeMeters>61</AltitudeMeters>
            <DistanceMeters>8366.5312649468</DistanceMeters>
          </Trackpoint>
          <Trackpoint>
            <Time>2019-01-04T11:16:26.000Z</Time>
            <Position>
              <LatitudeDegrees>36.495526246726512908935546875</LatitudeDegrees>
              <LongitudeDegrees>-5.40570217184722423553466796875</LongitudeDegrees>
            </Position>
            <AltitudeMeters>60.799999237060546875</AltitudeMeters>
            <DistanceMeters>8368.1578602861</DistanceMeters>
          </Trackpoint>
          <Trackpoint>
            <Time>2019-01-04T11:16:27.000Z</Time>
            <Position>
              <LatitudeDegrees>36.49551426060497760772705078125</LatitudeDegrees>
              <LongitudeDegrees>-5.40571155957877635955810546875</LongitudeDegrees>
            </Position>
            <AltitudeMeters>60.59999847412109375</AltitudeMeters>
            <DistanceMeters>8369.7308322966</DistanceMeters>
          </Trackpoint>
          <Trackpoint>
            <Time>2019-01-04T11:16:28.000Z</Time>
            <Position>
              <LatitudeDegrees>36.49550286121666431427001953125</LatitudeDegrees>
              <LongitudeDegrees>-5.405721366405487060546875</LongitudeDegrees>
            </Position>
            <AltitudeMeters>60.40000152587890625</AltitudeMeters>
            <DistanceMeters>8371.2748336506</DistanceMeters>
          </Trackpoint>
          <Trackpoint>
            <Time>2019-01-04T11:16:29.000Z</Time>
            <Position>
              <LatitudeDegrees>36.4954975806176662445068359375</LatitudeDegrees>
              <LongitudeDegrees>-5.40573754347860813140869140625</LongitudeDegrees>
            </Position>
            <AltitudeMeters>60.40000152587890625</AltitudeMeters>
            <DistanceMeters>8372.8362819014</DistanceMeters>
          </Trackpoint>
          <Trackpoint>
            <Time>2019-01-04T11:16:30.000Z</Time>
            <Position>
              <LatitudeDegrees>36.49549347348511219024658203125</LatitudeDegrees>
              <LongitudeDegrees>-5.40575497783720493316650390625</LongitudeDegrees>
            </Position>
            <AltitudeMeters>60.200000762939453125</AltitudeMeters>
            <DistanceMeters>8374.4573162148</DistanceMeters>
          </Trackpoint>
          <Trackpoint>
            <Time>2019-01-04T11:16:31.000Z</Time>
            <Position>
              <LatitudeDegrees>36.49549104273319244384765625</LatitudeDegrees>
              <LongitudeDegrees>-5.40577123872935771942138671875</LongitudeDegrees>
            </Position>
            <AltitudeMeters>60.200000762939453125</AltitudeMeters>
            <DistanceMeters>8375.9386360911</DistanceMeters>
          </Trackpoint>
          <Trackpoint>
            <Time>2019-01-04T11:16:32.000Z</Time>
            <Position>
              <LatitudeDegrees>36.495489366352558135986328125</LatitudeDegrees>
              <LongitudeDegrees>-5.40578783489763736724853515625</LongitudeDegrees>
            </Position>
            <AltitudeMeters>60.200000762939453125</AltitudeMeters>
            <DistanceMeters>8377.4381323513</DistanceMeters>
          </Trackpoint>
          <Trackpoint>
            <Time>2019-01-04T11:16:33.000Z</Time>
            <Position>
              <LatitudeDegrees>36.4954878576099872589111328125</LatitudeDegrees>
              <LongitudeDegrees>-5.4058066941797733306884765625</LongitudeDegrees>
            </Position>
            <AltitudeMeters>60.200000762939453125</AltitudeMeters>
            <DistanceMeters>8379.1327014143</DistanceMeters>
          </Trackpoint>
          <Trackpoint>
            <Time>2019-01-04T11:16:34.000Z</Time>
            <Position>
              <LatitudeDegrees>36.49549062363803386688232421875</LatitudeDegrees>
              <LongitudeDegrees>-5.40582488290965557098388671875</LongitudeDegrees>
            </Position>
            <AltitudeMeters>60.40000152587890625</AltitudeMeters>
            <DistanceMeters>8380.7895487938</DistanceMeters>
          </Trackpoint>
          <Trackpoint>
            <Time>2019-01-04T11:16:35.000Z</Time>
            <Position>
              <LatitudeDegrees>36.49549481458961963653564453125</LatitudeDegrees>
              <LongitudeDegrees>-5.40584600530564785003662109375</LongitudeDegrees>
            </Position>
            <AltitudeMeters>60.40000152587890625</AltitudeMeters>
            <DistanceMeters>8382.737016921</DistanceMeters>
          </Trackpoint>
          <Trackpoint>
            <Time>2019-01-04T11:16:36.000Z</Time>
            <Position>
              <LatitudeDegrees>36.49549431167542934417724609375</LatitudeDegrees>
              <LongitudeDegrees>-5.40586645714938640594482421875</LongitudeDegrees>
            </Position>
            <AltitudeMeters>60.40000152587890625</AltitudeMeters>
            <DistanceMeters>8384.5698258137</DistanceMeters>
          </Trackpoint>
          <Trackpoint>
            <Time>2019-01-04T11:16:37.000Z</Time>
            <Position>
              <LatitudeDegrees>36.49549397639930248260498046875</LatitudeDegrees>
              <LongitudeDegrees>-5.4058858193457126617431640625</LongitudeDegrees>
            </Position>
            <AltitudeMeters>60.40000152587890625</AltitudeMeters>
            <DistanceMeters>8386.3012949527</DistanceMeters>
          </Trackpoint>
          <Trackpoint>
            <Time>2019-01-04T11:16:38.000Z</Time>
            <Position>
              <LatitudeDegrees>36.49549582041800022125244140625</LatitudeDegrees>
              <LongitudeDegrees>-5.4058997333049774169921875</LongitudeDegrees>
            </Position>
            <AltitudeMeters>60.40000152587890625</AltitudeMeters>
            <DistanceMeters>8387.5619667792</DistanceMeters>
          </Trackpoint>
          <Trackpoint>
            <Time>2019-01-04T11:16:39.000Z</Time>
            <Position>
              <LatitudeDegrees>36.495496071875095367431640625</LatitudeDegrees>
              <LongitudeDegrees>-5.4059170000255107879638671875</LongitudeDegrees>
            </Position>
            <AltitudeMeters>60.59999847412109375</AltitudeMeters>
            <DistanceMeters>8389.1059681332</DistanceMeters>
          </Trackpoint>
          <Trackpoint>
            <Time>2019-01-04T11:16:40.000Z</Time>
            <Position>
              <LatitudeDegrees>36.49550202302634716033935546875</LatitudeDegrees>
              <LongitudeDegrees>-5.40593468584120273590087890625</LongitudeDegrees>
            </Position>
            <AltitudeMeters>60.59999847412109375</AltitudeMeters>
            <DistanceMeters>8390.8190865892</DistanceMeters>
          </Trackpoint>
          <Trackpoint>
            <Time>2019-01-04T11:16:41.000Z</Time>
            <Position>
              <LatitudeDegrees>36.4955056272447109222412109375</LatitudeDegrees>
              <LongitudeDegrees>-5.40595832280814647674560546875</LongitudeDegrees>
            </Position>
            <AltitudeMeters>60.59999847412109375</AltitudeMeters>
            <DistanceMeters>8392.9713944705</DistanceMeters>
          </Trackpoint>
          <Trackpoint>
            <Time>2019-01-04T11:16:42.000Z</Time>
            <Position>
              <LatitudeDegrees>36.4955096505582332611083984375</LatitudeDegrees>
              <LongitudeDegrees>-5.40597558952867984771728515625</LongitudeDegrees>
            </Position>
            <AltitudeMeters>60.59999847412109375</AltitudeMeters>
            <DistanceMeters>8394.5784420314</DistanceMeters>
          </Trackpoint>
          <Trackpoint>
            <Time>2019-01-04T11:16:43.000Z</Time>
            <Position>
              <LatitudeDegrees>36.49551518261432647705078125</LatitudeDegrees>
              <LongitudeDegrees>-5.40598967112600803375244140625</LongitudeDegrees>
            </Position>
            <AltitudeMeters>60.59999847412109375</AltitudeMeters>
            <DistanceMeters>8395.9847089837</DistanceMeters>
          </Trackpoint>
          <Trackpoint>
            <Time>2019-01-04T11:16:44.000Z</Time>
            <Position>
              <LatitudeDegrees>36.4955140091478824615478515625</LatitudeDegrees>
              <LongitudeDegrees>-5.40601498447358608245849609375</LongitudeDegrees>
            </Position>
            <AltitudeMeters>60.59999847412109375</AltitudeMeters>
            <DistanceMeters>8398.2554299374</DistanceMeters>
          </Trackpoint>
          <Trackpoint>
            <Time>2019-01-04T11:16:45.000Z</Time>
            <Position>
              <LatitudeDegrees>36.49551291950047016143798828125</LatitudeDegrees>
              <LongitudeDegrees>-5.406032502651214599609375</LongitudeDegrees>
            </Position>
            <AltitudeMeters>60.799999237060546875</AltitudeMeters>
            <DistanceMeters>8399.8284019479</DistanceMeters>
          </Trackpoint>
          <Trackpoint>
            <Time>2019-01-04T11:16:46.000Z</Time>
            <Position>
              <LatitudeDegrees>36.4955130033195018768310546875</LatitudeDegrees>
              <LongitudeDegrees>-5.40604666806757450103759765625</LongitudeDegrees>
            </Position>
            <AltitudeMeters>60.799999237060546875</AltitudeMeters>
            <DistanceMeters>8401.0962164481</DistanceMeters>
          </Trackpoint>
          <Trackpoint>
            <Time>2019-01-04T11:16:47.000Z</Time>
            <Position>
              <LatitudeDegrees>36.49551392532885074615478515625</LatitudeDegrees>
              <LongitudeDegrees>-5.4060621745884418487548828125</LongitudeDegrees>
            </Position>
            <AltitudeMeters>60.799999237060546875</AltitudeMeters>
            <DistanceMeters>8402.489581596</DistanceMeters>
          </Trackpoint>
          <Trackpoint>
            <Time>2019-01-04T11:16:48.000Z</Time>
            <Position>
              <LatitudeDegrees>36.49551652371883392333984375</LatitudeDegrees>
              <LongitudeDegrees>-5.40607784874737262725830078125</LongitudeDegrees>
            </Position>
            <AltitudeMeters>60.799999237060546875</AltitudeMeters>
            <DistanceMeters>8403.9213034101</DistanceMeters>
          </Trackpoint>
          <Trackpoint>
            <Time>2019-01-04T11:16:49.000Z</Time>
            <Position>
              <LatitudeDegrees>36.49551727809011936187744140625</LatitudeDegrees>
              <LongitudeDegrees>-5.40608639828860759735107421875</LongitudeDegrees>
            </Position>
            <AltitudeMeters>61</AltitudeMeters>
            <DistanceMeters>8404.6933040871</DistanceMeters>
          </Trackpoint>
          <Trackpoint>
            <Time>2019-01-04T11:16:50.000Z</Time>
            <Position>
              <LatitudeDegrees>36.49551945738494396209716796875</LatitudeDegrees>
              <LongitudeDegrees>-5.40609125979244709014892578125</LongitudeDegrees>
            </Position>
            <AltitudeMeters>61</AltitudeMeters>
            <DistanceMeters>8405.1961381953</DistanceMeters>
          </Trackpoint>
          <Trackpoint>
            <Time>2019-01-04T11:16:51.000Z</Time>
            <Position>
              <LatitudeDegrees>36.49552079848945140838623046875</LatitudeDegrees>
              <LongitudeDegrees>-5.4060953669250011444091796875</LongitudeDegrees>
            </Position>
            <AltitudeMeters>61</AltitudeMeters>
            <DistanceMeters>8405.5993024001</DistanceMeters>
          </Trackpoint>
          <Trackpoint>
            <Time>2019-01-04T11:16:52.000Z</Time>
            <Position>
              <LatitudeDegrees>36.4955190382897853851318359375</LatitudeDegrees>
              <LongitudeDegrees>-5.40610483847558498382568359375</LongitudeDegrees>
            </Position>
            <AltitudeMeters>61</AltitudeMeters>
            <DistanceMeters>8406.4702366234</DistanceMeters>
          </Trackpoint>
          <Trackpoint>
            <Time>2019-01-04T11:16:53.000Z</Time>
            <Position>
              <LatitudeDegrees>36.49552079848945140838623046875</LatitudeDegrees>
              <LongitudeDegrees>-5.4061074368655681610107421875</LongitudeDegrees>
            </Position>
            <AltitudeMeters>61.200000762939453125</AltitudeMeters>
            <DistanceMeters>8406.78540458</DistanceMeters>
          </Trackpoint>
          <Trackpoint>
            <Time>2019-01-04T11:16:54.000Z</Time>
            <Position>
              <LatitudeDegrees>36.4955217204988002777099609375</LatitudeDegrees>
              <LongitudeDegrees>-5.4061121307313442230224609375</LongitudeDegrees>
            </Position>
            <AltitudeMeters>61.200000762939453125</AltitudeMeters>
            <DistanceMeters>8407.210376966</DistanceMeters>
          </Trackpoint>
          <Trackpoint>
            <Time>2019-01-04T11:16:55.000Z</Time>
            <Position>
              <LatitudeDegrees>36.49552314542233943939208984375</LatitudeDegrees>
              <LongitudeDegrees>-5.406115986406803131103515625</LongitudeDegrees>
            </Position>
            <AltitudeMeters>61.200000762939453125</AltitudeMeters>
            <DistanceMeters>8407.5784138482</DistanceMeters>
          </Trackpoint>
          <Trackpoint>
            <Time>2019-01-04T11:16:56.000Z</Time>
            <Position>
              <LatitudeDegrees>36.49552725255489349365234375</LatitudeDegrees>
              <LongitudeDegrees>-5.40612168610095977783203125</LongitudeDegrees>
            </Position>
            <AltitudeMeters>61.200000762939453125</AltitudeMeters>
            <DistanceMeters>8408.2636612306</DistanceMeters>
          </Trackpoint>
          <Trackpoint>
            <Time>2019-01-04T11:16:57.000Z</Time>
            <Position>
              <LatitudeDegrees>36.49553035385906696319580078125</LatitudeDegrees>
              <LongitudeDegrees>-5.4061231948435306549072265625</LongitudeDegrees>
            </Position>
            <AltitudeMeters>61.200000762939453125</AltitudeMeters>
            <DistanceMeters>8408.6316981128</DistanceMeters>
          </Trackpoint>
          <Trackpoint>
            <Time>2019-01-04T11:16:58.000Z</Time>
            <Position>
              <LatitudeDegrees>36.49553119204938411712646484375</LatitudeDegrees>
              <LongitudeDegrees>-5.40612260811030864715576171875</LongitudeDegrees>
            </Position>
            <AltitudeMeters>61.200000762939453125</AltitudeMeters>
            <DistanceMeters>8408.7267248272</DistanceMeters>
          </Trackpoint>
          <Trackpoint>
            <Time>2019-01-04T11:16:59.000Z</Time>
            <Position>
              <LatitudeDegrees>36.495532952249050140380859375</LatitudeDegrees>
              <LongitudeDegrees>-5.40612512268126010894775390625</LongitudeDegrees>
            </Position>
            <AltitudeMeters>61.200000762939453125</AltitudeMeters>
            <DistanceMeters>8409.0272256831</DistanceMeters>
          </Trackpoint>
          <Trackpoint>
            <Time>2019-01-04T11:17:00.000Z</Time>
            <Position>
              <LatitudeDegrees>36.49553488008677959442138671875</LatitudeDegrees>
              <LongitudeDegrees>-5.406127385795116424560546875</LongitudeDegrees>
            </Position>
            <AltitudeMeters>61.200000762939453125</AltitudeMeters>
            <DistanceMeters>8409.3277265391</DistanceMeters>
          </Trackpoint>
          <Trackpoint>
            <Time>2019-01-04T11:17:01.000Z</Time>
            <Position>
              <LatitudeDegrees>36.49553596973419189453125</LatitudeDegrees>
              <LongitudeDegrees>-5.40612830780446529388427734375</LongitudeDegrees>
            </Position>
            <AltitudeMeters>61</AltitudeMeters>
            <DistanceMeters>8409.4621146074</DistanceMeters>
          </Trackpoint>
          <Trackpoint>
            <Time>2019-01-04T11:17:02.000Z</Time>
            <Position>
              <LatitudeDegrees>36.49553756229579448699951171875</LatitudeDegrees>
              <LongitudeDegrees>-5.40612847544252872467041015625</LongitudeDegrees>
            </Position>
            <AltitudeMeters>61</AltitudeMeters>
            <DistanceMeters>8409.6267057047</DistanceMeters>
          </Trackpoint>
          <Trackpoint>
            <Time>2019-01-04T11:17:03.000Z</Time>
            <Position>
              <LatitudeDegrees>36.49553957395255565643310546875</LatitudeDegrees>
              <LongitudeDegrees>-5.40612948127090930938720703125</LongitudeDegrees>
            </Position>
            <AltitudeMeters>60.799999237060546875</AltitudeMeters>
            <DistanceMeters>8409.8781227589</DistanceMeters>
          </Trackpoint>
          <Trackpoint>
            <Time>2019-01-04T11:17:04.000Z</Time>
            <Position>
              <LatitudeDegrees>36.4955398254096508026123046875</LatitudeDegrees>
              <LongitudeDegrees>-5.40613107383251190185546875</LongitudeDegrees>
            </Position>
            <AltitudeMeters>60.59999847412109375</AltitudeMeters>
            <DistanceMeters>8410.0125108271</DistanceMeters>
          </Trackpoint>
          <Trackpoint>
            <Time>2019-01-04T11:17:05.000Z</Time>
            <Position>
              <LatitudeDegrees>36.495538651943206787109375</LatitudeDegrees>
              <LongitudeDegrees>-5.40612705051898956298828125</LongitudeDegrees>
            </Position>
            <AltitudeMeters>60.59999847412109375</AltitudeMeters>
            <DistanceMeters>8410.3926176846</DistanceMeters>
          </Trackpoint>
          <Trackpoint>
            <Time>2019-01-04T11:17:06.000Z</Time>
            <Position>
              <LatitudeDegrees>36.49554125033318996429443359375</LatitudeDegrees>
              <LongitudeDegrees>-5.406128726899623870849609375</LongitudeDegrees>
            </Position>
            <AltitudeMeters>60.59999847412109375</AltitudeMeters>
            <DistanceMeters>8410.7217998793</DistanceMeters>
          </Trackpoint>
          <Trackpoint>
            <Time>2019-01-04T11:17:07.000Z</Time>
            <Position>
              <LatitudeDegrees>36.49553907103836536407470703125</LatitudeDegrees>
              <LongitudeDegrees>-5.4061304032802581787109375</LongitudeDegrees>
            </Position>
            <AltitudeMeters>60.59999847412109375</AltitudeMeters>
            <DistanceMeters>8411.0223007353</DistanceMeters>
          </Trackpoint>
          <Trackpoint>
            <Time>2019-01-04T11:17:08.000Z</Time>
            <Position>
              <LatitudeDegrees>36.495536975562572479248046875</LatitudeDegrees>
              <LongitudeDegrees>-5.40613417513668537139892578125</LongitudeDegrees>
            </Position>
            <AltitudeMeters>60.59999847412109375</AltitudeMeters>
            <DistanceMeters>8411.4472731213</DistanceMeters>
          </Trackpoint>
          <Trackpoint>
            <Time>2019-01-04T11:17:09.000Z</Time>
            <Position>
              <LatitudeDegrees>36.4955391548573970794677734375</LatitudeDegrees>
              <LongitudeDegrees>-5.40613518096506595611572265625</LongitudeDegrees>
            </Position>
            <AltitudeMeters>60.59999847412109375</AltitudeMeters>
            <DistanceMeters>8411.7160492578</DistanceMeters>
          </Trackpoint>
          <Trackpoint>
            <Time>2019-01-04T11:17:10.000Z</Time>
            <Position>
              <LatitudeDegrees>36.4955428428947925567626953125</LatitudeDegrees>
              <LongitudeDegrees>-5.406144149601459503173828125</LongitudeDegrees>
            </Position>
            <AltitudeMeters>60.799999237060546875</AltitudeMeters>
            <DistanceMeters>8412.6175518257</DistanceMeters>
          </Trackpoint>
          <Trackpoint>
            <Time>2019-01-04T11:17:11.000Z</Time>
            <Position>
              <LatitudeDegrees>36.49555164389312267303466796875</LatitudeDegrees>
              <LongitudeDegrees>-5.406161583960056304931640625</LongitudeDegrees>
            </Position>
            <AltitudeMeters>61</AltitudeMeters>
            <DistanceMeters>8414.4601881824</DistanceMeters>
          </Trackpoint>
          <Trackpoint>
            <Time>2019-01-04T11:17:12.000Z</Time>
            <Position>
              <LatitudeDegrees>36.4955587685108184814453125</LatitudeDegrees>
              <LongitudeDegrees>-5.40617893449962139129638671875</LongitudeDegrees>
            </Position>
            <AltitudeMeters>61.200000762939453125</AltitudeMeters>
            <DistanceMeters>8416.202056629</DistanceMeters>
          </Trackpoint>
          <Trackpoint>
            <Time>2019-01-04T11:17:13.000Z</Time>
            <Position>
              <LatitudeDegrees>36.49556371383368968963623046875</LatitudeDegrees>
              <LongitudeDegrees>-5.40619804523885250091552734375</LongitudeDegrees>
            </Position>
            <AltitudeMeters>61.40000152587890625</AltitudeMeters>
            <DistanceMeters>8418.0000464418</DistanceMeters>
          </Trackpoint>
          <Trackpoint>
            <Time>2019-01-04T11:17:14.000Z</Time>
            <Position>
              <LatitudeDegrees>36.49556907825171947479248046875</LatitudeDegrees>
              <LongitudeDegrees>-5.40621195919811725616455078125</LongitudeDegrees>
            </Position>
            <AltitudeMeters>61.59999847412109375</AltitudeMeters>
            <DistanceMeters>8419.3836562878</DistanceMeters>
          </Trackpoint>
          <Trackpoint>
            <Time>2019-01-04T11:17:15.000Z</Time>
            <Position>
              <LatitudeDegrees>36.49557880125939846038818359375</LatitudeDegrees>
              <LongitudeDegrees>-5.40623090229928493499755859375</LongitudeDegrees>
            </Position>
            <AltitudeMeters>61.59999847412109375</AltitudeMeters>
            <DistanceMeters>8421.3949927209</DistanceMeters>
          </Trackpoint>
          <Trackpoint>
            <Time>2019-01-04T11:17:16.000Z</Time>
            <Position>
              <LatitudeDegrees>36.49558835662901401519775390625</LatitudeDegrees>
              <LongitudeDegrees>-5.40624649263918399810791015625</LongitudeDegrees>
            </Position>
            <AltitudeMeters>61.59999847412109375</AltitudeMeters>
            <DistanceMeters>8423.1471987564</DistanceMeters>
          </Trackpoint>
          <Trackpoint>
            <Time>2019-01-04T11:17:17.000Z</Time>
            <Position>
              <LatitudeDegrees>36.4955964870750904083251953125</LatitudeDegrees>
              <LongitudeDegrees>-5.40626292116940021514892578125</LongitudeDegrees>
            </Position>
            <AltitudeMeters>61.59999847412109375</AltitudeMeters>
            <DistanceMeters>8424.8734447489</DistanceMeters>
          </Trackpoint>
          <Trackpoint>
            <Time>2019-01-04T11:17:18.000Z</Time>
            <Position>
              <LatitudeDegrees>36.49560126475989818572998046875</LatitudeDegrees>
              <LongitudeDegrees>-5.40627616457641124725341796875</LongitudeDegrees>
            </Position>
            <AltitudeMeters>61.799999237060546875</AltitudeMeters>
            <DistanceMeters>8426.1763854119</DistanceMeters>
          </Trackpoint>
          <Trackpoint>
            <Time>2019-01-04T11:17:19.000Z</Time>
            <Position>
              <LatitudeDegrees>36.4956052042543888092041015625</LatitudeDegrees>
              <LongitudeDegrees>-5.40628957562148571014404296875</LongitudeDegrees>
            </Position>
            <AltitudeMeters>61.799999237060546875</AltitudeMeters>
            <DistanceMeters>8427.4548391015</DistanceMeters>
          </Trackpoint>
          <Trackpoint>
            <Time>2019-01-04T11:17:20.000Z</Time>
            <Position>
              <LatitudeDegrees>36.49561098776757717132568359375</LatitudeDegrees>
              <LongitudeDegrees>-5.4063025675714015960693359375</LongitudeDegrees>
            </Position>
            <AltitudeMeters>62</AltitudeMeters>
            <DistanceMeters>8428.7852131027</DistanceMeters>
          </Trackpoint>
          <Trackpoint>
            <Time>2019-01-04T11:17:21.000Z</Time>
            <Position>
              <LatitudeDegrees>36.49561685509979724884033203125</LatitudeDegrees>
              <LongitudeDegrees>-5.40631891228258609771728515625</LongitudeDegrees>
            </Position>
            <AltitudeMeters>62</AltitudeMeters>
            <DistanceMeters>8430.3866317581</DistanceMeters>
          </Trackpoint>
          <Trackpoint>
            <Time>2019-01-04T11:17:22.000Z</Time>
            <Position>
              <LatitudeDegrees>36.49562389589846134185791015625</LatitudeDegrees>
              <LongitudeDegrees>-5.40633031167089939117431640625</LongitudeDegrees>
            </Position>
            <AltitudeMeters>62</AltitudeMeters>
            <DistanceMeters>8431.6686122232</DistanceMeters>
          </Trackpoint>
          <Trackpoint>
            <Time>2019-01-04T11:17:23.000Z</Time>
            <Position>
              <LatitudeDegrees>36.4956323616206645965576171875</LatitudeDegrees>
              <LongitudeDegrees>-5.40634389035403728485107421875</LongitudeDegrees>
            </Position>
            <AltitudeMeters>62</AltitudeMeters>
            <DistanceMeters>8433.2067539684</DistanceMeters>
          </Trackpoint>
          <Trackpoint>
            <Time>2019-01-04T11:17:24.000Z</Time>
            <Position>
              <LatitudeDegrees>36.4956419169902801513671875</LatitudeDegrees>
              <LongitudeDegrees>-5.406356044113636016845703125</LongitudeDegrees>
            </Position>
            <AltitudeMeters>62</AltitudeMeters>
            <DistanceMeters>8434.7271813983</DistanceMeters>
          </Trackpoint>
          <Trackpoint>
            <Time>2019-01-04T11:17:25.000Z</Time>
            <Position>
              <LatitudeDegrees>36.49564920924603939056396484375</LatitudeDegrees>
              <LongitudeDegrees>-5.406369455158710479736328125</LongitudeDegrees>
            </Position>
            <AltitudeMeters>62</AltitudeMeters>
            <DistanceMeters>8436.1777012401</DistanceMeters>
          </Trackpoint>
          <Trackpoint>
            <Time>2019-01-04T11:17:26.000Z</Time>
            <Position>
              <LatitudeDegrees>36.49565524421632289886474609375</LatitudeDegrees>
              <LongitudeDegrees>-5.40638378821313381195068359375</LongitudeDegrees>
            </Position>
            <AltitudeMeters>61.799999237060546875</AltitudeMeters>
            <DistanceMeters>8437.6251050314</DistanceMeters>
          </Trackpoint>
          <Trackpoint>
            <Time>2019-01-04T11:17:27.000Z</Time>
            <Position>
              <LatitudeDegrees>36.495662033557891845703125</LatitudeDegrees>
              <LongitudeDegrees>-5.40639904327690601348876953125</LongitudeDegrees>
            </Position>
            <AltitudeMeters>61.799999237060546875</AltitudeMeters>
            <DistanceMeters>8439.183659029</DistanceMeters>
          </Trackpoint>
          <Trackpoint>
            <Time>2019-01-04T11:17:28.000Z</Time>
            <Position>
              <LatitudeDegrees>36.49566764943301677703857421875</LatitudeDegrees>
              <LongitudeDegrees>-5.406417064368724822998046875</LongitudeDegrees>
            </Position>
            <AltitudeMeters>61.799999237060546875</AltitudeMeters>
            <DistanceMeters>8440.9125185672</DistanceMeters>
          </Trackpoint>
          <Trackpoint>
            <Time>2019-01-04T11:17:29.000Z</Time>
            <Position>
              <LatitudeDegrees>36.495672762393951416015625</LatitudeDegrees>
              <LongitudeDegrees>-5.40643148124217987060546875</LongitudeDegrees>
            </Position>
            <AltitudeMeters>61.799999237060546875</AltitudeMeters>
            <DistanceMeters>8442.3187855196</DistanceMeters>
          </Trackpoint>
          <Trackpoint>
            <Time>2019-01-04T11:17:30.000Z</Time>
            <Position>
              <LatitudeDegrees>36.49567636661231517791748046875</LatitudeDegrees>
              <LongitudeDegrees>-5.40644866414368152618408203125</LongitudeDegrees>
            </Position>
            <AltitudeMeters>61.799999237060546875</AltitudeMeters>
            <DistanceMeters>8443.9088865869</DistanceMeters>
          </Trackpoint>
          <Trackpoint>
            <Time>2019-01-04T11:17:31.000Z</Time>
            <Position>
              <LatitudeDegrees>36.49568223394453525543212890625</LatitudeDegrees>
              <LongitudeDegrees>-5.4064688645303249359130859375</LongitudeDegrees>
            </Position>
            <AltitudeMeters>61.799999237060546875</AltitudeMeters>
            <DistanceMeters>8445.8306829511</DistanceMeters>
          </Trackpoint>
          <Trackpoint>
            <Time>2019-01-04T11:17:32.000Z</Time>
            <Position>
              <LatitudeDegrees>36.49568944238126277923583984375</LatitudeDegrees>
              <LongitudeDegrees>-5.40648621506989002227783203125</LongitudeDegrees>
            </Position>
            <AltitudeMeters>61.799999237060546875</AltitudeMeters>
            <DistanceMeters>8447.5777278384</DistanceMeters>
          </Trackpoint>
          <Trackpoint>
            <Time>2019-01-04T11:17:33.000Z</Time>
            <Position>
              <LatitudeDegrees>36.495696566998958587646484375</LatitudeDegrees>
              <LongitudeDegrees>-5.40650247596204280853271484375</LongitudeDegrees>
            </Position>
            <AltitudeMeters>61.799999237060546875</AltitudeMeters>
            <DistanceMeters>8449.2345752179</DistanceMeters>
          </Trackpoint>
          <Trackpoint>
            <Time>2019-01-04T11:17:34.000Z</Time>
            <Position>
              <LatitudeDegrees>36.49570385925471782684326171875</LatitudeDegrees>
              <LongitudeDegrees>-5.4065211676061153411865234375</LongitudeDegrees>
            </Position>
            <AltitudeMeters>62</AltitudeMeters>
            <DistanceMeters>8451.0918552726</DistanceMeters>
          </Trackpoint>
          <Trackpoint>
            <Time>2019-01-04T11:17:35.000Z</Time>
            <Position>
              <LatitudeDegrees>36.4957091398537158966064453125</LatitudeDegrees>
              <LongitudeDegrees>-5.40653533302247524261474609375</LongitudeDegrees>
            </Position>
            <AltitudeMeters>62</AltitudeMeters>
            <DistanceMeters>8452.4884570454</DistanceMeters>
          </Trackpoint>
          <Trackpoint>
            <Time>2019-01-04T11:17:36.000Z</Time>
            <Position>
              <LatitudeDegrees>36.4957134984433650970458984375</LatitudeDegrees>
              <LongitudeDegrees>-5.40654941461980342864990234375</LongitudeDegrees>
            </Position>
            <AltitudeMeters>62.200000762939453125</AltitudeMeters>
            <DistanceMeters>8453.8390404163</DistanceMeters>
          </Trackpoint>
          <Trackpoint>
            <Time>2019-01-04T11:17:37.000Z</Time>
            <Position>
              <LatitudeDegrees>36.49571676738560199737548828125</LatitudeDegrees>
              <LongitudeDegrees>-5.4065622389316558837890625</LongitudeDegrees>
            </Position>
            <AltitudeMeters>62.200000762939453125</AltitudeMeters>
            <DistanceMeters>8455.04479425</DistanceMeters>
          </Trackpoint>
          <Trackpoint>
            <Time>2019-01-04T11:17:38.000Z</Time>
            <Position>
              <LatitudeDegrees>36.49572095833718776702880859375</LatitudeDegrees>
              <LongitudeDegrees>-5.406575314700603485107421875</LongitudeDegrees>
            </Position>
            <AltitudeMeters>62.40000152587890625</AltitudeMeters>
            <DistanceMeters>8456.3018795206</DistanceMeters>
          </Trackpoint>
          <Trackpoint>
            <Time>2019-01-04T11:17:39.000Z</Time>
            <Position>
              <LatitudeDegrees>36.49572531692683696746826171875</LatitudeDegrees>
              <LongitudeDegrees>-5.4065922461450099945068359375</LongitudeDegrees>
            </Position>
            <AltitudeMeters>62.40000152587890625</AltitudeMeters>
            <DistanceMeters>8457.889138582</DistanceMeters>
          </Trackpoint>
          <Trackpoint>
            <Time>2019-01-04T11:17:40.000Z</Time>
            <Position>
              <LatitudeDegrees>36.49573202244937419891357421875</LatitudeDegrees>
              <LongitudeDegrees>-5.40661110542714595794677734375</LongitudeDegrees>
            </Position>
            <AltitudeMeters>62.40000152587890625</AltitudeMeters>
            <DistanceMeters>8459.7342236259</DistanceMeters>
          </Trackpoint>
          <Trackpoint>
            <Time>2019-01-04T11:17:41.000Z</Time>
            <Position>
              <LatitudeDegrees>36.4957362972199916839599609375</LatitudeDegrees>
              <LongitudeDegrees>-5.40662099607288837432861328125</LongitudeDegrees>
            </Position>
            <AltitudeMeters>62.40000152587890625</AltitudeMeters>
            <DistanceMeters>8460.7443714558</DistanceMeters>
          </Trackpoint>
          <Trackpoint>
            <Time>2019-01-04T11:17:42.000Z</Time>
            <Position>
              <LatitudeDegrees>36.49574157781898975372314453125</LatitudeDegrees>
              <LongitudeDegrees>-5.4066400229930877685546875</LongitudeDegrees>
            </Position>
            <AltitudeMeters>62.40000152587890625</AltitudeMeters>
            <DistanceMeters>8462.5473765916</DistanceMeters>
          </Trackpoint>
          <Trackpoint>
            <Time>2019-01-04T11:17:43.000Z</Time>
            <Position>
              <LatitudeDegrees>36.495751552283763885498046875</LatitudeDegrees>
              <LongitudeDegrees>-5.4066542722284793853759765625</LongitudeDegrees>
            </Position>
            <AltitudeMeters>62.40000152587890625</AltitudeMeters>
            <DistanceMeters>8464.2419456546</DistanceMeters>
          </Trackpoint>
          <Trackpoint>
            <Time>2019-01-04T11:17:44.000Z</Time>
            <Position>
              <LatitudeDegrees>36.49575834162533283233642578125</LatitudeDegrees>
              <LongitudeDegrees>-5.4066683538258075714111328125</LongitudeDegrees>
            </Position>
            <AltitudeMeters>62.40000152587890625</AltitudeMeters>
            <DistanceMeters>8465.7110230079</DistanceMeters>
          </Trackpoint>
          <Trackpoint>
            <Time>2019-01-04T11:17:45.000Z</Time>
            <Position>
              <LatitudeDegrees>36.4957621134817600250244140625</LatitudeDegrees>
              <LongitudeDegrees>-5.4066824354231357574462890625</LongitudeDegrees>
            </Position>
            <AltitudeMeters>62.40000152587890625</AltitudeMeters>
            <DistanceMeters>8467.0413970091</DistanceMeters>
          </Trackpoint>
          <Trackpoint>
            <Time>2019-01-04T11:17:46.000Z</Time>
            <Position>
              <LatitudeDegrees>36.49576622061431407928466796875</LatitudeDegrees>
              <LongitudeDegrees>-5.4066988639533519744873046875</LongitudeDegrees>
            </Position>
            <AltitudeMeters>62.40000152587890625</AltitudeMeters>
            <DistanceMeters>8468.5795387543</DistanceMeters>
          </Trackpoint>
          <Trackpoint>
            <Time>2019-01-04T11:17:47.000Z</Time>
            <Position>
              <LatitudeDegrees>36.49577124975621700286865234375</LatitudeDegrees>
              <LongitudeDegrees>-5.40671386756002902984619140625</LongitudeDegrees>
            </Position>
            <AltitudeMeters>62.40000152587890625</AltitudeMeters>
            <DistanceMeters>8470.033167967</DistanceMeters>
          </Trackpoint>
          <Trackpoint>
            <Time>2019-01-04T11:17:48.000Z</Time>
            <Position>
              <LatitudeDegrees>36.49577694945037364959716796875</LatitudeDegrees>
              <LongitudeDegrees>-5.40672476403415203094482421875</LongitudeDegrees>
            </Position>
            <AltitudeMeters>62.40000152587890625</AltitudeMeters>
            <DistanceMeters>8471.1931168409</DistanceMeters>
          </Trackpoint>
          <Trackpoint>
            <Time>2019-01-04T11:17:49.000Z</Time>
            <Position>
              <LatitudeDegrees>36.49578533135354518890380859375</LatitudeDegrees>
              <LongitudeDegrees>-5.4067390970885753631591796875</LongitudeDegrees>
            </Position>
            <AltitudeMeters>62.40000152587890625</AltitudeMeters>
            <DistanceMeters>8472.7775287985</DistanceMeters>
          </Trackpoint>
          <Trackpoint>
            <Time>2019-01-04T11:17:50.000Z</Time>
            <Position>
              <LatitudeDegrees>36.4957963116466999053955078125</LatitudeDegrees>
              <LongitudeDegrees>-5.4067541845142841339111328125</LongitudeDegrees>
            </Position>
            <AltitudeMeters>62.59999847412109375</AltitudeMeters>
            <DistanceMeters>8474.597978758</DistanceMeters>
          </Trackpoint>
          <Trackpoint>
            <Time>2019-01-04T11:17:51.000Z</Time>
            <Position>
              <LatitudeDegrees>36.4958053641021251678466796875</LatitudeDegrees>
              <LongitudeDegrees>-5.40676482953131198883056640625</LongitudeDegrees>
            </Position>
            <AltitudeMeters>62.59999847412109375</AltitudeMeters>
            <DistanceMeters>8475.981588604</DistanceMeters>
          </Trackpoint>
          <Trackpoint>
            <Time>2019-01-04T11:17:52.000Z</Time>
            <Position>
              <LatitudeDegrees>36.49581232108175754547119140625</LatitudeDegrees>
              <LongitudeDegrees>-5.4067776538431644439697265625</LongitudeDegrees>
            </Position>
            <AltitudeMeters>62.799999237060546875</AltitudeMeters>
            <DistanceMeters>8477.3684578418</DistanceMeters>
          </Trackpoint>
          <Trackpoint>
            <Time>2019-01-04T11:17:53.000Z</Time>
            <Position>
              <LatitudeDegrees>36.49581827223300933837890625</LatitudeDegrees>
              <LongitudeDegrees>-5.4067955911159515380859375</LongitudeDegrees>
            </Position>
            <AltitudeMeters>62.799999237060546875</AltitudeMeters>
            <DistanceMeters>8479.1051344185</DistanceMeters>
          </Trackpoint>
          <Trackpoint>
            <Time>2019-01-04T11:17:54.000Z</Time>
            <Position>
              <LatitudeDegrees>36.49582405574619770050048828125</LatitudeDegrees>
              <LongitudeDegrees>-5.4068088345229625701904296875</LongitudeDegrees>
            </Position>
            <AltitudeMeters>63</AltitudeMeters>
            <DistanceMeters>8480.4557177894</DistanceMeters>
          </Trackpoint>
          <Trackpoint>
            <Time>2019-01-04T11:17:55.000Z</Time>
            <Position>
              <LatitudeDegrees>36.4958295039832592010498046875</LatitudeDegrees>
              <LongitudeDegrees>-5.40682249702513217926025390625</LongitudeDegrees>
            </Position>
            <AltitudeMeters>63</AltitudeMeters>
            <DistanceMeters>8481.8196077217</DistanceMeters>
          </Trackpoint>
          <Trackpoint>
            <Time>2019-01-04T11:17:56.000Z</Time>
            <Position>
              <LatitudeDegrees>36.49583444930613040924072265625</LatitudeDegrees>
              <LongitudeDegrees>-5.40683791972696781158447265625</LongitudeDegrees>
            </Position>
            <AltitudeMeters>63.200000762939453125</AltitudeMeters>
            <DistanceMeters>8483.3039724519</DistanceMeters>
          </Trackpoint>
          <Trackpoint>
            <Time>2019-01-04T11:17:57.000Z</Time>
            <Position>
              <LatitudeDegrees>36.4958398975431919097900390625</LatitudeDegrees>
              <LongitudeDegrees>-5.4068497382104396820068359375</LongitudeDegrees>
            </Position>
            <AltitudeMeters>63.200000762939453125</AltitudeMeters>
            <DistanceMeters>8484.5209081679</DistanceMeters>
          </Trackpoint>
          <Trackpoint>
            <Time>2019-01-04T11:17:58.000Z</Time>
            <Position>
              <LatitudeDegrees>36.49584551341831684112548828125</LatitudeDegrees>
              <LongitudeDegrees>-5.40686105377972126007080078125</LongitudeDegrees>
            </Position>
            <AltitudeMeters>63.200000762939453125</AltitudeMeters>
            <DistanceMeters>8485.70779145</DistanceMeters>
          </Trackpoint>
          <Trackpoint>
            <Time>2019-01-04T11:17:59.000Z</Time>
            <Position>
              <LatitudeDegrees>36.4958511292934417724609375</LatitudeDegrees>
              <LongitudeDegrees>-5.40687278844416141510009765625</LongitudeDegrees>
            </Position>
            <AltitudeMeters>63.200000762939453125</AltitudeMeters>
            <DistanceMeters>8486.9284316972</DistanceMeters>
          </Trackpoint>
          <Trackpoint>
            <Time>2019-01-04T11:18:00.000Z</Time>
            <Position>
              <LatitudeDegrees>36.495856828987598419189453125</LatitudeDegrees>
              <LongitudeDegrees>-5.40688737295567989349365234375</LongitudeDegrees>
            </Position>
            <AltitudeMeters>63.200000762939453125</AltitudeMeters>
            <DistanceMeters>8488.3820609099</DistanceMeters>
          </Trackpoint>
          <Trackpoint>
            <Time>2019-01-04T11:18:01.000Z</Time>
            <Position>
              <LatitudeDegrees>36.49585808627307415008544921875</LatitudeDegrees>
              <LongitudeDegrees>-5.40690447203814983367919921875</LongitudeDegrees>
            </Position>
            <AltitudeMeters>63.200000762939453125</AltitudeMeters>
            <DistanceMeters>8489.9143206383</DistanceMeters>
          </Trackpoint>
          <Trackpoint>
            <Time>2019-01-04T11:18:02.000Z</Time>
            <Position>
              <LatitudeDegrees>36.4958563260734081268310546875</LatitudeDegrees>
              <LongitudeDegrees>-5.406919978559017181396484375</LongitudeDegrees>
            </Position>
            <AltitudeMeters>63.40000152587890625</AltitudeMeters>
            <DistanceMeters>8491.317373262</DistanceMeters>
          </Trackpoint>
          <Trackpoint>
            <Time>2019-01-04T11:18:03.000Z</Time>
            <Position>
              <LatitudeDegrees>36.4958533085882663726806640625</LatitudeDegrees>
              <LongitudeDegrees>-5.40693213231861591339111328125</LongitudeDegrees>
            </Position>
            <AltitudeMeters>63.40000152587890625</AltitudeMeters>
            <DistanceMeters>8492.45372749</DistanceMeters>
          </Trackpoint>
          <Trackpoint>
            <Time>2019-01-04T11:18:04.000Z</Time>
            <Position>
              <LatitudeDegrees>36.49585314095020294189453125</LatitudeDegrees>
              <LongitudeDegrees>-5.40694537572562694549560546875</LongitudeDegrees>
            </Position>
            <AltitudeMeters>63.40000152587890625</AltitudeMeters>
            <DistanceMeters>8493.6406107721</DistanceMeters>
          </Trackpoint>
          <Trackpoint>
            <Time>2019-01-04T11:18:05.000Z</Time>
            <Position>
              <LatitudeDegrees>36.4958469383418560028076171875</LatitudeDegrees>
              <LongitudeDegrees>-5.40695828385651111602783203125</LongitudeDegrees>
            </Position>
            <AltitudeMeters>63.59999847412109375</AltitudeMeters>
            <DistanceMeters>8494.991194143</DistanceMeters>
          </Trackpoint>
          <Trackpoint>
            <Time>2019-01-04T11:18:06.000Z</Time>
            <Position>
              <LatitudeDegrees>36.4958392269909381866455078125</LatitudeDegrees>
              <LongitudeDegrees>-5.406968593597412109375</LongitudeDegrees>
            </Position>
            <AltitudeMeters>63.59999847412109375</AltitudeMeters>
            <DistanceMeters>8496.2482794136</DistanceMeters>
          </Trackpoint>
          <Trackpoint>
            <Time>2019-01-04T11:18:07.000Z</Time>
            <Position>
              <LatitudeDegrees>36.4958345331251621246337890625</LatitudeDegrees>
              <LongitudeDegrees>-5.406972281634807586669921875</LongitudeDegrees>
            </Position>
            <AltitudeMeters>63.59999847412109375</AltitudeMeters>
            <DistanceMeters>8496.8641229089</DistanceMeters>
          </Trackpoint>
          <Trackpoint>
            <Time>2019-01-04T11:18:08.000Z</Time>
            <Position>
              <LatitudeDegrees>36.495834030210971832275390625</LatitudeDegrees>
              <LongitudeDegrees>-5.40697454474866390228271484375</LongitudeDegrees>
            </Position>
            <AltitudeMeters>63.59999847412109375</AltitudeMeters>
            <DistanceMeters>8497.096889871</DistanceMeters>
          </Trackpoint>
          <Trackpoint>
            <Time>2019-01-04T11:18:09.000Z</Time>
            <Position>
              <LatitudeDegrees>36.495833359658718109130859375</LatitudeDegrees>
              <LongitudeDegrees>-5.40697705931961536407470703125</LongitudeDegrees>
            </Position>
            <AltitudeMeters>63.59999847412109375</AltitudeMeters>
            <DistanceMeters>8497.3296568331</DistanceMeters>
          </Trackpoint>
          <Trackpoint>
            <Time>2019-01-04T11:18:10.000Z</Time>
            <Position>
              <LatitudeDegrees>36.4958338625729084014892578125</LatitudeDegrees>
              <LongitudeDegrees>-5.40697890333831310272216796875</LongitudeDegrees>
            </Position>
            <AltitudeMeters>63.59999847412109375</AltitudeMeters>
            <DistanceMeters>8497.4942479305</DistanceMeters>
          </Trackpoint>
          <Trackpoint>
            <Time>2019-01-04T11:18:11.000Z</Time>
            <Position>
              <LatitudeDegrees>36.495834700763225555419921875</LatitudeDegrees>
              <LongitudeDegrees>-5.40698376484215259552001953125</LongitudeDegrees>
            </Position>
            <AltitudeMeters>63.59999847412109375</AltitudeMeters>
            <DistanceMeters>8497.9399627292</DistanceMeters>
          </Trackpoint>
          <Trackpoint>
            <Time>2019-01-04T11:18:12.000Z</Time>
            <Position>
              <LatitudeDegrees>36.49583092890679836273193359375</LatitudeDegrees>
              <LongitudeDegrees>-5.40698778815567493438720703125</LongitudeDegrees>
            </Position>
            <AltitudeMeters>63.59999847412109375</AltitudeMeters>
            <DistanceMeters>8498.4940589294</DistanceMeters>
          </Trackpoint>
          <Trackpoint>
            <Time>2019-01-04T11:18:13.000Z</Time>
            <Position>
              <LatitudeDegrees>36.49583042599260807037353515625</LatitudeDegrees>
              <LongitudeDegrees>-5.4069912247359752655029296875</LongitudeDegrees>
            </Position>
            <AltitudeMeters>63.40000152587890625</AltitudeMeters>
            <DistanceMeters>8498.7945597854</DistanceMeters>
          </Trackpoint>
          <Trackpoint>
            <Time>2019-01-04T11:18:14.000Z</Time>
            <Position>
              <LatitudeDegrees>36.49583076126873493194580078125</LatitudeDegrees>
              <LongitudeDegrees>-5.40699399076402187347412109375</LongitudeDegrees>
            </Position>
            <AltitudeMeters>63.40000152587890625</AltitudeMeters>
            <DistanceMeters>8499.0273267475</DistanceMeters>
          </Trackpoint>
          <Trackpoint>
            <Time>2019-01-04T11:18:15.000Z</Time>
            <Position>
              <LatitudeDegrees>36.4958345331251621246337890625</LatitudeDegrees>
              <LongitudeDegrees>-5.4069952480494976043701171875</LongitudeDegrees>
            </Position>
            <AltitudeMeters>63.40000152587890625</AltitudeMeters>
            <DistanceMeters>8499.4627938592</DistanceMeters>
          </Trackpoint>
          <Trackpoint>
            <Time>2019-01-04T11:18:16.000Z</Time>
            <Position>
              <LatitudeDegrees>36.49583679623901844024658203125</LatitudeDegrees>
              <LongitudeDegrees>-5.4069969244301319122314453125</LongitudeDegrees>
            </Position>
            <AltitudeMeters>63.40000152587890625</AltitudeMeters>
            <DistanceMeters>8499.7632947151</DistanceMeters>
          </Trackpoint>
          <Trackpoint>
            <Time>2019-01-04T11:18:17.000Z</Time>
            <Position>
              <LatitudeDegrees>36.49583780206739902496337890625</LatitudeDegrees>
              <LongitudeDegrees>-5.40699801407754421234130859375</LongitudeDegrees>
            </Position>
            <AltitudeMeters>63.59999847412109375</AltitudeMeters>
            <DistanceMeters>8499.8976827834</DistanceMeters>
          </Trackpoint>
          <Trackpoint>
            <Time>2019-01-04T11:18:18.000Z</Time>
            <Position>
              <LatitudeDegrees>36.49583931080996990203857421875</LatitudeDegrees>
              <LongitudeDegrees>-5.40699784643948078155517578125</LongitudeDegrees>
            </Position>
            <AltitudeMeters>63.799999237060546875</AltitudeMeters>
            <DistanceMeters>8500.0622738808</DistanceMeters>
          </Trackpoint>
          <Trackpoint>
            <Time>2019-01-04T11:18:19.000Z</Time>
            <Position>
              <LatitudeDegrees>36.4958417415618896484375</LatitudeDegrees>
              <LongitudeDegrees>-5.40700119920074939727783203125</LongitudeDegrees>
            </Position>
            <AltitudeMeters>64</AltitudeMeters>
            <DistanceMeters>8500.4654380855</DistanceMeters>
          </Trackpoint>
          <Trackpoint>
            <Time>2019-01-04T11:18:20.000Z</Time>
            <Position>
              <LatitudeDegrees>36.4958432503044605255126953125</LatitudeDegrees>
              <LongitudeDegrees>-5.40700287558138370513916015625</LongitudeDegrees>
            </Position>
            <AltitudeMeters>64.1999969482421875</AltitudeMeters>
            <DistanceMeters>8500.6982050476</DistanceMeters>
          </Trackpoint>
          <Trackpoint>
            <Time>2019-01-04T11:18:21.000Z</Time>
            <Position>
              <LatitudeDegrees>36.49583880789577960968017578125</LatitudeDegrees>
              <LongitudeDegrees>-5.40700539015233516693115234375</LongitudeDegrees>
            </Position>
            <AltitudeMeters>64.40000152587890625</AltitudeMeters>
            <DistanceMeters>8501.2523012479</DistanceMeters>
          </Trackpoint>
          <Trackpoint>
            <Time>2019-01-04T11:18:22.000Z</Time>
            <Position>
              <LatitudeDegrees>36.49583838880062103271484375</LatitudeDegrees>
              <LongitudeDegrees>-5.40700145065784454345703125</LongitudeDegrees>
            </Position>
            <AltitudeMeters>64.40000152587890625</AltitudeMeters>
            <DistanceMeters>8501.6078586556</DistanceMeters>
          </Trackpoint>
          <Trackpoint>
            <Time>2019-01-04T11:18:23.000Z</Time>
            <Position>
              <LatitudeDegrees>36.49583914317190647125244140625</LatitudeDegrees>
              <LongitudeDegrees>-5.40700019337236881256103515625</LongitudeDegrees>
            </Position>
            <AltitudeMeters>64.59999847412109375</AltitudeMeters>
            <DistanceMeters>8501.7422467239</DistanceMeters>
          </Trackpoint>
          <Trackpoint>
            <Time>2019-01-04T11:18:24.000Z</Time>
            <Position>
              <LatitudeDegrees>36.495837382972240447998046875</LatitudeDegrees>
              <LongitudeDegrees>-5.406999103724956512451171875</LongitudeDegrees>
            </Position>
            <AltitudeMeters>64.59999847412109375</AltitudeMeters>
            <DistanceMeters>8501.975013686</DistanceMeters>
          </Trackpoint>
          <Trackpoint>
            <Time>2019-01-04T11:18:25.000Z</Time>
            <Position>
              <LatitudeDegrees>36.49583394639194011688232421875</LatitudeDegrees>
              <LongitudeDegrees>-5.40699868462979793548583984375</LongitudeDegrees>
            </Position>
            <AltitudeMeters>64.8000030517578125</AltitudeMeters>
            <DistanceMeters>8502.3551205435</DistanceMeters>
          </Trackpoint>
          <Trackpoint>
            <Time>2019-01-04T11:18:26.000Z</Time>
            <Position>
              <LatitudeDegrees>36.4958315156400203704833984375</LatitudeDegrees>
              <LongitudeDegrees>-5.40699834935367107391357421875</LongitudeDegrees>
            </Position>
            <AltitudeMeters>64.8000030517578125</AltitudeMeters>
            <DistanceMeters>8502.62389668</DistanceMeters>
          </Trackpoint>
          <Trackpoint>
            <Time>2019-01-04T11:18:27.000Z</Time>
            <Position>
              <LatitudeDegrees>36.49583034217357635498046875</LatitudeDegrees>
              <LongitudeDegrees>-5.40699784643948078155517578125</LongitudeDegrees>
            </Position>
            <AltitudeMeters>64.8000030517578125</AltitudeMeters>
            <DistanceMeters>8502.7582847482</DistanceMeters>
          </Trackpoint>
          <Trackpoint>
            <Time>2019-01-04T11:18:28.000Z</Time>
            <Position>
              <LatitudeDegrees>36.4958341978490352630615234375</LatitudeDegrees>
              <LongitudeDegrees>-5.40700103156268596649169921875</LongitudeDegrees>
            </Position>
            <AltitudeMeters>64.8000030517578125</AltitudeMeters>
            <DistanceMeters>8503.2787674985</DistanceMeters>
          </Trackpoint>
          <Trackpoint>
            <Time>2019-01-04T11:18:29.000Z</Time>
            <Position>
              <LatitudeDegrees>36.49583704769611358642578125</LatitudeDegrees>
              <LongitudeDegrees>-5.40700036101043224334716796875</LongitudeDegrees>
            </Position>
            <AltitudeMeters>64.8000030517578125</AltitudeMeters>
            <DistanceMeters>8503.6079496932</DistanceMeters>
          </Trackpoint>
          <Trackpoint>
            <Time>2019-01-04T11:18:30.000Z</Time>
            <Position>
              <LatitudeDegrees>36.495835371315479278564453125</LatitudeDegrees>
              <LongitudeDegrees>-5.4070046357810497283935546875</LongitudeDegrees>
            </Position>
            <AltitudeMeters>64.59999847412109375</AltitudeMeters>
            <DistanceMeters>8504.0329220793</DistanceMeters>
          </Trackpoint>
          <Trackpoint>
            <Time>2019-01-04T11:18:31.000Z</Time>
            <Position>
              <LatitudeDegrees>36.49582858197391033172607421875</LatitudeDegrees>
              <LongitudeDegrees>-5.40701217949390411376953125</LongitudeDegrees>
            </Position>
            <AltitudeMeters>64.1999969482421875</AltitudeMeters>
            <DistanceMeters>8505.0475297446</DistanceMeters>
          </Trackpoint>
          <Trackpoint>
            <Time>2019-01-04T11:18:32.000Z</Time>
            <Position>
              <LatitudeDegrees>36.49582070298492908477783203125</LatitudeDegrees>
              <LongitudeDegrees>-5.40702290832996368408203125</LongitudeDegrees>
            </Position>
            <AltitudeMeters>64</AltitudeMeters>
            <DistanceMeters>8506.3504704077</DistanceMeters>
          </Trackpoint>
          <Trackpoint>
            <Time>2019-01-04T11:18:33.000Z</Time>
            <Position>
              <LatitudeDegrees>36.495806872844696044921875</LatitudeDegrees>
              <LongitudeDegrees>-5.40703053586184978485107421875</LongitudeDegrees>
            </Position>
            <AltitudeMeters>63.59999847412109375</AltitudeMeters>
            <DistanceMeters>8508.0343480765</DistanceMeters>
          </Trackpoint>
          <Trackpoint>
            <Time>2019-01-04T11:18:34.000Z</Time>
            <Position>
              <LatitudeDegrees>36.49579404853284358978271484375</LatitudeDegrees>
              <LongitudeDegrees>-5.40704025886952877044677734375</LongitudeDegrees>
            </Position>
            <AltitudeMeters>63.59999847412109375</AltitudeMeters>
            <DistanceMeters>8509.7074660333</DistanceMeters>
          </Trackpoint>
          <Trackpoint>
            <Time>2019-01-04T11:18:35.000Z</Time>
            <Position>
              <LatitudeDegrees>36.49578063748776912689208984375</LatitudeDegrees>
              <LongitudeDegrees>-5.40704905986785888671875</LongitudeDegrees>
            </Position>
            <AltitudeMeters>63.40000152587890625</AltitudeMeters>
            <DistanceMeters>8511.3966978577</DistanceMeters>
          </Trackpoint>
          <Trackpoint>
            <Time>2019-01-04T11:18:36.000Z</Time>
            <Position>
              <LatitudeDegrees>36.49576923809945583343505859375</LatitudeDegrees>
              <LongitudeDegrees>-5.40705333463847637176513671875</LongitudeDegrees>
            </Position>
            <AltitudeMeters>63.40000152587890625</AltitudeMeters>
            <DistanceMeters>8512.7202668321</DistanceMeters>
          </Trackpoint>
          <Trackpoint>
            <Time>2019-01-04T11:18:37.000Z</Time>
            <Position>
              <LatitudeDegrees>36.4957560785114765167236328125</LatitudeDegrees>
              <LongitudeDegrees>-5.4070549272000789642333984375</LongitudeDegrees>
            </Position>
            <AltitudeMeters>63.40000152587890625</AltitudeMeters>
            <DistanceMeters>8514.1924143609</DistanceMeters>
          </Trackpoint>
          <Trackpoint>
            <Time>2019-01-04T11:18:38.000Z</Time>
            <Position>
              <LatitudeDegrees>36.49574317038059234619140625</LatitudeDegrees>
              <LongitudeDegrees>-5.4070569388568401336669921875</LongitudeDegrees>
            </Position>
            <AltitudeMeters>63.200000762939453125</AltitudeMeters>
            <DistanceMeters>8515.6460435736</DistanceMeters>
          </Trackpoint>
          <Trackpoint>
            <Time>2019-01-04T11:18:39.000Z</Time>
            <Position>
              <LatitudeDegrees>36.4957336150109767913818359375</LatitudeDegrees>
              <LongitudeDegrees>-5.40706054307520389556884765625</LongitudeDegrees>
            </Position>
            <AltitudeMeters>63.200000762939453125</AltitudeMeters>
            <DistanceMeters>8516.7623547082</DistanceMeters>
          </Trackpoint>
          <Trackpoint>
            <Time>2019-01-04T11:18:40.000Z</Time>
            <Position>
              <LatitudeDegrees>36.49573034606873989105224609375</LatitudeDegrees>
              <LongitudeDegrees>-5.407062135636806488037109375</LongitudeDegrees>
            </Position>
            <AltitudeMeters>63.200000762939453125</AltitudeMeters>
            <DistanceMeters>8517.1424615657</DistanceMeters>
          </Trackpoint>
          <Trackpoint>
            <Time>2019-01-04T11:18:41.000Z</Time>
            <Position>
              <LatitudeDegrees>36.49573051370680332183837890625</LatitudeDegrees>
              <LongitudeDegrees>-5.4070616327226161956787109375</LongitudeDegrees>
            </Position>
            <AltitudeMeters>63.200000762939453125</AltitudeMeters>
            <DistanceMeters>8517.1424615657</DistanceMeters>
          </Trackpoint>
          <Trackpoint>
            <Time>2019-01-04T11:18:42.000Z</Time>
            <Position>
              <LatitudeDegrees>36.49573168717324733734130859375</LatitudeDegrees>
              <LongitudeDegrees>-5.40705970488488674163818359375</LongitudeDegrees>
            </Position>
            <AltitudeMeters>63</AltitudeMeters>
            <DistanceMeters>8517.3325149944</DistanceMeters>
          </Trackpoint>
          <Trackpoint>
            <Time>2019-01-04T11:18:43.000Z</Time>
            <Position>
              <LatitudeDegrees>36.49573436938226222991943359375</LatitudeDegrees>
              <LongitudeDegrees>-5.407058782875537872314453125</LongitudeDegrees>
            </Position>
            <AltitudeMeters>63</AltitudeMeters>
            <DistanceMeters>8517.6330158504</DistanceMeters>
          </Trackpoint>
          <Trackpoint>
            <Time>2019-01-04T11:18:44.000Z</Time>
            <Position>
              <LatitudeDegrees>36.4957376383244991302490234375</LatitudeDegrees>
              <LongitudeDegrees>-5.40705509483814239501953125</LongitudeDegrees>
            </Position>
            <AltitudeMeters>63.200000762939453125</AltitudeMeters>
            <DistanceMeters>8518.1175589212</DistanceMeters>
          </Trackpoint>
          <Trackpoint>
            <Time>2019-01-04T11:18:45.000Z</Time>
            <Position>
              <LatitudeDegrees>36.49574040435254573822021484375</LatitudeDegrees>
              <LongitudeDegrees>-5.40705283172428607940673828125</LongitudeDegrees>
            </Position>
            <AltitudeMeters>63.200000762939453125</AltitudeMeters>
            <DistanceMeters>8518.4976657787</DistanceMeters>
          </Trackpoint>
          <Trackpoint>
            <Time>2019-01-04T11:18:46.000Z</Time>
            <Position>
              <LatitudeDegrees>36.49574057199060916900634765625</LatitudeDegrees>
              <LongitudeDegrees>-5.40705216117203235626220703125</LongitudeDegrees>
            </Position>
            <AltitudeMeters>63.200000762939453125</AltitudeMeters>
            <DistanceMeters>8518.4976657787</DistanceMeters>
          </Trackpoint>
          <Trackpoint>
            <Time>2019-01-04T11:18:47.000Z</Time>
            <Position>
              <LatitudeDegrees>36.49574073962867259979248046875</LatitudeDegrees>
              <LongitudeDegrees>-5.40705199353396892547607421875</LongitudeDegrees>
            </Position>
            <AltitudeMeters>63.200000762939453125</AltitudeMeters>
            <DistanceMeters>8518.4976657787</DistanceMeters>
          </Trackpoint>
          <Trackpoint>
            <Time>2019-01-04T11:18:48.000Z</Time>
            <Position>
              <LatitudeDegrees>36.495740823447704315185546875</LatitudeDegrees>
              <LongitudeDegrees>-5.40705107152462005615234375</LongitudeDegrees>
            </Position>
            <AltitudeMeters>63.200000762939453125</AltitudeMeters>
            <DistanceMeters>8518.5926924931</DistanceMeters>
          </Trackpoint>
          <Trackpoint>
            <Time>2019-01-04T11:18:49.000Z</Time>
            <Position>
              <LatitudeDegrees>36.4957409910857677459716796875</LatitudeDegrees>
              <LongitudeDegrees>-5.40705098770558834075927734375</LongitudeDegrees>
            </Position>
            <AltitudeMeters>63.200000762939453125</AltitudeMeters>
            <DistanceMeters>8518.5926924931</DistanceMeters>
          </Trackpoint>
          <Trackpoint>
            <Time>2019-01-04T11:18:50.000Z</Time>
            <Position>
              <LatitudeDegrees>36.49574157781898975372314453125</LatitudeDegrees>
              <LongitudeDegrees>-5.40705115534365177154541015625</LongitudeDegrees>
            </Position>
            <AltitudeMeters>63.200000762939453125</AltitudeMeters>
            <DistanceMeters>8518.6877192075</DistanceMeters>
          </Trackpoint>
          <Trackpoint>
            <Time>2019-01-04T11:18:51.000Z</Time>
            <Position>
              <LatitudeDegrees>36.4957419969141483306884765625</LatitudeDegrees>
              <LongitudeDegrees>-5.4070502333343029022216796875</LongitudeDegrees>
            </Position>
            <AltitudeMeters>63.200000762939453125</AltitudeMeters>
            <DistanceMeters>8518.8221072757</DistanceMeters>
          </Trackpoint>
          <Trackpoint>
            <Time>2019-01-04T11:18:52.000Z</Time>
            <Position>
              <LatitudeDegrees>36.495742499828338623046875</LatitudeDegrees>
              <LongitudeDegrees>-5.40704973042011260986328125</LongitudeDegrees>
            </Position>
            <AltitudeMeters>63.200000762939453125</AltitudeMeters>
            <DistanceMeters>8518.8221072757</DistanceMeters>
          </Trackpoint>
          <Trackpoint>
            <Time>2019-01-04T11:18:53.000Z</Time>
            <Position>
              <LatitudeDegrees>36.495742835104465484619140625</LatitudeDegrees>
              <LongitudeDegrees>-5.40704998187720775604248046875</LongitudeDegrees>
            </Position>
            <AltitudeMeters>63.200000762939453125</AltitudeMeters>
            <DistanceMeters>8518.8221072757</DistanceMeters>
          </Trackpoint>
          <Trackpoint>
            <Time>2019-01-04T11:18:54.000Z</Time>
            <Position>
              <LatitudeDegrees>36.49573671631515026092529296875</LatitudeDegrees>
              <LongitudeDegrees>-5.40705366991460323333740234375</LongitudeDegrees>
            </Position>
            <AltitudeMeters>63.200000762939453125</AltitudeMeters>
            <DistanceMeters>8519.5823209907</DistanceMeters>
          </Trackpoint>
          <Trackpoint>
            <Time>2019-01-04T11:18:55.000Z</Time>
            <Position>
              <LatitudeDegrees>36.49572934024035930633544921875</LatitudeDegrees>
              <LongitudeDegrees>-5.40705752559006214141845703125</LongitudeDegrees>
            </Position>
            <AltitudeMeters>63</AltitudeMeters>
            <DistanceMeters>8520.473750588</DistanceMeters>
          </Trackpoint>
          <Trackpoint>
            <Time>2019-01-04T11:18:56.000Z</Time>
            <Position>
              <LatitudeDegrees>36.49572481401264667510986328125</LatitudeDegrees>
              <LongitudeDegrees>-5.407063476741313934326171875</LongitudeDegrees>
            </Position>
            <AltitudeMeters>63</AltitudeMeters>
            <DistanceMeters>8521.2098243524</DistanceMeters>
          </Trackpoint>
          <Trackpoint>
            <Time>2019-01-04T11:18:57.000Z</Time>
            <Position>
              <LatitudeDegrees>36.49572447873651981353759765625</LatitudeDegrees>
              <LongitudeDegrees>-5.40707177482545375823974609375</LongitudeDegrees>
            </Position>
            <AltitudeMeters>63</AltitudeMeters>
            <DistanceMeters>8521.9520067176</DistanceMeters>
          </Trackpoint>
          <Trackpoint>
            <Time>2019-01-04T11:18:58.000Z</Time>
            <Position>
              <LatitudeDegrees>36.495725400745868682861328125</LatitudeDegrees>
              <LongitudeDegrees>-5.4070770554244518280029296875</LongitudeDegrees>
            </Position>
            <AltitudeMeters>63.200000762939453125</AltitudeMeters>
            <DistanceMeters>8522.4365497884</DistanceMeters>
          </Trackpoint>
          <Trackpoint>
            <Time>2019-01-04T11:18:59.000Z</Time>
            <Position>
              <LatitudeDegrees>36.49572699330747127532958984375</LatitudeDegrees>
              <LongitudeDegrees>-5.40708116255700588226318359375</LongitudeDegrees>
            </Position>
            <AltitudeMeters>63.200000762939453125</AltitudeMeters>
            <DistanceMeters>8522.8397139932</DistanceMeters>
          </Trackpoint>
          <Trackpoint>
            <Time>2019-01-04T11:19:00.000Z</Time>
            <Position>
              <LatitudeDegrees>36.495727412402629852294921875</LatitudeDegrees>
              <LongitudeDegrees>-5.4070837609469890594482421875</LongitudeDegrees>
            </Position>
            <AltitudeMeters>63.200000762939453125</AltitudeMeters>
            <DistanceMeters>8523.0911310473</DistanceMeters>
          </Trackpoint>
          <Trackpoint>
            <Time>2019-01-04T11:19:01.000Z</Time>
            <Position>
              <LatitudeDegrees>36.4957279153168201446533203125</LatitudeDegrees>
              <LongitudeDegrees>-5.407086275517940521240234375</LongitudeDegrees>
            </Position>
            <AltitudeMeters>63.200000762939453125</AltitudeMeters>
            <DistanceMeters>8523.3599071838</DistanceMeters>
          </Trackpoint>
          <Trackpoint>
            <Time>2019-01-04T11:19:02.000Z</Time>
            <Position>
              <LatitudeDegrees>36.49572816677391529083251953125</LatitudeDegrees>
              <LongitudeDegrees>-5.40708753280341625213623046875</LongitudeDegrees>
            </Position>
            <AltitudeMeters>63.200000762939453125</AltitudeMeters>
            <DistanceMeters>8523.4942952521</DistanceMeters>
          </Trackpoint>
          <Trackpoint>
            <Time>2019-01-04T11:19:03.000Z</Time>
            <Position>
              <LatitudeDegrees>36.495728082954883575439453125</LatitudeDegrees>
              <LongitudeDegrees>-5.4070881195366382598876953125</LongitudeDegrees>
            </Position>
            <AltitudeMeters>63.200000762939453125</AltitudeMeters>
            <DistanceMeters>8523.4942952521</DistanceMeters>
          </Trackpoint>
          <Trackpoint>
            <Time>2019-01-04T11:19:04.000Z</Time>
            <Position>
              <LatitudeDegrees>36.49572833441197872161865234375</LatitudeDegrees>
              <LongitudeDegrees>-5.40709398686885833740234375</LongitudeDegrees>
            </Position>
            <AltitudeMeters>63.200000762939453125</AltitudeMeters>
            <DistanceMeters>8524.0233816059</DistanceMeters>
          </Trackpoint>
          <Trackpoint>
            <Time>2019-01-04T11:19:05.000Z</Time>
            <Position>
              <LatitudeDegrees>36.49572447873651981353759765625</LatitudeDegrees>
              <LongitudeDegrees>-5.40709666907787322998046875</LongitudeDegrees>
            </Position>
            <AltitudeMeters>63.200000762939453125</AltitudeMeters>
            <DistanceMeters>8524.5079246767</DistanceMeters>
          </Trackpoint>
          <Trackpoint>
            <Time>2019-01-04T11:19:06.000Z</Time>
            <Position>
              <LatitudeDegrees>36.495719365775585174560546875</LatitudeDegrees>
              <LongitudeDegrees>-5.4071025364100933074951171875</LongitudeDegrees>
            </Position>
            <AltitudeMeters>63.200000762939453125</AltitudeMeters>
            <DistanceMeters>8525.274054541</DistanceMeters>
          </Trackpoint>
          <Trackpoint>
            <Time>2019-01-04T11:19:07.000Z</Time>
            <Position>
              <LatitudeDegrees>36.49571240879595279693603515625</LatitudeDegrees>
              <LongitudeDegrees>-5.40711100213229656219482421875</LongitudeDegrees>
            </Position>
            <AltitudeMeters>63.200000762939453125</AltitudeMeters>
            <DistanceMeters>8526.3575257855</DistanceMeters>
          </Trackpoint>
          <Trackpoint>
            <Time>2019-01-04T11:19:08.000Z</Time>
            <Position>
              <LatitudeDegrees>36.49570352397859096527099609375</LatitudeDegrees>
              <LongitudeDegrees>-5.4071206413209438323974609375</LongitudeDegrees>
            </Position>
            <AltitudeMeters>63.200000762939453125</AltitudeMeters>
            <DistanceMeters>8527.6708211067</DistanceMeters>
          </Trackpoint>
          <Trackpoint>
            <Time>2019-01-04T11:19:09.000Z</Time>
            <Position>
              <LatitudeDegrees>36.49569396860897541046142578125</LatitudeDegrees>
              <LongitudeDegrees>-5.4071296937763690948486328125</LongitudeDegrees>
            </Position>
            <AltitudeMeters>63.200000762939453125</AltitudeMeters>
            <DistanceMeters>8529.0079655028</DistanceMeters>
          </Trackpoint>
          <Trackpoint>
            <Time>2019-01-04T11:19:10.000Z</Time>
            <Position>
              <LatitudeDegrees>36.49568273685872554779052734375</LatitudeDegrees>
              <LongitudeDegrees>-5.40713815949857234954833984375</LongitudeDegrees>
            </Position>
            <AltitudeMeters>63.200000762939453125</AltitudeMeters>
            <DistanceMeters>8530.4708831755</DistanceMeters>
          </Trackpoint>
          <Trackpoint>
            <Time>2019-01-04T11:19:11.000Z</Time>
            <Position>
              <LatitudeDegrees>36.49566940963268280029296875</LatitudeDegrees>
              <LongitudeDegrees>-5.4071457870304584503173828125</LongitudeDegrees>
            </Position>
            <AltitudeMeters>63.40000152587890625</AltitudeMeters>
            <DistanceMeters>8532.1030205934</DistanceMeters>
          </Trackpoint>
          <Trackpoint>
            <Time>2019-01-04T11:19:12.000Z</Time>
            <Position>
              <LatitudeDegrees>36.49565641768276691436767578125</LatitudeDegrees>
              <LongitudeDegrees>-5.40715408511459827423095703125</LongitudeDegrees>
            </Position>
            <AltitudeMeters>63.40000152587890625</AltitudeMeters>
            <DistanceMeters>8533.7268378004</DistanceMeters>
          </Trackpoint>
          <Trackpoint>
            <Time>2019-01-04T11:19:13.000Z</Time>
            <Position>
              <LatitudeDegrees>36.4956447668373584747314453125</LatitudeDegrees>
              <LongitudeDegrees>-5.40716364048421382904052734375</LongitudeDegrees>
            </Position>
            <AltitudeMeters>63.59999847412109375</AltitudeMeters>
            <DistanceMeters>8535.2795871075</DistanceMeters>
          </Trackpoint>
          <Trackpoint>
            <Time>2019-01-04T11:19:14.000Z</Time>
            <Position>
              <LatitudeDegrees>36.49563261307775974273681640625</LatitudeDegrees>
              <LongitudeDegrees>-5.40716900490224361419677734375</LongitudeDegrees>
            </Position>
            <AltitudeMeters>63.799999237060546875</AltitudeMeters>
            <DistanceMeters>8536.7144590283</DistanceMeters>
          </Trackpoint>
          <Trackpoint>
            <Time>2019-01-04T11:19:15.000Z</Time>
            <Position>
              <LatitudeDegrees>36.49562020786106586456298828125</LatitudeDegrees>
              <LongitudeDegrees>-5.4071737825870513916015625</LongitudeDegrees>
            </Position>
            <AltitudeMeters>63.799999237060546875</AltitudeMeters>
            <DistanceMeters>8538.1556105062</DistanceMeters>
          </Trackpoint>
          <Trackpoint>
            <Time>2019-01-04T11:19:16.000Z</Time>
            <Position>
              <LatitudeDegrees>36.4956055395305156707763671875</LatitudeDegrees>
              <LongitudeDegrees>-5.40717638097703456878662109375</LongitudeDegrees>
            </Position>
            <AltitudeMeters>63.799999237060546875</AltitudeMeters>
            <DistanceMeters>8539.8042623826</DistanceMeters>
          </Trackpoint>
          <Trackpoint>
            <Time>2019-01-04T11:19:17.000Z</Time>
            <Position>
              <LatitudeDegrees>36.49559254758059978485107421875</LatitudeDegrees>
              <LongitudeDegrees>-5.40718224830925464630126953125</LongitudeDegrees>
            </Position>
            <AltitudeMeters>63.799999237060546875</AltitudeMeters>
            <DistanceMeters>8541.3424041278</DistanceMeters>
          </Trackpoint>
          <Trackpoint>
            <Time>2019-01-04T11:19:18.000Z</Time>
            <Position>
              <LatitudeDegrees>36.4955840818583965301513671875</LatitudeDegrees>
              <LongitudeDegrees>-5.407190881669521331787109375</LongitudeDegrees>
            </Position>
            <AltitudeMeters>63.799999237060546875</AltitudeMeters>
            <DistanceMeters>8542.5593398437</DistanceMeters>
          </Trackpoint>
          <Trackpoint>
            <Time>2019-01-04T11:19:19.000Z</Time>
            <Position>
              <LatitudeDegrees>36.495580561459064483642578125</LatitudeDegrees>
              <LongitudeDegrees>-5.4071967490017414093017578125</LongitudeDegrees>
            </Position>
            <AltitudeMeters>63.799999237060546875</AltitudeMeters>
            <DistanceMeters>8543.2108101753</DistanceMeters>
          </Trackpoint>
          <Trackpoint>
            <Time>2019-01-04T11:19:20.000Z</Time>
            <Position>
              <LatitudeDegrees>36.49557326920330524444580078125</LatitudeDegrees>
              <LongitudeDegrees>-5.407192893326282501220703125</LongitudeDegrees>
            </Position>
            <AltitudeMeters>63.59999847412109375</AltitudeMeters>
            <DistanceMeters>8544.0920516712</DistanceMeters>
          </Trackpoint>
          <Trackpoint>
            <Time>2019-01-04T11:19:21.000Z</Time>
            <Position>
              <LatitudeDegrees>36.49557025171816349029541015625</LatitudeDegrees>
              <LongitudeDegrees>-5.4071900434792041778564453125</LongitudeDegrees>
            </Position>
            <AltitudeMeters>63.59999847412109375</AltitudeMeters>
            <DistanceMeters>8544.5170240572</DistanceMeters>
          </Trackpoint>
          <Trackpoint>
            <Time>2019-01-04T11:19:22.000Z</Time>
            <Position>
              <LatitudeDegrees>36.4955673180520534515380859375</LatitudeDegrees>
              <LongitudeDegrees>-5.4071876965463161468505859375</LongitudeDegrees>
            </Position>
            <AltitudeMeters>63.40000152587890625</AltitudeMeters>
            <DistanceMeters>8544.8971309147</DistanceMeters>
          </Trackpoint>
          <Trackpoint>
            <Time>2019-01-04T11:19:23.000Z</Time>
            <Position>
              <LatitudeDegrees>36.4955659769475460052490234375</LatitudeDegrees>
              <LongitudeDegrees>-5.4071836732327938079833984375</LongitudeDegrees>
            </Position>
            <AltitudeMeters>63.40000152587890625</AltitudeMeters>
            <DistanceMeters>8545.2772377722</DistanceMeters>
          </Trackpoint>
          <Trackpoint>
            <Time>2019-01-04T11:19:24.000Z</Time>
            <Position>
              <LatitudeDegrees>36.4955663122236728668212890625</LatitudeDegrees>
              <LongitudeDegrees>-5.40718258358538150787353515625</LongitudeDegrees>
            </Position>
            <AltitudeMeters>63.40000152587890625</AltitudeMeters>
            <DistanceMeters>8545.4116258405</DistanceMeters>
          </Trackpoint>
          <Trackpoint>
            <Time>2019-01-04T11:19:25.000Z</Time>
            <Position>
              <LatitudeDegrees>36.49556689895689487457275390625</LatitudeDegrees>
              <LongitudeDegrees>-5.40718241594731807708740234375</LongitudeDegrees>
            </Position>
            <AltitudeMeters>63.40000152587890625</AltitudeMeters>
            <DistanceMeters>8545.5066525548</DistanceMeters>
          </Trackpoint>
          <Trackpoint>
            <Time>2019-01-04T11:19:26.000Z</Time>
            <Position>
              <LatitudeDegrees>36.495567150413990020751953125</LatitudeDegrees>
              <LongitudeDegrees>-5.40718258358538150787353515625</LongitudeDegrees>
            </Position>
            <AltitudeMeters>63.40000152587890625</AltitudeMeters>
            <DistanceMeters>8545.5066525548</DistanceMeters>
          </Trackpoint>
          <Trackpoint>
            <Time>2019-01-04T11:19:27.000Z</Time>
            <Position>
              <LatitudeDegrees>36.49556740187108516693115234375</LatitudeDegrees>
              <LongitudeDegrees>-5.407183170318603515625</LongitudeDegrees>
            </Position>
            <AltitudeMeters>63.59999847412109375</AltitudeMeters>
            <DistanceMeters>8545.5066525548</DistanceMeters>
          </Trackpoint>
          <Trackpoint>
            <Time>2019-01-04T11:19:28.000Z</Time>
            <Position>
              <LatitudeDegrees>36.4955676533281803131103515625</LatitudeDegrees>
              <LongitudeDegrees>-5.40718392468988895416259765625</LongitudeDegrees>
            </Position>
            <AltitudeMeters>63.59999847412109375</AltitudeMeters>
            <DistanceMeters>8545.6410406231</DistanceMeters>
          </Trackpoint>
          <Trackpoint>
            <Time>2019-01-04T11:19:29.000Z</Time>
            <Position>
              <LatitudeDegrees>36.495567150413990020751953125</LatitudeDegrees>
              <LongitudeDegrees>-5.40718275122344493865966796875</LongitudeDegrees>
            </Position>
            <AltitudeMeters>63.799999237060546875</AltitudeMeters>
            <DistanceMeters>8545.7754286913</DistanceMeters>
          </Trackpoint>
          <Trackpoint>
            <Time>2019-01-04T11:19:30.000Z</Time>
            <Position>
              <LatitudeDegrees>36.4955663122236728668212890625</LatitudeDegrees>
              <LongitudeDegrees>-5.40718006901443004608154296875</LongitudeDegrees>
            </Position>
            <AltitudeMeters>63.799999237060546875</AltitudeMeters>
            <DistanceMeters>8546.0442048278</DistanceMeters>
          </Trackpoint>
          <Trackpoint>
            <Time>2019-01-04T11:19:31.000Z</Time>
            <Position>
              <LatitudeDegrees>36.495564468204975128173828125</LatitudeDegrees>
              <LongitudeDegrees>-5.4071793146431446075439453125</LongitudeDegrees>
            </Position>
            <AltitudeMeters>64</AltitudeMeters>
            <DistanceMeters>8546.2566910208</DistanceMeters>
          </Trackpoint>
          <Trackpoint>
            <Time>2019-01-04T11:19:32.000Z</Time>
            <Position>
              <LatitudeDegrees>36.49556036107242107391357421875</LatitudeDegrees>
              <LongitudeDegrees>-5.407177470624446868896484375</LongitudeDegrees>
            </Position>
            <AltitudeMeters>64</AltitudeMeters>
            <DistanceMeters>8546.7412340917</DistanceMeters>
          </Trackpoint>
          <Trackpoint>
            <Time>2019-01-04T11:19:33.000Z</Time>
            <Position>
              <LatitudeDegrees>36.49555868469178676605224609375</LatitudeDegrees>
              <LongitudeDegrees>-5.4071752913296222686767578125</LongitudeDegrees>
            </Position>
            <AltitudeMeters>64</AltitudeMeters>
            <DistanceMeters>8547.0417349477</DistanceMeters>
          </Trackpoint>
          <Trackpoint>
            <Time>2019-01-04T11:19:34.000Z</Time>
            <Position>
              <LatitudeDegrees>36.4955579303205013275146484375</LatitudeDegrees>
              <LongitudeDegrees>-5.4071711003780364990234375</LongitudeDegrees>
            </Position>
            <AltitudeMeters>64</AltitudeMeters>
            <DistanceMeters>8547.4448991524</DistanceMeters>
          </Trackpoint>
          <Trackpoint>
            <Time>2019-01-04T11:19:35.000Z</Time>
            <Position>
              <LatitudeDegrees>36.495557092130184173583984375</LatitudeDegrees>
              <LongitudeDegrees>-5.40716581977903842926025390625</LongitudeDegrees>
            </Position>
            <AltitudeMeters>64</AltitudeMeters>
            <DistanceMeters>8547.9294422233</DistanceMeters>
          </Trackpoint>
          <Trackpoint>
            <Time>2019-01-04T11:19:36.000Z</Time>
            <Position>
              <LatitudeDegrees>36.49555273354053497314453125</LatitudeDegrees>
              <LongitudeDegrees>-5.40716481395065784454345703125</LongitudeDegrees>
            </Position>
            <AltitudeMeters>64</AltitudeMeters>
            <DistanceMeters>8548.4322763316</DistanceMeters>
          </Trackpoint>
          <Trackpoint>
            <Time>2019-01-04T11:19:37.000Z</Time>
            <Position>
              <LatitudeDegrees>36.49554477073252201080322265625</LatitudeDegrees>
              <LongitudeDegrees>-5.4071652330458164215087890625</LongitudeDegrees>
            </Position>
            <AltitudeMeters>64</AltitudeMeters>
            <DistanceMeters>8549.3186265167</DistanceMeters>
          </Trackpoint>
          <Trackpoint>
            <Time>2019-01-04T11:19:38.000Z</Time>
            <Position>
              <LatitudeDegrees>36.4955374784767627716064453125</LatitudeDegrees>
              <LongitudeDegrees>-5.40716313757002353668212890625</LongitudeDegrees>
            </Position>
            <AltitudeMeters>64</AltitudeMeters>
            <DistanceMeters>8550.1470502064</DistanceMeters>
          </Trackpoint>
          <Trackpoint>
            <Time>2019-01-04T11:19:39.000Z</Time>
            <Position>
              <LatitudeDegrees>36.49552800692617893218994140625</LatitudeDegrees>
              <LongitudeDegrees>-5.40716447867453098297119140625</LongitudeDegrees>
            </Position>
            <AltitudeMeters>64.1999969482421875</AltitudeMeters>
            <DistanceMeters>8551.205222914</DistanceMeters>
          </Trackpoint>
          <Trackpoint>
            <Time>2019-01-04T11:19:40.000Z</Time>
            <Position>
              <LatitudeDegrees>36.49551794864237308502197265625</LatitudeDegrees>
              <LongitudeDegrees>-5.40717017836868762969970703125</LongitudeDegrees>
            </Position>
            <AltitudeMeters>64.1999969482421875</AltitudeMeters>
            <DistanceMeters>8552.4369099045</DistanceMeters>
          </Trackpoint>
          <Trackpoint>
            <Time>2019-01-04T11:19:41.000Z</Time>
            <Position>
              <LatitudeDegrees>36.49551442824304103851318359375</LatitudeDegrees>
              <LongitudeDegrees>-5.4071793146431446075439453125</LongitudeDegrees>
            </Position>
            <AltitudeMeters>64.1999969482421875</AltitudeMeters>
            <DistanceMeters>8553.3434069847</DistanceMeters>
          </Trackpoint>
          <Trackpoint>
            <Time>2019-01-04T11:19:42.000Z</Time>
            <Position>
              <LatitudeDegrees>36.49550906382501125335693359375</LatitudeDegrees>
              <LongitudeDegrees>-5.40718979202210903167724609375</LongitudeDegrees>
            </Position>
            <AltitudeMeters>64.1999969482421875</AltitudeMeters>
            <DistanceMeters>8554.4597181193</DistanceMeters>
          </Trackpoint>
          <Trackpoint>
            <Time>2019-01-04T11:19:43.000Z</Time>
            <Position>
              <LatitudeDegrees>36.4954995922744274139404296875</LatitudeDegrees>
              <LongitudeDegrees>-5.40719800628721714019775390625</LongitudeDegrees>
            </Position>
            <AltitudeMeters>64.1999969482421875</AltitudeMeters>
            <DistanceMeters>8555.7487231875</DistanceMeters>
          </Trackpoint>
          <Trackpoint>
            <Time>2019-01-04T11:19:44.000Z</Time>
            <Position>
              <LatitudeDegrees>36.4954863488674163818359375</LatitudeDegrees>
              <LongitudeDegrees>-5.40720555000007152557373046875</LongitudeDegrees>
            </Position>
            <AltitudeMeters>64.1999969482421875</AltitudeMeters>
            <DistanceMeters>8557.3697575009</DistanceMeters>
          </Trackpoint>
          <Trackpoint>
            <Time>2019-01-04T11:19:45.000Z</Time>
            <Position>
              <LatitudeDegrees>36.4954774640500545501708984375</LatitudeDegrees>
              <LongitudeDegrees>-5.40722147561609745025634765625</LongitudeDegrees>
            </Position>
            <AltitudeMeters>64.1999969482421875</AltitudeMeters>
            <DistanceMeters>8559.1064340776</DistanceMeters>
          </Trackpoint>
          <Trackpoint>
            <Time>2019-01-04T11:19:46.000Z</Time>
            <Position>
              <LatitudeDegrees>36.495467238128185272216796875</LatitudeDegrees>
              <LongitudeDegrees>-5.407227762043476104736328125</LongitudeDegrees>
            </Position>
            <AltitudeMeters>64.1999969482421875</AltitudeMeters>
            <DistanceMeters>8560.3742485779</DistanceMeters>
          </Trackpoint>
          <Trackpoint>
            <Time>2019-01-04T11:19:47.000Z</Time>
            <Position>
              <LatitudeDegrees>36.49545592255890369415283203125</LatitudeDegrees>
              <LongitudeDegrees>-5.40723287500441074371337890625</LongitudeDegrees>
            </Position>
            <AltitudeMeters>64.40000152587890625</AltitudeMeters>
            <DistanceMeters>8561.7147653485</DistanceMeters>
          </Trackpoint>
          <Trackpoint>
            <Time>2019-01-04T11:19:48.000Z</Time>
            <Position>
              <LatitudeDegrees>36.4954452775418758392333984375</LatitudeDegrees>
              <LongitudeDegrees>-5.407238490879535675048828125</LongitudeDegrees>
            </Position>
            <AltitudeMeters>64.40000152587890625</AltitudeMeters>
            <DistanceMeters>8563.0037704166</DistanceMeters>
          </Trackpoint>
          <Trackpoint>
            <Time>2019-01-04T11:19:49.000Z</Time>
            <Position>
              <LatitudeDegrees>36.4954372309148311614990234375</LatitudeDegrees>
              <LongitudeDegrees>-5.407244861125946044921875</LongitudeDegrees>
            </Position>
            <AltitudeMeters>64.59999847412109375</AltitudeMeters>
            <DistanceMeters>8564.0704426399</DistanceMeters>
          </Trackpoint>
          <Trackpoint>
            <Time>2019-01-04T11:19:50.000Z</Time>
            <Position>
              <LatitudeDegrees>36.49543010629713535308837890625</LatitudeDegrees>
              <LongitudeDegrees>-5.40725332684814929962158203125</LongitudeDegrees>
            </Position>
            <AltitudeMeters>64.8000030517578125</AltitudeMeters>
            <DistanceMeters>8565.1704563869</DistanceMeters>
          </Trackpoint>
          <Trackpoint>
            <Time>2019-01-04T11:19:51.000Z</Time>
            <Position>
              <LatitudeDegrees>36.49542390368878841400146484375</LatitudeDegrees>
              <LongitudeDegrees>-5.40726170875132083892822265625</LongitudeDegrees>
            </Position>
            <AltitudeMeters>65</AltitudeMeters>
            <DistanceMeters>8566.1850640522</DistanceMeters>
          </Trackpoint>
          <Trackpoint>
            <Time>2019-01-04T11:19:52.000Z</Time>
            <Position>
              <LatitudeDegrees>36.4954181201756000518798828125</LatitudeDegrees>
              <LongitudeDegrees>-5.407269336283206939697265625</LongitudeDegrees>
            </Position>
            <AltitudeMeters>65.40000152587890625</AltitudeMeters>
            <DistanceMeters>8567.12578053</DistanceMeters>
          </Trackpoint>
          <Trackpoint>
            <Time>2019-01-04T11:19:53.000Z</Time>
            <Position>
              <LatitudeDegrees>36.49541191756725311279296875</LatitudeDegrees>
              <LongitudeDegrees>-5.40727428160607814788818359375</LongitudeDegrees>
            </Position>
            <AltitudeMeters>65.8000030517578125</AltitudeMeters>
            <DistanceMeters>8567.9487360168</DistanceMeters>
          </Trackpoint>
          <Trackpoint>
            <Time>2019-01-04T11:19:54.000Z</Time>
            <Position>
              <LatitudeDegrees>36.49540521204471588134765625</LatitudeDegrees>
              <LongitudeDegrees>-5.40728165768086910247802734375</LongitudeDegrees>
            </Position>
            <AltitudeMeters>66</AltitudeMeters>
            <DistanceMeters>8568.9453846052</DistanceMeters>
          </Trackpoint>
          <Trackpoint>
            <Time>2019-01-04T11:19:55.000Z</Time>
            <Position>
              <LatitudeDegrees>36.49539842270314693450927734375</LatitudeDegrees>
              <LongitudeDegrees>-5.4072919674217700958251953125</LongitudeDegrees>
            </Position>
            <AltitudeMeters>66.1999969482421875</AltitudeMeters>
            <DistanceMeters>8570.1398518832</DistanceMeters>
          </Trackpoint>
          <Trackpoint>
            <Time>2019-01-04T11:19:56.000Z</Time>
            <Position>
              <LatitudeDegrees>36.49539339356124401092529296875</LatitudeDegrees>
              <LongitudeDegrees>-5.40730529464781284332275390625</LongitudeDegrees>
            </Position>
            <AltitudeMeters>66.40000152587890625</AltitudeMeters>
            <DistanceMeters>8571.4600051901</DistanceMeters>
          </Trackpoint>
          <Trackpoint>
            <Time>2019-01-04T11:19:57.000Z</Time>
            <Position>
              <LatitudeDegrees>36.495388783514499664306640625</LatitudeDegrees>
              <LongitudeDegrees>-5.40731853805482387542724609375</LongitudeDegrees>
            </Position>
            <AltitudeMeters>66.8000030517578125</AltitudeMeters>
            <DistanceMeters>8572.7559967867</DistanceMeters>
          </Trackpoint>
          <Trackpoint>
            <Time>2019-01-04T11:19:58.000Z</Time>
            <Position>
              <LatitudeDegrees>36.49538199417293071746826171875</LatitudeDegrees>
              <LongitudeDegrees>-5.40732708759605884552001953125</LongitudeDegrees>
            </Position>
            <AltitudeMeters>67</AltitudeMeters>
            <DistanceMeters>8573.8311013327</DistanceMeters>
          </Trackpoint>
          <Trackpoint>
            <Time>2019-01-04T11:19:59.000Z</Time>
            <Position>
              <LatitudeDegrees>36.4953758753836154937744140625</LatitudeDegrees>
              <LongitudeDegrees>-5.4073368944227695465087890625</LongitudeDegrees>
            </Position>
            <AltitudeMeters>67</AltitudeMeters>
            <DistanceMeters>8574.9392937332</DistanceMeters>
          </Trackpoint>
          <Trackpoint>
            <Time>2019-01-04T11:20:00.000Z</Time>
            <Position>
              <LatitudeDegrees>36.49536841548979282379150390625</LatitudeDegrees>
              <LongitudeDegrees>-5.40734636597335338592529296875</LongitudeDegrees>
            </Position>
            <AltitudeMeters>67.1999969482421875</AltitudeMeters>
            <DistanceMeters>8576.1261770152</DistanceMeters>
          </Trackpoint>
          <Trackpoint>
            <Time>2019-01-04T11:20:01.000Z</Time>
            <Position>
              <LatitudeDegrees>36.495365314185619354248046875</LatitudeDegrees>
              <LongitudeDegrees>-5.407359860837459564208984375</LongitudeDegrees>
            </Position>
            <AltitudeMeters>67.40000152587890625</AltitudeMeters>
            <DistanceMeters>8577.3832622859</DistanceMeters>
          </Trackpoint>
          <Trackpoint>
            <Time>2019-01-04T11:20:02.000Z</Time>
            <Position>
              <LatitudeDegrees>36.49536070413887500762939453125</LatitudeDegrees>
              <LongitudeDegrees>-5.40737293660640716552734375</LongitudeDegrees>
            </Position>
            <AltitudeMeters>67.59999847412109375</AltitudeMeters>
            <DistanceMeters>8578.658179444</DistanceMeters>
          </Trackpoint>
          <Trackpoint>
            <Time>2019-01-04T11:20:03.000Z</Time>
            <Position>
              <LatitudeDegrees>36.4953564293682575225830078125</LatitudeDegrees>
              <LongitudeDegrees>-5.4073811508715152740478515625</LongitudeDegrees>
            </Position>
            <AltitudeMeters>68</AltitudeMeters>
            <DistanceMeters>8579.5342824617</DistanceMeters>
          </Trackpoint>
          <Trackpoint>
            <Time>2019-01-04T11:20:04.000Z</Time>
            <Position>
              <LatitudeDegrees>36.49535064585506916046142578125</LatitudeDegrees>
              <LongitudeDegrees>-5.40738911367952823638916015625</LongitudeDegrees>
            </Position>
            <AltitudeMeters>68.1999969482421875</AltitudeMeters>
            <DistanceMeters>8580.4892891218</DistanceMeters>
          </Trackpoint>
          <Trackpoint>
            <Time>2019-01-04T11:20:05.000Z</Time>
            <Position>
              <LatitudeDegrees>36.49534729309380054473876953125</LatitudeDegrees>
              <LongitudeDegrees>-5.40740135125815868377685546875</LongitudeDegrees>
            </Position>
            <AltitudeMeters>68.40000152587890625</AltitudeMeters>
            <DistanceMeters>8581.6414268034</DistanceMeters>
          </Trackpoint>
          <Trackpoint>
            <Time>2019-01-04T11:20:06.000Z</Time>
            <Position>
              <LatitudeDegrees>36.4953436888754367828369140625</LatitudeDegrees>
              <LongitudeDegrees>-5.40740914642810821533203125</LongitudeDegrees>
            </Position>
            <AltitudeMeters>68.59999847412109375</AltitudeMeters>
            <DistanceMeters>8582.4421361311</DistanceMeters>
          </Trackpoint>
          <Trackpoint>
            <Time>2019-01-04T11:20:07.000Z</Time>
            <Position>
              <LatitudeDegrees>36.4953386597335338592529296875</LatitudeDegrees>
              <LongitudeDegrees>-5.40741828270256519317626953125</LongitudeDegrees>
            </Position>
            <AltitudeMeters>68.8000030517578125</AltitudeMeters>
            <DistanceMeters>8583.4296827153</DistanceMeters>
          </Trackpoint>
          <Trackpoint>
            <Time>2019-01-04T11:20:08.000Z</Time>
            <Position>
              <LatitudeDegrees>36.4953336305916309356689453125</LatitudeDegrees>
              <LongitudeDegrees>-5.407429598271846771240234375</LongitudeDegrees>
            </Position>
            <AltitudeMeters>68.8000030517578125</AltitudeMeters>
            <DistanceMeters>8584.5857325904</DistanceMeters>
          </Trackpoint>
          <Trackpoint>
            <Time>2019-01-04T11:20:09.000Z</Time>
            <Position>
              <LatitudeDegrees>36.49532952345907688140869140625</LatitudeDegrees>
              <LongitudeDegrees>-5.4074431769549846649169921875</LongitudeDegrees>
            </Position>
            <AltitudeMeters>69</AltitudeMeters>
            <DistanceMeters>8585.8817241871</DistanceMeters>
          </Trackpoint>
          <Trackpoint>
            <Time>2019-01-04T11:20:10.000Z</Time>
            <Position>
              <LatitudeDegrees>36.49532474577426910400390625</LatitudeDegrees>
              <LongitudeDegrees>-5.407457761466503143310546875</LongitudeDegrees>
            </Position>
            <AltitudeMeters>69</AltitudeMeters>
            <DistanceMeters>8587.2911981377</DistanceMeters>
          </Trackpoint>
          <Trackpoint>
            <Time>2019-01-04T11:20:11.000Z</Time>
            <Position>
              <LatitudeDegrees>36.49531963281333446502685546875</LatitudeDegrees>
              <LongitudeDegrees>-5.40747092105448246002197265625</LongitudeDegrees>
            </Position>
            <AltitudeMeters>69</AltitudeMeters>
            <DistanceMeters>8588.6010510014</DistanceMeters>
          </Trackpoint>
          <Trackpoint>
            <Time>2019-01-04T11:20:12.000Z</Time>
            <Position>
              <LatitudeDegrees>36.49531460367143154144287109375</LatitudeDegrees>
              <LongitudeDegrees>-5.40748064406216144561767578125</LongitudeDegrees>
            </Position>
            <AltitudeMeters>69.1999969482421875</AltitudeMeters>
            <DistanceMeters>8589.6376700716</DistanceMeters>
          </Trackpoint>
          <Trackpoint>
            <Time>2019-01-04T11:20:13.000Z</Time>
            <Position>
              <LatitudeDegrees>36.49530940689146518707275390625</LatitudeDegrees>
              <LongitudeDegrees>-5.4074894450604915618896484375</LongitudeDegrees>
            </Position>
            <AltitudeMeters>69.40000152587890625</AltitudeMeters>
            <DistanceMeters>8590.6160299763</DistanceMeters>
          </Trackpoint>
          <Trackpoint>
            <Time>2019-01-04T11:20:14.000Z</Time>
            <Position>
              <LatitudeDegrees>36.49530320428311824798583984375</LatitudeDegrees>
              <LongitudeDegrees>-5.4074988327920436859130859375</LongitudeDegrees>
            </Position>
            <AltitudeMeters>69.40000152587890625</AltitudeMeters>
            <DistanceMeters>8591.6995012208</DistanceMeters>
          </Trackpoint>
          <Trackpoint>
            <Time>2019-01-04T11:20:15.000Z</Time>
            <Position>
              <LatitudeDegrees>36.49529666639864444732666015625</LatitudeDegrees>
              <LongitudeDegrees>-5.407508723437786102294921875</LongitudeDegrees>
            </Position>
            <AltitudeMeters>69.59999847412109375</AltitudeMeters>
            <DistanceMeters>8592.8477133793</DistanceMeters>
          </Trackpoint>
          <Trackpoint>
            <Time>2019-01-04T11:20:16.000Z</Time>
            <Position>
              <LatitudeDegrees>36.49529079906642436981201171875</LatitudeDegrees>
              <LongitudeDegrees>-5.40751869790256023406982421875</LongitudeDegrees>
            </Position>
            <AltitudeMeters>69.8000030517578125</AltitudeMeters>
            <DistanceMeters>8593.9559057797</DistanceMeters>
          </Trackpoint>
          <Trackpoint>
            <Time>2019-01-04T11:20:17.000Z</Time>
            <Position>
              <LatitudeDegrees>36.49528409354388713836669921875</LatitudeDegrees>
              <LongitudeDegrees>-5.4075280018150806427001953125</LongitudeDegrees>
            </Position>
            <AltitudeMeters>69.8000030517578125</AltitudeMeters>
            <DistanceMeters>8595.0802770272</DistanceMeters>
          </Trackpoint>
          <Trackpoint>
            <Time>2019-01-04T11:20:18.000Z</Time>
            <Position>
              <LatitudeDegrees>36.495275460183620452880859375</LatitudeDegrees>
              <LongitudeDegrees>-5.40753814391791820526123046875</LongitudeDegrees>
            </Position>
            <AltitudeMeters>70</AltitudeMeters>
            <DistanceMeters>8596.4038460016</DistanceMeters>
          </Trackpoint>
          <Trackpoint>
            <Time>2019-01-04T11:20:19.000Z</Time>
            <Position>
              <LatitudeDegrees>36.495267413556575775146484375</LatitudeDegrees>
              <LongitudeDegrees>-5.40754434652626514434814453125</LongitudeDegrees>
            </Position>
            <AltitudeMeters>70</AltitudeMeters>
            <DistanceMeters>8597.4577432464</DistanceMeters>
          </Trackpoint>
          <Trackpoint>
            <Time>2019-01-04T11:20:20.000Z</Time>
            <Position>
              <LatitudeDegrees>36.49525777436792850494384765625</LatitudeDegrees>
              <LongitudeDegrees>-5.4075477831065654754638671875</LongitudeDegrees>
            </Position>
            <AltitudeMeters>70.1999969482421875</AltitudeMeters>
            <DistanceMeters>8598.5740543811</DistanceMeters>
          </Trackpoint>
          <Trackpoint>
            <Time>2019-01-04T11:20:21.000Z</Time>
            <Position>
              <LatitudeDegrees>36.49524721316993236541748046875</LatitudeDegrees>
              <LongitudeDegrees>-5.40755121968686580657958984375</LongitudeDegrees>
            </Position>
            <AltitudeMeters>70.40000152587890625</AltitudeMeters>
            <DistanceMeters>8599.7872742541</DistanceMeters>
          </Trackpoint>
          <Trackpoint>
            <Time>2019-01-04T11:20:22.000Z</Time>
            <Position>
              <LatitudeDegrees>36.49523631669580936431884765625</LatitudeDegrees>
              <LongitudeDegrees>-5.4075561650097370147705078125</LongitudeDegrees>
            </Position>
            <AltitudeMeters>70.40000152587890625</AltitudeMeters>
            <DistanceMeters>8601.0762793222</DistanceMeters>
          </Trackpoint>
          <Trackpoint>
            <Time>2019-01-04T11:20:23.000Z</Time>
            <Position>
              <LatitudeDegrees>36.49522860534489154815673828125</LatitudeDegrees>
              <LongitudeDegrees>-5.40756312198936939239501953125</LongitudeDegrees>
            </Position>
            <AltitudeMeters>70.59999847412109375</AltitudeMeters>
            <DistanceMeters>8602.1387102873</DistanceMeters>
          </Trackpoint>
          <Trackpoint>
            <Time>2019-01-04T11:20:24.000Z</Time>
            <Position>
              <LatitudeDegrees>36.49522424675524234771728515625</LatitudeDegrees>
              <LongitudeDegrees>-5.4075668938457965850830078125</LongitudeDegrees>
            </Position>
            <AltitudeMeters>70.59999847412109375</AltitudeMeters>
            <DistanceMeters>8602.7321519283</DistanceMeters>
          </Trackpoint>
          <Trackpoint>
            <Time>2019-01-04T11:20:25.000Z</Time>
            <Position>
              <LatitudeDegrees>36.495221145451068878173828125</LatitudeDegrees>
              <LongitudeDegrees>-5.40757133625447750091552734375</LongitudeDegrees>
            </Position>
            <AltitudeMeters>70.8000030517578125</AltitudeMeters>
            <DistanceMeters>8603.2526346786</DistanceMeters>
          </Trackpoint>
          <Trackpoint>
            <Time>2019-01-04T11:20:26.000Z</Time>
            <Position>
              <LatitudeDegrees>36.49521745741367340087890625</LatitudeDegrees>
              <LongitudeDegrees>-5.40757083334028720855712890625</LongitudeDegrees>
            </Position>
            <AltitudeMeters>70.8000030517578125</AltitudeMeters>
            <DistanceMeters>8603.6668465235</DistanceMeters>
          </Trackpoint>
          <Trackpoint>
            <Time>2019-01-04T11:20:27.000Z</Time>
            <Position>
              <LatitudeDegrees>36.495218463242053985595703125</LatitudeDegrees>
              <LongitudeDegrees>-5.40757284499704837799072265625</LongitudeDegrees>
            </Position>
            <AltitudeMeters>71</AltitudeMeters>
            <DistanceMeters>8603.8996134856</DistanceMeters>
          </Trackpoint>
          <Trackpoint>
            <Time>2019-01-04T11:20:28.000Z</Time>
            <Position>
              <LatitudeDegrees>36.49521938525140285491943359375</LatitudeDegrees>
              <LongitudeDegrees>-5.40757334791123867034912109375</LongitudeDegrees>
            </Position>
            <AltitudeMeters>71</AltitudeMeters>
            <DistanceMeters>8604.0340015539</DistanceMeters>
          </Trackpoint>
          <Trackpoint>
            <Time>2019-01-04T11:20:29.000Z</Time>
            <Position>
              <LatitudeDegrees>36.49521938525140285491943359375</LatitudeDegrees>
              <LongitudeDegrees>-5.4075746051967144012451171875</LongitudeDegrees>
            </Position>
            <AltitudeMeters>71.1999969482421875</AltitudeMeters>
            <DistanceMeters>8604.1290282682</DistanceMeters>
          </Trackpoint>
          <Trackpoint>
            <Time>2019-01-04T11:20:30.000Z</Time>
            <Position>
              <LatitudeDegrees>36.4952194690704345703125</LatitudeDegrees>
              <LongitudeDegrees>-5.40757670067250728607177734375</LongitudeDegrees>
            </Position>
            <AltitudeMeters>71.1999969482421875</AltitudeMeters>
            <DistanceMeters>8604.3415144612</DistanceMeters>
          </Trackpoint>
          <Trackpoint>
            <Time>2019-01-04T11:20:31.000Z</Time>
            <Position>
              <LatitudeDegrees>36.49521904997527599334716796875</LatitudeDegrees>
              <LongitudeDegrees>-5.40757820941507816314697265625</LongitudeDegrees>
            </Position>
            <AltitudeMeters>71.1999969482421875</AltitudeMeters>
            <DistanceMeters>8604.5061055586</DistanceMeters>
          </Trackpoint>
          <Trackpoint>
            <Time>2019-01-04T11:20:32.000Z</Time>
            <Position>
              <LatitudeDegrees>36.495216451585292816162109375</LatitudeDegrees>
              <LongitudeDegrees>-5.40757921524345874786376953125</LongitudeDegrees>
            </Position>
            <AltitudeMeters>71.1999969482421875</AltitudeMeters>
            <DistanceMeters>8604.8066064146</DistanceMeters>
          </Trackpoint>
          <Trackpoint>
            <Time>2019-01-04T11:20:33.000Z</Time>
            <Position>
              <LatitudeDegrees>36.49521343410015106201171875</LatitudeDegrees>
              <LongitudeDegrees>-5.40758550167083740234375</LongitudeDegrees>
            </Position>
            <AltitudeMeters>71.1999969482421875</AltitudeMeters>
            <DistanceMeters>8605.4511089486</DistanceMeters>
          </Trackpoint>
          <Trackpoint>
            <Time>2019-01-04T11:20:34.000Z</Time>
            <Position>
              <LatitudeDegrees>36.4952082373201847076416015625</LatitudeDegrees>
              <LongitudeDegrees>-5.407587848603725433349609375</LongitudeDegrees>
            </Position>
            <AltitudeMeters>71.1999969482421875</AltitudeMeters>
            <DistanceMeters>8606.0669524439</DistanceMeters>
          </Trackpoint>
          <Trackpoint>
            <Time>2019-01-04T11:20:35.000Z</Time>
            <Position>
              <LatitudeDegrees>36.495206393301486968994140625</LatitudeDegrees>
              <LongitudeDegrees>-5.4075880162417888641357421875</LongitudeDegrees>
            </Position>
            <AltitudeMeters>71.1999969482421875</AltitudeMeters>
            <DistanceMeters>8606.2794386369</DistanceMeters>
          </Trackpoint>
          <Trackpoint>
            <Time>2019-01-04T11:20:36.000Z</Time>
            <Position>
              <LatitudeDegrees>36.49520672857761383056640625</LatitudeDegrees>
              <LongitudeDegrees>-5.4075883515179157257080078125</LongitudeDegrees>
            </Position>
            <AltitudeMeters>71.1999969482421875</AltitudeMeters>
            <DistanceMeters>8606.2794386369</DistanceMeters>
          </Trackpoint>
          <Trackpoint>
            <Time>2019-01-04T11:20:37.000Z</Time>
            <Position>
              <LatitudeDegrees>36.4952075667679309844970703125</LatitudeDegrees>
              <LongitudeDegrees>-5.40759027935564517974853515625</LongitudeDegrees>
            </Position>
            <AltitudeMeters>71.1999969482421875</AltitudeMeters>
            <DistanceMeters>8606.4694920656</DistanceMeters>
          </Trackpoint>
          <Trackpoint>
            <Time>2019-01-04T11:20:38.000Z</Time>
            <Position>
              <LatitudeDegrees>36.49520815350115299224853515625</LatitudeDegrees>
              <LongitudeDegrees>-5.40759245865046977996826171875</LongitudeDegrees>
            </Position>
            <AltitudeMeters>71.40000152587890625</AltitudeMeters>
            <DistanceMeters>8606.7022590278</DistanceMeters>
          </Trackpoint>
          <Trackpoint>
            <Time>2019-01-04T11:20:39.000Z</Time>
            <Position>
              <LatitudeDegrees>36.49520848877727985382080078125</LatitudeDegrees>
              <LongitudeDegrees>-5.4075933806598186492919921875</LongitudeDegrees>
            </Position>
            <AltitudeMeters>71.40000152587890625</AltitudeMeters>
            <DistanceMeters>8606.836647096</DistanceMeters>
          </Trackpoint>
          <Trackpoint>
            <Time>2019-01-04T11:20:40.000Z</Time>
            <Position>
              <LatitudeDegrees>36.495208740234375</LatitudeDegrees>
              <LongitudeDegrees>-5.40759421885013580322265625</LongitudeDegrees>
            </Position>
            <AltitudeMeters>71.40000152587890625</AltitudeMeters>
            <DistanceMeters>8606.836647096</DistanceMeters>
          </Trackpoint>
          <Trackpoint>
            <Time>2019-01-04T11:20:41.000Z</Time>
            <Position>
              <LatitudeDegrees>36.49521033279597759246826171875</LatitudeDegrees>
              <LongitudeDegrees>-5.407595224678516387939453125</LongitudeDegrees>
            </Position>
            <AltitudeMeters>71.40000152587890625</AltitudeMeters>
            <DistanceMeters>8607.0267005248</DistanceMeters>
          </Trackpoint>
          <Trackpoint>
            <Time>2019-01-04T11:20:42.000Z</Time>
            <Position>
              <LatitudeDegrees>36.495208404958248138427734375</LatitudeDegrees>
              <LongitudeDegrees>-5.40758927352726459503173828125</LongitudeDegrees>
            </Position>
            <AltitudeMeters>71.40000152587890625</AltitudeMeters>
            <DistanceMeters>8607.6124845335</DistanceMeters>
          </Trackpoint>
          <Trackpoint>
            <Time>2019-01-04T11:20:43.000Z</Time>
            <Position>
              <LatitudeDegrees>36.4952038787305355072021484375</LatitudeDegrees>
              <LongitudeDegrees>-5.40758105926215648651123046875</LongitudeDegrees>
            </Position>
            <AltitudeMeters>71.40000152587890625</AltitudeMeters>
            <DistanceMeters>8608.5039141309</DistanceMeters>
          </Trackpoint>
          <Trackpoint>
            <Time>2019-01-04T11:20:44.000Z</Time>
            <Position>
              <LatitudeDegrees>36.49520002305507659912109375</LatitudeDegrees>
              <LongitudeDegrees>-5.40757217444479465484619140625</LongitudeDegrees>
            </Position>
            <AltitudeMeters>71.1999969482421875</AltitudeMeters>
            <DistanceMeters>8609.4104112111</DistanceMeters>
          </Trackpoint>
          <Trackpoint>
            <Time>2019-01-04T11:20:45.000Z</Time>
            <Position>
              <LatitudeDegrees>36.49519826285541057586669921875</LatitudeDegrees>
              <LongitudeDegrees>-5.4075627028942108154296875</LongitudeDegrees>
            </Position>
            <AltitudeMeters>71.1999969482421875</AltitudeMeters>
            <DistanceMeters>8610.2761457806</DistanceMeters>
          </Trackpoint>
          <Trackpoint>
            <Time>2019-01-04T11:20:46.000Z</Time>
            <Position>
              <LatitudeDegrees>36.4951928146183490753173828125</LatitudeDegrees>
              <LongitudeDegrees>-5.40755189023911952972412109375</LongitudeDegrees>
            </Position>
            <AltitudeMeters>71.1999969482421875</AltitudeMeters>
            <DistanceMeters>8611.4125000086</DistanceMeters>
          </Trackpoint>
          <Trackpoint>
            <Time>2019-01-04T11:20:47.000Z</Time>
            <Position>
              <LatitudeDegrees>36.49518820457160472869873046875</LatitudeDegrees>
              <LongitudeDegrees>-5.4075385630130767822265625</LongitudeDegrees>
            </Position>
            <AltitudeMeters>71.1999969482421875</AltitudeMeters>
            <DistanceMeters>8612.7119707835</DistanceMeters>
          </Trackpoint>
          <Trackpoint>
            <Time>2019-01-04T11:20:48.000Z</Time>
            <Position>
              <LatitudeDegrees>36.49518870748579502105712890625</LatitudeDegrees>
              <LongitudeDegrees>-5.40753244422376155853271484375</LongitudeDegrees>
            </Position>
            <AltitudeMeters>71.1999969482421875</AltitudeMeters>
            <DistanceMeters>8613.2578576973</DistanceMeters>
          </Trackpoint>
          <Trackpoint>
            <Time>2019-01-04T11:20:49.000Z</Time>
            <Position>
              <LatitudeDegrees>36.49518703110516071319580078125</LatitudeDegrees>
              <LongitudeDegrees>-5.40753043256700038909912109375</LongitudeDegrees>
            </Position>
            <AltitudeMeters>71.1999969482421875</AltitudeMeters>
            <DistanceMeters>8613.5266338338</DistanceMeters>
          </Trackpoint>
          <Trackpoint>
            <Time>2019-01-04T11:20:50.000Z</Time>
            <Position>
              <LatitudeDegrees>36.49519071914255619049072265625</LatitudeDegrees>
              <LongitudeDegrees>-5.40752288885414600372314453125</LongitudeDegrees>
            </Position>
            <AltitudeMeters>71.1999969482421875</AltitudeMeters>
            <DistanceMeters>8614.310244195</DistanceMeters>
          </Trackpoint>
          <Trackpoint>
            <Time>2019-01-04T11:20:51.000Z</Time>
            <Position>
              <LatitudeDegrees>36.4951934851706027984619140625</LatitudeDegrees>
              <LongitudeDegrees>-5.40751039981842041015625</LongitudeDegrees>
            </Position>
            <AltitudeMeters>71.40000152587890625</AltitudeMeters>
            <DistanceMeters>8615.4662940701</DistanceMeters>
          </Trackpoint>
          <Trackpoint>
            <Time>2019-01-04T11:20:52.000Z</Time>
            <Position>
              <LatitudeDegrees>36.49519256316125392913818359375</LatitudeDegrees>
              <LongitudeDegrees>-5.40749908424913883209228515625</LongitudeDegrees>
            </Position>
            <AltitudeMeters>71.40000152587890625</AltitudeMeters>
            <DistanceMeters>8616.4853420528</DistanceMeters>
          </Trackpoint>
          <Trackpoint>
            <Time>2019-01-04T11:20:53.000Z</Time>
            <Position>
              <LatitudeDegrees>36.49519138969480991363525390625</LatitudeDegrees>
              <LongitudeDegrees>-5.40748768486082553863525390625</LongitudeDegrees>
            </Position>
            <AltitudeMeters>71.59999847412109375</AltitudeMeters>
            <DistanceMeters>8617.5175963918</DistanceMeters>
          </Trackpoint>
          <Trackpoint>
            <Time>2019-01-04T11:20:54.000Z</Time>
            <Position>
              <LatitudeDegrees>36.495186947286128997802734375</LatitudeDegrees>
              <LongitudeDegrees>-5.40747486054897308349609375</LongitudeDegrees>
            </Position>
            <AltitudeMeters>71.59999847412109375</AltitudeMeters>
            <DistanceMeters>8618.7710848446</DistanceMeters>
          </Trackpoint>
          <Trackpoint>
            <Time>2019-01-04T11:20:55.000Z</Time>
            <Position>
              <LatitudeDegrees>36.4951827563345432281494140625</LatitudeDegrees>
              <LongitudeDegrees>-5.40746186859905719757080078125</LongitudeDegrees>
            </Position>
            <AltitudeMeters>71.59999847412109375</AltitudeMeters>
            <DistanceMeters>8620.0245732974</DistanceMeters>
          </Trackpoint>
          <Trackpoint>
            <Time>2019-01-04T11:20:56.000Z</Time>
            <Position>
              <LatitudeDegrees>36.49517814628779888153076171875</LatitudeDegrees>
              <LongitudeDegrees>-5.40744912810623645782470703125</LongitudeDegrees>
            </Position>
            <AltitudeMeters>71.59999847412109375</AltitudeMeters>
            <DistanceMeters>8621.2780617502</DistanceMeters>
          </Trackpoint>
          <Trackpoint>
            <Time>2019-01-04T11:20:57.000Z</Time>
            <Position>
              <LatitudeDegrees>36.495172865688800811767578125</LatitudeDegrees>
              <LongitudeDegrees>-5.40743638761341571807861328125</LongitudeDegrees>
            </Position>
            <AltitudeMeters>71.59999847412109375</AltitudeMeters>
            <DistanceMeters>8622.563559315</DistanceMeters>
          </Trackpoint>
          <Trackpoint>
            <Time>2019-01-04T11:20:58.000Z</Time>
            <Position>
              <LatitudeDegrees>36.49516708217561244964599609375</LatitudeDegrees>
              <LongitudeDegrees>-5.40742331184446811676025390625</LongitudeDegrees>
            </Position>
            <AltitudeMeters>71.59999847412109375</AltitudeMeters>
            <DistanceMeters>8623.9007037111</DistanceMeters>
          </Trackpoint>
          <Trackpoint>
            <Time>2019-01-04T11:20:59.000Z</Time>
            <Position>
              <LatitudeDegrees>36.49516540579497814178466796875</LatitudeDegrees>
              <LongitudeDegrees>-5.40741182863712310791015625</LongitudeDegrees>
            </Position>
            <AltitudeMeters>71.59999847412109375</AltitudeMeters>
            <DistanceMeters>8624.9459975692</DistanceMeters>
          </Trackpoint>
          <Trackpoint>
            <Time>2019-01-04T11:21:00.000Z</Time>
            <Position>
              <LatitudeDegrees>36.49516574107110500335693359375</LatitudeDegrees>
              <LongitudeDegrees>-5.4073992557823657989501953125</LongitudeDegrees>
            </Position>
            <AltitudeMeters>71.59999847412109375</AltitudeMeters>
            <DistanceMeters>8626.0703688166</DistanceMeters>
          </Trackpoint>
          <Trackpoint>
            <Time>2019-01-04T11:21:01.000Z</Time>
            <Position>
              <LatitudeDegrees>36.49516507051885128021240234375</LatitudeDegrees>
              <LongitudeDegrees>-5.407385341823101043701171875</LongitudeDegrees>
            </Position>
            <AltitudeMeters>71.59999847412109375</AltitudeMeters>
            <DistanceMeters>8627.3166324919</DistanceMeters>
          </Trackpoint>
          <Trackpoint>
            <Time>2019-01-04T11:21:02.000Z</Time>
            <Position>
              <LatitudeDegrees>36.49516582489013671875</LatitudeDegrees>
              <LongitudeDegrees>-5.40737067349255084991455078125</LongitudeDegrees>
            </Position>
            <AltitudeMeters>71.8000030517578125</AltitudeMeters>
            <DistanceMeters>8628.6333612709</DistanceMeters>
          </Trackpoint>
          <Trackpoint>
            <Time>2019-01-04T11:21:03.000Z</Time>
            <Position>
              <LatitudeDegrees>36.49516540579497814178466796875</LatitudeDegrees>
              <LongitudeDegrees>-5.40735550224781036376953125</LongitudeDegrees>
            </Position>
            <AltitudeMeters>72</AltitudeMeters>
            <DistanceMeters>8629.9906142298</DistanceMeters>
          </Trackpoint>
          <Trackpoint>
            <Time>2019-01-04T11:21:04.000Z</Time>
            <Position>
              <LatitudeDegrees>36.4951639808714389801025390625</LatitudeDegrees>
              <LongitudeDegrees>-5.40733932517468929290771484375</LongitudeDegrees>
            </Position>
            <AltitudeMeters>72</AltitudeMeters>
            <DistanceMeters>8631.4442434425</DistanceMeters>
          </Trackpoint>
          <Trackpoint>
            <Time>2019-01-04T11:21:05.000Z</Time>
            <Position>
              <LatitudeDegrees>36.4951626397669315338134765625</LatitudeDegrees>
              <LongitudeDegrees>-5.407322980463504791259765625</LongitudeDegrees>
            </Position>
            <AltitudeMeters>72</AltitudeMeters>
            <DistanceMeters>8632.9163909713</DistanceMeters>
          </Trackpoint>
          <Trackpoint>
            <Time>2019-01-04T11:21:06.000Z</Time>
            <Position>
              <LatitudeDegrees>36.495157778263092041015625</LatitudeDegrees>
              <LongitudeDegrees>-5.407309569418430328369140625</LongitudeDegrees>
            </Position>
            <AltitudeMeters>72</AltitudeMeters>
            <DistanceMeters>8634.2365442781</DistanceMeters>
          </Trackpoint>
          <Trackpoint>
            <Time>2019-01-04T11:21:07.000Z</Time>
            <Position>
              <LatitudeDegrees>36.49515149183571338653564453125</LatitudeDegrees>
              <LongitudeDegrees>-5.40729582309722900390625</LongitudeDegrees>
            </Position>
            <AltitudeMeters>71.8000030517578125</AltitudeMeters>
            <DistanceMeters>8635.6460182288</DistanceMeters>
          </Trackpoint>
          <Trackpoint>
            <Time>2019-01-04T11:21:08.000Z</Time>
            <Position>
              <LatitudeDegrees>36.49514880962669849395751953125</LatitudeDegrees>
              <LongitudeDegrees>-5.40728098712861537933349609375</LongitudeDegrees>
            </Position>
            <AltitudeMeters>71.8000030517578125</AltitudeMeters>
            <DistanceMeters>8637.0032711878</DistanceMeters>
          </Trackpoint>
          <Trackpoint>
            <Time>2019-01-04T11:21:09.000Z</Time>
            <Position>
              <LatitudeDegrees>36.495147049427032470703125</LatitudeDegrees>
              <LongitudeDegrees>-5.407268665730953216552734375</LongitudeDegrees>
            </Position>
            <AltitudeMeters>71.59999847412109375</AltitudeMeters>
            <DistanceMeters>8638.1195823224</DistanceMeters>
          </Trackpoint>
          <Trackpoint>
            <Time>2019-01-04T11:21:10.000Z</Time>
            <Position>
              <LatitudeDegrees>36.4951425231993198394775390625</LatitudeDegrees>
              <LongitudeDegrees>-5.40725433267652988433837890625</LongitudeDegrees>
            </Position>
            <AltitudeMeters>71.59999847412109375</AltitudeMeters>
            <DistanceMeters>8639.4966502413</DistanceMeters>
          </Trackpoint>
          <Trackpoint>
            <Time>2019-01-04T11:21:11.000Z</Time>
            <Position>
              <LatitudeDegrees>36.49513841606676578521728515625</LatitudeDegrees>
              <LongitudeDegrees>-5.407241173088550567626953125</LongitudeDegrees>
            </Position>
            <AltitudeMeters>71.59999847412109375</AltitudeMeters>
            <DistanceMeters>8640.7608984489</DistanceMeters>
          </Trackpoint>
          <Trackpoint>
            <Time>2019-01-04T11:21:12.000Z</Time>
            <Position>
              <LatitudeDegrees>36.49513824842870235443115234375</LatitudeDegrees>
              <LongitudeDegrees>-5.4072309471666812896728515625</LongitudeDegrees>
            </Position>
            <AltitudeMeters>71.59999847412109375</AltitudeMeters>
            <DistanceMeters>8641.6673955291</DistanceMeters>
          </Trackpoint>
          <Trackpoint>
            <Time>2019-01-04T11:21:13.000Z</Time>
            <Position>
              <LatitudeDegrees>36.49513900279998779296875</LatitudeDegrees>
              <LongitudeDegrees>-5.4072222299873828887939453125</LongitudeDegrees>
            </Position>
            <AltitudeMeters>71.40000152587890625</AltitudeMeters>
            <DistanceMeters>8642.4510058903</DistanceMeters>
          </Trackpoint>
          <Trackpoint>
            <Time>2019-01-04T11:21:14.000Z</Time>
            <Position>
              <LatitudeDegrees>36.49514059536159038543701171875</LatitudeDegrees>
              <LongitudeDegrees>-5.407213680446147918701171875</LongitudeDegrees>
            </Position>
            <AltitudeMeters>71.40000152587890625</AltitudeMeters>
            <DistanceMeters>8643.2346162515</DistanceMeters>
          </Trackpoint>
          <Trackpoint>
            <Time>2019-01-04T11:21:15.000Z</Time>
            <Position>
              <LatitudeDegrees>36.49514126591384410858154296875</LatitudeDegrees>
              <LongitudeDegrees>-5.4072051309049129486083984375</LongitudeDegrees>
            </Position>
            <AltitudeMeters>71.1999969482421875</AltitudeMeters>
            <DistanceMeters>8644.0066169286</DistanceMeters>
          </Trackpoint>
          <Trackpoint>
            <Time>2019-01-04T11:21:16.000Z</Time>
            <Position>
              <LatitudeDegrees>36.49514059536159038543701171875</LatitudeDegrees>
              <LongitudeDegrees>-5.4071947373449802398681640625</LongitudeDegrees>
            </Position>
            <AltitudeMeters>71</AltitudeMeters>
            <DistanceMeters>8644.9425215258</DistanceMeters>
          </Trackpoint>
          <Trackpoint>
            <Time>2019-01-04T11:21:17.000Z</Time>
            <Position>
              <LatitudeDegrees>36.49513875134289264678955078125</LatitudeDegrees>
              <LongitudeDegrees>-5.407182835042476654052734375</LongitudeDegrees>
            </Position>
            <AltitudeMeters>70.8000030517578125</AltitudeMeters>
            <DistanceMeters>8646.0259927703</DistanceMeters>
          </Trackpoint>
          <Trackpoint>
            <Time>2019-01-04T11:21:18.000Z</Time>
            <Position>
              <LatitudeDegrees>36.49513288401067256927490234375</LatitudeDegrees>
              <LongitudeDegrees>-5.40716917254030704498291015625</LongitudeDegrees>
            </Position>
            <AltitudeMeters>70.8000030517578125</AltitudeMeters>
            <DistanceMeters>8647.4096026163</DistanceMeters>
          </Trackpoint>
          <Trackpoint>
            <Time>2019-01-04T11:21:19.000Z</Time>
            <Position>
              <LatitudeDegrees>36.4951269328594207763671875</LatitudeDegrees>
              <LongitudeDegrees>-5.40715039707720279693603515625</LongitudeDegrees>
            </Position>
            <AltitudeMeters>70.8000030517578125</AltitudeMeters>
            <DistanceMeters>8649.217609163</DistanceMeters>
          </Trackpoint>
          <Trackpoint>
            <Time>2019-01-04T11:21:20.000Z</Time>
            <Position>
              <LatitudeDegrees>36.49511913768947124481201171875</LatitudeDegrees>
              <LongitudeDegrees>-5.40713011287152767181396484375</LongitudeDegrees>
            </Position>
            <AltitudeMeters>70.8000030517578125</AltitudeMeters>
            <DistanceMeters>8651.2266995468</DistanceMeters>
          </Trackpoint>
          <Trackpoint>
            <Time>2019-01-04T11:21:21.000Z</Time>
            <Position>
              <LatitudeDegrees>36.4951069839298725128173828125</LatitudeDegrees>
              <LongitudeDegrees>-5.40711234323680400848388671875</LongitudeDegrees>
            </Position>
            <AltitudeMeters>70.8000030517578125</AltitudeMeters>
            <DistanceMeters>8653.3129633954</DistanceMeters>
          </Trackpoint>
          <Trackpoint>
            <Time>2019-01-04T11:21:22.000Z</Time>
            <Position>
              <LatitudeDegrees>36.49509399197995662689208984375</LatitudeDegrees>
              <LongitudeDegrees>-5.40709440596401691436767578125</LongitudeDegrees>
            </Position>
            <AltitudeMeters>70.8000030517578125</AltitudeMeters>
            <DistanceMeters>8655.4715554007</DistanceMeters>
          </Trackpoint>
          <Trackpoint>
            <Time>2019-01-04T11:21:23.000Z</Time>
            <Position>
              <LatitudeDegrees>36.49508410133421421051025390625</LatitudeDegrees>
              <LongitudeDegrees>-5.40707713924348354339599609375</LongitudeDegrees>
            </Position>
            <AltitudeMeters>71</AltitudeMeters>
            <DistanceMeters>8657.3673323983</DistanceMeters>
          </Trackpoint>
          <Trackpoint>
            <Time>2019-01-04T11:21:24.000Z</Time>
            <Position>
              <LatitudeDegrees>36.49507521651685237884521484375</LatitudeDegrees>
              <LongitudeDegrees>-5.40706045925617218017578125</LongitudeDegrees>
            </Position>
            <AltitudeMeters>71</AltitudeMeters>
            <DistanceMeters>8659.1602928591</DistanceMeters>
          </Trackpoint>
          <Trackpoint>
            <Time>2019-01-04T11:21:25.000Z</Time>
            <Position>
              <LatitudeDegrees>36.4950667507946491241455078125</LatitudeDegrees>
              <LongitudeDegrees>-5.4070465452969074249267578125</LongitudeDegrees>
            </Position>
            <AltitudeMeters>71</AltitudeMeters>
            <DistanceMeters>8660.7246300083</DistanceMeters>
          </Trackpoint>
          <Trackpoint>
            <Time>2019-01-04T11:21:26.000Z</Time>
            <Position>
              <LatitudeDegrees>36.49506281130015850067138671875</LatitudeDegrees>
              <LongitudeDegrees>-5.40703506208956241607666015625</LongitudeDegrees>
            </Position>
            <AltitudeMeters>71</AltitudeMeters>
            <DistanceMeters>8661.8449784477</DistanceMeters>
          </Trackpoint>
          <Trackpoint>
            <Time>2019-01-04T11:21:27.000Z</Time>
            <Position>
              <LatitudeDegrees>36.49505627341568470001220703125</LatitudeDegrees>
              <LongitudeDegrees>-5.407023243606090545654296875</LongitudeDegrees>
            </Position>
            <AltitudeMeters>71</AltitudeMeters>
            <DistanceMeters>8663.1304760126</DistanceMeters>
          </Trackpoint>
          <Trackpoint>
            <Time>2019-01-04T11:21:28.000Z</Time>
            <Position>
              <LatitudeDegrees>36.49504789151251316070556640625</LatitudeDegrees>
              <LongitudeDegrees>-5.40701226331293582916259765625</LongitudeDegrees>
            </Position>
            <AltitudeMeters>70.8000030517578125</AltitudeMeters>
            <DistanceMeters>8664.4877289715</DistanceMeters>
          </Trackpoint>
          <Trackpoint>
            <Time>2019-01-04T11:21:29.000Z</Time>
            <Position>
              <LatitudeDegrees>36.4950439520180225372314453125</LatitudeDegrees>
              <LongitudeDegrees>-5.40700036101043224334716796875</LongitudeDegrees>
            </Position>
            <AltitudeMeters>70.59999847412109375</AltitudeMeters>
            <DistanceMeters>8665.63594113</DistanceMeters>
          </Trackpoint>
          <Trackpoint>
            <Time>2019-01-04T11:21:30.000Z</Time>
            <Position>
              <LatitudeDegrees>36.49504303000867366790771484375</LatitudeDegrees>
              <LongitudeDegrees>-5.40698963217437267303466796875</LongitudeDegrees>
            </Position>
            <AltitudeMeters>70.59999847412109375</AltitudeMeters>
            <DistanceMeters>8666.6003569499</DistanceMeters>
          </Trackpoint>
          <Trackpoint>
            <Time>2019-01-04T11:21:31.000Z</Time>
            <Position>
              <LatitudeDegrees>36.4950449578464031219482421875</LatitudeDegrees>
              <LongitudeDegrees>-5.40697890333831310272216796875</LongitudeDegrees>
            </Position>
            <AltitudeMeters>70.59999847412109375</AltitudeMeters>
            <DistanceMeters>8667.5787168545</DistanceMeters>
          </Trackpoint>
          <Trackpoint>
            <Time>2019-01-04T11:21:32.000Z</Time>
            <Position>
              <LatitudeDegrees>36.49504336528480052947998046875</LatitudeDegrees>
              <LongitudeDegrees>-5.40696658194065093994140625</LongitudeDegrees>
            </Position>
            <AltitudeMeters>70.40000152587890625</AltitudeMeters>
            <DistanceMeters>8668.6909760298</DistanceMeters>
          </Trackpoint>
          <Trackpoint>
            <Time>2019-01-04T11:21:33.000Z</Time>
            <Position>
              <LatitudeDegrees>36.49504520930349826812744140625</LatitudeDegrees>
              <LongitudeDegrees>-5.40695325471460819244384765625</LongitudeDegrees>
            </Position>
            <AltitudeMeters>70.40000152587890625</AltitudeMeters>
            <DistanceMeters>8669.9041959028</DistanceMeters>
          </Trackpoint>
          <Trackpoint>
            <Time>2019-01-04T11:21:34.000Z</Time>
            <Position>
              <LatitudeDegrees>36.4950446225702762603759765625</LatitudeDegrees>
              <LongitudeDegrees>-5.40693984366953372955322265625</LongitudeDegrees>
            </Position>
            <AltitudeMeters>70.40000152587890625</AltitudeMeters>
            <DistanceMeters>8671.1099497365</DistanceMeters>
          </Trackpoint>
          <Trackpoint>
            <Time>2019-01-04T11:21:35.000Z</Time>
            <Position>
              <LatitudeDegrees>36.49504235945641994476318359375</LatitudeDegrees>
              <LongitudeDegrees>-5.4069258458912372589111328125</LongitudeDegrees>
            </Position>
            <AltitudeMeters>70.59999847412109375</AltitudeMeters>
            <DistanceMeters>8672.3848668946</DistanceMeters>
          </Trackpoint>
          <Trackpoint>
            <Time>2019-01-04T11:21:36.000Z</Time>
            <Position>
              <LatitudeDegrees>36.49503649212419986724853515625</LatitudeDegrees>
              <LongitudeDegrees>-5.4069120995700359344482421875</LongitudeDegrees>
            </Position>
            <AltitudeMeters>70.59999847412109375</AltitudeMeters>
            <DistanceMeters>8673.7749878817</DistanceMeters>
          </Trackpoint>
          <Trackpoint>
            <Time>2019-01-04T11:21:37.000Z</Time>
            <Position>
              <LatitudeDegrees>36.49502894841134548187255859375</LatitudeDegrees>
              <LongitudeDegrees>-5.406897179782390594482421875</LongitudeDegrees>
            </Position>
            <AltitudeMeters>70.8000030517578125</AltitudeMeters>
            <DistanceMeters>8675.3479598922</DistanceMeters>
          </Trackpoint>
          <Trackpoint>
            <Time>2019-01-04T11:21:38.000Z</Time>
            <Position>
              <LatitudeDegrees>36.4950198121368885040283203125</LatitudeDegrees>
              <LongitudeDegrees>-5.40688343346118927001953125</LongitudeDegrees>
            </Position>
            <AltitudeMeters>70.8000030517578125</AltitudeMeters>
            <DistanceMeters>8676.943729787</DistanceMeters>
          </Trackpoint>
          <Trackpoint>
            <Time>2019-01-04T11:21:39.000Z</Time>
            <Position>
              <LatitudeDegrees>36.49501067586243152618408203125</LatitudeDegrees>
              <LongitudeDegrees>-5.4068708606064319610595703125</LongitudeDegrees>
            </Position>
            <AltitudeMeters>70.8000030517578125</AltitudeMeters>
            <DistanceMeters>8678.4582064018</DistanceMeters>
          </Trackpoint>
          <Trackpoint>
            <Time>2019-01-04T11:21:40.000Z</Time>
            <Position>
              <LatitudeDegrees>36.49499977938830852508544921875</LatitudeDegrees>
              <LongitudeDegrees>-5.4068587906658649444580078125</LongitudeDegrees>
            </Position>
            <AltitudeMeters>70.8000030517578125</AltitudeMeters>
            <DistanceMeters>8680.0820236088</DistanceMeters>
          </Trackpoint>
          <Trackpoint>
            <Time>2019-01-04T11:21:41.000Z</Time>
            <Position>
              <LatitudeDegrees>36.49498879909515380859375</LatitudeDegrees>
              <LongitudeDegrees>-5.40684613399207592010498046875</LongitudeDegrees>
            </Position>
            <AltitudeMeters>70.8000030517578125</AltitudeMeters>
            <DistanceMeters>8681.7497356777</DistanceMeters>
          </Trackpoint>
          <Trackpoint>
            <Time>2019-01-04T11:21:42.000Z</Time>
            <Position>
              <LatitudeDegrees>36.4949809201061725616455078125</LatitudeDegrees>
              <LongitudeDegrees>-5.406835488975048065185546875</LongitudeDegrees>
            </Position>
            <AltitudeMeters>70.8000030517578125</AltitudeMeters>
            <DistanceMeters>8683.0422387307</DistanceMeters>
          </Trackpoint>
          <Trackpoint>
            <Time>2019-01-04T11:21:43.000Z</Time>
            <Position>
              <LatitudeDegrees>36.4949758909642696380615234375</LatitudeDegrees>
              <LongitudeDegrees>-5.40682467631995677947998046875</LongitudeDegrees>
            </Position>
            <AltitudeMeters>70.8000030517578125</AltitudeMeters>
            <DistanceMeters>8684.1585498653</DistanceMeters>
          </Trackpoint>
          <Trackpoint>
            <Time>2019-01-04T11:21:44.000Z</Time>
            <Position>
              <LatitudeDegrees>36.494971700012683868408203125</LatitudeDegrees>
              <LongitudeDegrees>-5.40681243874132633209228515625</LongitudeDegrees>
            </Position>
            <AltitudeMeters>70.8000030517578125</AltitudeMeters>
            <DistanceMeters>8685.3454331474</DistanceMeters>
          </Trackpoint>
          <Trackpoint>
            <Time>2019-01-04T11:21:45.000Z</Time>
            <Position>
              <LatitudeDegrees>36.494964323937892913818359375</LatitudeDegrees>
              <LongitudeDegrees>-5.4067982733249664306640625</LongitudeDegrees>
            </Position>
            <AltitudeMeters>70.8000030517578125</AltitudeMeters>
            <DistanceMeters>8686.8569255689</DistanceMeters>
          </Trackpoint>
          <Trackpoint>
            <Time>2019-01-04T11:21:46.000Z</Time>
            <Position>
              <LatitudeDegrees>36.494953595101833343505859375</LatitudeDegrees>
              <LongitudeDegrees>-5.4067820124328136444091796875</LongitudeDegrees>
            </Position>
            <AltitudeMeters>71</AltitudeMeters>
            <DistanceMeters>8688.7431519919</DistanceMeters>
          </Trackpoint>
          <Trackpoint>
            <Time>2019-01-04T11:21:47.000Z</Time>
            <Position>
              <LatitudeDegrees>36.494944877922534942626953125</LatitudeDegrees>
              <LongitudeDegrees>-5.40676432661712169647216796875</LongitudeDegrees>
            </Position>
            <AltitudeMeters>71</AltitudeMeters>
            <DistanceMeters>8690.5979994588</DistanceMeters>
          </Trackpoint>
          <Trackpoint>
            <Time>2019-01-04T11:21:48.000Z</Time>
            <Position>
              <LatitudeDegrees>36.49493406526744365692138671875</LatitudeDegrees>
              <LongitudeDegrees>-5.4067464731633663177490234375</LongitudeDegrees>
            </Position>
            <AltitudeMeters>71.1999969482421875</AltitudeMeters>
            <DistanceMeters>8692.5980804233</DistanceMeters>
          </Trackpoint>
          <Trackpoint>
            <Time>2019-01-04T11:21:49.000Z</Time>
            <Position>
              <LatitudeDegrees>36.49492115713655948638916015625</LatitudeDegrees>
              <LongitudeDegrees>-5.40672828443348407745361328125</LongitudeDegrees>
            </Position>
            <AltitudeMeters>71.40000152587890625</AltitudeMeters>
            <DistanceMeters>8694.7691861102</DistanceMeters>
          </Trackpoint>
          <Trackpoint>
            <Time>2019-01-04T11:21:50.000Z</Time>
            <Position>
              <LatitudeDegrees>36.4949054829776287078857421875</LatitudeDegrees>
              <LongitudeDegrees>-5.406707413494586944580078125</LongitudeDegrees>
            </Position>
            <AltitudeMeters>71.40000152587890625</AltitudeMeters>
            <DistanceMeters>8697.3225594069</DistanceMeters>
          </Trackpoint>
          <Trackpoint>
            <Time>2019-01-04T11:21:51.000Z</Time>
            <Position>
              <LatitudeDegrees>36.4948903955519199371337890625</LatitudeDegrees>
              <LongitudeDegrees>-5.406681597232818603515625</LongitudeDegrees>
            </Position>
            <AltitudeMeters>71.59999847412109375</AltitudeMeters>
            <DistanceMeters>8700.1796889289</DistanceMeters>
          </Trackpoint>
          <Trackpoint>
            <Time>2019-01-04T11:21:52.000Z</Time>
            <Position>
              <LatitudeDegrees>36.49487472139298915863037109375</LatitudeDegrees>
              <LongitudeDegrees>-5.406660474836826324462890625</LongitudeDegrees>
            </Position>
            <AltitudeMeters>71.59999847412109375</AltitudeMeters>
            <DistanceMeters>8702.7541939512</DistanceMeters>
          </Trackpoint>
          <Trackpoint>
            <Time>2019-01-04T11:21:53.000Z</Time>
            <Position>
              <LatitudeDegrees>36.49486466310918331146240234375</LatitudeDegrees>
              <LongitudeDegrees>-5.406640358269214630126953125</LongitudeDegrees>
            </Position>
            <AltitudeMeters>71.59999847412109375</AltitudeMeters>
            <DistanceMeters>8704.8726717049</DistanceMeters>
          </Trackpoint>
          <Trackpoint>
            <Time>2019-01-04T11:21:54.000Z</Time>
            <Position>
              <LatitudeDegrees>36.49486131034791469573974609375</LatitudeDegrees>
              <LongitudeDegrees>-5.4066227562725543975830078125</LongitudeDegrees>
            </Position>
            <AltitudeMeters>71.40000152587890625</AltitudeMeters>
            <DistanceMeters>8706.4909183389</DistanceMeters>
          </Trackpoint>
          <Trackpoint>
            <Time>2019-01-04T11:21:55.000Z</Time>
            <Position>
              <LatitudeDegrees>36.4948649145662784576416015625</LatitudeDegrees>
              <LongitudeDegrees>-5.4066090099513530731201171875</LongitudeDegrees>
            </Position>
            <AltitudeMeters>71.40000152587890625</AltitudeMeters>
            <DistanceMeters>8707.783421392</DistanceMeters>
          </Trackpoint>
          <Trackpoint>
            <Time>2019-01-04T11:21:56.000Z</Time>
            <Position>
              <LatitudeDegrees>36.4948686026036739349365234375</LatitudeDegrees>
              <LongitudeDegrees>-5.406601130962371826171875</LongitudeDegrees>
            </Position>
            <AltitudeMeters>71.1999969482421875</AltitudeMeters>
            <DistanceMeters>8708.5953299955</DistanceMeters>
          </Trackpoint>
          <Trackpoint>
            <Time>2019-01-04T11:21:57.000Z</Time>
            <Position>
              <LatitudeDegrees>36.49487740360200405120849609375</LatitudeDegrees>
              <LongitudeDegrees>-5.406588725745677947998046875</LongitudeDegrees>
            </Position>
            <AltitudeMeters>71.1999969482421875</AltitudeMeters>
            <DistanceMeters>8710.0735987462</DistanceMeters>
          </Trackpoint>
          <Trackpoint>
            <Time>2019-01-04T11:21:58.000Z</Time>
            <Position>
              <LatitudeDegrees>36.49488997645676136016845703125</LatitudeDegrees>
              <LongitudeDegrees>-5.40657875128090381622314453125</LongitudeDegrees>
            </Position>
            <AltitudeMeters>71.1999969482421875</AltitudeMeters>
            <DistanceMeters>8711.7331689663</DistanceMeters>
          </Trackpoint>
          <Trackpoint>
            <Time>2019-01-04T11:21:59.000Z</Time>
            <Position>
              <LatitudeDegrees>36.494896598160266876220703125</LatitudeDegrees>
              <LongitudeDegrees>-5.40656668134033679962158203125</LongitudeDegrees>
            </Position>
            <AltitudeMeters>71.1999969482421875</AltitudeMeters>
            <DistanceMeters>8713.0395703012</DistanceMeters>
          </Trackpoint>
          <Trackpoint>
            <Time>2019-01-04T11:22:00.000Z</Time>
            <Position>
              <LatitudeDegrees>36.49490271694958209991455078125</LatitudeDegrees>
              <LongitudeDegrees>-5.406553186476230621337890625</LongitudeDegrees>
            </Position>
            <AltitudeMeters>71.1999969482421875</AltitudeMeters>
            <DistanceMeters>8714.4296912884</DistanceMeters>
          </Trackpoint>
          <Trackpoint>
            <Time>2019-01-04T11:22:01.000Z</Time>
            <Position>
              <LatitudeDegrees>36.4949095062911510467529296875</LatitudeDegrees>
              <LongitudeDegrees>-5.40653918869793415069580078125</LongitudeDegrees>
            </Position>
            <AltitudeMeters>71.1999969482421875</AltitudeMeters>
            <DistanceMeters>8715.8956920366</DistanceMeters>
          </Trackpoint>
          <Trackpoint>
            <Time>2019-01-04T11:22:02.000Z</Time>
            <Position>
              <LatitudeDegrees>36.4949158765375614166259765625</LatitudeDegrees>
              <LongitudeDegrees>-5.40652259252965450286865234375</LongitudeDegrees>
            </Position>
            <AltitudeMeters>71.1999969482421875</AltitudeMeters>
            <DistanceMeters>8717.5416030103</DistanceMeters>
          </Trackpoint>
          <Trackpoint>
            <Time>2019-01-04T11:22:03.000Z</Time>
            <Position>
              <LatitudeDegrees>36.494921743869781494140625</LatitudeDegrees>
              <LongitudeDegrees>-5.40650800801813602447509765625</LongitudeDegrees>
            </Position>
            <AltitudeMeters>71</AltitudeMeters>
            <DistanceMeters>8719.0014310963</DistanceMeters>
          </Trackpoint>
          <Trackpoint>
            <Time>2019-01-04T11:22:04.000Z</Time>
            <Position>
              <LatitudeDegrees>36.49492668919265270233154296875</LatitudeDegrees>
              <LongitudeDegrees>-5.4064946807920932769775390625</LongitudeDegrees>
            </Position>
            <AltitudeMeters>70.8000030517578125</AltitudeMeters>
            <DistanceMeters>8720.3181598752</DistanceMeters>
          </Trackpoint>
          <Trackpoint>
            <Time>2019-01-04T11:22:05.000Z</Time>
            <Position>
              <LatitudeDegrees>36.49493155069649219512939453125</LatitudeDegrees>
              <LongitudeDegrees>-5.40648018009960651397705078125</LongitudeDegrees>
            </Position>
            <AltitudeMeters>70.59999847412109375</AltitudeMeters>
            <DistanceMeters>8721.7244268275</DistanceMeters>
          </Trackpoint>
          <Trackpoint>
            <Time>2019-01-04T11:22:06.000Z</Time>
            <Position>
              <LatitudeDegrees>36.49493322707712650299072265625</LatitudeDegrees>
              <LongitudeDegrees>-5.40646475739777088165283203125</LongitudeDegrees>
            </Position>
            <AltitudeMeters>70.40000152587890625</AltitudeMeters>
            <DistanceMeters>8723.1210286004</DistanceMeters>
          </Trackpoint>
          <Trackpoint>
            <Time>2019-01-04T11:22:07.000Z</Time>
            <Position>
              <LatitudeDegrees>36.494932472705841064453125</LatitudeDegrees>
              <LongitudeDegrees>-5.40645034052431583404541015625</LongitudeDegrees>
            </Position>
            <AltitudeMeters>70.40000152587890625</AltitudeMeters>
            <DistanceMeters>8724.4100336685</DistanceMeters>
          </Trackpoint>
          <Trackpoint>
            <Time>2019-01-04T11:22:08.000Z</Time>
            <Position>
              <LatitudeDegrees>36.494931466877460479736328125</LatitudeDegrees>
              <LongitudeDegrees>-5.4064350016415119171142578125</LongitudeDegrees>
            </Position>
            <AltitudeMeters>70.1999969482421875</AltitudeMeters>
            <DistanceMeters>8725.7871015874</DistanceMeters>
          </Trackpoint>
          <Trackpoint>
            <Time>2019-01-04T11:22:09.000Z</Time>
            <Position>
              <LatitudeDegrees>36.4949292875826358795166015625</LatitudeDegrees>
              <LongitudeDegrees>-5.40641999803483486175537109375</LongitudeDegrees>
            </Position>
            <AltitudeMeters>70</AltitudeMeters>
            <DistanceMeters>8727.1542979244</DistanceMeters>
          </Trackpoint>
          <Trackpoint>
            <Time>2019-01-04T11:22:10.000Z</Time>
            <Position>
              <LatitudeDegrees>36.49492886848747730255126953125</LatitudeDegrees>
              <LongitudeDegrees>-5.40640306659042835235595703125</LongitudeDegrees>
            </Position>
            <AltitudeMeters>70</AltitudeMeters>
            <DistanceMeters>8728.6687745392</DistanceMeters>
          </Trackpoint>
          <Trackpoint>
            <Time>2019-01-04T11:22:11.000Z</Time>
            <Position>
              <LatitudeDegrees>36.4949252642691135406494140625</LatitudeDegrees>
              <LongitudeDegrees>-5.40638412348926067352294921875</LongitudeDegrees>
            </Position>
            <AltitudeMeters>69.8000030517578125</AltitudeMeters>
            <DistanceMeters>8730.4106429858</DistanceMeters>
          </Trackpoint>
          <Trackpoint>
            <Time>2019-01-04T11:22:12.000Z</Time>
            <Position>
              <LatitudeDegrees>36.4949239231646060943603515625</LatitudeDegrees>
              <LongitudeDegrees>-5.40636853314936161041259765625</LongitudeDegrees>
            </Position>
            <AltitudeMeters>69.59999847412109375</AltitudeMeters>
            <DistanceMeters>8731.8136956094</DistanceMeters>
          </Trackpoint>
          <Trackpoint>
            <Time>2019-01-04T11:22:13.000Z</Time>
            <Position>
              <LatitudeDegrees>36.49492702446877956390380859375</LatitudeDegrees>
              <LongitudeDegrees>-5.4063562117516994476318359375</LongitudeDegrees>
            </Position>
            <AltitudeMeters>69.40000152587890625</AltitudeMeters>
            <DistanceMeters>8732.9619077679</DistanceMeters>
          </Trackpoint>
          <Trackpoint>
            <Time>2019-01-04T11:22:14.000Z</Time>
            <Position>
              <LatitudeDegrees>36.49492911994457244873046875</LatitudeDegrees>
              <LongitudeDegrees>-5.40634162724018096923828125</LongitudeDegrees>
            </Position>
            <AltitudeMeters>69.40000152587890625</AltitudeMeters>
            <DistanceMeters>8734.2888836179</DistanceMeters>
          </Trackpoint>
          <Trackpoint>
            <Time>2019-01-04T11:22:15.000Z</Time>
            <Position>
              <LatitudeDegrees>36.4949319697916507720947265625</LatitudeDegrees>
              <LongitudeDegrees>-5.40632285177707672119140625</LongitudeDegrees>
            </Position>
            <AltitudeMeters>69.1999969482421875</AltitudeMeters>
            <DistanceMeters>8735.9993644766</DistanceMeters>
          </Trackpoint>
          <Trackpoint>
            <Time>2019-01-04T11:22:16.000Z</Time>
            <Position>
              <LatitudeDegrees>36.49493272416293621063232421875</LatitudeDegrees>
              <LongitudeDegrees>-5.4063045792281627655029296875</LongitudeDegrees>
            </Position>
            <AltitudeMeters>69.1999969482421875</AltitudeMeters>
            <DistanceMeters>8737.637025218</DistanceMeters>
          </Trackpoint>
          <Trackpoint>
            <Time>2019-01-04T11:22:17.000Z</Time>
            <Position>
              <LatitudeDegrees>36.494933478534221649169921875</LatitudeDegrees>
              <LongitudeDegrees>-5.40628454647958278656005859375</LongitudeDegrees>
            </Position>
            <AltitudeMeters>69.40000152587890625</AltitudeMeters>
            <DistanceMeters>8739.4299856788</DistanceMeters>
          </Trackpoint>
          <Trackpoint>
            <Time>2019-01-04T11:22:18.000Z</Time>
            <Position>
              <LatitudeDegrees>36.49492903612554073333740234375</LatitudeDegrees>
              <LongitudeDegrees>-5.40626459755003452301025390625</LongitudeDegrees>
            </Position>
            <AltitudeMeters>69.40000152587890625</AltitudeMeters>
            <DistanceMeters>8741.2823973632</DistanceMeters>
          </Trackpoint>
          <Trackpoint>
            <Time>2019-01-04T11:22:19.000Z</Time>
            <Position>
              <LatitudeDegrees>36.49492484517395496368408203125</LatitudeDegrees>
              <LongitudeDegrees>-5.406245402991771697998046875</LongitudeDegrees>
            </Position>
            <AltitudeMeters>69.59999847412109375</AltitudeMeters>
            <DistanceMeters>8743.065256558</DistanceMeters>
          </Trackpoint>
          <Trackpoint>
            <Time>2019-01-04T11:22:20.000Z</Time>
            <Position>
              <LatitudeDegrees>36.4949259348213672637939453125</LatitudeDegrees>
              <LongitudeDegrees>-5.4062301479279994964599609375</LongitudeDegrees>
            </Position>
            <AltitudeMeters>69.59999847412109375</AltitudeMeters>
            <DistanceMeters>8744.4357513228</DistanceMeters>
          </Trackpoint>
          <Trackpoint>
            <Time>2019-01-04T11:22:21.000Z</Time>
            <Position>
              <LatitudeDegrees>36.4949245937168598175048828125</LatitudeDegrees>
              <LongitudeDegrees>-5.40622335858643054962158203125</LongitudeDegrees>
            </Position>
            <AltitudeMeters>69.59999847412109375</AltitudeMeters>
            <DistanceMeters>8745.066087236</DistanceMeters>
          </Trackpoint>
          <Trackpoint>
            <Time>2019-01-04T11:22:22.000Z</Time>
            <Position>
              <LatitudeDegrees>36.4949209056794643402099609375</LatitudeDegrees>
              <LongitudeDegrees>-5.40620827116072177886962890625</LongitudeDegrees>
            </Position>
            <AltitudeMeters>69.59999847412109375</AltitudeMeters>
            <DistanceMeters>8746.4787609047</DistanceMeters>
          </Trackpoint>
          <Trackpoint>
            <Time>2019-01-04T11:22:23.000Z</Time>
            <Position>
              <LatitudeDegrees>36.494920738041400909423828125</LatitudeDegrees>
              <LongitudeDegrees>-5.40618932805955410003662109375</LongitudeDegrees>
            </Position>
            <AltitudeMeters>69.40000152587890625</AltitudeMeters>
            <DistanceMeters>8748.1733299677</DistanceMeters>
          </Trackpoint>
          <Trackpoint>
            <Time>2019-01-04T11:22:24.000Z</Time>
            <Position>
              <LatitudeDegrees>36.494917385280132293701171875</LatitudeDegrees>
              <LongitudeDegrees>-5.40617558173835277557373046875</LongitudeDegrees>
            </Position>
            <AltitudeMeters>69.1999969482421875</AltitudeMeters>
            <DistanceMeters>8749.4553104327</DistanceMeters>
          </Trackpoint>
          <Trackpoint>
            <Time>2019-01-04T11:22:25.000Z</Time>
            <Position>
              <LatitudeDegrees>36.494913361966609954833984375</LatitudeDegrees>
              <LongitudeDegrees>-5.406162925064563751220703125</LongitudeDegrees>
            </Position>
            <AltitudeMeters>69</AltitudeMeters>
            <DistanceMeters>8750.67595068</DistanceMeters>
          </Trackpoint>
          <Trackpoint>
            <Time>2019-01-04T11:22:26.000Z</Time>
            <Position>
              <LatitudeDegrees>36.4949064888060092926025390625</LatitudeDegrees>
              <LongitudeDegrees>-5.40615026839077472686767578125</LongitudeDegrees>
            </Position>
            <AltitudeMeters>69</AltitudeMeters>
            <DistanceMeters>8752.0464454448</DistanceMeters>
          </Trackpoint>
          <Trackpoint>
            <Time>2019-01-04T11:22:27.000Z</Time>
            <Position>
              <LatitudeDegrees>36.4949041418731212615966796875</LatitudeDegrees>
              <LongitudeDegrees>-5.406139791011810302734375</LongitudeDegrees>
            </Position>
            <AltitudeMeters>68.8000030517578125</AltitudeMeters>
            <DistanceMeters>8753.0201795084</DistanceMeters>
          </Trackpoint>
          <Trackpoint>
            <Time>2019-01-04T11:22:28.000Z</Time>
            <Position>
              <LatitudeDegrees>36.49490925483405590057373046875</LatitudeDegrees>
              <LongitudeDegrees>-5.40612914599478244781494140625</LongitudeDegrees>
            </Position>
            <AltitudeMeters>68.8000030517578125</AltitudeMeters>
            <DistanceMeters>8754.1283719088</DistanceMeters>
          </Trackpoint>
          <Trackpoint>
            <Time>2019-01-04T11:22:29.000Z</Time>
            <Position>
              <LatitudeDegrees>36.4949118532240390777587890625</LatitudeDegrees>
              <LongitudeDegrees>-5.406118668615818023681640625</LongitudeDegrees>
            </Position>
            <AltitudeMeters>68.59999847412109375</AltitudeMeters>
            <DistanceMeters>8755.1113358855</DistanceMeters>
          </Trackpoint>
          <Trackpoint>
            <Time>2019-01-04T11:22:30.000Z</Time>
            <Position>
              <LatitudeDegrees>36.4949148707091808319091796875</LatitudeDegrees>
              <LongitudeDegrees>-5.40610785596072673797607421875</LongitudeDegrees>
            </Position>
            <AltitudeMeters>68.59999847412109375</AltitudeMeters>
            <DistanceMeters>8756.1348049214</DistanceMeters>
          </Trackpoint>
          <Trackpoint>
            <Time>2019-01-04T11:22:31.000Z</Time>
            <Position>
              <LatitudeDegrees>36.49491168558597564697265625</LatitudeDegrees>
              <LongitudeDegrees>-5.4060960374772548675537109375</LongitudeDegrees>
            </Position>
            <AltitudeMeters>68.59999847412109375</AltitudeMeters>
            <DistanceMeters>8757.2511160561</DistanceMeters>
          </Trackpoint>
          <Trackpoint>
            <Time>2019-01-04T11:22:32.000Z</Time>
            <Position>
              <LatitudeDegrees>36.49491176940500736236572265625</LatitudeDegrees>
              <LongitudeDegrees>-5.406083799898624420166015625</LongitudeDegrees>
            </Position>
            <AltitudeMeters>68.40000152587890625</AltitudeMeters>
            <DistanceMeters>8758.3387465145</DistanceMeters>
          </Trackpoint>
          <Trackpoint>
            <Time>2019-01-04T11:22:33.000Z</Time>
            <Position>
              <LatitudeDegrees>36.4949152059853076934814453125</LatitudeDegrees>
              <LongitudeDegrees>-5.406073071062564849853515625</LongitudeDegrees>
            </Position>
            <AltitudeMeters>68.40000152587890625</AltitudeMeters>
            <DistanceMeters>8759.3710008535</DistanceMeters>
          </Trackpoint>
          <Trackpoint>
            <Time>2019-01-04T11:22:34.000Z</Time>
            <Position>
              <LatitudeDegrees>36.4949168823659420013427734375</LatitudeDegrees>
              <LongitudeDegrees>-5.406062342226505279541015625</LongitudeDegrees>
            </Position>
            <AltitudeMeters>68.1999969482421875</AltitudeMeters>
            <DistanceMeters>8760.3493607582</DistanceMeters>
          </Trackpoint>
          <Trackpoint>
            <Time>2019-01-04T11:22:35.000Z</Time>
            <Position>
              <LatitudeDegrees>36.49491730146110057830810546875</LatitudeDegrees>
              <LongitudeDegrees>-5.406049601733684539794921875</LongitudeDegrees>
            </Position>
            <AltitudeMeters>67.59999847412109375</AltitudeMeters>
            <DistanceMeters>8761.4896813306</DistanceMeters>
          </Trackpoint>
          <Trackpoint>
            <Time>2019-01-04T11:22:36.000Z</Time>
            <Position>
              <LatitudeDegrees>36.49491168558597564697265625</LatitudeDegrees>
              <LongitudeDegrees>-5.4060338437557220458984375</LongitudeDegrees>
            </Position>
            <AltitudeMeters>67.1999969482421875</AltitudeMeters>
            <DistanceMeters>8763.0278230758</DistanceMeters>
          </Trackpoint>
          <Trackpoint>
            <Time>2019-01-04T11:22:37.000Z</Time>
            <Position>
              <LatitudeDegrees>36.4948971010744571685791015625</LatitudeDegrees>
              <LongitudeDegrees>-5.40601967833936214447021484375</LongitudeDegrees>
            </Position>
            <AltitudeMeters>66.8000030517578125</AltitudeMeters>
            <DistanceMeters>8765.0879531515</DistanceMeters>
          </Trackpoint>
          <Trackpoint>
            <Time>2019-01-04T11:22:38.000Z</Time>
            <Position>
              <LatitudeDegrees>36.49488545022904872894287109375</LatitudeDegrees>
              <LongitudeDegrees>-5.406000651419162750244140625</LongitudeDegrees>
            </Position>
            <AltitudeMeters>66.40000152587890625</AltitudeMeters>
            <DistanceMeters>8767.22974652</DistanceMeters>
          </Trackpoint>
          <Trackpoint>
            <Time>2019-01-04T11:22:39.000Z</Time>
            <Position>
              <LatitudeDegrees>36.49488159455358982086181640625</LatitudeDegrees>
              <LongitudeDegrees>-5.40598489344120025634765625</LongitudeDegrees>
            </Position>
            <AltitudeMeters>66.1999969482421875</AltitudeMeters>
            <DistanceMeters>8768.7049578347</DistanceMeters>
          </Trackpoint>
          <Trackpoint>
            <Time>2019-01-04T11:22:40.000Z</Time>
            <Position>
              <LatitudeDegrees>36.49487824179232120513916015625</LatitudeDegrees>
              <LongitudeDegrees>-5.40596452541649341583251953125</LongitudeDegrees>
            </Position>
            <AltitudeMeters>66.1999969482421875</AltitudeMeters>
            <DistanceMeters>8770.5670935318</DistanceMeters>
          </Trackpoint>
          <Trackpoint>
            <Time>2019-01-04T11:22:41.000Z</Time>
            <Position>
              <LatitudeDegrees>36.49487078189849853515625</LatitudeDegrees>
              <LongitudeDegrees>-5.40594859980046749114990234375</LongitudeDegrees>
            </Position>
            <AltitudeMeters>66</AltitudeMeters>
            <DistanceMeters>8772.2130045055</DistanceMeters>
          </Trackpoint>
          <Trackpoint>
            <Time>2019-01-04T11:22:42.000Z</Time>
            <Position>
              <LatitudeDegrees>36.49486206471920013427734375</LatitudeDegrees>
              <LongitudeDegrees>-5.40593233890831470489501953125</LongitudeDegrees>
            </Position>
            <AltitudeMeters>66</AltitudeMeters>
            <DistanceMeters>8773.965210541</DistanceMeters>
          </Trackpoint>
          <Trackpoint>
            <Time>2019-01-04T11:22:43.000Z</Time>
            <Position>
              <LatitudeDegrees>36.4948464743793010711669921875</LatitudeDegrees>
              <LongitudeDegrees>-5.40591322816908359527587890625</LongitudeDegrees>
            </Position>
            <AltitudeMeters>66</AltitudeMeters>
            <DistanceMeters>8776.4027893193</DistanceMeters>
          </Trackpoint>
          <Trackpoint>
            <Time>2019-01-04T11:22:44.000Z</Time>
            <Position>
              <LatitudeDegrees>36.49483381770551204681396484375</LatitudeDegrees>
              <LongitudeDegrees>-5.405899398028850555419921875</LongitudeDegrees>
            </Position>
            <AltitudeMeters>66</AltitudeMeters>
            <DistanceMeters>8778.2794165633</DistanceMeters>
          </Trackpoint>
          <Trackpoint>
            <Time>2019-01-04T11:22:45.000Z</Time>
            <Position>
              <LatitudeDegrees>36.4948265254497528076171875</LatitudeDegrees>
              <LongitudeDegrees>-5.40588707663118839263916015625</LongitudeDegrees>
            </Position>
            <AltitudeMeters>66</AltitudeMeters>
            <DistanceMeters>8779.6499113281</DistanceMeters>
          </Trackpoint>
          <Trackpoint>
            <Time>2019-01-04T11:22:46.000Z</Time>
            <Position>
              <LatitudeDegrees>36.49481805972754955291748046875</LatitudeDegrees>
              <LongitudeDegrees>-5.4058737494051456451416015625</LongitudeDegrees>
            </Position>
            <AltitudeMeters>66.1999969482421875</AltitudeMeters>
            <DistanceMeters>8781.170338758</DistanceMeters>
          </Trackpoint>
          <Trackpoint>
            <Time>2019-01-04T11:22:47.000Z</Time>
            <Position>
              <LatitudeDegrees>36.4948104321956634521484375</LatitudeDegrees>
              <LongitudeDegrees>-5.4058603383600711822509765625</LongitudeDegrees>
            </Position>
            <AltitudeMeters>66.1999969482421875</AltitudeMeters>
            <DistanceMeters>8782.6424862868</DistanceMeters>
          </Trackpoint>
          <Trackpoint>
            <Time>2019-01-04T11:22:48.000Z</Time>
            <Position>
              <LatitudeDegrees>36.4948035590350627899169921875</LatitudeDegrees>
              <LongitudeDegrees>-5.40584751404821872711181640625</LongitudeDegrees>
            </Position>
            <AltitudeMeters>66.1999969482421875</AltitudeMeters>
            <DistanceMeters>8784.0228290449</DistanceMeters>
          </Trackpoint>
          <Trackpoint>
            <Time>2019-01-04T11:22:49.000Z</Time>
            <Position>
              <LatitudeDegrees>36.494796685874462127685546875</LatitudeDegrees>
              <LongitudeDegrees>-5.4058382101356983184814453125</LongitudeDegrees>
            </Position>
            <AltitudeMeters>66.1999969482421875</AltitudeMeters>
            <DistanceMeters>8785.1552030357</DistanceMeters>
          </Trackpoint>
          <Trackpoint>
            <Time>2019-01-04T11:22:50.000Z</Time>
            <Position>
              <LatitudeDegrees>36.49479006417095661163330078125</LatitudeDegrees>
              <LongitudeDegrees>-5.40582454763352870941162109375</LongitudeDegrees>
            </Position>
            <AltitudeMeters>66.1999969482421875</AltitudeMeters>
            <DistanceMeters>8786.5774326667</DistanceMeters>
          </Trackpoint>
          <Trackpoint>
            <Time>2019-01-04T11:22:51.000Z</Time>
            <Position>
              <LatitudeDegrees>36.49478402920067310333251953125</LatitudeDegrees>
              <LongitudeDegrees>-5.4058147408068180084228515625</LongitudeDegrees>
            </Position>
            <AltitudeMeters>66.1999969482421875</AltitudeMeters>
            <DistanceMeters>8787.6815433133</DistanceMeters>
          </Trackpoint>
          <Trackpoint>
            <Time>2019-01-04T11:22:52.000Z</Time>
            <Position>
              <LatitudeDegrees>36.494781263172626495361328125</LatitudeDegrees>
              <LongitudeDegrees>-5.40580158121883869171142578125</LongitudeDegrees>
            </Position>
            <AltitudeMeters>66.1999969482421875</AltitudeMeters>
            <DistanceMeters>8788.9058768829</DistanceMeters>
          </Trackpoint>
          <Trackpoint>
            <Time>2019-01-04T11:22:53.000Z</Time>
            <Position>
              <LatitudeDegrees>36.49477665312588214874267578125</LatitudeDegrees>
              <LongitudeDegrees>-5.405788086354732513427734375</LongitudeDegrees>
            </Position>
            <AltitudeMeters>66.1999969482421875</AltitudeMeters>
            <DistanceMeters>8790.2226056619</DistanceMeters>
          </Trackpoint>
          <Trackpoint>
            <Time>2019-01-04T11:22:54.000Z</Time>
            <Position>
              <LatitudeDegrees>36.49476684629917144775390625</LatitudeDegrees>
              <LongitudeDegrees>-5.40577224455773830413818359375</LongitudeDegrees>
            </Position>
            <AltitudeMeters>66.40000152587890625</AltitudeMeters>
            <DistanceMeters>8792.0105226233</DistanceMeters>
          </Trackpoint>
          <Trackpoint>
            <Time>2019-01-04T11:22:55.000Z</Time>
            <Position>
              <LatitudeDegrees>36.49475854821503162384033203125</LatitudeDegrees>
              <LongitudeDegrees>-5.40575548075139522552490234375</LongitudeDegrees>
            </Position>
            <AltitudeMeters>66.59999847412109375</AltitudeMeters>
            <DistanceMeters>8793.7730056152</DistanceMeters>
          </Trackpoint>
          <Trackpoint>
            <Time>2019-01-04T11:22:56.000Z</Time>
            <Position>
              <LatitudeDegrees>36.49474597536027431488037109375</LatitudeDegrees>
              <LongitudeDegrees>-5.4057389684021472930908203125</LongitudeDegrees>
            </Position>
            <AltitudeMeters>66.8000030517578125</AltitudeMeters>
            <DistanceMeters>8795.8111015807</DistanceMeters>
          </Trackpoint>
          <Trackpoint>
            <Time>2019-01-04T11:22:57.000Z</Time>
            <Position>
              <LatitudeDegrees>36.49473910219967365264892578125</LatitudeDegrees>
              <LongitudeDegrees>-5.4057211987674236297607421875</LongitudeDegrees>
            </Position>
            <AltitudeMeters>66.8000030517578125</AltitudeMeters>
            <DistanceMeters>8797.5761444621</DistanceMeters>
          </Trackpoint>
          <Trackpoint>
            <Time>2019-01-04T11:22:58.000Z</Time>
            <Position>
              <LatitudeDegrees>36.49472585879266262054443359375</LatitudeDegrees>
              <LongitudeDegrees>-5.4057067818939685821533203125</LongitudeDegrees>
            </Position>
            <AltitudeMeters>67</AltitudeMeters>
            <DistanceMeters>8799.5328642714</DistanceMeters>
          </Trackpoint>
          <Trackpoint>
            <Time>2019-01-04T11:22:59.000Z</Time>
            <Position>
              <LatitudeDegrees>36.4947210811078548431396484375</LatitudeDegrees>
              <LongitudeDegrees>-5.4056913591921329498291015625</LongitudeDegrees>
            </Position>
            <AltitudeMeters>67</AltitudeMeters>
            <DistanceMeters>8801.0141841477</DistanceMeters>
          </Trackpoint>
          <Trackpoint>
            <Time>2019-01-04T11:23:00.000Z</Time>
            <Position>
              <LatitudeDegrees>36.4947224222123622894287109375</LatitudeDegrees>
              <LongitudeDegrees>-5.405673086643218994140625</LongitudeDegrees>
            </Position>
            <AltitudeMeters>67</AltitudeMeters>
            <DistanceMeters>8802.6573496466</DistanceMeters>
          </Trackpoint>
          <Trackpoint>
            <Time>2019-01-04T11:23:01.000Z</Time>
            <Position>
              <LatitudeDegrees>36.49472669698297977447509765625</LatitudeDegrees>
              <LongitudeDegrees>-5.40565498173236846923828125</LongitudeDegrees>
            </Position>
            <AltitudeMeters>67</AltitudeMeters>
            <DistanceMeters>8804.3465814709</DistanceMeters>
          </Trackpoint>
          <Trackpoint>
            <Time>2019-01-04T11:23:02.000Z</Time>
            <Position>
              <LatitudeDegrees>36.4947299659252166748046875</LatitudeDegrees>
              <LongitudeDegrees>-5.405634529888629913330078125</LongitudeDegrees>
            </Position>
            <AltitudeMeters>67</AltitudeMeters>
            <DistanceMeters>8806.2111402474</DistanceMeters>
          </Trackpoint>
          <Trackpoint>
            <Time>2019-01-04T11:23:03.000Z</Time>
            <Position>
              <LatitudeDegrees>36.4947353303432464599609375</LatitudeDegrees>
              <LongitudeDegrees>-5.4056186042726039886474609375</LongitudeDegrees>
            </Position>
            <AltitudeMeters>67</AltitudeMeters>
            <DistanceMeters>8807.7551416014</DistanceMeters>
          </Trackpoint>
          <Trackpoint>
            <Time>2019-01-04T11:23:04.000Z</Time>
            <Position>
              <LatitudeDegrees>36.4947348274290561676025390625</LatitudeDegrees>
              <LongitudeDegrees>-5.40560008026659488677978515625</LongitudeDegrees>
            </Position>
            <AltitudeMeters>67</AltitudeMeters>
            <DistanceMeters>8809.4119889809</DistanceMeters>
          </Trackpoint>
          <Trackpoint>
            <Time>2019-01-04T11:23:05.000Z</Time>
            <Position>
              <LatitudeDegrees>36.49473574943840503692626953125</LatitudeDegrees>
              <LongitudeDegrees>-5.4055827297270298004150390625</LongitudeDegrees>
            </Position>
            <AltitudeMeters>66.8000030517578125</AltitudeMeters>
            <DistanceMeters>8810.9676433406</DistanceMeters>
          </Trackpoint>
          <Trackpoint>
            <Time>2019-01-04T11:23:06.000Z</Time>
            <Position>
              <LatitudeDegrees>36.4947361685335636138916015625</LatitudeDegrees>
              <LongitudeDegrees>-5.4055612720549106597900390625</LongitudeDegrees>
            </Position>
            <AltitudeMeters>66.8000030517578125</AltitudeMeters>
            <DistanceMeters>8812.8870888827</DistanceMeters>
          </Trackpoint>
          <Trackpoint>
            <Time>2019-01-04T11:23:07.000Z</Time>
            <Position>
              <LatitudeDegrees>36.49473172612488269805908203125</LatitudeDegrees>
              <LongitudeDegrees>-5.40554073639214038848876953125</LongitudeDegrees>
            </Position>
            <AltitudeMeters>66.59999847412109375</AltitudeMeters>
            <DistanceMeters>8814.789997355</DistanceMeters>
          </Trackpoint>
          <Trackpoint>
            <Time>2019-01-04T11:23:08.000Z</Time>
            <Position>
              <LatitudeDegrees>36.4947433769702911376953125</LatitudeDegrees>
              <LongitudeDegrees>-5.4055253975093364715576171875</LongitudeDegrees>
            </Position>
            <AltitudeMeters>66.40000152587890625</AltitudeMeters>
            <DistanceMeters>8816.6810050948</DistanceMeters>
          </Trackpoint>
          <Trackpoint>
            <Time>2019-01-04T11:23:09.000Z</Time>
            <Position>
              <LatitudeDegrees>36.49474580772221088409423828125</LatitudeDegrees>
              <LongitudeDegrees>-5.4055126570165157318115234375</LongitudeDegrees>
            </Position>
            <AltitudeMeters>66.1999969482421875</AltitudeMeters>
            <DistanceMeters>8817.8525731122</DistanceMeters>
          </Trackpoint>
          <Trackpoint>
            <Time>2019-01-04T11:23:10.000Z</Time>
            <Position>
              <LatitudeDegrees>36.49475620128214359283447265625</LatitudeDegrees>
              <LongitudeDegrees>-5.40549916215240955352783203125</LongitudeDegrees>
            </Position>
            <AltitudeMeters>66.1999969482421875</AltitudeMeters>
            <DistanceMeters>8819.5256910691</DistanceMeters>
          </Trackpoint>
          <Trackpoint>
            <Time>2019-01-04T11:23:11.000Z</Time>
            <Position>
              <LatitudeDegrees>36.49476592428982257843017578125</LatitudeDegrees>
              <LongitudeDegrees>-5.40548876859247684478759765625</LongitudeDegrees>
            </Position>
            <AltitudeMeters>66</AltitudeMeters>
            <DistanceMeters>8820.9542558301</DistanceMeters>
          </Trackpoint>
          <Trackpoint>
            <Time>2019-01-04T11:23:12.000Z</Time>
            <Position>
              <LatitudeDegrees>36.4947690255939960479736328125</LatitudeDegrees>
              <LongitudeDegrees>-5.40547284297645092010498046875</LongitudeDegrees>
            </Position>
            <AltitudeMeters>66</AltitudeMeters>
            <DistanceMeters>8822.4233331834</DistanceMeters>
          </Trackpoint>
          <Trackpoint>
            <Time>2019-01-04T11:23:13.000Z</Time>
            <Position>
              <LatitudeDegrees>36.49476592428982257843017578125</LatitudeDegrees>
              <LongitudeDegrees>-5.40545373223721981048583984375</LongitudeDegrees>
            </Position>
            <AltitudeMeters>66.1999969482421875</AltitudeMeters>
            <DistanceMeters>8824.1703780707</DistanceMeters>
          </Trackpoint>
          <Trackpoint>
            <Time>2019-01-04T11:23:14.000Z</Time>
            <Position>
              <LatitudeDegrees>36.49477112106978893280029296875</LatitudeDegrees>
              <LongitudeDegrees>-5.40544350631535053253173828125</LongitudeDegrees>
            </Position>
            <AltitudeMeters>66.40000152587890625</AltitudeMeters>
            <DistanceMeters>8825.2538493152</DistanceMeters>
          </Trackpoint>
          <Trackpoint>
            <Time>2019-01-04T11:23:15.000Z</Time>
            <Position>
              <LatitudeDegrees>36.49476944468915462493896484375</LatitudeDegrees>
              <LongitudeDegrees>-5.40542833507061004638671875</LongitudeDegrees>
            </Position>
            <AltitudeMeters>66.59999847412109375</AltitudeMeters>
            <DistanceMeters>8826.62434408</DistanceMeters>
          </Trackpoint>
          <Trackpoint>
            <Time>2019-01-04T11:23:16.000Z</Time>
            <Position>
              <LatitudeDegrees>36.4947733841836452484130859375</LatitudeDegrees>
              <LongitudeDegrees>-5.40541626513004302978515625</LongitudeDegrees>
            </Position>
            <AltitudeMeters>66.59999847412109375</AltitudeMeters>
            <DistanceMeters>8827.7881788907</DistanceMeters>
          </Trackpoint>
          <Trackpoint>
            <Time>2019-01-04T11:23:17.000Z</Time>
            <Position>
              <LatitudeDegrees>36.49477832950651645660400390625</LatitudeDegrees>
              <LongitudeDegrees>-5.4054053686559200286865234375</LongitudeDegrees>
            </Position>
            <AltitudeMeters>66.59999847412109375</AltitudeMeters>
            <DistanceMeters>8828.9044900253</DistanceMeters>
          </Trackpoint>
          <Trackpoint>
            <Time>2019-01-04T11:23:18.000Z</Time>
            <Position>
              <LatitudeDegrees>36.4947827719151973724365234375</LatitudeDegrees>
              <LongitudeDegrees>-5.405395813286304473876953125</LongitudeDegrees>
            </Position>
            <AltitudeMeters>66.59999847412109375</AltitudeMeters>
            <DistanceMeters>8829.8920366095</DistanceMeters>
          </Trackpoint>
          <Trackpoint>
            <Time>2019-01-04T11:23:19.000Z</Time>
            <Position>
              <LatitudeDegrees>36.49478687904775142669677734375</LatitudeDegrees>
              <LongitudeDegrees>-5.40538315661251544952392578125</LongitudeDegrees>
            </Position>
            <AltitudeMeters>66.59999847412109375</AltitudeMeters>
            <DistanceMeters>8831.1126768568</DistanceMeters>
          </Trackpoint>
          <Trackpoint>
            <Time>2019-01-04T11:23:20.000Z</Time>
            <Position>
              <LatitudeDegrees>36.494789980351924896240234375</LatitudeDegrees>
              <LongitudeDegrees>-5.40536924265325069427490234375</LongitudeDegrees>
            </Position>
            <AltitudeMeters>66.59999847412109375</AltitudeMeters>
            <DistanceMeters>8832.4016819249</DistanceMeters>
          </Trackpoint>
          <Trackpoint>
            <Time>2019-01-04T11:23:21.000Z</Time>
            <Position>
              <LatitudeDegrees>36.49479945190250873565673828125</LatitudeDegrees>
              <LongitudeDegrees>-5.40535700507462024688720703125</LongitudeDegrees>
            </Position>
            <AltitudeMeters>66.59999847412109375</AltitudeMeters>
            <DistanceMeters>8833.9191368644</DistanceMeters>
          </Trackpoint>
          <Trackpoint>
            <Time>2019-01-04T11:23:22.000Z</Time>
            <Position>
              <LatitudeDegrees>36.49480481632053852081298828125</LatitudeDegrees>
              <LongitudeDegrees>-5.40534359402954578399658203125</LongitudeDegrees>
            </Position>
            <AltitudeMeters>66.59999847412109375</AltitudeMeters>
            <DistanceMeters>8835.2630175469</DistanceMeters>
          </Trackpoint>
          <Trackpoint>
            <Time>2019-01-04T11:23:23.000Z</Time>
            <Position>
              <LatitudeDegrees>36.4948052354156970977783203125</LatitudeDegrees>
              <LongitudeDegrees>-5.405329763889312744140625</LongitudeDegrees>
            </Position>
            <AltitudeMeters>66.59999847412109375</AltitudeMeters>
            <DistanceMeters>8836.5020143166</DistanceMeters>
          </Trackpoint>
          <Trackpoint>
            <Time>2019-01-04T11:23:24.000Z</Time>
            <Position>
              <LatitudeDegrees>36.4948132820427417755126953125</LatitudeDegrees>
              <LongitudeDegrees>-5.40531995706260204315185546875</LongitudeDegrees>
            </Position>
            <AltitudeMeters>66.59999847412109375</AltitudeMeters>
            <DistanceMeters>8837.7518956009</DistanceMeters>
          </Trackpoint>
          <Trackpoint>
            <Time>2019-01-04T11:23:25.000Z</Time>
            <Position>
              <LatitudeDegrees>36.4948209933936595916748046875</LatitudeDegrees>
              <LongitudeDegrees>-5.40531140752136707305908203125</LongitudeDegrees>
            </Position>
            <AltitudeMeters>66.8000030517578125</AltitudeMeters>
            <DistanceMeters>8838.9001077594</DistanceMeters>
          </Trackpoint>
          <Trackpoint>
            <Time>2019-01-04T11:23:26.000Z</Time>
            <Position>
              <LatitudeDegrees>36.494823507964611053466796875</LatitudeDegrees>
              <LongitudeDegrees>-5.4052990861237049102783203125</LongitudeDegrees>
            </Position>
            <AltitudeMeters>67</AltitudeMeters>
            <DistanceMeters>8840.0324817502</DistanceMeters>
          </Trackpoint>
          <Trackpoint>
            <Time>2019-01-04T11:23:27.000Z</Time>
            <Position>
              <LatitudeDegrees>36.4948318898677825927734375</LatitudeDegrees>
              <LongitudeDegrees>-5.40528617799282073974609375</LongitudeDegrees>
            </Position>
            <AltitudeMeters>67.1999969482421875</AltitudeMeters>
            <DistanceMeters>8841.5168464804</DistanceMeters>
          </Trackpoint>
          <Trackpoint>
            <Time>2019-01-04T11:23:28.000Z</Time>
            <Position>
              <LatitudeDegrees>36.49483750574290752410888671875</LatitudeDegrees>
              <LongitudeDegrees>-5.4052747786045074462890625</LongitudeDegrees>
            </Position>
            <AltitudeMeters>67.1999969482421875</AltitudeMeters>
            <DistanceMeters>8842.7188499043</DistanceMeters>
          </Trackpoint>
          <Trackpoint>
            <Time>2019-01-04T11:23:29.000Z</Time>
            <Position>
              <LatitudeDegrees>36.494843624532222747802734375</LatitudeDegrees>
              <LongitudeDegrees>-5.4052625410258769989013671875</LongitudeDegrees>
            </Position>
            <AltitudeMeters>67.40000152587890625</AltitudeMeters>
            <DistanceMeters>8844.0043474691</DistanceMeters>
          </Trackpoint>
          <Trackpoint>
            <Time>2019-01-04T11:23:30.000Z</Time>
            <Position>
              <LatitudeDegrees>36.49484722875058650970458984375</LatitudeDegrees>
              <LongitudeDegrees>-5.40524820797145366668701171875</LongitudeDegrees>
            </Position>
            <AltitudeMeters>67.59999847412109375</AltitudeMeters>
            <DistanceMeters>8845.3482281516</DistanceMeters>
          </Trackpoint>
          <Trackpoint>
            <Time>2019-01-04T11:23:31.000Z</Time>
            <Position>
              <LatitudeDegrees>36.49484991095960140228271484375</LatitudeDegrees>
              <LongitudeDegrees>-5.40523144416511058807373046875</LongitudeDegrees>
            </Position>
            <AltitudeMeters>67.59999847412109375</AltitudeMeters>
            <DistanceMeters>8846.877538388</DistanceMeters>
          </Trackpoint>
          <Trackpoint>
            <Time>2019-01-04T11:23:32.000Z</Time>
            <Position>
              <LatitudeDegrees>36.49485091678798198699951171875</LatitudeDegrees>
              <LongitudeDegrees>-5.4052099026739597320556640625</LongitudeDegrees>
            </Position>
            <AltitudeMeters>67.59999847412109375</AltitudeMeters>
            <DistanceMeters>8848.8110459902</DistanceMeters>
          </Trackpoint>
          <Trackpoint>
            <Time>2019-01-04T11:23:33.000Z</Time>
            <Position>
              <LatitudeDegrees>36.4948484860360622406005859375</LatitudeDegrees>
              <LongitudeDegrees>-5.4051874391734600067138671875</LongitudeDegrees>
            </Position>
            <AltitudeMeters>67.8000030517578125</AltitudeMeters>
            <DistanceMeters>8850.8380350829</DistanceMeters>
          </Trackpoint>
          <Trackpoint>
            <Time>2019-01-04T11:23:34.000Z</Time>
            <Position>
              <LatitudeDegrees>36.49484328925609588623046875</LatitudeDegrees>
              <LongitudeDegrees>-5.40516656823456287384033203125</LongitudeDegrees>
            </Position>
            <AltitudeMeters>67.8000030517578125</AltitudeMeters>
            <DistanceMeters>8852.790134532</DistanceMeters>
          </Trackpoint>
          <Trackpoint>
            <Time>2019-01-04T11:23:35.000Z</Time>
            <Position>
              <LatitudeDegrees>36.4948387630283832550048828125</LatitudeDegrees>
              <LongitudeDegrees>-5.4051465354859828948974609375</LongitudeDegrees>
            </Position>
            <AltitudeMeters>68</AltitudeMeters>
            <DistanceMeters>8854.6522702291</DistanceMeters>
          </Trackpoint>
          <Trackpoint>
            <Time>2019-01-04T11:23:36.000Z</Time>
            <Position>
              <LatitudeDegrees>36.49483582936227321624755859375</LatitudeDegrees>
              <LongitudeDegrees>-5.40513086132705211639404296875</LongitudeDegrees>
            </Position>
            <AltitudeMeters>68.40000152587890625</AltitudeMeters>
            <DistanceMeters>8856.093421707</DistanceMeters>
          </Trackpoint>
          <Trackpoint>
            <Time>2019-01-04T11:23:37.000Z</Time>
            <Position>
              <LatitudeDegrees>36.49483717046678066253662109375</LatitudeDegrees>
              <LongitudeDegrees>-5.4051192104816436767578125</LongitudeDegrees>
            </Position>
            <AltitudeMeters>68.40000152587890625</AltitudeMeters>
            <DistanceMeters>8857.1430260735</DistanceMeters>
          </Trackpoint>
          <Trackpoint>
            <Time>2019-01-04T11:23:38.000Z</Time>
            <Position>
              <LatitudeDegrees>36.494837589561939239501953125</LatitudeDegrees>
              <LongitudeDegrees>-5.4051056317985057830810546875</LongitudeDegrees>
            </Position>
            <AltitudeMeters>68.40000152587890625</AltitudeMeters>
            <DistanceMeters>8858.3599617895</DistanceMeters>
          </Trackpoint>
          <Trackpoint>
            <Time>2019-01-04T11:23:39.000Z</Time>
            <Position>
              <LatitudeDegrees>36.4948427863419055938720703125</LatitudeDegrees>
              <LongitudeDegrees>-5.405092723667621612548828125</LongitudeDegrees>
            </Position>
            <AltitudeMeters>68.40000152587890625</AltitudeMeters>
            <DistanceMeters>8859.6559533861</DistanceMeters>
          </Trackpoint>
          <Trackpoint>
            <Time>2019-01-04T11:23:40.000Z</Time>
            <Position>
              <LatitudeDegrees>36.4948464743793010711669921875</LatitudeDegrees>
              <LongitudeDegrees>-5.4050784744322299957275390625</LongitudeDegrees>
            </Position>
            <AltitudeMeters>68.59999847412109375</AltitudeMeters>
            <DistanceMeters>8860.9964701567</DistanceMeters>
          </Trackpoint>
          <Trackpoint>
            <Time>2019-01-04T11:23:41.000Z</Time>
            <Position>
              <LatitudeDegrees>36.494844295084476470947265625</LatitudeDegrees>
              <LongitudeDegrees>-5.4050650633871555328369140625</LongitudeDegrees>
            </Position>
            <AltitudeMeters>68.59999847412109375</AltitudeMeters>
            <DistanceMeters>8862.2281571472</DistanceMeters>
          </Trackpoint>
          <Trackpoint>
            <Time>2019-01-04T11:23:42.000Z</Time>
            <Position>
              <LatitudeDegrees>36.4948417805135250091552734375</LatitudeDegrees>
              <LongitudeDegrees>-5.40505156852304935455322265625</LongitudeDegrees>
            </Position>
            <AltitudeMeters>68.59999847412109375</AltitudeMeters>
            <DistanceMeters>8863.467153917</DistanceMeters>
          </Trackpoint>
          <Trackpoint>
            <Time>2019-01-04T11:23:43.000Z</Time>
            <Position>
              <LatitudeDegrees>36.4948458038270473480224609375</LatitudeDegrees>
              <LongitudeDegrees>-5.40503530763089656829833984375</LongitudeDegrees>
            </Position>
            <AltitudeMeters>68.40000152587890625</AltitudeMeters>
            <DistanceMeters>8864.9905480374</DistanceMeters>
          </Trackpoint>
          <Trackpoint>
            <Time>2019-01-04T11:23:44.000Z</Time>
            <Position>
              <LatitudeDegrees>36.49484739638864994049072265625</LatitudeDegrees>
              <LongitudeDegrees>-5.40502273477613925933837890625</LongitudeDegrees>
            </Position>
            <AltitudeMeters>68.40000152587890625</AltitudeMeters>
            <DistanceMeters>8866.1308686098</DistanceMeters>
          </Trackpoint>
          <Trackpoint>
            <Time>2019-01-04T11:23:45.000Z</Time>
            <Position>
              <LatitudeDegrees>36.494844295084476470947265625</LatitudeDegrees>
              <LongitudeDegrees>-5.4050077311694622039794921875</LongitudeDegrees>
            </Position>
            <AltitudeMeters>68.1999969482421875</AltitudeMeters>
            <DistanceMeters>8867.520989597</DistanceMeters>
          </Trackpoint>
          <Trackpoint>
            <Time>2019-01-04T11:23:46.000Z</Time>
            <Position>
              <LatitudeDegrees>36.49484119378030300140380859375</LatitudeDegrees>
              <LongitudeDegrees>-5.40499247610569000244140625</LongitudeDegrees>
            </Position>
            <AltitudeMeters>68</AltitudeMeters>
            <DistanceMeters>8868.9272565494</DistanceMeters>
          </Trackpoint>
          <Trackpoint>
            <Time>2019-01-04T11:23:47.000Z</Time>
            <Position>
              <LatitudeDegrees>36.49484337307512760162353515625</LatitudeDegrees>
              <LongitudeDegrees>-5.40497814305126667022705078125</LongitudeDegrees>
            </Position>
            <AltitudeMeters>68</AltitudeMeters>
            <DistanceMeters>8870.2301972124</DistanceMeters>
          </Trackpoint>
          <Trackpoint>
            <Time>2019-01-04T11:23:48.000Z</Time>
            <Position>
              <LatitudeDegrees>36.49484169669449329376220703125</LatitudeDegrees>
              <LongitudeDegrees>-5.4049634747207164764404296875</LongitudeDegrees>
            </Position>
            <AltitudeMeters>67.8000030517578125</AltitudeMeters>
            <DistanceMeters>8871.5605712136</DistanceMeters>
          </Trackpoint>
          <Trackpoint>
            <Time>2019-01-04T11:23:49.000Z</Time>
            <Position>
              <LatitudeDegrees>36.4948404394090175628662109375</LatitudeDegrees>
              <LongitudeDegrees>-5.404948890209197998046875</LongitudeDegrees>
            </Position>
            <AltitudeMeters>67.59999847412109375</AltitudeMeters>
            <DistanceMeters>8872.8738665349</DistanceMeters>
          </Trackpoint>
          <Trackpoint>
            <Time>2019-01-04T11:23:50.000Z</Time>
            <Position>
              <LatitudeDegrees>36.49484136141836643218994140625</LatitudeDegrees>
              <LongitudeDegrees>-5.40493623353540897369384765625</LongitudeDegrees>
            </Position>
            <AltitudeMeters>67.59999847412109375</AltitudeMeters>
            <DistanceMeters>8874.0102207628</DistanceMeters>
          </Trackpoint>
          <Trackpoint>
            <Time>2019-01-04T11:23:51.000Z</Time>
            <Position>
              <LatitudeDegrees>36.4948417805135250091552734375</LatitudeDegrees>
              <LongitudeDegrees>-5.40492366068065166473388671875</LongitudeDegrees>
            </Position>
            <AltitudeMeters>67.40000152587890625</AltitudeMeters>
            <DistanceMeters>8875.1345920103</DistanceMeters>
          </Trackpoint>
          <Trackpoint>
            <Time>2019-01-04T11:23:52.000Z</Time>
            <Position>
              <LatitudeDegrees>36.494842283427715301513671875</LatitudeDegrees>
              <LongitudeDegrees>-5.40491159074008464813232421875</LongitudeDegrees>
            </Position>
            <AltitudeMeters>67.40000152587890625</AltitudeMeters>
            <DistanceMeters>8876.2180632548</DistanceMeters>
          </Trackpoint>
          <Trackpoint>
            <Time>2019-01-04T11:23:53.000Z</Time>
            <Position>
              <LatitudeDegrees>36.49484287016093730926513671875</LatitudeDegrees>
              <LongitudeDegrees>-5.40489935316145420074462890625</LongitudeDegrees>
            </Position>
            <AltitudeMeters>67.40000152587890625</AltitudeMeters>
            <DistanceMeters>8877.3180770018</DistanceMeters>
          </Trackpoint>
          <Trackpoint>
            <Time>2019-01-04T11:23:54.000Z</Time>
            <Position>
              <LatitudeDegrees>36.49484320543706417083740234375</LatitudeDegrees>
              <LongitudeDegrees>-5.40488812141120433807373046875</LongitudeDegrees>
            </Position>
            <AltitudeMeters>67.40000152587890625</AltitudeMeters>
            <DistanceMeters>8878.3237452183</DistanceMeters>
          </Trackpoint>
          <Trackpoint>
            <Time>2019-01-04T11:23:55.000Z</Time>
            <Position>
              <LatitudeDegrees>36.49484203197062015533447265625</LatitudeDegrees>
              <LongitudeDegrees>-5.40487487800419330596923828125</LongitudeDegrees>
            </Position>
            <AltitudeMeters>67.40000152587890625</AltitudeMeters>
            <DistanceMeters>8879.5182124963</DistanceMeters>
          </Trackpoint>
          <Trackpoint>
            <Time>2019-01-04T11:23:56.000Z</Time>
            <Position>
              <LatitudeDegrees>36.4948464743793010711669921875</LatitudeDegrees>
              <LongitudeDegrees>-5.404860042035579681396484375</LongitudeDegrees>
            </Position>
            <AltitudeMeters>67.40000152587890625</AltitudeMeters>
            <DistanceMeters>8880.9340786519</DistanceMeters>
          </Trackpoint>
          <Trackpoint>
            <Time>2019-01-04T11:23:57.000Z</Time>
            <Position>
              <LatitudeDegrees>36.4948481507599353790283203125</LatitudeDegrees>
              <LongitudeDegrees>-5.4048447869718074798583984375</LongitudeDegrees>
            </Position>
            <AltitudeMeters>67.40000152587890625</AltitudeMeters>
            <DistanceMeters>8882.3144214099</DistanceMeters>
          </Trackpoint>
          <Trackpoint>
            <Time>2019-01-04T11:23:58.000Z</Time>
            <Position>
              <LatitudeDegrees>36.4948504976928234100341796875</LatitudeDegrees>
              <LongitudeDegrees>-5.40483112446963787078857421875</LongitudeDegrees>
            </Position>
            <AltitudeMeters>67.40000152587890625</AltitudeMeters>
            <DistanceMeters>8883.5606850852</DistanceMeters>
          </Trackpoint>
          <Trackpoint>
            <Time>2019-01-04T11:23:59.000Z</Time>
            <Position>
              <LatitudeDegrees>36.49485410191118717193603515625</LatitudeDegrees>
              <LongitudeDegrees>-5.4048172943294048309326171875</LongitudeDegrees>
            </Position>
            <AltitudeMeters>67.59999847412109375</AltitudeMeters>
            <DistanceMeters>8884.8566766819</DistanceMeters>
          </Trackpoint>
          <Trackpoint>
            <Time>2019-01-04T11:24:00.000Z</Time>
            <Position>
              <LatitudeDegrees>36.494859717786312103271484375</LatitudeDegrees>
              <LongitudeDegrees>-5.404799692332744598388671875</LongitudeDegrees>
            </Position>
            <AltitudeMeters>67.8000030517578125</AltitudeMeters>
            <DistanceMeters>8886.5512457448</DistanceMeters>
          </Trackpoint>
          <Trackpoint>
            <Time>2019-01-04T11:24:01.000Z</Time>
            <Position>
              <LatitudeDegrees>36.49486206471920013427734375</LatitudeDegrees>
              <LongitudeDegrees>-5.4047794081270694732666015625</LongitudeDegrees>
            </Position>
            <AltitudeMeters>68</AltitudeMeters>
            <DistanceMeters>8888.3840546375</DistanceMeters>
          </Trackpoint>
          <Trackpoint>
            <Time>2019-01-04T11:24:02.000Z</Time>
            <Position>
              <LatitudeDegrees>36.49486449547111988067626953125</LatitudeDegrees>
              <LongitudeDegrees>-5.404761135578155517578125</LongitudeDegrees>
            </Position>
            <AltitudeMeters>68</AltitudeMeters>
            <DistanceMeters>8890.040902017</DistanceMeters>
          </Trackpoint>
          <Trackpoint>
            <Time>2019-01-04T11:24:03.000Z</Time>
            <Position>
              <LatitudeDegrees>36.4948608912527561187744140625</LatitudeDegrees>
              <LongitudeDegrees>-5.40474663488566875457763671875</LongitudeDegrees>
            </Position>
            <AltitudeMeters>68</AltitudeMeters>
            <DistanceMeters>8891.398154976</DistanceMeters>
          </Trackpoint>
          <Trackpoint>
            <Time>2019-01-04T11:24:04.000Z</Time>
            <Position>
              <LatitudeDegrees>36.4948548562824726104736328125</LatitudeDegrees>
              <LongitudeDegrees>-5.4047329723834991455078125</LongitudeDegrees>
            </Position>
            <AltitudeMeters>67.8000030517578125</AltitudeMeters>
            <DistanceMeters>8892.7947567488</DistanceMeters>
          </Trackpoint>
          <Trackpoint>
            <Time>2019-01-04T11:24:05.000Z</Time>
            <Position>
              <LatitudeDegrees>36.49485175497829914093017578125</LatitudeDegrees>
              <LongitudeDegrees>-5.4047170467674732208251953125</LongitudeDegrees>
            </Position>
            <AltitudeMeters>67.59999847412109375</AltitudeMeters>
            <DistanceMeters>8894.260757497</DistanceMeters>
          </Trackpoint>
          <Trackpoint>
            <Time>2019-01-04T11:24:06.000Z</Time>
            <Position>
              <LatitudeDegrees>36.4948501624166965484619140625</LatitudeDegrees>
              <LongitudeDegrees>-5.404697768390178680419921875</LongitudeDegrees>
            </Position>
            <AltitudeMeters>67.40000152587890625</AltitudeMeters>
            <DistanceMeters>8895.9974340738</DistanceMeters>
          </Trackpoint>
          <Trackpoint>
            <Time>2019-01-04T11:24:07.000Z</Time>
            <Position>
              <LatitudeDegrees>36.49484840221703052520751953125</LatitudeDegrees>
              <LongitudeDegrees>-5.40468209423124790191650390625</LongitudeDegrees>
            </Position>
            <AltitudeMeters>67.1999969482421875</AltitudeMeters>
            <DistanceMeters>8897.4133002294</DistanceMeters>
          </Trackpoint>
          <Trackpoint>
            <Time>2019-01-04T11:24:08.000Z</Time>
            <Position>
              <LatitudeDegrees>36.4948474802076816558837890625</LatitudeDegrees>
              <LongitudeDegrees>-5.40466583333909511566162109375</LongitudeDegrees>
            </Position>
            <AltitudeMeters>67</AltitudeMeters>
            <DistanceMeters>8898.8762179021</DistanceMeters>
          </Trackpoint>
          <Trackpoint>
            <Time>2019-01-04T11:24:09.000Z</Time>
            <Position>
              <LatitudeDegrees>36.4948451332747936248779296875</LatitudeDegrees>
              <LongitudeDegrees>-5.404649488627910614013671875</LongitudeDegrees>
            </Position>
            <AltitudeMeters>67</AltitudeMeters>
            <DistanceMeters>8900.3666536791</DistanceMeters>
          </Trackpoint>
          <Trackpoint>
            <Time>2019-01-04T11:24:10.000Z</Time>
            <Position>
              <LatitudeDegrees>36.494846642017364501953125</LatitudeDegrees>
              <LongitudeDegrees>-5.40463297627866268157958984375</LongitudeDegrees>
            </Position>
            <AltitudeMeters>67</AltitudeMeters>
            <DistanceMeters>8901.8540570301</DistanceMeters>
          </Trackpoint>
          <Trackpoint>
            <Time>2019-01-04T11:24:11.000Z</Time>
            <Position>
              <LatitudeDegrees>36.49484731256961822509765625</LatitudeDegrees>
              <LongitudeDegrees>-5.40462140925228595733642578125</LongitudeDegrees>
            </Position>
            <AltitudeMeters>66.8000030517578125</AltitudeMeters>
            <DistanceMeters>8902.8906761004</DistanceMeters>
          </Trackpoint>
          <Trackpoint>
            <Time>2019-01-04T11:24:12.000Z</Time>
            <Position>
              <LatitudeDegrees>36.4948447979986667633056640625</LatitudeDegrees>
              <LongitudeDegrees>-5.4046070761978626251220703125</LongitudeDegrees>
            </Position>
            <AltitudeMeters>66.8000030517578125</AltitudeMeters>
            <DistanceMeters>8904.200528964</DistanceMeters>
          </Trackpoint>
          <Trackpoint>
            <Time>2019-01-04T11:24:13.000Z</Time>
            <Position>
              <LatitudeDegrees>36.49483817629516124725341796875</LatitudeDegrees>
              <LongitudeDegrees>-5.4045879654586315155029296875</LongitudeDegrees>
            </Position>
            <AltitudeMeters>66.8000030517578125</AltitudeMeters>
            <DistanceMeters>8906.0626646611</DistanceMeters>
          </Trackpoint>
          <Trackpoint>
            <Time>2019-01-04T11:24:14.000Z</Time>
            <Position>
              <LatitudeDegrees>36.494834907352924346923828125</LatitudeDegrees>
              <LongitudeDegrees>-5.4045693576335906982421875</LongitudeDegrees>
            </Position>
            <AltitudeMeters>66.8000030517578125</AltitudeMeters>
            <DistanceMeters>8907.7678580856</DistanceMeters>
          </Trackpoint>
          <Trackpoint>
            <Time>2019-01-04T11:24:15.000Z</Time>
            <Position>
              <LatitudeDegrees>36.49482895620167255401611328125</LatitudeDegrees>
              <LongitudeDegrees>-5.40455251000821590423583984375</LongitudeDegrees>
            </Position>
            <AltitudeMeters>66.59999847412109375</AltitudeMeters>
            <DistanceMeters>8909.4110235845</DistanceMeters>
          </Trackpoint>
          <Trackpoint>
            <Time>2019-01-04T11:24:16.000Z</Time>
            <Position>
              <LatitudeDegrees>36.49482476525008678436279296875</LatitudeDegrees>
              <LongitudeDegrees>-5.40453691966831684112548828125</LongitudeDegrees>
            </Position>
            <AltitudeMeters>66.59999847412109375</AltitudeMeters>
            <DistanceMeters>8910.8770243327</DistanceMeters>
          </Trackpoint>
          <Trackpoint>
            <Time>2019-01-04T11:24:17.000Z</Time>
            <Position>
              <LatitudeDegrees>36.4948206581175327301025390625</LatitudeDegrees>
              <LongitudeDegrees>-5.40452451445162296295166015625</LongitudeDegrees>
            </Position>
            <AltitudeMeters>66.59999847412109375</AltitudeMeters>
            <DistanceMeters>8912.0790277566</DistanceMeters>
          </Trackpoint>
          <Trackpoint>
            <Time>2019-01-04T11:24:18.000Z</Time>
            <Position>
              <LatitudeDegrees>36.49481655098497867584228515625</LatitudeDegrees>
              <LongitudeDegrees>-5.40451277978718280792236328125</LongitudeDegrees>
            </Position>
            <AltitudeMeters>66.40000152587890625</AltitudeMeters>
            <DistanceMeters>8913.227239915</DistanceMeters>
          </Trackpoint>
          <Trackpoint>
            <Time>2019-01-04T11:24:19.000Z</Time>
            <Position>
              <LatitudeDegrees>36.49481152184307575225830078125</LatitudeDegrees>
              <LongitudeDegrees>-5.4045014642179012298583984375</LongitudeDegrees>
            </Position>
            <AltitudeMeters>66.40000152587890625</AltitudeMeters>
            <DistanceMeters>8914.387188789</DistanceMeters>
          </Trackpoint>
          <Trackpoint>
            <Time>2019-01-04T11:24:20.000Z</Time>
            <Position>
              <LatitudeDegrees>36.49480649270117282867431640625</LatitudeDegrees>
              <LongitudeDegrees>-5.404491908848285675048828125</LongitudeDegrees>
            </Position>
            <AltitudeMeters>66.1999969482421875</AltitudeMeters>
            <DistanceMeters>8915.4106578249</DistanceMeters>
          </Trackpoint>
          <Trackpoint>
            <Time>2019-01-04T11:24:21.000Z</Time>
            <Position>
              <LatitudeDegrees>36.494803391396999359130859375</LatitudeDegrees>
              <LongitudeDegrees>-5.40448260493576526641845703125</LongitudeDegrees>
            </Position>
            <AltitudeMeters>66.1999969482421875</AltitudeMeters>
            <DistanceMeters>8916.3121603928</DistanceMeters>
          </Trackpoint>
          <Trackpoint>
            <Time>2019-01-04T11:24:22.000Z</Time>
            <Position>
              <LatitudeDegrees>36.49480012245476245880126953125</LatitudeDegrees>
              <LongitudeDegrees>-5.40447087027132511138916015625</LongitudeDegrees>
            </Position>
            <AltitudeMeters>66</AltitudeMeters>
            <DistanceMeters>8917.4203527932</DistanceMeters>
          </Trackpoint>
          <Trackpoint>
            <Time>2019-01-04T11:24:23.000Z</Time>
            <Position>
              <LatitudeDegrees>36.49479308165609836578369140625</LatitudeDegrees>
              <LongitudeDegrees>-5.40445779450237751007080078125</LongitudeDegrees>
            </Position>
            <AltitudeMeters>65.8000030517578125</AltitudeMeters>
            <DistanceMeters>8918.8298267439</DistanceMeters>
          </Trackpoint>
          <Trackpoint>
            <Time>2019-01-04T11:24:24.000Z</Time>
            <Position>
              <LatitudeDegrees>36.4947888068854808807373046875</LatitudeDegrees>
              <LongitudeDegrees>-5.40444371290504932403564453125</LongitudeDegrees>
            </Position>
            <AltitudeMeters>65.59999847412109375</AltitudeMeters>
            <DistanceMeters>8920.177062939</DistanceMeters>
          </Trackpoint>
          <Trackpoint>
            <Time>2019-01-04T11:24:25.000Z</Time>
            <Position>
              <LatitudeDegrees>36.494781263172626495361328125</LatitudeDegrees>
              <LongitudeDegrees>-5.40442921221256256103515625</LongitudeDegrees>
            </Position>
            <AltitudeMeters>65.40000152587890625</AltitudeMeters>
            <DistanceMeters>8921.721064293</DistanceMeters>
          </Trackpoint>
          <Trackpoint>
            <Time>2019-01-04T11:24:26.000Z</Time>
            <Position>
              <LatitudeDegrees>36.4947747252881526947021484375</LatitudeDegrees>
              <LongitudeDegrees>-5.40441487915813922882080078125</LongitudeDegrees>
            </Position>
            <AltitudeMeters>65.1999969482421875</AltitudeMeters>
            <DistanceMeters>8923.1932118218</DistanceMeters>
          </Trackpoint>
          <Trackpoint>
            <Time>2019-01-04T11:24:27.000Z</Time>
            <Position>
              <LatitudeDegrees>36.4947675168514251708984375</LatitudeDegrees>
              <LongitudeDegrees>-5.4044025577604770660400390625</LongitudeDegrees>
            </Position>
            <AltitudeMeters>65.1999969482421875</AltitudeMeters>
            <DistanceMeters>8924.5504647807</DistanceMeters>
          </Trackpoint>
          <Trackpoint>
            <Time>2019-01-04T11:24:28.000Z</Time>
            <Position>
              <LatitudeDegrees>36.49475871585309505462646484375</LatitudeDegrees>
              <LongitudeDegrees>-5.4043898172676563262939453125</LongitudeDegrees>
            </Position>
            <AltitudeMeters>65.1999969482421875</AltitudeMeters>
            <DistanceMeters>8926.0529690606</DistanceMeters>
          </Trackpoint>
          <Trackpoint>
            <Time>2019-01-04T11:24:29.000Z</Time>
            <Position>
              <LatitudeDegrees>36.4947512559592723846435546875</LatitudeDegrees>
              <LongitudeDegrees>-5.40437615476548671722412109375</LongitudeDegrees>
            </Position>
            <AltitudeMeters>65.1999969482421875</AltitudeMeters>
            <DistanceMeters>8927.5281803753</DistanceMeters>
          </Trackpoint>
          <Trackpoint>
            <Time>2019-01-04T11:24:30.000Z</Time>
            <Position>
              <LatitudeDegrees>36.49474547244608402252197265625</LatitudeDegrees>
              <LongitudeDegrees>-5.404363162815570831298828125</LongitudeDegrees>
            </Position>
            <AltitudeMeters>65.1999969482421875</AltitudeMeters>
            <DistanceMeters>8928.8585543765</DistanceMeters>
          </Trackpoint>
          <Trackpoint>
            <Time>2019-01-04T11:24:31.000Z</Time>
            <Position>
              <LatitudeDegrees>36.49474178440868854522705078125</LatitudeDegrees>
              <LongitudeDegrees>-5.4043472371995449066162109375</LongitudeDegrees>
            </Position>
            <AltitudeMeters>65.1999969482421875</AltitudeMeters>
            <DistanceMeters>8930.3429191067</DistanceMeters>
          </Trackpoint>
          <Trackpoint>
            <Time>2019-01-04T11:24:32.000Z</Time>
            <Position>
              <LatitudeDegrees>36.49473440833389759063720703125</LatitudeDegrees>
              <LongitudeDegrees>-5.4043328203260898590087890625</LongitudeDegrees>
            </Position>
            <AltitudeMeters>65.40000152587890625</AltitudeMeters>
            <DistanceMeters>8931.8751788351</DistanceMeters>
          </Trackpoint>
          <Trackpoint>
            <Time>2019-01-04T11:24:33.000Z</Time>
            <Position>
              <LatitudeDegrees>36.4947246015071868896484375</LatitudeDegrees>
              <LongitudeDegrees>-5.404321253299713134765625</LongitudeDegrees>
            </Position>
            <AltitudeMeters>65.40000152587890625</AltitudeMeters>
            <DistanceMeters>8933.3836811599</DistanceMeters>
          </Trackpoint>
          <Trackpoint>
            <Time>2019-01-04T11:24:34.000Z</Time>
            <Position>
              <LatitudeDegrees>36.49471445940434932708740234375</LatitudeDegrees>
              <LongitudeDegrees>-5.40430692024528980255126953125</LongitudeDegrees>
            </Position>
            <AltitudeMeters>65.1999969482421875</AltitudeMeters>
            <DistanceMeters>8935.0941620186</DistanceMeters>
          </Trackpoint>
          <Trackpoint>
            <Time>2019-01-04T11:24:35.000Z</Time>
            <Position>
              <LatitudeDegrees>36.494702808558940887451171875</LatitudeDegrees>
              <LongitudeDegrees>-5.40429200045764446258544921875</LongitudeDegrees>
            </Position>
            <AltitudeMeters>65.1999969482421875</AltitudeMeters>
            <DistanceMeters>8936.9562977157</DistanceMeters>
          </Trackpoint>
          <Trackpoint>
            <Time>2019-01-04T11:24:36.000Z</Time>
            <Position>
              <LatitudeDegrees>36.49468914605677127838134765625</LatitudeDegrees>
              <LongitudeDegrees>-5.40427758358418941497802734375</LongitudeDegrees>
            </Position>
            <AltitudeMeters>65</AltitudeMeters>
            <DistanceMeters>8938.9495948926</DistanceMeters>
          </Trackpoint>
          <Trackpoint>
            <Time>2019-01-04T11:24:37.000Z</Time>
            <Position>
              <LatitudeDegrees>36.49467791430652141571044921875</LatitudeDegrees>
              <LongitudeDegrees>-5.40426299907267093658447265625</LongitudeDegrees>
            </Position>
            <AltitudeMeters>65</AltitudeMeters>
            <DistanceMeters>8940.7600969636</DistanceMeters>
          </Trackpoint>
          <Trackpoint>
            <Time>2019-01-04T11:24:38.000Z</Time>
            <Position>
              <LatitudeDegrees>36.494665928184986114501953125</LatitudeDegrees>
              <LongitudeDegrees>-5.40425076149404048919677734375</LongitudeDegrees>
            </Position>
            <AltitudeMeters>64.8000030517578125</AltitudeMeters>
            <DistanceMeters>8942.4837254474</DistanceMeters>
          </Trackpoint>
          <Trackpoint>
            <Time>2019-01-04T11:24:39.000Z</Time>
            <Position>
              <LatitudeDegrees>36.4946543611586093902587890625</LatitudeDegrees>
              <LongitudeDegrees>-5.40424145758152008056640625</LongitudeDegrees>
            </Position>
            <AltitudeMeters>64.8000030517578125</AltitudeMeters>
            <DistanceMeters>8944.0159851758</DistanceMeters>
          </Trackpoint>
          <Trackpoint>
            <Time>2019-01-04T11:24:40.000Z</Time>
            <Position>
              <LatitudeDegrees>36.49463986046612262725830078125</LatitudeDegrees>
              <LongitudeDegrees>-5.40423064492642879486083984375</LongitudeDegrees>
            </Position>
            <AltitudeMeters>64.59999847412109375</AltitudeMeters>
            <DistanceMeters>8945.8950168119</DistanceMeters>
          </Trackpoint>
          <Trackpoint>
            <Time>2019-01-04T11:24:41.000Z</Time>
            <Position>
              <LatitudeDegrees>36.49462242610752582550048828125</LatitudeDegrees>
              <LongitudeDegrees>-5.40421865880489349365234375</LongitudeDegrees>
            </Position>
            <AltitudeMeters>64.40000152587890625</AltitudeMeters>
            <DistanceMeters>8948.1114016128</DistanceMeters>
          </Trackpoint>
          <Trackpoint>
            <Time>2019-01-04T11:24:42.000Z</Time>
            <Position>
              <LatitudeDegrees>36.49460591375827789306640625</LatitudeDegrees>
              <LongitudeDegrees>-5.40420684032142162322998046875</LongitudeDegrees>
            </Position>
            <AltitudeMeters>64.1999969482421875</AltitudeMeters>
            <DistanceMeters>8950.2320095608</DistanceMeters>
          </Trackpoint>
          <Trackpoint>
            <Time>2019-01-04T11:24:43.000Z</Time>
            <Position>
              <LatitudeDegrees>36.49458772502839565277099609375</LatitudeDegrees>
              <LongitudeDegrees>-5.40419544093310832977294921875</LongitudeDegrees>
            </Position>
            <AltitudeMeters>63.799999237060546875</AltitudeMeters>
            <DistanceMeters>8952.500741271</DistanceMeters>
          </Trackpoint>
          <Trackpoint>
            <Time>2019-01-04T11:24:44.000Z</Time>
            <Position>
              <LatitudeDegrees>36.49457037448883056640625</LatitudeDegrees>
              <LongitudeDegrees>-5.40418052114546298980712890625</LongitudeDegrees>
            </Position>
            <AltitudeMeters>63.59999847412109375</AltitudeMeters>
            <DistanceMeters>8954.847727984</DistanceMeters>
          </Trackpoint>
          <Trackpoint>
            <Time>2019-01-04T11:24:45.000Z</Time>
            <Position>
              <LatitudeDegrees>36.4945564605295658111572265625</LatitudeDegrees>
              <LongitudeDegrees>-5.40416995994746685028076171875</LongitudeDegrees>
            </Position>
            <AltitudeMeters>63.200000762939453125</AltitudeMeters>
            <DistanceMeters>8956.6607221444</DistanceMeters>
          </Trackpoint>
          <Trackpoint>
            <Time>2019-01-04T11:24:46.000Z</Time>
            <Position>
              <LatitudeDegrees>36.49454732425510883331298828125</LatitudeDegrees>
              <LongitudeDegrees>-5.40416258387267589569091796875</LongitudeDegrees>
            </Position>
            <AltitudeMeters>63</AltitudeMeters>
            <DistanceMeters>8957.8702147586</DistanceMeters>
          </Trackpoint>
          <Trackpoint>
            <Time>2019-01-04T11:24:47.000Z</Time>
            <Position>
              <LatitudeDegrees>36.494539864361286163330078125</LatitudeDegrees>
              <LongitudeDegrees>-5.40415889583528041839599609375</LongitudeDegrees>
            </Position>
            <AltitudeMeters>63</AltitudeMeters>
            <DistanceMeters>8958.761644356</DistanceMeters>
          </Trackpoint>
          <Trackpoint>
            <Time>2019-01-04T11:24:48.000Z</Time>
            <Position>
              <LatitudeDegrees>36.494533158838748931884765625</LatitudeDegrees>
              <LongitudeDegrees>-5.40415587835013866424560546875</LongitudeDegrees>
            </Position>
            <AltitudeMeters>62.799999237060546875</AltitudeMeters>
            <DistanceMeters>8959.5566948897</DistanceMeters>
          </Trackpoint>
          <Trackpoint>
            <Time>2019-01-04T11:24:49.000Z</Time>
            <Position>
              <LatitudeDegrees>36.4945239387452602386474609375</LatitudeDegrees>
              <LongitudeDegrees>-5.40415294468402862548828125</LongitudeDegrees>
            </Position>
            <AltitudeMeters>62.799999237060546875</AltitudeMeters>
            <DistanceMeters>8960.623367113</DistanceMeters>
          </Trackpoint>
          <Trackpoint>
            <Time>2019-01-04T11:24:50.000Z</Time>
            <Position>
              <LatitudeDegrees>36.49451446719467639923095703125</LatitudeDegrees>
              <LongitudeDegrees>-5.40415001101791858673095703125</LongitudeDegrees>
            </Position>
            <AltitudeMeters>62.799999237060546875</AltitudeMeters>
            <DistanceMeters>8961.7151409405</DistanceMeters>
          </Trackpoint>
          <Trackpoint>
            <Time>2019-01-04T11:24:51.000Z</Time>
            <Position>
              <LatitudeDegrees>36.49450608529150485992431640625</LatitudeDegrees>
              <LongitudeDegrees>-5.40415084920823574066162109375</LongitudeDegrees>
            </Position>
            <AltitudeMeters>62.799999237060546875</AltitudeMeters>
            <DistanceMeters>8962.6510455377</DistanceMeters>
          </Trackpoint>
          <Trackpoint>
            <Time>2019-01-04T11:24:52.000Z</Time>
            <Position>
              <LatitudeDegrees>36.4944954402744770050048828125</LatitudeDegrees>
              <LongitudeDegrees>-5.4041500948369503021240234375</LongitudeDegrees>
            </Position>
            <AltitudeMeters>62.59999847412109375</AltitudeMeters>
            <DistanceMeters>8963.8379288198</DistanceMeters>
          </Trackpoint>
          <Trackpoint>
            <Time>2019-01-04T11:24:53.000Z</Time>
            <Position>
              <LatitudeDegrees>36.49448655545711517333984375</LatitudeDegrees>
              <LongitudeDegrees>-5.40415160357952117919921875</LongitudeDegrees>
            </Position>
            <AltitudeMeters>62.59999847412109375</AltitudeMeters>
            <DistanceMeters>8964.8345774083</DistanceMeters>
          </Trackpoint>
          <Trackpoint>
            <Time>2019-01-04T11:24:54.000Z</Time>
            <Position>
              <LatitudeDegrees>36.494480185210704803466796875</LatitudeDegrees>
              <LongitudeDegrees>-5.4041480831801891326904296875</LongitudeDegrees>
            </Position>
            <AltitudeMeters>62.200000762939453125</AltitudeMeters>
            <DistanceMeters>8965.6181877695</DistanceMeters>
          </Trackpoint>
          <Trackpoint>
            <Time>2019-01-04T11:24:55.000Z</Time>
            <Position>
              <LatitudeDegrees>36.49447716772556304931640625</LatitudeDegrees>
              <LongitudeDegrees>-5.4041460715234279632568359375</LongitudeDegrees>
            </Position>
            <AltitudeMeters>62</AltitudeMeters>
            <DistanceMeters>8966.0099929501</DistanceMeters>
          </Trackpoint>
          <Trackpoint>
            <Time>2019-01-04T11:24:56.000Z</Time>
            <Position>
              <LatitudeDegrees>36.494476161897182464599609375</LatitudeDegrees>
              <LongitudeDegrees>-5.40414414368569850921630859375</LongitudeDegrees>
            </Position>
            <AltitudeMeters>62</AltitudeMeters>
            <DistanceMeters>8966.2000463788</DistanceMeters>
          </Trackpoint>
          <Trackpoint>
            <Time>2019-01-04T11:24:57.000Z</Time>
            <Position>
              <LatitudeDegrees>36.49447406642138957977294921875</LatitudeDegrees>
              <LongitudeDegrees>-5.4041454009711742401123046875</LongitudeDegrees>
            </Position>
            <AltitudeMeters>61.799999237060546875</AltitudeMeters>
            <DistanceMeters>8966.4328133409</DistanceMeters>
          </Trackpoint>
          <Trackpoint>
            <Time>2019-01-04T11:24:58.000Z</Time>
            <Position>
              <LatitudeDegrees>36.4944724738597869873046875</LatitudeDegrees>
              <LongitudeDegrees>-5.40414489805698394775390625</LongitudeDegrees>
            </Position>
            <AltitudeMeters>61.799999237060546875</AltitudeMeters>
            <DistanceMeters>8966.5974044383</DistanceMeters>
          </Trackpoint>
          <Trackpoint>
            <Time>2019-01-04T11:24:59.000Z</Time>
            <Position>
              <LatitudeDegrees>36.49447188712656497955322265625</LatitudeDegrees>
              <LongitudeDegrees>-5.40413961745798587799072265625</LongitudeDegrees>
            </Position>
            <AltitudeMeters>62</AltitudeMeters>
            <DistanceMeters>8967.0819475092</DistanceMeters>
          </Trackpoint>
          <Trackpoint>
            <Time>2019-01-04T11:25:00.000Z</Time>
            <Position>
              <LatitudeDegrees>36.4944696240127086639404296875</LatitudeDegrees>
              <LongitudeDegrees>-5.4041373543441295623779296875</LongitudeDegrees>
            </Position>
            <AltitudeMeters>62.200000762939453125</AltitudeMeters>
            <DistanceMeters>8967.4111297039</DistanceMeters>
          </Trackpoint>
          <Trackpoint>
            <Time>2019-01-04T11:25:01.000Z</Time>
            <Position>
              <LatitudeDegrees>36.49446954019367694854736328125</LatitudeDegrees>
              <LongitudeDegrees>-5.40413953363895416259765625</LongitudeDegrees>
            </Position>
            <AltitudeMeters>62.40000152587890625</AltitudeMeters>
            <DistanceMeters>8967.6438966661</DistanceMeters>
          </Trackpoint>
          <Trackpoint>
            <Time>2019-01-04T11:25:02.000Z</Time>
            <Position>
              <LatitudeDegrees>36.49446836672723293304443359375</LatitudeDegrees>
              <LongitudeDegrees>-5.40413693524897098541259765625</LongitudeDegrees>
            </Position>
            <AltitudeMeters>62.59999847412109375</AltitudeMeters>
            <DistanceMeters>8967.9289768092</DistanceMeters>
          </Trackpoint>
          <Trackpoint>
            <Time>2019-01-04T11:25:03.000Z</Time>
            <Position>
              <LatitudeDegrees>36.49446786381304264068603515625</LatitudeDegrees>
              <LongitudeDegrees>-5.40413542650640010833740234375</LongitudeDegrees>
            </Position>
            <AltitudeMeters>62.59999847412109375</AltitudeMeters>
            <DistanceMeters>8968.0935679065</DistanceMeters>
          </Trackpoint>
          <Trackpoint>
            <Time>2019-01-04T11:25:04.000Z</Time>
            <Position>
              <LatitudeDegrees>36.49446954019367694854736328125</LatitudeDegrees>
              <LongitudeDegrees>-5.404126457870006561279296875</LongitudeDegrees>
            </Position>
            <AltitudeMeters>62.59999847412109375</AltitudeMeters>
            <DistanceMeters>8968.9165233934</DistanceMeters>
          </Trackpoint>
          <Trackpoint>
            <Time>2019-01-04T11:25:05.000Z</Time>
            <Position>
              <LatitudeDegrees>36.4944696240127086639404296875</LatitudeDegrees>
              <LongitudeDegrees>-5.4041138850152492523193359375</LongitudeDegrees>
            </Position>
            <AltitudeMeters>62.200000762939453125</AltitudeMeters>
            <DistanceMeters>8970.0408946408</DistanceMeters>
          </Trackpoint>
          <Trackpoint>
            <Time>2019-01-04T11:25:06.000Z</Time>
            <Position>
              <LatitudeDegrees>36.49446635507047176361083984375</LatitudeDegrees>
              <LongitudeDegrees>-5.404100976884365081787109375</LongitudeDegrees>
            </Position>
            <AltitudeMeters>62</AltitudeMeters>
            <DistanceMeters>8971.2503872551</DistanceMeters>
          </Trackpoint>
          <Trackpoint>
            <Time>2019-01-04T11:25:07.000Z</Time>
            <Position>
              <LatitudeDegrees>36.4944617450237274169921875</LatitudeDegrees>
              <LongitudeDegrees>-5.404092930257320404052734375</LongitudeDegrees>
            </Position>
            <AltitudeMeters>61.799999237060546875</AltitudeMeters>
            <DistanceMeters>8972.1367374402</DistanceMeters>
          </Trackpoint>
          <Trackpoint>
            <Time>2019-01-04T11:25:08.000Z</Time>
            <Position>
              <LatitudeDegrees>36.49445839226245880126953125</LatitudeDegrees>
              <LongitudeDegrees>-5.40407993830740451812744140625</LongitudeDegrees>
            </Position>
            <AltitudeMeters>61.59999847412109375</AltitudeMeters>
            <DistanceMeters>8973.3610710098</DistanceMeters>
          </Trackpoint>
          <Trackpoint>
            <Time>2019-01-04T11:25:09.000Z</Time>
            <Position>
              <LatitudeDegrees>36.49445931427180767059326171875</LatitudeDegrees>
              <LongitudeDegrees>-5.40407507680356502532958984375</LongitudeDegrees>
            </Position>
            <AltitudeMeters>61.59999847412109375</AltitudeMeters>
            <DistanceMeters>8973.8067858085</DistanceMeters>
          </Trackpoint>
          <Trackpoint>
            <Time>2019-01-04T11:25:10.000Z</Time>
            <Position>
              <LatitudeDegrees>36.494460068643093109130859375</LatitudeDegrees>
              <LongitudeDegrees>-5.40407172404229640960693359375</LongitudeDegrees>
            </Position>
            <AltitudeMeters>61.59999847412109375</AltitudeMeters>
            <DistanceMeters>8974.1219537651</DistanceMeters>
          </Trackpoint>
          <Trackpoint>
            <Time>2019-01-04T11:25:11.000Z</Time>
            <Position>
              <LatitudeDegrees>36.49445881135761737823486328125</LatitudeDegrees>
              <LongitudeDegrees>-5.40407256223261356353759765625</LongitudeDegrees>
            </Position>
            <AltitudeMeters>61.59999847412109375</AltitudeMeters>
            <DistanceMeters>8974.2865448625</DistanceMeters>
          </Trackpoint>
          <Trackpoint>
            <Time>2019-01-04T11:25:12.000Z</Time>
            <Position>
              <LatitudeDegrees>36.4944602362811565399169921875</LatitudeDegrees>
              <LongitudeDegrees>-5.40407591499388217926025390625</LongitudeDegrees>
            </Position>
            <AltitudeMeters>61.59999847412109375</AltitudeMeters>
            <DistanceMeters>8974.6157270572</DistanceMeters>
          </Trackpoint>
          <Trackpoint>
            <Time>2019-01-04T11:25:13.000Z</Time>
            <Position>
              <LatitudeDegrees>36.494458727538585662841796875</LatitudeDegrees>
              <LongitudeDegrees>-5.404076166450977325439453125</LongitudeDegrees>
            </Position>
            <AltitudeMeters>61.59999847412109375</AltitudeMeters>
            <DistanceMeters>8974.805780486</DistanceMeters>
          </Trackpoint>
          <Trackpoint>
            <Time>2019-01-04T11:25:14.000Z</Time>
            <Position>
              <LatitudeDegrees>36.49445260874927043914794921875</LatitudeDegrees>
              <LongitudeDegrees>-5.4040743224322795867919921875</LongitudeDegrees>
            </Position>
            <AltitudeMeters>61.59999847412109375</AltitudeMeters>
            <DistanceMeters>8975.5040813724</DistanceMeters>
          </Trackpoint>
          <Trackpoint>
            <Time>2019-01-04T11:25:15.000Z</Time>
            <Position>
              <LatitudeDegrees>36.49444623850286006927490234375</LatitudeDegrees>
              <LongitudeDegrees>-5.40407381951808929443359375</LongitudeDegrees>
            </Position>
            <AltitudeMeters>61.59999847412109375</AltitudeMeters>
            <DistanceMeters>8976.2151961879</DistanceMeters>
          </Trackpoint>
          <Trackpoint>
            <Time>2019-01-04T11:25:16.000Z</Time>
            <Position>
              <LatitudeDegrees>36.4944367669522762298583984375</LatitudeDegrees>
              <LongitudeDegrees>-5.40407323278486728668212890625</LongitudeDegrees>
            </Position>
            <AltitudeMeters>61.59999847412109375</AltitudeMeters>
            <DistanceMeters>8977.2690934327</DistanceMeters>
          </Trackpoint>
          <Trackpoint>
            <Time>2019-01-04T11:25:17.000Z</Time>
            <Position>
              <LatitudeDegrees>36.4944290556013584136962890625</LatitudeDegrees>
              <LongitudeDegrees>-5.40407608263194561004638671875</LongitudeDegrees>
            </Position>
            <AltitudeMeters>61.799999237060546875</AltitudeMeters>
            <DistanceMeters>8978.1605230301</DistanceMeters>
          </Trackpoint>
          <Trackpoint>
            <Time>2019-01-04T11:25:18.000Z</Time>
            <Position>
              <LatitudeDegrees>36.49442218244075775146484375</LatitudeDegrees>
              <LongitudeDegrees>-5.40407474152743816375732421875</LongitudeDegrees>
            </Position>
            <AltitudeMeters>61.59999847412109375</AltitudeMeters>
            <DistanceMeters>8978.9325237071</DistanceMeters>
          </Trackpoint>
          <Trackpoint>
            <Time>2019-01-04T11:25:19.000Z</Time>
            <Position>
              <LatitudeDegrees>36.49441354908049106597900390625</LatitudeDegrees>
              <LongitudeDegrees>-5.40407457388937473297119140625</LongitudeDegrees>
            </Position>
            <AltitudeMeters>61.59999847412109375</AltitudeMeters>
            <DistanceMeters>8979.8922464781</DistanceMeters>
          </Trackpoint>
          <Trackpoint>
            <Time>2019-01-04T11:25:20.000Z</Time>
            <Position>
              <LatitudeDegrees>36.494402401149272918701171875</LatitudeDegrees>
              <LongitudeDegrees>-5.40407256223261356353759765625</LongitudeDegrees>
            </Position>
            <AltitudeMeters>61.59999847412109375</AltitudeMeters>
            <DistanceMeters>8981.1457349309</DistanceMeters>
          </Trackpoint>
          <Trackpoint>
            <Time>2019-01-04T11:25:21.000Z</Time>
            <Position>
              <LatitudeDegrees>36.494392342865467071533203125</LatitudeDegrees>
              <LongitudeDegrees>-5.40407088585197925567626953125</LongitudeDegrees>
            </Position>
            <AltitudeMeters>61.40000152587890625</AltitudeMeters>
            <DistanceMeters>8982.2781089217</DistanceMeters>
          </Trackpoint>
          <Trackpoint>
            <Time>2019-01-04T11:25:22.000Z</Time>
            <Position>
              <LatitudeDegrees>36.4943807758390903472900390625</LatitudeDegrees>
              <LongitudeDegrees>-5.404070802032947540283203125</LongitudeDegrees>
            </Position>
            <AltitudeMeters>61.200000762939453125</AltitudeMeters>
            <DistanceMeters>8983.5671139899</DistanceMeters>
          </Trackpoint>
          <Trackpoint>
            <Time>2019-01-04T11:25:23.000Z</Time>
            <Position>
              <LatitudeDegrees>36.49436694569885730743408203125</LatitudeDegrees>
              <LongitudeDegrees>-5.40407055057585239410400390625</LongitudeDegrees>
            </Position>
            <AltitudeMeters>61.200000762939453125</AltitudeMeters>
            <DistanceMeters>8985.1052557351</DistanceMeters>
          </Trackpoint>
          <Trackpoint>
            <Time>2019-01-04T11:25:24.000Z</Time>
            <Position>
              <LatitudeDegrees>36.49435353465378284454345703125</LatitudeDegrees>
              <LongitudeDegrees>-5.40406954474747180938720703125</LongitudeDegrees>
            </Position>
            <AltitudeMeters>61</AltitudeMeters>
            <DistanceMeters>8986.5987177807</DistanceMeters>
          </Trackpoint>
          <Trackpoint>
            <Time>2019-01-04T11:25:25.000Z</Time>
            <Position>
              <LatitudeDegrees>36.49434012360870838165283203125</LatitudeDegrees>
              <LongitudeDegrees>-5.4040702991187572479248046875</LongitudeDegrees>
            </Position>
            <AltitudeMeters>61</AltitudeMeters>
            <DistanceMeters>8988.095199975</DistanceMeters>
          </Trackpoint>
          <Trackpoint>
            <Time>2019-01-04T11:25:26.000Z</Time>
            <Position>
              <LatitudeDegrees>36.49432620964944362640380859375</LatitudeDegrees>
              <LongitudeDegrees>-5.404069460928440093994140625</LongitudeDegrees>
            </Position>
            <AltitudeMeters>60.799999237060546875</AltitudeMeters>
            <DistanceMeters>8989.6479492821</DistanceMeters>
          </Trackpoint>
          <Trackpoint>
            <Time>2019-01-04T11:25:27.000Z</Time>
            <Position>
              <LatitudeDegrees>36.49431430734694004058837890625</LatitudeDegrees>
              <LongitudeDegrees>-5.40406133048236370086669921875</LongitudeDegrees>
            </Position>
            <AltitudeMeters>61</AltitudeMeters>
            <DistanceMeters>8991.1624258969</DistanceMeters>
          </Trackpoint>
          <Trackpoint>
            <Time>2019-01-04T11:25:28.000Z</Time>
            <Position>
              <LatitudeDegrees>36.4943013153970241546630859375</LatitudeDegrees>
              <LongitudeDegrees>-5.4040491767227649688720703125</LongitudeDegrees>
            </Position>
            <AltitudeMeters>61.200000762939453125</AltitudeMeters>
            <DistanceMeters>8992.9729279679</DistanceMeters>
          </Trackpoint>
          <Trackpoint>
            <Time>2019-01-04T11:25:29.000Z</Time>
            <Position>
              <LatitudeDegrees>36.4942905865609645843505859375</LatitudeDegrees>
              <LongitudeDegrees>-5.40403903461992740631103515625</LongitudeDegrees>
            </Position>
            <AltitudeMeters>61.200000762939453125</AltitudeMeters>
            <DistanceMeters>8994.4724242282</DistanceMeters>
          </Trackpoint>
          <Trackpoint>
            <Time>2019-01-04T11:25:30.000Z</Time>
            <Position>
              <LatitudeDegrees>36.4942788518965244293212890625</LatitudeDegrees>
              <LongitudeDegrees>-5.40403316728770732879638671875</LongitudeDegrees>
            </Position>
            <AltitudeMeters>61.200000762939453125</AltitudeMeters>
            <DistanceMeters>8995.8818981789</DistanceMeters>
          </Trackpoint>
          <Trackpoint>
            <Time>2019-01-04T11:25:31.000Z</Time>
            <Position>
              <LatitudeDegrees>36.4942677877843379974365234375</LatitudeDegrees>
              <LongitudeDegrees>-5.40402713231742382049560546875</LongitudeDegrees>
            </Position>
            <AltitudeMeters>61.200000762939453125</AltitudeMeters>
            <DistanceMeters>8997.2257788614</DistanceMeters>
          </Trackpoint>
          <Trackpoint>
            <Time>2019-01-04T11:25:32.000Z</Time>
            <Position>
              <LatitudeDegrees>36.49425647221505641937255859375</LatitudeDegrees>
              <LongitudeDegrees>-5.4040226899087429046630859375</LongitudeDegrees>
            </Position>
            <AltitudeMeters>61.200000762939453125</AltitudeMeters>
            <DistanceMeters>8998.5459321682</DistanceMeters>
          </Trackpoint>
          <Trackpoint>
            <Time>2019-01-04T11:25:33.000Z</Time>
            <Position>
              <LatitudeDegrees>36.49424473755061626434326171875</LatitudeDegrees>
              <LongitudeDegrees>-5.40402059443295001983642578125</LongitudeDegrees>
            </Position>
            <AltitudeMeters>61.200000762939453125</AltitudeMeters>
            <DistanceMeters>8999.8695011427</DistanceMeters>
          </Trackpoint>
          <Trackpoint>
            <Time>2019-01-04T11:25:34.000Z</Time>
            <Position>
              <LatitudeDegrees>36.49423300288617610931396484375</LatitudeDegrees>
              <LongitudeDegrees>-5.4040213488042354583740234375</LongitudeDegrees>
            </Position>
            <AltitudeMeters>61</AltitudeMeters>
            <DistanceMeters>9001.1793540063</DistanceMeters>
          </Trackpoint>
          <Trackpoint>
            <Time>2019-01-04T11:25:35.000Z</Time>
            <Position>
              <LatitudeDegrees>36.494220681488513946533203125</LatitudeDegrees>
              <LongitudeDegrees>-5.4040186665952205657958984375</LongitudeDegrees>
            </Position>
            <AltitudeMeters>60.799999237060546875</AltitudeMeters>
            <DistanceMeters>9002.5694749935</DistanceMeters>
          </Trackpoint>
          <Trackpoint>
            <Time>2019-01-04T11:25:36.000Z</Time>
            <Position>
              <LatitudeDegrees>36.4942094497382640838623046875</LatitudeDegrees>
              <LongitudeDegrees>-5.4040190018713474273681640625</LongitudeDegrees>
            </Position>
            <AltitudeMeters>60.59999847412109375</AltitudeMeters>
            <DistanceMeters>9003.8229634463</DistanceMeters>
          </Trackpoint>
          <Trackpoint>
            <Time>2019-01-04T11:25:37.000Z</Time>
            <Position>
              <LatitudeDegrees>36.49419578723609447479248046875</LatitudeDegrees>
              <LongitudeDegrees>-5.40402243845164775848388671875</LongitudeDegrees>
            </Position>
            <AltitudeMeters>60.59999847412109375</AltitudeMeters>
            <DistanceMeters>9005.3728022553</DistanceMeters>
          </Trackpoint>
          <Trackpoint>
            <Time>2019-01-04T11:25:38.000Z</Time>
            <Position>
              <LatitudeDegrees>36.494182460010051727294921875</LatitudeDegrees>
              <LongitudeDegrees>-5.40402612648904323577880859375</LongitudeDegrees>
            </Position>
            <AltitudeMeters>60.59999847412109375</AltitudeMeters>
            <DistanceMeters>9006.8932296853</DistanceMeters>
          </Trackpoint>
          <Trackpoint>
            <Time>2019-01-04T11:25:39.000Z</Time>
            <Position>
              <LatitudeDegrees>36.49416762404143810272216796875</LatitudeDegrees>
              <LongitudeDegrees>-5.40402830578386783599853515625</LongitudeDegrees>
            </Position>
            <AltitudeMeters>60.59999847412109375</AltitudeMeters>
            <DistanceMeters>9008.5609417542</DistanceMeters>
          </Trackpoint>
          <Trackpoint>
            <Time>2019-01-04T11:25:40.000Z</Time>
            <Position>
              <LatitudeDegrees>36.4941531233489513397216796875</LatitudeDegrees>
              <LongitudeDegrees>-5.4040297307074069976806640625</LongitudeDegrees>
            </Position>
            <AltitudeMeters>60.59999847412109375</AltitudeMeters>
            <DistanceMeters>9010.1819760676</DistanceMeters>
          </Trackpoint>
          <Trackpoint>
            <Time>2019-01-04T11:25:41.000Z</Time>
            <Position>
              <LatitudeDegrees>36.49413895793259143829345703125</LatitudeDegrees>
              <LongitudeDegrees>-5.4040314070880413055419921875</LongitudeDegrees>
            </Position>
            <AltitudeMeters>60.59999847412109375</AltitudeMeters>
            <DistanceMeters>9011.7663880252</DistanceMeters>
          </Trackpoint>
          <Trackpoint>
            <Time>2019-01-04T11:25:42.000Z</Time>
            <Position>
              <LatitudeDegrees>36.494125463068485260009765625</LatitudeDegrees>
              <LongitudeDegrees>-5.4040355980396270751953125</LongitudeDegrees>
            </Position>
            <AltitudeMeters>60.59999847412109375</AltitudeMeters>
            <DistanceMeters>9013.3162268342</DistanceMeters>
          </Trackpoint>
          <Trackpoint>
            <Time>2019-01-04T11:25:43.000Z</Time>
            <Position>
              <LatitudeDegrees>36.4941112138330936431884765625</LatitudeDegrees>
              <LongitudeDegrees>-5.40403601713478565216064453125</LongitudeDegrees>
            </Position>
            <AltitudeMeters>60.59999847412109375</AltitudeMeters>
            <DistanceMeters>9014.9034858956</DistanceMeters>
          </Trackpoint>
          <Trackpoint>
            <Time>2019-01-04T11:25:44.000Z</Time>
            <Position>
              <LatitudeDegrees>36.4940984733402729034423828125</LatitudeDegrees>
              <LongitudeDegrees>-5.404039956629276275634765625</LongitudeDegrees>
            </Position>
            <AltitudeMeters>60.59999847412109375</AltitudeMeters>
            <DistanceMeters>9016.3694866438</DistanceMeters>
          </Trackpoint>
          <Trackpoint>
            <Time>2019-01-04T11:25:45.000Z</Time>
            <Position>
              <LatitudeDegrees>36.49408598430454730987548828125</LatitudeDegrees>
              <LongitudeDegrees>-5.40404833853244781494140625</LongitudeDegrees>
            </Position>
            <AltitudeMeters>60.59999847412109375</AltitudeMeters>
            <DistanceMeters>9017.9481889902</DistanceMeters>
          </Trackpoint>
          <Trackpoint>
            <Time>2019-01-04T11:25:46.000Z</Time>
            <Position>
              <LatitudeDegrees>36.49407341144979000091552734375</LatitudeDegrees>
              <LongitudeDegrees>-5.40405747480690479278564453125</LongitudeDegrees>
            </Position>
            <AltitudeMeters>60.59999847412109375</AltitudeMeters>
            <DistanceMeters>9019.5692233036</DistanceMeters>
          </Trackpoint>
          <Trackpoint>
            <Time>2019-01-04T11:25:47.000Z</Time>
            <Position>
              <LatitudeDegrees>36.49406016804277896881103515625</LatitudeDegrees>
              <LongitudeDegrees>-5.4040624201297760009765625</LongitudeDegrees>
            </Position>
            <AltitudeMeters>60.799999237060546875</AltitudeMeters>
            <DistanceMeters>9021.1102976382</DistanceMeters>
          </Trackpoint>
          <Trackpoint>
            <Time>2019-01-04T11:25:48.000Z</Time>
            <Position>
              <LatitudeDegrees>36.49404910393059253692626953125</LatitudeDegrees>
              <LongitudeDegrees>-5.4040676169097423553466796875</LongitudeDegrees>
            </Position>
            <AltitudeMeters>61</AltitudeMeters>
            <DistanceMeters>9022.4270264171</DistanceMeters>
          </Trackpoint>
          <Trackpoint>
            <Time>2019-01-04T11:25:49.000Z</Time>
            <Position>
              <LatitudeDegrees>36.49403787218034267425537109375</LatitudeDegrees>
              <LongitudeDegrees>-5.4040704667568206787109375</LongitudeDegrees>
            </Position>
            <AltitudeMeters>61</AltitudeMeters>
            <DistanceMeters>9023.7019435751</DistanceMeters>
          </Trackpoint>
          <Trackpoint>
            <Time>2019-01-04T11:25:50.000Z</Time>
            <Position>
              <LatitudeDegrees>36.494025886058807373046875</LatitudeDegrees>
              <LongitudeDegrees>-5.404070802032947540283203125</LongitudeDegrees>
            </Position>
            <AltitudeMeters>61.200000762939453125</AltitudeMeters>
            <DistanceMeters>9025.0323175763</DistanceMeters>
          </Trackpoint>
          <Trackpoint>
            <Time>2019-01-04T11:25:51.000Z</Time>
            <Position>
              <LatitudeDegrees>36.4940138161182403564453125</LatitudeDegrees>
              <LongitudeDegrees>-5.4040709696710109710693359375</LongitudeDegrees>
            </Position>
            <AltitudeMeters>61.200000762939453125</AltitudeMeters>
            <DistanceMeters>9026.3761982588</DistanceMeters>
          </Trackpoint>
          <Trackpoint>
            <Time>2019-01-04T11:25:52.000Z</Time>
            <Position>
              <LatitudeDegrees>36.494002752006053924560546875</LatitudeDegrees>
              <LongitudeDegrees>-5.40407205931842327117919921875</LongitudeDegrees>
            </Position>
            <AltitudeMeters>61.200000762939453125</AltitudeMeters>
            <DistanceMeters>9027.6151950286</DistanceMeters>
          </Trackpoint>
          <Trackpoint>
            <Time>2019-01-04T11:25:53.000Z</Time>
            <Position>
              <LatitudeDegrees>36.493987999856472015380859375</LatitudeDegrees>
              <LongitudeDegrees>-5.4040689580142498016357421875</LongitudeDegrees>
            </Position>
            <AltitudeMeters>61.40000152587890625</AltitudeMeters>
            <DistanceMeters>9029.2774836292</DistanceMeters>
          </Trackpoint>
          <Trackpoint>
            <Time>2019-01-04T11:25:54.000Z</Time>
            <Position>
              <LatitudeDegrees>36.49397199042141437530517578125</LatitudeDegrees>
              <LongitudeDegrees>-5.4040652699768543243408203125</LongitudeDegrees>
            </Position>
            <AltitudeMeters>61.40000152587890625</AltitudeMeters>
            <DistanceMeters>9031.0879857002</DistanceMeters>
          </Trackpoint>
          <Trackpoint>
            <Time>2019-01-04T11:25:55.000Z</Time>
            <Position>
              <LatitudeDegrees>36.49395950138568878173828125</LatitudeDegrees>
              <LongitudeDegrees>-5.40406770072877407073974609375</LongitudeDegrees>
            </Position>
            <AltitudeMeters>61.40000152587890625</AltitudeMeters>
            <DistanceMeters>9032.4910383239</DistanceMeters>
          </Trackpoint>
          <Trackpoint>
            <Time>2019-01-04T11:25:56.000Z</Time>
            <Position>
              <LatitudeDegrees>36.49394785054028034210205078125</LatitudeDegrees>
              <LongitudeDegrees>-5.404068790376186370849609375</LongitudeDegrees>
            </Position>
            <AltitudeMeters>61.40000152587890625</AltitudeMeters>
            <DistanceMeters>9033.7870299206</DistanceMeters>
          </Trackpoint>
          <Trackpoint>
            <Time>2019-01-04T11:25:57.000Z</Time>
            <Position>
              <LatitudeDegrees>36.4939325116574764251708984375</LatitudeDegrees>
              <LongitudeDegrees>-5.4040656052529811859130859375</LongitudeDegrees>
            </Position>
            <AltitudeMeters>61.40000152587890625</AltitudeMeters>
            <DistanceMeters>9035.5184990596</DistanceMeters>
          </Trackpoint>
          <Trackpoint>
            <Time>2019-01-04T11:25:58.000Z</Time>
            <Position>
              <LatitudeDegrees>36.4939140714704990386962890625</LatitudeDegrees>
              <LongitudeDegrees>-5.4040558822453022003173828125</LongitudeDegrees>
            </Position>
            <AltitudeMeters>61.40000152587890625</AltitudeMeters>
            <DistanceMeters>9037.747073053</DistanceMeters>
          </Trackpoint>
          <Trackpoint>
            <Time>2019-01-04T11:25:59.000Z</Time>
            <Position>
              <LatitudeDegrees>36.4939043484628200531005859375</LatitudeDegrees>
              <LongitudeDegrees>-5.404057390987873077392578125</LongitudeDegrees>
            </Position>
            <AltitudeMeters>61.40000152587890625</AltitudeMeters>
            <DistanceMeters>9038.8388468806</DistanceMeters>
          </Trackpoint>
          <Trackpoint>
            <Time>2019-01-04T11:26:00.000Z</Time>
            <Position>
              <LatitudeDegrees>36.49389068596065044403076171875</LatitudeDegrees>
              <LongitudeDegrees>-5.4040525294840335845947265625</LongitudeDegrees>
            </Position>
            <AltitudeMeters>61.40000152587890625</AltitudeMeters>
            <DistanceMeters>9040.4204066091</DistanceMeters>
          </Trackpoint>
          <Trackpoint>
            <Time>2019-01-04T11:26:01.000Z</Time>
            <Position>
              <LatitudeDegrees>36.49387341924011707305908203125</LatitudeDegrees>
              <LongitudeDegrees>-5.40405127219855785369873046875</LongitudeDegrees>
            </Position>
            <AltitudeMeters>61.200000762939453125</AltitudeMeters>
            <DistanceMeters>9042.3468960118</DistanceMeters>
          </Trackpoint>
          <Trackpoint>
            <Time>2019-01-04T11:26:02.000Z</Time>
            <Position>
              <LatitudeDegrees>36.493858583271503448486328125</LatitudeDegrees>
              <LongitudeDegrees>-5.4040548764169216156005859375</LongitudeDegrees>
            </Position>
            <AltitudeMeters>61.200000762939453125</AltitudeMeters>
            <DistanceMeters>9044.0307736806</DistanceMeters>
          </Trackpoint>
          <Trackpoint>
            <Time>2019-01-04T11:26:03.000Z</Time>
            <Position>
              <LatitudeDegrees>36.49384207092225551605224609375</LatitudeDegrees>
              <LongitudeDegrees>-5.40405630134046077728271484375</LongitudeDegrees>
            </Position>
            <AltitudeMeters>61</AltitudeMeters>
            <DistanceMeters>9045.8734100372</DistanceMeters>
          </Trackpoint>
          <Trackpoint>
            <Time>2019-01-04T11:26:04.000Z</Time>
            <Position>
              <LatitudeDegrees>36.49382815696299076080322265625</LatitudeDegrees>
              <LongitudeDegrees>-5.40405613370239734649658203125</LongitudeDegrees>
            </Position>
            <AltitudeMeters>61</AltitudeMeters>
            <DistanceMeters>9047.4232488463</DistanceMeters>
          </Trackpoint>
          <Trackpoint>
            <Time>2019-01-04T11:26:05.000Z</Time>
            <Position>
              <LatitudeDegrees>36.49381306953728199005126953125</LatitudeDegrees>
              <LongitudeDegrees>-5.40405412204563617706298828125</LongitudeDegrees>
            </Position>
            <AltitudeMeters>61</AltitudeMeters>
            <DistanceMeters>9049.1124806706</DistanceMeters>
          </Trackpoint>
          <Trackpoint>
            <Time>2019-01-04T11:26:06.000Z</Time>
            <Position>
              <LatitudeDegrees>36.49379965849220752716064453125</LatitudeDegrees>
              <LongitudeDegrees>-5.40405479259788990020751953125</LongitudeDegrees>
            </Position>
            <AltitudeMeters>61</AltitudeMeters>
            <DistanceMeters>9050.6029164476</DistanceMeters>
          </Trackpoint>
          <Trackpoint>
            <Time>2019-01-04T11:26:07.000Z</Time>
            <Position>
              <LatitudeDegrees>36.49378691799938678741455078125</LatitudeDegrees>
              <LongitudeDegrees>-5.40405697189271450042724609375</LongitudeDegrees>
            </Position>
            <AltitudeMeters>61.40000152587890625</AltitudeMeters>
            <DistanceMeters>9052.0314812085</DistanceMeters>
          </Trackpoint>
          <Trackpoint>
            <Time>2019-01-04T11:26:08.000Z</Time>
            <Position>
              <LatitudeDegrees>36.4937732554972171783447265625</LatitudeDegrees>
              <LongitudeDegrees>-5.404057390987873077392578125</LongitudeDegrees>
            </Position>
            <AltitudeMeters>61.59999847412109375</AltitudeMeters>
            <DistanceMeters>9053.5519086385</DistanceMeters>
          </Trackpoint>
          <Trackpoint>
            <Time>2019-01-04T11:26:09.000Z</Time>
            <Position>
              <LatitudeDegrees>36.49376210756599903106689453125</LatitudeDegrees>
              <LongitudeDegrees>-5.40406183339655399322509765625</LongitudeDegrees>
            </Position>
            <AltitudeMeters>61.799999237060546875</AltitudeMeters>
            <DistanceMeters>9054.8548493015</DistanceMeters>
          </Trackpoint>
          <Trackpoint>
            <Time>2019-01-04T11:26:10.000Z</Time>
            <Position>
              <LatitudeDegrees>36.49374953471124172210693359375</LatitudeDegrees>
              <LongitudeDegrees>-5.4040649347007274627685546875</LongitudeDegrees>
            </Position>
            <AltitudeMeters>62</AltitudeMeters>
            <DistanceMeters>9056.2834140625</DistanceMeters>
          </Trackpoint>
          <Trackpoint>
            <Time>2019-01-04T11:26:11.000Z</Time>
            <Position>
              <LatitudeDegrees>36.4937393926084041595458984375</LatitudeDegrees>
              <LongitudeDegrees>-5.4040689580142498016357421875</LongitudeDegrees>
            </Position>
            <AltitudeMeters>62.200000762939453125</AltitudeMeters>
            <DistanceMeters>9057.4664871156</DistanceMeters>
          </Trackpoint>
          <Trackpoint>
            <Time>2019-01-04T11:26:12.000Z</Time>
            <Position>
              <LatitudeDegrees>36.49372690357267856597900390625</LatitudeDegrees>
              <LongitudeDegrees>-5.40407055057585239410400390625</LongitudeDegrees>
            </Position>
            <AltitudeMeters>62.200000762939453125</AltitudeMeters>
            <DistanceMeters>9058.8663180297</DistanceMeters>
          </Trackpoint>
          <Trackpoint>
            <Time>2019-01-04T11:26:13.000Z</Time>
            <Position>
              <LatitudeDegrees>36.4937160909175872802734375</LatitudeDegrees>
              <LongitudeDegrees>-5.4040773399174213409423828125</LongitudeDegrees>
            </Position>
            <AltitudeMeters>62.200000762939453125</AltitudeMeters>
            <DistanceMeters>9060.2169014006</DistanceMeters>
          </Trackpoint>
          <Trackpoint>
            <Time>2019-01-04T11:26:14.000Z</Time>
            <Position>
              <LatitudeDegrees>36.49370159022510051727294921875</LatitudeDegrees>
              <LongitudeDegrees>-5.40407893247902393341064453125</LongitudeDegrees>
            </Position>
            <AltitudeMeters>62.200000762939453125</AltitudeMeters>
            <DistanceMeters>9061.837935714</DistanceMeters>
          </Trackpoint>
          <Trackpoint>
            <Time>2019-01-04T11:26:15.000Z</Time>
            <Position>
              <LatitudeDegrees>36.49368834681808948516845703125</LatitudeDegrees>
              <LongitudeDegrees>-5.40408312343060970306396484375</LongitudeDegrees>
            </Position>
            <AltitudeMeters>62.40000152587890625</AltitudeMeters>
            <DistanceMeters>9063.3583631439</DistanceMeters>
          </Trackpoint>
          <Trackpoint>
            <Time>2019-01-04T11:26:16.000Z</Time>
            <Position>
              <LatitudeDegrees>36.49367359466850757598876953125</LatitudeDegrees>
              <LongitudeDegrees>-5.4040840454399585723876953125</LongitudeDegrees>
            </Position>
            <AltitudeMeters>62.59999847412109375</AltitudeMeters>
            <DistanceMeters>9065.0015286428</DistanceMeters>
          </Trackpoint>
          <Trackpoint>
            <Time>2019-01-04T11:26:17.000Z</Time>
            <Position>
              <LatitudeDegrees>36.49365775287151336669921875</LatitudeDegrees>
              <LongitudeDegrees>-5.40408597327768802642822265625</LongitudeDegrees>
            </Position>
            <AltitudeMeters>62.59999847412109375</AltitudeMeters>
            <DistanceMeters>9066.774229013</DistanceMeters>
          </Trackpoint>
          <Trackpoint>
            <Time>2019-01-04T11:26:18.000Z</Time>
            <Position>
              <LatitudeDegrees>36.4936428330838680267333984375</LatitudeDegrees>
              <LongitudeDegrees>-5.40408915840089321136474609375</LongitudeDegrees>
            </Position>
            <AltitudeMeters>62.59999847412109375</AltitudeMeters>
            <DistanceMeters>9068.4581066818</DistanceMeters>
          </Trackpoint>
          <Trackpoint>
            <Time>2019-01-04T11:26:19.000Z</Time>
            <Position>
              <LatitudeDegrees>36.49362816475331783294677734375</LatitudeDegrees>
              <LongitudeDegrees>-5.404093600809574127197265625</LongitudeDegrees>
            </Position>
            <AltitudeMeters>62.799999237060546875</AltitudeMeters>
            <DistanceMeters>9070.1366131163</DistanceMeters>
          </Trackpoint>
          <Trackpoint>
            <Time>2019-01-04T11:26:20.000Z</Time>
            <Position>
              <LatitudeDegrees>36.493616513907909393310546875</LatitudeDegrees>
              <LongitudeDegrees>-5.40409821085631847381591796875</LongitudeDegrees>
            </Position>
            <AltitudeMeters>63</AltitudeMeters>
            <DistanceMeters>9071.5005030486</DistanceMeters>
          </Trackpoint>
          <Trackpoint>
            <Time>2019-01-04T11:26:21.000Z</Time>
            <Position>
              <LatitudeDegrees>36.49360419251024723052978515625</LatitudeDegrees>
              <LongitudeDegrees>-5.40409854613244533538818359375</LongitudeDegrees>
            </Position>
            <AltitudeMeters>63</AltitudeMeters>
            <DistanceMeters>9072.8709978134</DistanceMeters>
          </Trackpoint>
          <Trackpoint>
            <Time>2019-01-04T11:26:22.000Z</Time>
            <Position>
              <LatitudeDegrees>36.493591032922267913818359375</LatitudeDegrees>
              <LongitudeDegrees>-5.40410156361758708953857421875</LongitudeDegrees>
            </Position>
            <AltitudeMeters>63</AltitudeMeters>
            <DistanceMeters>9074.3584011644</DistanceMeters>
          </Trackpoint>
          <Trackpoint>
            <Time>2019-01-04T11:26:23.000Z</Time>
            <Position>
              <LatitudeDegrees>36.49357988499104976654052734375</LatitudeDegrees>
              <LongitudeDegrees>-5.40410927496850490570068359375</LongitudeDegrees>
            </Position>
            <AltitudeMeters>63.200000762939453125</AltitudeMeters>
            <DistanceMeters>9075.7774526247</DistanceMeters>
          </Trackpoint>
          <Trackpoint>
            <Time>2019-01-04T11:26:24.000Z</Time>
            <Position>
              <LatitudeDegrees>36.49356815032660961151123046875</LatitudeDegrees>
              <LongitudeDegrees>-5.40411681868135929107666015625</LongitudeDegrees>
            </Position>
            <AltitudeMeters>63</AltitudeMeters>
            <DistanceMeters>9077.2465299781</DistanceMeters>
          </Trackpoint>
          <Trackpoint>
            <Time>2019-01-04T11:26:25.000Z</Time>
            <Position>
              <LatitudeDegrees>36.493558175861835479736328125</LatitudeDegrees>
              <LongitudeDegrees>-5.4041241109371185302734375</LongitudeDegrees>
            </Position>
            <AltitudeMeters>62.799999237060546875</AltitudeMeters>
            <DistanceMeters>9078.5355350462</DistanceMeters>
          </Trackpoint>
          <Trackpoint>
            <Time>2019-01-04T11:26:26.000Z</Time>
            <Position>
              <LatitudeDegrees>36.49354753084480762481689453125</LatitudeDegrees>
              <LongitudeDegrees>-5.40412687696516513824462890625</LongitudeDegrees>
            </Position>
            <AltitudeMeters>62.59999847412109375</AltitudeMeters>
            <DistanceMeters>9079.7450276605</DistanceMeters>
          </Trackpoint>
          <Trackpoint>
            <Time>2019-01-04T11:26:27.000Z</Time>
            <Position>
              <LatitudeDegrees>36.49353764019906520843505859375</LatitudeDegrees>
              <LongitudeDegrees>-5.40413090027868747711181640625</LongitudeDegrees>
            </Position>
            <AltitudeMeters>62.40000152587890625</AltitudeMeters>
            <DistanceMeters>9080.9010775356</DistanceMeters>
          </Trackpoint>
          <Trackpoint>
            <Time>2019-01-04T11:26:28.000Z</Time>
            <Position>
              <LatitudeDegrees>36.4935278333723545074462890625</LatitudeDegrees>
              <LongitudeDegrees>-5.40413576178252696990966796875</LongitudeDegrees>
            </Position>
            <AltitudeMeters>62.200000762939453125</AltitudeMeters>
            <DistanceMeters>9082.0803280485</DistanceMeters>
          </Trackpoint>
          <Trackpoint>
            <Time>2019-01-04T11:26:29.000Z</Time>
            <Position>
              <LatitudeDegrees>36.49351618252694606781005859375</LatitudeDegrees>
              <LongitudeDegrees>-5.40413056500256061553955078125</LongitudeDegrees>
            </Position>
            <AltitudeMeters>62.200000762939453125</AltitudeMeters>
            <DistanceMeters>9083.4606708066</DistanceMeters>
          </Trackpoint>
          <Trackpoint>
            <Time>2019-01-04T11:26:30.000Z</Time>
            <Position>
              <LatitudeDegrees>36.49351333267986774444580078125</LatitudeDegrees>
              <LongitudeDegrees>-5.40413375012576580047607421875</LongitudeDegrees>
            </Position>
            <AltitudeMeters>62.200000762939453125</AltitudeMeters>
            <DistanceMeters>9083.8856431926</DistanceMeters>
          </Trackpoint>
          <Trackpoint>
            <Time>2019-01-04T11:26:31.000Z</Time>
            <Position>
              <LatitudeDegrees>36.49351500906050205230712890625</LatitudeDegrees>
              <LongitudeDegrees>-5.4041370190680027008056640625</LongitudeDegrees>
            </Position>
            <AltitudeMeters>62.200000762939453125</AltitudeMeters>
            <DistanceMeters>9084.2412006004</DistanceMeters>
          </Trackpoint>
          <Trackpoint>
            <Time>2019-01-04T11:26:32.000Z</Time>
            <Position>
              <LatitudeDegrees>36.4935174398124217987060546875</LatitudeDegrees>
              <LongitudeDegrees>-5.40414481423795223236083984375</LongitudeDegrees>
            </Position>
            <AltitudeMeters>62</AltitudeMeters>
            <DistanceMeters>9084.9894416976</DistanceMeters>
          </Trackpoint>
          <Trackpoint>
            <Time>2019-01-04T11:26:33.000Z</Time>
            <Position>
              <LatitudeDegrees>36.49352037347853183746337890625</LatitudeDegrees>
              <LongitudeDegrees>-5.40415101684629917144775390625</LongitudeDegrees>
            </Position>
            <AltitudeMeters>62</AltitudeMeters>
            <DistanceMeters>9085.6339442316</DistanceMeters>
          </Trackpoint>
          <Trackpoint>
            <Time>2019-01-04T11:26:34.000Z</Time>
            <Position>
              <LatitudeDegrees>36.4935243129730224609375</LatitudeDegrees>
              <LongitudeDegrees>-5.40415587835013866424560546875</LongitudeDegrees>
            </Position>
            <AltitudeMeters>62</AltitudeMeters>
            <DistanceMeters>9086.2497877269</DistanceMeters>
          </Trackpoint>
          <Trackpoint>
            <Time>2019-01-04T11:26:35.000Z</Time>
            <Position>
              <LatitudeDegrees>36.49352959357202053070068359375</LatitudeDegrees>
              <LongitudeDegrees>-5.40416300296783447265625</LongitudeDegrees>
            </Position>
            <AltitudeMeters>61.799999237060546875</AltitudeMeters>
            <DistanceMeters>9087.1102912239</DistanceMeters>
          </Trackpoint>
          <Trackpoint>
            <Time>2019-01-04T11:26:36.000Z</Time>
            <Position>
              <LatitudeDegrees>36.49353160522878170013427734375</LatitudeDegrees>
              <LongitudeDegrees>-5.40416845120489597320556640625</LongitudeDegrees>
            </Position>
            <AltitudeMeters>61.799999237060546875</AltitudeMeters>
            <DistanceMeters>9087.6393775777</DistanceMeters>
          </Trackpoint>
          <Trackpoint>
            <Time>2019-01-04T11:26:37.000Z</Time>
            <Position>
              <LatitudeDegrees>36.49353504180908203125</LatitudeDegrees>
              <LongitudeDegrees>-5.40417373180389404296875</LongitudeDegrees>
            </Position>
            <AltitudeMeters>61.799999237060546875</AltitudeMeters>
            <DistanceMeters>9088.255221073</DistanceMeters>
          </Trackpoint>
          <Trackpoint>
            <Time>2019-01-04T11:26:38.000Z</Time>
            <Position>
              <LatitudeDegrees>36.49353730492293834686279296875</LatitudeDegrees>
              <LongitudeDegrees>-5.4041750729084014892578125</LongitudeDegrees>
            </Position>
            <AltitudeMeters>61.799999237060546875</AltitudeMeters>
            <DistanceMeters>9088.5239972094</DistanceMeters>
          </Trackpoint>
          <Trackpoint>
            <Time>2019-01-04T11:26:39.000Z</Time>
            <Position>
              <LatitudeDegrees>36.49353730492293834686279296875</LatitudeDegrees>
              <LongitudeDegrees>-5.40417683310806751251220703125</LongitudeDegrees>
            </Position>
            <AltitudeMeters>61.59999847412109375</AltitudeMeters>
            <DistanceMeters>9088.6583852777</DistanceMeters>
          </Trackpoint>
          <Trackpoint>
            <Time>2019-01-04T11:26:40.000Z</Time>
            <Position>
              <LatitudeDegrees>36.4935372211039066314697265625</LatitudeDegrees>
              <LongitudeDegrees>-5.404177419841289520263671875</LongitudeDegrees>
            </Position>
            <AltitudeMeters>61.59999847412109375</AltitudeMeters>
            <DistanceMeters>9088.6583852777</DistanceMeters>
          </Trackpoint>
          <Trackpoint>
            <Time>2019-01-04T11:26:41.000Z</Time>
            <Position>
              <LatitudeDegrees>36.49353696964681148529052734375</LatitudeDegrees>
              <LongitudeDegrees>-5.404177419841289520263671875</LongitudeDegrees>
            </Position>
            <AltitudeMeters>61.59999847412109375</AltitudeMeters>
            <DistanceMeters>9088.6583852777</DistanceMeters>
          </Trackpoint>
          <Trackpoint>
            <Time>2019-01-04T11:26:42.000Z</Time>
            <Position>
              <LatitudeDegrees>36.49353713728487491607666015625</LatitudeDegrees>
              <LongitudeDegrees>-5.4041779227554798126220703125</LongitudeDegrees>
            </Position>
            <AltitudeMeters>61.40000152587890625</AltitudeMeters>
            <DistanceMeters>9088.6583852777</DistanceMeters>
          </Trackpoint>
          <Trackpoint>
            <Time>2019-01-04T11:26:43.000Z</Time>
            <Position>
              <LatitudeDegrees>36.49353747256100177764892578125</LatitudeDegrees>
              <LongitudeDegrees>-5.40417918004095554351806640625</LongitudeDegrees>
            </Position>
            <AltitudeMeters>61.40000152587890625</AltitudeMeters>
            <DistanceMeters>9088.7534119921</DistanceMeters>
          </Trackpoint>
          <Trackpoint>
            <Time>2019-01-04T11:26:44.000Z</Time>
            <Position>
              <LatitudeDegrees>36.4935372211039066314697265625</LatitudeDegrees>
              <LongitudeDegrees>-5.40418018586933612823486328125</LongitudeDegrees>
            </Position>
            <AltitudeMeters>61.40000152587890625</AltitudeMeters>
            <DistanceMeters>9088.8878000603</DistanceMeters>
          </Trackpoint>
          <Trackpoint>
            <Time>2019-01-04T11:26:45.000Z</Time>
            <Position>
              <LatitudeDegrees>36.493536718189716339111328125</LatitudeDegrees>
              <LongitudeDegrees>-5.4041812755167484283447265625</LongitudeDegrees>
            </Position>
            <AltitudeMeters>61.200000762939453125</AltitudeMeters>
            <DistanceMeters>9089.0221881286</DistanceMeters>
          </Trackpoint>
          <Trackpoint>
            <Time>2019-01-04T11:26:46.000Z</Time>
            <Position>
              <LatitudeDegrees>36.4935368858277797698974609375</LatitudeDegrees>
              <LongitudeDegrees>-5.40418119169771671295166015625</LongitudeDegrees>
            </Position>
            <AltitudeMeters>61.200000762939453125</AltitudeMeters>
            <DistanceMeters>9089.0221881286</DistanceMeters>
          </Trackpoint>
          <Trackpoint>
            <Time>2019-01-04T11:26:47.000Z</Time>
            <Position>
              <LatitudeDegrees>36.49353705346584320068359375</LatitudeDegrees>
              <LongitudeDegrees>-5.4041816107928752899169921875</LongitudeDegrees>
            </Position>
            <AltitudeMeters>61.200000762939453125</AltitudeMeters>
            <DistanceMeters>9089.0221881286</DistanceMeters>
          </Trackpoint>
          <Trackpoint>
            <Time>2019-01-04T11:26:48.000Z</Time>
            <Position>
              <LatitudeDegrees>36.49353730492293834686279296875</LatitudeDegrees>
              <LongitudeDegrees>-5.4041826166212558746337890625</LongitudeDegrees>
            </Position>
            <AltitudeMeters>61.200000762939453125</AltitudeMeters>
            <DistanceMeters>9089.0221881286</DistanceMeters>
          </Trackpoint>
          <Trackpoint>
            <Time>2019-01-04T11:26:49.000Z</Time>
            <Position>
              <LatitudeDegrees>36.4935382269322872161865234375</LatitudeDegrees>
              <LongitudeDegrees>-5.4041842930018901824951171875</LongitudeDegrees>
            </Position>
            <AltitudeMeters>61.200000762939453125</AltitudeMeters>
            <DistanceMeters>9089.2122415573</DistanceMeters>
          </Trackpoint>
          <Trackpoint>
            <Time>2019-01-04T11:26:50.000Z</Time>
            <Position>
              <LatitudeDegrees>36.493539400398731231689453125</LatitudeDegrees>
              <LongitudeDegrees>-5.40418571792542934417724609375</LongitudeDegrees>
            </Position>
            <AltitudeMeters>61.200000762939453125</AltitudeMeters>
            <DistanceMeters>9089.4022949861</DistanceMeters>
          </Trackpoint>
          <Trackpoint>
            <Time>2019-01-04T11:26:51.000Z</Time>
            <Position>
              <LatitudeDegrees>36.4935409091413021087646484375</LatitudeDegrees>
              <LongitudeDegrees>-5.40418756194412708282470703125</LongitudeDegrees>
            </Position>
            <AltitudeMeters>61.200000762939453125</AltitudeMeters>
            <DistanceMeters>9089.6350619482</DistanceMeters>
          </Trackpoint>
          <Trackpoint>
            <Time>2019-01-04T11:26:52.000Z</Time>
            <Position>
              <LatitudeDegrees>36.49354116059839725494384765625</LatitudeDegrees>
              <LongitudeDegrees>-5.40419141761958599090576171875</LongitudeDegrees>
            </Position>
            <AltitudeMeters>61.200000762939453125</AltitudeMeters>
            <DistanceMeters>9089.990619356</DistanceMeters>
          </Trackpoint>
          <Trackpoint>
            <Time>2019-01-04T11:26:53.000Z</Time>
            <Position>
              <LatitudeDegrees>36.49354049004614353179931640625</LatitudeDegrees>
              <LongitudeDegrees>-5.40419451892375946044921875</LongitudeDegrees>
            </Position>
            <AltitudeMeters>61.200000762939453125</AltitudeMeters>
            <DistanceMeters>9090.2911202119</DistanceMeters>
          </Trackpoint>
          <Trackpoint>
            <Time>2019-01-04T11:26:54.000Z</Time>
            <Position>
              <LatitudeDegrees>36.49354065768420696258544921875</LatitudeDegrees>
              <LongitudeDegrees>-5.4041960276663303375244140625</LongitudeDegrees>
            </Position>
            <AltitudeMeters>61.200000762939453125</AltitudeMeters>
            <DistanceMeters>9090.4255082802</DistanceMeters>
          </Trackpoint>
          <Trackpoint>
            <Time>2019-01-04T11:26:55.000Z</Time>
            <Position>
              <LatitudeDegrees>36.49354116059839725494384765625</LatitudeDegrees>
              <LongitudeDegrees>-5.4041965305805206298828125</LongitudeDegrees>
            </Position>
            <AltitudeMeters>61</AltitudeMeters>
            <DistanceMeters>9090.4255082802</DistanceMeters>
          </Trackpoint>
          <Trackpoint>
            <Time>2019-01-04T11:26:56.000Z</Time>
            <Position>
              <LatitudeDegrees>36.49354132823646068572998046875</LatitudeDegrees>
              <LongitudeDegrees>-5.4041973687708377838134765625</LongitudeDegrees>
            </Position>
            <AltitudeMeters>61</AltitudeMeters>
            <DistanceMeters>9090.4255082802</DistanceMeters>
          </Trackpoint>
          <Trackpoint>
            <Time>2019-01-04T11:26:57.000Z</Time>
            <Position>
              <LatitudeDegrees>36.49353546090424060821533203125</LatitudeDegrees>
              <LongitudeDegrees>-5.4042064212262630462646484375</LongitudeDegrees>
            </Position>
            <AltitudeMeters>61</AltitudeMeters>
            <DistanceMeters>9091.4577626192</DistanceMeters>
          </Trackpoint>
          <Trackpoint>
            <Time>2019-01-04T11:26:58.000Z</Time>
            <Position>
              <LatitudeDegrees>36.4935301803052425384521484375</LatitudeDegrees>
              <LongitudeDegrees>-5.4042153060436248779296875</LongitudeDegrees>
            </Position>
            <AltitudeMeters>61.200000762939453125</AltitudeMeters>
            <DistanceMeters>9092.4453092034</DistanceMeters>
          </Trackpoint>
          <Trackpoint>
            <Time>2019-01-04T11:26:59.000Z</Time>
            <Position>
              <LatitudeDegrees>36.4935281686484813690185546875</LatitudeDegrees>
              <LongitudeDegrees>-5.40422176010906696319580078125</LongitudeDegrees>
            </Position>
            <AltitudeMeters>61.200000762939453125</AltitudeMeters>
            <DistanceMeters>9093.068441041</DistanceMeters>
          </Trackpoint>
          <Trackpoint>
            <Time>2019-01-04T11:27:00.000Z</Time>
            <Position>
              <LatitudeDegrees>36.49352791719138622283935546875</LatitudeDegrees>
              <LongitudeDegrees>-5.40422377176582813262939453125</LongitudeDegrees>
            </Position>
            <AltitudeMeters>61.40000152587890625</AltitudeMeters>
            <DistanceMeters>9093.2584944698</DistanceMeters>
          </Trackpoint>
          <Trackpoint>
            <Time>2019-01-04T11:27:01.000Z</Time>
            <Position>
              <LatitudeDegrees>36.49352774955332279205322265625</LatitudeDegrees>
              <LongitudeDegrees>-5.4042251966893672943115234375</LongitudeDegrees>
            </Position>
            <AltitudeMeters>61.40000152587890625</AltitudeMeters>
            <DistanceMeters>9093.392882538</DistanceMeters>
          </Trackpoint>
          <Trackpoint>
            <Time>2019-01-04T11:27:02.000Z</Time>
            <Position>
              <LatitudeDegrees>36.49352758191525936126708984375</LatitudeDegrees>
              <LongitudeDegrees>-5.40422611869871616363525390625</LongitudeDegrees>
            </Position>
            <AltitudeMeters>61.59999847412109375</AltitudeMeters>
            <DistanceMeters>9093.5272706063</DistanceMeters>
          </Trackpoint>
          <Trackpoint>
            <Time>2019-01-04T11:27:03.000Z</Time>
            <Position>
              <LatitudeDegrees>36.493528001010417938232421875</LatitudeDegrees>
              <LongitudeDegrees>-5.40422779507935047149658203125</LongitudeDegrees>
            </Position>
            <AltitudeMeters>61.59999847412109375</AltitudeMeters>
            <DistanceMeters>9093.717324035</DistanceMeters>
          </Trackpoint>
          <Trackpoint>
            <Time>2019-01-04T11:27:04.000Z</Time>
            <Position>
              <LatitudeDegrees>36.49352741427719593048095703125</LatitudeDegrees>
              <LongitudeDegrees>-5.404230058193206787109375</LongitudeDegrees>
            </Position>
            <AltitudeMeters>61.59999847412109375</AltitudeMeters>
            <DistanceMeters>9093.929810228</DistanceMeters>
          </Trackpoint>
          <Trackpoint>
            <Time>2019-01-04T11:27:05.000Z</Time>
            <Position>
              <LatitudeDegrees>36.493527330458164215087890625</LatitudeDegrees>
              <LongitudeDegrees>-5.404231734573841094970703125</LongitudeDegrees>
            </Position>
            <AltitudeMeters>61.59999847412109375</AltitudeMeters>
            <DistanceMeters>9094.1198636568</DistanceMeters>
          </Trackpoint>
          <Trackpoint>
            <Time>2019-01-04T11:27:06.000Z</Time>
            <Position>
              <LatitudeDegrees>36.49352724663913249969482421875</LatitudeDegrees>
              <LongitudeDegrees>-5.40423349477350711822509765625</LongitudeDegrees>
            </Position>
            <AltitudeMeters>61.59999847412109375</AltitudeMeters>
            <DistanceMeters>9094.254251725</DistanceMeters>
          </Trackpoint>
          <Trackpoint>
            <Time>2019-01-04T11:27:07.000Z</Time>
            <Position>
              <LatitudeDegrees>36.49352758191525936126708984375</LatitudeDegrees>
              <LongitudeDegrees>-5.40423550643026828765869140625</LongitudeDegrees>
            </Position>
            <AltitudeMeters>61.40000152587890625</AltitudeMeters>
            <DistanceMeters>9094.466737918</DistanceMeters>
          </Trackpoint>
          <Trackpoint>
            <Time>2019-01-04T11:27:08.000Z</Time>
            <Position>
              <LatitudeDegrees>36.49352758191525936126708984375</LatitudeDegrees>
              <LongitudeDegrees>-5.4042372666299343109130859375</LongitudeDegrees>
            </Position>
            <AltitudeMeters>61.40000152587890625</AltitudeMeters>
            <DistanceMeters>9094.6567913468</DistanceMeters>
          </Trackpoint>
          <Trackpoint>
            <Time>2019-01-04T11:27:09.000Z</Time>
            <Position>
              <LatitudeDegrees>36.4935274980962276458740234375</LatitudeDegrees>
              <LongitudeDegrees>-5.40423902682960033416748046875</LongitudeDegrees>
            </Position>
            <AltitudeMeters>61.40000152587890625</AltitudeMeters>
            <DistanceMeters>9094.8468447755</DistanceMeters>
          </Trackpoint>
          <Trackpoint>
            <Time>2019-01-04T11:27:10.000Z</Time>
            <Position>
              <LatitudeDegrees>36.49352791719138622283935546875</LatitudeDegrees>
              <LongitudeDegrees>-5.4042399488389492034912109375</LongitudeDegrees>
            </Position>
            <AltitudeMeters>61.40000152587890625</AltitudeMeters>
            <DistanceMeters>9094.9418714899</DistanceMeters>
          </Trackpoint>
          <Trackpoint>
            <Time>2019-01-04T11:27:11.000Z</Time>
            <Position>
              <LatitudeDegrees>36.49352900683879852294921875</LatitudeDegrees>
              <LongitudeDegrees>-5.404240787029266357421875</LongitudeDegrees>
            </Position>
            <AltitudeMeters>61.40000152587890625</AltitudeMeters>
            <DistanceMeters>9095.1064625872</DistanceMeters>
          </Trackpoint>
          <Trackpoint>
            <Time>2019-01-04T11:27:12.000Z</Time>
            <Position>
              <LatitudeDegrees>36.49352967739105224609375</LatitudeDegrees>
              <LongitudeDegrees>-5.40424170903861522674560546875</LongitudeDegrees>
            </Position>
            <AltitudeMeters>61.40000152587890625</AltitudeMeters>
            <DistanceMeters>9095.2408506555</DistanceMeters>
          </Trackpoint>
          <Trackpoint>
            <Time>2019-01-04T11:27:13.000Z</Time>
            <Position>
              <LatitudeDegrees>36.49353009648621082305908203125</LatitudeDegrees>
              <LongitudeDegrees>-5.404241792857646942138671875</LongitudeDegrees>
            </Position>
            <AltitudeMeters>61.40000152587890625</AltitudeMeters>
            <DistanceMeters>9095.2408506555</DistanceMeters>
          </Trackpoint>
          <Trackpoint>
            <Time>2019-01-04T11:27:14.000Z</Time>
            <Position>
              <LatitudeDegrees>36.4935298450291156768798828125</LatitudeDegrees>
              <LongitudeDegrees>-5.404242463409900665283203125</LongitudeDegrees>
            </Position>
            <AltitudeMeters>61.200000762939453125</AltitudeMeters>
            <DistanceMeters>9095.3752387237</DistanceMeters>
          </Trackpoint>
          <Trackpoint>
            <Time>2019-01-04T11:27:15.000Z</Time>
            <Position>
              <LatitudeDegrees>36.49352959357202053070068359375</LatitudeDegrees>
              <LongitudeDegrees>-5.40424355305731296539306640625</LongitudeDegrees>
            </Position>
            <AltitudeMeters>61.200000762939453125</AltitudeMeters>
            <DistanceMeters>9095.3752387237</DistanceMeters>
          </Trackpoint>
          <Trackpoint>
            <Time>2019-01-04T11:27:16.000Z</Time>
            <Position>
              <LatitudeDegrees>36.49352892301976680755615234375</LatitudeDegrees>
              <LongitudeDegrees>-5.404244475066661834716796875</LongitudeDegrees>
            </Position>
            <AltitudeMeters>61.200000762939453125</AltitudeMeters>
            <DistanceMeters>9095.509626792</DistanceMeters>
          </Trackpoint>
          <Trackpoint>
            <Time>2019-01-04T11:27:17.000Z</Time>
            <Position>
              <LatitudeDegrees>36.4935288392007350921630859375</LatitudeDegrees>
              <LongitudeDegrees>-5.40424657054245471954345703125</LongitudeDegrees>
            </Position>
            <AltitudeMeters>61.200000762939453125</AltitudeMeters>
            <DistanceMeters>9095.6996802207</DistanceMeters>
          </Trackpoint>
          <Trackpoint>
            <Time>2019-01-04T11:27:18.000Z</Time>
            <Position>
              <LatitudeDegrees>36.4935288392007350921630859375</LatitudeDegrees>
              <LongitudeDegrees>-5.40424908511340618133544921875</LongitudeDegrees>
            </Position>
            <AltitudeMeters>61.200000762939453125</AltitudeMeters>
            <DistanceMeters>9095.9121664137</DistanceMeters>
          </Trackpoint>
          <Trackpoint>
            <Time>2019-01-04T11:27:19.000Z</Time>
            <Position>
              <LatitudeDegrees>36.49352766573429107666015625</LatitudeDegrees>
              <LongitudeDegrees>-5.40425227023661136627197265625</LongitudeDegrees>
            </Position>
            <AltitudeMeters>61</AltitudeMeters>
            <DistanceMeters>9096.2126672697</DistanceMeters>
          </Trackpoint>
          <Trackpoint>
            <Time>2019-01-04T11:27:20.000Z</Time>
            <Position>
              <LatitudeDegrees>36.4935261569917201995849609375</LatitudeDegrees>
              <LongitudeDegrees>-5.40425478480756282806396484375</LongitudeDegrees>
            </Position>
            <AltitudeMeters>61</AltitudeMeters>
            <DistanceMeters>9096.5131681257</DistanceMeters>
          </Trackpoint>
          <Trackpoint>
            <Time>2019-01-04T11:27:21.000Z</Time>
            <Position>
              <LatitudeDegrees>36.49352473206818103790283203125</LatitudeDegrees>
              <LongitudeDegrees>-5.40425620973110198974609375</LongitudeDegrees>
            </Position>
            <AltitudeMeters>61</AltitudeMeters>
            <DistanceMeters>9096.7032215544</DistanceMeters>
          </Trackpoint>
          <Trackpoint>
            <Time>2019-01-04T11:27:22.000Z</Time>
            <Position>
              <LatitudeDegrees>36.49352422915399074554443359375</LatitudeDegrees>
              <LongitudeDegrees>-5.40425796993076801300048828125</LongitudeDegrees>
            </Position>
            <AltitudeMeters>61</AltitudeMeters>
            <DistanceMeters>9096.8678126518</DistanceMeters>
          </Trackpoint>
          <Trackpoint>
            <Time>2019-01-04T11:27:23.000Z</Time>
            <Position>
              <LatitudeDegrees>36.4935241453349590301513671875</LatitudeDegrees>
              <LongitudeDegrees>-5.40425981394946575164794921875</LongitudeDegrees>
            </Position>
            <AltitudeMeters>61</AltitudeMeters>
            <DistanceMeters>9097.00220072</DistanceMeters>
          </Trackpoint>
          <Trackpoint>
            <Time>2019-01-04T11:27:24.000Z</Time>
            <Position>
              <LatitudeDegrees>36.49352439679205417633056640625</LatitudeDegrees>
              <LongitudeDegrees>-5.4042640887200832366943359375</LongitudeDegrees>
            </Position>
            <AltitudeMeters>61</AltitudeMeters>
            <DistanceMeters>9097.3823075775</DistanceMeters>
          </Trackpoint>
          <Trackpoint>
            <Time>2019-01-04T11:27:25.000Z</Time>
            <Position>
              <LatitudeDegrees>36.49352523498237133026123046875</LatitudeDegrees>
              <LongitudeDegrees>-5.40426752530038356781005859375</LongitudeDegrees>
            </Position>
            <AltitudeMeters>61</AltitudeMeters>
            <DistanceMeters>9097.6974755341</DistanceMeters>
          </Trackpoint>
          <Trackpoint>
            <Time>2019-01-04T11:27:26.000Z</Time>
            <Position>
              <LatitudeDegrees>36.49352498352527618408203125</LatitudeDegrees>
              <LongitudeDegrees>-5.40427087806165218353271484375</LongitudeDegrees>
            </Position>
            <AltitudeMeters>61</AltitudeMeters>
            <DistanceMeters>9097.9979763901</DistanceMeters>
          </Trackpoint>
          <Trackpoint>
            <Time>2019-01-04T11:27:27.000Z</Time>
            <Position>
              <LatitudeDegrees>36.49352422915399074554443359375</LatitudeDegrees>
              <LongitudeDegrees>-5.40427456609904766082763671875</LongitudeDegrees>
            </Position>
            <AltitudeMeters>61</AltitudeMeters>
            <DistanceMeters>9098.3406000813</DistanceMeters>
          </Trackpoint>
          <Trackpoint>
            <Time>2019-01-04T11:27:28.000Z</Time>
            <Position>
              <LatitudeDegrees>36.4935231395065784454345703125</LatitudeDegrees>
              <LongitudeDegrees>-5.40427607484161853790283203125</LongitudeDegrees>
            </Position>
            <AltitudeMeters>60.799999237060546875</AltitudeMeters>
            <DistanceMeters>9098.53065351</DistanceMeters>
          </Trackpoint>
          <Trackpoint>
            <Time>2019-01-04T11:27:29.000Z</Time>
            <Position>
              <LatitudeDegrees>36.49352305568754673004150390625</LatitudeDegrees>
              <LongitudeDegrees>-5.4042768292129039764404296875</LongitudeDegrees>
            </Position>
            <AltitudeMeters>60.799999237060546875</AltitudeMeters>
            <DistanceMeters>9098.6256802244</DistanceMeters>
          </Trackpoint>
          <Trackpoint>
            <Time>2019-01-04T11:27:30.000Z</Time>
            <Position>
              <LatitudeDegrees>36.49352272041141986846923828125</LatitudeDegrees>
              <LongitudeDegrees>-5.40427724830806255340576171875</LongitudeDegrees>
            </Position>
            <AltitudeMeters>60.799999237060546875</AltitudeMeters>
            <DistanceMeters>9098.6256802244</DistanceMeters>
          </Trackpoint>
          <Trackpoint>
            <Time>2019-01-04T11:27:31.000Z</Time>
            <Position>
              <LatitudeDegrees>36.4935224689543247222900390625</LatitudeDegrees>
              <LongitudeDegrees>-5.4042774997651576995849609375</LongitudeDegrees>
            </Position>
            <AltitudeMeters>60.799999237060546875</AltitudeMeters>
            <DistanceMeters>9098.6256802244</DistanceMeters>
          </Trackpoint>
          <Trackpoint>
            <Time>2019-01-04T11:27:32.000Z</Time>
            <Position>
              <LatitudeDegrees>36.4935224689543247222900390625</LatitudeDegrees>
              <LongitudeDegrees>-5.4042778350412845611572265625</LongitudeDegrees>
            </Position>
            <AltitudeMeters>60.799999237060546875</AltitudeMeters>
            <DistanceMeters>9098.6256802244</DistanceMeters>
          </Trackpoint>
          <Trackpoint>
            <Time>2019-01-04T11:27:33.000Z</Time>
            <Position>
              <LatitudeDegrees>36.493522636592388153076171875</LatitudeDegrees>
              <LongitudeDegrees>-5.40427825413644313812255859375</LongitudeDegrees>
            </Position>
            <AltitudeMeters>60.799999237060546875</AltitudeMeters>
            <DistanceMeters>9098.6256802244</DistanceMeters>
          </Trackpoint>
          <Trackpoint>
            <Time>2019-01-04T11:27:34.000Z</Time>
            <Position>
              <LatitudeDegrees>36.49352272041141986846923828125</LatitudeDegrees>
              <LongitudeDegrees>-5.404278673231601715087890625</LongitudeDegrees>
            </Position>
            <AltitudeMeters>60.799999237060546875</AltitudeMeters>
            <DistanceMeters>9098.6256802244</DistanceMeters>
          </Trackpoint>
          <Trackpoint>
            <Time>2019-01-04T11:27:35.000Z</Time>
            <Position>
              <LatitudeDegrees>36.49352288804948329925537109375</LatitudeDegrees>
              <LongitudeDegrees>-5.4042788408696651458740234375</LongitudeDegrees>
            </Position>
            <AltitudeMeters>60.799999237060546875</AltitudeMeters>
            <DistanceMeters>9098.6256802244</DistanceMeters>
          </Trackpoint>
          <Trackpoint>
            <Time>2019-01-04T11:27:36.000Z</Time>
            <Position>
              <LatitudeDegrees>36.4935231395065784454345703125</LatitudeDegrees>
              <LongitudeDegrees>-5.40427925996482372283935546875</LongitudeDegrees>
            </Position>
            <AltitudeMeters>60.799999237060546875</AltitudeMeters>
            <DistanceMeters>9098.6256802244</DistanceMeters>
          </Trackpoint>
          <Trackpoint>
            <Time>2019-01-04T11:27:37.000Z</Time>
            <Position>
              <LatitudeDegrees>36.49352305568754673004150390625</LatitudeDegrees>
              <LongitudeDegrees>-5.404280014336109161376953125</LongitudeDegrees>
            </Position>
            <AltitudeMeters>60.799999237060546875</AltitudeMeters>
            <DistanceMeters>9098.7207069388</DistanceMeters>
          </Trackpoint>
          <Trackpoint>
            <Time>2019-01-04T11:27:38.000Z</Time>
            <Position>
              <LatitudeDegrees>36.4935231395065784454345703125</LatitudeDegrees>
              <LongitudeDegrees>-5.4042798466980457305908203125</LongitudeDegrees>
            </Position>
            <AltitudeMeters>60.799999237060546875</AltitudeMeters>
            <DistanceMeters>9098.7207069388</DistanceMeters>
          </Trackpoint>
          <Trackpoint>
            <Time>2019-01-04T11:27:39.000Z</Time>
            <Position>
              <LatitudeDegrees>36.4935231395065784454345703125</LatitudeDegrees>
              <LongitudeDegrees>-5.40427942760288715362548828125</LongitudeDegrees>
            </Position>
            <AltitudeMeters>60.799999237060546875</AltitudeMeters>
            <DistanceMeters>9098.7207069388</DistanceMeters>
          </Trackpoint>
          <Trackpoint>
            <Time>2019-01-04T11:27:40.000Z</Time>
            <Position>
              <LatitudeDegrees>36.4935231395065784454345703125</LatitudeDegrees>
              <LongitudeDegrees>-5.4042796790599822998046875</LongitudeDegrees>
            </Position>
            <AltitudeMeters>60.799999237060546875</AltitudeMeters>
            <DistanceMeters>9098.7207069388</DistanceMeters>
          </Trackpoint>
          <Trackpoint>
            <Time>2019-01-04T11:27:41.000Z</Time>
            <Position>
              <LatitudeDegrees>36.4935229718685150146484375</LatitudeDegrees>
              <LongitudeDegrees>-5.404280014336109161376953125</LongitudeDegrees>
            </Position>
            <AltitudeMeters>60.799999237060546875</AltitudeMeters>
            <DistanceMeters>9098.7207069388</DistanceMeters>
          </Trackpoint>
          <Trackpoint>
            <Time>2019-01-04T11:27:42.000Z</Time>
            <Position>
              <LatitudeDegrees>36.49352272041141986846923828125</LatitudeDegrees>
              <LongitudeDegrees>-5.40428026579320430755615234375</LongitudeDegrees>
            </Position>
            <AltitudeMeters>60.799999237060546875</AltitudeMeters>
            <DistanceMeters>9098.7207069388</DistanceMeters>
          </Trackpoint>
          <Trackpoint>
            <Time>2019-01-04T11:27:43.000Z</Time>
            <Position>
              <LatitudeDegrees>36.493522636592388153076171875</LatitudeDegrees>
              <LongitudeDegrees>-5.40428043343126773834228515625</LongitudeDegrees>
            </Position>
            <AltitudeMeters>60.799999237060546875</AltitudeMeters>
            <DistanceMeters>9098.7207069388</DistanceMeters>
          </Trackpoint>
          <Trackpoint>
            <Time>2019-01-04T11:27:44.000Z</Time>
            <Position>
              <LatitudeDegrees>36.49352272041141986846923828125</LatitudeDegrees>
              <LongitudeDegrees>-5.40428034961223602294921875</LongitudeDegrees>
            </Position>
            <AltitudeMeters>60.799999237060546875</AltitudeMeters>
            <DistanceMeters>9098.7207069388</DistanceMeters>
          </Trackpoint>
          <Trackpoint>
            <Time>2019-01-04T11:27:45.000Z</Time>
            <Position>
              <LatitudeDegrees>36.493522636592388153076171875</LatitudeDegrees>
              <LongitudeDegrees>-5.40428009815514087677001953125</LongitudeDegrees>
            </Position>
            <AltitudeMeters>60.799999237060546875</AltitudeMeters>
            <DistanceMeters>9098.7207069388</DistanceMeters>
          </Trackpoint>
          <Trackpoint>
            <Time>2019-01-04T11:27:46.000Z</Time>
            <Position>
              <LatitudeDegrees>36.493522636592388153076171875</LatitudeDegrees>
              <LongitudeDegrees>-5.4042795114219188690185546875</LongitudeDegrees>
            </Position>
            <AltitudeMeters>60.799999237060546875</AltitudeMeters>
            <DistanceMeters>9098.7207069388</DistanceMeters>
          </Trackpoint>
          <Trackpoint>
            <Time>2019-01-04T11:27:47.000Z</Time>
            <Position>
              <LatitudeDegrees>36.49352288804948329925537109375</LatitudeDegrees>
              <LongitudeDegrees>-5.40427892468869686126708984375</LongitudeDegrees>
            </Position>
            <AltitudeMeters>60.799999237060546875</AltitudeMeters>
            <DistanceMeters>9098.7207069388</DistanceMeters>
          </Trackpoint>
          <Trackpoint>
            <Time>2019-01-04T11:27:48.000Z</Time>
            <Position>
              <LatitudeDegrees>36.49352272041141986846923828125</LatitudeDegrees>
              <LongitudeDegrees>-5.404278673231601715087890625</LongitudeDegrees>
            </Position>
            <AltitudeMeters>60.799999237060546875</AltitudeMeters>
            <DistanceMeters>9098.7207069388</DistanceMeters>
          </Trackpoint>
          <Trackpoint>
            <Time>2019-01-04T11:27:49.000Z</Time>
            <Position>
              <LatitudeDegrees>36.49352121166884899139404296875</LatitudeDegrees>
              <LongitudeDegrees>-5.40427791886031627655029296875</LongitudeDegrees>
            </Position>
            <AltitudeMeters>60.799999237060546875</AltitudeMeters>
            <DistanceMeters>9098.9107603675</DistanceMeters>
          </Trackpoint>
          <Trackpoint>
            <Time>2019-01-04T11:27:50.000Z</Time>
            <Position>
              <LatitudeDegrees>36.4935177750885486602783203125</LatitudeDegrees>
              <LongitudeDegrees>-5.40427339263260364532470703125</LongitudeDegrees>
            </Position>
            <AltitudeMeters>60.799999237060546875</AltitudeMeters>
            <DistanceMeters>9099.4729459913</DistanceMeters>
          </Trackpoint>
          <Trackpoint>
            <Time>2019-01-04T11:27:51.000Z</Time>
            <Position>
              <LatitudeDegrees>36.493515260517597198486328125</LatitudeDegrees>
              <LongitudeDegrees>-5.40427104569971561431884765625</LongitudeDegrees>
            </Position>
            <AltitudeMeters>60.799999237060546875</AltitudeMeters>
            <DistanceMeters>9099.828503399</DistanceMeters>
          </Trackpoint>
          <Trackpoint>
            <Time>2019-01-04T11:27:52.000Z</Time>
            <Position>
              <LatitudeDegrees>36.49351584725081920623779296875</LatitudeDegrees>
              <LongitudeDegrees>-5.40426936931908130645751953125</LongitudeDegrees>
            </Position>
            <AltitudeMeters>60.799999237060546875</AltitudeMeters>
            <DistanceMeters>9099.9930944964</DistanceMeters>
          </Trackpoint>
          <Trackpoint>
            <Time>2019-01-04T11:27:53.000Z</Time>
            <Position>
              <LatitudeDegrees>36.493516601622104644775390625</LatitudeDegrees>
              <LongitudeDegrees>-5.40427096188068389892578125</LongitudeDegrees>
            </Position>
            <AltitudeMeters>60.799999237060546875</AltitudeMeters>
            <DistanceMeters>9100.1831479251</DistanceMeters>
          </Trackpoint>
          <Trackpoint>
            <Time>2019-01-04T11:27:54.000Z</Time>
            <Position>
              <LatitudeDegrees>36.49351718835532665252685546875</LatitudeDegrees>
              <LongitudeDegrees>-5.4042724706232547760009765625</LongitudeDegrees>
            </Position>
            <AltitudeMeters>60.799999237060546875</AltitudeMeters>
            <DistanceMeters>9100.3175359934</DistanceMeters>
          </Trackpoint>
          <Trackpoint>
            <Time>2019-01-04T11:27:55.000Z</Time>
            <Position>
              <LatitudeDegrees>36.49351735599339008331298828125</LatitudeDegrees>
              <LongitudeDegrees>-5.4042731411755084991455078125</LongitudeDegrees>
            </Position>
            <AltitudeMeters>60.799999237060546875</AltitudeMeters>
            <DistanceMeters>9100.4519240616</DistanceMeters>
          </Trackpoint>
          <Trackpoint>
            <Time>2019-01-04T11:27:56.000Z</Time>
            <Position>
              <LatitudeDegrees>36.49351785890758037567138671875</LatitudeDegrees>
              <LongitudeDegrees>-5.40427037514746189117431640625</LongitudeDegrees>
            </Position>
            <AltitudeMeters>60.799999237060546875</AltitudeMeters>
            <DistanceMeters>9100.7033411158</DistanceMeters>
          </Trackpoint>
          <Trackpoint>
            <Time>2019-01-04T11:27:57.000Z</Time>
            <Position>
              <LatitudeDegrees>36.49351886473596096038818359375</LatitudeDegrees>
              <LongitudeDegrees>-5.40426827967166900634765625</LongitudeDegrees>
            </Position>
            <AltitudeMeters>60.799999237060546875</AltitudeMeters>
            <DistanceMeters>9100.9361080779</DistanceMeters>
          </Trackpoint>
          <Trackpoint>
            <Time>2019-01-04T11:27:58.000Z</Time>
            <Position>
              <LatitudeDegrees>36.493518613278865814208984375</LatitudeDegrees>
              <LongitudeDegrees>-5.4042664356529712677001953125</LongitudeDegrees>
            </Position>
            <AltitudeMeters>60.799999237060546875</AltitudeMeters>
            <DistanceMeters>9101.1006991753</DistanceMeters>
          </Trackpoint>
          <Trackpoint>
            <Time>2019-01-04T11:27:59.000Z</Time>
            <Position>
              <LatitudeDegrees>36.49351651780307292938232421875</LatitudeDegrees>
              <LongitudeDegrees>-5.404265262186527252197265625</LongitudeDegrees>
            </Position>
            <AltitudeMeters>60.799999237060546875</AltitudeMeters>
            <DistanceMeters>9101.3521162294</DistanceMeters>
          </Trackpoint>
          <Trackpoint>
            <Time>2019-01-04T11:28:00.000Z</Time>
            <Position>
              <LatitudeDegrees>36.49351433850824832916259765625</LatitudeDegrees>
              <LongitudeDegrees>-5.40426316671073436737060546875</LongitudeDegrees>
            </Position>
            <AltitudeMeters>60.799999237060546875</AltitudeMeters>
            <DistanceMeters>9101.6526170854</DistanceMeters>
          </Trackpoint>
          <Trackpoint>
            <Time>2019-01-04T11:28:01.000Z</Time>
            <Position>
              <LatitudeDegrees>36.49351249448955059051513671875</LatitudeDegrees>
              <LongitudeDegrees>-5.404262579977512359619140625</LongitudeDegrees>
            </Position>
            <AltitudeMeters>60.799999237060546875</AltitudeMeters>
            <DistanceMeters>9101.8426705141</DistanceMeters>
          </Trackpoint>
          <Trackpoint>
            <Time>2019-01-04T11:28:02.000Z</Time>
            <Position>
              <LatitudeDegrees>36.49351249448955059051513671875</LatitudeDegrees>
              <LongitudeDegrees>-5.40426182560622692108154296875</LongitudeDegrees>
            </Position>
            <AltitudeMeters>60.799999237060546875</AltitudeMeters>
            <DistanceMeters>9101.9376972285</DistanceMeters>
          </Trackpoint>
          <Trackpoint>
            <Time>2019-01-04T11:28:03.000Z</Time>
            <Position>
              <LatitudeDegrees>36.49351266212761402130126953125</LatitudeDegrees>
              <LongitudeDegrees>-5.40426098741590976715087890625</LongitudeDegrees>
            </Position>
            <AltitudeMeters>60.799999237060546875</AltitudeMeters>
            <DistanceMeters>9102.0327239428</DistanceMeters>
          </Trackpoint>
          <Trackpoint>
            <Time>2019-01-04T11:28:04.000Z</Time>
            <Position>
              <LatitudeDegrees>36.49351266212761402130126953125</LatitudeDegrees>
              <LongitudeDegrees>-5.4042604006826877593994140625</LongitudeDegrees>
            </Position>
            <AltitudeMeters>60.799999237060546875</AltitudeMeters>
            <DistanceMeters>NAN</DistanceMeters>
          </Trackpoint>
          <Trackpoint>
            <Time>2019-01-04T11:28:05.000Z</Time>
            <Position>
              <LatitudeDegrees>36.49351232685148715972900390625</LatitudeDegrees>
              <LongitudeDegrees>-5.4042597301304340362548828125</LongitudeDegrees>
            </Position>
            <AltitudeMeters>60.799999237060546875</AltitudeMeters>
            <DistanceMeters>NAN</DistanceMeters>
          </Trackpoint>
          <Trackpoint>
            <Time>2019-01-04T11:28:06.000Z</Time>
            <Position>
              <LatitudeDegrees>36.49351182393729686737060546875</LatitudeDegrees>
              <LongitudeDegrees>-5.404259227216243743896484375</LongitudeDegrees>
            </Position>
            <AltitudeMeters>60.799999237060546875</AltitudeMeters>
            <DistanceMeters>NAN</DistanceMeters>
          </Trackpoint>
          <Trackpoint>
            <Time>2019-01-04T11:28:07.000Z</Time>
            <Position>
              <LatitudeDegrees>36.49351400323212146759033203125</LatitudeDegrees>
              <LongitudeDegrees>-5.4042583890259265899658203125</LongitudeDegrees>
            </Position>
            <AltitudeMeters>60.799999237060546875</AltitudeMeters>
            <DistanceMeters>NAN</DistanceMeters>
          </Trackpoint>
          <Trackpoint>
            <Time>2019-01-04T11:28:08.000Z</Time>
            <Position>
              <LatitudeDegrees>36.49351165629923343658447265625</LatitudeDegrees>
              <LongitudeDegrees>-5.40425562299787998199462890625</LongitudeDegrees>
            </Position>
            <AltitudeMeters>60.799999237060546875</AltitudeMeters>
            <DistanceMeters>NAN</DistanceMeters>
          </Trackpoint>
          <Trackpoint>
            <Time>2019-01-04T11:28:09.000Z</Time>
            <Position>
              <LatitudeDegrees>36.4935117401182651519775390625</LatitudeDegrees>
              <LongitudeDegrees>-5.40425218641757965087890625</LongitudeDegrees>
            </Position>
            <AltitudeMeters>60.799999237060546875</AltitudeMeters>
            <DistanceMeters>NAN</DistanceMeters>
          </Trackpoint>
          <Trackpoint>
            <Time>2019-01-04T11:28:10.000Z</Time>
            <Position>
              <LatitudeDegrees>36.493511237204074859619140625</LatitudeDegrees>
              <LongitudeDegrees>-5.404251180589199066162109375</LongitudeDegrees>
            </Position>
            <AltitudeMeters>60.799999237060546875</AltitudeMeters>
            <DistanceMeters>NAN</DistanceMeters>
          </Trackpoint>
          <Trackpoint>
            <Time>2019-01-04T11:28:11.000Z</Time>
            <Position>
              <LatitudeDegrees>36.4935114048421382904052734375</LatitudeDegrees>
              <LongitudeDegrees>-5.40425143204629421234130859375</LongitudeDegrees>
            </Position>
            <AltitudeMeters>60.799999237060546875</AltitudeMeters>
            <DistanceMeters>NAN</DistanceMeters>
          </Trackpoint>
          <Trackpoint>
            <Time>2019-01-04T11:28:12.000Z</Time>
            <Position>
              <LatitudeDegrees>36.49351132102310657501220703125</LatitudeDegrees>
              <LongitudeDegrees>-5.4042510129511356353759765625</LongitudeDegrees>
            </Position>
            <AltitudeMeters>60.799999237060546875</AltitudeMeters>
            <DistanceMeters>NAN</DistanceMeters>
          </Trackpoint>
          <Trackpoint>
            <Time>2019-01-04T11:28:13.000Z</Time>
            <Position>
              <LatitudeDegrees>36.4935110695660114288330078125</LatitudeDegrees>
              <LongitudeDegrees>-5.40425059385597705841064453125</LongitudeDegrees>
            </Position>
            <AltitudeMeters>60.799999237060546875</AltitudeMeters>
            <DistanceMeters>NAN</DistanceMeters>
          </Trackpoint>
          <Trackpoint>
            <Time>2019-01-04T11:28:14.000Z</Time>
            <Position>
              <LatitudeDegrees>36.4935107342898845672607421875</LatitudeDegrees>
              <LongitudeDegrees>-5.40424925275146961212158203125</LongitudeDegrees>
            </Position>
            <AltitudeMeters>60.799999237060546875</AltitudeMeters>
            <DistanceMeters>NAN</DistanceMeters>
          </Trackpoint>
          <Trackpoint>
            <Time>2019-01-04T11:28:15.000Z</Time>
            <Position>
              <LatitudeDegrees>36.493510566651821136474609375</LatitudeDegrees>
              <LongitudeDegrees>-5.40424757637083530426025390625</LongitudeDegrees>
            </Position>
            <AltitudeMeters>60.799999237060546875</AltitudeMeters>
            <DistanceMeters>NAN</DistanceMeters>
          </Trackpoint>
          <Trackpoint>
            <Time>2019-01-04T11:28:16.000Z</Time>
            <Position>
              <LatitudeDegrees>36.49351182393729686737060546875</LatitudeDegrees>
              <LongitudeDegrees>-5.4042466543614864349365234375</LongitudeDegrees>
            </Position>
            <AltitudeMeters>60.799999237060546875</AltitudeMeters>
            <DistanceMeters>NAN</DistanceMeters>
          </Trackpoint>
          <Trackpoint>
            <Time>2019-01-04T11:28:17.000Z</Time>
            <Position>
              <LatitudeDegrees>36.4935154281556606292724609375</LatitudeDegrees>
              <LongitudeDegrees>-5.4042419604957103729248046875</LongitudeDegrees>
            </Position>
            <AltitudeMeters>60.799999237060546875</AltitudeMeters>
            <DistanceMeters>NAN</DistanceMeters>
          </Trackpoint>
          <Trackpoint>
            <Time>2019-01-04T11:28:18.000Z</Time>
            <Position>
              <LatitudeDegrees>36.4935147576034069061279296875</LatitudeDegrees>
              <LongitudeDegrees>-5.40424070321023464202880859375</LongitudeDegrees>
            </Position>
            <AltitudeMeters>60.799999237060546875</AltitudeMeters>
            <DistanceMeters>NAN</DistanceMeters>
          </Trackpoint>
          <Trackpoint>
            <Time>2019-01-04T11:28:19.000Z</Time>
            <Position>
              <LatitudeDegrees>36.4935150928795337677001953125</LatitudeDegrees>
              <LongitudeDegrees>-5.404237769544124603271484375</LongitudeDegrees>
            </Position>
            <AltitudeMeters>60.799999237060546875</AltitudeMeters>
            <DistanceMeters>NAN</DistanceMeters>
          </Trackpoint>
          <Trackpoint>
            <Time>2019-01-04T11:28:20.000Z</Time>
            <Position>
              <LatitudeDegrees>36.49351651780307292938232421875</LatitudeDegrees>
              <LongitudeDegrees>-5.404235087335109710693359375</LongitudeDegrees>
            </Position>
            <AltitudeMeters>60.799999237060546875</AltitudeMeters>
            <DistanceMeters>NAN</DistanceMeters>
          </Trackpoint>
          <Trackpoint>
            <Time>2019-01-04T11:28:21.000Z</Time>
            <Position>
              <LatitudeDegrees>36.49351852945983409881591796875</LatitudeDegrees>
              <LongitudeDegrees>-5.40423282422125339508056640625</LongitudeDegrees>
            </Position>
            <AltitudeMeters>60.799999237060546875</AltitudeMeters>
            <DistanceMeters>NAN</DistanceMeters>
          </Trackpoint>
          <Trackpoint>
            <Time>2019-01-04T11:28:22.000Z</Time>
            <Position>
              <LatitudeDegrees>36.49351886473596096038818359375</LatitudeDegrees>
              <LongitudeDegrees>-5.40423215366899967193603515625</LongitudeDegrees>
            </Position>
            <AltitudeMeters>60.799999237060546875</AltitudeMeters>
            <DistanceMeters>NAN</DistanceMeters>
          </Trackpoint>
          <Trackpoint>
            <Time>2019-01-04T11:28:23.000Z</Time>
            <Position>
              <LatitudeDegrees>36.49351869709789752960205078125</LatitudeDegrees>
              <LongitudeDegrees>-5.40423181839287281036376953125</LongitudeDegrees>
            </Position>
            <AltitudeMeters>60.799999237060546875</AltitudeMeters>
            <DistanceMeters>NAN</DistanceMeters>
          </Trackpoint>
          <Trackpoint>
            <Time>2019-01-04T11:28:24.000Z</Time>
            <Position>
              <LatitudeDegrees>36.493519283831119537353515625</LatitudeDegrees>
              <LongitudeDegrees>-5.40423081256449222564697265625</LongitudeDegrees>
            </Position>
            <AltitudeMeters>60.799999237060546875</AltitudeMeters>
            <DistanceMeters>NAN</DistanceMeters>
          </Trackpoint>
          <Trackpoint>
            <Time>2019-01-04T11:28:25.000Z</Time>
            <Position>
              <LatitudeDegrees>36.4935197867453098297119140625</LatitudeDegrees>
              <LongitudeDegrees>-5.40422980673611164093017578125</LongitudeDegrees>
            </Position>
            <AltitudeMeters>60.799999237060546875</AltitudeMeters>
            <DistanceMeters>NAN</DistanceMeters>
          </Trackpoint>
          <Trackpoint>
            <Time>2019-01-04T11:28:26.000Z</Time>
            <Position>
              <LatitudeDegrees>36.4935197867453098297119140625</LatitudeDegrees>
              <LongitudeDegrees>-5.4042287170886993408203125</LongitudeDegrees>
            </Position>
            <AltitudeMeters>60.799999237060546875</AltitudeMeters>
            <DistanceMeters>NAN</DistanceMeters>
          </Trackpoint>
          <Trackpoint>
            <Time>2019-01-04T11:28:27.000Z</Time>
            <Position>
              <LatitudeDegrees>36.493519283831119537353515625</LatitudeDegrees>
              <LongitudeDegrees>-5.40422813035547733306884765625</LongitudeDegrees>
            </Position>
            <AltitudeMeters>60.799999237060546875</AltitudeMeters>
            <DistanceMeters>NAN</DistanceMeters>
          </Trackpoint>
          <Trackpoint>
            <Time>2019-01-04T11:28:28.000Z</Time>
            <Position>
              <LatitudeDegrees>36.49351886473596096038818359375</LatitudeDegrees>
              <LongitudeDegrees>-5.40422737598419189453125</LongitudeDegrees>
            </Position>
            <AltitudeMeters>60.799999237060546875</AltitudeMeters>
            <DistanceMeters>NAN</DistanceMeters>
          </Trackpoint>
          <Trackpoint>
            <Time>2019-01-04T11:28:29.000Z</Time>
            <Position>
              <LatitudeDegrees>36.49351852945983409881591796875</LatitudeDegrees>
              <LongitudeDegrees>-5.4042268730700016021728515625</LongitudeDegrees>
            </Position>
            <AltitudeMeters>60.799999237060546875</AltitudeMeters>
            <DistanceMeters>NAN</DistanceMeters>
          </Trackpoint>
          <Trackpoint>
            <Time>2019-01-04T11:28:30.000Z</Time>
            <Position>
              <LatitudeDegrees>36.4935187809169292449951171875</LatitudeDegrees>
              <LongitudeDegrees>-5.404226370155811309814453125</LongitudeDegrees>
            </Position>
            <AltitudeMeters>60.799999237060546875</AltitudeMeters>
            <DistanceMeters>NAN</DistanceMeters>
          </Trackpoint>
          <Trackpoint>
            <Time>2019-01-04T11:28:31.000Z</Time>
            <Position>
              <LatitudeDegrees>36.4935191161930561065673828125</LatitudeDegrees>
              <LongitudeDegrees>-5.40422477759420871734619140625</LongitudeDegrees>
            </Position>
            <AltitudeMeters>60.799999237060546875</AltitudeMeters>
            <DistanceMeters>NAN</DistanceMeters>
          </Trackpoint>
          <Trackpoint>
            <Time>2019-01-04T11:28:32.000Z</Time>
            <Position>
              <LatitudeDegrees>36.49351987056434154510498046875</LatitudeDegrees>
              <LongitudeDegrees>-5.404224358499050140380859375</LongitudeDegrees>
            </Position>
            <AltitudeMeters>60.799999237060546875</AltitudeMeters>
            <DistanceMeters>NAN</DistanceMeters>
          </Trackpoint>
          <Trackpoint>
            <Time>2019-01-04T11:28:33.000Z</Time>
            <Position>
              <LatitudeDegrees>36.49352003820240497589111328125</LatitudeDegrees>
              <LongitudeDegrees>-5.404224358499050140380859375</LongitudeDegrees>
            </Position>
            <AltitudeMeters>60.799999237060546875</AltitudeMeters>
            <DistanceMeters>NAN</DistanceMeters>
          </Trackpoint>
          <Trackpoint>
            <Time>2019-01-04T11:28:34.000Z</Time>
            <Position>
              <LatitudeDegrees>36.493518613278865814208984375</LatitudeDegrees>
              <LongitudeDegrees>-5.404223687946796417236328125</LongitudeDegrees>
            </Position>
            <AltitudeMeters>60.799999237060546875</AltitudeMeters>
            <DistanceMeters>NAN</DistanceMeters>
          </Trackpoint>
          <Trackpoint>
            <Time>2019-01-04T11:28:35.000Z</Time>
            <Position>
              <LatitudeDegrees>36.4935177750885486602783203125</LatitudeDegrees>
              <LongitudeDegrees>-5.40422268211841583251953125</LongitudeDegrees>
            </Position>
            <AltitudeMeters>60.799999237060546875</AltitudeMeters>
            <DistanceMeters>NAN</DistanceMeters>
          </Trackpoint>
          <Trackpoint>
            <Time>2019-01-04T11:28:36.000Z</Time>
            <Position>
              <LatitudeDegrees>36.49351752363145351409912109375</LatitudeDegrees>
              <LongitudeDegrees>-5.40422268211841583251953125</LongitudeDegrees>
            </Position>
            <AltitudeMeters>60.799999237060546875</AltitudeMeters>
            <DistanceMeters>NAN</DistanceMeters>
          </Trackpoint>
          <Trackpoint>
            <Time>2019-01-04T11:28:37.000Z</Time>
            <Position>
              <LatitudeDegrees>36.49351668544113636016845703125</LatitudeDegrees>
              <LongitudeDegrees>-5.40422268211841583251953125</LongitudeDegrees>
            </Position>
            <AltitudeMeters>60.799999237060546875</AltitudeMeters>
            <DistanceMeters>NAN</DistanceMeters>
          </Trackpoint>
          <Trackpoint>
            <Time>2019-01-04T11:28:38.000Z</Time>
            <Position>
              <LatitudeDegrees>36.49351735599339008331298828125</LatitudeDegrees>
              <LongitudeDegrees>-5.4042225144803524017333984375</LongitudeDegrees>
            </Position>
            <AltitudeMeters>60.799999237060546875</AltitudeMeters>
            <DistanceMeters>NAN</DistanceMeters>
          </Trackpoint>
          <Trackpoint>
            <Time>2019-01-04T11:28:39.000Z</Time>
            <Position>
              <LatitudeDegrees>36.4935204572975635528564453125</LatitudeDegrees>
              <LongitudeDegrees>-5.4042225144803524017333984375</LongitudeDegrees>
            </Position>
            <AltitudeMeters>60.799999237060546875</AltitudeMeters>
            <DistanceMeters>NAN</DistanceMeters>
          </Trackpoint>
          <Trackpoint>
            <Time>2019-01-04T11:28:40.000Z</Time>
            <Position>
              <LatitudeDegrees>36.49352422915399074554443359375</LatitudeDegrees>
              <LongitudeDegrees>-5.40422226302325725555419921875</LongitudeDegrees>
            </Position>
            <AltitudeMeters>60.799999237060546875</AltitudeMeters>
            <DistanceMeters>NAN</DistanceMeters>
          </Trackpoint>
          <Trackpoint>
            <Time>2019-01-04T11:28:41.000Z</Time>
            <Position>
              <LatitudeDegrees>36.4935285039246082305908203125</LatitudeDegrees>
              <LongitudeDegrees>-5.40422159247100353240966796875</LongitudeDegrees>
            </Position>
            <AltitudeMeters>60.799999237060546875</AltitudeMeters>
            <DistanceMeters>NAN</DistanceMeters>
          </Trackpoint>
          <Trackpoint>
            <Time>2019-01-04T11:28:42.000Z</Time>
            <Position>
              <LatitudeDegrees>36.493531353771686553955078125</LatitudeDegrees>
              <LongitudeDegrees>-5.404222346842288970947265625</LongitudeDegrees>
            </Position>
            <AltitudeMeters>60.799999237060546875</AltitudeMeters>
            <DistanceMeters>NAN</DistanceMeters>
          </Trackpoint>
          <Trackpoint>
            <Time>2019-01-04T11:28:43.000Z</Time>
            <Position>
              <LatitudeDegrees>36.4935390651226043701171875</LatitudeDegrees>
              <LongitudeDegrees>-5.40422142483294010162353515625</LongitudeDegrees>
            </Position>
            <AltitudeMeters>60.799999237060546875</AltitudeMeters>
            <DistanceMeters>NAN</DistanceMeters>
          </Trackpoint>
          <Trackpoint>
            <Time>2019-01-04T11:28:44.000Z</Time>
            <Position>
              <LatitudeDegrees>36.49354166351258754730224609375</LatitudeDegrees>
              <LongitudeDegrees>-5.4042191617190837860107421875</LongitudeDegrees>
            </Position>
            <AltitudeMeters>60.799999237060546875</AltitudeMeters>
            <DistanceMeters>NAN</DistanceMeters>
          </Trackpoint>
          <Trackpoint>
            <Time>2019-01-04T11:28:45.000Z</Time>
            <Position>
              <LatitudeDegrees>36.493545435369014739990234375</LatitudeDegrees>
              <LongitudeDegrees>-5.40421656332910060882568359375</LongitudeDegrees>
            </Position>
            <AltitudeMeters>60.799999237060546875</AltitudeMeters>
            <DistanceMeters>NAN</DistanceMeters>
          </Trackpoint>
          <Trackpoint>
            <Time>2019-01-04T11:28:46.000Z</Time>
            <Position>
              <LatitudeDegrees>36.493550799787044525146484375</LatitudeDegrees>
              <LongitudeDegrees>-5.40421572513878345489501953125</LongitudeDegrees>
            </Position>
            <AltitudeMeters>60.799999237060546875</AltitudeMeters>
            <DistanceMeters>NAN</DistanceMeters>
          </Trackpoint>
          <Trackpoint>
            <Time>2019-01-04T11:28:47.000Z</Time>
            <Position>
              <LatitudeDegrees>36.49355239234864711761474609375</LatitudeDegrees>
              <LongitudeDegrees>-5.40421354584395885467529296875</LongitudeDegrees>
            </Position>
            <AltitudeMeters>60.799999237060546875</AltitudeMeters>
            <DistanceMeters>NAN</DistanceMeters>
          </Trackpoint>
          <Trackpoint>
            <Time>2019-01-04T11:28:48.000Z</Time>
            <Position>
              <LatitudeDegrees>36.4935529790818691253662109375</LatitudeDegrees>
              <LongitudeDegrees>-5.40421019308269023895263671875</LongitudeDegrees>
            </Position>
            <AltitudeMeters>60.799999237060546875</AltitudeMeters>
            <DistanceMeters>NAN</DistanceMeters>
          </Trackpoint>
          <Trackpoint>
            <Time>2019-01-04T11:28:49.000Z</Time>
            <Position>
              <LatitudeDegrees>36.493553817272186279296875</LatitudeDegrees>
              <LongitudeDegrees>-5.4042067565023899078369140625</LongitudeDegrees>
            </Position>
            <AltitudeMeters>60.799999237060546875</AltitudeMeters>
            <DistanceMeters>NAN</DistanceMeters>
          </Trackpoint>
          <Trackpoint>
            <Time>2019-01-04T11:28:50.000Z</Time>
            <Position>
              <LatitudeDegrees>36.49355557747185230255126953125</LatitudeDegrees>
              <LongitudeDegrees>-5.40420499630272388458251953125</LongitudeDegrees>
            </Position>
            <AltitudeMeters>60.799999237060546875</AltitudeMeters>
            <DistanceMeters>NAN</DistanceMeters>
          </Trackpoint>
          <Trackpoint>
            <Time>2019-01-04T11:28:51.000Z</Time>
            <Position>
              <LatitudeDegrees>36.4935566671192646026611328125</LatitudeDegrees>
              <LongitudeDegrees>-5.4042040742933750152587890625</LongitudeDegrees>
            </Position>
            <AltitudeMeters>60.799999237060546875</AltitudeMeters>
            <DistanceMeters>NAN</DistanceMeters>
          </Trackpoint>
          <Trackpoint>
            <Time>2019-01-04T11:28:52.000Z</Time>
            <Position>
              <LatitudeDegrees>36.49355624802410602569580078125</LatitudeDegrees>
              <LongitudeDegrees>-5.4042030684649944305419921875</LongitudeDegrees>
            </Position>
            <AltitudeMeters>60.799999237060546875</AltitudeMeters>
            <DistanceMeters>NAN</DistanceMeters>
          </Trackpoint>
          <Trackpoint>
            <Time>2019-01-04T11:28:53.000Z</Time>
            <Position>
              <LatitudeDegrees>36.49355440400540828704833984375</LatitudeDegrees>
              <LongitudeDegrees>-5.404200889170169830322265625</LongitudeDegrees>
            </Position>
            <AltitudeMeters>60.799999237060546875</AltitudeMeters>
            <DistanceMeters>NAN</DistanceMeters>
          </Trackpoint>
          <Trackpoint>
            <Time>2019-01-04T11:28:54.000Z</Time>
            <Position>
              <LatitudeDegrees>36.49355255998671054840087890625</LatitudeDegrees>
              <LongitudeDegrees>-5.4041990451514720916748046875</LongitudeDegrees>
            </Position>
            <AltitudeMeters>60.799999237060546875</AltitudeMeters>
            <DistanceMeters>NAN</DistanceMeters>
          </Trackpoint>
          <Trackpoint>
            <Time>2019-01-04T11:28:55.000Z</Time>
            <Position>
              <LatitudeDegrees>36.493550799787044525146484375</LatitudeDegrees>
              <LongitudeDegrees>-5.4041970334947109222412109375</LongitudeDegrees>
            </Position>
            <AltitudeMeters>60.799999237060546875</AltitudeMeters>
            <DistanceMeters>NAN</DistanceMeters>
          </Trackpoint>
          <Trackpoint>
            <Time>2019-01-04T11:28:56.000Z</Time>
            <Position>
              <LatitudeDegrees>36.4935476146638393402099609375</LatitudeDegrees>
              <LongitudeDegrees>-5.40419577620923519134521484375</LongitudeDegrees>
            </Position>
            <AltitudeMeters>60.799999237060546875</AltitudeMeters>
            <DistanceMeters>NAN</DistanceMeters>
          </Trackpoint>
          <Trackpoint>
            <Time>2019-01-04T11:28:57.000Z</Time>
            <Position>
              <LatitudeDegrees>36.4935439266264438629150390625</LatitudeDegrees>
              <LongitudeDegrees>-5.404192507266998291015625</LongitudeDegrees>
            </Position>
            <AltitudeMeters>60.799999237060546875</AltitudeMeters>
            <DistanceMeters>NAN</DistanceMeters>
          </Trackpoint>
          <Trackpoint>
            <Time>2019-01-04T11:28:58.000Z</Time>
            <Position>
              <LatitudeDegrees>36.4935409091413021087646484375</LatitudeDegrees>
              <LongitudeDegrees>-5.4041911661624908447265625</LongitudeDegrees>
            </Position>
            <AltitudeMeters>60.799999237060546875</AltitudeMeters>
            <DistanceMeters>NAN</DistanceMeters>
          </Trackpoint>
          <Trackpoint>
            <Time>2019-01-04T11:28:59.000Z</Time>
            <Position>
              <LatitudeDegrees>36.49353596381843090057373046875</LatitudeDegrees>
              <LongitudeDegrees>-5.4041879810392856597900390625</LongitudeDegrees>
            </Position>
            <AltitudeMeters>60.799999237060546875</AltitudeMeters>
            <DistanceMeters>NAN</DistanceMeters>
          </Trackpoint>
          <Trackpoint>
            <Time>2019-01-04T11:29:00.000Z</Time>
            <Position>
              <LatitudeDegrees>36.49353261105716228485107421875</LatitudeDegrees>
              <LongitudeDegrees>-5.4041858017444610595703125</LongitudeDegrees>
            </Position>
            <AltitudeMeters>60.799999237060546875</AltitudeMeters>
            <DistanceMeters>NAN</DistanceMeters>
          </Trackpoint>
          <Trackpoint>
            <Time>2019-01-04T11:29:01.000Z</Time>
            <Position>
              <LatitudeDegrees>36.4935318566858768463134765625</LatitudeDegrees>
              <LongitudeDegrees>-5.40418202988803386688232421875</LongitudeDegrees>
            </Position>
            <AltitudeMeters>60.799999237060546875</AltitudeMeters>
            <DistanceMeters>NAN</DistanceMeters>
          </Trackpoint>
          <Trackpoint>
            <Time>2019-01-04T11:29:02.000Z</Time>
            <Position>
              <LatitudeDegrees>36.49352909065783023834228515625</LatitudeDegrees>
              <LongitudeDegrees>-5.40417901240289211273193359375</LongitudeDegrees>
            </Position>
            <AltitudeMeters>60.799999237060546875</AltitudeMeters>
            <DistanceMeters>NAN</DistanceMeters>
          </Trackpoint>
          <Trackpoint>
            <Time>2019-01-04T11:29:03.000Z</Time>
            <Position>
              <LatitudeDegrees>36.49352858774363994598388671875</LatitudeDegrees>
              <LongitudeDegrees>-5.4041789285838603973388671875</LongitudeDegrees>
            </Position>
            <AltitudeMeters>60.799999237060546875</AltitudeMeters>
            <DistanceMeters>NAN</DistanceMeters>
          </Trackpoint>
          <Trackpoint>
            <Time>2019-01-04T11:29:04.000Z</Time>
            <Position>
              <LatitudeDegrees>36.49352825246751308441162109375</LatitudeDegrees>
              <LongitudeDegrees>-5.4041775874793529510498046875</LongitudeDegrees>
            </Position>
            <AltitudeMeters>60.799999237060546875</AltitudeMeters>
            <DistanceMeters>NAN</DistanceMeters>
          </Trackpoint>
          <Trackpoint>
            <Time>2019-01-04T11:29:05.000Z</Time>
            <Position>
              <LatitudeDegrees>36.4935283362865447998046875</LatitudeDegrees>
              <LongitudeDegrees>-5.40417574346065521240234375</LongitudeDegrees>
            </Position>
            <AltitudeMeters>60.799999237060546875</AltitudeMeters>
            <DistanceMeters>NAN</DistanceMeters>
          </Trackpoint>
          <Trackpoint>
            <Time>2019-01-04T11:29:06.000Z</Time>
            <Position>
              <LatitudeDegrees>36.49352624081075191497802734375</LatitudeDegrees>
              <LongitudeDegrees>-5.40417733602225780487060546875</LongitudeDegrees>
            </Position>
            <AltitudeMeters>60.799999237060546875</AltitudeMeters>
            <DistanceMeters>NAN</DistanceMeters>
          </Trackpoint>
          <Trackpoint>
            <Time>2019-01-04T11:29:07.000Z</Time>
            <Position>
              <LatitudeDegrees>36.49352288804948329925537109375</LatitudeDegrees>
              <LongitudeDegrees>-5.40417884476482868194580078125</LongitudeDegrees>
            </Position>
            <AltitudeMeters>60.799999237060546875</AltitudeMeters>
            <DistanceMeters>NAN</DistanceMeters>
          </Trackpoint>
          <Trackpoint>
            <Time>2019-01-04T11:29:08.000Z</Time>
            <Position>
              <LatitudeDegrees>36.4935234747827053070068359375</LatitudeDegrees>
              <LongitudeDegrees>-5.404179096221923828125</LongitudeDegrees>
            </Position>
            <AltitudeMeters>60.799999237060546875</AltitudeMeters>
            <DistanceMeters>NAN</DistanceMeters>
          </Trackpoint>
          <Trackpoint>
            <Time>2019-01-04T11:29:09.000Z</Time>
            <Position>
              <LatitudeDegrees>36.4935234747827053070068359375</LatitudeDegrees>
              <LongitudeDegrees>-5.40417901240289211273193359375</LongitudeDegrees>
            </Position>
            <AltitudeMeters>60.799999237060546875</AltitudeMeters>
            <DistanceMeters>NAN</DistanceMeters>
          </Trackpoint>
          <Trackpoint>
            <Time>2019-01-04T11:29:10.000Z</Time>
            <Position>
              <LatitudeDegrees>36.49352355860173702239990234375</LatitudeDegrees>
              <LongitudeDegrees>-5.4041782580316066741943359375</LongitudeDegrees>
            </Position>
            <AltitudeMeters>60.799999237060546875</AltitudeMeters>
            <DistanceMeters>NAN</DistanceMeters>
          </Trackpoint>
          <Trackpoint>
            <Time>2019-01-04T11:29:11.000Z</Time>
            <Position>
              <LatitudeDegrees>36.49352339096367359161376953125</LatitudeDegrees>
              <LongitudeDegrees>-5.40417767129838466644287109375</LongitudeDegrees>
            </Position>
            <AltitudeMeters>60.799999237060546875</AltitudeMeters>
            <DistanceMeters>NAN</DistanceMeters>
          </Trackpoint>
          <Trackpoint>
            <Time>2019-01-04T11:29:12.000Z</Time>
            <Position>
              <LatitudeDegrees>36.49352221749722957611083984375</LatitudeDegrees>
              <LongitudeDegrees>-5.40417633019387722015380859375</LongitudeDegrees>
            </Position>
            <AltitudeMeters>60.799999237060546875</AltitudeMeters>
            <DistanceMeters>NAN</DistanceMeters>
          </Trackpoint>
          <Trackpoint>
            <Time>2019-01-04T11:29:13.000Z</Time>
            <Position>
              <LatitudeDegrees>36.4935201220214366912841796875</LatitudeDegrees>
              <LongitudeDegrees>-5.4041742347180843353271484375</LongitudeDegrees>
            </Position>
            <AltitudeMeters>60.799999237060546875</AltitudeMeters>
            <DistanceMeters>NAN</DistanceMeters>
          </Trackpoint>
          <Trackpoint>
            <Time>2019-01-04T11:29:14.000Z</Time>
            <Position>
              <LatitudeDegrees>36.49351785890758037567138671875</LatitudeDegrees>
              <LongitudeDegrees>-5.40417280979454517364501953125</LongitudeDegrees>
            </Position>
            <AltitudeMeters>60.799999237060546875</AltitudeMeters>
            <DistanceMeters>NAN</DistanceMeters>
          </Trackpoint>
          <Trackpoint>
            <Time>2019-01-04T11:29:15.000Z</Time>
            <Position>
              <LatitudeDegrees>36.4935149252414703369140625</LatitudeDegrees>
              <LongitudeDegrees>-5.40417146869003772735595703125</LongitudeDegrees>
            </Position>
            <AltitudeMeters>60.799999237060546875</AltitudeMeters>
            <DistanceMeters>NAN</DistanceMeters>
          </Trackpoint>
          <Trackpoint>
            <Time>2019-01-04T11:29:16.000Z</Time>
            <Position>
              <LatitudeDegrees>36.49351567961275577545166015625</LatitudeDegrees>
              <LongitudeDegrees>-5.4041702114045619964599609375</LongitudeDegrees>
            </Position>
            <AltitudeMeters>60.799999237060546875</AltitudeMeters>
            <DistanceMeters>NAN</DistanceMeters>
          </Trackpoint>
          <Trackpoint>
            <Time>2019-01-04T11:29:17.000Z</Time>
            <Position>
              <LatitudeDegrees>36.49351894855499267578125</LatitudeDegrees>
              <LongitudeDegrees>-5.40416928939521312713623046875</LongitudeDegrees>
            </Position>
            <AltitudeMeters>60.799999237060546875</AltitudeMeters>
            <DistanceMeters>NAN</DistanceMeters>
          </Trackpoint>
          <Trackpoint>
            <Time>2019-01-04T11:29:18.000Z</Time>
            <Position>
              <LatitudeDegrees>36.493519283831119537353515625</LatitudeDegrees>
              <LongitudeDegrees>-5.404168032109737396240234375</LongitudeDegrees>
            </Position>
            <AltitudeMeters>60.799999237060546875</AltitudeMeters>
            <DistanceMeters>NAN</DistanceMeters>
          </Trackpoint>
          <Trackpoint>
            <Time>2019-01-04T11:29:19.000Z</Time>
            <Position>
              <LatitudeDegrees>36.493521630764007568359375</LatitudeDegrees>
              <LongitudeDegrees>-5.404167361557483673095703125</LongitudeDegrees>
            </Position>
            <AltitudeMeters>60.799999237060546875</AltitudeMeters>
            <DistanceMeters>NAN</DistanceMeters>
          </Trackpoint>
          <Trackpoint>
            <Time>2019-01-04T11:29:20.000Z</Time>
            <Position>
              <LatitudeDegrees>36.493523977696895599365234375</LatitudeDegrees>
              <LongitudeDegrees>-5.40416694246232509613037109375</LongitudeDegrees>
            </Position>
            <AltitudeMeters>60.799999237060546875</AltitudeMeters>
            <DistanceMeters>NAN</DistanceMeters>
          </Trackpoint>
          <Trackpoint>
            <Time>2019-01-04T11:29:21.000Z</Time>
            <Position>
              <LatitudeDegrees>36.49352657608687877655029296875</LatitudeDegrees>
              <LongitudeDegrees>-5.40416711010038852691650390625</LongitudeDegrees>
            </Position>
            <AltitudeMeters>60.799999237060546875</AltitudeMeters>
            <DistanceMeters>NAN</DistanceMeters>
          </Trackpoint>
          <Trackpoint>
            <Time>2019-01-04T11:29:22.000Z</Time>
            <Position>
              <LatitudeDegrees>36.49352758191525936126708984375</LatitudeDegrees>
              <LongitudeDegrees>-5.4041685350239276885986328125</LongitudeDegrees>
            </Position>
            <AltitudeMeters>60.799999237060546875</AltitudeMeters>
            <DistanceMeters>NAN</DistanceMeters>
          </Trackpoint>
          <Trackpoint>
            <Time>2019-01-04T11:29:23.000Z</Time>
            <Position>
              <LatitudeDegrees>36.49353026412427425384521484375</LatitudeDegrees>
              <LongitudeDegrees>-5.40417348034679889678955078125</LongitudeDegrees>
            </Position>
            <AltitudeMeters>60.799999237060546875</AltitudeMeters>
            <DistanceMeters>NAN</DistanceMeters>
          </Trackpoint>
          <Trackpoint>
            <Time>2019-01-04T11:29:24.000Z</Time>
            <Position>
              <LatitudeDegrees>36.49353210814297199249267578125</LatitudeDegrees>
              <LongitudeDegrees>-5.404176078736782073974609375</LongitudeDegrees>
            </Position>
            <AltitudeMeters>60.799999237060546875</AltitudeMeters>
            <DistanceMeters>NAN</DistanceMeters>
          </Trackpoint>
          <Trackpoint>
            <Time>2019-01-04T11:29:25.000Z</Time>
            <Position>
              <LatitudeDegrees>36.49353411979973316192626953125</LatitudeDegrees>
              <LongitudeDegrees>-5.40417666547000408172607421875</LongitudeDegrees>
            </Position>
            <AltitudeMeters>60.799999237060546875</AltitudeMeters>
            <DistanceMeters>NAN</DistanceMeters>
          </Trackpoint>
          <Trackpoint>
            <Time>2019-01-04T11:29:26.000Z</Time>
            <Position>
              <LatitudeDegrees>36.49353428743779659271240234375</LatitudeDegrees>
              <LongitudeDegrees>-5.40417716838419437408447265625</LongitudeDegrees>
            </Position>
            <AltitudeMeters>60.799999237060546875</AltitudeMeters>
            <DistanceMeters>NAN</DistanceMeters>
          </Trackpoint>
          <Trackpoint>
            <Time>2019-01-04T11:29:27.000Z</Time>
            <Position>
              <LatitudeDegrees>36.4935345388948917388916015625</LatitudeDegrees>
              <LongitudeDegrees>-5.40417767129838466644287109375</LongitudeDegrees>
            </Position>
            <AltitudeMeters>60.799999237060546875</AltitudeMeters>
            <DistanceMeters>NAN</DistanceMeters>
          </Trackpoint>
          <Trackpoint>
            <Time>2019-01-04T11:29:28.000Z</Time>
            <Position>
              <LatitudeDegrees>36.49353445507586002349853515625</LatitudeDegrees>
              <LongitudeDegrees>-5.40417800657451152801513671875</LongitudeDegrees>
            </Position>
            <AltitudeMeters>60.799999237060546875</AltitudeMeters>
            <DistanceMeters>NAN</DistanceMeters>
          </Trackpoint>
          <Trackpoint>
            <Time>2019-01-04T11:29:29.000Z</Time>
            <Position>
              <LatitudeDegrees>36.49353504180908203125</LatitudeDegrees>
              <LongitudeDegrees>-5.404177419841289520263671875</LongitudeDegrees>
            </Position>
            <AltitudeMeters>60.799999237060546875</AltitudeMeters>
            <DistanceMeters>NAN</DistanceMeters>
          </Trackpoint>
          <Trackpoint>
            <Time>2019-01-04T11:29:30.000Z</Time>
            <Position>
              <LatitudeDegrees>36.493536047637462615966796875</LatitudeDegrees>
              <LongitudeDegrees>-5.40417666547000408172607421875</LongitudeDegrees>
            </Position>
            <AltitudeMeters>60.799999237060546875</AltitudeMeters>
            <DistanceMeters>NAN</DistanceMeters>
          </Trackpoint>
          <Trackpoint>
            <Time>2019-01-04T11:29:31.000Z</Time>
            <Position>
              <LatitudeDegrees>36.49353596381843090057373046875</LatitudeDegrees>
              <LongitudeDegrees>-5.40417783893644809722900390625</LongitudeDegrees>
            </Position>
            <AltitudeMeters>60.799999237060546875</AltitudeMeters>
            <DistanceMeters>NAN</DistanceMeters>
          </Trackpoint>
          <Trackpoint>
            <Time>2019-01-04T11:29:32.000Z</Time>
            <Position>
              <LatitudeDegrees>36.49353579618036746978759765625</LatitudeDegrees>
              <LongitudeDegrees>-5.40417649783194065093994140625</LongitudeDegrees>
            </Position>
            <AltitudeMeters>60.799999237060546875</AltitudeMeters>
            <DistanceMeters>NAN</DistanceMeters>
          </Trackpoint>
          <Trackpoint>
            <Time>2019-01-04T11:29:33.000Z</Time>
            <Position>
              <LatitudeDegrees>36.49353663437068462371826171875</LatitudeDegrees>
              <LongitudeDegrees>-5.40417666547000408172607421875</LongitudeDegrees>
            </Position>
            <AltitudeMeters>60.799999237060546875</AltitudeMeters>
            <DistanceMeters>NAN</DistanceMeters>
          </Trackpoint>
          <Trackpoint>
            <Time>2019-01-04T11:29:34.000Z</Time>
            <Position>
              <LatitudeDegrees>36.493537388741970062255859375</LatitudeDegrees>
              <LongitudeDegrees>-5.404178090393543243408203125</LongitudeDegrees>
            </Position>
            <AltitudeMeters>60.799999237060546875</AltitudeMeters>
            <DistanceMeters>NAN</DistanceMeters>
          </Trackpoint>
          <Trackpoint>
            <Time>2019-01-04T11:29:35.000Z</Time>
            <Position>
              <LatitudeDegrees>36.49353629909455776214599609375</LatitudeDegrees>
              <LongitudeDegrees>-5.40417750366032123565673828125</LongitudeDegrees>
            </Position>
            <AltitudeMeters>60.799999237060546875</AltitudeMeters>
            <DistanceMeters>NAN</DistanceMeters>
          </Trackpoint>
          <Trackpoint>
            <Time>2019-01-04T11:29:36.000Z</Time>
            <Position>
              <LatitudeDegrees>36.4935325272381305694580078125</LatitudeDegrees>
              <LongitudeDegrees>-5.404179431498050689697265625</LongitudeDegrees>
            </Position>
            <AltitudeMeters>60.799999237060546875</AltitudeMeters>
            <DistanceMeters>NAN</DistanceMeters>
          </Trackpoint>
          <Trackpoint>
            <Time>2019-01-04T11:29:37.000Z</Time>
            <Position>
              <LatitudeDegrees>36.49352900683879852294921875</LatitudeDegrees>
              <LongitudeDegrees>-5.4041822813451290130615234375</LongitudeDegrees>
            </Position>
            <AltitudeMeters>60.799999237060546875</AltitudeMeters>
            <DistanceMeters>NAN</DistanceMeters>
          </Trackpoint>
          <Trackpoint>
            <Time>2019-01-04T11:29:38.000Z</Time>
            <Position>
              <LatitudeDegrees>36.49352842010557651519775390625</LatitudeDegrees>
              <LongitudeDegrees>-5.4041832871735095977783203125</LongitudeDegrees>
            </Position>
            <AltitudeMeters>60.799999237060546875</AltitudeMeters>
            <DistanceMeters>NAN</DistanceMeters>
          </Trackpoint>
          <Trackpoint>
            <Time>2019-01-04T11:29:39.000Z</Time>
            <Position>
              <LatitudeDegrees>36.49352875538170337677001953125</LatitudeDegrees>
              <LongitudeDegrees>-5.40418487973511219024658203125</LongitudeDegrees>
            </Position>
            <AltitudeMeters>60.799999237060546875</AltitudeMeters>
            <DistanceMeters>NAN</DistanceMeters>
          </Trackpoint>
          <Trackpoint>
            <Time>2019-01-04T11:29:40.000Z</Time>
            <Position>
              <LatitudeDegrees>36.4935288392007350921630859375</LatitudeDegrees>
              <LongitudeDegrees>-5.40418588556349277496337890625</LongitudeDegrees>
            </Position>
            <AltitudeMeters>60.799999237060546875</AltitudeMeters>
            <DistanceMeters>NAN</DistanceMeters>
          </Trackpoint>
          <Trackpoint>
            <Time>2019-01-04T11:29:41.000Z</Time>
            <Position>
              <LatitudeDegrees>36.4935291744768619537353515625</LatitudeDegrees>
              <LongitudeDegrees>-5.40418513119220733642578125</LongitudeDegrees>
            </Position>
            <AltitudeMeters>60.799999237060546875</AltitudeMeters>
            <DistanceMeters>NAN</DistanceMeters>
          </Trackpoint>
          <Trackpoint>
            <Time>2019-01-04T11:29:42.000Z</Time>
            <Position>
              <LatitudeDegrees>36.49352967739105224609375</LatitudeDegrees>
              <LongitudeDegrees>-5.404183454811573028564453125</LongitudeDegrees>
            </Position>
            <AltitudeMeters>60.799999237060546875</AltitudeMeters>
            <DistanceMeters>NAN</DistanceMeters>
          </Trackpoint>
          <Trackpoint>
            <Time>2019-01-04T11:29:43.000Z</Time>
            <Position>
              <LatitudeDegrees>36.49353009648621082305908203125</LatitudeDegrees>
              <LongitudeDegrees>-5.404183454811573028564453125</LongitudeDegrees>
            </Position>
            <AltitudeMeters>60.799999237060546875</AltitudeMeters>
            <DistanceMeters>NAN</DistanceMeters>
          </Trackpoint>
          <Trackpoint>
            <Time>2019-01-04T11:29:44.000Z</Time>
            <Position>
              <LatitudeDegrees>36.49352825246751308441162109375</LatitudeDegrees>
              <LongitudeDegrees>-5.40418471209704875946044921875</LongitudeDegrees>
            </Position>
            <AltitudeMeters>60.799999237060546875</AltitudeMeters>
            <DistanceMeters>NAN</DistanceMeters>
          </Trackpoint>
          <Trackpoint>
            <Time>2019-01-04T11:29:45.000Z</Time>
            <Position>
              <LatitudeDegrees>36.493526659905910491943359375</LatitudeDegrees>
              <LongitudeDegrees>-5.40418471209704875946044921875</LongitudeDegrees>
            </Position>
            <AltitudeMeters>60.799999237060546875</AltitudeMeters>
            <DistanceMeters>NAN</DistanceMeters>
          </Trackpoint>
          <Trackpoint>
            <Time>2019-01-04T11:29:46.000Z</Time>
            <Position>
              <LatitudeDegrees>36.4935278333723545074462890625</LatitudeDegrees>
              <LongitudeDegrees>-5.4041809402406215667724609375</LongitudeDegrees>
            </Position>
            <AltitudeMeters>60.799999237060546875</AltitudeMeters>
            <DistanceMeters>NAN</DistanceMeters>
          </Trackpoint>
          <Trackpoint>
            <Time>2019-01-04T11:29:47.000Z</Time>
            <Position>
              <LatitudeDegrees>36.49352825246751308441162109375</LatitudeDegrees>
              <LongitudeDegrees>-5.404179431498050689697265625</LongitudeDegrees>
            </Position>
            <AltitudeMeters>60.799999237060546875</AltitudeMeters>
            <DistanceMeters>NAN</DistanceMeters>
          </Trackpoint>
          <Trackpoint>
            <Time>2019-01-04T11:29:48.000Z</Time>
            <Position>
              <LatitudeDegrees>36.49352825246751308441162109375</LatitudeDegrees>
              <LongitudeDegrees>-5.404176749289035797119140625</LongitudeDegrees>
            </Position>
            <AltitudeMeters>60.799999237060546875</AltitudeMeters>
            <DistanceMeters>NAN</DistanceMeters>
          </Trackpoint>
          <Trackpoint>
            <Time>2019-01-04T11:29:49.000Z</Time>
            <Position>
              <LatitudeDegrees>36.4935288392007350921630859375</LatitudeDegrees>
              <LongitudeDegrees>-5.404174737632274627685546875</LongitudeDegrees>
            </Position>
            <AltitudeMeters>60.799999237060546875</AltitudeMeters>
            <DistanceMeters>NAN</DistanceMeters>
          </Trackpoint>
          <Trackpoint>
            <Time>2019-01-04T11:29:50.000Z</Time>
            <Position>
              <LatitudeDegrees>36.4935274980962276458740234375</LatitudeDegrees>
              <LongitudeDegrees>-5.4041745699942111968994140625</LongitudeDegrees>
            </Position>
            <AltitudeMeters>60.799999237060546875</AltitudeMeters>
            <DistanceMeters>NAN</DistanceMeters>
          </Trackpoint>
          <Trackpoint>
            <Time>2019-01-04T11:29:51.000Z</Time>
            <Position>
              <LatitudeDegrees>36.4935261569917201995849609375</LatitudeDegrees>
              <LongitudeDegrees>-5.40417515672743320465087890625</LongitudeDegrees>
            </Position>
            <AltitudeMeters>60.799999237060546875</AltitudeMeters>
            <DistanceMeters>NAN</DistanceMeters>
          </Trackpoint>
          <Trackpoint>
            <Time>2019-01-04T11:29:52.000Z</Time>
            <Position>
              <LatitudeDegrees>36.49352406151592731475830078125</LatitudeDegrees>
              <LongitudeDegrees>-5.4041769169270992279052734375</LongitudeDegrees>
            </Position>
            <AltitudeMeters>60.799999237060546875</AltitudeMeters>
            <DistanceMeters>NAN</DistanceMeters>
          </Trackpoint>
          <Trackpoint>
            <Time>2019-01-04T11:29:53.000Z</Time>
            <Position>
              <LatitudeDegrees>36.4935234747827053070068359375</LatitudeDegrees>
              <LongitudeDegrees>-5.40417498908936977386474609375</LongitudeDegrees>
            </Position>
            <AltitudeMeters>60.799999237060546875</AltitudeMeters>
            <DistanceMeters>NAN</DistanceMeters>
          </Trackpoint>
          <Trackpoint>
            <Time>2019-01-04T11:29:54.000Z</Time>
            <Position>
              <LatitudeDegrees>36.493523307144641876220703125</LatitudeDegrees>
              <LongitudeDegrees>-5.404174737632274627685546875</LongitudeDegrees>
            </Position>
            <AltitudeMeters>60.799999237060546875</AltitudeMeters>
            <DistanceMeters>NAN</DistanceMeters>
          </Trackpoint>
          <Trackpoint>
            <Time>2019-01-04T11:29:55.000Z</Time>
            <Position>
              <LatitudeDegrees>36.49352171458303928375244140625</LatitudeDegrees>
              <LongitudeDegrees>-5.40417465381324291229248046875</LongitudeDegrees>
            </Position>
            <AltitudeMeters>60.799999237060546875</AltitudeMeters>
            <DistanceMeters>NAN</DistanceMeters>
          </Trackpoint>
          <Trackpoint>
            <Time>2019-01-04T11:29:56.000Z</Time>
            <Position>
              <LatitudeDegrees>36.4935201220214366912841796875</LatitudeDegrees>
              <LongitudeDegrees>-5.40417498908936977386474609375</LongitudeDegrees>
            </Position>
            <AltitudeMeters>60.799999237060546875</AltitudeMeters>
            <DistanceMeters>NAN</DistanceMeters>
          </Trackpoint>
          <Trackpoint>
            <Time>2019-01-04T11:29:57.000Z</Time>
            <Position>
              <LatitudeDegrees>36.49351936765015125274658203125</LatitudeDegrees>
              <LongitudeDegrees>-5.40417582727968692779541015625</LongitudeDegrees>
            </Position>
            <AltitudeMeters>60.799999237060546875</AltitudeMeters>
            <DistanceMeters>NAN</DistanceMeters>
          </Trackpoint>
          <Trackpoint>
            <Time>2019-01-04T11:29:58.000Z</Time>
            <Position>
              <LatitudeDegrees>36.4935184456408023834228515625</LatitudeDegrees>
              <LongitudeDegrees>-5.40417616255581378936767578125</LongitudeDegrees>
            </Position>
            <AltitudeMeters>60.799999237060546875</AltitudeMeters>
            <DistanceMeters>NAN</DistanceMeters>
          </Trackpoint>
          <Trackpoint>
            <Time>2019-01-04T11:29:59.000Z</Time>
            <Position>
              <LatitudeDegrees>36.4935177750885486602783203125</LatitudeDegrees>
              <LongitudeDegrees>-5.40417616255581378936767578125</LongitudeDegrees>
            </Position>
            <AltitudeMeters>60.799999237060546875</AltitudeMeters>
            <DistanceMeters>NAN</DistanceMeters>
          </Trackpoint>
          <Trackpoint>
            <Time>2019-01-04T11:30:00.000Z</Time>
            <Position>
              <LatitudeDegrees>36.49351769126951694488525390625</LatitudeDegrees>
              <LongitudeDegrees>-5.4041779227554798126220703125</LongitudeDegrees>
            </Position>
            <AltitudeMeters>60.799999237060546875</AltitudeMeters>
            <DistanceMeters>NAN</DistanceMeters>
          </Trackpoint>
          <Trackpoint>
            <Time>2019-01-04T11:30:01.000Z</Time>
            <Position>
              <LatitudeDegrees>36.4935171045362949371337890625</LatitudeDegrees>
              <LongitudeDegrees>-5.404178090393543243408203125</LongitudeDegrees>
            </Position>
            <AltitudeMeters>60.799999237060546875</AltitudeMeters>
            <DistanceMeters>NAN</DistanceMeters>
          </Trackpoint>
          <Trackpoint>
            <Time>2019-01-04T11:30:02.000Z</Time>
            <Position>
              <LatitudeDegrees>36.493516266345977783203125</LatitudeDegrees>
              <LongitudeDegrees>-5.40417800657451152801513671875</LongitudeDegrees>
            </Position>
            <AltitudeMeters>60.799999237060546875</AltitudeMeters>
            <DistanceMeters>NAN</DistanceMeters>
          </Trackpoint>
          <Trackpoint>
            <Time>2019-01-04T11:30:03.000Z</Time>
            <Position>
              <LatitudeDegrees>36.49351534433662891387939453125</LatitudeDegrees>
              <LongitudeDegrees>-5.4041777551174163818359375</LongitudeDegrees>
            </Position>
            <AltitudeMeters>60.799999237060546875</AltitudeMeters>
            <DistanceMeters>NAN</DistanceMeters>
          </Trackpoint>
          <Trackpoint>
            <Time>2019-01-04T11:30:04.000Z</Time>
            <Position>
              <LatitudeDegrees>36.493513919413089752197265625</LatitudeDegrees>
              <LongitudeDegrees>-5.40417716838419437408447265625</LongitudeDegrees>
            </Position>
            <AltitudeMeters>60.799999237060546875</AltitudeMeters>
            <DistanceMeters>NAN</DistanceMeters>
          </Trackpoint>
          <Trackpoint>
            <Time>2019-01-04T11:30:05.000Z</Time>
            <Position>
              <LatitudeDegrees>36.4935137517750263214111328125</LatitudeDegrees>
              <LongitudeDegrees>-5.40417708456516265869140625</LongitudeDegrees>
            </Position>
            <AltitudeMeters>60.799999237060546875</AltitudeMeters>
            <DistanceMeters>NAN</DistanceMeters>
          </Trackpoint>
          <Trackpoint>
            <Time>2019-01-04T11:30:06.000Z</Time>
            <Position>
              <LatitudeDegrees>36.49351433850824832916259765625</LatitudeDegrees>
              <LongitudeDegrees>-5.4041777551174163818359375</LongitudeDegrees>
            </Position>
            <AltitudeMeters>60.799999237060546875</AltitudeMeters>
            <DistanceMeters>NAN</DistanceMeters>
          </Trackpoint>
          <Trackpoint>
            <Time>2019-01-04T11:30:07.000Z</Time>
            <Position>
              <LatitudeDegrees>36.49351433850824832916259765625</LatitudeDegrees>
              <LongitudeDegrees>-5.40417817421257495880126953125</LongitudeDegrees>
            </Position>
            <AltitudeMeters>60.799999237060546875</AltitudeMeters>
            <DistanceMeters>NAN</DistanceMeters>
          </Trackpoint>
          <Trackpoint>
            <Time>2019-01-04T11:30:08.000Z</Time>
            <Position>
              <LatitudeDegrees>36.4935150928795337677001953125</LatitudeDegrees>
              <LongitudeDegrees>-5.40417934767901897430419921875</LongitudeDegrees>
            </Position>
            <AltitudeMeters>60.799999237060546875</AltitudeMeters>
            <DistanceMeters>NAN</DistanceMeters>
          </Trackpoint>
          <Trackpoint>
            <Time>2019-01-04T11:30:09.000Z</Time>
            <Position>
              <LatitudeDegrees>36.49351601488888263702392578125</LatitudeDegrees>
              <LongitudeDegrees>-5.404182113707065582275390625</LongitudeDegrees>
            </Position>
            <AltitudeMeters>60.799999237060546875</AltitudeMeters>
            <DistanceMeters>NAN</DistanceMeters>
          </Trackpoint>
          <Trackpoint>
            <Time>2019-01-04T11:30:10.000Z</Time>
            <Position>
              <LatitudeDegrees>36.49351500906050205230712890625</LatitudeDegrees>
              <LongitudeDegrees>-5.404186137020587921142578125</LongitudeDegrees>
            </Position>
            <AltitudeMeters>60.799999237060546875</AltitudeMeters>
            <DistanceMeters>NAN</DistanceMeters>
          </Trackpoint>
          <Trackpoint>
            <Time>2019-01-04T11:30:11.000Z</Time>
            <Position>
              <LatitudeDegrees>36.49351350031793117523193359375</LatitudeDegrees>
              <LongitudeDegrees>-5.40418840013444423675537109375</LongitudeDegrees>
            </Position>
            <AltitudeMeters>60.799999237060546875</AltitudeMeters>
            <DistanceMeters>NAN</DistanceMeters>
          </Trackpoint>
          <Trackpoint>
            <Time>2019-01-04T11:30:12.000Z</Time>
            <Position>
              <LatitudeDegrees>36.4935114048421382904052734375</LatitudeDegrees>
              <LongitudeDegrees>-5.404191501438617706298828125</LongitudeDegrees>
            </Position>
            <AltitudeMeters>60.799999237060546875</AltitudeMeters>
            <DistanceMeters>NAN</DistanceMeters>
          </Trackpoint>
          <Trackpoint>
            <Time>2019-01-04T11:30:13.000Z</Time>
            <Position>
              <LatitudeDegrees>36.4935097284615039825439453125</LatitudeDegrees>
              <LongitudeDegrees>-5.40419326163828372955322265625</LongitudeDegrees>
            </Position>
            <AltitudeMeters>60.799999237060546875</AltitudeMeters>
            <DistanceMeters>NAN</DistanceMeters>
          </Trackpoint>
          <Trackpoint>
            <Time>2019-01-04T11:30:14.000Z</Time>
            <Position>
              <LatitudeDegrees>36.49350897409021854400634765625</LatitudeDegrees>
              <LongitudeDegrees>-5.40419711731374263763427734375</LongitudeDegrees>
            </Position>
            <AltitudeMeters>60.799999237060546875</AltitudeMeters>
            <DistanceMeters>NAN</DistanceMeters>
          </Trackpoint>
          <Trackpoint>
            <Time>2019-01-04T11:30:15.000Z</Time>
            <Position>
              <LatitudeDegrees>36.49350981228053569793701171875</LatitudeDegrees>
              <LongitudeDegrees>-5.4041997157037258148193359375</LongitudeDegrees>
            </Position>
            <AltitudeMeters>60.799999237060546875</AltitudeMeters>
            <DistanceMeters>NAN</DistanceMeters>
          </Trackpoint>
          <Trackpoint>
            <Time>2019-01-04T11:30:16.000Z</Time>
            <Position>
              <LatitudeDegrees>36.493511907756328582763671875</LatitudeDegrees>
              <LongitudeDegrees>-5.4042030684649944305419921875</LongitudeDegrees>
            </Position>
            <AltitudeMeters>60.799999237060546875</AltitudeMeters>
            <DistanceMeters>NAN</DistanceMeters>
          </Trackpoint>
          <Trackpoint>
            <Time>2019-01-04T11:30:17.000Z</Time>
            <Position>
              <LatitudeDegrees>36.49351232685148715972900390625</LatitudeDegrees>
              <LongitudeDegrees>-5.404204241931438446044921875</LongitudeDegrees>
            </Position>
            <AltitudeMeters>60.799999237060546875</AltitudeMeters>
            <DistanceMeters>NAN</DistanceMeters>
          </Trackpoint>
          <Trackpoint>
            <Time>2019-01-04T11:30:18.000Z</Time>
            <Position>
              <LatitudeDegrees>36.4935120753943920135498046875</LatitudeDegrees>
              <LongitudeDegrees>-5.40420516394078731536865234375</LongitudeDegrees>
            </Position>
            <AltitudeMeters>60.799999237060546875</AltitudeMeters>
            <DistanceMeters>NAN</DistanceMeters>
          </Trackpoint>
          <Trackpoint>
            <Time>2019-01-04T11:30:19.000Z</Time>
            <Position>
              <LatitudeDegrees>36.49351115338504314422607421875</LatitudeDegrees>
              <LongitudeDegrees>-5.40420591831207275390625</LongitudeDegrees>
            </Position>
            <AltitudeMeters>60.799999237060546875</AltitudeMeters>
            <DistanceMeters>NAN</DistanceMeters>
          </Trackpoint>
          <Trackpoint>
            <Time>2019-01-04T11:30:20.000Z</Time>
            <Position>
              <LatitudeDegrees>36.49351182393729686737060546875</LatitudeDegrees>
              <LongitudeDegrees>-5.4042077623307704925537109375</LongitudeDegrees>
            </Position>
            <AltitudeMeters>60.799999237060546875</AltitudeMeters>
            <DistanceMeters>NAN</DistanceMeters>
          </Trackpoint>
          <Trackpoint>
            <Time>2019-01-04T11:30:21.000Z</Time>
            <Position>
              <LatitudeDegrees>36.49351350031793117523193359375</LatitudeDegrees>
              <LongitudeDegrees>-5.4042087681591510772705078125</LongitudeDegrees>
            </Position>
            <AltitudeMeters>60.799999237060546875</AltitudeMeters>
            <DistanceMeters>NAN</DistanceMeters>
          </Trackpoint>
          <Trackpoint>
            <Time>2019-01-04T11:30:22.000Z</Time>
            <Position>
              <LatitudeDegrees>36.49351433850824832916259765625</LatitudeDegrees>
              <LongitudeDegrees>-5.40420969016849994659423828125</LongitudeDegrees>
            </Position>
            <AltitudeMeters>60.799999237060546875</AltitudeMeters>
            <DistanceMeters>NAN</DistanceMeters>
          </Trackpoint>
          <Trackpoint>
            <Time>2019-01-04T11:30:23.000Z</Time>
            <Position>
              <LatitudeDegrees>36.493515260517597198486328125</LatitudeDegrees>
              <LongitudeDegrees>-5.404211618006229400634765625</LongitudeDegrees>
            </Position>
            <AltitudeMeters>60.799999237060546875</AltitudeMeters>
            <DistanceMeters>NAN</DistanceMeters>
          </Trackpoint>
          <Trackpoint>
            <Time>2019-01-04T11:30:24.000Z</Time>
            <Position>
              <LatitudeDegrees>36.4935184456408023834228515625</LatitudeDegrees>
              <LongitudeDegrees>-5.404214970767498016357421875</LongitudeDegrees>
            </Position>
            <AltitudeMeters>60.799999237060546875</AltitudeMeters>
            <DistanceMeters>NAN</DistanceMeters>
          </Trackpoint>
          <Trackpoint>
            <Time>2019-01-04T11:30:25.000Z</Time>
            <Position>
              <LatitudeDegrees>36.49352154694497585296630859375</LatitudeDegrees>
              <LongitudeDegrees>-5.4042181558907032012939453125</LongitudeDegrees>
            </Position>
            <AltitudeMeters>60.799999237060546875</AltitudeMeters>
            <DistanceMeters>NAN</DistanceMeters>
          </Trackpoint>
          <Trackpoint>
            <Time>2019-01-04T11:30:26.000Z</Time>
            <Position>
              <LatitudeDegrees>36.49352523498237133026123046875</LatitudeDegrees>
              <LongitudeDegrees>-5.40422075428068637847900390625</LongitudeDegrees>
            </Position>
            <AltitudeMeters>60.799999237060546875</AltitudeMeters>
            <DistanceMeters>NAN</DistanceMeters>
          </Trackpoint>
          <Trackpoint>
            <Time>2019-01-04T11:30:27.000Z</Time>
            <Position>
              <LatitudeDegrees>36.49352825246751308441162109375</LatitudeDegrees>
              <LongitudeDegrees>-5.40422360412776470184326171875</LongitudeDegrees>
            </Position>
            <AltitudeMeters>60.799999237060546875</AltitudeMeters>
            <DistanceMeters>NAN</DistanceMeters>
          </Trackpoint>
          <Trackpoint>
            <Time>2019-01-04T11:30:28.000Z</Time>
            <Position>
              <LatitudeDegrees>36.4935318566858768463134765625</LatitudeDegrees>
              <LongitudeDegrees>-5.40422745980322360992431640625</LongitudeDegrees>
            </Position>
            <AltitudeMeters>60.799999237060546875</AltitudeMeters>
            <DistanceMeters>NAN</DistanceMeters>
          </Trackpoint>
          <Trackpoint>
            <Time>2019-01-04T11:30:29.000Z</Time>
            <Position>
              <LatitudeDegrees>36.49353328160941600799560546875</LatitudeDegrees>
              <LongitudeDegrees>-5.40423064492642879486083984375</LongitudeDegrees>
            </Position>
            <AltitudeMeters>60.799999237060546875</AltitudeMeters>
            <DistanceMeters>NAN</DistanceMeters>
          </Trackpoint>
          <Trackpoint>
            <Time>2019-01-04T11:30:30.000Z</Time>
            <Position>
              <LatitudeDegrees>36.493536047637462615966796875</LatitudeDegrees>
              <LongitudeDegrees>-5.40423114784061908721923828125</LongitudeDegrees>
            </Position>
            <AltitudeMeters>60.799999237060546875</AltitudeMeters>
            <DistanceMeters>NAN</DistanceMeters>
          </Trackpoint>
          <Trackpoint>
            <Time>2019-01-04T11:30:31.000Z</Time>
            <Position>
              <LatitudeDegrees>36.493537388741970062255859375</LatitudeDegrees>
              <LongitudeDegrees>-5.404231734573841094970703125</LongitudeDegrees>
            </Position>
            <AltitudeMeters>60.799999237060546875</AltitudeMeters>
            <DistanceMeters>NAN</DistanceMeters>
          </Trackpoint>
          <Trackpoint>
            <Time>2019-01-04T11:30:32.000Z</Time>
            <Position>
              <LatitudeDegrees>36.49353797547519207000732421875</LatitudeDegrees>
              <LongitudeDegrees>-5.404233075678348541259765625</LongitudeDegrees>
            </Position>
            <AltitudeMeters>60.799999237060546875</AltitudeMeters>
            <DistanceMeters>NAN</DistanceMeters>
          </Trackpoint>
          <Trackpoint>
            <Time>2019-01-04T11:30:33.000Z</Time>
            <Position>
              <LatitudeDegrees>36.49353839457035064697265625</LatitudeDegrees>
              <LongitudeDegrees>-5.4042327404022216796875</LongitudeDegrees>
            </Position>
            <AltitudeMeters>60.799999237060546875</AltitudeMeters>
            <DistanceMeters>NAN</DistanceMeters>
          </Trackpoint>
          <Trackpoint>
            <Time>2019-01-04T11:30:34.000Z</Time>
            <Position>
              <LatitudeDegrees>36.49353747256100177764892578125</LatitudeDegrees>
              <LongitudeDegrees>-5.40423248894512653350830078125</LongitudeDegrees>
            </Position>
            <AltitudeMeters>60.799999237060546875</AltitudeMeters>
            <DistanceMeters>NAN</DistanceMeters>
          </Trackpoint>
          <Trackpoint>
            <Time>2019-01-04T11:30:35.000Z</Time>
            <Position>
              <LatitudeDegrees>36.49353680200874805450439453125</LatitudeDegrees>
              <LongitudeDegrees>-5.40423232130706310272216796875</LongitudeDegrees>
            </Position>
            <AltitudeMeters>60.799999237060546875</AltitudeMeters>
            <DistanceMeters>NAN</DistanceMeters>
          </Trackpoint>
          <Trackpoint>
            <Time>2019-01-04T11:30:36.000Z</Time>
            <Position>
              <LatitudeDegrees>36.49353663437068462371826171875</LatitudeDegrees>
              <LongitudeDegrees>-5.4042322374880313873291015625</LongitudeDegrees>
            </Position>
            <AltitudeMeters>60.799999237060546875</AltitudeMeters>
            <DistanceMeters>NAN</DistanceMeters>
          </Trackpoint>
          <Trackpoint>
            <Time>2019-01-04T11:30:37.000Z</Time>
            <Position>
              <LatitudeDegrees>36.4935368858277797698974609375</LatitudeDegrees>
              <LongitudeDegrees>-5.404232405126094818115234375</LongitudeDegrees>
            </Position>
            <AltitudeMeters>60.799999237060546875</AltitudeMeters>
            <DistanceMeters>NAN</DistanceMeters>
          </Trackpoint>
          <Trackpoint>
            <Time>2019-01-04T11:30:38.000Z</Time>
            <Position>
              <LatitudeDegrees>36.49353680200874805450439453125</LatitudeDegrees>
              <LongitudeDegrees>-5.40423232130706310272216796875</LongitudeDegrees>
            </Position>
            <AltitudeMeters>60.799999237060546875</AltitudeMeters>
            <DistanceMeters>NAN</DistanceMeters>
          </Trackpoint>
          <Trackpoint>
            <Time>2019-01-04T11:30:39.000Z</Time>
            <Position>
              <LatitudeDegrees>36.49353730492293834686279296875</LatitudeDegrees>
              <LongitudeDegrees>-5.40423232130706310272216796875</LongitudeDegrees>
            </Position>
            <AltitudeMeters>60.799999237060546875</AltitudeMeters>
            <DistanceMeters>NAN</DistanceMeters>
          </Trackpoint>
          <Trackpoint>
            <Time>2019-01-04T11:30:40.000Z</Time>
            <Position>
              <LatitudeDegrees>36.493538059294223785400390625</LatitudeDegrees>
              <LongitudeDegrees>-5.4042325727641582489013671875</LongitudeDegrees>
            </Position>
            <AltitudeMeters>60.799999237060546875</AltitudeMeters>
            <DistanceMeters>NAN</DistanceMeters>
          </Trackpoint>
          <Trackpoint>
            <Time>2019-01-04T11:30:41.000Z</Time>
            <Position>
              <LatitudeDegrees>36.49353831075131893157958984375</LatitudeDegrees>
              <LongitudeDegrees>-5.4042322374880313873291015625</LongitudeDegrees>
            </Position>
            <AltitudeMeters>60.799999237060546875</AltitudeMeters>
            <DistanceMeters>NAN</DistanceMeters>
          </Trackpoint>
          <Trackpoint>
            <Time>2019-01-04T11:30:42.000Z</Time>
            <Position>
              <LatitudeDegrees>36.4935382269322872161865234375</LatitudeDegrees>
              <LongitudeDegrees>-5.40423215366899967193603515625</LongitudeDegrees>
            </Position>
            <AltitudeMeters>60.799999237060546875</AltitudeMeters>
            <DistanceMeters>NAN</DistanceMeters>
          </Trackpoint>
          <Trackpoint>
            <Time>2019-01-04T11:30:43.000Z</Time>
            <Position>
              <LatitudeDegrees>36.4935388974845409393310546875</LatitudeDegrees>
              <LongitudeDegrees>-5.40423299185931682586669921875</LongitudeDegrees>
            </Position>
            <AltitudeMeters>60.799999237060546875</AltitudeMeters>
            <DistanceMeters>NAN</DistanceMeters>
          </Trackpoint>
          <Trackpoint>
            <Time>2019-01-04T11:30:44.000Z</Time>
            <Position>
              <LatitudeDegrees>36.49354166351258754730224609375</LatitudeDegrees>
              <LongitudeDegrees>-5.40423667989671230316162109375</LongitudeDegrees>
            </Position>
            <AltitudeMeters>60.799999237060546875</AltitudeMeters>
            <DistanceMeters>NAN</DistanceMeters>
          </Trackpoint>
          <Trackpoint>
            <Time>2019-01-04T11:30:45.000Z</Time>
            <Position>
              <LatitudeDegrees>36.49354317225515842437744140625</LatitudeDegrees>
              <LongitudeDegrees>-5.40423810482025146484375</LongitudeDegrees>
            </Position>
            <AltitudeMeters>60.799999237060546875</AltitudeMeters>
            <DistanceMeters>NAN</DistanceMeters>
          </Trackpoint>
          <Trackpoint>
            <Time>2019-01-04T11:30:46.000Z</Time>
            <Position>
              <LatitudeDegrees>36.49354401044547557830810546875</LatitudeDegrees>
              <LongitudeDegrees>-5.40423651225864887237548828125</LongitudeDegrees>
            </Position>
            <AltitudeMeters>60.799999237060546875</AltitudeMeters>
            <DistanceMeters>NAN</DistanceMeters>
          </Trackpoint>
          <Trackpoint>
            <Time>2019-01-04T11:30:47.000Z</Time>
            <Position>
              <LatitudeDegrees>36.49354669265449047088623046875</LatitudeDegrees>
              <LongitudeDegrees>-5.40423584170639514923095703125</LongitudeDegrees>
            </Position>
            <AltitudeMeters>60.799999237060546875</AltitudeMeters>
            <DistanceMeters>NAN</DistanceMeters>
          </Trackpoint>
          <Trackpoint>
            <Time>2019-01-04T11:30:48.000Z</Time>
            <Position>
              <LatitudeDegrees>36.49355046451091766357421875</LatitudeDegrees>
              <LongitudeDegrees>-5.40423517115414142608642578125</LongitudeDegrees>
            </Position>
            <AltitudeMeters>60.799999237060546875</AltitudeMeters>
            <DistanceMeters>NAN</DistanceMeters>
          </Trackpoint>
          <Trackpoint>
            <Time>2019-01-04T11:30:49.000Z</Time>
            <Position>
              <LatitudeDegrees>36.49355440400540828704833984375</LatitudeDegrees>
              <LongitudeDegrees>-5.4042359255254268646240234375</LongitudeDegrees>
            </Position>
            <AltitudeMeters>60.799999237060546875</AltitudeMeters>
            <DistanceMeters>NAN</DistanceMeters>
          </Trackpoint>
          <Trackpoint>
            <Time>2019-01-04T11:30:50.000Z</Time>
            <Position>
              <LatitudeDegrees>36.4935570023953914642333984375</LatitudeDegrees>
              <LongitudeDegrees>-5.4042372666299343109130859375</LongitudeDegrees>
            </Position>
            <AltitudeMeters>60.799999237060546875</AltitudeMeters>
            <DistanceMeters>NAN</DistanceMeters>
          </Trackpoint>
          <Trackpoint>
            <Time>2019-01-04T11:30:51.000Z</Time>
            <Position>
              <LatitudeDegrees>36.49355742149055004119873046875</LatitudeDegrees>
              <LongitudeDegrees>-5.40423919446766376495361328125</LongitudeDegrees>
            </Position>
            <AltitudeMeters>60.799999237060546875</AltitudeMeters>
            <DistanceMeters>NAN</DistanceMeters>
          </Trackpoint>
          <Trackpoint>
            <Time>2019-01-04T11:30:52.000Z</Time>
            <Position>
              <LatitudeDegrees>36.49355658330023288726806640625</LatitudeDegrees>
              <LongitudeDegrees>-5.40423835627734661102294921875</LongitudeDegrees>
            </Position>
            <AltitudeMeters>60.799999237060546875</AltitudeMeters>
            <DistanceMeters>NAN</DistanceMeters>
          </Trackpoint>
          <Trackpoint>
            <Time>2019-01-04T11:30:53.000Z</Time>
            <Position>
              <LatitudeDegrees>36.49355574510991573333740234375</LatitudeDegrees>
              <LongitudeDegrees>-5.40423877537250518798828125</LongitudeDegrees>
            </Position>
            <AltitudeMeters>60.799999237060546875</AltitudeMeters>
            <DistanceMeters>NAN</DistanceMeters>
          </Trackpoint>
          <Trackpoint>
            <Time>2019-01-04T11:30:54.000Z</Time>
            <Position>
              <LatitudeDegrees>36.4935549907386302947998046875</LatitudeDegrees>
              <LongitudeDegrees>-5.40423869155347347259521484375</LongitudeDegrees>
            </Position>
            <AltitudeMeters>60.799999237060546875</AltitudeMeters>
            <DistanceMeters>NAN</DistanceMeters>
          </Trackpoint>
          <Trackpoint>
            <Time>2019-01-04T11:30:55.000Z</Time>
            <Position>
              <LatitudeDegrees>36.49355473928153514862060546875</LatitudeDegrees>
              <LongitudeDegrees>-5.404238440096378326416015625</LongitudeDegrees>
            </Position>
            <AltitudeMeters>60.799999237060546875</AltitudeMeters>
            <DistanceMeters>NAN</DistanceMeters>
          </Trackpoint>
          <Trackpoint>
            <Time>2019-01-04T11:30:56.000Z</Time>
            <Position>
              <LatitudeDegrees>36.49355490691959857940673828125</LatitudeDegrees>
              <LongitudeDegrees>-5.40423818863928318023681640625</LongitudeDegrees>
            </Position>
            <AltitudeMeters>60.799999237060546875</AltitudeMeters>
            <DistanceMeters>NAN</DistanceMeters>
          </Trackpoint>
          <Trackpoint>
            <Time>2019-01-04T11:30:57.000Z</Time>
            <Position>
              <LatitudeDegrees>36.49355306290090084075927734375</LatitudeDegrees>
              <LongitudeDegrees>-5.4042382724583148956298828125</LongitudeDegrees>
            </Position>
            <AltitudeMeters>60.799999237060546875</AltitudeMeters>
            <DistanceMeters>NAN</DistanceMeters>
          </Trackpoint>
          <Trackpoint>
            <Time>2019-01-04T11:30:58.000Z</Time>
            <Position>
              <LatitudeDegrees>36.49355088360607624053955078125</LatitudeDegrees>
              <LongitudeDegrees>-5.4042367637157440185546875</LongitudeDegrees>
            </Position>
            <AltitudeMeters>60.799999237060546875</AltitudeMeters>
            <DistanceMeters>NAN</DistanceMeters>
          </Trackpoint>
          <Trackpoint>
            <Time>2019-01-04T11:30:59.000Z</Time>
            <Position>
              <LatitudeDegrees>36.493550129234790802001953125</LatitudeDegrees>
              <LongitudeDegrees>-5.4042372666299343109130859375</LongitudeDegrees>
            </Position>
            <AltitudeMeters>60.799999237060546875</AltitudeMeters>
            <DistanceMeters>NAN</DistanceMeters>
          </Trackpoint>
          <Trackpoint>
            <Time>2019-01-04T11:31:00.000Z</Time>
            <Position>
              <LatitudeDegrees>36.4935502968728542327880859375</LatitudeDegrees>
              <LongitudeDegrees>-5.40423751808702945709228515625</LongitudeDegrees>
            </Position>
            <AltitudeMeters>60.799999237060546875</AltitudeMeters>
            <DistanceMeters>NAN</DistanceMeters>
          </Trackpoint>
          <Trackpoint>
            <Time>2019-01-04T11:31:01.000Z</Time>
            <Position>
              <LatitudeDegrees>36.49355038069188594818115234375</LatitudeDegrees>
              <LongitudeDegrees>-5.40423751808702945709228515625</LongitudeDegrees>
            </Position>
            <AltitudeMeters>60.799999237060546875</AltitudeMeters>
            <DistanceMeters>NAN</DistanceMeters>
          </Trackpoint>
          <Trackpoint>
            <Time>2019-01-04T11:31:02.000Z</Time>
            <Position>
              <LatitudeDegrees>36.49355054832994937896728515625</LatitudeDegrees>
              <LongitudeDegrees>-5.40423751808702945709228515625</LongitudeDegrees>
            </Position>
            <AltitudeMeters>60.799999237060546875</AltitudeMeters>
            <DistanceMeters>NAN</DistanceMeters>
          </Trackpoint>
          <Trackpoint>
            <Time>2019-01-04T11:31:03.000Z</Time>
            <Position>
              <LatitudeDegrees>36.4935502968728542327880859375</LatitudeDegrees>
              <LongitudeDegrees>-5.4042365960776805877685546875</LongitudeDegrees>
            </Position>
            <AltitudeMeters>60.799999237060546875</AltitudeMeters>
            <DistanceMeters>NAN</DistanceMeters>
          </Trackpoint>
          <Trackpoint>
            <Time>2019-01-04T11:31:04.000Z</Time>
            <Position>
              <LatitudeDegrees>36.49354971013963222503662109375</LatitudeDegrees>
              <LongitudeDegrees>-5.4042359255254268646240234375</LongitudeDegrees>
            </Position>
            <AltitudeMeters>60.799999237060546875</AltitudeMeters>
            <DistanceMeters>NAN</DistanceMeters>
          </Trackpoint>
          <Trackpoint>
            <Time>2019-01-04T11:31:05.000Z</Time>
            <Position>
              <LatitudeDegrees>36.49354887194931507110595703125</LatitudeDegrees>
              <LongitudeDegrees>-5.40423475205898284912109375</LongitudeDegrees>
            </Position>
            <AltitudeMeters>60.799999237060546875</AltitudeMeters>
            <DistanceMeters>NAN</DistanceMeters>
          </Trackpoint>
          <Trackpoint>
            <Time>2019-01-04T11:31:06.000Z</Time>
            <Position>
              <LatitudeDegrees>36.493548117578029632568359375</LatitudeDegrees>
              <LongitudeDegrees>-5.40423282422125339508056640625</LongitudeDegrees>
            </Position>
            <AltitudeMeters>60.799999237060546875</AltitudeMeters>
            <DistanceMeters>NAN</DistanceMeters>
          </Trackpoint>
          <Trackpoint>
            <Time>2019-01-04T11:31:07.000Z</Time>
            <Position>
              <LatitudeDegrees>36.49354644119739532470703125</LatitudeDegrees>
              <LongitudeDegrees>-5.40423148311674594879150390625</LongitudeDegrees>
            </Position>
            <AltitudeMeters>60.799999237060546875</AltitudeMeters>
            <DistanceMeters>NAN</DistanceMeters>
          </Trackpoint>
          <Trackpoint>
            <Time>2019-01-04T11:31:08.000Z</Time>
            <Position>
              <LatitudeDegrees>36.493542082607746124267578125</LatitudeDegrees>
              <LongitudeDegrees>-5.40422997437417507171630859375</LongitudeDegrees>
            </Position>
            <AltitudeMeters>60.799999237060546875</AltitudeMeters>
            <DistanceMeters>NAN</DistanceMeters>
          </Trackpoint>
          <Trackpoint>
            <Time>2019-01-04T11:31:09.000Z</Time>
            <Position>
              <LatitudeDegrees>36.49353847838938236236572265625</LatitudeDegrees>
              <LongitudeDegrees>-5.40422762744128704071044921875</LongitudeDegrees>
            </Position>
            <AltitudeMeters>60.799999237060546875</AltitudeMeters>
            <DistanceMeters>NAN</DistanceMeters>
          </Trackpoint>
          <Trackpoint>
            <Time>2019-01-04T11:31:10.000Z</Time>
            <Position>
              <LatitudeDegrees>36.49353504180908203125</LatitudeDegrees>
              <LongitudeDegrees>-5.4042260348796844482421875</LongitudeDegrees>
            </Position>
            <AltitudeMeters>60.799999237060546875</AltitudeMeters>
            <DistanceMeters>NAN</DistanceMeters>
          </Trackpoint>
          <Trackpoint>
            <Time>2019-01-04T11:31:11.000Z</Time>
            <Position>
              <LatitudeDegrees>36.49353277869522571563720703125</LatitudeDegrees>
              <LongitudeDegrees>-5.40422410704195499420166015625</LongitudeDegrees>
            </Position>
            <AltitudeMeters>60.799999237060546875</AltitudeMeters>
            <DistanceMeters>NAN</DistanceMeters>
          </Trackpoint>
          <Trackpoint>
            <Time>2019-01-04T11:31:12.000Z</Time>
            <Position>
              <LatitudeDegrees>36.49352842010557651519775390625</LatitudeDegrees>
              <LongitudeDegrees>-5.4042215086519718170166015625</LongitudeDegrees>
            </Position>
            <AltitudeMeters>60.799999237060546875</AltitudeMeters>
            <DistanceMeters>NAN</DistanceMeters>
          </Trackpoint>
          <Trackpoint>
            <Time>2019-01-04T11:31:13.000Z</Time>
            <Position>
              <LatitudeDegrees>36.4935202896595001220703125</LatitudeDegrees>
              <LongitudeDegrees>-5.4042181558907032012939453125</LongitudeDegrees>
            </Position>
            <AltitudeMeters>60.799999237060546875</AltitudeMeters>
            <DistanceMeters>NAN</DistanceMeters>
          </Trackpoint>
          <Trackpoint>
            <Time>2019-01-04T11:31:14.000Z</Time>
            <Position>
              <LatitudeDegrees>36.49351735599339008331298828125</LatitudeDegrees>
              <LongitudeDegrees>-5.40421622805297374725341796875</LongitudeDegrees>
            </Position>
            <AltitudeMeters>60.799999237060546875</AltitudeMeters>
            <DistanceMeters>NAN</DistanceMeters>
          </Trackpoint>
          <Trackpoint>
            <Time>2019-01-04T11:31:15.000Z</Time>
            <Position>
              <LatitudeDegrees>36.493514589965343475341796875</LatitudeDegrees>
              <LongitudeDegrees>-5.40421354584395885467529296875</LongitudeDegrees>
            </Position>
            <AltitudeMeters>60.799999237060546875</AltitudeMeters>
            <DistanceMeters>NAN</DistanceMeters>
          </Trackpoint>
          <Trackpoint>
            <Time>2019-01-04T11:31:16.000Z</Time>
            <Position>
              <LatitudeDegrees>36.4935124106705188751220703125</LatitudeDegrees>
              <LongitudeDegrees>-5.404211618006229400634765625</LongitudeDegrees>
            </Position>
            <AltitudeMeters>60.799999237060546875</AltitudeMeters>
            <DistanceMeters>NAN</DistanceMeters>
          </Trackpoint>
          <Trackpoint>
            <Time>2019-01-04T11:31:17.000Z</Time>
            <Position>
              <LatitudeDegrees>36.49350863881409168243408203125</LatitudeDegrees>
              <LongitudeDegrees>-5.40420792996883392333984375</LongitudeDegrees>
            </Position>
            <AltitudeMeters>60.799999237060546875</AltitudeMeters>
            <DistanceMeters>NAN</DistanceMeters>
          </Trackpoint>
          <Trackpoint>
            <Time>2019-01-04T11:31:18.000Z</Time>
            <Position>
              <LatitudeDegrees>36.4935046993196010589599609375</LatitudeDegrees>
              <LongitudeDegrees>-5.40420415811240673065185546875</LongitudeDegrees>
            </Position>
            <AltitudeMeters>60.799999237060546875</AltitudeMeters>
            <DistanceMeters>NAN</DistanceMeters>
          </Trackpoint>
          <Trackpoint>
            <Time>2019-01-04T11:31:19.000Z</Time>
            <Position>
              <LatitudeDegrees>36.49350511841475963592529296875</LatitudeDegrees>
              <LongitudeDegrees>-5.40420130826532840728759765625</LongitudeDegrees>
            </Position>
            <AltitudeMeters>60.799999237060546875</AltitudeMeters>
            <DistanceMeters>NAN</DistanceMeters>
          </Trackpoint>
          <Trackpoint>
            <Time>2019-01-04T11:31:20.000Z</Time>
            <Position>
              <LatitudeDegrees>36.49350528605282306671142578125</LatitudeDegrees>
              <LongitudeDegrees>-5.40419862605631351470947265625</LongitudeDegrees>
            </Position>
            <AltitudeMeters>60.799999237060546875</AltitudeMeters>
            <DistanceMeters>NAN</DistanceMeters>
          </Trackpoint>
          <Trackpoint>
            <Time>2019-01-04T11:31:21.000Z</Time>
            <Position>
              <LatitudeDegrees>36.49350612424314022064208984375</LatitudeDegrees>
              <LongitudeDegrees>-5.4041965305805206298828125</LongitudeDegrees>
            </Position>
            <AltitudeMeters>60.799999237060546875</AltitudeMeters>
            <DistanceMeters>NAN</DistanceMeters>
          </Trackpoint>
          <Trackpoint>
            <Time>2019-01-04T11:31:22.000Z</Time>
            <Position>
              <LatitudeDegrees>36.49350930936634540557861328125</LatitudeDegrees>
              <LongitudeDegrees>-5.4041960276663303375244140625</LongitudeDegrees>
            </Position>
            <AltitudeMeters>60.799999237060546875</AltitudeMeters>
            <DistanceMeters>NAN</DistanceMeters>
          </Trackpoint>
          <Trackpoint>
            <Time>2019-01-04T11:31:23.000Z</Time>
            <Position>
              <LatitudeDegrees>36.49351115338504314422607421875</LatitudeDegrees>
              <LongitudeDegrees>-5.40419451892375946044921875</LongitudeDegrees>
            </Position>
            <AltitudeMeters>60.799999237060546875</AltitudeMeters>
            <DistanceMeters>NAN</DistanceMeters>
          </Trackpoint>
          <Trackpoint>
            <Time>2019-01-04T11:31:24.000Z</Time>
            <Position>
              <LatitudeDegrees>36.49351232685148715972900390625</LatitudeDegrees>
              <LongitudeDegrees>-5.40419225580990314483642578125</LongitudeDegrees>
            </Position>
            <AltitudeMeters>60.799999237060546875</AltitudeMeters>
            <DistanceMeters>NAN</DistanceMeters>
          </Trackpoint>
          <Trackpoint>
            <Time>2019-01-04T11:31:25.000Z</Time>
            <Position>
              <LatitudeDegrees>36.4935147576034069061279296875</LatitudeDegrees>
              <LongitudeDegrees>-5.4041903279721736907958984375</LongitudeDegrees>
            </Position>
            <AltitudeMeters>60.799999237060546875</AltitudeMeters>
            <DistanceMeters>NAN</DistanceMeters>
          </Trackpoint>
          <Trackpoint>
            <Time>2019-01-04T11:31:26.000Z</Time>
            <Position>
              <LatitudeDegrees>36.4935194514691829681396484375</LatitudeDegrees>
              <LongitudeDegrees>-5.40419208817183971405029296875</LongitudeDegrees>
            </Position>
            <AltitudeMeters>60.799999237060546875</AltitudeMeters>
            <DistanceMeters>NAN</DistanceMeters>
          </Trackpoint>
          <Trackpoint>
            <Time>2019-01-04T11:31:27.000Z</Time>
            <Position>
              <LatitudeDegrees>36.49352364242076873779296875</LatitudeDegrees>
              <LongitudeDegrees>-5.40419317781925201416015625</LongitudeDegrees>
            </Position>
            <AltitudeMeters>60.799999237060546875</AltitudeMeters>
            <DistanceMeters>NAN</DistanceMeters>
          </Trackpoint>
          <Trackpoint>
            <Time>2019-01-04T11:31:28.000Z</Time>
            <Position>
              <LatitudeDegrees>36.49352506734430789947509765625</LatitudeDegrees>
              <LongitudeDegrees>-5.40419342927634716033935546875</LongitudeDegrees>
            </Position>
            <AltitudeMeters>60.799999237060546875</AltitudeMeters>
            <DistanceMeters>NAN</DistanceMeters>
          </Trackpoint>
          <Trackpoint>
            <Time>2019-01-04T11:31:29.000Z</Time>
            <Position>
              <LatitudeDegrees>36.493524648249149322509765625</LatitudeDegrees>
              <LongitudeDegrees>-5.40419409982860088348388671875</LongitudeDegrees>
            </Position>
            <AltitudeMeters>60.799999237060546875</AltitudeMeters>
            <DistanceMeters>NAN</DistanceMeters>
          </Trackpoint>
          <Trackpoint>
            <Time>2019-01-04T11:31:30.000Z</Time>
            <Position>
              <LatitudeDegrees>36.49352322332561016082763671875</LatitudeDegrees>
              <LongitudeDegrees>-5.404195524752140045166015625</LongitudeDegrees>
            </Position>
            <AltitudeMeters>60.799999237060546875</AltitudeMeters>
            <DistanceMeters>NAN</DistanceMeters>
          </Trackpoint>
          <Trackpoint>
            <Time>2019-01-04T11:31:31.000Z</Time>
            <Position>
              <LatitudeDegrees>36.4935221336781978607177734375</LatitudeDegrees>
              <LongitudeDegrees>-5.40419493801891803741455078125</LongitudeDegrees>
            </Position>
            <AltitudeMeters>60.799999237060546875</AltitudeMeters>
            <DistanceMeters>NAN</DistanceMeters>
          </Trackpoint>
          <Trackpoint>
            <Time>2019-01-04T11:31:32.000Z</Time>
            <Position>
              <LatitudeDegrees>36.4935221336781978607177734375</LatitudeDegrees>
              <LongitudeDegrees>-5.40419460274279117584228515625</LongitudeDegrees>
            </Position>
            <AltitudeMeters>60.799999237060546875</AltitudeMeters>
            <DistanceMeters>NAN</DistanceMeters>
          </Trackpoint>
          <Trackpoint>
            <Time>2019-01-04T11:31:33.000Z</Time>
            <Position>
              <LatitudeDegrees>36.49352305568754673004150390625</LatitudeDegrees>
              <LongitudeDegrees>-5.4041950218379497528076171875</LongitudeDegrees>
            </Position>
            <AltitudeMeters>60.799999237060546875</AltitudeMeters>
            <DistanceMeters>NAN</DistanceMeters>
          </Trackpoint>
          <Trackpoint>
            <Time>2019-01-04T11:31:34.000Z</Time>
            <Position>
              <LatitudeDegrees>36.49352624081075191497802734375</LatitudeDegrees>
              <LongitudeDegrees>-5.4041963629424571990966796875</LongitudeDegrees>
            </Position>
            <AltitudeMeters>60.799999237060546875</AltitudeMeters>
            <DistanceMeters>NAN</DistanceMeters>
          </Trackpoint>
          <Trackpoint>
            <Time>2019-01-04T11:31:35.000Z</Time>
            <Position>
              <LatitudeDegrees>36.4935285039246082305908203125</LatitudeDegrees>
              <LongitudeDegrees>-5.4041953571140766143798828125</LongitudeDegrees>
            </Position>
            <AltitudeMeters>60.799999237060546875</AltitudeMeters>
            <DistanceMeters>NAN</DistanceMeters>
          </Trackpoint>
          <Trackpoint>
            <Time>2019-01-04T11:31:36.000Z</Time>
            <Position>
              <LatitudeDegrees>36.4935291744768619537353515625</LatitudeDegrees>
              <LongitudeDegrees>-5.40419275872409343719482421875</LongitudeDegrees>
            </Position>
            <AltitudeMeters>60.799999237060546875</AltitudeMeters>
            <DistanceMeters>NAN</DistanceMeters>
          </Trackpoint>
          <Trackpoint>
            <Time>2019-01-04T11:31:37.000Z</Time>
            <Position>
              <LatitudeDegrees>36.4935281686484813690185546875</LatitudeDegrees>
              <LongitudeDegrees>-5.40419175289571285247802734375</LongitudeDegrees>
            </Position>
            <AltitudeMeters>60.799999237060546875</AltitudeMeters>
            <DistanceMeters>NAN</DistanceMeters>
          </Trackpoint>
          <Trackpoint>
            <Time>2019-01-04T11:31:38.000Z</Time>
            <Position>
              <LatitudeDegrees>36.49352925829589366912841796875</LatitudeDegrees>
              <LongitudeDegrees>-5.40419124998152256011962890625</LongitudeDegrees>
            </Position>
            <AltitudeMeters>60.799999237060546875</AltitudeMeters>
            <DistanceMeters>NAN</DistanceMeters>
          </Trackpoint>
          <Trackpoint>
            <Time>2019-01-04T11:31:39.000Z</Time>
            <Position>
              <LatitudeDegrees>36.49353009648621082305908203125</LatitudeDegrees>
              <LongitudeDegrees>-5.40419158525764942169189453125</LongitudeDegrees>
            </Position>
            <AltitudeMeters>60.799999237060546875</AltitudeMeters>
            <DistanceMeters>NAN</DistanceMeters>
          </Trackpoint>
          <Trackpoint>
            <Time>2019-01-04T11:31:40.000Z</Time>
            <Position>
              <LatitudeDegrees>36.49353026412427425384521484375</LatitudeDegrees>
              <LongitudeDegrees>-5.40419024415314197540283203125</LongitudeDegrees>
            </Position>
            <AltitudeMeters>60.799999237060546875</AltitudeMeters>
            <DistanceMeters>NAN</DistanceMeters>
          </Trackpoint>
          <Trackpoint>
            <Time>2019-01-04T11:31:41.000Z</Time>
            <Position>
              <LatitudeDegrees>36.493530012667179107666015625</LatitudeDegrees>
              <LongitudeDegrees>-5.40418915450572967529296875</LongitudeDegrees>
            </Position>
            <AltitudeMeters>60.799999237060546875</AltitudeMeters>
            <DistanceMeters>NAN</DistanceMeters>
          </Trackpoint>
          <Trackpoint>
            <Time>2019-01-04T11:31:42.000Z</Time>
            <Position>
              <LatitudeDegrees>36.49352959357202053070068359375</LatitudeDegrees>
              <LongitudeDegrees>-5.40418772958219051361083984375</LongitudeDegrees>
            </Position>
            <AltitudeMeters>60.799999237060546875</AltitudeMeters>
            <DistanceMeters>NAN</DistanceMeters>
          </Trackpoint>
          <Trackpoint>
            <Time>2019-01-04T11:31:43.000Z</Time>
            <Position>
              <LatitudeDegrees>36.493528001010417938232421875</LatitudeDegrees>
              <LongitudeDegrees>-5.40418722666800022125244140625</LongitudeDegrees>
            </Position>
            <AltitudeMeters>60.799999237060546875</AltitudeMeters>
            <DistanceMeters>NAN</DistanceMeters>
          </Trackpoint>
          <Trackpoint>
            <Time>2019-01-04T11:31:44.000Z</Time>
            <Position>
              <LatitudeDegrees>36.49352724663913249969482421875</LatitudeDegrees>
              <LongitudeDegrees>-5.4041879810392856597900390625</LongitudeDegrees>
            </Position>
            <AltitudeMeters>60.799999237060546875</AltitudeMeters>
            <DistanceMeters>NAN</DistanceMeters>
          </Trackpoint>
          <Trackpoint>
            <Time>2019-01-04T11:31:45.000Z</Time>
            <Position>
              <LatitudeDegrees>36.49352758191525936126708984375</LatitudeDegrees>
              <LongitudeDegrees>-5.404187142848968505859375</LongitudeDegrees>
            </Position>
            <AltitudeMeters>60.799999237060546875</AltitudeMeters>
            <DistanceMeters>NAN</DistanceMeters>
          </Trackpoint>
          <Trackpoint>
            <Time>2019-01-04T11:31:46.000Z</Time>
            <Position>
              <LatitudeDegrees>36.4935264922678470611572265625</LatitudeDegrees>
              <LongitudeDegrees>-5.404186807572841644287109375</LongitudeDegrees>
            </Position>
            <AltitudeMeters>60.799999237060546875</AltitudeMeters>
            <DistanceMeters>NAN</DistanceMeters>
          </Trackpoint>
          <Trackpoint>
            <Time>2019-01-04T11:31:47.000Z</Time>
            <Position>
              <LatitudeDegrees>36.49352632462978363037109375</LatitudeDegrees>
              <LongitudeDegrees>-5.404187478125095367431640625</LongitudeDegrees>
            </Position>
            <AltitudeMeters>60.799999237060546875</AltitudeMeters>
            <DistanceMeters>NAN</DistanceMeters>
          </Trackpoint>
          <Trackpoint>
            <Time>2019-01-04T11:31:48.000Z</Time>
            <Position>
              <LatitudeDegrees>36.4935264922678470611572265625</LatitudeDegrees>
              <LongitudeDegrees>-5.40418923832476139068603515625</LongitudeDegrees>
            </Position>
            <AltitudeMeters>60.799999237060546875</AltitudeMeters>
            <DistanceMeters>NAN</DistanceMeters>
          </Trackpoint>
          <Trackpoint>
            <Time>2019-01-04T11:31:49.000Z</Time>
            <Position>
              <LatitudeDegrees>36.49352942593395709991455078125</LatitudeDegrees>
              <LongitudeDegrees>-5.40418990887701511383056640625</LongitudeDegrees>
            </Position>
            <AltitudeMeters>60.799999237060546875</AltitudeMeters>
            <DistanceMeters>NAN</DistanceMeters>
          </Trackpoint>
          <Trackpoint>
            <Time>2019-01-04T11:31:50.000Z</Time>
            <Position>
              <LatitudeDegrees>36.49353126995265483856201171875</LatitudeDegrees>
              <LongitudeDegrees>-5.40419041179120540618896484375</LongitudeDegrees>
            </Position>
            <AltitudeMeters>60.799999237060546875</AltitudeMeters>
            <DistanceMeters>NAN</DistanceMeters>
          </Trackpoint>
          <Trackpoint>
            <Time>2019-01-04T11:31:51.000Z</Time>
            <Position>
              <LatitudeDegrees>36.49353277869522571563720703125</LatitudeDegrees>
              <LongitudeDegrees>-5.40418907068669795989990234375</LongitudeDegrees>
            </Position>
            <AltitudeMeters>60.799999237060546875</AltitudeMeters>
            <DistanceMeters>NAN</DistanceMeters>
          </Trackpoint>
          <Trackpoint>
            <Time>2019-01-04T11:31:52.000Z</Time>
            <Position>
              <LatitudeDegrees>36.4935321919620037078857421875</LatitudeDegrees>
              <LongitudeDegrees>-5.4041884839534759521484375</LongitudeDegrees>
            </Position>
            <AltitudeMeters>60.799999237060546875</AltitudeMeters>
            <DistanceMeters>NAN</DistanceMeters>
          </Trackpoint>
          <Trackpoint>
            <Time>2019-01-04T11:31:53.000Z</Time>
            <Position>
              <LatitudeDegrees>36.4935328625142574310302734375</LatitudeDegrees>
              <LongitudeDegrees>-5.4041883163154125213623046875</LongitudeDegrees>
            </Position>
            <AltitudeMeters>60.799999237060546875</AltitudeMeters>
            <DistanceMeters>NAN</DistanceMeters>
          </Trackpoint>
          <Trackpoint>
            <Time>2019-01-04T11:31:54.000Z</Time>
            <Position>
              <LatitudeDegrees>36.49353428743779659271240234375</LatitudeDegrees>
              <LongitudeDegrees>-5.404189489781856536865234375</LongitudeDegrees>
            </Position>
            <AltitudeMeters>60.799999237060546875</AltitudeMeters>
            <DistanceMeters>NAN</DistanceMeters>
          </Trackpoint>
          <Trackpoint>
            <Time>2019-01-04T11:31:55.000Z</Time>
            <Position>
              <LatitudeDegrees>36.49353596381843090057373046875</LatitudeDegrees>
              <LongitudeDegrees>-5.4041906632483005523681640625</LongitudeDegrees>
            </Position>
            <AltitudeMeters>60.799999237060546875</AltitudeMeters>
            <DistanceMeters>NAN</DistanceMeters>
          </Trackpoint>
          <Trackpoint>
            <Time>2019-01-04T11:31:56.000Z</Time>
            <Position>
              <LatitudeDegrees>36.49353730492293834686279296875</LatitudeDegrees>
              <LongitudeDegrees>-5.4041906632483005523681640625</LongitudeDegrees>
            </Position>
            <AltitudeMeters>60.799999237060546875</AltitudeMeters>
            <DistanceMeters>NAN</DistanceMeters>
          </Trackpoint>
          <Trackpoint>
            <Time>2019-01-04T11:31:57.000Z</Time>
            <Position>
              <LatitudeDegrees>36.4935372211039066314697265625</LatitudeDegrees>
              <LongitudeDegrees>-5.40419091470539569854736328125</LongitudeDegrees>
            </Position>
            <AltitudeMeters>60.799999237060546875</AltitudeMeters>
            <DistanceMeters>NAN</DistanceMeters>
          </Trackpoint>
          <Trackpoint>
            <Time>2019-01-04T11:31:58.000Z</Time>
            <Position>
              <LatitudeDegrees>36.4935355447232723236083984375</LatitudeDegrees>
              <LongitudeDegrees>-5.40419275872409343719482421875</LongitudeDegrees>
            </Position>
            <AltitudeMeters>60.799999237060546875</AltitudeMeters>
            <DistanceMeters>NAN</DistanceMeters>
          </Trackpoint>
          <Trackpoint>
            <Time>2019-01-04T11:31:59.000Z</Time>
            <Position>
              <LatitudeDegrees>36.4935331977903842926025390625</LatitudeDegrees>
              <LongitudeDegrees>-5.40419393219053745269775390625</LongitudeDegrees>
            </Position>
            <AltitudeMeters>60.799999237060546875</AltitudeMeters>
            <DistanceMeters>NAN</DistanceMeters>
          </Trackpoint>
          <Trackpoint>
            <Time>2019-01-04T11:32:00.000Z</Time>
            <Position>
              <LatitudeDegrees>36.493531353771686553955078125</LatitudeDegrees>
              <LongitudeDegrees>-5.4041933454573154449462890625</LongitudeDegrees>
            </Position>
            <AltitudeMeters>60.799999237060546875</AltitudeMeters>
            <DistanceMeters>NAN</DistanceMeters>
          </Trackpoint>
          <Trackpoint>
            <Time>2019-01-04T11:32:01.000Z</Time>
            <Position>
              <LatitudeDegrees>36.49353160522878170013427734375</LatitudeDegrees>
              <LongitudeDegrees>-5.4041930101811885833740234375</LongitudeDegrees>
            </Position>
            <AltitudeMeters>60.799999237060546875</AltitudeMeters>
            <DistanceMeters>NAN</DistanceMeters>
          </Trackpoint>
          <Trackpoint>
            <Time>2019-01-04T11:32:02.000Z</Time>
            <Position>
              <LatitudeDegrees>36.49353261105716228485107421875</LatitudeDegrees>
              <LongitudeDegrees>-5.4041940160095691680908203125</LongitudeDegrees>
            </Position>
            <AltitudeMeters>60.799999237060546875</AltitudeMeters>
            <DistanceMeters>NAN</DistanceMeters>
          </Trackpoint>
          <Trackpoint>
            <Time>2019-01-04T11:32:03.000Z</Time>
            <Position>
              <LatitudeDegrees>36.49353437125682830810546875</LatitudeDegrees>
              <LongitudeDegrees>-5.40419627912342548370361328125</LongitudeDegrees>
            </Position>
            <AltitudeMeters>60.799999237060546875</AltitudeMeters>
            <DistanceMeters>NAN</DistanceMeters>
          </Trackpoint>
          <Trackpoint>
            <Time>2019-01-04T11:32:04.000Z</Time>
            <Position>
              <LatitudeDegrees>36.49353562854230403900146484375</LatitudeDegrees>
              <LongitudeDegrees>-5.40419929660856723785400390625</LongitudeDegrees>
            </Position>
            <AltitudeMeters>60.799999237060546875</AltitudeMeters>
            <DistanceMeters>NAN</DistanceMeters>
          </Trackpoint>
          <Trackpoint>
            <Time>2019-01-04T11:32:05.000Z</Time>
            <Position>
              <LatitudeDegrees>36.49353881366550922393798828125</LatitudeDegrees>
              <LongitudeDegrees>-5.40420365519821643829345703125</LongitudeDegrees>
            </Position>
            <AltitudeMeters>60.799999237060546875</AltitudeMeters>
            <DistanceMeters>NAN</DistanceMeters>
          </Trackpoint>
          <Trackpoint>
            <Time>2019-01-04T11:32:06.000Z</Time>
            <Position>
              <LatitudeDegrees>36.49354317225515842437744140625</LatitudeDegrees>
              <LongitudeDegrees>-5.404205583035945892333984375</LongitudeDegrees>
            </Position>
            <AltitudeMeters>60.799999237060546875</AltitudeMeters>
            <DistanceMeters>NAN</DistanceMeters>
          </Trackpoint>
          <Trackpoint>
            <Time>2019-01-04T11:32:07.000Z</Time>
            <Position>
              <LatitudeDegrees>36.49354786612093448638916015625</LatitudeDegrees>
              <LongitudeDegrees>-5.40420784614980220794677734375</LongitudeDegrees>
            </Position>
            <AltitudeMeters>60.799999237060546875</AltitudeMeters>
            <DistanceMeters>NAN</DistanceMeters>
          </Trackpoint>
          <Trackpoint>
            <Time>2019-01-04T11:32:08.000Z</Time>
            <Position>
              <LatitudeDegrees>36.493549458682537078857421875</LatitudeDegrees>
              <LongitudeDegrees>-5.40421119891107082366943359375</LongitudeDegrees>
            </Position>
            <AltitudeMeters>60.799999237060546875</AltitudeMeters>
            <DistanceMeters>NAN</DistanceMeters>
          </Trackpoint>
          <Trackpoint>
            <Time>2019-01-04T11:32:09.000Z</Time>
            <Position>
              <LatitudeDegrees>36.49354987777769565582275390625</LatitudeDegrees>
              <LongitudeDegrees>-5.4042134620249271392822265625</LongitudeDegrees>
            </Position>
            <AltitudeMeters>60.799999237060546875</AltitudeMeters>
            <DistanceMeters>NAN</DistanceMeters>
          </Trackpoint>
          <Trackpoint>
            <Time>2019-01-04T11:32:10.000Z</Time>
            <Position>
              <LatitudeDegrees>36.49355138652026653289794921875</LatitudeDegrees>
              <LongitudeDegrees>-5.40421538986265659332275390625</LongitudeDegrees>
            </Position>
            <AltitudeMeters>60.799999237060546875</AltitudeMeters>
            <DistanceMeters>NAN</DistanceMeters>
          </Trackpoint>
          <Trackpoint>
            <Time>2019-01-04T11:32:11.000Z</Time>
            <Position>
              <LatitudeDegrees>36.49355222471058368682861328125</LatitudeDegrees>
              <LongitudeDegrees>-5.40421706624329090118408203125</LongitudeDegrees>
            </Position>
            <AltitudeMeters>60.799999237060546875</AltitudeMeters>
            <DistanceMeters>NAN</DistanceMeters>
          </Trackpoint>
          <Trackpoint>
            <Time>2019-01-04T11:32:12.000Z</Time>
            <Position>
              <LatitudeDegrees>36.49354250170290470123291015625</LatitudeDegrees>
              <LongitudeDegrees>-5.4042126238346099853515625</LongitudeDegrees>
            </Position>
            <AltitudeMeters>60.799999237060546875</AltitudeMeters>
            <DistanceMeters>NAN</DistanceMeters>
          </Trackpoint>
          <Trackpoint>
            <Time>2019-01-04T11:32:13.000Z</Time>
            <Position>
              <LatitudeDegrees>36.49354040622711181640625</LatitudeDegrees>
              <LongitudeDegrees>-5.40421254001557826995849609375</LongitudeDegrees>
            </Position>
            <AltitudeMeters>60.799999237060546875</AltitudeMeters>
            <DistanceMeters>NAN</DistanceMeters>
          </Trackpoint>
          <Trackpoint>
            <Time>2019-01-04T11:32:14.000Z</Time>
            <Position>
              <LatitudeDegrees>36.4935395680367946624755859375</LatitudeDegrees>
              <LongitudeDegrees>-5.404213629662990570068359375</LongitudeDegrees>
            </Position>
            <AltitudeMeters>60.799999237060546875</AltitudeMeters>
            <DistanceMeters>NAN</DistanceMeters>
          </Trackpoint>
          <Trackpoint>
            <Time>2019-01-04T11:32:15.000Z</Time>
            <Position>
              <LatitudeDegrees>36.4935388974845409393310546875</LatitudeDegrees>
              <LongitudeDegrees>-5.4042141325771808624267578125</LongitudeDegrees>
            </Position>
            <AltitudeMeters>60.799999237060546875</AltitudeMeters>
            <DistanceMeters>NAN</DistanceMeters>
          </Trackpoint>
          <Trackpoint>
            <Time>2019-01-04T11:32:16.000Z</Time>
            <Position>
              <LatitudeDegrees>36.493539400398731231689453125</LatitudeDegrees>
              <LongitudeDegrees>-5.4042144678533077239990234375</LongitudeDegrees>
            </Position>
            <AltitudeMeters>60.799999237060546875</AltitudeMeters>
            <DistanceMeters>NAN</DistanceMeters>
          </Trackpoint>
          <Trackpoint>
            <Time>2019-01-04T11:32:17.000Z</Time>
            <Position>
              <LatitudeDegrees>36.49354250170290470123291015625</LatitudeDegrees>
              <LongitudeDegrees>-5.40421522222459316253662109375</LongitudeDegrees>
            </Position>
            <AltitudeMeters>60.799999237060546875</AltitudeMeters>
            <DistanceMeters>NAN</DistanceMeters>
          </Trackpoint>
          <Trackpoint>
            <Time>2019-01-04T11:32:18.000Z</Time>
            <Position>
              <LatitudeDegrees>36.4935456030070781707763671875</LatitudeDegrees>
              <LongitudeDegrees>-5.40421606041491031646728515625</LongitudeDegrees>
            </Position>
            <AltitudeMeters>60.799999237060546875</AltitudeMeters>
            <DistanceMeters>NAN</DistanceMeters>
          </Trackpoint>
          <Trackpoint>
            <Time>2019-01-04T11:32:19.000Z</Time>
            <Position>
              <LatitudeDegrees>36.49354501627385616302490234375</LatitudeDegrees>
              <LongitudeDegrees>-5.4042151384055614471435546875</LongitudeDegrees>
            </Position>
            <AltitudeMeters>60.799999237060546875</AltitudeMeters>
            <DistanceMeters>NAN</DistanceMeters>
          </Trackpoint>
          <Trackpoint>
            <Time>2019-01-04T11:32:20.000Z</Time>
            <Position>
              <LatitudeDegrees>36.49354283697903156280517578125</LatitudeDegrees>
              <LongitudeDegrees>-5.40421237237751483917236328125</LongitudeDegrees>
            </Position>
            <AltitudeMeters>60.799999237060546875</AltitudeMeters>
            <DistanceMeters>NAN</DistanceMeters>
          </Trackpoint>
          <Trackpoint>
            <Time>2019-01-04T11:32:21.000Z</Time>
            <Position>
              <LatitudeDegrees>36.4935409091413021087646484375</LatitudeDegrees>
              <LongitudeDegrees>-5.40420751087367534637451171875</LongitudeDegrees>
            </Position>
            <AltitudeMeters>60.799999237060546875</AltitudeMeters>
            <DistanceMeters>NAN</DistanceMeters>
          </Trackpoint>
          <Trackpoint>
            <Time>2019-01-04T11:32:22.000Z</Time>
            <Position>
              <LatitudeDegrees>36.493540070950984954833984375</LatitudeDegrees>
              <LongitudeDegrees>-5.4042020626366138458251953125</LongitudeDegrees>
            </Position>
            <AltitudeMeters>60.799999237060546875</AltitudeMeters>
            <DistanceMeters>NAN</DistanceMeters>
          </Trackpoint>
          <Trackpoint>
            <Time>2019-01-04T11:32:23.000Z</Time>
            <Position>
              <LatitudeDegrees>36.4935355447232723236083984375</LatitudeDegrees>
              <LongitudeDegrees>-5.404203571379184722900390625</LongitudeDegrees>
            </Position>
            <AltitudeMeters>60.799999237060546875</AltitudeMeters>
            <DistanceMeters>NAN</DistanceMeters>
          </Trackpoint>
          <Trackpoint>
            <Time>2019-01-04T11:32:24.000Z</Time>
            <Position>
              <LatitudeDegrees>36.49353059940040111541748046875</LatitudeDegrees>
              <LongitudeDegrees>-5.40420264936983585357666015625</LongitudeDegrees>
            </Position>
            <AltitudeMeters>60.799999237060546875</AltitudeMeters>
            <DistanceMeters>NAN</DistanceMeters>
          </Trackpoint>
          <Trackpoint>
            <Time>2019-01-04T11:32:25.000Z</Time>
            <Position>
              <LatitudeDegrees>36.4935261569917201995849609375</LatitudeDegrees>
              <LongitudeDegrees>-5.404200889170169830322265625</LongitudeDegrees>
            </Position>
            <AltitudeMeters>60.799999237060546875</AltitudeMeters>
            <DistanceMeters>NAN</DistanceMeters>
          </Trackpoint>
          <Trackpoint>
            <Time>2019-01-04T11:32:26.000Z</Time>
            <Position>
              <LatitudeDegrees>36.49352406151592731475830078125</LatitudeDegrees>
              <LongitudeDegrees>-5.40420130826532840728759765625</LongitudeDegrees>
            </Position>
            <AltitudeMeters>60.799999237060546875</AltitudeMeters>
            <DistanceMeters>NAN</DistanceMeters>
          </Trackpoint>
          <Trackpoint>
            <Time>2019-01-04T11:32:27.000Z</Time>
            <Position>
              <LatitudeDegrees>36.49352137930691242218017578125</LatitudeDegrees>
              <LongitudeDegrees>-5.404203236103057861328125</LongitudeDegrees>
            </Position>
            <AltitudeMeters>60.799999237060546875</AltitudeMeters>
            <DistanceMeters>NAN</DistanceMeters>
          </Trackpoint>
          <Trackpoint>
            <Time>2019-01-04T11:32:28.000Z</Time>
            <Position>
              <LatitudeDegrees>36.49352003820240497589111328125</LatitudeDegrees>
              <LongitudeDegrees>-5.40420600213110446929931640625</LongitudeDegrees>
            </Position>
            <AltitudeMeters>60.799999237060546875</AltitudeMeters>
            <DistanceMeters>NAN</DistanceMeters>
          </Trackpoint>
          <Trackpoint>
            <Time>2019-01-04T11:32:29.000Z</Time>
            <Position>
              <LatitudeDegrees>36.49351350031793117523193359375</LatitudeDegrees>
              <LongitudeDegrees>-5.40420415811240673065185546875</LongitudeDegrees>
            </Position>
            <AltitudeMeters>60.799999237060546875</AltitudeMeters>
            <DistanceMeters>NAN</DistanceMeters>
          </Trackpoint>
          <Trackpoint>
            <Time>2019-01-04T11:32:30.000Z</Time>
            <Position>
              <LatitudeDegrees>36.493504531681537628173828125</LatitudeDegrees>
              <LongitudeDegrees>-5.404202230274677276611328125</LongitudeDegrees>
            </Position>
            <AltitudeMeters>60.799999237060546875</AltitudeMeters>
            <DistanceMeters>NAN</DistanceMeters>
          </Trackpoint>
          <Trackpoint>
            <Time>2019-01-04T11:32:31.000Z</Time>
            <Position>
              <LatitudeDegrees>36.49349975399672985076904296875</LatitudeDegrees>
              <LongitudeDegrees>-5.40420030243694782257080078125</LongitudeDegrees>
            </Position>
            <AltitudeMeters>60.799999237060546875</AltitudeMeters>
            <DistanceMeters>NAN</DistanceMeters>
          </Trackpoint>
          <Trackpoint>
            <Time>2019-01-04T11:32:32.000Z</Time>
            <Position>
              <LatitudeDegrees>36.4934993349015712738037109375</LatitudeDegrees>
              <LongitudeDegrees>-5.40419778786599636077880859375</LongitudeDegrees>
            </Position>
            <AltitudeMeters>60.799999237060546875</AltitudeMeters>
            <DistanceMeters>NAN</DistanceMeters>
          </Trackpoint>
          <Trackpoint>
            <Time>2019-01-04T11:32:33.000Z</Time>
            <Position>
              <LatitudeDegrees>36.4935010112822055816650390625</LatitudeDegrees>
              <LongitudeDegrees>-5.40419845841825008392333984375</LongitudeDegrees>
            </Position>
            <AltitudeMeters>60.799999237060546875</AltitudeMeters>
            <DistanceMeters>NAN</DistanceMeters>
          </Trackpoint>
          <Trackpoint>
            <Time>2019-01-04T11:32:34.000Z</Time>
            <Position>
              <LatitudeDegrees>36.4935000054538249969482421875</LatitudeDegrees>
              <LongitudeDegrees>-5.4041990451514720916748046875</LongitudeDegrees>
            </Position>
            <AltitudeMeters>60.799999237060546875</AltitudeMeters>
            <DistanceMeters>NAN</DistanceMeters>
          </Trackpoint>
          <Trackpoint>
            <Time>2019-01-04T11:32:35.000Z</Time>
            <Position>
              <LatitudeDegrees>36.49350008927285671234130859375</LatitudeDegrees>
              <LongitudeDegrees>-5.404198206961154937744140625</LongitudeDegrees>
            </Position>
            <AltitudeMeters>60.799999237060546875</AltitudeMeters>
            <DistanceMeters>NAN</DistanceMeters>
          </Trackpoint>
          <Trackpoint>
            <Time>2019-01-04T11:32:36.000Z</Time>
            <Position>
              <LatitudeDegrees>36.4934988319873809814453125</LatitudeDegrees>
              <LongitudeDegrees>-5.40419594384729862213134765625</LongitudeDegrees>
            </Position>
            <AltitudeMeters>60.799999237060546875</AltitudeMeters>
            <DistanceMeters>NAN</DistanceMeters>
          </Trackpoint>
          <Trackpoint>
            <Time>2019-01-04T11:32:37.000Z</Time>
            <Position>
              <LatitudeDegrees>36.4934943057596683502197265625</LatitudeDegrees>
              <LongitudeDegrees>-5.404192171990871429443359375</LongitudeDegrees>
            </Position>
            <AltitudeMeters>60.799999237060546875</AltitudeMeters>
            <DistanceMeters>NAN</DistanceMeters>
          </Trackpoint>
          <Trackpoint>
            <Time>2019-01-04T11:32:38.000Z</Time>
            <Position>
              <LatitudeDegrees>36.49349489249289035797119140625</LatitudeDegrees>
              <LongitudeDegrees>-5.4041899926960468292236328125</LongitudeDegrees>
            </Position>
            <AltitudeMeters>60.799999237060546875</AltitudeMeters>
            <DistanceMeters>NAN</DistanceMeters>
          </Trackpoint>
          <Trackpoint>
            <Time>2019-01-04T11:32:39.000Z</Time>
            <Position>
              <LatitudeDegrees>36.49349405430257320404052734375</LatitudeDegrees>
              <LongitudeDegrees>-5.40419007651507854461669921875</LongitudeDegrees>
            </Position>
            <AltitudeMeters>60.799999237060546875</AltitudeMeters>
            <DistanceMeters>NAN</DistanceMeters>
          </Trackpoint>
          <Trackpoint>
            <Time>2019-01-04T11:32:40.000Z</Time>
            <Position>
              <LatitudeDegrees>36.49349413812160491943359375</LatitudeDegrees>
              <LongitudeDegrees>-5.40418974123895168304443359375</LongitudeDegrees>
            </Position>
            <AltitudeMeters>60.799999237060546875</AltitudeMeters>
            <DistanceMeters>NAN</DistanceMeters>
          </Trackpoint>
          <Trackpoint>
            <Time>2019-01-04T11:32:41.000Z</Time>
            <Position>
              <LatitudeDegrees>36.49349489249289035797119140625</LatitudeDegrees>
              <LongitudeDegrees>-5.4041879810392856597900390625</LongitudeDegrees>
            </Position>
            <AltitudeMeters>60.799999237060546875</AltitudeMeters>
            <DistanceMeters>NAN</DistanceMeters>
          </Trackpoint>
          <Trackpoint>
            <Time>2019-01-04T11:32:42.000Z</Time>
            <Position>
              <LatitudeDegrees>36.49349723942577838897705078125</LatitudeDegrees>
              <LongitudeDegrees>-5.40418940596282482147216796875</LongitudeDegrees>
            </Position>
            <AltitudeMeters>60.799999237060546875</AltitudeMeters>
            <DistanceMeters>NAN</DistanceMeters>
          </Trackpoint>
          <Trackpoint>
            <Time>2019-01-04T11:32:43.000Z</Time>
            <Position>
              <LatitudeDegrees>36.49350143037736415863037109375</LatitudeDegrees>
              <LongitudeDegrees>-5.404196195304393768310546875</LongitudeDegrees>
            </Position>
            <AltitudeMeters>60.799999237060546875</AltitudeMeters>
            <DistanceMeters>NAN</DistanceMeters>
          </Trackpoint>
          <Trackpoint>
            <Time>2019-01-04T11:32:44.000Z</Time>
            <Position>
              <LatitudeDegrees>36.4935000054538249969482421875</LatitudeDegrees>
              <LongitudeDegrees>-5.404203236103057861328125</LongitudeDegrees>
            </Position>
            <AltitudeMeters>60.799999237060546875</AltitudeMeters>
            <DistanceMeters>NAN</DistanceMeters>
          </Trackpoint>
          <Trackpoint>
            <Time>2019-01-04T11:32:45.000Z</Time>
            <Position>
              <LatitudeDegrees>36.4934899471700191497802734375</LatitudeDegrees>
              <LongitudeDegrees>-5.4042101092636585235595703125</LongitudeDegrees>
            </Position>
            <AltitudeMeters>60.799999237060546875</AltitudeMeters>
            <DistanceMeters>NAN</DistanceMeters>
          </Trackpoint>
          <Trackpoint>
            <Time>2019-01-04T11:32:46.000Z</Time>
            <Position>
              <LatitudeDegrees>36.493480391800403594970703125</LatitudeDegrees>
              <LongitudeDegrees>-5.40421186946332454681396484375</LongitudeDegrees>
            </Position>
            <AltitudeMeters>60.799999237060546875</AltitudeMeters>
            <DistanceMeters>NAN</DistanceMeters>
          </Trackpoint>
          <Trackpoint>
            <Time>2019-01-04T11:32:47.000Z</Time>
            <Position>
              <LatitudeDegrees>36.49347175844013690948486328125</LatitudeDegrees>
              <LongitudeDegrees>-5.4042144678533077239990234375</LongitudeDegrees>
            </Position>
            <AltitudeMeters>60.799999237060546875</AltitudeMeters>
            <DistanceMeters>NAN</DistanceMeters>
          </Trackpoint>
          <Trackpoint>
            <Time>2019-01-04T11:32:48.000Z</Time>
            <Position>
              <LatitudeDegrees>36.49346329271793365478515625</LatitudeDegrees>
              <LongitudeDegrees>-5.40421907790005207061767578125</LongitudeDegrees>
            </Position>
            <AltitudeMeters>60.799999237060546875</AltitudeMeters>
            <DistanceMeters>NAN</DistanceMeters>
          </Trackpoint>
          <Trackpoint>
            <Time>2019-01-04T11:32:49.000Z</Time>
            <Position>
              <LatitudeDegrees>36.49345231242477893829345703125</LatitudeDegrees>
              <LongitudeDegrees>-5.40422444231808185577392578125</LongitudeDegrees>
            </Position>
            <AltitudeMeters>60.799999237060546875</AltitudeMeters>
            <DistanceMeters>NAN</DistanceMeters>
          </Trackpoint>
          <Trackpoint>
            <Time>2019-01-04T11:32:50.000Z</Time>
            <Position>
              <LatitudeDegrees>36.49344108067452907562255859375</LatitudeDegrees>
              <LongitudeDegrees>-5.4042319022119045257568359375</LongitudeDegrees>
            </Position>
            <AltitudeMeters>60.799999237060546875</AltitudeMeters>
            <DistanceMeters>NAN</DistanceMeters>
          </Trackpoint>
          <Trackpoint>
            <Time>2019-01-04T11:32:51.000Z</Time>
            <Position>
              <LatitudeDegrees>36.4934302680194377899169921875</LatitudeDegrees>
              <LongitudeDegrees>-5.40424003265798091888427734375</LongitudeDegrees>
            </Position>
            <AltitudeMeters>60.799999237060546875</AltitudeMeters>
            <DistanceMeters>NAN</DistanceMeters>
          </Trackpoint>
          <Trackpoint>
            <Time>2019-01-04T11:32:52.000Z</Time>
            <Position>
              <LatitudeDegrees>36.49341962300240993499755859375</LatitudeDegrees>
              <LongitudeDegrees>-5.40424992330372333526611328125</LongitudeDegrees>
            </Position>
            <AltitudeMeters>60.799999237060546875</AltitudeMeters>
            <DistanceMeters>NAN</DistanceMeters>
          </Trackpoint>
          <Trackpoint>
            <Time>2019-01-04T11:32:53.000Z</Time>
            <Position>
              <LatitudeDegrees>36.493409983813762664794921875</LatitudeDegrees>
              <LongitudeDegrees>-5.40425486862659454345703125</LongitudeDegrees>
            </Position>
            <AltitudeMeters>60.799999237060546875</AltitudeMeters>
            <DistanceMeters>NAN</DistanceMeters>
          </Trackpoint>
          <Trackpoint>
            <Time>2019-01-04T11:32:54.000Z</Time>
            <Position>
              <LatitudeDegrees>36.49339816533029079437255859375</LatitudeDegrees>
              <LongitudeDegrees>-5.40425864048302173614501953125</LongitudeDegrees>
            </Position>
            <AltitudeMeters>60.799999237060546875</AltitudeMeters>
            <DistanceMeters>NAN</DistanceMeters>
          </Trackpoint>
          <Trackpoint>
            <Time>2019-01-04T11:32:55.000Z</Time>
            <Position>
              <LatitudeDegrees>36.493385843932628631591796875</LatitudeDegrees>
              <LongitudeDegrees>-5.40426249615848064422607421875</LongitudeDegrees>
            </Position>
            <AltitudeMeters>61</AltitudeMeters>
            <DistanceMeters>NAN</DistanceMeters>
          </Trackpoint>
          <Trackpoint>
            <Time>2019-01-04T11:32:56.000Z</Time>
            <Position>
              <LatitudeDegrees>36.493373103439807891845703125</LatitudeDegrees>
              <LongitudeDegrees>-5.404268614947795867919921875</LongitudeDegrees>
            </Position>
            <AltitudeMeters>61</AltitudeMeters>
            <DistanceMeters>NAN</DistanceMeters>
          </Trackpoint>
          <Trackpoint>
            <Time>2019-01-04T11:32:57.000Z</Time>
            <Position>
              <LatitudeDegrees>36.4933605305850505828857421875</LatitudeDegrees>
              <LongitudeDegrees>-5.40427339263260364532470703125</LongitudeDegrees>
            </Position>
            <AltitudeMeters>61</AltitudeMeters>
            <DistanceMeters>NAN</DistanceMeters>
          </Trackpoint>
          <Trackpoint>
            <Time>2019-01-04T11:32:58.000Z</Time>
            <Position>
              <LatitudeDegrees>36.4933477900922298431396484375</LatitudeDegrees>
              <LongitudeDegrees>-5.40427892468869686126708984375</LongitudeDegrees>
            </Position>
            <AltitudeMeters>61</AltitudeMeters>
            <DistanceMeters>NAN</DistanceMeters>
          </Trackpoint>
          <Trackpoint>
            <Time>2019-01-04T11:32:59.000Z</Time>
            <Position>
              <LatitudeDegrees>36.49333597160875797271728515625</LatitudeDegrees>
              <LongitudeDegrees>-5.40428294800221920013427734375</LongitudeDegrees>
            </Position>
            <AltitudeMeters>61.200000762939453125</AltitudeMeters>
            <DistanceMeters>NAN</DistanceMeters>
          </Trackpoint>
          <Trackpoint>
            <Time>2019-01-04T11:33:00.000Z</Time>
            <Position>
              <LatitudeDegrees>36.493323482573032379150390625</LatitudeDegrees>
              <LongitudeDegrees>-5.40428462438285350799560546875</LongitudeDegrees>
            </Position>
            <AltitudeMeters>61.200000762939453125</AltitudeMeters>
            <DistanceMeters>NAN</DistanceMeters>
          </Trackpoint>
          <Trackpoint>
            <Time>2019-01-04T11:33:01.000Z</Time>
            <Position>
              <LatitudeDegrees>36.4933109097182750701904296875</LatitudeDegrees>
              <LongitudeDegrees>-5.4042865522205829620361328125</LongitudeDegrees>
            </Position>
            <AltitudeMeters>61.200000762939453125</AltitudeMeters>
            <DistanceMeters>NAN</DistanceMeters>
          </Trackpoint>
          <Trackpoint>
            <Time>2019-01-04T11:33:02.000Z</Time>
            <Position>
              <LatitudeDegrees>36.4932976663112640380859375</LatitudeDegrees>
              <LongitudeDegrees>-5.40428780950605869293212890625</LongitudeDegrees>
            </Position>
            <AltitudeMeters>61.200000762939453125</AltitudeMeters>
            <DistanceMeters>NAN</DistanceMeters>
          </Trackpoint>
          <Trackpoint>
            <Time>2019-01-04T11:33:03.000Z</Time>
            <Position>
              <LatitudeDegrees>36.49328467436134815216064453125</LatitudeDegrees>
              <LongitudeDegrees>-5.404289066791534423828125</LongitudeDegrees>
            </Position>
            <AltitudeMeters>61.200000762939453125</AltitudeMeters>
            <DistanceMeters>NAN</DistanceMeters>
          </Trackpoint>
          <Trackpoint>
            <Time>2019-01-04T11:33:04.000Z</Time>
            <Position>
              <LatitudeDegrees>36.49327159859240055084228515625</LatitudeDegrees>
              <LongitudeDegrees>-5.4042899049818515777587890625</LongitudeDegrees>
            </Position>
            <AltitudeMeters>61</AltitudeMeters>
            <DistanceMeters>NAN</DistanceMeters>
          </Trackpoint>
          <Trackpoint>
            <Time>2019-01-04T11:33:05.000Z</Time>
            <Position>
              <LatitudeDegrees>36.49325718171894550323486328125</LatitudeDegrees>
              <LongitudeDegrees>-5.4042875580489635467529296875</LongitudeDegrees>
            </Position>
            <AltitudeMeters>61</AltitudeMeters>
            <DistanceMeters>NAN</DistanceMeters>
          </Trackpoint>
          <Trackpoint>
            <Time>2019-01-04T11:33:06.000Z</Time>
            <Position>
              <LatitudeDegrees>36.49324142374098300933837890625</LatitudeDegrees>
              <LongitudeDegrees>-5.40428143925964832305908203125</LongitudeDegrees>
            </Position>
            <AltitudeMeters>60.799999237060546875</AltitudeMeters>
            <DistanceMeters>NAN</DistanceMeters>
          </Trackpoint>
          <Trackpoint>
            <Time>2019-01-04T11:33:07.000Z</Time>
            <Position>
              <LatitudeDegrees>36.49322767741978168487548828125</LatitudeDegrees>
              <LongitudeDegrees>-5.40427632629871368408203125</LongitudeDegrees>
            </Position>
            <AltitudeMeters>60.799999237060546875</AltitudeMeters>
            <DistanceMeters>NAN</DistanceMeters>
          </Trackpoint>
          <Trackpoint>
            <Time>2019-01-04T11:33:08.000Z</Time>
            <Position>
              <LatitudeDegrees>36.4932150207459926605224609375</LatitudeDegrees>
              <LongitudeDegrees>-5.40427096188068389892578125</LongitudeDegrees>
            </Position>
            <AltitudeMeters>60.59999847412109375</AltitudeMeters>
            <DistanceMeters>NAN</DistanceMeters>
          </Trackpoint>
          <Trackpoint>
            <Time>2019-01-04T11:33:09.000Z</Time>
            <Position>
              <LatitudeDegrees>36.49320043623447418212890625</LatitudeDegrees>
              <LongitudeDegrees>-5.404269285500049591064453125</LongitudeDegrees>
            </Position>
            <AltitudeMeters>60.59999847412109375</AltitudeMeters>
            <DistanceMeters>NAN</DistanceMeters>
          </Trackpoint>
          <Trackpoint>
            <Time>2019-01-04T11:33:10.000Z</Time>
            <Position>
              <LatitudeDegrees>36.49318727664649486541748046875</LatitudeDegrees>
              <LongitudeDegrees>-5.404262579977512359619140625</LongitudeDegrees>
            </Position>
            <AltitudeMeters>60.59999847412109375</AltitudeMeters>
            <DistanceMeters>NAN</DistanceMeters>
          </Trackpoint>
          <Trackpoint>
            <Time>2019-01-04T11:33:11.000Z</Time>
            <Position>
              <LatitudeDegrees>36.4931757934391498565673828125</LatitudeDegrees>
              <LongitudeDegrees>-5.4042580537497997283935546875</LongitudeDegrees>
            </Position>
            <AltitudeMeters>60.59999847412109375</AltitudeMeters>
            <DistanceMeters>NAN</DistanceMeters>
          </Trackpoint>
          <Trackpoint>
            <Time>2019-01-04T11:33:12.000Z</Time>
            <Position>
              <LatitudeDegrees>36.493166573345661163330078125</LatitudeDegrees>
              <LongitudeDegrees>-5.4042520187795162200927734375</LongitudeDegrees>
            </Position>
            <AltitudeMeters>60.40000152587890625</AltitudeMeters>
            <DistanceMeters>NAN</DistanceMeters>
          </Trackpoint>
          <Trackpoint>
            <Time>2019-01-04T11:33:13.000Z</Time>
            <Position>
              <LatitudeDegrees>36.49315693415701389312744140625</LatitudeDegrees>
              <LongitudeDegrees>-5.40424623526632785797119140625</LongitudeDegrees>
            </Position>
            <AltitudeMeters>60.40000152587890625</AltitudeMeters>
            <DistanceMeters>NAN</DistanceMeters>
          </Trackpoint>
          <Trackpoint>
            <Time>2019-01-04T11:33:14.000Z</Time>
            <Position>
              <LatitudeDegrees>36.49314503185451030731201171875</LatitudeDegrees>
              <LongitudeDegrees>-5.40424204431474208831787109375</LongitudeDegrees>
            </Position>
            <AltitudeMeters>60.40000152587890625</AltitudeMeters>
            <DistanceMeters>NAN</DistanceMeters>
          </Trackpoint>
          <Trackpoint>
            <Time>2019-01-04T11:33:15.000Z</Time>
            <Position>
              <LatitudeDegrees>36.49313329719007015228271484375</LatitudeDegrees>
              <LongitudeDegrees>-5.404237769544124603271484375</LongitudeDegrees>
            </Position>
            <AltitudeMeters>60.40000152587890625</AltitudeMeters>
            <DistanceMeters>NAN</DistanceMeters>
          </Trackpoint>
          <Trackpoint>
            <Time>2019-01-04T11:33:16.000Z</Time>
            <Position>
              <LatitudeDegrees>36.49311854504048824310302734375</LatitudeDegrees>
              <LongitudeDegrees>-5.4042322374880313873291015625</LongitudeDegrees>
            </Position>
            <AltitudeMeters>60.40000152587890625</AltitudeMeters>
            <DistanceMeters>NAN</DistanceMeters>
          </Trackpoint>
          <Trackpoint>
            <Time>2019-01-04T11:33:17.000Z</Time>
            <Position>
              <LatitudeDegrees>36.4931053854525089263916015625</LatitudeDegrees>
              <LongitudeDegrees>-5.4042285494506359100341796875</LongitudeDegrees>
            </Position>
            <AltitudeMeters>60.40000152587890625</AltitudeMeters>
            <DistanceMeters>NAN</DistanceMeters>
          </Trackpoint>
          <Trackpoint>
            <Time>2019-01-04T11:33:18.000Z</Time>
            <Position>
              <LatitudeDegrees>36.493094153702259063720703125</LatitudeDegrees>
              <LongitudeDegrees>-5.40422511287033557891845703125</LongitudeDegrees>
            </Position>
            <AltitudeMeters>60.40000152587890625</AltitudeMeters>
            <DistanceMeters>NAN</DistanceMeters>
          </Trackpoint>
          <Trackpoint>
            <Time>2019-01-04T11:33:19.000Z</Time>
            <Position>
              <LatitudeDegrees>36.49308250285685062408447265625</LatitudeDegrees>
              <LongitudeDegrees>-5.40422058664262294769287109375</LongitudeDegrees>
            </Position>
            <AltitudeMeters>60.40000152587890625</AltitudeMeters>
            <DistanceMeters>NAN</DistanceMeters>
          </Trackpoint>
          <Trackpoint>
            <Time>2019-01-04T11:33:20.000Z</Time>
            <Position>
              <LatitudeDegrees>36.49307060055434703826904296875</LatitudeDegrees>
              <LongitudeDegrees>-5.40421522222459316253662109375</LongitudeDegrees>
            </Position>
            <AltitudeMeters>60.40000152587890625</AltitudeMeters>
            <DistanceMeters>NAN</DistanceMeters>
          </Trackpoint>
          <Trackpoint>
            <Time>2019-01-04T11:33:21.000Z</Time>
            <Position>
              <LatitudeDegrees>36.49305802769958972930908203125</LatitudeDegrees>
              <LongitudeDegrees>-5.4042107798159122467041015625</LongitudeDegrees>
            </Position>
            <AltitudeMeters>60.40000152587890625</AltitudeMeters>
            <DistanceMeters>NAN</DistanceMeters>
          </Trackpoint>
          <Trackpoint>
            <Time>2019-01-04T11:33:22.000Z</Time>
            <Position>
              <LatitudeDegrees>36.49304545484483242034912109375</LatitudeDegrees>
              <LongitudeDegrees>-5.40420533157885074615478515625</LongitudeDegrees>
            </Position>
            <AltitudeMeters>60.40000152587890625</AltitudeMeters>
            <DistanceMeters>NAN</DistanceMeters>
          </Trackpoint>
          <Trackpoint>
            <Time>2019-01-04T11:33:23.000Z</Time>
            <Position>
              <LatitudeDegrees>36.4930346421897411346435546875</LatitudeDegrees>
              <LongitudeDegrees>-5.4042010568082332611083984375</LongitudeDegrees>
            </Position>
            <AltitudeMeters>60.40000152587890625</AltitudeMeters>
            <DistanceMeters>NAN</DistanceMeters>
          </Trackpoint>
          <Trackpoint>
            <Time>2019-01-04T11:33:24.000Z</Time>
            <Position>
              <LatitudeDegrees>36.4930195547640323638916015625</LatitudeDegrees>
              <LongitudeDegrees>-5.40420264936983585357666015625</LongitudeDegrees>
            </Position>
            <AltitudeMeters>60.40000152587890625</AltitudeMeters>
            <DistanceMeters>NAN</DistanceMeters>
          </Trackpoint>
          <Trackpoint>
            <Time>2019-01-04T11:33:25.000Z</Time>
            <Position>
              <LatitudeDegrees>36.493004970252513885498046875</LatitudeDegrees>
              <LongitudeDegrees>-5.4042007215321063995361328125</LongitudeDegrees>
            </Position>
            <AltitudeMeters>60.40000152587890625</AltitudeMeters>
            <DistanceMeters>NAN</DistanceMeters>
          </Trackpoint>
          <Trackpoint>
            <Time>2019-01-04T11:33:26.000Z</Time>
            <Position>
              <LatitudeDegrees>36.4929918944835662841796875</LatitudeDegrees>
              <LongitudeDegrees>-5.404198206961154937744140625</LongitudeDegrees>
            </Position>
            <AltitudeMeters>60.40000152587890625</AltitudeMeters>
            <DistanceMeters>NAN</DistanceMeters>
          </Trackpoint>
          <Trackpoint>
            <Time>2019-01-04T11:33:27.000Z</Time>
            <Position>
              <LatitudeDegrees>36.492980159819126129150390625</LatitudeDegrees>
              <LongitudeDegrees>-5.40419812314212322235107421875</LongitudeDegrees>
            </Position>
            <AltitudeMeters>60.40000152587890625</AltitudeMeters>
            <DistanceMeters>NAN</DistanceMeters>
          </Trackpoint>
          <Trackpoint>
            <Time>2019-01-04T11:33:28.000Z</Time>
            <Position>
              <LatitudeDegrees>36.4929650723934173583984375</LatitudeDegrees>
              <LongitudeDegrees>-5.404196865856647491455078125</LongitudeDegrees>
            </Position>
            <AltitudeMeters>60.40000152587890625</AltitudeMeters>
            <DistanceMeters>NAN</DistanceMeters>
          </Trackpoint>
          <Trackpoint>
            <Time>2019-01-04T11:33:29.000Z</Time>
            <Position>
              <LatitudeDegrees>36.4929498173296451568603515625</LatitudeDegrees>
              <LongitudeDegrees>-5.40419443510472774505615234375</LongitudeDegrees>
            </Position>
            <AltitudeMeters>60.40000152587890625</AltitudeMeters>
            <DistanceMeters>NAN</DistanceMeters>
          </Trackpoint>
          <Trackpoint>
            <Time>2019-01-04T11:33:30.000Z</Time>
            <Position>
              <LatitudeDegrees>36.4929328858852386474609375</LatitudeDegrees>
              <LongitudeDegrees>-5.4041920043528079986572265625</LongitudeDegrees>
            </Position>
            <AltitudeMeters>60.40000152587890625</AltitudeMeters>
            <DistanceMeters>NAN</DistanceMeters>
          </Trackpoint>
          <Trackpoint>
            <Time>2019-01-04T11:33:31.000Z</Time>
            <Position>
              <LatitudeDegrees>36.4929162897169589996337890625</LatitudeDegrees>
              <LongitudeDegrees>-5.4041873104870319366455078125</LongitudeDegrees>
            </Position>
            <AltitudeMeters>60.40000152587890625</AltitudeMeters>
            <DistanceMeters>NAN</DistanceMeters>
          </Trackpoint>
          <Trackpoint>
            <Time>2019-01-04T11:33:32.000Z</Time>
            <Position>
              <LatitudeDegrees>36.49290178902447223663330078125</LatitudeDegrees>
              <LongitudeDegrees>-5.40418353863060474395751953125</LongitudeDegrees>
            </Position>
            <AltitudeMeters>60.59999847412109375</AltitudeMeters>
            <DistanceMeters>NAN</DistanceMeters>
          </Trackpoint>
          <Trackpoint>
            <Time>2019-01-04T11:33:33.000Z</Time>
            <Position>
              <LatitudeDegrees>36.492886953055858612060546875</LatitudeDegrees>
              <LongitudeDegrees>-5.40417817421257495880126953125</LongitudeDegrees>
            </Position>
            <AltitudeMeters>60.59999847412109375</AltitudeMeters>
            <DistanceMeters>NAN</DistanceMeters>
          </Trackpoint>
          <Trackpoint>
            <Time>2019-01-04T11:33:34.000Z</Time>
            <Position>
              <LatitudeDegrees>36.49287295527756214141845703125</LatitudeDegrees>
              <LongitudeDegrees>-5.4041715525090694427490234375</LongitudeDegrees>
            </Position>
            <AltitudeMeters>60.799999237060546875</AltitudeMeters>
            <DistanceMeters>NAN</DistanceMeters>
          </Trackpoint>
          <Trackpoint>
            <Time>2019-01-04T11:33:35.000Z</Time>
            <Position>
              <LatitudeDegrees>36.49285803548991680145263671875</LatitudeDegrees>
              <LongitudeDegrees>-5.40416526608169078826904296875</LongitudeDegrees>
            </Position>
            <AltitudeMeters>60.799999237060546875</AltitudeMeters>
            <DistanceMeters>NAN</DistanceMeters>
          </Trackpoint>
          <Trackpoint>
            <Time>2019-01-04T11:33:36.000Z</Time>
            <Position>
              <LatitudeDegrees>36.49284294806420803070068359375</LatitudeDegrees>
              <LongitudeDegrees>-5.404160320758819580078125</LongitudeDegrees>
            </Position>
            <AltitudeMeters>60.799999237060546875</AltitudeMeters>
            <DistanceMeters>NAN</DistanceMeters>
          </Trackpoint>
          <Trackpoint>
            <Time>2019-01-04T11:33:37.000Z</Time>
            <Position>
              <LatitudeDegrees>36.49283104576170444488525390625</LatitudeDegrees>
              <LongitudeDegrees>-5.4041557945311069488525390625</LongitudeDegrees>
            </Position>
            <AltitudeMeters>60.799999237060546875</AltitudeMeters>
            <DistanceMeters>NAN</DistanceMeters>
          </Trackpoint>
          <Trackpoint>
            <Time>2019-01-04T11:33:38.000Z</Time>
            <Position>
              <LatitudeDegrees>36.4928180538117885589599609375</LatitudeDegrees>
              <LongitudeDegrees>-5.4041537828743457794189453125</LongitudeDegrees>
            </Position>
            <AltitudeMeters>60.799999237060546875</AltitudeMeters>
            <DistanceMeters>NAN</DistanceMeters>
          </Trackpoint>
          <Trackpoint>
            <Time>2019-01-04T11:33:39.000Z</Time>
            <Position>
              <LatitudeDegrees>36.49280749261379241943359375</LatitudeDegrees>
              <LongitudeDegrees>-5.40415286086499691009521484375</LongitudeDegrees>
            </Position>
            <AltitudeMeters>60.59999847412109375</AltitudeMeters>
            <DistanceMeters>NAN</DistanceMeters>
          </Trackpoint>
          <Trackpoint>
            <Time>2019-01-04T11:33:40.000Z</Time>
            <Position>
              <LatitudeDegrees>36.49279366247355937957763671875</LatitudeDegrees>
              <LongitudeDegrees>-5.40415185503661632537841796875</LongitudeDegrees>
            </Position>
            <AltitudeMeters>60.59999847412109375</AltitudeMeters>
            <DistanceMeters>NAN</DistanceMeters>
          </Trackpoint>
          <Trackpoint>
            <Time>2019-01-04T11:33:41.000Z</Time>
            <Position>
              <LatitudeDegrees>36.4927774854004383087158203125</LatitudeDegrees>
              <LongitudeDegrees>-5.40415286086499691009521484375</LongitudeDegrees>
            </Position>
            <AltitudeMeters>60.59999847412109375</AltitudeMeters>
            <DistanceMeters>NAN</DistanceMeters>
          </Trackpoint>
          <Trackpoint>
            <Time>2019-01-04T11:33:42.000Z</Time>
            <Position>
              <LatitudeDegrees>36.49276331998407840728759765625</LatitudeDegrees>
              <LongitudeDegrees>-5.4041521064937114715576171875</LongitudeDegrees>
            </Position>
            <AltitudeMeters>60.40000152587890625</AltitudeMeters>
            <DistanceMeters>NAN</DistanceMeters>
          </Trackpoint>
          <Trackpoint>
            <Time>2019-01-04T11:33:43.000Z</Time>
            <Position>
              <LatitudeDegrees>36.492750160396099090576171875</LatitudeDegrees>
              <LongitudeDegrees>-5.40414866991341114044189453125</LongitudeDegrees>
            </Position>
            <AltitudeMeters>60.40000152587890625</AltitudeMeters>
            <DistanceMeters>NAN</DistanceMeters>
          </Trackpoint>
          <Trackpoint>
            <Time>2019-01-04T11:33:44.000Z</Time>
            <Position>
              <LatitudeDegrees>36.4927395991981029510498046875</LatitudeDegrees>
              <LongitudeDegrees>-5.40414816699922084808349609375</LongitudeDegrees>
            </Position>
            <AltitudeMeters>60.200000762939453125</AltitudeMeters>
            <DistanceMeters>NAN</DistanceMeters>
          </Trackpoint>
          <Trackpoint>
            <Time>2019-01-04T11:33:45.000Z</Time>
            <Position>
              <LatitudeDegrees>36.492728702723979949951171875</LatitudeDegrees>
              <LongitudeDegrees>-5.40414598770439624786376953125</LongitudeDegrees>
            </Position>
            <AltitudeMeters>60.200000762939453125</AltitudeMeters>
            <DistanceMeters>NAN</DistanceMeters>
          </Trackpoint>
          <Trackpoint>
            <Time>2019-01-04T11:33:46.000Z</Time>
            <Position>
              <LatitudeDegrees>36.4927181415259838104248046875</LatitudeDegrees>
              <LongitudeDegrees>-5.40414548479020595550537109375</LongitudeDegrees>
            </Position>
            <AltitudeMeters>60</AltitudeMeters>
            <DistanceMeters>NAN</DistanceMeters>
          </Trackpoint>
          <Trackpoint>
            <Time>2019-01-04T11:33:47.000Z</Time>
            <Position>
              <LatitudeDegrees>36.49271068163216114044189453125</LatitudeDegrees>
              <LongitudeDegrees>-5.40415068157017230987548828125</LongitudeDegrees>
            </Position>
            <AltitudeMeters>60</AltitudeMeters>
            <DistanceMeters>NAN</DistanceMeters>
          </Trackpoint>
          <Trackpoint>
            <Time>2019-01-04T11:33:48.000Z</Time>
            <Position>
              <LatitudeDegrees>36.49269743822515010833740234375</LatitudeDegrees>
              <LongitudeDegrees>-5.4041557945311069488525390625</LongitudeDegrees>
            </Position>
            <AltitudeMeters>60</AltitudeMeters>
            <DistanceMeters>NAN</DistanceMeters>
          </Trackpoint>
          <Trackpoint>
            <Time>2019-01-04T11:33:49.000Z</Time>
            <Position>
              <LatitudeDegrees>36.49268411099910736083984375</LatitudeDegrees>
              <LongitudeDegrees>-5.40416392497718334197998046875</LongitudeDegrees>
            </Position>
            <AltitudeMeters>60</AltitudeMeters>
            <DistanceMeters>NAN</DistanceMeters>
          </Trackpoint>
          <Trackpoint>
            <Time>2019-01-04T11:33:50.000Z</Time>
            <Position>
              <LatitudeDegrees>36.492669023573398590087890625</LatitudeDegrees>
              <LongitudeDegrees>-5.40417029522359371185302734375</LongitudeDegrees>
            </Position>
            <AltitudeMeters>60</AltitudeMeters>
            <DistanceMeters>NAN</DistanceMeters>
          </Trackpoint>
          <Trackpoint>
            <Time>2019-01-04T11:33:51.000Z</Time>
            <Position>
              <LatitudeDegrees>36.49265502579510211944580078125</LatitudeDegrees>
              <LongitudeDegrees>-5.40417884476482868194580078125</LongitudeDegrees>
            </Position>
            <AltitudeMeters>60</AltitudeMeters>
            <DistanceMeters>NAN</DistanceMeters>
          </Trackpoint>
          <Trackpoint>
            <Time>2019-01-04T11:33:52.000Z</Time>
            <Position>
              <LatitudeDegrees>36.49264329113066196441650390625</LatitudeDegrees>
              <LongitudeDegrees>-5.4041856341063976287841796875</LongitudeDegrees>
            </Position>
            <AltitudeMeters>60</AltitudeMeters>
            <DistanceMeters>NAN</DistanceMeters>
          </Trackpoint>
          <Trackpoint>
            <Time>2019-01-04T11:33:53.000Z</Time>
            <Position>
              <LatitudeDegrees>36.49263180792331695556640625</LatitudeDegrees>
              <LongitudeDegrees>-5.40419183671474456787109375</LongitudeDegrees>
            </Position>
            <AltitudeMeters>60.200000762939453125</AltitudeMeters>
            <DistanceMeters>NAN</DistanceMeters>
          </Trackpoint>
          <Trackpoint>
            <Time>2019-01-04T11:33:54.000Z</Time>
            <Position>
              <LatitudeDegrees>36.49262015707790851593017578125</LatitudeDegrees>
              <LongitudeDegrees>-5.40419493801891803741455078125</LongitudeDegrees>
            </Position>
            <AltitudeMeters>60.200000762939453125</AltitudeMeters>
            <DistanceMeters>NAN</DistanceMeters>
          </Trackpoint>
          <Trackpoint>
            <Time>2019-01-04T11:33:55.000Z</Time>
            <Position>
              <LatitudeDegrees>36.4926083385944366455078125</LatitudeDegrees>
              <LongitudeDegrees>-5.4041977040469646453857421875</LongitudeDegrees>
            </Position>
            <AltitudeMeters>60.200000762939453125</AltitudeMeters>
            <DistanceMeters>NAN</DistanceMeters>
          </Trackpoint>
          <Trackpoint>
            <Time>2019-01-04T11:33:56.000Z</Time>
            <Position>
              <LatitudeDegrees>36.4925964362919330596923828125</LatitudeDegrees>
              <LongitudeDegrees>-5.40420256555080413818359375</LongitudeDegrees>
            </Position>
            <AltitudeMeters>60</AltitudeMeters>
            <DistanceMeters>NAN</DistanceMeters>
          </Trackpoint>
          <Trackpoint>
            <Time>2019-01-04T11:33:57.000Z</Time>
            <Position>
              <LatitudeDegrees>36.49257975630462169647216796875</LatitudeDegrees>
              <LongitudeDegrees>-5.4042045772075653076171875</LongitudeDegrees>
            </Position>
            <AltitudeMeters>60</AltitudeMeters>
            <DistanceMeters>NAN</DistanceMeters>
          </Trackpoint>
          <Trackpoint>
            <Time>2019-01-04T11:33:58.000Z</Time>
            <Position>
              <LatitudeDegrees>36.4925654232501983642578125</LatitudeDegrees>
              <LongitudeDegrees>-5.40421270765364170074462890625</LongitudeDegrees>
            </Position>
            <AltitudeMeters>60</AltitudeMeters>
            <DistanceMeters>NAN</DistanceMeters>
          </Trackpoint>
          <Trackpoint>
            <Time>2019-01-04T11:33:59.000Z</Time>
            <Position>
              <LatitudeDegrees>36.49254941381514072418212890625</LatitudeDegrees>
              <LongitudeDegrees>-5.40422025136649608612060546875</LongitudeDegrees>
            </Position>
            <AltitudeMeters>60.200000762939453125</AltitudeMeters>
            <DistanceMeters>NAN</DistanceMeters>
          </Trackpoint>
          <Trackpoint>
            <Time>2019-01-04T11:34:00.000Z</Time>
            <Position>
              <LatitudeDegrees>36.4925337396562099456787109375</LatitudeDegrees>
              <LongitudeDegrees>-5.404226370155811309814453125</LongitudeDegrees>
            </Position>
            <AltitudeMeters>60.200000762939453125</AltitudeMeters>
            <DistanceMeters>NAN</DistanceMeters>
          </Trackpoint>
          <Trackpoint>
            <Time>2019-01-04T11:34:01.000Z</Time>
            <Position>
              <LatitudeDegrees>36.492519490420818328857421875</LatitudeDegrees>
              <LongitudeDegrees>-5.4042332433164119720458984375</LongitudeDegrees>
            </Position>
            <AltitudeMeters>60.200000762939453125</AltitudeMeters>
            <DistanceMeters>NAN</DistanceMeters>
          </Trackpoint>
          <Trackpoint>
            <Time>2019-01-04T11:34:02.000Z</Time>
            <Position>
              <LatitudeDegrees>36.49250180460512638092041015625</LatitudeDegrees>
              <LongitudeDegrees>-5.40423969738185405731201171875</LongitudeDegrees>
            </Position>
            <AltitudeMeters>60</AltitudeMeters>
            <DistanceMeters>NAN</DistanceMeters>
          </Trackpoint>
          <Trackpoint>
            <Time>2019-01-04T11:34:03.000Z</Time>
            <Position>
              <LatitudeDegrees>36.49248453788459300994873046875</LatitudeDegrees>
              <LongitudeDegrees>-5.40424221195280551910400390625</LongitudeDegrees>
            </Position>
            <AltitudeMeters>60</AltitudeMeters>
            <DistanceMeters>NAN</DistanceMeters>
          </Trackpoint>
          <Trackpoint>
            <Time>2019-01-04T11:34:04.000Z</Time>
            <Position>
              <LatitudeDegrees>36.49246643297374248504638671875</LatitudeDegrees>
              <LongitudeDegrees>-5.40424204431474208831787109375</LongitudeDegrees>
            </Position>
            <AltitudeMeters>60</AltitudeMeters>
            <DistanceMeters>NAN</DistanceMeters>
          </Trackpoint>
          <Trackpoint>
            <Time>2019-01-04T11:34:05.000Z</Time>
            <Position>
              <LatitudeDegrees>36.4924482442438602447509765625</LatitudeDegrees>
              <LongitudeDegrees>-5.4042419604957103729248046875</LongitudeDegrees>
            </Position>
            <AltitudeMeters>60</AltitudeMeters>
            <DistanceMeters>NAN</DistanceMeters>
          </Trackpoint>
          <Trackpoint>
            <Time>2019-01-04T11:34:06.000Z</Time>
            <Position>
              <LatitudeDegrees>36.4924313127994537353515625</LatitudeDegrees>
              <LongitudeDegrees>-5.4042421281337738037109375</LongitudeDegrees>
            </Position>
            <AltitudeMeters>60</AltitudeMeters>
            <DistanceMeters>NAN</DistanceMeters>
          </Trackpoint>
          <Trackpoint>
            <Time>2019-01-04T11:34:07.000Z</Time>
            <Position>
              <LatitudeDegrees>36.492414884269237518310546875</LatitudeDegrees>
              <LongitudeDegrees>-5.40424573235213756561279296875</LongitudeDegrees>
            </Position>
            <AltitudeMeters>60</AltitudeMeters>
            <DistanceMeters>NAN</DistanceMeters>
          </Trackpoint>
          <Trackpoint>
            <Time>2019-01-04T11:34:08.000Z</Time>
            <Position>
              <LatitudeDegrees>36.49240256287157535552978515625</LatitudeDegrees>
              <LongitudeDegrees>-5.40424774400889873504638671875</LongitudeDegrees>
            </Position>
            <AltitudeMeters>60.200000762939453125</AltitudeMeters>
            <DistanceMeters>NAN</DistanceMeters>
          </Trackpoint>
          <Trackpoint>
            <Time>2019-01-04T11:34:09.000Z</Time>
            <Position>
              <LatitudeDegrees>36.49239116348326206207275390625</LatitudeDegrees>
              <LongitudeDegrees>-5.404252521693706512451171875</LongitudeDegrees>
            </Position>
            <AltitudeMeters>60.200000762939453125</AltitudeMeters>
            <DistanceMeters>NAN</DistanceMeters>
          </Trackpoint>
          <Trackpoint>
            <Time>2019-01-04T11:34:10.000Z</Time>
            <Position>
              <LatitudeDegrees>36.49237540550529956817626953125</LatitudeDegrees>
              <LongitudeDegrees>-5.40425796993076801300048828125</LongitudeDegrees>
            </Position>
            <AltitudeMeters>60.200000762939453125</AltitudeMeters>
            <DistanceMeters>NAN</DistanceMeters>
          </Trackpoint>
          <Trackpoint>
            <Time>2019-01-04T11:34:11.000Z</Time>
            <Position>
              <LatitudeDegrees>36.49236065335571765899658203125</LatitudeDegrees>
              <LongitudeDegrees>-5.4042630828917026519775390625</LongitudeDegrees>
            </Position>
            <AltitudeMeters>60.40000152587890625</AltitudeMeters>
            <DistanceMeters>NAN</DistanceMeters>
          </Trackpoint>
          <Trackpoint>
            <Time>2019-01-04T11:34:12.000Z</Time>
            <Position>
              <LatitudeDegrees>36.4923441410064697265625</LatitudeDegrees>
              <LongitudeDegrees>-5.4042662680149078369140625</LongitudeDegrees>
            </Position>
            <AltitudeMeters>60.40000152587890625</AltitudeMeters>
            <DistanceMeters>NAN</DistanceMeters>
          </Trackpoint>
          <Trackpoint>
            <Time>2019-01-04T11:34:13.000Z</Time>
            <Position>
              <LatitudeDegrees>36.492329724133014678955078125</LatitudeDegrees>
              <LongitudeDegrees>-5.40426936931908130645751953125</LongitudeDegrees>
            </Position>
            <AltitudeMeters>60.40000152587890625</AltitudeMeters>
            <DistanceMeters>NAN</DistanceMeters>
          </Trackpoint>
          <Trackpoint>
            <Time>2019-01-04T11:34:14.000Z</Time>
            <Position>
              <LatitudeDegrees>36.4923151396214962005615234375</LatitudeDegrees>
              <LongitudeDegrees>-5.40427238680422306060791015625</LongitudeDegrees>
            </Position>
            <AltitudeMeters>60.59999847412109375</AltitudeMeters>
            <DistanceMeters>NAN</DistanceMeters>
          </Trackpoint>
          <Trackpoint>
            <Time>2019-01-04T11:34:15.000Z</Time>
            <Position>
              <LatitudeDegrees>36.49230164475739002227783203125</LatitudeDegrees>
              <LongitudeDegrees>-5.40427624247968196868896484375</LongitudeDegrees>
            </Position>
            <AltitudeMeters>60.59999847412109375</AltitudeMeters>
            <DistanceMeters>NAN</DistanceMeters>
          </Trackpoint>
          <Trackpoint>
            <Time>2019-01-04T11:34:16.000Z</Time>
            <Position>
              <LatitudeDegrees>36.492287814617156982421875</LatitudeDegrees>
              <LongitudeDegrees>-5.40427959524095058441162109375</LongitudeDegrees>
            </Position>
            <AltitudeMeters>60.799999237060546875</AltitudeMeters>
            <DistanceMeters>NAN</DistanceMeters>
          </Trackpoint>
          <Trackpoint>
            <Time>2019-01-04T11:34:17.000Z</Time>
            <Position>
              <LatitudeDegrees>36.492274738848209381103515625</LatitudeDegrees>
              <LongitudeDegrees>-5.40428278036415576934814453125</LongitudeDegrees>
            </Position>
            <AltitudeMeters>61</AltitudeMeters>
            <DistanceMeters>NAN</DistanceMeters>
          </Trackpoint>
          <Trackpoint>
            <Time>2019-01-04T11:34:18.000Z</Time>
            <Position>
              <LatitudeDegrees>36.49225763976573944091796875</LatitudeDegrees>
              <LongitudeDegrees>-5.4042868874967098236083984375</LongitudeDegrees>
            </Position>
            <AltitudeMeters>61.200000762939453125</AltitudeMeters>
            <DistanceMeters>NAN</DistanceMeters>
          </Trackpoint>
          <Trackpoint>
            <Time>2019-01-04T11:34:19.000Z</Time>
            <Position>
              <LatitudeDegrees>36.49224288761615753173828125</LatitudeDegrees>
              <LongitudeDegrees>-5.4042899049818515777587890625</LongitudeDegrees>
            </Position>
            <AltitudeMeters>61.59999847412109375</AltitudeMeters>
            <DistanceMeters>NAN</DistanceMeters>
          </Trackpoint>
          <Trackpoint>
            <Time>2019-01-04T11:34:20.000Z</Time>
            <Position>
              <LatitudeDegrees>36.492227800190448760986328125</LatitudeDegrees>
              <LongitudeDegrees>-5.40429015643894672393798828125</LongitudeDegrees>
            </Position>
            <AltitudeMeters>61.799999237060546875</AltitudeMeters>
            <DistanceMeters>NAN</DistanceMeters>
          </Trackpoint>
          <Trackpoint>
            <Time>2019-01-04T11:34:21.000Z</Time>
            <Position>
              <LatitudeDegrees>36.49221011437475681304931640625</LatitudeDegrees>
              <LongitudeDegrees>-5.40428998880088329315185546875</LongitudeDegrees>
            </Position>
            <AltitudeMeters>61.799999237060546875</AltitudeMeters>
            <DistanceMeters>NAN</DistanceMeters>
          </Trackpoint>
          <Trackpoint>
            <Time>2019-01-04T11:34:22.000Z</Time>
            <Position>
              <LatitudeDegrees>36.4921957813203334808349609375</LatitudeDegrees>
              <LongitudeDegrees>-5.40429216809570789337158203125</LongitudeDegrees>
            </Position>
            <AltitudeMeters>61.59999847412109375</AltitudeMeters>
            <DistanceMeters>NAN</DistanceMeters>
          </Trackpoint>
          <Trackpoint>
            <Time>2019-01-04T11:34:23.000Z</Time>
            <Position>
              <LatitudeDegrees>36.4921820349991321563720703125</LatitudeDegrees>
              <LongitudeDegrees>-5.404297448694705963134765625</LongitudeDegrees>
            </Position>
            <AltitudeMeters>61.59999847412109375</AltitudeMeters>
            <DistanceMeters>NAN</DistanceMeters>
          </Trackpoint>
          <Trackpoint>
            <Time>2019-01-04T11:34:24.000Z</Time>
            <Position>
              <LatitudeDegrees>36.49216887541115283966064453125</LatitudeDegrees>
              <LongitudeDegrees>-5.40430256165564060211181640625</LongitudeDegrees>
            </Position>
            <AltitudeMeters>61.200000762939453125</AltitudeMeters>
            <DistanceMeters>NAN</DistanceMeters>
          </Trackpoint>
          <Trackpoint>
            <Time>2019-01-04T11:34:25.000Z</Time>
            <Position>
              <LatitudeDegrees>36.49215529672801494598388671875</LatitudeDegrees>
              <LongitudeDegrees>-5.404307506978511810302734375</LongitudeDegrees>
            </Position>
            <AltitudeMeters>61</AltitudeMeters>
            <DistanceMeters>NAN</DistanceMeters>
          </Trackpoint>
          <Trackpoint>
            <Time>2019-01-04T11:34:26.000Z</Time>
            <Position>
              <LatitudeDegrees>36.49214238859713077545166015625</LatitudeDegrees>
              <LongitudeDegrees>-5.40430859662592411041259765625</LongitudeDegrees>
            </Position>
            <AltitudeMeters>61</AltitudeMeters>
            <DistanceMeters>NAN</DistanceMeters>
          </Trackpoint>
          <Trackpoint>
            <Time>2019-01-04T11:34:27.000Z</Time>
            <Position>
              <LatitudeDegrees>36.4921267144381999969482421875</LatitudeDegrees>
              <LongitudeDegrees>-5.40430985391139984130859375</LongitudeDegrees>
            </Position>
            <AltitudeMeters>61</AltitudeMeters>
            <DistanceMeters>NAN</DistanceMeters>
          </Trackpoint>
          <Trackpoint>
            <Time>2019-01-04T11:34:28.000Z</Time>
            <Position>
              <LatitudeDegrees>36.49211372248828411102294921875</LatitudeDegrees>
              <LongitudeDegrees>-5.4043133743107318878173828125</LongitudeDegrees>
            </Position>
            <AltitudeMeters>61</AltitudeMeters>
            <DistanceMeters>NAN</DistanceMeters>
          </Trackpoint>
          <Trackpoint>
            <Time>2019-01-04T11:34:29.000Z</Time>
            <Position>
              <LatitudeDegrees>36.49209846742451190948486328125</LatitudeDegrees>
              <LongitudeDegrees>-5.40431463159620761871337890625</LongitudeDegrees>
            </Position>
            <AltitudeMeters>61.200000762939453125</AltitudeMeters>
            <DistanceMeters>NAN</DistanceMeters>
          </Trackpoint>
          <Trackpoint>
            <Time>2019-01-04T11:34:30.000Z</Time>
            <Position>
              <LatitudeDegrees>36.49208589456975460052490234375</LatitudeDegrees>
              <LongitudeDegrees>-5.40432033129036426544189453125</LongitudeDegrees>
            </Position>
            <AltitudeMeters>61.200000762939453125</AltitudeMeters>
            <DistanceMeters>NAN</DistanceMeters>
          </Trackpoint>
          <Trackpoint>
            <Time>2019-01-04T11:34:31.000Z</Time>
            <Position>
              <LatitudeDegrees>36.4920720644295215606689453125</LatitudeDegrees>
              <LongitudeDegrees>-5.40432468988001346588134765625</LongitudeDegrees>
            </Position>
            <AltitudeMeters>61.200000762939453125</AltitudeMeters>
            <DistanceMeters>NAN</DistanceMeters>
          </Trackpoint>
          <Trackpoint>
            <Time>2019-01-04T11:34:32.000Z</Time>
            <Position>
              <LatitudeDegrees>36.49206108413636684417724609375</LatitudeDegrees>
              <LongitudeDegrees>-5.40433022193610668182373046875</LongitudeDegrees>
            </Position>
            <AltitudeMeters>61.200000762939453125</AltitudeMeters>
            <DistanceMeters>NAN</DistanceMeters>
          </Trackpoint>
          <Trackpoint>
            <Time>2019-01-04T11:34:33.000Z</Time>
            <Position>
              <LatitudeDegrees>36.49205102585256099700927734375</LatitudeDegrees>
              <LongitudeDegrees>-5.40433508343994617462158203125</LongitudeDegrees>
            </Position>
            <AltitudeMeters>61.200000762939453125</AltitudeMeters>
            <DistanceMeters>NAN</DistanceMeters>
          </Trackpoint>
          <Trackpoint>
            <Time>2019-01-04T11:34:34.000Z</Time>
            <Position>
              <LatitudeDegrees>36.49203795008361339569091796875</LatitudeDegrees>
              <LongitudeDegrees>-5.4043385200202465057373046875</LongitudeDegrees>
            </Position>
            <AltitudeMeters>61</AltitudeMeters>
            <DistanceMeters>NAN</DistanceMeters>
          </Trackpoint>
          <Trackpoint>
            <Time>2019-01-04T11:34:35.000Z</Time>
            <Position>
              <LatitudeDegrees>36.4920271374285221099853515625</LatitudeDegrees>
              <LongitudeDegrees>-5.4043452255427837371826171875</LongitudeDegrees>
            </Position>
            <AltitudeMeters>60.799999237060546875</AltitudeMeters>
            <DistanceMeters>NAN</DistanceMeters>
          </Trackpoint>
          <Trackpoint>
            <Time>2019-01-04T11:34:36.000Z</Time>
            <Position>
              <LatitudeDegrees>36.492015905678272247314453125</LatitudeDegrees>
              <LongitudeDegrees>-5.4043502546846866607666015625</LongitudeDegrees>
            </Position>
            <AltitudeMeters>60.59999847412109375</AltitudeMeters>
            <DistanceMeters>NAN</DistanceMeters>
          </Trackpoint>
          <Trackpoint>
            <Time>2019-01-04T11:34:37.000Z</Time>
            <Position>
              <LatitudeDegrees>36.49200408719480037689208984375</LatitudeDegrees>
              <LongitudeDegrees>-5.40435637347400188446044921875</LongitudeDegrees>
            </Position>
            <AltitudeMeters>60.40000152587890625</AltitudeMeters>
            <DistanceMeters>NAN</DistanceMeters>
          </Trackpoint>
          <Trackpoint>
            <Time>2019-01-04T11:34:38.000Z</Time>
            <Position>
              <LatitudeDegrees>36.491991095244884490966796875</LatitudeDegrees>
              <LongitudeDegrees>-5.40436006151139736175537109375</LongitudeDegrees>
            </Position>
            <AltitudeMeters>60.40000152587890625</AltitudeMeters>
            <DistanceMeters>NAN</DistanceMeters>
          </Trackpoint>
          <Trackpoint>
            <Time>2019-01-04T11:34:39.000Z</Time>
            <Position>
              <LatitudeDegrees>36.49197760038077831268310546875</LatitudeDegrees>
              <LongitudeDegrees>-5.4043636657297611236572265625</LongitudeDegrees>
            </Position>
            <AltitudeMeters>60.200000762939453125</AltitudeMeters>
            <DistanceMeters>NAN</DistanceMeters>
          </Trackpoint>
          <Trackpoint>
            <Time>2019-01-04T11:34:40.000Z</Time>
            <Position>
              <LatitudeDegrees>36.491961590945720672607421875</LatitudeDegrees>
              <LongitudeDegrees>-5.40436894632875919342041015625</LongitudeDegrees>
            </Position>
            <AltitudeMeters>60.200000762939453125</AltitudeMeters>
            <DistanceMeters>NAN</DistanceMeters>
          </Trackpoint>
          <Trackpoint>
            <Time>2019-01-04T11:34:41.000Z</Time>
            <Position>
              <LatitudeDegrees>36.4919466711580753326416015625</LatitudeDegrees>
              <LongitudeDegrees>-5.4043713770806789398193359375</LongitudeDegrees>
            </Position>
            <AltitudeMeters>60.200000762939453125</AltitudeMeters>
            <DistanceMeters>NAN</DistanceMeters>
          </Trackpoint>
          <Trackpoint>
            <Time>2019-01-04T11:34:42.000Z</Time>
            <Position>
              <LatitudeDegrees>36.491934098303318023681640625</LatitudeDegrees>
              <LongitudeDegrees>-5.40437397547066211700439453125</LongitudeDegrees>
            </Position>
            <AltitudeMeters>60.200000762939453125</AltitudeMeters>
            <DistanceMeters>NAN</DistanceMeters>
          </Trackpoint>
          <Trackpoint>
            <Time>2019-01-04T11:34:43.000Z</Time>
            <Position>
              <LatitudeDegrees>36.49192144162952899932861328125</LatitudeDegrees>
              <LongitudeDegrees>-5.4043764062225818634033203125</LongitudeDegrees>
            </Position>
            <AltitudeMeters>60.40000152587890625</AltitudeMeters>
            <DistanceMeters>NAN</DistanceMeters>
          </Trackpoint>
          <Trackpoint>
            <Time>2019-01-04T11:34:44.000Z</Time>
            <Position>
              <LatitudeDegrees>36.49190803058445453643798828125</LatitudeDegrees>
              <LongitudeDegrees>-5.40437816642224788665771484375</LongitudeDegrees>
            </Position>
            <AltitudeMeters>60.40000152587890625</AltitudeMeters>
            <DistanceMeters>NAN</DistanceMeters>
          </Trackpoint>
          <Trackpoint>
            <Time>2019-01-04T11:34:45.000Z</Time>
            <Position>
              <LatitudeDegrees>36.49189780466258525848388671875</LatitudeDegrees>
              <LongitudeDegrees>-5.40437984280288219451904296875</LongitudeDegrees>
            </Position>
            <AltitudeMeters>60.40000152587890625</AltitudeMeters>
            <DistanceMeters>NAN</DistanceMeters>
          </Trackpoint>
          <Trackpoint>
            <Time>2019-01-04T11:34:46.000Z</Time>
            <Position>
              <LatitudeDegrees>36.49189428426325321197509765625</LatitudeDegrees>
              <LongitudeDegrees>-5.4043811000883579254150390625</LongitudeDegrees>
            </Position>
            <AltitudeMeters>60.40000152587890625</AltitudeMeters>
            <DistanceMeters>NAN</DistanceMeters>
          </Trackpoint>
          <Trackpoint>
            <Time>2019-01-04T11:34:47.000Z</Time>
            <Position>
              <LatitudeDegrees>36.49189260788261890411376953125</LatitudeDegrees>
              <LongitudeDegrees>-5.40438093245029449462890625</LongitudeDegrees>
            </Position>
            <AltitudeMeters>60.40000152587890625</AltitudeMeters>
            <DistanceMeters>NAN</DistanceMeters>
          </Trackpoint>
          <Trackpoint>
            <Time>2019-01-04T11:34:48.000Z</Time>
            <Position>
              <LatitudeDegrees>36.49189059622585773468017578125</LatitudeDegrees>
              <LongitudeDegrees>-5.404380261898040771484375</LongitudeDegrees>
            </Position>
            <AltitudeMeters>60.40000152587890625</AltitudeMeters>
            <DistanceMeters>NAN</DistanceMeters>
          </Trackpoint>
          <Trackpoint>
            <Time>2019-01-04T11:34:49.000Z</Time>
            <Position>
              <LatitudeDegrees>36.49188858456909656524658203125</LatitudeDegrees>
              <LongitudeDegrees>-5.40437632240355014801025390625</LongitudeDegrees>
            </Position>
            <AltitudeMeters>60.40000152587890625</AltitudeMeters>
            <DistanceMeters>NAN</DistanceMeters>
          </Trackpoint>
          <Trackpoint>
            <Time>2019-01-04T11:34:50.000Z</Time>
            <Position>
              <LatitudeDegrees>36.49188623763620853424072265625</LatitudeDegrees>
              <LongitudeDegrees>-5.40437380783259868621826171875</LongitudeDegrees>
            </Position>
            <AltitudeMeters>60.40000152587890625</AltitudeMeters>
            <DistanceMeters>NAN</DistanceMeters>
          </Trackpoint>
          <Trackpoint>
            <Time>2019-01-04T11:34:51.000Z</Time>
            <Position>
              <LatitudeDegrees>36.49188640527427196502685546875</LatitudeDegrees>
              <LongitudeDegrees>-5.4043747298419475555419921875</LongitudeDegrees>
            </Position>
            <AltitudeMeters>60.40000152587890625</AltitudeMeters>
            <DistanceMeters>NAN</DistanceMeters>
          </Trackpoint>
          <Trackpoint>
            <Time>2019-01-04T11:34:52.000Z</Time>
            <Position>
              <LatitudeDegrees>36.49188749492168426513671875</LatitudeDegrees>
              <LongitudeDegrees>-5.404376573860645294189453125</LongitudeDegrees>
            </Position>
            <AltitudeMeters>60.200000762939453125</AltitudeMeters>
            <DistanceMeters>NAN</DistanceMeters>
          </Trackpoint>
          <Trackpoint>
            <Time>2019-01-04T11:34:53.000Z</Time>
            <Position>
              <LatitudeDegrees>36.491886489093303680419921875</LatitudeDegrees>
              <LongitudeDegrees>-5.40437665767967700958251953125</LongitudeDegrees>
            </Position>
            <AltitudeMeters>60.200000762939453125</AltitudeMeters>
            <DistanceMeters>NAN</DistanceMeters>
          </Trackpoint>
          <Trackpoint>
            <Time>2019-01-04T11:34:54.000Z</Time>
            <Position>
              <LatitudeDegrees>36.491884477436542510986328125</LatitudeDegrees>
              <LongitudeDegrees>-5.40437749586999416351318359375</LongitudeDegrees>
            </Position>
            <AltitudeMeters>60</AltitudeMeters>
            <DistanceMeters>NAN</DistanceMeters>
          </Trackpoint>
          <Trackpoint>
            <Time>2019-01-04T11:34:55.000Z</Time>
            <Position>
              <LatitudeDegrees>36.4918772689998149871826171875</LatitudeDegrees>
              <LongitudeDegrees>-5.404381267726421356201171875</LongitudeDegrees>
            </Position>
            <AltitudeMeters>60</AltitudeMeters>
            <DistanceMeters>NAN</DistanceMeters>
          </Trackpoint>
          <Trackpoint>
            <Time>2019-01-04T11:34:56.000Z</Time>
            <Position>
              <LatitudeDegrees>36.49186679162085056304931640625</LatitudeDegrees>
              <LongitudeDegrees>-5.40438520722091197967529296875</LongitudeDegrees>
            </Position>
            <AltitudeMeters>60</AltitudeMeters>
            <DistanceMeters>NAN</DistanceMeters>
          </Trackpoint>
          <Trackpoint>
            <Time>2019-01-04T11:34:57.000Z</Time>
            <Position>
              <LatitudeDegrees>36.49185555987060070037841796875</LatitudeDegrees>
              <LongitudeDegrees>-5.40439073927700519561767578125</LongitudeDegrees>
            </Position>
            <AltitudeMeters>60</AltitudeMeters>
            <DistanceMeters>NAN</DistanceMeters>
          </Trackpoint>
          <Trackpoint>
            <Time>2019-01-04T11:34:58.000Z</Time>
            <Position>
              <LatitudeDegrees>36.4918412268161773681640625</LatitudeDegrees>
              <LongitudeDegrees>-5.40439694188535213470458984375</LongitudeDegrees>
            </Position>
            <AltitudeMeters>60</AltitudeMeters>
            <DistanceMeters>NAN</DistanceMeters>
          </Trackpoint>
          <Trackpoint>
            <Time>2019-01-04T11:34:59.000Z</Time>
            <Position>
              <LatitudeDegrees>36.49182538501918315887451171875</LatitudeDegrees>
              <LongitudeDegrees>-5.4044025577604770660400390625</LongitudeDegrees>
            </Position>
            <AltitudeMeters>60</AltitudeMeters>
            <DistanceMeters>NAN</DistanceMeters>
          </Trackpoint>
          <Trackpoint>
            <Time>2019-01-04T11:35:00.000Z</Time>
            <Position>
              <LatitudeDegrees>36.49181105196475982666015625</LatitudeDegrees>
              <LongitudeDegrees>-5.4044079221785068511962890625</LongitudeDegrees>
            </Position>
            <AltitudeMeters>60</AltitudeMeters>
            <DistanceMeters>NAN</DistanceMeters>
          </Trackpoint>
          <Trackpoint>
            <Time>2019-01-04T11:35:01.000Z</Time>
            <Position>
              <LatitudeDegrees>36.49179588072001934051513671875</LatitudeDegrees>
              <LongitudeDegrees>-5.40441286750137805938720703125</LongitudeDegrees>
            </Position>
            <AltitudeMeters>60</AltitudeMeters>
            <DistanceMeters>NAN</DistanceMeters>
          </Trackpoint>
          <Trackpoint>
            <Time>2019-01-04T11:35:02.000Z</Time>
            <Position>
              <LatitudeDegrees>36.4917800389230251312255859375</LatitudeDegrees>
              <LongitudeDegrees>-5.4044163040816783905029296875</LongitudeDegrees>
            </Position>
            <AltitudeMeters>60</AltitudeMeters>
            <DistanceMeters>NAN</DistanceMeters>
          </Trackpoint>
          <Trackpoint>
            <Time>2019-01-04T11:35:03.000Z</Time>
            <Position>
              <LatitudeDegrees>36.49176419712603092193603515625</LatitudeDegrees>
              <LongitudeDegrees>-5.40442158468067646026611328125</LongitudeDegrees>
            </Position>
            <AltitudeMeters>60.200000762939453125</AltitudeMeters>
            <DistanceMeters>NAN</DistanceMeters>
          </Trackpoint>
          <Trackpoint>
            <Time>2019-01-04T11:35:04.000Z</Time>
            <Position>
              <LatitudeDegrees>36.49174944497644901275634765625</LatitudeDegrees>
              <LongitudeDegrees>-5.4044298827648162841796875</LongitudeDegrees>
            </Position>
            <AltitudeMeters>60.200000762939453125</AltitudeMeters>
            <DistanceMeters>NAN</DistanceMeters>
          </Trackpoint>
          <Trackpoint>
            <Time>2019-01-04T11:35:05.000Z</Time>
            <Position>
              <LatitudeDegrees>36.4917320944368839263916015625</LatitudeDegrees>
              <LongitudeDegrees>-5.40443700738251209259033203125</LongitudeDegrees>
            </Position>
            <AltitudeMeters>60.200000762939453125</AltitudeMeters>
            <DistanceMeters>NAN</DistanceMeters>
          </Trackpoint>
          <Trackpoint>
            <Time>2019-01-04T11:35:06.000Z</Time>
            <Position>
              <LatitudeDegrees>36.49171650409698486328125</LatitudeDegrees>
              <LongitudeDegrees>-5.40444153361022472381591796875</LongitudeDegrees>
            </Position>
            <AltitudeMeters>60.200000762939453125</AltitudeMeters>
            <DistanceMeters>NAN</DistanceMeters>
          </Trackpoint>
          <Trackpoint>
            <Time>2019-01-04T11:35:07.000Z</Time>
            <Position>
              <LatitudeDegrees>36.49170015938580036163330078125</LatitudeDegrees>
              <LongitudeDegrees>-5.4044448025524616241455078125</LongitudeDegrees>
            </Position>
            <AltitudeMeters>60.200000762939453125</AltitudeMeters>
            <DistanceMeters>NAN</DistanceMeters>
          </Trackpoint>
          <Trackpoint>
            <Time>2019-01-04T11:35:08.000Z</Time>
            <Position>
              <LatitudeDegrees>36.49168507196009159088134765625</LatitudeDegrees>
              <LongitudeDegrees>-5.404450334608554840087890625</LongitudeDegrees>
            </Position>
            <AltitudeMeters>60.200000762939453125</AltitudeMeters>
            <DistanceMeters>NAN</DistanceMeters>
          </Trackpoint>
          <Trackpoint>
            <Time>2019-01-04T11:35:09.000Z</Time>
            <Position>
              <LatitudeDegrees>36.4916720800101757049560546875</LatitudeDegrees>
              <LongitudeDegrees>-5.404455363750457763671875</LongitudeDegrees>
            </Position>
            <AltitudeMeters>60.200000762939453125</AltitudeMeters>
            <DistanceMeters>NAN</DistanceMeters>
          </Trackpoint>
          <Trackpoint>
            <Time>2019-01-04T11:35:10.000Z</Time>
            <Position>
              <LatitudeDegrees>36.49165875278413295745849609375</LatitudeDegrees>
              <LongitudeDegrees>-5.4044602252542972564697265625</LongitudeDegrees>
            </Position>
            <AltitudeMeters>60.200000762939453125</AltitudeMeters>
            <DistanceMeters>NAN</DistanceMeters>
          </Trackpoint>
          <Trackpoint>
            <Time>2019-01-04T11:35:11.000Z</Time>
            <Position>
              <LatitudeDegrees>36.4916427433490753173828125</LatitudeDegrees>
              <LongitudeDegrees>-5.4044645838439464569091796875</LongitudeDegrees>
            </Position>
            <AltitudeMeters>60.200000762939453125</AltitudeMeters>
            <DistanceMeters>NAN</DistanceMeters>
          </Trackpoint>
          <Trackpoint>
            <Time>2019-01-04T11:35:12.000Z</Time>
            <Position>
              <LatitudeDegrees>36.4916281588375568389892578125</LatitudeDegrees>
              <LongitudeDegrees>-5.40447036735713481903076171875</LongitudeDegrees>
            </Position>
            <AltitudeMeters>60</AltitudeMeters>
            <DistanceMeters>NAN</DistanceMeters>
          </Trackpoint>
          <Trackpoint>
            <Time>2019-01-04T11:35:13.000Z</Time>
            <Position>
              <LatitudeDegrees>36.4916144125163555145263671875</LatitudeDegrees>
              <LongitudeDegrees>-5.4044759832322597503662109375</LongitudeDegrees>
            </Position>
            <AltitudeMeters>60</AltitudeMeters>
            <DistanceMeters>NAN</DistanceMeters>
          </Trackpoint>
          <Trackpoint>
            <Time>2019-01-04T11:35:14.000Z</Time>
            <Position>
              <LatitudeDegrees>36.4916013367474079132080078125</LatitudeDegrees>
              <LongitudeDegrees>-5.40448394604027271270751953125</LongitudeDegrees>
            </Position>
            <AltitudeMeters>60</AltitudeMeters>
            <DistanceMeters>NAN</DistanceMeters>
          </Trackpoint>
          <Trackpoint>
            <Time>2019-01-04T11:35:15.000Z</Time>
            <Position>
              <LatitudeDegrees>36.49158951826393604278564453125</LatitudeDegrees>
              <LongitudeDegrees>-5.40449115447700023651123046875</LongitudeDegrees>
            </Position>
            <AltitudeMeters>60</AltitudeMeters>
            <DistanceMeters>NAN</DistanceMeters>
          </Trackpoint>
          <Trackpoint>
            <Time>2019-01-04T11:35:16.000Z</Time>
            <Position>
              <LatitudeDegrees>36.4915792085230350494384765625</LatitudeDegrees>
              <LongitudeDegrees>-5.40449785999953746795654296875</LongitudeDegrees>
            </Position>
            <AltitudeMeters>60.200000762939453125</AltitudeMeters>
            <DistanceMeters>NAN</DistanceMeters>
          </Trackpoint>
          <Trackpoint>
            <Time>2019-01-04T11:35:17.000Z</Time>
            <Position>
              <LatitudeDegrees>36.491567976772785186767578125</LatitudeDegrees>
              <LongitudeDegrees>-5.40450632572174072265625</LongitudeDegrees>
            </Position>
            <AltitudeMeters>60.40000152587890625</AltitudeMeters>
            <DistanceMeters>NAN</DistanceMeters>
          </Trackpoint>
          <Trackpoint>
            <Time>2019-01-04T11:35:18.000Z</Time>
            <Position>
              <LatitudeDegrees>36.4915564097464084625244140625</LatitudeDegrees>
              <LongitudeDegrees>-5.4045145399868488311767578125</LongitudeDegrees>
            </Position>
            <AltitudeMeters>60.59999847412109375</AltitudeMeters>
            <DistanceMeters>NAN</DistanceMeters>
          </Trackpoint>
          <Trackpoint>
            <Time>2019-01-04T11:35:19.000Z</Time>
            <Position>
              <LatitudeDegrees>36.4915433339774608612060546875</LatitudeDegrees>
              <LongitudeDegrees>-5.4045229218900203704833984375</LongitudeDegrees>
            </Position>
            <AltitudeMeters>60.59999847412109375</AltitudeMeters>
            <DistanceMeters>NAN</DistanceMeters>
          </Trackpoint>
          <Trackpoint>
            <Time>2019-01-04T11:35:20.000Z</Time>
            <Position>
              <LatitudeDegrees>36.4915287494659423828125</LatitudeDegrees>
              <LongitudeDegrees>-5.4045333154499530792236328125</LongitudeDegrees>
            </Position>
            <AltitudeMeters>60.59999847412109375</AltitudeMeters>
            <DistanceMeters>NAN</DistanceMeters>
          </Trackpoint>
          <Trackpoint>
            <Time>2019-01-04T11:35:21.000Z</Time>
            <Position>
              <LatitudeDegrees>36.49151475168764591217041015625</LatitudeDegrees>
              <LongitudeDegrees>-5.4045433737337589263916015625</LongitudeDegrees>
            </Position>
            <AltitudeMeters>60.59999847412109375</AltitudeMeters>
            <DistanceMeters>NAN</DistanceMeters>
          </Trackpoint>
          <Trackpoint>
            <Time>2019-01-04T11:35:22.000Z</Time>
            <Position>
              <LatitudeDegrees>36.4915004186332225799560546875</LatitudeDegrees>
              <LongitudeDegrees>-5.404550917446613311767578125</LongitudeDegrees>
            </Position>
            <AltitudeMeters>60.59999847412109375</AltitudeMeters>
            <DistanceMeters>NAN</DistanceMeters>
          </Trackpoint>
          <Trackpoint>
            <Time>2019-01-04T11:35:23.000Z</Time>
            <Position>
              <LatitudeDegrees>36.4914858341217041015625</LatitudeDegrees>
              <LongitudeDegrees>-5.40455888025462627410888671875</LongitudeDegrees>
            </Position>
            <AltitudeMeters>60.59999847412109375</AltitudeMeters>
            <DistanceMeters>NAN</DistanceMeters>
          </Trackpoint>
          <Trackpoint>
            <Time>2019-01-04T11:35:24.000Z</Time>
            <Position>
              <LatitudeDegrees>36.49147175252437591552734375</LatitudeDegrees>
              <LongitudeDegrees>-5.40456944145262241363525390625</LongitudeDegrees>
            </Position>
            <AltitudeMeters>60.59999847412109375</AltitudeMeters>
            <DistanceMeters>NAN</DistanceMeters>
          </Trackpoint>
          <Trackpoint>
            <Time>2019-01-04T11:35:25.000Z</Time>
            <Position>
              <LatitudeDegrees>36.491455994546413421630859375</LatitudeDegrees>
              <LongitudeDegrees>-5.40457807481288909912109375</LongitudeDegrees>
            </Position>
            <AltitudeMeters>60.40000152587890625</AltitudeMeters>
            <DistanceMeters>NAN</DistanceMeters>
          </Trackpoint>
          <Trackpoint>
            <Time>2019-01-04T11:35:26.000Z</Time>
            <Position>
              <LatitudeDegrees>36.49144048802554607391357421875</LatitudeDegrees>
              <LongitudeDegrees>-5.40458553470671176910400390625</LongitudeDegrees>
            </Position>
            <AltitudeMeters>60.40000152587890625</AltitudeMeters>
            <DistanceMeters>NAN</DistanceMeters>
          </Trackpoint>
          <Trackpoint>
            <Time>2019-01-04T11:35:27.000Z</Time>
            <Position>
              <LatitudeDegrees>36.491427831351757049560546875</LatitudeDegrees>
              <LongitudeDegrees>-5.404597185552120208740234375</LongitudeDegrees>
            </Position>
            <AltitudeMeters>60.200000762939453125</AltitudeMeters>
            <DistanceMeters>NAN</DistanceMeters>
          </Trackpoint>
          <Trackpoint>
            <Time>2019-01-04T11:35:28.000Z</Time>
            <Position>
              <LatitudeDegrees>36.4914147555828094482421875</LatitudeDegrees>
              <LongitudeDegrees>-5.40460380725562572479248046875</LongitudeDegrees>
            </Position>
            <AltitudeMeters>60</AltitudeMeters>
            <DistanceMeters>NAN</DistanceMeters>
          </Trackpoint>
          <Trackpoint>
            <Time>2019-01-04T11:35:29.000Z</Time>
            <Position>
              <LatitudeDegrees>36.4913998357951641082763671875</LatitudeDegrees>
              <LongitudeDegrees>-5.40460648946464061737060546875</LongitudeDegrees>
            </Position>
            <AltitudeMeters>60</AltitudeMeters>
            <DistanceMeters>NAN</DistanceMeters>
          </Trackpoint>
          <Trackpoint>
            <Time>2019-01-04T11:35:30.000Z</Time>
            <Position>
              <LatitudeDegrees>36.49138684384524822235107421875</LatitudeDegrees>
              <LongitudeDegrees>-5.4046131111681461334228515625</LongitudeDegrees>
            </Position>
            <AltitudeMeters>60</AltitudeMeters>
            <DistanceMeters>NAN</DistanceMeters>
          </Trackpoint>
          <Trackpoint>
            <Time>2019-01-04T11:35:31.000Z</Time>
            <Position>
              <LatitudeDegrees>36.49137091822922229766845703125</LatitudeDegrees>
              <LongitudeDegrees>-5.40461872704327106475830078125</LongitudeDegrees>
            </Position>
            <AltitudeMeters>59.799999237060546875</AltitudeMeters>
            <DistanceMeters>NAN</DistanceMeters>
          </Trackpoint>
          <Trackpoint>
            <Time>2019-01-04T11:35:32.000Z</Time>
            <Position>
              <LatitudeDegrees>36.49135499261319637298583984375</LatitudeDegrees>
              <LongitudeDegrees>-5.40462342090904712677001953125</LongitudeDegrees>
            </Position>
            <AltitudeMeters>59.799999237060546875</AltitudeMeters>
            <DistanceMeters>NAN</DistanceMeters>
          </Trackpoint>
          <Trackpoint>
            <Time>2019-01-04T11:35:33.000Z</Time>
            <Position>
              <LatitudeDegrees>36.49133956991136074066162109375</LatitudeDegrees>
              <LongitudeDegrees>-5.404628030955791473388671875</LongitudeDegrees>
            </Position>
            <AltitudeMeters>59.799999237060546875</AltitudeMeters>
            <DistanceMeters>NAN</DistanceMeters>
          </Trackpoint>
          <Trackpoint>
            <Time>2019-01-04T11:35:34.000Z</Time>
            <Position>
              <LatitudeDegrees>36.4913257397711277008056640625</LatitudeDegrees>
              <LongitudeDegrees>-5.40463314391672611236572265625</LongitudeDegrees>
            </Position>
            <AltitudeMeters>60</AltitudeMeters>
            <DistanceMeters>NAN</DistanceMeters>
          </Trackpoint>
          <Trackpoint>
            <Time>2019-01-04T11:35:35.000Z</Time>
            <Position>
              <LatitudeDegrees>36.4913126640021800994873046875</LatitudeDegrees>
              <LongitudeDegrees>-5.4046375863254070281982421875</LongitudeDegrees>
            </Position>
            <AltitudeMeters>60</AltitudeMeters>
            <DistanceMeters>NAN</DistanceMeters>
          </Trackpoint>
          <Trackpoint>
            <Time>2019-01-04T11:35:36.000Z</Time>
            <Position>
              <LatitudeDegrees>36.491299085319042205810546875</LatitudeDegrees>
              <LongitudeDegrees>-5.4046444594860076904296875</LongitudeDegrees>
            </Position>
            <AltitudeMeters>60.200000762939453125</AltitudeMeters>
            <DistanceMeters>NAN</DistanceMeters>
          </Trackpoint>
          <Trackpoint>
            <Time>2019-01-04T11:35:37.000Z</Time>
            <Position>
              <LatitudeDegrees>36.49128441698849201202392578125</LatitudeDegrees>
              <LongitudeDegrees>-5.40465409867465496063232421875</LongitudeDegrees>
            </Position>
            <AltitudeMeters>60.200000762939453125</AltitudeMeters>
            <DistanceMeters>NAN</DistanceMeters>
          </Trackpoint>
          <Trackpoint>
            <Time>2019-01-04T11:35:38.000Z</Time>
            <Position>
              <LatitudeDegrees>36.49127058684825897216796875</LatitudeDegrees>
              <LongitudeDegrees>-5.4046640731394290924072265625</LongitudeDegrees>
            </Position>
            <AltitudeMeters>60.200000762939453125</AltitudeMeters>
            <DistanceMeters>NAN</DistanceMeters>
          </Trackpoint>
          <Trackpoint>
            <Time>2019-01-04T11:35:39.000Z</Time>
            <Position>
              <LatitudeDegrees>36.49125742726027965545654296875</LatitudeDegrees>
              <LongitudeDegrees>-5.40467438288033008575439453125</LongitudeDegrees>
            </Position>
            <AltitudeMeters>60.40000152587890625</AltitudeMeters>
            <DistanceMeters>NAN</DistanceMeters>
          </Trackpoint>
          <Trackpoint>
            <Time>2019-01-04T11:35:40.000Z</Time>
            <Position>
              <LatitudeDegrees>36.49124099873006343841552734375</LatitudeDegrees>
              <LongitudeDegrees>-5.4046815074980258941650390625</LongitudeDegrees>
            </Position>
            <AltitudeMeters>60.40000152587890625</AltitudeMeters>
            <DistanceMeters>NAN</DistanceMeters>
          </Trackpoint>
          <Trackpoint>
            <Time>2019-01-04T11:35:41.000Z</Time>
            <Position>
              <LatitudeDegrees>36.4912251569330692291259765625</LatitudeDegrees>
              <LongitudeDegrees>-5.40468938648700714111328125</LongitudeDegrees>
            </Position>
            <AltitudeMeters>60.40000152587890625</AltitudeMeters>
            <DistanceMeters>NAN</DistanceMeters>
          </Trackpoint>
          <Trackpoint>
            <Time>2019-01-04T11:35:42.000Z</Time>
            <Position>
              <LatitudeDegrees>36.49120897985994815826416015625</LatitudeDegrees>
              <LongitudeDegrees>-5.40469801984727382659912109375</LongitudeDegrees>
            </Position>
            <AltitudeMeters>60.59999847412109375</AltitudeMeters>
            <DistanceMeters>NAN</DistanceMeters>
          </Trackpoint>
          <Trackpoint>
            <Time>2019-01-04T11:35:43.000Z</Time>
            <Position>
              <LatitudeDegrees>36.491193138062953948974609375</LatitudeDegrees>
              <LongitudeDegrees>-5.40470774285495281219482421875</LongitudeDegrees>
            </Position>
            <AltitudeMeters>60.59999847412109375</AltitudeMeters>
            <DistanceMeters>NAN</DistanceMeters>
          </Trackpoint>
          <Trackpoint>
            <Time>2019-01-04T11:35:44.000Z</Time>
            <Position>
              <LatitudeDegrees>36.49117813445627689361572265625</LatitudeDegrees>
              <LongitudeDegrees>-5.40471511892974376678466796875</LongitudeDegrees>
            </Position>
            <AltitudeMeters>60.799999237060546875</AltitudeMeters>
            <DistanceMeters>NAN</DistanceMeters>
          </Trackpoint>
          <Trackpoint>
            <Time>2019-01-04T11:35:45.000Z</Time>
            <Position>
              <LatitudeDegrees>36.49116463959217071533203125</LatitudeDegrees>
              <LongitudeDegrees>-5.40472534485161304473876953125</LongitudeDegrees>
            </Position>
            <AltitudeMeters>60.799999237060546875</AltitudeMeters>
            <DistanceMeters>NAN</DistanceMeters>
          </Trackpoint>
          <Trackpoint>
            <Time>2019-01-04T11:35:46.000Z</Time>
            <Position>
              <LatitudeDegrees>36.491150557994842529296875</LatitudeDegrees>
              <LongitudeDegrees>-5.40473766624927520751953125</LongitudeDegrees>
            </Position>
            <AltitudeMeters>60.799999237060546875</AltitudeMeters>
            <DistanceMeters>NAN</DistanceMeters>
          </Trackpoint>
          <Trackpoint>
            <Time>2019-01-04T11:35:47.000Z</Time>
            <Position>
              <LatitudeDegrees>36.49113656021654605865478515625</LatitudeDegrees>
              <LongitudeDegrees>-5.40474747307598590850830078125</LongitudeDegrees>
            </Position>
            <AltitudeMeters>60.799999237060546875</AltitudeMeters>
            <DistanceMeters>NAN</DistanceMeters>
          </Trackpoint>
          <Trackpoint>
            <Time>2019-01-04T11:35:48.000Z</Time>
            <Position>
              <LatitudeDegrees>36.491122059524059295654296875</LatitudeDegrees>
              <LongitudeDegrees>-5.404755771160125732421875</LongitudeDegrees>
            </Position>
            <AltitudeMeters>60.59999847412109375</AltitudeMeters>
            <DistanceMeters>NAN</DistanceMeters>
          </Trackpoint>
          <Trackpoint>
            <Time>2019-01-04T11:35:49.000Z</Time>
            <Position>
              <LatitudeDegrees>36.4911068044602870941162109375</LatitudeDegrees>
              <LongitudeDegrees>-5.40476373396813869476318359375</LongitudeDegrees>
            </Position>
            <AltitudeMeters>60.40000152587890625</AltitudeMeters>
            <DistanceMeters>NAN</DistanceMeters>
          </Trackpoint>
          <Trackpoint>
            <Time>2019-01-04T11:35:50.000Z</Time>
            <Position>
              <LatitudeDegrees>36.4910920523107051849365234375</LatitudeDegrees>
              <LongitudeDegrees>-5.404770188033580780029296875</LongitudeDegrees>
            </Position>
            <AltitudeMeters>60.40000152587890625</AltitudeMeters>
            <DistanceMeters>NAN</DistanceMeters>
          </Trackpoint>
          <Trackpoint>
            <Time>2019-01-04T11:35:51.000Z</Time>
            <Position>
              <LatitudeDegrees>36.491076461970806121826171875</LatitudeDegrees>
              <LongitudeDegrees>-5.40477748028934001922607421875</LongitudeDegrees>
            </Position>
            <AltitudeMeters>60.200000762939453125</AltitudeMeters>
            <DistanceMeters>NAN</DistanceMeters>
          </Trackpoint>
          <Trackpoint>
            <Time>2019-01-04T11:35:52.000Z</Time>
            <Position>
              <LatitudeDegrees>36.49106196127831935882568359375</LatitudeDegrees>
              <LongitudeDegrees>-5.4047837667167186737060546875</LongitudeDegrees>
            </Position>
            <AltitudeMeters>60.200000762939453125</AltitudeMeters>
            <DistanceMeters>NAN</DistanceMeters>
          </Trackpoint>
          <Trackpoint>
            <Time>2019-01-04T11:35:53.000Z</Time>
            <Position>
              <LatitudeDegrees>36.49105072952806949615478515625</LatitudeDegrees>
              <LongitudeDegrees>-5.40479131042957305908203125</LongitudeDegrees>
            </Position>
            <AltitudeMeters>60</AltitudeMeters>
            <DistanceMeters>NAN</DistanceMeters>
          </Trackpoint>
          <Trackpoint>
            <Time>2019-01-04T11:35:54.000Z</Time>
            <Position>
              <LatitudeDegrees>36.4910400845110416412353515625</LatitudeDegrees>
              <LongitudeDegrees>-5.40480011142790317535400390625</LongitudeDegrees>
            </Position>
            <AltitudeMeters>60</AltitudeMeters>
            <DistanceMeters>NAN</DistanceMeters>
          </Trackpoint>
          <Trackpoint>
            <Time>2019-01-04T11:35:55.000Z</Time>
            <Position>
              <LatitudeDegrees>36.4910286851227283477783203125</LatitudeDegrees>
              <LongitudeDegrees>-5.4048095829784870147705078125</LongitudeDegrees>
            </Position>
            <AltitudeMeters>60</AltitudeMeters>
            <DistanceMeters>NAN</DistanceMeters>
          </Trackpoint>
          <Trackpoint>
            <Time>2019-01-04T11:35:56.000Z</Time>
            <Position>
              <LatitudeDegrees>36.4910137653350830078125</LatitudeDegrees>
              <LongitudeDegrees>-5.40481704287230968475341796875</LongitudeDegrees>
            </Position>
            <AltitudeMeters>60</AltitudeMeters>
            <DistanceMeters>NAN</DistanceMeters>
          </Trackpoint>
          <Trackpoint>
            <Time>2019-01-04T11:35:57.000Z</Time>
            <Position>
              <LatitudeDegrees>36.4909964986145496368408203125</LatitudeDegrees>
              <LongitudeDegrees>-5.40482441894710063934326171875</LongitudeDegrees>
            </Position>
            <AltitudeMeters>60</AltitudeMeters>
            <DistanceMeters>NAN</DistanceMeters>
          </Trackpoint>
          <Trackpoint>
            <Time>2019-01-04T11:35:58.000Z</Time>
            <Position>
              <LatitudeDegrees>36.49098099209368228912353515625</LatitudeDegrees>
              <LongitudeDegrees>-5.4048322141170501708984375</LongitudeDegrees>
            </Position>
            <AltitudeMeters>60</AltitudeMeters>
            <DistanceMeters>NAN</DistanceMeters>
          </Trackpoint>
          <Trackpoint>
            <Time>2019-01-04T11:35:59.000Z</Time>
            <Position>
              <LatitudeDegrees>36.49096623994410037994384765625</LatitudeDegrees>
              <LongitudeDegrees>-5.40483866818249225616455078125</LongitudeDegrees>
            </Position>
            <AltitudeMeters>60</AltitudeMeters>
            <DistanceMeters>NAN</DistanceMeters>
          </Trackpoint>
          <Trackpoint>
            <Time>2019-01-04T11:36:00.000Z</Time>
            <Position>
              <LatitudeDegrees>36.490952074527740478515625</LatitudeDegrees>
              <LongitudeDegrees>-5.40484570898115634918212890625</LongitudeDegrees>
            </Position>
            <AltitudeMeters>60</AltitudeMeters>
            <DistanceMeters>NAN</DistanceMeters>
          </Trackpoint>
          <Trackpoint>
            <Time>2019-01-04T11:36:01.000Z</Time>
            <Position>
              <LatitudeDegrees>36.49093673564493656158447265625</LatitudeDegrees>
              <LongitudeDegrees>-5.404850654304027557373046875</LongitudeDegrees>
            </Position>
            <AltitudeMeters>60</AltitudeMeters>
            <DistanceMeters>NAN</DistanceMeters>
          </Trackpoint>
          <Trackpoint>
            <Time>2019-01-04T11:36:02.000Z</Time>
            <Position>
              <LatitudeDegrees>36.4909203909337520599365234375</LatitudeDegrees>
              <LongitudeDegrees>-5.40485610254108905792236328125</LongitudeDegrees>
            </Position>
            <AltitudeMeters>60</AltitudeMeters>
            <DistanceMeters>NAN</DistanceMeters>
          </Trackpoint>
          <Trackpoint>
            <Time>2019-01-04T11:36:03.000Z</Time>
            <Position>
              <LatitudeDegrees>36.490904130041599273681640625</LatitudeDegrees>
              <LongitudeDegrees>-5.40486196987330913543701171875</LongitudeDegrees>
            </Position>
            <AltitudeMeters>60</AltitudeMeters>
            <DistanceMeters>NAN</DistanceMeters>
          </Trackpoint>
          <Trackpoint>
            <Time>2019-01-04T11:36:04.000Z</Time>
            <Position>
              <LatitudeDegrees>36.490889377892017364501953125</LatitudeDegrees>
              <LongitudeDegrees>-5.40487085469067096710205078125</LongitudeDegrees>
            </Position>
            <AltitudeMeters>60</AltitudeMeters>
            <DistanceMeters>NAN</DistanceMeters>
          </Trackpoint>
          <Trackpoint>
            <Time>2019-01-04T11:36:05.000Z</Time>
            <Position>
              <LatitudeDegrees>36.490873284637928009033203125</LatitudeDegrees>
              <LongitudeDegrees>-5.40487655438482761383056640625</LongitudeDegrees>
            </Position>
            <AltitudeMeters>59.799999237060546875</AltitudeMeters>
            <DistanceMeters>NAN</DistanceMeters>
          </Trackpoint>
          <Trackpoint>
            <Time>2019-01-04T11:36:06.000Z</Time>
            <Position>
              <LatitudeDegrees>36.49085761047899723052978515625</LatitudeDegrees>
              <LongitudeDegrees>-5.4048813320696353912353515625</LongitudeDegrees>
            </Position>
            <AltitudeMeters>59.799999237060546875</AltitudeMeters>
            <DistanceMeters>NAN</DistanceMeters>
          </Trackpoint>
          <Trackpoint>
            <Time>2019-01-04T11:36:07.000Z</Time>
            <Position>
              <LatitudeDegrees>36.4908412657678127288818359375</LatitudeDegrees>
              <LongitudeDegrees>-5.4048858582973480224609375</LongitudeDegrees>
            </Position>
            <AltitudeMeters>59.799999237060546875</AltitudeMeters>
            <DistanceMeters>NAN</DistanceMeters>
          </Trackpoint>
          <Trackpoint>
            <Time>2019-01-04T11:36:08.000Z</Time>
            <Position>
              <LatitudeDegrees>36.49082676507532596588134765625</LatitudeDegrees>
              <LongitudeDegrees>-5.40488812141120433807373046875</LongitudeDegrees>
            </Position>
            <AltitudeMeters>59.799999237060546875</AltitudeMeters>
            <DistanceMeters>NAN</DistanceMeters>
          </Trackpoint>
          <Trackpoint>
            <Time>2019-01-04T11:36:09.000Z</Time>
            <Position>
              <LatitudeDegrees>36.4908141084015369415283203125</LatitudeDegrees>
              <LongitudeDegrees>-5.4048934020102024078369140625</LongitudeDegrees>
            </Position>
            <AltitudeMeters>59.799999237060546875</AltitudeMeters>
            <DistanceMeters>NAN</DistanceMeters>
          </Trackpoint>
          <Trackpoint>
            <Time>2019-01-04T11:36:10.000Z</Time>
            <Position>
              <LatitudeDegrees>36.490798853337764739990234375</LatitudeDegrees>
              <LongitudeDegrees>-5.40489532984793186187744140625</LongitudeDegrees>
            </Position>
            <AltitudeMeters>59.799999237060546875</AltitudeMeters>
            <DistanceMeters>NAN</DistanceMeters>
          </Trackpoint>
          <Trackpoint>
            <Time>2019-01-04T11:36:11.000Z</Time>
            <Position>
              <LatitudeDegrees>36.4907835982739925384521484375</LatitudeDegrees>
              <LongitudeDegrees>-5.4048970900475978851318359375</LongitudeDegrees>
            </Position>
            <AltitudeMeters>59.59999847412109375</AltitudeMeters>
            <DistanceMeters>NAN</DistanceMeters>
          </Trackpoint>
          <Trackpoint>
            <Time>2019-01-04T11:36:12.000Z</Time>
            <Position>
              <LatitudeDegrees>36.490768678486347198486328125</LatitudeDegrees>
              <LongitudeDegrees>-5.4048991017043590545654296875</LongitudeDegrees>
            </Position>
            <AltitudeMeters>59.59999847412109375</AltitudeMeters>
            <DistanceMeters>NAN</DistanceMeters>
          </Trackpoint>
          <Trackpoint>
            <Time>2019-01-04T11:36:13.000Z</Time>
            <Position>
              <LatitudeDegrees>36.4907544292509555816650390625</LatitudeDegrees>
              <LongitudeDegrees>-5.40489952079951763153076171875</LongitudeDegrees>
            </Position>
            <AltitudeMeters>59.59999847412109375</AltitudeMeters>
            <DistanceMeters>NAN</DistanceMeters>
          </Trackpoint>
          <Trackpoint>
            <Time>2019-01-04T11:36:14.000Z</Time>
            <Position>
              <LatitudeDegrees>36.49073976092040538787841796875</LatitudeDegrees>
              <LongitudeDegrees>-5.40490052662789821624755859375</LongitudeDegrees>
            </Position>
            <AltitudeMeters>59.59999847412109375</AltitudeMeters>
            <DistanceMeters>NAN</DistanceMeters>
          </Trackpoint>
          <Trackpoint>
            <Time>2019-01-04T11:36:15.000Z</Time>
            <Position>
              <LatitudeDegrees>36.49072299711406230926513671875</LatitudeDegrees>
              <LongitudeDegrees>-5.40489859879016876220703125</LongitudeDegrees>
            </Position>
            <AltitudeMeters>59.40000152587890625</AltitudeMeters>
            <DistanceMeters>NAN</DistanceMeters>
          </Trackpoint>
          <Trackpoint>
            <Time>2019-01-04T11:36:16.000Z</Time>
            <Position>
              <LatitudeDegrees>36.49070908315479755401611328125</LatitudeDegrees>
              <LongitudeDegrees>-5.4048992693424224853515625</LongitudeDegrees>
            </Position>
            <AltitudeMeters>59.40000152587890625</AltitudeMeters>
            <DistanceMeters>NAN</DistanceMeters>
          </Trackpoint>
          <Trackpoint>
            <Time>2019-01-04T11:36:17.000Z</Time>
            <Position>
              <LatitudeDegrees>36.49069366045296192169189453125</LatitudeDegrees>
              <LongitudeDegrees>-5.40490035898983478546142578125</LongitudeDegrees>
            </Position>
            <AltitudeMeters>59.40000152587890625</AltitudeMeters>
            <DistanceMeters>NAN</DistanceMeters>
          </Trackpoint>
          <Trackpoint>
            <Time>2019-01-04T11:36:18.000Z</Time>
            <Position>
              <LatitudeDegrees>36.490676812827587127685546875</LatitudeDegrees>
              <LongitudeDegrees>-5.40489918552339076995849609375</LongitudeDegrees>
            </Position>
            <AltitudeMeters>59.200000762939453125</AltitudeMeters>
            <DistanceMeters>NAN</DistanceMeters>
          </Trackpoint>
          <Trackpoint>
            <Time>2019-01-04T11:36:19.000Z</Time>
            <Position>
              <LatitudeDegrees>36.49066030047833919525146484375</LatitudeDegrees>
              <LongitudeDegrees>-5.404900275170803070068359375</LongitudeDegrees>
            </Position>
            <AltitudeMeters>59.200000762939453125</AltitudeMeters>
            <DistanceMeters>NAN</DistanceMeters>
          </Trackpoint>
          <Trackpoint>
            <Time>2019-01-04T11:36:20.000Z</Time>
            <Position>
              <LatitudeDegrees>36.49064437486231327056884765625</LatitudeDegrees>
              <LongitudeDegrees>-5.404903627932071685791015625</LongitudeDegrees>
            </Position>
            <AltitudeMeters>59.200000762939453125</AltitudeMeters>
            <DistanceMeters>NAN</DistanceMeters>
          </Trackpoint>
          <Trackpoint>
            <Time>2019-01-04T11:36:21.000Z</Time>
            <Position>
              <LatitudeDegrees>36.49062593467533588409423828125</LatitudeDegrees>
              <LongitudeDegrees>-5.404905639588832855224609375</LongitudeDegrees>
            </Position>
            <AltitudeMeters>59.200000762939453125</AltitudeMeters>
            <DistanceMeters>NAN</DistanceMeters>
          </Trackpoint>
          <Trackpoint>
            <Time>2019-01-04T11:36:22.000Z</Time>
            <Position>
              <LatitudeDegrees>36.490609087049961090087890625</LatitudeDegrees>
              <LongitudeDegrees>-5.40490798652172088623046875</LongitudeDegrees>
            </Position>
            <AltitudeMeters>59.200000762939453125</AltitudeMeters>
            <DistanceMeters>NAN</DistanceMeters>
          </Trackpoint>
          <Trackpoint>
            <Time>2019-01-04T11:36:23.000Z</Time>
            <Position>
              <LatitudeDegrees>36.49059257470071315765380859375</LatitudeDegrees>
              <LongitudeDegrees>-5.40490974672138690948486328125</LongitudeDegrees>
            </Position>
            <AltitudeMeters>59.40000152587890625</AltitudeMeters>
            <DistanceMeters>NAN</DistanceMeters>
          </Trackpoint>
          <Trackpoint>
            <Time>2019-01-04T11:36:24.000Z</Time>
            <Position>
              <LatitudeDegrees>36.490577571094036102294921875</LatitudeDegrees>
              <LongitudeDegrees>-5.4049099981784820556640625</LongitudeDegrees>
            </Position>
            <AltitudeMeters>59.40000152587890625</AltitudeMeters>
            <DistanceMeters>NAN</DistanceMeters>
          </Trackpoint>
          <Trackpoint>
            <Time>2019-01-04T11:36:25.000Z</Time>
            <Position>
              <LatitudeDegrees>36.490564830601215362548828125</LatitudeDegrees>
              <LongitudeDegrees>-5.40491259656846523284912109375</LongitudeDegrees>
            </Position>
            <AltitudeMeters>59.59999847412109375</AltitudeMeters>
            <DistanceMeters>NAN</DistanceMeters>
          </Trackpoint>
          <Trackpoint>
            <Time>2019-01-04T11:36:26.000Z</Time>
            <Position>
              <LatitudeDegrees>36.490552760660648345947265625</LatitudeDegrees>
              <LongitudeDegrees>-5.4049175418913364410400390625</LongitudeDegrees>
            </Position>
            <AltitudeMeters>59.59999847412109375</AltitudeMeters>
            <DistanceMeters>NAN</DistanceMeters>
          </Trackpoint>
          <Trackpoint>
            <Time>2019-01-04T11:36:27.000Z</Time>
            <Position>
              <LatitudeDegrees>36.490539014339447021484375</LatitudeDegrees>
              <LongitudeDegrees>-5.4049234092235565185546875</LongitudeDegrees>
            </Position>
            <AltitudeMeters>59.59999847412109375</AltitudeMeters>
            <DistanceMeters>NAN</DistanceMeters>
          </Trackpoint>
          <Trackpoint>
            <Time>2019-01-04T11:36:28.000Z</Time>
            <Position>
              <LatitudeDegrees>36.49052619002759456634521484375</LatitudeDegrees>
              <LongitudeDegrees>-5.4049279354512691497802734375</LongitudeDegrees>
            </Position>
            <AltitudeMeters>59.59999847412109375</AltitudeMeters>
            <DistanceMeters>NAN</DistanceMeters>
          </Trackpoint>
          <Trackpoint>
            <Time>2019-01-04T11:36:29.000Z</Time>
            <Position>
              <LatitudeDegrees>36.4905137009918689727783203125</LatitudeDegrees>
              <LongitudeDegrees>-5.40493506006896495819091796875</LongitudeDegrees>
            </Position>
            <AltitudeMeters>59.59999847412109375</AltitudeMeters>
            <DistanceMeters>NAN</DistanceMeters>
          </Trackpoint>
          <Trackpoint>
            <Time>2019-01-04T11:36:30.000Z</Time>
            <Position>
              <LatitudeDegrees>36.49050221778452396392822265625</LatitudeDegrees>
              <LongitudeDegrees>-5.4049393348395824432373046875</LongitudeDegrees>
            </Position>
            <AltitudeMeters>59.59999847412109375</AltitudeMeters>
            <DistanceMeters>NAN</DistanceMeters>
          </Trackpoint>
          <Trackpoint>
            <Time>2019-01-04T11:36:31.000Z</Time>
            <Position>
              <LatitudeDegrees>36.49048796854913234710693359375</LatitudeDegrees>
              <LongitudeDegrees>-5.4049395024776458740234375</LongitudeDegrees>
            </Position>
            <AltitudeMeters>59.59999847412109375</AltitudeMeters>
            <DistanceMeters>NAN</DistanceMeters>
          </Trackpoint>
          <Trackpoint>
            <Time>2019-01-04T11:36:32.000Z</Time>
            <Position>
              <LatitudeDegrees>36.490474976599216461181640625</LatitudeDegrees>
              <LongitudeDegrees>-5.40494478307664394378662109375</LongitudeDegrees>
            </Position>
            <AltitudeMeters>59.59999847412109375</AltitudeMeters>
            <DistanceMeters>NAN</DistanceMeters>
          </Trackpoint>
          <Trackpoint>
            <Time>2019-01-04T11:36:33.000Z</Time>
            <Position>
              <LatitudeDegrees>36.4904630742967128753662109375</LatitudeDegrees>
              <LongitudeDegrees>-5.40494956076145172119140625</LongitudeDegrees>
            </Position>
            <AltitudeMeters>59.40000152587890625</AltitudeMeters>
            <DistanceMeters>NAN</DistanceMeters>
          </Trackpoint>
          <Trackpoint>
            <Time>2019-01-04T11:36:34.000Z</Time>
            <Position>
              <LatitudeDegrees>36.49045251309871673583984375</LatitudeDegrees>
              <LongitudeDegrees>-5.4049557633697986602783203125</LongitudeDegrees>
            </Position>
            <AltitudeMeters>59.40000152587890625</AltitudeMeters>
            <DistanceMeters>NAN</DistanceMeters>
          </Trackpoint>
          <Trackpoint>
            <Time>2019-01-04T11:36:35.000Z</Time>
            <Position>
              <LatitudeDegrees>36.49044044315814971923828125</LatitudeDegrees>
              <LongitudeDegrees>-5.4049628041684627532958984375</LongitudeDegrees>
            </Position>
            <AltitudeMeters>59.40000152587890625</AltitudeMeters>
            <DistanceMeters>NAN</DistanceMeters>
          </Trackpoint>
          <Trackpoint>
            <Time>2019-01-04T11:36:36.000Z</Time>
            <Position>
              <LatitudeDegrees>36.49043030105531215667724609375</LatitudeDegrees>
              <LongitudeDegrees>-5.4049705155193805694580078125</LongitudeDegrees>
            </Position>
            <AltitudeMeters>59.40000152587890625</AltitudeMeters>
            <DistanceMeters>NAN</DistanceMeters>
          </Trackpoint>
          <Trackpoint>
            <Time>2019-01-04T11:36:37.000Z</Time>
            <Position>
              <LatitudeDegrees>36.4904198236763477325439453125</LatitudeDegrees>
              <LongitudeDegrees>-5.40497579611837863922119140625</LongitudeDegrees>
            </Position>
            <AltitudeMeters>59.40000152587890625</AltitudeMeters>
            <DistanceMeters>NAN</DistanceMeters>
          </Trackpoint>
          <Trackpoint>
            <Time>2019-01-04T11:36:38.000Z</Time>
            <Position>
              <LatitudeDegrees>36.490407250821590423583984375</LatitudeDegrees>
              <LongitudeDegrees>-5.4049785621464252471923828125</LongitudeDegrees>
            </Position>
            <AltitudeMeters>59.40000152587890625</AltitudeMeters>
            <DistanceMeters>NAN</DistanceMeters>
          </Trackpoint>
          <Trackpoint>
            <Time>2019-01-04T11:36:39.000Z</Time>
            <Position>
              <LatitudeDegrees>36.490393839776515960693359375</LatitudeDegrees>
              <LongitudeDegrees>-5.40497747249901294708251953125</LongitudeDegrees>
            </Position>
            <AltitudeMeters>59.200000762939453125</AltitudeMeters>
            <DistanceMeters>NAN</DistanceMeters>
          </Trackpoint>
          <Trackpoint>
            <Time>2019-01-04T11:36:40.000Z</Time>
            <Position>
              <LatitudeDegrees>36.4903789199888706207275390625</LatitudeDegrees>
              <LongitudeDegrees>-5.40497495792806148529052734375</LongitudeDegrees>
            </Position>
            <AltitudeMeters>59.200000762939453125</AltitudeMeters>
            <DistanceMeters>NAN</DistanceMeters>
          </Trackpoint>
          <Trackpoint>
            <Time>2019-01-04T11:36:41.000Z</Time>
            <Position>
              <LatitudeDegrees>36.4903608150780200958251953125</LatitudeDegrees>
              <LongitudeDegrees>-5.40497445501387119293212890625</LongitudeDegrees>
            </Position>
            <AltitudeMeters>59.40000152587890625</AltitudeMeters>
            <DistanceMeters>NAN</DistanceMeters>
          </Trackpoint>
          <Trackpoint>
            <Time>2019-01-04T11:36:42.000Z</Time>
            <Position>
              <LatitudeDegrees>36.4903430454432964324951171875</LatitudeDegrees>
              <LongitudeDegrees>-5.40497696958482265472412109375</LongitudeDegrees>
            </Position>
            <AltitudeMeters>59.40000152587890625</AltitudeMeters>
            <DistanceMeters>NAN</DistanceMeters>
          </Trackpoint>
          <Trackpoint>
            <Time>2019-01-04T11:36:43.000Z</Time>
            <Position>
              <LatitudeDegrees>36.49032452143728733062744140625</LatitudeDegrees>
              <LongitudeDegrees>-5.4049802385270595550537109375</LongitudeDegrees>
            </Position>
            <AltitudeMeters>59.40000152587890625</AltitudeMeters>
            <DistanceMeters>NAN</DistanceMeters>
          </Trackpoint>
          <Trackpoint>
            <Time>2019-01-04T11:36:44.000Z</Time>
            <Position>
              <LatitudeDegrees>36.49030993692576885223388671875</LatitudeDegrees>
              <LongitudeDegrees>-5.40497906506061553955078125</LongitudeDegrees>
            </Position>
            <AltitudeMeters>59.59999847412109375</AltitudeMeters>
            <DistanceMeters>NAN</DistanceMeters>
          </Trackpoint>
          <Trackpoint>
            <Time>2019-01-04T11:36:45.000Z</Time>
            <Position>
              <LatitudeDegrees>36.49029468186199665069580078125</LatitudeDegrees>
              <LongitudeDegrees>-5.40497613139450550079345703125</LongitudeDegrees>
            </Position>
            <AltitudeMeters>59.59999847412109375</AltitudeMeters>
            <DistanceMeters>NAN</DistanceMeters>
          </Trackpoint>
          <Trackpoint>
            <Time>2019-01-04T11:36:46.000Z</Time>
            <Position>
              <LatitudeDegrees>36.490278504788875579833984375</LatitudeDegrees>
              <LongitudeDegrees>-5.404971353709697723388671875</LongitudeDegrees>
            </Position>
            <AltitudeMeters>59.59999847412109375</AltitudeMeters>
            <DistanceMeters>NAN</DistanceMeters>
          </Trackpoint>
          <Trackpoint>
            <Time>2019-01-04T11:36:47.000Z</Time>
            <Position>
              <LatitudeDegrees>36.49026350118219852447509765625</LatitudeDegrees>
              <LongitudeDegrees>-5.4049685038626194000244140625</LongitudeDegrees>
            </Position>
            <AltitudeMeters>59.799999237060546875</AltitudeMeters>
            <DistanceMeters>NAN</DistanceMeters>
          </Trackpoint>
          <Trackpoint>
            <Time>2019-01-04T11:36:48.000Z</Time>
            <Position>
              <LatitudeDegrees>36.49025134742259979248046875</LatitudeDegrees>
              <LongitudeDegrees>-5.40496355853974819183349609375</LongitudeDegrees>
            </Position>
            <AltitudeMeters>59.59999847412109375</AltitudeMeters>
            <DistanceMeters>NAN</DistanceMeters>
          </Trackpoint>
          <Trackpoint>
            <Time>2019-01-04T11:36:49.000Z</Time>
            <Position>
              <LatitudeDegrees>36.49023701436817646026611328125</LatitudeDegrees>
              <LongitudeDegrees>-5.4049567691981792449951171875</LongitudeDegrees>
            </Position>
            <AltitudeMeters>59.59999847412109375</AltitudeMeters>
            <DistanceMeters>NAN</DistanceMeters>
          </Trackpoint>
          <Trackpoint>
            <Time>2019-01-04T11:36:50.000Z</Time>
            <Position>
              <LatitudeDegrees>36.490224860608577728271484375</LatitudeDegrees>
              <LongitudeDegrees>-5.404950566589832305908203125</LongitudeDegrees>
            </Position>
            <AltitudeMeters>59.59999847412109375</AltitudeMeters>
            <DistanceMeters>NAN</DistanceMeters>
          </Trackpoint>
          <Trackpoint>
            <Time>2019-01-04T11:36:51.000Z</Time>
            <Position>
              <LatitudeDegrees>36.49021538905799388885498046875</LatitudeDegrees>
              <LongitudeDegrees>-5.404947213828563690185546875</LongitudeDegrees>
            </Position>
            <AltitudeMeters>59.59999847412109375</AltitudeMeters>
            <DistanceMeters>NAN</DistanceMeters>
          </Trackpoint>
          <Trackpoint>
            <Time>2019-01-04T11:36:52.000Z</Time>
            <Position>
              <LatitudeDegrees>36.490205414593219757080078125</LatitudeDegrees>
              <LongitudeDegrees>-5.40494763292372226715087890625</LongitudeDegrees>
            </Position>
            <AltitudeMeters>59.59999847412109375</AltitudeMeters>
            <DistanceMeters>NAN</DistanceMeters>
          </Trackpoint>
          <Trackpoint>
            <Time>2019-01-04T11:36:53.000Z</Time>
            <Position>
              <LatitudeDegrees>36.49019233882427215576171875</LatitudeDegrees>
              <LongitudeDegrees>-5.4049408435821533203125</LongitudeDegrees>
            </Position>
            <AltitudeMeters>59.59999847412109375</AltitudeMeters>
            <DistanceMeters>NAN</DistanceMeters>
          </Trackpoint>
          <Trackpoint>
            <Time>2019-01-04T11:36:54.000Z</Time>
            <Position>
              <LatitudeDegrees>36.4901801012456417083740234375</LatitudeDegrees>
              <LongitudeDegrees>-5.40493941865861415863037109375</LongitudeDegrees>
            </Position>
            <AltitudeMeters>59.799999237060546875</AltitudeMeters>
            <DistanceMeters>NAN</DistanceMeters>
          </Trackpoint>
          <Trackpoint>
            <Time>2019-01-04T11:36:55.000Z</Time>
            <Position>
              <LatitudeDegrees>36.49016828276216983795166015625</LatitudeDegrees>
              <LongitudeDegrees>-5.404940508306026458740234375</LongitudeDegrees>
            </Position>
            <AltitudeMeters>59.799999237060546875</AltitudeMeters>
            <DistanceMeters>NAN</DistanceMeters>
          </Trackpoint>
          <Trackpoint>
            <Time>2019-01-04T11:36:56.000Z</Time>
            <Position>
              <LatitudeDegrees>36.49015487171709537506103515625</LatitudeDegrees>
              <LongitudeDegrees>-5.4049400053918361663818359375</LongitudeDegrees>
            </Position>
            <AltitudeMeters>60</AltitudeMeters>
            <DistanceMeters>NAN</DistanceMeters>
          </Trackpoint>
          <Trackpoint>
            <Time>2019-01-04T11:36:57.000Z</Time>
            <Position>
              <LatitudeDegrees>36.4901351742446422576904296875</LatitudeDegrees>
              <LongitudeDegrees>-5.40493740700185298919677734375</LongitudeDegrees>
            </Position>
            <AltitudeMeters>60</AltitudeMeters>
            <DistanceMeters>NAN</DistanceMeters>
          </Trackpoint>
          <Trackpoint>
            <Time>2019-01-04T11:36:58.000Z</Time>
            <Position>
              <LatitudeDegrees>36.49011899717152118682861328125</LatitudeDegrees>
              <LongitudeDegrees>-5.40493790991604328155517578125</LongitudeDegrees>
            </Position>
            <AltitudeMeters>60.200000762939453125</AltitudeMeters>
            <DistanceMeters>NAN</DistanceMeters>
          </Trackpoint>
          <Trackpoint>
            <Time>2019-01-04T11:36:59.000Z</Time>
            <Position>
              <LatitudeDegrees>36.4901029877364635467529296875</LatitudeDegrees>
              <LongitudeDegrees>-5.40493841283023357391357421875</LongitudeDegrees>
            </Position>
            <AltitudeMeters>60.200000762939453125</AltitudeMeters>
            <DistanceMeters>NAN</DistanceMeters>
          </Trackpoint>
          <Trackpoint>
            <Time>2019-01-04T11:37:00.000Z</Time>
            <Position>
              <LatitudeDegrees>36.49008513428270816802978515625</LatitudeDegrees>
              <LongitudeDegrees>-5.40493874810636043548583984375</LongitudeDegrees>
            </Position>
            <AltitudeMeters>60.200000762939453125</AltitudeMeters>
            <DistanceMeters>NAN</DistanceMeters>
          </Trackpoint>
          <Trackpoint>
            <Time>2019-01-04T11:37:01.000Z</Time>
            <Position>
              <LatitudeDegrees>36.49006920866668224334716796875</LatitudeDegrees>
              <LongitudeDegrees>-5.40493908338248729705810546875</LongitudeDegrees>
            </Position>
            <AltitudeMeters>60.200000762939453125</AltitudeMeters>
            <DistanceMeters>NAN</DistanceMeters>
          </Trackpoint>
          <Trackpoint>
            <Time>2019-01-04T11:37:02.000Z</Time>
            <Position>
              <LatitudeDegrees>36.49005244486033916473388671875</LatitudeDegrees>
              <LongitudeDegrees>-5.404941178858280181884765625</LongitudeDegrees>
            </Position>
            <AltitudeMeters>60.200000762939453125</AltitudeMeters>
            <DistanceMeters>NAN</DistanceMeters>
          </Trackpoint>
          <Trackpoint>
            <Time>2019-01-04T11:37:03.000Z</Time>
            <Position>
              <LatitudeDegrees>36.49003350175917148590087890625</LatitudeDegrees>
              <LongitudeDegrees>-5.404938161373138427734375</LongitudeDegrees>
            </Position>
            <AltitudeMeters>60</AltitudeMeters>
            <DistanceMeters>NAN</DistanceMeters>
          </Trackpoint>
          <Trackpoint>
            <Time>2019-01-04T11:37:04.000Z</Time>
            <Position>
              <LatitudeDegrees>36.490016989409923553466796875</LatitudeDegrees>
              <LongitudeDegrees>-5.4049423523247241973876953125</LongitudeDegrees>
            </Position>
            <AltitudeMeters>60</AltitudeMeters>
            <DistanceMeters>NAN</DistanceMeters>
          </Trackpoint>
          <Trackpoint>
            <Time>2019-01-04T11:37:05.000Z</Time>
            <Position>
              <LatitudeDegrees>36.4900000579655170440673828125</LatitudeDegrees>
              <LongitudeDegrees>-5.4049470461905002593994140625</LongitudeDegrees>
            </Position>
            <AltitudeMeters>60</AltitudeMeters>
            <DistanceMeters>NAN</DistanceMeters>
          </Trackpoint>
          <Trackpoint>
            <Time>2019-01-04T11:37:06.000Z</Time>
            <Position>
              <LatitudeDegrees>36.48998371325433254241943359375</LatitudeDegrees>
              <LongitudeDegrees>-5.40495350025594234466552734375</LongitudeDegrees>
            </Position>
            <AltitudeMeters>59.799999237060546875</AltitudeMeters>
            <DistanceMeters>NAN</DistanceMeters>
          </Trackpoint>
          <Trackpoint>
            <Time>2019-01-04T11:37:07.000Z</Time>
            <Position>
              <LatitudeDegrees>36.48996644653379917144775390625</LatitudeDegrees>
              <LongitudeDegrees>-5.4049604572355747222900390625</LongitudeDegrees>
            </Position>
            <AltitudeMeters>59.799999237060546875</AltitudeMeters>
            <DistanceMeters>NAN</DistanceMeters>
          </Trackpoint>
          <Trackpoint>
            <Time>2019-01-04T11:37:08.000Z</Time>
            <Position>
              <LatitudeDegrees>36.4899497665464878082275390625</LatitudeDegrees>
              <LongitudeDegrees>-5.4049671627581119537353515625</LongitudeDegrees>
            </Position>
            <AltitudeMeters>59.59999847412109375</AltitudeMeters>
            <DistanceMeters>NAN</DistanceMeters>
          </Trackpoint>
          <Trackpoint>
            <Time>2019-01-04T11:37:09.000Z</Time>
            <Position>
              <LatitudeDegrees>36.4899314939975738525390625</LatitudeDegrees>
              <LongitudeDegrees>-5.40497629903256893157958984375</LongitudeDegrees>
            </Position>
            <AltitudeMeters>59.59999847412109375</AltitudeMeters>
            <DistanceMeters>NAN</DistanceMeters>
          </Trackpoint>
          <Trackpoint>
            <Time>2019-01-04T11:37:10.000Z</Time>
            <Position>
              <LatitudeDegrees>36.4899145625531673431396484375</LatitudeDegrees>
              <LongitudeDegrees>-5.40498635731637477874755859375</LongitudeDegrees>
            </Position>
            <AltitudeMeters>59.59999847412109375</AltitudeMeters>
            <DistanceMeters>NAN</DistanceMeters>
          </Trackpoint>
          <Trackpoint>
            <Time>2019-01-04T11:37:11.000Z</Time>
            <Position>
              <LatitudeDegrees>36.48989888839423656463623046875</LatitudeDegrees>
              <LongitudeDegrees>-5.4049963317811489105224609375</LongitudeDegrees>
            </Position>
            <AltitudeMeters>59.59999847412109375</AltitudeMeters>
            <DistanceMeters>NAN</DistanceMeters>
          </Trackpoint>
          <Trackpoint>
            <Time>2019-01-04T11:37:12.000Z</Time>
            <Position>
              <LatitudeDegrees>36.48988396860659122467041015625</LatitudeDegrees>
              <LongitudeDegrees>-5.4050073958933353424072265625</LongitudeDegrees>
            </Position>
            <AltitudeMeters>59.799999237060546875</AltitudeMeters>
            <DistanceMeters>NAN</DistanceMeters>
          </Trackpoint>
          <Trackpoint>
            <Time>2019-01-04T11:37:13.000Z</Time>
            <Position>
              <LatitudeDegrees>36.489865444600582122802734375</LatitudeDegrees>
              <LongitudeDegrees>-5.40501686744391918182373046875</LongitudeDegrees>
            </Position>
            <AltitudeMeters>59.799999237060546875</AltitudeMeters>
            <DistanceMeters>NAN</DistanceMeters>
          </Trackpoint>
          <Trackpoint>
            <Time>2019-01-04T11:37:14.000Z</Time>
            <Position>
              <LatitudeDegrees>36.4898498542606830596923828125</LatitudeDegrees>
              <LongitudeDegrees>-5.40502860210835933685302734375</LongitudeDegrees>
            </Position>
            <AltitudeMeters>60</AltitudeMeters>
            <DistanceMeters>NAN</DistanceMeters>
          </Trackpoint>
          <Trackpoint>
            <Time>2019-01-04T11:37:15.000Z</Time>
            <Position>
              <LatitudeDegrees>36.4898361079394817352294921875</LatitudeDegrees>
              <LongitudeDegrees>-5.405035726726055145263671875</LongitudeDegrees>
            </Position>
            <AltitudeMeters>59.799999237060546875</AltitudeMeters>
            <DistanceMeters>NAN</DistanceMeters>
          </Trackpoint>
          <Trackpoint>
            <Time>2019-01-04T11:37:16.000Z</Time>
            <Position>
              <LatitudeDegrees>36.48982378654181957244873046875</LatitudeDegrees>
              <LongitudeDegrees>-5.4050459526479244232177734375</LongitudeDegrees>
            </Position>
            <AltitudeMeters>59.799999237060546875</AltitudeMeters>
            <DistanceMeters>NAN</DistanceMeters>
          </Trackpoint>
          <Trackpoint>
            <Time>2019-01-04T11:37:17.000Z</Time>
            <Position>
              <LatitudeDegrees>36.4898129738867282867431640625</LatitudeDegrees>
              <LongitudeDegrees>-5.4050563462078571319580078125</LongitudeDegrees>
            </Position>
            <AltitudeMeters>59.59999847412109375</AltitudeMeters>
            <DistanceMeters>NAN</DistanceMeters>
          </Trackpoint>
          <Trackpoint>
            <Time>2019-01-04T11:37:18.000Z</Time>
            <Position>
              <LatitudeDegrees>36.48980082012712955474853515625</LatitudeDegrees>
              <LongitudeDegrees>-5.40506514720618724822998046875</LongitudeDegrees>
            </Position>
            <AltitudeMeters>59.200000762939453125</AltitudeMeters>
            <DistanceMeters>NAN</DistanceMeters>
          </Trackpoint>
          <Trackpoint>
            <Time>2019-01-04T11:37:19.000Z</Time>
            <Position>
              <LatitudeDegrees>36.4897881634533405303955078125</LatitudeDegrees>
              <LongitudeDegrees>-5.40507352910935878753662109375</LongitudeDegrees>
            </Position>
            <AltitudeMeters>59</AltitudeMeters>
            <DistanceMeters>NAN</DistanceMeters>
          </Trackpoint>
          <Trackpoint>
            <Time>2019-01-04T11:37:20.000Z</Time>
            <Position>
              <LatitudeDegrees>36.48977391421794891357421875</LatitudeDegrees>
              <LongitudeDegrees>-5.40508107282221317291259765625</LongitudeDegrees>
            </Position>
            <AltitudeMeters>59</AltitudeMeters>
            <DistanceMeters>NAN</DistanceMeters>
          </Trackpoint>
          <Trackpoint>
            <Time>2019-01-04T11:37:21.000Z</Time>
            <Position>
              <LatitudeDegrees>36.489758156239986419677734375</LatitudeDegrees>
              <LongitudeDegrees>-5.40508928708732128143310546875</LongitudeDegrees>
            </Position>
            <AltitudeMeters>59</AltitudeMeters>
            <DistanceMeters>NAN</DistanceMeters>
          </Trackpoint>
          <Trackpoint>
            <Time>2019-01-04T11:37:22.000Z</Time>
            <Position>
              <LatitudeDegrees>36.48974172770977020263671875</LatitudeDegrees>
              <LongitudeDegrees>-5.40509565733373165130615234375</LongitudeDegrees>
            </Position>
            <AltitudeMeters>59</AltitudeMeters>
            <DistanceMeters>NAN</DistanceMeters>
          </Trackpoint>
          <Trackpoint>
            <Time>2019-01-04T11:37:23.000Z</Time>
            <Position>
              <LatitudeDegrees>36.48972437717020511627197265625</LatitudeDegrees>
              <LongitudeDegrees>-5.40510110557079315185546875</LongitudeDegrees>
            </Position>
            <AltitudeMeters>59</AltitudeMeters>
            <DistanceMeters>NAN</DistanceMeters>
          </Trackpoint>
          <Trackpoint>
            <Time>2019-01-04T11:37:24.000Z</Time>
            <Position>
              <LatitudeDegrees>36.48970576934516429901123046875</LatitudeDegrees>
              <LongitudeDegrees>-5.40510504506528377532958984375</LongitudeDegrees>
            </Position>
            <AltitudeMeters>59</AltitudeMeters>
            <DistanceMeters>NAN</DistanceMeters>
          </Trackpoint>
          <Trackpoint>
            <Time>2019-01-04T11:37:25.000Z</Time>
            <Position>
              <LatitudeDegrees>36.48968875408172607421875</LatitudeDegrees>
              <LongitudeDegrees>-5.4051111638545989990234375</LongitudeDegrees>
            </Position>
            <AltitudeMeters>59</AltitudeMeters>
            <DistanceMeters>NAN</DistanceMeters>
          </Trackpoint>
          <Trackpoint>
            <Time>2019-01-04T11:37:26.000Z</Time>
            <Position>
              <LatitudeDegrees>36.48967391811311244964599609375</LatitudeDegrees>
              <LongitudeDegrees>-5.405117534101009368896484375</LongitudeDegrees>
            </Position>
            <AltitudeMeters>59</AltitudeMeters>
            <DistanceMeters>NAN</DistanceMeters>
          </Trackpoint>
          <Trackpoint>
            <Time>2019-01-04T11:37:27.000Z</Time>
            <Position>
              <LatitudeDegrees>36.48965799249708652496337890625</LatitudeDegrees>
              <LongitudeDegrees>-5.40512314997613430023193359375</LongitudeDegrees>
            </Position>
            <AltitudeMeters>59</AltitudeMeters>
            <DistanceMeters>NAN</DistanceMeters>
          </Trackpoint>
          <Trackpoint>
            <Time>2019-01-04T11:37:28.000Z</Time>
            <Position>
              <LatitudeDegrees>36.48964139632880687713623046875</LatitudeDegrees>
              <LongitudeDegrees>-5.40512901730835437774658203125</LongitudeDegrees>
            </Position>
            <AltitudeMeters>59</AltitudeMeters>
            <DistanceMeters>NAN</DistanceMeters>
          </Trackpoint>
          <Trackpoint>
            <Time>2019-01-04T11:37:29.000Z</Time>
            <Position>
              <LatitudeDegrees>36.48962480016052722930908203125</LatitudeDegrees>
              <LongitudeDegrees>-5.40513304062187671661376953125</LongitudeDegrees>
            </Position>
            <AltitudeMeters>59</AltitudeMeters>
            <DistanceMeters>NAN</DistanceMeters>
          </Trackpoint>
          <Trackpoint>
            <Time>2019-01-04T11:37:30.000Z</Time>
            <Position>
              <LatitudeDegrees>36.48960904218256473541259765625</LatitudeDegrees>
              <LongitudeDegrees>-5.40513890795409679412841796875</LongitudeDegrees>
            </Position>
            <AltitudeMeters>59.200000762939453125</AltitudeMeters>
            <DistanceMeters>NAN</DistanceMeters>
          </Trackpoint>
          <Trackpoint>
            <Time>2019-01-04T11:37:31.000Z</Time>
            <Position>
              <LatitudeDegrees>36.489594541490077972412109375</LatitudeDegrees>
              <LongitudeDegrees>-5.4051438532769680023193359375</LongitudeDegrees>
            </Position>
            <AltitudeMeters>59.40000152587890625</AltitudeMeters>
            <DistanceMeters>NAN</DistanceMeters>
          </Trackpoint>
          <Trackpoint>
            <Time>2019-01-04T11:37:32.000Z</Time>
            <Position>
              <LatitudeDegrees>36.48958054371178150177001953125</LatitudeDegrees>
              <LongitudeDegrees>-5.4051472060382366180419921875</LongitudeDegrees>
            </Position>
            <AltitudeMeters>59.40000152587890625</AltitudeMeters>
            <DistanceMeters>NAN</DistanceMeters>
          </Trackpoint>
          <Trackpoint>
            <Time>2019-01-04T11:37:33.000Z</Time>
            <Position>
              <LatitudeDegrees>36.4895685575902462005615234375</LatitudeDegrees>
              <LongitudeDegrees>-5.40515366010367870330810546875</LongitudeDegrees>
            </Position>
            <AltitudeMeters>59.59999847412109375</AltitudeMeters>
            <DistanceMeters>NAN</DistanceMeters>
          </Trackpoint>
          <Trackpoint>
            <Time>2019-01-04T11:37:34.000Z</Time>
            <Position>
              <LatitudeDegrees>36.48955665528774261474609375</LatitudeDegrees>
              <LongitudeDegrees>-5.405160449445247650146484375</LongitudeDegrees>
            </Position>
            <AltitudeMeters>59.59999847412109375</AltitudeMeters>
            <DistanceMeters>NAN</DistanceMeters>
          </Trackpoint>
          <Trackpoint>
            <Time>2019-01-04T11:37:35.000Z</Time>
            <Position>
              <LatitudeDegrees>36.489544920623302459716796875</LatitudeDegrees>
              <LongitudeDegrees>-5.4051648080348968505859375</LongitudeDegrees>
            </Position>
            <AltitudeMeters>59.59999847412109375</AltitudeMeters>
            <DistanceMeters>NAN</DistanceMeters>
          </Trackpoint>
          <Trackpoint>
            <Time>2019-01-04T11:37:36.000Z</Time>
            <Position>
              <LatitudeDegrees>36.48953293450176715850830078125</LatitudeDegrees>
              <LongitudeDegrees>-5.4051686637103557586669921875</LongitudeDegrees>
            </Position>
            <AltitudeMeters>59.59999847412109375</AltitudeMeters>
            <DistanceMeters>NAN</DistanceMeters>
          </Trackpoint>
          <Trackpoint>
            <Time>2019-01-04T11:37:37.000Z</Time>
            <Position>
              <LatitudeDegrees>36.489519774913787841796875</LatitudeDegrees>
              <LongitudeDegrees>-5.4051710106432437896728515625</LongitudeDegrees>
            </Position>
            <AltitudeMeters>59.59999847412109375</AltitudeMeters>
            <DistanceMeters>NAN</DistanceMeters>
          </Trackpoint>
          <Trackpoint>
            <Time>2019-01-04T11:37:38.000Z</Time>
            <Position>
              <LatitudeDegrees>36.48950443603098392486572265625</LatitudeDegrees>
              <LongitudeDegrees>-5.405169166624546051025390625</LongitudeDegrees>
            </Position>
            <AltitudeMeters>59.40000152587890625</AltitudeMeters>
            <DistanceMeters>NAN</DistanceMeters>
          </Trackpoint>
          <Trackpoint>
            <Time>2019-01-04T11:37:39.000Z</Time>
            <Position>
              <LatitudeDegrees>36.48948968388140201568603515625</LatitudeDegrees>
              <LongitudeDegrees>-5.40516824461519718170166015625</LongitudeDegrees>
            </Position>
            <AltitudeMeters>59.200000762939453125</AltitudeMeters>
            <DistanceMeters>NAN</DistanceMeters>
          </Trackpoint>
          <Trackpoint>
            <Time>2019-01-04T11:37:40.000Z</Time>
            <Position>
              <LatitudeDegrees>36.48947375826537609100341796875</LatitudeDegrees>
              <LongitudeDegrees>-5.40517151355743408203125</LongitudeDegrees>
            </Position>
            <AltitudeMeters>59.200000762939453125</AltitudeMeters>
            <DistanceMeters>NAN</DistanceMeters>
          </Trackpoint>
          <Trackpoint>
            <Time>2019-01-04T11:37:41.000Z</Time>
            <Position>
              <LatitudeDegrees>36.48945984430611133575439453125</LatitudeDegrees>
              <LongitudeDegrees>-5.40517528541386127471923828125</LongitudeDegrees>
            </Position>
            <AltitudeMeters>59</AltitudeMeters>
            <DistanceMeters>NAN</DistanceMeters>
          </Trackpoint>
          <Trackpoint>
            <Time>2019-01-04T11:37:42.000Z</Time>
            <Position>
              <LatitudeDegrees>36.4894455112516880035400390625</LatitudeDegrees>
              <LongitudeDegrees>-5.4051773808896541595458984375</LongitudeDegrees>
            </Position>
            <AltitudeMeters>59</AltitudeMeters>
            <DistanceMeters>NAN</DistanceMeters>
          </Trackpoint>
          <Trackpoint>
            <Time>2019-01-04T11:37:43.000Z</Time>
            <Position>
              <LatitudeDegrees>36.4894327707588672637939453125</LatitudeDegrees>
              <LongitudeDegrees>-5.40517863817512989044189453125</LongitudeDegrees>
            </Position>
            <AltitudeMeters>59</AltitudeMeters>
            <DistanceMeters>NAN</DistanceMeters>
          </Trackpoint>
          <Trackpoint>
            <Time>2019-01-04T11:37:44.000Z</Time>
            <Position>
              <LatitudeDegrees>36.48941910825669765472412109375</LatitudeDegrees>
              <LongitudeDegrees>-5.40518199093639850616455078125</LongitudeDegrees>
            </Position>
            <AltitudeMeters>59</AltitudeMeters>
            <DistanceMeters>NAN</DistanceMeters>
          </Trackpoint>
          <Trackpoint>
            <Time>2019-01-04T11:37:45.000Z</Time>
            <Position>
              <LatitudeDegrees>36.4894057810306549072265625</LatitudeDegrees>
              <LongitudeDegrees>-5.4051847569644451141357421875</LongitudeDegrees>
            </Position>
            <AltitudeMeters>59.200000762939453125</AltitudeMeters>
            <DistanceMeters>NAN</DistanceMeters>
          </Trackpoint>
          <Trackpoint>
            <Time>2019-01-04T11:37:46.000Z</Time>
            <Position>
              <LatitudeDegrees>36.48939111270010471343994140625</LatitudeDegrees>
              <LongitudeDegrees>-5.405185259878635406494140625</LongitudeDegrees>
            </Position>
            <AltitudeMeters>59.40000152587890625</AltitudeMeters>
            <DistanceMeters>NAN</DistanceMeters>
          </Trackpoint>
          <Trackpoint>
            <Time>2019-01-04T11:37:47.000Z</Time>
            <Position>
              <LatitudeDegrees>36.48937552236020565032958984375</LatitudeDegrees>
              <LongitudeDegrees>-5.40518433786928653717041015625</LongitudeDegrees>
            </Position>
            <AltitudeMeters>59.59999847412109375</AltitudeMeters>
            <DistanceMeters>NAN</DistanceMeters>
          </Trackpoint>
          <Trackpoint>
            <Time>2019-01-04T11:37:48.000Z</Time>
            <Position>
              <LatitudeDegrees>36.48936093784868717193603515625</LatitudeDegrees>
              <LongitudeDegrees>-5.40518551133573055267333984375</LongitudeDegrees>
            </Position>
            <AltitudeMeters>59.59999847412109375</AltitudeMeters>
            <DistanceMeters>NAN</DistanceMeters>
          </Trackpoint>
          <Trackpoint>
            <Time>2019-01-04T11:37:49.000Z</Time>
            <Position>
              <LatitudeDegrees>36.4893449284136295318603515625</LatitudeDegrees>
              <LongitudeDegrees>-5.40518383495509624481201171875</LongitudeDegrees>
            </Position>
            <AltitudeMeters>59.59999847412109375</AltitudeMeters>
            <DistanceMeters>NAN</DistanceMeters>
          </Trackpoint>
          <Trackpoint>
            <Time>2019-01-04T11:37:50.000Z</Time>
            <Position>
              <LatitudeDegrees>36.489327661693096160888671875</LatitudeDegrees>
              <LongitudeDegrees>-5.4051834158599376678466796875</LongitudeDegrees>
            </Position>
            <AltitudeMeters>59.59999847412109375</AltitudeMeters>
            <DistanceMeters>NAN</DistanceMeters>
          </Trackpoint>
          <Trackpoint>
            <Time>2019-01-04T11:37:51.000Z</Time>
            <Position>
              <LatitudeDegrees>36.4893127419054508209228515625</LatitudeDegrees>
              <LongitudeDegrees>-5.40518651716411113739013671875</LongitudeDegrees>
            </Position>
            <AltitudeMeters>59.59999847412109375</AltitudeMeters>
            <DistanceMeters>NAN</DistanceMeters>
          </Trackpoint>
          <Trackpoint>
            <Time>2019-01-04T11:37:52.000Z</Time>
            <Position>
              <LatitudeDegrees>36.48929941467940807342529296875</LatitudeDegrees>
              <LongitudeDegrees>-5.40519355796277523040771484375</LongitudeDegrees>
            </Position>
            <AltitudeMeters>59.59999847412109375</AltitudeMeters>
            <DistanceMeters>NAN</DistanceMeters>
          </Trackpoint>
          <Trackpoint>
            <Time>2019-01-04T11:37:53.000Z</Time>
            <Position>
              <LatitudeDegrees>36.4892864227294921875</LatitudeDegrees>
              <LongitudeDegrees>-5.40520177222788333892822265625</LongitudeDegrees>
            </Position>
            <AltitudeMeters>59.40000152587890625</AltitudeMeters>
            <DistanceMeters>NAN</DistanceMeters>
          </Trackpoint>
          <Trackpoint>
            <Time>2019-01-04T11:37:54.000Z</Time>
            <Position>
              <LatitudeDegrees>36.48927208967506885528564453125</LatitudeDegrees>
              <LongitudeDegrees>-5.40520831011235713958740234375</LongitudeDegrees>
            </Position>
            <AltitudeMeters>59.40000152587890625</AltitudeMeters>
            <DistanceMeters>NAN</DistanceMeters>
          </Trackpoint>
          <Trackpoint>
            <Time>2019-01-04T11:37:55.000Z</Time>
            <Position>
              <LatitudeDegrees>36.48925960063934326171875</LatitudeDegrees>
              <LongitudeDegrees>-5.40521417744457721710205078125</LongitudeDegrees>
            </Position>
            <AltitudeMeters>59.59999847412109375</AltitudeMeters>
            <DistanceMeters>NAN</DistanceMeters>
          </Trackpoint>
          <Trackpoint>
            <Time>2019-01-04T11:37:56.000Z</Time>
            <Position>
              <LatitudeDegrees>36.48924711160361766815185546875</LatitudeDegrees>
              <LongitudeDegrees>-5.40521970950067043304443359375</LongitudeDegrees>
            </Position>
            <AltitudeMeters>59.59999847412109375</AltitudeMeters>
            <DistanceMeters>NAN</DistanceMeters>
          </Trackpoint>
          <Trackpoint>
            <Time>2019-01-04T11:37:57.000Z</Time>
            <Position>
              <LatitudeDegrees>36.48923453874886035919189453125</LatitudeDegrees>
              <LongitudeDegrees>-5.40522691793739795684814453125</LongitudeDegrees>
            </Position>
            <AltitudeMeters>59.59999847412109375</AltitudeMeters>
            <DistanceMeters>NAN</DistanceMeters>
          </Trackpoint>
          <Trackpoint>
            <Time>2019-01-04T11:37:58.000Z</Time>
            <Position>
              <LatitudeDegrees>36.48922179825603961944580078125</LatitudeDegrees>
              <LongitudeDegrees>-5.4052318632602691650390625</LongitudeDegrees>
            </Position>
            <AltitudeMeters>59.59999847412109375</AltitudeMeters>
            <DistanceMeters>NAN</DistanceMeters>
          </Trackpoint>
          <Trackpoint>
            <Time>2019-01-04T11:37:59.000Z</Time>
            <Position>
              <LatitudeDegrees>36.489207632839679718017578125</LatitudeDegrees>
              <LongitudeDegrees>-5.40523664094507694244384765625</LongitudeDegrees>
            </Position>
            <AltitudeMeters>59.59999847412109375</AltitudeMeters>
            <DistanceMeters>NAN</DistanceMeters>
          </Trackpoint>
          <Trackpoint>
            <Time>2019-01-04T11:38:00.000Z</Time>
            <Position>
              <LatitudeDegrees>36.4891940541565418243408203125</LatitudeDegrees>
              <LongitudeDegrees>-5.4052404128015041351318359375</LongitudeDegrees>
            </Position>
            <AltitudeMeters>59.40000152587890625</AltitudeMeters>
            <DistanceMeters>NAN</DistanceMeters>
          </Trackpoint>
          <Trackpoint>
            <Time>2019-01-04T11:38:01.000Z</Time>
            <Position>
              <LatitudeDegrees>36.48917720653116703033447265625</LatitudeDegrees>
              <LongitudeDegrees>-5.40523848496377468109130859375</LongitudeDegrees>
            </Position>
            <AltitudeMeters>59</AltitudeMeters>
            <DistanceMeters>NAN</DistanceMeters>
          </Trackpoint>
          <Trackpoint>
            <Time>2019-01-04T11:38:02.000Z</Time>
            <Position>
              <LatitudeDegrees>36.4891611970961093902587890625</LatitudeDegrees>
              <LongitudeDegrees>-5.40524552576243877410888671875</LongitudeDegrees>
            </Position>
            <AltitudeMeters>58.799999237060546875</AltitudeMeters>
            <DistanceMeters>NAN</DistanceMeters>
          </Trackpoint>
          <Trackpoint>
            <Time>2019-01-04T11:38:03.000Z</Time>
            <Position>
              <LatitudeDegrees>36.4891461096704006195068359375</LatitudeDegrees>
              <LongitudeDegrees>-5.40525374002754688262939453125</LongitudeDegrees>
            </Position>
            <AltitudeMeters>58.59999847412109375</AltitudeMeters>
            <DistanceMeters>NAN</DistanceMeters>
          </Trackpoint>
          <Trackpoint>
            <Time>2019-01-04T11:38:04.000Z</Time>
            <Position>
              <LatitudeDegrees>36.4891310222446918487548828125</LatitudeDegrees>
              <LongitudeDegrees>-5.405256338417530059814453125</LongitudeDegrees>
            </Position>
            <AltitudeMeters>58.200000762939453125</AltitudeMeters>
            <DistanceMeters>NAN</DistanceMeters>
          </Trackpoint>
          <Trackpoint>
            <Time>2019-01-04T11:38:05.000Z</Time>
            <Position>
              <LatitudeDegrees>36.48911534808576107025146484375</LatitudeDegrees>
              <LongitudeDegrees>-5.4052585177123546600341796875</LongitudeDegrees>
            </Position>
            <AltitudeMeters>58.200000762939453125</AltitudeMeters>
            <DistanceMeters>NAN</DistanceMeters>
          </Trackpoint>
          <Trackpoint>
            <Time>2019-01-04T11:38:06.000Z</Time>
            <Position>
              <LatitudeDegrees>36.4891005121171474456787109375</LatitudeDegrees>
              <LongitudeDegrees>-5.40526178665459156036376953125</LongitudeDegrees>
            </Position>
            <AltitudeMeters>58.200000762939453125</AltitudeMeters>
            <DistanceMeters>NAN</DistanceMeters>
          </Trackpoint>
          <Trackpoint>
            <Time>2019-01-04T11:38:07.000Z</Time>
            <Position>
              <LatitudeDegrees>36.48908601142466068267822265625</LatitudeDegrees>
              <LongitudeDegrees>-5.405268408358097076416015625</LongitudeDegrees>
            </Position>
            <AltitudeMeters>58</AltitudeMeters>
            <DistanceMeters>NAN</DistanceMeters>
          </Trackpoint>
          <Trackpoint>
            <Time>2019-01-04T11:38:08.000Z</Time>
            <Position>
              <LatitudeDegrees>36.48907385766506195068359375</LatitudeDegrees>
              <LongitudeDegrees>-5.40527637116611003875732421875</LongitudeDegrees>
            </Position>
            <AltitudeMeters>58</AltitudeMeters>
            <DistanceMeters>NAN</DistanceMeters>
          </Trackpoint>
          <Trackpoint>
            <Time>2019-01-04T11:38:09.000Z</Time>
            <Position>
              <LatitudeDegrees>36.48906053043901920318603515625</LatitudeDegrees>
              <LongitudeDegrees>-5.40528190322220325469970703125</LongitudeDegrees>
            </Position>
            <AltitudeMeters>58.200000762939453125</AltitudeMeters>
            <DistanceMeters>NAN</DistanceMeters>
          </Trackpoint>
          <Trackpoint>
            <Time>2019-01-04T11:38:10.000Z</Time>
            <Position>
              <LatitudeDegrees>36.4890463650226593017578125</LatitudeDegrees>
              <LongitudeDegrees>-5.40528458543121814727783203125</LongitudeDegrees>
            </Position>
            <AltitudeMeters>58.200000762939453125</AltitudeMeters>
            <DistanceMeters>NAN</DistanceMeters>
          </Trackpoint>
          <Trackpoint>
            <Time>2019-01-04T11:38:11.000Z</Time>
            <Position>
              <LatitudeDegrees>36.4890327863395214080810546875</LatitudeDegrees>
              <LongitudeDegrees>-5.405286513268947601318359375</LongitudeDegrees>
            </Position>
            <AltitudeMeters>58.40000152587890625</AltitudeMeters>
            <DistanceMeters>NAN</DistanceMeters>
          </Trackpoint>
          <Trackpoint>
            <Time>2019-01-04T11:38:12.000Z</Time>
            <Position>
              <LatitudeDegrees>36.48901811800897121429443359375</LatitudeDegrees>
              <LongitudeDegrees>-5.405285842716693878173828125</LongitudeDegrees>
            </Position>
            <AltitudeMeters>58.40000152587890625</AltitudeMeters>
            <DistanceMeters>NAN</DistanceMeters>
          </Trackpoint>
          <Trackpoint>
            <Time>2019-01-04T11:38:13.000Z</Time>
            <Position>
              <LatitudeDegrees>36.48900319822132587432861328125</LatitudeDegrees>
              <LongitudeDegrees>-5.40528341196477413177490234375</LongitudeDegrees>
            </Position>
            <AltitudeMeters>58.40000152587890625</AltitudeMeters>
            <DistanceMeters>NAN</DistanceMeters>
          </Trackpoint>
          <Trackpoint>
            <Time>2019-01-04T11:38:14.000Z</Time>
            <Position>
              <LatitudeDegrees>36.48898643441498279571533203125</LatitudeDegrees>
              <LongitudeDegrees>-5.40527905337512493133544921875</LongitudeDegrees>
            </Position>
            <AltitudeMeters>58.40000152587890625</AltitudeMeters>
            <DistanceMeters>NAN</DistanceMeters>
          </Trackpoint>
          <Trackpoint>
            <Time>2019-01-04T11:38:15.000Z</Time>
            <Position>
              <LatitudeDegrees>36.4889714308083057403564453125</LatitudeDegrees>
              <LongitudeDegrees>-5.4052752815186977386474609375</LongitudeDegrees>
            </Position>
            <AltitudeMeters>58.40000152587890625</AltitudeMeters>
            <DistanceMeters>NAN</DistanceMeters>
          </Trackpoint>
          <Trackpoint>
            <Time>2019-01-04T11:38:16.000Z</Time>
            <Position>
              <LatitudeDegrees>36.48895625956356525421142578125</LatitudeDegrees>
              <LongitudeDegrees>-5.40526949800550937652587890625</LongitudeDegrees>
            </Position>
            <AltitudeMeters>58.40000152587890625</AltitudeMeters>
            <DistanceMeters>NAN</DistanceMeters>
          </Trackpoint>
          <Trackpoint>
            <Time>2019-01-04T11:38:17.000Z</Time>
            <Position>
              <LatitudeDegrees>36.48894117213785648345947265625</LatitudeDegrees>
              <LongitudeDegrees>-5.40526312775909900665283203125</LongitudeDegrees>
            </Position>
            <AltitudeMeters>58.40000152587890625</AltitudeMeters>
            <DistanceMeters>NAN</DistanceMeters>
          </Trackpoint>
          <Trackpoint>
            <Time>2019-01-04T11:38:18.000Z</Time>
            <Position>
              <LatitudeDegrees>36.4889256656169891357421875</LatitudeDegrees>
              <LongitudeDegrees>-5.40525759570300579071044921875</LongitudeDegrees>
            </Position>
            <AltitudeMeters>58.200000762939453125</AltitudeMeters>
            <DistanceMeters>NAN</DistanceMeters>
          </Trackpoint>
          <Trackpoint>
            <Time>2019-01-04T11:38:19.000Z</Time>
            <Position>
              <LatitudeDegrees>36.4889094047248363494873046875</LatitudeDegrees>
              <LongitudeDegrees>-5.4052518121898174285888671875</LongitudeDegrees>
            </Position>
            <AltitudeMeters>58.200000762939453125</AltitudeMeters>
            <DistanceMeters>NAN</DistanceMeters>
          </Trackpoint>
          <Trackpoint>
            <Time>2019-01-04T11:38:20.000Z</Time>
            <Position>
              <LatitudeDegrees>36.48889456875622272491455078125</LatitudeDegrees>
              <LongitudeDegrees>-5.40524728596210479736328125</LongitudeDegrees>
            </Position>
            <AltitudeMeters>58</AltitudeMeters>
            <DistanceMeters>NAN</DistanceMeters>
          </Trackpoint>
          <Trackpoint>
            <Time>2019-01-04T11:38:21.000Z</Time>
            <Position>
              <LatitudeDegrees>36.4888812415301799774169921875</LatitudeDegrees>
              <LongitudeDegrees>-5.4052427597343921661376953125</LongitudeDegrees>
            </Position>
            <AltitudeMeters>58</AltitudeMeters>
            <DistanceMeters>NAN</DistanceMeters>
          </Trackpoint>
          <Trackpoint>
            <Time>2019-01-04T11:38:22.000Z</Time>
            <Position>
              <LatitudeDegrees>36.48886858485639095306396484375</LatitudeDegrees>
              <LongitudeDegrees>-5.40523882023990154266357421875</LongitudeDegrees>
            </Position>
            <AltitudeMeters>58</AltitudeMeters>
            <DistanceMeters>NAN</DistanceMeters>
          </Trackpoint>
          <Trackpoint>
            <Time>2019-01-04T11:38:23.000Z</Time>
            <Position>
              <LatitudeDegrees>36.48885517381131649017333984375</LatitudeDegrees>
              <LongitudeDegrees>-5.40523328818380832672119140625</LongitudeDegrees>
            </Position>
            <AltitudeMeters>58</AltitudeMeters>
            <DistanceMeters>NAN</DistanceMeters>
          </Trackpoint>
          <Trackpoint>
            <Time>2019-01-04T11:38:24.000Z</Time>
            <Position>
              <LatitudeDegrees>36.4888413436710834503173828125</LatitudeDegrees>
              <LongitudeDegrees>-5.40522859431803226470947265625</LongitudeDegrees>
            </Position>
            <AltitudeMeters>58</AltitudeMeters>
            <DistanceMeters>NAN</DistanceMeters>
          </Trackpoint>
          <Trackpoint>
            <Time>2019-01-04T11:38:25.000Z</Time>
            <Position>
              <LatitudeDegrees>36.4888279326260089874267578125</LatitudeDegrees>
              <LongitudeDegrees>-5.405227839946746826171875</LongitudeDegrees>
            </Position>
            <AltitudeMeters>58</AltitudeMeters>
            <DistanceMeters>NAN</DistanceMeters>
          </Trackpoint>
          <Trackpoint>
            <Time>2019-01-04T11:38:26.000Z</Time>
            <Position>
              <LatitudeDegrees>36.48881359957158565521240234375</LatitudeDegrees>
              <LongitudeDegrees>-5.405222810804843902587890625</LongitudeDegrees>
            </Position>
            <AltitudeMeters>58</AltitudeMeters>
            <DistanceMeters>NAN</DistanceMeters>
          </Trackpoint>
          <Trackpoint>
            <Time>2019-01-04T11:38:27.000Z</Time>
            <Position>
              <LatitudeDegrees>36.488802619278430938720703125</LatitudeDegrees>
              <LongitudeDegrees>-5.4052186198532581329345703125</LongitudeDegrees>
            </Position>
            <AltitudeMeters>58</AltitudeMeters>
            <DistanceMeters>NAN</DistanceMeters>
          </Trackpoint>
          <Trackpoint>
            <Time>2019-01-04T11:38:28.000Z</Time>
            <Position>
              <LatitudeDegrees>36.48878862150013446807861328125</LatitudeDegrees>
              <LongitudeDegrees>-5.4052099026739597320556640625</LongitudeDegrees>
            </Position>
            <AltitudeMeters>58.200000762939453125</AltitudeMeters>
            <DistanceMeters>NAN</DistanceMeters>
          </Trackpoint>
          <Trackpoint>
            <Time>2019-01-04T11:38:29.000Z</Time>
            <Position>
              <LatitudeDegrees>36.48877336643636226654052734375</LatitudeDegrees>
              <LongitudeDegrees>-5.4052008502185344696044921875</LongitudeDegrees>
            </Position>
            <AltitudeMeters>58.200000762939453125</AltitudeMeters>
            <DistanceMeters>NAN</DistanceMeters>
          </Trackpoint>
          <Trackpoint>
            <Time>2019-01-04T11:38:30.000Z</Time>
            <Position>
              <LatitudeDegrees>36.48875869810581207275390625</LatitudeDegrees>
              <LongitudeDegrees>-5.4051951505243778228759765625</LongitudeDegrees>
            </Position>
            <AltitudeMeters>58.200000762939453125</AltitudeMeters>
            <DistanceMeters>NAN</DistanceMeters>
          </Trackpoint>
          <Trackpoint>
            <Time>2019-01-04T11:38:31.000Z</Time>
            <Position>
              <LatitudeDegrees>36.4887407608330249786376953125</LatitudeDegrees>
              <LongitudeDegrees>-5.40518961846828460693359375</LongitudeDegrees>
            </Position>
            <AltitudeMeters>58.200000762939453125</AltitudeMeters>
            <DistanceMeters>NAN</DistanceMeters>
          </Trackpoint>
          <Trackpoint>
            <Time>2019-01-04T11:38:32.000Z</Time>
            <Position>
              <LatitudeDegrees>36.488724835216999053955078125</LatitudeDegrees>
              <LongitudeDegrees>-5.40518450550734996795654296875</LongitudeDegrees>
            </Position>
            <AltitudeMeters>58.200000762939453125</AltitudeMeters>
            <DistanceMeters>NAN</DistanceMeters>
          </Trackpoint>
          <Trackpoint>
            <Time>2019-01-04T11:38:33.000Z</Time>
            <Position>
              <LatitudeDegrees>36.488709747791290283203125</LatitudeDegrees>
              <LongitudeDegrees>-5.40518081746995449066162109375</LongitudeDegrees>
            </Position>
            <AltitudeMeters>58.200000762939453125</AltitudeMeters>
            <DistanceMeters>NAN</DistanceMeters>
          </Trackpoint>
          <Trackpoint>
            <Time>2019-01-04T11:38:34.000Z</Time>
            <Position>
              <LatitudeDegrees>36.48869432508945465087890625</LatitudeDegrees>
              <LongitudeDegrees>-5.405178554356098175048828125</LongitudeDegrees>
            </Position>
            <AltitudeMeters>58.40000152587890625</AltitudeMeters>
            <DistanceMeters>NAN</DistanceMeters>
          </Trackpoint>
          <Trackpoint>
            <Time>2019-01-04T11:38:35.000Z</Time>
            <Position>
              <LatitudeDegrees>36.48867831565439701080322265625</LatitudeDegrees>
              <LongitudeDegrees>-5.4051736928522586822509765625</LongitudeDegrees>
            </Position>
            <AltitudeMeters>58.40000152587890625</AltitudeMeters>
            <DistanceMeters>NAN</DistanceMeters>
          </Trackpoint>
          <Trackpoint>
            <Time>2019-01-04T11:38:36.000Z</Time>
            <Position>
              <LatitudeDegrees>36.4886636473238468170166015625</LatitudeDegrees>
              <LongitudeDegrees>-5.4051710106432437896728515625</LongitudeDegrees>
            </Position>
            <AltitudeMeters>58.59999847412109375</AltitudeMeters>
            <DistanceMeters>NAN</DistanceMeters>
          </Trackpoint>
          <Trackpoint>
            <Time>2019-01-04T11:38:37.000Z</Time>
            <Position>
              <LatitudeDegrees>36.4886499010026454925537109375</LatitudeDegrees>
              <LongitudeDegrees>-5.40516740642488002777099609375</LongitudeDegrees>
            </Position>
            <AltitudeMeters>58.59999847412109375</AltitudeMeters>
            <DistanceMeters>NAN</DistanceMeters>
          </Trackpoint>
          <Trackpoint>
            <Time>2019-01-04T11:38:38.000Z</Time>
            <Position>
              <LatitudeDegrees>36.4886359870433807373046875</LatitudeDegrees>
              <LongitudeDegrees>-5.4051646403968334197998046875</LongitudeDegrees>
            </Position>
            <AltitudeMeters>58.59999847412109375</AltitudeMeters>
            <DistanceMeters>NAN</DistanceMeters>
          </Trackpoint>
          <Trackpoint>
            <Time>2019-01-04T11:38:39.000Z</Time>
            <Position>
              <LatitudeDegrees>36.4886224083602428436279296875</LatitudeDegrees>
              <LongitudeDegrees>-5.40516388602554798126220703125</LongitudeDegrees>
            </Position>
            <AltitudeMeters>58.799999237060546875</AltitudeMeters>
            <DistanceMeters>NAN</DistanceMeters>
          </Trackpoint>
          <Trackpoint>
            <Time>2019-01-04T11:38:40.000Z</Time>
            <Position>
              <LatitudeDegrees>36.48860874585807323455810546875</LatitudeDegrees>
              <LongitudeDegrees>-5.4051648080348968505859375</LongitudeDegrees>
            </Position>
            <AltitudeMeters>58.799999237060546875</AltitudeMeters>
            <DistanceMeters>NAN</DistanceMeters>
          </Trackpoint>
          <Trackpoint>
            <Time>2019-01-04T11:38:41.000Z</Time>
            <Position>
              <LatitudeDegrees>36.4885932393372058868408203125</LatitudeDegrees>
              <LongitudeDegrees>-5.405165143311023712158203125</LongitudeDegrees>
            </Position>
            <AltitudeMeters>58.799999237060546875</AltitudeMeters>
            <DistanceMeters>NAN</DistanceMeters>
          </Trackpoint>
          <Trackpoint>
            <Time>2019-01-04T11:38:42.000Z</Time>
            <Position>
              <LatitudeDegrees>36.4885768108069896697998046875</LatitudeDegrees>
              <LongitudeDegrees>-5.40516681969165802001953125</LongitudeDegrees>
            </Position>
            <AltitudeMeters>58.799999237060546875</AltitudeMeters>
            <DistanceMeters>NAN</DistanceMeters>
          </Trackpoint>
          <Trackpoint>
            <Time>2019-01-04T11:38:43.000Z</Time>
            <Position>
              <LatitudeDegrees>36.4885617233812808990478515625</LatitudeDegrees>
              <LongitudeDegrees>-5.4051683284342288970947265625</LongitudeDegrees>
            </Position>
            <AltitudeMeters>58.799999237060546875</AltitudeMeters>
            <DistanceMeters>NAN</DistanceMeters>
          </Trackpoint>
          <Trackpoint>
            <Time>2019-01-04T11:38:44.000Z</Time>
            <Position>
              <LatitudeDegrees>36.488547809422016143798828125</LatitudeDegrees>
              <LongitudeDegrees>-5.40517126210033893585205078125</LongitudeDegrees>
            </Position>
            <AltitudeMeters>58.59999847412109375</AltitudeMeters>
            <DistanceMeters>NAN</DistanceMeters>
          </Trackpoint>
          <Trackpoint>
            <Time>2019-01-04T11:38:45.000Z</Time>
            <Position>
              <LatitudeDegrees>36.4885328896343708038330078125</LatitudeDegrees>
              <LongitudeDegrees>-5.40517243556678295135498046875</LongitudeDegrees>
            </Position>
            <AltitudeMeters>58.59999847412109375</AltitudeMeters>
            <DistanceMeters>NAN</DistanceMeters>
          </Trackpoint>
          <Trackpoint>
            <Time>2019-01-04T11:38:46.000Z</Time>
            <Position>
              <LatitudeDegrees>36.48851738311350345611572265625</LatitudeDegrees>
              <LongitudeDegrees>-5.40517394430935382843017578125</LongitudeDegrees>
            </Position>
            <AltitudeMeters>58.59999847412109375</AltitudeMeters>
            <DistanceMeters>NAN</DistanceMeters>
          </Trackpoint>
          <Trackpoint>
            <Time>2019-01-04T11:38:47.000Z</Time>
            <Position>
              <LatitudeDegrees>36.48850263096392154693603515625</LatitudeDegrees>
              <LongitudeDegrees>-5.40517754852771759033203125</LongitudeDegrees>
            </Position>
            <AltitudeMeters>58.40000152587890625</AltitudeMeters>
            <DistanceMeters>NAN</DistanceMeters>
          </Trackpoint>
          <Trackpoint>
            <Time>2019-01-04T11:38:48.000Z</Time>
            <Position>
              <LatitudeDegrees>36.4884876273572444915771484375</LatitudeDegrees>
              <LongitudeDegrees>-5.405180566012859344482421875</LongitudeDegrees>
            </Position>
            <AltitudeMeters>58.200000762939453125</AltitudeMeters>
            <DistanceMeters>NAN</DistanceMeters>
          </Trackpoint>
          <Trackpoint>
            <Time>2019-01-04T11:38:49.000Z</Time>
            <Position>
              <LatitudeDegrees>36.4884745515882968902587890625</LatitudeDegrees>
              <LongitudeDegrees>-5.40518601424992084503173828125</LongitudeDegrees>
            </Position>
            <AltitudeMeters>58.200000762939453125</AltitudeMeters>
            <DistanceMeters>NAN</DistanceMeters>
          </Trackpoint>
          <Trackpoint>
            <Time>2019-01-04T11:38:50.000Z</Time>
            <Position>
              <LatitudeDegrees>36.48846021853387355804443359375</LatitudeDegrees>
              <LongitudeDegrees>-5.4051924683153629302978515625</LongitudeDegrees>
            </Position>
            <AltitudeMeters>58.200000762939453125</AltitudeMeters>
            <DistanceMeters>NAN</DistanceMeters>
          </Trackpoint>
          <Trackpoint>
            <Time>2019-01-04T11:38:51.000Z</Time>
            <Position>
              <LatitudeDegrees>36.488444544374942779541015625</LatitudeDegrees>
              <LongitudeDegrees>-5.40520009584724903106689453125</LongitudeDegrees>
            </Position>
            <AltitudeMeters>58.200000762939453125</AltitudeMeters>
            <DistanceMeters>NAN</DistanceMeters>
          </Trackpoint>
          <Trackpoint>
            <Time>2019-01-04T11:38:52.000Z</Time>
            <Position>
              <LatitudeDegrees>36.48842954076826572418212890625</LatitudeDegrees>
              <LongitudeDegrees>-5.40520747192203998565673828125</LongitudeDegrees>
            </Position>
            <AltitudeMeters>58.200000762939453125</AltitudeMeters>
            <DistanceMeters>NAN</DistanceMeters>
          </Trackpoint>
          <Trackpoint>
            <Time>2019-01-04T11:38:53.000Z</Time>
            <Position>
              <LatitudeDegrees>36.4884158782660961151123046875</LatitudeDegrees>
              <LongitudeDegrees>-5.40521644055843353271484375</LongitudeDegrees>
            </Position>
            <AltitudeMeters>58.200000762939453125</AltitudeMeters>
            <DistanceMeters>NAN</DistanceMeters>
          </Trackpoint>
          <Trackpoint>
            <Time>2019-01-04T11:38:54.000Z</Time>
            <Position>
              <LatitudeDegrees>36.48840037174522876739501953125</LatitudeDegrees>
              <LongitudeDegrees>-5.40522582828998565673828125</LongitudeDegrees>
            </Position>
            <AltitudeMeters>58.200000762939453125</AltitudeMeters>
            <DistanceMeters>NAN</DistanceMeters>
          </Trackpoint>
          <Trackpoint>
            <Time>2019-01-04T11:38:55.000Z</Time>
            <Position>
              <LatitudeDegrees>36.4883838593959808349609375</LatitudeDegrees>
              <LongitudeDegrees>-5.40523395873606204986572265625</LongitudeDegrees>
            </Position>
            <AltitudeMeters>58</AltitudeMeters>
            <DistanceMeters>NAN</DistanceMeters>
          </Trackpoint>
          <Trackpoint>
            <Time>2019-01-04T11:38:56.000Z</Time>
            <Position>
              <LatitudeDegrees>36.48836734704673290252685546875</LatitudeDegrees>
              <LongitudeDegrees>-5.405242256820201873779296875</LongitudeDegrees>
            </Position>
            <AltitudeMeters>58</AltitudeMeters>
            <DistanceMeters>NAN</DistanceMeters>
          </Trackpoint>
          <Trackpoint>
            <Time>2019-01-04T11:38:57.000Z</Time>
            <Position>
              <LatitudeDegrees>36.4883515052497386932373046875</LatitudeDegrees>
              <LongitudeDegrees>-5.40525139309465885162353515625</LongitudeDegrees>
            </Position>
            <AltitudeMeters>58</AltitudeMeters>
            <DistanceMeters>NAN</DistanceMeters>
          </Trackpoint>
          <Trackpoint>
            <Time>2019-01-04T11:38:58.000Z</Time>
            <Position>
              <LatitudeDegrees>36.48833356797695159912109375</LatitudeDegrees>
              <LongitudeDegrees>-5.40525726042687892913818359375</LongitudeDegrees>
            </Position>
            <AltitudeMeters>58</AltitudeMeters>
            <DistanceMeters>NAN</DistanceMeters>
          </Trackpoint>
          <Trackpoint>
            <Time>2019-01-04T11:38:59.000Z</Time>
            <Position>
              <LatitudeDegrees>36.48831839673221111297607421875</LatitudeDegrees>
              <LongitudeDegrees>-5.4052645526826381683349609375</LongitudeDegrees>
            </Position>
            <AltitudeMeters>58</AltitudeMeters>
            <DistanceMeters>NAN</DistanceMeters>
          </Trackpoint>
          <Trackpoint>
            <Time>2019-01-04T11:39:00.000Z</Time>
            <Position>
              <LatitudeDegrees>36.4883052371442317962646484375</LatitudeDegrees>
              <LongitudeDegrees>-5.4052729345858097076416015625</LongitudeDegrees>
            </Position>
            <AltitudeMeters>58.200000762939453125</AltitudeMeters>
            <DistanceMeters>NAN</DistanceMeters>
          </Trackpoint>
          <Trackpoint>
            <Time>2019-01-04T11:39:01.000Z</Time>
            <Position>
              <LatitudeDegrees>36.48829190991818904876708984375</LatitudeDegrees>
              <LongitudeDegrees>-5.4052813164889812469482421875</LongitudeDegrees>
            </Position>
            <AltitudeMeters>58.200000762939453125</AltitudeMeters>
            <DistanceMeters>NAN</DistanceMeters>
          </Trackpoint>
          <Trackpoint>
            <Time>2019-01-04T11:39:02.000Z</Time>
            <Position>
              <LatitudeDegrees>36.4882792532444000244140625</LatitudeDegrees>
              <LongitudeDegrees>-5.40529154241085052490234375</LongitudeDegrees>
            </Position>
            <AltitudeMeters>58.40000152587890625</AltitudeMeters>
            <DistanceMeters>NAN</DistanceMeters>
          </Trackpoint>
          <Trackpoint>
            <Time>2019-01-04T11:39:03.000Z</Time>
            <Position>
              <LatitudeDegrees>36.4882643334567546844482421875</LatitudeDegrees>
              <LongitudeDegrees>-5.40530168451368808746337890625</LongitudeDegrees>
            </Position>
            <AltitudeMeters>58.40000152587890625</AltitudeMeters>
            <DistanceMeters>NAN</DistanceMeters>
          </Trackpoint>
          <Trackpoint>
            <Time>2019-01-04T11:39:04.000Z</Time>
            <Position>
              <LatitudeDegrees>36.48824882693588733673095703125</LatitudeDegrees>
              <LongitudeDegrees>-5.4053101502358913421630859375</LongitudeDegrees>
            </Position>
            <AltitudeMeters>58.59999847412109375</AltitudeMeters>
            <DistanceMeters>NAN</DistanceMeters>
          </Trackpoint>
          <Trackpoint>
            <Time>2019-01-04T11:39:05.000Z</Time>
            <Position>
              <LatitudeDegrees>36.4882341586053371429443359375</LatitudeDegrees>
              <LongitudeDegrees>-5.40531626902520656585693359375</LongitudeDegrees>
            </Position>
            <AltitudeMeters>58.59999847412109375</AltitudeMeters>
            <DistanceMeters>NAN</DistanceMeters>
          </Trackpoint>
          <Trackpoint>
            <Time>2019-01-04T11:39:06.000Z</Time>
            <Position>
              <LatitudeDegrees>36.4882210828363895416259765625</LatitudeDegrees>
              <LongitudeDegrees>-5.4053232260048389434814453125</LongitudeDegrees>
            </Position>
            <AltitudeMeters>58.59999847412109375</AltitudeMeters>
            <DistanceMeters>NAN</DistanceMeters>
          </Trackpoint>
          <Trackpoint>
            <Time>2019-01-04T11:39:07.000Z</Time>
            <Position>
              <LatitudeDegrees>36.488207839429378509521484375</LatitudeDegrees>
              <LongitudeDegrees>-5.40532917715609073638916015625</LongitudeDegrees>
            </Position>
            <AltitudeMeters>58.59999847412109375</AltitudeMeters>
            <DistanceMeters>NAN</DistanceMeters>
          </Trackpoint>
          <Trackpoint>
            <Time>2019-01-04T11:39:08.000Z</Time>
            <Position>
              <LatitudeDegrees>36.48819551803171634674072265625</LatitudeDegrees>
              <LongitudeDegrees>-5.40533537976443767547607421875</LongitudeDegrees>
            </Position>
            <AltitudeMeters>58.59999847412109375</AltitudeMeters>
            <DistanceMeters>NAN</DistanceMeters>
          </Trackpoint>
          <Trackpoint>
            <Time>2019-01-04T11:39:09.000Z</Time>
            <Position>
              <LatitudeDegrees>36.4881848730146884918212890625</LatitudeDegrees>
              <LongitudeDegrees>-5.4053453542292118072509765625</LongitudeDegrees>
            </Position>
            <AltitudeMeters>58.59999847412109375</AltitudeMeters>
            <DistanceMeters>NAN</DistanceMeters>
          </Trackpoint>
          <Trackpoint>
            <Time>2019-01-04T11:39:10.000Z</Time>
            <Position>
              <LatitudeDegrees>36.48817171342670917510986328125</LatitudeDegrees>
              <LongitudeDegrees>-5.40535432286560535430908203125</LongitudeDegrees>
            </Position>
            <AltitudeMeters>58.59999847412109375</AltitudeMeters>
            <DistanceMeters>NAN</DistanceMeters>
          </Trackpoint>
          <Trackpoint>
            <Time>2019-01-04T11:39:11.000Z</Time>
            <Position>
              <LatitudeDegrees>36.48815629072487354278564453125</LatitudeDegrees>
              <LongitudeDegrees>-5.40536304004490375518798828125</LongitudeDegrees>
            </Position>
            <AltitudeMeters>58.40000152587890625</AltitudeMeters>
            <DistanceMeters>NAN</DistanceMeters>
          </Trackpoint>
          <Trackpoint>
            <Time>2019-01-04T11:39:12.000Z</Time>
            <Position>
              <LatitudeDegrees>36.4881419576704502105712890625</LatitudeDegrees>
              <LongitudeDegrees>-5.405370332300662994384765625</LongitudeDegrees>
            </Position>
            <AltitudeMeters>58.40000152587890625</AltitudeMeters>
            <DistanceMeters>NAN</DistanceMeters>
          </Trackpoint>
          <Trackpoint>
            <Time>2019-01-04T11:39:13.000Z</Time>
            <Position>
              <LatitudeDegrees>36.488127373158931732177734375</LatitudeDegrees>
              <LongitudeDegrees>-5.40537779219448566436767578125</LongitudeDegrees>
            </Position>
            <AltitudeMeters>58.40000152587890625</AltitudeMeters>
            <DistanceMeters>NAN</DistanceMeters>
          </Trackpoint>
          <Trackpoint>
            <Time>2019-01-04T11:39:14.000Z</Time>
            <Position>
              <LatitudeDegrees>36.4881134591996669769287109375</LatitudeDegrees>
              <LongitudeDegrees>-5.40538550354540348052978515625</LongitudeDegrees>
            </Position>
            <AltitudeMeters>58.40000152587890625</AltitudeMeters>
            <DistanceMeters>NAN</DistanceMeters>
          </Trackpoint>
          <Trackpoint>
            <Time>2019-01-04T11:39:15.000Z</Time>
            <Position>
              <LatitudeDegrees>36.4880997128784656524658203125</LatitudeDegrees>
              <LongitudeDegrees>-5.40539338253438472747802734375</LongitudeDegrees>
            </Position>
            <AltitudeMeters>58.40000152587890625</AltitudeMeters>
            <DistanceMeters>NAN</DistanceMeters>
          </Trackpoint>
          <Trackpoint>
            <Time>2019-01-04T11:39:16.000Z</Time>
            <Position>
              <LatitudeDegrees>36.48808504454791545867919921875</LatitudeDegrees>
              <LongitudeDegrees>-5.40539958514273166656494140625</LongitudeDegrees>
            </Position>
            <AltitudeMeters>58.40000152587890625</AltitudeMeters>
            <DistanceMeters>NAN</DistanceMeters>
          </Trackpoint>
          <Trackpoint>
            <Time>2019-01-04T11:39:17.000Z</Time>
            <Position>
              <LatitudeDegrees>36.488071046769618988037109375</LatitudeDegrees>
              <LongitudeDegrees>-5.40540545247495174407958984375</LongitudeDegrees>
            </Position>
            <AltitudeMeters>58.40000152587890625</AltitudeMeters>
            <DistanceMeters>NAN</DistanceMeters>
          </Trackpoint>
          <Trackpoint>
            <Time>2019-01-04T11:39:18.000Z</Time>
            <Position>
              <LatitudeDegrees>36.4880581386387348175048828125</LatitudeDegrees>
              <LongitudeDegrees>-5.40541165508329868316650390625</LongitudeDegrees>
            </Position>
            <AltitudeMeters>58.40000152587890625</AltitudeMeters>
            <DistanceMeters>NAN</DistanceMeters>
          </Trackpoint>
          <Trackpoint>
            <Time>2019-01-04T11:39:19.000Z</Time>
            <Position>
              <LatitudeDegrees>36.48804380558431148529052734375</LatitudeDegrees>
              <LongitudeDegrees>-5.4054184444248676300048828125</LongitudeDegrees>
            </Position>
            <AltitudeMeters>58.40000152587890625</AltitudeMeters>
            <DistanceMeters>NAN</DistanceMeters>
          </Trackpoint>
          <Trackpoint>
            <Time>2019-01-04T11:39:20.000Z</Time>
            <Position>
              <LatitudeDegrees>36.48802913725376129150390625</LatitudeDegrees>
              <LongitudeDegrees>-5.40542255155742168426513671875</LongitudeDegrees>
            </Position>
            <AltitudeMeters>58.40000152587890625</AltitudeMeters>
            <DistanceMeters>NAN</DistanceMeters>
          </Trackpoint>
          <Trackpoint>
            <Time>2019-01-04T11:39:21.000Z</Time>
            <Position>
              <LatitudeDegrees>36.48801446892321109771728515625</LatitudeDegrees>
              <LongitudeDegrees>-5.40542556904256343841552734375</LongitudeDegrees>
            </Position>
            <AltitudeMeters>58.40000152587890625</AltitudeMeters>
            <DistanceMeters>NAN</DistanceMeters>
          </Trackpoint>
          <Trackpoint>
            <Time>2019-01-04T11:39:22.000Z</Time>
            <Position>
              <LatitudeDegrees>36.4880004711449146270751953125</LatitudeDegrees>
              <LongitudeDegrees>-5.4054308496415615081787109375</LongitudeDegrees>
            </Position>
            <AltitudeMeters>58.40000152587890625</AltitudeMeters>
            <DistanceMeters>NAN</DistanceMeters>
          </Trackpoint>
          <Trackpoint>
            <Time>2019-01-04T11:39:23.000Z</Time>
            <Position>
              <LatitudeDegrees>36.4879860542714595794677734375</LatitudeDegrees>
              <LongitudeDegrees>-5.4054375551640987396240234375</LongitudeDegrees>
            </Position>
            <AltitudeMeters>58.59999847412109375</AltitudeMeters>
            <DistanceMeters>NAN</DistanceMeters>
          </Trackpoint>
          <Trackpoint>
            <Time>2019-01-04T11:39:24.000Z</Time>
            <Position>
              <LatitudeDegrees>36.4879699610173702239990234375</LatitudeDegrees>
              <LongitudeDegrees>-5.4054456017911434173583984375</LongitudeDegrees>
            </Position>
            <AltitudeMeters>58.799999237060546875</AltitudeMeters>
            <DistanceMeters>NAN</DistanceMeters>
          </Trackpoint>
          <Trackpoint>
            <Time>2019-01-04T11:39:25.000Z</Time>
            <Position>
              <LatitudeDegrees>36.487953029572963714599609375</LatitudeDegrees>
              <LongitudeDegrees>-5.40545381605625152587890625</LongitudeDegrees>
            </Position>
            <AltitudeMeters>58.799999237060546875</AltitudeMeters>
            <DistanceMeters>NAN</DistanceMeters>
          </Trackpoint>
          <Trackpoint>
            <Time>2019-01-04T11:39:26.000Z</Time>
            <Position>
              <LatitudeDegrees>36.48793551139533519744873046875</LatitudeDegrees>
              <LongitudeDegrees>-5.4054583422839641571044921875</LongitudeDegrees>
            </Position>
            <AltitudeMeters>58.799999237060546875</AltitudeMeters>
            <DistanceMeters>NAN</DistanceMeters>
          </Trackpoint>
          <Trackpoint>
            <Time>2019-01-04T11:39:27.000Z</Time>
            <Position>
              <LatitudeDegrees>36.48791841231286525726318359375</LatitudeDegrees>
              <LongitudeDegrees>-5.40545842610299587249755859375</LongitudeDegrees>
            </Position>
            <AltitudeMeters>58.799999237060546875</AltitudeMeters>
            <DistanceMeters>NAN</DistanceMeters>
          </Trackpoint>
          <Trackpoint>
            <Time>2019-01-04T11:39:28.000Z</Time>
            <Position>
              <LatitudeDegrees>36.487902738153934478759765625</LatitudeDegrees>
              <LongitudeDegrees>-5.40546479634940624237060546875</LongitudeDegrees>
            </Position>
            <AltitudeMeters>58.799999237060546875</AltitudeMeters>
            <DistanceMeters>NAN</DistanceMeters>
          </Trackpoint>
          <Trackpoint>
            <Time>2019-01-04T11:39:29.000Z</Time>
            <Position>
              <LatitudeDegrees>36.48788941092789173126220703125</LatitudeDegrees>
              <LongitudeDegrees>-5.40546990931034088134765625</LongitudeDegrees>
            </Position>
            <AltitudeMeters>58.59999847412109375</AltitudeMeters>
            <DistanceMeters>NAN</DistanceMeters>
          </Trackpoint>
          <Trackpoint>
            <Time>2019-01-04T11:39:30.000Z</Time>
            <Position>
              <LatitudeDegrees>36.48787558078765869140625</LatitudeDegrees>
              <LongitudeDegrees>-5.40547736920416355133056640625</LongitudeDegrees>
            </Position>
            <AltitudeMeters>58.59999847412109375</AltitudeMeters>
            <DistanceMeters>NAN</DistanceMeters>
          </Trackpoint>
          <Trackpoint>
            <Time>2019-01-04T11:39:31.000Z</Time>
            <Position>
              <LatitudeDegrees>36.48785990662872791290283203125</LatitudeDegrees>
              <LongitudeDegrees>-5.40548390708863735198974609375</LongitudeDegrees>
            </Position>
            <AltitudeMeters>58.40000152587890625</AltitudeMeters>
            <DistanceMeters>NAN</DistanceMeters>
          </Trackpoint>
          <Trackpoint>
            <Time>2019-01-04T11:39:32.000Z</Time>
            <Position>
              <LatitudeDegrees>36.4878472499549388885498046875</LatitudeDegrees>
              <LongitudeDegrees>-5.40549245662987232208251953125</LongitudeDegrees>
            </Position>
            <AltitudeMeters>58.40000152587890625</AltitudeMeters>
            <DistanceMeters>NAN</DistanceMeters>
          </Trackpoint>
          <Trackpoint>
            <Time>2019-01-04T11:39:33.000Z</Time>
            <Position>
              <LatitudeDegrees>36.48783601820468902587890625</LatitudeDegrees>
              <LongitudeDegrees>-5.40549949742853641510009765625</LongitudeDegrees>
            </Position>
            <AltitudeMeters>58.59999847412109375</AltitudeMeters>
            <DistanceMeters>NAN</DistanceMeters>
          </Trackpoint>
          <Trackpoint>
            <Time>2019-01-04T11:39:34.000Z</Time>
            <Position>
              <LatitudeDegrees>36.48782168515026569366455078125</LatitudeDegrees>
              <LongitudeDegrees>-5.40550611913204193115234375</LongitudeDegrees>
            </Position>
            <AltitudeMeters>58.59999847412109375</AltitudeMeters>
            <DistanceMeters>NAN</DistanceMeters>
          </Trackpoint>
          <Trackpoint>
            <Time>2019-01-04T11:39:35.000Z</Time>
            <Position>
              <LatitudeDegrees>36.48780911229550838470458984375</LatitudeDegrees>
              <LongitudeDegrees>-5.4055139981210231781005859375</LongitudeDegrees>
            </Position>
            <AltitudeMeters>58.59999847412109375</AltitudeMeters>
            <DistanceMeters>NAN</DistanceMeters>
          </Trackpoint>
          <Trackpoint>
            <Time>2019-01-04T11:39:36.000Z</Time>
            <Position>
              <LatitudeDegrees>36.48779821582138538360595703125</LatitudeDegrees>
              <LongitudeDegrees>-5.405521877110004425048828125</LongitudeDegrees>
            </Position>
            <AltitudeMeters>58.59999847412109375</AltitudeMeters>
            <DistanceMeters>NAN</DistanceMeters>
          </Trackpoint>
          <Trackpoint>
            <Time>2019-01-04T11:39:37.000Z</Time>
            <Position>
              <LatitudeDegrees>36.487784050405025482177734375</LatitudeDegrees>
              <LongitudeDegrees>-5.4055295884609222412109375</LongitudeDegrees>
            </Position>
            <AltitudeMeters>58.59999847412109375</AltitudeMeters>
            <DistanceMeters>NAN</DistanceMeters>
          </Trackpoint>
          <Trackpoint>
            <Time>2019-01-04T11:39:38.000Z</Time>
            <Position>
              <LatitudeDegrees>36.48776762187480926513671875</LatitudeDegrees>
              <LongitudeDegrees>-5.40553771890699863433837890625</LongitudeDegrees>
            </Position>
            <AltitudeMeters>58.59999847412109375</AltitudeMeters>
            <DistanceMeters>NAN</DistanceMeters>
          </Trackpoint>
          <Trackpoint>
            <Time>2019-01-04T11:39:39.000Z</Time>
            <Position>
              <LatitudeDegrees>36.48775286972522735595703125</LatitudeDegrees>
              <LongitudeDegrees>-5.4055441729724407196044921875</LongitudeDegrees>
            </Position>
            <AltitudeMeters>58.40000152587890625</AltitudeMeters>
            <DistanceMeters>NAN</DistanceMeters>
          </Trackpoint>
          <Trackpoint>
            <Time>2019-01-04T11:39:40.000Z</Time>
            <Position>
              <LatitudeDegrees>36.4877366088330745697021484375</LatitudeDegrees>
              <LongitudeDegrees>-5.4055522195994853973388671875</LongitudeDegrees>
            </Position>
            <AltitudeMeters>58.40000152587890625</AltitudeMeters>
            <DistanceMeters>NAN</DistanceMeters>
          </Trackpoint>
          <Trackpoint>
            <Time>2019-01-04T11:39:41.000Z</Time>
            <Position>
              <LatitudeDegrees>36.48772344924509525299072265625</LatitudeDegrees>
              <LongitudeDegrees>-5.40556252934038639068603515625</LongitudeDegrees>
            </Position>
            <AltitudeMeters>58.40000152587890625</AltitudeMeters>
            <DistanceMeters>NAN</DistanceMeters>
          </Trackpoint>
          <Trackpoint>
            <Time>2019-01-04T11:39:42.000Z</Time>
            <Position>
              <LatitudeDegrees>36.4877084456384181976318359375</LatitudeDegrees>
              <LongitudeDegrees>-5.405570156872272491455078125</LongitudeDegrees>
            </Position>
            <AltitudeMeters>58.40000152587890625</AltitudeMeters>
            <DistanceMeters>NAN</DistanceMeters>
          </Trackpoint>
          <Trackpoint>
            <Time>2019-01-04T11:39:43.000Z</Time>
            <Position>
              <LatitudeDegrees>36.487695872783660888671875</LatitudeDegrees>
              <LongitudeDegrees>-5.40557929314672946929931640625</LongitudeDegrees>
            </Position>
            <AltitudeMeters>58.40000152587890625</AltitudeMeters>
            <DistanceMeters>NAN</DistanceMeters>
          </Trackpoint>
          <Trackpoint>
            <Time>2019-01-04T11:39:44.000Z</Time>
            <Position>
              <LatitudeDegrees>36.48768313229084014892578125</LatitudeDegrees>
              <LongitudeDegrees>-5.40558817796409130096435546875</LongitudeDegrees>
            </Position>
            <AltitudeMeters>58.40000152587890625</AltitudeMeters>
            <DistanceMeters>NAN</DistanceMeters>
          </Trackpoint>
          <Trackpoint>
            <Time>2019-01-04T11:39:45.000Z</Time>
            <Position>
              <LatitudeDegrees>36.48767173290252685546875</LatitudeDegrees>
              <LongitudeDegrees>-5.4055961407721042633056640625</LongitudeDegrees>
            </Position>
            <AltitudeMeters>58.40000152587890625</AltitudeMeters>
            <DistanceMeters>NAN</DistanceMeters>
          </Trackpoint>
          <Trackpoint>
            <Time>2019-01-04T11:39:46.000Z</Time>
            <Position>
              <LatitudeDegrees>36.4876618422567844390869140625</LatitudeDegrees>
              <LongitudeDegrees>-5.405605025589466094970703125</LongitudeDegrees>
            </Position>
            <AltitudeMeters>58.59999847412109375</AltitudeMeters>
            <DistanceMeters>NAN</DistanceMeters>
          </Trackpoint>
          <Trackpoint>
            <Time>2019-01-04T11:39:47.000Z</Time>
            <Position>
              <LatitudeDegrees>36.48764935322105884552001953125</LatitudeDegrees>
              <LongitudeDegrees>-5.40560728870332241058349609375</LongitudeDegrees>
            </Position>
            <AltitudeMeters>58.59999847412109375</AltitudeMeters>
            <DistanceMeters>NAN</DistanceMeters>
          </Trackpoint>
          <Trackpoint>
            <Time>2019-01-04T11:39:48.000Z</Time>
            <Position>
              <LatitudeDegrees>36.4876383729279041290283203125</LatitudeDegrees>
              <LongitudeDegrees>-5.40561432950198650360107421875</LongitudeDegrees>
            </Position>
            <AltitudeMeters>58.59999847412109375</AltitudeMeters>
            <DistanceMeters>NAN</DistanceMeters>
          </Trackpoint>
          <Trackpoint>
            <Time>2019-01-04T11:39:49.000Z</Time>
            <Position>
              <LatitudeDegrees>36.48762973956763744354248046875</LatitudeDegrees>
              <LongitudeDegrees>-5.4056219570338726043701171875</LongitudeDegrees>
            </Position>
            <AltitudeMeters>58.799999237060546875</AltitudeMeters>
            <DistanceMeters>NAN</DistanceMeters>
          </Trackpoint>
          <Trackpoint>
            <Time>2019-01-04T11:39:50.000Z</Time>
            <Position>
              <LatitudeDegrees>36.48761699907481670379638671875</LatitudeDegrees>
              <LongitudeDegrees>-5.40562924928963184356689453125</LongitudeDegrees>
            </Position>
            <AltitudeMeters>58.799999237060546875</AltitudeMeters>
            <DistanceMeters>NAN</DistanceMeters>
          </Trackpoint>
          <Trackpoint>
            <Time>2019-01-04T11:39:51.000Z</Time>
            <Position>
              <LatitudeDegrees>36.48760140873491764068603515625</LatitudeDegrees>
              <LongitudeDegrees>-5.40563092567026615142822265625</LongitudeDegrees>
            </Position>
            <AltitudeMeters>58.799999237060546875</AltitudeMeters>
            <DistanceMeters>NAN</DistanceMeters>
          </Trackpoint>
          <Trackpoint>
            <Time>2019-01-04T11:39:52.000Z</Time>
            <Position>
              <LatitudeDegrees>36.4875850640237331390380859375</LatitudeDegrees>
              <LongitudeDegrees>-5.40563888847827911376953125</LongitudeDegrees>
            </Position>
            <AltitudeMeters>59</AltitudeMeters>
            <DistanceMeters>NAN</DistanceMeters>
          </Trackpoint>
          <Trackpoint>
            <Time>2019-01-04T11:39:53.000Z</Time>
            <Position>
              <LatitudeDegrees>36.4875709824264049530029296875</LatitudeDegrees>
              <LongitudeDegrees>-5.40564651601016521453857421875</LongitudeDegrees>
            </Position>
            <AltitudeMeters>59</AltitudeMeters>
            <DistanceMeters>NAN</DistanceMeters>
          </Trackpoint>
          <Trackpoint>
            <Time>2019-01-04T11:39:54.000Z</Time>
            <Position>
              <LatitudeDegrees>36.487555392086505889892578125</LatitudeDegrees>
              <LongitudeDegrees>-5.40565372444689273834228515625</LongitudeDegrees>
            </Position>
            <AltitudeMeters>59.200000762939453125</AltitudeMeters>
            <DistanceMeters>NAN</DistanceMeters>
          </Trackpoint>
          <Trackpoint>
            <Time>2019-01-04T11:39:55.000Z</Time>
            <Position>
              <LatitudeDegrees>36.48753854446113109588623046875</LatitudeDegrees>
              <LongitudeDegrees>-5.40566193871200084686279296875</LongitudeDegrees>
            </Position>
            <AltitudeMeters>59.40000152587890625</AltitudeMeters>
            <DistanceMeters>NAN</DistanceMeters>
          </Trackpoint>
          <Trackpoint>
            <Time>2019-01-04T11:39:56.000Z</Time>
            <Position>
              <LatitudeDegrees>36.48752580396831035614013671875</LatitudeDegrees>
              <LongitudeDegrees>-5.40566680021584033966064453125</LongitudeDegrees>
            </Position>
            <AltitudeMeters>59.40000152587890625</AltitudeMeters>
            <DistanceMeters>NAN</DistanceMeters>
          </Trackpoint>
          <Trackpoint>
            <Time>2019-01-04T11:39:57.000Z</Time>
            <Position>
              <LatitudeDegrees>36.48751256056129932403564453125</LatitudeDegrees>
              <LongitudeDegrees>-5.40567048825323581695556640625</LongitudeDegrees>
            </Position>
            <AltitudeMeters>59.40000152587890625</AltitudeMeters>
            <DistanceMeters>NAN</DistanceMeters>
          </Trackpoint>
          <Trackpoint>
            <Time>2019-01-04T11:39:58.000Z</Time>
            <Position>
              <LatitudeDegrees>36.4874987304210662841796875</LatitudeDegrees>
              <LongitudeDegrees>-5.40567576885223388671875</LongitudeDegrees>
            </Position>
            <AltitudeMeters>59.59999847412109375</AltitudeMeters>
            <DistanceMeters>NAN</DistanceMeters>
          </Trackpoint>
          <Trackpoint>
            <Time>2019-01-04T11:39:59.000Z</Time>
            <Position>
              <LatitudeDegrees>36.4874834753572940826416015625</LatitudeDegrees>
              <LongitudeDegrees>-5.405680127441883087158203125</LongitudeDegrees>
            </Position>
            <AltitudeMeters>59.799999237060546875</AltitudeMeters>
            <DistanceMeters>NAN</DistanceMeters>
          </Trackpoint>
          <Trackpoint>
            <Time>2019-01-04T11:40:00.000Z</Time>
            <Position>
              <LatitudeDegrees>36.487470567226409912109375</LatitudeDegrees>
              <LongitudeDegrees>-5.405684821307659149169921875</LongitudeDegrees>
            </Position>
            <AltitudeMeters>59.799999237060546875</AltitudeMeters>
            <DistanceMeters>NAN</DistanceMeters>
          </Trackpoint>
          <Trackpoint>
            <Time>2019-01-04T11:40:01.000Z</Time>
            <Position>
              <LatitudeDegrees>36.4874558150768280029296875</LatitudeDegrees>
              <LongitudeDegrees>-5.4056896828114986419677734375</LongitudeDegrees>
            </Position>
            <AltitudeMeters>60</AltitudeMeters>
            <DistanceMeters>NAN</DistanceMeters>
          </Trackpoint>
          <Trackpoint>
            <Time>2019-01-04T11:40:02.000Z</Time>
            <Position>
              <LatitudeDegrees>36.4874412305653095245361328125</LatitudeDegrees>
              <LongitudeDegrees>-5.4056932032108306884765625</LongitudeDegrees>
            </Position>
            <AltitudeMeters>60</AltitudeMeters>
            <DistanceMeters>NAN</DistanceMeters>
          </Trackpoint>
          <Trackpoint>
            <Time>2019-01-04T11:40:03.000Z</Time>
            <Position>
              <LatitudeDegrees>36.4874294959008693695068359375</LatitudeDegrees>
              <LongitudeDegrees>-5.4056967236101627349853515625</LongitudeDegrees>
            </Position>
            <AltitudeMeters>60</AltitudeMeters>
            <DistanceMeters>NAN</DistanceMeters>
          </Trackpoint>
          <Trackpoint>
            <Time>2019-01-04T11:40:04.000Z</Time>
            <Position>
              <LatitudeDegrees>36.4874180965125560760498046875</LatitudeDegrees>
              <LongitudeDegrees>-5.40569462813436985015869140625</LongitudeDegrees>
            </Position>
            <AltitudeMeters>60</AltitudeMeters>
            <DistanceMeters>NAN</DistanceMeters>
          </Trackpoint>
          <Trackpoint>
            <Time>2019-01-04T11:40:05.000Z</Time>
            <Position>
              <LatitudeDegrees>36.487407870590686798095703125</LatitudeDegrees>
              <LongitudeDegrees>-5.4056933708488941192626953125</LongitudeDegrees>
            </Position>
            <AltitudeMeters>60.200000762939453125</AltitudeMeters>
            <DistanceMeters>NAN</DistanceMeters>
          </Trackpoint>
          <Trackpoint>
            <Time>2019-01-04T11:40:06.000Z</Time>
            <Position>
              <LatitudeDegrees>36.48739756084978580474853515625</LatitudeDegrees>
              <LongitudeDegrees>-5.40569446049630641937255859375</LongitudeDegrees>
            </Position>
            <AltitudeMeters>60.200000762939453125</AltitudeMeters>
            <DistanceMeters>NAN</DistanceMeters>
          </Trackpoint>
          <Trackpoint>
            <Time>2019-01-04T11:40:07.000Z</Time>
            <Position>
              <LatitudeDegrees>36.48738884367048740386962890625</LatitudeDegrees>
              <LongitudeDegrees>-5.4056950472295284271240234375</LongitudeDegrees>
            </Position>
            <AltitudeMeters>60.40000152587890625</AltitudeMeters>
            <DistanceMeters>NAN</DistanceMeters>
          </Trackpoint>
          <Trackpoint>
            <Time>2019-01-04T11:40:08.000Z</Time>
            <Position>
              <LatitudeDegrees>36.48737845011055469512939453125</LatitudeDegrees>
              <LongitudeDegrees>-5.405694879591464996337890625</LongitudeDegrees>
            </Position>
            <AltitudeMeters>60.40000152587890625</AltitudeMeters>
            <DistanceMeters>NAN</DistanceMeters>
          </Trackpoint>
          <Trackpoint>
            <Time>2019-01-04T11:40:09.000Z</Time>
            <Position>
              <LatitudeDegrees>36.4873621053993701934814453125</LatitudeDegrees>
              <LongitudeDegrees>-5.40568825788795948028564453125</LongitudeDegrees>
            </Position>
            <AltitudeMeters>60.40000152587890625</AltitudeMeters>
            <DistanceMeters>NAN</DistanceMeters>
          </Trackpoint>
          <Trackpoint>
            <Time>2019-01-04T11:40:10.000Z</Time>
            <Position>
              <LatitudeDegrees>36.48735322058200836181640625</LatitudeDegrees>
              <LongitudeDegrees>-5.405684821307659149169921875</LongitudeDegrees>
            </Position>
            <AltitudeMeters>60.40000152587890625</AltitudeMeters>
            <DistanceMeters>NAN</DistanceMeters>
          </Trackpoint>
          <Trackpoint>
            <Time>2019-01-04T11:40:11.000Z</Time>
            <Position>
              <LatitudeDegrees>36.4873446710407733917236328125</LatitudeDegrees>
              <LongitudeDegrees>-5.405684150755405426025390625</LongitudeDegrees>
            </Position>
            <AltitudeMeters>60.40000152587890625</AltitudeMeters>
            <DistanceMeters>NAN</DistanceMeters>
          </Trackpoint>
          <Trackpoint>
            <Time>2019-01-04T11:40:12.000Z</Time>
            <Position>
              <LatitudeDegrees>36.4873336069285869598388671875</LatitudeDegrees>
              <LongitudeDegrees>-5.40568473748862743377685546875</LongitudeDegrees>
            </Position>
            <AltitudeMeters>60.40000152587890625</AltitudeMeters>
            <DistanceMeters>NAN</DistanceMeters>
          </Trackpoint>
          <Trackpoint>
            <Time>2019-01-04T11:40:13.000Z</Time>
            <Position>
              <LatitudeDegrees>36.4873205311596393585205078125</LatitudeDegrees>
              <LongitudeDegrees>-5.4056856594979763031005859375</LongitudeDegrees>
            </Position>
            <AltitudeMeters>60.40000152587890625</AltitudeMeters>
            <DistanceMeters>NAN</DistanceMeters>
          </Trackpoint>
          <Trackpoint>
            <Time>2019-01-04T11:40:14.000Z</Time>
            <Position>
              <LatitudeDegrees>36.487309299409389495849609375</LatitudeDegrees>
              <LongitudeDegrees>-5.40568557567894458770751953125</LongitudeDegrees>
            </Position>
            <AltitudeMeters>60.40000152587890625</AltitudeMeters>
            <DistanceMeters>NAN</DistanceMeters>
          </Trackpoint>
          <Trackpoint>
            <Time>2019-01-04T11:40:15.000Z</Time>
            <Position>
              <LatitudeDegrees>36.48729194886982440948486328125</LatitudeDegrees>
              <LongitudeDegrees>-5.40568850934505462646484375</LongitudeDegrees>
            </Position>
            <AltitudeMeters>60.40000152587890625</AltitudeMeters>
            <DistanceMeters>NAN</DistanceMeters>
          </Trackpoint>
          <Trackpoint>
            <Time>2019-01-04T11:40:16.000Z</Time>
            <Position>
              <LatitudeDegrees>36.48727409541606903076171875</LatitudeDegrees>
              <LongitudeDegrees>-5.40569119155406951904296875</LongitudeDegrees>
            </Position>
            <AltitudeMeters>60.59999847412109375</AltitudeMeters>
            <DistanceMeters>NAN</DistanceMeters>
          </Trackpoint>
          <Trackpoint>
            <Time>2019-01-04T11:40:17.000Z</Time>
            <Position>
              <LatitudeDegrees>36.48725925944745540618896484375</LatitudeDegrees>
              <LongitudeDegrees>-5.40569043718278408050537109375</LongitudeDegrees>
            </Position>
            <AltitudeMeters>60.59999847412109375</AltitudeMeters>
            <DistanceMeters>NAN</DistanceMeters>
          </Trackpoint>
          <Trackpoint>
            <Time>2019-01-04T11:40:18.000Z</Time>
            <Position>
              <LatitudeDegrees>36.4872363768517971038818359375</LatitudeDegrees>
              <LongitudeDegrees>-5.40567987598478794097900390625</LongitudeDegrees>
            </Position>
            <AltitudeMeters>60.59999847412109375</AltitudeMeters>
            <DistanceMeters>NAN</DistanceMeters>
          </Trackpoint>
          <Trackpoint>
            <Time>2019-01-04T11:40:19.000Z</Time>
            <Position>
              <LatitudeDegrees>36.48722313344478607177734375</LatitudeDegrees>
              <LongitudeDegrees>-5.4056779481470584869384765625</LongitudeDegrees>
            </Position>
            <AltitudeMeters>60.799999237060546875</AltitudeMeters>
            <DistanceMeters>NAN</DistanceMeters>
          </Trackpoint>
          <Trackpoint>
            <Time>2019-01-04T11:40:20.000Z</Time>
            <Position>
              <LatitudeDegrees>36.487212069332599639892578125</LatitudeDegrees>
              <LongitudeDegrees>-5.40567769668996334075927734375</LongitudeDegrees>
            </Position>
            <AltitudeMeters>60.799999237060546875</AltitudeMeters>
            <DistanceMeters>NAN</DistanceMeters>
          </Trackpoint>
          <Trackpoint>
            <Time>2019-01-04T11:40:21.000Z</Time>
            <Position>
              <LatitudeDegrees>36.48720209486782550811767578125</LatitudeDegrees>
              <LongitudeDegrees>-5.405678786337375640869140625</LongitudeDegrees>
            </Position>
            <AltitudeMeters>61</AltitudeMeters>
            <DistanceMeters>NAN</DistanceMeters>
          </Trackpoint>
          <Trackpoint>
            <Time>2019-01-04T11:40:22.000Z</Time>
            <Position>
              <LatitudeDegrees>36.4871901087462902069091796875</LatitudeDegrees>
              <LongitudeDegrees>-5.40567937307059764862060546875</LongitudeDegrees>
            </Position>
            <AltitudeMeters>61.200000762939453125</AltitudeMeters>
            <DistanceMeters>NAN</DistanceMeters>
          </Trackpoint>
          <Trackpoint>
            <Time>2019-01-04T11:40:23.000Z</Time>
            <Position>
              <LatitudeDegrees>36.48717879317700862884521484375</LatitudeDegrees>
              <LongitudeDegrees>-5.40568088181316852569580078125</LongitudeDegrees>
            </Position>
            <AltitudeMeters>61.40000152587890625</AltitudeMeters>
            <DistanceMeters>NAN</DistanceMeters>
          </Trackpoint>
          <Trackpoint>
            <Time>2019-01-04T11:40:24.000Z</Time>
            <Position>
              <LatitudeDegrees>36.48716772906482219696044921875</LatitudeDegrees>
              <LongitudeDegrees>-5.40568255819380283355712890625</LongitudeDegrees>
            </Position>
            <AltitudeMeters>61.799999237060546875</AltitudeMeters>
            <DistanceMeters>NAN</DistanceMeters>
          </Trackpoint>
          <Trackpoint>
            <Time>2019-01-04T11:40:25.000Z</Time>
            <Position>
              <LatitudeDegrees>36.48715314455330371856689453125</LatitudeDegrees>
              <LongitudeDegrees>-5.40568641386926174163818359375</LongitudeDegrees>
            </Position>
            <AltitudeMeters>62</AltitudeMeters>
            <DistanceMeters>NAN</DistanceMeters>
          </Trackpoint>
          <Trackpoint>
            <Time>2019-01-04T11:40:26.000Z</Time>
            <Position>
              <LatitudeDegrees>36.48713470436632633209228515625</LatitudeDegrees>
              <LongitudeDegrees>-5.4056878387928009033203125</LongitudeDegrees>
            </Position>
            <AltitudeMeters>62.40000152587890625</AltitudeMeters>
            <DistanceMeters>NAN</DistanceMeters>
          </Trackpoint>
          <Trackpoint>
            <Time>2019-01-04T11:40:27.000Z</Time>
            <Position>
              <LatitudeDegrees>36.48711894638836383819580078125</LatitudeDegrees>
              <LongitudeDegrees>-5.40569043718278408050537109375</LongitudeDegrees>
            </Position>
            <AltitudeMeters>62.59999847412109375</AltitudeMeters>
            <DistanceMeters>NAN</DistanceMeters>
          </Trackpoint>
          <Trackpoint>
            <Time>2019-01-04T11:40:28.000Z</Time>
            <Position>
              <LatitudeDegrees>36.48710788227617740631103515625</LatitudeDegrees>
              <LongitudeDegrees>-5.4056950472295284271240234375</LongitudeDegrees>
            </Position>
            <AltitudeMeters>62.799999237060546875</AltitudeMeters>
            <DistanceMeters>NAN</DistanceMeters>
          </Trackpoint>
          <Trackpoint>
            <Time>2019-01-04T11:40:29.000Z</Time>
            <Position>
              <LatitudeDegrees>36.4870979078114032745361328125</LatitudeDegrees>
              <LongitudeDegrees>-5.40570116601884365081787109375</LongitudeDegrees>
            </Position>
            <AltitudeMeters>62.799999237060546875</AltitudeMeters>
            <DistanceMeters>NAN</DistanceMeters>
          </Trackpoint>
          <Trackpoint>
            <Time>2019-01-04T11:40:30.000Z</Time>
            <Position>
              <LatitudeDegrees>36.4870861731469631195068359375</LatitudeDegrees>
              <LongitudeDegrees>-5.4057087935507297515869140625</LongitudeDegrees>
            </Position>
            <AltitudeMeters>62.799999237060546875</AltitudeMeters>
            <DistanceMeters>NAN</DistanceMeters>
          </Trackpoint>
          <Trackpoint>
            <Time>2019-01-04T11:40:31.000Z</Time>
            <Position>
              <LatitudeDegrees>36.48707091808319091796875</LatitudeDegrees>
              <LongitudeDegrees>-5.405716001987457275390625</LongitudeDegrees>
            </Position>
            <AltitudeMeters>62.799999237060546875</AltitudeMeters>
            <DistanceMeters>NAN</DistanceMeters>
          </Trackpoint>
          <Trackpoint>
            <Time>2019-01-04T11:40:32.000Z</Time>
            <Position>
              <LatitudeDegrees>36.487053819000720977783203125</LatitudeDegrees>
              <LongitudeDegrees>-5.40572480298578739166259765625</LongitudeDegrees>
            </Position>
            <AltitudeMeters>63</AltitudeMeters>
            <DistanceMeters>NAN</DistanceMeters>
          </Trackpoint>
          <Trackpoint>
            <Time>2019-01-04T11:40:33.000Z</Time>
            <Position>
              <LatitudeDegrees>36.48703814484179019927978515625</LatitudeDegrees>
              <LongitudeDegrees>-5.405729748308658599853515625</LongitudeDegrees>
            </Position>
            <AltitudeMeters>63</AltitudeMeters>
            <DistanceMeters>NAN</DistanceMeters>
          </Trackpoint>
          <Trackpoint>
            <Time>2019-01-04T11:40:34.000Z</Time>
            <Position>
              <LatitudeDegrees>36.48702138103544712066650390625</LatitudeDegrees>
              <LongitudeDegrees>-5.40573335252702236175537109375</LongitudeDegrees>
            </Position>
            <AltitudeMeters>63.40000152587890625</AltitudeMeters>
            <DistanceMeters>NAN</DistanceMeters>
          </Trackpoint>
          <Trackpoint>
            <Time>2019-01-04T11:40:35.000Z</Time>
            <Position>
              <LatitudeDegrees>36.487006880342960357666015625</LatitudeDegrees>
              <LongitudeDegrees>-5.4057362861931324005126953125</LongitudeDegrees>
            </Position>
            <AltitudeMeters>63.59999847412109375</AltitudeMeters>
            <DistanceMeters>NAN</DistanceMeters>
          </Trackpoint>
          <Trackpoint>
            <Time>2019-01-04T11:40:36.000Z</Time>
            <Position>
              <LatitudeDegrees>36.48699020035564899444580078125</LatitudeDegrees>
              <LongitudeDegrees>-5.40574173443019390106201171875</LongitudeDegrees>
            </Position>
            <AltitudeMeters>63.799999237060546875</AltitudeMeters>
            <DistanceMeters>NAN</DistanceMeters>
          </Trackpoint>
          <Trackpoint>
            <Time>2019-01-04T11:40:37.000Z</Time>
            <Position>
              <LatitudeDegrees>36.48697745986282825469970703125</LatitudeDegrees>
              <LongitudeDegrees>-5.405746512115001678466796875</LongitudeDegrees>
            </Position>
            <AltitudeMeters>63.799999237060546875</AltitudeMeters>
            <DistanceMeters>NAN</DistanceMeters>
          </Trackpoint>
          <Trackpoint>
            <Time>2019-01-04T11:40:38.000Z</Time>
            <Position>
              <LatitudeDegrees>36.48696203716099262237548828125</LatitudeDegrees>
              <LongitudeDegrees>-5.4057493619620800018310546875</LongitudeDegrees>
            </Position>
            <AltitudeMeters>64</AltitudeMeters>
            <DistanceMeters>NAN</DistanceMeters>
          </Trackpoint>
          <Trackpoint>
            <Time>2019-01-04T11:40:39.000Z</Time>
            <Position>
              <LatitudeDegrees>36.48694627918303012847900390625</LatitudeDegrees>
              <LongitudeDegrees>-5.4057520441710948944091796875</LongitudeDegrees>
            </Position>
            <AltitudeMeters>64</AltitudeMeters>
            <DistanceMeters>NAN</DistanceMeters>
          </Trackpoint>
          <Trackpoint>
            <Time>2019-01-04T11:40:40.000Z</Time>
            <Position>
              <LatitudeDegrees>36.48693135939538478851318359375</LatitudeDegrees>
              <LongitudeDegrees>-5.40575263090431690216064453125</LongitudeDegrees>
            </Position>
            <AltitudeMeters>64</AltitudeMeters>
            <DistanceMeters>NAN</DistanceMeters>
          </Trackpoint>
          <Trackpoint>
            <Time>2019-01-04T11:40:41.000Z</Time>
            <Position>
              <LatitudeDegrees>36.48690939880907535552978515625</LatitudeDegrees>
              <LongitudeDegrees>-5.4057483561336994171142578125</LongitudeDegrees>
            </Position>
            <AltitudeMeters>64</AltitudeMeters>
            <DistanceMeters>NAN</DistanceMeters>
          </Trackpoint>
          <Trackpoint>
            <Time>2019-01-04T11:40:42.000Z</Time>
            <Position>
              <LatitudeDegrees>36.4868913777172565460205078125</LatitudeDegrees>
              <LongitudeDegrees>-5.405748188495635986328125</LongitudeDegrees>
            </Position>
            <AltitudeMeters>64</AltitudeMeters>
            <DistanceMeters>NAN</DistanceMeters>
          </Trackpoint>
          <Trackpoint>
            <Time>2019-01-04T11:40:43.000Z</Time>
            <Position>
              <LatitudeDegrees>36.48687888868153095245361328125</LatitudeDegrees>
              <LongitudeDegrees>-5.405748188495635986328125</LongitudeDegrees>
            </Position>
            <AltitudeMeters>64.1999969482421875</AltitudeMeters>
            <DistanceMeters>NAN</DistanceMeters>
          </Trackpoint>
          <Trackpoint>
            <Time>2019-01-04T11:40:44.000Z</Time>
            <Position>
              <LatitudeDegrees>36.4868657290935516357421875</LatitudeDegrees>
              <LongitudeDegrees>-5.40574676357209682464599609375</LongitudeDegrees>
            </Position>
            <AltitudeMeters>64.40000152587890625</AltitudeMeters>
            <DistanceMeters>NAN</DistanceMeters>
          </Trackpoint>
          <Trackpoint>
            <Time>2019-01-04T11:40:45.000Z</Time>
            <Position>
              <LatitudeDegrees>36.4868538267910480499267578125</LatitudeDegrees>
              <LongitudeDegrees>-5.405748523771762847900390625</LongitudeDegrees>
            </Position>
            <AltitudeMeters>64.40000152587890625</AltitudeMeters>
            <DistanceMeters>NAN</DistanceMeters>
          </Trackpoint>
          <Trackpoint>
            <Time>2019-01-04T11:40:46.000Z</Time>
            <Position>
              <LatitudeDegrees>36.48684318177402019500732421875</LatitudeDegrees>
              <LongitudeDegrees>-5.40574877522885799407958984375</LongitudeDegrees>
            </Position>
            <AltitudeMeters>64.59999847412109375</AltitudeMeters>
            <DistanceMeters>NAN</DistanceMeters>
          </Trackpoint>
          <Trackpoint>
            <Time>2019-01-04T11:40:47.000Z</Time>
            <Position>
              <LatitudeDegrees>36.4868295192718505859375</LatitudeDegrees>
              <LongitudeDegrees>-5.40575095452368259429931640625</LongitudeDegrees>
            </Position>
            <AltitudeMeters>64.59999847412109375</AltitudeMeters>
            <DistanceMeters>NAN</DistanceMeters>
          </Trackpoint>
          <Trackpoint>
            <Time>2019-01-04T11:40:48.000Z</Time>
            <Position>
              <LatitudeDegrees>36.486816443502902984619140625</LatitudeDegrees>
              <LongitudeDegrees>-5.40575246326625347137451171875</LongitudeDegrees>
            </Position>
            <AltitudeMeters>64.8000030517578125</AltitudeMeters>
            <DistanceMeters>NAN</DistanceMeters>
          </Trackpoint>
          <Trackpoint>
            <Time>2019-01-04T11:40:49.000Z</Time>
            <Position>
              <LatitudeDegrees>36.4868038706481456756591796875</LatitudeDegrees>
              <LongitudeDegrees>-5.40575514547526836395263671875</LongitudeDegrees>
            </Position>
            <AltitudeMeters>64.8000030517578125</AltitudeMeters>
            <DistanceMeters>NAN</DistanceMeters>
          </Trackpoint>
          <Trackpoint>
            <Time>2019-01-04T11:40:50.000Z</Time>
            <Position>
              <LatitudeDegrees>36.48679221980273723602294921875</LatitudeDegrees>
              <LongitudeDegrees>-5.405756570398807525634765625</LongitudeDegrees>
            </Position>
            <AltitudeMeters>64.8000030517578125</AltitudeMeters>
            <DistanceMeters>NAN</DistanceMeters>
          </Trackpoint>
          <Trackpoint>
            <Time>2019-01-04T11:40:51.000Z</Time>
            <Position>
              <LatitudeDegrees>36.48677914403378963470458984375</LatitudeDegrees>
              <LongitudeDegrees>-5.4057562351226806640625</LongitudeDegrees>
            </Position>
            <AltitudeMeters>64.8000030517578125</AltitudeMeters>
            <DistanceMeters>NAN</DistanceMeters>
          </Trackpoint>
          <Trackpoint>
            <Time>2019-01-04T11:40:52.000Z</Time>
            <Position>
              <LatitudeDegrees>36.486766152083873748779296875</LatitudeDegrees>
              <LongitudeDegrees>-5.40575514547526836395263671875</LongitudeDegrees>
            </Position>
            <AltitudeMeters>64.8000030517578125</AltitudeMeters>
            <DistanceMeters>NAN</DistanceMeters>
          </Trackpoint>
          <Trackpoint>
            <Time>2019-01-04T11:40:53.000Z</Time>
            <Position>
              <LatitudeDegrees>36.48675500415265560150146484375</LatitudeDegrees>
              <LongitudeDegrees>-5.40575531311333179473876953125</LongitudeDegrees>
            </Position>
            <AltitudeMeters>64.8000030517578125</AltitudeMeters>
            <DistanceMeters>NAN</DistanceMeters>
          </Trackpoint>
          <Trackpoint>
            <Time>2019-01-04T11:40:54.000Z</Time>
            <Position>
              <LatitudeDegrees>36.4867431856691837310791015625</LatitudeDegrees>
              <LongitudeDegrees>-5.40575824677944183349609375</LongitudeDegrees>
            </Position>
            <AltitudeMeters>64.8000030517578125</AltitudeMeters>
            <DistanceMeters>NAN</DistanceMeters>
          </Trackpoint>
          <Trackpoint>
            <Time>2019-01-04T11:40:55.000Z</Time>
            <Position>
              <LatitudeDegrees>36.48672960698604583740234375</LatitudeDegrees>
              <LongitudeDegrees>-5.40575824677944183349609375</LongitudeDegrees>
            </Position>
            <AltitudeMeters>64.8000030517578125</AltitudeMeters>
            <DistanceMeters>NAN</DistanceMeters>
          </Trackpoint>
          <Trackpoint>
            <Time>2019-01-04T11:40:56.000Z</Time>
            <Position>
              <LatitudeDegrees>36.486716531217098236083984375</LatitudeDegrees>
              <LongitudeDegrees>-5.40575849823653697967529296875</LongitudeDegrees>
            </Position>
            <AltitudeMeters>64.8000030517578125</AltitudeMeters>
            <DistanceMeters>NAN</DistanceMeters>
          </Trackpoint>
          <Trackpoint>
            <Time>2019-01-04T11:40:57.000Z</Time>
            <Position>
              <LatitudeDegrees>36.4866942353546619415283203125</LatitudeDegrees>
              <LongitudeDegrees>-5.40574961341917514801025390625</LongitudeDegrees>
            </Position>
            <AltitudeMeters>64.8000030517578125</AltitudeMeters>
            <DistanceMeters>NAN</DistanceMeters>
          </Trackpoint>
          <Trackpoint>
            <Time>2019-01-04T11:40:58.000Z</Time>
            <Position>
              <LatitudeDegrees>36.48667403496801853179931640625</LatitudeDegrees>
              <LongitudeDegrees>-5.40574525482952594757080078125</LongitudeDegrees>
            </Position>
            <AltitudeMeters>64.8000030517578125</AltitudeMeters>
            <DistanceMeters>NAN</DistanceMeters>
          </Trackpoint>
          <Trackpoint>
            <Time>2019-01-04T11:40:59.000Z</Time>
            <Position>
              <LatitudeDegrees>36.4866560138761997222900390625</LatitudeDegrees>
              <LongitudeDegrees>-5.4057389684021472930908203125</LongitudeDegrees>
            </Position>
            <AltitudeMeters>64.59999847412109375</AltitudeMeters>
            <DistanceMeters>NAN</DistanceMeters>
          </Trackpoint>
          <Trackpoint>
            <Time>2019-01-04T11:41:00.000Z</Time>
            <Position>
              <LatitudeDegrees>36.48663514293730258941650390625</LatitudeDegrees>
              <LongitudeDegrees>-5.40574391372501850128173828125</LongitudeDegrees>
            </Position>
            <AltitudeMeters>64.59999847412109375</AltitudeMeters>
            <DistanceMeters>NAN</DistanceMeters>
          </Trackpoint>
          <Trackpoint>
            <Time>2019-01-04T11:41:01.000Z</Time>
            <Position>
              <LatitudeDegrees>36.486621983349323272705078125</LatitudeDegrees>
              <LongitudeDegrees>-5.40574458427727222442626953125</LongitudeDegrees>
            </Position>
            <AltitudeMeters>64.59999847412109375</AltitudeMeters>
            <DistanceMeters>NAN</DistanceMeters>
          </Trackpoint>
          <Trackpoint>
            <Time>2019-01-04T11:41:02.000Z</Time>
            <Position>
              <LatitudeDegrees>36.48661033250391483306884765625</LatitudeDegrees>
              <LongitudeDegrees>-5.40574240498244762420654296875</LongitudeDegrees>
            </Position>
            <AltitudeMeters>64.59999847412109375</AltitudeMeters>
            <DistanceMeters>NAN</DistanceMeters>
          </Trackpoint>
          <Trackpoint>
            <Time>2019-01-04T11:41:03.000Z</Time>
            <Position>
              <LatitudeDegrees>36.486600525677204132080078125</LatitudeDegrees>
              <LongitudeDegrees>-5.40574081242084503173828125</LongitudeDegrees>
            </Position>
            <AltitudeMeters>64.8000030517578125</AltitudeMeters>
            <DistanceMeters>NAN</DistanceMeters>
          </Trackpoint>
          <Trackpoint>
            <Time>2019-01-04T11:41:04.000Z</Time>
            <Position>
              <LatitudeDegrees>36.48659289814531803131103515625</LatitudeDegrees>
              <LongitudeDegrees>-5.4057416506111621856689453125</LongitudeDegrees>
            </Position>
            <AltitudeMeters>64.8000030517578125</AltitudeMeters>
            <DistanceMeters>NAN</DistanceMeters>
          </Trackpoint>
          <Trackpoint>
            <Time>2019-01-04T11:41:05.000Z</Time>
            <Position>
              <LatitudeDegrees>36.4865856058895587921142578125</LatitudeDegrees>
              <LongitudeDegrees>-5.4057423211634159088134765625</LongitudeDegrees>
            </Position>
            <AltitudeMeters>65</AltitudeMeters>
            <DistanceMeters>NAN</DistanceMeters>
          </Trackpoint>
          <Trackpoint>
            <Time>2019-01-04T11:41:06.000Z</Time>
            <Position>
              <LatitudeDegrees>36.4865758828818798065185546875</LatitudeDegrees>
              <LongitudeDegrees>-5.405743159353733062744140625</LongitudeDegrees>
            </Position>
            <AltitudeMeters>65.40000152587890625</AltitudeMeters>
            <DistanceMeters>NAN</DistanceMeters>
          </Trackpoint>
          <Trackpoint>
            <Time>2019-01-04T11:41:07.000Z</Time>
            <Position>
              <LatitudeDegrees>36.48656305857002735137939453125</LatitudeDegrees>
              <LongitudeDegrees>-5.40574257262051105499267578125</LongitudeDegrees>
            </Position>
            <AltitudeMeters>65.59999847412109375</AltitudeMeters>
            <DistanceMeters>NAN</DistanceMeters>
          </Trackpoint>
          <Trackpoint>
            <Time>2019-01-04T11:41:08.000Z</Time>
            <Position>
              <LatitudeDegrees>36.48655149154365062713623046875</LatitudeDegrees>
              <LongitudeDegrees>-5.40574106387794017791748046875</LongitudeDegrees>
            </Position>
            <AltitudeMeters>65.8000030517578125</AltitudeMeters>
            <DistanceMeters>NAN</DistanceMeters>
          </Trackpoint>
          <Trackpoint>
            <Time>2019-01-04T11:41:09.000Z</Time>
            <Position>
              <LatitudeDegrees>36.486538164317607879638671875</LatitudeDegrees>
              <LongitudeDegrees>-5.40573972277343273162841796875</LongitudeDegrees>
            </Position>
            <AltitudeMeters>66</AltitudeMeters>
            <DistanceMeters>NAN</DistanceMeters>
          </Trackpoint>
          <Trackpoint>
            <Time>2019-01-04T11:41:10.000Z</Time>
            <Position>
              <LatitudeDegrees>36.486524753272533416748046875</LatitudeDegrees>
              <LongitudeDegrees>-5.40574475191533565521240234375</LongitudeDegrees>
            </Position>
            <AltitudeMeters>66.1999969482421875</AltitudeMeters>
            <DistanceMeters>NAN</DistanceMeters>
          </Trackpoint>
          <Trackpoint>
            <Time>2019-01-04T11:41:11.000Z</Time>
            <Position>
              <LatitudeDegrees>36.4865141920745372772216796875</LatitudeDegrees>
              <LongitudeDegrees>-5.40574776940047740936279296875</LongitudeDegrees>
            </Position>
            <AltitudeMeters>66.59999847412109375</AltitudeMeters>
            <DistanceMeters>NAN</DistanceMeters>
          </Trackpoint>
          <Trackpoint>
            <Time>2019-01-04T11:41:12.000Z</Time>
            <Position>
              <LatitudeDegrees>36.4865021221339702606201171875</LatitudeDegrees>
              <LongitudeDegrees>-5.405749194324016571044921875</LongitudeDegrees>
            </Position>
            <AltitudeMeters>66.59999847412109375</AltitudeMeters>
            <DistanceMeters>NAN</DistanceMeters>
          </Trackpoint>
          <Trackpoint>
            <Time>2019-01-04T11:41:13.000Z</Time>
            <Position>
              <LatitudeDegrees>36.48648778907954692840576171875</LatitudeDegrees>
              <LongitudeDegrees>-5.40575715713202953338623046875</LongitudeDegrees>
            </Position>
            <AltitudeMeters>66.8000030517578125</AltitudeMeters>
            <DistanceMeters>NAN</DistanceMeters>
          </Trackpoint>
          <Trackpoint>
            <Time>2019-01-04T11:41:14.000Z</Time>
            <Position>
              <LatitudeDegrees>36.48647337220609188079833984375</LatitudeDegrees>
              <LongitudeDegrees>-5.4057688079774379730224609375</LongitudeDegrees>
            </Position>
            <AltitudeMeters>66.8000030517578125</AltitudeMeters>
            <DistanceMeters>NAN</DistanceMeters>
          </Trackpoint>
          <Trackpoint>
            <Time>2019-01-04T11:41:15.000Z</Time>
            <Position>
              <LatitudeDegrees>36.48645962588489055633544921875</LatitudeDegrees>
              <LongitudeDegrees>-5.4057738371193408966064453125</LongitudeDegrees>
            </Position>
            <AltitudeMeters>66.8000030517578125</AltitudeMeters>
            <DistanceMeters>NAN</DistanceMeters>
          </Trackpoint>
          <Trackpoint>
            <Time>2019-01-04T11:41:16.000Z</Time>
            <Position>
              <LatitudeDegrees>36.48645124398171901702880859375</LatitudeDegrees>
              <LongitudeDegrees>-5.4057835601270198822021484375</LongitudeDegrees>
            </Position>
            <AltitudeMeters>66.8000030517578125</AltitudeMeters>
            <DistanceMeters>NAN</DistanceMeters>
          </Trackpoint>
          <Trackpoint>
            <Time>2019-01-04T11:41:17.000Z</Time>
            <Position>
              <LatitudeDegrees>36.48644319735467433929443359375</LatitudeDegrees>
              <LongitudeDegrees>-5.40579135529696941375732421875</LongitudeDegrees>
            </Position>
            <AltitudeMeters>66.8000030517578125</AltitudeMeters>
            <DistanceMeters>NAN</DistanceMeters>
          </Trackpoint>
          <Trackpoint>
            <Time>2019-01-04T11:41:18.000Z</Time>
            <Position>
              <LatitudeDegrees>36.48643079213798046112060546875</LatitudeDegrees>
              <LongitudeDegrees>-5.4058040119707584381103515625</LongitudeDegrees>
            </Position>
            <AltitudeMeters>67</AltitudeMeters>
            <DistanceMeters>NAN</DistanceMeters>
          </Trackpoint>
          <Trackpoint>
            <Time>2019-01-04T11:41:19.000Z</Time>
            <Position>
              <LatitudeDegrees>36.48641847074031829833984375</LatitudeDegrees>
              <LongitudeDegrees>-5.40582857094705104827880859375</LongitudeDegrees>
            </Position>
            <AltitudeMeters>67</AltitudeMeters>
            <DistanceMeters>NAN</DistanceMeters>
          </Trackpoint>
          <Trackpoint>
            <Time>2019-01-04T11:41:20.000Z</Time>
            <Position>
              <LatitudeDegrees>36.48640262894332408905029296875</LatitudeDegrees>
              <LongitudeDegrees>-5.40583829395473003387451171875</LongitudeDegrees>
            </Position>
            <AltitudeMeters>67</AltitudeMeters>
            <DistanceMeters>NAN</DistanceMeters>
          </Trackpoint>
          <Trackpoint>
            <Time>2019-01-04T11:41:21.000Z</Time>
            <Position>
              <LatitudeDegrees>36.48638737387955188751220703125</LatitudeDegrees>
              <LongitudeDegrees>-5.405845083296298980712890625</LongitudeDegrees>
            </Position>
            <AltitudeMeters>67</AltitudeMeters>
            <DistanceMeters>NAN</DistanceMeters>
          </Trackpoint>
          <Trackpoint>
            <Time>2019-01-04T11:41:22.000Z</Time>
            <Position>
              <LatitudeDegrees>36.4863722026348114013671875</LatitudeDegrees>
              <LongitudeDegrees>-5.4058479331433773040771484375</LongitudeDegrees>
            </Position>
            <AltitudeMeters>67</AltitudeMeters>
            <DistanceMeters>NAN</DistanceMeters>
          </Trackpoint>
          <Trackpoint>
            <Time>2019-01-04T11:41:23.000Z</Time>
            <Position>
              <LatitudeDegrees>36.48636071942746639251708984375</LatitudeDegrees>
              <LongitudeDegrees>-5.40585740469396114349365234375</LongitudeDegrees>
            </Position>
            <AltitudeMeters>67.1999969482421875</AltitudeMeters>
            <DistanceMeters>NAN</DistanceMeters>
          </Trackpoint>
          <Trackpoint>
            <Time>2019-01-04T11:41:24.000Z</Time>
            <Position>
              <LatitudeDegrees>36.48635082878172397613525390625</LatitudeDegrees>
              <LongitudeDegrees>-5.405872575938701629638671875</LongitudeDegrees>
            </Position>
            <AltitudeMeters>67.40000152587890625</AltitudeMeters>
            <DistanceMeters>NAN</DistanceMeters>
          </Trackpoint>
          <Trackpoint>
            <Time>2019-01-04T11:41:25.000Z</Time>
            <Position>
              <LatitudeDegrees>36.48633892647922039031982421875</LatitudeDegrees>
              <LongitudeDegrees>-5.40588456206023693084716796875</LongitudeDegrees>
            </Position>
            <AltitudeMeters>67.40000152587890625</AltitudeMeters>
            <DistanceMeters>NAN</DistanceMeters>
          </Trackpoint>
          <Trackpoint>
            <Time>2019-01-04T11:41:26.000Z</Time>
            <Position>
              <LatitudeDegrees>36.4863267727196216583251953125</LatitudeDegrees>
              <LongitudeDegrees>-5.40589679963886737823486328125</LongitudeDegrees>
            </Position>
            <AltitudeMeters>67.59999847412109375</AltitudeMeters>
            <DistanceMeters>NAN</DistanceMeters>
          </Trackpoint>
          <Trackpoint>
            <Time>2019-01-04T11:41:27.000Z</Time>
            <Position>
              <LatitudeDegrees>36.48631495423614978790283203125</LatitudeDegrees>
              <LongitudeDegrees>-5.40590853430330753326416015625</LongitudeDegrees>
            </Position>
            <AltitudeMeters>67.59999847412109375</AltitudeMeters>
            <DistanceMeters>NAN</DistanceMeters>
          </Trackpoint>
          <Trackpoint>
            <Time>2019-01-04T11:41:28.000Z</Time>
            <Position>
              <LatitudeDegrees>36.48630204610526561737060546875</LatitudeDegrees>
              <LongitudeDegrees>-5.4059173353016376495361328125</LongitudeDegrees>
            </Position>
            <AltitudeMeters>67.59999847412109375</AltitudeMeters>
            <DistanceMeters>NAN</DistanceMeters>
          </Trackpoint>
          <Trackpoint>
            <Time>2019-01-04T11:41:29.000Z</Time>
            <Position>
              <LatitudeDegrees>36.4862890541553497314453125</LatitudeDegrees>
              <LongitudeDegrees>-5.40592320263385772705078125</LongitudeDegrees>
            </Position>
            <AltitudeMeters>67.59999847412109375</AltitudeMeters>
            <DistanceMeters>NAN</DistanceMeters>
          </Trackpoint>
          <Trackpoint>
            <Time>2019-01-04T11:41:30.000Z</Time>
            <Position>
              <LatitudeDegrees>36.4862788282334804534912109375</LatitudeDegrees>
              <LongitudeDegrees>-5.40593451820313930511474609375</LongitudeDegrees>
            </Position>
            <AltitudeMeters>67.59999847412109375</AltitudeMeters>
            <DistanceMeters>NAN</DistanceMeters>
          </Trackpoint>
          <Trackpoint>
            <Time>2019-01-04T11:41:31.000Z</Time>
            <Position>
              <LatitudeDegrees>36.48626969195902347564697265625</LatitudeDegrees>
              <LongitudeDegrees>-5.4059438221156597137451171875</LongitudeDegrees>
            </Position>
            <AltitudeMeters>67.59999847412109375</AltitudeMeters>
            <DistanceMeters>NAN</DistanceMeters>
          </Trackpoint>
          <Trackpoint>
            <Time>2019-01-04T11:41:32.000Z</Time>
            <Position>
              <LatitudeDegrees>36.48626080714166164398193359375</LatitudeDegrees>
              <LongitudeDegrees>-5.405955724418163299560546875</LongitudeDegrees>
            </Position>
            <AltitudeMeters>67.59999847412109375</AltitudeMeters>
            <DistanceMeters>NAN</DistanceMeters>
          </Trackpoint>
          <Trackpoint>
            <Time>2019-01-04T11:41:33.000Z</Time>
            <Position>
              <LatitudeDegrees>36.4862496592104434967041015625</LatitudeDegrees>
              <LongitudeDegrees>-5.40596771053969860076904296875</LongitudeDegrees>
            </Position>
            <AltitudeMeters>67.59999847412109375</AltitudeMeters>
            <DistanceMeters>NAN</DistanceMeters>
          </Trackpoint>
          <Trackpoint>
            <Time>2019-01-04T11:41:34.000Z</Time>
            <Position>
              <LatitudeDegrees>36.4862399362027645111083984375</LatitudeDegrees>
              <LongitudeDegrees>-5.40598112158477306365966796875</LongitudeDegrees>
            </Position>
            <AltitudeMeters>67.8000030517578125</AltitudeMeters>
            <DistanceMeters>NAN</DistanceMeters>
          </Trackpoint>
          <Trackpoint>
            <Time>2019-01-04T11:41:35.000Z</Time>
            <Position>
              <LatitudeDegrees>36.48623163811862468719482421875</LatitudeDegrees>
              <LongitudeDegrees>-5.40599402971565723419189453125</LongitudeDegrees>
            </Position>
            <AltitudeMeters>67.8000030517578125</AltitudeMeters>
            <DistanceMeters>NAN</DistanceMeters>
          </Trackpoint>
          <Trackpoint>
            <Time>2019-01-04T11:41:36.000Z</Time>
            <Position>
              <LatitudeDegrees>36.48622593842446804046630859375</LatitudeDegrees>
              <LongitudeDegrees>-5.40600811131298542022705078125</LongitudeDegrees>
            </Position>
            <AltitudeMeters>67.8000030517578125</AltitudeMeters>
            <DistanceMeters>NAN</DistanceMeters>
          </Trackpoint>
          <Trackpoint>
            <Time>2019-01-04T11:41:37.000Z</Time>
            <Position>
              <LatitudeDegrees>36.48621864616870880126953125</LatitudeDegrees>
              <LongitudeDegrees>-5.4060219414532184600830078125</LongitudeDegrees>
            </Position>
            <AltitudeMeters>67.8000030517578125</AltitudeMeters>
            <DistanceMeters>NAN</DistanceMeters>
          </Trackpoint>
          <Trackpoint>
            <Time>2019-01-04T11:41:38.000Z</Time>
            <Position>
              <LatitudeDegrees>36.4862137846648693084716796875</LatitudeDegrees>
              <LongitudeDegrees>-5.40603744797408580780029296875</LongitudeDegrees>
            </Position>
            <AltitudeMeters>68</AltitudeMeters>
            <DistanceMeters>NAN</DistanceMeters>
          </Trackpoint>
          <Trackpoint>
            <Time>2019-01-04T11:41:39.000Z</Time>
            <Position>
              <LatitudeDegrees>36.4862059056758880615234375</LatitudeDegrees>
              <LongitudeDegrees>-5.40605035610496997833251953125</LongitudeDegrees>
            </Position>
            <AltitudeMeters>68</AltitudeMeters>
            <DistanceMeters>NAN</DistanceMeters>
          </Trackpoint>
          <Trackpoint>
            <Time>2019-01-04T11:41:40.000Z</Time>
            <Position>
              <LatitudeDegrees>36.486196182668209075927734375</LatitudeDegrees>
              <LongitudeDegrees>-5.40606510825455188751220703125</LongitudeDegrees>
            </Position>
            <AltitudeMeters>68</AltitudeMeters>
            <DistanceMeters>NAN</DistanceMeters>
          </Trackpoint>
          <Trackpoint>
            <Time>2019-01-04T11:41:41.000Z</Time>
            <Position>
              <LatitudeDegrees>36.48618503473699092864990234375</LatitudeDegrees>
              <LongitudeDegrees>-5.40608069859445095062255859375</LongitudeDegrees>
            </Position>
            <AltitudeMeters>68.1999969482421875</AltitudeMeters>
            <DistanceMeters>NAN</DistanceMeters>
          </Trackpoint>
          <Trackpoint>
            <Time>2019-01-04T11:41:42.000Z</Time>
            <Position>
              <LatitudeDegrees>36.486175395548343658447265625</LatitudeDegrees>
              <LongitudeDegrees>-5.40609897114336490631103515625</LongitudeDegrees>
            </Position>
            <AltitudeMeters>68.1999969482421875</AltitudeMeters>
            <DistanceMeters>NAN</DistanceMeters>
          </Trackpoint>
          <Trackpoint>
            <Time>2019-01-04T11:41:43.000Z</Time>
            <Position>
              <LatitudeDegrees>36.4861656725406646728515625</LatitudeDegrees>
              <LongitudeDegrees>-5.406114645302295684814453125</LongitudeDegrees>
            </Position>
            <AltitudeMeters>68.40000152587890625</AltitudeMeters>
            <DistanceMeters>NAN</DistanceMeters>
          </Trackpoint>
          <Trackpoint>
            <Time>2019-01-04T11:41:44.000Z</Time>
            <Position>
              <LatitudeDegrees>36.48615427315235137939453125</LatitudeDegrees>
              <LongitudeDegrees>-5.40613107383251190185546875</LongitudeDegrees>
            </Position>
            <AltitudeMeters>68.40000152587890625</AltitudeMeters>
            <DistanceMeters>NAN</DistanceMeters>
          </Trackpoint>
          <Trackpoint>
            <Time>2019-01-04T11:41:45.000Z</Time>
            <Position>
              <LatitudeDegrees>36.486143879592418670654296875</LatitudeDegrees>
              <LongitudeDegrees>-5.4061480052769184112548828125</LongitudeDegrees>
            </Position>
            <AltitudeMeters>68.59999847412109375</AltitudeMeters>
            <DistanceMeters>NAN</DistanceMeters>
          </Trackpoint>
          <Trackpoint>
            <Time>2019-01-04T11:41:46.000Z</Time>
            <Position>
              <LatitudeDegrees>36.486132144927978515625</LatitudeDegrees>
              <LongitudeDegrees>-5.4061654396355152130126953125</LongitudeDegrees>
            </Position>
            <AltitudeMeters>68.8000030517578125</AltitudeMeters>
            <DistanceMeters>NAN</DistanceMeters>
          </Trackpoint>
          <Trackpoint>
            <Time>2019-01-04T11:41:47.000Z</Time>
            <Position>
              <LatitudeDegrees>36.48612049408257007598876953125</LatitudeDegrees>
              <LongitudeDegrees>-5.406182371079921722412109375</LongitudeDegrees>
            </Position>
            <AltitudeMeters>68.8000030517578125</AltitudeMeters>
            <DistanceMeters>NAN</DistanceMeters>
          </Trackpoint>
          <Trackpoint>
            <Time>2019-01-04T11:41:48.000Z</Time>
            <Position>
              <LatitudeDegrees>36.48610708303749561309814453125</LatitudeDegrees>
              <LongitudeDegrees>-5.40619678795337677001953125</LongitudeDegrees>
            </Position>
            <AltitudeMeters>68.8000030517578125</AltitudeMeters>
            <DistanceMeters>NAN</DistanceMeters>
          </Trackpoint>
          <Trackpoint>
            <Time>2019-01-04T11:41:49.000Z</Time>
            <Position>
              <LatitudeDegrees>36.48609350435435771942138671875</LatitudeDegrees>
              <LongitudeDegrees>-5.4062086902558803558349609375</LongitudeDegrees>
            </Position>
            <AltitudeMeters>68.8000030517578125</AltitudeMeters>
            <DistanceMeters>NAN</DistanceMeters>
          </Trackpoint>
          <Trackpoint>
            <Time>2019-01-04T11:41:50.000Z</Time>
            <Position>
              <LatitudeDegrees>36.4860800094902515411376953125</LatitudeDegrees>
              <LongitudeDegrees>-5.4062215983867645263671875</LongitudeDegrees>
            </Position>
            <AltitudeMeters>68.59999847412109375</AltitudeMeters>
            <DistanceMeters>NAN</DistanceMeters>
          </Trackpoint>
          <Trackpoint>
            <Time>2019-01-04T11:41:51.000Z</Time>
            <Position>
              <LatitudeDegrees>36.4860679395496845245361328125</LatitudeDegrees>
              <LongitudeDegrees>-5.40623509325087070465087890625</LongitudeDegrees>
            </Position>
            <AltitudeMeters>68.40000152587890625</AltitudeMeters>
            <DistanceMeters>NAN</DistanceMeters>
          </Trackpoint>
          <Trackpoint>
            <Time>2019-01-04T11:41:52.000Z</Time>
            <Position>
              <LatitudeDegrees>36.4860535226762294769287109375</LatitudeDegrees>
              <LongitudeDegrees>-5.40624565444886684417724609375</LongitudeDegrees>
            </Position>
            <AltitudeMeters>68.1999969482421875</AltitudeMeters>
            <DistanceMeters>NAN</DistanceMeters>
          </Trackpoint>
          <Trackpoint>
            <Time>2019-01-04T11:41:53.000Z</Time>
            <Position>
              <LatitudeDegrees>36.4860391058027744293212890625</LatitudeDegrees>
              <LongitudeDegrees>-5.4062559641897678375244140625</LongitudeDegrees>
            </Position>
            <AltitudeMeters>68</AltitudeMeters>
            <DistanceMeters>NAN</DistanceMeters>
          </Trackpoint>
          <Trackpoint>
            <Time>2019-01-04T11:41:54.000Z</Time>
            <Position>
              <LatitudeDegrees>36.48602846078574657440185546875</LatitudeDegrees>
              <LongitudeDegrees>-5.40626862086355686187744140625</LongitudeDegrees>
            </Position>
            <AltitudeMeters>68</AltitudeMeters>
            <DistanceMeters>NAN</DistanceMeters>
          </Trackpoint>
          <Trackpoint>
            <Time>2019-01-04T11:41:55.000Z</Time>
            <Position>
              <LatitudeDegrees>36.48602074943482875823974609375</LatitudeDegrees>
              <LongitudeDegrees>-5.40628303773701190948486328125</LongitudeDegrees>
            </Position>
            <AltitudeMeters>68</AltitudeMeters>
            <DistanceMeters>NAN</DistanceMeters>
          </Trackpoint>
          <Trackpoint>
            <Time>2019-01-04T11:41:56.000Z</Time>
            <Position>
              <LatitudeDegrees>36.48601085878908634185791015625</LatitudeDegrees>
              <LongitudeDegrees>-5.406294353306293487548828125</LongitudeDegrees>
            </Position>
            <AltitudeMeters>68</AltitudeMeters>
            <DistanceMeters>NAN</DistanceMeters>
          </Trackpoint>
          <Trackpoint>
            <Time>2019-01-04T11:41:57.000Z</Time>
            <Position>
              <LatitudeDegrees>36.486000716686248779296875</LatitudeDegrees>
              <LongitudeDegrees>-5.4063042439520359039306640625</LongitudeDegrees>
            </Position>
            <AltitudeMeters>68</AltitudeMeters>
            <DistanceMeters>NAN</DistanceMeters>
          </Trackpoint>
          <Trackpoint>
            <Time>2019-01-04T11:41:58.000Z</Time>
            <Position>
              <LatitudeDegrees>36.485990323126316070556640625</LatitudeDegrees>
              <LongitudeDegrees>-5.40631505660712718963623046875</LongitudeDegrees>
            </Position>
            <AltitudeMeters>68</AltitudeMeters>
            <DistanceMeters>NAN</DistanceMeters>
          </Trackpoint>
          <Trackpoint>
            <Time>2019-01-04T11:41:59.000Z</Time>
            <Position>
              <LatitudeDegrees>36.48598085157573223114013671875</LatitudeDegrees>
              <LongitudeDegrees>-5.40632729418575763702392578125</LongitudeDegrees>
            </Position>
            <AltitudeMeters>68.1999969482421875</AltitudeMeters>
            <DistanceMeters>NAN</DistanceMeters>
          </Trackpoint>
          <Trackpoint>
            <Time>2019-01-04T11:42:00.000Z</Time>
            <Position>
              <LatitudeDegrees>36.48597129620611667633056640625</LatitudeDegrees>
              <LongitudeDegrees>-5.40634036995470523834228515625</LongitudeDegrees>
            </Position>
            <AltitudeMeters>68.1999969482421875</AltitudeMeters>
            <DistanceMeters>NAN</DistanceMeters>
          </Trackpoint>
          <Trackpoint>
            <Time>2019-01-04T11:42:01.000Z</Time>
            <Position>
              <LatitudeDegrees>36.4859629981219768524169921875</LatitudeDegrees>
              <LongitudeDegrees>-5.40635361336171627044677734375</LongitudeDegrees>
            </Position>
            <AltitudeMeters>68.1999969482421875</AltitudeMeters>
            <DistanceMeters>NAN</DistanceMeters>
          </Trackpoint>
          <Trackpoint>
            <Time>2019-01-04T11:42:02.000Z</Time>
            <Position>
              <LatitudeDegrees>36.4859537780284881591796875</LatitudeDegrees>
              <LongitudeDegrees>-5.40636685676872730255126953125</LongitudeDegrees>
            </Position>
            <AltitudeMeters>68.1999969482421875</AltitudeMeters>
            <DistanceMeters>NAN</DistanceMeters>
          </Trackpoint>
          <Trackpoint>
            <Time>2019-01-04T11:42:03.000Z</Time>
            <Position>
              <LatitudeDegrees>36.4859442226588726043701171875</LatitudeDegrees>
              <LongitudeDegrees>-5.4063785076141357421875</LongitudeDegrees>
            </Position>
            <AltitudeMeters>68.40000152587890625</AltitudeMeters>
            <DistanceMeters>NAN</DistanceMeters>
          </Trackpoint>
          <Trackpoint>
            <Time>2019-01-04T11:42:04.000Z</Time>
            <Position>
              <LatitudeDegrees>36.48593324236571788787841796875</LatitudeDegrees>
              <LongitudeDegrees>-5.40639066137373447418212890625</LongitudeDegrees>
            </Position>
            <AltitudeMeters>68.40000152587890625</AltitudeMeters>
            <DistanceMeters>NAN</DistanceMeters>
          </Trackpoint>
          <Trackpoint>
            <Time>2019-01-04T11:42:05.000Z</Time>
            <Position>
              <LatitudeDegrees>36.48592418991029262542724609375</LatitudeDegrees>
              <LongitudeDegrees>-5.4064048267900943756103515625</LongitudeDegrees>
            </Position>
            <AltitudeMeters>68.40000152587890625</AltitudeMeters>
            <DistanceMeters>NAN</DistanceMeters>
          </Trackpoint>
          <Trackpoint>
            <Time>2019-01-04T11:42:06.000Z</Time>
            <Position>
              <LatitudeDegrees>36.4859160594642162322998046875</LatitudeDegrees>
              <LongitudeDegrees>-5.40641765110194683074951171875</LongitudeDegrees>
            </Position>
            <AltitudeMeters>68.40000152587890625</AltitudeMeters>
            <DistanceMeters>NAN</DistanceMeters>
          </Trackpoint>
          <Trackpoint>
            <Time>2019-01-04T11:42:07.000Z</Time>
            <Position>
              <LatitudeDegrees>36.48590943776071071624755859375</LatitudeDegrees>
              <LongitudeDegrees>-5.40643005631864070892333984375</LongitudeDegrees>
            </Position>
            <AltitudeMeters>68.40000152587890625</AltitudeMeters>
            <DistanceMeters>NAN</DistanceMeters>
          </Trackpoint>
          <Trackpoint>
            <Time>2019-01-04T11:42:08.000Z</Time>
            <Position>
              <LatitudeDegrees>36.485901139676570892333984375</LatitudeDegrees>
              <LongitudeDegrees>-5.40644279681146144866943359375</LongitudeDegrees>
            </Position>
            <AltitudeMeters>68.59999847412109375</AltitudeMeters>
            <DistanceMeters>NAN</DistanceMeters>
          </Trackpoint>
          <Trackpoint>
            <Time>2019-01-04T11:42:09.000Z</Time>
            <Position>
              <LatitudeDegrees>36.485894434154033660888671875</LatitudeDegrees>
              <LongitudeDegrees>-5.4064527712762355804443359375</LongitudeDegrees>
            </Position>
            <AltitudeMeters>68.59999847412109375</AltitudeMeters>
            <DistanceMeters>NAN</DistanceMeters>
          </Trackpoint>
          <Trackpoint>
            <Time>2019-01-04T11:42:10.000Z</Time>
            <Position>
              <LatitudeDegrees>36.4858868904411792755126953125</LatitudeDegrees>
              <LongitudeDegrees>-5.4064638353884220123291015625</LongitudeDegrees>
            </Position>
            <AltitudeMeters>68.59999847412109375</AltitudeMeters>
            <DistanceMeters>NAN</DistanceMeters>
          </Trackpoint>
          <Trackpoint>
            <Time>2019-01-04T11:42:11.000Z</Time>
            <Position>
              <LatitudeDegrees>36.4858781732618808746337890625</LatitudeDegrees>
              <LongitudeDegrees>-5.40647598914802074432373046875</LongitudeDegrees>
            </Position>
            <AltitudeMeters>68.59999847412109375</AltitudeMeters>
            <DistanceMeters>NAN</DistanceMeters>
          </Trackpoint>
          <Trackpoint>
            <Time>2019-01-04T11:42:12.000Z</Time>
            <Position>
              <LatitudeDegrees>36.48586920462548732757568359375</LatitudeDegrees>
              <LongitudeDegrees>-5.4064876399934291839599609375</LongitudeDegrees>
            </Position>
            <AltitudeMeters>68.8000030517578125</AltitudeMeters>
            <DistanceMeters>NAN</DistanceMeters>
          </Trackpoint>
          <Trackpoint>
            <Time>2019-01-04T11:42:13.000Z</Time>
            <Position>
              <LatitudeDegrees>36.48585864342749118804931640625</LatitudeDegrees>
              <LongitudeDegrees>-5.40650121867656707763671875</LongitudeDegrees>
            </Position>
            <AltitudeMeters>69</AltitudeMeters>
            <DistanceMeters>NAN</DistanceMeters>
          </Trackpoint>
          <Trackpoint>
            <Time>2019-01-04T11:42:14.000Z</Time>
            <Position>
              <LatitudeDegrees>36.4858490042388439178466796875</LatitudeDegrees>
              <LongitudeDegrees>-5.40651538409292697906494140625</LongitudeDegrees>
            </Position>
            <AltitudeMeters>69</AltitudeMeters>
            <DistanceMeters>NAN</DistanceMeters>
          </Trackpoint>
          <Trackpoint>
            <Time>2019-01-04T11:42:15.000Z</Time>
            <Position>
              <LatitudeDegrees>36.4858406223356723785400390625</LatitudeDegrees>
              <LongitudeDegrees>-5.40652778930962085723876953125</LongitudeDegrees>
            </Position>
            <AltitudeMeters>69</AltitudeMeters>
            <DistanceMeters>NAN</DistanceMeters>
          </Trackpoint>
          <Trackpoint>
            <Time>2019-01-04T11:42:16.000Z</Time>
            <Position>
              <LatitudeDegrees>36.48583232425153255462646484375</LatitudeDegrees>
              <LongitudeDegrees>-5.4065422900021076202392578125</LongitudeDegrees>
            </Position>
            <AltitudeMeters>69.1999969482421875</AltitudeMeters>
            <DistanceMeters>NAN</DistanceMeters>
          </Trackpoint>
          <Trackpoint>
            <Time>2019-01-04T11:42:17.000Z</Time>
            <Position>
              <LatitudeDegrees>36.48582729510962963104248046875</LatitudeDegrees>
              <LongitudeDegrees>-5.40655595250427722930908203125</LongitudeDegrees>
            </Position>
            <AltitudeMeters>69.1999969482421875</AltitudeMeters>
            <DistanceMeters>NAN</DistanceMeters>
          </Trackpoint>
          <Trackpoint>
            <Time>2019-01-04T11:42:18.000Z</Time>
            <Position>
              <LatitudeDegrees>36.48582042194902896881103515625</LatitudeDegrees>
              <LongitudeDegrees>-5.40656835772097110748291015625</LongitudeDegrees>
            </Position>
            <AltitudeMeters>69.40000152587890625</AltitudeMeters>
            <DistanceMeters>NAN</DistanceMeters>
          </Trackpoint>
          <Trackpoint>
            <Time>2019-01-04T11:42:19.000Z</Time>
            <Position>
              <LatitudeDegrees>36.4858104474842548370361328125</LatitudeDegrees>
              <LongitudeDegrees>-5.406585037708282470703125</LongitudeDegrees>
            </Position>
            <AltitudeMeters>69.59999847412109375</AltitudeMeters>
            <DistanceMeters>NAN</DistanceMeters>
          </Trackpoint>
          <Trackpoint>
            <Time>2019-01-04T11:42:20.000Z</Time>
            <Position>
              <LatitudeDegrees>36.48579980246722698211669921875</LatitudeDegrees>
              <LongitudeDegrees>-5.40659735910594463348388671875</LongitudeDegrees>
            </Position>
            <AltitudeMeters>69.8000030517578125</AltitudeMeters>
            <DistanceMeters>NAN</DistanceMeters>
          </Trackpoint>
          <Trackpoint>
            <Time>2019-01-04T11:42:21.000Z</Time>
            <Position>
              <LatitudeDegrees>36.48578957654535770416259765625</LatitudeDegrees>
              <LongitudeDegrees>-5.4066143743693828582763671875</LongitudeDegrees>
            </Position>
            <AltitudeMeters>70</AltitudeMeters>
            <DistanceMeters>NAN</DistanceMeters>
          </Trackpoint>
          <Trackpoint>
            <Time>2019-01-04T11:42:22.000Z</Time>
            <Position>
              <LatitudeDegrees>36.4857802726328372955322265625</LatitudeDegrees>
              <LongitudeDegrees>-5.40663038380444049835205078125</LongitudeDegrees>
            </Position>
            <AltitudeMeters>70.1999969482421875</AltitudeMeters>
            <DistanceMeters>NAN</DistanceMeters>
          </Trackpoint>
          <Trackpoint>
            <Time>2019-01-04T11:42:23.000Z</Time>
            <Position>
              <LatitudeDegrees>36.48577264510095119476318359375</LatitudeDegrees>
              <LongitudeDegrees>-5.40664765052497386932373046875</LongitudeDegrees>
            </Position>
            <AltitudeMeters>70.40000152587890625</AltitudeMeters>
            <DistanceMeters>NAN</DistanceMeters>
          </Trackpoint>
          <Trackpoint>
            <Time>2019-01-04T11:42:24.000Z</Time>
            <Position>
              <LatitudeDegrees>36.48576510138809680938720703125</LatitudeDegrees>
              <LongitudeDegrees>-5.406665168702602386474609375</LongitudeDegrees>
            </Position>
            <AltitudeMeters>70.59999847412109375</AltitudeMeters>
            <DistanceMeters>NAN</DistanceMeters>
          </Trackpoint>
          <Trackpoint>
            <Time>2019-01-04T11:42:25.000Z</Time>
            <Position>
              <LatitudeDegrees>36.485756300389766693115234375</LatitudeDegrees>
              <LongitudeDegrees>-5.4066789150238037109375</LongitudeDegrees>
            </Position>
            <AltitudeMeters>70.59999847412109375</AltitudeMeters>
            <DistanceMeters>NAN</DistanceMeters>
          </Trackpoint>
          <Trackpoint>
            <Time>2019-01-04T11:42:26.000Z</Time>
            <Position>
              <LatitudeDegrees>36.48574599064886569976806640625</LatitudeDegrees>
              <LongitudeDegrees>-5.4066921584308147430419921875</LongitudeDegrees>
            </Position>
            <AltitudeMeters>70.59999847412109375</AltitudeMeters>
            <DistanceMeters>NAN</DistanceMeters>
          </Trackpoint>
          <Trackpoint>
            <Time>2019-01-04T11:42:27.000Z</Time>
            <Position>
              <LatitudeDegrees>36.4857353456318378448486328125</LatitudeDegrees>
              <LongitudeDegrees>-5.4067028872668743133544921875</LongitudeDegrees>
            </Position>
            <AltitudeMeters>70.59999847412109375</AltitudeMeters>
            <DistanceMeters>NAN</DistanceMeters>
          </Trackpoint>
          <Trackpoint>
            <Time>2019-01-04T11:42:28.000Z</Time>
            <Position>
              <LatitudeDegrees>36.48572101257741451263427734375</LatitudeDegrees>
              <LongitudeDegrees>-5.40671168826520442962646484375</LongitudeDegrees>
            </Position>
            <AltitudeMeters>70.59999847412109375</AltitudeMeters>
            <DistanceMeters>NAN</DistanceMeters>
          </Trackpoint>
          <Trackpoint>
            <Time>2019-01-04T11:42:29.000Z</Time>
            <Position>
              <LatitudeDegrees>36.4857096970081329345703125</LatitudeDegrees>
              <LongitudeDegrees>-5.4067243449389934539794921875</LongitudeDegrees>
            </Position>
            <AltitudeMeters>70.59999847412109375</AltitudeMeters>
            <DistanceMeters>NAN</DistanceMeters>
          </Trackpoint>
          <Trackpoint>
            <Time>2019-01-04T11:42:30.000Z</Time>
            <Position>
              <LatitudeDegrees>36.4856991358101367950439453125</LatitudeDegrees>
              <LongitudeDegrees>-5.4067347384989261627197265625</LongitudeDegrees>
            </Position>
            <AltitudeMeters>70.59999847412109375</AltitudeMeters>
            <DistanceMeters>NAN</DistanceMeters>
          </Trackpoint>
          <Trackpoint>
            <Time>2019-01-04T11:42:31.000Z</Time>
            <Position>
              <LatitudeDegrees>36.4856890775263309478759765625</LatitudeDegrees>
              <LongitudeDegrees>-5.40674840100109577178955078125</LongitudeDegrees>
            </Position>
            <AltitudeMeters>70.8000030517578125</AltitudeMeters>
            <DistanceMeters>NAN</DistanceMeters>
          </Trackpoint>
          <Trackpoint>
            <Time>2019-01-04T11:42:32.000Z</Time>
            <Position>
              <LatitudeDegrees>36.48567910306155681610107421875</LatitudeDegrees>
              <LongitudeDegrees>-5.40676273405551910400390625</LongitudeDegrees>
            </Position>
            <AltitudeMeters>70.8000030517578125</AltitudeMeters>
            <DistanceMeters>NAN</DistanceMeters>
          </Trackpoint>
          <Trackpoint>
            <Time>2019-01-04T11:42:33.000Z</Time>
            <Position>
              <LatitudeDegrees>36.48566879332065582275390625</LatitudeDegrees>
              <LongitudeDegrees>-5.406775809824466705322265625</LongitudeDegrees>
            </Position>
            <AltitudeMeters>70.8000030517578125</AltitudeMeters>
            <DistanceMeters>NAN</DistanceMeters>
          </Trackpoint>
          <Trackpoint>
            <Time>2019-01-04T11:42:34.000Z</Time>
            <Position>
              <LatitudeDegrees>36.48565496318042278289794921875</LatitudeDegrees>
              <LongitudeDegrees>-5.40678796358406543731689453125</LongitudeDegrees>
            </Position>
            <AltitudeMeters>70.8000030517578125</AltitudeMeters>
            <DistanceMeters>NAN</DistanceMeters>
          </Trackpoint>
          <Trackpoint>
            <Time>2019-01-04T11:42:35.000Z</Time>
            <Position>
              <LatitudeDegrees>36.485640965402126312255859375</LatitudeDegrees>
              <LongitudeDegrees>-5.40679919533431529998779296875</LongitudeDegrees>
            </Position>
            <AltitudeMeters>70.8000030517578125</AltitudeMeters>
            <DistanceMeters>NAN</DistanceMeters>
          </Trackpoint>
          <Trackpoint>
            <Time>2019-01-04T11:42:36.000Z</Time>
            <Position>
              <LatitudeDegrees>36.4856260456144809722900390625</LatitudeDegrees>
              <LongitudeDegrees>-5.40680740959942340850830078125</LongitudeDegrees>
            </Position>
            <AltitudeMeters>70.8000030517578125</AltitudeMeters>
            <DistanceMeters>NAN</DistanceMeters>
          </Trackpoint>
          <Trackpoint>
            <Time>2019-01-04T11:42:37.000Z</Time>
            <Position>
              <LatitudeDegrees>36.48561389185488224029541015625</LatitudeDegrees>
              <LongitudeDegrees>-5.4068162105977535247802734375</LongitudeDegrees>
            </Position>
            <AltitudeMeters>70.8000030517578125</AltitudeMeters>
            <DistanceMeters>NAN</DistanceMeters>
          </Trackpoint>
          <Trackpoint>
            <Time>2019-01-04T11:42:38.000Z</Time>
            <Position>
              <LatitudeDegrees>36.48560098372399806976318359375</LatitudeDegrees>
              <LongitudeDegrees>-5.4068276099860668182373046875</LongitudeDegrees>
            </Position>
            <AltitudeMeters>70.8000030517578125</AltitudeMeters>
            <DistanceMeters>NAN</DistanceMeters>
          </Trackpoint>
          <Trackpoint>
            <Time>2019-01-04T11:42:39.000Z</Time>
            <Position>
              <LatitudeDegrees>36.48559059016406536102294921875</LatitudeDegrees>
              <LongitudeDegrees>-5.40684294886887073516845703125</LongitudeDegrees>
            </Position>
            <AltitudeMeters>70.8000030517578125</AltitudeMeters>
            <DistanceMeters>NAN</DistanceMeters>
          </Trackpoint>
          <Trackpoint>
            <Time>2019-01-04T11:42:40.000Z</Time>
            <Position>
              <LatitudeDegrees>36.48558019660413265228271484375</LatitudeDegrees>
              <LongitudeDegrees>-5.4068587906658649444580078125</LongitudeDegrees>
            </Position>
            <AltitudeMeters>70.8000030517578125</AltitudeMeters>
            <DistanceMeters>NAN</DistanceMeters>
          </Trackpoint>
          <Trackpoint>
            <Time>2019-01-04T11:42:41.000Z</Time>
            <Position>
              <LatitudeDegrees>36.48556955158710479736328125</LatitudeDegrees>
              <LongitudeDegrees>-5.40687002241611480712890625</LongitudeDegrees>
            </Position>
            <AltitudeMeters>71</AltitudeMeters>
            <DistanceMeters>NAN</DistanceMeters>
          </Trackpoint>
          <Trackpoint>
            <Time>2019-01-04T11:42:42.000Z</Time>
            <Position>
              <LatitudeDegrees>36.4855549670755863189697265625</LatitudeDegrees>
              <LongitudeDegrees>-5.40687865577638149261474609375</LongitudeDegrees>
            </Position>
            <AltitudeMeters>71</AltitudeMeters>
            <DistanceMeters>NAN</DistanceMeters>
          </Trackpoint>
          <Trackpoint>
            <Time>2019-01-04T11:42:43.000Z</Time>
            <Position>
              <LatitudeDegrees>36.4855442382395267486572265625</LatitudeDegrees>
              <LongitudeDegrees>-5.40689139626920223236083984375</LongitudeDegrees>
            </Position>
            <AltitudeMeters>71</AltitudeMeters>
            <DistanceMeters>NAN</DistanceMeters>
          </Trackpoint>
          <Trackpoint>
            <Time>2019-01-04T11:42:44.000Z</Time>
            <Position>
              <LatitudeDegrees>36.48553334176540374755859375</LatitudeDegrees>
              <LongitudeDegrees>-5.40690665133297443389892578125</LongitudeDegrees>
            </Position>
            <AltitudeMeters>71</AltitudeMeters>
            <DistanceMeters>NAN</DistanceMeters>
          </Trackpoint>
          <Trackpoint>
            <Time>2019-01-04T11:42:45.000Z</Time>
            <Position>
              <LatitudeDegrees>36.48552135564386844635009765625</LatitudeDegrees>
              <LongitudeDegrees>-5.406921990215778350830078125</LongitudeDegrees>
            </Position>
            <AltitudeMeters>71.1999969482421875</AltitudeMeters>
            <DistanceMeters>NAN</DistanceMeters>
          </Trackpoint>
          <Trackpoint>
            <Time>2019-01-04T11:42:46.000Z</Time>
            <Position>
              <LatitudeDegrees>36.485510878264904022216796875</LatitudeDegrees>
              <LongitudeDegrees>-5.4069382511079311370849609375</LongitudeDegrees>
            </Position>
            <AltitudeMeters>71.40000152587890625</AltitudeMeters>
            <DistanceMeters>NAN</DistanceMeters>
          </Trackpoint>
          <Trackpoint>
            <Time>2019-01-04T11:42:47.000Z</Time>
            <Position>
              <LatitudeDegrees>36.48550040088593959808349609375</LatitudeDegrees>
              <LongitudeDegrees>-5.40695459581911563873291015625</LongitudeDegrees>
            </Position>
            <AltitudeMeters>71.40000152587890625</AltitudeMeters>
            <DistanceMeters>NAN</DistanceMeters>
          </Trackpoint>
          <Trackpoint>
            <Time>2019-01-04T11:42:48.000Z</Time>
            <Position>
              <LatitudeDegrees>36.48548916913568973541259765625</LatitudeDegrees>
              <LongitudeDegrees>-5.4069717787206172943115234375</LongitudeDegrees>
            </Position>
            <AltitudeMeters>71.59999847412109375</AltitudeMeters>
            <DistanceMeters>NAN</DistanceMeters>
          </Trackpoint>
          <Trackpoint>
            <Time>2019-01-04T11:42:49.000Z</Time>
            <Position>
              <LatitudeDegrees>36.4854771830141544342041015625</LatitudeDegrees>
              <LongitudeDegrees>-5.4069882072508335113525390625</LongitudeDegrees>
            </Position>
            <AltitudeMeters>71.59999847412109375</AltitudeMeters>
            <DistanceMeters>NAN</DistanceMeters>
          </Trackpoint>
          <Trackpoint>
            <Time>2019-01-04T11:42:50.000Z</Time>
            <Position>
              <LatitudeDegrees>36.4854644425213336944580078125</LatitudeDegrees>
              <LongitudeDegrees>-5.4070016182959079742431640625</LongitudeDegrees>
            </Position>
            <AltitudeMeters>71.59999847412109375</AltitudeMeters>
            <DistanceMeters>NAN</DistanceMeters>
          </Trackpoint>
          <Trackpoint>
            <Time>2019-01-04T11:42:51.000Z</Time>
            <Position>
              <LatitudeDegrees>36.48545379750430583953857421875</LatitudeDegrees>
              <LongitudeDegrees>-5.40701343677937984466552734375</LongitudeDegrees>
            </Position>
            <AltitudeMeters>71.59999847412109375</AltitudeMeters>
            <DistanceMeters>NAN</DistanceMeters>
          </Trackpoint>
          <Trackpoint>
            <Time>2019-01-04T11:42:52.000Z</Time>
            <Position>
              <LatitudeDegrees>36.485442817211151123046875</LatitudeDegrees>
              <LongitudeDegrees>-5.40702433325350284576416015625</LongitudeDegrees>
            </Position>
            <AltitudeMeters>71.59999847412109375</AltitudeMeters>
            <DistanceMeters>NAN</DistanceMeters>
          </Trackpoint>
          <Trackpoint>
            <Time>2019-01-04T11:42:53.000Z</Time>
            <Position>
              <LatitudeDegrees>36.4854325912892818450927734375</LatitudeDegrees>
              <LongitudeDegrees>-5.40703690610826015472412109375</LongitudeDegrees>
            </Position>
            <AltitudeMeters>71.59999847412109375</AltitudeMeters>
            <DistanceMeters>NAN</DistanceMeters>
          </Trackpoint>
          <Trackpoint>
            <Time>2019-01-04T11:42:54.000Z</Time>
            <Position>
              <LatitudeDegrees>36.4854208566248416900634765625</LatitudeDegrees>
              <LongitudeDegrees>-5.40704914368689060211181640625</LongitudeDegrees>
            </Position>
            <AltitudeMeters>71.40000152587890625</AltitudeMeters>
            <DistanceMeters>NAN</DistanceMeters>
          </Trackpoint>
          <Trackpoint>
            <Time>2019-01-04T11:42:55.000Z</Time>
            <Position>
              <LatitudeDegrees>36.4854091219604015350341796875</LatitudeDegrees>
              <LongitudeDegrees>-5.4070596210658550262451171875</LongitudeDegrees>
            </Position>
            <AltitudeMeters>71.1999969482421875</AltitudeMeters>
            <DistanceMeters>NAN</DistanceMeters>
          </Trackpoint>
          <Trackpoint>
            <Time>2019-01-04T11:42:56.000Z</Time>
            <Position>
              <LatitudeDegrees>36.4854007400572299957275390625</LatitudeDegrees>
              <LongitudeDegrees>-5.40707412175834178924560546875</LongitudeDegrees>
            </Position>
            <AltitudeMeters>71</AltitudeMeters>
            <DistanceMeters>NAN</DistanceMeters>
          </Trackpoint>
          <Trackpoint>
            <Time>2019-01-04T11:42:57.000Z</Time>
            <Position>
              <LatitudeDegrees>36.485390849411487579345703125</LatitudeDegrees>
              <LongitudeDegrees>-5.40708837099373340606689453125</LongitudeDegrees>
            </Position>
            <AltitudeMeters>70.8000030517578125</AltitudeMeters>
            <DistanceMeters>NAN</DistanceMeters>
          </Trackpoint>
          <Trackpoint>
            <Time>2019-01-04T11:42:58.000Z</Time>
            <Position>
              <LatitudeDegrees>36.48538070730865001678466796875</LatitudeDegrees>
              <LongitudeDegrees>-5.40709993802011013031005859375</LongitudeDegrees>
            </Position>
            <AltitudeMeters>70.59999847412109375</AltitudeMeters>
            <DistanceMeters>NAN</DistanceMeters>
          </Trackpoint>
          <Trackpoint>
            <Time>2019-01-04T11:42:59.000Z</Time>
            <Position>
              <LatitudeDegrees>36.4853709004819393157958984375</LatitudeDegrees>
              <LongitudeDegrees>-5.40711200796067714691162109375</LongitudeDegrees>
            </Position>
            <AltitudeMeters>70.59999847412109375</AltitudeMeters>
            <DistanceMeters>NAN</DistanceMeters>
          </Trackpoint>
          <Trackpoint>
            <Time>2019-01-04T11:43:00.000Z</Time>
            <Position>
              <LatitudeDegrees>36.4853608421981334686279296875</LatitudeDegrees>
              <LongitudeDegrees>-5.40712508372962474822998046875</LongitudeDegrees>
            </Position>
            <AltitudeMeters>70.59999847412109375</AltitudeMeters>
            <DistanceMeters>NAN</DistanceMeters>
          </Trackpoint>
          <Trackpoint>
            <Time>2019-01-04T11:43:01.000Z</Time>
            <Position>
              <LatitudeDegrees>36.4853517897427082061767578125</LatitudeDegrees>
              <LongitudeDegrees>-5.40713950060307979583740234375</LongitudeDegrees>
            </Position>
            <AltitudeMeters>70.59999847412109375</AltitudeMeters>
            <DistanceMeters>NAN</DistanceMeters>
          </Trackpoint>
          <Trackpoint>
            <Time>2019-01-04T11:43:02.000Z</Time>
            <Position>
              <LatitudeDegrees>36.4853424020111560821533203125</LatitudeDegrees>
              <LongitudeDegrees>-5.4071531631052494049072265625</LongitudeDegrees>
            </Position>
            <AltitudeMeters>70.8000030517578125</AltitudeMeters>
            <DistanceMeters>NAN</DistanceMeters>
          </Trackpoint>
          <Trackpoint>
            <Time>2019-01-04T11:43:03.000Z</Time>
            <Position>
              <LatitudeDegrees>36.48533209227025508880615234375</LatitudeDegrees>
              <LongitudeDegrees>-5.407164394855499267578125</LongitudeDegrees>
            </Position>
            <AltitudeMeters>71</AltitudeMeters>
            <DistanceMeters>NAN</DistanceMeters>
          </Trackpoint>
          <Trackpoint>
            <Time>2019-01-04T11:43:04.000Z</Time>
            <Position>
              <LatitudeDegrees>36.4853219501674175262451171875</LatitudeDegrees>
              <LongitudeDegrees>-5.407175123691558837890625</LongitudeDegrees>
            </Position>
            <AltitudeMeters>71</AltitudeMeters>
            <DistanceMeters>NAN</DistanceMeters>
          </Trackpoint>
          <Trackpoint>
            <Time>2019-01-04T11:43:05.000Z</Time>
            <Position>
              <LatitudeDegrees>36.48531113751232624053955078125</LatitudeDegrees>
              <LongitudeDegrees>-5.40718610398471355438232421875</LongitudeDegrees>
            </Position>
            <AltitudeMeters>71.1999969482421875</AltitudeMeters>
            <DistanceMeters>NAN</DistanceMeters>
          </Trackpoint>
          <Trackpoint>
            <Time>2019-01-04T11:43:06.000Z</Time>
            <Position>
              <LatitudeDegrees>36.48530267179012298583984375</LatitudeDegrees>
              <LongitudeDegrees>-5.4071979224681854248046875</LongitudeDegrees>
            </Position>
            <AltitudeMeters>71.40000152587890625</AltitudeMeters>
            <DistanceMeters>NAN</DistanceMeters>
          </Trackpoint>
          <Trackpoint>
            <Time>2019-01-04T11:43:07.000Z</Time>
            <Position>
              <LatitudeDegrees>36.48529504425823688507080078125</LatitudeDegrees>
              <LongitudeDegrees>-5.4072121717035770416259765625</LongitudeDegrees>
            </Position>
            <AltitudeMeters>71.59999847412109375</AltitudeMeters>
            <DistanceMeters>NAN</DistanceMeters>
          </Trackpoint>
          <Trackpoint>
            <Time>2019-01-04T11:43:08.000Z</Time>
            <Position>
              <LatitudeDegrees>36.48528783582150936126708984375</LatitudeDegrees>
              <LongitudeDegrees>-5.4072265885770320892333984375</LongitudeDegrees>
            </Position>
            <AltitudeMeters>71.59999847412109375</AltitudeMeters>
            <DistanceMeters>NAN</DistanceMeters>
          </Trackpoint>
          <Trackpoint>
            <Time>2019-01-04T11:43:09.000Z</Time>
            <Position>
              <LatitudeDegrees>36.48528196848928928375244140625</LatitudeDegrees>
              <LongitudeDegrees>-5.40724159218370914459228515625</LongitudeDegrees>
            </Position>
            <AltitudeMeters>71.8000030517578125</AltitudeMeters>
            <DistanceMeters>NAN</DistanceMeters>
          </Trackpoint>
          <Trackpoint>
            <Time>2019-01-04T11:43:10.000Z</Time>
            <Position>
              <LatitudeDegrees>36.48527710698544979095458984375</LatitudeDegrees>
              <LongitudeDegrees>-5.4072581045329570770263671875</LongitudeDegrees>
            </Position>
            <AltitudeMeters>71.8000030517578125</AltitudeMeters>
            <DistanceMeters>NAN</DistanceMeters>
          </Trackpoint>
          <Trackpoint>
            <Time>2019-01-04T11:43:11.000Z</Time>
            <Position>
              <LatitudeDegrees>36.485273502767086029052734375</LatitudeDegrees>
              <LongitudeDegrees>-5.4072748683393001556396484375</LongitudeDegrees>
            </Position>
            <AltitudeMeters>71.8000030517578125</AltitudeMeters>
            <DistanceMeters>NAN</DistanceMeters>
          </Trackpoint>
          <Trackpoint>
            <Time>2019-01-04T11:43:12.000Z</Time>
            <Position>
              <LatitudeDegrees>36.48527023382484912872314453125</LatitudeDegrees>
              <LongitudeDegrees>-5.40729355998337268829345703125</LongitudeDegrees>
            </Position>
            <AltitudeMeters>71.8000030517578125</AltitudeMeters>
            <DistanceMeters>NAN</DistanceMeters>
          </Trackpoint>
          <Trackpoint>
            <Time>2019-01-04T11:43:13.000Z</Time>
            <Position>
              <LatitudeDegrees>36.4852673001587390899658203125</LatitudeDegrees>
              <LongitudeDegrees>-5.407312922179698944091796875</LongitudeDegrees>
            </Position>
            <AltitudeMeters>71.8000030517578125</AltitudeMeters>
            <DistanceMeters>NAN</DistanceMeters>
          </Trackpoint>
          <Trackpoint>
            <Time>2019-01-04T11:43:14.000Z</Time>
            <Position>
              <LatitudeDegrees>36.48526570759713649749755859375</LatitudeDegrees>
              <LongitudeDegrees>-5.40732993744313716888427734375</LongitudeDegrees>
            </Position>
            <AltitudeMeters>71.59999847412109375</AltitudeMeters>
            <DistanceMeters>NAN</DistanceMeters>
          </Trackpoint>
          <Trackpoint>
            <Time>2019-01-04T11:43:15.000Z</Time>
            <Position>
              <LatitudeDegrees>36.4852639473974704742431640625</LatitudeDegrees>
              <LongitudeDegrees>-5.40734686888754367828369140625</LongitudeDegrees>
            </Position>
            <AltitudeMeters>71.59999847412109375</AltitudeMeters>
            <DistanceMeters>NAN</DistanceMeters>
          </Trackpoint>
          <Trackpoint>
            <Time>2019-01-04T11:43:16.000Z</Time>
            <Position>
              <LatitudeDegrees>36.4852626062929630279541015625</LatitudeDegrees>
              <LongitudeDegrees>-5.40736597962677478790283203125</LongitudeDegrees>
            </Position>
            <AltitudeMeters>71.40000152587890625</AltitudeMeters>
            <DistanceMeters>NAN</DistanceMeters>
          </Trackpoint>
          <Trackpoint>
            <Time>2019-01-04T11:43:17.000Z</Time>
            <Position>
              <LatitudeDegrees>36.48526151664555072784423828125</LatitudeDegrees>
              <LongitudeDegrees>-5.40738475508987903594970703125</LongitudeDegrees>
            </Position>
            <AltitudeMeters>71.40000152587890625</AltitudeMeters>
            <DistanceMeters>NAN</DistanceMeters>
          </Trackpoint>
          <Trackpoint>
            <Time>2019-01-04T11:43:18.000Z</Time>
            <Position>
              <LatitudeDegrees>36.48526243865489959716796875</LatitudeDegrees>
              <LongitudeDegrees>-5.40740302763879299163818359375</LongitudeDegrees>
            </Position>
            <AltitudeMeters>71.1999969482421875</AltitudeMeters>
            <DistanceMeters>NAN</DistanceMeters>
          </Trackpoint>
          <Trackpoint>
            <Time>2019-01-04T11:43:19.000Z</Time>
            <Position>
              <LatitudeDegrees>36.48526646196842193603515625</LatitudeDegrees>
              <LongitudeDegrees>-5.4074220545589923858642578125</LongitudeDegrees>
            </Position>
            <AltitudeMeters>71</AltitudeMeters>
            <DistanceMeters>NAN</DistanceMeters>
          </Trackpoint>
          <Trackpoint>
            <Time>2019-01-04T11:43:20.000Z</Time>
            <Position>
              <LatitudeDegrees>36.48527291603386402130126953125</LatitudeDegrees>
              <LongitudeDegrees>-5.40744091384112834930419921875</LongitudeDegrees>
            </Position>
            <AltitudeMeters>70.8000030517578125</AltitudeMeters>
            <DistanceMeters>NAN</DistanceMeters>
          </Trackpoint>
          <Trackpoint>
            <Time>2019-01-04T11:43:21.000Z</Time>
            <Position>
              <LatitudeDegrees>36.48527760989964008331298828125</LatitudeDegrees>
              <LongitudeDegrees>-5.4074607789516448974609375</LongitudeDegrees>
            </Position>
            <AltitudeMeters>70.8000030517578125</AltitudeMeters>
            <DistanceMeters>NAN</DistanceMeters>
          </Trackpoint>
          <Trackpoint>
            <Time>2019-01-04T11:43:22.000Z</Time>
            <Position>
              <LatitudeDegrees>36.485281884670257568359375</LatitudeDegrees>
              <LongitudeDegrees>-5.40747913531959056854248046875</LongitudeDegrees>
            </Position>
            <AltitudeMeters>70.59999847412109375</AltitudeMeters>
            <DistanceMeters>NAN</DistanceMeters>
          </Trackpoint>
          <Trackpoint>
            <Time>2019-01-04T11:43:23.000Z</Time>
            <Position>
              <LatitudeDegrees>36.48528632707893848419189453125</LatitudeDegrees>
              <LongitudeDegrees>-5.40749623440206050872802734375</LongitudeDegrees>
            </Position>
            <AltitudeMeters>70.59999847412109375</AltitudeMeters>
            <DistanceMeters>NAN</DistanceMeters>
          </Trackpoint>
          <Trackpoint>
            <Time>2019-01-04T11:43:24.000Z</Time>
            <Position>
              <LatitudeDegrees>36.48529303260147571563720703125</LatitudeDegrees>
              <LongitudeDegrees>-5.4075125791132450103759765625</LongitudeDegrees>
            </Position>
            <AltitudeMeters>70.40000152587890625</AltitudeMeters>
            <DistanceMeters>NAN</DistanceMeters>
          </Trackpoint>
          <Trackpoint>
            <Time>2019-01-04T11:43:25.000Z</Time>
            <Position>
              <LatitudeDegrees>36.4853004924952983856201171875</LatitudeDegrees>
              <LongitudeDegrees>-5.40752875618636608123779296875</LongitudeDegrees>
            </Position>
            <AltitudeMeters>70.40000152587890625</AltitudeMeters>
            <DistanceMeters>NAN</DistanceMeters>
          </Trackpoint>
          <Trackpoint>
            <Time>2019-01-04T11:43:26.000Z</Time>
            <Position>
              <LatitudeDegrees>36.4853085391223430633544921875</LatitudeDegrees>
              <LongitudeDegrees>-5.4075434245169162750244140625</LongitudeDegrees>
            </Position>
            <AltitudeMeters>70.40000152587890625</AltitudeMeters>
            <DistanceMeters>NAN</DistanceMeters>
          </Trackpoint>
          <Trackpoint>
            <Time>2019-01-04T11:43:27.000Z</Time>
            <Position>
              <LatitudeDegrees>36.485314071178436279296875</LatitudeDegrees>
              <LongitudeDegrees>-5.4075586795806884765625</LongitudeDegrees>
            </Position>
            <AltitudeMeters>70.40000152587890625</AltitudeMeters>
            <DistanceMeters>NAN</DistanceMeters>
          </Trackpoint>
          <Trackpoint>
            <Time>2019-01-04T11:43:28.000Z</Time>
            <Position>
              <LatitudeDegrees>36.48532069288194179534912109375</LatitudeDegrees>
              <LongitudeDegrees>-5.4075756110250949859619140625</LongitudeDegrees>
            </Position>
            <AltitudeMeters>70.1999969482421875</AltitudeMeters>
            <DistanceMeters>NAN</DistanceMeters>
          </Trackpoint>
          <Trackpoint>
            <Time>2019-01-04T11:43:29.000Z</Time>
            <Position>
              <LatitudeDegrees>36.48532941006124019622802734375</LatitudeDegrees>
              <LongitudeDegrees>-5.40759128518402576446533203125</LongitudeDegrees>
            </Position>
            <AltitudeMeters>70.1999969482421875</AltitudeMeters>
            <DistanceMeters>NAN</DistanceMeters>
          </Trackpoint>
          <Trackpoint>
            <Time>2019-01-04T11:43:30.000Z</Time>
            <Position>
              <LatitudeDegrees>36.48533754050731658935546875</LatitudeDegrees>
              <LongitudeDegrees>-5.407607965171337127685546875</LongitudeDegrees>
            </Position>
            <AltitudeMeters>70.1999969482421875</AltitudeMeters>
            <DistanceMeters>NAN</DistanceMeters>
          </Trackpoint>
          <Trackpoint>
            <Time>2019-01-04T11:43:31.000Z</Time>
            <Position>
              <LatitudeDegrees>36.48534785024821758270263671875</LatitudeDegrees>
              <LongitudeDegrees>-5.40762313641607761383056640625</LongitudeDegrees>
            </Position>
            <AltitudeMeters>70</AltitudeMeters>
            <DistanceMeters>NAN</DistanceMeters>
          </Trackpoint>
          <Trackpoint>
            <Time>2019-01-04T11:43:32.000Z</Time>
            <Position>
              <LatitudeDegrees>36.4853584952652454376220703125</LatitudeDegrees>
              <LongitudeDegrees>-5.40763906203210353851318359375</LongitudeDegrees>
            </Position>
            <AltitudeMeters>70</AltitudeMeters>
            <DistanceMeters>NAN</DistanceMeters>
          </Trackpoint>
          <Trackpoint>
            <Time>2019-01-04T11:43:33.000Z</Time>
            <Position>
              <LatitudeDegrees>36.48536578752100467681884765625</LatitudeDegrees>
              <LongitudeDegrees>-5.40765264071524143218994140625</LongitudeDegrees>
            </Position>
            <AltitudeMeters>69.8000030517578125</AltitudeMeters>
            <DistanceMeters>NAN</DistanceMeters>
          </Trackpoint>
          <Trackpoint>
            <Time>2019-01-04T11:43:34.000Z</Time>
            <Position>
              <LatitudeDegrees>36.48537299595773220062255859375</LatitudeDegrees>
              <LongitudeDegrees>-5.40766437537968158721923828125</LongitudeDegrees>
            </Position>
            <AltitudeMeters>69.8000030517578125</AltitudeMeters>
            <DistanceMeters>NAN</DistanceMeters>
          </Trackpoint>
          <Trackpoint>
            <Time>2019-01-04T11:43:35.000Z</Time>
            <Position>
              <LatitudeDegrees>36.48537986911833286285400390625</LatitudeDegrees>
              <LongitudeDegrees>-5.4076788760721683502197265625</LongitudeDegrees>
            </Position>
            <AltitudeMeters>69.59999847412109375</AltitudeMeters>
            <DistanceMeters>NAN</DistanceMeters>
          </Trackpoint>
          <Trackpoint>
            <Time>2019-01-04T11:43:36.000Z</Time>
            <Position>
              <LatitudeDegrees>36.4853896759450435638427734375</LatitudeDegrees>
              <LongitudeDegrees>-5.40769455023109912872314453125</LongitudeDegrees>
            </Position>
            <AltitudeMeters>69.59999847412109375</AltitudeMeters>
            <DistanceMeters>NAN</DistanceMeters>
          </Trackpoint>
          <Trackpoint>
            <Time>2019-01-04T11:43:37.000Z</Time>
            <Position>
              <LatitudeDegrees>36.48539965040981769561767578125</LatitudeDegrees>
              <LongitudeDegrees>-5.407711900770664215087890625</LongitudeDegrees>
            </Position>
            <AltitudeMeters>69.59999847412109375</AltitudeMeters>
            <DistanceMeters>NAN</DistanceMeters>
          </Trackpoint>
          <Trackpoint>
            <Time>2019-01-04T11:43:38.000Z</Time>
            <Position>
              <LatitudeDegrees>36.485408954322338104248046875</LatitudeDegrees>
              <LongitudeDegrees>-5.40772841311991214752197265625</LongitudeDegrees>
            </Position>
            <AltitudeMeters>69.59999847412109375</AltitudeMeters>
            <DistanceMeters>NAN</DistanceMeters>
          </Trackpoint>
          <Trackpoint>
            <Time>2019-01-04T11:43:39.000Z</Time>
            <Position>
              <LatitudeDegrees>36.48541758768260478973388671875</LatitudeDegrees>
              <LongitudeDegrees>-5.407745428383350372314453125</LongitudeDegrees>
            </Position>
            <AltitudeMeters>69.40000152587890625</AltitudeMeters>
            <DistanceMeters>NAN</DistanceMeters>
          </Trackpoint>
          <Trackpoint>
            <Time>2019-01-04T11:43:40.000Z</Time>
            <Position>
              <LatitudeDegrees>36.48542739450931549072265625</LatitudeDegrees>
              <LongitudeDegrees>-5.40776185691356658935546875</LongitudeDegrees>
            </Position>
            <AltitudeMeters>69.40000152587890625</AltitudeMeters>
            <DistanceMeters>NAN</DistanceMeters>
          </Trackpoint>
          <Trackpoint>
            <Time>2019-01-04T11:43:41.000Z</Time>
            <Position>
              <LatitudeDegrees>36.4854379557073116302490234375</LatitudeDegrees>
              <LongitudeDegrees>-5.4077757708728313446044921875</LongitudeDegrees>
            </Position>
            <AltitudeMeters>69.40000152587890625</AltitudeMeters>
            <DistanceMeters>NAN</DistanceMeters>
          </Trackpoint>
          <Trackpoint>
            <Time>2019-01-04T11:43:42.000Z</Time>
            <Position>
              <LatitudeDegrees>36.48544751107692718505859375</LatitudeDegrees>
              <LongitudeDegrees>-5.4077880084514617919921875</LongitudeDegrees>
            </Position>
            <AltitudeMeters>69.1999969482421875</AltitudeMeters>
            <DistanceMeters>NAN</DistanceMeters>
          </Trackpoint>
          <Trackpoint>
            <Time>2019-01-04T11:43:43.000Z</Time>
            <Position>
              <LatitudeDegrees>36.4854548871517181396484375</LatitudeDegrees>
              <LongitudeDegrees>-5.4078032635152339935302734375</LongitudeDegrees>
            </Position>
            <AltitudeMeters>69</AltitudeMeters>
            <DistanceMeters>NAN</DistanceMeters>
          </Trackpoint>
          <Trackpoint>
            <Time>2019-01-04T11:43:44.000Z</Time>
            <Position>
              <LatitudeDegrees>36.48546318523585796356201171875</LatitudeDegrees>
              <LongitudeDegrees>-5.40781809948384761810302734375</LongitudeDegrees>
            </Position>
            <AltitudeMeters>68.8000030517578125</AltitudeMeters>
            <DistanceMeters>NAN</DistanceMeters>
          </Trackpoint>
          <Trackpoint>
            <Time>2019-01-04T11:43:45.000Z</Time>
            <Position>
              <LatitudeDegrees>36.48547207005321979522705078125</LatitudeDegrees>
              <LongitudeDegrees>-5.40783293545246124267578125</LongitudeDegrees>
            </Position>
            <AltitudeMeters>68.59999847412109375</AltitudeMeters>
            <DistanceMeters>NAN</DistanceMeters>
          </Trackpoint>
          <Trackpoint>
            <Time>2019-01-04T11:43:46.000Z</Time>
            <Position>
              <LatitudeDegrees>36.48548145778477191925048828125</LatitudeDegrees>
              <LongitudeDegrees>-5.40784760378301143646240234375</LongitudeDegrees>
            </Position>
            <AltitudeMeters>68.40000152587890625</AltitudeMeters>
            <DistanceMeters>NAN</DistanceMeters>
          </Trackpoint>
          <Trackpoint>
            <Time>2019-01-04T11:43:47.000Z</Time>
            <Position>
              <LatitudeDegrees>36.48548967204988002777099609375</LatitudeDegrees>
              <LongitudeDegrees>-5.4078612662851810455322265625</LongitudeDegrees>
            </Position>
            <AltitudeMeters>68.1999969482421875</AltitudeMeters>
            <DistanceMeters>NAN</DistanceMeters>
          </Trackpoint>
          <Trackpoint>
            <Time>2019-01-04T11:43:48.000Z</Time>
            <Position>
              <LatitudeDegrees>36.48549889214336872100830078125</LatitudeDegrees>
              <LongitudeDegrees>-5.40787425823509693145751953125</LongitudeDegrees>
            </Position>
            <AltitudeMeters>68.1999969482421875</AltitudeMeters>
            <DistanceMeters>NAN</DistanceMeters>
          </Trackpoint>
          <Trackpoint>
            <Time>2019-01-04T11:43:49.000Z</Time>
            <Position>
              <LatitudeDegrees>36.4855056814849376678466796875</LatitudeDegrees>
              <LongitudeDegrees>-5.40788833983242511749267578125</LongitudeDegrees>
            </Position>
            <AltitudeMeters>68.1999969482421875</AltitudeMeters>
            <DistanceMeters>NAN</DistanceMeters>
          </Trackpoint>
          <Trackpoint>
            <Time>2019-01-04T11:43:50.000Z</Time>
            <Position>
              <LatitudeDegrees>36.48551565594971179962158203125</LatitudeDegrees>
              <LongitudeDegrees>-5.40790133178234100341796875</LongitudeDegrees>
            </Position>
            <AltitudeMeters>68</AltitudeMeters>
            <DistanceMeters>NAN</DistanceMeters>
          </Trackpoint>
          <Trackpoint>
            <Time>2019-01-04T11:43:51.000Z</Time>
            <Position>
              <LatitudeDegrees>36.48552554659545421600341796875</LatitudeDegrees>
              <LongitudeDegrees>-5.4079142399132251739501953125</LongitudeDegrees>
            </Position>
            <AltitudeMeters>68</AltitudeMeters>
            <DistanceMeters>NAN</DistanceMeters>
          </Trackpoint>
          <Trackpoint>
            <Time>2019-01-04T11:43:52.000Z</Time>
            <Position>
              <LatitudeDegrees>36.48553560487926006317138671875</LatitudeDegrees>
              <LongitudeDegrees>-5.4079263098537921905517578125</LongitudeDegrees>
            </Position>
            <AltitudeMeters>68</AltitudeMeters>
            <DistanceMeters>NAN</DistanceMeters>
          </Trackpoint>
          <Trackpoint>
            <Time>2019-01-04T11:43:53.000Z</Time>
            <Position>
              <LatitudeDegrees>36.4855462498962879180908203125</LatitudeDegrees>
              <LongitudeDegrees>-5.4079400561749935150146484375</LongitudeDegrees>
            </Position>
            <AltitudeMeters>67.8000030517578125</AltitudeMeters>
            <DistanceMeters>NAN</DistanceMeters>
          </Trackpoint>
          <Trackpoint>
            <Time>2019-01-04T11:43:54.000Z</Time>
            <Position>
              <LatitudeDegrees>36.48555873893201351165771484375</LatitudeDegrees>
              <LongitudeDegrees>-5.40795405395328998565673828125</LongitudeDegrees>
            </Position>
            <AltitudeMeters>67.8000030517578125</AltitudeMeters>
            <DistanceMeters>NAN</DistanceMeters>
          </Trackpoint>
          <Trackpoint>
            <Time>2019-01-04T11:43:55.000Z</Time>
            <Position>
              <LatitudeDegrees>36.4855693839490413665771484375</LatitudeDegrees>
              <LongitudeDegrees>-5.40796838700771331787109375</LongitudeDegrees>
            </Position>
            <AltitudeMeters>67.8000030517578125</AltitudeMeters>
            <DistanceMeters>NAN</DistanceMeters>
          </Trackpoint>
          <Trackpoint>
            <Time>2019-01-04T11:43:56.000Z</Time>
            <Position>
              <LatitudeDegrees>36.48558271117508411407470703125</LatitudeDegrees>
              <LongitudeDegrees>-5.40797869674861431121826171875</LongitudeDegrees>
            </Position>
            <AltitudeMeters>67.59999847412109375</AltitudeMeters>
            <DistanceMeters>NAN</DistanceMeters>
          </Trackpoint>
          <Trackpoint>
            <Time>2019-01-04T11:43:57.000Z</Time>
            <Position>
              <LatitudeDegrees>36.4855943620204925537109375</LatitudeDegrees>
              <LongitudeDegrees>-5.40798875503242015838623046875</LongitudeDegrees>
            </Position>
            <AltitudeMeters>67.59999847412109375</AltitudeMeters>
            <DistanceMeters>NAN</DistanceMeters>
          </Trackpoint>
          <Trackpoint>
            <Time>2019-01-04T11:43:58.000Z</Time>
            <Position>
              <LatitudeDegrees>36.485604755580425262451171875</LatitudeDegrees>
              <LongitudeDegrees>-5.40799965150654315948486328125</LongitudeDegrees>
            </Position>
            <AltitudeMeters>67.59999847412109375</AltitudeMeters>
            <DistanceMeters>NAN</DistanceMeters>
          </Trackpoint>
          <Trackpoint>
            <Time>2019-01-04T11:43:59.000Z</Time>
            <Position>
              <LatitudeDegrees>36.48561523295938968658447265625</LatitudeDegrees>
              <LongitudeDegrees>-5.408009625971317291259765625</LongitudeDegrees>
            </Position>
            <AltitudeMeters>67.59999847412109375</AltitudeMeters>
            <DistanceMeters>NAN</DistanceMeters>
          </Trackpoint>
          <Trackpoint>
            <Time>2019-01-04T11:44:00.000Z</Time>
            <Position>
              <LatitudeDegrees>36.48562679998576641082763671875</LatitudeDegrees>
              <LongitudeDegrees>-5.40801934897899627685546875</LongitudeDegrees>
            </Position>
            <AltitudeMeters>67.59999847412109375</AltitudeMeters>
            <DistanceMeters>NAN</DistanceMeters>
          </Trackpoint>
          <Trackpoint>
            <Time>2019-01-04T11:44:01.000Z</Time>
            <Position>
              <LatitudeDegrees>36.485638283193111419677734375</LatitudeDegrees>
              <LongitudeDegrees>-5.40802949108183383941650390625</LongitudeDegrees>
            </Position>
            <AltitudeMeters>67.40000152587890625</AltitudeMeters>
            <DistanceMeters>NAN</DistanceMeters>
          </Trackpoint>
          <Trackpoint>
            <Time>2019-01-04T11:44:02.000Z</Time>
            <Position>
              <LatitudeDegrees>36.48564733564853668212890625</LatitudeDegrees>
              <LongitudeDegrees>-5.408041812479496002197265625</LongitudeDegrees>
            </Position>
            <AltitudeMeters>67.40000152587890625</AltitudeMeters>
            <DistanceMeters>NAN</DistanceMeters>
          </Trackpoint>
          <Trackpoint>
            <Time>2019-01-04T11:44:03.000Z</Time>
            <Position>
              <LatitudeDegrees>36.48565680719912052154541015625</LatitudeDegrees>
              <LongitudeDegrees>-5.4080580733716487884521484375</LongitudeDegrees>
            </Position>
            <AltitudeMeters>67.40000152587890625</AltitudeMeters>
            <DistanceMeters>NAN</DistanceMeters>
          </Trackpoint>
          <Trackpoint>
            <Time>2019-01-04T11:44:04.000Z</Time>
            <Position>
              <LatitudeDegrees>36.4856656081974506378173828125</LatitudeDegrees>
              <LongitudeDegrees>-5.408076010644435882568359375</LongitudeDegrees>
            </Position>
            <AltitudeMeters>67.40000152587890625</AltitudeMeters>
            <DistanceMeters>NAN</DistanceMeters>
          </Trackpoint>
          <Trackpoint>
            <Time>2019-01-04T11:44:05.000Z</Time>
            <Position>
              <LatitudeDegrees>36.4856708049774169921875</LatitudeDegrees>
              <LongitudeDegrees>-5.4080936126410961151123046875</LongitudeDegrees>
            </Position>
            <AltitudeMeters>67.40000152587890625</AltitudeMeters>
            <DistanceMeters>NAN</DistanceMeters>
          </Trackpoint>
          <Trackpoint>
            <Time>2019-01-04T11:44:06.000Z</Time>
            <Position>
              <LatitudeDegrees>36.4856743253767490386962890625</LatitudeDegrees>
              <LongitudeDegrees>-5.40811113081872463226318359375</LongitudeDegrees>
            </Position>
            <AltitudeMeters>67.1999969482421875</AltitudeMeters>
            <DistanceMeters>NAN</DistanceMeters>
          </Trackpoint>
          <Trackpoint>
            <Time>2019-01-04T11:44:07.000Z</Time>
            <Position>
              <LatitudeDegrees>36.485676504671573638916015625</LatitudeDegrees>
              <LongitudeDegrees>-5.40813275612890720367431640625</LongitudeDegrees>
            </Position>
            <AltitudeMeters>67.1999969482421875</AltitudeMeters>
            <DistanceMeters>NAN</DistanceMeters>
          </Trackpoint>
          <Trackpoint>
            <Time>2019-01-04T11:44:08.000Z</Time>
            <Position>
              <LatitudeDegrees>36.48567591793835163116455078125</LatitudeDegrees>
              <LongitudeDegrees>-5.408151783049106597900390625</LongitudeDegrees>
            </Position>
            <AltitudeMeters>67.1999969482421875</AltitudeMeters>
            <DistanceMeters>NAN</DistanceMeters>
          </Trackpoint>
          <Trackpoint>
            <Time>2019-01-04T11:44:09.000Z</Time>
            <Position>
              <LatitudeDegrees>36.48567256517708301544189453125</LatitudeDegrees>
              <LongitudeDegrees>-5.40816913358867168426513671875</LongitudeDegrees>
            </Position>
            <AltitudeMeters>67.1999969482421875</AltitudeMeters>
            <DistanceMeters>NAN</DistanceMeters>
          </Trackpoint>
          <Trackpoint>
            <Time>2019-01-04T11:44:10.000Z</Time>
            <Position>
              <LatitudeDegrees>36.48566636256873607635498046875</LatitudeDegrees>
              <LongitudeDegrees>-5.40818656794726848602294921875</LongitudeDegrees>
            </Position>
            <AltitudeMeters>67.1999969482421875</AltitudeMeters>
            <DistanceMeters>NAN</DistanceMeters>
          </Trackpoint>
          <Trackpoint>
            <Time>2019-01-04T11:44:11.000Z</Time>
            <Position>
              <LatitudeDegrees>36.485657729208469390869140625</LatitudeDegrees>
              <LongitudeDegrees>-5.40820173919200897216796875</LongitudeDegrees>
            </Position>
            <AltitudeMeters>67.40000152587890625</AltitudeMeters>
            <DistanceMeters>NAN</DistanceMeters>
          </Trackpoint>
          <Trackpoint>
            <Time>2019-01-04T11:44:12.000Z</Time>
            <Position>
              <LatitudeDegrees>36.485646329820156097412109375</LatitudeDegrees>
              <LongitudeDegrees>-5.4082146473228931427001953125</LongitudeDegrees>
            </Position>
            <AltitudeMeters>67.59999847412109375</AltitudeMeters>
            <DistanceMeters>NAN</DistanceMeters>
          </Trackpoint>
          <Trackpoint>
            <Time>2019-01-04T11:44:13.000Z</Time>
            <Position>
              <LatitudeDegrees>36.4856337569653987884521484375</LatitudeDegrees>
              <LongitudeDegrees>-5.40822143666446208953857421875</LongitudeDegrees>
            </Position>
            <AltitudeMeters>67.59999847412109375</AltitudeMeters>
            <DistanceMeters>NAN</DistanceMeters>
          </Trackpoint>
          <Trackpoint>
            <Time>2019-01-04T11:44:14.000Z</Time>
            <Position>
              <LatitudeDegrees>36.48561942391097545623779296875</LatitudeDegrees>
              <LongitudeDegrees>-5.40822713635861873626708984375</LongitudeDegrees>
            </Position>
            <AltitudeMeters>67.8000030517578125</AltitudeMeters>
            <DistanceMeters>NAN</DistanceMeters>
          </Trackpoint>
          <Trackpoint>
            <Time>2019-01-04T11:44:15.000Z</Time>
            <Position>
              <LatitudeDegrees>36.485604755580425262451171875</LatitudeDegrees>
              <LongitudeDegrees>-5.40822931565344333648681640625</LongitudeDegrees>
            </Position>
            <AltitudeMeters>67.8000030517578125</AltitudeMeters>
            <DistanceMeters>NAN</DistanceMeters>
          </Trackpoint>
          <Trackpoint>
            <Time>2019-01-04T11:44:16.000Z</Time>
            <Position>
              <LatitudeDegrees>36.4855891652405261993408203125</LatitudeDegrees>
              <LongitudeDegrees>-5.40822856128215789794921875</LongitudeDegrees>
            </Position>
            <AltitudeMeters>68.1999969482421875</AltitudeMeters>
            <DistanceMeters>NAN</DistanceMeters>
          </Trackpoint>
          <Trackpoint>
            <Time>2019-01-04T11:44:17.000Z</Time>
            <Position>
              <LatitudeDegrees>36.48557131178677082061767578125</LatitudeDegrees>
              <LongitudeDegrees>-5.4082263819873332977294921875</LongitudeDegrees>
            </Position>
            <AltitudeMeters>68.40000152587890625</AltitudeMeters>
            <DistanceMeters>NAN</DistanceMeters>
          </Trackpoint>
          <Trackpoint>
            <Time>2019-01-04T11:44:18.000Z</Time>
            <Position>
              <LatitudeDegrees>36.48555773310363292694091796875</LatitudeDegrees>
              <LongitudeDegrees>-5.408225543797016143798828125</LongitudeDegrees>
            </Position>
            <AltitudeMeters>68.40000152587890625</AltitudeMeters>
            <DistanceMeters>NAN</DistanceMeters>
          </Trackpoint>
          <Trackpoint>
            <Time>2019-01-04T11:44:19.000Z</Time>
            <Position>
              <LatitudeDegrees>36.4855428971350193023681640625</LatitudeDegrees>
              <LongitudeDegrees>-5.408223532140254974365234375</LongitudeDegrees>
            </Position>
            <AltitudeMeters>68.59999847412109375</AltitudeMeters>
            <DistanceMeters>NAN</DistanceMeters>
          </Trackpoint>
          <Trackpoint>
            <Time>2019-01-04T11:44:20.000Z</Time>
            <Position>
              <LatitudeDegrees>36.48552889935672283172607421875</LatitudeDegrees>
              <LongitudeDegrees>-5.40822261013090610504150390625</LongitudeDegrees>
            </Position>
            <AltitudeMeters>68.59999847412109375</AltitudeMeters>
            <DistanceMeters>NAN</DistanceMeters>
          </Trackpoint>
          <Trackpoint>
            <Time>2019-01-04T11:44:21.000Z</Time>
            <Position>
              <LatitudeDegrees>36.48551247082650661468505859375</LatitudeDegrees>
              <LongitudeDegrees>-5.40822043083608150482177734375</LongitudeDegrees>
            </Position>
            <AltitudeMeters>68.59999847412109375</AltitudeMeters>
            <DistanceMeters>NAN</DistanceMeters>
          </Trackpoint>
          <Trackpoint>
            <Time>2019-01-04T11:44:22.000Z</Time>
            <Position>
              <LatitudeDegrees>36.485500149428844451904296875</LatitudeDegrees>
              <LongitudeDegrees>-5.4082186706364154815673828125</LongitudeDegrees>
            </Position>
            <AltitudeMeters>68.59999847412109375</AltitudeMeters>
            <DistanceMeters>NAN</DistanceMeters>
          </Trackpoint>
          <Trackpoint>
            <Time>2019-01-04T11:44:23.000Z</Time>
            <Position>
              <LatitudeDegrees>36.48548900149762630462646484375</LatitudeDegrees>
              <LongitudeDegrees>-5.408218838274478912353515625</LongitudeDegrees>
            </Position>
            <AltitudeMeters>68.59999847412109375</AltitudeMeters>
            <DistanceMeters>NAN</DistanceMeters>
          </Trackpoint>
          <Trackpoint>
            <Time>2019-01-04T11:44:24.000Z</Time>
            <Position>
              <LatitudeDegrees>36.4854758419096469879150390625</LatitudeDegrees>
              <LongitudeDegrees>-5.40822026319801807403564453125</LongitudeDegrees>
            </Position>
            <AltitudeMeters>68.8000030517578125</AltitudeMeters>
            <DistanceMeters>NAN</DistanceMeters>
          </Trackpoint>
          <Trackpoint>
            <Time>2019-01-04T11:44:25.000Z</Time>
            <Position>
              <LatitudeDegrees>36.48546134121716022491455078125</LatitudeDegrees>
              <LongitudeDegrees>-5.40821892209351062774658203125</LongitudeDegrees>
            </Position>
            <AltitudeMeters>68.8000030517578125</AltitudeMeters>
            <DistanceMeters>NAN</DistanceMeters>
          </Trackpoint>
          <Trackpoint>
            <Time>2019-01-04T11:44:26.000Z</Time>
            <Position>
              <LatitudeDegrees>36.485445164144039154052734375</LatitudeDegrees>
              <LongitudeDegrees>-5.40821456350386142730712890625</LongitudeDegrees>
            </Position>
            <AltitudeMeters>68.8000030517578125</AltitudeMeters>
            <DistanceMeters>NAN</DistanceMeters>
          </Trackpoint>
          <Trackpoint>
            <Time>2019-01-04T11:44:27.000Z</Time>
            <Position>
              <LatitudeDegrees>36.4854315854609012603759765625</LatitudeDegrees>
              <LongitudeDegrees>-5.4082126356661319732666015625</LongitudeDegrees>
            </Position>
            <AltitudeMeters>68.8000030517578125</AltitudeMeters>
            <DistanceMeters>NAN</DistanceMeters>
          </Trackpoint>
          <Trackpoint>
            <Time>2019-01-04T11:44:28.000Z</Time>
            <Position>
              <LatitudeDegrees>36.48541758768260478973388671875</LatitudeDegrees>
              <LongitudeDegrees>-5.40821112692356109619140625</LongitudeDegrees>
            </Position>
            <AltitudeMeters>69</AltitudeMeters>
            <DistanceMeters>NAN</DistanceMeters>
          </Trackpoint>
          <Trackpoint>
            <Time>2019-01-04T11:44:29.000Z</Time>
            <Position>
              <LatitudeDegrees>36.4854027517139911651611328125</LatitudeDegrees>
              <LongitudeDegrees>-5.40820802561938762664794921875</LongitudeDegrees>
            </Position>
            <AltitudeMeters>69</AltitudeMeters>
            <DistanceMeters>NAN</DistanceMeters>
          </Trackpoint>
          <Trackpoint>
            <Time>2019-01-04T11:44:30.000Z</Time>
            <Position>
              <LatitudeDegrees>36.48538422770798206329345703125</LatitudeDegrees>
              <LongitudeDegrees>-5.40820433758199214935302734375</LongitudeDegrees>
            </Position>
            <AltitudeMeters>69.1999969482421875</AltitudeMeters>
            <DistanceMeters>NAN</DistanceMeters>
          </Trackpoint>
          <Trackpoint>
            <Time>2019-01-04T11:44:31.000Z</Time>
            <Position>
              <LatitudeDegrees>36.48536344058811664581298828125</LatitudeDegrees>
              <LongitudeDegrees>-5.4082039184868335723876953125</LongitudeDegrees>
            </Position>
            <AltitudeMeters>69.1999969482421875</AltitudeMeters>
            <DistanceMeters>NAN</DistanceMeters>
          </Trackpoint>
          <Trackpoint>
            <Time>2019-01-04T11:44:32.000Z</Time>
            <Position>
              <LatitudeDegrees>36.48534231819212436676025390625</LatitudeDegrees>
              <LongitudeDegrees>-5.4082012362778186798095703125</LongitudeDegrees>
            </Position>
            <AltitudeMeters>69.1999969482421875</AltitudeMeters>
            <DistanceMeters>NAN</DistanceMeters>
          </Trackpoint>
          <Trackpoint>
            <Time>2019-01-04T11:44:33.000Z</Time>
            <Position>
              <LatitudeDegrees>36.48532387800514698028564453125</LatitudeDegrees>
              <LongitudeDegrees>-5.408200733363628387451171875</LongitudeDegrees>
            </Position>
            <AltitudeMeters>69.1999969482421875</AltitudeMeters>
            <DistanceMeters>NAN</DistanceMeters>
          </Trackpoint>
          <Trackpoint>
            <Time>2019-01-04T11:44:34.000Z</Time>
            <Position>
              <LatitudeDegrees>36.4853071980178356170654296875</LatitudeDegrees>
              <LongitudeDegrees>-5.40820132009685039520263671875</LongitudeDegrees>
            </Position>
            <AltitudeMeters>69.1999969482421875</AltitudeMeters>
            <DistanceMeters>NAN</DistanceMeters>
          </Trackpoint>
          <Trackpoint>
            <Time>2019-01-04T11:44:35.000Z</Time>
            <Position>
              <LatitudeDegrees>36.48529269732534885406494140625</LatitudeDegrees>
              <LongitudeDegrees>-5.4081992246210575103759765625</LongitudeDegrees>
            </Position>
            <AltitudeMeters>69.1999969482421875</AltitudeMeters>
            <DistanceMeters>NAN</DistanceMeters>
          </Trackpoint>
          <Trackpoint>
            <Time>2019-01-04T11:44:36.000Z</Time>
            <Position>
              <LatitudeDegrees>36.4852786995470523834228515625</LatitudeDegrees>
              <LongitudeDegrees>-5.40819746442139148712158203125</LongitudeDegrees>
            </Position>
            <AltitudeMeters>69.1999969482421875</AltitudeMeters>
            <DistanceMeters>NAN</DistanceMeters>
          </Trackpoint>
          <Trackpoint>
            <Time>2019-01-04T11:44:37.000Z</Time>
            <Position>
              <LatitudeDegrees>36.48526352830231189727783203125</LatitudeDegrees>
              <LongitudeDegrees>-5.4081962071359157562255859375</LongitudeDegrees>
            </Position>
            <AltitudeMeters>69.1999969482421875</AltitudeMeters>
            <DistanceMeters>NAN</DistanceMeters>
          </Trackpoint>
          <Trackpoint>
            <Time>2019-01-04T11:44:38.000Z</Time>
            <Position>
              <LatitudeDegrees>36.4852461777627468109130859375</LatitudeDegrees>
              <LongitudeDegrees>-5.40819629095494747161865234375</LongitudeDegrees>
            </Position>
            <AltitudeMeters>69.40000152587890625</AltitudeMeters>
            <DistanceMeters>NAN</DistanceMeters>
          </Trackpoint>
          <Trackpoint>
            <Time>2019-01-04T11:44:39.000Z</Time>
            <Position>
              <LatitudeDegrees>36.485228575766086578369140625</LatitudeDegrees>
              <LongitudeDegrees>-5.40819914080202579498291015625</LongitudeDegrees>
            </Position>
            <AltitudeMeters>69.40000152587890625</AltitudeMeters>
            <DistanceMeters>NAN</DistanceMeters>
          </Trackpoint>
          <Trackpoint>
            <Time>2019-01-04T11:44:40.000Z</Time>
            <Position>
              <LatitudeDegrees>36.4852123148739337921142578125</LatitudeDegrees>
              <LongitudeDegrees>-5.4082010686397552490234375</LongitudeDegrees>
            </Position>
            <AltitudeMeters>69.59999847412109375</AltitudeMeters>
            <DistanceMeters>NAN</DistanceMeters>
          </Trackpoint>
          <Trackpoint>
            <Time>2019-01-04T11:44:41.000Z</Time>
            <Position>
              <LatitudeDegrees>36.4851958863437175750732421875</LatitudeDegrees>
              <LongitudeDegrees>-5.40820383466780185699462890625</LongitudeDegrees>
            </Position>
            <AltitudeMeters>69.59999847412109375</AltitudeMeters>
            <DistanceMeters>NAN</DistanceMeters>
          </Trackpoint>
          <Trackpoint>
            <Time>2019-01-04T11:44:42.000Z</Time>
            <Position>
              <LatitudeDegrees>36.48517929017543792724609375</LatitudeDegrees>
              <LongitudeDegrees>-5.408206768333911895751953125</LongitudeDegrees>
            </Position>
            <AltitudeMeters>69.59999847412109375</AltitudeMeters>
            <DistanceMeters>NAN</DistanceMeters>
          </Trackpoint>
          <Trackpoint>
            <Time>2019-01-04T11:44:43.000Z</Time>
            <Position>
              <LatitudeDegrees>36.485163867473602294921875</LatitudeDegrees>
              <LongitudeDegrees>-5.4082117974758148193359375</LongitudeDegrees>
            </Position>
            <AltitudeMeters>69.59999847412109375</AltitudeMeters>
            <DistanceMeters>NAN</DistanceMeters>
          </Trackpoint>
          <Trackpoint>
            <Time>2019-01-04T11:44:44.000Z</Time>
            <Position>
              <LatitudeDegrees>36.4851516298949718475341796875</LatitudeDegrees>
              <LongitudeDegrees>-5.4082159884274005889892578125</LongitudeDegrees>
            </Position>
            <AltitudeMeters>69.59999847412109375</AltitudeMeters>
            <DistanceMeters>NAN</DistanceMeters>
          </Trackpoint>
          <Trackpoint>
            <Time>2019-01-04T11:44:45.000Z</Time>
            <Position>
              <LatitudeDegrees>36.48513972759246826171875</LatitudeDegrees>
              <LongitudeDegrees>-5.4082171618938446044921875</LongitudeDegrees>
            </Position>
            <AltitudeMeters>69.59999847412109375</AltitudeMeters>
            <DistanceMeters>NAN</DistanceMeters>
          </Trackpoint>
          <Trackpoint>
            <Time>2019-01-04T11:44:46.000Z</Time>
            <Position>
              <LatitudeDegrees>36.48512690328061580657958984375</LatitudeDegrees>
              <LongitudeDegrees>-5.40821841917932033538818359375</LongitudeDegrees>
            </Position>
            <AltitudeMeters>69.59999847412109375</AltitudeMeters>
            <DistanceMeters>NAN</DistanceMeters>
          </Trackpoint>
          <Trackpoint>
            <Time>2019-01-04T11:44:47.000Z</Time>
            <Position>
              <LatitudeDegrees>36.48511265404522418975830078125</LatitudeDegrees>
              <LongitudeDegrees>-5.4082216881215572357177734375</LongitudeDegrees>
            </Position>
            <AltitudeMeters>69.59999847412109375</AltitudeMeters>
            <DistanceMeters>NAN</DistanceMeters>
          </Trackpoint>
          <Trackpoint>
            <Time>2019-01-04T11:44:48.000Z</Time>
            <Position>
              <LatitudeDegrees>36.48510058410465717315673828125</LatitudeDegrees>
              <LongitudeDegrees>-5.40822529233992099761962890625</LongitudeDegrees>
            </Position>
            <AltitudeMeters>69.59999847412109375</AltitudeMeters>
            <DistanceMeters>NAN</DistanceMeters>
          </Trackpoint>
          <Trackpoint>
            <Time>2019-01-04T11:44:49.000Z</Time>
            <Position>
              <LatitudeDegrees>36.4850896038115024566650390625</LatitudeDegrees>
              <LongitudeDegrees>-5.40822722017765045166015625</LongitudeDegrees>
            </Position>
            <AltitudeMeters>69.8000030517578125</AltitudeMeters>
            <DistanceMeters>NAN</DistanceMeters>
          </Trackpoint>
          <Trackpoint>
            <Time>2019-01-04T11:44:50.000Z</Time>
            <Position>
              <LatitudeDegrees>36.485075019299983978271484375</LatitudeDegrees>
              <LongitudeDegrees>-5.40822931565344333648681640625</LongitudeDegrees>
            </Position>
            <AltitudeMeters>69.8000030517578125</AltitudeMeters>
            <DistanceMeters>NAN</DistanceMeters>
          </Trackpoint>
          <Trackpoint>
            <Time>2019-01-04T11:44:51.000Z</Time>
            <Position>
              <LatitudeDegrees>36.48506152443587779998779296875</LatitudeDegrees>
              <LongitudeDegrees>-5.4082371108233928680419921875</LongitudeDegrees>
            </Position>
            <AltitudeMeters>69.8000030517578125</AltitudeMeters>
            <DistanceMeters>NAN</DistanceMeters>
          </Trackpoint>
          <Trackpoint>
            <Time>2019-01-04T11:44:52.000Z</Time>
            <Position>
              <LatitudeDegrees>36.48504794575273990631103515625</LatitudeDegrees>
              <LongitudeDegrees>-5.408238954842090606689453125</LongitudeDegrees>
            </Position>
            <AltitudeMeters>69.8000030517578125</AltitudeMeters>
            <DistanceMeters>NAN</DistanceMeters>
          </Trackpoint>
          <Trackpoint>
            <Time>2019-01-04T11:44:53.000Z</Time>
            <Position>
              <LatitudeDegrees>36.48503579199314117431640625</LatitudeDegrees>
              <LongitudeDegrees>-5.408240966498851776123046875</LongitudeDegrees>
            </Position>
            <AltitudeMeters>69.59999847412109375</AltitudeMeters>
            <DistanceMeters>NAN</DistanceMeters>
          </Trackpoint>
          <Trackpoint>
            <Time>2019-01-04T11:44:54.000Z</Time>
            <Position>
              <LatitudeDegrees>36.48502112366259098052978515625</LatitudeDegrees>
              <LongitudeDegrees>-5.408243648707866668701171875</LongitudeDegrees>
            </Position>
            <AltitudeMeters>69.1999969482421875</AltitudeMeters>
            <DistanceMeters>NAN</DistanceMeters>
          </Trackpoint>
          <Trackpoint>
            <Time>2019-01-04T11:44:55.000Z</Time>
            <Position>
              <LatitudeDegrees>36.48500586859881877899169921875</LatitudeDegrees>
              <LongitudeDegrees>-5.4082434810698032379150390625</LongitudeDegrees>
            </Position>
            <AltitudeMeters>68.8000030517578125</AltitudeMeters>
            <DistanceMeters>NAN</DistanceMeters>
          </Trackpoint>
          <Trackpoint>
            <Time>2019-01-04T11:44:56.000Z</Time>
            <Position>
              <LatitudeDegrees>36.48498994298279285430908203125</LatitudeDegrees>
              <LongitudeDegrees>-5.40824490599334239959716796875</LongitudeDegrees>
            </Position>
            <AltitudeMeters>68.8000030517578125</AltitudeMeters>
            <DistanceMeters>NAN</DistanceMeters>
          </Trackpoint>
          <Trackpoint>
            <Time>2019-01-04T11:44:57.000Z</Time>
            <Position>
              <LatitudeDegrees>36.4849742688238620758056640625</LatitudeDegrees>
              <LongitudeDegrees>-5.408248007297515869140625</LongitudeDegrees>
            </Position>
            <AltitudeMeters>68.59999847412109375</AltitudeMeters>
            <DistanceMeters>NAN</DistanceMeters>
          </Trackpoint>
          <Trackpoint>
            <Time>2019-01-04T11:44:58.000Z</Time>
            <Position>
              <LatitudeDegrees>36.4849581755697727203369140625</LatitudeDegrees>
              <LongitudeDegrees>-5.4082511924207210540771484375</LongitudeDegrees>
            </Position>
            <AltitudeMeters>68.59999847412109375</AltitudeMeters>
            <DistanceMeters>NAN</DistanceMeters>
          </Trackpoint>
          <Trackpoint>
            <Time>2019-01-04T11:44:59.000Z</Time>
            <Position>
              <LatitudeDegrees>36.484944932162761688232421875</LatitudeDegrees>
              <LongitudeDegrees>-5.40825211443006992340087890625</LongitudeDegrees>
            </Position>
            <AltitudeMeters>68.59999847412109375</AltitudeMeters>
            <DistanceMeters>NAN</DistanceMeters>
          </Trackpoint>
          <Trackpoint>
            <Time>2019-01-04T11:45:00.000Z</Time>
            <Position>
              <LatitudeDegrees>36.484930180013179779052734375</LatitudeDegrees>
              <LongitudeDegrees>-5.40825513191521167755126953125</LongitudeDegrees>
            </Position>
            <AltitudeMeters>68.59999847412109375</AltitudeMeters>
            <DistanceMeters>NAN</DistanceMeters>
          </Trackpoint>
          <Trackpoint>
            <Time>2019-01-04T11:45:01.000Z</Time>
            <Position>
              <LatitudeDegrees>36.4849122427403926849365234375</LatitudeDegrees>
              <LongitudeDegrees>-5.40825764648616313934326171875</LongitudeDegrees>
            </Position>
            <AltitudeMeters>68.59999847412109375</AltitudeMeters>
            <DistanceMeters>NAN</DistanceMeters>
          </Trackpoint>
          <Trackpoint>
            <Time>2019-01-04T11:45:02.000Z</Time>
            <Position>
              <LatitudeDegrees>36.48489497601985931396484375</LatitudeDegrees>
              <LongitudeDegrees>-5.40825898759067058563232421875</LongitudeDegrees>
            </Position>
            <AltitudeMeters>68.59999847412109375</AltitudeMeters>
            <DistanceMeters>NAN</DistanceMeters>
          </Trackpoint>
          <Trackpoint>
            <Time>2019-01-04T11:45:03.000Z</Time>
            <Position>
              <LatitudeDegrees>36.4848770387470722198486328125</LatitudeDegrees>
              <LongitudeDegrees>-5.4082573950290679931640625</LongitudeDegrees>
            </Position>
            <AltitudeMeters>68.59999847412109375</AltitudeMeters>
            <DistanceMeters>NAN</DistanceMeters>
          </Trackpoint>
          <Trackpoint>
            <Time>2019-01-04T11:45:04.000Z</Time>
            <Position>
              <LatitudeDegrees>36.48486220277845859527587890625</LatitudeDegrees>
              <LongitudeDegrees>-5.408255718648433685302734375</LongitudeDegrees>
            </Position>
            <AltitudeMeters>68.59999847412109375</AltitudeMeters>
            <DistanceMeters>NAN</DistanceMeters>
          </Trackpoint>
          <Trackpoint>
            <Time>2019-01-04T11:45:05.000Z</Time>
            <Position>
              <LatitudeDegrees>36.484845690429210662841796875</LatitudeDegrees>
              <LongitudeDegrees>-5.40825546719133853912353515625</LongitudeDegrees>
            </Position>
            <AltitudeMeters>68.59999847412109375</AltitudeMeters>
            <DistanceMeters>NAN</DistanceMeters>
          </Trackpoint>
          <Trackpoint>
            <Time>2019-01-04T11:45:06.000Z</Time>
            <Position>
              <LatitudeDegrees>36.48482859134674072265625</LatitudeDegrees>
              <LongitudeDegrees>-5.40825714357197284698486328125</LongitudeDegrees>
            </Position>
            <AltitudeMeters>68.59999847412109375</AltitudeMeters>
            <DistanceMeters>NAN</DistanceMeters>
          </Trackpoint>
          <Trackpoint>
            <Time>2019-01-04T11:45:07.000Z</Time>
            <Position>
              <LatitudeDegrees>36.48481107316911220550537109375</LatitudeDegrees>
              <LongitudeDegrees>-5.40825848467648029327392578125</LongitudeDegrees>
            </Position>
            <AltitudeMeters>68.59999847412109375</AltitudeMeters>
            <DistanceMeters>NAN</DistanceMeters>
          </Trackpoint>
          <Trackpoint>
            <Time>2019-01-04T11:45:08.000Z</Time>
            <Position>
              <LatitudeDegrees>36.4847962372004985809326171875</LatitudeDegrees>
              <LongitudeDegrees>-5.40826066397130489349365234375</LongitudeDegrees>
            </Position>
            <AltitudeMeters>68.8000030517578125</AltitudeMeters>
            <DistanceMeters>NAN</DistanceMeters>
          </Trackpoint>
          <Trackpoint>
            <Time>2019-01-04T11:45:09.000Z</Time>
            <Position>
              <LatitudeDegrees>36.48478257469832897186279296875</LatitudeDegrees>
              <LongitudeDegrees>-5.408261753618717193603515625</LongitudeDegrees>
            </Position>
            <AltitudeMeters>68.8000030517578125</AltitudeMeters>
            <DistanceMeters>NAN</DistanceMeters>
          </Trackpoint>
          <Trackpoint>
            <Time>2019-01-04T11:45:10.000Z</Time>
            <Position>
              <LatitudeDegrees>36.48476815782487392425537109375</LatitudeDegrees>
              <LongitudeDegrees>-5.408260412514209747314453125</LongitudeDegrees>
            </Position>
            <AltitudeMeters>68.8000030517578125</AltitudeMeters>
            <DistanceMeters>NAN</DistanceMeters>
          </Trackpoint>
          <Trackpoint>
            <Time>2019-01-04T11:45:11.000Z</Time>
            <Position>
              <LatitudeDegrees>36.48475416004657745361328125</LatitudeDegrees>
              <LongitudeDegrees>-5.40826074779033660888671875</LongitudeDegrees>
            </Position>
            <AltitudeMeters>69</AltitudeMeters>
            <DistanceMeters>NAN</DistanceMeters>
          </Trackpoint>
          <Trackpoint>
            <Time>2019-01-04T11:45:12.000Z</Time>
            <Position>
              <LatitudeDegrees>36.4847392402589321136474609375</LatitudeDegrees>
              <LongitudeDegrees>-5.408259071409702301025390625</LongitudeDegrees>
            </Position>
            <AltitudeMeters>69.1999969482421875</AltitudeMeters>
            <DistanceMeters>NAN</DistanceMeters>
          </Trackpoint>
          <Trackpoint>
            <Time>2019-01-04T11:45:13.000Z</Time>
            <Position>
              <LatitudeDegrees>36.48472557775676250457763671875</LatitudeDegrees>
              <LongitudeDegrees>-5.4082619212567806243896484375</LongitudeDegrees>
            </Position>
            <AltitudeMeters>69.1999969482421875</AltitudeMeters>
            <DistanceMeters>NAN</DistanceMeters>
          </Trackpoint>
          <Trackpoint>
            <Time>2019-01-04T11:45:14.000Z</Time>
            <Position>
              <LatitudeDegrees>36.48471032269299030303955078125</LatitudeDegrees>
              <LongitudeDegrees>-5.40826586075127124786376953125</LongitudeDegrees>
            </Position>
            <AltitudeMeters>69.1999969482421875</AltitudeMeters>
            <DistanceMeters>NAN</DistanceMeters>
          </Trackpoint>
          <Trackpoint>
            <Time>2019-01-04T11:45:15.000Z</Time>
            <Position>
              <LatitudeDegrees>36.4846973307430744171142578125</LatitudeDegrees>
              <LongitudeDegrees>-5.408269129693508148193359375</LongitudeDegrees>
            </Position>
            <AltitudeMeters>69.1999969482421875</AltitudeMeters>
            <DistanceMeters>NAN</DistanceMeters>
          </Trackpoint>
          <Trackpoint>
            <Time>2019-01-04T11:45:16.000Z</Time>
            <Position>
              <LatitudeDegrees>36.48468433879315853118896484375</LatitudeDegrees>
              <LongitudeDegrees>-5.40827591903507709503173828125</LongitudeDegrees>
            </Position>
            <AltitudeMeters>69.1999969482421875</AltitudeMeters>
            <DistanceMeters>NAN</DistanceMeters>
          </Trackpoint>
          <Trackpoint>
            <Time>2019-01-04T11:45:17.000Z</Time>
            <Position>
              <LatitudeDegrees>36.48467092774808406829833984375</LatitudeDegrees>
              <LongitudeDegrees>-5.40828145109117031097412109375</LongitudeDegrees>
            </Position>
            <AltitudeMeters>69</AltitudeMeters>
            <DistanceMeters>NAN</DistanceMeters>
          </Trackpoint>
          <Trackpoint>
            <Time>2019-01-04T11:45:18.000Z</Time>
            <Position>
              <LatitudeDegrees>36.4846581034362316131591796875</LatitudeDegrees>
              <LongitudeDegrees>-5.4082857258617877960205078125</LongitudeDegrees>
            </Position>
            <AltitudeMeters>68.8000030517578125</AltitudeMeters>
            <DistanceMeters>NAN</DistanceMeters>
          </Trackpoint>
          <Trackpoint>
            <Time>2019-01-04T11:45:19.000Z</Time>
            <Position>
              <LatitudeDegrees>36.48464209400117397308349609375</LatitudeDegrees>
              <LongitudeDegrees>-5.40828765369951725006103515625</LongitudeDegrees>
            </Position>
            <AltitudeMeters>68.40000152587890625</AltitudeMeters>
            <DistanceMeters>NAN</DistanceMeters>
          </Trackpoint>
          <Trackpoint>
            <Time>2019-01-04T11:45:20.000Z</Time>
            <Position>
              <LatitudeDegrees>36.4846275933086872100830078125</LatitudeDegrees>
              <LongitudeDegrees>-5.40828966535627841949462890625</LongitudeDegrees>
            </Position>
            <AltitudeMeters>68.40000152587890625</AltitudeMeters>
            <DistanceMeters>NAN</DistanceMeters>
          </Trackpoint>
          <Trackpoint>
            <Time>2019-01-04T11:45:21.000Z</Time>
            <Position>
              <LatitudeDegrees>36.4846094883978366851806640625</LatitudeDegrees>
              <LongitudeDegrees>-5.40828891098499298095703125</LongitudeDegrees>
            </Position>
            <AltitudeMeters>68.1999969482421875</AltitudeMeters>
            <DistanceMeters>NAN</DistanceMeters>
          </Trackpoint>
          <Trackpoint>
            <Time>2019-01-04T11:45:22.000Z</Time>
            <Position>
              <LatitudeDegrees>36.48459649644792079925537109375</LatitudeDegrees>
              <LongitudeDegrees>-5.4082890786230564117431640625</LongitudeDegrees>
            </Position>
            <AltitudeMeters>68.1999969482421875</AltitudeMeters>
            <DistanceMeters>NAN</DistanceMeters>
          </Trackpoint>
          <Trackpoint>
            <Time>2019-01-04T11:45:23.000Z</Time>
            <Position>
              <LatitudeDegrees>36.484582163393497467041015625</LatitudeDegrees>
              <LongitudeDegrees>-5.4082877375185489654541015625</LongitudeDegrees>
            </Position>
            <AltitudeMeters>68</AltitudeMeters>
            <DistanceMeters>NAN</DistanceMeters>
          </Trackpoint>
          <Trackpoint>
            <Time>2019-01-04T11:45:24.000Z</Time>
            <Position>
              <LatitudeDegrees>36.484568752348423004150390625</LatitudeDegrees>
              <LongitudeDegrees>-5.40828622877597808837890625</LongitudeDegrees>
            </Position>
            <AltitudeMeters>68</AltitudeMeters>
            <DistanceMeters>NAN</DistanceMeters>
          </Trackpoint>
          <Trackpoint>
            <Time>2019-01-04T11:45:25.000Z</Time>
            <Position>
              <LatitudeDegrees>36.48455106653273105621337890625</LatitudeDegrees>
              <LongitudeDegrees>-5.40828480385243892669677734375</LongitudeDegrees>
            </Position>
            <AltitudeMeters>68</AltitudeMeters>
            <DistanceMeters>NAN</DistanceMeters>
          </Trackpoint>
          <Trackpoint>
            <Time>2019-01-04T11:45:26.000Z</Time>
            <Position>
              <LatitudeDegrees>36.484530530869960784912109375</LatitudeDegrees>
              <LongitudeDegrees>-5.40828597731888294219970703125</LongitudeDegrees>
            </Position>
            <AltitudeMeters>68.1999969482421875</AltitudeMeters>
            <DistanceMeters>NAN</DistanceMeters>
          </Trackpoint>
          <Trackpoint>
            <Time>2019-01-04T11:45:27.000Z</Time>
            <Position>
              <LatitudeDegrees>36.48451301269233226776123046875</LatitudeDegrees>
              <LongitudeDegrees>-5.4082900844514369964599609375</LongitudeDegrees>
            </Position>
            <AltitudeMeters>68.1999969482421875</AltitudeMeters>
            <DistanceMeters>NAN</DistanceMeters>
          </Trackpoint>
          <Trackpoint>
            <Time>2019-01-04T11:45:28.000Z</Time>
            <Position>
              <LatitudeDegrees>36.48449457250535488128662109375</LatitudeDegrees>
              <LongitudeDegrees>-5.40828966535627841949462890625</LongitudeDegrees>
            </Position>
            <AltitudeMeters>68.40000152587890625</AltitudeMeters>
            <DistanceMeters>NAN</DistanceMeters>
          </Trackpoint>
          <Trackpoint>
            <Time>2019-01-04T11:45:29.000Z</Time>
            <Position>
              <LatitudeDegrees>36.4844787307083606719970703125</LatitudeDegrees>
              <LongitudeDegrees>-5.40829184465110301971435546875</LongitudeDegrees>
            </Position>
            <AltitudeMeters>68.59999847412109375</AltitudeMeters>
            <DistanceMeters>NAN</DistanceMeters>
          </Trackpoint>
          <Trackpoint>
            <Time>2019-01-04T11:45:30.000Z</Time>
            <Position>
              <LatitudeDegrees>36.484461128711700439453125</LatitudeDegrees>
              <LongitudeDegrees>-5.408295951783657073974609375</LongitudeDegrees>
            </Position>
            <AltitudeMeters>68.59999847412109375</AltitudeMeters>
            <DistanceMeters>NAN</DistanceMeters>
          </Trackpoint>
          <Trackpoint>
            <Time>2019-01-04T11:45:31.000Z</Time>
            <Position>
              <LatitudeDegrees>36.48444746620953083038330078125</LatitudeDegrees>
              <LongitudeDegrees>-5.40830098092555999755859375</LongitudeDegrees>
            </Position>
            <AltitudeMeters>68.59999847412109375</AltitudeMeters>
            <DistanceMeters>NAN</DistanceMeters>
          </Trackpoint>
          <Trackpoint>
            <Time>2019-01-04T11:45:32.000Z</Time>
            <Position>
              <LatitudeDegrees>36.48443388752639293670654296875</LatitudeDegrees>
              <LongitudeDegrees>-5.40830173529684543609619140625</LongitudeDegrees>
            </Position>
            <AltitudeMeters>68.59999847412109375</AltitudeMeters>
            <DistanceMeters>NAN</DistanceMeters>
          </Trackpoint>
          <Trackpoint>
            <Time>2019-01-04T11:45:33.000Z</Time>
            <Position>
              <LatitudeDegrees>36.4844203926622867584228515625</LatitudeDegrees>
              <LongitudeDegrees>-5.4083065129816532135009765625</LongitudeDegrees>
            </Position>
            <AltitudeMeters>68.8000030517578125</AltitudeMeters>
            <DistanceMeters>NAN</DistanceMeters>
          </Trackpoint>
          <Trackpoint>
            <Time>2019-01-04T11:45:34.000Z</Time>
            <Position>
              <LatitudeDegrees>36.4844056405127048492431640625</LatitudeDegrees>
              <LongitudeDegrees>-5.4083068482577800750732421875</LongitudeDegrees>
            </Position>
            <AltitudeMeters>68.8000030517578125</AltitudeMeters>
            <DistanceMeters>NAN</DistanceMeters>
          </Trackpoint>
          <Trackpoint>
            <Time>2019-01-04T11:45:35.000Z</Time>
            <Position>
              <LatitudeDegrees>36.4843905530869960784912109375</LatitudeDegrees>
              <LongitudeDegrees>-5.408307015895843505859375</LongitudeDegrees>
            </Position>
            <AltitudeMeters>68.8000030517578125</AltitudeMeters>
            <DistanceMeters>NAN</DistanceMeters>
          </Trackpoint>
          <Trackpoint>
            <Time>2019-01-04T11:45:36.000Z</Time>
            <Position>
              <LatitudeDegrees>36.484374292194843292236328125</LatitudeDegrees>
              <LongitudeDegrees>-5.40830810554325580596923828125</LongitudeDegrees>
            </Position>
            <AltitudeMeters>68.8000030517578125</AltitudeMeters>
            <DistanceMeters>NAN</DistanceMeters>
          </Trackpoint>
          <Trackpoint>
            <Time>2019-01-04T11:45:37.000Z</Time>
            <Position>
              <LatitudeDegrees>36.484358869493007659912109375</LatitudeDegrees>
              <LongitudeDegrees>-5.408311374485492706298828125</LongitudeDegrees>
            </Position>
            <AltitudeMeters>68.8000030517578125</AltitudeMeters>
            <DistanceMeters>NAN</DistanceMeters>
          </Trackpoint>
          <Trackpoint>
            <Time>2019-01-04T11:45:38.000Z</Time>
            <Position>
              <LatitudeDegrees>36.48434319533407688140869140625</LatitudeDegrees>
              <LongitudeDegrees>-5.4083155654370784759521484375</LongitudeDegrees>
            </Position>
            <AltitudeMeters>68.8000030517578125</AltitudeMeters>
            <DistanceMeters>NAN</DistanceMeters>
          </Trackpoint>
          <Trackpoint>
            <Time>2019-01-04T11:45:39.000Z</Time>
            <Position>
              <LatitudeDegrees>36.4843265153467655181884765625</LatitudeDegrees>
              <LongitudeDegrees>-5.4083192534744739532470703125</LongitudeDegrees>
            </Position>
            <AltitudeMeters>68.8000030517578125</AltitudeMeters>
            <DistanceMeters>NAN</DistanceMeters>
          </Trackpoint>
          <Trackpoint>
            <Time>2019-01-04T11:45:40.000Z</Time>
            <Position>
              <LatitudeDegrees>36.48431000299751758575439453125</LatitudeDegrees>
              <LongitudeDegrees>-5.40832042694091796875</LongitudeDegrees>
            </Position>
            <AltitudeMeters>69</AltitudeMeters>
            <DistanceMeters>NAN</DistanceMeters>
          </Trackpoint>
          <Trackpoint>
            <Time>2019-01-04T11:45:41.000Z</Time>
            <Position>
              <LatitudeDegrees>36.484293155372142791748046875</LatitudeDegrees>
              <LongitudeDegrees>-5.40832084603607654571533203125</LongitudeDegrees>
            </Position>
            <AltitudeMeters>69</AltitudeMeters>
            <DistanceMeters>NAN</DistanceMeters>
          </Trackpoint>
          <Trackpoint>
            <Time>2019-01-04T11:45:42.000Z</Time>
            <Position>
              <LatitudeDegrees>36.48427865467965602874755859375</LatitudeDegrees>
              <LongitudeDegrees>-5.408325456082820892333984375</LongitudeDegrees>
            </Position>
            <AltitudeMeters>69</AltitudeMeters>
            <DistanceMeters>NAN</DistanceMeters>
          </Trackpoint>
          <Trackpoint>
            <Time>2019-01-04T11:45:43.000Z</Time>
            <Position>
              <LatitudeDegrees>36.4842638187110424041748046875</LatitudeDegrees>
              <LongitudeDegrees>-5.40832939557731151580810546875</LongitudeDegrees>
            </Position>
            <AltitudeMeters>69</AltitudeMeters>
            <DistanceMeters>NAN</DistanceMeters>
          </Trackpoint>
          <Trackpoint>
            <Time>2019-01-04T11:45:44.000Z</Time>
            <Position>
              <LatitudeDegrees>36.4842505753040313720703125</LatitudeDegrees>
              <LongitudeDegrees>-5.4083323292434215545654296875</LongitudeDegrees>
            </Position>
            <AltitudeMeters>68.8000030517578125</AltitudeMeters>
            <DistanceMeters>NAN</DistanceMeters>
          </Trackpoint>
          <Trackpoint>
            <Time>2019-01-04T11:45:45.000Z</Time>
            <Position>
              <LatitudeDegrees>36.4842356555163860321044921875</LatitudeDegrees>
              <LongitudeDegrees>-5.4083350114524364471435546875</LongitudeDegrees>
            </Position>
            <AltitudeMeters>68.59999847412109375</AltitudeMeters>
            <DistanceMeters>NAN</DistanceMeters>
          </Trackpoint>
          <Trackpoint>
            <Time>2019-01-04T11:45:46.000Z</Time>
            <Position>
              <LatitudeDegrees>36.48421981371939182281494140625</LatitudeDegrees>
              <LongitudeDegrees>-5.4083356820046901702880859375</LongitudeDegrees>
            </Position>
            <AltitudeMeters>68.59999847412109375</AltitudeMeters>
            <DistanceMeters>NAN</DistanceMeters>
          </Trackpoint>
          <Trackpoint>
            <Time>2019-01-04T11:45:47.000Z</Time>
            <Position>
              <LatitudeDegrees>36.4842041395604610443115234375</LatitudeDegrees>
              <LongitudeDegrees>-5.40833853185176849365234375</LongitudeDegrees>
            </Position>
            <AltitudeMeters>68.40000152587890625</AltitudeMeters>
            <DistanceMeters>NAN</DistanceMeters>
          </Trackpoint>
          <Trackpoint>
            <Time>2019-01-04T11:45:48.000Z</Time>
            <Position>
              <LatitudeDegrees>36.4841893874108791351318359375</LatitudeDegrees>
              <LongitudeDegrees>-5.40834330953657627105712890625</LongitudeDegrees>
            </Position>
            <AltitudeMeters>68</AltitudeMeters>
            <DistanceMeters>NAN</DistanceMeters>
          </Trackpoint>
          <Trackpoint>
            <Time>2019-01-04T11:45:49.000Z</Time>
            <Position>
              <LatitudeDegrees>36.48417337797582149505615234375</LatitudeDegrees>
              <LongitudeDegrees>-5.4083484224975109100341796875</LongitudeDegrees>
            </Position>
            <AltitudeMeters>67.8000030517578125</AltitudeMeters>
            <DistanceMeters>NAN</DistanceMeters>
          </Trackpoint>
          <Trackpoint>
            <Time>2019-01-04T11:45:50.000Z</Time>
            <Position>
              <LatitudeDegrees>36.4841595478355884552001953125</LatitudeDegrees>
              <LongitudeDegrees>-5.40835487656295299530029296875</LongitudeDegrees>
            </Position>
            <AltitudeMeters>67.59999847412109375</AltitudeMeters>
            <DistanceMeters>NAN</DistanceMeters>
          </Trackpoint>
          <Trackpoint>
            <Time>2019-01-04T11:45:51.000Z</Time>
            <Position>
              <LatitudeDegrees>36.4841468073427677154541015625</LatitudeDegrees>
              <LongitudeDegrees>-5.40836107917129993438720703125</LongitudeDegrees>
            </Position>
            <AltitudeMeters>67.40000152587890625</AltitudeMeters>
            <DistanceMeters>NAN</DistanceMeters>
          </Trackpoint>
          <Trackpoint>
            <Time>2019-01-04T11:45:52.000Z</Time>
            <Position>
              <LatitudeDegrees>36.48413465358316898345947265625</LatitudeDegrees>
              <LongitudeDegrees>-5.40836610831320285797119140625</LongitudeDegrees>
            </Position>
            <AltitudeMeters>67.40000152587890625</AltitudeMeters>
            <DistanceMeters>NAN</DistanceMeters>
          </Trackpoint>
          <Trackpoint>
            <Time>2019-01-04T11:45:53.000Z</Time>
            <Position>
              <LatitudeDegrees>36.484120152890682220458984375</LatitudeDegrees>
              <LongitudeDegrees>-5.40836962871253490447998046875</LongitudeDegrees>
            </Position>
            <AltitudeMeters>67.40000152587890625</AltitudeMeters>
            <DistanceMeters>NAN</DistanceMeters>
          </Trackpoint>
          <Trackpoint>
            <Time>2019-01-04T11:45:54.000Z</Time>
            <Position>
              <LatitudeDegrees>36.48410665802657604217529296875</LatitudeDegrees>
              <LongitudeDegrees>-5.40837281383574008941650390625</LongitudeDegrees>
            </Position>
            <AltitudeMeters>67.40000152587890625</AltitudeMeters>
            <DistanceMeters>NAN</DistanceMeters>
          </Trackpoint>
          <Trackpoint>
            <Time>2019-01-04T11:45:55.000Z</Time>
            <Position>
              <LatitudeDegrees>36.48409207351505756378173828125</LatitudeDegrees>
              <LongitudeDegrees>-5.4083749093115329742431640625</LongitudeDegrees>
            </Position>
            <AltitudeMeters>67.40000152587890625</AltitudeMeters>
            <DistanceMeters>NAN</DistanceMeters>
          </Trackpoint>
          <Trackpoint>
            <Time>2019-01-04T11:45:56.000Z</Time>
            <Position>
              <LatitudeDegrees>36.4840770699083805084228515625</LatitudeDegrees>
              <LongitudeDegrees>-5.40837943553924560546875</LongitudeDegrees>
            </Position>
            <AltitudeMeters>67.40000152587890625</AltitudeMeters>
            <DistanceMeters>NAN</DistanceMeters>
          </Trackpoint>
          <Trackpoint>
            <Time>2019-01-04T11:45:57.000Z</Time>
            <Position>
              <LatitudeDegrees>36.4840636588633060455322265625</LatitudeDegrees>
              <LongitudeDegrees>-5.40838387794792652130126953125</LongitudeDegrees>
            </Position>
            <AltitudeMeters>67.59999847412109375</AltitudeMeters>
            <DistanceMeters>NAN</DistanceMeters>
          </Trackpoint>
          <Trackpoint>
            <Time>2019-01-04T11:45:58.000Z</Time>
            <Position>
              <LatitudeDegrees>36.4840512536466121673583984375</LatitudeDegrees>
              <LongitudeDegrees>-5.408387817442417144775390625</LongitudeDegrees>
            </Position>
            <AltitudeMeters>67.59999847412109375</AltitudeMeters>
            <DistanceMeters>NAN</DistanceMeters>
          </Trackpoint>
          <Trackpoint>
            <Time>2019-01-04T11:45:59.000Z</Time>
            <Position>
              <LatitudeDegrees>36.4840398542582988739013671875</LatitudeDegrees>
              <LongitudeDegrees>-5.40839628316462039947509765625</LongitudeDegrees>
            </Position>
            <AltitudeMeters>67.59999847412109375</AltitudeMeters>
            <DistanceMeters>NAN</DistanceMeters>
          </Trackpoint>
          <Trackpoint>
            <Time>2019-01-04T11:46:00.000Z</Time>
            <Position>
              <LatitudeDegrees>36.48402887396514415740966796875</LatitudeDegrees>
              <LongitudeDegrees>-5.40840634144842624664306640625</LongitudeDegrees>
            </Position>
            <AltitudeMeters>67.59999847412109375</AltitudeMeters>
            <DistanceMeters>NAN</DistanceMeters>
          </Trackpoint>
          <Trackpoint>
            <Time>2019-01-04T11:46:01.000Z</Time>
            <Position>
              <LatitudeDegrees>36.48401848040521144866943359375</LatitudeDegrees>
              <LongitudeDegrees>-5.40841354988515377044677734375</LongitudeDegrees>
            </Position>
            <AltitudeMeters>67.59999847412109375</AltitudeMeters>
            <DistanceMeters>NAN</DistanceMeters>
          </Trackpoint>
          <Trackpoint>
            <Time>2019-01-04T11:46:02.000Z</Time>
            <Position>
              <LatitudeDegrees>36.4840113557875156402587890625</LatitudeDegrees>
              <LongitudeDegrees>-5.40841807611286640167236328125</LongitudeDegrees>
            </Position>
            <AltitudeMeters>67.59999847412109375</AltitudeMeters>
            <DistanceMeters>NAN</DistanceMeters>
          </Trackpoint>
          <Trackpoint>
            <Time>2019-01-04T11:46:03.000Z</Time>
            <Position>
              <LatitudeDegrees>36.4840029738843441009521484375</LatitudeDegrees>
              <LongitudeDegrees>-5.408422686159610748291015625</LongitudeDegrees>
            </Position>
            <AltitudeMeters>67.59999847412109375</AltitudeMeters>
            <DistanceMeters>NAN</DistanceMeters>
          </Trackpoint>
          <Trackpoint>
            <Time>2019-01-04T11:46:04.000Z</Time>
            <Position>
              <LatitudeDegrees>36.483994424343109130859375</LatitudeDegrees>
              <LongitudeDegrees>-5.40842846967279911041259765625</LongitudeDegrees>
            </Position>
            <AltitudeMeters>67.59999847412109375</AltitudeMeters>
            <DistanceMeters>NAN</DistanceMeters>
          </Trackpoint>
          <Trackpoint>
            <Time>2019-01-04T11:46:05.000Z</Time>
            <Position>
              <LatitudeDegrees>36.48398302495479583740234375</LatitudeDegrees>
              <LongitudeDegrees>-5.4084305651485919952392578125</LongitudeDegrees>
            </Position>
            <AltitudeMeters>67.8000030517578125</AltitudeMeters>
            <DistanceMeters>NAN</DistanceMeters>
          </Trackpoint>
          <Trackpoint>
            <Time>2019-01-04T11:46:06.000Z</Time>
            <Position>
              <LatitudeDegrees>36.48396735079586505889892578125</LatitudeDegrees>
              <LongitudeDegrees>-5.408427380025386810302734375</LongitudeDegrees>
            </Position>
            <AltitudeMeters>67.8000030517578125</AltitudeMeters>
            <DistanceMeters>NAN</DistanceMeters>
          </Trackpoint>
          <Trackpoint>
            <Time>2019-01-04T11:46:07.000Z</Time>
            <Position>
              <LatitudeDegrees>36.4839479885995388031005859375</LatitudeDegrees>
              <LongitudeDegrees>-5.40842176415026187896728515625</LongitudeDegrees>
            </Position>
            <AltitudeMeters>67.8000030517578125</AltitudeMeters>
            <DistanceMeters>NAN</DistanceMeters>
          </Trackpoint>
          <Trackpoint>
            <Time>2019-01-04T11:46:08.000Z</Time>
            <Position>
              <LatitudeDegrees>36.48392410017549991607666015625</LatitudeDegrees>
              <LongitudeDegrees>-5.40841639973223209381103515625</LongitudeDegrees>
            </Position>
            <AltitudeMeters>67.8000030517578125</AltitudeMeters>
            <DistanceMeters>NAN</DistanceMeters>
          </Trackpoint>
          <Trackpoint>
            <Time>2019-01-04T11:46:09.000Z</Time>
            <Position>
              <LatitudeDegrees>36.48390381596982479095458984375</LatitudeDegrees>
              <LongitudeDegrees>-5.40841321460902690887451171875</LongitudeDegrees>
            </Position>
            <AltitudeMeters>67.8000030517578125</AltitudeMeters>
            <DistanceMeters>NAN</DistanceMeters>
          </Trackpoint>
          <Trackpoint>
            <Time>2019-01-04T11:46:10.000Z</Time>
            <Position>
              <LatitudeDegrees>36.4838879741728305816650390625</LatitudeDegrees>
              <LongitudeDegrees>-5.408408604562282562255859375</LongitudeDegrees>
            </Position>
            <AltitudeMeters>67.8000030517578125</AltitudeMeters>
            <DistanceMeters>NAN</DistanceMeters>
          </Trackpoint>
          <Trackpoint>
            <Time>2019-01-04T11:46:11.000Z</Time>
            <Position>
              <LatitudeDegrees>36.48387171328067779541015625</LatitudeDegrees>
              <LongitudeDegrees>-5.40840097703039646148681640625</LongitudeDegrees>
            </Position>
            <AltitudeMeters>67.59999847412109375</AltitudeMeters>
            <DistanceMeters>NAN</DistanceMeters>
          </Trackpoint>
          <Trackpoint>
            <Time>2019-01-04T11:46:12.000Z</Time>
            <Position>
              <LatitudeDegrees>36.4838544465601444244384765625</LatitudeDegrees>
              <LongitudeDegrees>-5.40839293040335178375244140625</LongitudeDegrees>
            </Position>
            <AltitudeMeters>67.1999969482421875</AltitudeMeters>
            <DistanceMeters>NAN</DistanceMeters>
          </Trackpoint>
          <Trackpoint>
            <Time>2019-01-04T11:46:13.000Z</Time>
            <Position>
              <LatitudeDegrees>36.48383709602057933807373046875</LatitudeDegrees>
              <LongitudeDegrees>-5.4083836264908313751220703125</LongitudeDegrees>
            </Position>
            <AltitudeMeters>67</AltitudeMeters>
            <DistanceMeters>NAN</DistanceMeters>
          </Trackpoint>
          <Trackpoint>
            <Time>2019-01-04T11:46:14.000Z</Time>
            <Position>
              <LatitudeDegrees>36.483820416033267974853515625</LatitudeDegrees>
              <LongitudeDegrees>-5.4083785973489284515380859375</LongitudeDegrees>
            </Position>
            <AltitudeMeters>66.8000030517578125</AltitudeMeters>
            <DistanceMeters>NAN</DistanceMeters>
          </Trackpoint>
          <Trackpoint>
            <Time>2019-01-04T11:46:15.000Z</Time>
            <Position>
              <LatitudeDegrees>36.48380507715046405792236328125</LatitudeDegrees>
              <LongitudeDegrees>-5.4083762504160404205322265625</LongitudeDegrees>
            </Position>
            <AltitudeMeters>66.8000030517578125</AltitudeMeters>
            <DistanceMeters>NAN</DistanceMeters>
          </Trackpoint>
          <Trackpoint>
            <Time>2019-01-04T11:46:16.000Z</Time>
            <Position>
              <LatitudeDegrees>36.48378613404929637908935546875</LatitudeDegrees>
              <LongitudeDegrees>-5.40836694650352001190185546875</LongitudeDegrees>
            </Position>
            <AltitudeMeters>66.8000030517578125</AltitudeMeters>
            <DistanceMeters>NAN</DistanceMeters>
          </Trackpoint>
          <Trackpoint>
            <Time>2019-01-04T11:46:17.000Z</Time>
            <Position>
              <LatitudeDegrees>36.48376802913844585418701171875</LatitudeDegrees>
              <LongitudeDegrees>-5.4083614982664585113525390625</LongitudeDegrees>
            </Position>
            <AltitudeMeters>66.8000030517578125</AltitudeMeters>
            <DistanceMeters>NAN</DistanceMeters>
          </Trackpoint>
          <Trackpoint>
            <Time>2019-01-04T11:46:18.000Z</Time>
            <Position>
              <LatitudeDegrees>36.48375377990305423736572265625</LatitudeDegrees>
              <LongitudeDegrees>-5.40835797786712646484375</LongitudeDegrees>
            </Position>
            <AltitudeMeters>67</AltitudeMeters>
            <DistanceMeters>NAN</DistanceMeters>
          </Trackpoint>
          <Trackpoint>
            <Time>2019-01-04T11:46:19.000Z</Time>
            <Position>
              <LatitudeDegrees>36.48373969830572605133056640625</LatitudeDegrees>
              <LongitudeDegrees>-5.408355295658111572265625</LongitudeDegrees>
            </Position>
            <AltitudeMeters>67</AltitudeMeters>
            <DistanceMeters>NAN</DistanceMeters>
          </Trackpoint>
          <Trackpoint>
            <Time>2019-01-04T11:46:20.000Z</Time>
            <Position>
              <LatitudeDegrees>36.48372695781290531158447265625</LatitudeDegrees>
              <LongitudeDegrees>-5.40835320018231868743896484375</LongitudeDegrees>
            </Position>
            <AltitudeMeters>67.1999969482421875</AltitudeMeters>
            <DistanceMeters>NAN</DistanceMeters>
          </Trackpoint>
          <Trackpoint>
            <Time>2019-01-04T11:46:21.000Z</Time>
            <Position>
              <LatitudeDegrees>36.48371254093945026397705078125</LatitudeDegrees>
              <LongitudeDegrees>-5.4083494283258914947509765625</LongitudeDegrees>
            </Position>
            <AltitudeMeters>67.1999969482421875</AltitudeMeters>
            <DistanceMeters>NAN</DistanceMeters>
          </Trackpoint>
          <Trackpoint>
            <Time>2019-01-04T11:46:22.000Z</Time>
            <Position>
              <LatitudeDegrees>36.4836965315043926239013671875</LatitudeDegrees>
              <LongitudeDegrees>-5.408347584307193756103515625</LongitudeDegrees>
            </Position>
            <AltitudeMeters>67.1999969482421875</AltitudeMeters>
            <DistanceMeters>NAN</DistanceMeters>
          </Trackpoint>
          <Trackpoint>
            <Time>2019-01-04T11:46:23.000Z</Time>
            <Position>
              <LatitudeDegrees>36.4836811088025569915771484375</LatitudeDegrees>
              <LongitudeDegrees>-5.408346913754940032958984375</LongitudeDegrees>
            </Position>
            <AltitudeMeters>67.40000152587890625</AltitudeMeters>
            <DistanceMeters>NAN</DistanceMeters>
          </Trackpoint>
          <Trackpoint>
            <Time>2019-01-04T11:46:24.000Z</Time>
            <Position>
              <LatitudeDegrees>36.4836650155484676361083984375</LatitudeDegrees>
              <LongitudeDegrees>-5.4083464108407497406005859375</LongitudeDegrees>
            </Position>
            <AltitudeMeters>67.40000152587890625</AltitudeMeters>
            <DistanceMeters>NAN</DistanceMeters>
          </Trackpoint>
          <Trackpoint>
            <Time>2019-01-04T11:46:25.000Z</Time>
            <Position>
              <LatitudeDegrees>36.48364883847534656524658203125</LatitudeDegrees>
              <LongitudeDegrees>-5.40834523737430572509765625</LongitudeDegrees>
            </Position>
            <AltitudeMeters>67.40000152587890625</AltitudeMeters>
            <DistanceMeters>NAN</DistanceMeters>
          </Trackpoint>
          <Trackpoint>
            <Time>2019-01-04T11:46:26.000Z</Time>
            <Position>
              <LatitudeDegrees>36.48363475687801837921142578125</LatitudeDegrees>
              <LongitudeDegrees>-5.4083440639078617095947265625</LongitudeDegrees>
            </Position>
            <AltitudeMeters>67.40000152587890625</AltitudeMeters>
            <DistanceMeters>NAN</DistanceMeters>
          </Trackpoint>
          <Trackpoint>
            <Time>2019-01-04T11:46:27.000Z</Time>
            <Position>
              <LatitudeDegrees>36.48362134583294391632080078125</LatitudeDegrees>
              <LongitudeDegrees>-5.4083410464227199554443359375</LongitudeDegrees>
            </Position>
            <AltitudeMeters>67.40000152587890625</AltitudeMeters>
            <DistanceMeters>NAN</DistanceMeters>
          </Trackpoint>
          <Trackpoint>
            <Time>2019-01-04T11:46:28.000Z</Time>
            <Position>
              <LatitudeDegrees>36.48360424675047397613525390625</LatitudeDegrees>
              <LongitudeDegrees>-5.408337526023387908935546875</LongitudeDegrees>
            </Position>
            <AltitudeMeters>67.59999847412109375</AltitudeMeters>
            <DistanceMeters>NAN</DistanceMeters>
          </Trackpoint>
          <Trackpoint>
            <Time>2019-01-04T11:46:29.000Z</Time>
            <Position>
              <LatitudeDegrees>36.48358932696282863616943359375</LatitudeDegrees>
              <LongitudeDegrees>-5.40833576582372188568115234375</LongitudeDegrees>
            </Position>
            <AltitudeMeters>67.59999847412109375</AltitudeMeters>
            <DistanceMeters>NAN</DistanceMeters>
          </Trackpoint>
          <Trackpoint>
            <Time>2019-01-04T11:46:30.000Z</Time>
            <Position>
              <LatitudeDegrees>36.48357356898486614227294921875</LatitudeDegrees>
              <LongitudeDegrees>-5.4083303175866603851318359375</LongitudeDegrees>
            </Position>
            <AltitudeMeters>67.59999847412109375</AltitudeMeters>
            <DistanceMeters>NAN</DistanceMeters>
          </Trackpoint>
          <Trackpoint>
            <Time>2019-01-04T11:46:31.000Z</Time>
            <Position>
              <LatitudeDegrees>36.48355948738753795623779296875</LatitudeDegrees>
              <LongitudeDegrees>-5.40832621045410633087158203125</LongitudeDegrees>
            </Position>
            <AltitudeMeters>67.8000030517578125</AltitudeMeters>
            <DistanceMeters>NAN</DistanceMeters>
          </Trackpoint>
          <Trackpoint>
            <Time>2019-01-04T11:46:32.000Z</Time>
            <Position>
              <LatitudeDegrees>36.4835469983518123626708984375</LatitudeDegrees>
              <LongitudeDegrees>-5.40832352824509143829345703125</LongitudeDegrees>
            </Position>
            <AltitudeMeters>67.8000030517578125</AltitudeMeters>
            <DistanceMeters>NAN</DistanceMeters>
          </Trackpoint>
          <Trackpoint>
            <Time>2019-01-04T11:46:33.000Z</Time>
            <Position>
              <LatitudeDegrees>36.483537442982196807861328125</LatitudeDegrees>
              <LongitudeDegrees>-5.408322103321552276611328125</LongitudeDegrees>
            </Position>
            <AltitudeMeters>68</AltitudeMeters>
            <DistanceMeters>NAN</DistanceMeters>
          </Trackpoint>
          <Trackpoint>
            <Time>2019-01-04T11:46:34.000Z</Time>
            <Position>
              <LatitudeDegrees>36.4835288934409618377685546875</LatitudeDegrees>
              <LongitudeDegrees>-5.40832386352121829986572265625</LongitudeDegrees>
            </Position>
            <AltitudeMeters>68</AltitudeMeters>
            <DistanceMeters>NAN</DistanceMeters>
          </Trackpoint>
          <Trackpoint>
            <Time>2019-01-04T11:46:35.000Z</Time>
            <Position>
              <LatitudeDegrees>36.48352160118520259857177734375</LatitudeDegrees>
              <LongitudeDegrees>-5.4083262942731380462646484375</LongitudeDegrees>
            </Position>
            <AltitudeMeters>68.1999969482421875</AltitudeMeters>
            <DistanceMeters>NAN</DistanceMeters>
          </Trackpoint>
          <Trackpoint>
            <Time>2019-01-04T11:46:36.000Z</Time>
            <Position>
              <LatitudeDegrees>36.48351053707301616668701171875</LatitudeDegrees>
              <LongitudeDegrees>-5.4083222709596157073974609375</LongitudeDegrees>
            </Position>
            <AltitudeMeters>68.40000152587890625</AltitudeMeters>
            <DistanceMeters>NAN</DistanceMeters>
          </Trackpoint>
          <Trackpoint>
            <Time>2019-01-04T11:46:37.000Z</Time>
            <Position>
              <LatitudeDegrees>36.48349729366600513458251953125</LatitudeDegrees>
              <LongitudeDegrees>-5.4083199240267276763916015625</LongitudeDegrees>
            </Position>
            <AltitudeMeters>68.59999847412109375</AltitudeMeters>
            <DistanceMeters>NAN</DistanceMeters>
          </Trackpoint>
          <Trackpoint>
            <Time>2019-01-04T11:46:38.000Z</Time>
            <Position>
              <LatitudeDegrees>36.4834832958877086639404296875</LatitudeDegrees>
              <LongitudeDegrees>-5.40831799618899822235107421875</LongitudeDegrees>
            </Position>
            <AltitudeMeters>69</AltitudeMeters>
            <DistanceMeters>NAN</DistanceMeters>
          </Trackpoint>
          <Trackpoint>
            <Time>2019-01-04T11:46:39.000Z</Time>
            <Position>
              <LatitudeDegrees>36.48346795700490474700927734375</LatitudeDegrees>
              <LongitudeDegrees>-5.4083164036273956298828125</LongitudeDegrees>
            </Position>
            <AltitudeMeters>69.1999969482421875</AltitudeMeters>
            <DistanceMeters>NAN</DistanceMeters>
          </Trackpoint>
          <Trackpoint>
            <Time>2019-01-04T11:46:40.000Z</Time>
            <Position>
              <LatitudeDegrees>36.48345219902694225311279296875</LatitudeDegrees>
              <LongitudeDegrees>-5.40831564925611019134521484375</LongitudeDegrees>
            </Position>
            <AltitudeMeters>69.40000152587890625</AltitudeMeters>
            <DistanceMeters>NAN</DistanceMeters>
          </Trackpoint>
          <Trackpoint>
            <Time>2019-01-04T11:46:41.000Z</Time>
            <Position>
              <LatitudeDegrees>36.48343543522059917449951171875</LatitudeDegrees>
              <LongitudeDegrees>-5.40831514634191989898681640625</LongitudeDegrees>
            </Position>
            <AltitudeMeters>69.59999847412109375</AltitudeMeters>
            <DistanceMeters>NAN</DistanceMeters>
          </Trackpoint>
          <Trackpoint>
            <Time>2019-01-04T11:46:42.000Z</Time>
            <Position>
              <LatitudeDegrees>36.483421437442302703857421875</LatitudeDegrees>
              <LongitudeDegrees>-5.408314727246761322021484375</LongitudeDegrees>
            </Position>
            <AltitudeMeters>69.59999847412109375</AltitudeMeters>
            <DistanceMeters>NAN</DistanceMeters>
          </Trackpoint>
          <Trackpoint>
            <Time>2019-01-04T11:46:43.000Z</Time>
            <Position>
              <LatitudeDegrees>36.483404003083705902099609375</LatitudeDegrees>
              <LongitudeDegrees>-5.4083125479519367218017578125</LongitudeDegrees>
            </Position>
            <AltitudeMeters>69.8000030517578125</AltitudeMeters>
            <DistanceMeters>NAN</DistanceMeters>
          </Trackpoint>
          <Trackpoint>
            <Time>2019-01-04T11:46:44.000Z</Time>
            <Position>
              <LatitudeDegrees>36.48338866420090198516845703125</LatitudeDegrees>
              <LongitudeDegrees>-5.40831246413290500640869140625</LongitudeDegrees>
            </Position>
            <AltitudeMeters>69.8000030517578125</AltitudeMeters>
            <DistanceMeters>NAN</DistanceMeters>
          </Trackpoint>
          <Trackpoint>
            <Time>2019-01-04T11:46:45.000Z</Time>
            <Position>
              <LatitudeDegrees>36.48337550461292266845703125</LatitudeDegrees>
              <LongitudeDegrees>-5.40831548161804676055908203125</LongitudeDegrees>
            </Position>
            <AltitudeMeters>69.8000030517578125</AltitudeMeters>
            <DistanceMeters>NAN</DistanceMeters>
          </Trackpoint>
          <Trackpoint>
            <Time>2019-01-04T11:46:46.000Z</Time>
            <Position>
              <LatitudeDegrees>36.48335983045399188995361328125</LatitudeDegrees>
              <LongitudeDegrees>-5.4083172418177127838134765625</LongitudeDegrees>
            </Position>
            <AltitudeMeters>69.59999847412109375</AltitudeMeters>
            <DistanceMeters>NAN</DistanceMeters>
          </Trackpoint>
          <Trackpoint>
            <Time>2019-01-04T11:46:47.000Z</Time>
            <Position>
              <LatitudeDegrees>36.48334373719990253448486328125</LatitudeDegrees>
              <LongitudeDegrees>-5.408317744731903076171875</LongitudeDegrees>
            </Position>
            <AltitudeMeters>69.59999847412109375</AltitudeMeters>
            <DistanceMeters>NAN</DistanceMeters>
          </Trackpoint>
          <Trackpoint>
            <Time>2019-01-04T11:46:48.000Z</Time>
            <Position>
              <LatitudeDegrees>36.4833267219364643096923828125</LatitudeDegrees>
              <LongitudeDegrees>-5.40832051075994968414306640625</LongitudeDegrees>
            </Position>
            <AltitudeMeters>69.8000030517578125</AltitudeMeters>
            <DistanceMeters>NAN</DistanceMeters>
          </Trackpoint>
          <Trackpoint>
            <Time>2019-01-04T11:46:49.000Z</Time>
            <Position>
              <LatitudeDegrees>36.48330970667302608489990234375</LatitudeDegrees>
              <LongitudeDegrees>-5.40832352824509143829345703125</LongitudeDegrees>
            </Position>
            <AltitudeMeters>69.8000030517578125</AltitudeMeters>
            <DistanceMeters>NAN</DistanceMeters>
          </Trackpoint>
          <Trackpoint>
            <Time>2019-01-04T11:46:50.000Z</Time>
            <Position>
              <LatitudeDegrees>36.4832921884953975677490234375</LatitudeDegrees>
              <LongitudeDegrees>-5.408323109149932861328125</LongitudeDegrees>
            </Position>
            <AltitudeMeters>69.8000030517578125</AltitudeMeters>
            <DistanceMeters>NAN</DistanceMeters>
          </Trackpoint>
          <Trackpoint>
            <Time>2019-01-04T11:46:51.000Z</Time>
            <Position>
              <LatitudeDegrees>36.483273915946483612060546875</LatitudeDegrees>
              <LongitudeDegrees>-5.408321432769298553466796875</LongitudeDegrees>
            </Position>
            <AltitudeMeters>70</AltitudeMeters>
            <DistanceMeters>NAN</DistanceMeters>
          </Trackpoint>
          <Trackpoint>
            <Time>2019-01-04T11:46:52.000Z</Time>
            <Position>
              <LatitudeDegrees>36.48325614631175994873046875</LatitudeDegrees>
              <LongitudeDegrees>-5.40832185186445713043212890625</LongitudeDegrees>
            </Position>
            <AltitudeMeters>70</AltitudeMeters>
            <DistanceMeters>NAN</DistanceMeters>
          </Trackpoint>
          <Trackpoint>
            <Time>2019-01-04T11:46:53.000Z</Time>
            <Position>
              <LatitudeDegrees>36.4832398854196071624755859375</LatitudeDegrees>
              <LongitudeDegrees>-5.40832302533090114593505859375</LongitudeDegrees>
            </Position>
            <AltitudeMeters>70.1999969482421875</AltitudeMeters>
            <DistanceMeters>NAN</DistanceMeters>
          </Trackpoint>
          <Trackpoint>
            <Time>2019-01-04T11:46:54.000Z</Time>
            <Position>
              <LatitudeDegrees>36.4832231216132640838623046875</LatitudeDegrees>
              <LongitudeDegrees>-5.40832285769283771514892578125</LongitudeDegrees>
            </Position>
            <AltitudeMeters>70.1999969482421875</AltitudeMeters>
            <DistanceMeters>NAN</DistanceMeters>
          </Trackpoint>
          <Trackpoint>
            <Time>2019-01-04T11:46:55.000Z</Time>
            <Position>
              <LatitudeDegrees>36.48320660926401615142822265625</LatitudeDegrees>
              <LongitudeDegrees>-5.40832218714058399200439453125</LongitudeDegrees>
            </Position>
            <AltitudeMeters>70.1999969482421875</AltitudeMeters>
            <DistanceMeters>NAN</DistanceMeters>
          </Trackpoint>
          <Trackpoint>
            <Time>2019-01-04T11:46:56.000Z</Time>
            <Position>
              <LatitudeDegrees>36.48319135420024394989013671875</LatitudeDegrees>
              <LongitudeDegrees>-5.408320762217044830322265625</LongitudeDegrees>
            </Position>
            <AltitudeMeters>70.1999969482421875</AltitudeMeters>
            <DistanceMeters>NAN</DistanceMeters>
          </Trackpoint>
          <Trackpoint>
            <Time>2019-01-04T11:46:57.000Z</Time>
            <Position>
              <LatitudeDegrees>36.48317559622228145599365234375</LatitudeDegrees>
              <LongitudeDegrees>-5.4083190858364105224609375</LongitudeDegrees>
            </Position>
            <AltitudeMeters>70.1999969482421875</AltitudeMeters>
            <DistanceMeters>NAN</DistanceMeters>
          </Trackpoint>
          <Trackpoint>
            <Time>2019-01-04T11:46:58.000Z</Time>
            <Position>
              <LatitudeDegrees>36.48316151462495326995849609375</LatitudeDegrees>
              <LongitudeDegrees>-5.40831984020769596099853515625</LongitudeDegrees>
            </Position>
            <AltitudeMeters>70.1999969482421875</AltitudeMeters>
            <DistanceMeters>NAN</DistanceMeters>
          </Trackpoint>
          <Trackpoint>
            <Time>2019-01-04T11:46:59.000Z</Time>
            <Position>
              <LatitudeDegrees>36.48314416408538818359375</LatitudeDegrees>
              <LongitudeDegrees>-5.408317409455776214599609375</LongitudeDegrees>
            </Position>
            <AltitudeMeters>70.1999969482421875</AltitudeMeters>
            <DistanceMeters>NAN</DistanceMeters>
          </Trackpoint>
          <Trackpoint>
            <Time>2019-01-04T11:47:00.000Z</Time>
            <Position>
              <LatitudeDegrees>36.4831295795738697052001953125</LatitudeDegrees>
              <LongitudeDegrees>-5.4083152301609516143798828125</LongitudeDegrees>
            </Position>
            <AltitudeMeters>70.1999969482421875</AltitudeMeters>
            <DistanceMeters>NAN</DistanceMeters>
          </Trackpoint>
          <Trackpoint>
            <Time>2019-01-04T11:47:01.000Z</Time>
            <Position>
              <LatitudeDegrees>36.48311398923397064208984375</LatitudeDegrees>
              <LongitudeDegrees>-5.40831129066646099090576171875</LongitudeDegrees>
            </Position>
            <AltitudeMeters>70.1999969482421875</AltitudeMeters>
            <DistanceMeters>NAN</DistanceMeters>
          </Trackpoint>
          <Trackpoint>
            <Time>2019-01-04T11:47:02.000Z</Time>
            <Position>
              <LatitudeDegrees>36.48309848271310329437255859375</LatitudeDegrees>
              <LongitudeDegrees>-5.40830877609550952911376953125</LongitudeDegrees>
            </Position>
            <AltitudeMeters>70.1999969482421875</AltitudeMeters>
            <DistanceMeters>NAN</DistanceMeters>
          </Trackpoint>
          <Trackpoint>
            <Time>2019-01-04T11:47:03.000Z</Time>
            <Position>
              <LatitudeDegrees>36.48308306001126766204833984375</LatitudeDegrees>
              <LongitudeDegrees>-5.4083085246384143829345703125</LongitudeDegrees>
            </Position>
            <AltitudeMeters>70.1999969482421875</AltitudeMeters>
            <DistanceMeters>NAN</DistanceMeters>
          </Trackpoint>
          <Trackpoint>
            <Time>2019-01-04T11:47:04.000Z</Time>
            <Position>
              <LatitudeDegrees>36.48306705057621002197265625</LatitudeDegrees>
              <LongitudeDegrees>-5.4083088599145412445068359375</LongitudeDegrees>
            </Position>
            <AltitudeMeters>70.1999969482421875</AltitudeMeters>
            <DistanceMeters>NAN</DistanceMeters>
          </Trackpoint>
          <Trackpoint>
            <Time>2019-01-04T11:47:05.000Z</Time>
            <Position>
              <LatitudeDegrees>36.4830507896840572357177734375</LatitudeDegrees>
              <LongitudeDegrees>-5.40831162594258785247802734375</LongitudeDegrees>
            </Position>
            <AltitudeMeters>70.1999969482421875</AltitudeMeters>
            <DistanceMeters>NAN</DistanceMeters>
          </Trackpoint>
          <Trackpoint>
            <Time>2019-01-04T11:47:06.000Z</Time>
            <Position>
              <LatitudeDegrees>36.48303511552512645721435546875</LatitudeDegrees>
              <LongitudeDegrees>-5.4083145596086978912353515625</LongitudeDegrees>
            </Position>
            <AltitudeMeters>70.1999969482421875</AltitudeMeters>
            <DistanceMeters>NAN</DistanceMeters>
          </Trackpoint>
          <Trackpoint>
            <Time>2019-01-04T11:47:07.000Z</Time>
            <Position>
              <LatitudeDegrees>36.48302002809941768646240234375</LatitudeDegrees>
              <LongitudeDegrees>-5.40832067839801311492919921875</LongitudeDegrees>
            </Position>
            <AltitudeMeters>70.1999969482421875</AltitudeMeters>
            <DistanceMeters>NAN</DistanceMeters>
          </Trackpoint>
          <Trackpoint>
            <Time>2019-01-04T11:47:08.000Z</Time>
            <Position>
              <LatitudeDegrees>36.48300326429307460784912109375</LatitudeDegrees>
              <LongitudeDegrees>-5.40832503698766231536865234375</LongitudeDegrees>
            </Position>
            <AltitudeMeters>70.1999969482421875</AltitudeMeters>
            <DistanceMeters>NAN</DistanceMeters>
          </Trackpoint>
          <Trackpoint>
            <Time>2019-01-04T11:47:09.000Z</Time>
            <Position>
              <LatitudeDegrees>36.48298524320125579833984375</LatitudeDegrees>
              <LongitudeDegrees>-5.408328473567962646484375</LongitudeDegrees>
            </Position>
            <AltitudeMeters>70.1999969482421875</AltitudeMeters>
            <DistanceMeters>NAN</DistanceMeters>
          </Trackpoint>
          <Trackpoint>
            <Time>2019-01-04T11:47:10.000Z</Time>
            <Position>
              <LatitudeDegrees>36.48296856321394443511962890625</LatitudeDegrees>
              <LongitudeDegrees>-5.408335514366626739501953125</LongitudeDegrees>
            </Position>
            <AltitudeMeters>70.40000152587890625</AltitudeMeters>
            <DistanceMeters>NAN</DistanceMeters>
          </Trackpoint>
          <Trackpoint>
            <Time>2019-01-04T11:47:11.000Z</Time>
            <Position>
              <LatitudeDegrees>36.4829522185027599334716796875</LatitudeDegrees>
              <LongitudeDegrees>-5.408336184918880462646484375</LongitudeDegrees>
            </Position>
            <AltitudeMeters>70.40000152587890625</AltitudeMeters>
            <DistanceMeters>NAN</DistanceMeters>
          </Trackpoint>
          <Trackpoint>
            <Time>2019-01-04T11:47:12.000Z</Time>
            <Position>
              <LatitudeDegrees>36.48293604142963886260986328125</LatitudeDegrees>
              <LongitudeDegrees>-5.4083366878330707550048828125</LongitudeDegrees>
            </Position>
            <AltitudeMeters>70.59999847412109375</AltitudeMeters>
            <DistanceMeters>NAN</DistanceMeters>
          </Trackpoint>
          <Trackpoint>
            <Time>2019-01-04T11:47:13.000Z</Time>
            <Position>
              <LatitudeDegrees>36.48292087018489837646484375</LatitudeDegrees>
              <LongitudeDegrees>-5.40833911858499050140380859375</LongitudeDegrees>
            </Position>
            <AltitudeMeters>70.59999847412109375</AltitudeMeters>
            <DistanceMeters>NAN</DistanceMeters>
          </Trackpoint>
          <Trackpoint>
            <Time>2019-01-04T11:47:14.000Z</Time>
            <Position>
              <LatitudeDegrees>36.4829059503972530364990234375</LatitudeDegrees>
              <LongitudeDegrees>-5.408342219889163970947265625</LongitudeDegrees>
            </Position>
            <AltitudeMeters>70.59999847412109375</AltitudeMeters>
            <DistanceMeters>NAN</DistanceMeters>
          </Trackpoint>
          <Trackpoint>
            <Time>2019-01-04T11:47:15.000Z</Time>
            <Position>
              <LatitudeDegrees>36.4828925393521785736083984375</LatitudeDegrees>
              <LongitudeDegrees>-5.40834230370819568634033203125</LongitudeDegrees>
            </Position>
            <AltitudeMeters>70.59999847412109375</AltitudeMeters>
            <DistanceMeters>NAN</DistanceMeters>
          </Trackpoint>
          <Trackpoint>
            <Time>2019-01-04T11:47:16.000Z</Time>
            <Position>
              <LatitudeDegrees>36.48287820629775524139404296875</LatitudeDegrees>
              <LongitudeDegrees>-5.40834347717463970184326171875</LongitudeDegrees>
            </Position>
            <AltitudeMeters>70.59999847412109375</AltitudeMeters>
            <DistanceMeters>NAN</DistanceMeters>
          </Trackpoint>
          <Trackpoint>
            <Time>2019-01-04T11:47:17.000Z</Time>
            <Position>
              <LatitudeDegrees>36.48286278359591960906982421875</LatitudeDegrees>
              <LongitudeDegrees>-5.4083437286317348480224609375</LongitudeDegrees>
            </Position>
            <AltitudeMeters>71</AltitudeMeters>
            <DistanceMeters>NAN</DistanceMeters>
          </Trackpoint>
          <Trackpoint>
            <Time>2019-01-04T11:47:18.000Z</Time>
            <Position>
              <LatitudeDegrees>36.48284870199859142303466796875</LatitudeDegrees>
              <LongitudeDegrees>-5.4083484224975109100341796875</LongitudeDegrees>
            </Position>
            <AltitudeMeters>71</AltitudeMeters>
            <DistanceMeters>NAN</DistanceMeters>
          </Trackpoint>
          <Trackpoint>
            <Time>2019-01-04T11:47:19.000Z</Time>
            <Position>
              <LatitudeDegrees>36.482834033668041229248046875</LatitudeDegrees>
              <LongitudeDegrees>-5.40835387073457241058349609375</LongitudeDegrees>
            </Position>
            <AltitudeMeters>71</AltitudeMeters>
            <DistanceMeters>NAN</DistanceMeters>
          </Trackpoint>
          <Trackpoint>
            <Time>2019-01-04T11:47:20.000Z</Time>
            <Position>
              <LatitudeDegrees>36.4828197844326496124267578125</LatitudeDegrees>
              <LongitudeDegrees>-5.40835957042872905731201171875</LongitudeDegrees>
            </Position>
            <AltitudeMeters>71.40000152587890625</AltitudeMeters>
            <DistanceMeters>NAN</DistanceMeters>
          </Trackpoint>
          <Trackpoint>
            <Time>2019-01-04T11:47:21.000Z</Time>
            <Position>
              <LatitudeDegrees>36.48280696012079715728759765625</LatitudeDegrees>
              <LongitudeDegrees>-5.40836158208549022674560546875</LongitudeDegrees>
            </Position>
            <AltitudeMeters>71.40000152587890625</AltitudeMeters>
            <DistanceMeters>NAN</DistanceMeters>
          </Trackpoint>
          <Trackpoint>
            <Time>2019-01-04T11:47:22.000Z</Time>
            <Position>
              <LatitudeDegrees>36.482795141637325286865234375</LatitudeDegrees>
              <LongitudeDegrees>-5.40836409665644168853759765625</LongitudeDegrees>
            </Position>
            <AltitudeMeters>71.59999847412109375</AltitudeMeters>
            <DistanceMeters>NAN</DistanceMeters>
          </Trackpoint>
          <Trackpoint>
            <Time>2019-01-04T11:47:23.000Z</Time>
            <Position>
              <LatitudeDegrees>36.4827825687825679779052734375</LatitudeDegrees>
              <LongitudeDegrees>-5.4083661921322345733642578125</LongitudeDegrees>
            </Position>
            <AltitudeMeters>71.59999847412109375</AltitudeMeters>
            <DistanceMeters>NAN</DistanceMeters>
          </Trackpoint>
          <Trackpoint>
            <Time>2019-01-04T11:47:24.000Z</Time>
            <Position>
              <LatitudeDegrees>36.482771672308444976806640625</LatitudeDegrees>
              <LongitudeDegrees>-5.40837197564542293548583984375</LongitudeDegrees>
            </Position>
            <AltitudeMeters>71.40000152587890625</AltitudeMeters>
            <DistanceMeters>NAN</DistanceMeters>
          </Trackpoint>
          <Trackpoint>
            <Time>2019-01-04T11:47:25.000Z</Time>
            <Position>
              <LatitudeDegrees>36.48276052437722682952880859375</LatitudeDegrees>
              <LongitudeDegrees>-5.40838069282472133636474609375</LongitudeDegrees>
            </Position>
            <AltitudeMeters>71.40000152587890625</AltitudeMeters>
            <DistanceMeters>NAN</DistanceMeters>
          </Trackpoint>
          <Trackpoint>
            <Time>2019-01-04T11:47:26.000Z</Time>
            <Position>
              <LatitudeDegrees>36.48275163955986499786376953125</LatitudeDegrees>
              <LongitudeDegrees>-5.40839209221303462982177734375</LongitudeDegrees>
            </Position>
            <AltitudeMeters>71.40000152587890625</AltitudeMeters>
            <DistanceMeters>NAN</DistanceMeters>
          </Trackpoint>
          <Trackpoint>
            <Time>2019-01-04T11:47:27.000Z</Time>
            <Position>
              <LatitudeDegrees>36.482742168009281158447265625</LatitudeDegrees>
              <LongitudeDegrees>-5.40840399451553821563720703125</LongitudeDegrees>
            </Position>
            <AltitudeMeters>71.1999969482421875</AltitudeMeters>
            <DistanceMeters>NAN</DistanceMeters>
          </Trackpoint>
          <Trackpoint>
            <Time>2019-01-04T11:47:28.000Z</Time>
            <Position>
              <LatitudeDegrees>36.48273118771612644195556640625</LatitudeDegrees>
              <LongitudeDegrees>-5.40841237641870975494384765625</LongitudeDegrees>
            </Position>
            <AltitudeMeters>71.1999969482421875</AltitudeMeters>
            <DistanceMeters>NAN</DistanceMeters>
          </Trackpoint>
          <Trackpoint>
            <Time>2019-01-04T11:47:29.000Z</Time>
            <Position>
              <LatitudeDegrees>36.48271861486136913299560546875</LatitudeDegrees>
              <LongitudeDegrees>-5.40842142887413501739501953125</LongitudeDegrees>
            </Position>
            <AltitudeMeters>71</AltitudeMeters>
            <DistanceMeters>NAN</DistanceMeters>
          </Trackpoint>
          <Trackpoint>
            <Time>2019-01-04T11:47:30.000Z</Time>
            <Position>
              <LatitudeDegrees>36.48270520381629467010498046875</LatitudeDegrees>
              <LongitudeDegrees>-5.4084322415292263031005859375</LongitudeDegrees>
            </Position>
            <AltitudeMeters>71</AltitudeMeters>
            <DistanceMeters>NAN</DistanceMeters>
          </Trackpoint>
          <Trackpoint>
            <Time>2019-01-04T11:47:31.000Z</Time>
            <Position>
              <LatitudeDegrees>36.4826922118663787841796875</LatitudeDegrees>
              <LongitudeDegrees>-5.40844179689884185791015625</LongitudeDegrees>
            </Position>
            <AltitudeMeters>71</AltitudeMeters>
            <DistanceMeters>NAN</DistanceMeters>
          </Trackpoint>
          <Trackpoint>
            <Time>2019-01-04T11:47:32.000Z</Time>
            <Position>
              <LatitudeDegrees>36.48267804645001888275146484375</LatitudeDegrees>
              <LongitudeDegrees>-5.40844942443072795867919921875</LongitudeDegrees>
            </Position>
            <AltitudeMeters>71</AltitudeMeters>
            <DistanceMeters>NAN</DistanceMeters>
          </Trackpoint>
          <Trackpoint>
            <Time>2019-01-04T11:47:33.000Z</Time>
            <Position>
              <LatitudeDegrees>36.48266463540494441986083984375</LatitudeDegrees>
              <LongitudeDegrees>-5.40845797397196292877197265625</LongitudeDegrees>
            </Position>
            <AltitudeMeters>70.8000030517578125</AltitudeMeters>
            <DistanceMeters>NAN</DistanceMeters>
          </Trackpoint>
          <Trackpoint>
            <Time>2019-01-04T11:47:34.000Z</Time>
            <Position>
              <LatitudeDegrees>36.4826511405408382415771484375</LatitudeDegrees>
              <LongitudeDegrees>-5.408465601503849029541015625</LongitudeDegrees>
            </Position>
            <AltitudeMeters>71</AltitudeMeters>
            <DistanceMeters>NAN</DistanceMeters>
          </Trackpoint>
          <Trackpoint>
            <Time>2019-01-04T11:47:35.000Z</Time>
            <Position>
              <LatitudeDegrees>36.48263731040060520172119140625</LatitudeDegrees>
              <LongitudeDegrees>-5.40847264230251312255859375</LongitudeDegrees>
            </Position>
            <AltitudeMeters>71</AltitudeMeters>
            <DistanceMeters>NAN</DistanceMeters>
          </Trackpoint>
          <Trackpoint>
            <Time>2019-01-04T11:47:36.000Z</Time>
            <Position>
              <LatitudeDegrees>36.48262423463165760040283203125</LatitudeDegrees>
              <LongitudeDegrees>-5.408481024205684661865234375</LongitudeDegrees>
            </Position>
            <AltitudeMeters>71.1999969482421875</AltitudeMeters>
            <DistanceMeters>NAN</DistanceMeters>
          </Trackpoint>
          <Trackpoint>
            <Time>2019-01-04T11:47:37.000Z</Time>
            <Position>
              <LatitudeDegrees>36.48261166177690029144287109375</LatitudeDegrees>
              <LongitudeDegrees>-5.408489406108856201171875</LongitudeDegrees>
            </Position>
            <AltitudeMeters>71.59999847412109375</AltitudeMeters>
            <DistanceMeters>NAN</DistanceMeters>
          </Trackpoint>
          <Trackpoint>
            <Time>2019-01-04T11:47:38.000Z</Time>
            <Position>
              <LatitudeDegrees>36.48259825073182582855224609375</LatitudeDegrees>
              <LongitudeDegrees>-5.40849854238331317901611328125</LongitudeDegrees>
            </Position>
            <AltitudeMeters>71.8000030517578125</AltitudeMeters>
            <DistanceMeters>NAN</DistanceMeters>
          </Trackpoint>
          <Trackpoint>
            <Time>2019-01-04T11:47:39.000Z</Time>
            <Position>
              <LatitudeDegrees>36.4825864322483539581298828125</LatitudeDegrees>
              <LongitudeDegrees>-5.40851010940968990325927734375</LongitudeDegrees>
            </Position>
            <AltitudeMeters>72</AltitudeMeters>
            <DistanceMeters>NAN</DistanceMeters>
          </Trackpoint>
          <Trackpoint>
            <Time>2019-01-04T11:47:40.000Z</Time>
            <Position>
              <LatitudeDegrees>36.48257712833583354949951171875</LatitudeDegrees>
              <LongitudeDegrees>-5.40852092206478118896484375</LongitudeDegrees>
            </Position>
            <AltitudeMeters>72.1999969482421875</AltitudeMeters>
            <DistanceMeters>NAN</DistanceMeters>
          </Trackpoint>
          <Trackpoint>
            <Time>2019-01-04T11:47:41.000Z</Time>
            <Position>
              <LatitudeDegrees>36.48256606422364711761474609375</LatitudeDegrees>
              <LongitudeDegrees>-5.40852888487279415130615234375</LongitudeDegrees>
            </Position>
            <AltitudeMeters>72.40000152587890625</AltitudeMeters>
            <DistanceMeters>NAN</DistanceMeters>
          </Trackpoint>
          <Trackpoint>
            <Time>2019-01-04T11:47:42.000Z</Time>
            <Position>
              <LatitudeDegrees>36.48255399428308010101318359375</LatitudeDegrees>
              <LongitudeDegrees>-5.40853760205209255218505859375</LongitudeDegrees>
            </Position>
            <AltitudeMeters>72.59999847412109375</AltitudeMeters>
            <DistanceMeters>NAN</DistanceMeters>
          </Trackpoint>
          <Trackpoint>
            <Time>2019-01-04T11:47:43.000Z</Time>
            <Position>
              <LatitudeDegrees>36.4825408346951007843017578125</LatitudeDegrees>
              <LongitudeDegrees>-5.40854497812688350677490234375</LongitudeDegrees>
            </Position>
            <AltitudeMeters>72.8000030517578125</AltitudeMeters>
            <DistanceMeters>NAN</DistanceMeters>
          </Trackpoint>
          <Trackpoint>
            <Time>2019-01-04T11:47:44.000Z</Time>
            <Position>
              <LatitudeDegrees>36.48252733983099460601806640625</LatitudeDegrees>
              <LongitudeDegrees>-5.40854900144040584564208984375</LongitudeDegrees>
            </Position>
            <AltitudeMeters>73.1999969482421875</AltitudeMeters>
            <DistanceMeters>NAN</DistanceMeters>
          </Trackpoint>
          <Trackpoint>
            <Time>2019-01-04T11:47:45.000Z</Time>
            <Position>
              <LatitudeDegrees>36.48251376114785671234130859375</LatitudeDegrees>
              <LongitudeDegrees>-5.40855176746845245361328125</LongitudeDegrees>
            </Position>
            <AltitudeMeters>73.40000152587890625</AltitudeMeters>
            <DistanceMeters>NAN</DistanceMeters>
          </Trackpoint>
          <Trackpoint>
            <Time>2019-01-04T11:47:46.000Z</Time>
            <Position>
              <LatitudeDegrees>36.4825002662837505340576171875</LatitudeDegrees>
              <LongitudeDegrees>-5.40855704806745052337646484375</LongitudeDegrees>
            </Position>
            <AltitudeMeters>73.59999847412109375</AltitudeMeters>
            <DistanceMeters>NAN</DistanceMeters>
          </Trackpoint>
          <Trackpoint>
            <Time>2019-01-04T11:47:47.000Z</Time>
            <Position>
              <LatitudeDegrees>36.4824855141341686248779296875</LatitudeDegrees>
              <LongitudeDegrees>-5.4085633344948291778564453125</LongitudeDegrees>
            </Position>
            <AltitudeMeters>73.8000030517578125</AltitudeMeters>
            <DistanceMeters>NAN</DistanceMeters>
          </Trackpoint>
          <Trackpoint>
            <Time>2019-01-04T11:47:48.000Z</Time>
            <Position>
              <LatitudeDegrees>36.482471264898777008056640625</LatitudeDegrees>
              <LongitudeDegrees>-5.40856911800801753997802734375</LongitudeDegrees>
            </Position>
            <AltitudeMeters>73.8000030517578125</AltitudeMeters>
            <DistanceMeters>NAN</DistanceMeters>
          </Trackpoint>
          <Trackpoint>
            <Time>2019-01-04T11:47:49.000Z</Time>
            <Position>
              <LatitudeDegrees>36.482457853853702545166015625</LatitudeDegrees>
              <LongitudeDegrees>-5.40857766754925251007080078125</LongitudeDegrees>
            </Position>
            <AltitudeMeters>73.8000030517578125</AltitudeMeters>
            <DistanceMeters>NAN</DistanceMeters>
          </Trackpoint>
          <Trackpoint>
            <Time>2019-01-04T11:47:50.000Z</Time>
            <Position>
              <LatitudeDegrees>36.48244486190378665924072265625</LatitudeDegrees>
              <LongitudeDegrees>-5.4085868038237094879150390625</LongitudeDegrees>
            </Position>
            <AltitudeMeters>74</AltitudeMeters>
            <DistanceMeters>NAN</DistanceMeters>
          </Trackpoint>
          <Trackpoint>
            <Time>2019-01-04T11:47:51.000Z</Time>
            <Position>
              <LatitudeDegrees>36.482431702315807342529296875</LatitudeDegrees>
              <LongitudeDegrees>-5.40859677828848361968994140625</LongitudeDegrees>
            </Position>
            <AltitudeMeters>74</AltitudeMeters>
            <DistanceMeters>NAN</DistanceMeters>
          </Trackpoint>
          <Trackpoint>
            <Time>2019-01-04T11:47:52.000Z</Time>
            <Position>
              <LatitudeDegrees>36.48241854272782802581787109375</LatitudeDegrees>
              <LongitudeDegrees>-5.40860272943973541259765625</LongitudeDegrees>
            </Position>
            <AltitudeMeters>74.1999969482421875</AltitudeMeters>
            <DistanceMeters>NAN</DistanceMeters>
          </Trackpoint>
          <Trackpoint>
            <Time>2019-01-04T11:47:53.000Z</Time>
            <Position>
              <LatitudeDegrees>36.482408232986927032470703125</LatitudeDegrees>
              <LongitudeDegrees>-5.4086153022944927215576171875</LongitudeDegrees>
            </Position>
            <AltitudeMeters>74.59999847412109375</AltitudeMeters>
            <DistanceMeters>NAN</DistanceMeters>
          </Trackpoint>
          <Trackpoint>
            <Time>2019-01-04T11:47:54.000Z</Time>
            <Position>
              <LatitudeDegrees>36.4823976717889308929443359375</LatitudeDegrees>
              <LongitudeDegrees>-5.40862552821636199951171875</LongitudeDegrees>
            </Position>
            <AltitudeMeters>75</AltitudeMeters>
            <DistanceMeters>NAN</DistanceMeters>
          </Trackpoint>
          <Trackpoint>
            <Time>2019-01-04T11:47:55.000Z</Time>
            <Position>
              <LatitudeDegrees>36.48238568566739559173583984375</LatitudeDegrees>
              <LongitudeDegrees>-5.4086355865001678466796875</LongitudeDegrees>
            </Position>
            <AltitudeMeters>75.1999969482421875</AltitudeMeters>
            <DistanceMeters>NAN</DistanceMeters>
          </Trackpoint>
          <Trackpoint>
            <Time>2019-01-04T11:47:56.000Z</Time>
            <Position>
              <LatitudeDegrees>36.48237504065036773681640625</LatitudeDegrees>
              <LongitudeDegrees>-5.40864639915525913238525390625</LongitudeDegrees>
            </Position>
            <AltitudeMeters>75.40000152587890625</AltitudeMeters>
            <DistanceMeters>NAN</DistanceMeters>
          </Trackpoint>
          <Trackpoint>
            <Time>2019-01-04T11:47:57.000Z</Time>
            <Position>
              <LatitudeDegrees>36.482363641262054443359375</LatitudeDegrees>
              <LongitudeDegrees>-5.40865612216293811798095703125</LongitudeDegrees>
            </Position>
            <AltitudeMeters>75.59999847412109375</AltitudeMeters>
            <DistanceMeters>NAN</DistanceMeters>
          </Trackpoint>
          <Trackpoint>
            <Time>2019-01-04T11:47:58.000Z</Time>
            <Position>
              <LatitudeDegrees>36.48235115222632884979248046875</LatitudeDegrees>
              <LongitudeDegrees>-5.4086655937135219573974609375</LongitudeDegrees>
            </Position>
            <AltitudeMeters>75.8000030517578125</AltitudeMeters>
            <DistanceMeters>NAN</DistanceMeters>
          </Trackpoint>
          <Trackpoint>
            <Time>2019-01-04T11:47:59.000Z</Time>
            <Position>
              <LatitudeDegrees>36.48233841173350811004638671875</LatitudeDegrees>
              <LongitudeDegrees>-5.40867355652153491973876953125</LongitudeDegrees>
            </Position>
            <AltitudeMeters>75.8000030517578125</AltitudeMeters>
            <DistanceMeters>NAN</DistanceMeters>
          </Trackpoint>
          <Trackpoint>
            <Time>2019-01-04T11:48:00.000Z</Time>
            <Position>
              <LatitudeDegrees>36.482323072850704193115234375</LatitudeDegrees>
              <LongitudeDegrees>-5.40868026204407215118408203125</LongitudeDegrees>
            </Position>
            <AltitudeMeters>75.8000030517578125</AltitudeMeters>
            <DistanceMeters>NAN</DistanceMeters>
          </Trackpoint>
          <Trackpoint>
            <Time>2019-01-04T11:48:01.000Z</Time>
            <Position>
              <LatitudeDegrees>36.48231066763401031494140625</LatitudeDegrees>
              <LongitudeDegrees>-5.40868453681468963623046875</LongitudeDegrees>
            </Position>
            <AltitudeMeters>76</AltitudeMeters>
            <DistanceMeters>NAN</DistanceMeters>
          </Trackpoint>
          <Trackpoint>
            <Time>2019-01-04T11:48:02.000Z</Time>
            <Position>
              <LatitudeDegrees>36.482299603521823883056640625</LatitudeDegrees>
              <LongitudeDegrees>-5.40869149379432201385498046875</LongitudeDegrees>
            </Position>
            <AltitudeMeters>76</AltitudeMeters>
            <DistanceMeters>NAN</DistanceMeters>
          </Trackpoint>
          <Trackpoint>
            <Time>2019-01-04T11:48:03.000Z</Time>
            <Position>
              <LatitudeDegrees>36.48228677920997142791748046875</LatitudeDegrees>
              <LongitudeDegrees>-5.4087024740874767303466796875</LongitudeDegrees>
            </Position>
            <AltitudeMeters>76</AltitudeMeters>
            <DistanceMeters>NAN</DistanceMeters>
          </Trackpoint>
          <Trackpoint>
            <Time>2019-01-04T11:48:04.000Z</Time>
            <Position>
              <LatitudeDegrees>36.48227118887007236480712890625</LatitudeDegrees>
              <LongitudeDegrees>-5.40871328674256801605224609375</LongitudeDegrees>
            </Position>
            <AltitudeMeters>76.1999969482421875</AltitudeMeters>
            <DistanceMeters>NAN</DistanceMeters>
          </Trackpoint>
          <Trackpoint>
            <Time>2019-01-04T11:48:05.000Z</Time>
            <Position>
              <LatitudeDegrees>36.482256017625331878662109375</LatitudeDegrees>
              <LongitudeDegrees>-5.4087246023118495941162109375</LongitudeDegrees>
            </Position>
            <AltitudeMeters>76.1999969482421875</AltitudeMeters>
            <DistanceMeters>NAN</DistanceMeters>
          </Trackpoint>
          <Trackpoint>
            <Time>2019-01-04T11:48:06.000Z</Time>
            <Position>
              <LatitudeDegrees>36.48224218748509883880615234375</LatitudeDegrees>
              <LongitudeDegrees>-5.40873290039598941802978515625</LongitudeDegrees>
            </Position>
            <AltitudeMeters>76.40000152587890625</AltitudeMeters>
            <DistanceMeters>NAN</DistanceMeters>
          </Trackpoint>
          <Trackpoint>
            <Time>2019-01-04T11:48:07.000Z</Time>
            <Position>
              <LatitudeDegrees>36.4822280220687389373779296875</LatitudeDegrees>
              <LongitudeDegrees>-5.40874220430850982666015625</LongitudeDegrees>
            </Position>
            <AltitudeMeters>76.8000030517578125</AltitudeMeters>
            <DistanceMeters>NAN</DistanceMeters>
          </Trackpoint>
          <Trackpoint>
            <Time>2019-01-04T11:48:08.000Z</Time>
            <Position>
              <LatitudeDegrees>36.482213772833347320556640625</LatitudeDegrees>
              <LongitudeDegrees>-5.4087504185736179351806640625</LongitudeDegrees>
            </Position>
            <AltitudeMeters>77</AltitudeMeters>
            <DistanceMeters>NAN</DistanceMeters>
          </Trackpoint>
          <Trackpoint>
            <Time>2019-01-04T11:48:09.000Z</Time>
            <Position>
              <LatitudeDegrees>36.482200361788272857666015625</LatitudeDegrees>
              <LongitudeDegrees>-5.40876072831451892852783203125</LongitudeDegrees>
            </Position>
            <AltitudeMeters>77.40000152587890625</AltitudeMeters>
            <DistanceMeters>NAN</DistanceMeters>
          </Trackpoint>
          <Trackpoint>
            <Time>2019-01-04T11:48:10.000Z</Time>
            <Position>
              <LatitudeDegrees>36.48218619637191295623779296875</LatitudeDegrees>
              <LongitudeDegrees>-5.408771038055419921875</LongitudeDegrees>
            </Position>
            <AltitudeMeters>77.59999847412109375</AltitudeMeters>
            <DistanceMeters>NAN</DistanceMeters>
          </Trackpoint>
          <Trackpoint>
            <Time>2019-01-04T11:48:11.000Z</Time>
            <Position>
              <LatitudeDegrees>36.48217161186039447784423828125</LatitudeDegrees>
              <LongitudeDegrees>-5.40877975523471832275390625</LongitudeDegrees>
            </Position>
            <AltitudeMeters>77.8000030517578125</AltitudeMeters>
            <DistanceMeters>NAN</DistanceMeters>
          </Trackpoint>
          <Trackpoint>
            <Time>2019-01-04T11:48:12.000Z</Time>
            <Position>
              <LatitudeDegrees>36.48215468041598796844482421875</LatitudeDegrees>
              <LongitudeDegrees>-5.4087893106043338775634765625</LongitudeDegrees>
            </Position>
            <AltitudeMeters>77.8000030517578125</AltitudeMeters>
            <DistanceMeters>NAN</DistanceMeters>
          </Trackpoint>
          <Trackpoint>
            <Time>2019-01-04T11:48:13.000Z</Time>
            <Position>
              <LatitudeDegrees>36.48213774897158145904541015625</LatitudeDegrees>
              <LongitudeDegrees>-5.4087980277836322784423828125</LongitudeDegrees>
            </Position>
            <AltitudeMeters>78</AltitudeMeters>
            <DistanceMeters>NAN</DistanceMeters>
          </Trackpoint>
          <Trackpoint>
            <Time>2019-01-04T11:48:14.000Z</Time>
            <Position>
              <LatitudeDegrees>36.4821235835552215576171875</LatitudeDegrees>
              <LongitudeDegrees>-5.40880464948713779449462890625</LongitudeDegrees>
            </Position>
            <AltitudeMeters>78.1999969482421875</AltitudeMeters>
            <DistanceMeters>NAN</DistanceMeters>
          </Trackpoint>
          <Trackpoint>
            <Time>2019-01-04T11:48:15.000Z</Time>
            <Position>
              <LatitudeDegrees>36.48210891522467136383056640625</LatitudeDegrees>
              <LongitudeDegrees>-5.40881068445742130279541015625</LongitudeDegrees>
            </Position>
            <AltitudeMeters>78.1999969482421875</AltitudeMeters>
            <DistanceMeters>NAN</DistanceMeters>
          </Trackpoint>
          <Trackpoint>
            <Time>2019-01-04T11:48:16.000Z</Time>
            <Position>
              <LatitudeDegrees>36.48209382779896259307861328125</LatitudeDegrees>
              <LongitudeDegrees>-5.40882107801735401153564453125</LongitudeDegrees>
            </Position>
            <AltitudeMeters>78.40000152587890625</AltitudeMeters>
            <DistanceMeters>NAN</DistanceMeters>
          </Trackpoint>
          <Trackpoint>
            <Time>2019-01-04T11:48:17.000Z</Time>
            <Position>
              <LatitudeDegrees>36.48207974620163440704345703125</LatitudeDegrees>
              <LongitudeDegrees>-5.40883205831050872802734375</LongitudeDegrees>
            </Position>
            <AltitudeMeters>78.40000152587890625</AltitudeMeters>
            <DistanceMeters>NAN</DistanceMeters>
          </Trackpoint>
          <Trackpoint>
            <Time>2019-01-04T11:48:18.000Z</Time>
            <Position>
              <LatitudeDegrees>36.48206549696624279022216796875</LatitudeDegrees>
              <LongitudeDegrees>-5.40884270332753658294677734375</LongitudeDegrees>
            </Position>
            <AltitudeMeters>78.40000152587890625</AltitudeMeters>
            <DistanceMeters>NAN</DistanceMeters>
          </Trackpoint>
          <Trackpoint>
            <Time>2019-01-04T11:48:19.000Z</Time>
            <Position>
              <LatitudeDegrees>36.4820538461208343505859375</LatitudeDegrees>
              <LongitudeDegrees>-5.40885628201067447662353515625</LongitudeDegrees>
            </Position>
            <AltitudeMeters>78.40000152587890625</AltitudeMeters>
            <DistanceMeters>NAN</DistanceMeters>
          </Trackpoint>
          <Trackpoint>
            <Time>2019-01-04T11:48:20.000Z</Time>
            <Position>
              <LatitudeDegrees>36.48204202763736248016357421875</LatitudeDegrees>
              <LongitudeDegrees>-5.40886826813220977783203125</LongitudeDegrees>
            </Position>
            <AltitudeMeters>78.40000152587890625</AltitudeMeters>
            <DistanceMeters>NAN</DistanceMeters>
          </Trackpoint>
          <Trackpoint>
            <Time>2019-01-04T11:48:21.000Z</Time>
            <Position>
              <LatitudeDegrees>36.4820281974971294403076171875</LatitudeDegrees>
              <LongitudeDegrees>-5.40888075716793537139892578125</LongitudeDegrees>
            </Position>
            <AltitudeMeters>78.40000152587890625</AltitudeMeters>
            <DistanceMeters>NAN</DistanceMeters>
          </Trackpoint>
          <Trackpoint>
            <Time>2019-01-04T11:48:22.000Z</Time>
            <Position>
              <LatitudeDegrees>36.48201704956591129302978515625</LatitudeDegrees>
              <LongitudeDegrees>-5.40889500640332698822021484375</LongitudeDegrees>
            </Position>
            <AltitudeMeters>78.40000152587890625</AltitudeMeters>
            <DistanceMeters>NAN</DistanceMeters>
          </Trackpoint>
          <Trackpoint>
            <Time>2019-01-04T11:48:23.000Z</Time>
            <Position>
              <LatitudeDegrees>36.48200531490147113800048828125</LatitudeDegrees>
              <LongitudeDegrees>-5.4089059866964817047119140625</LongitudeDegrees>
            </Position>
            <AltitudeMeters>78.40000152587890625</AltitudeMeters>
            <DistanceMeters>NAN</DistanceMeters>
          </Trackpoint>
          <Trackpoint>
            <Time>2019-01-04T11:48:24.000Z</Time>
            <Position>
              <LatitudeDegrees>36.48199542425572872161865234375</LatitudeDegrees>
              <LongitudeDegrees>-5.408914871513843536376953125</LongitudeDegrees>
            </Position>
            <AltitudeMeters>78.59999847412109375</AltitudeMeters>
            <DistanceMeters>NAN</DistanceMeters>
          </Trackpoint>
          <Trackpoint>
            <Time>2019-01-04T11:48:25.000Z</Time>
            <Position>
              <LatitudeDegrees>36.4819859527051448822021484375</LatitudeDegrees>
              <LongitudeDegrees>-5.4089234210550785064697265625</LongitudeDegrees>
            </Position>
            <AltitudeMeters>78.8000030517578125</AltitudeMeters>
            <DistanceMeters>NAN</DistanceMeters>
          </Trackpoint>
          <Trackpoint>
            <Time>2019-01-04T11:48:26.000Z</Time>
            <Position>
              <LatitudeDegrees>36.4819742180407047271728515625</LatitudeDegrees>
              <LongitudeDegrees>-5.408934317529201507568359375</LongitudeDegrees>
            </Position>
            <AltitudeMeters>79</AltitudeMeters>
            <DistanceMeters>NAN</DistanceMeters>
          </Trackpoint>
          <Trackpoint>
            <Time>2019-01-04T11:48:27.000Z</Time>
            <Position>
              <LatitudeDegrees>36.4819624833762645721435546875</LatitudeDegrees>
              <LongitudeDegrees>-5.40894546546041965484619140625</LongitudeDegrees>
            </Position>
            <AltitudeMeters>79</AltitudeMeters>
            <DistanceMeters>NAN</DistanceMeters>
          </Trackpoint>
          <Trackpoint>
            <Time>2019-01-04T11:48:28.000Z</Time>
            <Position>
              <LatitudeDegrees>36.48194982670247554779052734375</LatitudeDegrees>
              <LongitudeDegrees>-5.40895468555390834808349609375</LongitudeDegrees>
            </Position>
            <AltitudeMeters>79.1999969482421875</AltitudeMeters>
            <DistanceMeters>NAN</DistanceMeters>
          </Trackpoint>
          <Trackpoint>
            <Time>2019-01-04T11:48:29.000Z</Time>
            <Position>
              <LatitudeDegrees>36.481938175857067108154296875</LatitudeDegrees>
              <LongitudeDegrees>-5.40896357037127017974853515625</LongitudeDegrees>
            </Position>
            <AltitudeMeters>79.1999969482421875</AltitudeMeters>
            <DistanceMeters>NAN</DistanceMeters>
          </Trackpoint>
          <Trackpoint>
            <Time>2019-01-04T11:48:30.000Z</Time>
            <Position>
              <LatitudeDegrees>36.4819262735545635223388671875</LatitudeDegrees>
              <LongitudeDegrees>-5.40897153317928314208984375</LongitudeDegrees>
            </Position>
            <AltitudeMeters>79.40000152587890625</AltitudeMeters>
            <DistanceMeters>NAN</DistanceMeters>
          </Trackpoint>
          <Trackpoint>
            <Time>2019-01-04T11:48:31.000Z</Time>
            <Position>
              <LatitudeDegrees>36.4819158799946308135986328125</LatitudeDegrees>
              <LongitudeDegrees>-5.40897849015891551971435546875</LongitudeDegrees>
            </Position>
            <AltitudeMeters>79.40000152587890625</AltitudeMeters>
            <DistanceMeters>NAN</DistanceMeters>
          </Trackpoint>
          <Trackpoint>
            <Time>2019-01-04T11:48:32.000Z</Time>
            <Position>
              <LatitudeDegrees>36.48190406151115894317626953125</LatitudeDegrees>
              <LongitudeDegrees>-5.40898720733821392059326171875</LongitudeDegrees>
            </Position>
            <AltitudeMeters>79.59999847412109375</AltitudeMeters>
            <DistanceMeters>NAN</DistanceMeters>
          </Trackpoint>
          <Trackpoint>
            <Time>2019-01-04T11:48:33.000Z</Time>
            <Position>
              <LatitudeDegrees>36.48189199157059192657470703125</LatitudeDegrees>
              <LongitudeDegrees>-5.4089955054223537445068359375</LongitudeDegrees>
            </Position>
            <AltitudeMeters>79.8000030517578125</AltitudeMeters>
            <DistanceMeters>NAN</DistanceMeters>
          </Trackpoint>
          <Trackpoint>
            <Time>2019-01-04T11:48:34.000Z</Time>
            <Position>
              <LatitudeDegrees>36.481880843639373779296875</LatitudeDegrees>
              <LongitudeDegrees>-5.40900774300098419189453125</LongitudeDegrees>
            </Position>
            <AltitudeMeters>79.8000030517578125</AltitudeMeters>
            <DistanceMeters>NAN</DistanceMeters>
          </Trackpoint>
          <Trackpoint>
            <Time>2019-01-04T11:48:35.000Z</Time>
            <Position>
              <LatitudeDegrees>36.48187137208878993988037109375</LatitudeDegrees>
              <LongitudeDegrees>-5.4090189747512340545654296875</LongitudeDegrees>
            </Position>
            <AltitudeMeters>80</AltitudeMeters>
            <DistanceMeters>NAN</DistanceMeters>
          </Trackpoint>
          <Trackpoint>
            <Time>2019-01-04T11:48:36.000Z</Time>
            <Position>
              <LatitudeDegrees>36.48186131380498409271240234375</LatitudeDegrees>
              <LongitudeDegrees>-5.40902961976826190948486328125</LongitudeDegrees>
            </Position>
            <AltitudeMeters>80</AltitudeMeters>
            <DistanceMeters>NAN</DistanceMeters>
          </Trackpoint>
          <Trackpoint>
            <Time>2019-01-04T11:48:37.000Z</Time>
            <Position>
              <LatitudeDegrees>36.481851674616336822509765625</LatitudeDegrees>
              <LongitudeDegrees>-5.4090411029756069183349609375</LongitudeDegrees>
            </Position>
            <AltitudeMeters>80.1999969482421875</AltitudeMeters>
            <DistanceMeters>NAN</DistanceMeters>
          </Trackpoint>
          <Trackpoint>
            <Time>2019-01-04T11:48:38.000Z</Time>
            <Position>
              <LatitudeDegrees>36.48184170015156269073486328125</LatitudeDegrees>
              <LongitudeDegrees>-5.4090531729161739349365234375</LongitudeDegrees>
            </Position>
            <AltitudeMeters>80.1999969482421875</AltitudeMeters>
            <DistanceMeters>NAN</DistanceMeters>
          </Trackpoint>
          <Trackpoint>
            <Time>2019-01-04T11:48:39.000Z</Time>
            <Position>
              <LatitudeDegrees>36.48183281533420085906982421875</LatitudeDegrees>
              <LongitudeDegrees>-5.40906415320932865142822265625</LongitudeDegrees>
            </Position>
            <AltitudeMeters>80.40000152587890625</AltitudeMeters>
            <DistanceMeters>NAN</DistanceMeters>
          </Trackpoint>
          <Trackpoint>
            <Time>2019-01-04T11:48:40.000Z</Time>
            <Position>
              <LatitudeDegrees>36.4818216674029827117919921875</LatitudeDegrees>
              <LongitudeDegrees>-5.40907479822635650634765625</LongitudeDegrees>
            </Position>
            <AltitudeMeters>80.40000152587890625</AltitudeMeters>
            <DistanceMeters>NAN</DistanceMeters>
          </Trackpoint>
          <Trackpoint>
            <Time>2019-01-04T11:48:41.000Z</Time>
            <Position>
              <LatitudeDegrees>36.4818099327385425567626953125</LatitudeDegrees>
              <LongitudeDegrees>-5.40908527560532093048095703125</LongitudeDegrees>
            </Position>
            <AltitudeMeters>80.40000152587890625</AltitudeMeters>
            <DistanceMeters>NAN</DistanceMeters>
          </Trackpoint>
          <Trackpoint>
            <Time>2019-01-04T11:48:42.000Z</Time>
            <Position>
              <LatitudeDegrees>36.48179912008345127105712890625</LatitudeDegrees>
              <LongitudeDegrees>-5.40909751318395137786865234375</LongitudeDegrees>
            </Position>
            <AltitudeMeters>80.40000152587890625</AltitudeMeters>
            <DistanceMeters>NAN</DistanceMeters>
          </Trackpoint>
          <Trackpoint>
            <Time>2019-01-04T11:48:43.000Z</Time>
            <Position>
              <LatitudeDegrees>36.4817891456186771392822265625</LatitudeDegrees>
              <LongitudeDegrees>-5.40910832583904266357421875</LongitudeDegrees>
            </Position>
            <AltitudeMeters>80.59999847412109375</AltitudeMeters>
            <DistanceMeters>NAN</DistanceMeters>
          </Trackpoint>
          <Trackpoint>
            <Time>2019-01-04T11:48:44.000Z</Time>
            <Position>
              <LatitudeDegrees>36.4817802608013153076171875</LatitudeDegrees>
              <LongitudeDegrees>-5.40911972522735595703125</LongitudeDegrees>
            </Position>
            <AltitudeMeters>80.59999847412109375</AltitudeMeters>
            <DistanceMeters>NAN</DistanceMeters>
          </Trackpoint>
          <Trackpoint>
            <Time>2019-01-04T11:48:45.000Z</Time>
            <Position>
              <LatitudeDegrees>36.4817690290510654449462890625</LatitudeDegrees>
              <LongitudeDegrees>-5.40912852622568607330322265625</LongitudeDegrees>
            </Position>
            <AltitudeMeters>80.59999847412109375</AltitudeMeters>
            <DistanceMeters>NAN</DistanceMeters>
          </Trackpoint>
          <Trackpoint>
            <Time>2019-01-04T11:48:46.000Z</Time>
            <Position>
              <LatitudeDegrees>36.4817588031291961669921875</LatitudeDegrees>
              <LongitudeDegrees>-5.40913959033787250518798828125</LongitudeDegrees>
            </Position>
            <AltitudeMeters>80.8000030517578125</AltitudeMeters>
            <DistanceMeters>NAN</DistanceMeters>
          </Trackpoint>
          <Trackpoint>
            <Time>2019-01-04T11:48:47.000Z</Time>
            <Position>
              <LatitudeDegrees>36.48174815811216831207275390625</LatitudeDegrees>
              <LongitudeDegrees>-5.40914864279329776763916015625</LongitudeDegrees>
            </Position>
            <AltitudeMeters>80.8000030517578125</AltitudeMeters>
            <DistanceMeters>NAN</DistanceMeters>
          </Trackpoint>
          <Trackpoint>
            <Time>2019-01-04T11:48:48.000Z</Time>
            <Position>
              <LatitudeDegrees>36.4817385189235210418701171875</LatitudeDegrees>
              <LongitudeDegrees>-5.409156940877437591552734375</LongitudeDegrees>
            </Position>
            <AltitudeMeters>81</AltitudeMeters>
            <DistanceMeters>NAN</DistanceMeters>
          </Trackpoint>
          <Trackpoint>
            <Time>2019-01-04T11:48:49.000Z</Time>
            <Position>
              <LatitudeDegrees>36.48172737099230289459228515625</LatitudeDegrees>
              <LongitudeDegrees>-5.4091666638851165771484375</LongitudeDegrees>
            </Position>
            <AltitudeMeters>81.1999969482421875</AltitudeMeters>
            <DistanceMeters>NAN</DistanceMeters>
          </Trackpoint>
          <Trackpoint>
            <Time>2019-01-04T11:48:50.000Z</Time>
            <Position>
              <LatitudeDegrees>36.48171647451817989349365234375</LatitudeDegrees>
              <LongitudeDegrees>-5.4091765545308589935302734375</LongitudeDegrees>
            </Position>
            <AltitudeMeters>81.1999969482421875</AltitudeMeters>
            <DistanceMeters>NAN</DistanceMeters>
          </Trackpoint>
          <Trackpoint>
            <Time>2019-01-04T11:48:51.000Z</Time>
            <Position>
              <LatitudeDegrees>36.48170591332018375396728515625</LatitudeDegrees>
              <LongitudeDegrees>-5.40918610990047454833984375</LongitudeDegrees>
            </Position>
            <AltitudeMeters>81.1999969482421875</AltitudeMeters>
            <DistanceMeters>NAN</DistanceMeters>
          </Trackpoint>
          <Trackpoint>
            <Time>2019-01-04T11:48:52.000Z</Time>
            <Position>
              <LatitudeDegrees>36.48169585503637790679931640625</LatitudeDegrees>
              <LongitudeDegrees>-5.40919641964137554168701171875</LongitudeDegrees>
            </Position>
            <AltitudeMeters>81.40000152587890625</AltitudeMeters>
            <DistanceMeters>NAN</DistanceMeters>
          </Trackpoint>
          <Trackpoint>
            <Time>2019-01-04T11:48:53.000Z</Time>
            <Position>
              <LatitudeDegrees>36.48168898187577724456787109375</LatitudeDegrees>
              <LongitudeDegrees>-5.40921024978160858154296875</LongitudeDegrees>
            </Position>
            <AltitudeMeters>81.40000152587890625</AltitudeMeters>
            <DistanceMeters>NAN</DistanceMeters>
          </Trackpoint>
          <Trackpoint>
            <Time>2019-01-04T11:48:54.000Z</Time>
            <Position>
              <LatitudeDegrees>36.48168127052485942840576171875</LatitudeDegrees>
              <LongitudeDegrees>-5.40922290645539760589599609375</LongitudeDegrees>
            </Position>
            <AltitudeMeters>81.40000152587890625</AltitudeMeters>
            <DistanceMeters>NAN</DistanceMeters>
          </Trackpoint>
          <Trackpoint>
            <Time>2019-01-04T11:48:55.000Z</Time>
            <Position>
              <LatitudeDegrees>36.4816714636981487274169921875</LatitudeDegrees>
              <LongitudeDegrees>-5.409234054386615753173828125</LongitudeDegrees>
            </Position>
            <AltitudeMeters>81.59999847412109375</AltitudeMeters>
            <DistanceMeters>NAN</DistanceMeters>
          </Trackpoint>
          <Trackpoint>
            <Time>2019-01-04T11:48:56.000Z</Time>
            <Position>
              <LatitudeDegrees>36.48166132159531116485595703125</LatitudeDegrees>
              <LongitudeDegrees>-5.40924738161265850067138671875</LongitudeDegrees>
            </Position>
            <AltitudeMeters>81.59999847412109375</AltitudeMeters>
            <DistanceMeters>NAN</DistanceMeters>
          </Trackpoint>
          <Trackpoint>
            <Time>2019-01-04T11:48:57.000Z</Time>
            <Position>
              <LatitudeDegrees>36.48165042512118816375732421875</LatitudeDegrees>
              <LongitudeDegrees>-5.40926381014287471771240234375</LongitudeDegrees>
            </Position>
            <AltitudeMeters>81.8000030517578125</AltitudeMeters>
            <DistanceMeters>NAN</DistanceMeters>
          </Trackpoint>
          <Trackpoint>
            <Time>2019-01-04T11:48:58.000Z</Time>
            <Position>
              <LatitudeDegrees>36.48164103738963603973388671875</LatitudeDegrees>
              <LongitudeDegrees>-5.40927655063569545745849609375</LongitudeDegrees>
            </Position>
            <AltitudeMeters>81.8000030517578125</AltitudeMeters>
            <DistanceMeters>NAN</DistanceMeters>
          </Trackpoint>
          <Trackpoint>
            <Time>2019-01-04T11:48:59.000Z</Time>
            <Position>
              <LatitudeDegrees>36.48162997327744960784912109375</LatitudeDegrees>
              <LongitudeDegrees>-5.40928727947175502777099609375</LongitudeDegrees>
            </Position>
            <AltitudeMeters>82</AltitudeMeters>
            <DistanceMeters>NAN</DistanceMeters>
          </Trackpoint>
          <Trackpoint>
            <Time>2019-01-04T11:49:00.000Z</Time>
            <Position>
              <LatitudeDegrees>36.48161807097494602203369140625</LatitudeDegrees>
              <LongitudeDegrees>-5.4092965833842754364013671875</LongitudeDegrees>
            </Position>
            <AltitudeMeters>82</AltitudeMeters>
            <DistanceMeters>NAN</DistanceMeters>
          </Trackpoint>
          <Trackpoint>
            <Time>2019-01-04T11:49:01.000Z</Time>
            <Position>
              <LatitudeDegrees>36.48160658776760101318359375</LatitudeDegrees>
              <LongitudeDegrees>-5.40930538438260555267333984375</LongitudeDegrees>
            </Position>
            <AltitudeMeters>82.1999969482421875</AltitudeMeters>
            <DistanceMeters>NAN</DistanceMeters>
          </Trackpoint>
          <Trackpoint>
            <Time>2019-01-04T11:49:02.000Z</Time>
            <Position>
              <LatitudeDegrees>36.48159409873187541961669921875</LatitudeDegrees>
              <LongitudeDegrees>-5.40931485593318939208984375</LongitudeDegrees>
            </Position>
            <AltitudeMeters>82.1999969482421875</AltitudeMeters>
            <DistanceMeters>NAN</DistanceMeters>
          </Trackpoint>
          <Trackpoint>
            <Time>2019-01-04T11:49:03.000Z</Time>
            <Position>
              <LatitudeDegrees>36.48157968185842037200927734375</LatitudeDegrees>
              <LongitudeDegrees>-5.40932499803602695465087890625</LongitudeDegrees>
            </Position>
            <AltitudeMeters>82.1999969482421875</AltitudeMeters>
            <DistanceMeters>NAN</DistanceMeters>
          </Trackpoint>
          <Trackpoint>
            <Time>2019-01-04T11:49:04.000Z</Time>
            <Position>
              <LatitudeDegrees>36.481565348803997039794921875</LatitudeDegrees>
              <LongitudeDegrees>-5.40933371521532535552978515625</LongitudeDegrees>
            </Position>
            <AltitudeMeters>82.1999969482421875</AltitudeMeters>
            <DistanceMeters>NAN</DistanceMeters>
          </Trackpoint>
          <Trackpoint>
            <Time>2019-01-04T11:49:05.000Z</Time>
            <Position>
              <LatitudeDegrees>36.48155185393989086151123046875</LatitudeDegrees>
              <LongitudeDegrees>-5.40934109129011631011962890625</LongitudeDegrees>
            </Position>
            <AltitudeMeters>82.1999969482421875</AltitudeMeters>
            <DistanceMeters>NAN</DistanceMeters>
          </Trackpoint>
          <Trackpoint>
            <Time>2019-01-04T11:49:06.000Z</Time>
            <Position>
              <LatitudeDegrees>36.4815388619899749755859375</LatitudeDegrees>
              <LongitudeDegrees>-5.40935031138360500335693359375</LongitudeDegrees>
            </Position>
            <AltitudeMeters>82.1999969482421875</AltitudeMeters>
            <DistanceMeters>NAN</DistanceMeters>
          </Trackpoint>
          <Trackpoint>
            <Time>2019-01-04T11:49:07.000Z</Time>
            <Position>
              <LatitudeDegrees>36.48152654059231281280517578125</LatitudeDegrees>
              <LongitudeDegrees>-5.40936036966741085052490234375</LongitudeDegrees>
            </Position>
            <AltitudeMeters>82.1999969482421875</AltitudeMeters>
            <DistanceMeters>NAN</DistanceMeters>
          </Trackpoint>
          <Trackpoint>
            <Time>2019-01-04T11:49:08.000Z</Time>
            <Position>
              <LatitudeDegrees>36.48151346482336521148681640625</LatitudeDegrees>
              <LongitudeDegrees>-5.40936690755188465118408203125</LongitudeDegrees>
            </Position>
            <AltitudeMeters>82.40000152587890625</AltitudeMeters>
            <DistanceMeters>NAN</DistanceMeters>
          </Trackpoint>
          <Trackpoint>
            <Time>2019-01-04T11:49:09.000Z</Time>
            <Position>
              <LatitudeDegrees>36.48150105960667133331298828125</LatitudeDegrees>
              <LongitudeDegrees>-5.40937579236924648284912109375</LongitudeDegrees>
            </Position>
            <AltitudeMeters>82.59999847412109375</AltitudeMeters>
            <DistanceMeters>NAN</DistanceMeters>
          </Trackpoint>
          <Trackpoint>
            <Time>2019-01-04T11:49:10.000Z</Time>
            <Position>
              <LatitudeDegrees>36.48148982785642147064208984375</LatitudeDegrees>
              <LongitudeDegrees>-5.409384928643703460693359375</LongitudeDegrees>
            </Position>
            <AltitudeMeters>82.8000030517578125</AltitudeMeters>
            <DistanceMeters>NAN</DistanceMeters>
          </Trackpoint>
          <Trackpoint>
            <Time>2019-01-04T11:49:11.000Z</Time>
            <Position>
              <LatitudeDegrees>36.481478512287139892578125</LatitudeDegrees>
              <LongitudeDegrees>-5.40939440019428730010986328125</LongitudeDegrees>
            </Position>
            <AltitudeMeters>83</AltitudeMeters>
            <DistanceMeters>NAN</DistanceMeters>
          </Trackpoint>
          <Trackpoint>
            <Time>2019-01-04T11:49:12.000Z</Time>
            <Position>
              <LatitudeDegrees>36.48146711289882659912109375</LatitudeDegrees>
              <LongitudeDegrees>-5.40940395556390285491943359375</LongitudeDegrees>
            </Position>
            <AltitudeMeters>83.1999969482421875</AltitudeMeters>
            <DistanceMeters>NAN</DistanceMeters>
          </Trackpoint>
          <Trackpoint>
            <Time>2019-01-04T11:49:13.000Z</Time>
            <Position>
              <LatitudeDegrees>36.481454037129878997802734375</LatitudeDegrees>
              <LongitudeDegrees>-5.40941284038126468658447265625</LongitudeDegrees>
            </Position>
            <AltitudeMeters>83.40000152587890625</AltitudeMeters>
            <DistanceMeters>NAN</DistanceMeters>
          </Trackpoint>
          <Trackpoint>
            <Time>2019-01-04T11:49:14.000Z</Time>
            <Position>
              <LatitudeDegrees>36.48144322447478771209716796875</LatitudeDegrees>
              <LongitudeDegrees>-5.40942214429378509521484375</LongitudeDegrees>
            </Position>
            <AltitudeMeters>83.40000152587890625</AltitudeMeters>
            <DistanceMeters>NAN</DistanceMeters>
          </Trackpoint>
          <Trackpoint>
            <Time>2019-01-04T11:49:15.000Z</Time>
            <Position>
              <LatitudeDegrees>36.481430567800998687744140625</LatitudeDegrees>
              <LongitudeDegrees>-5.4094295203685760498046875</LongitudeDegrees>
            </Position>
            <AltitudeMeters>83.40000152587890625</AltitudeMeters>
            <DistanceMeters>NAN</DistanceMeters>
          </Trackpoint>
          <Trackpoint>
            <Time>2019-01-04T11:49:16.000Z</Time>
            <Position>
              <LatitudeDegrees>36.48141774348914623260498046875</LatitudeDegrees>
              <LongitudeDegrees>-5.4094420932233333587646484375</LongitudeDegrees>
            </Position>
            <AltitudeMeters>83.40000152587890625</AltitudeMeters>
            <DistanceMeters>NAN</DistanceMeters>
          </Trackpoint>
          <Trackpoint>
            <Time>2019-01-04T11:49:17.000Z</Time>
            <Position>
              <LatitudeDegrees>36.4814039133489131927490234375</LatitudeDegrees>
              <LongitudeDegrees>-5.4094467870891094207763671875</LongitudeDegrees>
            </Position>
            <AltitudeMeters>83.40000152587890625</AltitudeMeters>
            <DistanceMeters>NAN</DistanceMeters>
          </Trackpoint>
          <Trackpoint>
            <Time>2019-01-04T11:49:18.000Z</Time>
            <Position>
              <LatitudeDegrees>36.48139075376093387603759765625</LatitudeDegrees>
              <LongitudeDegrees>-5.40945357643067836761474609375</LongitudeDegrees>
            </Position>
            <AltitudeMeters>83.40000152587890625</AltitudeMeters>
            <DistanceMeters>NAN</DistanceMeters>
          </Trackpoint>
          <Trackpoint>
            <Time>2019-01-04T11:49:19.000Z</Time>
            <Position>
              <LatitudeDegrees>36.48137633688747882843017578125</LatitudeDegrees>
              <LongitudeDegrees>-5.40946028195321559906005859375</LongitudeDegrees>
            </Position>
            <AltitudeMeters>83.40000152587890625</AltitudeMeters>
            <DistanceMeters>NAN</DistanceMeters>
          </Trackpoint>
          <Trackpoint>
            <Time>2019-01-04T11:49:20.000Z</Time>
            <Position>
              <LatitudeDegrees>36.481360830366611480712890625</LatitudeDegrees>
              <LongitudeDegrees>-5.40946774184703826904296875</LongitudeDegrees>
            </Position>
            <AltitudeMeters>83.40000152587890625</AltitudeMeters>
            <DistanceMeters>NAN</DistanceMeters>
          </Trackpoint>
          <Trackpoint>
            <Time>2019-01-04T11:49:21.000Z</Time>
            <Position>
              <LatitudeDegrees>36.4813462458550930023193359375</LatitudeDegrees>
              <LongitudeDegrees>-5.40947486646473407745361328125</LongitudeDegrees>
            </Position>
            <AltitudeMeters>83.40000152587890625</AltitudeMeters>
            <DistanceMeters>NAN</DistanceMeters>
          </Trackpoint>
          <Trackpoint>
            <Time>2019-01-04T11:49:22.000Z</Time>
            <Position>
              <LatitudeDegrees>36.4813324995338916778564453125</LatitudeDegrees>
              <LongitudeDegrees>-5.4094806499779224395751953125</LongitudeDegrees>
            </Position>
            <AltitudeMeters>83.40000152587890625</AltitudeMeters>
            <DistanceMeters>NAN</DistanceMeters>
          </Trackpoint>
          <Trackpoint>
            <Time>2019-01-04T11:49:23.000Z</Time>
            <Position>
              <LatitudeDegrees>36.4813194237649440765380859375</LatitudeDegrees>
              <LongitudeDegrees>-5.40948442183434963226318359375</LongitudeDegrees>
            </Position>
            <AltitudeMeters>83.40000152587890625</AltitudeMeters>
            <DistanceMeters>NAN</DistanceMeters>
          </Trackpoint>
          <Trackpoint>
            <Time>2019-01-04T11:49:24.000Z</Time>
            <Position>
              <LatitudeDegrees>36.48130391724407672882080078125</LatitudeDegrees>
              <LongitudeDegrees>-5.409489534795284271240234375</LongitudeDegrees>
            </Position>
            <AltitudeMeters>83.40000152587890625</AltitudeMeters>
            <DistanceMeters>NAN</DistanceMeters>
          </Trackpoint>
          <Trackpoint>
            <Time>2019-01-04T11:49:25.000Z</Time>
            <Position>
              <LatitudeDegrees>36.481288410723209381103515625</LatitudeDegrees>
              <LongitudeDegrees>-5.4094923846423625946044921875</LongitudeDegrees>
            </Position>
            <AltitudeMeters>83.40000152587890625</AltitudeMeters>
            <DistanceMeters>NAN</DistanceMeters>
          </Trackpoint>
          <Trackpoint>
            <Time>2019-01-04T11:49:26.000Z</Time>
            <Position>
              <LatitudeDegrees>36.4812744967639446258544921875</LatitudeDegrees>
              <LongitudeDegrees>-5.4094940610229969024658203125</LongitudeDegrees>
            </Position>
            <AltitudeMeters>83.40000152587890625</AltitudeMeters>
            <DistanceMeters>NAN</DistanceMeters>
          </Trackpoint>
          <Trackpoint>
            <Time>2019-01-04T11:49:27.000Z</Time>
            <Position>
              <LatitudeDegrees>36.481260247528553009033203125</LatitudeDegrees>
              <LongitudeDegrees>-5.40949498303234577178955078125</LongitudeDegrees>
            </Position>
            <AltitudeMeters>83.40000152587890625</AltitudeMeters>
            <DistanceMeters>NAN</DistanceMeters>
          </Trackpoint>
          <Trackpoint>
            <Time>2019-01-04T11:49:28.000Z</Time>
            <Position>
              <LatitudeDegrees>36.4812463335692882537841796875</LatitudeDegrees>
              <LongitudeDegrees>-5.40949565358459949493408203125</LongitudeDegrees>
            </Position>
            <AltitudeMeters>83.59999847412109375</AltitudeMeters>
            <DistanceMeters>NAN</DistanceMeters>
          </Trackpoint>
          <Trackpoint>
            <Time>2019-01-04T11:49:29.000Z</Time>
            <Position>
              <LatitudeDegrees>36.481232084333896636962890625</LatitudeDegrees>
              <LongitudeDegrees>-5.40949297137558460235595703125</LongitudeDegrees>
            </Position>
            <AltitudeMeters>83.59999847412109375</AltitudeMeters>
            <DistanceMeters>NAN</DistanceMeters>
          </Trackpoint>
          <Trackpoint>
            <Time>2019-01-04T11:49:30.000Z</Time>
            <Position>
              <LatitudeDegrees>36.48121624253690242767333984375</LatitudeDegrees>
              <LongitudeDegrees>-5.40949045680463314056396484375</LongitudeDegrees>
            </Position>
            <AltitudeMeters>83.59999847412109375</AltitudeMeters>
            <DistanceMeters>NAN</DistanceMeters>
          </Trackpoint>
          <Trackpoint>
            <Time>2019-01-04T11:49:31.000Z</Time>
            <Position>
              <LatitudeDegrees>36.48120132274925708770751953125</LatitudeDegrees>
              <LongitudeDegrees>-5.4094912111759185791015625</LongitudeDegrees>
            </Position>
            <AltitudeMeters>83.59999847412109375</AltitudeMeters>
            <DistanceMeters>NAN</DistanceMeters>
          </Trackpoint>
          <Trackpoint>
            <Time>2019-01-04T11:49:32.000Z</Time>
            <Position>
              <LatitudeDegrees>36.4811900071799755096435546875</LatitudeDegrees>
              <LongitudeDegrees>-5.40949322283267974853515625</LongitudeDegrees>
            </Position>
            <AltitudeMeters>83.59999847412109375</AltitudeMeters>
            <DistanceMeters>NAN</DistanceMeters>
          </Trackpoint>
          <Trackpoint>
            <Time>2019-01-04T11:49:33.000Z</Time>
            <Position>
              <LatitudeDegrees>36.481179110705852508544921875</LatitudeDegrees>
              <LongitudeDegrees>-5.40949322283267974853515625</LongitudeDegrees>
            </Position>
            <AltitudeMeters>83.59999847412109375</AltitudeMeters>
            <DistanceMeters>NAN</DistanceMeters>
          </Trackpoint>
          <Trackpoint>
            <Time>2019-01-04T11:49:34.000Z</Time>
            <Position>
              <LatitudeDegrees>36.48116477765142917633056640625</LatitudeDegrees>
              <LongitudeDegrees>-5.40949012152850627899169921875</LongitudeDegrees>
            </Position>
            <AltitudeMeters>83.59999847412109375</AltitudeMeters>
            <DistanceMeters>NAN</DistanceMeters>
          </Trackpoint>
          <Trackpoint>
            <Time>2019-01-04T11:49:35.000Z</Time>
            <Position>
              <LatitudeDegrees>36.48115061223506927490234375</LatitudeDegrees>
              <LongitudeDegrees>-5.409485511481761932373046875</LongitudeDegrees>
            </Position>
            <AltitudeMeters>83.59999847412109375</AltitudeMeters>
            <DistanceMeters>NAN</DistanceMeters>
          </Trackpoint>
          <Trackpoint>
            <Time>2019-01-04T11:49:36.000Z</Time>
            <Position>
              <LatitudeDegrees>36.4811366982758045196533203125</LatitudeDegrees>
              <LongitudeDegrees>-5.40947972796857357025146484375</LongitudeDegrees>
            </Position>
            <AltitudeMeters>83.59999847412109375</AltitudeMeters>
            <DistanceMeters>NAN</DistanceMeters>
          </Trackpoint>
          <Trackpoint>
            <Time>2019-01-04T11:49:37.000Z</Time>
            <Position>
              <LatitudeDegrees>36.4811242930591106414794921875</LatitudeDegrees>
              <LongitudeDegrees>-5.40947671048343181610107421875</LongitudeDegrees>
            </Position>
            <AltitudeMeters>83.59999847412109375</AltitudeMeters>
            <DistanceMeters>NAN</DistanceMeters>
          </Trackpoint>
          <Trackpoint>
            <Time>2019-01-04T11:49:38.000Z</Time>
            <Position>
              <LatitudeDegrees>36.481106020510196685791015625</LatitudeDegrees>
              <LongitudeDegrees>-5.409471094608306884765625</LongitudeDegrees>
            </Position>
            <AltitudeMeters>83.59999847412109375</AltitudeMeters>
            <DistanceMeters>NAN</DistanceMeters>
          </Trackpoint>
          <Trackpoint>
            <Time>2019-01-04T11:49:39.000Z</Time>
            <Position>
              <LatitudeDegrees>36.48109286092221736907958984375</LatitudeDegrees>
              <LongitudeDegrees>-5.4094625450670719146728515625</LongitudeDegrees>
            </Position>
            <AltitudeMeters>83.59999847412109375</AltitudeMeters>
            <DistanceMeters>NAN</DistanceMeters>
          </Trackpoint>
          <Trackpoint>
            <Time>2019-01-04T11:49:40.000Z</Time>
            <Position>
              <LatitudeDegrees>36.48108347319066524505615234375</LatitudeDegrees>
              <LongitudeDegrees>-5.40945231914520263671875</LongitudeDegrees>
            </Position>
            <AltitudeMeters>83.59999847412109375</AltitudeMeters>
            <DistanceMeters>NAN</DistanceMeters>
          </Trackpoint>
          <Trackpoint>
            <Time>2019-01-04T11:49:41.000Z</Time>
            <Position>
              <LatitudeDegrees>36.48107257671654224395751953125</LatitudeDegrees>
              <LongitudeDegrees>-5.40943882428109645843505859375</LongitudeDegrees>
            </Position>
            <AltitudeMeters>83.59999847412109375</AltitudeMeters>
            <DistanceMeters>NAN</DistanceMeters>
          </Trackpoint>
          <Trackpoint>
            <Time>2019-01-04T11:49:42.000Z</Time>
            <Position>
              <LatitudeDegrees>36.48106184788048267364501953125</LatitudeDegrees>
              <LongitudeDegrees>-5.4094293527305126190185546875</LongitudeDegrees>
            </Position>
            <AltitudeMeters>83.59999847412109375</AltitudeMeters>
            <DistanceMeters>NAN</DistanceMeters>
          </Trackpoint>
          <Trackpoint>
            <Time>2019-01-04T11:49:43.000Z</Time>
            <Position>
              <LatitudeDegrees>36.4810481853783130645751953125</LatitudeDegrees>
              <LongitudeDegrees>-5.4094223119318485260009765625</LongitudeDegrees>
            </Position>
            <AltitudeMeters>83.59999847412109375</AltitudeMeters>
            <DistanceMeters>NAN</DistanceMeters>
          </Trackpoint>
          <Trackpoint>
            <Time>2019-01-04T11:49:44.000Z</Time>
            <Position>
              <LatitudeDegrees>36.481033600866794586181640625</LatitudeDegrees>
              <LongitudeDegrees>-5.40941233746707439422607421875</LongitudeDegrees>
            </Position>
            <AltitudeMeters>83.59999847412109375</AltitudeMeters>
            <DistanceMeters>NAN</DistanceMeters>
          </Trackpoint>
          <Trackpoint>
            <Time>2019-01-04T11:49:45.000Z</Time>
            <Position>
              <LatitudeDegrees>36.48102211765944957733154296875</LatitudeDegrees>
              <LongitudeDegrees>-5.4094018600881099700927734375</LongitudeDegrees>
            </Position>
            <AltitudeMeters>83.59999847412109375</AltitudeMeters>
            <DistanceMeters>NAN</DistanceMeters>
          </Trackpoint>
          <Trackpoint>
            <Time>2019-01-04T11:49:46.000Z</Time>
            <Position>
              <LatitudeDegrees>36.48101138882339000701904296875</LatitudeDegrees>
              <LongitudeDegrees>-5.40939138270914554595947265625</LongitudeDegrees>
            </Position>
            <AltitudeMeters>83.59999847412109375</AltitudeMeters>
            <DistanceMeters>NAN</DistanceMeters>
          </Trackpoint>
          <Trackpoint>
            <Time>2019-01-04T11:49:47.000Z</Time>
            <Position>
              <LatitudeDegrees>36.4809995703399181365966796875</LatitudeDegrees>
              <LongitudeDegrees>-5.409382246434688568115234375</LongitudeDegrees>
            </Position>
            <AltitudeMeters>83.59999847412109375</AltitudeMeters>
            <DistanceMeters>NAN</DistanceMeters>
          </Trackpoint>
          <Trackpoint>
            <Time>2019-01-04T11:49:48.000Z</Time>
            <Position>
              <LatitudeDegrees>36.480989344418048858642578125</LatitudeDegrees>
              <LongitudeDegrees>-5.40937118232250213623046875</LongitudeDegrees>
            </Position>
            <AltitudeMeters>83.59999847412109375</AltitudeMeters>
            <DistanceMeters>NAN</DistanceMeters>
          </Trackpoint>
          <Trackpoint>
            <Time>2019-01-04T11:49:49.000Z</Time>
            <Position>
              <LatitudeDegrees>36.480978615581989288330078125</LatitudeDegrees>
              <LongitudeDegrees>-5.40935969911515712738037109375</LongitudeDegrees>
            </Position>
            <AltitudeMeters>83.59999847412109375</AltitudeMeters>
            <DistanceMeters>NAN</DistanceMeters>
          </Trackpoint>
          <Trackpoint>
            <Time>2019-01-04T11:49:50.000Z</Time>
            <Position>
              <LatitudeDegrees>36.48096830584108829498291015625</LatitudeDegrees>
              <LongitudeDegrees>-5.4093495570123195648193359375</LongitudeDegrees>
            </Position>
            <AltitudeMeters>83.8000030517578125</AltitudeMeters>
            <DistanceMeters>NAN</DistanceMeters>
          </Trackpoint>
          <Trackpoint>
            <Time>2019-01-04T11:49:51.000Z</Time>
            <Position>
              <LatitudeDegrees>36.480957157909870147705078125</LatitudeDegrees>
              <LongitudeDegrees>-5.40933824144303798675537109375</LongitudeDegrees>
            </Position>
            <AltitudeMeters>83.8000030517578125</AltitudeMeters>
            <DistanceMeters>NAN</DistanceMeters>
          </Trackpoint>
          <Trackpoint>
            <Time>2019-01-04T11:49:52.000Z</Time>
            <Position>
              <LatitudeDegrees>36.48094131611287593841552734375</LatitudeDegrees>
              <LongitudeDegrees>-5.40932935662567615509033203125</LongitudeDegrees>
            </Position>
            <AltitudeMeters>84</AltitudeMeters>
            <DistanceMeters>NAN</DistanceMeters>
          </Trackpoint>
          <Trackpoint>
            <Time>2019-01-04T11:49:53.000Z</Time>
            <Position>
              <LatitudeDegrees>36.48092689923942089080810546875</LatitudeDegrees>
              <LongitudeDegrees>-5.4093213938176631927490234375</LongitudeDegrees>
            </Position>
            <AltitudeMeters>84</AltitudeMeters>
            <DistanceMeters>NAN</DistanceMeters>
          </Trackpoint>
          <Trackpoint>
            <Time>2019-01-04T11:49:54.000Z</Time>
            <Position>
              <LatitudeDegrees>36.48091952316462993621826171875</LatitudeDegrees>
              <LongitudeDegrees>-5.409315526485443115234375</LongitudeDegrees>
            </Position>
            <AltitudeMeters>84.1999969482421875</AltitudeMeters>
            <DistanceMeters>NAN</DistanceMeters>
          </Trackpoint>
          <Trackpoint>
            <Time>2019-01-04T11:49:55.000Z</Time>
            <Position>
              <LatitudeDegrees>36.4809110574424266815185546875</LatitudeDegrees>
              <LongitudeDegrees>-5.40930957533419132232666015625</LongitudeDegrees>
            </Position>
            <AltitudeMeters>84.40000152587890625</AltitudeMeters>
            <DistanceMeters>NAN</DistanceMeters>
          </Trackpoint>
          <Trackpoint>
            <Time>2019-01-04T11:49:56.000Z</Time>
            <Position>
              <LatitudeDegrees>36.480899490416049957275390625</LatitudeDegrees>
              <LongitudeDegrees>-5.409303121268749237060546875</LongitudeDegrees>
            </Position>
            <AltitudeMeters>84.59999847412109375</AltitudeMeters>
            <DistanceMeters>NAN</DistanceMeters>
          </Trackpoint>
          <Trackpoint>
            <Time>2019-01-04T11:49:57.000Z</Time>
            <Position>
              <LatitudeDegrees>36.4808852411806583404541015625</LatitudeDegrees>
              <LongitudeDegrees>-5.4092985950410366058349609375</LongitudeDegrees>
            </Position>
            <AltitudeMeters>84.8000030517578125</AltitudeMeters>
            <DistanceMeters>NAN</DistanceMeters>
          </Trackpoint>
          <Trackpoint>
            <Time>2019-01-04T11:49:58.000Z</Time>
            <Position>
              <LatitudeDegrees>36.480869315564632415771484375</LatitudeDegrees>
              <LongitudeDegrees>-5.40929633192718029022216796875</LongitudeDegrees>
            </Position>
            <AltitudeMeters>84.8000030517578125</AltitudeMeters>
            <DistanceMeters>NAN</DistanceMeters>
          </Trackpoint>
          <Trackpoint>
            <Time>2019-01-04T11:49:59.000Z</Time>
            <Position>
              <LatitudeDegrees>36.480853892862796783447265625</LatitudeDegrees>
              <LongitudeDegrees>-5.40929867886006832122802734375</LongitudeDegrees>
            </Position>
            <AltitudeMeters>84.8000030517578125</AltitudeMeters>
            <DistanceMeters>NAN</DistanceMeters>
          </Trackpoint>
          <Trackpoint>
            <Time>2019-01-04T11:50:00.000Z</Time>
            <Position>
              <LatitudeDegrees>36.480835787951946258544921875</LatitudeDegrees>
              <LongitudeDegrees>-5.40930370800197124481201171875</LongitudeDegrees>
            </Position>
            <AltitudeMeters>84.8000030517578125</AltitudeMeters>
            <DistanceMeters>NAN</DistanceMeters>
          </Trackpoint>
          <Trackpoint>
            <Time>2019-01-04T11:50:01.000Z</Time>
            <Position>
              <LatitudeDegrees>36.480815671384334564208984375</LatitudeDegrees>
              <LongitudeDegrees>-5.4093074798583984375</LongitudeDegrees>
            </Position>
            <AltitudeMeters>84.8000030517578125</AltitudeMeters>
            <DistanceMeters>NAN</DistanceMeters>
          </Trackpoint>
          <Trackpoint>
            <Time>2019-01-04T11:50:02.000Z</Time>
            <Position>
              <LatitudeDegrees>36.48079748265445232391357421875</LatitudeDegrees>
              <LongitudeDegrees>-5.409312509000301361083984375</LongitudeDegrees>
            </Position>
            <AltitudeMeters>84.59999847412109375</AltitudeMeters>
            <DistanceMeters>NAN</DistanceMeters>
          </Trackpoint>
          <Trackpoint>
            <Time>2019-01-04T11:50:03.000Z</Time>
            <Position>
              <LatitudeDegrees>36.4807826466858386993408203125</LatitudeDegrees>
              <LongitudeDegrees>-5.40931795723736286163330078125</LongitudeDegrees>
            </Position>
            <AltitudeMeters>84.59999847412109375</AltitudeMeters>
            <DistanceMeters>NAN</DistanceMeters>
          </Trackpoint>
          <Trackpoint>
            <Time>2019-01-04T11:50:04.000Z</Time>
            <Position>
              <LatitudeDegrees>36.480768062174320220947265625</LatitudeDegrees>
              <LongitudeDegrees>-5.40932198055088520050048828125</LongitudeDegrees>
            </Position>
            <AltitudeMeters>84.40000152587890625</AltitudeMeters>
            <DistanceMeters>NAN</DistanceMeters>
          </Trackpoint>
          <Trackpoint>
            <Time>2019-01-04T11:50:05.000Z</Time>
            <Position>
              <LatitudeDegrees>36.48075507022440433502197265625</LatitudeDegrees>
              <LongitudeDegrees>-5.4093250818550586700439453125</LongitudeDegrees>
            </Position>
            <AltitudeMeters>84.40000152587890625</AltitudeMeters>
            <DistanceMeters>NAN</DistanceMeters>
          </Trackpoint>
          <Trackpoint>
            <Time>2019-01-04T11:50:06.000Z</Time>
            <Position>
              <LatitudeDegrees>36.4807417429983615875244140625</LatitudeDegrees>
              <LongitudeDegrees>-5.409329943358898162841796875</LongitudeDegrees>
            </Position>
            <AltitudeMeters>84.1999969482421875</AltitudeMeters>
            <DistanceMeters>NAN</DistanceMeters>
          </Trackpoint>
          <Trackpoint>
            <Time>2019-01-04T11:50:07.000Z</Time>
            <Position>
              <LatitudeDegrees>36.48072623647749423980712890625</LatitudeDegrees>
              <LongitudeDegrees>-5.40933539159595966339111328125</LongitudeDegrees>
            </Position>
            <AltitudeMeters>84.1999969482421875</AltitudeMeters>
            <DistanceMeters>NAN</DistanceMeters>
          </Trackpoint>
          <Trackpoint>
            <Time>2019-01-04T11:50:08.000Z</Time>
            <Position>
              <LatitudeDegrees>36.4807119034230709075927734375</LatitudeDegrees>
              <LongitudeDegrees>-5.4093445278704166412353515625</LongitudeDegrees>
            </Position>
            <AltitudeMeters>84.1999969482421875</AltitudeMeters>
            <DistanceMeters>NAN</DistanceMeters>
          </Trackpoint>
          <Trackpoint>
            <Time>2019-01-04T11:50:09.000Z</Time>
            <Position>
              <LatitudeDegrees>36.4806948043406009674072265625</LatitudeDegrees>
              <LongitudeDegrees>-5.4093525744974613189697265625</LongitudeDegrees>
            </Position>
            <AltitudeMeters>84</AltitudeMeters>
            <DistanceMeters>NAN</DistanceMeters>
          </Trackpoint>
          <Trackpoint>
            <Time>2019-01-04T11:50:10.000Z</Time>
            <Position>
              <LatitudeDegrees>36.48068130947649478912353515625</LatitudeDegrees>
              <LongitudeDegrees>-5.4093619622290134429931640625</LongitudeDegrees>
            </Position>
            <AltitudeMeters>84</AltitudeMeters>
            <DistanceMeters>NAN</DistanceMeters>
          </Trackpoint>
          <Trackpoint>
            <Time>2019-01-04T11:50:11.000Z</Time>
            <Position>
              <LatitudeDegrees>36.4806663058698177337646484375</LatitudeDegrees>
              <LongitudeDegrees>-5.40936858393251895904541015625</LongitudeDegrees>
            </Position>
            <AltitudeMeters>84</AltitudeMeters>
            <DistanceMeters>NAN</DistanceMeters>
          </Trackpoint>
          <Trackpoint>
            <Time>2019-01-04T11:50:12.000Z</Time>
            <Position>
              <LatitudeDegrees>36.48064811713993549346923828125</LatitudeDegrees>
              <LongitudeDegrees>-5.4093750379979610443115234375</LongitudeDegrees>
            </Position>
            <AltitudeMeters>84</AltitudeMeters>
            <DistanceMeters>NAN</DistanceMeters>
          </Trackpoint>
          <Trackpoint>
            <Time>2019-01-04T11:50:13.000Z</Time>
            <Position>
              <LatitudeDegrees>36.48063286207616329193115234375</LatitudeDegrees>
              <LongitudeDegrees>-5.40938752703368663787841796875</LongitudeDegrees>
            </Position>
            <AltitudeMeters>84</AltitudeMeters>
            <DistanceMeters>NAN</DistanceMeters>
          </Trackpoint>
          <Trackpoint>
            <Time>2019-01-04T11:50:14.000Z</Time>
            <Position>
              <LatitudeDegrees>36.48061953485012054443359375</LatitudeDegrees>
              <LongitudeDegrees>-5.4094018600881099700927734375</LongitudeDegrees>
            </Position>
            <AltitudeMeters>83.8000030517578125</AltitudeMeters>
            <DistanceMeters>NAN</DistanceMeters>
          </Trackpoint>
          <Trackpoint>
            <Time>2019-01-04T11:50:15.000Z</Time>
            <Position>
              <LatitudeDegrees>36.48060771636664867401123046875</LatitudeDegrees>
              <LongitudeDegrees>-5.40941485203802585601806640625</LongitudeDegrees>
            </Position>
            <AltitudeMeters>83.59999847412109375</AltitudeMeters>
            <DistanceMeters>NAN</DistanceMeters>
          </Trackpoint>
          <Trackpoint>
            <Time>2019-01-04T11:50:16.000Z</Time>
            <Position>
              <LatitudeDegrees>36.480595730245113372802734375</LatitudeDegrees>
              <LongitudeDegrees>-5.40942206047475337982177734375</LongitudeDegrees>
            </Position>
            <AltitudeMeters>83.1999969482421875</AltitudeMeters>
            <DistanceMeters>NAN</DistanceMeters>
          </Trackpoint>
          <Trackpoint>
            <Time>2019-01-04T11:50:17.000Z</Time>
            <Position>
              <LatitudeDegrees>36.48058089427649974822998046875</LatitudeDegrees>
              <LongitudeDegrees>-5.409429855644702911376953125</LongitudeDegrees>
            </Position>
            <AltitudeMeters>83</AltitudeMeters>
            <DistanceMeters>NAN</DistanceMeters>
          </Trackpoint>
          <Trackpoint>
            <Time>2019-01-04T11:50:18.000Z</Time>
            <Position>
              <LatitudeDegrees>36.48056731559336185455322265625</LatitudeDegrees>
              <LongitudeDegrees>-5.4094377346336841583251953125</LongitudeDegrees>
            </Position>
            <AltitudeMeters>83</AltitudeMeters>
            <DistanceMeters>NAN</DistanceMeters>
          </Trackpoint>
          <Trackpoint>
            <Time>2019-01-04T11:50:19.000Z</Time>
            <Position>
              <LatitudeDegrees>36.480552814900875091552734375</LatitudeDegrees>
              <LongitudeDegrees>-5.4094451107084751129150390625</LongitudeDegrees>
            </Position>
            <AltitudeMeters>83</AltitudeMeters>
            <DistanceMeters>NAN</DistanceMeters>
          </Trackpoint>
          <Trackpoint>
            <Time>2019-01-04T11:50:20.000Z</Time>
            <Position>
              <LatitudeDegrees>36.48053965531289577484130859375</LatitudeDegrees>
              <LongitudeDegrees>-5.4094508104026317596435546875</LongitudeDegrees>
            </Position>
            <AltitudeMeters>83</AltitudeMeters>
            <DistanceMeters>NAN</DistanceMeters>
          </Trackpoint>
          <Trackpoint>
            <Time>2019-01-04T11:50:21.000Z</Time>
            <Position>
              <LatitudeDegrees>36.480525992810726165771484375</LatitudeDegrees>
              <LongitudeDegrees>-5.4094598628580570220947265625</LongitudeDegrees>
            </Position>
            <AltitudeMeters>83</AltitudeMeters>
            <DistanceMeters>NAN</DistanceMeters>
          </Trackpoint>
          <Trackpoint>
            <Time>2019-01-04T11:50:22.000Z</Time>
            <Position>
              <LatitudeDegrees>36.4805147610604763031005859375</LatitudeDegrees>
              <LongitudeDegrees>-5.4094685800373554229736328125</LongitudeDegrees>
            </Position>
            <AltitudeMeters>83.1999969482421875</AltitudeMeters>
            <DistanceMeters>NAN</DistanceMeters>
          </Trackpoint>
          <Trackpoint>
            <Time>2019-01-04T11:50:23.000Z</Time>
            <Position>
              <LatitudeDegrees>36.48049858398735523223876953125</LatitudeDegrees>
              <LongitudeDegrees>-5.40947721339762210845947265625</LongitudeDegrees>
            </Position>
            <AltitudeMeters>83.1999969482421875</AltitudeMeters>
            <DistanceMeters>NAN</DistanceMeters>
          </Trackpoint>
          <Trackpoint>
            <Time>2019-01-04T11:50:24.000Z</Time>
            <Position>
              <LatitudeDegrees>36.480486094951629638671875</LatitudeDegrees>
              <LongitudeDegrees>-5.409484840929508209228515625</LongitudeDegrees>
            </Position>
            <AltitudeMeters>83.40000152587890625</AltitudeMeters>
            <DistanceMeters>NAN</DistanceMeters>
          </Trackpoint>
          <Trackpoint>
            <Time>2019-01-04T11:50:25.000Z</Time>
            <Position>
              <LatitudeDegrees>36.4804741926491260528564453125</LatitudeDegrees>
              <LongitudeDegrees>-5.409496240317821502685546875</LongitudeDegrees>
            </Position>
            <AltitudeMeters>83.40000152587890625</AltitudeMeters>
            <DistanceMeters>NAN</DistanceMeters>
          </Trackpoint>
          <Trackpoint>
            <Time>2019-01-04T11:50:26.000Z</Time>
            <Position>
              <LatitudeDegrees>36.48046237416565418243408203125</LatitudeDegrees>
              <LongitudeDegrees>-5.40950722061097621917724609375</LongitudeDegrees>
            </Position>
            <AltitudeMeters>83.40000152587890625</AltitudeMeters>
            <DistanceMeters>NAN</DistanceMeters>
          </Trackpoint>
          <Trackpoint>
            <Time>2019-01-04T11:50:27.000Z</Time>
            <Position>
              <LatitudeDegrees>36.48045147769153118133544921875</LatitudeDegrees>
              <LongitudeDegrees>-5.4095208831131458282470703125</LongitudeDegrees>
            </Position>
            <AltitudeMeters>83.40000152587890625</AltitudeMeters>
            <DistanceMeters>NAN</DistanceMeters>
          </Trackpoint>
          <Trackpoint>
            <Time>2019-01-04T11:50:28.000Z</Time>
            <Position>
              <LatitudeDegrees>36.48044091649353504180908203125</LatitudeDegrees>
              <LongitudeDegrees>-5.4095349647104740142822265625</LongitudeDegrees>
            </Position>
            <AltitudeMeters>83.59999847412109375</AltitudeMeters>
            <DistanceMeters>NAN</DistanceMeters>
          </Trackpoint>
          <Trackpoint>
            <Time>2019-01-04T11:50:29.000Z</Time>
            <Position>
              <LatitudeDegrees>36.4804299362003803253173828125</LatitudeDegrees>
              <LongitudeDegrees>-5.40955047123134136199951171875</LongitudeDegrees>
            </Position>
            <AltitudeMeters>83.59999847412109375</AltitudeMeters>
            <DistanceMeters>NAN</DistanceMeters>
          </Trackpoint>
          <Trackpoint>
            <Time>2019-01-04T11:50:30.000Z</Time>
            <Position>
              <LatitudeDegrees>36.48041912354528903961181640625</LatitudeDegrees>
              <LongitudeDegrees>-5.409565977752208709716796875</LongitudeDegrees>
            </Position>
            <AltitudeMeters>83.59999847412109375</AltitudeMeters>
            <DistanceMeters>NAN</DistanceMeters>
          </Trackpoint>
          <Trackpoint>
            <Time>2019-01-04T11:50:31.000Z</Time>
            <Position>
              <LatitudeDegrees>36.48040940053761005401611328125</LatitudeDegrees>
              <LongitudeDegrees>-5.40958148427307605743408203125</LongitudeDegrees>
            </Position>
            <AltitudeMeters>83.59999847412109375</AltitudeMeters>
            <DistanceMeters>NAN</DistanceMeters>
          </Trackpoint>
          <Trackpoint>
            <Time>2019-01-04T11:50:32.000Z</Time>
            <Position>
              <LatitudeDegrees>36.48040286265313625335693359375</LatitudeDegrees>
              <LongitudeDegrees>-5.40959640406072139739990234375</LongitudeDegrees>
            </Position>
            <AltitudeMeters>83.40000152587890625</AltitudeMeters>
            <DistanceMeters>NAN</DistanceMeters>
          </Trackpoint>
          <Trackpoint>
            <Time>2019-01-04T11:50:33.000Z</Time>
            <Position>
              <LatitudeDegrees>36.48039565421640872955322265625</LatitudeDegrees>
              <LongitudeDegrees>-5.40961333550512790679931640625</LongitudeDegrees>
            </Position>
            <AltitudeMeters>83.1999969482421875</AltitudeMeters>
            <DistanceMeters>NAN</DistanceMeters>
          </Trackpoint>
          <Trackpoint>
            <Time>2019-01-04T11:50:34.000Z</Time>
            <Position>
              <LatitudeDegrees>36.4803900383412837982177734375</LatitudeDegrees>
              <LongitudeDegrees>-5.40962741710245609283447265625</LongitudeDegrees>
            </Position>
            <AltitudeMeters>83</AltitudeMeters>
            <DistanceMeters>NAN</DistanceMeters>
          </Trackpoint>
          <Trackpoint>
            <Time>2019-01-04T11:50:35.000Z</Time>
            <Position>
              <LatitudeDegrees>36.480382494628429412841796875</LatitudeDegrees>
              <LongitudeDegrees>-5.4096405766904354095458984375</LongitudeDegrees>
            </Position>
            <AltitudeMeters>83</AltitudeMeters>
            <DistanceMeters>NAN</DistanceMeters>
          </Trackpoint>
          <Trackpoint>
            <Time>2019-01-04T11:50:36.000Z</Time>
            <Position>
              <LatitudeDegrees>36.48037788458168506622314453125</LatitudeDegrees>
              <LongitudeDegrees>-5.40965423919260501861572265625</LongitudeDegrees>
            </Position>
            <AltitudeMeters>83</AltitudeMeters>
            <DistanceMeters>NAN</DistanceMeters>
          </Trackpoint>
          <Trackpoint>
            <Time>2019-01-04T11:50:37.000Z</Time>
            <Position>
              <LatitudeDegrees>36.48037117905914783477783203125</LatitudeDegrees>
              <LongitudeDegrees>-5.40966488420963287353515625</LongitudeDegrees>
            </Position>
            <AltitudeMeters>83</AltitudeMeters>
            <DistanceMeters>NAN</DistanceMeters>
          </Trackpoint>
          <Trackpoint>
            <Time>2019-01-04T11:50:38.000Z</Time>
            <Position>
              <LatitudeDegrees>36.4803640544414520263671875</LatitudeDegrees>
              <LongitudeDegrees>-5.40967687033116817474365234375</LongitudeDegrees>
            </Position>
            <AltitudeMeters>83</AltitudeMeters>
            <DistanceMeters>NAN</DistanceMeters>
          </Trackpoint>
          <Trackpoint>
            <Time>2019-01-04T11:50:39.000Z</Time>
            <Position>
              <LatitudeDegrees>36.48035575635731220245361328125</LatitudeDegrees>
              <LongitudeDegrees>-5.40969095192849636077880859375</LongitudeDegrees>
            </Position>
            <AltitudeMeters>83</AltitudeMeters>
            <DistanceMeters>NAN</DistanceMeters>
          </Trackpoint>
          <Trackpoint>
            <Time>2019-01-04T11:50:40.000Z</Time>
            <Position>
              <LatitudeDegrees>36.48034603334963321685791015625</LatitudeDegrees>
              <LongitudeDegrees>-5.4097056202590465545654296875</LongitudeDegrees>
            </Position>
            <AltitudeMeters>82.8000030517578125</AltitudeMeters>
            <DistanceMeters>NAN</DistanceMeters>
          </Trackpoint>
          <Trackpoint>
            <Time>2019-01-04T11:50:41.000Z</Time>
            <Position>
              <LatitudeDegrees>36.48033798672258853912353515625</LatitudeDegrees>
              <LongitudeDegrees>-5.40971877984702587127685546875</LongitudeDegrees>
            </Position>
            <AltitudeMeters>82.8000030517578125</AltitudeMeters>
            <DistanceMeters>NAN</DistanceMeters>
          </Trackpoint>
          <Trackpoint>
            <Time>2019-01-04T11:50:42.000Z</Time>
            <Position>
              <LatitudeDegrees>36.48033010773360729217529296875</LatitudeDegrees>
              <LongitudeDegrees>-5.40973319672048091888427734375</LongitudeDegrees>
            </Position>
            <AltitudeMeters>82.59999847412109375</AltitudeMeters>
            <DistanceMeters>NAN</DistanceMeters>
          </Trackpoint>
          <Trackpoint>
            <Time>2019-01-04T11:50:43.000Z</Time>
            <Position>
              <LatitudeDegrees>36.48032340221107006072998046875</LatitudeDegrees>
              <LongitudeDegrees>-5.40974761359393596649169921875</LongitudeDegrees>
            </Position>
            <AltitudeMeters>82.40000152587890625</AltitudeMeters>
            <DistanceMeters>NAN</DistanceMeters>
          </Trackpoint>
          <Trackpoint>
            <Time>2019-01-04T11:50:44.000Z</Time>
            <Position>
              <LatitudeDegrees>36.48031418211758136749267578125</LatitudeDegrees>
              <LongitudeDegrees>-5.4097582586109638214111328125</LongitudeDegrees>
            </Position>
            <AltitudeMeters>82.1999969482421875</AltitudeMeters>
            <DistanceMeters>NAN</DistanceMeters>
          </Trackpoint>
          <Trackpoint>
            <Time>2019-01-04T11:50:45.000Z</Time>
            <Position>
              <LatitudeDegrees>36.48030412383377552032470703125</LatitudeDegrees>
              <LongitudeDegrees>-5.40976739488542079925537109375</LongitudeDegrees>
            </Position>
            <AltitudeMeters>82</AltitudeMeters>
            <DistanceMeters>NAN</DistanceMeters>
          </Trackpoint>
          <Trackpoint>
            <Time>2019-01-04T11:50:46.000Z</Time>
            <Position>
              <LatitudeDegrees>36.48028736002743244171142578125</LatitudeDegrees>
              <LongitudeDegrees>-5.40977627970278263092041015625</LongitudeDegrees>
            </Position>
            <AltitudeMeters>81.8000030517578125</AltitudeMeters>
            <DistanceMeters>NAN</DistanceMeters>
          </Trackpoint>
          <Trackpoint>
            <Time>2019-01-04T11:50:47.000Z</Time>
            <Position>
              <LatitudeDegrees>36.480275876820087432861328125</LatitudeDegrees>
              <LongitudeDegrees>-5.4097857512533664703369140625</LongitudeDegrees>
            </Position>
            <AltitudeMeters>81.8000030517578125</AltitudeMeters>
            <DistanceMeters>NAN</DistanceMeters>
          </Trackpoint>
          <Trackpoint>
            <Time>2019-01-04T11:50:48.000Z</Time>
            <Position>
              <LatitudeDegrees>36.48026422597467899322509765625</LatitudeDegrees>
              <LongitudeDegrees>-5.40980075486004352569580078125</LongitudeDegrees>
            </Position>
            <AltitudeMeters>81.8000030517578125</AltitudeMeters>
            <DistanceMeters>NAN</DistanceMeters>
          </Trackpoint>
          <Trackpoint>
            <Time>2019-01-04T11:50:49.000Z</Time>
            <Position>
              <LatitudeDegrees>36.48025073111057281494140625</LatitudeDegrees>
              <LongitudeDegrees>-5.40981735102832317352294921875</LongitudeDegrees>
            </Position>
            <AltitudeMeters>81.8000030517578125</AltitudeMeters>
            <DistanceMeters>NAN</DistanceMeters>
          </Trackpoint>
          <Trackpoint>
            <Time>2019-01-04T11:50:50.000Z</Time>
            <Position>
              <LatitudeDegrees>36.4802371524274349212646484375</LatitudeDegrees>
              <LongitudeDegrees>-5.4098276607692241668701171875</LongitudeDegrees>
            </Position>
            <AltitudeMeters>81.8000030517578125</AltitudeMeters>
            <DistanceMeters>NAN</DistanceMeters>
          </Trackpoint>
          <Trackpoint>
            <Time>2019-01-04T11:50:51.000Z</Time>
            <Position>
              <LatitudeDegrees>36.48023002780973911285400390625</LatitudeDegrees>
              <LongitudeDegrees>-5.4098444245755672454833984375</LongitudeDegrees>
            </Position>
            <AltitudeMeters>81.8000030517578125</AltitudeMeters>
            <DistanceMeters>NAN</DistanceMeters>
          </Trackpoint>
          <Trackpoint>
            <Time>2019-01-04T11:50:52.000Z</Time>
            <Position>
              <LatitudeDegrees>36.48022198118269443511962890625</LatitudeDegrees>
              <LongitudeDegrees>-5.40986378677189350128173828125</LongitudeDegrees>
            </Position>
            <AltitudeMeters>81.59999847412109375</AltitudeMeters>
            <DistanceMeters>NAN</DistanceMeters>
          </Trackpoint>
          <Trackpoint>
            <Time>2019-01-04T11:50:53.000Z</Time>
            <Position>
              <LatitudeDegrees>36.4802113361656665802001953125</LatitudeDegrees>
              <LongitudeDegrees>-5.40987837128341197967529296875</LongitudeDegrees>
            </Position>
            <AltitudeMeters>81.40000152587890625</AltitudeMeters>
            <DistanceMeters>NAN</DistanceMeters>
          </Trackpoint>
          <Trackpoint>
            <Time>2019-01-04T11:50:54.000Z</Time>
            <Position>
              <LatitudeDegrees>36.4802006073296070098876953125</LatitudeDegrees>
              <LongitudeDegrees>-5.4098920337855815887451171875</LongitudeDegrees>
            </Position>
            <AltitudeMeters>80.8000030517578125</AltitudeMeters>
            <DistanceMeters>NAN</DistanceMeters>
          </Trackpoint>
          <Trackpoint>
            <Time>2019-01-04T11:50:55.000Z</Time>
            <Position>
              <LatitudeDegrees>36.48019046522676944732666015625</LatitudeDegrees>
              <LongitudeDegrees>-5.4099077917635440826416015625</LongitudeDegrees>
            </Position>
            <AltitudeMeters>80.59999847412109375</AltitudeMeters>
            <DistanceMeters>NAN</DistanceMeters>
          </Trackpoint>
          <Trackpoint>
            <Time>2019-01-04T11:50:56.000Z</Time>
            <Position>
              <LatitudeDegrees>36.48017923347651958465576171875</LatitudeDegrees>
              <LongitudeDegrees>-5.40992497466504573822021484375</LongitudeDegrees>
            </Position>
            <AltitudeMeters>80.40000152587890625</AltitudeMeters>
            <DistanceMeters>NAN</DistanceMeters>
          </Trackpoint>
          <Trackpoint>
            <Time>2019-01-04T11:50:57.000Z</Time>
            <Position>
              <LatitudeDegrees>36.48016934283077716827392578125</LatitudeDegrees>
              <LongitudeDegrees>-5.40994249284267425537109375</LongitudeDegrees>
            </Position>
            <AltitudeMeters>80.40000152587890625</AltitudeMeters>
            <DistanceMeters>NAN</DistanceMeters>
          </Trackpoint>
          <Trackpoint>
            <Time>2019-01-04T11:50:58.000Z</Time>
            <Position>
              <LatitudeDegrees>36.48015928454697132110595703125</LatitudeDegrees>
              <LongitudeDegrees>-5.40996017865836620330810546875</LongitudeDegrees>
            </Position>
            <AltitudeMeters>80.40000152587890625</AltitudeMeters>
            <DistanceMeters>NAN</DistanceMeters>
          </Trackpoint>
          <Trackpoint>
            <Time>2019-01-04T11:50:59.000Z</Time>
            <Position>
              <LatitudeDegrees>36.48015140555799007415771484375</LatitudeDegrees>
              <LongitudeDegrees>-5.40997660718858242034912109375</LongitudeDegrees>
            </Position>
            <AltitudeMeters>80.1999969482421875</AltitudeMeters>
            <DistanceMeters>NAN</DistanceMeters>
          </Trackpoint>
          <Trackpoint>
            <Time>2019-01-04T11:51:00.000Z</Time>
            <Position>
              <LatitudeDegrees>36.4801449514925479888916015625</LatitudeDegrees>
              <LongitudeDegrees>-5.409991443157196044921875</LongitudeDegrees>
            </Position>
            <AltitudeMeters>80.1999969482421875</AltitudeMeters>
            <DistanceMeters>NAN</DistanceMeters>
          </Trackpoint>
          <Trackpoint>
            <Time>2019-01-04T11:51:01.000Z</Time>
            <Position>
              <LatitudeDegrees>36.48013967089354991912841796875</LatitudeDegrees>
              <LongitudeDegrees>-5.41000426746904850006103515625</LongitudeDegrees>
            </Position>
            <AltitudeMeters>80</AltitudeMeters>
            <DistanceMeters>NAN</DistanceMeters>
          </Trackpoint>
          <Trackpoint>
            <Time>2019-01-04T11:51:02.000Z</Time>
            <Position>
              <LatitudeDegrees>36.4801332168281078338623046875</LatitudeDegrees>
              <LongitudeDegrees>-5.41001449339091777801513671875</LongitudeDegrees>
            </Position>
            <AltitudeMeters>79.8000030517578125</AltitudeMeters>
            <DistanceMeters>NAN</DistanceMeters>
          </Trackpoint>
          <Trackpoint>
            <Time>2019-01-04T11:51:03.000Z</Time>
            <Position>
              <LatitudeDegrees>36.480124332010746002197265625</LatitudeDegrees>
              <LongitudeDegrees>-5.41002673096954822540283203125</LongitudeDegrees>
            </Position>
            <AltitudeMeters>79.59999847412109375</AltitudeMeters>
            <DistanceMeters>NAN</DistanceMeters>
          </Trackpoint>
          <Trackpoint>
            <Time>2019-01-04T11:51:04.000Z</Time>
            <Position>
              <LatitudeDegrees>36.4801161177456378936767578125</LatitudeDegrees>
              <LongitudeDegrees>-5.41003829799592494964599609375</LongitudeDegrees>
            </Position>
            <AltitudeMeters>79.40000152587890625</AltitudeMeters>
            <DistanceMeters>NAN</DistanceMeters>
          </Trackpoint>
          <Trackpoint>
            <Time>2019-01-04T11:51:05.000Z</Time>
            <Position>
              <LatitudeDegrees>36.4801037125289440155029296875</LatitudeDegrees>
              <LongitudeDegrees>-5.4100499488413333892822265625</LongitudeDegrees>
            </Position>
            <AltitudeMeters>79.40000152587890625</AltitudeMeters>
            <DistanceMeters>NAN</DistanceMeters>
          </Trackpoint>
          <Trackpoint>
            <Time>2019-01-04T11:51:06.000Z</Time>
            <Position>
              <LatitudeDegrees>36.48009591735899448394775390625</LatitudeDegrees>
              <LongitudeDegrees>-5.41005791164934635162353515625</LongitudeDegrees>
            </Position>
            <AltitudeMeters>79.1999969482421875</AltitudeMeters>
            <DistanceMeters>NAN</DistanceMeters>
          </Trackpoint>
          <Trackpoint>
            <Time>2019-01-04T11:51:07.000Z</Time>
            <Position>
              <LatitudeDegrees>36.48008652962744235992431640625</LatitudeDegrees>
              <LongitudeDegrees>-5.4100663773715496063232421875</LongitudeDegrees>
            </Position>
            <AltitudeMeters>79.1999969482421875</AltitudeMeters>
            <DistanceMeters>NAN</DistanceMeters>
          </Trackpoint>
          <Trackpoint>
            <Time>2019-01-04T11:51:08.000Z</Time>
            <Position>
              <LatitudeDegrees>36.4800775609910488128662109375</LatitudeDegrees>
              <LongitudeDegrees>-5.410072915256023406982421875</LongitudeDegrees>
            </Position>
            <AltitudeMeters>79.1999969482421875</AltitudeMeters>
            <DistanceMeters>NAN</DistanceMeters>
          </Trackpoint>
          <Trackpoint>
            <Time>2019-01-04T11:51:09.000Z</Time>
            <Position>
              <LatitudeDegrees>36.480066664516925811767578125</LatitudeDegrees>
              <LongitudeDegrees>-5.4100757651031017303466796875</LongitudeDegrees>
            </Position>
            <AltitudeMeters>79.40000152587890625</AltitudeMeters>
            <DistanceMeters>NAN</DistanceMeters>
          </Trackpoint>
          <Trackpoint>
            <Time>2019-01-04T11:51:10.000Z</Time>
            <Position>
              <LatitudeDegrees>36.480062641203403472900390625</LatitudeDegrees>
              <LongitudeDegrees>-5.410080291330814361572265625</LongitudeDegrees>
            </Position>
            <AltitudeMeters>79.40000152587890625</AltitudeMeters>
            <DistanceMeters>NAN</DistanceMeters>
          </Trackpoint>
          <Trackpoint>
            <Time>2019-01-04T11:51:11.000Z</Time>
            <Position>
              <LatitudeDegrees>36.48006205447018146514892578125</LatitudeDegrees>
              <LongitudeDegrees>-5.41008196771144866943359375</LongitudeDegrees>
            </Position>
            <AltitudeMeters>79.40000152587890625</AltitudeMeters>
            <DistanceMeters>NAN</DistanceMeters>
          </Trackpoint>
          <Trackpoint>
            <Time>2019-01-04T11:51:12.000Z</Time>
            <Position>
              <LatitudeDegrees>36.4800621382892131805419921875</LatitudeDegrees>
              <LongitudeDegrees>-5.41008506901562213897705078125</LongitudeDegrees>
            </Position>
            <AltitudeMeters>79.40000152587890625</AltitudeMeters>
            <DistanceMeters>NAN</DistanceMeters>
          </Trackpoint>
          <Trackpoint>
            <Time>2019-01-04T11:51:13.000Z</Time>
            <Position>
              <LatitudeDegrees>36.4800604619085788726806640625</LatitudeDegrees>
              <LongitudeDegrees>-5.41008741594851016998291015625</LongitudeDegrees>
            </Position>
            <AltitudeMeters>79.40000152587890625</AltitudeMeters>
            <DistanceMeters>NAN</DistanceMeters>
          </Trackpoint>
          <Trackpoint>
            <Time>2019-01-04T11:51:14.000Z</Time>
            <Position>
              <LatitudeDegrees>36.48005367256700992584228515625</LatitudeDegrees>
              <LongitudeDegrees>-5.41009210981428623199462890625</LongitudeDegrees>
            </Position>
            <AltitudeMeters>79.1999969482421875</AltitudeMeters>
            <DistanceMeters>NAN</DistanceMeters>
          </Trackpoint>
          <Trackpoint>
            <Time>2019-01-04T11:51:15.000Z</Time>
            <Position>
              <LatitudeDegrees>36.48004679940640926361083984375</LatitudeDegrees>
              <LongitudeDegrees>-5.41009210981428623199462890625</LongitudeDegrees>
            </Position>
            <AltitudeMeters>79</AltitudeMeters>
            <DistanceMeters>NAN</DistanceMeters>
          </Trackpoint>
          <Trackpoint>
            <Time>2019-01-04T11:51:16.000Z</Time>
            <Position>
              <LatitudeDegrees>36.48004093207418918609619140625</LatitudeDegrees>
              <LongitudeDegrees>-5.41009194217622280120849609375</LongitudeDegrees>
            </Position>
            <AltitudeMeters>78.59999847412109375</AltitudeMeters>
            <DistanceMeters>NAN</DistanceMeters>
          </Trackpoint>
          <Trackpoint>
            <Time>2019-01-04T11:51:17.000Z</Time>
            <Position>
              <LatitudeDegrees>36.48003741167485713958740234375</LatitudeDegrees>
              <LongitudeDegrees>-5.4100915230810642242431640625</LongitudeDegrees>
            </Position>
            <AltitudeMeters>78.40000152587890625</AltitudeMeters>
            <DistanceMeters>NAN</DistanceMeters>
          </Trackpoint>
          <Trackpoint>
            <Time>2019-01-04T11:51:18.000Z</Time>
            <Position>
              <LatitudeDegrees>36.480037160217761993408203125</LatitudeDegrees>
              <LongitudeDegrees>-5.4100920259952545166015625</LongitudeDegrees>
            </Position>
            <AltitudeMeters>78.1999969482421875</AltitudeMeters>
            <DistanceMeters>NAN</DistanceMeters>
          </Trackpoint>
          <Trackpoint>
            <Time>2019-01-04T11:51:19.000Z</Time>
            <Position>
              <LatitudeDegrees>36.4800386689603328704833984375</LatitudeDegrees>
              <LongitudeDegrees>-5.41009512729942798614501953125</LongitudeDegrees>
            </Position>
            <AltitudeMeters>78</AltitudeMeters>
            <DistanceMeters>NAN</DistanceMeters>
          </Trackpoint>
          <Trackpoint>
            <Time>2019-01-04T11:51:20.000Z</Time>
            <Position>
              <LatitudeDegrees>36.48003615438938140869140625</LatitudeDegrees>
              <LongitudeDegrees>-5.4100982286036014556884765625</LongitudeDegrees>
            </Position>
            <AltitudeMeters>78</AltitudeMeters>
            <DistanceMeters>NAN</DistanceMeters>
          </Trackpoint>
          <Trackpoint>
            <Time>2019-01-04T11:51:21.000Z</Time>
            <Position>
              <LatitudeDegrees>36.4800329692661762237548828125</LatitudeDegrees>
              <LongitudeDegrees>-5.41009864769876003265380859375</LongitudeDegrees>
            </Position>
            <AltitudeMeters>78</AltitudeMeters>
            <DistanceMeters>NAN</DistanceMeters>
          </Trackpoint>
          <Trackpoint>
            <Time>2019-01-04T11:51:22.000Z</Time>
            <Position>
              <LatitudeDegrees>36.48003213107585906982421875</LatitudeDegrees>
              <LongitudeDegrees>-5.4100992344319820404052734375</LongitudeDegrees>
            </Position>
            <AltitudeMeters>78</AltitudeMeters>
            <DistanceMeters>NAN</DistanceMeters>
          </Trackpoint>
          <Trackpoint>
            <Time>2019-01-04T11:51:23.000Z</Time>
            <Position>
              <LatitudeDegrees>36.48002735339105129241943359375</LatitudeDegrees>
              <LongitudeDegrees>-5.4100992344319820404052734375</LongitudeDegrees>
            </Position>
            <AltitudeMeters>78</AltitudeMeters>
            <DistanceMeters>NAN</DistanceMeters>
          </Trackpoint>
          <Trackpoint>
            <Time>2019-01-04T11:51:24.000Z</Time>
            <Position>
              <LatitudeDegrees>36.48002542555332183837890625</LatitudeDegrees>
              <LongitudeDegrees>-5.41009931825101375579833984375</LongitudeDegrees>
            </Position>
            <AltitudeMeters>78</AltitudeMeters>
            <DistanceMeters>NAN</DistanceMeters>
          </Trackpoint>
          <Trackpoint>
            <Time>2019-01-04T11:51:25.000Z</Time>
            <Position>
              <LatitudeDegrees>36.48002433590590953826904296875</LatitudeDegrees>
              <LongitudeDegrees>-5.41009915061295032501220703125</LongitudeDegrees>
            </Position>
            <AltitudeMeters>78</AltitudeMeters>
            <DistanceMeters>NAN</DistanceMeters>
          </Trackpoint>
          <Trackpoint>
            <Time>2019-01-04T11:51:26.000Z</Time>
            <Position>
              <LatitudeDegrees>36.4800245873630046844482421875</LatitudeDegrees>
              <LongitudeDegrees>-5.41009780950844287872314453125</LongitudeDegrees>
            </Position>
            <AltitudeMeters>78</AltitudeMeters>
            <DistanceMeters>NAN</DistanceMeters>
          </Trackpoint>
          <Trackpoint>
            <Time>2019-01-04T11:51:27.000Z</Time>
            <Position>
              <LatitudeDegrees>36.4800245873630046844482421875</LatitudeDegrees>
              <LongitudeDegrees>-5.4100972227752208709716796875</LongitudeDegrees>
            </Position>
            <AltitudeMeters>78</AltitudeMeters>
            <DistanceMeters>NAN</DistanceMeters>
          </Trackpoint>
          <Trackpoint>
            <Time>2019-01-04T11:51:28.000Z</Time>
            <Position>
              <LatitudeDegrees>36.48002433590590953826904296875</LatitudeDegrees>
              <LongitudeDegrees>-5.41009713895618915557861328125</LongitudeDegrees>
            </Position>
            <AltitudeMeters>78</AltitudeMeters>
            <DistanceMeters>NAN</DistanceMeters>
          </Trackpoint>
          <Trackpoint>
            <Time>2019-01-04T11:51:29.000Z</Time>
            <Position>
              <LatitudeDegrees>36.48002400062978267669677734375</LatitudeDegrees>
              <LongitudeDegrees>-5.41009713895618915557861328125</LongitudeDegrees>
            </Position>
            <AltitudeMeters>77.8000030517578125</AltitudeMeters>
            <DistanceMeters>NAN</DistanceMeters>
          </Trackpoint>
          <Trackpoint>
            <Time>2019-01-04T11:51:30.000Z</Time>
            <Position>
              <LatitudeDegrees>36.48002333007752895355224609375</LatitudeDegrees>
              <LongitudeDegrees>-5.410098731517791748046875</LongitudeDegrees>
            </Position>
            <AltitudeMeters>77.8000030517578125</AltitudeMeters>
            <DistanceMeters>NAN</DistanceMeters>
          </Trackpoint>
          <Trackpoint>
            <Time>2019-01-04T11:51:31.000Z</Time>
            <Position>
              <LatitudeDegrees>36.48002140223979949951171875</LatitudeDegrees>
              <LongitudeDegrees>-5.4101012460887432098388671875</LongitudeDegrees>
            </Position>
            <AltitudeMeters>77.8000030517578125</AltitudeMeters>
            <DistanceMeters>NAN</DistanceMeters>
          </Trackpoint>
          <Trackpoint>
            <Time>2019-01-04T11:51:32.000Z</Time>
            <Position>
              <LatitudeDegrees>36.480019055306911468505859375</LatitudeDegrees>
              <LongitudeDegrees>-5.41010401211678981781005859375</LongitudeDegrees>
            </Position>
            <AltitudeMeters>77.8000030517578125</AltitudeMeters>
            <DistanceMeters>NAN</DistanceMeters>
          </Trackpoint>
          <Trackpoint>
            <Time>2019-01-04T11:51:33.000Z</Time>
            <Position>
              <LatitudeDegrees>36.4800165407359600067138671875</LatitudeDegrees>
              <LongitudeDegrees>-5.41010669432580471038818359375</LongitudeDegrees>
            </Position>
            <AltitudeMeters>77.8000030517578125</AltitudeMeters>
            <DistanceMeters>NAN</DistanceMeters>
          </Trackpoint>
          <Trackpoint>
            <Time>2019-01-04T11:51:34.000Z</Time>
            <Position>
              <LatitudeDegrees>36.48001360706984996795654296875</LatitudeDegrees>
              <LongitudeDegrees>-5.4101108014583587646484375</LongitudeDegrees>
            </Position>
            <AltitudeMeters>77.8000030517578125</AltitudeMeters>
            <DistanceMeters>NAN</DistanceMeters>
          </Trackpoint>
          <Trackpoint>
            <Time>2019-01-04T11:51:35.000Z</Time>
            <Position>
              <LatitudeDegrees>36.48001193068921566009521484375</LatitudeDegrees>
              <LongitudeDegrees>-5.41011591441929340362548828125</LongitudeDegrees>
            </Position>
            <AltitudeMeters>77.8000030517578125</AltitudeMeters>
            <DistanceMeters>NAN</DistanceMeters>
          </Trackpoint>
          <Trackpoint>
            <Time>2019-01-04T11:51:36.000Z</Time>
            <Position>
              <LatitudeDegrees>36.48000908084213733673095703125</LatitudeDegrees>
              <LongitudeDegrees>-5.41012044064700603485107421875</LongitudeDegrees>
            </Position>
            <AltitudeMeters>77.8000030517578125</AltitudeMeters>
            <DistanceMeters>NAN</DistanceMeters>
          </Trackpoint>
          <Trackpoint>
            <Time>2019-01-04T11:51:37.000Z</Time>
            <Position>
              <LatitudeDegrees>36.48000556044280529022216796875</LatitudeDegrees>
              <LongitudeDegrees>-5.41012228466570377349853515625</LongitudeDegrees>
            </Position>
            <AltitudeMeters>77.8000030517578125</AltitudeMeters>
            <DistanceMeters>NAN</DistanceMeters>
          </Trackpoint>
          <Trackpoint>
            <Time>2019-01-04T11:51:38.000Z</Time>
            <Position>
              <LatitudeDegrees>36.48000170476734638214111328125</LatitudeDegrees>
              <LongitudeDegrees>-5.410125888884067535400390625</LongitudeDegrees>
            </Position>
            <AltitudeMeters>77.8000030517578125</AltitudeMeters>
            <DistanceMeters>NAN</DistanceMeters>
          </Trackpoint>
          <Trackpoint>
            <Time>2019-01-04T11:51:39.000Z</Time>
            <Position>
              <LatitudeDegrees>36.47999516688287258148193359375</LatitudeDegrees>
              <LongitudeDegrees>-5.410130582749843597412109375</LongitudeDegrees>
            </Position>
            <AltitudeMeters>77.8000030517578125</AltitudeMeters>
            <DistanceMeters>NAN</DistanceMeters>
          </Trackpoint>
          <Trackpoint>
            <Time>2019-01-04T11:51:40.000Z</Time>
            <Position>
              <LatitudeDegrees>36.47998829372227191925048828125</LatitudeDegrees>
              <LongitudeDegrees>-5.41013753972947597503662109375</LongitudeDegrees>
            </Position>
            <AltitudeMeters>77.8000030517578125</AltitudeMeters>
            <DistanceMeters>NAN</DistanceMeters>
          </Trackpoint>
          <Trackpoint>
            <Time>2019-01-04T11:51:41.000Z</Time>
            <Position>
              <LatitudeDegrees>36.47998728789389133453369140625</LatitudeDegrees>
              <LongitudeDegrees>-5.41013888083398342132568359375</LongitudeDegrees>
            </Position>
            <AltitudeMeters>77.8000030517578125</AltitudeMeters>
            <DistanceMeters>NAN</DistanceMeters>
          </Trackpoint>
          <Trackpoint>
            <Time>2019-01-04T11:51:42.000Z</Time>
            <Position>
              <LatitudeDegrees>36.4799863658845424652099609375</LatitudeDegrees>
              <LongitudeDegrees>-5.4101401381194591522216796875</LongitudeDegrees>
            </Position>
            <AltitudeMeters>77.8000030517578125</AltitudeMeters>
            <DistanceMeters>NAN</DistanceMeters>
          </Trackpoint>
          <Trackpoint>
            <Time>2019-01-04T11:51:43.000Z</Time>
            <Position>
              <LatitudeDegrees>36.4799858629703521728515625</LatitudeDegrees>
              <LongitudeDegrees>-5.41014038957655429840087890625</LongitudeDegrees>
            </Position>
            <AltitudeMeters>77.8000030517578125</AltitudeMeters>
            <DistanceMeters>NAN</DistanceMeters>
          </Trackpoint>
          <Trackpoint>
            <Time>2019-01-04T11:51:44.000Z</Time>
            <Position>
              <LatitudeDegrees>36.47998494096100330352783203125</LatitudeDegrees>
              <LongitudeDegrees>-5.4101401381194591522216796875</LongitudeDegrees>
            </Position>
            <AltitudeMeters>77.8000030517578125</AltitudeMeters>
            <DistanceMeters>NAN</DistanceMeters>
          </Trackpoint>
          <Trackpoint>
            <Time>2019-01-04T11:51:45.000Z</Time>
            <Position>
              <LatitudeDegrees>36.479982845485210418701171875</LatitudeDegrees>
              <LongitudeDegrees>-5.4101401381194591522216796875</LongitudeDegrees>
            </Position>
            <AltitudeMeters>77.8000030517578125</AltitudeMeters>
            <DistanceMeters>NAN</DistanceMeters>
          </Trackpoint>
          <Trackpoint>
            <Time>2019-01-04T11:51:46.000Z</Time>
            <Position>
              <LatitudeDegrees>36.4799833483994007110595703125</LatitudeDegrees>
              <LongitudeDegrees>-5.41013971902430057525634765625</LongitudeDegrees>
            </Position>
            <AltitudeMeters>77.8000030517578125</AltitudeMeters>
            <DistanceMeters>NAN</DistanceMeters>
          </Trackpoint>
          <Trackpoint>
            <Time>2019-01-04T11:51:47.000Z</Time>
            <Position>
              <LatitudeDegrees>36.4799833483994007110595703125</LatitudeDegrees>
              <LongitudeDegrees>-5.4101394675672054290771484375</LongitudeDegrees>
            </Position>
            <AltitudeMeters>77.8000030517578125</AltitudeMeters>
            <DistanceMeters>NAN</DistanceMeters>
          </Trackpoint>
          <Trackpoint>
            <Time>2019-01-04T11:51:48.000Z</Time>
            <Position>
              <LatitudeDegrees>36.47998343221843242645263671875</LatitudeDegrees>
              <LongitudeDegrees>-5.4101394675672054290771484375</LongitudeDegrees>
            </Position>
            <AltitudeMeters>77.8000030517578125</AltitudeMeters>
            <DistanceMeters>NAN</DistanceMeters>
          </Trackpoint>
          <Trackpoint>
            <Time>2019-01-04T11:51:49.000Z</Time>
            <Position>
              <LatitudeDegrees>36.47998393513262271881103515625</LatitudeDegrees>
              <LongitudeDegrees>-5.410139299929141998291015625</LongitudeDegrees>
            </Position>
            <AltitudeMeters>77.8000030517578125</AltitudeMeters>
            <DistanceMeters>NAN</DistanceMeters>
          </Trackpoint>
          <Trackpoint>
            <Time>2019-01-04T11:51:50.000Z</Time>
            <Position>
              <LatitudeDegrees>36.4799843542277812957763671875</LatitudeDegrees>
              <LongitudeDegrees>-5.41013896465301513671875</LongitudeDegrees>
            </Position>
            <AltitudeMeters>77.8000030517578125</AltitudeMeters>
            <DistanceMeters>NAN</DistanceMeters>
          </Trackpoint>
          <Trackpoint>
            <Time>2019-01-04T11:51:51.000Z</Time>
            <Position>
              <LatitudeDegrees>36.4799840189516544342041015625</LatitudeDegrees>
              <LongitudeDegrees>-5.41013904847204685211181640625</LongitudeDegrees>
            </Position>
            <AltitudeMeters>77.8000030517578125</AltitudeMeters>
            <DistanceMeters>NAN</DistanceMeters>
          </Trackpoint>
          <Trackpoint>
            <Time>2019-01-04T11:51:52.000Z</Time>
            <Position>
              <LatitudeDegrees>36.4799833483994007110595703125</LatitudeDegrees>
              <LongitudeDegrees>-5.41013955138623714447021484375</LongitudeDegrees>
            </Position>
            <AltitudeMeters>77.8000030517578125</AltitudeMeters>
            <DistanceMeters>NAN</DistanceMeters>
          </Trackpoint>
          <Trackpoint>
            <Time>2019-01-04T11:51:53.000Z</Time>
            <Position>
              <LatitudeDegrees>36.47998326458036899566650390625</LatitudeDegrees>
              <LongitudeDegrees>-5.41014072485268115997314453125</LongitudeDegrees>
            </Position>
            <AltitudeMeters>77.8000030517578125</AltitudeMeters>
            <DistanceMeters>NAN</DistanceMeters>
          </Trackpoint>
          <Trackpoint>
            <Time>2019-01-04T11:51:54.000Z</Time>
            <Position>
              <LatitudeDegrees>36.479983516037464141845703125</LatitudeDegrees>
              <LongitudeDegrees>-5.410141982138156890869140625</LongitudeDegrees>
            </Position>
            <AltitudeMeters>77.8000030517578125</AltitudeMeters>
            <DistanceMeters>NAN</DistanceMeters>
          </Trackpoint>
          <Trackpoint>
            <Time>2019-01-04T11:51:55.000Z</Time>
            <Position>
              <LatitudeDegrees>36.47998292930424213409423828125</LatitudeDegrees>
              <LongitudeDegrees>-5.41014290414750576019287109375</LongitudeDegrees>
            </Position>
            <AltitudeMeters>77.8000030517578125</AltitudeMeters>
            <DistanceMeters>NAN</DistanceMeters>
          </Trackpoint>
          <Trackpoint>
            <Time>2019-01-04T11:51:56.000Z</Time>
            <Position>
              <LatitudeDegrees>36.4799823425710201263427734375</LatitudeDegrees>
              <LongitudeDegrees>-5.410144329071044921875</LongitudeDegrees>
            </Position>
            <AltitudeMeters>77.8000030517578125</AltitudeMeters>
            <DistanceMeters>NAN</DistanceMeters>
          </Trackpoint>
          <Trackpoint>
            <Time>2019-01-04T11:51:57.000Z</Time>
            <Position>
              <LatitudeDegrees>36.4799831807613372802734375</LatitudeDegrees>
              <LongitudeDegrees>-5.41014659218490123748779296875</LongitudeDegrees>
            </Position>
            <AltitudeMeters>77.8000030517578125</AltitudeMeters>
            <DistanceMeters>NAN</DistanceMeters>
          </Trackpoint>
          <Trackpoint>
            <Time>2019-01-04T11:51:58.000Z</Time>
            <Position>
              <LatitudeDegrees>36.4799860306084156036376953125</LatitudeDegrees>
              <LongitudeDegrees>-5.4101475141942501068115234375</LongitudeDegrees>
            </Position>
            <AltitudeMeters>77.8000030517578125</AltitudeMeters>
            <DistanceMeters>NAN</DistanceMeters>
          </Trackpoint>
          <Trackpoint>
            <Time>2019-01-04T11:51:59.000Z</Time>
            <Position>
              <LatitudeDegrees>36.47998787462711334228515625</LatitudeDegrees>
              <LongitudeDegrees>-5.41014910675585269927978515625</LongitudeDegrees>
            </Position>
            <AltitudeMeters>77.8000030517578125</AltitudeMeters>
            <DistanceMeters>NAN</DistanceMeters>
          </Trackpoint>
          <Trackpoint>
            <Time>2019-01-04T11:52:00.000Z</Time>
            <Position>
              <LatitudeDegrees>36.4799883775413036346435546875</LatitudeDegrees>
              <LongitudeDegrees>-5.41015212424099445343017578125</LongitudeDegrees>
            </Position>
            <AltitudeMeters>77.8000030517578125</AltitudeMeters>
            <DistanceMeters>NAN</DistanceMeters>
          </Trackpoint>
          <Trackpoint>
            <Time>2019-01-04T11:52:01.000Z</Time>
            <Position>
              <LatitudeDegrees>36.47998963482677936553955078125</LatitudeDegrees>
              <LongitudeDegrees>-5.41015530936419963836669921875</LongitudeDegrees>
            </Position>
            <AltitudeMeters>77.59999847412109375</AltitudeMeters>
            <DistanceMeters>NAN</DistanceMeters>
          </Trackpoint>
          <Trackpoint>
            <Time>2019-01-04T11:52:02.000Z</Time>
            <Position>
              <LatitudeDegrees>36.47998963482677936553955078125</LatitudeDegrees>
              <LongitudeDegrees>-5.4101585783064365386962890625</LongitudeDegrees>
            </Position>
            <AltitudeMeters>77.59999847412109375</AltitudeMeters>
            <DistanceMeters>NAN</DistanceMeters>
          </Trackpoint>
          <Trackpoint>
            <Time>2019-01-04T11:52:03.000Z</Time>
            <Position>
              <LatitudeDegrees>36.4799907244741916656494140625</LatitudeDegrees>
              <LongitudeDegrees>-5.4101612605154514312744140625</LongitudeDegrees>
            </Position>
            <AltitudeMeters>77.59999847412109375</AltitudeMeters>
            <DistanceMeters>NAN</DistanceMeters>
          </Trackpoint>
          <Trackpoint>
            <Time>2019-01-04T11:52:04.000Z</Time>
            <Position>
              <LatitudeDegrees>36.4799907244741916656494140625</LatitudeDegrees>
              <LongitudeDegrees>-5.4101617634296417236328125</LongitudeDegrees>
            </Position>
            <AltitudeMeters>77.59999847412109375</AltitudeMeters>
            <DistanceMeters>NAN</DistanceMeters>
          </Trackpoint>
          <Trackpoint>
            <Time>2019-01-04T11:52:05.000Z</Time>
            <Position>
              <LatitudeDegrees>36.47999064065515995025634765625</LatitudeDegrees>
              <LongitudeDegrees>-5.410161428153514862060546875</LongitudeDegrees>
            </Position>
            <AltitudeMeters>77.8000030517578125</AltitudeMeters>
            <DistanceMeters>NAN</DistanceMeters>
          </Trackpoint>
          <Trackpoint>
            <Time>2019-01-04T11:52:06.000Z</Time>
            <Position>
              <LatitudeDegrees>36.479990221560001373291015625</LatitudeDegrees>
              <LongitudeDegrees>-5.410161428153514862060546875</LongitudeDegrees>
            </Position>
            <AltitudeMeters>77.59999847412109375</AltitudeMeters>
            <DistanceMeters>NAN</DistanceMeters>
          </Trackpoint>
          <Trackpoint>
            <Time>2019-01-04T11:52:07.000Z</Time>
            <Position>
              <LatitudeDegrees>36.47999055683612823486328125</LatitudeDegrees>
              <LongitudeDegrees>-5.41016184724867343902587890625</LongitudeDegrees>
            </Position>
            <AltitudeMeters>77.59999847412109375</AltitudeMeters>
            <DistanceMeters>NAN</DistanceMeters>
          </Trackpoint>
          <Trackpoint>
            <Time>2019-01-04T11:52:08.000Z</Time>
            <Position>
              <LatitudeDegrees>36.47998921573162078857421875</LatitudeDegrees>
              <LongitudeDegrees>-5.4101626016199588775634765625</LongitudeDegrees>
            </Position>
            <AltitudeMeters>77.59999847412109375</AltitudeMeters>
            <DistanceMeters>NAN</DistanceMeters>
          </Trackpoint>
          <Trackpoint>
            <Time>2019-01-04T11:52:09.000Z</Time>
            <Position>
              <LatitudeDegrees>36.47998846136033535003662109375</LatitudeDegrees>
              <LongitudeDegrees>-5.41016285307705402374267578125</LongitudeDegrees>
            </Position>
            <AltitudeMeters>77.59999847412109375</AltitudeMeters>
            <DistanceMeters>NAN</DistanceMeters>
          </Trackpoint>
          <Trackpoint>
            <Time>2019-01-04T11:52:10.000Z</Time>
            <Position>
              <LatitudeDegrees>36.47998879663646221160888671875</LatitudeDegrees>
              <LongitudeDegrees>-5.4101632721722126007080078125</LongitudeDegrees>
            </Position>
            <AltitudeMeters>77.59999847412109375</AltitudeMeters>
            <DistanceMeters>NAN</DistanceMeters>
          </Trackpoint>
          <Trackpoint>
            <Time>2019-01-04T11:52:11.000Z</Time>
            <Position>
              <LatitudeDegrees>36.479989551007747650146484375</LatitudeDegrees>
              <LongitudeDegrees>-5.41016377508640289306640625</LongitudeDegrees>
            </Position>
            <AltitudeMeters>77.59999847412109375</AltitudeMeters>
            <DistanceMeters>NAN</DistanceMeters>
          </Trackpoint>
          <Trackpoint>
            <Time>2019-01-04T11:52:12.000Z</Time>
            <Position>
              <LatitudeDegrees>36.4799910597503185272216796875</LatitudeDegrees>
              <LongitudeDegrees>-5.41016184724867343902587890625</LongitudeDegrees>
            </Position>
            <AltitudeMeters>77.59999847412109375</AltitudeMeters>
            <DistanceMeters>NAN</DistanceMeters>
          </Trackpoint>
          <Trackpoint>
            <Time>2019-01-04T11:52:13.000Z</Time>
            <Position>
              <LatitudeDegrees>36.47999323904514312744140625</LatitudeDegrees>
              <LongitudeDegrees>-5.41015916503965854644775390625</LongitudeDegrees>
            </Position>
            <AltitudeMeters>77.59999847412109375</AltitudeMeters>
            <DistanceMeters>NAN</DistanceMeters>
          </Trackpoint>
          <Trackpoint>
            <Time>2019-01-04T11:52:14.000Z</Time>
            <Position>
              <LatitudeDegrees>36.4799947477877140045166015625</LatitudeDegrees>
              <LongitudeDegrees>-5.41015899740159511566162109375</LongitudeDegrees>
            </Position>
            <AltitudeMeters>77.59999847412109375</AltitudeMeters>
            <DistanceMeters>NAN</DistanceMeters>
          </Trackpoint>
          <Trackpoint>
            <Time>2019-01-04T11:52:15.000Z</Time>
            <Position>
              <LatitudeDegrees>36.4799950830638408660888671875</LatitudeDegrees>
              <LongitudeDegrees>-5.4101589135825634002685546875</LongitudeDegrees>
            </Position>
            <AltitudeMeters>77.59999847412109375</AltitudeMeters>
            <DistanceMeters>NAN</DistanceMeters>
          </Trackpoint>
          <Trackpoint>
            <Time>2019-01-04T11:52:16.000Z</Time>
            <Position>
              <LatitudeDegrees>36.479997597634792327880859375</LatitudeDegrees>
              <LongitudeDegrees>-5.4101590812206268310546875</LongitudeDegrees>
            </Position>
            <AltitudeMeters>77.59999847412109375</AltitudeMeters>
            <DistanceMeters>NAN</DistanceMeters>
          </Trackpoint>
          <Trackpoint>
            <Time>2019-01-04T11:52:17.000Z</Time>
            <Position>
              <LatitudeDegrees>36.479999609291553497314453125</LatitudeDegrees>
              <LongitudeDegrees>-5.410157740116119384765625</LongitudeDegrees>
            </Position>
            <AltitudeMeters>77.59999847412109375</AltitudeMeters>
            <DistanceMeters>NAN</DistanceMeters>
          </Trackpoint>
          <Trackpoint>
            <Time>2019-01-04T11:52:18.000Z</Time>
            <Position>
              <LatitudeDegrees>36.48000128567218780517578125</LatitudeDegrees>
              <LongitudeDegrees>-5.41015597991645336151123046875</LongitudeDegrees>
            </Position>
            <AltitudeMeters>77.8000030517578125</AltitudeMeters>
            <DistanceMeters>NAN</DistanceMeters>
          </Trackpoint>
          <Trackpoint>
            <Time>2019-01-04T11:52:19.000Z</Time>
            <Position>
              <LatitudeDegrees>36.48000262677669525146484375</LatitudeDegrees>
              <LongitudeDegrees>-5.41015497408807277679443359375</LongitudeDegrees>
            </Position>
            <AltitudeMeters>77.8000030517578125</AltitudeMeters>
            <DistanceMeters>NAN</DistanceMeters>
          </Trackpoint>
          <Trackpoint>
            <Time>2019-01-04T11:52:20.000Z</Time>
            <Position>
              <LatitudeDegrees>36.48000405170023441314697265625</LatitudeDegrees>
              <LongitudeDegrees>-5.4101532138884067535400390625</LongitudeDegrees>
            </Position>
            <AltitudeMeters>77.8000030517578125</AltitudeMeters>
            <DistanceMeters>NAN</DistanceMeters>
          </Trackpoint>
          <Trackpoint>
            <Time>2019-01-04T11:52:21.000Z</Time>
            <Position>
              <LatitudeDegrees>36.480006314814090728759765625</LatitudeDegrees>
              <LongitudeDegrees>-5.410152710974216461181640625</LongitudeDegrees>
            </Position>
            <AltitudeMeters>77.8000030517578125</AltitudeMeters>
            <DistanceMeters>NAN</DistanceMeters>
          </Trackpoint>
          <Trackpoint>
            <Time>2019-01-04T11:52:22.000Z</Time>
            <Position>
              <LatitudeDegrees>36.48000723682343959808349609375</LatitudeDegrees>
              <LongitudeDegrees>-5.41015178896486759185791015625</LongitudeDegrees>
            </Position>
            <AltitudeMeters>77.8000030517578125</AltitudeMeters>
            <DistanceMeters>NAN</DistanceMeters>
          </Trackpoint>
          <Trackpoint>
            <Time>2019-01-04T11:52:23.000Z</Time>
            <Position>
              <LatitudeDegrees>36.48000891320407390594482421875</LatitudeDegrees>
              <LongitudeDegrees>-5.41015078313648700714111328125</LongitudeDegrees>
            </Position>
            <AltitudeMeters>77.8000030517578125</AltitudeMeters>
            <DistanceMeters>NAN</DistanceMeters>
          </Trackpoint>
          <Trackpoint>
            <Time>2019-01-04T11:52:24.000Z</Time>
            <Position>
              <LatitudeDegrees>36.48000941611826419830322265625</LatitudeDegrees>
              <LongitudeDegrees>-5.410150699317455291748046875</LongitudeDegrees>
            </Position>
            <AltitudeMeters>77.8000030517578125</AltitudeMeters>
            <DistanceMeters>NAN</DistanceMeters>
          </Trackpoint>
          <Trackpoint>
            <Time>2019-01-04T11:52:25.000Z</Time>
            <Position>
              <LatitudeDegrees>36.48000941611826419830322265625</LatitudeDegrees>
              <LongitudeDegrees>-5.4101505316793918609619140625</LongitudeDegrees>
            </Position>
            <AltitudeMeters>77.8000030517578125</AltitudeMeters>
            <DistanceMeters>NAN</DistanceMeters>
          </Trackpoint>
          <Trackpoint>
            <Time>2019-01-04T11:52:26.000Z</Time>
            <Position>
              <LatitudeDegrees>36.4800088293850421905517578125</LatitudeDegrees>
              <LongitudeDegrees>-5.41014927439391613006591796875</LongitudeDegrees>
            </Position>
            <AltitudeMeters>77.8000030517578125</AltitudeMeters>
            <DistanceMeters>NAN</DistanceMeters>
          </Trackpoint>
          <Trackpoint>
            <Time>2019-01-04T11:52:27.000Z</Time>
            <Position>
              <LatitudeDegrees>36.48000841028988361358642578125</LatitudeDegrees>
              <LongitudeDegrees>-5.41014458052814006805419921875</LongitudeDegrees>
            </Position>
            <AltitudeMeters>77.8000030517578125</AltitudeMeters>
            <DistanceMeters>NAN</DistanceMeters>
          </Trackpoint>
          <Trackpoint>
            <Time>2019-01-04T11:52:28.000Z</Time>
            <Position>
              <LatitudeDegrees>36.480011008679866790771484375</LatitudeDegrees>
              <LongitudeDegrees>-5.410141311585903167724609375</LongitudeDegrees>
            </Position>
            <AltitudeMeters>77.8000030517578125</AltitudeMeters>
            <DistanceMeters>NAN</DistanceMeters>
          </Trackpoint>
          <Trackpoint>
            <Time>2019-01-04T11:52:29.000Z</Time>
            <Position>
              <LatitudeDegrees>36.48001142777502536773681640625</LatitudeDegrees>
              <LongitudeDegrees>-5.41013854555785655975341796875</LongitudeDegrees>
            </Position>
            <AltitudeMeters>77.8000030517578125</AltitudeMeters>
            <DistanceMeters>NAN</DistanceMeters>
          </Trackpoint>
          <Trackpoint>
            <Time>2019-01-04T11:52:30.000Z</Time>
            <Position>
              <LatitudeDegrees>36.48000975139439105987548828125</LatitudeDegrees>
              <LongitudeDegrees>-5.41013603098690509796142578125</LongitudeDegrees>
            </Position>
            <AltitudeMeters>77.8000030517578125</AltitudeMeters>
            <DistanceMeters>NAN</DistanceMeters>
          </Trackpoint>
          <Trackpoint>
            <Time>2019-01-04T11:52:31.000Z</Time>
            <Position>
              <LatitudeDegrees>36.4800078235566616058349609375</LatitudeDegrees>
              <LongitudeDegrees>-5.41013066656887531280517578125</LongitudeDegrees>
            </Position>
            <AltitudeMeters>77.8000030517578125</AltitudeMeters>
            <DistanceMeters>NAN</DistanceMeters>
          </Trackpoint>
          <Trackpoint>
            <Time>2019-01-04T11:52:32.000Z</Time>
            <Position>
              <LatitudeDegrees>36.4800088293850421905517578125</LatitudeDegrees>
              <LongitudeDegrees>-5.41013116948306560516357421875</LongitudeDegrees>
            </Position>
            <AltitudeMeters>77.8000030517578125</AltitudeMeters>
            <DistanceMeters>NAN</DistanceMeters>
          </Trackpoint>
          <Trackpoint>
            <Time>2019-01-04T11:52:33.000Z</Time>
            <Position>
              <LatitudeDegrees>36.4800105057656764984130859375</LatitudeDegrees>
              <LongitudeDegrees>-5.41012949310243129730224609375</LongitudeDegrees>
            </Position>
            <AltitudeMeters>77.8000030517578125</AltitudeMeters>
            <DistanceMeters>NAN</DistanceMeters>
          </Trackpoint>
          <Trackpoint>
            <Time>2019-01-04T11:52:34.000Z</Time>
            <Position>
              <LatitudeDegrees>36.48000908084213733673095703125</LatitudeDegrees>
              <LongitudeDegrees>-5.41012647561728954315185546875</LongitudeDegrees>
            </Position>
            <AltitudeMeters>77.8000030517578125</AltitudeMeters>
            <DistanceMeters>NAN</DistanceMeters>
          </Trackpoint>
          <Trackpoint>
            <Time>2019-01-04T11:52:35.000Z</Time>
            <Position>
              <LatitudeDegrees>36.48000908084213733673095703125</LatitudeDegrees>
              <LongitudeDegrees>-5.41012396104633808135986328125</LongitudeDegrees>
            </Position>
            <AltitudeMeters>77.8000030517578125</AltitudeMeters>
            <DistanceMeters>NAN</DistanceMeters>
          </Trackpoint>
          <Trackpoint>
            <Time>2019-01-04T11:52:36.000Z</Time>
            <Position>
              <LatitudeDegrees>36.48000824265182018280029296875</LatitudeDegrees>
              <LongitudeDegrees>-5.41012228466570377349853515625</LongitudeDegrees>
            </Position>
            <AltitudeMeters>78</AltitudeMeters>
            <DistanceMeters>NAN</DistanceMeters>
          </Trackpoint>
          <Trackpoint>
            <Time>2019-01-04T11:52:37.000Z</Time>
            <Position>
              <LatitudeDegrees>36.48000623099505901336669921875</LatitudeDegrees>
              <LongitudeDegrees>-5.410120524466037750244140625</LongitudeDegrees>
            </Position>
            <AltitudeMeters>78</AltitudeMeters>
            <DistanceMeters>NAN</DistanceMeters>
          </Trackpoint>
          <Trackpoint>
            <Time>2019-01-04T11:52:38.000Z</Time>
            <Position>
              <LatitudeDegrees>36.4800058118999004364013671875</LatitudeDegrees>
              <LongitudeDegrees>-5.41012094356119632720947265625</LongitudeDegrees>
            </Position>
            <AltitudeMeters>78</AltitudeMeters>
            <DistanceMeters>NAN</DistanceMeters>
          </Trackpoint>
          <Trackpoint>
            <Time>2019-01-04T11:52:39.000Z</Time>
            <Position>
              <LatitudeDegrees>36.48000488989055156707763671875</LatitudeDegrees>
              <LongitudeDegrees>-5.4101220332086086273193359375</LongitudeDegrees>
            </Position>
            <AltitudeMeters>78</AltitudeMeters>
            <DistanceMeters>NAN</DistanceMeters>
          </Trackpoint>
          <Trackpoint>
            <Time>2019-01-04T11:52:40.000Z</Time>
            <Position>
              <LatitudeDegrees>36.480002962052822113037109375</LatitudeDegrees>
              <LongitudeDegrees>-5.41012345813214778900146484375</LongitudeDegrees>
            </Position>
            <AltitudeMeters>78</AltitudeMeters>
            <DistanceMeters>NAN</DistanceMeters>
          </Trackpoint>
          <Trackpoint>
            <Time>2019-01-04T11:52:41.000Z</Time>
            <Position>
              <LatitudeDegrees>36.48000061511993408203125</LatitudeDegrees>
              <LongitudeDegrees>-5.41012530215084552764892578125</LongitudeDegrees>
            </Position>
            <AltitudeMeters>77.8000030517578125</AltitudeMeters>
            <DistanceMeters>NAN</DistanceMeters>
          </Trackpoint>
          <Trackpoint>
            <Time>2019-01-04T11:52:42.000Z</Time>
            <Position>
              <LatitudeDegrees>36.480000279843807220458984375</LatitudeDegrees>
              <LongitudeDegrees>-5.41012496687471866607666015625</LongitudeDegrees>
            </Position>
            <AltitudeMeters>77.8000030517578125</AltitudeMeters>
            <DistanceMeters>NAN</DistanceMeters>
          </Trackpoint>
          <Trackpoint>
            <Time>2019-01-04T11:52:43.000Z</Time>
            <Position>
              <LatitudeDegrees>36.4799997769296169281005859375</LatitudeDegrees>
              <LongitudeDegrees>-5.41012362577021121978759765625</LongitudeDegrees>
            </Position>
            <AltitudeMeters>77.8000030517578125</AltitudeMeters>
            <DistanceMeters>NAN</DistanceMeters>
          </Trackpoint>
          <Trackpoint>
            <Time>2019-01-04T11:52:44.000Z</Time>
            <Position>
              <LatitudeDegrees>36.47999835200607776641845703125</LatitudeDegrees>
              <LongitudeDegrees>-5.41012396104633808135986328125</LongitudeDegrees>
            </Position>
            <AltitudeMeters>77.59999847412109375</AltitudeMeters>
            <DistanceMeters>NAN</DistanceMeters>
          </Trackpoint>
          <Trackpoint>
            <Time>2019-01-04T11:52:45.000Z</Time>
            <Position>
              <LatitudeDegrees>36.4799977652728557586669921875</LatitudeDegrees>
              <LongitudeDegrees>-5.41012479923665523529052734375</LongitudeDegrees>
            </Position>
            <AltitudeMeters>77.59999847412109375</AltitudeMeters>
            <DistanceMeters>NAN</DistanceMeters>
          </Trackpoint>
          <Trackpoint>
            <Time>2019-01-04T11:52:46.000Z</Time>
            <Position>
              <LatitudeDegrees>36.47999726235866546630859375</LatitudeDegrees>
              <LongitudeDegrees>-5.4101250506937503814697265625</LongitudeDegrees>
            </Position>
            <AltitudeMeters>77.8000030517578125</AltitudeMeters>
            <DistanceMeters>NAN</DistanceMeters>
          </Trackpoint>
          <Trackpoint>
            <Time>2019-01-04T11:52:47.000Z</Time>
            <Position>
              <LatitudeDegrees>36.4799981005489826202392578125</LatitudeDegrees>
              <LongitudeDegrees>-5.41012546978890895843505859375</LongitudeDegrees>
            </Position>
            <AltitudeMeters>77.8000030517578125</AltitudeMeters>
            <DistanceMeters>NAN</DistanceMeters>
          </Trackpoint>
          <Trackpoint>
            <Time>2019-01-04T11:52:48.000Z</Time>
            <Position>
              <LatitudeDegrees>36.479997932910919189453125</LatitudeDegrees>
              <LongitudeDegrees>-5.41012563742697238922119140625</LongitudeDegrees>
            </Position>
            <AltitudeMeters>77.8000030517578125</AltitudeMeters>
            <DistanceMeters>NAN</DistanceMeters>
          </Trackpoint>
          <Trackpoint>
            <Time>2019-01-04T11:52:49.000Z</Time>
            <Position>
              <LatitudeDegrees>36.4799970947206020355224609375</LatitudeDegrees>
              <LongitudeDegrees>-5.41012530215084552764892578125</LongitudeDegrees>
            </Position>
            <AltitudeMeters>77.8000030517578125</AltitudeMeters>
            <DistanceMeters>NAN</DistanceMeters>
          </Trackpoint>
          <Trackpoint>
            <Time>2019-01-04T11:52:50.000Z</Time>
            <Position>
              <LatitudeDegrees>36.47999617271125316619873046875</LatitudeDegrees>
              <LongitudeDegrees>-5.4101243801414966583251953125</LongitudeDegrees>
            </Position>
            <AltitudeMeters>77.8000030517578125</AltitudeMeters>
            <DistanceMeters>NAN</DistanceMeters>
          </Trackpoint>
          <Trackpoint>
            <Time>2019-01-04T11:52:51.000Z</Time>
            <Position>
              <LatitudeDegrees>36.47999516688287258148193359375</LatitudeDegrees>
              <LongitudeDegrees>-5.41012287139892578125</LongitudeDegrees>
            </Position>
            <AltitudeMeters>77.8000030517578125</AltitudeMeters>
            <DistanceMeters>NAN</DistanceMeters>
          </Trackpoint>
          <Trackpoint>
            <Time>2019-01-04T11:52:52.000Z</Time>
            <Position>
              <LatitudeDegrees>36.47999499924480915069580078125</LatitudeDegrees>
              <LongitudeDegrees>-5.41012354195117950439453125</LongitudeDegrees>
            </Position>
            <AltitudeMeters>77.8000030517578125</AltitudeMeters>
            <DistanceMeters>NAN</DistanceMeters>
          </Trackpoint>
          <Trackpoint>
            <Time>2019-01-04T11:52:53.000Z</Time>
            <Position>
              <LatitudeDegrees>36.47999432869255542755126953125</LatitudeDegrees>
              <LongitudeDegrees>-5.4101242125034332275390625</LongitudeDegrees>
            </Position>
            <AltitudeMeters>77.8000030517578125</AltitudeMeters>
            <DistanceMeters>NAN</DistanceMeters>
          </Trackpoint>
          <Trackpoint>
            <Time>2019-01-04T11:52:54.000Z</Time>
            <Position>
              <LatitudeDegrees>36.479995250701904296875</LatitudeDegrees>
              <LongitudeDegrees>-5.4101242125034332275390625</LongitudeDegrees>
            </Position>
            <AltitudeMeters>77.8000030517578125</AltitudeMeters>
            <DistanceMeters>NAN</DistanceMeters>
          </Trackpoint>
          <Trackpoint>
            <Time>2019-01-04T11:52:55.000Z</Time>
            <Position>
              <LatitudeDegrees>36.47999550215899944305419921875</LatitudeDegrees>
              <LongitudeDegrees>-5.4101242125034332275390625</LongitudeDegrees>
            </Position>
            <AltitudeMeters>77.8000030517578125</AltitudeMeters>
            <DistanceMeters>NAN</DistanceMeters>
          </Trackpoint>
          <Trackpoint>
            <Time>2019-01-04T11:52:56.000Z</Time>
            <Position>
              <LatitudeDegrees>36.47999516688287258148193359375</LatitudeDegrees>
              <LongitudeDegrees>-5.41012345813214778900146484375</LongitudeDegrees>
            </Position>
            <AltitudeMeters>77.8000030517578125</AltitudeMeters>
            <DistanceMeters>NAN</DistanceMeters>
          </Trackpoint>
          <Trackpoint>
            <Time>2019-01-04T11:52:57.000Z</Time>
            <Position>
              <LatitudeDegrees>36.4799947477877140045166015625</LatitudeDegrees>
              <LongitudeDegrees>-5.410122536122798919677734375</LongitudeDegrees>
            </Position>
            <AltitudeMeters>77.59999847412109375</AltitudeMeters>
            <DistanceMeters>NAN</DistanceMeters>
          </Trackpoint>
          <Trackpoint>
            <Time>2019-01-04T11:52:58.000Z</Time>
            <Position>
              <LatitudeDegrees>36.479994915425777435302734375</LatitudeDegrees>
              <LongitudeDegrees>-5.410121865570545196533203125</LongitudeDegrees>
            </Position>
            <AltitudeMeters>77.59999847412109375</AltitudeMeters>
            <DistanceMeters>NAN</DistanceMeters>
          </Trackpoint>
          <Trackpoint>
            <Time>2019-01-04T11:52:59.000Z</Time>
            <Position>
              <LatitudeDegrees>36.4799937419593334197998046875</LatitudeDegrees>
              <LongitudeDegrees>-5.41012194938957691192626953125</LongitudeDegrees>
            </Position>
            <AltitudeMeters>77.59999847412109375</AltitudeMeters>
            <DistanceMeters>NAN</DistanceMeters>
          </Trackpoint>
          <Trackpoint>
            <Time>2019-01-04T11:53:00.000Z</Time>
            <Position>
              <LatitudeDegrees>36.479993574321269989013671875</LatitudeDegrees>
              <LongitudeDegrees>-5.41012228466570377349853515625</LongitudeDegrees>
            </Position>
            <AltitudeMeters>77.40000152587890625</AltitudeMeters>
            <DistanceMeters>NAN</DistanceMeters>
          </Trackpoint>
          <Trackpoint>
            <Time>2019-01-04T11:53:01.000Z</Time>
            <Position>
              <LatitudeDegrees>36.4799940772354602813720703125</LatitudeDegrees>
              <LongitudeDegrees>-5.41012295521795749664306640625</LongitudeDegrees>
            </Position>
            <AltitudeMeters>77.40000152587890625</AltitudeMeters>
            <DistanceMeters>NAN</DistanceMeters>
          </Trackpoint>
          <Trackpoint>
            <Time>2019-01-04T11:53:02.000Z</Time>
            <Position>
              <LatitudeDegrees>36.47999416105449199676513671875</LatitudeDegrees>
              <LongitudeDegrees>-5.410122536122798919677734375</LongitudeDegrees>
            </Position>
            <AltitudeMeters>77.40000152587890625</AltitudeMeters>
            <DistanceMeters>NAN</DistanceMeters>
          </Trackpoint>
          <Trackpoint>
            <Time>2019-01-04T11:53:03.000Z</Time>
            <Position>
              <LatitudeDegrees>36.47999399341642856597900390625</LatitudeDegrees>
              <LongitudeDegrees>-5.4101216979324817657470703125</LongitudeDegrees>
            </Position>
            <AltitudeMeters>77.40000152587890625</AltitudeMeters>
            <DistanceMeters>NAN</DistanceMeters>
          </Trackpoint>
          <Trackpoint>
            <Time>2019-01-04T11:53:04.000Z</Time>
            <Position>
              <LatitudeDegrees>36.47999432869255542755126953125</LatitudeDegrees>
              <LongitudeDegrees>-5.4101213626563549041748046875</LongitudeDegrees>
            </Position>
            <AltitudeMeters>77.40000152587890625</AltitudeMeters>
            <DistanceMeters>NAN</DistanceMeters>
          </Trackpoint>
          <Trackpoint>
            <Time>2019-01-04T11:53:05.000Z</Time>
            <Position>
              <LatitudeDegrees>36.47999458014965057373046875</LatitudeDegrees>
              <LongitudeDegrees>-5.41011943481862545013427734375</LongitudeDegrees>
            </Position>
            <AltitudeMeters>77.59999847412109375</AltitudeMeters>
            <DistanceMeters>NAN</DistanceMeters>
          </Trackpoint>
          <Trackpoint>
            <Time>2019-01-04T11:53:06.000Z</Time>
            <Position>
              <LatitudeDegrees>36.479995250701904296875</LatitudeDegrees>
              <LongitudeDegrees>-5.4101180098950862884521484375</LongitudeDegrees>
            </Position>
            <AltitudeMeters>77.59999847412109375</AltitudeMeters>
            <DistanceMeters>NAN</DistanceMeters>
          </Trackpoint>
          <Trackpoint>
            <Time>2019-01-04T11:53:07.000Z</Time>
            <Position>
              <LatitudeDegrees>36.4799964241683483123779296875</LatitudeDegrees>
              <LongitudeDegrees>-5.41011826135218143463134765625</LongitudeDegrees>
            </Position>
            <AltitudeMeters>77.59999847412109375</AltitudeMeters>
            <DistanceMeters>NAN</DistanceMeters>
          </Trackpoint>
          <Trackpoint>
            <Time>2019-01-04T11:53:08.000Z</Time>
            <Position>
              <LatitudeDegrees>36.4799970947206020355224609375</LatitudeDegrees>
              <LongitudeDegrees>-5.41011859662830829620361328125</LongitudeDegrees>
            </Position>
            <AltitudeMeters>77.59999847412109375</AltitudeMeters>
            <DistanceMeters>NAN</DistanceMeters>
          </Trackpoint>
          <Trackpoint>
            <Time>2019-01-04T11:53:09.000Z</Time>
            <Position>
              <LatitudeDegrees>36.47999851964414119720458984375</LatitudeDegrees>
              <LongitudeDegrees>-5.41011893190443515777587890625</LongitudeDegrees>
            </Position>
            <AltitudeMeters>77.59999847412109375</AltitudeMeters>
            <DistanceMeters>NAN</DistanceMeters>
          </Trackpoint>
          <Trackpoint>
            <Time>2019-01-04T11:53:10.000Z</Time>
            <Position>
              <LatitudeDegrees>36.4799991063773632049560546875</LatitudeDegrees>
              <LongitudeDegrees>-5.41012111119925975799560546875</LongitudeDegrees>
            </Position>
            <AltitudeMeters>77.59999847412109375</AltitudeMeters>
            <DistanceMeters>NAN</DistanceMeters>
          </Trackpoint>
          <Trackpoint>
            <Time>2019-01-04T11:53:11.000Z</Time>
            <Position>
              <LatitudeDegrees>36.47999935783445835113525390625</LatitudeDegrees>
              <LongitudeDegrees>-5.4101220332086086273193359375</LongitudeDegrees>
            </Position>
            <AltitudeMeters>77.59999847412109375</AltitudeMeters>
            <DistanceMeters>NAN</DistanceMeters>
          </Trackpoint>
          <Trackpoint>
            <Time>2019-01-04T11:53:12.000Z</Time>
            <Position>
              <LatitudeDegrees>36.47999902255833148956298828125</LatitudeDegrees>
              <LongitudeDegrees>-5.4101227037608623504638671875</LongitudeDegrees>
            </Position>
            <AltitudeMeters>77.59999847412109375</AltitudeMeters>
            <DistanceMeters>NAN</DistanceMeters>
          </Trackpoint>
          <Trackpoint>
            <Time>2019-01-04T11:53:13.000Z</Time>
            <Position>
              <LatitudeDegrees>36.479998268187046051025390625</LatitudeDegrees>
              <LongitudeDegrees>-5.4101227037608623504638671875</LongitudeDegrees>
            </Position>
            <AltitudeMeters>77.59999847412109375</AltitudeMeters>
            <DistanceMeters>NAN</DistanceMeters>
          </Trackpoint>
          <Trackpoint>
            <Time>2019-01-04T11:53:14.000Z</Time>
            <Position>
              <LatitudeDegrees>36.47999784909188747406005859375</LatitudeDegrees>
              <LongitudeDegrees>-5.41012278757989406585693359375</LongitudeDegrees>
            </Position>
            <AltitudeMeters>77.59999847412109375</AltitudeMeters>
            <DistanceMeters>NAN</DistanceMeters>
          </Trackpoint>
          <Trackpoint>
            <Time>2019-01-04T11:53:15.000Z</Time>
            <Position>
              <LatitudeDegrees>36.47999818436801433563232421875</LatitudeDegrees>
              <LongitudeDegrees>-5.41012295521795749664306640625</LongitudeDegrees>
            </Position>
            <AltitudeMeters>77.59999847412109375</AltitudeMeters>
            <DistanceMeters>NAN</DistanceMeters>
          </Trackpoint>
          <Trackpoint>
            <Time>2019-01-04T11:53:16.000Z</Time>
            <Position>
              <LatitudeDegrees>36.47999860346317291259765625</LatitudeDegrees>
              <LongitudeDegrees>-5.41012379340827465057373046875</LongitudeDegrees>
            </Position>
            <AltitudeMeters>77.8000030517578125</AltitudeMeters>
            <DistanceMeters>NAN</DistanceMeters>
          </Trackpoint>
          <Trackpoint>
            <Time>2019-01-04T11:53:17.000Z</Time>
            <Position>
              <LatitudeDegrees>36.47999860346317291259765625</LatitudeDegrees>
              <LongitudeDegrees>-5.410124547779560089111328125</LongitudeDegrees>
            </Position>
            <AltitudeMeters>77.8000030517578125</AltitudeMeters>
            <DistanceMeters>NAN</DistanceMeters>
          </Trackpoint>
          <Trackpoint>
            <Time>2019-01-04T11:53:18.000Z</Time>
            <Position>
              <LatitudeDegrees>36.479998938739299774169921875</LatitudeDegrees>
              <LongitudeDegrees>-5.4101247154176235198974609375</LongitudeDegrees>
            </Position>
            <AltitudeMeters>77.8000030517578125</AltitudeMeters>
            <DistanceMeters>NAN</DistanceMeters>
          </Trackpoint>
          <Trackpoint>
            <Time>2019-01-04T11:53:19.000Z</Time>
            <Position>
              <LatitudeDegrees>36.4799994416534900665283203125</LatitudeDegrees>
              <LongitudeDegrees>-5.41012429632246494293212890625</LongitudeDegrees>
            </Position>
            <AltitudeMeters>77.8000030517578125</AltitudeMeters>
            <DistanceMeters>NAN</DistanceMeters>
          </Trackpoint>
          <Trackpoint>
            <Time>2019-01-04T11:53:20.000Z</Time>
            <Position>
              <LatitudeDegrees>36.479999609291553497314453125</LatitudeDegrees>
              <LongitudeDegrees>-5.41012354195117950439453125</LongitudeDegrees>
            </Position>
            <AltitudeMeters>77.8000030517578125</AltitudeMeters>
            <DistanceMeters>NAN</DistanceMeters>
          </Trackpoint>
          <Trackpoint>
            <Time>2019-01-04T11:53:21.000Z</Time>
            <Position>
              <LatitudeDegrees>36.479998938739299774169921875</LatitudeDegrees>
              <LongitudeDegrees>-5.41012329049408435821533203125</LongitudeDegrees>
            </Position>
            <AltitudeMeters>77.8000030517578125</AltitudeMeters>
            <DistanceMeters>NAN</DistanceMeters>
          </Trackpoint>
          <Trackpoint>
            <Time>2019-01-04T11:53:22.000Z</Time>
            <Position>
              <LatitudeDegrees>36.479997932910919189453125</LatitudeDegrees>
              <LongitudeDegrees>-5.41012278757989406585693359375</LongitudeDegrees>
            </Position>
            <AltitudeMeters>77.8000030517578125</AltitudeMeters>
            <DistanceMeters>NAN</DistanceMeters>
          </Trackpoint>
          <Trackpoint>
            <Time>2019-01-04T11:53:23.000Z</Time>
            <Position>
              <LatitudeDegrees>36.479996927082538604736328125</LatitudeDegrees>
              <LongitudeDegrees>-5.41012278757989406585693359375</LongitudeDegrees>
            </Position>
            <AltitudeMeters>77.59999847412109375</AltitudeMeters>
            <DistanceMeters>NAN</DistanceMeters>
          </Trackpoint>
          <Trackpoint>
            <Time>2019-01-04T11:53:24.000Z</Time>
            <Position>
              <LatitudeDegrees>36.47999617271125316619873046875</LatitudeDegrees>
              <LongitudeDegrees>-5.41012245230376720428466796875</LongitudeDegrees>
            </Position>
            <AltitudeMeters>77.59999847412109375</AltitudeMeters>
            <DistanceMeters>NAN</DistanceMeters>
          </Trackpoint>
          <Trackpoint>
            <Time>2019-01-04T11:53:25.000Z</Time>
            <Position>
              <LatitudeDegrees>36.47999650798738002777099609375</LatitudeDegrees>
              <LongitudeDegrees>-5.4101215302944183349609375</LongitudeDegrees>
            </Position>
            <AltitudeMeters>77.59999847412109375</AltitudeMeters>
            <DistanceMeters>NAN</DistanceMeters>
          </Trackpoint>
          <Trackpoint>
            <Time>2019-01-04T11:53:26.000Z</Time>
            <Position>
              <LatitudeDegrees>36.4799960888922214508056640625</LatitudeDegrees>
              <LongitudeDegrees>-5.410121195018291473388671875</LongitudeDegrees>
            </Position>
            <AltitudeMeters>77.59999847412109375</AltitudeMeters>
            <DistanceMeters>NAN</DistanceMeters>
          </Trackpoint>
          <Trackpoint>
            <Time>2019-01-04T11:53:27.000Z</Time>
            <Position>
              <LatitudeDegrees>36.47999583743512630462646484375</LatitudeDegrees>
              <LongitudeDegrees>-5.41012161411345005035400390625</LongitudeDegrees>
            </Position>
            <AltitudeMeters>77.59999847412109375</AltitudeMeters>
            <DistanceMeters>NAN</DistanceMeters>
          </Trackpoint>
          <Trackpoint>
            <Time>2019-01-04T11:53:28.000Z</Time>
            <Position>
              <LatitudeDegrees>36.4799960888922214508056640625</LatitudeDegrees>
              <LongitudeDegrees>-5.4101227037608623504638671875</LongitudeDegrees>
            </Position>
            <AltitudeMeters>77.59999847412109375</AltitudeMeters>
            <DistanceMeters>NAN</DistanceMeters>
          </Trackpoint>
          <Trackpoint>
            <Time>2019-01-04T11:53:29.000Z</Time>
            <Position>
              <LatitudeDegrees>36.479996256530284881591796875</LatitudeDegrees>
              <LongitudeDegrees>-5.4101230390369892120361328125</LongitudeDegrees>
            </Position>
            <AltitudeMeters>77.59999847412109375</AltitudeMeters>
            <DistanceMeters>NAN</DistanceMeters>
          </Trackpoint>
          <Trackpoint>
            <Time>2019-01-04T11:53:30.000Z</Time>
            <Position>
              <LatitudeDegrees>36.47999667562544345855712890625</LatitudeDegrees>
              <LongitudeDegrees>-5.41012295521795749664306640625</LongitudeDegrees>
            </Position>
            <AltitudeMeters>77.59999847412109375</AltitudeMeters>
            <DistanceMeters>NAN</DistanceMeters>
          </Trackpoint>
          <Trackpoint>
            <Time>2019-01-04T11:53:31.000Z</Time>
            <Position>
              <LatitudeDegrees>36.47999650798738002777099609375</LatitudeDegrees>
              <LongitudeDegrees>-5.41012379340827465057373046875</LongitudeDegrees>
            </Position>
            <AltitudeMeters>77.59999847412109375</AltitudeMeters>
            <DistanceMeters>NAN</DistanceMeters>
          </Trackpoint>
          <Trackpoint>
            <Time>2019-01-04T11:53:32.000Z</Time>
            <Position>
              <LatitudeDegrees>36.47999617271125316619873046875</LatitudeDegrees>
              <LongitudeDegrees>-5.4101240448653697967529296875</LongitudeDegrees>
            </Position>
            <AltitudeMeters>77.59999847412109375</AltitudeMeters>
            <DistanceMeters>NAN</DistanceMeters>
          </Trackpoint>
          <Trackpoint>
            <Time>2019-01-04T11:53:33.000Z</Time>
            <Position>
              <LatitudeDegrees>36.47999617271125316619873046875</LatitudeDegrees>
              <LongitudeDegrees>-5.4101237095892429351806640625</LongitudeDegrees>
            </Position>
            <AltitudeMeters>77.59999847412109375</AltitudeMeters>
            <DistanceMeters>NAN</DistanceMeters>
          </Trackpoint>
          <Trackpoint>
            <Time>2019-01-04T11:53:34.000Z</Time>
            <Position>
              <LatitudeDegrees>36.4799957536160945892333984375</LatitudeDegrees>
              <LongitudeDegrees>-5.410124547779560089111328125</LongitudeDegrees>
            </Position>
            <AltitudeMeters>77.59999847412109375</AltitudeMeters>
            <DistanceMeters>NAN</DistanceMeters>
          </Trackpoint>
          <Trackpoint>
            <Time>2019-01-04T11:53:35.000Z</Time>
            <Position>
              <LatitudeDegrees>36.47999550215899944305419921875</LatitudeDegrees>
              <LongitudeDegrees>-5.4101247154176235198974609375</LongitudeDegrees>
            </Position>
            <AltitudeMeters>77.59999847412109375</AltitudeMeters>
            <DistanceMeters>NAN</DistanceMeters>
          </Trackpoint>
          <Trackpoint>
            <Time>2019-01-04T11:53:36.000Z</Time>
            <Position>
              <LatitudeDegrees>36.47999583743512630462646484375</LatitudeDegrees>
              <LongitudeDegrees>-5.41012396104633808135986328125</LongitudeDegrees>
            </Position>
            <AltitudeMeters>77.59999847412109375</AltitudeMeters>
            <DistanceMeters>NAN</DistanceMeters>
          </Trackpoint>
          <Trackpoint>
            <Time>2019-01-04T11:53:37.000Z</Time>
            <Position>
              <LatitudeDegrees>36.47999600507318973541259765625</LatitudeDegrees>
              <LongitudeDegrees>-5.4101233743131160736083984375</LongitudeDegrees>
            </Position>
            <AltitudeMeters>77.59999847412109375</AltitudeMeters>
            <DistanceMeters>NAN</DistanceMeters>
          </Trackpoint>
          <Trackpoint>
            <Time>2019-01-04T11:53:38.000Z</Time>
            <Position>
              <LatitudeDegrees>36.47999617271125316619873046875</LatitudeDegrees>
              <LongitudeDegrees>-5.41012287139892578125</LongitudeDegrees>
            </Position>
            <AltitudeMeters>77.59999847412109375</AltitudeMeters>
            <DistanceMeters>NAN</DistanceMeters>
          </Trackpoint>
          <Trackpoint>
            <Time>2019-01-04T11:53:39.000Z</Time>
            <Position>
              <LatitudeDegrees>36.4799960888922214508056640625</LatitudeDegrees>
              <LongitudeDegrees>-5.41012261994183063507080078125</LongitudeDegrees>
            </Position>
            <AltitudeMeters>77.59999847412109375</AltitudeMeters>
            <DistanceMeters>NAN</DistanceMeters>
          </Trackpoint>
          <Trackpoint>
            <Time>2019-01-04T11:53:40.000Z</Time>
            <Position>
              <LatitudeDegrees>36.47999583743512630462646484375</LatitudeDegrees>
              <LongitudeDegrees>-5.41012261994183063507080078125</LongitudeDegrees>
            </Position>
            <AltitudeMeters>77.59999847412109375</AltitudeMeters>
            <DistanceMeters>NAN</DistanceMeters>
          </Trackpoint>
          <Trackpoint>
            <Time>2019-01-04T11:53:41.000Z</Time>
            <Position>
              <LatitudeDegrees>36.4799957536160945892333984375</LatitudeDegrees>
              <LongitudeDegrees>-5.41012161411345005035400390625</LongitudeDegrees>
            </Position>
            <AltitudeMeters>77.59999847412109375</AltitudeMeters>
            <DistanceMeters>NAN</DistanceMeters>
          </Trackpoint>
          <Trackpoint>
            <Time>2019-01-04T11:53:42.000Z</Time>
            <Position>
              <LatitudeDegrees>36.4799960888922214508056640625</LatitudeDegrees>
              <LongitudeDegrees>-5.4101206921041011810302734375</LongitudeDegrees>
            </Position>
            <AltitudeMeters>77.59999847412109375</AltitudeMeters>
            <DistanceMeters>NAN</DistanceMeters>
          </Trackpoint>
          <Trackpoint>
            <Time>2019-01-04T11:53:43.000Z</Time>
            <Position>
              <LatitudeDegrees>36.47999634034931659698486328125</LatitudeDegrees>
              <LongitudeDegrees>-5.4101203568279743194580078125</LongitudeDegrees>
            </Position>
            <AltitudeMeters>77.59999847412109375</AltitudeMeters>
            <DistanceMeters>NAN</DistanceMeters>
          </Trackpoint>
          <Trackpoint>
            <Time>2019-01-04T11:53:44.000Z</Time>
            <Position>
              <LatitudeDegrees>36.47999667562544345855712890625</LatitudeDegrees>
              <LongitudeDegrees>-5.41012010537087917327880859375</LongitudeDegrees>
            </Position>
            <AltitudeMeters>77.59999847412109375</AltitudeMeters>
            <DistanceMeters>NAN</DistanceMeters>
          </Trackpoint>
          <Trackpoint>
            <Time>2019-01-04T11:53:45.000Z</Time>
            <Position>
              <LatitudeDegrees>36.47999717853963375091552734375</LatitudeDegrees>
              <LongitudeDegrees>-5.4101200215518474578857421875</LongitudeDegrees>
            </Position>
            <AltitudeMeters>77.59999847412109375</AltitudeMeters>
            <DistanceMeters>NAN</DistanceMeters>
          </Trackpoint>
          <Trackpoint>
            <Time>2019-01-04T11:53:46.000Z</Time>
            <Position>
              <LatitudeDegrees>36.47999684326350688934326171875</LatitudeDegrees>
              <LongitudeDegrees>-5.41012060828506946563720703125</LongitudeDegrees>
            </Position>
            <AltitudeMeters>77.59999847412109375</AltitudeMeters>
            <DistanceMeters>NAN</DistanceMeters>
          </Trackpoint>
          <Trackpoint>
            <Time>2019-01-04T11:53:47.000Z</Time>
            <Position>
              <LatitudeDegrees>36.47999701090157032012939453125</LatitudeDegrees>
              <LongitudeDegrees>-5.41012044064700603485107421875</LongitudeDegrees>
            </Position>
            <AltitudeMeters>77.59999847412109375</AltitudeMeters>
            <DistanceMeters>NAN</DistanceMeters>
          </Trackpoint>
          <Trackpoint>
            <Time>2019-01-04T11:53:48.000Z</Time>
            <Position>
              <LatitudeDegrees>36.47999717853963375091552734375</LatitudeDegrees>
              <LongitudeDegrees>-5.4101206921041011810302734375</LongitudeDegrees>
            </Position>
            <AltitudeMeters>77.59999847412109375</AltitudeMeters>
            <DistanceMeters>NAN</DistanceMeters>
          </Trackpoint>
          <Trackpoint>
            <Time>2019-01-04T11:53:49.000Z</Time>
            <Position>
              <LatitudeDegrees>36.47999667562544345855712890625</LatitudeDegrees>
              <LongitudeDegrees>-5.4101215302944183349609375</LongitudeDegrees>
            </Position>
            <AltitudeMeters>77.59999847412109375</AltitudeMeters>
            <DistanceMeters>NAN</DistanceMeters>
          </Trackpoint>
          <Trackpoint>
            <Time>2019-01-04T11:53:50.000Z</Time>
            <Position>
              <LatitudeDegrees>36.4799960888922214508056640625</LatitudeDegrees>
              <LongitudeDegrees>-5.41012220084667205810546875</LongitudeDegrees>
            </Position>
            <AltitudeMeters>77.59999847412109375</AltitudeMeters>
            <DistanceMeters>NAN</DistanceMeters>
          </Trackpoint>
          <Trackpoint>
            <Time>2019-01-04T11:53:51.000Z</Time>
            <Position>
              <LatitudeDegrees>36.479995250701904296875</LatitudeDegrees>
              <LongitudeDegrees>-5.41012362577021121978759765625</LongitudeDegrees>
            </Position>
            <AltitudeMeters>77.59999847412109375</AltitudeMeters>
            <DistanceMeters>NAN</DistanceMeters>
          </Trackpoint>
          <Trackpoint>
            <Time>2019-01-04T11:53:52.000Z</Time>
            <Position>
              <LatitudeDegrees>36.4799940772354602813720703125</LatitudeDegrees>
              <LongitudeDegrees>-5.4101230390369892120361328125</LongitudeDegrees>
            </Position>
            <AltitudeMeters>77.59999847412109375</AltitudeMeters>
            <DistanceMeters>NAN</DistanceMeters>
          </Trackpoint>
          <Trackpoint>
            <Time>2019-01-04T11:53:53.000Z</Time>
            <Position>
              <LatitudeDegrees>36.479992903769016265869140625</LatitudeDegrees>
              <LongitudeDegrees>-5.4101216979324817657470703125</LongitudeDegrees>
            </Position>
            <AltitudeMeters>77.59999847412109375</AltitudeMeters>
            <DistanceMeters>NAN</DistanceMeters>
          </Trackpoint>
          <Trackpoint>
            <Time>2019-01-04T11:53:54.000Z</Time>
            <Position>
              <LatitudeDegrees>36.47999281994998455047607421875</LatitudeDegrees>
              <LongitudeDegrees>-5.4101210273802280426025390625</LongitudeDegrees>
            </Position>
            <AltitudeMeters>77.59999847412109375</AltitudeMeters>
            <DistanceMeters>NAN</DistanceMeters>
          </Trackpoint>
          <Trackpoint>
            <Time>2019-01-04T11:53:55.000Z</Time>
            <Position>
              <LatitudeDegrees>36.47999298758804798126220703125</LatitudeDegrees>
              <LongitudeDegrees>-5.4101203568279743194580078125</LongitudeDegrees>
            </Position>
            <AltitudeMeters>77.59999847412109375</AltitudeMeters>
            <DistanceMeters>NAN</DistanceMeters>
          </Trackpoint>
          <Trackpoint>
            <Time>2019-01-04T11:53:56.000Z</Time>
            <Position>
              <LatitudeDegrees>36.47999281994998455047607421875</LatitudeDegrees>
              <LongitudeDegrees>-5.41011993773281574249267578125</LongitudeDegrees>
            </Position>
            <AltitudeMeters>77.59999847412109375</AltitudeMeters>
            <DistanceMeters>NAN</DistanceMeters>
          </Trackpoint>
          <Trackpoint>
            <Time>2019-01-04T11:53:57.000Z</Time>
            <Position>
              <LatitudeDegrees>36.47999281994998455047607421875</LatitudeDegrees>
              <LongitudeDegrees>-5.41011842899024486541748046875</LongitudeDegrees>
            </Position>
            <AltitudeMeters>77.59999847412109375</AltitudeMeters>
            <DistanceMeters>NAN</DistanceMeters>
          </Trackpoint>
          <Trackpoint>
            <Time>2019-01-04T11:53:58.000Z</Time>
            <Position>
              <LatitudeDegrees>36.47999265231192111968994140625</LatitudeDegrees>
              <LongitudeDegrees>-5.4101176746189594268798828125</LongitudeDegrees>
            </Position>
            <AltitudeMeters>77.59999847412109375</AltitudeMeters>
            <DistanceMeters>NAN</DistanceMeters>
          </Trackpoint>
          <Trackpoint>
            <Time>2019-01-04T11:53:59.000Z</Time>
            <Position>
              <LatitudeDegrees>36.47999189794063568115234375</LatitudeDegrees>
              <LongitudeDegrees>-5.4101180098950862884521484375</LongitudeDegrees>
            </Position>
            <AltitudeMeters>77.59999847412109375</AltitudeMeters>
            <DistanceMeters>NAN</DistanceMeters>
          </Trackpoint>
          <Trackpoint>
            <Time>2019-01-04T11:54:00.000Z</Time>
            <Position>
              <LatitudeDegrees>36.47999281994998455047607421875</LatitudeDegrees>
              <LongitudeDegrees>-5.41011842899024486541748046875</LongitudeDegrees>
            </Position>
            <AltitudeMeters>77.59999847412109375</AltitudeMeters>
            <DistanceMeters>NAN</DistanceMeters>
          </Trackpoint>
          <Trackpoint>
            <Time>2019-01-04T11:54:01.000Z</Time>
            <Position>
              <LatitudeDegrees>36.4799927361309528350830078125</LatitudeDegrees>
              <LongitudeDegrees>-5.41011859662830829620361328125</LongitudeDegrees>
            </Position>
            <AltitudeMeters>77.59999847412109375</AltitudeMeters>
            <DistanceMeters>NAN</DistanceMeters>
          </Trackpoint>
          <Trackpoint>
            <Time>2019-01-04T11:54:02.000Z</Time>
            <Position>
              <LatitudeDegrees>36.479992233216762542724609375</LatitudeDegrees>
              <LongitudeDegrees>-5.41011809371411800384521484375</LongitudeDegrees>
            </Position>
            <AltitudeMeters>77.59999847412109375</AltitudeMeters>
            <DistanceMeters>NAN</DistanceMeters>
          </Trackpoint>
          <Trackpoint>
            <Time>2019-01-04T11:54:03.000Z</Time>
            <Position>
              <LatitudeDegrees>36.479992233216762542724609375</LatitudeDegrees>
              <LongitudeDegrees>-5.41011759079992771148681640625</LongitudeDegrees>
            </Position>
            <AltitudeMeters>77.59999847412109375</AltitudeMeters>
            <DistanceMeters>NAN</DistanceMeters>
          </Trackpoint>
          <Trackpoint>
            <Time>2019-01-04T11:54:04.000Z</Time>
            <Position>
              <LatitudeDegrees>36.47999189794063568115234375</LatitudeDegrees>
              <LongitudeDegrees>-5.4101176746189594268798828125</LongitudeDegrees>
            </Position>
            <AltitudeMeters>77.59999847412109375</AltitudeMeters>
            <DistanceMeters>NAN</DistanceMeters>
          </Trackpoint>
          <Trackpoint>
            <Time>2019-01-04T11:54:05.000Z</Time>
            <Position>
              <LatitudeDegrees>36.47999147884547710418701171875</LatitudeDegrees>
              <LongitudeDegrees>-5.410117171704769134521484375</LongitudeDegrees>
            </Position>
            <AltitudeMeters>77.59999847412109375</AltitudeMeters>
            <DistanceMeters>NAN</DistanceMeters>
          </Trackpoint>
          <Trackpoint>
            <Time>2019-01-04T11:54:06.000Z</Time>
            <Position>
              <LatitudeDegrees>36.47999147884547710418701171875</LatitudeDegrees>
              <LongitudeDegrees>-5.4101173393428325653076171875</LongitudeDegrees>
            </Position>
            <AltitudeMeters>77.59999847412109375</AltitudeMeters>
            <DistanceMeters>NAN</DistanceMeters>
          </Trackpoint>
          <Trackpoint>
            <Time>2019-01-04T11:54:07.000Z</Time>
            <Position>
              <LatitudeDegrees>36.47999080829322338104248046875</LatitudeDegrees>
              <LongitudeDegrees>-5.41011759079992771148681640625</LongitudeDegrees>
            </Position>
            <AltitudeMeters>77.59999847412109375</AltitudeMeters>
            <DistanceMeters>NAN</DistanceMeters>
          </Trackpoint>
          <Trackpoint>
            <Time>2019-01-04T11:54:08.000Z</Time>
            <Position>
              <LatitudeDegrees>36.4799900539219379425048828125</LatitudeDegrees>
              <LongitudeDegrees>-5.4101173393428325653076171875</LongitudeDegrees>
            </Position>
            <AltitudeMeters>77.59999847412109375</AltitudeMeters>
            <DistanceMeters>NAN</DistanceMeters>
          </Trackpoint>
          <Trackpoint>
            <Time>2019-01-04T11:54:09.000Z</Time>
            <Position>
              <LatitudeDegrees>36.47998946718871593475341796875</LatitudeDegrees>
              <LongitudeDegrees>-5.410116501152515411376953125</LongitudeDegrees>
            </Position>
            <AltitudeMeters>77.59999847412109375</AltitudeMeters>
            <DistanceMeters>NAN</DistanceMeters>
          </Trackpoint>
          <Trackpoint>
            <Time>2019-01-04T11:54:10.000Z</Time>
            <Position>
              <LatitudeDegrees>36.47998929955065250396728515625</LatitudeDegrees>
              <LongitudeDegrees>-5.41011750698089599609375</LongitudeDegrees>
            </Position>
            <AltitudeMeters>77.59999847412109375</AltitudeMeters>
            <DistanceMeters>NAN</DistanceMeters>
          </Trackpoint>
          <Trackpoint>
            <Time>2019-01-04T11:54:11.000Z</Time>
            <Position>
              <LatitudeDegrees>36.47998921573162078857421875</LatitudeDegrees>
              <LongitudeDegrees>-5.41011859662830829620361328125</LongitudeDegrees>
            </Position>
            <AltitudeMeters>77.59999847412109375</AltitudeMeters>
            <DistanceMeters>NAN</DistanceMeters>
          </Trackpoint>
          <Trackpoint>
            <Time>2019-01-04T11:54:12.000Z</Time>
            <Position>
              <LatitudeDegrees>36.47998829372227191925048828125</LatitudeDegrees>
              <LongitudeDegrees>-5.4101183451712131500244140625</LongitudeDegrees>
            </Position>
            <AltitudeMeters>77.59999847412109375</AltitudeMeters>
            <DistanceMeters>NAN</DistanceMeters>
          </Trackpoint>
          <Trackpoint>
            <Time>2019-01-04T11:54:13.000Z</Time>
            <Position>
              <LatitudeDegrees>36.47998812608420848846435546875</LatitudeDegrees>
              <LongitudeDegrees>-5.4101183451712131500244140625</LongitudeDegrees>
            </Position>
            <AltitudeMeters>77.59999847412109375</AltitudeMeters>
            <DistanceMeters>NAN</DistanceMeters>
          </Trackpoint>
          <Trackpoint>
            <Time>2019-01-04T11:54:14.000Z</Time>
            <Position>
              <LatitudeDegrees>36.4799853600561618804931640625</LatitudeDegrees>
              <LongitudeDegrees>-5.41011658497154712677001953125</LongitudeDegrees>
            </Position>
            <AltitudeMeters>77.59999847412109375</AltitudeMeters>
            <DistanceMeters>NAN</DistanceMeters>
          </Trackpoint>
          <Trackpoint>
            <Time>2019-01-04T11:54:15.000Z</Time>
            <Position>
              <LatitudeDegrees>36.479984186589717864990234375</LatitudeDegrees>
              <LongitudeDegrees>-5.41011205874383449554443359375</LongitudeDegrees>
            </Position>
            <AltitudeMeters>77.59999847412109375</AltitudeMeters>
            <DistanceMeters>NAN</DistanceMeters>
          </Trackpoint>
          <Trackpoint>
            <Time>2019-01-04T11:54:16.000Z</Time>
            <Position>
              <LatitudeDegrees>36.4799843542277812957763671875</LatitudeDegrees>
              <LongitudeDegrees>-5.41010686196386814117431640625</LongitudeDegrees>
            </Position>
            <AltitudeMeters>77.59999847412109375</AltitudeMeters>
            <DistanceMeters>NAN</DistanceMeters>
          </Trackpoint>
          <Trackpoint>
            <Time>2019-01-04T11:54:17.000Z</Time>
            <Position>
              <LatitudeDegrees>36.47998544387519359588623046875</LatitudeDegrees>
              <LongitudeDegrees>-5.41010350920259952545166015625</LongitudeDegrees>
            </Position>
            <AltitudeMeters>77.59999847412109375</AltitudeMeters>
            <DistanceMeters>NAN</DistanceMeters>
          </Trackpoint>
          <Trackpoint>
            <Time>2019-01-04T11:54:18.000Z</Time>
            <Position>
              <LatitudeDegrees>36.4799843542277812957763671875</LatitudeDegrees>
              <LongitudeDegrees>-5.4100968874990940093994140625</LongitudeDegrees>
            </Position>
            <AltitudeMeters>77.59999847412109375</AltitudeMeters>
            <DistanceMeters>NAN</DistanceMeters>
          </Trackpoint>
          <Trackpoint>
            <Time>2019-01-04T11:54:19.000Z</Time>
            <Position>
              <LatitudeDegrees>36.47998292930424213409423828125</LatitudeDegrees>
              <LongitudeDegrees>-5.410088002681732177734375</LongitudeDegrees>
            </Position>
            <AltitudeMeters>77.59999847412109375</AltitudeMeters>
            <DistanceMeters>NAN</DistanceMeters>
          </Trackpoint>
          <Trackpoint>
            <Time>2019-01-04T11:54:20.000Z</Time>
            <Position>
              <LatitudeDegrees>36.4799783192574977874755859375</LatitudeDegrees>
              <LongitudeDegrees>-5.41007551364600658416748046875</LongitudeDegrees>
            </Position>
            <AltitudeMeters>77.59999847412109375</AltitudeMeters>
            <DistanceMeters>NAN</DistanceMeters>
          </Trackpoint>
          <Trackpoint>
            <Time>2019-01-04T11:54:21.000Z</Time>
            <Position>
              <LatitudeDegrees>36.47997270338237285614013671875</LatitudeDegrees>
              <LongitudeDegrees>-5.41006344370543956756591796875</LongitudeDegrees>
            </Position>
            <AltitudeMeters>77.59999847412109375</AltitudeMeters>
            <DistanceMeters>NAN</DistanceMeters>
          </Trackpoint>
          <Trackpoint>
            <Time>2019-01-04T11:54:22.000Z</Time>
            <Position>
              <LatitudeDegrees>36.47996750660240650177001953125</LatitudeDegrees>
              <LongitudeDegrees>-5.41005288250744342803955078125</LongitudeDegrees>
            </Position>
            <AltitudeMeters>77.59999847412109375</AltitudeMeters>
            <DistanceMeters>NAN</DistanceMeters>
          </Trackpoint>
          <Trackpoint>
            <Time>2019-01-04T11:54:23.000Z</Time>
            <Position>
              <LatitudeDegrees>36.47996239364147186279296875</LatitudeDegrees>
              <LongitudeDegrees>-5.41004349477589130401611328125</LongitudeDegrees>
            </Position>
            <AltitudeMeters>77.59999847412109375</AltitudeMeters>
            <DistanceMeters>NAN</DistanceMeters>
          </Trackpoint>
          <Trackpoint>
            <Time>2019-01-04T11:54:24.000Z</Time>
            <Position>
              <LatitudeDegrees>36.4799561910331249237060546875</LatitudeDegrees>
              <LongitudeDegrees>-5.41003502905368804931640625</LongitudeDegrees>
            </Position>
            <AltitudeMeters>77.40000152587890625</AltitudeMeters>
            <DistanceMeters>NAN</DistanceMeters>
          </Trackpoint>
          <Trackpoint>
            <Time>2019-01-04T11:54:25.000Z</Time>
            <Position>
              <LatitudeDegrees>36.47995074279606342315673828125</LatitudeDegrees>
              <LongitudeDegrees>-5.410027317702770233154296875</LongitudeDegrees>
            </Position>
            <AltitudeMeters>77.8000030517578125</AltitudeMeters>
            <DistanceMeters>NAN</DistanceMeters>
          </Trackpoint>
          <Trackpoint>
            <Time>2019-01-04T11:54:26.000Z</Time>
            <Position>
              <LatitudeDegrees>36.47994437254965305328369140625</LatitudeDegrees>
              <LongitudeDegrees>-5.410017259418964385986328125</LongitudeDegrees>
            </Position>
            <AltitudeMeters>77.8000030517578125</AltitudeMeters>
            <DistanceMeters>NAN</DistanceMeters>
          </Trackpoint>
          <Trackpoint>
            <Time>2019-01-04T11:54:27.000Z</Time>
            <Position>
              <LatitudeDegrees>36.47993666119873523712158203125</LatitudeDegrees>
              <LongitudeDegrees>-5.41000510565936565399169921875</LongitudeDegrees>
            </Position>
            <AltitudeMeters>77.40000152587890625</AltitudeMeters>
            <DistanceMeters>NAN</DistanceMeters>
          </Trackpoint>
          <Trackpoint>
            <Time>2019-01-04T11:54:28.000Z</Time>
            <Position>
              <LatitudeDegrees>36.47992878220975399017333984375</LatitudeDegrees>
              <LongitudeDegrees>-5.4099922813475131988525390625</LongitudeDegrees>
            </Position>
            <AltitudeMeters>77.40000152587890625</AltitudeMeters>
            <DistanceMeters>NAN</DistanceMeters>
          </Trackpoint>
          <Trackpoint>
            <Time>2019-01-04T11:54:29.000Z</Time>
            <Position>
              <LatitudeDegrees>36.47992216050624847412109375</LatitudeDegrees>
              <LongitudeDegrees>-5.40998029522597789764404296875</LongitudeDegrees>
            </Position>
            <AltitudeMeters>77.59999847412109375</AltitudeMeters>
            <DistanceMeters>NAN</DistanceMeters>
          </Trackpoint>
          <Trackpoint>
            <Time>2019-01-04T11:54:30.000Z</Time>
            <Position>
              <LatitudeDegrees>36.47991520352661609649658203125</LatitudeDegrees>
              <LongitudeDegrees>-5.40996353141963481903076171875</LongitudeDegrees>
            </Position>
            <AltitudeMeters>77.40000152587890625</AltitudeMeters>
            <DistanceMeters>NAN</DistanceMeters>
          </Trackpoint>
          <Trackpoint>
            <Time>2019-01-04T11:54:31.000Z</Time>
            <Position>
              <LatitudeDegrees>36.4799072407186031341552734375</LatitudeDegrees>
              <LongitudeDegrees>-5.409948192536830902099609375</LongitudeDegrees>
            </Position>
            <AltitudeMeters>77.40000152587890625</AltitudeMeters>
            <DistanceMeters>NAN</DistanceMeters>
          </Trackpoint>
          <Trackpoint>
            <Time>2019-01-04T11:54:32.000Z</Time>
            <Position>
              <LatitudeDegrees>36.47989810444414615631103515625</LatitudeDegrees>
              <LongitudeDegrees>-5.409934110939502716064453125</LongitudeDegrees>
            </Position>
            <AltitudeMeters>77.1999969482421875</AltitudeMeters>
            <DistanceMeters>NAN</DistanceMeters>
          </Trackpoint>
          <Trackpoint>
            <Time>2019-01-04T11:54:33.000Z</Time>
            <Position>
              <LatitudeDegrees>36.47989005781710147857666015625</LatitudeDegrees>
              <LongitudeDegrees>-5.40991994552314281463623046875</LongitudeDegrees>
            </Position>
            <AltitudeMeters>77</AltitudeMeters>
            <DistanceMeters>NAN</DistanceMeters>
          </Trackpoint>
          <Trackpoint>
            <Time>2019-01-04T11:54:34.000Z</Time>
            <Position>
              <LatitudeDegrees>36.47988033480942249298095703125</LatitudeDegrees>
              <LongitudeDegrees>-5.40990619920194149017333984375</LongitudeDegrees>
            </Position>
            <AltitudeMeters>77</AltitudeMeters>
            <DistanceMeters>NAN</DistanceMeters>
          </Trackpoint>
          <Trackpoint>
            <Time>2019-01-04T11:54:35.000Z</Time>
            <Position>
              <LatitudeDegrees>36.4798730425536632537841796875</LatitudeDegrees>
              <LongitudeDegrees>-5.40989664383232593536376953125</LongitudeDegrees>
            </Position>
            <AltitudeMeters>77</AltitudeMeters>
            <DistanceMeters>NAN</DistanceMeters>
          </Trackpoint>
          <Trackpoint>
            <Time>2019-01-04T11:54:36.000Z</Time>
            <Position>
              <LatitudeDegrees>36.479866504669189453125</LatitudeDegrees>
              <LongitudeDegrees>-5.40988725610077381134033203125</LongitudeDegrees>
            </Position>
            <AltitudeMeters>76.8000030517578125</AltitudeMeters>
            <DistanceMeters>NAN</DistanceMeters>
          </Trackpoint>
          <Trackpoint>
            <Time>2019-01-04T11:54:37.000Z</Time>
            <Position>
              <LatitudeDegrees>36.47986021824181079864501953125</LatitudeDegrees>
              <LongitudeDegrees>-5.409877784550189971923828125</LongitudeDegrees>
            </Position>
            <AltitudeMeters>76.59999847412109375</AltitudeMeters>
            <DistanceMeters>NAN</DistanceMeters>
          </Trackpoint>
          <Trackpoint>
            <Time>2019-01-04T11:54:38.000Z</Time>
            <Position>
              <LatitudeDegrees>36.47985351271927356719970703125</LatitudeDegrees>
              <LongitudeDegrees>-5.40986898355185985565185546875</LongitudeDegrees>
            </Position>
            <AltitudeMeters>76.40000152587890625</AltitudeMeters>
            <DistanceMeters>NAN</DistanceMeters>
          </Trackpoint>
          <Trackpoint>
            <Time>2019-01-04T11:54:39.000Z</Time>
            <Position>
              <LatitudeDegrees>36.47984580136835575103759765625</LatitudeDegrees>
              <LongitudeDegrees>-5.4098613560199737548828125</LongitudeDegrees>
            </Position>
            <AltitudeMeters>76.40000152587890625</AltitudeMeters>
            <DistanceMeters>NAN</DistanceMeters>
          </Trackpoint>
          <Trackpoint>
            <Time>2019-01-04T11:54:40.000Z</Time>
            <Position>
              <LatitudeDegrees>36.479837000370025634765625</LatitudeDegrees>
              <LongitudeDegrees>-5.4098521359264850616455078125</LongitudeDegrees>
            </Position>
            <AltitudeMeters>76.40000152587890625</AltitudeMeters>
            <DistanceMeters>NAN</DistanceMeters>
          </Trackpoint>
          <Trackpoint>
            <Time>2019-01-04T11:54:41.000Z</Time>
            <Position>
              <LatitudeDegrees>36.47982819937169551849365234375</LatitudeDegrees>
              <LongitudeDegrees>-5.40984400548040866851806640625</LongitudeDegrees>
            </Position>
            <AltitudeMeters>76.1999969482421875</AltitudeMeters>
            <DistanceMeters>NAN</DistanceMeters>
          </Trackpoint>
          <Trackpoint>
            <Time>2019-01-04T11:54:42.000Z</Time>
            <Position>
              <LatitudeDegrees>36.479817219078540802001953125</LatitudeDegrees>
              <LongitudeDegrees>-5.4098343662917613983154296875</LongitudeDegrees>
            </Position>
            <AltitudeMeters>76.1999969482421875</AltitudeMeters>
            <DistanceMeters>NAN</DistanceMeters>
          </Trackpoint>
          <Trackpoint>
            <Time>2019-01-04T11:54:43.000Z</Time>
            <Position>
              <LatitudeDegrees>36.47980816662311553955078125</LatitudeDegrees>
              <LongitudeDegrees>-5.409828163683414459228515625</LongitudeDegrees>
            </Position>
            <AltitudeMeters>75.8000030517578125</AltitudeMeters>
            <DistanceMeters>NAN</DistanceMeters>
          </Trackpoint>
          <Trackpoint>
            <Time>2019-01-04T11:54:44.000Z</Time>
            <Position>
              <LatitudeDegrees>36.47979986853897571563720703125</LatitudeDegrees>
              <LongitudeDegrees>-5.40982020087540149688720703125</LongitudeDegrees>
            </Position>
            <AltitudeMeters>75.59999847412109375</AltitudeMeters>
            <DistanceMeters>NAN</DistanceMeters>
          </Trackpoint>
          <Trackpoint>
            <Time>2019-01-04T11:54:45.000Z</Time>
            <Position>
              <LatitudeDegrees>36.4797919057309627532958984375</LatitudeDegrees>
              <LongitudeDegrees>-5.409812740981578826904296875</LongitudeDegrees>
            </Position>
            <AltitudeMeters>75.40000152587890625</AltitudeMeters>
            <DistanceMeters>NAN</DistanceMeters>
          </Trackpoint>
          <Trackpoint>
            <Time>2019-01-04T11:54:46.000Z</Time>
            <Position>
              <LatitudeDegrees>36.4797846972942352294921875</LatitudeDegrees>
              <LongitudeDegrees>-5.40980578400194644927978515625</LongitudeDegrees>
            </Position>
            <AltitudeMeters>75.40000152587890625</AltitudeMeters>
            <DistanceMeters>NAN</DistanceMeters>
          </Trackpoint>
          <Trackpoint>
            <Time>2019-01-04T11:54:47.000Z</Time>
            <Position>
              <LatitudeDegrees>36.47977522574365139007568359375</LatitudeDegrees>
              <LongitudeDegrees>-5.409800000488758087158203125</LongitudeDegrees>
            </Position>
            <AltitudeMeters>75.40000152587890625</AltitudeMeters>
            <DistanceMeters>NAN</DistanceMeters>
          </Trackpoint>
          <Trackpoint>
            <Time>2019-01-04T11:54:48.000Z</Time>
            <Position>
              <LatitudeDegrees>36.479760222136974334716796875</LatitudeDegrees>
              <LongitudeDegrees>-5.4097944684326648712158203125</LongitudeDegrees>
            </Position>
            <AltitudeMeters>75.1999969482421875</AltitudeMeters>
            <DistanceMeters>NAN</DistanceMeters>
          </Trackpoint>
          <Trackpoint>
            <Time>2019-01-04T11:54:49.000Z</Time>
            <Position>
              <LatitudeDegrees>36.47974706254899501800537109375</LatitudeDegrees>
              <LongitudeDegrees>-5.40979237295687198638916015625</LongitudeDegrees>
            </Position>
            <AltitudeMeters>75.1999969482421875</AltitudeMeters>
            <DistanceMeters>NAN</DistanceMeters>
          </Trackpoint>
          <Trackpoint>
            <Time>2019-01-04T11:54:50.000Z</Time>
            <Position>
              <LatitudeDegrees>36.47973683662712574005126953125</LatitudeDegrees>
              <LongitudeDegrees>-5.40979036130011081695556640625</LongitudeDegrees>
            </Position>
            <AltitudeMeters>75</AltitudeMeters>
            <DistanceMeters>NAN</DistanceMeters>
          </Trackpoint>
          <Trackpoint>
            <Time>2019-01-04T11:54:51.000Z</Time>
            <Position>
              <LatitudeDegrees>36.47972778417170047760009765625</LatitudeDegrees>
              <LongitudeDegrees>-5.40978834964334964752197265625</LongitudeDegrees>
            </Position>
            <AltitudeMeters>74.59999847412109375</AltitudeMeters>
            <DistanceMeters>NAN</DistanceMeters>
          </Trackpoint>
          <Trackpoint>
            <Time>2019-01-04T11:54:52.000Z</Time>
            <Position>
              <LatitudeDegrees>36.47971470840275287628173828125</LatitudeDegrees>
              <LongitudeDegrees>-5.4097835719585418701171875</LongitudeDegrees>
            </Position>
            <AltitudeMeters>74</AltitudeMeters>
            <DistanceMeters>NAN</DistanceMeters>
          </Trackpoint>
          <Trackpoint>
            <Time>2019-01-04T11:54:53.000Z</Time>
            <Position>
              <LatitudeDegrees>36.479701213538646697998046875</LatitudeDegrees>
              <LongitudeDegrees>-5.40977393276989459991455078125</LongitudeDegrees>
            </Position>
            <AltitudeMeters>73.59999847412109375</AltitudeMeters>
            <DistanceMeters>NAN</DistanceMeters>
          </Trackpoint>
          <Trackpoint>
            <Time>2019-01-04T11:54:54.000Z</Time>
            <Position>
              <LatitudeDegrees>36.47969090379774570465087890625</LatitudeDegrees>
              <LongitudeDegrees>-5.40976974181830883026123046875</LongitudeDegrees>
            </Position>
            <AltitudeMeters>73.40000152587890625</AltitudeMeters>
            <DistanceMeters>NAN</DistanceMeters>
          </Trackpoint>
          <Trackpoint>
            <Time>2019-01-04T11:54:55.000Z</Time>
            <Position>
              <LatitudeDegrees>36.47967933677136898040771484375</LatitudeDegrees>
              <LongitudeDegrees>-5.40976689197123050689697265625</LongitudeDegrees>
            </Position>
            <AltitudeMeters>73.1999969482421875</AltitudeMeters>
            <DistanceMeters>NAN</DistanceMeters>
          </Trackpoint>
          <Trackpoint>
            <Time>2019-01-04T11:54:56.000Z</Time>
            <Position>
              <LatitudeDegrees>36.47966726683080196380615234375</LatitudeDegrees>
              <LongitudeDegrees>-5.40976186282932758331298828125</LongitudeDegrees>
            </Position>
            <AltitudeMeters>73.1999969482421875</AltitudeMeters>
            <DistanceMeters>NAN</DistanceMeters>
          </Trackpoint>
          <Trackpoint>
            <Time>2019-01-04T11:54:57.000Z</Time>
            <Position>
              <LatitudeDegrees>36.47965620271861553192138671875</LatitudeDegrees>
              <LongitudeDegrees>-5.409758426249027252197265625</LongitudeDegrees>
            </Position>
            <AltitudeMeters>73.1999969482421875</AltitudeMeters>
            <DistanceMeters>NAN</DistanceMeters>
          </Trackpoint>
          <Trackpoint>
            <Time>2019-01-04T11:54:58.000Z</Time>
            <Position>
              <LatitudeDegrees>36.47964312694966793060302734375</LatitudeDegrees>
              <LongitudeDegrees>-5.40975113399326801300048828125</LongitudeDegrees>
            </Position>
            <AltitudeMeters>73</AltitudeMeters>
            <DistanceMeters>NAN</DistanceMeters>
          </Trackpoint>
          <Trackpoint>
            <Time>2019-01-04T11:54:59.000Z</Time>
            <Position>
              <LatitudeDegrees>36.4796303026378154754638671875</LatitudeDegrees>
              <LongitudeDegrees>-5.40974493138492107391357421875</LongitudeDegrees>
            </Position>
            <AltitudeMeters>73</AltitudeMeters>
            <DistanceMeters>NAN</DistanceMeters>
          </Trackpoint>
          <Trackpoint>
            <Time>2019-01-04T11:55:00.000Z</Time>
            <Position>
              <LatitudeDegrees>36.47961781360208988189697265625</LatitudeDegrees>
              <LongitudeDegrees>-5.40974057279527187347412109375</LongitudeDegrees>
            </Position>
            <AltitudeMeters>73</AltitudeMeters>
            <DistanceMeters>NAN</DistanceMeters>
          </Trackpoint>
          <Trackpoint>
            <Time>2019-01-04T11:55:01.000Z</Time>
            <Position>
              <LatitudeDegrees>36.4796048216521739959716796875</LatitudeDegrees>
              <LongitudeDegrees>-5.40973571129143238067626953125</LongitudeDegrees>
            </Position>
            <AltitudeMeters>73</AltitudeMeters>
            <DistanceMeters>NAN</DistanceMeters>
          </Trackpoint>
          <Trackpoint>
            <Time>2019-01-04T11:55:02.000Z</Time>
            <Position>
              <LatitudeDegrees>36.47959350608289241790771484375</LatitudeDegrees>
              <LongitudeDegrees>-5.4097307659685611724853515625</LongitudeDegrees>
            </Position>
            <AltitudeMeters>73</AltitudeMeters>
            <DistanceMeters>NAN</DistanceMeters>
          </Trackpoint>
          <Trackpoint>
            <Time>2019-01-04T11:55:03.000Z</Time>
            <Position>
              <LatitudeDegrees>36.47958462126553058624267578125</LatitudeDegrees>
              <LongitudeDegrees>-5.40972682647407054901123046875</LongitudeDegrees>
            </Position>
            <AltitudeMeters>72.8000030517578125</AltitudeMeters>
            <DistanceMeters>NAN</DistanceMeters>
          </Trackpoint>
          <Trackpoint>
            <Time>2019-01-04T11:55:04.000Z</Time>
            <Position>
              <LatitudeDegrees>36.4795736409723758697509765625</LatitudeDegrees>
              <LongitudeDegrees>-5.40971995331346988677978515625</LongitudeDegrees>
            </Position>
            <AltitudeMeters>72.8000030517578125</AltitudeMeters>
            <DistanceMeters>NAN</DistanceMeters>
          </Trackpoint>
          <Trackpoint>
            <Time>2019-01-04T11:55:05.000Z</Time>
            <Position>
              <LatitudeDegrees>36.47956115193665027618408203125</LatitudeDegrees>
              <LongitudeDegrees>-5.409710817039012908935546875</LongitudeDegrees>
            </Position>
            <AltitudeMeters>72.59999847412109375</AltitudeMeters>
            <DistanceMeters>NAN</DistanceMeters>
          </Trackpoint>
          <Trackpoint>
            <Time>2019-01-04T11:55:06.000Z</Time>
            <Position>
              <LatitudeDegrees>36.4795518480241298675537109375</LatitudeDegrees>
              <LongitudeDegrees>-5.40970754809677600860595703125</LongitudeDegrees>
            </Position>
            <AltitudeMeters>72.40000152587890625</AltitudeMeters>
            <DistanceMeters>NAN</DistanceMeters>
          </Trackpoint>
          <Trackpoint>
            <Time>2019-01-04T11:55:07.000Z</Time>
            <Position>
              <LatitudeDegrees>36.4795397780835628509521484375</LatitudeDegrees>
              <LongitudeDegrees>-5.4097009263932704925537109375</LongitudeDegrees>
            </Position>
            <AltitudeMeters>72.1999969482421875</AltitudeMeters>
            <DistanceMeters>NAN</DistanceMeters>
          </Trackpoint>
          <Trackpoint>
            <Time>2019-01-04T11:55:08.000Z</Time>
            <Position>
              <LatitudeDegrees>36.47952863015234470367431640625</LatitudeDegrees>
              <LongitudeDegrees>-5.4096962325274944305419921875</LongitudeDegrees>
            </Position>
            <AltitudeMeters>72.1999969482421875</AltitudeMeters>
            <DistanceMeters>NAN</DistanceMeters>
          </Trackpoint>
          <Trackpoint>
            <Time>2019-01-04T11:55:09.000Z</Time>
            <Position>
              <LatitudeDegrees>36.47951270453631877899169921875</LatitudeDegrees>
              <LongitudeDegrees>-5.409683994948863983154296875</LongitudeDegrees>
            </Position>
            <AltitudeMeters>72</AltitudeMeters>
            <DistanceMeters>NAN</DistanceMeters>
          </Trackpoint>
          <Trackpoint>
            <Time>2019-01-04T11:55:10.000Z</Time>
            <Position>
              <LatitudeDegrees>36.479502059519290924072265625</LatitudeDegrees>
              <LongitudeDegrees>-5.40967703796923160552978515625</LongitudeDegrees>
            </Position>
            <AltitudeMeters>72</AltitudeMeters>
            <DistanceMeters>NAN</DistanceMeters>
          </Trackpoint>
          <Trackpoint>
            <Time>2019-01-04T11:55:11.000Z</Time>
            <Position>
              <LatitudeDegrees>36.47948889993131160736083984375</LatitudeDegrees>
              <LongitudeDegrees>-5.40966815315186977386474609375</LongitudeDegrees>
            </Position>
            <AltitudeMeters>71.8000030517578125</AltitudeMeters>
            <DistanceMeters>NAN</DistanceMeters>
          </Trackpoint>
          <Trackpoint>
            <Time>2019-01-04T11:55:12.000Z</Time>
            <Position>
              <LatitudeDegrees>36.4794774167239665985107421875</LatitudeDegrees>
              <LongitudeDegrees>-5.4096610285341739654541015625</LongitudeDegrees>
            </Position>
            <AltitudeMeters>71.59999847412109375</AltitudeMeters>
            <DistanceMeters>NAN</DistanceMeters>
          </Trackpoint>
          <Trackpoint>
            <Time>2019-01-04T11:55:13.000Z</Time>
            <Position>
              <LatitudeDegrees>36.4794653467833995819091796875</LatitudeDegrees>
              <LongitudeDegrees>-5.40965457446873188018798828125</LongitudeDegrees>
            </Position>
            <AltitudeMeters>71.59999847412109375</AltitudeMeters>
            <DistanceMeters>NAN</DistanceMeters>
          </Trackpoint>
          <Trackpoint>
            <Time>2019-01-04T11:55:14.000Z</Time>
            <Position>
              <LatitudeDegrees>36.4794532768428325653076171875</LatitudeDegrees>
              <LongitudeDegrees>-5.4096499644219875335693359375</LongitudeDegrees>
            </Position>
            <AltitudeMeters>71.1999969482421875</AltitudeMeters>
            <DistanceMeters>NAN</DistanceMeters>
          </Trackpoint>
          <Trackpoint>
            <Time>2019-01-04T11:55:15.000Z</Time>
            <Position>
              <LatitudeDegrees>36.4794408716261386871337890625</LatitudeDegrees>
              <LongitudeDegrees>-5.40964418090879917144775390625</LongitudeDegrees>
            </Position>
            <AltitudeMeters>71</AltitudeMeters>
            <DistanceMeters>NAN</DistanceMeters>
          </Trackpoint>
          <Trackpoint>
            <Time>2019-01-04T11:55:16.000Z</Time>
            <Position>
              <LatitudeDegrees>36.47942519746720790863037109375</LatitudeDegrees>
              <LongitudeDegrees>-5.40963663719594478607177734375</LongitudeDegrees>
            </Position>
            <AltitudeMeters>70.59999847412109375</AltitudeMeters>
            <DistanceMeters>NAN</DistanceMeters>
          </Trackpoint>
          <Trackpoint>
            <Time>2019-01-04T11:55:17.000Z</Time>
            <Position>
              <LatitudeDegrees>36.4794086851179599761962890625</LatitudeDegrees>
              <LongitudeDegrees>-5.40962741710245609283447265625</LongitudeDegrees>
            </Position>
            <AltitudeMeters>70.40000152587890625</AltitudeMeters>
            <DistanceMeters>NAN</DistanceMeters>
          </Trackpoint>
          <Trackpoint>
            <Time>2019-01-04T11:55:18.000Z</Time>
            <Position>
              <LatitudeDegrees>36.47939669899642467498779296875</LatitudeDegrees>
              <LongitudeDegrees>-5.4096194542944431304931640625</LongitudeDegrees>
            </Position>
            <AltitudeMeters>70.40000152587890625</AltitudeMeters>
            <DistanceMeters>NAN</DistanceMeters>
          </Trackpoint>
          <Trackpoint>
            <Time>2019-01-04T11:55:19.000Z</Time>
            <Position>
              <LatitudeDegrees>36.47938496433198451995849609375</LatitudeDegrees>
              <LongitudeDegrees>-5.40961333550512790679931640625</LongitudeDegrees>
            </Position>
            <AltitudeMeters>70.1999969482421875</AltitudeMeters>
            <DistanceMeters>NAN</DistanceMeters>
          </Trackpoint>
          <Trackpoint>
            <Time>2019-01-04T11:55:20.000Z</Time>
            <Position>
              <LatitudeDegrees>36.47937306202948093414306640625</LatitudeDegrees>
              <LongitudeDegrees>-5.4096080549061298370361328125</LongitudeDegrees>
            </Position>
            <AltitudeMeters>70.1999969482421875</AltitudeMeters>
            <DistanceMeters>NAN</DistanceMeters>
          </Trackpoint>
          <Trackpoint>
            <Time>2019-01-04T11:55:21.000Z</Time>
            <Position>
              <LatitudeDegrees>36.4793580584228038787841796875</LatitudeDegrees>
              <LongitudeDegrees>-5.409600846469402313232421875</LongitudeDegrees>
            </Position>
            <AltitudeMeters>70.1999969482421875</AltitudeMeters>
            <DistanceMeters>NAN</DistanceMeters>
          </Trackpoint>
          <Trackpoint>
            <Time>2019-01-04T11:55:22.000Z</Time>
            <Position>
              <LatitudeDegrees>36.47933852858841419219970703125</LatitudeDegrees>
              <LongitudeDegrees>-5.409586429595947265625</LongitudeDegrees>
            </Position>
            <AltitudeMeters>70.1999969482421875</AltitudeMeters>
            <DistanceMeters>NAN</DistanceMeters>
          </Trackpoint>
          <Trackpoint>
            <Time>2019-01-04T11:55:23.000Z</Time>
            <Position>
              <LatitudeDegrees>36.47932377643883228302001953125</LatitudeDegrees>
              <LongitudeDegrees>-5.40957578457891941070556640625</LongitudeDegrees>
            </Position>
            <AltitudeMeters>70.1999969482421875</AltitudeMeters>
            <DistanceMeters>NAN</DistanceMeters>
          </Trackpoint>
          <Trackpoint>
            <Time>2019-01-04T11:55:24.000Z</Time>
            <Position>
              <LatitudeDegrees>36.47930868901312351226806640625</LatitudeDegrees>
              <LongitudeDegrees>-5.4095663130283355712890625</LongitudeDegrees>
            </Position>
            <AltitudeMeters>70.1999969482421875</AltitudeMeters>
            <DistanceMeters>NAN</DistanceMeters>
          </Trackpoint>
          <Trackpoint>
            <Time>2019-01-04T11:55:25.000Z</Time>
            <Position>
              <LatitudeDegrees>36.47929527796804904937744140625</LatitudeDegrees>
              <LongitudeDegrees>-5.4095513932406902313232421875</LongitudeDegrees>
            </Position>
            <AltitudeMeters>70.1999969482421875</AltitudeMeters>
            <DistanceMeters>NAN</DistanceMeters>
          </Trackpoint>
          <Trackpoint>
            <Time>2019-01-04T11:55:26.000Z</Time>
            <Position>
              <LatitudeDegrees>36.47928471677005290985107421875</LatitudeDegrees>
              <LongitudeDegrees>-5.409541167318820953369140625</LongitudeDegrees>
            </Position>
            <AltitudeMeters>70.1999969482421875</AltitudeMeters>
            <DistanceMeters>NAN</DistanceMeters>
          </Trackpoint>
          <Trackpoint>
            <Time>2019-01-04T11:55:27.000Z</Time>
            <Position>
              <LatitudeDegrees>36.4792723953723907470703125</LatitudeDegrees>
              <LongitudeDegrees>-5.40953320451080799102783203125</LongitudeDegrees>
            </Position>
            <AltitudeMeters>70.1999969482421875</AltitudeMeters>
            <DistanceMeters>NAN</DistanceMeters>
          </Trackpoint>
          <Trackpoint>
            <Time>2019-01-04T11:55:28.000Z</Time>
            <Position>
              <LatitudeDegrees>36.47925722412765026092529296875</LatitudeDegrees>
              <LongitudeDegrees>-5.40952540934085845947265625</LongitudeDegrees>
            </Position>
            <AltitudeMeters>70.1999969482421875</AltitudeMeters>
            <DistanceMeters>NAN</DistanceMeters>
          </Trackpoint>
          <Trackpoint>
            <Time>2019-01-04T11:55:29.000Z</Time>
            <Position>
              <LatitudeDegrees>36.47923911921679973602294921875</LatitudeDegrees>
              <LongitudeDegrees>-5.40951929055154323577880859375</LongitudeDegrees>
            </Position>
            <AltitudeMeters>70</AltitudeMeters>
            <DistanceMeters>NAN</DistanceMeters>
          </Trackpoint>
          <Trackpoint>
            <Time>2019-01-04T11:55:30.000Z</Time>
            <Position>
              <LatitudeDegrees>36.4792212657630443572998046875</LatitudeDegrees>
              <LongitudeDegrees>-5.409513674676418304443359375</LongitudeDegrees>
            </Position>
            <AltitudeMeters>69.8000030517578125</AltitudeMeters>
            <DistanceMeters>NAN</DistanceMeters>
          </Trackpoint>
          <Trackpoint>
            <Time>2019-01-04T11:55:31.000Z</Time>
            <Position>
              <LatitudeDegrees>36.47920827381312847137451171875</LatitudeDegrees>
              <LongitudeDegrees>-5.40950906462967395782470703125</LongitudeDegrees>
            </Position>
            <AltitudeMeters>69.40000152587890625</AltitudeMeters>
            <DistanceMeters>NAN</DistanceMeters>
          </Trackpoint>
          <Trackpoint>
            <Time>2019-01-04T11:55:32.000Z</Time>
            <Position>
              <LatitudeDegrees>36.47919435985386371612548828125</LatitudeDegrees>
              <LongitudeDegrees>-5.4095041193068027496337890625</LongitudeDegrees>
            </Position>
            <AltitudeMeters>69</AltitudeMeters>
            <DistanceMeters>NAN</DistanceMeters>
          </Trackpoint>
          <Trackpoint>
            <Time>2019-01-04T11:55:33.000Z</Time>
            <Position>
              <LatitudeDegrees>36.479178182780742645263671875</LatitudeDegrees>
              <LongitudeDegrees>-5.4094992578029632568359375</LongitudeDegrees>
            </Position>
            <AltitudeMeters>68.8000030517578125</AltitudeMeters>
            <DistanceMeters>NAN</DistanceMeters>
          </Trackpoint>
          <Trackpoint>
            <Time>2019-01-04T11:55:34.000Z</Time>
            <Position>
              <LatitudeDegrees>36.47916435264050960540771484375</LatitudeDegrees>
              <LongitudeDegrees>-5.40949498303234577178955078125</LongitudeDegrees>
            </Position>
            <AltitudeMeters>68.59999847412109375</AltitudeMeters>
            <DistanceMeters>NAN</DistanceMeters>
          </Trackpoint>
          <Trackpoint>
            <Time>2019-01-04T11:55:35.000Z</Time>
            <Position>
              <LatitudeDegrees>36.47915077395737171173095703125</LatitudeDegrees>
              <LongitudeDegrees>-5.4094900377094745635986328125</LongitudeDegrees>
            </Position>
            <AltitudeMeters>68.40000152587890625</AltitudeMeters>
            <DistanceMeters>NAN</DistanceMeters>
          </Trackpoint>
          <Trackpoint>
            <Time>2019-01-04T11:55:36.000Z</Time>
            <Position>
              <LatitudeDegrees>36.4791340939700603485107421875</LatitudeDegrees>
              <LongitudeDegrees>-5.4094803147017955780029296875</LongitudeDegrees>
            </Position>
            <AltitudeMeters>68.1999969482421875</AltitudeMeters>
            <DistanceMeters>NAN</DistanceMeters>
          </Trackpoint>
          <Trackpoint>
            <Time>2019-01-04T11:55:37.000Z</Time>
            <Position>
              <LatitudeDegrees>36.479118503630161285400390625</LatitudeDegrees>
              <LongitudeDegrees>-5.40947151370346546173095703125</LongitudeDegrees>
            </Position>
            <AltitudeMeters>68.1999969482421875</AltitudeMeters>
            <DistanceMeters>NAN</DistanceMeters>
          </Trackpoint>
          <Trackpoint>
            <Time>2019-01-04T11:55:38.000Z</Time>
            <Position>
              <LatitudeDegrees>36.47910685278475284576416015625</LatitudeDegrees>
              <LongitudeDegrees>-5.40946464054286479949951171875</LongitudeDegrees>
            </Position>
            <AltitudeMeters>68.1999969482421875</AltitudeMeters>
            <DistanceMeters>NAN</DistanceMeters>
          </Trackpoint>
          <Trackpoint>
            <Time>2019-01-04T11:55:39.000Z</Time>
            <Position>
              <LatitudeDegrees>36.47909629158675670623779296875</LatitudeDegrees>
              <LongitudeDegrees>-5.409460701048374176025390625</LongitudeDegrees>
            </Position>
            <AltitudeMeters>68.1999969482421875</AltitudeMeters>
            <DistanceMeters>NAN</DistanceMeters>
          </Trackpoint>
          <Trackpoint>
            <Time>2019-01-04T11:55:40.000Z</Time>
            <Position>
              <LatitudeDegrees>36.4790874905884265899658203125</LatitudeDegrees>
              <LongitudeDegrees>-5.40945575572550296783447265625</LongitudeDegrees>
            </Position>
            <AltitudeMeters>68.40000152587890625</AltitudeMeters>
            <DistanceMeters>NAN</DistanceMeters>
          </Trackpoint>
          <Trackpoint>
            <Time>2019-01-04T11:55:41.000Z</Time>
            <Position>
              <LatitudeDegrees>36.47907852195203304290771484375</LatitudeDegrees>
              <LongitudeDegrees>-5.40944905020296573638916015625</LongitudeDegrees>
            </Position>
            <AltitudeMeters>68.40000152587890625</AltitudeMeters>
            <DistanceMeters>NAN</DistanceMeters>
          </Trackpoint>
          <Trackpoint>
            <Time>2019-01-04T11:55:42.000Z</Time>
            <Position>
              <LatitudeDegrees>36.47906846366822719573974609375</LatitudeDegrees>
              <LongitudeDegrees>-5.40944066829979419708251953125</LongitudeDegrees>
            </Position>
            <AltitudeMeters>68.59999847412109375</AltitudeMeters>
            <DistanceMeters>NAN</DistanceMeters>
          </Trackpoint>
          <Trackpoint>
            <Time>2019-01-04T11:55:43.000Z</Time>
            <Position>
              <LatitudeDegrees>36.4790559746325016021728515625</LatitudeDegrees>
              <LongitudeDegrees>-5.4094322025775909423828125</LongitudeDegrees>
            </Position>
            <AltitudeMeters>68.59999847412109375</AltitudeMeters>
            <DistanceMeters>NAN</DistanceMeters>
          </Trackpoint>
          <Trackpoint>
            <Time>2019-01-04T11:55:44.000Z</Time>
            <Position>
              <LatitudeDegrees>36.47904415614902973175048828125</LatitudeDegrees>
              <LongitudeDegrees>-5.4094241559505462646484375</LongitudeDegrees>
            </Position>
            <AltitudeMeters>68.59999847412109375</AltitudeMeters>
            <DistanceMeters>NAN</DistanceMeters>
          </Trackpoint>
          <Trackpoint>
            <Time>2019-01-04T11:55:45.000Z</Time>
            <Position>
              <LatitudeDegrees>36.47903225384652614593505859375</LatitudeDegrees>
              <LongitudeDegrees>-5.4094166122376918792724609375</LongitudeDegrees>
            </Position>
            <AltitudeMeters>68.59999847412109375</AltitudeMeters>
            <DistanceMeters>NAN</DistanceMeters>
          </Trackpoint>
          <Trackpoint>
            <Time>2019-01-04T11:55:46.000Z</Time>
            <Position>
              <LatitudeDegrees>36.4790194295346736907958984375</LatitudeDegrees>
              <LongitudeDegrees>-5.40940546430647373199462890625</LongitudeDegrees>
            </Position>
            <AltitudeMeters>68.59999847412109375</AltitudeMeters>
            <DistanceMeters>NAN</DistanceMeters>
          </Trackpoint>
          <Trackpoint>
            <Time>2019-01-04T11:55:47.000Z</Time>
            <Position>
              <LatitudeDegrees>36.4790076948702335357666015625</LatitudeDegrees>
              <LongitudeDegrees>-5.4093978367745876312255859375</LongitudeDegrees>
            </Position>
            <AltitudeMeters>68.40000152587890625</AltitudeMeters>
            <DistanceMeters>NAN</DistanceMeters>
          </Trackpoint>
          <Trackpoint>
            <Time>2019-01-04T11:55:48.000Z</Time>
            <Position>
              <LatitudeDegrees>36.478993110358715057373046875</LatitudeDegrees>
              <LongitudeDegrees>-5.4093918018043041229248046875</LongitudeDegrees>
            </Position>
            <AltitudeMeters>68.1999969482421875</AltitudeMeters>
            <DistanceMeters>NAN</DistanceMeters>
          </Trackpoint>
          <Trackpoint>
            <Time>2019-01-04T11:55:49.000Z</Time>
            <Position>
              <LatitudeDegrees>36.47898062132298946380615234375</LatitudeDegrees>
              <LongitudeDegrees>-5.4093850962817668914794921875</LongitudeDegrees>
            </Position>
            <AltitudeMeters>67.8000030517578125</AltitudeMeters>
            <DistanceMeters>NAN</DistanceMeters>
          </Trackpoint>
          <Trackpoint>
            <Time>2019-01-04T11:55:50.000Z</Time>
            <Position>
              <LatitudeDegrees>36.47896788083016872406005859375</LatitudeDegrees>
              <LongitudeDegrees>-5.40938132442533969879150390625</LongitudeDegrees>
            </Position>
            <AltitudeMeters>67.40000152587890625</AltitudeMeters>
            <DistanceMeters>NAN</DistanceMeters>
          </Trackpoint>
          <Trackpoint>
            <Time>2019-01-04T11:55:51.000Z</Time>
            <Position>
              <LatitudeDegrees>36.478954888880252838134765625</LatitudeDegrees>
              <LongitudeDegrees>-5.4093740321695804595947265625</LongitudeDegrees>
            </Position>
            <AltitudeMeters>67</AltitudeMeters>
            <DistanceMeters>NAN</DistanceMeters>
          </Trackpoint>
          <Trackpoint>
            <Time>2019-01-04T11:55:52.000Z</Time>
            <Position>
              <LatitudeDegrees>36.47894156165421009063720703125</LatitudeDegrees>
              <LongitudeDegrees>-5.4093700088560581207275390625</LongitudeDegrees>
            </Position>
            <AltitudeMeters>66.59999847412109375</AltitudeMeters>
            <DistanceMeters>NAN</DistanceMeters>
          </Trackpoint>
          <Trackpoint>
            <Time>2019-01-04T11:55:53.000Z</Time>
            <Position>
              <LatitudeDegrees>36.4789285697042942047119140625</LatitudeDegrees>
              <LongitudeDegrees>-5.40936707518994808197021484375</LongitudeDegrees>
            </Position>
            <AltitudeMeters>66</AltitudeMeters>
            <DistanceMeters>NAN</DistanceMeters>
          </Trackpoint>
          <Trackpoint>
            <Time>2019-01-04T11:55:54.000Z</Time>
            <Position>
              <LatitudeDegrees>36.47891675122082233428955078125</LatitudeDegrees>
              <LongitudeDegrees>-5.40936523117125034332275390625</LongitudeDegrees>
            </Position>
            <AltitudeMeters>65.59999847412109375</AltitudeMeters>
            <DistanceMeters>NAN</DistanceMeters>
          </Trackpoint>
          <Trackpoint>
            <Time>2019-01-04T11:55:55.000Z</Time>
            <Position>
              <LatitudeDegrees>36.47890384308993816375732421875</LatitudeDegrees>
              <LongitudeDegrees>-5.40935911238193511962890625</LongitudeDegrees>
            </Position>
            <AltitudeMeters>65.1999969482421875</AltitudeMeters>
            <DistanceMeters>NAN</DistanceMeters>
          </Trackpoint>
          <Trackpoint>
            <Time>2019-01-04T11:55:56.000Z</Time>
            <Position>
              <LatitudeDegrees>36.47889093495905399322509765625</LatitudeDegrees>
              <LongitudeDegrees>-5.4093539156019687652587890625</LongitudeDegrees>
            </Position>
            <AltitudeMeters>64.8000030517578125</AltitudeMeters>
            <DistanceMeters>NAN</DistanceMeters>
          </Trackpoint>
          <Trackpoint>
            <Time>2019-01-04T11:55:57.000Z</Time>
            <Position>
              <LatitudeDegrees>36.47887744009494781494140625</LatitudeDegrees>
              <LongitudeDegrees>-5.40934729389846324920654296875</LongitudeDegrees>
            </Position>
            <AltitudeMeters>64.40000152587890625</AltitudeMeters>
            <DistanceMeters>NAN</DistanceMeters>
          </Trackpoint>
          <Trackpoint>
            <Time>2019-01-04T11:55:58.000Z</Time>
            <Position>
              <LatitudeDegrees>36.47885489277541637420654296875</LatitudeDegrees>
              <LongitudeDegrees>-5.4093314521014690399169921875</LongitudeDegrees>
            </Position>
            <AltitudeMeters>64.1999969482421875</AltitudeMeters>
            <DistanceMeters>NAN</DistanceMeters>
          </Trackpoint>
          <Trackpoint>
            <Time>2019-01-04T11:55:59.000Z</Time>
            <Position>
              <LatitudeDegrees>36.47883829660713672637939453125</LatitudeDegrees>
              <LongitudeDegrees>-5.4093222320079803466796875</LongitudeDegrees>
            </Position>
            <AltitudeMeters>64.1999969482421875</AltitudeMeters>
            <DistanceMeters>NAN</DistanceMeters>
          </Trackpoint>
          <Trackpoint>
            <Time>2019-01-04T11:56:00.000Z</Time>
            <Position>
              <LatitudeDegrees>36.47882471792399883270263671875</LatitudeDegrees>
              <LongitudeDegrees>-5.4093160293996334075927734375</LongitudeDegrees>
            </Position>
            <AltitudeMeters>64</AltitudeMeters>
            <DistanceMeters>NAN</DistanceMeters>
          </Trackpoint>
          <Trackpoint>
            <Time>2019-01-04T11:56:01.000Z</Time>
            <Position>
              <LatitudeDegrees>36.47881415672600269317626953125</LatitudeDegrees>
              <LongitudeDegrees>-5.409309826791286468505859375</LongitudeDegrees>
            </Position>
            <AltitudeMeters>63.799999237060546875</AltitudeMeters>
            <DistanceMeters>NAN</DistanceMeters>
          </Trackpoint>
          <Trackpoint>
            <Time>2019-01-04T11:56:02.000Z</Time>
            <Position>
              <LatitudeDegrees>36.4788028411567211151123046875</LatitudeDegrees>
              <LongitudeDegrees>-5.40930144488811492919921875</LongitudeDegrees>
            </Position>
            <AltitudeMeters>63.59999847412109375</AltitudeMeters>
            <DistanceMeters>NAN</DistanceMeters>
          </Trackpoint>
          <Trackpoint>
            <Time>2019-01-04T11:56:03.000Z</Time>
            <Position>
              <LatitudeDegrees>36.4787904359400272369384765625</LatitudeDegrees>
              <LongitudeDegrees>-5.4092962481081485748291015625</LongitudeDegrees>
            </Position>
            <AltitudeMeters>63.40000152587890625</AltitudeMeters>
            <DistanceMeters>NAN</DistanceMeters>
          </Trackpoint>
          <Trackpoint>
            <Time>2019-01-04T11:56:04.000Z</Time>
            <Position>
              <LatitudeDegrees>36.47877392359077930450439453125</LatitudeDegrees>
              <LongitudeDegrees>-5.40929281152784824371337890625</LongitudeDegrees>
            </Position>
            <AltitudeMeters>63</AltitudeMeters>
            <DistanceMeters>NAN</DistanceMeters>
          </Trackpoint>
          <Trackpoint>
            <Time>2019-01-04T11:56:05.000Z</Time>
            <Position>
              <LatitudeDegrees>36.47876252420246601104736328125</LatitudeDegrees>
              <LongitudeDegrees>-5.40928929112851619720458984375</LongitudeDegrees>
            </Position>
            <AltitudeMeters>62.40000152587890625</AltitudeMeters>
            <DistanceMeters>NAN</DistanceMeters>
          </Trackpoint>
          <Trackpoint>
            <Time>2019-01-04T11:56:06.000Z</Time>
            <Position>
              <LatitudeDegrees>36.47875363938510417938232421875</LatitudeDegrees>
              <LongitudeDegrees>-5.4092873632907867431640625</LongitudeDegrees>
            </Position>
            <AltitudeMeters>61.799999237060546875</AltitudeMeters>
            <DistanceMeters>NAN</DistanceMeters>
          </Trackpoint>
          <Trackpoint>
            <Time>2019-01-04T11:56:07.000Z</Time>
            <Position>
              <LatitudeDegrees>36.47874534130096435546875</LatitudeDegrees>
              <LongitudeDegrees>-5.409283675253391265869140625</LongitudeDegrees>
            </Position>
            <AltitudeMeters>61.59999847412109375</AltitudeMeters>
            <DistanceMeters>NAN</DistanceMeters>
          </Trackpoint>
          <Trackpoint>
            <Time>2019-01-04T11:56:08.000Z</Time>
            <Position>
              <LatitudeDegrees>36.4787341095507144927978515625</LatitudeDegrees>
              <LongitudeDegrees>-5.409275628626346588134765625</LongitudeDegrees>
            </Position>
            <AltitudeMeters>61.40000152587890625</AltitudeMeters>
            <DistanceMeters>NAN</DistanceMeters>
          </Trackpoint>
          <Trackpoint>
            <Time>2019-01-04T11:56:09.000Z</Time>
            <Position>
              <LatitudeDegrees>36.47872145287692546844482421875</LatitudeDegrees>
              <LongitudeDegrees>-5.40927059948444366455078125</LongitudeDegrees>
            </Position>
            <AltitudeMeters>61.40000152587890625</AltitudeMeters>
            <DistanceMeters>NAN</DistanceMeters>
          </Trackpoint>
          <Trackpoint>
            <Time>2019-01-04T11:56:10.000Z</Time>
            <Position>
              <LatitudeDegrees>36.4787119813263416290283203125</LatitudeDegrees>
              <LongitudeDegrees>-5.409268252551555633544921875</LongitudeDegrees>
            </Position>
            <AltitudeMeters>61.40000152587890625</AltitudeMeters>
            <DistanceMeters>NAN</DistanceMeters>
          </Trackpoint>
          <Trackpoint>
            <Time>2019-01-04T11:56:11.000Z</Time>
            <Position>
              <LatitudeDegrees>36.47869898937642574310302734375</LatitudeDegrees>
              <LongitudeDegrees>-5.40926615707576274871826171875</LongitudeDegrees>
            </Position>
            <AltitudeMeters>61.200000762939453125</AltitudeMeters>
            <DistanceMeters>NAN</DistanceMeters>
          </Trackpoint>
          <Trackpoint>
            <Time>2019-01-04T11:56:12.000Z</Time>
            <Position>
              <LatitudeDegrees>36.478688679635524749755859375</LatitudeDegrees>
              <LongitudeDegrees>-5.40926163084805011749267578125</LongitudeDegrees>
            </Position>
            <AltitudeMeters>61.200000762939453125</AltitudeMeters>
            <DistanceMeters>NAN</DistanceMeters>
          </Trackpoint>
          <Trackpoint>
            <Time>2019-01-04T11:56:13.000Z</Time>
            <Position>
              <LatitudeDegrees>36.47867635823786258697509765625</LatitudeDegrees>
              <LongitudeDegrees>-5.4092523269355297088623046875</LongitudeDegrees>
            </Position>
            <AltitudeMeters>61.200000762939453125</AltitudeMeters>
            <DistanceMeters>NAN</DistanceMeters>
          </Trackpoint>
          <Trackpoint>
            <Time>2019-01-04T11:56:14.000Z</Time>
            <Position>
              <LatitudeDegrees>36.47866420447826385498046875</LatitudeDegrees>
              <LongitudeDegrees>-5.409243106842041015625</LongitudeDegrees>
            </Position>
            <AltitudeMeters>60.799999237060546875</AltitudeMeters>
            <DistanceMeters>NAN</DistanceMeters>
          </Trackpoint>
          <Trackpoint>
            <Time>2019-01-04T11:56:15.000Z</Time>
            <Position>
              <LatitudeDegrees>36.47865054197609424591064453125</LatitudeDegrees>
              <LongitudeDegrees>-5.40923648513853549957275390625</LongitudeDegrees>
            </Position>
            <AltitudeMeters>60.59999847412109375</AltitudeMeters>
            <DistanceMeters>NAN</DistanceMeters>
          </Trackpoint>
          <Trackpoint>
            <Time>2019-01-04T11:56:16.000Z</Time>
            <Position>
              <LatitudeDegrees>36.4786301739513874053955078125</LatitudeDegrees>
              <LongitudeDegrees>-5.40922257117927074432373046875</LongitudeDegrees>
            </Position>
            <AltitudeMeters>60.200000762939453125</AltitudeMeters>
            <DistanceMeters>NAN</DistanceMeters>
          </Trackpoint>
          <Trackpoint>
            <Time>2019-01-04T11:56:17.000Z</Time>
            <Position>
              <LatitudeDegrees>36.47861047647893428802490234375</LatitudeDegrees>
              <LongitudeDegrees>-5.40921427309513092041015625</LongitudeDegrees>
            </Position>
            <AltitudeMeters>59.799999237060546875</AltitudeMeters>
            <DistanceMeters>NAN</DistanceMeters>
          </Trackpoint>
          <Trackpoint>
            <Time>2019-01-04T11:56:18.000Z</Time>
            <Position>
              <LatitudeDegrees>36.4785916171967983245849609375</LatitudeDegrees>
              <LongitudeDegrees>-5.40920211933553218841552734375</LongitudeDegrees>
            </Position>
            <AltitudeMeters>59.40000152587890625</AltitudeMeters>
            <DistanceMeters>NAN</DistanceMeters>
          </Trackpoint>
          <Trackpoint>
            <Time>2019-01-04T11:56:19.000Z</Time>
            <Position>
              <LatitudeDegrees>36.4785761944949626922607421875</LatitudeDegrees>
              <LongitudeDegrees>-5.4091919772326946258544921875</LongitudeDegrees>
            </Position>
            <AltitudeMeters>59</AltitudeMeters>
            <DistanceMeters>NAN</DistanceMeters>
          </Trackpoint>
          <Trackpoint>
            <Time>2019-01-04T11:56:20.000Z</Time>
            <Position>
              <LatitudeDegrees>36.47856135852634906768798828125</LatitudeDegrees>
              <LongitudeDegrees>-5.40918015874922275543212890625</LongitudeDegrees>
            </Position>
            <AltitudeMeters>58.799999237060546875</AltitudeMeters>
            <DistanceMeters>NAN</DistanceMeters>
          </Trackpoint>
          <Trackpoint>
            <Time>2019-01-04T11:56:21.000Z</Time>
            <Position>
              <LatitudeDegrees>36.4785480313003063201904296875</LatitudeDegrees>
              <LongitudeDegrees>-5.40916993282735347747802734375</LongitudeDegrees>
            </Position>
            <AltitudeMeters>58.59999847412109375</AltitudeMeters>
            <DistanceMeters>NAN</DistanceMeters>
          </Trackpoint>
          <Trackpoint>
            <Time>2019-01-04T11:56:22.000Z</Time>
            <Position>
              <LatitudeDegrees>36.47853738628327846527099609375</LatitudeDegrees>
              <LongitudeDegrees>-5.409164987504482269287109375</LongitudeDegrees>
            </Position>
            <AltitudeMeters>58.59999847412109375</AltitudeMeters>
            <DistanceMeters>NAN</DistanceMeters>
          </Trackpoint>
          <Trackpoint>
            <Time>2019-01-04T11:56:23.000Z</Time>
            <Position>
              <LatitudeDegrees>36.47852581925690174102783203125</LatitudeDegrees>
              <LongitudeDegrees>-5.40915970690548419952392578125</LongitudeDegrees>
            </Position>
            <AltitudeMeters>58.40000152587890625</AltitudeMeters>
            <DistanceMeters>NAN</DistanceMeters>
          </Trackpoint>
          <Trackpoint>
            <Time>2019-01-04T11:56:24.000Z</Time>
            <Position>
              <LatitudeDegrees>36.478511653840541839599609375</LatitudeDegrees>
              <LongitudeDegrees>-5.40915451012551784515380859375</LongitudeDegrees>
            </Position>
            <AltitudeMeters>58.40000152587890625</AltitudeMeters>
            <DistanceMeters>NAN</DistanceMeters>
          </Trackpoint>
          <Trackpoint>
            <Time>2019-01-04T11:56:25.000Z</Time>
            <Position>
              <LatitudeDegrees>36.47849631495773792266845703125</LatitudeDegrees>
              <LongitudeDegrees>-5.409146212041378021240234375</LongitudeDegrees>
            </Position>
            <AltitudeMeters>58.200000762939453125</AltitudeMeters>
            <DistanceMeters>NAN</DistanceMeters>
          </Trackpoint>
          <Trackpoint>
            <Time>2019-01-04T11:56:26.000Z</Time>
            <Position>
              <LatitudeDegrees>36.478483490645885467529296875</LatitudeDegrees>
              <LongitudeDegrees>-5.4091413505375385284423828125</LongitudeDegrees>
            </Position>
            <AltitudeMeters>58.200000762939453125</AltitudeMeters>
            <DistanceMeters>NAN</DistanceMeters>
          </Trackpoint>
          <Trackpoint>
            <Time>2019-01-04T11:56:27.000Z</Time>
            <Position>
              <LatitudeDegrees>36.47847016341984272003173828125</LatitudeDegrees>
              <LongitudeDegrees>-5.40913514792919158935546875</LongitudeDegrees>
            </Position>
            <AltitudeMeters>58.200000762939453125</AltitudeMeters>
            <DistanceMeters>NAN</DistanceMeters>
          </Trackpoint>
          <Trackpoint>
            <Time>2019-01-04T11:56:28.000Z</Time>
            <Position>
              <LatitudeDegrees>36.47845767438411712646484375</LatitudeDegrees>
              <LongitudeDegrees>-5.4091344773769378662109375</LongitudeDegrees>
            </Position>
            <AltitudeMeters>58.200000762939453125</AltitudeMeters>
            <DistanceMeters>NAN</DistanceMeters>
          </Trackpoint>
          <Trackpoint>
            <Time>2019-01-04T11:56:29.000Z</Time>
            <Position>
              <LatitudeDegrees>36.4784461073577404022216796875</LatitudeDegrees>
              <LongitudeDegrees>-5.40913372300565242767333984375</LongitudeDegrees>
            </Position>
            <AltitudeMeters>58</AltitudeMeters>
            <DistanceMeters>NAN</DistanceMeters>
          </Trackpoint>
          <Trackpoint>
            <Time>2019-01-04T11:56:30.000Z</Time>
            <Position>
              <LatitudeDegrees>36.47843412123620510101318359375</LatitudeDegrees>
              <LongitudeDegrees>-5.40913456119596958160400390625</LongitudeDegrees>
            </Position>
            <AltitudeMeters>57.799999237060546875</AltitudeMeters>
            <DistanceMeters>NAN</DistanceMeters>
          </Trackpoint>
          <Trackpoint>
            <Time>2019-01-04T11:56:31.000Z</Time>
            <Position>
              <LatitudeDegrees>36.47840478457510471343994140625</LatitudeDegrees>
              <LongitudeDegrees>-5.4091453738510608673095703125</LongitudeDegrees>
            </Position>
            <AltitudeMeters>57.40000152587890625</AltitudeMeters>
            <DistanceMeters>NAN</DistanceMeters>
          </Trackpoint>
          <Trackpoint>
            <Time>2019-01-04T11:56:32.000Z</Time>
            <Position>
              <LatitudeDegrees>36.47838550619781017303466796875</LatitudeDegrees>
              <LongitudeDegrees>-5.4091550968587398529052734375</LongitudeDegrees>
            </Position>
            <AltitudeMeters>56.799999237060546875</AltitudeMeters>
            <DistanceMeters>NAN</DistanceMeters>
          </Trackpoint>
          <Trackpoint>
            <Time>2019-01-04T11:56:33.000Z</Time>
            <Position>
              <LatitudeDegrees>36.47837326861917972564697265625</LatitudeDegrees>
              <LongitudeDegrees>-5.40916188620030879974365234375</LongitudeDegrees>
            </Position>
            <AltitudeMeters>56.200000762939453125</AltitudeMeters>
            <DistanceMeters>NAN</DistanceMeters>
          </Trackpoint>
          <Trackpoint>
            <Time>2019-01-04T11:56:34.000Z</Time>
            <Position>
              <LatitudeDegrees>36.47836069576442241668701171875</LatitudeDegrees>
              <LongitudeDegrees>-5.409169010818004608154296875</LongitudeDegrees>
            </Position>
            <AltitudeMeters>55.799999237060546875</AltitudeMeters>
            <DistanceMeters>NAN</DistanceMeters>
          </Trackpoint>
          <Trackpoint>
            <Time>2019-01-04T11:56:35.000Z</Time>
            <Position>
              <LatitudeDegrees>36.47834812290966510772705078125</LatitudeDegrees>
              <LongitudeDegrees>-5.4091755487024784088134765625</LongitudeDegrees>
            </Position>
            <AltitudeMeters>55.200000762939453125</AltitudeMeters>
            <DistanceMeters>NAN</DistanceMeters>
          </Trackpoint>
          <Trackpoint>
            <Time>2019-01-04T11:56:36.000Z</Time>
            <Position>
              <LatitudeDegrees>36.4783331193029880523681640625</LatitudeDegrees>
              <LongitudeDegrees>-5.409179739654064178466796875</LongitudeDegrees>
            </Position>
            <AltitudeMeters>55</AltitudeMeters>
            <DistanceMeters>NAN</DistanceMeters>
          </Trackpoint>
          <Trackpoint>
            <Time>2019-01-04T11:56:37.000Z</Time>
            <Position>
              <LatitudeDegrees>36.4783197082579135894775390625</LatitudeDegrees>
              <LongitudeDegrees>-5.40918468497693538665771484375</LongitudeDegrees>
            </Position>
            <AltitudeMeters>54.59999847412109375</AltitudeMeters>
            <DistanceMeters>NAN</DistanceMeters>
          </Trackpoint>
          <Trackpoint>
            <Time>2019-01-04T11:56:38.000Z</Time>
            <Position>
              <LatitudeDegrees>36.47830587811768054962158203125</LatitudeDegrees>
              <LongitudeDegrees>-5.4091899655759334564208984375</LongitudeDegrees>
            </Position>
            <AltitudeMeters>54.59999847412109375</AltitudeMeters>
            <DistanceMeters>NAN</DistanceMeters>
          </Trackpoint>
          <Trackpoint>
            <Time>2019-01-04T11:56:39.000Z</Time>
            <Position>
              <LatitudeDegrees>36.47829296998679637908935546875</LatitudeDegrees>
              <LongitudeDegrees>-5.4091956652700901031494140625</LongitudeDegrees>
            </Position>
            <AltitudeMeters>54.40000152587890625</AltitudeMeters>
            <DistanceMeters>NAN</DistanceMeters>
          </Trackpoint>
          <Trackpoint>
            <Time>2019-01-04T11:56:40.000Z</Time>
            <Position>
              <LatitudeDegrees>36.4782798103988170623779296875</LatitudeDegrees>
              <LongitudeDegrees>-5.40920262224972248077392578125</LongitudeDegrees>
            </Position>
            <AltitudeMeters>54.40000152587890625</AltitudeMeters>
            <DistanceMeters>NAN</DistanceMeters>
          </Trackpoint>
          <Trackpoint>
            <Time>2019-01-04T11:56:41.000Z</Time>
            <Position>
              <LatitudeDegrees>36.47826614789664745330810546875</LatitudeDegrees>
              <LongitudeDegrees>-5.4092070646584033966064453125</LongitudeDegrees>
            </Position>
            <AltitudeMeters>54.40000152587890625</AltitudeMeters>
            <DistanceMeters>NAN</DistanceMeters>
          </Trackpoint>
          <Trackpoint>
            <Time>2019-01-04T11:56:42.000Z</Time>
            <Position>
              <LatitudeDegrees>36.47825407795608043670654296875</LatitudeDegrees>
              <LongitudeDegrees>-5.40921519510447978973388671875</LongitudeDegrees>
            </Position>
            <AltitudeMeters>54.200000762939453125</AltitudeMeters>
            <DistanceMeters>NAN</DistanceMeters>
          </Trackpoint>
          <Trackpoint>
            <Time>2019-01-04T11:56:43.000Z</Time>
            <Position>
              <LatitudeDegrees>36.47823815234005451202392578125</LatitudeDegrees>
              <LongitudeDegrees>-5.40922156535089015960693359375</LongitudeDegrees>
            </Position>
            <AltitudeMeters>54</AltitudeMeters>
            <DistanceMeters>NAN</DistanceMeters>
          </Trackpoint>
          <Trackpoint>
            <Time>2019-01-04T11:56:44.000Z</Time>
            <Position>
              <LatitudeDegrees>36.47822700440883636474609375</LatitudeDegrees>
              <LongitudeDegrees>-5.40923346765339374542236328125</LongitudeDegrees>
            </Position>
            <AltitudeMeters>53.799999237060546875</AltitudeMeters>
            <DistanceMeters>NAN</DistanceMeters>
          </Trackpoint>
          <Trackpoint>
            <Time>2019-01-04T11:56:45.000Z</Time>
            <Position>
              <LatitudeDegrees>36.47821803577244281768798828125</LatitudeDegrees>
              <LongitudeDegrees>-5.4092452861368656158447265625</LongitudeDegrees>
            </Position>
            <AltitudeMeters>53.59999847412109375</AltitudeMeters>
            <DistanceMeters>NAN</DistanceMeters>
          </Trackpoint>
          <Trackpoint>
            <Time>2019-01-04T11:56:46.000Z</Time>
            <Position>
              <LatitudeDegrees>36.4782067202031612396240234375</LatitudeDegrees>
              <LongitudeDegrees>-5.40925811044871807098388671875</LongitudeDegrees>
            </Position>
            <AltitudeMeters>53.40000152587890625</AltitudeMeters>
            <DistanceMeters>NAN</DistanceMeters>
          </Trackpoint>
          <Trackpoint>
            <Time>2019-01-04T11:56:47.000Z</Time>
            <Position>
              <LatitudeDegrees>36.47819674573838710784912109375</LatitudeDegrees>
              <LongitudeDegrees>-5.40927386842668056488037109375</LongitudeDegrees>
            </Position>
            <AltitudeMeters>53.200000762939453125</AltitudeMeters>
            <DistanceMeters>NAN</DistanceMeters>
          </Trackpoint>
          <Trackpoint>
            <Time>2019-01-04T11:56:48.000Z</Time>
            <Position>
              <LatitudeDegrees>36.478184759616851806640625</LatitudeDegrees>
              <LongitudeDegrees>-5.40929130278527736663818359375</LongitudeDegrees>
            </Position>
            <AltitudeMeters>52.799999237060546875</AltitudeMeters>
            <DistanceMeters>NAN</DistanceMeters>
          </Trackpoint>
          <Trackpoint>
            <Time>2019-01-04T11:56:49.000Z</Time>
            <Position>
              <LatitudeDegrees>36.4781753718852996826171875</LatitudeDegrees>
              <LongitudeDegrees>-5.40931074880063533782958984375</LongitudeDegrees>
            </Position>
            <AltitudeMeters>52.59999847412109375</AltitudeMeters>
            <DistanceMeters>NAN</DistanceMeters>
          </Trackpoint>
          <Trackpoint>
            <Time>2019-01-04T11:56:50.000Z</Time>
            <Position>
              <LatitudeDegrees>36.47816531360149383544921875</LatitudeDegrees>
              <LongitudeDegrees>-5.409328937530517578125</LongitudeDegrees>
            </Position>
            <AltitudeMeters>52.200000762939453125</AltitudeMeters>
            <DistanceMeters>NAN</DistanceMeters>
          </Trackpoint>
          <Trackpoint>
            <Time>2019-01-04T11:56:51.000Z</Time>
            <Position>
              <LatitudeDegrees>36.47815584205090999603271484375</LatitudeDegrees>
              <LongitudeDegrees>-5.4093438573181629180908203125</LongitudeDegrees>
            </Position>
            <AltitudeMeters>52</AltitudeMeters>
            <DistanceMeters>NAN</DistanceMeters>
          </Trackpoint>
          <Trackpoint>
            <Time>2019-01-04T11:56:52.000Z</Time>
            <Position>
              <LatitudeDegrees>36.478149555623531341552734375</LatitudeDegrees>
              <LongitudeDegrees>-5.4093569330871105194091796875</LongitudeDegrees>
            </Position>
            <AltitudeMeters>51.799999237060546875</AltitudeMeters>
            <DistanceMeters>NAN</DistanceMeters>
          </Trackpoint>
          <Trackpoint>
            <Time>2019-01-04T11:56:53.000Z</Time>
            <Position>
              <LatitudeDegrees>36.478139497339725494384765625</LatitudeDegrees>
              <LongitudeDegrees>-5.40937243960797786712646484375</LongitudeDegrees>
            </Position>
            <AltitudeMeters>51.59999847412109375</AltitudeMeters>
            <DistanceMeters>NAN</DistanceMeters>
          </Trackpoint>
          <Trackpoint>
            <Time>2019-01-04T11:56:54.000Z</Time>
            <Position>
              <LatitudeDegrees>36.47812952287495136260986328125</LatitudeDegrees>
              <LongitudeDegrees>-5.40938434191048145294189453125</LongitudeDegrees>
            </Position>
            <AltitudeMeters>51.59999847412109375</AltitudeMeters>
            <DistanceMeters>NAN</DistanceMeters>
          </Trackpoint>
          <Trackpoint>
            <Time>2019-01-04T11:56:55.000Z</Time>
            <Position>
              <LatitudeDegrees>36.47812030278146266937255859375</LatitudeDegrees>
              <LongitudeDegrees>-5.40939523838460445404052734375</LongitudeDegrees>
            </Position>
            <AltitudeMeters>51.40000152587890625</AltitudeMeters>
            <DistanceMeters>NAN</DistanceMeters>
          </Trackpoint>
          <Trackpoint>
            <Time>2019-01-04T11:56:56.000Z</Time>
            <Position>
              <LatitudeDegrees>36.478112675249576568603515625</LatitudeDegrees>
              <LongitudeDegrees>-5.40940512903034687042236328125</LongitudeDegrees>
            </Position>
            <AltitudeMeters>51.40000152587890625</AltitudeMeters>
            <DistanceMeters>NAN</DistanceMeters>
          </Trackpoint>
          <Trackpoint>
            <Time>2019-01-04T11:56:57.000Z</Time>
            <Position>
              <LatitudeDegrees>36.478104628622531890869140625</LatitudeDegrees>
              <LongitudeDegrees>-5.40941351093351840972900390625</LongitudeDegrees>
            </Position>
            <AltitudeMeters>51.59999847412109375</AltitudeMeters>
            <DistanceMeters>NAN</DistanceMeters>
          </Trackpoint>
          <Trackpoint>
            <Time>2019-01-04T11:56:58.000Z</Time>
            <Position>
              <LatitudeDegrees>36.47809557616710662841796875</LatitudeDegrees>
              <LongitudeDegrees>-5.40942407213151454925537109375</LongitudeDegrees>
            </Position>
            <AltitudeMeters>51.40000152587890625</AltitudeMeters>
            <DistanceMeters>NAN</DistanceMeters>
          </Trackpoint>
          <Trackpoint>
            <Time>2019-01-04T11:56:59.000Z</Time>
            <Position>
              <LatitudeDegrees>36.478085853159427642822265625</LatitudeDegrees>
              <LongitudeDegrees>-5.409439913928508758544921875</LongitudeDegrees>
            </Position>
            <AltitudeMeters>51.40000152587890625</AltitudeMeters>
            <DistanceMeters>NAN</DistanceMeters>
          </Trackpoint>
          <Trackpoint>
            <Time>2019-01-04T11:57:00.000Z</Time>
            <Position>
              <LatitudeDegrees>36.47807420231401920318603515625</LatitudeDegrees>
              <LongitudeDegrees>-5.40945156477391719818115234375</LongitudeDegrees>
            </Position>
            <AltitudeMeters>51.40000152587890625</AltitudeMeters>
            <DistanceMeters>NAN</DistanceMeters>
          </Trackpoint>
          <Trackpoint>
            <Time>2019-01-04T11:57:01.000Z</Time>
            <Position>
              <LatitudeDegrees>36.478061042726039886474609375</LatitudeDegrees>
              <LongitudeDegrees>-5.40946011431515216827392578125</LongitudeDegrees>
            </Position>
            <AltitudeMeters>51.40000152587890625</AltitudeMeters>
            <DistanceMeters>NAN</DistanceMeters>
          </Trackpoint>
          <Trackpoint>
            <Time>2019-01-04T11:57:02.000Z</Time>
            <Position>
              <LatitudeDegrees>36.47804863750934600830078125</LatitudeDegrees>
              <LongitudeDegrees>-5.40946933440864086151123046875</LongitudeDegrees>
            </Position>
            <AltitudeMeters>51.200000762939453125</AltitudeMeters>
            <DistanceMeters>NAN</DistanceMeters>
          </Trackpoint>
          <Trackpoint>
            <Time>2019-01-04T11:57:03.000Z</Time>
            <Position>
              <LatitudeDegrees>36.47803547792136669158935546875</LatitudeDegrees>
              <LongitudeDegrees>-5.4094766266644001007080078125</LongitudeDegrees>
            </Position>
            <AltitudeMeters>51.200000762939453125</AltitudeMeters>
            <DistanceMeters>NAN</DistanceMeters>
          </Trackpoint>
          <Trackpoint>
            <Time>2019-01-04T11:57:04.000Z</Time>
            <Position>
              <LatitudeDegrees>36.47802139632403850555419921875</LatitudeDegrees>
              <LongitudeDegrees>-5.409480147063732147216796875</LongitudeDegrees>
            </Position>
            <AltitudeMeters>51</AltitudeMeters>
            <DistanceMeters>NAN</DistanceMeters>
          </Trackpoint>
          <Trackpoint>
            <Time>2019-01-04T11:57:05.000Z</Time>
            <Position>
              <LatitudeDegrees>36.47800597362220287322998046875</LatitudeDegrees>
              <LongitudeDegrees>-5.409486852586269378662109375</LongitudeDegrees>
            </Position>
            <AltitudeMeters>51</AltitudeMeters>
            <DistanceMeters>NAN</DistanceMeters>
          </Trackpoint>
          <Trackpoint>
            <Time>2019-01-04T11:57:06.000Z</Time>
            <Position>
              <LatitudeDegrees>36.47798904217779636383056640625</LatitudeDegrees>
              <LongitudeDegrees>-5.40949045680463314056396484375</LongitudeDegrees>
            </Position>
            <AltitudeMeters>51.200000762939453125</AltitudeMeters>
            <DistanceMeters>NAN</DistanceMeters>
          </Trackpoint>
          <Trackpoint>
            <Time>2019-01-04T11:57:07.000Z</Time>
            <Position>
              <LatitudeDegrees>36.477974541485309600830078125</LatitudeDegrees>
              <LongitudeDegrees>-5.40949364192783832550048828125</LongitudeDegrees>
            </Position>
            <AltitudeMeters>51.200000762939453125</AltitudeMeters>
            <DistanceMeters>NAN</DistanceMeters>
          </Trackpoint>
          <Trackpoint>
            <Time>2019-01-04T11:57:08.000Z</Time>
            <Position>
              <LatitudeDegrees>36.4779602922499179840087890625</LatitudeDegrees>
              <LongitudeDegrees>-5.4094960726797580718994140625</LongitudeDegrees>
            </Position>
            <AltitudeMeters>51.40000152587890625</AltitudeMeters>
            <DistanceMeters>NAN</DistanceMeters>
          </Trackpoint>
          <Trackpoint>
            <Time>2019-01-04T11:57:09.000Z</Time>
            <Position>
              <LatitudeDegrees>36.47794612683355808258056640625</LatitudeDegrees>
              <LongitudeDegrees>-5.40949649177491664886474609375</LongitudeDegrees>
            </Position>
            <AltitudeMeters>51.40000152587890625</AltitudeMeters>
            <DistanceMeters>NAN</DistanceMeters>
          </Trackpoint>
          <Trackpoint>
            <Time>2019-01-04T11:57:10.000Z</Time>
            <Position>
              <LatitudeDegrees>36.4779297821223735809326171875</LatitudeDegrees>
              <LongitudeDegrees>-5.40949515067040920257568359375</LongitudeDegrees>
            </Position>
            <AltitudeMeters>51.40000152587890625</AltitudeMeters>
            <DistanceMeters>NAN</DistanceMeters>
          </Trackpoint>
          <Trackpoint>
            <Time>2019-01-04T11:57:11.000Z</Time>
            <Position>
              <LatitudeDegrees>36.47791720926761627197265625</LatitudeDegrees>
              <LongitudeDegrees>-5.4094974137842655181884765625</LongitudeDegrees>
            </Position>
            <AltitudeMeters>51.40000152587890625</AltitudeMeters>
            <DistanceMeters>NAN</DistanceMeters>
          </Trackpoint>
          <Trackpoint>
            <Time>2019-01-04T11:57:12.000Z</Time>
            <Position>
              <LatitudeDegrees>36.47790522314608097076416015625</LatitudeDegrees>
              <LongitudeDegrees>-5.4094984196126461029052734375</LongitudeDegrees>
            </Position>
            <AltitudeMeters>51.40000152587890625</AltitudeMeters>
            <DistanceMeters>NAN</DistanceMeters>
          </Trackpoint>
          <Trackpoint>
            <Time>2019-01-04T11:57:13.000Z</Time>
            <Position>
              <LatitudeDegrees>36.47789306938648223876953125</LatitudeDegrees>
              <LongitudeDegrees>-5.40950126945972442626953125</LongitudeDegrees>
            </Position>
            <AltitudeMeters>51.40000152587890625</AltitudeMeters>
            <DistanceMeters>NAN</DistanceMeters>
          </Trackpoint>
          <Trackpoint>
            <Time>2019-01-04T11:57:14.000Z</Time>
            <Position>
              <LatitudeDegrees>36.4778804965317249298095703125</LatitudeDegrees>
              <LongitudeDegrees>-5.40950797498226165771484375</LongitudeDegrees>
            </Position>
            <AltitudeMeters>51.40000152587890625</AltitudeMeters>
            <DistanceMeters>NAN</DistanceMeters>
          </Trackpoint>
          <Trackpoint>
            <Time>2019-01-04T11:57:15.000Z</Time>
            <Position>
              <LatitudeDegrees>36.477870941162109375</LatitudeDegrees>
              <LongitudeDegrees>-5.40951090864837169647216796875</LongitudeDegrees>
            </Position>
            <AltitudeMeters>51.40000152587890625</AltitudeMeters>
            <DistanceMeters>NAN</DistanceMeters>
          </Trackpoint>
          <Trackpoint>
            <Time>2019-01-04T11:57:16.000Z</Time>
            <Position>
              <LatitudeDegrees>36.47785560227930545806884765625</LatitudeDegrees>
              <LongitudeDegrees>-5.40951560251414775848388671875</LongitudeDegrees>
            </Position>
            <AltitudeMeters>51.40000152587890625</AltitudeMeters>
            <DistanceMeters>NAN</DistanceMeters>
          </Trackpoint>
          <Trackpoint>
            <Time>2019-01-04T11:57:17.000Z</Time>
            <Position>
              <LatitudeDegrees>36.47783732973039150238037109375</LatitudeDegrees>
              <LongitudeDegrees>-5.40951945818960666656494140625</LongitudeDegrees>
            </Position>
            <AltitudeMeters>51.40000152587890625</AltitudeMeters>
            <DistanceMeters>NAN</DistanceMeters>
          </Trackpoint>
          <Trackpoint>
            <Time>2019-01-04T11:57:18.000Z</Time>
            <Position>
              <LatitudeDegrees>36.47781821899116039276123046875</LatitudeDegrees>
              <LongitudeDegrees>-5.409523732960224151611328125</LongitudeDegrees>
            </Position>
            <AltitudeMeters>51.40000152587890625</AltitudeMeters>
            <DistanceMeters>NAN</DistanceMeters>
          </Trackpoint>
          <Trackpoint>
            <Time>2019-01-04T11:57:19.000Z</Time>
            <Position>
              <LatitudeDegrees>36.477802209556102752685546875</LatitudeDegrees>
              <LongitudeDegrees>-5.4095260798931121826171875</LongitudeDegrees>
            </Position>
            <AltitudeMeters>51.40000152587890625</AltitudeMeters>
            <DistanceMeters>NAN</DistanceMeters>
          </Trackpoint>
          <Trackpoint>
            <Time>2019-01-04T11:57:20.000Z</Time>
            <Position>
              <LatitudeDegrees>36.4777869544923305511474609375</LatitudeDegrees>
              <LongitudeDegrees>-5.4095314443111419677734375</LongitudeDegrees>
            </Position>
            <AltitudeMeters>51.40000152587890625</AltitudeMeters>
            <DistanceMeters>NAN</DistanceMeters>
          </Trackpoint>
          <Trackpoint>
            <Time>2019-01-04T11:57:21.000Z</Time>
            <Position>
              <LatitudeDegrees>36.47776742465794086456298828125</LatitudeDegrees>
              <LongitudeDegrees>-5.40953789837658405303955078125</LongitudeDegrees>
            </Position>
            <AltitudeMeters>51.59999847412109375</AltitudeMeters>
            <DistanceMeters>NAN</DistanceMeters>
          </Trackpoint>
          <Trackpoint>
            <Time>2019-01-04T11:57:22.000Z</Time>
            <Position>
              <LatitudeDegrees>36.477748565375804901123046875</LatitudeDegrees>
              <LongitudeDegrees>-5.40954225696623325347900390625</LongitudeDegrees>
            </Position>
            <AltitudeMeters>51.59999847412109375</AltitudeMeters>
            <DistanceMeters>NAN</DistanceMeters>
          </Trackpoint>
          <Trackpoint>
            <Time>2019-01-04T11:57:23.000Z</Time>
            <Position>
              <LatitudeDegrees>36.47773205302655696868896484375</LatitudeDegrees>
              <LongitudeDegrees>-5.40954443626105785369873046875</LongitudeDegrees>
            </Position>
            <AltitudeMeters>51.799999237060546875</AltitudeMeters>
            <DistanceMeters>NAN</DistanceMeters>
          </Trackpoint>
          <Trackpoint>
            <Time>2019-01-04T11:57:24.000Z</Time>
            <Position>
              <LatitudeDegrees>36.47771646268665790557861328125</LatitudeDegrees>
              <LongitudeDegrees>-5.40954552590847015380859375</LongitudeDegrees>
            </Position>
            <AltitudeMeters>51.799999237060546875</AltitudeMeters>
            <DistanceMeters>NAN</DistanceMeters>
          </Trackpoint>
          <Trackpoint>
            <Time>2019-01-04T11:57:25.000Z</Time>
            <Position>
              <LatitudeDegrees>36.47770070470869541168212890625</LatitudeDegrees>
              <LongitudeDegrees>-5.40955013595521450042724609375</LongitudeDegrees>
            </Position>
            <AltitudeMeters>52</AltitudeMeters>
            <DistanceMeters>NAN</DistanceMeters>
          </Trackpoint>
          <Trackpoint>
            <Time>2019-01-04T11:57:26.000Z</Time>
            <Position>
              <LatitudeDegrees>36.47768645547330379486083984375</LatitudeDegrees>
              <LongitudeDegrees>-5.4095547460019588470458984375</LongitudeDegrees>
            </Position>
            <AltitudeMeters>52</AltitudeMeters>
            <DistanceMeters>NAN</DistanceMeters>
          </Trackpoint>
          <Trackpoint>
            <Time>2019-01-04T11:57:27.000Z</Time>
            <Position>
              <LatitudeDegrees>36.47767002694308757781982421875</LatitudeDegrees>
              <LongitudeDegrees>-5.40955885313451290130615234375</LongitudeDegrees>
            </Position>
            <AltitudeMeters>52</AltitudeMeters>
            <DistanceMeters>NAN</DistanceMeters>
          </Trackpoint>
          <Trackpoint>
            <Time>2019-01-04T11:57:28.000Z</Time>
            <Position>
              <LatitudeDegrees>36.4776541851460933685302734375</LatitudeDegrees>
              <LongitudeDegrees>-5.40956237353384494781494140625</LongitudeDegrees>
            </Position>
            <AltitudeMeters>52.200000762939453125</AltitudeMeters>
            <DistanceMeters>NAN</DistanceMeters>
          </Trackpoint>
          <Trackpoint>
            <Time>2019-01-04T11:57:29.000Z</Time>
            <Position>
              <LatitudeDegrees>36.47763700224459171295166015625</LatitudeDegrees>
              <LongitudeDegrees>-5.409567318856716156005859375</LongitudeDegrees>
            </Position>
            <AltitudeMeters>52.40000152587890625</AltitudeMeters>
            <DistanceMeters>NAN</DistanceMeters>
          </Trackpoint>
          <Trackpoint>
            <Time>2019-01-04T11:57:30.000Z</Time>
            <Position>
              <LatitudeDegrees>36.47762375883758068084716796875</LatitudeDegrees>
              <LongitudeDegrees>-5.4095743596553802490234375</LongitudeDegrees>
            </Position>
            <AltitudeMeters>52.59999847412109375</AltitudeMeters>
            <DistanceMeters>NAN</DistanceMeters>
          </Trackpoint>
          <Trackpoint>
            <Time>2019-01-04T11:57:31.000Z</Time>
            <Position>
              <LatitudeDegrees>36.4776099286973476409912109375</LatitudeDegrees>
              <LongitudeDegrees>-5.40958265773952007293701171875</LongitudeDegrees>
            </Position>
            <AltitudeMeters>52.799999237060546875</AltitudeMeters>
            <DistanceMeters>NAN</DistanceMeters>
          </Trackpoint>
          <Trackpoint>
            <Time>2019-01-04T11:57:32.000Z</Time>
            <Position>
              <LatitudeDegrees>36.47759526036679744720458984375</LatitudeDegrees>
              <LongitudeDegrees>-5.40959036909043788909912109375</LongitudeDegrees>
            </Position>
            <AltitudeMeters>53</AltitudeMeters>
            <DistanceMeters>NAN</DistanceMeters>
          </Trackpoint>
          <Trackpoint>
            <Time>2019-01-04T11:57:33.000Z</Time>
            <Position>
              <LatitudeDegrees>36.4775804243981838226318359375</LatitudeDegrees>
              <LongitudeDegrees>-5.4096023552119731903076171875</LongitudeDegrees>
            </Position>
            <AltitudeMeters>53</AltitudeMeters>
            <DistanceMeters>NAN</DistanceMeters>
          </Trackpoint>
          <Trackpoint>
            <Time>2019-01-04T11:57:34.000Z</Time>
            <Position>
              <LatitudeDegrees>36.47756475023925304412841796875</LatitudeDegrees>
              <LongitudeDegrees>-5.4096093960106372833251953125</LongitudeDegrees>
            </Position>
            <AltitudeMeters>53.200000762939453125</AltitudeMeters>
            <DistanceMeters>NAN</DistanceMeters>
          </Trackpoint>
          <Trackpoint>
            <Time>2019-01-04T11:57:35.000Z</Time>
            <Position>
              <LatitudeDegrees>36.4775504171848297119140625</LatitudeDegrees>
              <LongitudeDegrees>-5.40961928665637969970703125</LongitudeDegrees>
            </Position>
            <AltitudeMeters>53.200000762939453125</AltitudeMeters>
            <DistanceMeters>NAN</DistanceMeters>
          </Trackpoint>
          <Trackpoint>
            <Time>2019-01-04T11:57:36.000Z</Time>
            <Position>
              <LatitudeDegrees>36.47753499448299407958984375</LatitudeDegrees>
              <LongitudeDegrees>-5.409629009664058685302734375</LongitudeDegrees>
            </Position>
            <AltitudeMeters>53.200000762939453125</AltitudeMeters>
            <DistanceMeters>NAN</DistanceMeters>
          </Trackpoint>
          <Trackpoint>
            <Time>2019-01-04T11:57:37.000Z</Time>
            <Position>
              <LatitudeDegrees>36.47752334363758563995361328125</LatitudeDegrees>
              <LongitudeDegrees>-5.40963613428175449371337890625</LongitudeDegrees>
            </Position>
            <AltitudeMeters>53.200000762939453125</AltitudeMeters>
            <DistanceMeters>NAN</DistanceMeters>
          </Trackpoint>
          <Trackpoint>
            <Time>2019-01-04T11:57:38.000Z</Time>
            <Position>
              <LatitudeDegrees>36.477509848773479461669921875</LatitudeDegrees>
              <LongitudeDegrees>-5.40964066050946712493896484375</LongitudeDegrees>
            </Position>
            <AltitudeMeters>53</AltitudeMeters>
            <DistanceMeters>NAN</DistanceMeters>
          </Trackpoint>
          <Trackpoint>
            <Time>2019-01-04T11:57:39.000Z</Time>
            <Position>
              <LatitudeDegrees>36.477494426071643829345703125</LatitudeDegrees>
              <LongitudeDegrees>-5.409645773470401763916015625</LongitudeDegrees>
            </Position>
            <AltitudeMeters>53</AltitudeMeters>
            <DistanceMeters>NAN</DistanceMeters>
          </Trackpoint>
          <Trackpoint>
            <Time>2019-01-04T11:57:40.000Z</Time>
            <Position>
              <LatitudeDegrees>36.47747942246496677398681640625</LatitudeDegrees>
              <LongitudeDegrees>-5.409649796783924102783203125</LongitudeDegrees>
            </Position>
            <AltitudeMeters>53</AltitudeMeters>
            <DistanceMeters>NAN</DistanceMeters>
          </Trackpoint>
          <Trackpoint>
            <Time>2019-01-04T11:57:41.000Z</Time>
            <Position>
              <LatitudeDegrees>36.4774645864963531494140625</LatitudeDegrees>
              <LongitudeDegrees>-5.40965440683066844940185546875</LongitudeDegrees>
            </Position>
            <AltitudeMeters>53</AltitudeMeters>
            <DistanceMeters>NAN</DistanceMeters>
          </Trackpoint>
          <Trackpoint>
            <Time>2019-01-04T11:57:42.000Z</Time>
            <Position>
              <LatitudeDegrees>36.47745075635612010955810546875</LatitudeDegrees>
              <LongitudeDegrees>-5.40965977124869823455810546875</LongitudeDegrees>
            </Position>
            <AltitudeMeters>53</AltitudeMeters>
            <DistanceMeters>NAN</DistanceMeters>
          </Trackpoint>
          <Trackpoint>
            <Time>2019-01-04T11:57:43.000Z</Time>
            <Position>
              <LatitudeDegrees>36.47743684239685535430908203125</LatitudeDegrees>
              <LongitudeDegrees>-5.4096643812954425811767578125</LongitudeDegrees>
            </Position>
            <AltitudeMeters>53</AltitudeMeters>
            <DistanceMeters>NAN</DistanceMeters>
          </Trackpoint>
          <Trackpoint>
            <Time>2019-01-04T11:57:44.000Z</Time>
            <Position>
              <LatitudeDegrees>36.477421335875988006591796875</LatitudeDegrees>
              <LongitudeDegrees>-5.4096640460193157196044921875</LongitudeDegrees>
            </Position>
            <AltitudeMeters>53</AltitudeMeters>
            <DistanceMeters>NAN</DistanceMeters>
          </Trackpoint>
          <Trackpoint>
            <Time>2019-01-04T11:57:45.000Z</Time>
            <Position>
              <LatitudeDegrees>36.47740633226931095123291015625</LatitudeDegrees>
              <LongitudeDegrees>-5.40966630913317203521728515625</LongitudeDegrees>
            </Position>
            <AltitudeMeters>53</AltitudeMeters>
            <DistanceMeters>NAN</DistanceMeters>
          </Trackpoint>
          <Trackpoint>
            <Time>2019-01-04T11:57:46.000Z</Time>
            <Position>
              <LatitudeDegrees>36.4773899875581264495849609375</LatitudeDegrees>
              <LongitudeDegrees>-5.409669242799282073974609375</LongitudeDegrees>
            </Position>
            <AltitudeMeters>53</AltitudeMeters>
            <DistanceMeters>NAN</DistanceMeters>
          </Trackpoint>
          <Trackpoint>
            <Time>2019-01-04T11:57:47.000Z</Time>
            <Position>
              <LatitudeDegrees>36.477373726665973663330078125</LatitudeDegrees>
              <LongitudeDegrees>-5.4096730984747409820556640625</LongitudeDegrees>
            </Position>
            <AltitudeMeters>53</AltitudeMeters>
            <DistanceMeters>NAN</DistanceMeters>
          </Trackpoint>
          <Trackpoint>
            <Time>2019-01-04T11:57:48.000Z</Time>
            <Position>
              <LatitudeDegrees>36.47735537029802799224853515625</LatitudeDegrees>
              <LongitudeDegrees>-5.40967762470245361328125</LongitudeDegrees>
            </Position>
            <AltitudeMeters>53.200000762939453125</AltitudeMeters>
            <DistanceMeters>NAN</DistanceMeters>
          </Trackpoint>
          <Trackpoint>
            <Time>2019-01-04T11:57:49.000Z</Time>
            <Position>
              <LatitudeDegrees>36.47733843885362148284912109375</LatitudeDegrees>
              <LongitudeDegrees>-5.4096831567585468292236328125</LongitudeDegrees>
            </Position>
            <AltitudeMeters>53.200000762939453125</AltitudeMeters>
            <DistanceMeters>NAN</DistanceMeters>
          </Trackpoint>
          <Trackpoint>
            <Time>2019-01-04T11:57:50.000Z</Time>
            <Position>
              <LatitudeDegrees>36.47732100449502468109130859375</LatitudeDegrees>
              <LongitudeDegrees>-5.40968843735754489898681640625</LongitudeDegrees>
            </Position>
            <AltitudeMeters>53.200000762939453125</AltitudeMeters>
            <DistanceMeters>NAN</DistanceMeters>
          </Trackpoint>
          <Trackpoint>
            <Time>2019-01-04T11:57:51.000Z</Time>
            <Position>
              <LatitudeDegrees>36.4773048274219036102294921875</LatitudeDegrees>
              <LongitudeDegrees>-5.4096962325274944305419921875</LongitudeDegrees>
            </Position>
            <AltitudeMeters>53.200000762939453125</AltitudeMeters>
            <DistanceMeters>NAN</DistanceMeters>
          </Trackpoint>
          <Trackpoint>
            <Time>2019-01-04T11:57:52.000Z</Time>
            <Position>
              <LatitudeDegrees>36.47729066200554370880126953125</LatitudeDegrees>
              <LongitudeDegrees>-5.4096969030797481536865234375</LongitudeDegrees>
            </Position>
            <AltitudeMeters>53.200000762939453125</AltitudeMeters>
            <DistanceMeters>NAN</DistanceMeters>
          </Trackpoint>
          <Trackpoint>
            <Time>2019-01-04T11:57:53.000Z</Time>
            <Position>
              <LatitudeDegrees>36.47727976553142070770263671875</LatitudeDegrees>
              <LongitudeDegrees>-5.40969413705170154571533203125</LongitudeDegrees>
            </Position>
            <AltitudeMeters>53.200000762939453125</AltitudeMeters>
            <DistanceMeters>NAN</DistanceMeters>
          </Trackpoint>
          <Trackpoint>
            <Time>2019-01-04T11:57:54.000Z</Time>
            <Position>
              <LatitudeDegrees>36.47726987488567829132080078125</LatitudeDegrees>
              <LongitudeDegrees>-5.40969011373817920684814453125</LongitudeDegrees>
            </Position>
            <AltitudeMeters>53.200000762939453125</AltitudeMeters>
            <DistanceMeters>NAN</DistanceMeters>
          </Trackpoint>
          <Trackpoint>
            <Time>2019-01-04T11:57:55.000Z</Time>
            <Position>
              <LatitudeDegrees>36.47725780494511127471923828125</LatitudeDegrees>
              <LongitudeDegrees>-5.40968843735754489898681640625</LongitudeDegrees>
            </Position>
            <AltitudeMeters>53</AltitudeMeters>
            <DistanceMeters>NAN</DistanceMeters>
          </Trackpoint>
          <Trackpoint>
            <Time>2019-01-04T11:57:56.000Z</Time>
            <Position>
              <LatitudeDegrees>36.47724523209035396575927734375</LatitudeDegrees>
              <LongitudeDegrees>-5.40968810208141803741455078125</LongitudeDegrees>
            </Position>
            <AltitudeMeters>52.799999237060546875</AltitudeMeters>
            <DistanceMeters>NAN</DistanceMeters>
          </Trackpoint>
          <Trackpoint>
            <Time>2019-01-04T11:57:57.000Z</Time>
            <Position>
              <LatitudeDegrees>36.47723400034010410308837890625</LatitudeDegrees>
              <LongitudeDegrees>-5.4096861742436885833740234375</LongitudeDegrees>
            </Position>
            <AltitudeMeters>52.59999847412109375</AltitudeMeters>
            <DistanceMeters>NAN</DistanceMeters>
          </Trackpoint>
          <Trackpoint>
            <Time>2019-01-04T11:57:58.000Z</Time>
            <Position>
              <LatitudeDegrees>36.47722394205629825592041015625</LatitudeDegrees>
              <LongitudeDegrees>-5.40968307293951511383056640625</LongitudeDegrees>
            </Position>
            <AltitudeMeters>52.59999847412109375</AltitudeMeters>
            <DistanceMeters>NAN</DistanceMeters>
          </Trackpoint>
          <Trackpoint>
            <Time>2019-01-04T11:57:59.000Z</Time>
            <Position>
              <LatitudeDegrees>36.47721388377249240875244140625</LatitudeDegrees>
              <LongitudeDegrees>-5.40968206711113452911376953125</LongitudeDegrees>
            </Position>
            <AltitudeMeters>52.40000152587890625</AltitudeMeters>
            <DistanceMeters>NAN</DistanceMeters>
          </Trackpoint>
          <Trackpoint>
            <Time>2019-01-04T11:58:00.000Z</Time>
            <Position>
              <LatitudeDegrees>36.47720198146998882293701171875</LatitudeDegrees>
              <LongitudeDegrees>-5.40968407876789569854736328125</LongitudeDegrees>
            </Position>
            <AltitudeMeters>52.40000152587890625</AltitudeMeters>
            <DistanceMeters>NAN</DistanceMeters>
          </Trackpoint>
          <Trackpoint>
            <Time>2019-01-04T11:58:01.000Z</Time>
            <Position>
              <LatitudeDegrees>36.47718764841556549072265625</LatitudeDegrees>
              <LongitudeDegrees>-5.4096885211765766143798828125</LongitudeDegrees>
            </Position>
            <AltitudeMeters>52.40000152587890625</AltitudeMeters>
            <DistanceMeters>NAN</DistanceMeters>
          </Trackpoint>
          <Trackpoint>
            <Time>2019-01-04T11:58:02.000Z</Time>
            <Position>
              <LatitudeDegrees>36.477173902094364166259765625</LatitudeDegrees>
              <LongitudeDegrees>-5.40969715453684329986572265625</LongitudeDegrees>
            </Position>
            <AltitudeMeters>52.40000152587890625</AltitudeMeters>
            <DistanceMeters>NAN</DistanceMeters>
          </Trackpoint>
          <Trackpoint>
            <Time>2019-01-04T11:58:03.000Z</Time>
            <Position>
              <LatitudeDegrees>36.47715923376381397247314453125</LatitudeDegrees>
              <LongitudeDegrees>-5.40970503352582454681396484375</LongitudeDegrees>
            </Position>
            <AltitudeMeters>52.40000152587890625</AltitudeMeters>
            <DistanceMeters>NAN</DistanceMeters>
          </Trackpoint>
          <Trackpoint>
            <Time>2019-01-04T11:58:04.000Z</Time>
            <Position>
              <LatitudeDegrees>36.47714582271873950958251953125</LatitudeDegrees>
              <LongitudeDegrees>-5.4097096435725688934326171875</LongitudeDegrees>
            </Position>
            <AltitudeMeters>52.40000152587890625</AltitudeMeters>
            <DistanceMeters>NAN</DistanceMeters>
          </Trackpoint>
          <Trackpoint>
            <Time>2019-01-04T11:58:05.000Z</Time>
            <Position>
              <LatitudeDegrees>36.47713090293109416961669921875</LatitudeDegrees>
              <LongitudeDegrees>-5.40971852838993072509765625</LongitudeDegrees>
            </Position>
            <AltitudeMeters>52.40000152587890625</AltitudeMeters>
            <DistanceMeters>NAN</DistanceMeters>
          </Trackpoint>
          <Trackpoint>
            <Time>2019-01-04T11:58:06.000Z</Time>
            <Position>
              <LatitudeDegrees>36.4771143905818462371826171875</LatitudeDegrees>
              <LongitudeDegrees>-5.40972565300762653350830078125</LongitudeDegrees>
            </Position>
            <AltitudeMeters>52.40000152587890625</AltitudeMeters>
            <DistanceMeters>NAN</DistanceMeters>
          </Trackpoint>
          <Trackpoint>
            <Time>2019-01-04T11:58:07.000Z</Time>
            <Position>
              <LatitudeDegrees>36.47709645330905914306640625</LatitudeDegrees>
              <LongitudeDegrees>-5.40973118506371974945068359375</LongitudeDegrees>
            </Position>
            <AltitudeMeters>52.200000762939453125</AltitudeMeters>
            <DistanceMeters>NAN</DistanceMeters>
          </Trackpoint>
          <Trackpoint>
            <Time>2019-01-04T11:58:08.000Z</Time>
            <Position>
              <LatitudeDegrees>36.477078013122081756591796875</LatitudeDegrees>
              <LongitudeDegrees>-5.40973889641463756561279296875</LongitudeDegrees>
            </Position>
            <AltitudeMeters>52.200000762939453125</AltitudeMeters>
            <DistanceMeters>NAN</DistanceMeters>
          </Trackpoint>
          <Trackpoint>
            <Time>2019-01-04T11:58:09.000Z</Time>
            <Position>
              <LatitudeDegrees>36.47706233896315097808837890625</LatitudeDegrees>
              <LongitudeDegrees>-5.4097435064613819122314453125</LongitudeDegrees>
            </Position>
            <AltitudeMeters>52.200000762939453125</AltitudeMeters>
            <DistanceMeters>NAN</DistanceMeters>
          </Trackpoint>
          <Trackpoint>
            <Time>2019-01-04T11:58:10.000Z</Time>
            <Position>
              <LatitudeDegrees>36.47704691626131534576416015625</LatitudeDegrees>
              <LongitudeDegrees>-5.4097482003271579742431640625</LongitudeDegrees>
            </Position>
            <AltitudeMeters>52.200000762939453125</AltitudeMeters>
            <DistanceMeters>NAN</DistanceMeters>
          </Trackpoint>
          <Trackpoint>
            <Time>2019-01-04T11:58:11.000Z</Time>
            <Position>
              <LatitudeDegrees>36.477031074464321136474609375</LatitudeDegrees>
              <LongitudeDegrees>-5.4097540676593780517578125</LongitudeDegrees>
            </Position>
            <AltitudeMeters>52.200000762939453125</AltitudeMeters>
            <DistanceMeters>NAN</DistanceMeters>
          </Trackpoint>
          <Trackpoint>
            <Time>2019-01-04T11:58:12.000Z</Time>
            <Position>
              <LatitudeDegrees>36.477014310657978057861328125</LatitudeDegrees>
              <LongitudeDegrees>-5.40976270101964473724365234375</LongitudeDegrees>
            </Position>
            <AltitudeMeters>52.200000762939453125</AltitudeMeters>
            <DistanceMeters>NAN</DistanceMeters>
          </Trackpoint>
          <Trackpoint>
            <Time>2019-01-04T11:58:13.000Z</Time>
            <Position>
              <LatitudeDegrees>36.47699813358485698699951171875</LatitudeDegrees>
              <LongitudeDegrees>-5.409771837294101715087890625</LongitudeDegrees>
            </Position>
            <AltitudeMeters>52.200000762939453125</AltitudeMeters>
            <DistanceMeters>NAN</DistanceMeters>
          </Trackpoint>
          <Trackpoint>
            <Time>2019-01-04T11:58:14.000Z</Time>
            <Position>
              <LatitudeDegrees>36.47698204033076763153076171875</LatitudeDegrees>
              <LongitudeDegrees>-5.40978063829243183135986328125</LongitudeDegrees>
            </Position>
            <AltitudeMeters>52.200000762939453125</AltitudeMeters>
            <DistanceMeters>NAN</DistanceMeters>
          </Trackpoint>
          <Trackpoint>
            <Time>2019-01-04T11:58:15.000Z</Time>
            <Position>
              <LatitudeDegrees>36.47696829400956630706787109375</LatitudeDegrees>
              <LongitudeDegrees>-5.40978558361530303955078125</LongitudeDegrees>
            </Position>
            <AltitudeMeters>52.40000152587890625</AltitudeMeters>
            <DistanceMeters>NAN</DistanceMeters>
          </Trackpoint>
          <Trackpoint>
            <Time>2019-01-04T11:58:16.000Z</Time>
            <Position>
              <LatitudeDegrees>36.476953290402889251708984375</LatitudeDegrees>
              <LongitudeDegrees>-5.40978918783366680145263671875</LongitudeDegrees>
            </Position>
            <AltitudeMeters>52.200000762939453125</AltitudeMeters>
            <DistanceMeters>NAN</DistanceMeters>
          </Trackpoint>
          <Trackpoint>
            <Time>2019-01-04T11:58:17.000Z</Time>
            <Position>
              <LatitudeDegrees>36.47694029845297336578369140625</LatitudeDegrees>
              <LongitudeDegrees>-5.40979270823299884796142578125</LongitudeDegrees>
            </Position>
            <AltitudeMeters>52</AltitudeMeters>
            <DistanceMeters>NAN</DistanceMeters>
          </Trackpoint>
          <Trackpoint>
            <Time>2019-01-04T11:58:18.000Z</Time>
            <Position>
              <LatitudeDegrees>36.47692839615046977996826171875</LatitudeDegrees>
              <LongitudeDegrees>-5.40979522280395030975341796875</LongitudeDegrees>
            </Position>
            <AltitudeMeters>52</AltitudeMeters>
            <DistanceMeters>NAN</DistanceMeters>
          </Trackpoint>
          <Trackpoint>
            <Time>2019-01-04T11:58:19.000Z</Time>
            <Position>
              <LatitudeDegrees>36.47691464982926845550537109375</LatitudeDegrees>
              <LongitudeDegrees>-5.40979974903166294097900390625</LongitudeDegrees>
            </Position>
            <AltitudeMeters>51.799999237060546875</AltitudeMeters>
            <DistanceMeters>NAN</DistanceMeters>
          </Trackpoint>
          <Trackpoint>
            <Time>2019-01-04T11:58:20.000Z</Time>
            <Position>
              <LatitudeDegrees>36.47690073587000370025634765625</LatitudeDegrees>
              <LongitudeDegrees>-5.40980360470712184906005859375</LongitudeDegrees>
            </Position>
            <AltitudeMeters>51.799999237060546875</AltitudeMeters>
            <DistanceMeters>NAN</DistanceMeters>
          </Trackpoint>
          <Trackpoint>
            <Time>2019-01-04T11:58:21.000Z</Time>
            <Position>
              <LatitudeDegrees>36.47688724100589752197265625</LatitudeDegrees>
              <LongitudeDegrees>-5.40980561636388301849365234375</LongitudeDegrees>
            </Position>
            <AltitudeMeters>51.59999847412109375</AltitudeMeters>
            <DistanceMeters>NAN</DistanceMeters>
          </Trackpoint>
          <Trackpoint>
            <Time>2019-01-04T11:58:22.000Z</Time>
            <Position>
              <LatitudeDegrees>36.47687408141791820526123046875</LatitudeDegrees>
              <LongitudeDegrees>-5.4098077118396759033203125</LongitudeDegrees>
            </Position>
            <AltitudeMeters>51.59999847412109375</AltitudeMeters>
            <DistanceMeters>NAN</DistanceMeters>
          </Trackpoint>
          <Trackpoint>
            <Time>2019-01-04T11:58:23.000Z</Time>
            <Position>
              <LatitudeDegrees>36.4768629334867000579833984375</LatitudeDegrees>
              <LongitudeDegrees>-5.40981098078191280364990234375</LongitudeDegrees>
            </Position>
            <AltitudeMeters>51.59999847412109375</AltitudeMeters>
            <DistanceMeters>NAN</DistanceMeters>
          </Trackpoint>
          <Trackpoint>
            <Time>2019-01-04T11:58:24.000Z</Time>
            <Position>
              <LatitudeDegrees>36.4768505282700061798095703125</LatitudeDegrees>
              <LongitudeDegrees>-5.4098139144480228424072265625</LongitudeDegrees>
            </Position>
            <AltitudeMeters>51.40000152587890625</AltitudeMeters>
            <DistanceMeters>NAN</DistanceMeters>
          </Trackpoint>
          <Trackpoint>
            <Time>2019-01-04T11:58:25.000Z</Time>
            <Position>
              <LatitudeDegrees>36.4768377877771854400634765625</LatitudeDegrees>
              <LongitudeDegrees>-5.40981634519994258880615234375</LongitudeDegrees>
            </Position>
            <AltitudeMeters>51.40000152587890625</AltitudeMeters>
            <DistanceMeters>NAN</DistanceMeters>
          </Trackpoint>
          <Trackpoint>
            <Time>2019-01-04T11:58:26.000Z</Time>
            <Position>
              <LatitudeDegrees>36.47682462818920612335205078125</LatitudeDegrees>
              <LongitudeDegrees>-5.409819446504116058349609375</LongitudeDegrees>
            </Position>
            <AltitudeMeters>51.40000152587890625</AltitudeMeters>
            <DistanceMeters>NAN</DistanceMeters>
          </Trackpoint>
          <Trackpoint>
            <Time>2019-01-04T11:58:27.000Z</Time>
            <Position>
              <LatitudeDegrees>36.4768106304109096527099609375</LatitudeDegrees>
              <LongitudeDegrees>-5.40982313454151153564453125</LongitudeDegrees>
            </Position>
            <AltitudeMeters>51.40000152587890625</AltitudeMeters>
            <DistanceMeters>NAN</DistanceMeters>
          </Trackpoint>
          <Trackpoint>
            <Time>2019-01-04T11:58:28.000Z</Time>
            <Position>
              <LatitudeDegrees>36.47679646499454975128173828125</LatitudeDegrees>
              <LongitudeDegrees>-5.40982757695019245147705078125</LongitudeDegrees>
            </Position>
            <AltitudeMeters>51.40000152587890625</AltitudeMeters>
            <DistanceMeters>NAN</DistanceMeters>
          </Trackpoint>
          <Trackpoint>
            <Time>2019-01-04T11:58:29.000Z</Time>
            <Position>
              <LatitudeDegrees>36.47678154520690441131591796875</LatitudeDegrees>
              <LongitudeDegrees>-5.40983118116855621337890625</LongitudeDegrees>
            </Position>
            <AltitudeMeters>51.40000152587890625</AltitudeMeters>
            <DistanceMeters>NAN</DistanceMeters>
          </Trackpoint>
          <Trackpoint>
            <Time>2019-01-04T11:58:30.000Z</Time>
            <Position>
              <LatitudeDegrees>36.47676788270473480224609375</LatitudeDegrees>
              <LongitudeDegrees>-5.409834869205951690673828125</LongitudeDegrees>
            </Position>
            <AltitudeMeters>51.40000152587890625</AltitudeMeters>
            <DistanceMeters>NAN</DistanceMeters>
          </Trackpoint>
          <Trackpoint>
            <Time>2019-01-04T11:58:31.000Z</Time>
            <Position>
              <LatitudeDegrees>36.47675405256450176239013671875</LatitudeDegrees>
              <LongitudeDegrees>-5.40983813814818859100341796875</LongitudeDegrees>
            </Position>
            <AltitudeMeters>51.40000152587890625</AltitudeMeters>
            <DistanceMeters>NAN</DistanceMeters>
          </Trackpoint>
          <Trackpoint>
            <Time>2019-01-04T11:58:32.000Z</Time>
            <Position>
              <LatitudeDegrees>36.47673846222460269927978515625</LatitudeDegrees>
              <LongitudeDegrees>-5.4098425805568695068359375</LongitudeDegrees>
            </Position>
            <AltitudeMeters>51.40000152587890625</AltitudeMeters>
            <DistanceMeters>NAN</DistanceMeters>
          </Trackpoint>
          <Trackpoint>
            <Time>2019-01-04T11:58:33.000Z</Time>
            <Position>
              <LatitudeDegrees>36.47672303952276706695556640625</LatitudeDegrees>
              <LongitudeDegrees>-5.4098484478890895843505859375</LongitudeDegrees>
            </Position>
            <AltitudeMeters>51.40000152587890625</AltitudeMeters>
            <DistanceMeters>NAN</DistanceMeters>
          </Trackpoint>
          <Trackpoint>
            <Time>2019-01-04T11:58:34.000Z</Time>
            <Position>
              <LatitudeDegrees>36.47670744918286800384521484375</LatitudeDegrees>
              <LongitudeDegrees>-5.40985255502164363861083984375</LongitudeDegrees>
            </Position>
            <AltitudeMeters>51.40000152587890625</AltitudeMeters>
            <DistanceMeters>NAN</DistanceMeters>
          </Trackpoint>
          <Trackpoint>
            <Time>2019-01-04T11:58:35.000Z</Time>
            <Position>
              <LatitudeDegrees>36.4766922779381275177001953125</LatitudeDegrees>
              <LongitudeDegrees>-5.40985557250678539276123046875</LongitudeDegrees>
            </Position>
            <AltitudeMeters>51.40000152587890625</AltitudeMeters>
            <DistanceMeters>NAN</DistanceMeters>
          </Trackpoint>
          <Trackpoint>
            <Time>2019-01-04T11:58:36.000Z</Time>
            <Position>
              <LatitudeDegrees>36.4766765199601650238037109375</LatitudeDegrees>
              <LongitudeDegrees>-5.40985858999192714691162109375</LongitudeDegrees>
            </Position>
            <AltitudeMeters>51.40000152587890625</AltitudeMeters>
            <DistanceMeters>NAN</DistanceMeters>
          </Trackpoint>
          <Trackpoint>
            <Time>2019-01-04T11:58:37.000Z</Time>
            <Position>
              <LatitudeDegrees>36.47666151635348796844482421875</LatitudeDegrees>
              <LongitudeDegrees>-5.40986294858157634735107421875</LongitudeDegrees>
            </Position>
            <AltitudeMeters>51.40000152587890625</AltitudeMeters>
            <DistanceMeters>NAN</DistanceMeters>
          </Trackpoint>
          <Trackpoint>
            <Time>2019-01-04T11:58:38.000Z</Time>
            <Position>
              <LatitudeDegrees>36.476647518575191497802734375</LatitudeDegrees>
              <LongitudeDegrees>-5.409870408475399017333984375</LongitudeDegrees>
            </Position>
            <AltitudeMeters>51.40000152587890625</AltitudeMeters>
            <DistanceMeters>NAN</DistanceMeters>
          </Trackpoint>
          <Trackpoint>
            <Time>2019-01-04T11:58:39.000Z</Time>
            <Position>
              <LatitudeDegrees>36.476633436977863311767578125</LatitudeDegrees>
              <LongitudeDegrees>-5.40987635962665081024169921875</LongitudeDegrees>
            </Position>
            <AltitudeMeters>51.40000152587890625</AltitudeMeters>
            <DistanceMeters>NAN</DistanceMeters>
          </Trackpoint>
          <Trackpoint>
            <Time>2019-01-04T11:58:40.000Z</Time>
            <Position>
              <LatitudeDegrees>36.47661960683763027191162109375</LatitudeDegrees>
              <LongitudeDegrees>-5.40988205932080745697021484375</LongitudeDegrees>
            </Position>
            <AltitudeMeters>51.40000152587890625</AltitudeMeters>
            <DistanceMeters>NAN</DistanceMeters>
          </Trackpoint>
          <Trackpoint>
            <Time>2019-01-04T11:58:41.000Z</Time>
            <Position>
              <LatitudeDegrees>36.47660669870674610137939453125</LatitudeDegrees>
              <LongitudeDegrees>-5.4098859988152980804443359375</LongitudeDegrees>
            </Position>
            <AltitudeMeters>51.200000762939453125</AltitudeMeters>
            <DistanceMeters>NAN</DistanceMeters>
          </Trackpoint>
          <Trackpoint>
            <Time>2019-01-04T11:58:42.000Z</Time>
            <Position>
              <LatitudeDegrees>36.47659345529973506927490234375</LatitudeDegrees>
              <LongitudeDegrees>-5.409890525043010711669921875</LongitudeDegrees>
            </Position>
            <AltitudeMeters>51.200000762939453125</AltitudeMeters>
            <DistanceMeters>NAN</DistanceMeters>
          </Trackpoint>
          <Trackpoint>
            <Time>2019-01-04T11:58:43.000Z</Time>
            <Position>
              <LatitudeDegrees>36.47658004425466060638427734375</LatitudeDegrees>
              <LongitudeDegrees>-5.40989379398524761199951171875</LongitudeDegrees>
            </Position>
            <AltitudeMeters>51</AltitudeMeters>
            <DistanceMeters>NAN</DistanceMeters>
          </Trackpoint>
          <Trackpoint>
            <Time>2019-01-04T11:58:44.000Z</Time>
            <Position>
              <LatitudeDegrees>36.4765672199428081512451171875</LatitudeDegrees>
              <LongitudeDegrees>-5.40989714674651622772216796875</LongitudeDegrees>
            </Position>
            <AltitudeMeters>51</AltitudeMeters>
            <DistanceMeters>NAN</DistanceMeters>
          </Trackpoint>
          <Trackpoint>
            <Time>2019-01-04T11:58:45.000Z</Time>
            <Position>
              <LatitudeDegrees>36.47655540145933628082275390625</LatitudeDegrees>
              <LongitudeDegrees>-5.40989949367940425872802734375</LongitudeDegrees>
            </Position>
            <AltitudeMeters>50.799999237060546875</AltitudeMeters>
            <DistanceMeters>NAN</DistanceMeters>
          </Trackpoint>
          <Trackpoint>
            <Time>2019-01-04T11:58:46.000Z</Time>
            <Position>
              <LatitudeDegrees>36.47654299624264240264892578125</LatitudeDegrees>
              <LongitudeDegrees>-5.40990184061229228973388671875</LongitudeDegrees>
            </Position>
            <AltitudeMeters>50.59999847412109375</AltitudeMeters>
            <DistanceMeters>NAN</DistanceMeters>
          </Trackpoint>
          <Trackpoint>
            <Time>2019-01-04T11:58:47.000Z</Time>
            <Position>
              <LatitudeDegrees>36.47652975283563137054443359375</LatitudeDegrees>
              <LongitudeDegrees>-5.40990351699292659759521484375</LongitudeDegrees>
            </Position>
            <AltitudeMeters>50.59999847412109375</AltitudeMeters>
            <DistanceMeters>NAN</DistanceMeters>
          </Trackpoint>
          <Trackpoint>
            <Time>2019-01-04T11:58:48.000Z</Time>
            <Position>
              <LatitudeDegrees>36.47651734761893749237060546875</LatitudeDegrees>
              <LongitudeDegrees>-5.40990619920194149017333984375</LongitudeDegrees>
            </Position>
            <AltitudeMeters>50.40000152587890625</AltitudeMeters>
            <DistanceMeters>NAN</DistanceMeters>
          </Trackpoint>
          <Trackpoint>
            <Time>2019-01-04T11:58:49.000Z</Time>
            <Position>
              <LatitudeDegrees>36.47650636732578277587890625</LatitudeDegrees>
              <LongitudeDegrees>-5.40990871377289295196533203125</LongitudeDegrees>
            </Position>
            <AltitudeMeters>50.200000762939453125</AltitudeMeters>
            <DistanceMeters>NAN</DistanceMeters>
          </Trackpoint>
          <Trackpoint>
            <Time>2019-01-04T11:58:50.000Z</Time>
            <Position>
              <LatitudeDegrees>36.476494632661342620849609375</LatitudeDegrees>
              <LongitudeDegrees>-5.4099150002002716064453125</LongitudeDegrees>
            </Position>
            <AltitudeMeters>50.200000762939453125</AltitudeMeters>
            <DistanceMeters>NAN</DistanceMeters>
          </Trackpoint>
          <Trackpoint>
            <Time>2019-01-04T11:58:51.000Z</Time>
            <Position>
              <LatitudeDegrees>36.4764797128736972808837890625</LatitudeDegrees>
              <LongitudeDegrees>-5.40991843678057193756103515625</LongitudeDegrees>
            </Position>
            <AltitudeMeters>50.200000762939453125</AltitudeMeters>
            <DistanceMeters>NAN</DistanceMeters>
          </Trackpoint>
          <Trackpoint>
            <Time>2019-01-04T11:58:52.000Z</Time>
            <Position>
              <LatitudeDegrees>36.47646487690508365631103515625</LatitudeDegrees>
              <LongitudeDegrees>-5.40992178954184055328369140625</LongitudeDegrees>
            </Position>
            <AltitudeMeters>50</AltitudeMeters>
            <DistanceMeters>NAN</DistanceMeters>
          </Trackpoint>
          <Trackpoint>
            <Time>2019-01-04T11:58:53.000Z</Time>
            <Position>
              <LatitudeDegrees>36.47645129822194576263427734375</LatitudeDegrees>
              <LongitudeDegrees>-5.40992648340761661529541015625</LongitudeDegrees>
            </Position>
            <AltitudeMeters>50</AltitudeMeters>
            <DistanceMeters>NAN</DistanceMeters>
          </Trackpoint>
          <Trackpoint>
            <Time>2019-01-04T11:58:54.000Z</Time>
            <Position>
              <LatitudeDegrees>36.47643554024398326873779296875</LatitudeDegrees>
              <LongitudeDegrees>-5.4099309258162975311279296875</LongitudeDegrees>
            </Position>
            <AltitudeMeters>50</AltitudeMeters>
            <DistanceMeters>NAN</DistanceMeters>
          </Trackpoint>
          <Trackpoint>
            <Time>2019-01-04T11:58:55.000Z</Time>
            <Position>
              <LatitudeDegrees>36.476419530808925628662109375</LatitudeDegrees>
              <LongitudeDegrees>-5.4099352844059467315673828125</LongitudeDegrees>
            </Position>
            <AltitudeMeters>50</AltitudeMeters>
            <DistanceMeters>NAN</DistanceMeters>
          </Trackpoint>
          <Trackpoint>
            <Time>2019-01-04T11:58:56.000Z</Time>
            <Position>
              <LatitudeDegrees>36.4764039404690265655517578125</LatitudeDegrees>
              <LongitudeDegrees>-5.409940145909786224365234375</LongitudeDegrees>
            </Position>
            <AltitudeMeters>49.799999237060546875</AltitudeMeters>
            <DistanceMeters>NAN</DistanceMeters>
          </Trackpoint>
          <Trackpoint>
            <Time>2019-01-04T11:58:57.000Z</Time>
            <Position>
              <LatitudeDegrees>36.4763881824910640716552734375</LatitudeDegrees>
              <LongitudeDegrees>-5.40994517505168914794921875</LongitudeDegrees>
            </Position>
            <AltitudeMeters>49.799999237060546875</AltitudeMeters>
            <DistanceMeters>NAN</DistanceMeters>
          </Trackpoint>
          <Trackpoint>
            <Time>2019-01-04T11:58:58.000Z</Time>
            <Position>
              <LatitudeDegrees>36.47637234069406986236572265625</LatitudeDegrees>
              <LongitudeDegrees>-5.40994995273649692535400390625</LongitudeDegrees>
            </Position>
            <AltitudeMeters>49.799999237060546875</AltitudeMeters>
            <DistanceMeters>NAN</DistanceMeters>
          </Trackpoint>
          <Trackpoint>
            <Time>2019-01-04T11:58:59.000Z</Time>
            <Position>
              <LatitudeDegrees>36.4763563312590122222900390625</LatitudeDegrees>
              <LongitudeDegrees>-5.40995531715452671051025390625</LongitudeDegrees>
            </Position>
            <AltitudeMeters>49.799999237060546875</AltitudeMeters>
            <DistanceMeters>NAN</DistanceMeters>
          </Trackpoint>
          <Trackpoint>
            <Time>2019-01-04T11:59:00.000Z</Time>
            <Position>
              <LatitudeDegrees>36.47633998654782772064208984375</LatitudeDegrees>
              <LongitudeDegrees>-5.40996202267706394195556640625</LongitudeDegrees>
            </Position>
            <AltitudeMeters>50</AltitudeMeters>
            <DistanceMeters>NAN</DistanceMeters>
          </Trackpoint>
          <Trackpoint>
            <Time>2019-01-04T11:59:01.000Z</Time>
            <Position>
              <LatitudeDegrees>36.4763224683701992034912109375</LatitudeDegrees>
              <LongitudeDegrees>-5.4099657945334911346435546875</LongitudeDegrees>
            </Position>
            <AltitudeMeters>50.200000762939453125</AltitudeMeters>
            <DistanceMeters>NAN</DistanceMeters>
          </Trackpoint>
          <Trackpoint>
            <Time>2019-01-04T11:59:02.000Z</Time>
            <Position>
              <LatitudeDegrees>36.47630712948739528656005859375</LatitudeDegrees>
              <LongitudeDegrees>-5.40996931493282318115234375</LongitudeDegrees>
            </Position>
            <AltitudeMeters>50.200000762939453125</AltitudeMeters>
            <DistanceMeters>NAN</DistanceMeters>
          </Trackpoint>
          <Trackpoint>
            <Time>2019-01-04T11:59:03.000Z</Time>
            <Position>
              <LatitudeDegrees>36.47629388608038425445556640625</LatitudeDegrees>
              <LongitudeDegrees>-5.4099735058844089508056640625</LongitudeDegrees>
            </Position>
            <AltitudeMeters>50.200000762939453125</AltitudeMeters>
            <DistanceMeters>NAN</DistanceMeters>
          </Trackpoint>
          <Trackpoint>
            <Time>2019-01-04T11:59:04.000Z</Time>
            <Position>
              <LatitudeDegrees>36.476283408701419830322265625</LatitudeDegrees>
              <LongitudeDegrees>-5.40997895412147045135498046875</LongitudeDegrees>
            </Position>
            <AltitudeMeters>50.200000762939453125</AltitudeMeters>
            <DistanceMeters>NAN</DistanceMeters>
          </Trackpoint>
          <Trackpoint>
            <Time>2019-01-04T11:59:05.000Z</Time>
            <Position>
              <LatitudeDegrees>36.4762721769511699676513671875</LatitudeDegrees>
              <LongitudeDegrees>-5.4099838994443416595458984375</LongitudeDegrees>
            </Position>
            <AltitudeMeters>50</AltitudeMeters>
            <DistanceMeters>NAN</DistanceMeters>
          </Trackpoint>
          <Trackpoint>
            <Time>2019-01-04T11:59:06.000Z</Time>
            <Position>
              <LatitudeDegrees>36.47626287303864955902099609375</LatitudeDegrees>
              <LongitudeDegrees>-5.40998700074851512908935546875</LongitudeDegrees>
            </Position>
            <AltitudeMeters>49.799999237060546875</AltitudeMeters>
            <DistanceMeters>NAN</DistanceMeters>
          </Trackpoint>
          <Trackpoint>
            <Time>2019-01-04T11:59:07.000Z</Time>
            <Position>
              <LatitudeDegrees>36.47625298239290714263916015625</LatitudeDegrees>
              <LongitudeDegrees>-5.40999018587172031402587890625</LongitudeDegrees>
            </Position>
            <AltitudeMeters>49.59999847412109375</AltitudeMeters>
            <DistanceMeters>NAN</DistanceMeters>
          </Trackpoint>
          <Trackpoint>
            <Time>2019-01-04T11:59:08.000Z</Time>
            <Position>
              <LatitudeDegrees>36.476241834461688995361328125</LatitudeDegrees>
              <LongitudeDegrees>-5.409993790090084075927734375</LongitudeDegrees>
            </Position>
            <AltitudeMeters>49.59999847412109375</AltitudeMeters>
            <DistanceMeters>NAN</DistanceMeters>
          </Trackpoint>
          <Trackpoint>
            <Time>2019-01-04T11:59:09.000Z</Time>
            <Position>
              <LatitudeDegrees>36.476229093968868255615234375</LatitudeDegrees>
              <LongitudeDegrees>-5.40999923832714557647705078125</LongitudeDegrees>
            </Position>
            <AltitudeMeters>49.40000152587890625</AltitudeMeters>
            <DistanceMeters>NAN</DistanceMeters>
          </Trackpoint>
          <Trackpoint>
            <Time>2019-01-04T11:59:10.000Z</Time>
            <Position>
              <LatitudeDegrees>36.476217694580554962158203125</LatitudeDegrees>
              <LongitudeDegrees>-5.41000443510711193084716796875</LongitudeDegrees>
            </Position>
            <AltitudeMeters>49.40000152587890625</AltitudeMeters>
            <DistanceMeters>NAN</DistanceMeters>
          </Trackpoint>
          <Trackpoint>
            <Time>2019-01-04T11:59:11.000Z</Time>
            <Position>
              <LatitudeDegrees>36.47620554082095623016357421875</LatitudeDegrees>
              <LongitudeDegrees>-5.41000929661095142364501953125</LongitudeDegrees>
            </Position>
            <AltitudeMeters>49.40000152587890625</AltitudeMeters>
            <DistanceMeters>NAN</DistanceMeters>
          </Trackpoint>
          <Trackpoint>
            <Time>2019-01-04T11:59:12.000Z</Time>
            <Position>
              <LatitudeDegrees>36.4761927165091037750244140625</LatitudeDegrees>
              <LongitudeDegrees>-5.4100107215344905853271484375</LongitudeDegrees>
            </Position>
            <AltitudeMeters>49.40000152587890625</AltitudeMeters>
            <DistanceMeters>NAN</DistanceMeters>
          </Trackpoint>
          <Trackpoint>
            <Time>2019-01-04T11:59:13.000Z</Time>
            <Position>
              <LatitudeDegrees>36.476180814206600189208984375</LatitudeDegrees>
              <LongitudeDegrees>-5.41001248173415660858154296875</LongitudeDegrees>
            </Position>
            <AltitudeMeters>49.59999847412109375</AltitudeMeters>
            <DistanceMeters>NAN</DistanceMeters>
          </Trackpoint>
          <Trackpoint>
            <Time>2019-01-04T11:59:14.000Z</Time>
            <Position>
              <LatitudeDegrees>36.47616882808506488800048828125</LatitudeDegrees>
              <LongitudeDegrees>-5.41001600213348865509033203125</LongitudeDegrees>
            </Position>
            <AltitudeMeters>49.40000152587890625</AltitudeMeters>
            <DistanceMeters>NAN</DistanceMeters>
          </Trackpoint>
          <Trackpoint>
            <Time>2019-01-04T11:59:15.000Z</Time>
            <Position>
              <LatitudeDegrees>36.4761565066874027252197265625</LatitudeDegrees>
              <LongitudeDegrees>-5.4100201092660427093505859375</LongitudeDegrees>
            </Position>
            <AltitudeMeters>49.40000152587890625</AltitudeMeters>
            <DistanceMeters>NAN</DistanceMeters>
          </Trackpoint>
          <Trackpoint>
            <Time>2019-01-04T11:59:16.000Z</Time>
            <Position>
              <LatitudeDegrees>36.4761424250900745391845703125</LatitudeDegrees>
              <LongitudeDegrees>-5.4100237973034381866455078125</LongitudeDegrees>
            </Position>
            <AltitudeMeters>49.40000152587890625</AltitudeMeters>
            <DistanceMeters>NAN</DistanceMeters>
          </Trackpoint>
          <Trackpoint>
            <Time>2019-01-04T11:59:17.000Z</Time>
            <Position>
              <LatitudeDegrees>36.4761300198733806610107421875</LatitudeDegrees>
              <LongitudeDegrees>-5.41002723388373851776123046875</LongitudeDegrees>
            </Position>
            <AltitudeMeters>49.40000152587890625</AltitudeMeters>
            <DistanceMeters>NAN</DistanceMeters>
          </Trackpoint>
          <Trackpoint>
            <Time>2019-01-04T11:59:18.000Z</Time>
            <Position>
              <LatitudeDegrees>36.47611535154283046722412109375</LatitudeDegrees>
              <LongitudeDegrees>-5.41003243066370487213134765625</LongitudeDegrees>
            </Position>
            <AltitudeMeters>49.200000762939453125</AltitudeMeters>
            <DistanceMeters>NAN</DistanceMeters>
          </Trackpoint>
          <Trackpoint>
            <Time>2019-01-04T11:59:19.000Z</Time>
            <Position>
              <LatitudeDegrees>36.476102359592914581298828125</LatitudeDegrees>
              <LongitudeDegrees>-5.4100385494530200958251953125</LongitudeDegrees>
            </Position>
            <AltitudeMeters>49.200000762939453125</AltitudeMeters>
            <DistanceMeters>NAN</DistanceMeters>
          </Trackpoint>
          <Trackpoint>
            <Time>2019-01-04T11:59:20.000Z</Time>
            <Position>
              <LatitudeDegrees>36.47608668543398380279541015625</LatitudeDegrees>
              <LongitudeDegrees>-5.41004450060427188873291015625</LongitudeDegrees>
            </Position>
            <AltitudeMeters>49.200000762939453125</AltitudeMeters>
            <DistanceMeters>NAN</DistanceMeters>
          </Trackpoint>
          <Trackpoint>
            <Time>2019-01-04T11:59:21.000Z</Time>
            <Position>
              <LatitudeDegrees>36.47607226856052875518798828125</LatitudeDegrees>
              <LongitudeDegrees>-5.410049445927143096923828125</LongitudeDegrees>
            </Position>
            <AltitudeMeters>49.200000762939453125</AltitudeMeters>
            <DistanceMeters>NAN</DistanceMeters>
          </Trackpoint>
          <Trackpoint>
            <Time>2019-01-04T11:59:22.000Z</Time>
            <Position>
              <LatitudeDegrees>36.47605885751545429229736328125</LatitudeDegrees>
              <LongitudeDegrees>-5.41005657054483890533447265625</LongitudeDegrees>
            </Position>
            <AltitudeMeters>49.40000152587890625</AltitudeMeters>
            <DistanceMeters>NAN</DistanceMeters>
          </Trackpoint>
          <Trackpoint>
            <Time>2019-01-04T11:59:23.000Z</Time>
            <Position>
              <LatitudeDegrees>36.4760475419461727142333984375</LatitudeDegrees>
              <LongitudeDegrees>-5.4100640304386615753173828125</LongitudeDegrees>
            </Position>
            <AltitudeMeters>49.40000152587890625</AltitudeMeters>
            <DistanceMeters>NAN</DistanceMeters>
          </Trackpoint>
          <Trackpoint>
            <Time>2019-01-04T11:59:24.000Z</Time>
            <Position>
              <LatitudeDegrees>36.4760344661772251129150390625</LatitudeDegrees>
              <LongitudeDegrees>-5.41006989777088165283203125</LongitudeDegrees>
            </Position>
            <AltitudeMeters>49.40000152587890625</AltitudeMeters>
            <DistanceMeters>NAN</DistanceMeters>
          </Trackpoint>
          <Trackpoint>
            <Time>2019-01-04T11:59:25.000Z</Time>
            <Position>
              <LatitudeDegrees>36.47602046839892864227294921875</LatitudeDegrees>
              <LongitudeDegrees>-5.41007450781762599945068359375</LongitudeDegrees>
            </Position>
            <AltitudeMeters>49.59999847412109375</AltitudeMeters>
            <DistanceMeters>NAN</DistanceMeters>
          </Trackpoint>
          <Trackpoint>
            <Time>2019-01-04T11:59:26.000Z</Time>
            <Position>
              <LatitudeDegrees>36.47600471042096614837646484375</LatitudeDegrees>
              <LongitudeDegrees>-5.4100821353495121002197265625</LongitudeDegrees>
            </Position>
            <AltitudeMeters>49.59999847412109375</AltitudeMeters>
            <DistanceMeters>NAN</DistanceMeters>
          </Trackpoint>
          <Trackpoint>
            <Time>2019-01-04T11:59:27.000Z</Time>
            <Position>
              <LatitudeDegrees>36.475989036262035369873046875</LatitudeDegrees>
              <LongitudeDegrees>-5.41008708067238330841064453125</LongitudeDegrees>
            </Position>
            <AltitudeMeters>49.799999237060546875</AltitudeMeters>
            <DistanceMeters>NAN</DistanceMeters>
          </Trackpoint>
          <Trackpoint>
            <Time>2019-01-04T11:59:28.000Z</Time>
            <Position>
              <LatitudeDegrees>36.47597453556954860687255859375</LatitudeDegrees>
              <LongitudeDegrees>-5.41009395383298397064208984375</LongitudeDegrees>
            </Position>
            <AltitudeMeters>49.59999847412109375</AltitudeMeters>
            <DistanceMeters>NAN</DistanceMeters>
          </Trackpoint>
          <Trackpoint>
            <Time>2019-01-04T11:59:29.000Z</Time>
            <Position>
              <LatitudeDegrees>36.4759576879441738128662109375</LatitudeDegrees>
              <LongitudeDegrees>-5.4100972227752208709716796875</LongitudeDegrees>
            </Position>
            <AltitudeMeters>49.59999847412109375</AltitudeMeters>
            <DistanceMeters>NAN</DistanceMeters>
          </Trackpoint>
          <Trackpoint>
            <Time>2019-01-04T11:59:30.000Z</Time>
            <Position>
              <LatitudeDegrees>36.47594016976654529571533203125</LatitudeDegrees>
              <LongitudeDegrees>-5.41010065935552120208740234375</LongitudeDegrees>
            </Position>
            <AltitudeMeters>49.40000152587890625</AltitudeMeters>
            <DistanceMeters>NAN</DistanceMeters>
          </Trackpoint>
          <Trackpoint>
            <Time>2019-01-04T11:59:31.000Z</Time>
            <Position>
              <LatitudeDegrees>36.47592566907405853271484375</LatitudeDegrees>
              <LongitudeDegrees>-5.41010610759258270263671875</LongitudeDegrees>
            </Position>
            <AltitudeMeters>49.200000762939453125</AltitudeMeters>
            <DistanceMeters>NAN</DistanceMeters>
          </Trackpoint>
          <Trackpoint>
            <Time>2019-01-04T11:59:32.000Z</Time>
            <Position>
              <LatitudeDegrees>36.4759110845625400543212890625</LatitudeDegrees>
              <LongitudeDegrees>-5.41011088527739048004150390625</LongitudeDegrees>
            </Position>
            <AltitudeMeters>48.799999237060546875</AltitudeMeters>
            <DistanceMeters>NAN</DistanceMeters>
          </Trackpoint>
          <Trackpoint>
            <Time>2019-01-04T11:59:33.000Z</Time>
            <Position>
              <LatitudeDegrees>36.47589616477489471435546875</LatitudeDegrees>
              <LongitudeDegrees>-5.41011415421962738037109375</LongitudeDegrees>
            </Position>
            <AltitudeMeters>48.59999847412109375</AltitudeMeters>
            <DistanceMeters>NAN</DistanceMeters>
          </Trackpoint>
          <Trackpoint>
            <Time>2019-01-04T11:59:34.000Z</Time>
            <Position>
              <LatitudeDegrees>36.4758825860917568206787109375</LatitudeDegrees>
              <LongitudeDegrees>-5.41011675260961055755615234375</LongitudeDegrees>
            </Position>
            <AltitudeMeters>48.40000152587890625</AltitudeMeters>
            <DistanceMeters>NAN</DistanceMeters>
          </Trackpoint>
          <Trackpoint>
            <Time>2019-01-04T11:59:35.000Z</Time>
            <Position>
              <LatitudeDegrees>36.47586925886571407318115234375</LatitudeDegrees>
              <LongitudeDegrees>-5.41012085974216461181640625</LongitudeDegrees>
            </Position>
            <AltitudeMeters>48.40000152587890625</AltitudeMeters>
            <DistanceMeters>NAN</DistanceMeters>
          </Trackpoint>
          <Trackpoint>
            <Time>2019-01-04T11:59:36.000Z</Time>
            <Position>
              <LatitudeDegrees>36.47585618309676647186279296875</LatitudeDegrees>
              <LongitudeDegrees>-5.4101263917982578277587890625</LongitudeDegrees>
            </Position>
            <AltitudeMeters>48.40000152587890625</AltitudeMeters>
            <DistanceMeters>NAN</DistanceMeters>
          </Trackpoint>
          <Trackpoint>
            <Time>2019-01-04T11:59:37.000Z</Time>
            <Position>
              <LatitudeDegrees>36.47584361024200916290283203125</LatitudeDegrees>
              <LongitudeDegrees>-5.41013184003531932830810546875</LongitudeDegrees>
            </Position>
            <AltitudeMeters>48.59999847412109375</AltitudeMeters>
            <DistanceMeters>NAN</DistanceMeters>
          </Trackpoint>
          <Trackpoint>
            <Time>2019-01-04T11:59:38.000Z</Time>
            <Position>
              <LatitudeDegrees>36.47583313286304473876953125</LatitudeDegrees>
              <LongitudeDegrees>-5.410135947167873382568359375</LongitudeDegrees>
            </Position>
            <AltitudeMeters>48.59999847412109375</AltitudeMeters>
            <DistanceMeters>NAN</DistanceMeters>
          </Trackpoint>
          <Trackpoint>
            <Time>2019-01-04T11:59:39.000Z</Time>
            <Position>
              <LatitudeDegrees>36.475822068750858306884765625</LatitudeDegrees>
              <LongitudeDegrees>-5.41013871319591999053955078125</LongitudeDegrees>
            </Position>
            <AltitudeMeters>48.799999237060546875</AltitudeMeters>
            <DistanceMeters>NAN</DistanceMeters>
          </Trackpoint>
          <Trackpoint>
            <Time>2019-01-04T11:59:40.000Z</Time>
            <Position>
              <LatitudeDegrees>36.4758096635341644287109375</LatitudeDegrees>
              <LongitudeDegrees>-5.41014240123331546783447265625</LongitudeDegrees>
            </Position>
            <AltitudeMeters>48.799999237060546875</AltitudeMeters>
            <DistanceMeters>NAN</DistanceMeters>
          </Trackpoint>
          <Trackpoint>
            <Time>2019-01-04T11:59:41.000Z</Time>
            <Position>
              <LatitudeDegrees>36.4757964201271533966064453125</LatitudeDegrees>
              <LongitudeDegrees>-5.41014592163264751434326171875</LongitudeDegrees>
            </Position>
            <AltitudeMeters>49</AltitudeMeters>
            <DistanceMeters>NAN</DistanceMeters>
          </Trackpoint>
          <Trackpoint>
            <Time>2019-01-04T11:59:42.000Z</Time>
            <Position>
              <LatitudeDegrees>36.475781500339508056640625</LatitudeDegrees>
              <LongitudeDegrees>-5.41014910675585269927978515625</LongitudeDegrees>
            </Position>
            <AltitudeMeters>49</AltitudeMeters>
            <DistanceMeters>NAN</DistanceMeters>
          </Trackpoint>
          <Trackpoint>
            <Time>2019-01-04T11:59:43.000Z</Time>
            <Position>
              <LatitudeDegrees>36.47576607763767242431640625</LatitudeDegrees>
              <LongitudeDegrees>-5.410153381526470184326171875</LongitudeDegrees>
            </Position>
            <AltitudeMeters>49</AltitudeMeters>
            <DistanceMeters>NAN</DistanceMeters>
          </Trackpoint>
          <Trackpoint>
            <Time>2019-01-04T11:59:44.000Z</Time>
            <Position>
              <LatitudeDegrees>36.4757511578500270843505859375</LatitudeDegrees>
              <LongitudeDegrees>-5.41015782393515110015869140625</LongitudeDegrees>
            </Position>
            <AltitudeMeters>49</AltitudeMeters>
            <DistanceMeters>NAN</DistanceMeters>
          </Trackpoint>
          <Trackpoint>
            <Time>2019-01-04T11:59:45.000Z</Time>
            <Position>
              <LatitudeDegrees>36.47573523223400115966796875</LatitudeDegrees>
              <LongitudeDegrees>-5.4101617634296417236328125</LongitudeDegrees>
            </Position>
            <AltitudeMeters>49.200000762939453125</AltitudeMeters>
            <DistanceMeters>NAN</DistanceMeters>
          </Trackpoint>
          <Trackpoint>
            <Time>2019-01-04T11:59:46.000Z</Time>
            <Position>
              <LatitudeDegrees>36.47572006098926067352294921875</LatitudeDegrees>
              <LongitudeDegrees>-5.410164780914783477783203125</LongitudeDegrees>
            </Position>
            <AltitudeMeters>49.40000152587890625</AltitudeMeters>
            <DistanceMeters>NAN</DistanceMeters>
          </Trackpoint>
          <Trackpoint>
            <Time>2019-01-04T11:59:47.000Z</Time>
            <Position>
              <LatitudeDegrees>36.4757042191922664642333984375</LatitudeDegrees>
              <LongitudeDegrees>-5.41016570292413234710693359375</LongitudeDegrees>
            </Position>
            <AltitudeMeters>49.40000152587890625</AltitudeMeters>
            <DistanceMeters>NAN</DistanceMeters>
          </Trackpoint>
          <Trackpoint>
            <Time>2019-01-04T11:59:48.000Z</Time>
            <Position>
              <LatitudeDegrees>36.4756908081471920013427734375</LatitudeDegrees>
              <LongitudeDegrees>-5.4101676307618618011474609375</LongitudeDegrees>
            </Position>
            <AltitudeMeters>49.59999847412109375</AltitudeMeters>
            <DistanceMeters>NAN</DistanceMeters>
          </Trackpoint>
          <Trackpoint>
            <Time>2019-01-04T11:59:49.000Z</Time>
            <Position>
              <LatitudeDegrees>36.4756760559976100921630859375</LatitudeDegrees>
              <LongitudeDegrees>-5.41017039678990840911865234375</LongitudeDegrees>
            </Position>
            <AltitudeMeters>49.799999237060546875</AltitudeMeters>
            <DistanceMeters>NAN</DistanceMeters>
          </Trackpoint>
          <Trackpoint>
            <Time>2019-01-04T11:59:50.000Z</Time>
            <Position>
              <LatitudeDegrees>36.475661136209964752197265625</LatitudeDegrees>
              <LongitudeDegrees>-5.41017492301762104034423828125</LongitudeDegrees>
            </Position>
            <AltitudeMeters>49.799999237060546875</AltitudeMeters>
            <DistanceMeters>NAN</DistanceMeters>
          </Trackpoint>
          <Trackpoint>
            <Time>2019-01-04T11:59:51.000Z</Time>
            <Position>
              <LatitudeDegrees>36.47564697079360485076904296875</LatitudeDegrees>
              <LongitudeDegrees>-5.41017986834049224853515625</LongitudeDegrees>
            </Position>
            <AltitudeMeters>49.799999237060546875</AltitudeMeters>
            <DistanceMeters>NAN</DistanceMeters>
          </Trackpoint>
          <Trackpoint>
            <Time>2019-01-04T11:59:52.000Z</Time>
            <Position>
              <LatitudeDegrees>36.47563406266272068023681640625</LatitudeDegrees>
              <LongitudeDegrees>-5.410184562206268310546875</LongitudeDegrees>
            </Position>
            <AltitudeMeters>49.799999237060546875</AltitudeMeters>
            <DistanceMeters>NAN</DistanceMeters>
          </Trackpoint>
          <Trackpoint>
            <Time>2019-01-04T11:59:53.000Z</Time>
            <Position>
              <LatitudeDegrees>36.47562098689377307891845703125</LatitudeDegrees>
              <LongitudeDegrees>-5.4101894237101078033447265625</LongitudeDegrees>
            </Position>
            <AltitudeMeters>49.799999237060546875</AltitudeMeters>
            <DistanceMeters>NAN</DistanceMeters>
          </Trackpoint>
          <Trackpoint>
            <Time>2019-01-04T11:59:54.000Z</Time>
            <Position>
              <LatitudeDegrees>36.4756084978580474853515625</LatitudeDegrees>
              <LongitudeDegrees>-5.41019369848072528839111328125</LongitudeDegrees>
            </Position>
            <AltitudeMeters>49.799999237060546875</AltitudeMeters>
            <DistanceMeters>NAN</DistanceMeters>
          </Trackpoint>
          <Trackpoint>
            <Time>2019-01-04T11:59:55.000Z</Time>
            <Position>
              <LatitudeDegrees>36.475594080984592437744140625</LatitudeDegrees>
              <LongitudeDegrees>-5.41019855998456478118896484375</LongitudeDegrees>
            </Position>
            <AltitudeMeters>49.799999237060546875</AltitudeMeters>
            <DistanceMeters>NAN</DistanceMeters>
          </Trackpoint>
          <Trackpoint>
            <Time>2019-01-04T11:59:56.000Z</Time>
            <Position>
              <LatitudeDegrees>36.47558008320629596710205078125</LatitudeDegrees>
              <LongitudeDegrees>-5.41020409204065799713134765625</LongitudeDegrees>
            </Position>
            <AltitudeMeters>49.799999237060546875</AltitudeMeters>
            <DistanceMeters>NAN</DistanceMeters>
          </Trackpoint>
          <Trackpoint>
            <Time>2019-01-04T11:59:57.000Z</Time>
            <Position>
              <LatitudeDegrees>36.475565247237682342529296875</LatitudeDegrees>
              <LongitudeDegrees>-5.4102088697254657745361328125</LongitudeDegrees>
            </Position>
            <AltitudeMeters>49.59999847412109375</AltitudeMeters>
            <DistanceMeters>NAN</DistanceMeters>
          </Trackpoint>
          <Trackpoint>
            <Time>2019-01-04T11:59:58.000Z</Time>
            <Position>
              <LatitudeDegrees>36.47554990835487842559814453125</LatitudeDegrees>
              <LongitudeDegrees>-5.4102135635912418365478515625</LongitudeDegrees>
            </Position>
            <AltitudeMeters>49.59999847412109375</AltitudeMeters>
            <DistanceMeters>NAN</DistanceMeters>
          </Trackpoint>
          <Trackpoint>
            <Time>2019-01-04T11:59:59.000Z</Time>
            <Position>
              <LatitudeDegrees>36.4755392633378505706787109375</LatitudeDegrees>
              <LongitudeDegrees>-5.4102189280092716217041015625</LongitudeDegrees>
            </Position>
            <AltitudeMeters>49.59999847412109375</AltitudeMeters>
            <DistanceMeters>NAN</DistanceMeters>
          </Trackpoint>
          <Trackpoint>
            <Time>2019-01-04T12:00:00.000Z</Time>
            <Position>
              <LatitudeDegrees>36.475527025759220123291015625</LatitudeDegrees>
              <LongitudeDegrees>-5.41022387333214282989501953125</LongitudeDegrees>
            </Position>
            <AltitudeMeters>49.40000152587890625</AltitudeMeters>
            <DistanceMeters>NAN</DistanceMeters>
          </Trackpoint>
          <Trackpoint>
            <Time>2019-01-04T12:00:01.000Z</Time>
            <Position>
              <LatitudeDegrees>36.47551520727574825286865234375</LatitudeDegrees>
              <LongitudeDegrees>-5.41022806428372859954833984375</LongitudeDegrees>
            </Position>
            <AltitudeMeters>49.200000762939453125</AltitudeMeters>
            <DistanceMeters>NAN</DistanceMeters>
          </Trackpoint>
          <Trackpoint>
            <Time>2019-01-04T12:00:02.000Z</Time>
            <Position>
              <LatitudeDegrees>36.47550431080162525177001953125</LatitudeDegrees>
              <LongitudeDegrees>-5.41023326106369495391845703125</LongitudeDegrees>
            </Position>
            <AltitudeMeters>49.200000762939453125</AltitudeMeters>
            <DistanceMeters>NAN</DistanceMeters>
          </Trackpoint>
          <Trackpoint>
            <Time>2019-01-04T12:00:03.000Z</Time>
            <Position>
              <LatitudeDegrees>36.475490815937519073486328125</LatitudeDegrees>
              <LongitudeDegrees>-5.4102377034723758697509765625</LongitudeDegrees>
            </Position>
            <AltitudeMeters>49.200000762939453125</AltitudeMeters>
            <DistanceMeters>NAN</DistanceMeters>
          </Trackpoint>
          <Trackpoint>
            <Time>2019-01-04T12:00:04.000Z</Time>
            <Position>
              <LatitudeDegrees>36.47547774016857147216796875</LatitudeDegrees>
              <LongitudeDegrees>-5.41024147532880306243896484375</LongitudeDegrees>
            </Position>
            <AltitudeMeters>49</AltitudeMeters>
            <DistanceMeters>NAN</DistanceMeters>
          </Trackpoint>
          <Trackpoint>
            <Time>2019-01-04T12:00:05.000Z</Time>
            <Position>
              <LatitudeDegrees>36.4754644967615604400634765625</LatitudeDegrees>
              <LongitudeDegrees>-5.41024533100426197052001953125</LongitudeDegrees>
            </Position>
            <AltitudeMeters>49</AltitudeMeters>
            <DistanceMeters>NAN</DistanceMeters>
          </Trackpoint>
          <Trackpoint>
            <Time>2019-01-04T12:00:06.000Z</Time>
            <Position>
              <LatitudeDegrees>36.4754514209926128387451171875</LatitudeDegrees>
              <LongitudeDegrees>-5.41025002487003803253173828125</LongitudeDegrees>
            </Position>
            <AltitudeMeters>49</AltitudeMeters>
            <DistanceMeters>NAN</DistanceMeters>
          </Trackpoint>
          <Trackpoint>
            <Time>2019-01-04T12:00:07.000Z</Time>
            <Position>
              <LatitudeDegrees>36.47543809376657009124755859375</LatitudeDegrees>
              <LongitudeDegrees>-5.41025538928806781768798828125</LongitudeDegrees>
            </Position>
            <AltitudeMeters>48.799999237060546875</AltitudeMeters>
            <DistanceMeters>NAN</DistanceMeters>
          </Trackpoint>
          <Trackpoint>
            <Time>2019-01-04T12:00:08.000Z</Time>
            <Position>
              <LatitudeDegrees>36.47542468272149562835693359375</LatitudeDegrees>
              <LongitudeDegrees>-5.41025974787771701812744140625</LongitudeDegrees>
            </Position>
            <AltitudeMeters>48.799999237060546875</AltitudeMeters>
            <DistanceMeters>NAN</DistanceMeters>
          </Trackpoint>
          <Trackpoint>
            <Time>2019-01-04T12:00:09.000Z</Time>
            <Position>
              <LatitudeDegrees>36.47541244514286518096923828125</LatitudeDegrees>
              <LongitudeDegrees>-5.4102641902863979339599609375</LongitudeDegrees>
            </Position>
            <AltitudeMeters>48.799999237060546875</AltitudeMeters>
            <DistanceMeters>NAN</DistanceMeters>
          </Trackpoint>
          <Trackpoint>
            <Time>2019-01-04T12:00:10.000Z</Time>
            <Position>
              <LatitudeDegrees>36.47539953701198101043701171875</LatitudeDegrees>
              <LongitudeDegrees>-5.410269387066364288330078125</LongitudeDegrees>
            </Position>
            <AltitudeMeters>49</AltitudeMeters>
            <DistanceMeters>NAN</DistanceMeters>
          </Trackpoint>
          <Trackpoint>
            <Time>2019-01-04T12:00:11.000Z</Time>
            <Position>
              <LatitudeDegrees>36.4753890596330165863037109375</LatitudeDegrees>
              <LongitudeDegrees>-5.4102762602269649505615234375</LongitudeDegrees>
            </Position>
            <AltitudeMeters>49</AltitudeMeters>
            <DistanceMeters>NAN</DistanceMeters>
          </Trackpoint>
          <Trackpoint>
            <Time>2019-01-04T12:00:12.000Z</Time>
            <Position>
              <LatitudeDegrees>36.47537673823535442352294921875</LatitudeDegrees>
              <LongitudeDegrees>-5.4102819599211215972900390625</LongitudeDegrees>
            </Position>
            <AltitudeMeters>49</AltitudeMeters>
            <DistanceMeters>NAN</DistanceMeters>
          </Trackpoint>
          <Trackpoint>
            <Time>2019-01-04T12:00:13.000Z</Time>
            <Position>
              <LatitudeDegrees>36.4753629080951213836669921875</LatitudeDegrees>
              <LongitudeDegrees>-5.4102863185107707977294921875</LongitudeDegrees>
            </Position>
            <AltitudeMeters>49.200000762939453125</AltitudeMeters>
            <DistanceMeters>NAN</DistanceMeters>
          </Trackpoint>
          <Trackpoint>
            <Time>2019-01-04T12:00:14.000Z</Time>
            <Position>
              <LatitudeDegrees>36.47535075433552265167236328125</LatitudeDegrees>
              <LongitudeDegrees>-5.410288833081722259521484375</LongitudeDegrees>
            </Position>
            <AltitudeMeters>49.200000762939453125</AltitudeMeters>
            <DistanceMeters>NAN</DistanceMeters>
          </Trackpoint>
          <Trackpoint>
            <Time>2019-01-04T12:00:15.000Z</Time>
            <Position>
              <LatitudeDegrees>36.47533960640430450439453125</LatitudeDegrees>
              <LongitudeDegrees>-5.41029118001461029052734375</LongitudeDegrees>
            </Position>
            <AltitudeMeters>49.40000152587890625</AltitudeMeters>
            <DistanceMeters>NAN</DistanceMeters>
          </Trackpoint>
          <Trackpoint>
            <Time>2019-01-04T12:00:16.000Z</Time>
            <Position>
              <LatitudeDegrees>36.475327201187610626220703125</LatitudeDegrees>
              <LongitudeDegrees>-5.4102926887571811676025390625</LongitudeDegrees>
            </Position>
            <AltitudeMeters>49.40000152587890625</AltitudeMeters>
            <DistanceMeters>NAN</DistanceMeters>
          </Trackpoint>
          <Trackpoint>
            <Time>2019-01-04T12:00:17.000Z</Time>
            <Position>
              <LatitudeDegrees>36.47531521506607532501220703125</LatitudeDegrees>
              <LongitudeDegrees>-5.4102943651378154754638671875</LongitudeDegrees>
            </Position>
            <AltitudeMeters>49.40000152587890625</AltitudeMeters>
            <DistanceMeters>NAN</DistanceMeters>
          </Trackpoint>
          <Trackpoint>
            <Time>2019-01-04T12:00:18.000Z</Time>
            <Position>
              <LatitudeDegrees>36.4753018878400325775146484375</LatitudeDegrees>
              <LongitudeDegrees>-5.41029478423297405242919921875</LongitudeDegrees>
            </Position>
            <AltitudeMeters>49.40000152587890625</AltitudeMeters>
            <DistanceMeters>NAN</DistanceMeters>
          </Trackpoint>
          <Trackpoint>
            <Time>2019-01-04T12:00:19.000Z</Time>
            <Position>
              <LatitudeDegrees>36.47528973408043384552001953125</LatitudeDegrees>
              <LongitudeDegrees>-5.41029696352779865264892578125</LongitudeDegrees>
            </Position>
            <AltitudeMeters>49.40000152587890625</AltitudeMeters>
            <DistanceMeters>NAN</DistanceMeters>
          </Trackpoint>
          <Trackpoint>
            <Time>2019-01-04T12:00:20.000Z</Time>
            <Position>
              <LatitudeDegrees>36.4752774126827716827392578125</LatitudeDegrees>
              <LongitudeDegrees>-5.41029654443264007568359375</LongitudeDegrees>
            </Position>
            <AltitudeMeters>49.40000152587890625</AltitudeMeters>
            <DistanceMeters>NAN</DistanceMeters>
          </Trackpoint>
          <Trackpoint>
            <Time>2019-01-04T12:00:21.000Z</Time>
            <Position>
              <LatitudeDegrees>36.47526475600898265838623046875</LatitudeDegrees>
              <LongitudeDegrees>-5.410297214984893798828125</LongitudeDegrees>
            </Position>
            <AltitudeMeters>49.40000152587890625</AltitudeMeters>
            <DistanceMeters>NAN</DistanceMeters>
          </Trackpoint>
          <Trackpoint>
            <Time>2019-01-04T12:00:22.000Z</Time>
            <Position>
              <LatitudeDegrees>36.47525218315422534942626953125</LatitudeDegrees>
              <LongitudeDegrees>-5.4103000648319721221923828125</LongitudeDegrees>
            </Position>
            <AltitudeMeters>49.40000152587890625</AltitudeMeters>
            <DistanceMeters>NAN</DistanceMeters>
          </Trackpoint>
          <Trackpoint>
            <Time>2019-01-04T12:00:23.000Z</Time>
            <Position>
              <LatitudeDegrees>36.47524195723235607147216796875</LatitudeDegrees>
              <LongitudeDegrees>-5.41030400432646274566650390625</LongitudeDegrees>
            </Position>
            <AltitudeMeters>49.40000152587890625</AltitudeMeters>
            <DistanceMeters>NAN</DistanceMeters>
          </Trackpoint>
          <Trackpoint>
            <Time>2019-01-04T12:00:24.000Z</Time>
            <Position>
              <LatitudeDegrees>36.4752291329205036163330078125</LatitudeDegrees>
              <LongitudeDegrees>-5.41030853055417537689208984375</LongitudeDegrees>
            </Position>
            <AltitudeMeters>49.40000152587890625</AltitudeMeters>
            <DistanceMeters>NAN</DistanceMeters>
          </Trackpoint>
          <Trackpoint>
            <Time>2019-01-04T12:00:25.000Z</Time>
            <Position>
              <LatitudeDegrees>36.4752160571515560150146484375</LatitudeDegrees>
              <LongitudeDegrees>-5.410315655171871185302734375</LongitudeDegrees>
            </Position>
            <AltitudeMeters>49.40000152587890625</AltitudeMeters>
            <DistanceMeters>NAN</DistanceMeters>
          </Trackpoint>
          <Trackpoint>
            <Time>2019-01-04T12:00:26.000Z</Time>
            <Position>
              <LatitudeDegrees>36.47520323283970355987548828125</LatitudeDegrees>
              <LongitudeDegrees>-5.41032093577086925506591796875</LongitudeDegrees>
            </Position>
            <AltitudeMeters>49.40000152587890625</AltitudeMeters>
            <DistanceMeters>NAN</DistanceMeters>
          </Trackpoint>
          <Trackpoint>
            <Time>2019-01-04T12:00:27.000Z</Time>
            <Position>
              <LatitudeDegrees>36.4751882292330265045166015625</LatitudeDegrees>
              <LongitudeDegrees>-5.41032738983631134033203125</LongitudeDegrees>
            </Position>
            <AltitudeMeters>49.40000152587890625</AltitudeMeters>
            <DistanceMeters>NAN</DistanceMeters>
          </Trackpoint>
          <Trackpoint>
            <Time>2019-01-04T12:00:28.000Z</Time>
            <Position>
              <LatitudeDegrees>36.47517423145473003387451171875</LatitudeDegrees>
              <LongitudeDegrees>-5.41033334098756313323974609375</LongitudeDegrees>
            </Position>
            <AltitudeMeters>49.40000152587890625</AltitudeMeters>
            <DistanceMeters>NAN</DistanceMeters>
          </Trackpoint>
          <Trackpoint>
            <Time>2019-01-04T12:00:29.000Z</Time>
            <Position>
              <LatitudeDegrees>36.4751600660383701324462890625</LatitudeDegrees>
              <LongitudeDegrees>-5.41033837012946605682373046875</LongitudeDegrees>
            </Position>
            <AltitudeMeters>49.40000152587890625</AltitudeMeters>
            <DistanceMeters>NAN</DistanceMeters>
          </Trackpoint>
          <Trackpoint>
            <Time>2019-01-04T12:00:30.000Z</Time>
            <Position>
              <LatitudeDegrees>36.4751443080604076385498046875</LatitudeDegrees>
              <LongitudeDegrees>-5.41034390218555927276611328125</LongitudeDegrees>
            </Position>
            <AltitudeMeters>49.40000152587890625</AltitudeMeters>
            <DistanceMeters>NAN</DistanceMeters>
          </Trackpoint>
          <Trackpoint>
            <Time>2019-01-04T12:00:31.000Z</Time>
            <Position>
              <LatitudeDegrees>36.47512863390147686004638671875</LatitudeDegrees>
              <LongitudeDegrees>-5.41035018861293792724609375</LongitudeDegrees>
            </Position>
            <AltitudeMeters>49.59999847412109375</AltitudeMeters>
            <DistanceMeters>NAN</DistanceMeters>
          </Trackpoint>
          <Trackpoint>
            <Time>2019-01-04T12:00:32.000Z</Time>
            <Position>
              <LatitudeDegrees>36.47511354647576808929443359375</LatitudeDegrees>
              <LongitudeDegrees>-5.41035630740225315093994140625</LongitudeDegrees>
            </Position>
            <AltitudeMeters>49.799999237060546875</AltitudeMeters>
            <DistanceMeters>NAN</DistanceMeters>
          </Trackpoint>
          <Trackpoint>
            <Time>2019-01-04T12:00:33.000Z</Time>
            <Position>
              <LatitudeDegrees>36.4751000516116619110107421875</LatitudeDegrees>
              <LongitudeDegrees>-5.410363264381885528564453125</LongitudeDegrees>
            </Position>
            <AltitudeMeters>49.799999237060546875</AltitudeMeters>
            <DistanceMeters>NAN</DistanceMeters>
          </Trackpoint>
          <Trackpoint>
            <Time>2019-01-04T12:00:34.000Z</Time>
            <Position>
              <LatitudeDegrees>36.47508538328111171722412109375</LatitudeDegrees>
              <LongitudeDegrees>-5.410366617143154144287109375</LongitudeDegrees>
            </Position>
            <AltitudeMeters>49.799999237060546875</AltitudeMeters>
            <DistanceMeters>NAN</DistanceMeters>
          </Trackpoint>
          <Trackpoint>
            <Time>2019-01-04T12:00:35.000Z</Time>
            <Position>
              <LatitudeDegrees>36.4750708825886249542236328125</LatitudeDegrees>
              <LongitudeDegrees>-5.41037038899958133697509765625</LongitudeDegrees>
            </Position>
            <AltitudeMeters>49.799999237060546875</AltitudeMeters>
            <DistanceMeters>NAN</DistanceMeters>
          </Trackpoint>
          <Trackpoint>
            <Time>2019-01-04T12:00:36.000Z</Time>
            <Position>
              <LatitudeDegrees>36.47505638189613819122314453125</LatitudeDegrees>
              <LongitudeDegrees>-5.410374663770198822021484375</LongitudeDegrees>
            </Position>
            <AltitudeMeters>49.59999847412109375</AltitudeMeters>
            <DistanceMeters>NAN</DistanceMeters>
          </Trackpoint>
          <Trackpoint>
            <Time>2019-01-04T12:00:37.000Z</Time>
            <Position>
              <LatitudeDegrees>36.47504213266074657440185546875</LatitudeDegrees>
              <LongitudeDegrees>-5.41037793271243572235107421875</LongitudeDegrees>
            </Position>
            <AltitudeMeters>49.40000152587890625</AltitudeMeters>
            <DistanceMeters>NAN</DistanceMeters>
          </Trackpoint>
          <Trackpoint>
            <Time>2019-01-04T12:00:38.000Z</Time>
            <Position>
              <LatitudeDegrees>36.4750283025205135345458984375</LatitudeDegrees>
              <LongitudeDegrees>-5.4103801958262920379638671875</LongitudeDegrees>
            </Position>
            <AltitudeMeters>49.200000762939453125</AltitudeMeters>
            <DistanceMeters>NAN</DistanceMeters>
          </Trackpoint>
          <Trackpoint>
            <Time>2019-01-04T12:00:39.000Z</Time>
            <Position>
              <LatitudeDegrees>36.4750152267515659332275390625</LatitudeDegrees>
              <LongitudeDegrees>-5.41038178838789463043212890625</LongitudeDegrees>
            </Position>
            <AltitudeMeters>49</AltitudeMeters>
            <DistanceMeters>NAN</DistanceMeters>
          </Trackpoint>
          <Trackpoint>
            <Time>2019-01-04T12:00:40.000Z</Time>
            <Position>
              <LatitudeDegrees>36.47500257007777690887451171875</LatitudeDegrees>
              <LongitudeDegrees>-5.41038547642529010772705078125</LongitudeDegrees>
            </Position>
            <AltitudeMeters>48.799999237060546875</AltitudeMeters>
            <DistanceMeters>NAN</DistanceMeters>
          </Trackpoint>
          <Trackpoint>
            <Time>2019-01-04T12:00:41.000Z</Time>
            <Position>
              <LatitudeDegrees>36.47499024868011474609375</LatitudeDegrees>
              <LongitudeDegrees>-5.41038832627236843109130859375</LongitudeDegrees>
            </Position>
            <AltitudeMeters>48.799999237060546875</AltitudeMeters>
            <DistanceMeters>NAN</DistanceMeters>
          </Trackpoint>
          <Trackpoint>
            <Time>2019-01-04T12:00:42.000Z</Time>
            <Position>
              <LatitudeDegrees>36.47497658617794513702392578125</LatitudeDegrees>
              <LongitudeDegrees>-5.41039251722395420074462890625</LongitudeDegrees>
            </Position>
            <AltitudeMeters>48.799999237060546875</AltitudeMeters>
            <DistanceMeters>NAN</DistanceMeters>
          </Trackpoint>
          <Trackpoint>
            <Time>2019-01-04T12:00:43.000Z</Time>
            <Position>
              <LatitudeDegrees>36.47496267221868038177490234375</LatitudeDegrees>
              <LongitudeDegrees>-5.41039586998522281646728515625</LongitudeDegrees>
            </Position>
            <AltitudeMeters>48.799999237060546875</AltitudeMeters>
            <DistanceMeters>NAN</DistanceMeters>
          </Trackpoint>
          <Trackpoint>
            <Time>2019-01-04T12:00:44.000Z</Time>
            <Position>
              <LatitudeDegrees>36.4749495126307010650634765625</LatitudeDegrees>
              <LongitudeDegrees>-5.41040073148906230926513671875</LongitudeDegrees>
            </Position>
            <AltitudeMeters>49</AltitudeMeters>
            <DistanceMeters>NAN</DistanceMeters>
          </Trackpoint>
          <Trackpoint>
            <Time>2019-01-04T12:00:45.000Z</Time>
            <Position>
              <LatitudeDegrees>36.47493534721434116363525390625</LatitudeDegrees>
              <LongitudeDegrees>-5.41040458716452121734619140625</LongitudeDegrees>
            </Position>
            <AltitudeMeters>49</AltitudeMeters>
            <DistanceMeters>NAN</DistanceMeters>
          </Trackpoint>
          <Trackpoint>
            <Time>2019-01-04T12:00:46.000Z</Time>
            <Position>
              <LatitudeDegrees>36.47492042742669582366943359375</LatitudeDegrees>
              <LongitudeDegrees>-5.4104097001254558563232421875</LongitudeDegrees>
            </Position>
            <AltitudeMeters>49.200000762939453125</AltitudeMeters>
            <DistanceMeters>NAN</DistanceMeters>
          </Trackpoint>
          <Trackpoint>
            <Time>2019-01-04T12:00:47.000Z</Time>
            <Position>
              <LatitudeDegrees>36.47490441799163818359375</LatitudeDegrees>
              <LongitudeDegrees>-5.41041464544832706451416015625</LongitudeDegrees>
            </Position>
            <AltitudeMeters>49.200000762939453125</AltitudeMeters>
            <DistanceMeters>NAN</DistanceMeters>
          </Trackpoint>
          <Trackpoint>
            <Time>2019-01-04T12:00:48.000Z</Time>
            <Position>
              <LatitudeDegrees>36.474888324737548828125</LatitudeDegrees>
              <LongitudeDegrees>-5.41041858494281768798828125</LongitudeDegrees>
            </Position>
            <AltitudeMeters>49.200000762939453125</AltitudeMeters>
            <DistanceMeters>NAN</DistanceMeters>
          </Trackpoint>
          <Trackpoint>
            <Time>2019-01-04T12:00:49.000Z</Time>
            <Position>
              <LatitudeDegrees>36.47487198002636432647705078125</LatitudeDegrees>
              <LongitudeDegrees>-5.41042420081794261932373046875</LongitudeDegrees>
            </Position>
            <AltitudeMeters>49</AltitudeMeters>
            <DistanceMeters>NAN</DistanceMeters>
          </Trackpoint>
          <Trackpoint>
            <Time>2019-01-04T12:00:50.000Z</Time>
            <Position>
              <LatitudeDegrees>36.47485672496259212493896484375</LatitudeDegrees>
              <LongitudeDegrees>-5.41042797267436981201171875</LongitudeDegrees>
            </Position>
            <AltitudeMeters>49</AltitudeMeters>
            <DistanceMeters>NAN</DistanceMeters>
          </Trackpoint>
          <Trackpoint>
            <Time>2019-01-04T12:00:51.000Z</Time>
            <Position>
              <LatitudeDegrees>36.4748405478894710540771484375</LatitudeDegrees>
              <LongitudeDegrees>-5.41043140925467014312744140625</LongitudeDegrees>
            </Position>
            <AltitudeMeters>49</AltitudeMeters>
            <DistanceMeters>NAN</DistanceMeters>
          </Trackpoint>
          <Trackpoint>
            <Time>2019-01-04T12:00:52.000Z</Time>
            <Position>
              <LatitudeDegrees>36.47482537664473056793212890625</LatitudeDegrees>
              <LongitudeDegrees>-5.4104353487491607666015625</LongitudeDegrees>
            </Position>
            <AltitudeMeters>49</AltitudeMeters>
            <DistanceMeters>NAN</DistanceMeters>
          </Trackpoint>
          <Trackpoint>
            <Time>2019-01-04T12:00:53.000Z</Time>
            <Position>
              <LatitudeDegrees>36.47481129504740238189697265625</LatitudeDegrees>
              <LongitudeDegrees>-5.41043794713914394378662109375</LongitudeDegrees>
            </Position>
            <AltitudeMeters>48.799999237060546875</AltitudeMeters>
            <DistanceMeters>NAN</DistanceMeters>
          </Trackpoint>
          <Trackpoint>
            <Time>2019-01-04T12:00:54.000Z</Time>
            <Position>
              <LatitudeDegrees>36.47479637525975704193115234375</LatitudeDegrees>
              <LongitudeDegrees>-5.4104422219097614288330078125</LongitudeDegrees>
            </Position>
            <AltitudeMeters>48.799999237060546875</AltitudeMeters>
            <DistanceMeters>NAN</DistanceMeters>
          </Trackpoint>
          <Trackpoint>
            <Time>2019-01-04T12:00:55.000Z</Time>
            <Position>
              <LatitudeDegrees>36.474783383309841156005859375</LatitudeDegrees>
              <LongitudeDegrees>-5.4104479216039180755615234375</LongitudeDegrees>
            </Position>
            <AltitudeMeters>48.799999237060546875</AltitudeMeters>
            <DistanceMeters>NAN</DistanceMeters>
          </Trackpoint>
          <Trackpoint>
            <Time>2019-01-04T12:00:56.000Z</Time>
            <Position>
              <LatitudeDegrees>36.47476829588413238525390625</LatitudeDegrees>
              <LongitudeDegrees>-5.41045303456485271453857421875</LongitudeDegrees>
            </Position>
            <AltitudeMeters>48.799999237060546875</AltitudeMeters>
            <DistanceMeters>NAN</DistanceMeters>
          </Trackpoint>
          <Trackpoint>
            <Time>2019-01-04T12:00:57.000Z</Time>
            <Position>
              <LatitudeDegrees>36.47475396282970905303955078125</LatitudeDegrees>
              <LongitudeDegrees>-5.41045890189707279205322265625</LongitudeDegrees>
            </Position>
            <AltitudeMeters>48.799999237060546875</AltitudeMeters>
            <DistanceMeters>NAN</DistanceMeters>
          </Trackpoint>
          <Trackpoint>
            <Time>2019-01-04T12:00:58.000Z</Time>
            <Position>
              <LatitudeDegrees>36.4747394621372222900390625</LatitudeDegrees>
              <LongitudeDegrees>-5.41046493686735630035400390625</LongitudeDegrees>
            </Position>
            <AltitudeMeters>48.59999847412109375</AltitudeMeters>
            <DistanceMeters>NAN</DistanceMeters>
          </Trackpoint>
          <Trackpoint>
            <Time>2019-01-04T12:00:59.000Z</Time>
            <Position>
              <LatitudeDegrees>36.47472512908279895782470703125</LatitudeDegrees>
              <LongitudeDegrees>-5.41047063656151294708251953125</LongitudeDegrees>
            </Position>
            <AltitudeMeters>48.59999847412109375</AltitudeMeters>
            <DistanceMeters>NAN</DistanceMeters>
          </Trackpoint>
          <Trackpoint>
            <Time>2019-01-04T12:01:00.000Z</Time>
            <Position>
              <LatitudeDegrees>36.4747118018567562103271484375</LatitudeDegrees>
              <LongitudeDegrees>-5.4104760847985744476318359375</LongitudeDegrees>
            </Position>
            <AltitudeMeters>48.40000152587890625</AltitudeMeters>
            <DistanceMeters>NAN</DistanceMeters>
          </Trackpoint>
          <Trackpoint>
            <Time>2019-01-04T12:01:01.000Z</Time>
            <Position>
              <LatitudeDegrees>36.474698223173618316650390625</LatitudeDegrees>
              <LongitudeDegrees>-5.41047968901693820953369140625</LongitudeDegrees>
            </Position>
            <AltitudeMeters>48.200000762939453125</AltitudeMeters>
            <DistanceMeters>NAN</DistanceMeters>
          </Trackpoint>
          <Trackpoint>
            <Time>2019-01-04T12:01:02.000Z</Time>
            <Position>
              <LatitudeDegrees>36.4746844768524169921875</LatitudeDegrees>
              <LongitudeDegrees>-5.41048287414014339447021484375</LongitudeDegrees>
            </Position>
            <AltitudeMeters>48.200000762939453125</AltitudeMeters>
            <DistanceMeters>NAN</DistanceMeters>
          </Trackpoint>
          <Trackpoint>
            <Time>2019-01-04T12:01:03.000Z</Time>
            <Position>
              <LatitudeDegrees>36.474671401083469390869140625</LatitudeDegrees>
              <LongitudeDegrees>-5.4104871489107608795166015625</LongitudeDegrees>
            </Position>
            <AltitudeMeters>48.200000762939453125</AltitudeMeters>
            <DistanceMeters>NAN</DistanceMeters>
          </Trackpoint>
          <Trackpoint>
            <Time>2019-01-04T12:01:04.000Z</Time>
            <Position>
              <LatitudeDegrees>36.47465765476226806640625</LatitudeDegrees>
              <LongitudeDegrees>-5.41048974730074405670166015625</LongitudeDegrees>
            </Position>
            <AltitudeMeters>48.200000762939453125</AltitudeMeters>
            <DistanceMeters>NAN</DistanceMeters>
          </Trackpoint>
          <Trackpoint>
            <Time>2019-01-04T12:01:05.000Z</Time>
            <Position>
              <LatitudeDegrees>36.47464365698397159576416015625</LatitudeDegrees>
              <LongitudeDegrees>-5.41049343533813953399658203125</LongitudeDegrees>
            </Position>
            <AltitudeMeters>48.40000152587890625</AltitudeMeters>
            <DistanceMeters>NAN</DistanceMeters>
          </Trackpoint>
          <Trackpoint>
            <Time>2019-01-04T12:01:06.000Z</Time>
            <Position>
              <LatitudeDegrees>36.47463091649115085601806640625</LatitudeDegrees>
              <LongitudeDegrees>-5.41049611754715442657470703125</LongitudeDegrees>
            </Position>
            <AltitudeMeters>48.40000152587890625</AltitudeMeters>
            <DistanceMeters>NAN</DistanceMeters>
          </Trackpoint>
          <Trackpoint>
            <Time>2019-01-04T12:01:07.000Z</Time>
            <Position>
              <LatitudeDegrees>36.47461733780801296234130859375</LatitudeDegrees>
              <LongitudeDegrees>-5.41049930267035961151123046875</LongitudeDegrees>
            </Position>
            <AltitudeMeters>48.40000152587890625</AltitudeMeters>
            <DistanceMeters>NAN</DistanceMeters>
          </Trackpoint>
          <Trackpoint>
            <Time>2019-01-04T12:01:08.000Z</Time>
            <Position>
              <LatitudeDegrees>36.47460392676293849945068359375</LatitudeDegrees>
              <LongitudeDegrees>-5.4105015657842159271240234375</LongitudeDegrees>
            </Position>
            <AltitudeMeters>48.40000152587890625</AltitudeMeters>
            <DistanceMeters>NAN</DistanceMeters>
          </Trackpoint>
          <Trackpoint>
            <Time>2019-01-04T12:01:09.000Z</Time>
            <Position>
              <LatitudeDegrees>36.474592275917530059814453125</LatitudeDegrees>
              <LongitudeDegrees>-5.41050265543162822723388671875</LongitudeDegrees>
            </Position>
            <AltitudeMeters>48.40000152587890625</AltitudeMeters>
            <DistanceMeters>NAN</DistanceMeters>
          </Trackpoint>
          <Trackpoint>
            <Time>2019-01-04T12:01:10.000Z</Time>
            <Position>
              <LatitudeDegrees>36.47458163090050220489501953125</LatitudeDegrees>
              <LongitudeDegrees>-5.410501398146152496337890625</LongitudeDegrees>
            </Position>
            <AltitudeMeters>48.40000152587890625</AltitudeMeters>
            <DistanceMeters>NAN</DistanceMeters>
          </Trackpoint>
          <Trackpoint>
            <Time>2019-01-04T12:01:11.000Z</Time>
            <Position>
              <LatitudeDegrees>36.47457056678831577301025390625</LatitudeDegrees>
              <LongitudeDegrees>-5.41050081141293048858642578125</LongitudeDegrees>
            </Position>
            <AltitudeMeters>48.40000152587890625</AltitudeMeters>
            <DistanceMeters>NAN</DistanceMeters>
          </Trackpoint>
          <Trackpoint>
            <Time>2019-01-04T12:01:12.000Z</Time>
            <Position>
              <LatitudeDegrees>36.474558748304843902587890625</LatitudeDegrees>
              <LongitudeDegrees>-5.410502068698406219482421875</LongitudeDegrees>
            </Position>
            <AltitudeMeters>48.200000762939453125</AltitudeMeters>
            <DistanceMeters>NAN</DistanceMeters>
          </Trackpoint>
          <Trackpoint>
            <Time>2019-01-04T12:01:13.000Z</Time>
            <Position>
              <LatitudeDegrees>36.47454567253589630126953125</LatitudeDegrees>
              <LongitudeDegrees>-5.41050533764064311981201171875</LongitudeDegrees>
            </Position>
            <AltitudeMeters>48.200000762939453125</AltitudeMeters>
            <DistanceMeters>NAN</DistanceMeters>
          </Trackpoint>
          <Trackpoint>
            <Time>2019-01-04T12:01:14.000Z</Time>
            <Position>
              <LatitudeDegrees>36.4745327644050121307373046875</LatitudeDegrees>
              <LongitudeDegrees>-5.41051103733479976654052734375</LongitudeDegrees>
            </Position>
            <AltitudeMeters>48</AltitudeMeters>
            <DistanceMeters>NAN</DistanceMeters>
          </Trackpoint>
          <Trackpoint>
            <Time>2019-01-04T12:01:15.000Z</Time>
            <Position>
              <LatitudeDegrees>36.4745210297405719757080078125</LatitudeDegrees>
              <LongitudeDegrees>-5.41051522828638553619384765625</LongitudeDegrees>
            </Position>
            <AltitudeMeters>47.799999237060546875</AltitudeMeters>
            <DistanceMeters>NAN</DistanceMeters>
          </Trackpoint>
          <Trackpoint>
            <Time>2019-01-04T12:01:16.000Z</Time>
            <Position>
              <LatitudeDegrees>36.4745092950761318206787109375</LatitudeDegrees>
              <LongitudeDegrees>-5.4105184972286224365234375</LongitudeDegrees>
            </Position>
            <AltitudeMeters>47.799999237060546875</AltitudeMeters>
            <DistanceMeters>NAN</DistanceMeters>
          </Trackpoint>
          <Trackpoint>
            <Time>2019-01-04T12:01:17.000Z</Time>
            <Position>
              <LatitudeDegrees>36.47449714131653308868408203125</LatitudeDegrees>
              <LongitudeDegrees>-5.41052243672311305999755859375</LongitudeDegrees>
            </Position>
            <AltitudeMeters>47.799999237060546875</AltitudeMeters>
            <DistanceMeters>NAN</DistanceMeters>
          </Trackpoint>
          <Trackpoint>
            <Time>2019-01-04T12:01:18.000Z</Time>
            <Position>
              <LatitudeDegrees>36.474483311176300048828125</LatitudeDegrees>
              <LongitudeDegrees>-5.4105273820459842681884765625</LongitudeDegrees>
            </Position>
            <AltitudeMeters>47.59999847412109375</AltitudeMeters>
            <DistanceMeters>NAN</DistanceMeters>
          </Trackpoint>
          <Trackpoint>
            <Time>2019-01-04T12:01:19.000Z</Time>
            <Position>
              <LatitudeDegrees>36.47447015158832073211669921875</LatitudeDegrees>
              <LongitudeDegrees>-5.41053232736885547637939453125</LongitudeDegrees>
            </Position>
            <AltitudeMeters>47.59999847412109375</AltitudeMeters>
            <DistanceMeters>NAN</DistanceMeters>
          </Trackpoint>
          <Trackpoint>
            <Time>2019-01-04T12:01:20.000Z</Time>
            <Position>
              <LatitudeDegrees>36.47445850074291229248046875</LatitudeDegrees>
              <LongitudeDegrees>-5.41053500957787036895751953125</LongitudeDegrees>
            </Position>
            <AltitudeMeters>47.59999847412109375</AltitudeMeters>
            <DistanceMeters>NAN</DistanceMeters>
          </Trackpoint>
          <Trackpoint>
            <Time>2019-01-04T12:01:21.000Z</Time>
            <Position>
              <LatitudeDegrees>36.47444567643105983734130859375</LatitudeDegrees>
              <LongitudeDegrees>-5.410539619624614715576171875</LongitudeDegrees>
            </Position>
            <AltitudeMeters>47.59999847412109375</AltitudeMeters>
            <DistanceMeters>NAN</DistanceMeters>
          </Trackpoint>
          <Trackpoint>
            <Time>2019-01-04T12:01:22.000Z</Time>
            <Position>
              <LatitudeDegrees>36.4744351990520954132080078125</LatitudeDegrees>
              <LongitudeDegrees>-5.410543642938137054443359375</LongitudeDegrees>
            </Position>
            <AltitudeMeters>47.59999847412109375</AltitudeMeters>
            <DistanceMeters>NAN</DistanceMeters>
          </Trackpoint>
          <Trackpoint>
            <Time>2019-01-04T12:01:23.000Z</Time>
            <Position>
              <LatitudeDegrees>36.474422626197338104248046875</LatitudeDegrees>
              <LongitudeDegrees>-5.41054775007069110870361328125</LongitudeDegrees>
            </Position>
            <AltitudeMeters>47.59999847412109375</AltitudeMeters>
            <DistanceMeters>NAN</DistanceMeters>
          </Trackpoint>
          <Trackpoint>
            <Time>2019-01-04T12:01:24.000Z</Time>
            <Position>
              <LatitudeDegrees>36.474410556256771087646484375</LatitudeDegrees>
              <LongitudeDegrees>-5.41055244393646717071533203125</LongitudeDegrees>
            </Position>
            <AltitudeMeters>47.799999237060546875</AltitudeMeters>
            <DistanceMeters>NAN</DistanceMeters>
          </Trackpoint>
          <Trackpoint>
            <Time>2019-01-04T12:01:25.000Z</Time>
            <Position>
              <LatitudeDegrees>36.47439739666879177093505859375</LatitudeDegrees>
              <LongitudeDegrees>-5.4105565510690212249755859375</LongitudeDegrees>
            </Position>
            <AltitudeMeters>47.799999237060546875</AltitudeMeters>
            <DistanceMeters>NAN</DistanceMeters>
          </Trackpoint>
          <Trackpoint>
            <Time>2019-01-04T12:01:26.000Z</Time>
            <Position>
              <LatitudeDegrees>36.47438432089984416961669921875</LatitudeDegrees>
              <LongitudeDegrees>-5.41056116111576557159423828125</LongitudeDegrees>
            </Position>
            <AltitudeMeters>47.799999237060546875</AltitudeMeters>
            <DistanceMeters>NAN</DistanceMeters>
          </Trackpoint>
          <Trackpoint>
            <Time>2019-01-04T12:01:27.000Z</Time>
            <Position>
              <LatitudeDegrees>36.4743701554834842681884765625</LatitudeDegrees>
              <LongitudeDegrees>-5.410565435886383056640625</LongitudeDegrees>
            </Position>
            <AltitudeMeters>47.799999237060546875</AltitudeMeters>
            <DistanceMeters>NAN</DistanceMeters>
          </Trackpoint>
          <Trackpoint>
            <Time>2019-01-04T12:01:28.000Z</Time>
            <Position>
              <LatitudeDegrees>36.474354900419712066650390625</LatitudeDegrees>
              <LongitudeDegrees>-5.410569794476032257080078125</LongitudeDegrees>
            </Position>
            <AltitudeMeters>47.59999847412109375</AltitudeMeters>
            <DistanceMeters>NAN</DistanceMeters>
          </Trackpoint>
          <Trackpoint>
            <Time>2019-01-04T12:01:29.000Z</Time>
            <Position>
              <LatitudeDegrees>36.47434048354625701904296875</LatitudeDegrees>
              <LongitudeDegrees>-5.41057306341826915740966796875</LongitudeDegrees>
            </Position>
            <AltitudeMeters>47.59999847412109375</AltitudeMeters>
            <DistanceMeters>NAN</DistanceMeters>
          </Trackpoint>
          <Trackpoint>
            <Time>2019-01-04T12:01:30.000Z</Time>
            <Position>
              <LatitudeDegrees>36.47432631812989711761474609375</LatitudeDegrees>
              <LongitudeDegrees>-5.4105766676366329193115234375</LongitudeDegrees>
            </Position>
            <AltitudeMeters>47.799999237060546875</AltitudeMeters>
            <DistanceMeters>NAN</DistanceMeters>
          </Trackpoint>
          <Trackpoint>
            <Time>2019-01-04T12:01:31.000Z</Time>
            <Position>
              <LatitudeDegrees>36.4743124879896640777587890625</LatitudeDegrees>
              <LongitudeDegrees>-5.41058111004531383514404296875</LongitudeDegrees>
            </Position>
            <AltitudeMeters>47.799999237060546875</AltitudeMeters>
            <DistanceMeters>NAN</DistanceMeters>
          </Trackpoint>
          <Trackpoint>
            <Time>2019-01-04T12:01:32.000Z</Time>
            <Position>
              <LatitudeDegrees>36.4742980711162090301513671875</LatitudeDegrees>
              <LongitudeDegrees>-5.410585887730121612548828125</LongitudeDegrees>
            </Position>
            <AltitudeMeters>47.799999237060546875</AltitudeMeters>
            <DistanceMeters>NAN</DistanceMeters>
          </Trackpoint>
          <Trackpoint>
            <Time>2019-01-04T12:01:33.000Z</Time>
            <Position>
              <LatitudeDegrees>36.47428340278565883636474609375</LatitudeDegrees>
              <LongitudeDegrees>-5.41059049777686595916748046875</LongitudeDegrees>
            </Position>
            <AltitudeMeters>47.799999237060546875</AltitudeMeters>
            <DistanceMeters>NAN</DistanceMeters>
          </Trackpoint>
          <Trackpoint>
            <Time>2019-01-04T12:01:34.000Z</Time>
            <Position>
              <LatitudeDegrees>36.47427015937864780426025390625</LatitudeDegrees>
              <LongitudeDegrees>-5.4105954430997371673583984375</LongitudeDegrees>
            </Position>
            <AltitudeMeters>48</AltitudeMeters>
            <DistanceMeters>NAN</DistanceMeters>
          </Trackpoint>
          <Trackpoint>
            <Time>2019-01-04T12:01:35.000Z</Time>
            <Position>
              <LatitudeDegrees>36.474256329238414764404296875</LatitudeDegrees>
              <LongitudeDegrees>-5.41059971787035465240478515625</LongitudeDegrees>
            </Position>
            <AltitudeMeters>48</AltitudeMeters>
            <DistanceMeters>NAN</DistanceMeters>
          </Trackpoint>
          <Trackpoint>
            <Time>2019-01-04T12:01:36.000Z</Time>
            <Position>
              <LatitudeDegrees>36.4742432534694671630859375</LatitudeDegrees>
              <LongitudeDegrees>-5.410602986812591552734375</LongitudeDegrees>
            </Position>
            <AltitudeMeters>48</AltitudeMeters>
            <DistanceMeters>NAN</DistanceMeters>
          </Trackpoint>
          <Trackpoint>
            <Time>2019-01-04T12:01:37.000Z</Time>
            <Position>
              <LatitudeDegrees>36.47423009388148784637451171875</LatitudeDegrees>
              <LongitudeDegrees>-5.410608686506748199462890625</LongitudeDegrees>
            </Position>
            <AltitudeMeters>47.799999237060546875</AltitudeMeters>
            <DistanceMeters>NAN</DistanceMeters>
          </Trackpoint>
          <Trackpoint>
            <Time>2019-01-04T12:01:38.000Z</Time>
            <Position>
              <LatitudeDegrees>36.47421685047447681427001953125</LatitudeDegrees>
              <LongitudeDegrees>-5.41061447001993656158447265625</LongitudeDegrees>
            </Position>
            <AltitudeMeters>47.59999847412109375</AltitudeMeters>
            <DistanceMeters>NAN</DistanceMeters>
          </Trackpoint>
          <Trackpoint>
            <Time>2019-01-04T12:01:39.000Z</Time>
            <Position>
              <LatitudeDegrees>36.47420369088649749755859375</LatitudeDegrees>
              <LongitudeDegrees>-5.4106202535331249237060546875</LongitudeDegrees>
            </Position>
            <AltitudeMeters>47.40000152587890625</AltitudeMeters>
            <DistanceMeters>NAN</DistanceMeters>
          </Trackpoint>
          <Trackpoint>
            <Time>2019-01-04T12:01:40.000Z</Time>
            <Position>
              <LatitudeDegrees>36.47419120185077190399169921875</LatitudeDegrees>
              <LongitudeDegrees>-5.4106256179511547088623046875</LongitudeDegrees>
            </Position>
            <AltitudeMeters>47.40000152587890625</AltitudeMeters>
            <DistanceMeters>NAN</DistanceMeters>
          </Trackpoint>
          <Trackpoint>
            <Time>2019-01-04T12:01:41.000Z</Time>
            <Position>
              <LatitudeDegrees>36.4741783775389194488525390625</LatitudeDegrees>
              <LongitudeDegrees>-5.4106286354362964630126953125</LongitudeDegrees>
            </Position>
            <AltitudeMeters>47.200000762939453125</AltitudeMeters>
            <DistanceMeters>NAN</DistanceMeters>
          </Trackpoint>
          <Trackpoint>
            <Time>2019-01-04T12:01:42.000Z</Time>
            <Position>
              <LatitudeDegrees>36.474167145788669586181640625</LatitudeDegrees>
              <LongitudeDegrees>-5.41063156910240650177001953125</LongitudeDegrees>
            </Position>
            <AltitudeMeters>47.200000762939453125</AltitudeMeters>
            <DistanceMeters>NAN</DistanceMeters>
          </Trackpoint>
          <Trackpoint>
            <Time>2019-01-04T12:01:43.000Z</Time>
            <Position>
              <LatitudeDegrees>36.47415247745811939239501953125</LatitudeDegrees>
              <LongitudeDegrees>-5.4106338322162628173828125</LongitudeDegrees>
            </Position>
            <AltitudeMeters>47</AltitudeMeters>
            <DistanceMeters>NAN</DistanceMeters>
          </Trackpoint>
          <Trackpoint>
            <Time>2019-01-04T12:01:44.000Z</Time>
            <Position>
              <LatitudeDegrees>36.47413839586079120635986328125</LatitudeDegrees>
              <LongitudeDegrees>-5.410636849701404571533203125</LongitudeDegrees>
            </Position>
            <AltitudeMeters>47</AltitudeMeters>
            <DistanceMeters>NAN</DistanceMeters>
          </Trackpoint>
          <Trackpoint>
            <Time>2019-01-04T12:01:45.000Z</Time>
            <Position>
              <LatitudeDegrees>36.4741254039108753204345703125</LatitudeDegrees>
              <LongitudeDegrees>-5.41064120829105377197265625</LongitudeDegrees>
            </Position>
            <AltitudeMeters>47.200000762939453125</AltitudeMeters>
            <DistanceMeters>NAN</DistanceMeters>
          </Trackpoint>
          <Trackpoint>
            <Time>2019-01-04T12:01:46.000Z</Time>
            <Position>
              <LatitudeDegrees>36.47411241196095943450927734375</LatitudeDegrees>
              <LongitudeDegrees>-5.41064548306167125701904296875</LongitudeDegrees>
            </Position>
            <AltitudeMeters>47.200000762939453125</AltitudeMeters>
            <DistanceMeters>NAN</DistanceMeters>
          </Trackpoint>
          <Trackpoint>
            <Time>2019-01-04T12:01:47.000Z</Time>
            <Position>
              <LatitudeDegrees>36.47409916855394840240478515625</LatitudeDegrees>
              <LongitudeDegrees>-5.4106507636606693267822265625</LongitudeDegrees>
            </Position>
            <AltitudeMeters>47.200000762939453125</AltitudeMeters>
            <DistanceMeters>NAN</DistanceMeters>
          </Trackpoint>
          <Trackpoint>
            <Time>2019-01-04T12:01:48.000Z</Time>
            <Position>
              <LatitudeDegrees>36.4740850031375885009765625</LatitudeDegrees>
              <LongitudeDegrees>-5.4106564633548259735107421875</LongitudeDegrees>
            </Position>
            <AltitudeMeters>47</AltitudeMeters>
            <DistanceMeters>NAN</DistanceMeters>
          </Trackpoint>
          <Trackpoint>
            <Time>2019-01-04T12:01:49.000Z</Time>
            <Position>
              <LatitudeDegrees>36.474070586264133453369140625</LatitudeDegrees>
              <LongitudeDegrees>-5.4106618277728557586669921875</LongitudeDegrees>
            </Position>
            <AltitudeMeters>47</AltitudeMeters>
            <DistanceMeters>NAN</DistanceMeters>
          </Trackpoint>
          <Trackpoint>
            <Time>2019-01-04T12:01:50.000Z</Time>
            <Position>
              <LatitudeDegrees>36.47405524738132953643798828125</LatitudeDegrees>
              <LongitudeDegrees>-5.41066559962928295135498046875</LongitudeDegrees>
            </Position>
            <AltitudeMeters>47</AltitudeMeters>
            <DistanceMeters>NAN</DistanceMeters>
          </Trackpoint>
          <Trackpoint>
            <Time>2019-01-04T12:01:51.000Z</Time>
            <Position>
              <LatitudeDegrees>36.4740402437746524810791015625</LatitudeDegrees>
              <LongitudeDegrees>-5.410669706761837005615234375</LongitudeDegrees>
            </Position>
            <AltitudeMeters>46.799999237060546875</AltitudeMeters>
            <DistanceMeters>NAN</DistanceMeters>
          </Trackpoint>
          <Trackpoint>
            <Time>2019-01-04T12:01:52.000Z</Time>
            <Position>
              <LatitudeDegrees>36.47402524016797542572021484375</LatitudeDegrees>
              <LongitudeDegrees>-5.41067549027502536773681640625</LongitudeDegrees>
            </Position>
            <AltitudeMeters>46.799999237060546875</AltitudeMeters>
            <DistanceMeters>NAN</DistanceMeters>
          </Trackpoint>
          <Trackpoint>
            <Time>2019-01-04T12:01:53.000Z</Time>
            <Position>
              <LatitudeDegrees>36.4740097336471080780029296875</LatitudeDegrees>
              <LongitudeDegrees>-5.41068068705499172210693359375</LongitudeDegrees>
            </Position>
            <AltitudeMeters>46.799999237060546875</AltitudeMeters>
            <DistanceMeters>NAN</DistanceMeters>
          </Trackpoint>
          <Trackpoint>
            <Time>2019-01-04T12:01:54.000Z</Time>
            <Position>
              <LatitudeDegrees>36.47399338893592357635498046875</LatitudeDegrees>
              <LongitudeDegrees>-5.41068521328270435333251953125</LongitudeDegrees>
            </Position>
            <AltitudeMeters>46.799999237060546875</AltitudeMeters>
            <DistanceMeters>NAN</DistanceMeters>
          </Trackpoint>
          <Trackpoint>
            <Time>2019-01-04T12:01:55.000Z</Time>
            <Position>
              <LatitudeDegrees>36.47397712804377079010009765625</LatitudeDegrees>
              <LongitudeDegrees>-5.41069024242460727691650390625</LongitudeDegrees>
            </Position>
            <AltitudeMeters>47</AltitudeMeters>
            <DistanceMeters>NAN</DistanceMeters>
          </Trackpoint>
          <Trackpoint>
            <Time>2019-01-04T12:01:56.000Z</Time>
            <Position>
              <LatitudeDegrees>36.47396103478968143463134765625</LatitudeDegrees>
              <LongitudeDegrees>-5.4106977023184299468994140625</LongitudeDegrees>
            </Position>
            <AltitudeMeters>47</AltitudeMeters>
            <DistanceMeters>NAN</DistanceMeters>
          </Trackpoint>
          <Trackpoint>
            <Time>2019-01-04T12:01:57.000Z</Time>
            <Position>
              <LatitudeDegrees>36.473945192992687225341796875</LatitudeDegrees>
              <LongitudeDegrees>-5.4107067547738552093505859375</LongitudeDegrees>
            </Position>
            <AltitudeMeters>47</AltitudeMeters>
            <DistanceMeters>NAN</DistanceMeters>
          </Trackpoint>
          <Trackpoint>
            <Time>2019-01-04T12:01:58.000Z</Time>
            <Position>
              <LatitudeDegrees>36.4739294350147247314453125</LatitudeDegrees>
              <LongitudeDegrees>-5.410714633762836456298828125</LongitudeDegrees>
            </Position>
            <AltitudeMeters>47</AltitudeMeters>
            <DistanceMeters>NAN</DistanceMeters>
          </Trackpoint>
          <Trackpoint>
            <Time>2019-01-04T12:01:59.000Z</Time>
            <Position>
              <LatitudeDegrees>36.4739145152270793914794921875</LatitudeDegrees>
              <LongitudeDegrees>-5.41072125546634197235107421875</LongitudeDegrees>
            </Position>
            <AltitudeMeters>47</AltitudeMeters>
            <DistanceMeters>NAN</DistanceMeters>
          </Trackpoint>
          <Trackpoint>
            <Time>2019-01-04T12:02:00.000Z</Time>
            <Position>
              <LatitudeDegrees>36.473900936543941497802734375</LatitudeDegrees>
              <LongitudeDegrees>-5.41072628460824489593505859375</LongitudeDegrees>
            </Position>
            <AltitudeMeters>47.200000762939453125</AltitudeMeters>
            <DistanceMeters>NAN</DistanceMeters>
          </Trackpoint>
          <Trackpoint>
            <Time>2019-01-04T12:02:01.000Z</Time>
            <Position>
              <LatitudeDegrees>36.473887525498867034912109375</LatitudeDegrees>
              <LongitudeDegrees>-5.4107303917407989501953125</LongitudeDegrees>
            </Position>
            <AltitudeMeters>47</AltitudeMeters>
            <DistanceMeters>NAN</DistanceMeters>
          </Trackpoint>
          <Trackpoint>
            <Time>2019-01-04T12:02:02.000Z</Time>
            <Position>
              <LatitudeDegrees>36.4738736115396022796630859375</LatitudeDegrees>
              <LongitudeDegrees>-5.41073516942560672760009765625</LongitudeDegrees>
            </Position>
            <AltitudeMeters>47</AltitudeMeters>
            <DistanceMeters>NAN</DistanceMeters>
          </Trackpoint>
          <Trackpoint>
            <Time>2019-01-04T12:02:03.000Z</Time>
            <Position>
              <LatitudeDegrees>36.47386011667549610137939453125</LatitudeDegrees>
              <LongitudeDegrees>-5.4107396118342876434326171875</LongitudeDegrees>
            </Position>
            <AltitudeMeters>47</AltitudeMeters>
            <DistanceMeters>NAN</DistanceMeters>
          </Trackpoint>
          <Trackpoint>
            <Time>2019-01-04T12:02:04.000Z</Time>
            <Position>
              <LatitudeDegrees>36.47384653799235820770263671875</LatitudeDegrees>
              <LongitudeDegrees>-5.41074355132877826690673828125</LongitudeDegrees>
            </Position>
            <AltitudeMeters>47</AltitudeMeters>
            <DistanceMeters>NAN</DistanceMeters>
          </Trackpoint>
          <Trackpoint>
            <Time>2019-01-04T12:02:05.000Z</Time>
            <Position>
              <LatitudeDegrees>36.4738330431282520294189453125</LatitudeDegrees>
              <LongitudeDegrees>-5.41074807755649089813232421875</LongitudeDegrees>
            </Position>
            <AltitudeMeters>47</AltitudeMeters>
            <DistanceMeters>NAN</DistanceMeters>
          </Trackpoint>
          <Trackpoint>
            <Time>2019-01-04T12:02:06.000Z</Time>
            <Position>
              <LatitudeDegrees>36.47381954826414585113525390625</LatitudeDegrees>
              <LongitudeDegrees>-5.4107533581554889678955078125</LongitudeDegrees>
            </Position>
            <AltitudeMeters>46.799999237060546875</AltitudeMeters>
            <DistanceMeters>NAN</DistanceMeters>
          </Trackpoint>
          <Trackpoint>
            <Time>2019-01-04T12:02:07.000Z</Time>
            <Position>
              <LatitudeDegrees>36.47380613721907138824462890625</LatitudeDegrees>
              <LongitudeDegrees>-5.4107573814690113067626953125</LongitudeDegrees>
            </Position>
            <AltitudeMeters>46.799999237060546875</AltitudeMeters>
            <DistanceMeters>NAN</DistanceMeters>
          </Trackpoint>
          <Trackpoint>
            <Time>2019-01-04T12:02:08.000Z</Time>
            <Position>
              <LatitudeDegrees>36.4737924747169017791748046875</LatitudeDegrees>
              <LongitudeDegrees>-5.41076081804931163787841796875</LongitudeDegrees>
            </Position>
            <AltitudeMeters>46.59999847412109375</AltitudeMeters>
            <DistanceMeters>NAN</DistanceMeters>
          </Trackpoint>
          <Trackpoint>
            <Time>2019-01-04T12:02:09.000Z</Time>
            <Position>
              <LatitudeDegrees>36.47377948276698589324951171875</LatitudeDegrees>
              <LongitudeDegrees>-5.4107644222676753997802734375</LongitudeDegrees>
            </Position>
            <AltitudeMeters>46.59999847412109375</AltitudeMeters>
            <DistanceMeters>NAN</DistanceMeters>
          </Trackpoint>
          <Trackpoint>
            <Time>2019-01-04T12:02:10.000Z</Time>
            <Position>
              <LatitudeDegrees>36.47376657463610172271728515625</LatitudeDegrees>
              <LongitudeDegrees>-5.4107684455811977386474609375</LongitudeDegrees>
            </Position>
            <AltitudeMeters>46.59999847412109375</AltitudeMeters>
            <DistanceMeters>NAN</DistanceMeters>
          </Trackpoint>
          <Trackpoint>
            <Time>2019-01-04T12:02:11.000Z</Time>
            <Position>
              <LatitudeDegrees>36.473753415048122406005859375</LatitudeDegrees>
              <LongitudeDegrees>-5.41077204979956150054931640625</LongitudeDegrees>
            </Position>
            <AltitudeMeters>46.59999847412109375</AltitudeMeters>
            <DistanceMeters>NAN</DistanceMeters>
          </Trackpoint>
          <Trackpoint>
            <Time>2019-01-04T12:02:12.000Z</Time>
            <Position>
              <LatitudeDegrees>36.47374008782207965850830078125</LatitudeDegrees>
              <LongitudeDegrees>-5.41077557019889354705810546875</LongitudeDegrees>
            </Position>
            <AltitudeMeters>46.799999237060546875</AltitudeMeters>
            <DistanceMeters>NAN</DistanceMeters>
          </Trackpoint>
          <Trackpoint>
            <Time>2019-01-04T12:02:13.000Z</Time>
            <Position>
              <LatitudeDegrees>36.473726928234100341796875</LatitudeDegrees>
              <LongitudeDegrees>-5.41077934205532073974609375</LongitudeDegrees>
            </Position>
            <AltitudeMeters>46.799999237060546875</AltitudeMeters>
            <DistanceMeters>NAN</DistanceMeters>
          </Trackpoint>
          <Trackpoint>
            <Time>2019-01-04T12:02:14.000Z</Time>
            <Position>
              <LatitudeDegrees>36.47371427156031131744384765625</LatitudeDegrees>
              <LongitudeDegrees>-5.4107825271785259246826171875</LongitudeDegrees>
            </Position>
            <AltitudeMeters>47</AltitudeMeters>
            <DistanceMeters>NAN</DistanceMeters>
          </Trackpoint>
          <Trackpoint>
            <Time>2019-01-04T12:02:15.000Z</Time>
            <Position>
              <LatitudeDegrees>36.47370077669620513916015625</LatitudeDegrees>
              <LongitudeDegrees>-5.4107858799397945404052734375</LongitudeDegrees>
            </Position>
            <AltitudeMeters>47</AltitudeMeters>
            <DistanceMeters>NAN</DistanceMeters>
          </Trackpoint>
          <Trackpoint>
            <Time>2019-01-04T12:02:16.000Z</Time>
            <Position>
              <LatitudeDegrees>36.47368744947016239166259765625</LatitudeDegrees>
              <LongitudeDegrees>-5.41078998707234859466552734375</LongitudeDegrees>
            </Position>
            <AltitudeMeters>47</AltitudeMeters>
            <DistanceMeters>NAN</DistanceMeters>
          </Trackpoint>
          <Trackpoint>
            <Time>2019-01-04T12:02:17.000Z</Time>
            <Position>
              <LatitudeDegrees>36.47367320023477077484130859375</LatitudeDegrees>
              <LongitudeDegrees>-5.41079342365264892578125</LongitudeDegrees>
            </Position>
            <AltitudeMeters>47</AltitudeMeters>
            <DistanceMeters>NAN</DistanceMeters>
          </Trackpoint>
          <Trackpoint>
            <Time>2019-01-04T12:02:18.000Z</Time>
            <Position>
              <LatitudeDegrees>36.47365861572325229644775390625</LatitudeDegrees>
              <LongitudeDegrees>-5.41079753078520298004150390625</LongitudeDegrees>
            </Position>
            <AltitudeMeters>47</AltitudeMeters>
            <DistanceMeters>NAN</DistanceMeters>
          </Trackpoint>
          <Trackpoint>
            <Time>2019-01-04T12:02:19.000Z</Time>
            <Position>
              <LatitudeDegrees>36.4736436121165752410888671875</LatitudeDegrees>
              <LongitudeDegrees>-5.41080054827034473419189453125</LongitudeDegrees>
            </Position>
            <AltitudeMeters>47</AltitudeMeters>
            <DistanceMeters>NAN</DistanceMeters>
          </Trackpoint>
          <Trackpoint>
            <Time>2019-01-04T12:02:20.000Z</Time>
            <Position>
              <LatitudeDegrees>36.4736290276050567626953125</LatitudeDegrees>
              <LongitudeDegrees>-5.41080490685999393463134765625</LongitudeDegrees>
            </Position>
            <AltitudeMeters>47</AltitudeMeters>
            <DistanceMeters>NAN</DistanceMeters>
          </Trackpoint>
          <Trackpoint>
            <Time>2019-01-04T12:02:21.000Z</Time>
            <Position>
              <LatitudeDegrees>36.47361419163644313812255859375</LatitudeDegrees>
              <LongitudeDegrees>-5.41080884635448455810546875</LongitudeDegrees>
            </Position>
            <AltitudeMeters>47</AltitudeMeters>
            <DistanceMeters>NAN</DistanceMeters>
          </Trackpoint>
          <Trackpoint>
            <Time>2019-01-04T12:02:22.000Z</Time>
            <Position>
              <LatitudeDegrees>36.47360019385814666748046875</LatitudeDegrees>
              <LongitudeDegrees>-5.4108137078583240509033203125</LongitudeDegrees>
            </Position>
            <AltitudeMeters>47</AltitudeMeters>
            <DistanceMeters>NAN</DistanceMeters>
          </Trackpoint>
          <Trackpoint>
            <Time>2019-01-04T12:02:23.000Z</Time>
            <Position>
              <LatitudeDegrees>36.4735862798988819122314453125</LatitudeDegrees>
              <LongitudeDegrees>-5.41081781499087810516357421875</LongitudeDegrees>
            </Position>
            <AltitudeMeters>47</AltitudeMeters>
            <DistanceMeters>NAN</DistanceMeters>
          </Trackpoint>
          <Trackpoint>
            <Time>2019-01-04T12:02:24.000Z</Time>
            <Position>
              <LatitudeDegrees>36.4735715277493000030517578125</LatitudeDegrees>
              <LongitudeDegrees>-5.41082150302827358245849609375</LongitudeDegrees>
            </Position>
            <AltitudeMeters>46.799999237060546875</AltitudeMeters>
            <DistanceMeters>NAN</DistanceMeters>
          </Trackpoint>
          <Trackpoint>
            <Time>2019-01-04T12:02:25.000Z</Time>
            <Position>
              <LatitudeDegrees>36.4735566079616546630859375</LatitudeDegrees>
              <LongitudeDegrees>-5.41082502342760562896728515625</LongitudeDegrees>
            </Position>
            <AltitudeMeters>46.799999237060546875</AltitudeMeters>
            <DistanceMeters>NAN</DistanceMeters>
          </Trackpoint>
          <Trackpoint>
            <Time>2019-01-04T12:02:26.000Z</Time>
            <Position>
              <LatitudeDegrees>36.47354311309754848480224609375</LatitudeDegrees>
              <LongitudeDegrees>-5.410828292369842529296875</LongitudeDegrees>
            </Position>
            <AltitudeMeters>46.59999847412109375</AltitudeMeters>
            <DistanceMeters>NAN</DistanceMeters>
          </Trackpoint>
          <Trackpoint>
            <Time>2019-01-04T12:02:27.000Z</Time>
            <Position>
              <LatitudeDegrees>36.4735297858715057373046875</LatitudeDegrees>
              <LongitudeDegrees>-5.4108301363885402679443359375</LongitudeDegrees>
            </Position>
            <AltitudeMeters>46.59999847412109375</AltitudeMeters>
            <DistanceMeters>NAN</DistanceMeters>
          </Trackpoint>
          <Trackpoint>
            <Time>2019-01-04T12:02:28.000Z</Time>
            <Position>
              <LatitudeDegrees>36.47351729683578014373779296875</LatitudeDegrees>
              <LongitudeDegrees>-5.41083424352109432220458984375</LongitudeDegrees>
            </Position>
            <AltitudeMeters>46.59999847412109375</AltitudeMeters>
            <DistanceMeters>NAN</DistanceMeters>
          </Trackpoint>
          <Trackpoint>
            <Time>2019-01-04T12:02:29.000Z</Time>
            <Position>
              <LatitudeDegrees>36.473503969609737396240234375</LatitudeDegrees>
              <LongitudeDegrees>-5.41083843447268009185791015625</LongitudeDegrees>
            </Position>
            <AltitudeMeters>46.40000152587890625</AltitudeMeters>
            <DistanceMeters>NAN</DistanceMeters>
          </Trackpoint>
          <Trackpoint>
            <Time>2019-01-04T12:02:30.000Z</Time>
            <Position>
              <LatitudeDegrees>36.4734910614788532257080078125</LatitudeDegrees>
              <LongitudeDegrees>-5.4108405299484729766845703125</LongitudeDegrees>
            </Position>
            <AltitudeMeters>46.40000152587890625</AltitudeMeters>
            <DistanceMeters>NAN</DistanceMeters>
          </Trackpoint>
          <Trackpoint>
            <Time>2019-01-04T12:02:31.000Z</Time>
            <Position>
              <LatitudeDegrees>36.473477818071842193603515625</LatitudeDegrees>
              <LongitudeDegrees>-5.41084296070039272308349609375</LongitudeDegrees>
            </Position>
            <AltitudeMeters>46.200000762939453125</AltitudeMeters>
            <DistanceMeters>NAN</DistanceMeters>
          </Trackpoint>
          <Trackpoint>
            <Time>2019-01-04T12:02:32.000Z</Time>
            <Position>
              <LatitudeDegrees>36.4734642393887042999267578125</LatitudeDegrees>
              <LongitudeDegrees>-5.4108462296426296234130859375</LongitudeDegrees>
            </Position>
            <AltitudeMeters>46.200000762939453125</AltitudeMeters>
            <DistanceMeters>NAN</DistanceMeters>
          </Trackpoint>
          <Trackpoint>
            <Time>2019-01-04T12:02:33.000Z</Time>
            <Position>
              <LatitudeDegrees>36.473450325429439544677734375</LatitudeDegrees>
              <LongitudeDegrees>-5.410850085318088531494140625</LongitudeDegrees>
            </Position>
            <AltitudeMeters>46</AltitudeMeters>
            <DistanceMeters>NAN</DistanceMeters>
          </Trackpoint>
          <Trackpoint>
            <Time>2019-01-04T12:02:34.000Z</Time>
            <Position>
              <LatitudeDegrees>36.47343632765114307403564453125</LatitudeDegrees>
              <LongitudeDegrees>-5.4108546115458011627197265625</LongitudeDegrees>
            </Position>
            <AltitudeMeters>46</AltitudeMeters>
            <DistanceMeters>NAN</DistanceMeters>
          </Trackpoint>
          <Trackpoint>
            <Time>2019-01-04T12:02:35.000Z</Time>
            <Position>
              <LatitudeDegrees>36.4734230004251003265380859375</LatitudeDegrees>
              <LongitudeDegrees>-5.41085980832576751708984375</LongitudeDegrees>
            </Position>
            <AltitudeMeters>46.200000762939453125</AltitudeMeters>
            <DistanceMeters>NAN</DistanceMeters>
          </Trackpoint>
          <Trackpoint>
            <Time>2019-01-04T12:02:36.000Z</Time>
            <Position>
              <LatitudeDegrees>36.4734089188277721405029296875</LatitudeDegrees>
              <LongitudeDegrees>-5.41086508892476558685302734375</LongitudeDegrees>
            </Position>
            <AltitudeMeters>46.200000762939453125</AltitudeMeters>
            <DistanceMeters>NAN</DistanceMeters>
          </Trackpoint>
          <Trackpoint>
            <Time>2019-01-04T12:02:37.000Z</Time>
            <Position>
              <LatitudeDegrees>36.47339592687785625457763671875</LatitudeDegrees>
              <LongitudeDegrees>-5.4108696989715099334716796875</LongitudeDegrees>
            </Position>
            <AltitudeMeters>46.200000762939453125</AltitudeMeters>
            <DistanceMeters>NAN</DistanceMeters>
          </Trackpoint>
          <Trackpoint>
            <Time>2019-01-04T12:02:38.000Z</Time>
            <Position>
              <LatitudeDegrees>36.4733831025660037994384765625</LatitudeDegrees>
              <LongitudeDegrees>-5.41087514720857143402099609375</LongitudeDegrees>
            </Position>
            <AltitudeMeters>46.200000762939453125</AltitudeMeters>
            <DistanceMeters>NAN</DistanceMeters>
          </Trackpoint>
          <Trackpoint>
            <Time>2019-01-04T12:02:39.000Z</Time>
            <Position>
              <LatitudeDegrees>36.47336893714964389801025390625</LatitudeDegrees>
              <LongitudeDegrees>-5.41087984107434749603271484375</LongitudeDegrees>
            </Position>
            <AltitudeMeters>46.200000762939453125</AltitudeMeters>
            <DistanceMeters>NAN</DistanceMeters>
          </Trackpoint>
          <Trackpoint>
            <Time>2019-01-04T12:02:40.000Z</Time>
            <Position>
              <LatitudeDegrees>36.4733549393713474273681640625</LatitudeDegrees>
              <LongitudeDegrees>-5.4108846187591552734375</LongitudeDegrees>
            </Position>
            <AltitudeMeters>46.200000762939453125</AltitudeMeters>
            <DistanceMeters>NAN</DistanceMeters>
          </Trackpoint>
          <Trackpoint>
            <Time>2019-01-04T12:02:41.000Z</Time>
            <Position>
              <LatitudeDegrees>36.4733401872217655181884765625</LatitudeDegrees>
              <LongitudeDegrees>-5.410889647901058197021484375</LongitudeDegrees>
            </Position>
            <AltitudeMeters>46</AltitudeMeters>
            <DistanceMeters>NAN</DistanceMeters>
          </Trackpoint>
          <Trackpoint>
            <Time>2019-01-04T12:02:42.000Z</Time>
            <Position>
              <LatitudeDegrees>36.47332551889121532440185546875</LatitudeDegrees>
              <LongitudeDegrees>-5.41089660488069057464599609375</LongitudeDegrees>
            </Position>
            <AltitudeMeters>46</AltitudeMeters>
            <DistanceMeters>NAN</DistanceMeters>
          </Trackpoint>
          <Trackpoint>
            <Time>2019-01-04T12:02:43.000Z</Time>
            <Position>
              <LatitudeDegrees>36.47331126965582370758056640625</LatitudeDegrees>
              <LongitudeDegrees>-5.41090347804129123687744140625</LongitudeDegrees>
            </Position>
            <AltitudeMeters>46.200000762939453125</AltitudeMeters>
            <DistanceMeters>NAN</DistanceMeters>
          </Trackpoint>
          <Trackpoint>
            <Time>2019-01-04T12:02:44.000Z</Time>
            <Position>
              <LatitudeDegrees>36.4732969366014003753662109375</LatitudeDegrees>
              <LongitudeDegrees>-5.4109089262783527374267578125</LongitudeDegrees>
            </Position>
            <AltitudeMeters>46.40000152587890625</AltitudeMeters>
            <DistanceMeters>NAN</DistanceMeters>
          </Trackpoint>
          <Trackpoint>
            <Time>2019-01-04T12:02:45.000Z</Time>
            <Position>
              <LatitudeDegrees>36.4732815138995647430419921875</LatitudeDegrees>
              <LongitudeDegrees>-5.410910435020923614501953125</LongitudeDegrees>
            </Position>
            <AltitudeMeters>46.40000152587890625</AltitudeMeters>
            <DistanceMeters>NAN</DistanceMeters>
          </Trackpoint>
          <Trackpoint>
            <Time>2019-01-04T12:02:46.000Z</Time>
            <Position>
              <LatitudeDegrees>36.4732669293880462646484375</LatitudeDegrees>
              <LongitudeDegrees>-5.41091487742960453033447265625</LongitudeDegrees>
            </Position>
            <AltitudeMeters>46.59999847412109375</AltitudeMeters>
            <DistanceMeters>NAN</DistanceMeters>
          </Trackpoint>
          <Trackpoint>
            <Time>2019-01-04T12:02:47.000Z</Time>
            <Position>
              <LatitudeDegrees>36.4732535183429718017578125</LatitudeDegrees>
              <LongitudeDegrees>-5.4109181463718414306640625</LongitudeDegrees>
            </Position>
            <AltitudeMeters>46.59999847412109375</AltitudeMeters>
            <DistanceMeters>NAN</DistanceMeters>
          </Trackpoint>
          <Trackpoint>
            <Time>2019-01-04T12:02:48.000Z</Time>
            <Position>
              <LatitudeDegrees>36.47324002347886562347412109375</LatitudeDegrees>
              <LongitudeDegrees>-5.41092275641858577728271484375</LongitudeDegrees>
            </Position>
            <AltitudeMeters>46.59999847412109375</AltitudeMeters>
            <DistanceMeters>NAN</DistanceMeters>
          </Trackpoint>
          <Trackpoint>
            <Time>2019-01-04T12:02:49.000Z</Time>
            <Position>
              <LatitudeDegrees>36.47322661243379116058349609375</LatitudeDegrees>
              <LongitudeDegrees>-5.4109290428459644317626953125</LongitudeDegrees>
            </Position>
            <AltitudeMeters>46.59999847412109375</AltitudeMeters>
            <DistanceMeters>NAN</DistanceMeters>
          </Trackpoint>
          <Trackpoint>
            <Time>2019-01-04T12:02:50.000Z</Time>
            <Position>
              <LatitudeDegrees>36.47321269847452640533447265625</LatitudeDegrees>
              <LongitudeDegrees>-5.4109330661594867706298828125</LongitudeDegrees>
            </Position>
            <AltitudeMeters>46.59999847412109375</AltitudeMeters>
            <DistanceMeters>NAN</DistanceMeters>
          </Trackpoint>
          <Trackpoint>
            <Time>2019-01-04T12:02:51.000Z</Time>
            <Position>
              <LatitudeDegrees>36.47319794632494449615478515625</LatitudeDegrees>
              <LongitudeDegrees>-5.41093633510172367095947265625</LongitudeDegrees>
            </Position>
            <AltitudeMeters>46.40000152587890625</AltitudeMeters>
            <DistanceMeters>NAN</DistanceMeters>
          </Trackpoint>
          <Trackpoint>
            <Time>2019-01-04T12:02:52.000Z</Time>
            <Position>
              <LatitudeDegrees>36.47318445146083831787109375</LatitudeDegrees>
              <LongitudeDegrees>-5.410938598215579986572265625</LongitudeDegrees>
            </Position>
            <AltitudeMeters>46.200000762939453125</AltitudeMeters>
            <DistanceMeters>NAN</DistanceMeters>
          </Trackpoint>
          <Trackpoint>
            <Time>2019-01-04T12:02:53.000Z</Time>
            <Position>
              <LatitudeDegrees>36.4731708727777004241943359375</LatitudeDegrees>
              <LongitudeDegrees>-5.41094354353845119476318359375</LongitudeDegrees>
            </Position>
            <AltitudeMeters>46.200000762939453125</AltitudeMeters>
            <DistanceMeters>NAN</DistanceMeters>
          </Trackpoint>
          <Trackpoint>
            <Time>2019-01-04T12:02:54.000Z</Time>
            <Position>
              <LatitudeDegrees>36.47315905429422855377197265625</LatitudeDegrees>
              <LongitudeDegrees>-5.4109464772045612335205078125</LongitudeDegrees>
            </Position>
            <AltitudeMeters>46</AltitudeMeters>
            <DistanceMeters>NAN</DistanceMeters>
          </Trackpoint>
          <Trackpoint>
            <Time>2019-01-04T12:02:55.000Z</Time>
            <Position>
              <LatitudeDegrees>36.4731480740010738372802734375</LatitudeDegrees>
              <LongitudeDegrees>-5.4109464772045612335205078125</LongitudeDegrees>
            </Position>
            <AltitudeMeters>46</AltitudeMeters>
            <DistanceMeters>NAN</DistanceMeters>
          </Trackpoint>
          <Trackpoint>
            <Time>2019-01-04T12:02:56.000Z</Time>
            <Position>
              <LatitudeDegrees>36.4731356687843799591064453125</LatitudeDegrees>
              <LongitudeDegrees>-5.41094706393778324127197265625</LongitudeDegrees>
            </Position>
            <AltitudeMeters>46</AltitudeMeters>
            <DistanceMeters>NAN</DistanceMeters>
          </Trackpoint>
          <Trackpoint>
            <Time>2019-01-04T12:02:57.000Z</Time>
            <Position>
              <LatitudeDegrees>36.47312234155833721160888671875</LatitudeDegrees>
              <LongitudeDegrees>-5.4109501652419567108154296875</LongitudeDegrees>
            </Position>
            <AltitudeMeters>46</AltitudeMeters>
            <DistanceMeters>NAN</DistanceMeters>
          </Trackpoint>
          <Trackpoint>
            <Time>2019-01-04T12:02:58.000Z</Time>
            <Position>
              <LatitudeDegrees>36.47310976870357990264892578125</LatitudeDegrees>
              <LongitudeDegrees>-5.4109556972980499267578125</LongitudeDegrees>
            </Position>
            <AltitudeMeters>46</AltitudeMeters>
            <DistanceMeters>NAN</DistanceMeters>
          </Trackpoint>
          <Trackpoint>
            <Time>2019-01-04T12:02:59.000Z</Time>
            <Position>
              <LatitudeDegrees>36.47309484891593456268310546875</LatitudeDegrees>
              <LongitudeDegrees>-5.41095946915447711944580078125</LongitudeDegrees>
            </Position>
            <AltitudeMeters>46</AltitudeMeters>
            <DistanceMeters>NAN</DistanceMeters>
          </Trackpoint>
          <Trackpoint>
            <Time>2019-01-04T12:03:00.000Z</Time>
            <Position>
              <LatitudeDegrees>36.47308127023279666900634765625</LatitudeDegrees>
              <LongitudeDegrees>-5.41096399538218975067138671875</LongitudeDegrees>
            </Position>
            <AltitudeMeters>46</AltitudeMeters>
            <DistanceMeters>NAN</DistanceMeters>
          </Trackpoint>
          <Trackpoint>
            <Time>2019-01-04T12:03:01.000Z</Time>
            <Position>
              <LatitudeDegrees>36.47306836210191249847412109375</LatitudeDegrees>
              <LongitudeDegrees>-5.41096634231507778167724609375</LongitudeDegrees>
            </Position>
            <AltitudeMeters>46</AltitudeMeters>
            <DistanceMeters>NAN</DistanceMeters>
          </Trackpoint>
          <Trackpoint>
            <Time>2019-01-04T12:03:02.000Z</Time>
            <Position>
              <LatitudeDegrees>36.4730555377900600433349609375</LatitudeDegrees>
              <LongitudeDegrees>-5.41097019799053668975830078125</LongitudeDegrees>
            </Position>
            <AltitudeMeters>46</AltitudeMeters>
            <DistanceMeters>NAN</DistanceMeters>
          </Trackpoint>
          <Trackpoint>
            <Time>2019-01-04T12:03:03.000Z</Time>
            <Position>
              <LatitudeDegrees>36.47304053418338298797607421875</LatitudeDegrees>
              <LongitudeDegrees>-5.41097673587501049041748046875</LongitudeDegrees>
            </Position>
            <AltitudeMeters>46</AltitudeMeters>
            <DistanceMeters>NAN</DistanceMeters>
          </Trackpoint>
          <Trackpoint>
            <Time>2019-01-04T12:03:04.000Z</Time>
            <Position>
              <LatitudeDegrees>36.473026536405086517333984375</LatitudeDegrees>
              <LongitudeDegrees>-5.41098176501691341400146484375</LongitudeDegrees>
            </Position>
            <AltitudeMeters>46</AltitudeMeters>
            <DistanceMeters>NAN</DistanceMeters>
          </Trackpoint>
          <Trackpoint>
            <Time>2019-01-04T12:03:05.000Z</Time>
            <Position>
              <LatitudeDegrees>36.47301144897937774658203125</LatitudeDegrees>
              <LongitudeDegrees>-5.41098562069237232208251953125</LongitudeDegrees>
            </Position>
            <AltitudeMeters>46</AltitudeMeters>
            <DistanceMeters>NAN</DistanceMeters>
          </Trackpoint>
          <Trackpoint>
            <Time>2019-01-04T12:03:06.000Z</Time>
            <Position>
              <LatitudeDegrees>36.4729955233633518218994140625</LatitudeDegrees>
              <LongitudeDegrees>-5.41099098511040210723876953125</LongitudeDegrees>
            </Position>
            <AltitudeMeters>46</AltitudeMeters>
            <DistanceMeters>NAN</DistanceMeters>
          </Trackpoint>
          <Trackpoint>
            <Time>2019-01-04T12:03:07.000Z</Time>
            <Position>
              <LatitudeDegrees>36.47298018448054790496826171875</LatitudeDegrees>
              <LongitudeDegrees>-5.41099727153778076171875</LongitudeDegrees>
            </Position>
            <AltitudeMeters>46.200000762939453125</AltitudeMeters>
            <DistanceMeters>NAN</DistanceMeters>
          </Trackpoint>
          <Trackpoint>
            <Time>2019-01-04T12:03:08.000Z</Time>
            <Position>
              <LatitudeDegrees>36.47296442650258541107177734375</LatitudeDegrees>
              <LongitudeDegrees>-5.4110021330416202545166015625</LongitudeDegrees>
            </Position>
            <AltitudeMeters>46.40000152587890625</AltitudeMeters>
            <DistanceMeters>NAN</DistanceMeters>
          </Trackpoint>
          <Trackpoint>
            <Time>2019-01-04T12:03:09.000Z</Time>
            <Position>
              <LatitudeDegrees>36.47294950671494007110595703125</LatitudeDegrees>
              <LongitudeDegrees>-5.411004312336444854736328125</LongitudeDegrees>
            </Position>
            <AltitudeMeters>46.40000152587890625</AltitudeMeters>
            <DistanceMeters>NAN</DistanceMeters>
          </Trackpoint>
          <Trackpoint>
            <Time>2019-01-04T12:03:10.000Z</Time>
            <Position>
              <LatitudeDegrees>36.472934670746326446533203125</LatitudeDegrees>
              <LongitudeDegrees>-5.4110081680119037628173828125</LongitudeDegrees>
            </Position>
            <AltitudeMeters>46.40000152587890625</AltitudeMeters>
            <DistanceMeters>NAN</DistanceMeters>
          </Trackpoint>
          <Trackpoint>
            <Time>2019-01-04T12:03:11.000Z</Time>
            <Position>
              <LatitudeDegrees>36.4729207567870616912841796875</LatitudeDegrees>
              <LongitudeDegrees>-5.41101269423961639404296875</LongitudeDegrees>
            </Position>
            <AltitudeMeters>46.59999847412109375</AltitudeMeters>
            <DistanceMeters>NAN</DistanceMeters>
          </Trackpoint>
          <Trackpoint>
            <Time>2019-01-04T12:03:12.000Z</Time>
            <Position>
              <LatitudeDegrees>36.472905166447162628173828125</LatitudeDegrees>
              <LongitudeDegrees>-5.411016047000885009765625</LongitudeDegrees>
            </Position>
            <AltitudeMeters>46.40000152587890625</AltitudeMeters>
            <DistanceMeters>NAN</DistanceMeters>
          </Trackpoint>
          <Trackpoint>
            <Time>2019-01-04T12:03:13.000Z</Time>
            <Position>
              <LatitudeDegrees>36.4728895761072635650634765625</LatitudeDegrees>
              <LongitudeDegrees>-5.4110195674002170562744140625</LongitudeDegrees>
            </Position>
            <AltitudeMeters>46.40000152587890625</AltitudeMeters>
            <DistanceMeters>NAN</DistanceMeters>
          </Trackpoint>
          <Trackpoint>
            <Time>2019-01-04T12:03:14.000Z</Time>
            <Position>
              <LatitudeDegrees>36.4728753268718719482421875</LatitudeDegrees>
              <LongitudeDegrees>-5.411023758351802825927734375</LongitudeDegrees>
            </Position>
            <AltitudeMeters>46.200000762939453125</AltitudeMeters>
            <DistanceMeters>NAN</DistanceMeters>
          </Trackpoint>
          <Trackpoint>
            <Time>2019-01-04T12:03:15.000Z</Time>
            <Position>
              <LatitudeDegrees>36.4728617481887340545654296875</LatitudeDegrees>
              <LongitudeDegrees>-5.4110262729227542877197265625</LongitudeDegrees>
            </Position>
            <AltitudeMeters>46</AltitudeMeters>
            <DistanceMeters>NAN</DistanceMeters>
          </Trackpoint>
          <Trackpoint>
            <Time>2019-01-04T12:03:16.000Z</Time>
            <Position>
              <LatitudeDegrees>36.47284791804850101470947265625</LatitudeDegrees>
              <LongitudeDegrees>-5.411028452217578887939453125</LongitudeDegrees>
            </Position>
            <AltitudeMeters>45.799999237060546875</AltitudeMeters>
            <DistanceMeters>NAN</DistanceMeters>
          </Trackpoint>
          <Trackpoint>
            <Time>2019-01-04T12:03:17.000Z</Time>
            <Position>
              <LatitudeDegrees>36.47283442318439483642578125</LatitudeDegrees>
              <LongitudeDegrees>-5.41102937422692775726318359375</LongitudeDegrees>
            </Position>
            <AltitudeMeters>45.799999237060546875</AltitudeMeters>
            <DistanceMeters>NAN</DistanceMeters>
          </Trackpoint>
          <Trackpoint>
            <Time>2019-01-04T12:03:18.000Z</Time>
            <Position>
              <LatitudeDegrees>36.47282193414866924285888671875</LatitudeDegrees>
              <LongitudeDegrees>-5.41103088296949863433837890625</LongitudeDegrees>
            </Position>
            <AltitudeMeters>45.59999847412109375</AltitudeMeters>
            <DistanceMeters>NAN</DistanceMeters>
          </Trackpoint>
          <Trackpoint>
            <Time>2019-01-04T12:03:19.000Z</Time>
            <Position>
              <LatitudeDegrees>36.4728101156651973724365234375</LatitudeDegrees>
              <LongitudeDegrees>-5.41103205643594264984130859375</LongitudeDegrees>
            </Position>
            <AltitudeMeters>45.59999847412109375</AltitudeMeters>
            <DistanceMeters>NAN</DistanceMeters>
          </Trackpoint>
          <Trackpoint>
            <Time>2019-01-04T12:03:20.000Z</Time>
            <Position>
              <LatitudeDegrees>36.4727983810007572174072265625</LatitudeDegrees>
              <LongitudeDegrees>-5.411035157740116119384765625</LongitudeDegrees>
            </Position>
            <AltitudeMeters>45.59999847412109375</AltitudeMeters>
            <DistanceMeters>NAN</DistanceMeters>
          </Trackpoint>
          <Trackpoint>
            <Time>2019-01-04T12:03:21.000Z</Time>
            <Position>
              <LatitudeDegrees>36.47278438322246074676513671875</LatitudeDegrees>
              <LongitudeDegrees>-5.411041863262653350830078125</LongitudeDegrees>
            </Position>
            <AltitudeMeters>45.59999847412109375</AltitudeMeters>
            <DistanceMeters>NAN</DistanceMeters>
          </Trackpoint>
          <Trackpoint>
            <Time>2019-01-04T12:03:22.000Z</Time>
            <Position>
              <LatitudeDegrees>36.4727725647389888763427734375</LatitudeDegrees>
              <LongitudeDegrees>-5.41104647330939769744873046875</LongitudeDegrees>
            </Position>
            <AltitudeMeters>45.59999847412109375</AltitudeMeters>
            <DistanceMeters>NAN</DistanceMeters>
          </Trackpoint>
          <Trackpoint>
            <Time>2019-01-04T12:03:23.000Z</Time>
            <Position>
              <LatitudeDegrees>36.47276024334132671356201171875</LatitudeDegrees>
              <LongitudeDegrees>-5.41104915551841259002685546875</LongitudeDegrees>
            </Position>
            <AltitudeMeters>45.59999847412109375</AltitudeMeters>
            <DistanceMeters>NAN</DistanceMeters>
          </Trackpoint>
          <Trackpoint>
            <Time>2019-01-04T12:03:24.000Z</Time>
            <Position>
              <LatitudeDegrees>36.47274532355368137359619140625</LatitudeDegrees>
              <LongitudeDegrees>-5.41105334646999835968017578125</LongitudeDegrees>
            </Position>
            <AltitudeMeters>45.40000152587890625</AltitudeMeters>
            <DistanceMeters>NAN</DistanceMeters>
          </Trackpoint>
          <Trackpoint>
            <Time>2019-01-04T12:03:25.000Z</Time>
            <Position>
              <LatitudeDegrees>36.47273107431828975677490234375</LatitudeDegrees>
              <LongitudeDegrees>-5.41105804033577442169189453125</LongitudeDegrees>
            </Position>
            <AltitudeMeters>45.59999847412109375</AltitudeMeters>
            <DistanceMeters>NAN</DistanceMeters>
          </Trackpoint>
          <Trackpoint>
            <Time>2019-01-04T12:03:26.000Z</Time>
            <Position>
              <LatitudeDegrees>36.472715400159358978271484375</LatitudeDegrees>
              <LongitudeDegrees>-5.411063991487026214599609375</LongitudeDegrees>
            </Position>
            <AltitudeMeters>45.59999847412109375</AltitudeMeters>
            <DistanceMeters>NAN</DistanceMeters>
          </Trackpoint>
          <Trackpoint>
            <Time>2019-01-04T12:03:27.000Z</Time>
            <Position>
              <LatitudeDegrees>36.4726984687149524688720703125</LatitudeDegrees>
              <LongitudeDegrees>-5.4110705293715000152587890625</LongitudeDegrees>
            </Position>
            <AltitudeMeters>45.59999847412109375</AltitudeMeters>
            <DistanceMeters>NAN</DistanceMeters>
          </Trackpoint>
          <Trackpoint>
            <Time>2019-01-04T12:03:28.000Z</Time>
            <Position>
              <LatitudeDegrees>36.47268396802246570587158203125</LatitudeDegrees>
              <LongitudeDegrees>-5.411075390875339508056640625</LongitudeDegrees>
            </Position>
            <AltitudeMeters>45.799999237060546875</AltitudeMeters>
            <DistanceMeters>NAN</DistanceMeters>
          </Trackpoint>
          <Trackpoint>
            <Time>2019-01-04T12:03:29.000Z</Time>
            <Position>
              <LatitudeDegrees>36.47267055697739124298095703125</LatitudeDegrees>
              <LongitudeDegrees>-5.41107916273176670074462890625</LongitudeDegrees>
            </Position>
            <AltitudeMeters>46</AltitudeMeters>
            <DistanceMeters>NAN</DistanceMeters>
          </Trackpoint>
          <Trackpoint>
            <Time>2019-01-04T12:03:30.000Z</Time>
            <Position>
              <LatitudeDegrees>36.47265714593231678009033203125</LatitudeDegrees>
              <LongitudeDegrees>-5.411082766950130462646484375</LongitudeDegrees>
            </Position>
            <AltitudeMeters>46</AltitudeMeters>
            <DistanceMeters>NAN</DistanceMeters>
          </Trackpoint>
          <Trackpoint>
            <Time>2019-01-04T12:03:31.000Z</Time>
            <Position>
              <LatitudeDegrees>36.47264130413532257080078125</LatitudeDegrees>
              <LongitudeDegrees>-5.41108754463493824005126953125</LongitudeDegrees>
            </Position>
            <AltitudeMeters>46.200000762939453125</AltitudeMeters>
            <DistanceMeters>NAN</DistanceMeters>
          </Trackpoint>
          <Trackpoint>
            <Time>2019-01-04T12:03:32.000Z</Time>
            <Position>
              <LatitudeDegrees>36.4726240374147891998291015625</LatitudeDegrees>
              <LongitudeDegrees>-5.41109181940555572509765625</LongitudeDegrees>
            </Position>
            <AltitudeMeters>46.200000762939453125</AltitudeMeters>
            <DistanceMeters>NAN</DistanceMeters>
          </Trackpoint>
          <Trackpoint>
            <Time>2019-01-04T12:03:33.000Z</Time>
            <Position>
              <LatitudeDegrees>36.4726089499890804290771484375</LatitudeDegrees>
              <LongitudeDegrees>-5.411096513271331787109375</LongitudeDegrees>
            </Position>
            <AltitudeMeters>46.40000152587890625</AltitudeMeters>
            <DistanceMeters>NAN</DistanceMeters>
          </Trackpoint>
          <Trackpoint>
            <Time>2019-01-04T12:03:34.000Z</Time>
            <Position>
              <LatitudeDegrees>36.47259461693465709686279296875</LatitudeDegrees>
              <LongitudeDegrees>-5.41110279969871044158935546875</LongitudeDegrees>
            </Position>
            <AltitudeMeters>46.40000152587890625</AltitudeMeters>
            <DistanceMeters>NAN</DistanceMeters>
          </Trackpoint>
          <Trackpoint>
            <Time>2019-01-04T12:03:35.000Z</Time>
            <Position>
              <LatitudeDegrees>36.47258003242313861846923828125</LatitudeDegrees>
              <LongitudeDegrees>-5.41110992431640625</LongitudeDegrees>
            </Position>
            <AltitudeMeters>46.40000152587890625</AltitudeMeters>
            <DistanceMeters>NAN</DistanceMeters>
          </Trackpoint>
          <Trackpoint>
            <Time>2019-01-04T12:03:36.000Z</Time>
            <Position>
              <LatitudeDegrees>36.47256343625485897064208984375</LatitudeDegrees>
              <LongitudeDegrees>-5.411118306219577789306640625</LongitudeDegrees>
            </Position>
            <AltitudeMeters>46.40000152587890625</AltitudeMeters>
            <DistanceMeters>NAN</DistanceMeters>
          </Trackpoint>
          <Trackpoint>
            <Time>2019-01-04T12:03:37.000Z</Time>
            <Position>
              <LatitudeDegrees>36.472548432648181915283203125</LatitudeDegrees>
              <LongitudeDegrees>-5.41112408973276615142822265625</LongitudeDegrees>
            </Position>
            <AltitudeMeters>46.200000762939453125</AltitudeMeters>
            <DistanceMeters>NAN</DistanceMeters>
          </Trackpoint>
          <Trackpoint>
            <Time>2019-01-04T12:03:38.000Z</Time>
            <Position>
              <LatitudeDegrees>36.4725338481366634368896484375</LatitudeDegrees>
              <LongitudeDegrees>-5.411126352846622467041015625</LongitudeDegrees>
            </Position>
            <AltitudeMeters>46</AltitudeMeters>
            <DistanceMeters>NAN</DistanceMeters>
          </Trackpoint>
          <Trackpoint>
            <Time>2019-01-04T12:03:39.000Z</Time>
            <Position>
              <LatitudeDegrees>36.472519934177398681640625</LatitudeDegrees>
              <LongitudeDegrees>-5.4111335612833499908447265625</LongitudeDegrees>
            </Position>
            <AltitudeMeters>45.59999847412109375</AltitudeMeters>
            <DistanceMeters>NAN</DistanceMeters>
          </Trackpoint>
          <Trackpoint>
            <Time>2019-01-04T12:03:40.000Z</Time>
            <Position>
              <LatitudeDegrees>36.47250610403716564178466796875</LatitudeDegrees>
              <LongitudeDegrees>-5.41114051826298236846923828125</LongitudeDegrees>
            </Position>
            <AltitudeMeters>45.59999847412109375</AltitudeMeters>
            <DistanceMeters>NAN</DistanceMeters>
          </Trackpoint>
          <Trackpoint>
            <Time>2019-01-04T12:03:41.000Z</Time>
            <Position>
              <LatitudeDegrees>36.47249118424952030181884765625</LatitudeDegrees>
              <LongitudeDegrees>-5.41114688850939273834228515625</LongitudeDegrees>
            </Position>
            <AltitudeMeters>45.40000152587890625</AltitudeMeters>
            <DistanceMeters>NAN</DistanceMeters>
          </Trackpoint>
          <Trackpoint>
            <Time>2019-01-04T12:03:42.000Z</Time>
            <Position>
              <LatitudeDegrees>36.4724781922996044158935546875</LatitudeDegrees>
              <LongitudeDegrees>-5.41115107946097850799560546875</LongitudeDegrees>
            </Position>
            <AltitudeMeters>45.40000152587890625</AltitudeMeters>
            <DistanceMeters>NAN</DistanceMeters>
          </Trackpoint>
          <Trackpoint>
            <Time>2019-01-04T12:03:43.000Z</Time>
            <Position>
              <LatitudeDegrees>36.47246427834033966064453125</LatitudeDegrees>
              <LongitudeDegrees>-5.41115409694612026214599609375</LongitudeDegrees>
            </Position>
            <AltitudeMeters>45.40000152587890625</AltitudeMeters>
            <DistanceMeters>NAN</DistanceMeters>
          </Trackpoint>
          <Trackpoint>
            <Time>2019-01-04T12:03:44.000Z</Time>
            <Position>
              <LatitudeDegrees>36.472451873123645782470703125</LatitudeDegrees>
              <LongitudeDegrees>-5.4111593775451183319091796875</LongitudeDegrees>
            </Position>
            <AltitudeMeters>45.40000152587890625</AltitudeMeters>
            <DistanceMeters>NAN</DistanceMeters>
          </Trackpoint>
          <Trackpoint>
            <Time>2019-01-04T12:03:45.000Z</Time>
            <Position>
              <LatitudeDegrees>36.4724393002688884735107421875</LatitudeDegrees>
              <LongitudeDegrees>-5.41116650216281414031982421875</LongitudeDegrees>
            </Position>
            <AltitudeMeters>45.40000152587890625</AltitudeMeters>
            <DistanceMeters>NAN</DistanceMeters>
          </Trackpoint>
          <Trackpoint>
            <Time>2019-01-04T12:03:46.000Z</Time>
            <Position>
              <LatitudeDegrees>36.47242404520511627197265625</LatitudeDegrees>
              <LongitudeDegrees>-5.411173291504383087158203125</LongitudeDegrees>
            </Position>
            <AltitudeMeters>45.40000152587890625</AltitudeMeters>
            <DistanceMeters>NAN</DistanceMeters>
          </Trackpoint>
          <Trackpoint>
            <Time>2019-01-04T12:03:47.000Z</Time>
            <Position>
              <LatitudeDegrees>36.47240987978875637054443359375</LatitudeDegrees>
              <LongitudeDegrees>-5.411179997026920318603515625</LongitudeDegrees>
            </Position>
            <AltitudeMeters>45</AltitudeMeters>
            <DistanceMeters>NAN</DistanceMeters>
          </Trackpoint>
          <Trackpoint>
            <Time>2019-01-04T12:03:48.000Z</Time>
            <Position>
              <LatitudeDegrees>36.472396887838840484619140625</LatitudeDegrees>
              <LongitudeDegrees>-5.41118301451206207275390625</LongitudeDegrees>
            </Position>
            <AltitudeMeters>45</AltitudeMeters>
            <DistanceMeters>NAN</DistanceMeters>
          </Trackpoint>
          <Trackpoint>
            <Time>2019-01-04T12:03:49.000Z</Time>
            <Position>
              <LatitudeDegrees>36.47238372825086116790771484375</LatitudeDegrees>
              <LongitudeDegrees>-5.4111858643591403961181640625</LongitudeDegrees>
            </Position>
            <AltitudeMeters>45</AltitudeMeters>
            <DistanceMeters>NAN</DistanceMeters>
          </Trackpoint>
          <Trackpoint>
            <Time>2019-01-04T12:03:50.000Z</Time>
            <Position>
              <LatitudeDegrees>36.47236830554902553558349609375</LatitudeDegrees>
              <LongitudeDegrees>-5.4111918993294239044189453125</LongitudeDegrees>
            </Position>
            <AltitudeMeters>44.799999237060546875</AltitudeMeters>
            <DistanceMeters>NAN</DistanceMeters>
          </Trackpoint>
          <Trackpoint>
            <Time>2019-01-04T12:03:51.000Z</Time>
            <Position>
              <LatitudeDegrees>36.472352631390094757080078125</LatitudeDegrees>
              <LongitudeDegrees>-5.4111982695758342742919921875</LongitudeDegrees>
            </Position>
            <AltitudeMeters>45</AltitudeMeters>
            <DistanceMeters>NAN</DistanceMeters>
          </Trackpoint>
          <Trackpoint>
            <Time>2019-01-04T12:03:52.000Z</Time>
            <Position>
              <LatitudeDegrees>36.472337543964385986328125</LatitudeDegrees>
              <LongitudeDegrees>-5.411203801631927490234375</LongitudeDegrees>
            </Position>
            <AltitudeMeters>45.200000762939453125</AltitudeMeters>
            <DistanceMeters>NAN</DistanceMeters>
          </Trackpoint>
          <Trackpoint>
            <Time>2019-01-04T12:03:53.000Z</Time>
            <Position>
              <LatitudeDegrees>36.4723226241767406463623046875</LatitudeDegrees>
              <LongitudeDegrees>-5.411210171878337860107421875</LongitudeDegrees>
            </Position>
            <AltitudeMeters>45.40000152587890625</AltitudeMeters>
            <DistanceMeters>NAN</DistanceMeters>
          </Trackpoint>
          <Trackpoint>
            <Time>2019-01-04T12:03:54.000Z</Time>
            <Position>
              <LatitudeDegrees>36.47230745293200016021728515625</LatitudeDegrees>
              <LongitudeDegrees>-5.41121528483927249908447265625</LongitudeDegrees>
            </Position>
            <AltitudeMeters>45.59999847412109375</AltitudeMeters>
            <DistanceMeters>NAN</DistanceMeters>
          </Trackpoint>
          <Trackpoint>
            <Time>2019-01-04T12:03:55.000Z</Time>
            <Position>
              <LatitudeDegrees>36.47229320369660854339599609375</LatitudeDegrees>
              <LongitudeDegrees>-5.41121997870504856109619140625</LongitudeDegrees>
            </Position>
            <AltitudeMeters>45.59999847412109375</AltitudeMeters>
            <DistanceMeters>NAN</DistanceMeters>
          </Trackpoint>
          <Trackpoint>
            <Time>2019-01-04T12:03:56.000Z</Time>
            <Position>
              <LatitudeDegrees>36.47227912209928035736083984375</LatitudeDegrees>
              <LongitudeDegrees>-5.41122534312307834625244140625</LongitudeDegrees>
            </Position>
            <AltitudeMeters>45.59999847412109375</AltitudeMeters>
            <DistanceMeters>NAN</DistanceMeters>
          </Trackpoint>
          <Trackpoint>
            <Time>2019-01-04T12:03:57.000Z</Time>
            <Position>
              <LatitudeDegrees>36.47226604633033275604248046875</LatitudeDegrees>
              <LongitudeDegrees>-5.41122995316982269287109375</LongitudeDegrees>
            </Position>
            <AltitudeMeters>45.59999847412109375</AltitudeMeters>
            <DistanceMeters>NAN</DistanceMeters>
          </Trackpoint>
          <Trackpoint>
            <Time>2019-01-04T12:03:58.000Z</Time>
            <Position>
              <LatitudeDegrees>36.4722530543804168701171875</LatitudeDegrees>
              <LongitudeDegrees>-5.4112324677407741546630859375</LongitudeDegrees>
            </Position>
            <AltitudeMeters>45.59999847412109375</AltitudeMeters>
            <DistanceMeters>NAN</DistanceMeters>
          </Trackpoint>
          <Trackpoint>
            <Time>2019-01-04T12:03:59.000Z</Time>
            <Position>
              <LatitudeDegrees>36.47224157117307186126708984375</LatitudeDegrees>
              <LongitudeDegrees>-5.4112338088452816009521484375</LongitudeDegrees>
            </Position>
            <AltitudeMeters>45.40000152587890625</AltitudeMeters>
            <DistanceMeters>NAN</DistanceMeters>
          </Trackpoint>
          <Trackpoint>
            <Time>2019-01-04T12:04:00.000Z</Time>
            <Position>
              <LatitudeDegrees>36.47223117761313915252685546875</LatitudeDegrees>
              <LongitudeDegrees>-5.41123556904494762420654296875</LongitudeDegrees>
            </Position>
            <AltitudeMeters>45.40000152587890625</AltitudeMeters>
            <DistanceMeters>NAN</DistanceMeters>
          </Trackpoint>
          <Trackpoint>
            <Time>2019-01-04T12:04:01.000Z</Time>
            <Position>
              <LatitudeDegrees>36.47222061641514301300048828125</LatitudeDegrees>
              <LongitudeDegrees>-5.41123556904494762420654296875</LongitudeDegrees>
            </Position>
            <AltitudeMeters>45.200000762939453125</AltitudeMeters>
            <DistanceMeters>NAN</DistanceMeters>
          </Trackpoint>
          <Trackpoint>
            <Time>2019-01-04T12:04:02.000Z</Time>
            <Position>
              <LatitudeDegrees>36.472209803760051727294921875</LatitudeDegrees>
              <LongitudeDegrees>-5.41123221628367900848388671875</LongitudeDegrees>
            </Position>
            <AltitudeMeters>45.200000762939453125</AltitudeMeters>
            <DistanceMeters>NAN</DistanceMeters>
          </Trackpoint>
          <Trackpoint>
            <Time>2019-01-04T12:04:03.000Z</Time>
            <Position>
              <LatitudeDegrees>36.4721994102001190185546875</LatitudeDegrees>
              <LongitudeDegrees>-5.4112348146736621856689453125</LongitudeDegrees>
            </Position>
            <AltitudeMeters>45.200000762939453125</AltitudeMeters>
            <DistanceMeters>NAN</DistanceMeters>
          </Trackpoint>
          <Trackpoint>
            <Time>2019-01-04T12:04:04.000Z</Time>
            <Position>
              <LatitudeDegrees>36.4721848256886005401611328125</LatitudeDegrees>
              <LongitudeDegrees>-5.411237664520740509033203125</LongitudeDegrees>
            </Position>
            <AltitudeMeters>45.40000152587890625</AltitudeMeters>
            <DistanceMeters>NAN</DistanceMeters>
          </Trackpoint>
          <Trackpoint>
            <Time>2019-01-04T12:04:05.000Z</Time>
            <Position>
              <LatitudeDegrees>36.4721694029867649078369140625</LatitudeDegrees>
              <LongitudeDegrees>-5.4112418554723262786865234375</LongitudeDegrees>
            </Position>
            <AltitudeMeters>45.200000762939453125</AltitudeMeters>
            <DistanceMeters>NAN</DistanceMeters>
          </Trackpoint>
          <Trackpoint>
            <Time>2019-01-04T12:04:06.000Z</Time>
            <Position>
              <LatitudeDegrees>36.472154147922992706298828125</LatitudeDegrees>
              <LongitudeDegrees>-5.41124780662357807159423828125</LongitudeDegrees>
            </Position>
            <AltitudeMeters>45.200000762939453125</AltitudeMeters>
            <DistanceMeters>NAN</DistanceMeters>
          </Trackpoint>
          <Trackpoint>
            <Time>2019-01-04T12:04:07.000Z</Time>
            <Position>
              <LatitudeDegrees>36.4721377193927764892578125</LatitudeDegrees>
              <LongitudeDegrees>-5.41125300340354442596435546875</LongitudeDegrees>
            </Position>
            <AltitudeMeters>45.200000762939453125</AltitudeMeters>
            <DistanceMeters>NAN</DistanceMeters>
          </Trackpoint>
          <Trackpoint>
            <Time>2019-01-04T12:04:08.000Z</Time>
            <Position>
              <LatitudeDegrees>36.4721216261386871337890625</LatitudeDegrees>
              <LongitudeDegrees>-5.41125903837382793426513671875</LongitudeDegrees>
            </Position>
            <AltitudeMeters>45.200000762939453125</AltitudeMeters>
            <DistanceMeters>NAN</DistanceMeters>
          </Trackpoint>
          <Trackpoint>
            <Time>2019-01-04T12:04:09.000Z</Time>
            <Position>
              <LatitudeDegrees>36.4721043594181537628173828125</LatitudeDegrees>
              <LongitudeDegrees>-5.4112646542489528656005859375</LongitudeDegrees>
            </Position>
            <AltitudeMeters>45.200000762939453125</AltitudeMeters>
            <DistanceMeters>NAN</DistanceMeters>
          </Trackpoint>
          <Trackpoint>
            <Time>2019-01-04T12:04:10.000Z</Time>
            <Position>
              <LatitudeDegrees>36.4720869250595569610595703125</LatitudeDegrees>
              <LongitudeDegrees>-5.4112700186669826507568359375</LongitudeDegrees>
            </Position>
            <AltitudeMeters>45.200000762939453125</AltitudeMeters>
            <DistanceMeters>NAN</DistanceMeters>
          </Trackpoint>
          <Trackpoint>
            <Time>2019-01-04T12:04:11.000Z</Time>
            <Position>
              <LatitudeDegrees>36.4720704965293407440185546875</LatitudeDegrees>
              <LongitudeDegrees>-5.411275885999202728271484375</LongitudeDegrees>
            </Position>
            <AltitudeMeters>45.200000762939453125</AltitudeMeters>
            <DistanceMeters>NAN</DistanceMeters>
          </Trackpoint>
          <Trackpoint>
            <Time>2019-01-04T12:04:12.000Z</Time>
            <Position>
              <LatitudeDegrees>36.47205482237040996551513671875</LatitudeDegrees>
              <LongitudeDegrees>-5.41128116659820079803466796875</LongitudeDegrees>
            </Position>
            <AltitudeMeters>45.200000762939453125</AltitudeMeters>
            <DistanceMeters>NAN</DistanceMeters>
          </Trackpoint>
          <Trackpoint>
            <Time>2019-01-04T12:04:13.000Z</Time>
            <Position>
              <LatitudeDegrees>36.4720379747450351715087890625</LatitudeDegrees>
              <LongitudeDegrees>-5.4112882912158966064453125</LongitudeDegrees>
            </Position>
            <AltitudeMeters>45.200000762939453125</AltitudeMeters>
            <DistanceMeters>NAN</DistanceMeters>
          </Trackpoint>
          <Trackpoint>
            <Time>2019-01-04T12:04:14.000Z</Time>
            <Position>
              <LatitudeDegrees>36.47202179767191410064697265625</LatitudeDegrees>
              <LongitudeDegrees>-5.4112941585481166839599609375</LongitudeDegrees>
            </Position>
            <AltitudeMeters>45.200000762939453125</AltitudeMeters>
            <DistanceMeters>NAN</DistanceMeters>
          </Trackpoint>
          <Trackpoint>
            <Time>2019-01-04T12:04:15.000Z</Time>
            <Position>
              <LatitudeDegrees>36.47200671024620532989501953125</LatitudeDegrees>
              <LongitudeDegrees>-5.411301366984844207763671875</LongitudeDegrees>
            </Position>
            <AltitudeMeters>45.200000762939453125</AltitudeMeters>
            <DistanceMeters>NAN</DistanceMeters>
          </Trackpoint>
          <Trackpoint>
            <Time>2019-01-04T12:04:16.000Z</Time>
            <Position>
              <LatitudeDegrees>36.4719927124679088592529296875</LatitudeDegrees>
              <LongitudeDegrees>-5.41130639612674713134765625</LongitudeDegrees>
            </Position>
            <AltitudeMeters>45.200000762939453125</AltitudeMeters>
            <DistanceMeters>NAN</DistanceMeters>
          </Trackpoint>
          <Trackpoint>
            <Time>2019-01-04T12:04:17.000Z</Time>
            <Position>
              <LatitudeDegrees>36.4719808101654052734375</LatitudeDegrees>
              <LongitudeDegrees>-5.41130865924060344696044921875</LongitudeDegrees>
            </Position>
            <AltitudeMeters>45.200000762939453125</AltitudeMeters>
            <DistanceMeters>NAN</DistanceMeters>
          </Trackpoint>
          <Trackpoint>
            <Time>2019-01-04T12:04:18.000Z</Time>
            <Position>
              <LatitudeDegrees>36.47196966223418712615966796875</LatitudeDegrees>
              <LongitudeDegrees>-5.411311089992523193359375</LongitudeDegrees>
            </Position>
            <AltitudeMeters>45.200000762939453125</AltitudeMeters>
            <DistanceMeters>NAN</DistanceMeters>
          </Trackpoint>
          <Trackpoint>
            <Time>2019-01-04T12:04:19.000Z</Time>
            <Position>
              <LatitudeDegrees>36.47195943631231784820556640625</LatitudeDegrees>
              <LongitudeDegrees>-5.41131234727799892425537109375</LongitudeDegrees>
            </Position>
            <AltitudeMeters>45</AltitudeMeters>
            <DistanceMeters>NAN</DistanceMeters>
          </Trackpoint>
          <Trackpoint>
            <Time>2019-01-04T12:04:20.000Z</Time>
            <Position>
              <LatitudeDegrees>36.47194837220013141632080078125</LatitudeDegrees>
              <LongitudeDegrees>-5.4113125987350940704345703125</LongitudeDegrees>
            </Position>
            <AltitudeMeters>45</AltitudeMeters>
            <DistanceMeters>NAN</DistanceMeters>
          </Trackpoint>
          <Trackpoint>
            <Time>2019-01-04T12:04:21.000Z</Time>
            <Position>
              <LatitudeDegrees>36.47193747572600841522216796875</LatitudeDegrees>
              <LongitudeDegrees>-5.4113099165260791778564453125</LongitudeDegrees>
            </Position>
            <AltitudeMeters>45</AltitudeMeters>
            <DistanceMeters>NAN</DistanceMeters>
          </Trackpoint>
          <Trackpoint>
            <Time>2019-01-04T12:04:22.000Z</Time>
            <Position>
              <LatitudeDegrees>36.47192490287125110626220703125</LatitudeDegrees>
              <LongitudeDegrees>-5.4113097488880157470703125</LongitudeDegrees>
            </Position>
            <AltitudeMeters>45</AltitudeMeters>
            <DistanceMeters>NAN</DistanceMeters>
          </Trackpoint>
          <Trackpoint>
            <Time>2019-01-04T12:04:23.000Z</Time>
            <Position>
              <LatitudeDegrees>36.471912749111652374267578125</LatitudeDegrees>
              <LongitudeDegrees>-5.4113125987350940704345703125</LongitudeDegrees>
            </Position>
            <AltitudeMeters>45</AltitudeMeters>
            <DistanceMeters>NAN</DistanceMeters>
          </Trackpoint>
          <Trackpoint>
            <Time>2019-01-04T12:04:24.000Z</Time>
            <Position>
              <LatitudeDegrees>36.471900008618831634521484375</LatitudeDegrees>
              <LongitudeDegrees>-5.4113199748098850250244140625</LongitudeDegrees>
            </Position>
            <AltitudeMeters>45</AltitudeMeters>
            <DistanceMeters>NAN</DistanceMeters>
          </Trackpoint>
          <Trackpoint>
            <Time>2019-01-04T12:04:25.000Z</Time>
            <Position>
              <LatitudeDegrees>36.47188894450664520263671875</LatitudeDegrees>
              <LongitudeDegrees>-5.41132424958050251007080078125</LongitudeDegrees>
            </Position>
            <AltitudeMeters>45</AltitudeMeters>
            <DistanceMeters>NAN</DistanceMeters>
          </Trackpoint>
          <Trackpoint>
            <Time>2019-01-04T12:04:26.000Z</Time>
            <Position>
              <LatitudeDegrees>36.4718770422041416168212890625</LatitudeDegrees>
              <LongitudeDegrees>-5.41133078746497631072998046875</LongitudeDegrees>
            </Position>
            <AltitudeMeters>45</AltitudeMeters>
            <DistanceMeters>NAN</DistanceMeters>
          </Trackpoint>
          <Trackpoint>
            <Time>2019-01-04T12:04:27.000Z</Time>
            <Position>
              <LatitudeDegrees>36.4718609489500522613525390625</LatitudeDegrees>
              <LongitudeDegrees>-5.411338247358798980712890625</LongitudeDegrees>
            </Position>
            <AltitudeMeters>45</AltitudeMeters>
            <DistanceMeters>NAN</DistanceMeters>
          </Trackpoint>
          <Trackpoint>
            <Time>2019-01-04T12:04:28.000Z</Time>
            <Position>
              <LatitudeDegrees>36.4718451909720897674560546875</LatitudeDegrees>
              <LongitudeDegrees>-5.4113472998142242431640625</LongitudeDegrees>
            </Position>
            <AltitudeMeters>45</AltitudeMeters>
            <DistanceMeters>NAN</DistanceMeters>
          </Trackpoint>
          <Trackpoint>
            <Time>2019-01-04T12:04:29.000Z</Time>
            <Position>
              <LatitudeDegrees>36.4718297682702541351318359375</LatitudeDegrees>
              <LongitudeDegrees>-5.41135543026030063629150390625</LongitudeDegrees>
            </Position>
            <AltitudeMeters>45.200000762939453125</AltitudeMeters>
            <DistanceMeters>NAN</DistanceMeters>
          </Trackpoint>
          <Trackpoint>
            <Time>2019-01-04T12:04:30.000Z</Time>
            <Position>
              <LatitudeDegrees>36.471815519034862518310546875</LatitudeDegrees>
              <LongitudeDegrees>-5.41136330924928188323974609375</LongitudeDegrees>
            </Position>
            <AltitudeMeters>45.40000152587890625</AltitudeMeters>
            <DistanceMeters>NAN</DistanceMeters>
          </Trackpoint>
          <Trackpoint>
            <Time>2019-01-04T12:04:31.000Z</Time>
            <Position>
              <LatitudeDegrees>36.471802778542041778564453125</LatitudeDegrees>
              <LongitudeDegrees>-5.4113716073334217071533203125</LongitudeDegrees>
            </Position>
            <AltitudeMeters>45.40000152587890625</AltitudeMeters>
            <DistanceMeters>NAN</DistanceMeters>
          </Trackpoint>
          <Trackpoint>
            <Time>2019-01-04T12:04:32.000Z</Time>
            <Position>
              <LatitudeDegrees>36.47179012186825275421142578125</LatitudeDegrees>
              <LongitudeDegrees>-5.4113794863224029541015625</LongitudeDegrees>
            </Position>
            <AltitudeMeters>45.59999847412109375</AltitudeMeters>
            <DistanceMeters>NAN</DistanceMeters>
          </Trackpoint>
          <Trackpoint>
            <Time>2019-01-04T12:04:33.000Z</Time>
            <Position>
              <LatitudeDegrees>36.47177553735673427581787109375</LatitudeDegrees>
              <LongitudeDegrees>-5.41138325817883014678955078125</LongitudeDegrees>
            </Position>
            <AltitudeMeters>45.59999847412109375</AltitudeMeters>
            <DistanceMeters>NAN</DistanceMeters>
          </Trackpoint>
          <Trackpoint>
            <Time>2019-01-04T12:04:34.000Z</Time>
            <Position>
              <LatitudeDegrees>36.4717610366642475128173828125</LatitudeDegrees>
              <LongitudeDegrees>-5.41138778440654277801513671875</LongitudeDegrees>
            </Position>
            <AltitudeMeters>45.59999847412109375</AltitudeMeters>
            <DistanceMeters>NAN</DistanceMeters>
          </Trackpoint>
          <Trackpoint>
            <Time>2019-01-04T12:04:35.000Z</Time>
            <Position>
              <LatitudeDegrees>36.47174670360982418060302734375</LatitudeDegrees>
              <LongitudeDegrees>-5.4113920591771602630615234375</LongitudeDegrees>
            </Position>
            <AltitudeMeters>45.59999847412109375</AltitudeMeters>
            <DistanceMeters>NAN</DistanceMeters>
          </Trackpoint>
          <Trackpoint>
            <Time>2019-01-04T12:04:36.000Z</Time>
            <Position>
              <LatitudeDegrees>36.47173429839313030242919921875</LatitudeDegrees>
              <LongitudeDegrees>-5.411392562091350555419921875</LongitudeDegrees>
            </Position>
            <AltitudeMeters>45.40000152587890625</AltitudeMeters>
            <DistanceMeters>NAN</DistanceMeters>
          </Trackpoint>
          <Trackpoint>
            <Time>2019-01-04T12:04:37.000Z</Time>
            <Position>
              <LatitudeDegrees>36.4717228151857852935791015625</LatitudeDegrees>
              <LongitudeDegrees>-5.4113927297294139862060546875</LongitudeDegrees>
            </Position>
            <AltitudeMeters>45.200000762939453125</AltitudeMeters>
            <DistanceMeters>NAN</DistanceMeters>
          </Trackpoint>
          <Trackpoint>
            <Time>2019-01-04T12:04:38.000Z</Time>
            <Position>
              <LatitudeDegrees>36.4717114157974720001220703125</LatitudeDegrees>
              <LongitudeDegrees>-5.41139448992908000946044921875</LongitudeDegrees>
            </Position>
            <AltitudeMeters>45.200000762939453125</AltitudeMeters>
            <DistanceMeters>NAN</DistanceMeters>
          </Trackpoint>
          <Trackpoint>
            <Time>2019-01-04T12:04:39.000Z</Time>
            <Position>
              <LatitudeDegrees>36.47169859148561954498291015625</LatitudeDegrees>
              <LongitudeDegrees>-5.411396585404872894287109375</LongitudeDegrees>
            </Position>
            <AltitudeMeters>45.200000762939453125</AltitudeMeters>
            <DistanceMeters>NAN</DistanceMeters>
          </Trackpoint>
          <Trackpoint>
            <Time>2019-01-04T12:04:40.000Z</Time>
            <Position>
              <LatitudeDegrees>36.47168601863086223602294921875</LatitudeDegrees>
              <LongitudeDegrees>-5.411399267613887786865234375</LongitudeDegrees>
            </Position>
            <AltitudeMeters>45.200000762939453125</AltitudeMeters>
            <DistanceMeters>NAN</DistanceMeters>
          </Trackpoint>
          <Trackpoint>
            <Time>2019-01-04T12:04:41.000Z</Time>
            <Position>
              <LatitudeDegrees>36.47167042829096317291259765625</LatitudeDegrees>
              <LongitudeDegrees>-5.41140287183225154876708984375</LongitudeDegrees>
            </Position>
            <AltitudeMeters>45.200000762939453125</AltitudeMeters>
            <DistanceMeters>NAN</DistanceMeters>
          </Trackpoint>
          <Trackpoint>
            <Time>2019-01-04T12:04:42.000Z</Time>
            <Position>
              <LatitudeDegrees>36.47165467031300067901611328125</LatitudeDegrees>
              <LongitudeDegrees>-5.41140832006931304931640625</LongitudeDegrees>
            </Position>
            <AltitudeMeters>45.200000762939453125</AltitudeMeters>
            <DistanceMeters>NAN</DistanceMeters>
          </Trackpoint>
          <Trackpoint>
            <Time>2019-01-04T12:04:43.000Z</Time>
            <Position>
              <LatitudeDegrees>36.47164109162986278533935546875</LatitudeDegrees>
              <LongitudeDegrees>-5.41141259483993053436279296875</LongitudeDegrees>
            </Position>
            <AltitudeMeters>45.200000762939453125</AltitudeMeters>
            <DistanceMeters>NAN</DistanceMeters>
          </Trackpoint>
          <Trackpoint>
            <Time>2019-01-04T12:04:44.000Z</Time>
            <Position>
              <LatitudeDegrees>36.471627093851566314697265625</LatitudeDegrees>
              <LongitudeDegrees>-5.4114170372486114501953125</LongitudeDegrees>
            </Position>
            <AltitudeMeters>45.200000762939453125</AltitudeMeters>
            <DistanceMeters>NAN</DistanceMeters>
          </Trackpoint>
          <Trackpoint>
            <Time>2019-01-04T12:04:45.000Z</Time>
            <Position>
              <LatitudeDegrees>36.4716111682355403900146484375</LatitudeDegrees>
              <LongitudeDegrees>-5.41142248548567295074462890625</LongitudeDegrees>
            </Position>
            <AltitudeMeters>45.200000762939453125</AltitudeMeters>
            <DistanceMeters>NAN</DistanceMeters>
          </Trackpoint>
          <Trackpoint>
            <Time>2019-01-04T12:04:46.000Z</Time>
            <Position>
              <LatitudeDegrees>36.4715954102575778961181640625</LatitudeDegrees>
              <LongitudeDegrees>-5.41142868809401988983154296875</LongitudeDegrees>
            </Position>
            <AltitudeMeters>45.200000762939453125</AltitudeMeters>
            <DistanceMeters>NAN</DistanceMeters>
          </Trackpoint>
          <Trackpoint>
            <Time>2019-01-04T12:04:47.000Z</Time>
            <Position>
              <LatitudeDegrees>36.47157722152769565582275390625</LatitudeDegrees>
              <LongitudeDegrees>-5.4114349745213985443115234375</LongitudeDegrees>
            </Position>
            <AltitudeMeters>45.200000762939453125</AltitudeMeters>
            <DistanceMeters>NAN</DistanceMeters>
          </Trackpoint>
          <Trackpoint>
            <Time>2019-01-04T12:04:48.000Z</Time>
            <Position>
              <LatitudeDegrees>36.47156012244522571563720703125</LatitudeDegrees>
              <LongitudeDegrees>-5.41144209913909435272216796875</LongitudeDegrees>
            </Position>
            <AltitudeMeters>45.200000762939453125</AltitudeMeters>
            <DistanceMeters>NAN</DistanceMeters>
          </Trackpoint>
          <Trackpoint>
            <Time>2019-01-04T12:04:49.000Z</Time>
            <Position>
              <LatitudeDegrees>36.4715427719056606292724609375</LatitudeDegrees>
              <LongitudeDegrees>-5.411447547376155853271484375</LongitudeDegrees>
            </Position>
            <AltitudeMeters>45.40000152587890625</AltitudeMeters>
            <DistanceMeters>NAN</DistanceMeters>
          </Trackpoint>
          <Trackpoint>
            <Time>2019-01-04T12:04:50.000Z</Time>
            <Position>
              <LatitudeDegrees>36.471527516841888427734375</LatitudeDegrees>
              <LongitudeDegrees>-5.4114519059658050537109375</LongitudeDegrees>
            </Position>
            <AltitudeMeters>45.59999847412109375</AltitudeMeters>
            <DistanceMeters>NAN</DistanceMeters>
          </Trackpoint>
          <Trackpoint>
            <Time>2019-01-04T12:04:51.000Z</Time>
            <Position>
              <LatitudeDegrees>36.47151335142552852630615234375</LatitudeDegrees>
              <LongitudeDegrees>-5.41145634837448596954345703125</LongitudeDegrees>
            </Position>
            <AltitudeMeters>45.799999237060546875</AltitudeMeters>
            <DistanceMeters>NAN</DistanceMeters>
          </Trackpoint>
          <Trackpoint>
            <Time>2019-01-04T12:04:52.000Z</Time>
            <Position>
              <LatitudeDegrees>36.47149759344756603240966796875</LatitudeDegrees>
              <LongitudeDegrees>-5.411461293697357177734375</LongitudeDegrees>
            </Position>
            <AltitudeMeters>45.799999237060546875</AltitudeMeters>
            <DistanceMeters>NAN</DistanceMeters>
          </Trackpoint>
          <Trackpoint>
            <Time>2019-01-04T12:04:53.000Z</Time>
            <Position>
              <LatitudeDegrees>36.47148191928863525390625</LatitudeDegrees>
              <LongitudeDegrees>-5.41146707721054553985595703125</LongitudeDegrees>
            </Position>
            <AltitudeMeters>45.799999237060546875</AltitudeMeters>
            <DistanceMeters>NAN</DistanceMeters>
          </Trackpoint>
          <Trackpoint>
            <Time>2019-01-04T12:04:54.000Z</Time>
            <Position>
              <LatitudeDegrees>36.47146641276776790618896484375</LatitudeDegrees>
              <LongitudeDegrees>-5.4114733636379241943359375</LongitudeDegrees>
            </Position>
            <AltitudeMeters>45.799999237060546875</AltitudeMeters>
            <DistanceMeters>NAN</DistanceMeters>
          </Trackpoint>
          <Trackpoint>
            <Time>2019-01-04T12:04:55.000Z</Time>
            <Position>
              <LatitudeDegrees>36.4714502356946468353271484375</LatitudeDegrees>
              <LongitudeDegrees>-5.411478392779827117919921875</LongitudeDegrees>
            </Position>
            <AltitudeMeters>45.59999847412109375</AltitudeMeters>
            <DistanceMeters>NAN</DistanceMeters>
          </Trackpoint>
          <Trackpoint>
            <Time>2019-01-04T12:04:56.000Z</Time>
            <Position>
              <LatitudeDegrees>36.47143489681184291839599609375</LatitudeDegrees>
              <LongitudeDegrees>-5.41148484684526920318603515625</LongitudeDegrees>
            </Position>
            <AltitudeMeters>45.40000152587890625</AltitudeMeters>
            <DistanceMeters>NAN</DistanceMeters>
          </Trackpoint>
          <Trackpoint>
            <Time>2019-01-04T12:04:57.000Z</Time>
            <Position>
              <LatitudeDegrees>36.471417881548404693603515625</LatitudeDegrees>
              <LongitudeDegrees>-5.41148903779685497283935546875</LongitudeDegrees>
            </Position>
            <AltitudeMeters>45.40000152587890625</AltitudeMeters>
            <DistanceMeters>NAN</DistanceMeters>
          </Trackpoint>
          <Trackpoint>
            <Time>2019-01-04T12:04:58.000Z</Time>
            <Position>
              <LatitudeDegrees>36.47140472196042537689208984375</LatitudeDegrees>
              <LongitudeDegrees>-5.41149289347231388092041015625</LongitudeDegrees>
            </Position>
            <AltitudeMeters>45.200000762939453125</AltitudeMeters>
            <DistanceMeters>NAN</DistanceMeters>
          </Trackpoint>
          <Trackpoint>
            <Time>2019-01-04T12:04:59.000Z</Time>
            <Position>
              <LatitudeDegrees>36.4713912270963191986083984375</LatitudeDegrees>
              <LongitudeDegrees>-5.41149624623358249664306640625</LongitudeDegrees>
            </Position>
            <AltitudeMeters>45.200000762939453125</AltitudeMeters>
            <DistanceMeters>NAN</DistanceMeters>
          </Trackpoint>
          <Trackpoint>
            <Time>2019-01-04T12:05:00.000Z</Time>
            <Position>
              <LatitudeDegrees>36.47137974388897418975830078125</LatitudeDegrees>
              <LongitudeDegrees>-5.4114975035190582275390625</LongitudeDegrees>
            </Position>
            <AltitudeMeters>45.200000762939453125</AltitudeMeters>
            <DistanceMeters>NAN</DistanceMeters>
          </Trackpoint>
          <Trackpoint>
            <Time>2019-01-04T12:05:01.000Z</Time>
            <Position>
              <LatitudeDegrees>36.47137052379548549652099609375</LatitudeDegrees>
              <LongitudeDegrees>-5.4114996828138828277587890625</LongitudeDegrees>
            </Position>
            <AltitudeMeters>45.200000762939453125</AltitudeMeters>
            <DistanceMeters>NAN</DistanceMeters>
          </Trackpoint>
          <Trackpoint>
            <Time>2019-01-04T12:05:02.000Z</Time>
            <Position>
              <LatitudeDegrees>36.4713590405881404876708984375</LatitudeDegrees>
              <LongitudeDegrees>-5.41150311939418315887451171875</LongitudeDegrees>
            </Position>
            <AltitudeMeters>45.200000762939453125</AltitudeMeters>
            <DistanceMeters>NAN</DistanceMeters>
          </Trackpoint>
          <Trackpoint>
            <Time>2019-01-04T12:05:03.000Z</Time>
            <Position>
              <LatitudeDegrees>36.47134923376142978668212890625</LatitudeDegrees>
              <LongitudeDegrees>-5.41150764562189579010009765625</LongitudeDegrees>
            </Position>
            <AltitudeMeters>45.40000152587890625</AltitudeMeters>
            <DistanceMeters>NAN</DistanceMeters>
          </Trackpoint>
          <Trackpoint>
            <Time>2019-01-04T12:05:04.000Z</Time>
            <Position>
              <LatitudeDegrees>36.4713382534682750701904296875</LatitudeDegrees>
              <LongitudeDegrees>-5.41151451878249645233154296875</LongitudeDegrees>
            </Position>
            <AltitudeMeters>45.200000762939453125</AltitudeMeters>
            <DistanceMeters>NAN</DistanceMeters>
          </Trackpoint>
          <Trackpoint>
            <Time>2019-01-04T12:05:05.000Z</Time>
            <Position>
              <LatitudeDegrees>36.47132542915642261505126953125</LatitudeDegrees>
              <LongitudeDegrees>-5.41152021847665309906005859375</LongitudeDegrees>
            </Position>
            <AltitudeMeters>45.200000762939453125</AltitudeMeters>
            <DistanceMeters>NAN</DistanceMeters>
          </Trackpoint>
          <Trackpoint>
            <Time>2019-01-04T12:05:06.000Z</Time>
            <Position>
              <LatitudeDegrees>36.47131226956844329833984375</LatitudeDegrees>
              <LongitudeDegrees>-5.41152575053274631500244140625</LongitudeDegrees>
            </Position>
            <AltitudeMeters>45.200000762939453125</AltitudeMeters>
            <DistanceMeters>NAN</DistanceMeters>
          </Trackpoint>
          <Trackpoint>
            <Time>2019-01-04T12:05:07.000Z</Time>
            <Position>
              <LatitudeDegrees>36.471297852694988250732421875</LatitudeDegrees>
              <LongitudeDegrees>-5.41152927093207836151123046875</LongitudeDegrees>
            </Position>
            <AltitudeMeters>45.200000762939453125</AltitudeMeters>
            <DistanceMeters>NAN</DistanceMeters>
          </Trackpoint>
          <Trackpoint>
            <Time>2019-01-04T12:05:08.000Z</Time>
            <Position>
              <LatitudeDegrees>36.471283771097660064697265625</LatitudeDegrees>
              <LongitudeDegrees>-5.411532036960124969482421875</LongitudeDegrees>
            </Position>
            <AltitudeMeters>45.40000152587890625</AltitudeMeters>
            <DistanceMeters>NAN</DistanceMeters>
          </Trackpoint>
          <Trackpoint>
            <Time>2019-01-04T12:05:09.000Z</Time>
            <Position>
              <LatitudeDegrees>36.47126977331936359405517578125</LatitudeDegrees>
              <LongitudeDegrees>-5.4115355573594570159912109375</LongitudeDegrees>
            </Position>
            <AltitudeMeters>45.40000152587890625</AltitudeMeters>
            <DistanceMeters>NAN</DistanceMeters>
          </Trackpoint>
          <Trackpoint>
            <Time>2019-01-04T12:05:10.000Z</Time>
            <Position>
              <LatitudeDegrees>36.47125518880784511566162109375</LatitudeDegrees>
              <LongitudeDegrees>-5.4115415923297405242919921875</LongitudeDegrees>
            </Position>
            <AltitudeMeters>45.59999847412109375</AltitudeMeters>
            <DistanceMeters>NAN</DistanceMeters>
          </Trackpoint>
          <Trackpoint>
            <Time>2019-01-04T12:05:11.000Z</Time>
            <Position>
              <LatitudeDegrees>36.47123892791569232940673828125</LatitudeDegrees>
              <LongitudeDegrees>-5.41154653765261173248291015625</LongitudeDegrees>
            </Position>
            <AltitudeMeters>45.799999237060546875</AltitudeMeters>
            <DistanceMeters>NAN</DistanceMeters>
          </Trackpoint>
          <Trackpoint>
            <Time>2019-01-04T12:05:12.000Z</Time>
            <Position>
              <LatitudeDegrees>36.47122216410934925079345703125</LatitudeDegrees>
              <LongitudeDegrees>-5.4115539975464344024658203125</LongitudeDegrees>
            </Position>
            <AltitudeMeters>46</AltitudeMeters>
            <DistanceMeters>NAN</DistanceMeters>
          </Trackpoint>
          <Trackpoint>
            <Time>2019-01-04T12:05:13.000Z</Time>
            <Position>
              <LatitudeDegrees>36.4712051488459110260009765625</LatitudeDegrees>
              <LongitudeDegrees>-5.41155961342155933380126953125</LongitudeDegrees>
            </Position>
            <AltitudeMeters>46.200000762939453125</AltitudeMeters>
            <DistanceMeters>NAN</DistanceMeters>
          </Trackpoint>
          <Trackpoint>
            <Time>2019-01-04T12:05:14.000Z</Time>
            <Position>
              <LatitudeDegrees>36.47118863649666309356689453125</LatitudeDegrees>
              <LongitudeDegrees>-5.41156615130603313446044921875</LongitudeDegrees>
            </Position>
            <AltitudeMeters>46.40000152587890625</AltitudeMeters>
            <DistanceMeters>NAN</DistanceMeters>
          </Trackpoint>
          <Trackpoint>
            <Time>2019-01-04T12:05:15.000Z</Time>
            <Position>
              <LatitudeDegrees>36.47117078304290771484375</LatitudeDegrees>
              <LongitudeDegrees>-5.4115752875804901123046875</LongitudeDegrees>
            </Position>
            <AltitudeMeters>46.59999847412109375</AltitudeMeters>
            <DistanceMeters>NAN</DistanceMeters>
          </Trackpoint>
          <Trackpoint>
            <Time>2019-01-04T12:05:16.000Z</Time>
            <Position>
              <LatitudeDegrees>36.4711560308933258056640625</LatitudeDegrees>
              <LongitudeDegrees>-5.41158610023558139801025390625</LongitudeDegrees>
            </Position>
            <AltitudeMeters>46.59999847412109375</AltitudeMeters>
            <DistanceMeters>NAN</DistanceMeters>
          </Trackpoint>
          <Trackpoint>
            <Time>2019-01-04T12:05:17.000Z</Time>
            <Position>
              <LatitudeDegrees>36.47114153020083904266357421875</LatitudeDegrees>
              <LongitudeDegrees>-5.41159464977681636810302734375</LongitudeDegrees>
            </Position>
            <AltitudeMeters>46.40000152587890625</AltitudeMeters>
            <DistanceMeters>NAN</DistanceMeters>
          </Trackpoint>
          <Trackpoint>
            <Time>2019-01-04T12:05:18.000Z</Time>
            <Position>
              <LatitudeDegrees>36.47112627513706684112548828125</LatitudeDegrees>
              <LongitudeDegrees>-5.411597751080989837646484375</LongitudeDegrees>
            </Position>
            <AltitudeMeters>46.200000762939453125</AltitudeMeters>
            <DistanceMeters>NAN</DistanceMeters>
          </Trackpoint>
          <Trackpoint>
            <Time>2019-01-04T12:05:19.000Z</Time>
            <Position>
              <LatitudeDegrees>36.471112109720706939697265625</LatitudeDegrees>
              <LongitudeDegrees>-5.41159884072840213775634765625</LongitudeDegrees>
            </Position>
            <AltitudeMeters>46</AltitudeMeters>
            <DistanceMeters>NAN</DistanceMeters>
          </Trackpoint>
          <Trackpoint>
            <Time>2019-01-04T12:05:20.000Z</Time>
            <Position>
              <LatitudeDegrees>36.47109911777079105377197265625</LatitudeDegrees>
              <LongitudeDegrees>-5.41160034947097301483154296875</LongitudeDegrees>
            </Position>
            <AltitudeMeters>45.799999237060546875</AltitudeMeters>
            <DistanceMeters>NAN</DistanceMeters>
          </Trackpoint>
          <Trackpoint>
            <Time>2019-01-04T12:05:21.000Z</Time>
            <Position>
              <LatitudeDegrees>36.47108671255409717559814453125</LatitudeDegrees>
              <LongitudeDegrees>-5.4116019420325756072998046875</LongitudeDegrees>
            </Position>
            <AltitudeMeters>45.59999847412109375</AltitudeMeters>
            <DistanceMeters>NAN</DistanceMeters>
          </Trackpoint>
          <Trackpoint>
            <Time>2019-01-04T12:05:22.000Z</Time>
            <Position>
              <LatitudeDegrees>36.471075899899005889892578125</LatitudeDegrees>
              <LongitudeDegrees>-5.4116047918796539306640625</LongitudeDegrees>
            </Position>
            <AltitudeMeters>45.59999847412109375</AltitudeMeters>
            <DistanceMeters>NAN</DistanceMeters>
          </Trackpoint>
          <Trackpoint>
            <Time>2019-01-04T12:05:23.000Z</Time>
            <Position>
              <LatitudeDegrees>36.47106416523456573486328125</LatitudeDegrees>
              <LongitudeDegrees>-5.41160889901220798492431640625</LongitudeDegrees>
            </Position>
            <AltitudeMeters>45.799999237060546875</AltitudeMeters>
            <DistanceMeters>NAN</DistanceMeters>
          </Trackpoint>
          <Trackpoint>
            <Time>2019-01-04T12:05:24.000Z</Time>
            <Position>
              <LatitudeDegrees>36.471051089465618133544921875</LatitudeDegrees>
              <LongitudeDegrees>-5.411611497402191162109375</LongitudeDegrees>
            </Position>
            <AltitudeMeters>45.799999237060546875</AltitudeMeters>
            <DistanceMeters>NAN</DistanceMeters>
          </Trackpoint>
          <Trackpoint>
            <Time>2019-01-04T12:05:25.000Z</Time>
            <Position>
              <LatitudeDegrees>36.47103742696344852447509765625</LatitudeDegrees>
              <LongitudeDegrees>-5.41161485016345977783203125</LongitudeDegrees>
            </Position>
            <AltitudeMeters>45.799999237060546875</AltitudeMeters>
            <DistanceMeters>NAN</DistanceMeters>
          </Trackpoint>
          <Trackpoint>
            <Time>2019-01-04T12:05:26.000Z</Time>
            <Position>
              <LatitudeDegrees>36.4710217528045177459716796875</LatitudeDegrees>
              <LongitudeDegrees>-5.41161878965795040130615234375</LongitudeDegrees>
            </Position>
            <AltitudeMeters>45.799999237060546875</AltitudeMeters>
            <DistanceMeters>NAN</DistanceMeters>
          </Trackpoint>
          <Trackpoint>
            <Time>2019-01-04T12:05:27.000Z</Time>
            <Position>
              <LatitudeDegrees>36.47100725211203098297119140625</LatitudeDegrees>
              <LongitudeDegrees>-5.411621890962123870849609375</LongitudeDegrees>
            </Position>
            <AltitudeMeters>45.799999237060546875</AltitudeMeters>
            <DistanceMeters>NAN</DistanceMeters>
          </Trackpoint>
          <Trackpoint>
            <Time>2019-01-04T12:05:28.000Z</Time>
            <Position>
              <LatitudeDegrees>36.4709909074008464813232421875</LatitudeDegrees>
              <LongitudeDegrees>-5.411626584827899932861328125</LongitudeDegrees>
            </Position>
            <AltitudeMeters>46</AltitudeMeters>
            <DistanceMeters>NAN</DistanceMeters>
          </Trackpoint>
          <Trackpoint>
            <Time>2019-01-04T12:05:29.000Z</Time>
            <Position>
              <LatitudeDegrees>36.470975317060947418212890625</LatitudeDegrees>
              <LongitudeDegrees>-5.4116321168839931488037109375</LongitudeDegrees>
            </Position>
            <AltitudeMeters>46</AltitudeMeters>
            <DistanceMeters>NAN</DistanceMeters>
          </Trackpoint>
          <Trackpoint>
            <Time>2019-01-04T12:05:30.000Z</Time>
            <Position>
              <LatitudeDegrees>36.47096131928265094757080078125</LatitudeDegrees>
              <LongitudeDegrees>-5.411639995872974395751953125</LongitudeDegrees>
            </Position>
            <AltitudeMeters>46</AltitudeMeters>
            <DistanceMeters>NAN</DistanceMeters>
          </Trackpoint>
          <Trackpoint>
            <Time>2019-01-04T12:05:31.000Z</Time>
            <Position>
              <LatitudeDegrees>36.470945812761783599853515625</LatitudeDegrees>
              <LongitudeDegrees>-5.4116461984813213348388671875</LongitudeDegrees>
            </Position>
            <AltitudeMeters>45.59999847412109375</AltitudeMeters>
            <DistanceMeters>NAN</DistanceMeters>
          </Trackpoint>
          <Trackpoint>
            <Time>2019-01-04T12:05:32.000Z</Time>
            <Position>
              <LatitudeDegrees>36.47093030624091625213623046875</LatitudeDegrees>
              <LongitudeDegrees>-5.41165147908031940460205078125</LongitudeDegrees>
            </Position>
            <AltitudeMeters>45.200000762939453125</AltitudeMeters>
            <DistanceMeters>NAN</DistanceMeters>
          </Trackpoint>
          <Trackpoint>
            <Time>2019-01-04T12:05:33.000Z</Time>
            <Position>
              <LatitudeDegrees>36.470914967358112335205078125</LatitudeDegrees>
              <LongitudeDegrees>-5.41165499947965145111083984375</LongitudeDegrees>
            </Position>
            <AltitudeMeters>45</AltitudeMeters>
            <DistanceMeters>NAN</DistanceMeters>
          </Trackpoint>
          <Trackpoint>
            <Time>2019-01-04T12:05:34.000Z</Time>
            <Position>
              <LatitudeDegrees>36.470902226865291595458984375</LatitudeDegrees>
              <LongitudeDegrees>-5.411659441888332366943359375</LongitudeDegrees>
            </Position>
            <AltitudeMeters>44.799999237060546875</AltitudeMeters>
            <DistanceMeters>NAN</DistanceMeters>
          </Trackpoint>
          <Trackpoint>
            <Time>2019-01-04T12:05:35.000Z</Time>
            <Position>
              <LatitudeDegrees>36.47088940255343914031982421875</LatitudeDegrees>
              <LongitudeDegrees>-5.41166287846863269805908203125</LongitudeDegrees>
            </Position>
            <AltitudeMeters>44.799999237060546875</AltitudeMeters>
            <DistanceMeters>NAN</DistanceMeters>
          </Trackpoint>
          <Trackpoint>
            <Time>2019-01-04T12:05:36.000Z</Time>
            <Position>
              <LatitudeDegrees>36.47087532095611095428466796875</LatitudeDegrees>
              <LongitudeDegrees>-5.41166773997247219085693359375</LongitudeDegrees>
            </Position>
            <AltitudeMeters>45</AltitudeMeters>
            <DistanceMeters>NAN</DistanceMeters>
          </Trackpoint>
          <Trackpoint>
            <Time>2019-01-04T12:05:37.000Z</Time>
            <Position>
              <LatitudeDegrees>36.47086190991103649139404296875</LatitudeDegrees>
              <LongitudeDegrees>-5.41167209856212139129638671875</LongitudeDegrees>
            </Position>
            <AltitudeMeters>45.200000762939453125</AltitudeMeters>
            <DistanceMeters>NAN</DistanceMeters>
          </Trackpoint>
          <Trackpoint>
            <Time>2019-01-04T12:05:38.000Z</Time>
            <Position>
              <LatitudeDegrees>36.4708453975617885589599609375</LatitudeDegrees>
              <LongitudeDegrees>-5.41167863644659519195556640625</LongitudeDegrees>
            </Position>
            <AltitudeMeters>45.59999847412109375</AltitudeMeters>
            <DistanceMeters>NAN</DistanceMeters>
          </Trackpoint>
          <Trackpoint>
            <Time>2019-01-04T12:05:39.000Z</Time>
            <Position>
              <LatitudeDegrees>36.4708299748599529266357421875</LatitudeDegrees>
              <LongitudeDegrees>-5.41168592870235443115234375</LongitudeDegrees>
            </Position>
            <AltitudeMeters>45.59999847412109375</AltitudeMeters>
            <DistanceMeters>NAN</DistanceMeters>
          </Trackpoint>
          <Trackpoint>
            <Time>2019-01-04T12:05:40.000Z</Time>
            <Position>
              <LatitudeDegrees>36.4708132110536098480224609375</LatitudeDegrees>
              <LongitudeDegrees>-5.411691963672637939453125</LongitudeDegrees>
            </Position>
            <AltitudeMeters>45.59999847412109375</AltitudeMeters>
            <DistanceMeters>NAN</DistanceMeters>
          </Trackpoint>
          <Trackpoint>
            <Time>2019-01-04T12:05:41.000Z</Time>
            <Position>
              <LatitudeDegrees>36.47079837508499622344970703125</LatitudeDegrees>
              <LongitudeDegrees>-5.41169204749166965484619140625</LongitudeDegrees>
            </Position>
            <AltitudeMeters>45.59999847412109375</AltitudeMeters>
            <DistanceMeters>NAN</DistanceMeters>
          </Trackpoint>
          <Trackpoint>
            <Time>2019-01-04T12:05:42.000Z</Time>
            <Position>
              <LatitudeDegrees>36.47078454494476318359375</LatitudeDegrees>
              <LongitudeDegrees>-5.411697663366794586181640625</LongitudeDegrees>
            </Position>
            <AltitudeMeters>45.59999847412109375</AltitudeMeters>
            <DistanceMeters>NAN</DistanceMeters>
          </Trackpoint>
          <Trackpoint>
            <Time>2019-01-04T12:05:43.000Z</Time>
            <Position>
              <LatitudeDegrees>36.47077155299484729766845703125</LatitudeDegrees>
              <LongitudeDegrees>-5.41170327924191951751708984375</LongitudeDegrees>
            </Position>
            <AltitudeMeters>45.40000152587890625</AltitudeMeters>
            <DistanceMeters>NAN</DistanceMeters>
          </Trackpoint>
          <Trackpoint>
            <Time>2019-01-04T12:05:44.000Z</Time>
            <Position>
              <LatitudeDegrees>36.47075596265494823455810546875</LatitudeDegrees>
              <LongitudeDegrees>-5.4117082245647907257080078125</LongitudeDegrees>
            </Position>
            <AltitudeMeters>45.40000152587890625</AltitudeMeters>
            <DistanceMeters>NAN</DistanceMeters>
          </Trackpoint>
          <Trackpoint>
            <Time>2019-01-04T12:05:45.000Z</Time>
            <Position>
              <LatitudeDegrees>36.4707387797534465789794921875</LatitudeDegrees>
              <LongitudeDegrees>-5.41171132586896419525146484375</LongitudeDegrees>
            </Position>
            <AltitudeMeters>45.40000152587890625</AltitudeMeters>
            <DistanceMeters>NAN</DistanceMeters>
          </Trackpoint>
          <Trackpoint>
            <Time>2019-01-04T12:05:46.000Z</Time>
            <Position>
              <LatitudeDegrees>36.47072193212807178497314453125</LatitudeDegrees>
              <LongitudeDegrees>-5.41171786375343799591064453125</LongitudeDegrees>
            </Position>
            <AltitudeMeters>45.40000152587890625</AltitudeMeters>
            <DistanceMeters>NAN</DistanceMeters>
          </Trackpoint>
          <Trackpoint>
            <Time>2019-01-04T12:05:47.000Z</Time>
            <Position>
              <LatitudeDegrees>36.4707062579691410064697265625</LatitudeDegrees>
              <LongitudeDegrees>-5.41172037832438945770263671875</LongitudeDegrees>
            </Position>
            <AltitudeMeters>45.40000152587890625</AltitudeMeters>
            <DistanceMeters>NAN</DistanceMeters>
          </Trackpoint>
          <Trackpoint>
            <Time>2019-01-04T12:05:48.000Z</Time>
            <Position>
              <LatitudeDegrees>36.4706935174763202667236328125</LatitudeDegrees>
              <LongitudeDegrees>-5.4117249883711338043212890625</LongitudeDegrees>
            </Position>
            <AltitudeMeters>45.40000152587890625</AltitudeMeters>
            <DistanceMeters>NAN</DistanceMeters>
          </Trackpoint>
          <Trackpoint>
            <Time>2019-01-04T12:05:49.000Z</Time>
            <Position>
              <LatitudeDegrees>36.470681615173816680908203125</LatitudeDegrees>
              <LongitudeDegrees>-5.41172876022756099700927734375</LongitudeDegrees>
            </Position>
            <AltitudeMeters>45.40000152587890625</AltitudeMeters>
            <DistanceMeters>NAN</DistanceMeters>
          </Trackpoint>
          <Trackpoint>
            <Time>2019-01-04T12:05:50.000Z</Time>
            <Position>
              <LatitudeDegrees>36.47067247889935970306396484375</LatitudeDegrees>
              <LongitudeDegrees>-5.4117333702743053436279296875</LongitudeDegrees>
            </Position>
            <AltitudeMeters>45.40000152587890625</AltitudeMeters>
            <DistanceMeters>NAN</DistanceMeters>
          </Trackpoint>
          <Trackpoint>
            <Time>2019-01-04T12:05:51.000Z</Time>
            <Position>
              <LatitudeDegrees>36.4706633426249027252197265625</LatitudeDegrees>
              <LongitudeDegrees>-5.41173445992171764373779296875</LongitudeDegrees>
            </Position>
            <AltitudeMeters>45.40000152587890625</AltitudeMeters>
            <DistanceMeters>NAN</DistanceMeters>
          </Trackpoint>
          <Trackpoint>
            <Time>2019-01-04T12:05:52.000Z</Time>
            <Position>
              <LatitudeDegrees>36.47065512835979461669921875</LatitudeDegrees>
              <LongitudeDegrees>-5.41173663921654224395751953125</LongitudeDegrees>
            </Position>
            <AltitudeMeters>45.40000152587890625</AltitudeMeters>
            <DistanceMeters>NAN</DistanceMeters>
          </Trackpoint>
          <Trackpoint>
            <Time>2019-01-04T12:05:53.000Z</Time>
            <Position>
              <LatitudeDegrees>36.4706464111804962158203125</LatitudeDegrees>
              <LongitudeDegrees>-5.41174083016812801361083984375</LongitudeDegrees>
            </Position>
            <AltitudeMeters>45.40000152587890625</AltitudeMeters>
            <DistanceMeters>NAN</DistanceMeters>
          </Trackpoint>
          <Trackpoint>
            <Time>2019-01-04T12:05:54.000Z</Time>
            <Position>
              <LatitudeDegrees>36.47063576616346836090087890625</LatitudeDegrees>
              <LongitudeDegrees>-5.411743931472301483154296875</LongitudeDegrees>
            </Position>
            <AltitudeMeters>45.40000152587890625</AltitudeMeters>
            <DistanceMeters>NAN</DistanceMeters>
          </Trackpoint>
          <Trackpoint>
            <Time>2019-01-04T12:05:55.000Z</Time>
            <Position>
              <LatitudeDegrees>36.4706249535083770751953125</LatitudeDegrees>
              <LongitudeDegrees>-5.41174686513841152191162109375</LongitudeDegrees>
            </Position>
            <AltitudeMeters>45.40000152587890625</AltitudeMeters>
            <DistanceMeters>NAN</DistanceMeters>
          </Trackpoint>
          <Trackpoint>
            <Time>2019-01-04T12:05:56.000Z</Time>
            <Position>
              <LatitudeDegrees>36.4706147275865077972412109375</LatitudeDegrees>
              <LongitudeDegrees>-5.4117494635283946990966796875</LongitudeDegrees>
            </Position>
            <AltitudeMeters>45.40000152587890625</AltitudeMeters>
            <DistanceMeters>NAN</DistanceMeters>
          </Trackpoint>
          <Trackpoint>
            <Time>2019-01-04T12:05:57.000Z</Time>
            <Position>
              <LatitudeDegrees>36.47060307674109935760498046875</LatitudeDegrees>
              <LongitudeDegrees>-5.41175357066094875335693359375</LongitudeDegrees>
            </Position>
            <AltitudeMeters>45.40000152587890625</AltitudeMeters>
            <DistanceMeters>NAN</DistanceMeters>
          </Trackpoint>
          <Trackpoint>
            <Time>2019-01-04T12:05:58.000Z</Time>
            <Position>
              <LatitudeDegrees>36.47059083916246891021728515625</LatitudeDegrees>
              <LongitudeDegrees>-5.4117601923644542694091796875</LongitudeDegrees>
            </Position>
            <AltitudeMeters>45.40000152587890625</AltitudeMeters>
            <DistanceMeters>NAN</DistanceMeters>
          </Trackpoint>
          <Trackpoint>
            <Time>2019-01-04T12:05:59.000Z</Time>
            <Position>
              <LatitudeDegrees>36.47057491354644298553466796875</LatitudeDegrees>
              <LongitudeDegrees>-5.41176547296345233917236328125</LongitudeDegrees>
            </Position>
            <AltitudeMeters>45.200000762939453125</AltitudeMeters>
            <DistanceMeters>NAN</DistanceMeters>
          </Trackpoint>
          <Trackpoint>
            <Time>2019-01-04T12:06:00.000Z</Time>
            <Position>
              <LatitudeDegrees>36.47055982612073421478271484375</LatitudeDegrees>
              <LongitudeDegrees>-5.41176832281053066253662109375</LongitudeDegrees>
            </Position>
            <AltitudeMeters>45.200000762939453125</AltitudeMeters>
            <DistanceMeters>NAN</DistanceMeters>
          </Trackpoint>
          <Trackpoint>
            <Time>2019-01-04T12:06:01.000Z</Time>
            <Position>
              <LatitudeDegrees>36.47054607979953289031982421875</LatitudeDegrees>
              <LongitudeDegrees>-5.41176899336278438568115234375</LongitudeDegrees>
            </Position>
            <AltitudeMeters>45.200000762939453125</AltitudeMeters>
            <DistanceMeters>NAN</DistanceMeters>
          </Trackpoint>
          <Trackpoint>
            <Time>2019-01-04T12:06:02.000Z</Time>
            <Position>
              <LatitudeDegrees>36.47053317166864871978759765625</LatitudeDegrees>
              <LongitudeDegrees>-5.4117732681334018707275390625</LongitudeDegrees>
            </Position>
            <AltitudeMeters>45.200000762939453125</AltitudeMeters>
            <DistanceMeters>NAN</DistanceMeters>
          </Trackpoint>
          <Trackpoint>
            <Time>2019-01-04T12:06:03.000Z</Time>
            <Position>
              <LatitudeDegrees>36.47052143700420856475830078125</LatitudeDegrees>
              <LongitudeDegrees>-5.41177921928465366363525390625</LongitudeDegrees>
            </Position>
            <AltitudeMeters>45.200000762939453125</AltitudeMeters>
            <DistanceMeters>NAN</DistanceMeters>
          </Trackpoint>
          <Trackpoint>
            <Time>2019-01-04T12:06:04.000Z</Time>
            <Position>
              <LatitudeDegrees>36.47051054053008556365966796875</LatitudeDegrees>
              <LongitudeDegrees>-5.4117863439023494720458984375</LongitudeDegrees>
            </Position>
            <AltitudeMeters>45.40000152587890625</AltitudeMeters>
            <DistanceMeters>NAN</DistanceMeters>
          </Trackpoint>
          <Trackpoint>
            <Time>2019-01-04T12:06:05.000Z</Time>
            <Position>
              <LatitudeDegrees>36.47050031460821628570556640625</LatitudeDegrees>
              <LongitudeDegrees>-5.41178978048264980316162109375</LongitudeDegrees>
            </Position>
            <AltitudeMeters>45.40000152587890625</AltitudeMeters>
            <DistanceMeters>NAN</DistanceMeters>
          </Trackpoint>
          <Trackpoint>
            <Time>2019-01-04T12:06:06.000Z</Time>
            <Position>
              <LatitudeDegrees>36.4704908430576324462890625</LatitudeDegrees>
              <LongitudeDegrees>-5.4117920435965061187744140625</LongitudeDegrees>
            </Position>
            <AltitudeMeters>45.40000152587890625</AltitudeMeters>
            <DistanceMeters>NAN</DistanceMeters>
          </Trackpoint>
          <Trackpoint>
            <Time>2019-01-04T12:06:07.000Z</Time>
            <Position>
              <LatitudeDegrees>36.47047969512641429901123046875</LatitudeDegrees>
              <LongitudeDegrees>-5.411795563995838165283203125</LongitudeDegrees>
            </Position>
            <AltitudeMeters>45.59999847412109375</AltitudeMeters>
            <DistanceMeters>NAN</DistanceMeters>
          </Trackpoint>
          <Trackpoint>
            <Time>2019-01-04T12:06:08.000Z</Time>
            <Position>
              <LatitudeDegrees>36.470465362071990966796875</LatitudeDegrees>
              <LongitudeDegrees>-5.4118004254996776580810546875</LongitudeDegrees>
            </Position>
            <AltitudeMeters>45.59999847412109375</AltitudeMeters>
            <DistanceMeters>NAN</DistanceMeters>
          </Trackpoint>
          <Trackpoint>
            <Time>2019-01-04T12:06:09.000Z</Time>
            <Position>
              <LatitudeDegrees>36.4704527892172336578369140625</LatitudeDegrees>
              <LongitudeDegrees>-5.411803610622882843017578125</LongitudeDegrees>
            </Position>
            <AltitudeMeters>45.799999237060546875</AltitudeMeters>
            <DistanceMeters>NAN</DistanceMeters>
          </Trackpoint>
          <Trackpoint>
            <Time>2019-01-04T12:06:10.000Z</Time>
            <Position>
              <LatitudeDegrees>36.47043644450604915618896484375</LatitudeDegrees>
              <LongitudeDegrees>-5.411806963384151458740234375</LongitudeDegrees>
            </Position>
            <AltitudeMeters>45.799999237060546875</AltitudeMeters>
            <DistanceMeters>NAN</DistanceMeters>
          </Trackpoint>
          <Trackpoint>
            <Time>2019-01-04T12:06:11.000Z</Time>
            <Position>
              <LatitudeDegrees>36.47042169235646724700927734375</LatitudeDegrees>
              <LongitudeDegrees>-5.4118135012686252593994140625</LongitudeDegrees>
            </Position>
            <AltitudeMeters>45.799999237060546875</AltitudeMeters>
            <DistanceMeters>NAN</DistanceMeters>
          </Trackpoint>
          <Trackpoint>
            <Time>2019-01-04T12:06:12.000Z</Time>
            <Position>
              <LatitudeDegrees>36.4704081974923610687255859375</LatitudeDegrees>
              <LongitudeDegrees>-5.411821044981479644775390625</LongitudeDegrees>
            </Position>
            <AltitudeMeters>45.799999237060546875</AltitudeMeters>
            <DistanceMeters>NAN</DistanceMeters>
          </Trackpoint>
          <Trackpoint>
            <Time>2019-01-04T12:06:13.000Z</Time>
            <Position>
              <LatitudeDegrees>36.4703934453427791595458984375</LatitudeDegrees>
              <LongitudeDegrees>-5.4118295945227146148681640625</LongitudeDegrees>
            </Position>
            <AltitudeMeters>45.799999237060546875</AltitudeMeters>
            <DistanceMeters>NAN</DistanceMeters>
          </Trackpoint>
          <Trackpoint>
            <Time>2019-01-04T12:06:14.000Z</Time>
            <Position>
              <LatitudeDegrees>36.47037827409803867340087890625</LatitudeDegrees>
              <LongitudeDegrees>-5.411836802959442138671875</LongitudeDegrees>
            </Position>
            <AltitudeMeters>45.799999237060546875</AltitudeMeters>
            <DistanceMeters>NAN</DistanceMeters>
          </Trackpoint>
          <Trackpoint>
            <Time>2019-01-04T12:06:15.000Z</Time>
            <Position>
              <LatitudeDegrees>36.4703646115958690643310546875</LatitudeDegrees>
              <LongitudeDegrees>-5.41184292174875736236572265625</LongitudeDegrees>
            </Position>
            <AltitudeMeters>45.59999847412109375</AltitudeMeters>
            <DistanceMeters>NAN</DistanceMeters>
          </Trackpoint>
          <Trackpoint>
            <Time>2019-01-04T12:06:16.000Z</Time>
            <Position>
              <LatitudeDegrees>36.47035245783627033233642578125</LatitudeDegrees>
              <LongitudeDegrees>-5.4118493758141994476318359375</LongitudeDegrees>
            </Position>
            <AltitudeMeters>45.59999847412109375</AltitudeMeters>
            <DistanceMeters>NAN</DistanceMeters>
          </Trackpoint>
          <Trackpoint>
            <Time>2019-01-04T12:06:17.000Z</Time>
            <Position>
              <LatitudeDegrees>36.47033938206732273101806640625</LatitudeDegrees>
              <LongitudeDegrees>-5.41185482405126094818115234375</LongitudeDegrees>
            </Position>
            <AltitudeMeters>45.59999847412109375</AltitudeMeters>
            <DistanceMeters>NAN</DistanceMeters>
          </Trackpoint>
          <Trackpoint>
            <Time>2019-01-04T12:06:18.000Z</Time>
            <Position>
              <LatitudeDegrees>36.470326222479343414306640625</LatitudeDegrees>
              <LongitudeDegrees>-5.41186069138348102569580078125</LongitudeDegrees>
            </Position>
            <AltitudeMeters>45.59999847412109375</AltitudeMeters>
            <DistanceMeters>NAN</DistanceMeters>
          </Trackpoint>
          <Trackpoint>
            <Time>2019-01-04T12:06:19.000Z</Time>
            <Position>
              <LatitudeDegrees>36.47031306289136409759521484375</LatitudeDegrees>
              <LongitudeDegrees>-5.41186789982020854949951171875</LongitudeDegrees>
            </Position>
            <AltitudeMeters>45.59999847412109375</AltitudeMeters>
            <DistanceMeters>NAN</DistanceMeters>
          </Trackpoint>
          <Trackpoint>
            <Time>2019-01-04T12:06:20.000Z</Time>
            <Position>
              <LatitudeDegrees>36.47029797546565532684326171875</LatitudeDegrees>
              <LongitudeDegrees>-5.41187209077179431915283203125</LongitudeDegrees>
            </Position>
            <AltitudeMeters>45.59999847412109375</AltitudeMeters>
            <DistanceMeters>NAN</DistanceMeters>
          </Trackpoint>
          <Trackpoint>
            <Time>2019-01-04T12:06:21.000Z</Time>
            <Position>
              <LatitudeDegrees>36.47028607316315174102783203125</LatitudeDegrees>
              <LongitudeDegrees>-5.41187644936144351959228515625</LongitudeDegrees>
            </Position>
            <AltitudeMeters>45.59999847412109375</AltitudeMeters>
            <DistanceMeters>NAN</DistanceMeters>
          </Trackpoint>
          <Trackpoint>
            <Time>2019-01-04T12:06:22.000Z</Time>
            <Position>
              <LatitudeDegrees>36.47027299739420413970947265625</LatitudeDegrees>
              <LongitudeDegrees>-5.411879718303680419921875</LongitudeDegrees>
            </Position>
            <AltitudeMeters>45.59999847412109375</AltitudeMeters>
            <DistanceMeters>NAN</DistanceMeters>
          </Trackpoint>
          <Trackpoint>
            <Time>2019-01-04T12:06:23.000Z</Time>
            <Position>
              <LatitudeDegrees>36.47025992162525653839111328125</LatitudeDegrees>
              <LongitudeDegrees>-5.4118839092552661895751953125</LongitudeDegrees>
            </Position>
            <AltitudeMeters>45.799999237060546875</AltitudeMeters>
            <DistanceMeters>NAN</DistanceMeters>
          </Trackpoint>
          <Trackpoint>
            <Time>2019-01-04T12:06:24.000Z</Time>
            <Position>
              <LatitudeDegrees>36.47024617530405521392822265625</LatitudeDegrees>
              <LongitudeDegrees>-5.41188634000718593597412109375</LongitudeDegrees>
            </Position>
            <AltitudeMeters>45.799999237060546875</AltitudeMeters>
            <DistanceMeters>NAN</DistanceMeters>
          </Trackpoint>
          <Trackpoint>
            <Time>2019-01-04T12:06:25.000Z</Time>
            <Position>
              <LatitudeDegrees>36.47023242898285388946533203125</LatitudeDegrees>
              <LongitudeDegrees>-5.41189002804458141326904296875</LongitudeDegrees>
            </Position>
            <AltitudeMeters>45.799999237060546875</AltitudeMeters>
            <DistanceMeters>NAN</DistanceMeters>
          </Trackpoint>
          <Trackpoint>
            <Time>2019-01-04T12:06:26.000Z</Time>
            <Position>
              <LatitudeDegrees>36.4702199399471282958984375</LatitudeDegrees>
              <LongitudeDegrees>-5.4118946380913257598876953125</LongitudeDegrees>
            </Position>
            <AltitudeMeters>45.799999237060546875</AltitudeMeters>
            <DistanceMeters>NAN</DistanceMeters>
          </Trackpoint>
          <Trackpoint>
            <Time>2019-01-04T12:06:27.000Z</Time>
            <Position>
              <LatitudeDegrees>36.47020627744495868682861328125</LatitudeDegrees>
              <LongitudeDegrees>-5.41189807467162609100341796875</LongitudeDegrees>
            </Position>
            <AltitudeMeters>45.799999237060546875</AltitudeMeters>
            <DistanceMeters>NAN</DistanceMeters>
          </Trackpoint>
          <Trackpoint>
            <Time>2019-01-04T12:06:28.000Z</Time>
            <Position>
              <LatitudeDegrees>36.47019303403794765472412109375</LatitudeDegrees>
              <LongitudeDegrees>-5.41190184652805328369140625</LongitudeDegrees>
            </Position>
            <AltitudeMeters>46</AltitudeMeters>
            <DistanceMeters>NAN</DistanceMeters>
          </Trackpoint>
          <Trackpoint>
            <Time>2019-01-04T12:06:29.000Z</Time>
            <Position>
              <LatitudeDegrees>36.47017995826900005340576171875</LatitudeDegrees>
              <LongitudeDegrees>-5.41190578602254390716552734375</LongitudeDegrees>
            </Position>
            <AltitudeMeters>46</AltitudeMeters>
            <DistanceMeters>NAN</DistanceMeters>
          </Trackpoint>
          <Trackpoint>
            <Time>2019-01-04T12:06:30.000Z</Time>
            <Position>
              <LatitudeDegrees>36.47016696631908416748046875</LatitudeDegrees>
              <LongitudeDegrees>-5.41191047988831996917724609375</LongitudeDegrees>
            </Position>
            <AltitudeMeters>46</AltitudeMeters>
            <DistanceMeters>NAN</DistanceMeters>
          </Trackpoint>
          <Trackpoint>
            <Time>2019-01-04T12:06:31.000Z</Time>
            <Position>
              <LatitudeDegrees>36.47015355527400970458984375</LatitudeDegrees>
              <LongitudeDegrees>-5.4119147546589374542236328125</LongitudeDegrees>
            </Position>
            <AltitudeMeters>46</AltitudeMeters>
            <DistanceMeters>NAN</DistanceMeters>
          </Trackpoint>
          <Trackpoint>
            <Time>2019-01-04T12:06:32.000Z</Time>
            <Position>
              <LatitudeDegrees>36.47013972513377666473388671875</LatitudeDegrees>
              <LongitudeDegrees>-5.41192003525793552398681640625</LongitudeDegrees>
            </Position>
            <AltitudeMeters>46</AltitudeMeters>
            <DistanceMeters>NAN</DistanceMeters>
          </Trackpoint>
          <Trackpoint>
            <Time>2019-01-04T12:06:33.000Z</Time>
            <Position>
              <LatitudeDegrees>36.47012664936482906341552734375</LatitudeDegrees>
              <LongitudeDegrees>-5.4119251482188701629638671875</LongitudeDegrees>
            </Position>
            <AltitudeMeters>46</AltitudeMeters>
            <DistanceMeters>NAN</DistanceMeters>
          </Trackpoint>
          <Trackpoint>
            <Time>2019-01-04T12:06:34.000Z</Time>
            <Position>
              <LatitudeDegrees>36.4701141603291034698486328125</LatitudeDegrees>
              <LongitudeDegrees>-5.41192824952304363250732421875</LongitudeDegrees>
            </Position>
            <AltitudeMeters>45.799999237060546875</AltitudeMeters>
            <DistanceMeters>NAN</DistanceMeters>
          </Trackpoint>
          <Trackpoint>
            <Time>2019-01-04T12:06:35.000Z</Time>
            <Position>
              <LatitudeDegrees>36.47009982727468013763427734375</LatitudeDegrees>
              <LongitudeDegrees>-5.411932356655597686767578125</LongitudeDegrees>
            </Position>
            <AltitudeMeters>45.799999237060546875</AltitudeMeters>
            <DistanceMeters>NAN</DistanceMeters>
          </Trackpoint>
          <Trackpoint>
            <Time>2019-01-04T12:06:36.000Z</Time>
            <Position>
              <LatitudeDegrees>36.4700856618583202362060546875</LatitudeDegrees>
              <LongitudeDegrees>-5.41193562559783458709716796875</LongitudeDegrees>
            </Position>
            <AltitudeMeters>45.799999237060546875</AltitudeMeters>
            <DistanceMeters>NAN</DistanceMeters>
          </Trackpoint>
          <Trackpoint>
            <Time>2019-01-04T12:06:37.000Z</Time>
            <Position>
              <LatitudeDegrees>36.4700699038803577423095703125</LatitudeDegrees>
              <LongitudeDegrees>-5.41193939745426177978515625</LongitudeDegrees>
            </Position>
            <AltitudeMeters>45.799999237060546875</AltitudeMeters>
            <DistanceMeters>NAN</DistanceMeters>
          </Trackpoint>
          <Trackpoint>
            <Time>2019-01-04T12:06:38.000Z</Time>
            <Position>
              <LatitudeDegrees>36.47005473263561725616455078125</LatitudeDegrees>
              <LongitudeDegrees>-5.41194467805325984954833984375</LongitudeDegrees>
            </Position>
            <AltitudeMeters>45.799999237060546875</AltitudeMeters>
            <DistanceMeters>NAN</DistanceMeters>
          </Trackpoint>
          <Trackpoint>
            <Time>2019-01-04T12:06:39.000Z</Time>
            <Position>
              <LatitudeDegrees>36.470039896667003631591796875</LatitudeDegrees>
              <LongitudeDegrees>-5.41194970719516277313232421875</LongitudeDegrees>
            </Position>
            <AltitudeMeters>46</AltitudeMeters>
            <DistanceMeters>NAN</DistanceMeters>
          </Trackpoint>
          <Trackpoint>
            <Time>2019-01-04T12:06:40.000Z</Time>
            <Position>
              <LatitudeDegrees>36.47002623416483402252197265625</LatitudeDegrees>
              <LongitudeDegrees>-5.41195188648998737335205078125</LongitudeDegrees>
            </Position>
            <AltitudeMeters>46.40000152587890625</AltitudeMeters>
            <DistanceMeters>NAN</DistanceMeters>
          </Trackpoint>
          <Trackpoint>
            <Time>2019-01-04T12:06:41.000Z</Time>
            <Position>
              <LatitudeDegrees>36.4700115658342838287353515625</LatitudeDegrees>
              <LongitudeDegrees>-5.41195574216544628143310546875</LongitudeDegrees>
            </Position>
            <AltitudeMeters>46.799999237060546875</AltitudeMeters>
            <DistanceMeters>NAN</DistanceMeters>
          </Trackpoint>
          <Trackpoint>
            <Time>2019-01-04T12:06:42.000Z</Time>
            <Position>
              <LatitudeDegrees>36.469996981322765350341796875</LatitudeDegrees>
              <LongitudeDegrees>-5.4119573347270488739013671875</LongitudeDegrees>
            </Position>
            <AltitudeMeters>47</AltitudeMeters>
            <DistanceMeters>NAN</DistanceMeters>
          </Trackpoint>
          <Trackpoint>
            <Time>2019-01-04T12:06:43.000Z</Time>
            <Position>
              <LatitudeDegrees>36.469983570277690887451171875</LatitudeDegrees>
              <LongitudeDegrees>-5.41195993311703205108642578125</LongitudeDegrees>
            </Position>
            <AltitudeMeters>47.200000762939453125</AltitudeMeters>
            <DistanceMeters>NAN</DistanceMeters>
          </Trackpoint>
          <Trackpoint>
            <Time>2019-01-04T12:06:44.000Z</Time>
            <Position>
              <LatitudeDegrees>36.46996923722326755523681640625</LatitudeDegrees>
              <LongitudeDegrees>-5.41196144185960292816162109375</LongitudeDegrees>
            </Position>
            <AltitudeMeters>47.200000762939453125</AltitudeMeters>
            <DistanceMeters>NAN</DistanceMeters>
          </Trackpoint>
          <Trackpoint>
            <Time>2019-01-04T12:06:45.000Z</Time>
            <Position>
              <LatitudeDegrees>36.46995549090206623077392578125</LatitudeDegrees>
              <LongitudeDegrees>-5.41196378879249095916748046875</LongitudeDegrees>
            </Position>
            <AltitudeMeters>46.799999237060546875</AltitudeMeters>
            <DistanceMeters>NAN</DistanceMeters>
          </Trackpoint>
          <Trackpoint>
            <Time>2019-01-04T12:06:46.000Z</Time>
            <Position>
              <LatitudeDegrees>36.4699418283998966217041015625</LatitudeDegrees>
              <LongitudeDegrees>-5.4119642078876495361328125</LongitudeDegrees>
            </Position>
            <AltitudeMeters>46.59999847412109375</AltitudeMeters>
            <DistanceMeters>NAN</DistanceMeters>
          </Trackpoint>
          <Trackpoint>
            <Time>2019-01-04T12:06:47.000Z</Time>
            <Position>
              <LatitudeDegrees>36.46992783062160015106201171875</LatitudeDegrees>
              <LongitudeDegrees>-5.4119690693914890289306640625</LongitudeDegrees>
            </Position>
            <AltitudeMeters>46.40000152587890625</AltitudeMeters>
            <DistanceMeters>NAN</DistanceMeters>
          </Trackpoint>
          <Trackpoint>
            <Time>2019-01-04T12:06:48.000Z</Time>
            <Position>
              <LatitudeDegrees>36.46991441957652568817138671875</LatitudeDegrees>
              <LongitudeDegrees>-5.4119754396378993988037109375</LongitudeDegrees>
            </Position>
            <AltitudeMeters>46.40000152587890625</AltitudeMeters>
            <DistanceMeters>NAN</DistanceMeters>
          </Trackpoint>
        </Track>
      </Lap>
    </Activity>
  </Activities>
</TrainingCenterDatabase>
